<?xml version="1.0" encoding="UTF-8"?>
<gpx version="1.1" creator="https://www.youtrack.es" xsi:schemaLocation="http://www.topografix.com/GPX/1/1 http://www.topografix.com/GPX/1/1/gpx.xsd http://www.garmin.com/xmlschemas/GpxExtensions/v3 http://www.garmin.com/xmlschemas/GpxExtensionsv3.xsd http://www.garmin.com/xmlschemas/TrackPointExtension/v1 http://www.garmin.com/xmlschemas/TrackPointExtensionv1.xsd" xmlns:gpxtpx="http://www.garmin.com/xmlschemas/TrackPointExtension/v1" xmlns:gpxx="http://www.garmin.com/xmlschemas/GpxExtensions/v3" xmlns:xsi="http://www.w3.org/2001/XMLSchema-instance">
  <metadata>
    <link href="https://www.youtrack.es">
      <text>YouTrack.es</text>
    </link>
    <time>2026-05-08T12:53:13Z</time>
  </metadata>
  <trk>
    <src>https://www.youtrack.es</src>
    <link href="https://www.youtrack.es/ruta/25079-balsillas">
      <text>YouTrack.es</text>
    </link>
    <trkseg>
      <trkpt lat="2.931662" lon="-75.277725">
        <ele>465.8</ele>
        <time>2021-08-21T10:19:42Z</time>
      </trkpt>
      <trkpt lat="2.931661" lon="-75.277725">
        <ele>465.8</ele>
        <time>2021-08-21T10:19:43Z</time>
      </trkpt>
      <trkpt lat="2.931657" lon="-75.27772">
        <ele>465.9</ele>
        <time>2021-08-21T10:19:44Z</time>
      </trkpt>
      <trkpt lat="2.931652" lon="-75.27771">
        <ele>465.9</ele>
        <time>2021-08-21T10:19:45Z</time>
      </trkpt>
      <trkpt lat="2.93164" lon="-75.277695">
        <ele>466.0</ele>
        <time>2021-08-21T10:19:47Z</time>
      </trkpt>
      <trkpt lat="2.931647" lon="-75.27769">
        <ele>466.1</ele>
        <time>2021-08-21T10:19:49Z</time>
      </trkpt>
      <trkpt lat="2.931649" lon="-75.27769">
        <ele>466.1</ele>
        <time>2021-08-21T10:19:50Z</time>
      </trkpt>
      <trkpt lat="2.931537" lon="-75.27764">
        <ele>466.7</ele>
        <time>2021-08-21T10:20:00Z</time>
      </trkpt>
      <trkpt lat="2.93153" lon="-75.27764">
        <ele>466.7</ele>
        <time>2021-08-21T10:20:01Z</time>
      </trkpt>
      <trkpt lat="2.931516" lon="-75.27763">
        <ele>466.8</ele>
        <time>2021-08-21T10:20:02Z</time>
      </trkpt>
      <trkpt lat="2.931498" lon="-75.27763">
        <ele>466.9</ele>
        <time>2021-08-21T10:20:03Z</time>
      </trkpt>
      <trkpt lat="2.931476" lon="-75.277626">
        <ele>467.0</ele>
        <time>2021-08-21T10:20:04Z</time>
      </trkpt>
      <trkpt lat="2.931454" lon="-75.27761">
        <ele>467.1</ele>
        <time>2021-08-21T10:20:05Z</time>
      </trkpt>
      <trkpt lat="2.931431" lon="-75.2776">
        <ele>467.3</ele>
        <time>2021-08-21T10:20:06Z</time>
      </trkpt>
      <trkpt lat="2.931411" lon="-75.277596">
        <ele>467.4</ele>
        <time>2021-08-21T10:20:07Z</time>
      </trkpt>
      <trkpt lat="2.931393" lon="-75.27759">
        <ele>467.5</ele>
        <time>2021-08-21T10:20:08Z</time>
      </trkpt>
      <trkpt lat="2.931379" lon="-75.27758">
        <ele>467.5</ele>
        <time>2021-08-21T10:20:09Z</time>
      </trkpt>
      <trkpt lat="2.931365" lon="-75.27757">
        <ele>467.6</ele>
        <time>2021-08-21T10:20:10Z</time>
      </trkpt>
      <trkpt lat="2.931352" lon="-75.27756">
        <ele>467.7</ele>
        <time>2021-08-21T10:20:11Z</time>
      </trkpt>
      <trkpt lat="2.931337" lon="-75.27754">
        <ele>467.6</ele>
        <time>2021-08-21T10:20:12Z</time>
      </trkpt>
      <trkpt lat="2.931325" lon="-75.27753">
        <ele>466.7</ele>
        <time>2021-08-21T10:20:13Z</time>
      </trkpt>
      <trkpt lat="2.931318" lon="-75.277504">
        <ele>466.8</ele>
        <time>2021-08-21T10:20:14Z</time>
      </trkpt>
      <trkpt lat="2.931318" lon="-75.27747">
        <ele>466.8</ele>
        <time>2021-08-21T10:20:15Z</time>
      </trkpt>
      <trkpt lat="2.931324" lon="-75.277435">
        <ele>466.9</ele>
        <time>2021-08-21T10:20:16Z</time>
      </trkpt>
      <trkpt lat="2.931332" lon="-75.277405">
        <ele>467.0</ele>
        <time>2021-08-21T10:20:17Z</time>
      </trkpt>
      <trkpt lat="2.931343" lon="-75.27737">
        <ele>467.1</ele>
        <time>2021-08-21T10:20:18Z</time>
      </trkpt>
      <trkpt lat="2.931357" lon="-75.27732">
        <ele>467.2</ele>
        <time>2021-08-21T10:20:19Z</time>
      </trkpt>
      <trkpt lat="2.931371" lon="-75.27728">
        <ele>467.3</ele>
        <time>2021-08-21T10:20:20Z</time>
      </trkpt>
      <trkpt lat="2.931384" lon="-75.277245">
        <ele>467.5</ele>
        <time>2021-08-21T10:20:21Z</time>
      </trkpt>
      <trkpt lat="2.931395" lon="-75.27721">
        <ele>467.6</ele>
        <time>2021-08-21T10:20:22Z</time>
      </trkpt>
      <trkpt lat="2.931408" lon="-75.27717">
        <ele>467.7</ele>
        <time>2021-08-21T10:20:23Z</time>
      </trkpt>
      <trkpt lat="2.93142" lon="-75.27713">
        <ele>467.8</ele>
        <time>2021-08-21T10:20:24Z</time>
      </trkpt>
      <trkpt lat="2.931433" lon="-75.27709">
        <ele>468.0</ele>
        <time>2021-08-21T10:20:25Z</time>
      </trkpt>
      <trkpt lat="2.931446" lon="-75.27706">
        <ele>468.1</ele>
        <time>2021-08-21T10:20:26Z</time>
      </trkpt>
      <trkpt lat="2.931459" lon="-75.27702">
        <ele>468.2</ele>
        <time>2021-08-21T10:20:27Z</time>
      </trkpt>
      <trkpt lat="2.931473" lon="-75.276985">
        <ele>468.4</ele>
        <time>2021-08-21T10:20:28Z</time>
      </trkpt>
      <trkpt lat="2.931487" lon="-75.27695">
        <ele>468.5</ele>
        <time>2021-08-21T10:20:29Z</time>
      </trkpt>
      <trkpt lat="2.9315" lon="-75.27691">
        <ele>468.6</ele>
        <time>2021-08-21T10:20:30Z</time>
      </trkpt>
      <trkpt lat="2.931513" lon="-75.27688">
        <ele>468.7</ele>
        <time>2021-08-21T10:20:31Z</time>
      </trkpt>
      <trkpt lat="2.931524" lon="-75.27684">
        <ele>468.8</ele>
        <time>2021-08-21T10:20:32Z</time>
      </trkpt>
      <trkpt lat="2.931535" lon="-75.27681">
        <ele>468.9</ele>
        <time>2021-08-21T10:20:33Z</time>
      </trkpt>
      <trkpt lat="2.931546" lon="-75.27677">
        <ele>468.9</ele>
        <time>2021-08-21T10:20:34Z</time>
      </trkpt>
      <trkpt lat="2.931557" lon="-75.27674">
        <ele>469.0</ele>
        <time>2021-08-21T10:20:35Z</time>
      </trkpt>
      <trkpt lat="2.931567" lon="-75.2767">
        <ele>469.1</ele>
        <time>2021-08-21T10:20:36Z</time>
      </trkpt>
      <trkpt lat="2.931577" lon="-75.27667">
        <ele>469.2</ele>
        <time>2021-08-21T10:20:37Z</time>
      </trkpt>
      <trkpt lat="2.931588" lon="-75.27664">
        <ele>469.3</ele>
        <time>2021-08-21T10:20:38Z</time>
      </trkpt>
      <trkpt lat="2.931599" lon="-75.2766">
        <ele>469.4</ele>
        <time>2021-08-21T10:20:39Z</time>
      </trkpt>
      <trkpt lat="2.931609" lon="-75.27658">
        <ele>469.5</ele>
        <time>2021-08-21T10:20:40Z</time>
      </trkpt>
      <trkpt lat="2.931619" lon="-75.27655">
        <ele>469.5</ele>
        <time>2021-08-21T10:20:41Z</time>
      </trkpt>
      <trkpt lat="2.931629" lon="-75.27652">
        <ele>469.6</ele>
        <time>2021-08-21T10:20:42Z</time>
      </trkpt>
      <trkpt lat="2.931639" lon="-75.27649">
        <ele>469.7</ele>
        <time>2021-08-21T10:20:43Z</time>
      </trkpt>
      <trkpt lat="2.931649" lon="-75.27646">
        <ele>469.7</ele>
        <time>2021-08-21T10:20:44Z</time>
      </trkpt>
      <trkpt lat="2.931657" lon="-75.27643">
        <ele>469.8</ele>
        <time>2021-08-21T10:20:45Z</time>
      </trkpt>
      <trkpt lat="2.931664" lon="-75.276405">
        <ele>469.9</ele>
        <time>2021-08-21T10:20:46Z</time>
      </trkpt>
      <trkpt lat="2.931671" lon="-75.27637">
        <ele>469.9</ele>
        <time>2021-08-21T10:20:47Z</time>
      </trkpt>
      <trkpt lat="2.931679" lon="-75.276344">
        <ele>470.0</ele>
        <time>2021-08-21T10:20:48Z</time>
      </trkpt>
      <trkpt lat="2.931686" lon="-75.27631">
        <ele>470.1</ele>
        <time>2021-08-21T10:20:49Z</time>
      </trkpt>
      <trkpt lat="2.931694" lon="-75.27628">
        <ele>470.2</ele>
        <time>2021-08-21T10:20:50Z</time>
      </trkpt>
      <trkpt lat="2.931702" lon="-75.27625">
        <ele>470.3</ele>
        <time>2021-08-21T10:20:51Z</time>
      </trkpt>
      <trkpt lat="2.931713" lon="-75.27622">
        <ele>470.4</ele>
        <time>2021-08-21T10:20:52Z</time>
      </trkpt>
      <trkpt lat="2.931724" lon="-75.27619">
        <ele>470.5</ele>
        <time>2021-08-21T10:20:53Z</time>
      </trkpt>
      <trkpt lat="2.931736" lon="-75.27616">
        <ele>470.7</ele>
        <time>2021-08-21T10:20:54Z</time>
      </trkpt>
      <trkpt lat="2.931746" lon="-75.27613">
        <ele>470.8</ele>
        <time>2021-08-21T10:20:55Z</time>
      </trkpt>
      <trkpt lat="2.931756" lon="-75.2761">
        <ele>471.0</ele>
        <time>2021-08-21T10:20:56Z</time>
      </trkpt>
      <trkpt lat="2.931765" lon="-75.27607">
        <ele>471.1</ele>
        <time>2021-08-21T10:20:57Z</time>
      </trkpt>
      <trkpt lat="2.931773" lon="-75.27603">
        <ele>471.3</ele>
        <time>2021-08-21T10:20:58Z</time>
      </trkpt>
      <trkpt lat="2.931781" lon="-75.276">
        <ele>471.5</ele>
        <time>2021-08-21T10:20:59Z</time>
      </trkpt>
      <trkpt lat="2.931789" lon="-75.27596">
        <ele>471.8</ele>
        <time>2021-08-21T10:21:00Z</time>
      </trkpt>
      <trkpt lat="2.931797" lon="-75.27593">
        <ele>472.0</ele>
        <time>2021-08-21T10:21:01Z</time>
      </trkpt>
      <trkpt lat="2.931806" lon="-75.2759">
        <ele>472.2</ele>
        <time>2021-08-21T10:21:02Z</time>
      </trkpt>
      <trkpt lat="2.931815" lon="-75.27587">
        <ele>472.5</ele>
        <time>2021-08-21T10:21:03Z</time>
      </trkpt>
      <trkpt lat="2.931824" lon="-75.27585">
        <ele>472.8</ele>
        <time>2021-08-21T10:21:04Z</time>
      </trkpt>
      <trkpt lat="2.931832" lon="-75.27582">
        <ele>473.1</ele>
        <time>2021-08-21T10:21:05Z</time>
      </trkpt>
      <trkpt lat="2.931841" lon="-75.27579">
        <ele>473.4</ele>
        <time>2021-08-21T10:21:06Z</time>
      </trkpt>
      <trkpt lat="2.931849" lon="-75.275764">
        <ele>473.7</ele>
        <time>2021-08-21T10:21:07Z</time>
      </trkpt>
      <trkpt lat="2.931858" lon="-75.275734">
        <ele>473.9</ele>
        <time>2021-08-21T10:21:08Z</time>
      </trkpt>
      <trkpt lat="2.931867" lon="-75.27571">
        <ele>474.2</ele>
        <time>2021-08-21T10:21:09Z</time>
      </trkpt>
      <trkpt lat="2.931876" lon="-75.27568">
        <ele>474.5</ele>
        <time>2021-08-21T10:21:10Z</time>
      </trkpt>
      <trkpt lat="2.931885" lon="-75.275665">
        <ele>474.7</ele>
        <time>2021-08-21T10:21:11Z</time>
      </trkpt>
      <trkpt lat="2.931893" lon="-75.27564">
        <ele>475.0</ele>
        <time>2021-08-21T10:21:12Z</time>
      </trkpt>
      <trkpt lat="2.931902" lon="-75.27561">
        <ele>475.2</ele>
        <time>2021-08-21T10:21:13Z</time>
      </trkpt>
      <trkpt lat="2.931911" lon="-75.27559">
        <ele>475.4</ele>
        <time>2021-08-21T10:21:14Z</time>
      </trkpt>
      <trkpt lat="2.931919" lon="-75.275566">
        <ele>475.6</ele>
        <time>2021-08-21T10:21:15Z</time>
      </trkpt>
      <trkpt lat="2.931929" lon="-75.27554">
        <ele>475.9</ele>
        <time>2021-08-21T10:21:16Z</time>
      </trkpt>
      <trkpt lat="2.931938" lon="-75.27552">
        <ele>476.0</ele>
        <time>2021-08-21T10:21:17Z</time>
      </trkpt>
      <trkpt lat="2.931948" lon="-75.2755">
        <ele>476.1</ele>
        <time>2021-08-21T10:21:18Z</time>
      </trkpt>
      <trkpt lat="2.931957" lon="-75.275475">
        <ele>476.1</ele>
        <time>2021-08-21T10:21:19Z</time>
      </trkpt>
      <trkpt lat="2.931967" lon="-75.27545">
        <ele>476.3</ele>
        <time>2021-08-21T10:21:20Z</time>
      </trkpt>
      <trkpt lat="2.931978" lon="-75.27543">
        <ele>476.5</ele>
        <time>2021-08-21T10:21:21Z</time>
      </trkpt>
      <trkpt lat="2.931993" lon="-75.27539">
        <ele>476.7</ele>
        <time>2021-08-21T10:21:23Z</time>
      </trkpt>
      <trkpt lat="2.931998" lon="-75.275375">
        <ele>476.8</ele>
        <time>2021-08-21T10:21:23Z</time>
      </trkpt>
      <trkpt lat="2.932008" lon="-75.27535">
        <ele>477.0</ele>
        <time>2021-08-21T10:21:24Z</time>
      </trkpt>
      <trkpt lat="2.932018" lon="-75.27533">
        <ele>477.2</ele>
        <time>2021-08-21T10:21:24Z</time>
      </trkpt>
      <trkpt lat="2.932036" lon="-75.2753">
        <ele>477.5</ele>
        <time>2021-08-21T10:21:26Z</time>
      </trkpt>
      <trkpt lat="2.932041" lon="-75.27529">
        <ele>477.5</ele>
        <time>2021-08-21T10:21:26Z</time>
      </trkpt>
      <trkpt lat="2.932052" lon="-75.27527">
        <ele>477.7</ele>
        <time>2021-08-21T10:21:27Z</time>
      </trkpt>
      <trkpt lat="2.932063" lon="-75.275246">
        <ele>477.9</ele>
        <time>2021-08-21T10:21:28Z</time>
      </trkpt>
      <trkpt lat="2.932074" lon="-75.27522">
        <ele>478.1</ele>
        <time>2021-08-21T10:21:30Z</time>
      </trkpt>
      <trkpt lat="2.932084" lon="-75.27521">
        <ele>478.3</ele>
        <time>2021-08-21T10:21:31Z</time>
      </trkpt>
      <trkpt lat="2.932093" lon="-75.275185">
        <ele>478.5</ele>
        <time>2021-08-21T10:21:32Z</time>
      </trkpt>
      <trkpt lat="2.932102" lon="-75.27516">
        <ele>478.7</ele>
        <time>2021-08-21T10:21:33Z</time>
      </trkpt>
      <trkpt lat="2.932111" lon="-75.27514">
        <ele>478.9</ele>
        <time>2021-08-21T10:21:33Z</time>
      </trkpt>
      <trkpt lat="2.93212" lon="-75.27512">
        <ele>479.1</ele>
        <time>2021-08-21T10:21:34Z</time>
      </trkpt>
      <trkpt lat="2.93213" lon="-75.2751">
        <ele>479.3</ele>
        <time>2021-08-21T10:21:35Z</time>
      </trkpt>
      <trkpt lat="2.932138" lon="-75.27508">
        <ele>479.5</ele>
        <time>2021-08-21T10:21:37Z</time>
      </trkpt>
      <trkpt lat="2.932146" lon="-75.275055">
        <ele>479.7</ele>
        <time>2021-08-21T10:21:38Z</time>
      </trkpt>
      <trkpt lat="2.932153" lon="-75.27503">
        <ele>479.9</ele>
        <time>2021-08-21T10:21:39Z</time>
      </trkpt>
      <trkpt lat="2.932161" lon="-75.27501">
        <ele>480.1</ele>
        <time>2021-08-21T10:21:40Z</time>
      </trkpt>
      <trkpt lat="2.932167" lon="-75.27499">
        <ele>480.3</ele>
        <time>2021-08-21T10:21:41Z</time>
      </trkpt>
      <trkpt lat="2.932175" lon="-75.27496">
        <ele>480.5</ele>
        <time>2021-08-21T10:21:41Z</time>
      </trkpt>
      <trkpt lat="2.93219" lon="-75.274925">
        <ele>480.9</ele>
        <time>2021-08-21T10:21:43Z</time>
      </trkpt>
      <trkpt lat="2.932194" lon="-75.27491">
        <ele>481.0</ele>
        <time>2021-08-21T10:21:43Z</time>
      </trkpt>
      <trkpt lat="2.932205" lon="-75.27489">
        <ele>481.2</ele>
        <time>2021-08-21T10:21:44Z</time>
      </trkpt>
      <trkpt lat="2.932214" lon="-75.274864">
        <ele>481.4</ele>
        <time>2021-08-21T10:21:45Z</time>
      </trkpt>
      <trkpt lat="2.932229" lon="-75.27483">
        <ele>481.6</ele>
        <time>2021-08-21T10:21:47Z</time>
      </trkpt>
      <trkpt lat="2.932234" lon="-75.274826">
        <ele>481.8</ele>
        <time>2021-08-21T10:21:47Z</time>
      </trkpt>
      <trkpt lat="2.932243" lon="-75.2748">
        <ele>482.0</ele>
        <time>2021-08-21T10:21:48Z</time>
      </trkpt>
      <trkpt lat="2.932252" lon="-75.27479">
        <ele>482.2</ele>
        <time>2021-08-21T10:21:49Z</time>
      </trkpt>
      <trkpt lat="2.932259" lon="-75.274765">
        <ele>482.4</ele>
        <time>2021-08-21T10:21:50Z</time>
      </trkpt>
      <trkpt lat="2.932264" lon="-75.27474">
        <ele>482.6</ele>
        <time>2021-08-21T10:21:51Z</time>
      </trkpt>
      <trkpt lat="2.93227" lon="-75.27471">
        <ele>483.0</ele>
        <time>2021-08-21T10:21:53Z</time>
      </trkpt>
      <trkpt lat="2.932272" lon="-75.2747">
        <ele>483.1</ele>
        <time>2021-08-21T10:21:53Z</time>
      </trkpt>
      <trkpt lat="2.932272" lon="-75.27467">
        <ele>483.3</ele>
        <time>2021-08-21T10:21:54Z</time>
      </trkpt>
      <trkpt lat="2.932271" lon="-75.27465">
        <ele>483.5</ele>
        <time>2021-08-21T10:21:55Z</time>
      </trkpt>
      <trkpt lat="2.93227" lon="-75.27463">
        <ele>483.8</ele>
        <time>2021-08-21T10:21:56Z</time>
      </trkpt>
      <trkpt lat="2.932273" lon="-75.274605">
        <ele>484.0</ele>
        <time>2021-08-21T10:21:57Z</time>
      </trkpt>
      <trkpt lat="2.932275" lon="-75.274574">
        <ele>484.3</ele>
        <time>2021-08-21T10:21:58Z</time>
      </trkpt>
      <trkpt lat="2.932276" lon="-75.27455">
        <ele>484.5</ele>
        <time>2021-08-21T10:21:59Z</time>
      </trkpt>
      <trkpt lat="2.932277" lon="-75.274536">
        <ele>484.7</ele>
        <time>2021-08-21T10:22:00Z</time>
      </trkpt>
      <trkpt lat="2.932281" lon="-75.2745">
        <ele>485.1</ele>
        <time>2021-08-21T10:22:02Z</time>
      </trkpt>
      <trkpt lat="2.932282" lon="-75.27449">
        <ele>485.2</ele>
        <time>2021-08-21T10:22:02Z</time>
      </trkpt>
      <trkpt lat="2.932285" lon="-75.27447">
        <ele>485.4</ele>
        <time>2021-08-21T10:22:03Z</time>
      </trkpt>
      <trkpt lat="2.932293" lon="-75.27437">
        <ele>486.4</ele>
        <time>2021-08-21T10:22:05Z</time>
      </trkpt>
      <trkpt lat="2.932294" lon="-75.27435">
        <ele>486.5</ele>
        <time>2021-08-21T10:22:06Z</time>
      </trkpt>
      <trkpt lat="2.932295" lon="-75.274345">
        <ele>486.6</ele>
        <time>2021-08-21T10:22:07Z</time>
      </trkpt>
      <trkpt lat="2.932297" lon="-75.27433">
        <ele>486.8</ele>
        <time>2021-08-21T10:22:09Z</time>
      </trkpt>
      <trkpt lat="2.932298" lon="-75.27432">
        <ele>486.9</ele>
        <time>2021-08-21T10:22:10Z</time>
      </trkpt>
      <trkpt lat="2.932299" lon="-75.27431">
        <ele>487.0</ele>
        <time>2021-08-21T10:22:10Z</time>
      </trkpt>
      <trkpt lat="2.932301" lon="-75.274284">
        <ele>487.2</ele>
        <time>2021-08-21T10:22:11Z</time>
      </trkpt>
      <trkpt lat="2.932302" lon="-75.27427">
        <ele>487.4</ele>
        <time>2021-08-21T10:22:12Z</time>
      </trkpt>
      <trkpt lat="2.932304" lon="-75.27425">
        <ele>487.6</ele>
        <time>2021-08-21T10:22:13Z</time>
      </trkpt>
      <trkpt lat="2.932305" lon="-75.27423">
        <ele>487.8</ele>
        <time>2021-08-21T10:22:14Z</time>
      </trkpt>
      <trkpt lat="2.932307" lon="-75.27421">
        <ele>488.0</ele>
        <time>2021-08-21T10:22:15Z</time>
      </trkpt>
      <trkpt lat="2.93231" lon="-75.27418">
        <ele>488.2</ele>
        <time>2021-08-21T10:22:17Z</time>
      </trkpt>
      <trkpt lat="2.932311" lon="-75.27417">
        <ele>488.3</ele>
        <time>2021-08-21T10:22:17Z</time>
      </trkpt>
      <trkpt lat="2.932313" lon="-75.274155">
        <ele>488.5</ele>
        <time>2021-08-21T10:22:18Z</time>
      </trkpt>
      <trkpt lat="2.932316" lon="-75.27413">
        <ele>488.7</ele>
        <time>2021-08-21T10:22:19Z</time>
      </trkpt>
      <trkpt lat="2.932318" lon="-75.27411">
        <ele>488.9</ele>
        <time>2021-08-21T10:22:20Z</time>
      </trkpt>
      <trkpt lat="2.93232" lon="-75.27409">
        <ele>489.1</ele>
        <time>2021-08-21T10:22:21Z</time>
      </trkpt>
      <trkpt lat="2.932322" lon="-75.27407">
        <ele>489.3</ele>
        <time>2021-08-21T10:22:22Z</time>
      </trkpt>
      <trkpt lat="2.932324" lon="-75.274055">
        <ele>489.5</ele>
        <time>2021-08-21T10:22:24Z</time>
      </trkpt>
      <trkpt lat="2.932325" lon="-75.27403">
        <ele>489.7</ele>
        <time>2021-08-21T10:22:25Z</time>
      </trkpt>
      <trkpt lat="2.932326" lon="-75.27402">
        <ele>489.8</ele>
        <time>2021-08-21T10:22:25Z</time>
      </trkpt>
      <trkpt lat="2.932327" lon="-75.273994">
        <ele>490.0</ele>
        <time>2021-08-21T10:22:26Z</time>
      </trkpt>
      <trkpt lat="2.932328" lon="-75.27398">
        <ele>490.2</ele>
        <time>2021-08-21T10:22:27Z</time>
      </trkpt>
      <trkpt lat="2.93233" lon="-75.273964">
        <ele>490.3</ele>
        <time>2021-08-21T10:22:28Z</time>
      </trkpt>
      <trkpt lat="2.932331" lon="-75.27393">
        <ele>490.6</ele>
        <time>2021-08-21T10:22:29Z</time>
      </trkpt>
      <trkpt lat="2.932331" lon="-75.27392">
        <ele>490.8</ele>
        <time>2021-08-21T10:22:31Z</time>
      </trkpt>
      <trkpt lat="2.932331" lon="-75.2739">
        <ele>490.9</ele>
        <time>2021-08-21T10:22:32Z</time>
      </trkpt>
      <trkpt lat="2.932331" lon="-75.273895">
        <ele>491.0</ele>
        <time>2021-08-21T10:22:32Z</time>
      </trkpt>
      <trkpt lat="2.932331" lon="-75.27387">
        <ele>491.2</ele>
        <time>2021-08-21T10:22:33Z</time>
      </trkpt>
      <trkpt lat="2.932331" lon="-75.27386">
        <ele>491.3</ele>
        <time>2021-08-21T10:22:34Z</time>
      </trkpt>
      <trkpt lat="2.932332" lon="-75.273834">
        <ele>491.5</ele>
        <time>2021-08-21T10:22:35Z</time>
      </trkpt>
      <trkpt lat="2.932332" lon="-75.27382">
        <ele>491.7</ele>
        <time>2021-08-21T10:22:37Z</time>
      </trkpt>
      <trkpt lat="2.932333" lon="-75.273796">
        <ele>491.9</ele>
        <time>2021-08-21T10:22:38Z</time>
      </trkpt>
      <trkpt lat="2.932333" lon="-75.27378">
        <ele>492.1</ele>
        <time>2021-08-21T10:22:39Z</time>
      </trkpt>
      <trkpt lat="2.932334" lon="-75.27376">
        <ele>492.2</ele>
        <time>2021-08-21T10:22:40Z</time>
      </trkpt>
      <trkpt lat="2.932335" lon="-75.27374">
        <ele>492.4</ele>
        <time>2021-08-21T10:22:40Z</time>
      </trkpt>
      <trkpt lat="2.932335" lon="-75.27373">
        <ele>492.6</ele>
        <time>2021-08-21T10:22:41Z</time>
      </trkpt>
      <trkpt lat="2.932335" lon="-75.27371">
        <ele>492.8</ele>
        <time>2021-08-21T10:22:42Z</time>
      </trkpt>
      <trkpt lat="2.932335" lon="-75.27369">
        <ele>492.9</ele>
        <time>2021-08-21T10:22:44Z</time>
      </trkpt>
      <trkpt lat="2.932335" lon="-75.273674">
        <ele>493.1</ele>
        <time>2021-08-21T10:22:45Z</time>
      </trkpt>
      <trkpt lat="2.932335" lon="-75.27365">
        <ele>493.3</ele>
        <time>2021-08-21T10:22:46Z</time>
      </trkpt>
      <trkpt lat="2.932336" lon="-75.273636">
        <ele>493.5</ele>
        <time>2021-08-21T10:22:47Z</time>
      </trkpt>
      <trkpt lat="2.932336" lon="-75.27361">
        <ele>493.7</ele>
        <time>2021-08-21T10:22:47Z</time>
      </trkpt>
      <trkpt lat="2.932337" lon="-75.2736">
        <ele>493.9</ele>
        <time>2021-08-21T10:22:48Z</time>
      </trkpt>
      <trkpt lat="2.932338" lon="-75.273575">
        <ele>494.1</ele>
        <time>2021-08-21T10:22:49Z</time>
      </trkpt>
      <trkpt lat="2.932339" lon="-75.273544">
        <ele>494.4</ele>
        <time>2021-08-21T10:22:51Z</time>
      </trkpt>
      <trkpt lat="2.932339" lon="-75.27354">
        <ele>494.5</ele>
        <time>2021-08-21T10:22:51Z</time>
      </trkpt>
      <trkpt lat="2.932337" lon="-75.273506">
        <ele>494.8</ele>
        <time>2021-08-21T10:22:53Z</time>
      </trkpt>
      <trkpt lat="2.932336" lon="-75.27348">
        <ele>495.1</ele>
        <time>2021-08-21T10:22:54Z</time>
      </trkpt>
      <trkpt lat="2.932337" lon="-75.2735">
        <ele>494.9</ele>
        <time>2021-08-21T10:22:54Z</time>
      </trkpt>
      <trkpt lat="2.932335" lon="-75.27347">
        <ele>495.2</ele>
        <time>2021-08-21T10:22:55Z</time>
      </trkpt>
      <trkpt lat="2.932332" lon="-75.27345">
        <ele>495.4</ele>
        <time>2021-08-21T10:22:56Z</time>
      </trkpt>
      <trkpt lat="2.932329" lon="-75.27344">
        <ele>495.5</ele>
        <time>2021-08-21T10:22:57Z</time>
      </trkpt>
      <trkpt lat="2.932325" lon="-75.273415">
        <ele>495.7</ele>
        <time>2021-08-21T10:22:58Z</time>
      </trkpt>
      <trkpt lat="2.932322" lon="-75.2734">
        <ele>495.9</ele>
        <time>2021-08-21T10:23:00Z</time>
      </trkpt>
      <trkpt lat="2.932319" lon="-75.27338">
        <ele>496.0</ele>
        <time>2021-08-21T10:23:01Z</time>
      </trkpt>
      <trkpt lat="2.932317" lon="-75.27336">
        <ele>496.2</ele>
        <time>2021-08-21T10:23:02Z</time>
      </trkpt>
      <trkpt lat="2.932314" lon="-75.273315">
        <ele>496.6</ele>
        <time>2021-08-21T10:23:03Z</time>
      </trkpt>
      <trkpt lat="2.932316" lon="-75.27334">
        <ele>496.4</ele>
        <time>2021-08-21T10:23:03Z</time>
      </trkpt>
      <trkpt lat="2.932313" lon="-75.2733">
        <ele>496.8</ele>
        <time>2021-08-21T10:23:04Z</time>
      </trkpt>
      <trkpt lat="2.932311" lon="-75.27328">
        <ele>496.9</ele>
        <time>2021-08-21T10:23:05Z</time>
      </trkpt>
      <trkpt lat="2.932309" lon="-75.273254">
        <ele>497.1</ele>
        <time>2021-08-21T10:23:06Z</time>
      </trkpt>
      <trkpt lat="2.932305" lon="-75.27324">
        <ele>497.2</ele>
        <time>2021-08-21T10:23:08Z</time>
      </trkpt>
      <trkpt lat="2.932301" lon="-75.27322">
        <ele>497.4</ele>
        <time>2021-08-21T10:23:09Z</time>
      </trkpt>
      <trkpt lat="2.93229" lon="-75.27318">
        <ele>497.7</ele>
        <time>2021-08-21T10:23:10Z</time>
      </trkpt>
      <trkpt lat="2.932295" lon="-75.27319">
        <ele>497.6</ele>
        <time>2021-08-21T10:23:10Z</time>
      </trkpt>
      <trkpt lat="2.932285" lon="-75.273155">
        <ele>497.9</ele>
        <time>2021-08-21T10:23:11Z</time>
      </trkpt>
      <trkpt lat="2.932279" lon="-75.27313">
        <ele>498.1</ele>
        <time>2021-08-21T10:23:12Z</time>
      </trkpt>
      <trkpt lat="2.932273" lon="-75.27311">
        <ele>498.2</ele>
        <time>2021-08-21T10:23:13Z</time>
      </trkpt>
      <trkpt lat="2.932267" lon="-75.273094">
        <ele>498.4</ele>
        <time>2021-08-21T10:23:14Z</time>
      </trkpt>
      <trkpt lat="2.932261" lon="-75.27307">
        <ele>498.5</ele>
        <time>2021-08-21T10:23:16Z</time>
      </trkpt>
      <trkpt lat="2.93225" lon="-75.27303">
        <ele>498.8</ele>
        <time>2021-08-21T10:23:17Z</time>
      </trkpt>
      <trkpt lat="2.932255" lon="-75.273056">
        <ele>498.7</ele>
        <time>2021-08-21T10:23:17Z</time>
      </trkpt>
      <trkpt lat="2.932236" lon="-75.272995">
        <ele>499.1</ele>
        <time>2021-08-21T10:23:19Z</time>
      </trkpt>
      <trkpt lat="2.93224" lon="-75.273">
        <ele>499.1</ele>
        <time>2021-08-21T10:23:19Z</time>
      </trkpt>
      <trkpt lat="2.932228" lon="-75.27297">
        <ele>499.3</ele>
        <time>2021-08-21T10:23:20Z</time>
      </trkpt>
      <trkpt lat="2.932219" lon="-75.27295">
        <ele>499.4</ele>
        <time>2021-08-21T10:23:21Z</time>
      </trkpt>
      <trkpt lat="2.932211" lon="-75.272934">
        <ele>499.6</ele>
        <time>2021-08-21T10:23:23Z</time>
      </trkpt>
      <trkpt lat="2.932194" lon="-75.272896">
        <ele>499.9</ele>
        <time>2021-08-21T10:23:24Z</time>
      </trkpt>
      <trkpt lat="2.932202" lon="-75.27291">
        <ele>499.8</ele>
        <time>2021-08-21T10:23:24Z</time>
      </trkpt>
      <trkpt lat="2.932185" lon="-75.27287">
        <ele>500.1</ele>
        <time>2021-08-21T10:23:25Z</time>
      </trkpt>
      <trkpt lat="2.932178" lon="-75.27285">
        <ele>500.2</ele>
        <time>2021-08-21T10:23:26Z</time>
      </trkpt>
      <trkpt lat="2.932173" lon="-75.27283">
        <ele>500.4</ele>
        <time>2021-08-21T10:23:27Z</time>
      </trkpt>
      <trkpt lat="2.932166" lon="-75.272804">
        <ele>500.6</ele>
        <time>2021-08-21T10:23:28Z</time>
      </trkpt>
      <trkpt lat="2.932158" lon="-75.27278">
        <ele>500.7</ele>
        <time>2021-08-21T10:23:29Z</time>
      </trkpt>
      <trkpt lat="2.93215" lon="-75.272766">
        <ele>500.9</ele>
        <time>2021-08-21T10:23:31Z</time>
      </trkpt>
      <trkpt lat="2.932133" lon="-75.27272">
        <ele>501.2</ele>
        <time>2021-08-21T10:23:32Z</time>
      </trkpt>
      <trkpt lat="2.932142" lon="-75.27274">
        <ele>501.0</ele>
        <time>2021-08-21T10:23:32Z</time>
      </trkpt>
      <trkpt lat="2.932124" lon="-75.2727">
        <ele>501.3</ele>
        <time>2021-08-21T10:23:33Z</time>
      </trkpt>
      <trkpt lat="2.932115" lon="-75.27268">
        <ele>501.5</ele>
        <time>2021-08-21T10:23:34Z</time>
      </trkpt>
      <trkpt lat="2.932104" lon="-75.27266">
        <ele>501.6</ele>
        <time>2021-08-21T10:23:35Z</time>
      </trkpt>
      <trkpt lat="2.932095" lon="-75.27264">
        <ele>501.8</ele>
        <time>2021-08-21T10:23:37Z</time>
      </trkpt>
      <trkpt lat="2.932086" lon="-75.27261">
        <ele>501.9</ele>
        <time>2021-08-21T10:23:38Z</time>
      </trkpt>
      <trkpt lat="2.932077" lon="-75.2726">
        <ele>502.1</ele>
        <time>2021-08-21T10:23:39Z</time>
      </trkpt>
      <trkpt lat="2.932068" lon="-75.272575">
        <ele>502.2</ele>
        <time>2021-08-21T10:23:40Z</time>
      </trkpt>
      <trkpt lat="2.932051" lon="-75.27254">
        <ele>502.5</ele>
        <time>2021-08-21T10:23:41Z</time>
      </trkpt>
      <trkpt lat="2.932059" lon="-75.27256">
        <ele>502.3</ele>
        <time>2021-08-21T10:23:41Z</time>
      </trkpt>
      <trkpt lat="2.932042" lon="-75.272514">
        <ele>502.6</ele>
        <time>2021-08-21T10:23:42Z</time>
      </trkpt>
      <trkpt lat="2.932024" lon="-75.27248">
        <ele>502.9</ele>
        <time>2021-08-21T10:23:44Z</time>
      </trkpt>
      <trkpt lat="2.932029" lon="-75.272484">
        <ele>502.8</ele>
        <time>2021-08-21T10:23:44Z</time>
      </trkpt>
      <trkpt lat="2.932006" lon="-75.27244">
        <ele>503.1</ele>
        <time>2021-08-21T10:23:46Z</time>
      </trkpt>
      <trkpt lat="2.932011" lon="-75.272446">
        <ele>503.1</ele>
        <time>2021-08-21T10:23:46Z</time>
      </trkpt>
      <trkpt lat="2.931986" lon="-75.27239">
        <ele>503.4</ele>
        <time>2021-08-21T10:23:48Z</time>
      </trkpt>
      <trkpt lat="2.931991" lon="-75.2724">
        <ele>503.3</ele>
        <time>2021-08-21T10:23:48Z</time>
      </trkpt>
      <trkpt lat="2.931969" lon="-75.27235">
        <ele>503.7</ele>
        <time>2021-08-21T10:23:50Z</time>
      </trkpt>
      <trkpt lat="2.931974" lon="-75.27236">
        <ele>503.6</ele>
        <time>2021-08-21T10:23:50Z</time>
      </trkpt>
      <trkpt lat="2.93196" lon="-75.27232">
        <ele>503.8</ele>
        <time>2021-08-21T10:23:51Z</time>
      </trkpt>
      <trkpt lat="2.931952" lon="-75.2723">
        <ele>504.0</ele>
        <time>2021-08-21T10:23:53Z</time>
      </trkpt>
      <trkpt lat="2.931943" lon="-75.27228">
        <ele>504.1</ele>
        <time>2021-08-21T10:23:54Z</time>
      </trkpt>
      <trkpt lat="2.931926" lon="-75.27224">
        <ele>504.4</ele>
        <time>2021-08-21T10:23:55Z</time>
      </trkpt>
      <trkpt lat="2.931934" lon="-75.272255">
        <ele>504.2</ele>
        <time>2021-08-21T10:23:55Z</time>
      </trkpt>
      <trkpt lat="2.931917" lon="-75.27222">
        <ele>504.5</ele>
        <time>2021-08-21T10:23:56Z</time>
      </trkpt>
      <trkpt lat="2.931909" lon="-75.272194">
        <ele>504.6</ele>
        <time>2021-08-21T10:23:57Z</time>
      </trkpt>
      <trkpt lat="2.9319" lon="-75.27217">
        <ele>504.7</ele>
        <time>2021-08-21T10:23:58Z</time>
      </trkpt>
      <trkpt lat="2.93189" lon="-75.27215">
        <ele>504.9</ele>
        <time>2021-08-21T10:24:00Z</time>
      </trkpt>
      <trkpt lat="2.931879" lon="-75.272125">
        <ele>505.0</ele>
        <time>2021-08-21T10:24:01Z</time>
      </trkpt>
      <trkpt lat="2.931869" lon="-75.272095">
        <ele>505.1</ele>
        <time>2021-08-21T10:24:02Z</time>
      </trkpt>
      <trkpt lat="2.931848" lon="-75.27205">
        <ele>505.4</ele>
        <time>2021-08-21T10:24:03Z</time>
      </trkpt>
      <trkpt lat="2.931859" lon="-75.27207">
        <ele>505.3</ele>
        <time>2021-08-21T10:24:03Z</time>
      </trkpt>
      <trkpt lat="2.931836" lon="-75.272026">
        <ele>505.5</ele>
        <time>2021-08-21T10:24:04Z</time>
      </trkpt>
      <trkpt lat="2.931825" lon="-75.271996">
        <ele>505.6</ele>
        <time>2021-08-21T10:24:05Z</time>
      </trkpt>
      <trkpt lat="2.931814" lon="-75.27197">
        <ele>505.8</ele>
        <time>2021-08-21T10:24:07Z</time>
      </trkpt>
      <trkpt lat="2.931804" lon="-75.27195">
        <ele>505.9</ele>
        <time>2021-08-21T10:24:08Z</time>
      </trkpt>
      <trkpt lat="2.931794" lon="-75.27192">
        <ele>506.0</ele>
        <time>2021-08-21T10:24:09Z</time>
      </trkpt>
      <trkpt lat="2.931775" lon="-75.27187">
        <ele>506.2</ele>
        <time>2021-08-21T10:24:10Z</time>
      </trkpt>
      <trkpt lat="2.931785" lon="-75.2719">
        <ele>506.1</ele>
        <time>2021-08-21T10:24:10Z</time>
      </trkpt>
      <trkpt lat="2.931765" lon="-75.27185">
        <ele>506.3</ele>
        <time>2021-08-21T10:24:11Z</time>
      </trkpt>
      <trkpt lat="2.931756" lon="-75.27183">
        <ele>506.4</ele>
        <time>2021-08-21T10:24:12Z</time>
      </trkpt>
      <trkpt lat="2.931746" lon="-75.271805">
        <ele>506.5</ele>
        <time>2021-08-21T10:24:14Z</time>
      </trkpt>
      <trkpt lat="2.931737" lon="-75.271774">
        <ele>506.6</ele>
        <time>2021-08-21T10:24:15Z</time>
      </trkpt>
      <trkpt lat="2.931727" lon="-75.27175">
        <ele>506.7</ele>
        <time>2021-08-21T10:24:16Z</time>
      </trkpt>
      <trkpt lat="2.931707" lon="-75.271706">
        <ele>506.9</ele>
        <time>2021-08-21T10:24:17Z</time>
      </trkpt>
      <trkpt lat="2.931717" lon="-75.27173">
        <ele>506.8</ele>
        <time>2021-08-21T10:24:17Z</time>
      </trkpt>
      <trkpt lat="2.93166" lon="-75.2716">
        <ele>507.2</ele>
        <time>2021-08-21T10:24:19Z</time>
      </trkpt>
      <trkpt lat="2.931657" lon="-75.27159">
        <ele>507.2</ele>
        <time>2021-08-21T10:24:20Z</time>
      </trkpt>
      <trkpt lat="2.93165" lon="-75.27158">
        <ele>507.2</ele>
        <time>2021-08-21T10:24:22Z</time>
      </trkpt>
      <trkpt lat="2.931642" lon="-75.27156">
        <ele>507.3</ele>
        <time>2021-08-21T10:24:23Z</time>
      </trkpt>
      <trkpt lat="2.931621" lon="-75.271515">
        <ele>507.4</ele>
        <time>2021-08-21T10:24:24Z</time>
      </trkpt>
      <trkpt lat="2.931632" lon="-75.27154">
        <ele>507.3</ele>
        <time>2021-08-21T10:24:24Z</time>
      </trkpt>
      <trkpt lat="2.93161" lon="-75.271484">
        <ele>507.4</ele>
        <time>2021-08-21T10:24:25Z</time>
      </trkpt>
      <trkpt lat="2.931598" lon="-75.27146">
        <ele>507.5</ele>
        <time>2021-08-21T10:24:26Z</time>
      </trkpt>
      <trkpt lat="2.931586" lon="-75.27142">
        <ele>507.5</ele>
        <time>2021-08-21T10:24:27Z</time>
      </trkpt>
      <trkpt lat="2.931572" lon="-75.27139">
        <ele>507.6</ele>
        <time>2021-08-21T10:24:29Z</time>
      </trkpt>
      <trkpt lat="2.931558" lon="-75.27136">
        <ele>507.7</ele>
        <time>2021-08-21T10:24:30Z</time>
      </trkpt>
      <trkpt lat="2.931542" lon="-75.271324">
        <ele>507.7</ele>
        <time>2021-08-21T10:24:31Z</time>
      </trkpt>
      <trkpt lat="2.931526" lon="-75.27129">
        <ele>507.8</ele>
        <time>2021-08-21T10:24:32Z</time>
      </trkpt>
      <trkpt lat="2.931494" lon="-75.27122">
        <ele>507.9</ele>
        <time>2021-08-21T10:24:33Z</time>
      </trkpt>
      <trkpt lat="2.93151" lon="-75.271255">
        <ele>507.8</ele>
        <time>2021-08-21T10:24:33Z</time>
      </trkpt>
      <trkpt lat="2.931478" lon="-75.27118">
        <ele>507.9</ele>
        <time>2021-08-21T10:24:34Z</time>
      </trkpt>
      <trkpt lat="2.931445" lon="-75.2711">
        <ele>508.0</ele>
        <time>2021-08-21T10:24:36Z</time>
      </trkpt>
      <trkpt lat="2.931462" lon="-75.27114">
        <ele>508.0</ele>
        <time>2021-08-21T10:24:36Z</time>
      </trkpt>
      <trkpt lat="2.931429" lon="-75.271065">
        <ele>508.1</ele>
        <time>2021-08-21T10:24:38Z</time>
      </trkpt>
      <trkpt lat="2.931414" lon="-75.27103">
        <ele>508.1</ele>
        <time>2021-08-21T10:24:39Z</time>
      </trkpt>
      <trkpt lat="2.931398" lon="-75.27098">
        <ele>508.2</ele>
        <time>2021-08-21T10:24:40Z</time>
      </trkpt>
      <trkpt lat="2.931383" lon="-75.27094">
        <ele>508.2</ele>
        <time>2021-08-21T10:24:41Z</time>
      </trkpt>
      <trkpt lat="2.931352" lon="-75.27087">
        <ele>508.3</ele>
        <time>2021-08-21T10:24:42Z</time>
      </trkpt>
      <trkpt lat="2.931368" lon="-75.270905">
        <ele>508.3</ele>
        <time>2021-08-21T10:24:42Z</time>
      </trkpt>
      <trkpt lat="2.931321" lon="-75.27079">
        <ele>508.3</ele>
        <time>2021-08-21T10:24:44Z</time>
      </trkpt>
      <trkpt lat="2.931337" lon="-75.27083">
        <ele>508.3</ele>
        <time>2021-08-21T10:24:44Z</time>
      </trkpt>
      <trkpt lat="2.931292" lon="-75.27071">
        <ele>508.4</ele>
        <time>2021-08-21T10:24:46Z</time>
      </trkpt>
      <trkpt lat="2.931306" lon="-75.27075">
        <ele>508.4</ele>
        <time>2021-08-21T10:24:46Z</time>
      </trkpt>
      <trkpt lat="2.931263" lon="-75.27063">
        <ele>508.5</ele>
        <time>2021-08-21T10:24:48Z</time>
      </trkpt>
      <trkpt lat="2.931278" lon="-75.270676">
        <ele>508.4</ele>
        <time>2021-08-21T10:24:48Z</time>
      </trkpt>
      <trkpt lat="2.931248" lon="-75.270584">
        <ele>508.5</ele>
        <time>2021-08-21T10:24:49Z</time>
      </trkpt>
      <trkpt lat="2.93123" lon="-75.27054">
        <ele>508.5</ele>
        <time>2021-08-21T10:24:50Z</time>
      </trkpt>
      <trkpt lat="2.931212" lon="-75.27049">
        <ele>508.6</ele>
        <time>2021-08-21T10:24:51Z</time>
      </trkpt>
      <trkpt lat="2.931197" lon="-75.27045">
        <ele>508.6</ele>
        <time>2021-08-21T10:24:53Z</time>
      </trkpt>
      <trkpt lat="2.931184" lon="-75.2704">
        <ele>508.7</ele>
        <time>2021-08-21T10:24:54Z</time>
      </trkpt>
      <trkpt lat="2.931163" lon="-75.2703">
        <ele>508.7</ele>
        <time>2021-08-21T10:24:55Z</time>
      </trkpt>
      <trkpt lat="2.931173" lon="-75.27035">
        <ele>508.7</ele>
        <time>2021-08-21T10:24:55Z</time>
      </trkpt>
      <trkpt lat="2.931154" lon="-75.270256">
        <ele>508.8</ele>
        <time>2021-08-21T10:24:56Z</time>
      </trkpt>
      <trkpt lat="2.931147" lon="-75.2702">
        <ele>508.8</ele>
        <time>2021-08-21T10:24:58Z</time>
      </trkpt>
      <trkpt lat="2.93114" lon="-75.27016">
        <ele>508.9</ele>
        <time>2021-08-21T10:24:59Z</time>
      </trkpt>
      <trkpt lat="2.931132" lon="-75.2701">
        <ele>508.9</ele>
        <time>2021-08-21T10:25:00Z</time>
      </trkpt>
      <trkpt lat="2.931123" lon="-75.27006">
        <ele>509.0</ele>
        <time>2021-08-21T10:25:01Z</time>
      </trkpt>
      <trkpt lat="2.931107" lon="-75.26996">
        <ele>509.1</ele>
        <time>2021-08-21T10:25:02Z</time>
      </trkpt>
      <trkpt lat="2.931115" lon="-75.270004">
        <ele>509.1</ele>
        <time>2021-08-21T10:25:02Z</time>
      </trkpt>
      <trkpt lat="2.9311" lon="-75.269905">
        <ele>509.2</ele>
        <time>2021-08-21T10:25:03Z</time>
      </trkpt>
      <trkpt lat="2.931092" lon="-75.26986">
        <ele>509.2</ele>
        <time>2021-08-21T10:25:04Z</time>
      </trkpt>
      <trkpt lat="2.931084" lon="-75.26981">
        <ele>509.2</ele>
        <time>2021-08-21T10:25:05Z</time>
      </trkpt>
      <trkpt lat="2.931071" lon="-75.269714">
        <ele>509.4</ele>
        <time>2021-08-21T10:25:07Z</time>
      </trkpt>
      <trkpt lat="2.931077" lon="-75.26977">
        <ele>509.3</ele>
        <time>2021-08-21T10:25:07Z</time>
      </trkpt>
      <trkpt lat="2.931064" lon="-75.26967">
        <ele>509.4</ele>
        <time>2021-08-21T10:25:09Z</time>
      </trkpt>
      <trkpt lat="2.931051" lon="-75.269585">
        <ele>509.6</ele>
        <time>2021-08-21T10:25:10Z</time>
      </trkpt>
      <trkpt lat="2.931057" lon="-75.26963">
        <ele>509.5</ele>
        <time>2021-08-21T10:25:10Z</time>
      </trkpt>
      <trkpt lat="2.931044" lon="-75.26955">
        <ele>509.7</ele>
        <time>2021-08-21T10:25:11Z</time>
      </trkpt>
      <trkpt lat="2.931038" lon="-75.2695">
        <ele>509.7</ele>
        <time>2021-08-21T10:25:12Z</time>
      </trkpt>
      <trkpt lat="2.931032" lon="-75.26946">
        <ele>509.8</ele>
        <time>2021-08-21T10:25:13Z</time>
      </trkpt>
      <trkpt lat="2.931026" lon="-75.269424">
        <ele>509.9</ele>
        <time>2021-08-21T10:25:14Z</time>
      </trkpt>
      <trkpt lat="2.931017" lon="-75.26935">
        <ele>510.0</ele>
        <time>2021-08-21T10:25:16Z</time>
      </trkpt>
      <trkpt lat="2.931022" lon="-75.26939">
        <ele>509.9</ele>
        <time>2021-08-21T10:25:16Z</time>
      </trkpt>
      <trkpt lat="2.931012" lon="-75.26931">
        <ele>510.1</ele>
        <time>2021-08-21T10:25:17Z</time>
      </trkpt>
      <trkpt lat="2.931002" lon="-75.269226">
        <ele>510.3</ele>
        <time>2021-08-21T10:25:19Z</time>
      </trkpt>
      <trkpt lat="2.931007" lon="-75.269264">
        <ele>510.2</ele>
        <time>2021-08-21T10:25:19Z</time>
      </trkpt>
      <trkpt lat="2.930991" lon="-75.26915">
        <ele>510.6</ele>
        <time>2021-08-21T10:25:21Z</time>
      </trkpt>
      <trkpt lat="2.930997" lon="-75.26919">
        <ele>510.4</ele>
        <time>2021-08-21T10:25:21Z</time>
      </trkpt>
      <trkpt lat="2.930985" lon="-75.26911">
        <ele>510.7</ele>
        <time>2021-08-21T10:25:23Z</time>
      </trkpt>
      <trkpt lat="2.930975" lon="-75.26903">
        <ele>510.9</ele>
        <time>2021-08-21T10:25:24Z</time>
      </trkpt>
      <trkpt lat="2.93098" lon="-75.26907">
        <ele>510.8</ele>
        <time>2021-08-21T10:25:24Z</time>
      </trkpt>
      <trkpt lat="2.93097" lon="-75.26899">
        <ele>511.0</ele>
        <time>2021-08-21T10:25:25Z</time>
      </trkpt>
      <trkpt lat="2.93096" lon="-75.268906">
        <ele>511.2</ele>
        <time>2021-08-21T10:25:27Z</time>
      </trkpt>
      <trkpt lat="2.930965" lon="-75.26894">
        <ele>511.1</ele>
        <time>2021-08-21T10:25:27Z</time>
      </trkpt>
      <trkpt lat="2.930955" lon="-75.26886">
        <ele>511.3</ele>
        <time>2021-08-21T10:25:29Z</time>
      </trkpt>
      <trkpt lat="2.930949" lon="-75.26882">
        <ele>511.5</ele>
        <time>2021-08-21T10:25:30Z</time>
      </trkpt>
      <trkpt lat="2.930943" lon="-75.268776">
        <ele>511.6</ele>
        <time>2021-08-21T10:25:31Z</time>
      </trkpt>
      <trkpt lat="2.930929" lon="-75.26869">
        <ele>511.8</ele>
        <time>2021-08-21T10:25:32Z</time>
      </trkpt>
      <trkpt lat="2.930936" lon="-75.26874">
        <ele>511.7</ele>
        <time>2021-08-21T10:25:32Z</time>
      </trkpt>
      <trkpt lat="2.930922" lon="-75.268654">
        <ele>511.9</ele>
        <time>2021-08-21T10:25:33Z</time>
      </trkpt>
      <trkpt lat="2.930915" lon="-75.26861">
        <ele>512.0</ele>
        <time>2021-08-21T10:25:34Z</time>
      </trkpt>
      <trkpt lat="2.930909" lon="-75.26856">
        <ele>512.0</ele>
        <time>2021-08-21T10:25:36Z</time>
      </trkpt>
      <trkpt lat="2.930902" lon="-75.268524">
        <ele>512.1</ele>
        <time>2021-08-21T10:25:37Z</time>
      </trkpt>
      <trkpt lat="2.930889" lon="-75.26843">
        <ele>512.3</ele>
        <time>2021-08-21T10:25:38Z</time>
      </trkpt>
      <trkpt lat="2.930896" lon="-75.26848">
        <ele>512.2</ele>
        <time>2021-08-21T10:25:38Z</time>
      </trkpt>
      <trkpt lat="2.930882" lon="-75.26839">
        <ele>512.4</ele>
        <time>2021-08-21T10:25:39Z</time>
      </trkpt>
      <trkpt lat="2.930868" lon="-75.268295">
        <ele>512.6</ele>
        <time>2021-08-21T10:25:40Z</time>
      </trkpt>
      <trkpt lat="2.930875" lon="-75.26834">
        <ele>512.5</ele>
        <time>2021-08-21T10:25:40Z</time>
      </trkpt>
      <trkpt lat="2.930861" lon="-75.26825">
        <ele>512.7</ele>
        <time>2021-08-21T10:25:42Z</time>
      </trkpt>
      <trkpt lat="2.930853" lon="-75.2682">
        <ele>512.8</ele>
        <time>2021-08-21T10:25:43Z</time>
      </trkpt>
      <trkpt lat="2.930847" lon="-75.26816">
        <ele>512.9</ele>
        <time>2021-08-21T10:25:44Z</time>
      </trkpt>
      <trkpt lat="2.930837" lon="-75.26807">
        <ele>513.1</ele>
        <time>2021-08-21T10:25:45Z</time>
      </trkpt>
      <trkpt lat="2.930842" lon="-75.26811">
        <ele>513.0</ele>
        <time>2021-08-21T10:25:45Z</time>
      </trkpt>
      <trkpt lat="2.930833" lon="-75.26803">
        <ele>513.2</ele>
        <time>2021-08-21T10:25:46Z</time>
      </trkpt>
      <trkpt lat="2.930828" lon="-75.26798">
        <ele>513.3</ele>
        <time>2021-08-21T10:25:47Z</time>
      </trkpt>
      <trkpt lat="2.930819" lon="-75.2679">
        <ele>513.5</ele>
        <time>2021-08-21T10:25:49Z</time>
      </trkpt>
      <trkpt lat="2.930824" lon="-75.26794">
        <ele>513.4</ele>
        <time>2021-08-21T10:25:49Z</time>
      </trkpt>
      <trkpt lat="2.930815" lon="-75.26785">
        <ele>513.5</ele>
        <time>2021-08-21T10:25:50Z</time>
      </trkpt>
      <trkpt lat="2.93081" lon="-75.26781">
        <ele>513.6</ele>
        <time>2021-08-21T10:25:52Z</time>
      </trkpt>
      <trkpt lat="2.930799" lon="-75.26772">
        <ele>513.8</ele>
        <time>2021-08-21T10:25:53Z</time>
      </trkpt>
      <trkpt lat="2.930805" lon="-75.26776">
        <ele>513.7</ele>
        <time>2021-08-21T10:25:53Z</time>
      </trkpt>
      <trkpt lat="2.930794" lon="-75.26768">
        <ele>513.9</ele>
        <time>2021-08-21T10:25:54Z</time>
      </trkpt>
      <trkpt lat="2.930782" lon="-75.26759">
        <ele>514.0</ele>
        <time>2021-08-21T10:25:56Z</time>
      </trkpt>
      <trkpt lat="2.930788" lon="-75.26763">
        <ele>513.9</ele>
        <time>2021-08-21T10:25:56Z</time>
      </trkpt>
      <trkpt lat="2.93077" lon="-75.2675">
        <ele>514.2</ele>
        <time>2021-08-21T10:25:58Z</time>
      </trkpt>
      <trkpt lat="2.930776" lon="-75.26755">
        <ele>514.1</ele>
        <time>2021-08-21T10:25:58Z</time>
      </trkpt>
      <trkpt lat="2.930763" lon="-75.26746">
        <ele>514.3</ele>
        <time>2021-08-21T10:26:00Z</time>
      </trkpt>
      <trkpt lat="2.930749" lon="-75.26737">
        <ele>514.5</ele>
        <time>2021-08-21T10:26:01Z</time>
      </trkpt>
      <trkpt lat="2.930756" lon="-75.26742">
        <ele>514.4</ele>
        <time>2021-08-21T10:26:01Z</time>
      </trkpt>
      <trkpt lat="2.930743" lon="-75.26733">
        <ele>514.6</ele>
        <time>2021-08-21T10:26:02Z</time>
      </trkpt>
      <trkpt lat="2.930738" lon="-75.26729">
        <ele>514.7</ele>
        <time>2021-08-21T10:26:03Z</time>
      </trkpt>
      <trkpt lat="2.930732" lon="-75.26724">
        <ele>514.8</ele>
        <time>2021-08-21T10:26:04Z</time>
      </trkpt>
      <trkpt lat="2.930726" lon="-75.267204">
        <ele>514.8</ele>
        <time>2021-08-21T10:26:06Z</time>
      </trkpt>
      <trkpt lat="2.93072" lon="-75.26716">
        <ele>514.9</ele>
        <time>2021-08-21T10:26:07Z</time>
      </trkpt>
      <trkpt lat="2.930714" lon="-75.26711">
        <ele>515.0</ele>
        <time>2021-08-21T10:26:08Z</time>
      </trkpt>
      <trkpt lat="2.930702" lon="-75.26703">
        <ele>515.2</ele>
        <time>2021-08-21T10:26:09Z</time>
      </trkpt>
      <trkpt lat="2.930708" lon="-75.267075">
        <ele>515.1</ele>
        <time>2021-08-21T10:26:09Z</time>
      </trkpt>
      <trkpt lat="2.930693" lon="-75.266945">
        <ele>515.3</ele>
        <time>2021-08-21T10:26:11Z</time>
      </trkpt>
      <trkpt lat="2.930697" lon="-75.26699">
        <ele>515.3</ele>
        <time>2021-08-21T10:26:11Z</time>
      </trkpt>
      <trkpt lat="2.930688" lon="-75.26691">
        <ele>515.4</ele>
        <time>2021-08-21T10:26:12Z</time>
      </trkpt>
      <trkpt lat="2.930683" lon="-75.26687">
        <ele>515.5</ele>
        <time>2021-08-21T10:26:14Z</time>
      </trkpt>
      <trkpt lat="2.930673" lon="-75.26678">
        <ele>515.7</ele>
        <time>2021-08-21T10:26:15Z</time>
      </trkpt>
      <trkpt lat="2.930678" lon="-75.26682">
        <ele>515.6</ele>
        <time>2021-08-21T10:26:15Z</time>
      </trkpt>
      <trkpt lat="2.930667" lon="-75.26674">
        <ele>515.7</ele>
        <time>2021-08-21T10:26:16Z</time>
      </trkpt>
      <trkpt lat="2.930654" lon="-75.266655">
        <ele>515.9</ele>
        <time>2021-08-21T10:26:18Z</time>
      </trkpt>
      <trkpt lat="2.930661" lon="-75.26669">
        <ele>515.8</ele>
        <time>2021-08-21T10:26:18Z</time>
      </trkpt>
      <trkpt lat="2.930647" lon="-75.26661">
        <ele>515.9</ele>
        <time>2021-08-21T10:26:19Z</time>
      </trkpt>
      <trkpt lat="2.930641" lon="-75.26656">
        <ele>516.0</ele>
        <time>2021-08-21T10:26:21Z</time>
      </trkpt>
      <trkpt lat="2.930636" lon="-75.266525">
        <ele>516.0</ele>
        <time>2021-08-21T10:26:22Z</time>
      </trkpt>
      <trkpt lat="2.930625" lon="-75.26643">
        <ele>516.2</ele>
        <time>2021-08-21T10:26:23Z</time>
      </trkpt>
      <trkpt lat="2.930631" lon="-75.26648">
        <ele>516.1</ele>
        <time>2021-08-21T10:26:23Z</time>
      </trkpt>
      <trkpt lat="2.930612" lon="-75.26635">
        <ele>516.3</ele>
        <time>2021-08-21T10:26:25Z</time>
      </trkpt>
      <trkpt lat="2.930619" lon="-75.26639">
        <ele>516.2</ele>
        <time>2021-08-21T10:26:25Z</time>
      </trkpt>
      <trkpt lat="2.930605" lon="-75.266304">
        <ele>516.3</ele>
        <time>2021-08-21T10:26:26Z</time>
      </trkpt>
      <trkpt lat="2.930598" lon="-75.266266">
        <ele>516.4</ele>
        <time>2021-08-21T10:26:28Z</time>
      </trkpt>
      <trkpt lat="2.930594" lon="-75.26622">
        <ele>516.5</ele>
        <time>2021-08-21T10:26:29Z</time>
      </trkpt>
      <trkpt lat="2.930589" lon="-75.26618">
        <ele>516.5</ele>
        <time>2021-08-21T10:26:30Z</time>
      </trkpt>
      <trkpt lat="2.930584" lon="-75.266136">
        <ele>516.6</ele>
        <time>2021-08-21T10:26:31Z</time>
      </trkpt>
      <trkpt lat="2.930575" lon="-75.26605">
        <ele>516.7</ele>
        <time>2021-08-21T10:26:32Z</time>
      </trkpt>
      <trkpt lat="2.93058" lon="-75.2661">
        <ele>516.6</ele>
        <time>2021-08-21T10:26:32Z</time>
      </trkpt>
      <trkpt lat="2.930568" lon="-75.266014">
        <ele>516.7</ele>
        <time>2021-08-21T10:26:33Z</time>
      </trkpt>
      <trkpt lat="2.930562" lon="-75.26597">
        <ele>516.8</ele>
        <time>2021-08-21T10:26:34Z</time>
      </trkpt>
      <trkpt lat="2.930556" lon="-75.26593">
        <ele>516.9</ele>
        <time>2021-08-21T10:26:36Z</time>
      </trkpt>
      <trkpt lat="2.930552" lon="-75.265884">
        <ele>516.9</ele>
        <time>2021-08-21T10:26:37Z</time>
      </trkpt>
      <trkpt lat="2.930547" lon="-75.26585">
        <ele>517.0</ele>
        <time>2021-08-21T10:26:38Z</time>
      </trkpt>
      <trkpt lat="2.930542" lon="-75.2658">
        <ele>517.0</ele>
        <time>2021-08-21T10:26:39Z</time>
      </trkpt>
      <trkpt lat="2.930533" lon="-75.26572">
        <ele>517.1</ele>
        <time>2021-08-21T10:26:40Z</time>
      </trkpt>
      <trkpt lat="2.930537" lon="-75.265755">
        <ele>517.1</ele>
        <time>2021-08-21T10:26:40Z</time>
      </trkpt>
      <trkpt lat="2.930529" lon="-75.26567">
        <ele>517.2</ele>
        <time>2021-08-21T10:26:42Z</time>
      </trkpt>
      <trkpt lat="2.930524" lon="-75.26563">
        <ele>517.3</ele>
        <time>2021-08-21T10:26:43Z</time>
      </trkpt>
      <trkpt lat="2.93052" lon="-75.265594">
        <ele>517.4</ele>
        <time>2021-08-21T10:26:44Z</time>
      </trkpt>
      <trkpt lat="2.930515" lon="-75.26555">
        <ele>517.4</ele>
        <time>2021-08-21T10:26:45Z</time>
      </trkpt>
      <trkpt lat="2.930503" lon="-75.26547">
        <ele>517.6</ele>
        <time>2021-08-21T10:26:46Z</time>
      </trkpt>
      <trkpt lat="2.930508" lon="-75.26551">
        <ele>517.5</ele>
        <time>2021-08-21T10:26:46Z</time>
      </trkpt>
      <trkpt lat="2.930497" lon="-75.26543">
        <ele>517.6</ele>
        <time>2021-08-21T10:26:47Z</time>
      </trkpt>
      <trkpt lat="2.930485" lon="-75.26534">
        <ele>517.8</ele>
        <time>2021-08-21T10:26:49Z</time>
      </trkpt>
      <trkpt lat="2.930491" lon="-75.26539">
        <ele>517.7</ele>
        <time>2021-08-21T10:26:49Z</time>
      </trkpt>
      <trkpt lat="2.930479" lon="-75.265305">
        <ele>517.9</ele>
        <time>2021-08-21T10:26:51Z</time>
      </trkpt>
      <trkpt lat="2.930473" lon="-75.26526">
        <ele>518.0</ele>
        <time>2021-08-21T10:26:52Z</time>
      </trkpt>
      <trkpt lat="2.930464" lon="-75.265175">
        <ele>518.1</ele>
        <time>2021-08-21T10:26:53Z</time>
      </trkpt>
      <trkpt lat="2.930469" lon="-75.26521">
        <ele>518.1</ele>
        <time>2021-08-21T10:26:53Z</time>
      </trkpt>
      <trkpt lat="2.930459" lon="-75.26513">
        <ele>518.2</ele>
        <time>2021-08-21T10:26:54Z</time>
      </trkpt>
      <trkpt lat="2.930453" lon="-75.26508">
        <ele>518.4</ele>
        <time>2021-08-21T10:26:55Z</time>
      </trkpt>
      <trkpt lat="2.930448" lon="-75.26504">
        <ele>518.5</ele>
        <time>2021-08-21T10:26:56Z</time>
      </trkpt>
      <trkpt lat="2.930442" lon="-75.265">
        <ele>518.6</ele>
        <time>2021-08-21T10:26:57Z</time>
      </trkpt>
      <trkpt lat="2.930436" lon="-75.26495">
        <ele>518.7</ele>
        <time>2021-08-21T10:26:59Z</time>
      </trkpt>
      <trkpt lat="2.93043" lon="-75.26491">
        <ele>518.8</ele>
        <time>2021-08-21T10:27:00Z</time>
      </trkpt>
      <trkpt lat="2.930415" lon="-75.264824">
        <ele>519.1</ele>
        <time>2021-08-21T10:27:01Z</time>
      </trkpt>
      <trkpt lat="2.930423" lon="-75.26487">
        <ele>519.0</ele>
        <time>2021-08-21T10:27:01Z</time>
      </trkpt>
      <trkpt lat="2.930408" lon="-75.264786">
        <ele>519.2</ele>
        <time>2021-08-21T10:27:02Z</time>
      </trkpt>
      <trkpt lat="2.930401" lon="-75.26474">
        <ele>519.4</ele>
        <time>2021-08-21T10:27:03Z</time>
      </trkpt>
      <trkpt lat="2.930394" lon="-75.264694">
        <ele>519.5</ele>
        <time>2021-08-21T10:27:05Z</time>
      </trkpt>
      <trkpt lat="2.930387" lon="-75.264656">
        <ele>519.6</ele>
        <time>2021-08-21T10:27:06Z</time>
      </trkpt>
      <trkpt lat="2.930381" lon="-75.26462">
        <ele>519.7</ele>
        <time>2021-08-21T10:27:07Z</time>
      </trkpt>
      <trkpt lat="2.930375" lon="-75.26457">
        <ele>519.9</ele>
        <time>2021-08-21T10:27:08Z</time>
      </trkpt>
      <trkpt lat="2.930365" lon="-75.264496">
        <ele>520.1</ele>
        <time>2021-08-21T10:27:09Z</time>
      </trkpt>
      <trkpt lat="2.930369" lon="-75.264534">
        <ele>520.0</ele>
        <time>2021-08-21T10:27:09Z</time>
      </trkpt>
      <trkpt lat="2.930362" lon="-75.26446">
        <ele>520.1</ele>
        <time>2021-08-21T10:27:10Z</time>
      </trkpt>
      <trkpt lat="2.930354" lon="-75.26431">
        <ele>520.3</ele>
        <time>2021-08-21T10:27:12Z</time>
      </trkpt>
      <trkpt lat="2.930354" lon="-75.26429">
        <ele>520.3</ele>
        <time>2021-08-21T10:27:14Z</time>
      </trkpt>
      <trkpt lat="2.930353" lon="-75.26428">
        <ele>520.3</ele>
        <time>2021-08-21T10:27:15Z</time>
      </trkpt>
      <trkpt lat="2.930353" lon="-75.264275">
        <ele>520.4</ele>
        <time>2021-08-21T10:27:15Z</time>
      </trkpt>
      <trkpt lat="2.930353" lon="-75.26426">
        <ele>520.4</ele>
        <time>2021-08-21T10:27:16Z</time>
      </trkpt>
      <trkpt lat="2.930355" lon="-75.26425">
        <ele>520.4</ele>
        <time>2021-08-21T10:27:17Z</time>
      </trkpt>
      <trkpt lat="2.930356" lon="-75.26424">
        <ele>520.4</ele>
        <time>2021-08-21T10:27:18Z</time>
      </trkpt>
      <trkpt lat="2.930353" lon="-75.26422">
        <ele>520.4</ele>
        <time>2021-08-21T10:27:19Z</time>
      </trkpt>
      <trkpt lat="2.930349" lon="-75.2642">
        <ele>520.4</ele>
        <time>2021-08-21T10:27:21Z</time>
      </trkpt>
      <trkpt lat="2.930344" lon="-75.264175">
        <ele>520.4</ele>
        <time>2021-08-21T10:27:22Z</time>
      </trkpt>
      <trkpt lat="2.930332" lon="-75.26413">
        <ele>520.5</ele>
        <time>2021-08-21T10:27:23Z</time>
      </trkpt>
      <trkpt lat="2.930338" lon="-75.26416">
        <ele>520.5</ele>
        <time>2021-08-21T10:27:23Z</time>
      </trkpt>
      <trkpt lat="2.930327" lon="-75.26411">
        <ele>520.5</ele>
        <time>2021-08-21T10:27:24Z</time>
      </trkpt>
      <trkpt lat="2.930321" lon="-75.26408">
        <ele>520.5</ele>
        <time>2021-08-21T10:27:25Z</time>
      </trkpt>
      <trkpt lat="2.930315" lon="-75.26404">
        <ele>520.6</ele>
        <time>2021-08-21T10:27:26Z</time>
      </trkpt>
      <trkpt lat="2.930309" lon="-75.26401">
        <ele>520.6</ele>
        <time>2021-08-21T10:27:28Z</time>
      </trkpt>
      <trkpt lat="2.930302" lon="-75.26397">
        <ele>520.7</ele>
        <time>2021-08-21T10:27:29Z</time>
      </trkpt>
      <trkpt lat="2.930295" lon="-75.26393">
        <ele>520.7</ele>
        <time>2021-08-21T10:27:30Z</time>
      </trkpt>
      <trkpt lat="2.930288" lon="-75.2639">
        <ele>520.8</ele>
        <time>2021-08-21T10:27:31Z</time>
      </trkpt>
      <trkpt lat="2.930275" lon="-75.26382">
        <ele>520.9</ele>
        <time>2021-08-21T10:27:32Z</time>
      </trkpt>
      <trkpt lat="2.930282" lon="-75.263855">
        <ele>520.8</ele>
        <time>2021-08-21T10:27:32Z</time>
      </trkpt>
      <trkpt lat="2.930269" lon="-75.26378">
        <ele>521.0</ele>
        <time>2021-08-21T10:27:33Z</time>
      </trkpt>
      <trkpt lat="2.930264" lon="-75.26374">
        <ele>521.1</ele>
        <time>2021-08-21T10:27:35Z</time>
      </trkpt>
      <trkpt lat="2.930258" lon="-75.2637">
        <ele>521.1</ele>
        <time>2021-08-21T10:27:36Z</time>
      </trkpt>
      <trkpt lat="2.930252" lon="-75.263664">
        <ele>521.2</ele>
        <time>2021-08-21T10:27:37Z</time>
      </trkpt>
      <trkpt lat="2.930246" lon="-75.263626">
        <ele>521.3</ele>
        <time>2021-08-21T10:27:38Z</time>
      </trkpt>
      <trkpt lat="2.930233" lon="-75.26355">
        <ele>521.4</ele>
        <time>2021-08-21T10:27:39Z</time>
      </trkpt>
      <trkpt lat="2.93024" lon="-75.26359">
        <ele>521.4</ele>
        <time>2021-08-21T10:27:39Z</time>
      </trkpt>
      <trkpt lat="2.930227" lon="-75.26351">
        <ele>521.5</ele>
        <time>2021-08-21T10:27:40Z</time>
      </trkpt>
      <trkpt lat="2.930213" lon="-75.263435">
        <ele>521.7</ele>
        <time>2021-08-21T10:27:42Z</time>
      </trkpt>
      <trkpt lat="2.93022" lon="-75.26347">
        <ele>521.6</ele>
        <time>2021-08-21T10:27:42Z</time>
      </trkpt>
      <trkpt lat="2.930207" lon="-75.2634">
        <ele>521.7</ele>
        <time>2021-08-21T10:27:44Z</time>
      </trkpt>
      <trkpt lat="2.930197" lon="-75.26331">
        <ele>521.9</ele>
        <time>2021-08-21T10:27:45Z</time>
      </trkpt>
      <trkpt lat="2.930202" lon="-75.26335">
        <ele>521.8</ele>
        <time>2021-08-21T10:27:45Z</time>
      </trkpt>
      <trkpt lat="2.930191" lon="-75.263275">
        <ele>522.0</ele>
        <time>2021-08-21T10:27:46Z</time>
      </trkpt>
      <trkpt lat="2.930186" lon="-75.26324">
        <ele>522.1</ele>
        <time>2021-08-21T10:27:47Z</time>
      </trkpt>
      <trkpt lat="2.930181" lon="-75.2632">
        <ele>522.2</ele>
        <time>2021-08-21T10:27:49Z</time>
      </trkpt>
      <trkpt lat="2.930175" lon="-75.26316">
        <ele>522.3</ele>
        <time>2021-08-21T10:27:50Z</time>
      </trkpt>
      <trkpt lat="2.93017" lon="-75.26312">
        <ele>522.4</ele>
        <time>2021-08-21T10:27:51Z</time>
      </trkpt>
      <trkpt lat="2.930164" lon="-75.263084">
        <ele>522.5</ele>
        <time>2021-08-21T10:27:52Z</time>
      </trkpt>
      <trkpt lat="2.930153" lon="-75.26301">
        <ele>522.7</ele>
        <time>2021-08-21T10:27:53Z</time>
      </trkpt>
      <trkpt lat="2.930158" lon="-75.26305">
        <ele>522.6</ele>
        <time>2021-08-21T10:27:53Z</time>
      </trkpt>
      <trkpt lat="2.930148" lon="-75.26297">
        <ele>522.9</ele>
        <time>2021-08-21T10:27:54Z</time>
      </trkpt>
      <trkpt lat="2.930141" lon="-75.2629">
        <ele>523.1</ele>
        <time>2021-08-21T10:27:56Z</time>
      </trkpt>
      <trkpt lat="2.930144" lon="-75.26293">
        <ele>523.0</ele>
        <time>2021-08-21T10:27:56Z</time>
      </trkpt>
      <trkpt lat="2.930138" lon="-75.26286">
        <ele>523.2</ele>
        <time>2021-08-21T10:27:58Z</time>
      </trkpt>
      <trkpt lat="2.930136" lon="-75.262825">
        <ele>523.3</ele>
        <time>2021-08-21T10:27:59Z</time>
      </trkpt>
      <trkpt lat="2.930134" lon="-75.26279">
        <ele>523.4</ele>
        <time>2021-08-21T10:28:00Z</time>
      </trkpt>
      <trkpt lat="2.930131" lon="-75.26271">
        <ele>523.6</ele>
        <time>2021-08-21T10:28:01Z</time>
      </trkpt>
      <trkpt lat="2.930132" lon="-75.26275">
        <ele>523.5</ele>
        <time>2021-08-21T10:28:01Z</time>
      </trkpt>
      <trkpt lat="2.93013" lon="-75.26267">
        <ele>523.8</ele>
        <time>2021-08-21T10:28:02Z</time>
      </trkpt>
      <trkpt lat="2.93013" lon="-75.26264">
        <ele>523.9</ele>
        <time>2021-08-21T10:28:03Z</time>
      </trkpt>
      <trkpt lat="2.930131" lon="-75.2626">
        <ele>524.0</ele>
        <time>2021-08-21T10:28:04Z</time>
      </trkpt>
      <trkpt lat="2.930133" lon="-75.262566">
        <ele>524.1</ele>
        <time>2021-08-21T10:28:06Z</time>
      </trkpt>
      <trkpt lat="2.930135" lon="-75.26252">
        <ele>524.2</ele>
        <time>2021-08-21T10:28:07Z</time>
      </trkpt>
      <trkpt lat="2.930138" lon="-75.26248">
        <ele>524.3</ele>
        <time>2021-08-21T10:28:08Z</time>
      </trkpt>
      <trkpt lat="2.930142" lon="-75.26244">
        <ele>524.4</ele>
        <time>2021-08-21T10:28:09Z</time>
      </trkpt>
      <trkpt lat="2.930146" lon="-75.262405">
        <ele>524.6</ele>
        <time>2021-08-21T10:28:09Z</time>
      </trkpt>
      <trkpt lat="2.930151" lon="-75.26236">
        <ele>524.7</ele>
        <time>2021-08-21T10:28:11Z</time>
      </trkpt>
      <trkpt lat="2.930157" lon="-75.26232">
        <ele>524.8</ele>
        <time>2021-08-21T10:28:11Z</time>
      </trkpt>
      <trkpt lat="2.930164" lon="-75.26228">
        <ele>524.9</ele>
        <time>2021-08-21T10:28:12Z</time>
      </trkpt>
      <trkpt lat="2.930171" lon="-75.262245">
        <ele>525.0</ele>
        <time>2021-08-21T10:28:14Z</time>
      </trkpt>
      <trkpt lat="2.930179" lon="-75.26221">
        <ele>525.1</ele>
        <time>2021-08-21T10:28:15Z</time>
      </trkpt>
      <trkpt lat="2.930188" lon="-75.26217">
        <ele>525.3</ele>
        <time>2021-08-21T10:28:15Z</time>
      </trkpt>
      <trkpt lat="2.930198" lon="-75.26213">
        <ele>525.4</ele>
        <time>2021-08-21T10:28:16Z</time>
      </trkpt>
      <trkpt lat="2.930208" lon="-75.262085">
        <ele>525.5</ele>
        <time>2021-08-21T10:28:18Z</time>
      </trkpt>
      <trkpt lat="2.930218" lon="-75.26205">
        <ele>525.6</ele>
        <time>2021-08-21T10:28:18Z</time>
      </trkpt>
      <trkpt lat="2.930229" lon="-75.26201">
        <ele>525.7</ele>
        <time>2021-08-21T10:28:19Z</time>
      </trkpt>
      <trkpt lat="2.93024" lon="-75.26197">
        <ele>525.8</ele>
        <time>2021-08-21T10:28:21Z</time>
      </trkpt>
      <trkpt lat="2.930251" lon="-75.26193">
        <ele>525.9</ele>
        <time>2021-08-21T10:28:22Z</time>
      </trkpt>
      <trkpt lat="2.93026" lon="-75.26189">
        <ele>526.0</ele>
        <time>2021-08-21T10:28:23Z</time>
      </trkpt>
      <trkpt lat="2.93027" lon="-75.26185">
        <ele>526.1</ele>
        <time>2021-08-21T10:28:23Z</time>
      </trkpt>
      <trkpt lat="2.93028" lon="-75.26181">
        <ele>526.2</ele>
        <time>2021-08-21T10:28:25Z</time>
      </trkpt>
      <trkpt lat="2.93029" lon="-75.26177">
        <ele>526.3</ele>
        <time>2021-08-21T10:28:25Z</time>
      </trkpt>
      <trkpt lat="2.930301" lon="-75.26173">
        <ele>526.4</ele>
        <time>2021-08-21T10:28:27Z</time>
      </trkpt>
      <trkpt lat="2.930311" lon="-75.26169">
        <ele>526.5</ele>
        <time>2021-08-21T10:28:28Z</time>
      </trkpt>
      <trkpt lat="2.930322" lon="-75.26165">
        <ele>526.7</ele>
        <time>2021-08-21T10:28:29Z</time>
      </trkpt>
      <trkpt lat="2.930333" lon="-75.26161">
        <ele>526.8</ele>
        <time>2021-08-21T10:28:30Z</time>
      </trkpt>
      <trkpt lat="2.930343" lon="-75.26157">
        <ele>526.9</ele>
        <time>2021-08-21T10:28:31Z</time>
      </trkpt>
      <trkpt lat="2.930354" lon="-75.261536">
        <ele>527.0</ele>
        <time>2021-08-21T10:28:32Z</time>
      </trkpt>
      <trkpt lat="2.930365" lon="-75.2615">
        <ele>527.1</ele>
        <time>2021-08-21T10:28:32Z</time>
      </trkpt>
      <trkpt lat="2.930375" lon="-75.26146">
        <ele>527.2</ele>
        <time>2021-08-21T10:28:33Z</time>
      </trkpt>
      <trkpt lat="2.930385" lon="-75.26142">
        <ele>527.3</ele>
        <time>2021-08-21T10:28:34Z</time>
      </trkpt>
      <trkpt lat="2.930395" lon="-75.26138">
        <ele>527.4</ele>
        <time>2021-08-21T10:28:36Z</time>
      </trkpt>
      <trkpt lat="2.930405" lon="-75.261345">
        <ele>527.5</ele>
        <time>2021-08-21T10:28:37Z</time>
      </trkpt>
      <trkpt lat="2.930415" lon="-75.26131">
        <ele>527.6</ele>
        <time>2021-08-21T10:28:38Z</time>
      </trkpt>
      <trkpt lat="2.930425" lon="-75.26126">
        <ele>527.7</ele>
        <time>2021-08-21T10:28:39Z</time>
      </trkpt>
      <trkpt lat="2.930435" lon="-75.26122">
        <ele>527.8</ele>
        <time>2021-08-21T10:28:40Z</time>
      </trkpt>
      <trkpt lat="2.930446" lon="-75.261185">
        <ele>527.9</ele>
        <time>2021-08-21T10:28:40Z</time>
      </trkpt>
      <trkpt lat="2.930456" lon="-75.26115">
        <ele>528.0</ele>
        <time>2021-08-21T10:28:42Z</time>
      </trkpt>
      <trkpt lat="2.930467" lon="-75.26111">
        <ele>528.1</ele>
        <time>2021-08-21T10:28:43Z</time>
      </trkpt>
      <trkpt lat="2.930478" lon="-75.26107">
        <ele>528.2</ele>
        <time>2021-08-21T10:28:44Z</time>
      </trkpt>
      <trkpt lat="2.930489" lon="-75.26103">
        <ele>528.4</ele>
        <time>2021-08-21T10:28:45Z</time>
      </trkpt>
      <trkpt lat="2.9305" lon="-75.26099">
        <ele>528.4</ele>
        <time>2021-08-21T10:28:45Z</time>
      </trkpt>
      <trkpt lat="2.930511" lon="-75.26095">
        <ele>528.5</ele>
        <time>2021-08-21T10:28:46Z</time>
      </trkpt>
      <trkpt lat="2.930523" lon="-75.26091">
        <ele>528.6</ele>
        <time>2021-08-21T10:28:47Z</time>
      </trkpt>
      <trkpt lat="2.930534" lon="-75.260864">
        <ele>528.7</ele>
        <time>2021-08-21T10:28:49Z</time>
      </trkpt>
      <trkpt lat="2.930545" lon="-75.260826">
        <ele>528.9</ele>
        <time>2021-08-21T10:28:49Z</time>
      </trkpt>
      <trkpt lat="2.930556" lon="-75.26079">
        <ele>529.0</ele>
        <time>2021-08-21T10:28:51Z</time>
      </trkpt>
      <trkpt lat="2.930568" lon="-75.26074">
        <ele>529.1</ele>
        <time>2021-08-21T10:28:52Z</time>
      </trkpt>
      <trkpt lat="2.93058" lon="-75.260704">
        <ele>529.2</ele>
        <time>2021-08-21T10:28:53Z</time>
      </trkpt>
      <trkpt lat="2.930592" lon="-75.260666">
        <ele>529.3</ele>
        <time>2021-08-21T10:28:53Z</time>
      </trkpt>
      <trkpt lat="2.930603" lon="-75.26062">
        <ele>529.4</ele>
        <time>2021-08-21T10:28:54Z</time>
      </trkpt>
      <trkpt lat="2.930615" lon="-75.26058">
        <ele>529.5</ele>
        <time>2021-08-21T10:28:56Z</time>
      </trkpt>
      <trkpt lat="2.930627" lon="-75.26054">
        <ele>529.6</ele>
        <time>2021-08-21T10:28:56Z</time>
      </trkpt>
      <trkpt lat="2.930638" lon="-75.2605">
        <ele>529.7</ele>
        <time>2021-08-21T10:28:58Z</time>
      </trkpt>
      <trkpt lat="2.930649" lon="-75.26046">
        <ele>529.8</ele>
        <time>2021-08-21T10:28:59Z</time>
      </trkpt>
      <trkpt lat="2.93066" lon="-75.260414">
        <ele>529.9</ele>
        <time>2021-08-21T10:29:00Z</time>
      </trkpt>
      <trkpt lat="2.930672" lon="-75.260376">
        <ele>530.0</ele>
        <time>2021-08-21T10:29:01Z</time>
      </trkpt>
      <trkpt lat="2.930683" lon="-75.26034">
        <ele>530.1</ele>
        <time>2021-08-21T10:29:02Z</time>
      </trkpt>
      <trkpt lat="2.930694" lon="-75.26029">
        <ele>530.2</ele>
        <time>2021-08-21T10:29:02Z</time>
      </trkpt>
      <trkpt lat="2.930704" lon="-75.260254">
        <ele>530.3</ele>
        <time>2021-08-21T10:29:03Z</time>
      </trkpt>
      <trkpt lat="2.930714" lon="-75.26021">
        <ele>530.4</ele>
        <time>2021-08-21T10:29:04Z</time>
      </trkpt>
      <trkpt lat="2.930725" lon="-75.26017">
        <ele>530.5</ele>
        <time>2021-08-21T10:29:06Z</time>
      </trkpt>
      <trkpt lat="2.930737" lon="-75.260124">
        <ele>530.6</ele>
        <time>2021-08-21T10:29:07Z</time>
      </trkpt>
      <trkpt lat="2.930748" lon="-75.260086">
        <ele>530.7</ele>
        <time>2021-08-21T10:29:08Z</time>
      </trkpt>
      <trkpt lat="2.930759" lon="-75.26005">
        <ele>530.8</ele>
        <time>2021-08-21T10:29:09Z</time>
      </trkpt>
      <trkpt lat="2.93077" lon="-75.26001">
        <ele>530.9</ele>
        <time>2021-08-21T10:29:09Z</time>
      </trkpt>
      <trkpt lat="2.930782" lon="-75.259964">
        <ele>531.0</ele>
        <time>2021-08-21T10:29:11Z</time>
      </trkpt>
      <trkpt lat="2.930794" lon="-75.259926">
        <ele>531.1</ele>
        <time>2021-08-21T10:29:11Z</time>
      </trkpt>
      <trkpt lat="2.930805" lon="-75.25988">
        <ele>531.2</ele>
        <time>2021-08-21T10:29:12Z</time>
      </trkpt>
      <trkpt lat="2.930817" lon="-75.25984">
        <ele>531.3</ele>
        <time>2021-08-21T10:29:14Z</time>
      </trkpt>
      <trkpt lat="2.930829" lon="-75.259796">
        <ele>531.4</ele>
        <time>2021-08-21T10:29:15Z</time>
      </trkpt>
      <trkpt lat="2.930842" lon="-75.25975">
        <ele>531.5</ele>
        <time>2021-08-21T10:29:15Z</time>
      </trkpt>
      <trkpt lat="2.930853" lon="-75.25971">
        <ele>531.6</ele>
        <time>2021-08-21T10:29:16Z</time>
      </trkpt>
      <trkpt lat="2.930865" lon="-75.25967">
        <ele>531.7</ele>
        <time>2021-08-21T10:29:18Z</time>
      </trkpt>
      <trkpt lat="2.930877" lon="-75.25962">
        <ele>531.8</ele>
        <time>2021-08-21T10:29:19Z</time>
      </trkpt>
      <trkpt lat="2.930889" lon="-75.25958">
        <ele>531.8</ele>
        <time>2021-08-21T10:29:20Z</time>
      </trkpt>
      <trkpt lat="2.930901" lon="-75.25954">
        <ele>531.9</ele>
        <time>2021-08-21T10:29:21Z</time>
      </trkpt>
      <trkpt lat="2.930912" lon="-75.2595">
        <ele>532.0</ele>
        <time>2021-08-21T10:29:22Z</time>
      </trkpt>
      <trkpt lat="2.930924" lon="-75.25945">
        <ele>532.1</ele>
        <time>2021-08-21T10:29:23Z</time>
      </trkpt>
      <trkpt lat="2.930935" lon="-75.259415">
        <ele>532.2</ele>
        <time>2021-08-21T10:29:23Z</time>
      </trkpt>
      <trkpt lat="2.930946" lon="-75.25937">
        <ele>532.3</ele>
        <time>2021-08-21T10:29:25Z</time>
      </trkpt>
      <trkpt lat="2.930957" lon="-75.25932">
        <ele>532.4</ele>
        <time>2021-08-21T10:29:25Z</time>
      </trkpt>
      <trkpt lat="2.930969" lon="-75.25928">
        <ele>532.5</ele>
        <time>2021-08-21T10:29:26Z</time>
      </trkpt>
      <trkpt lat="2.930981" lon="-75.25924">
        <ele>532.6</ele>
        <time>2021-08-21T10:29:28Z</time>
      </trkpt>
      <trkpt lat="2.930993" lon="-75.25919">
        <ele>532.7</ele>
        <time>2021-08-21T10:29:29Z</time>
      </trkpt>
      <trkpt lat="2.931005" lon="-75.25915">
        <ele>532.8</ele>
        <time>2021-08-21T10:29:30Z</time>
      </trkpt>
      <trkpt lat="2.931016" lon="-75.25911">
        <ele>532.9</ele>
        <time>2021-08-21T10:29:31Z</time>
      </trkpt>
      <trkpt lat="2.931028" lon="-75.25906">
        <ele>532.9</ele>
        <time>2021-08-21T10:29:32Z</time>
      </trkpt>
      <trkpt lat="2.93104" lon="-75.259026">
        <ele>533.0</ele>
        <time>2021-08-21T10:29:32Z</time>
      </trkpt>
      <trkpt lat="2.931052" lon="-75.25898">
        <ele>533.2</ele>
        <time>2021-08-21T10:29:33Z</time>
      </trkpt>
      <trkpt lat="2.931064" lon="-75.25894">
        <ele>533.3</ele>
        <time>2021-08-21T10:29:35Z</time>
      </trkpt>
      <trkpt lat="2.931078" lon="-75.2589">
        <ele>533.4</ele>
        <time>2021-08-21T10:29:36Z</time>
      </trkpt>
      <trkpt lat="2.931092" lon="-75.258865">
        <ele>533.5</ele>
        <time>2021-08-21T10:29:37Z</time>
      </trkpt>
      <trkpt lat="2.931107" lon="-75.25883">
        <ele>533.6</ele>
        <time>2021-08-21T10:29:38Z</time>
      </trkpt>
      <trkpt lat="2.93112" lon="-75.25878">
        <ele>533.7</ele>
        <time>2021-08-21T10:29:39Z</time>
      </trkpt>
      <trkpt lat="2.931133" lon="-75.25874">
        <ele>533.8</ele>
        <time>2021-08-21T10:29:39Z</time>
      </trkpt>
      <trkpt lat="2.931147" lon="-75.258705">
        <ele>533.9</ele>
        <time>2021-08-21T10:29:40Z</time>
      </trkpt>
      <trkpt lat="2.931159" lon="-75.25866">
        <ele>534.0</ele>
        <time>2021-08-21T10:29:41Z</time>
      </trkpt>
      <trkpt lat="2.931173" lon="-75.25862">
        <ele>534.1</ele>
        <time>2021-08-21T10:29:42Z</time>
      </trkpt>
      <trkpt lat="2.931185" lon="-75.258575">
        <ele>534.2</ele>
        <time>2021-08-21T10:29:44Z</time>
      </trkpt>
      <trkpt lat="2.931198" lon="-75.25853">
        <ele>534.3</ele>
        <time>2021-08-21T10:29:45Z</time>
      </trkpt>
      <trkpt lat="2.931211" lon="-75.258484">
        <ele>534.4</ele>
        <time>2021-08-21T10:29:45Z</time>
      </trkpt>
      <trkpt lat="2.931224" lon="-75.25844">
        <ele>534.4</ele>
        <time>2021-08-21T10:29:46Z</time>
      </trkpt>
      <trkpt lat="2.931237" lon="-75.25839">
        <ele>534.5</ele>
        <time>2021-08-21T10:29:47Z</time>
      </trkpt>
      <trkpt lat="2.93125" lon="-75.25835">
        <ele>534.6</ele>
        <time>2021-08-21T10:29:48Z</time>
      </trkpt>
      <trkpt lat="2.931263" lon="-75.2583">
        <ele>534.6</ele>
        <time>2021-08-21T10:29:50Z</time>
      </trkpt>
      <trkpt lat="2.931275" lon="-75.258255">
        <ele>534.7</ele>
        <time>2021-08-21T10:29:51Z</time>
      </trkpt>
      <trkpt lat="2.931287" lon="-75.25821">
        <ele>534.8</ele>
        <time>2021-08-21T10:29:52Z</time>
      </trkpt>
      <trkpt lat="2.931299" lon="-75.25816">
        <ele>534.9</ele>
        <time>2021-08-21T10:29:53Z</time>
      </trkpt>
      <trkpt lat="2.931311" lon="-75.25812">
        <ele>535.0</ele>
        <time>2021-08-21T10:29:53Z</time>
      </trkpt>
      <trkpt lat="2.931323" lon="-75.25807">
        <ele>535.1</ele>
        <time>2021-08-21T10:29:53Z</time>
      </trkpt>
      <trkpt lat="2.931335" lon="-75.25803">
        <ele>535.2</ele>
        <time>2021-08-21T10:29:54Z</time>
      </trkpt>
      <trkpt lat="2.931348" lon="-75.25799">
        <ele>535.3</ele>
        <time>2021-08-21T10:29:55Z</time>
      </trkpt>
      <trkpt lat="2.931359" lon="-75.25794">
        <ele>535.4</ele>
        <time>2021-08-21T10:29:56Z</time>
      </trkpt>
      <trkpt lat="2.931371" lon="-75.2579">
        <ele>535.5</ele>
        <time>2021-08-21T10:29:58Z</time>
      </trkpt>
      <trkpt lat="2.931382" lon="-75.25785">
        <ele>535.6</ele>
        <time>2021-08-21T10:29:59Z</time>
      </trkpt>
      <trkpt lat="2.931393" lon="-75.25781">
        <ele>535.7</ele>
        <time>2021-08-21T10:30:00Z</time>
      </trkpt>
      <trkpt lat="2.931403" lon="-75.25777">
        <ele>535.8</ele>
        <time>2021-08-21T10:30:00Z</time>
      </trkpt>
      <trkpt lat="2.931414" lon="-75.25772">
        <ele>535.9</ele>
        <time>2021-08-21T10:30:02Z</time>
      </trkpt>
      <trkpt lat="2.931424" lon="-75.25768">
        <ele>536.0</ele>
        <time>2021-08-21T10:30:02Z</time>
      </trkpt>
      <trkpt lat="2.931435" lon="-75.25764">
        <ele>536.1</ele>
        <time>2021-08-21T10:30:03Z</time>
      </trkpt>
      <trkpt lat="2.931445" lon="-75.2576">
        <ele>536.2</ele>
        <time>2021-08-21T10:30:05Z</time>
      </trkpt>
      <trkpt lat="2.931455" lon="-75.25756">
        <ele>536.3</ele>
        <time>2021-08-21T10:30:06Z</time>
      </trkpt>
      <trkpt lat="2.931464" lon="-75.25752">
        <ele>536.3</ele>
        <time>2021-08-21T10:30:07Z</time>
      </trkpt>
      <trkpt lat="2.931474" lon="-75.257484">
        <ele>536.4</ele>
        <time>2021-08-21T10:30:08Z</time>
      </trkpt>
      <trkpt lat="2.931484" lon="-75.25744">
        <ele>536.5</ele>
        <time>2021-08-21T10:30:09Z</time>
      </trkpt>
      <trkpt lat="2.931493" lon="-75.2574">
        <ele>536.5</ele>
        <time>2021-08-21T10:30:09Z</time>
      </trkpt>
      <trkpt lat="2.931502" lon="-75.25736">
        <ele>536.6</ele>
        <time>2021-08-21T10:30:10Z</time>
      </trkpt>
      <trkpt lat="2.931513" lon="-75.257324">
        <ele>536.6</ele>
        <time>2021-08-21T10:30:12Z</time>
      </trkpt>
      <trkpt lat="2.931523" lon="-75.25728">
        <ele>536.7</ele>
        <time>2021-08-21T10:30:13Z</time>
      </trkpt>
      <trkpt lat="2.931534" lon="-75.25724">
        <ele>536.7</ele>
        <time>2021-08-21T10:30:14Z</time>
      </trkpt>
      <trkpt lat="2.931545" lon="-75.2572">
        <ele>536.8</ele>
        <time>2021-08-21T10:30:14Z</time>
      </trkpt>
      <trkpt lat="2.931556" lon="-75.25716">
        <ele>536.8</ele>
        <time>2021-08-21T10:30:15Z</time>
      </trkpt>
      <trkpt lat="2.931567" lon="-75.25712">
        <ele>536.9</ele>
        <time>2021-08-21T10:30:16Z</time>
      </trkpt>
      <trkpt lat="2.931577" lon="-75.25707">
        <ele>537.0</ele>
        <time>2021-08-21T10:30:17Z</time>
      </trkpt>
      <trkpt lat="2.931587" lon="-75.257034">
        <ele>537.0</ele>
        <time>2021-08-21T10:30:18Z</time>
      </trkpt>
      <trkpt lat="2.931598" lon="-75.25699">
        <ele>537.1</ele>
        <time>2021-08-21T10:30:20Z</time>
      </trkpt>
      <trkpt lat="2.931609" lon="-75.25695">
        <ele>537.2</ele>
        <time>2021-08-21T10:30:21Z</time>
      </trkpt>
      <trkpt lat="2.931619" lon="-75.256905">
        <ele>537.2</ele>
        <time>2021-08-21T10:30:22Z</time>
      </trkpt>
      <trkpt lat="2.931629" lon="-75.25687">
        <ele>537.3</ele>
        <time>2021-08-21T10:30:23Z</time>
      </trkpt>
      <trkpt lat="2.931639" lon="-75.25682">
        <ele>537.4</ele>
        <time>2021-08-21T10:30:23Z</time>
      </trkpt>
      <trkpt lat="2.931649" lon="-75.25678">
        <ele>537.5</ele>
        <time>2021-08-21T10:30:24Z</time>
      </trkpt>
      <trkpt lat="2.93166" lon="-75.25674">
        <ele>537.5</ele>
        <time>2021-08-21T10:30:26Z</time>
      </trkpt>
      <trkpt lat="2.93167" lon="-75.2567">
        <ele>537.6</ele>
        <time>2021-08-21T10:30:27Z</time>
      </trkpt>
      <trkpt lat="2.93168" lon="-75.25666">
        <ele>537.6</ele>
        <time>2021-08-21T10:30:28Z</time>
      </trkpt>
      <trkpt lat="2.93169" lon="-75.256615">
        <ele>537.7</ele>
        <time>2021-08-21T10:30:29Z</time>
      </trkpt>
      <trkpt lat="2.931698" lon="-75.25658">
        <ele>537.8</ele>
        <time>2021-08-21T10:30:30Z</time>
      </trkpt>
      <trkpt lat="2.931705" lon="-75.25653">
        <ele>537.9</ele>
        <time>2021-08-21T10:30:30Z</time>
      </trkpt>
      <trkpt lat="2.931711" lon="-75.25649">
        <ele>538.0</ele>
        <time>2021-08-21T10:30:31Z</time>
      </trkpt>
      <trkpt lat="2.931716" lon="-75.256454">
        <ele>538.1</ele>
        <time>2021-08-21T10:30:32Z</time>
      </trkpt>
      <trkpt lat="2.931719" lon="-75.25641">
        <ele>538.2</ele>
        <time>2021-08-21T10:30:34Z</time>
      </trkpt>
      <trkpt lat="2.931722" lon="-75.25637">
        <ele>538.3</ele>
        <time>2021-08-21T10:30:35Z</time>
      </trkpt>
      <trkpt lat="2.931725" lon="-75.256325">
        <ele>538.4</ele>
        <time>2021-08-21T10:30:36Z</time>
      </trkpt>
      <trkpt lat="2.931727" lon="-75.25629">
        <ele>538.5</ele>
        <time>2021-08-21T10:30:37Z</time>
      </trkpt>
      <trkpt lat="2.931729" lon="-75.25624">
        <ele>538.6</ele>
        <time>2021-08-21T10:30:38Z</time>
      </trkpt>
      <trkpt lat="2.93173" lon="-75.2562">
        <ele>538.6</ele>
        <time>2021-08-21T10:30:38Z</time>
      </trkpt>
      <trkpt lat="2.931731" lon="-75.25616">
        <ele>538.7</ele>
        <time>2021-08-21T10:30:40Z</time>
      </trkpt>
      <trkpt lat="2.931731" lon="-75.25612">
        <ele>538.8</ele>
        <time>2021-08-21T10:30:40Z</time>
      </trkpt>
      <trkpt lat="2.931731" lon="-75.25607">
        <ele>538.9</ele>
        <time>2021-08-21T10:30:42Z</time>
      </trkpt>
      <trkpt lat="2.93173" lon="-75.256035">
        <ele>538.9</ele>
        <time>2021-08-21T10:30:43Z</time>
      </trkpt>
      <trkpt lat="2.931728" lon="-75.25599">
        <ele>539.0</ele>
        <time>2021-08-21T10:30:44Z</time>
      </trkpt>
      <trkpt lat="2.931723" lon="-75.255905">
        <ele>539.2</ele>
        <time>2021-08-21T10:30:45Z</time>
      </trkpt>
      <trkpt lat="2.931726" lon="-75.25595">
        <ele>539.1</ele>
        <time>2021-08-21T10:30:45Z</time>
      </trkpt>
      <trkpt lat="2.931718" lon="-75.25583">
        <ele>539.4</ele>
        <time>2021-08-21T10:30:47Z</time>
      </trkpt>
      <trkpt lat="2.931721" lon="-75.25587">
        <ele>539.3</ele>
        <time>2021-08-21T10:30:47Z</time>
      </trkpt>
      <trkpt lat="2.931716" lon="-75.25579">
        <ele>539.5</ele>
        <time>2021-08-21T10:30:49Z</time>
      </trkpt>
      <trkpt lat="2.931714" lon="-75.255745">
        <ele>539.6</ele>
        <time>2021-08-21T10:30:50Z</time>
      </trkpt>
      <trkpt lat="2.931712" lon="-75.25571">
        <ele>539.7</ele>
        <time>2021-08-21T10:30:51Z</time>
      </trkpt>
      <trkpt lat="2.93171" lon="-75.25563">
        <ele>539.9</ele>
        <time>2021-08-21T10:30:52Z</time>
      </trkpt>
      <trkpt lat="2.931711" lon="-75.25567">
        <ele>539.8</ele>
        <time>2021-08-21T10:30:52Z</time>
      </trkpt>
      <trkpt lat="2.931707" lon="-75.25555">
        <ele>540.1</ele>
        <time>2021-08-21T10:30:54Z</time>
      </trkpt>
      <trkpt lat="2.931708" lon="-75.25559">
        <ele>540.0</ele>
        <time>2021-08-21T10:30:54Z</time>
      </trkpt>
      <trkpt lat="2.931708" lon="-75.25551">
        <ele>540.2</ele>
        <time>2021-08-21T10:30:55Z</time>
      </trkpt>
      <trkpt lat="2.931708" lon="-75.25547">
        <ele>540.3</ele>
        <time>2021-08-21T10:30:57Z</time>
      </trkpt>
      <trkpt lat="2.931709" lon="-75.25543">
        <ele>540.4</ele>
        <time>2021-08-21T10:30:58Z</time>
      </trkpt>
      <trkpt lat="2.931709" lon="-75.255394">
        <ele>540.5</ele>
        <time>2021-08-21T10:30:59Z</time>
      </trkpt>
      <trkpt lat="2.93171" lon="-75.255356">
        <ele>540.6</ele>
        <time>2021-08-21T10:31:00Z</time>
      </trkpt>
      <trkpt lat="2.93171" lon="-75.25532">
        <ele>540.8</ele>
        <time>2021-08-21T10:31:01Z</time>
      </trkpt>
      <trkpt lat="2.931711" lon="-75.25527">
        <ele>540.9</ele>
        <time>2021-08-21T10:31:02Z</time>
      </trkpt>
      <trkpt lat="2.931712" lon="-75.25523">
        <ele>541.0</ele>
        <time>2021-08-21T10:31:02Z</time>
      </trkpt>
      <trkpt lat="2.931714" lon="-75.255196">
        <ele>541.1</ele>
        <time>2021-08-21T10:31:03Z</time>
      </trkpt>
      <trkpt lat="2.931717" lon="-75.25516">
        <ele>541.2</ele>
        <time>2021-08-21T10:31:04Z</time>
      </trkpt>
      <trkpt lat="2.93172" lon="-75.25512">
        <ele>541.3</ele>
        <time>2021-08-21T10:31:06Z</time>
      </trkpt>
      <trkpt lat="2.931724" lon="-75.25507">
        <ele>541.5</ele>
        <time>2021-08-21T10:31:07Z</time>
      </trkpt>
      <trkpt lat="2.931727" lon="-75.255035">
        <ele>541.6</ele>
        <time>2021-08-21T10:31:08Z</time>
      </trkpt>
      <trkpt lat="2.931731" lon="-75.255">
        <ele>541.7</ele>
        <time>2021-08-21T10:31:09Z</time>
      </trkpt>
      <trkpt lat="2.931734" lon="-75.25496">
        <ele>541.9</ele>
        <time>2021-08-21T10:31:09Z</time>
      </trkpt>
      <trkpt lat="2.931737" lon="-75.25492">
        <ele>542.0</ele>
        <time>2021-08-21T10:31:10Z</time>
      </trkpt>
      <trkpt lat="2.931741" lon="-75.25488">
        <ele>542.2</ele>
        <time>2021-08-21T10:31:11Z</time>
      </trkpt>
      <trkpt lat="2.931745" lon="-75.254845">
        <ele>542.3</ele>
        <time>2021-08-21T10:31:13Z</time>
      </trkpt>
      <trkpt lat="2.931749" lon="-75.25481">
        <ele>542.5</ele>
        <time>2021-08-21T10:31:14Z</time>
      </trkpt>
      <trkpt lat="2.931753" lon="-75.25477">
        <ele>542.6</ele>
        <time>2021-08-21T10:31:14Z</time>
      </trkpt>
      <trkpt lat="2.931757" lon="-75.25473">
        <ele>542.7</ele>
        <time>2021-08-21T10:31:16Z</time>
      </trkpt>
      <trkpt lat="2.931761" lon="-75.25469">
        <ele>542.9</ele>
        <time>2021-08-21T10:31:16Z</time>
      </trkpt>
      <trkpt lat="2.931764" lon="-75.25465">
        <ele>543.0</ele>
        <time>2021-08-21T10:31:17Z</time>
      </trkpt>
      <trkpt lat="2.931769" lon="-75.254616">
        <ele>543.2</ele>
        <time>2021-08-21T10:31:19Z</time>
      </trkpt>
      <trkpt lat="2.931772" lon="-75.25458">
        <ele>543.3</ele>
        <time>2021-08-21T10:31:20Z</time>
      </trkpt>
      <trkpt lat="2.931776" lon="-75.25454">
        <ele>543.5</ele>
        <time>2021-08-21T10:31:21Z</time>
      </trkpt>
      <trkpt lat="2.931781" lon="-75.2545">
        <ele>543.6</ele>
        <time>2021-08-21T10:31:22Z</time>
      </trkpt>
      <trkpt lat="2.931787" lon="-75.25446">
        <ele>543.7</ele>
        <time>2021-08-21T10:31:23Z</time>
      </trkpt>
      <trkpt lat="2.931793" lon="-75.254425">
        <ele>543.8</ele>
        <time>2021-08-21T10:31:23Z</time>
      </trkpt>
      <trkpt lat="2.931798" lon="-75.25439">
        <ele>543.9</ele>
        <time>2021-08-21T10:31:24Z</time>
      </trkpt>
      <trkpt lat="2.931804" lon="-75.25436">
        <ele>544.0</ele>
        <time>2021-08-21T10:31:26Z</time>
      </trkpt>
      <trkpt lat="2.931808" lon="-75.25432">
        <ele>544.1</ele>
        <time>2021-08-21T10:31:27Z</time>
      </trkpt>
      <trkpt lat="2.931814" lon="-75.25428">
        <ele>544.2</ele>
        <time>2021-08-21T10:31:28Z</time>
      </trkpt>
      <trkpt lat="2.931819" lon="-75.25424">
        <ele>544.3</ele>
        <time>2021-08-21T10:31:29Z</time>
      </trkpt>
      <trkpt lat="2.931824" lon="-75.25421">
        <ele>544.4</ele>
        <time>2021-08-21T10:31:30Z</time>
      </trkpt>
      <trkpt lat="2.931829" lon="-75.25417">
        <ele>544.5</ele>
        <time>2021-08-21T10:31:30Z</time>
      </trkpt>
      <trkpt lat="2.931835" lon="-75.254135">
        <ele>544.6</ele>
        <time>2021-08-21T10:31:31Z</time>
      </trkpt>
      <trkpt lat="2.93184" lon="-75.2541">
        <ele>544.7</ele>
        <time>2021-08-21T10:31:33Z</time>
      </trkpt>
      <trkpt lat="2.931846" lon="-75.25406">
        <ele>544.7</ele>
        <time>2021-08-21T10:31:33Z</time>
      </trkpt>
      <trkpt lat="2.931853" lon="-75.25403">
        <ele>544.8</ele>
        <time>2021-08-21T10:31:35Z</time>
      </trkpt>
      <trkpt lat="2.93186" lon="-75.25399">
        <ele>544.9</ele>
        <time>2021-08-21T10:31:36Z</time>
      </trkpt>
      <trkpt lat="2.931866" lon="-75.25395">
        <ele>545.0</ele>
        <time>2021-08-21T10:31:37Z</time>
      </trkpt>
      <trkpt lat="2.931872" lon="-75.25392">
        <ele>545.1</ele>
        <time>2021-08-21T10:31:38Z</time>
      </trkpt>
      <trkpt lat="2.931879" lon="-75.25388">
        <ele>545.2</ele>
        <time>2021-08-21T10:31:38Z</time>
      </trkpt>
      <trkpt lat="2.931886" lon="-75.253845">
        <ele>545.3</ele>
        <time>2021-08-21T10:31:39Z</time>
      </trkpt>
      <trkpt lat="2.931893" lon="-75.25381">
        <ele>545.5</ele>
        <time>2021-08-21T10:31:40Z</time>
      </trkpt>
      <trkpt lat="2.931901" lon="-75.25378">
        <ele>545.6</ele>
        <time>2021-08-21T10:31:42Z</time>
      </trkpt>
      <trkpt lat="2.931908" lon="-75.25374">
        <ele>545.7</ele>
        <time>2021-08-21T10:31:43Z</time>
      </trkpt>
      <trkpt lat="2.931915" lon="-75.2537">
        <ele>545.8</ele>
        <time>2021-08-21T10:31:44Z</time>
      </trkpt>
      <trkpt lat="2.931922" lon="-75.25366">
        <ele>546.0</ele>
        <time>2021-08-21T10:31:45Z</time>
      </trkpt>
      <trkpt lat="2.931929" lon="-75.25363">
        <ele>546.1</ele>
        <time>2021-08-21T10:31:45Z</time>
      </trkpt>
      <trkpt lat="2.931936" lon="-75.25359">
        <ele>546.2</ele>
        <time>2021-08-21T10:31:46Z</time>
      </trkpt>
      <trkpt lat="2.931943" lon="-75.253555">
        <ele>546.4</ele>
        <time>2021-08-21T10:31:47Z</time>
      </trkpt>
      <trkpt lat="2.93195" lon="-75.25352">
        <ele>546.5</ele>
        <time>2021-08-21T10:31:48Z</time>
      </trkpt>
      <trkpt lat="2.931957" lon="-75.25348">
        <ele>546.6</ele>
        <time>2021-08-21T10:31:50Z</time>
      </trkpt>
      <trkpt lat="2.931965" lon="-75.25344">
        <ele>546.8</ele>
        <time>2021-08-21T10:31:51Z</time>
      </trkpt>
      <trkpt lat="2.931972" lon="-75.2534">
        <ele>546.9</ele>
        <time>2021-08-21T10:31:52Z</time>
      </trkpt>
      <trkpt lat="2.931979" lon="-75.253365">
        <ele>547.1</ele>
        <time>2021-08-21T10:31:52Z</time>
      </trkpt>
      <trkpt lat="2.931985" lon="-75.25333">
        <ele>547.2</ele>
        <time>2021-08-21T10:31:53Z</time>
      </trkpt>
      <trkpt lat="2.931992" lon="-75.25329">
        <ele>547.3</ele>
        <time>2021-08-21T10:31:54Z</time>
      </trkpt>
      <trkpt lat="2.932" lon="-75.25326">
        <ele>547.4</ele>
        <time>2021-08-21T10:31:55Z</time>
      </trkpt>
      <trkpt lat="2.932007" lon="-75.25321">
        <ele>547.5</ele>
        <time>2021-08-21T10:31:57Z</time>
      </trkpt>
      <trkpt lat="2.932014" lon="-75.253174">
        <ele>547.7</ele>
        <time>2021-08-21T10:31:58Z</time>
      </trkpt>
      <trkpt lat="2.932022" lon="-75.253136">
        <ele>547.8</ele>
        <time>2021-08-21T10:31:59Z</time>
      </trkpt>
      <trkpt lat="2.93203" lon="-75.2531">
        <ele>547.9</ele>
        <time>2021-08-21T10:32:00Z</time>
      </trkpt>
      <trkpt lat="2.932037" lon="-75.25306">
        <ele>548.0</ele>
        <time>2021-08-21T10:32:00Z</time>
      </trkpt>
      <trkpt lat="2.932045" lon="-75.25302">
        <ele>548.1</ele>
        <time>2021-08-21T10:32:01Z</time>
      </trkpt>
      <trkpt lat="2.932053" lon="-75.252975">
        <ele>548.2</ele>
        <time>2021-08-21T10:32:02Z</time>
      </trkpt>
      <trkpt lat="2.932061" lon="-75.25294">
        <ele>548.3</ele>
        <time>2021-08-21T10:32:04Z</time>
      </trkpt>
      <trkpt lat="2.932069" lon="-75.25289">
        <ele>548.4</ele>
        <time>2021-08-21T10:32:05Z</time>
      </trkpt>
      <trkpt lat="2.932076" lon="-75.25285">
        <ele>548.5</ele>
        <time>2021-08-21T10:32:06Z</time>
      </trkpt>
      <trkpt lat="2.932084" lon="-75.25281">
        <ele>548.6</ele>
        <time>2021-08-21T10:32:07Z</time>
      </trkpt>
      <trkpt lat="2.932091" lon="-75.25277">
        <ele>548.7</ele>
        <time>2021-08-21T10:32:08Z</time>
      </trkpt>
      <trkpt lat="2.932098" lon="-75.25272">
        <ele>548.8</ele>
        <time>2021-08-21T10:32:08Z</time>
      </trkpt>
      <trkpt lat="2.932104" lon="-75.252686">
        <ele>548.8</ele>
        <time>2021-08-21T10:32:09Z</time>
      </trkpt>
      <trkpt lat="2.932111" lon="-75.25264">
        <ele>548.9</ele>
        <time>2021-08-21T10:32:10Z</time>
      </trkpt>
      <trkpt lat="2.932118" lon="-75.2526">
        <ele>549.0</ele>
        <time>2021-08-21T10:32:12Z</time>
      </trkpt>
      <trkpt lat="2.932125" lon="-75.25256">
        <ele>549.1</ele>
        <time>2021-08-21T10:32:13Z</time>
      </trkpt>
      <trkpt lat="2.932132" lon="-75.252525">
        <ele>549.2</ele>
        <time>2021-08-21T10:32:14Z</time>
      </trkpt>
      <trkpt lat="2.93214" lon="-75.25248">
        <ele>549.3</ele>
        <time>2021-08-21T10:32:14Z</time>
      </trkpt>
      <trkpt lat="2.932148" lon="-75.25244">
        <ele>549.4</ele>
        <time>2021-08-21T10:32:15Z</time>
      </trkpt>
      <trkpt lat="2.932156" lon="-75.252396">
        <ele>549.5</ele>
        <time>2021-08-21T10:32:16Z</time>
      </trkpt>
      <trkpt lat="2.932164" lon="-75.25236">
        <ele>549.6</ele>
        <time>2021-08-21T10:32:18Z</time>
      </trkpt>
      <trkpt lat="2.932171" lon="-75.25232">
        <ele>549.7</ele>
        <time>2021-08-21T10:32:18Z</time>
      </trkpt>
      <trkpt lat="2.932179" lon="-75.25228">
        <ele>549.8</ele>
        <time>2021-08-21T10:32:20Z</time>
      </trkpt>
      <trkpt lat="2.932187" lon="-75.252235">
        <ele>549.9</ele>
        <time>2021-08-21T10:32:21Z</time>
      </trkpt>
      <trkpt lat="2.932195" lon="-75.25219">
        <ele>549.9</ele>
        <time>2021-08-21T10:32:22Z</time>
      </trkpt>
      <trkpt lat="2.932203" lon="-75.25215">
        <ele>550.0</ele>
        <time>2021-08-21T10:32:22Z</time>
      </trkpt>
      <trkpt lat="2.93221" lon="-75.252106">
        <ele>550.1</ele>
        <time>2021-08-21T10:32:23Z</time>
      </trkpt>
      <trkpt lat="2.932218" lon="-75.25207">
        <ele>550.1</ele>
        <time>2021-08-21T10:32:24Z</time>
      </trkpt>
      <trkpt lat="2.932226" lon="-75.25202">
        <ele>550.2</ele>
        <time>2021-08-21T10:32:25Z</time>
      </trkpt>
      <trkpt lat="2.932235" lon="-75.251976">
        <ele>550.3</ele>
        <time>2021-08-21T10:32:27Z</time>
      </trkpt>
      <trkpt lat="2.932243" lon="-75.25193">
        <ele>550.3</ele>
        <time>2021-08-21T10:32:28Z</time>
      </trkpt>
      <trkpt lat="2.932251" lon="-75.25189">
        <ele>550.4</ele>
        <time>2021-08-21T10:32:29Z</time>
      </trkpt>
      <trkpt lat="2.932259" lon="-75.25185">
        <ele>550.4</ele>
        <time>2021-08-21T10:32:30Z</time>
      </trkpt>
      <trkpt lat="2.932265" lon="-75.25181">
        <ele>550.5</ele>
        <time>2021-08-21T10:32:30Z</time>
      </trkpt>
      <trkpt lat="2.932273" lon="-75.25176">
        <ele>550.6</ele>
        <time>2021-08-21T10:32:31Z</time>
      </trkpt>
      <trkpt lat="2.932281" lon="-75.25172">
        <ele>550.6</ele>
        <time>2021-08-21T10:32:32Z</time>
      </trkpt>
      <trkpt lat="2.932289" lon="-75.25168">
        <ele>550.7</ele>
        <time>2021-08-21T10:32:34Z</time>
      </trkpt>
      <trkpt lat="2.932297" lon="-75.25163">
        <ele>550.8</ele>
        <time>2021-08-21T10:32:35Z</time>
      </trkpt>
      <trkpt lat="2.932306" lon="-75.25159">
        <ele>550.8</ele>
        <time>2021-08-21T10:32:36Z</time>
      </trkpt>
      <trkpt lat="2.932316" lon="-75.25154">
        <ele>550.9</ele>
        <time>2021-08-21T10:32:37Z</time>
      </trkpt>
      <trkpt lat="2.932325" lon="-75.251495">
        <ele>551.0</ele>
        <time>2021-08-21T10:32:37Z</time>
      </trkpt>
      <trkpt lat="2.932333" lon="-75.25146">
        <ele>551.1</ele>
        <time>2021-08-21T10:32:38Z</time>
      </trkpt>
      <trkpt lat="2.932341" lon="-75.25141">
        <ele>551.1</ele>
        <time>2021-08-21T10:32:39Z</time>
      </trkpt>
      <trkpt lat="2.932348" lon="-75.251366">
        <ele>551.2</ele>
        <time>2021-08-21T10:32:40Z</time>
      </trkpt>
      <trkpt lat="2.932355" lon="-75.25133">
        <ele>551.3</ele>
        <time>2021-08-21T10:32:42Z</time>
      </trkpt>
      <trkpt lat="2.932364" lon="-75.25128">
        <ele>551.4</ele>
        <time>2021-08-21T10:32:43Z</time>
      </trkpt>
      <trkpt lat="2.932372" lon="-75.251236">
        <ele>551.4</ele>
        <time>2021-08-21T10:32:44Z</time>
      </trkpt>
      <trkpt lat="2.932381" lon="-75.25119">
        <ele>551.5</ele>
        <time>2021-08-21T10:32:45Z</time>
      </trkpt>
      <trkpt lat="2.93239" lon="-75.25115">
        <ele>551.6</ele>
        <time>2021-08-21T10:32:46Z</time>
      </trkpt>
      <trkpt lat="2.932399" lon="-75.25111">
        <ele>551.7</ele>
        <time>2021-08-21T10:32:46Z</time>
      </trkpt>
      <trkpt lat="2.932407" lon="-75.25107">
        <ele>551.7</ele>
        <time>2021-08-21T10:32:48Z</time>
      </trkpt>
      <trkpt lat="2.932416" lon="-75.25103">
        <ele>551.8</ele>
        <time>2021-08-21T10:32:48Z</time>
      </trkpt>
      <trkpt lat="2.932425" lon="-75.250984">
        <ele>551.9</ele>
        <time>2021-08-21T10:32:49Z</time>
      </trkpt>
      <trkpt lat="2.932434" lon="-75.250946">
        <ele>552.0</ele>
        <time>2021-08-21T10:32:51Z</time>
      </trkpt>
      <trkpt lat="2.932444" lon="-75.2509">
        <ele>552.1</ele>
        <time>2021-08-21T10:32:52Z</time>
      </trkpt>
      <trkpt lat="2.932454" lon="-75.25086">
        <ele>552.2</ele>
        <time>2021-08-21T10:32:52Z</time>
      </trkpt>
      <trkpt lat="2.932465" lon="-75.25082">
        <ele>552.3</ele>
        <time>2021-08-21T10:32:53Z</time>
      </trkpt>
      <trkpt lat="2.932476" lon="-75.25078">
        <ele>552.4</ele>
        <time>2021-08-21T10:32:54Z</time>
      </trkpt>
      <trkpt lat="2.932488" lon="-75.25073">
        <ele>552.4</ele>
        <time>2021-08-21T10:32:56Z</time>
      </trkpt>
      <trkpt lat="2.9325" lon="-75.25069">
        <ele>552.5</ele>
        <time>2021-08-21T10:32:57Z</time>
      </trkpt>
      <trkpt lat="2.93251" lon="-75.25065">
        <ele>552.6</ele>
        <time>2021-08-21T10:32:57Z</time>
      </trkpt>
      <trkpt lat="2.932522" lon="-75.25061">
        <ele>552.7</ele>
        <time>2021-08-21T10:32:59Z</time>
      </trkpt>
      <trkpt lat="2.932533" lon="-75.250565">
        <ele>552.8</ele>
        <time>2021-08-21T10:33:00Z</time>
      </trkpt>
      <trkpt lat="2.932544" lon="-75.25053">
        <ele>552.9</ele>
        <time>2021-08-21T10:33:00Z</time>
      </trkpt>
      <trkpt lat="2.932556" lon="-75.25048">
        <ele>553.0</ele>
        <time>2021-08-21T10:33:01Z</time>
      </trkpt>
      <trkpt lat="2.932569" lon="-75.25044">
        <ele>553.1</ele>
        <time>2021-08-21T10:33:03Z</time>
      </trkpt>
      <trkpt lat="2.932581" lon="-75.250404">
        <ele>553.2</ele>
        <time>2021-08-21T10:33:03Z</time>
      </trkpt>
      <trkpt lat="2.932594" lon="-75.25036">
        <ele>553.3</ele>
        <time>2021-08-21T10:33:05Z</time>
      </trkpt>
      <trkpt lat="2.932605" lon="-75.25032">
        <ele>553.4</ele>
        <time>2021-08-21T10:33:06Z</time>
      </trkpt>
      <trkpt lat="2.932617" lon="-75.250275">
        <ele>553.5</ele>
        <time>2021-08-21T10:33:07Z</time>
      </trkpt>
      <trkpt lat="2.93263" lon="-75.25024">
        <ele>553.7</ele>
        <time>2021-08-21T10:33:08Z</time>
      </trkpt>
      <trkpt lat="2.932642" lon="-75.25019">
        <ele>553.8</ele>
        <time>2021-08-21T10:33:09Z</time>
      </trkpt>
      <trkpt lat="2.932653" lon="-75.25015">
        <ele>553.9</ele>
        <time>2021-08-21T10:33:10Z</time>
      </trkpt>
      <trkpt lat="2.932665" lon="-75.250114">
        <ele>554.0</ele>
        <time>2021-08-21T10:33:10Z</time>
      </trkpt>
      <trkpt lat="2.932676" lon="-75.25007">
        <ele>554.1</ele>
        <time>2021-08-21T10:33:12Z</time>
      </trkpt>
      <trkpt lat="2.932688" lon="-75.25003">
        <ele>554.2</ele>
        <time>2021-08-21T10:33:13Z</time>
      </trkpt>
      <trkpt lat="2.9327" lon="-75.24999">
        <ele>554.3</ele>
        <time>2021-08-21T10:33:14Z</time>
      </trkpt>
      <trkpt lat="2.932712" lon="-75.249954">
        <ele>554.4</ele>
        <time>2021-08-21T10:33:14Z</time>
      </trkpt>
      <trkpt lat="2.932724" lon="-75.249916">
        <ele>554.5</ele>
        <time>2021-08-21T10:33:15Z</time>
      </trkpt>
      <trkpt lat="2.932737" lon="-75.24987">
        <ele>554.6</ele>
        <time>2021-08-21T10:33:17Z</time>
      </trkpt>
      <trkpt lat="2.932751" lon="-75.24983">
        <ele>554.6</ele>
        <time>2021-08-21T10:33:18Z</time>
      </trkpt>
      <trkpt lat="2.932764" lon="-75.24979">
        <ele>554.7</ele>
        <time>2021-08-21T10:33:19Z</time>
      </trkpt>
      <trkpt lat="2.932778" lon="-75.24975">
        <ele>554.8</ele>
        <time>2021-08-21T10:33:20Z</time>
      </trkpt>
      <trkpt lat="2.93279" lon="-75.2497">
        <ele>554.9</ele>
        <time>2021-08-21T10:33:21Z</time>
      </trkpt>
      <trkpt lat="2.932802" lon="-75.249664">
        <ele>555.0</ele>
        <time>2021-08-21T10:33:22Z</time>
      </trkpt>
      <trkpt lat="2.932815" lon="-75.24962">
        <ele>555.1</ele>
        <time>2021-08-21T10:33:22Z</time>
      </trkpt>
      <trkpt lat="2.932827" lon="-75.24958">
        <ele>555.2</ele>
        <time>2021-08-21T10:33:24Z</time>
      </trkpt>
      <trkpt lat="2.93284" lon="-75.249535">
        <ele>555.3</ele>
        <time>2021-08-21T10:33:24Z</time>
      </trkpt>
      <trkpt lat="2.932853" lon="-75.2495">
        <ele>555.3</ele>
        <time>2021-08-21T10:33:25Z</time>
      </trkpt>
      <trkpt lat="2.932866" lon="-75.24946">
        <ele>555.4</ele>
        <time>2021-08-21T10:33:26Z</time>
      </trkpt>
      <trkpt lat="2.932879" lon="-75.24941">
        <ele>555.5</ele>
        <time>2021-08-21T10:33:28Z</time>
      </trkpt>
      <trkpt lat="2.932892" lon="-75.24937">
        <ele>555.6</ele>
        <time>2021-08-21T10:33:29Z</time>
      </trkpt>
      <trkpt lat="2.932904" lon="-75.24933">
        <ele>555.7</ele>
        <time>2021-08-21T10:33:30Z</time>
      </trkpt>
      <trkpt lat="2.932917" lon="-75.24928">
        <ele>555.9</ele>
        <time>2021-08-21T10:33:31Z</time>
      </trkpt>
      <trkpt lat="2.932931" lon="-75.249245">
        <ele>556.0</ele>
        <time>2021-08-21T10:33:31Z</time>
      </trkpt>
      <trkpt lat="2.932945" lon="-75.2492">
        <ele>556.1</ele>
        <time>2021-08-21T10:33:32Z</time>
      </trkpt>
      <trkpt lat="2.932958" lon="-75.24916">
        <ele>556.2</ele>
        <time>2021-08-21T10:33:33Z</time>
      </trkpt>
      <trkpt lat="2.932971" lon="-75.249115">
        <ele>556.3</ele>
        <time>2021-08-21T10:33:35Z</time>
      </trkpt>
      <trkpt lat="2.932984" lon="-75.24908">
        <ele>556.4</ele>
        <time>2021-08-21T10:33:36Z</time>
      </trkpt>
      <trkpt lat="2.932997" lon="-75.24903">
        <ele>556.6</ele>
        <time>2021-08-21T10:33:37Z</time>
      </trkpt>
      <trkpt lat="2.933009" lon="-75.24899">
        <ele>556.7</ele>
        <time>2021-08-21T10:33:38Z</time>
      </trkpt>
      <trkpt lat="2.93302" lon="-75.24895">
        <ele>556.8</ele>
        <time>2021-08-21T10:33:38Z</time>
      </trkpt>
      <trkpt lat="2.933032" lon="-75.24891">
        <ele>557.0</ele>
        <time>2021-08-21T10:33:39Z</time>
      </trkpt>
      <trkpt lat="2.933044" lon="-75.24886">
        <ele>557.1</ele>
        <time>2021-08-21T10:33:40Z</time>
      </trkpt>
      <trkpt lat="2.933056" lon="-75.248825">
        <ele>557.2</ele>
        <time>2021-08-21T10:33:41Z</time>
      </trkpt>
      <trkpt lat="2.933067" lon="-75.24879">
        <ele>557.3</ele>
        <time>2021-08-21T10:33:43Z</time>
      </trkpt>
      <trkpt lat="2.933079" lon="-75.24874">
        <ele>557.5</ele>
        <time>2021-08-21T10:33:44Z</time>
      </trkpt>
      <trkpt lat="2.933092" lon="-75.2487">
        <ele>557.6</ele>
        <time>2021-08-21T10:33:45Z</time>
      </trkpt>
      <trkpt lat="2.933104" lon="-75.248665">
        <ele>557.7</ele>
        <time>2021-08-21T10:33:45Z</time>
      </trkpt>
      <trkpt lat="2.933116" lon="-75.24863">
        <ele>557.8</ele>
        <time>2021-08-21T10:33:46Z</time>
      </trkpt>
      <trkpt lat="2.933129" lon="-75.24859">
        <ele>557.9</ele>
        <time>2021-08-21T10:33:47Z</time>
      </trkpt>
      <trkpt lat="2.933143" lon="-75.24855">
        <ele>558.0</ele>
        <time>2021-08-21T10:33:49Z</time>
      </trkpt>
      <trkpt lat="2.933157" lon="-75.24851">
        <ele>558.1</ele>
        <time>2021-08-21T10:33:50Z</time>
      </trkpt>
      <trkpt lat="2.933169" lon="-75.24847">
        <ele>558.2</ele>
        <time>2021-08-21T10:33:51Z</time>
      </trkpt>
      <trkpt lat="2.933181" lon="-75.24843">
        <ele>558.4</ele>
        <time>2021-08-21T10:33:52Z</time>
      </trkpt>
      <trkpt lat="2.933192" lon="-75.24839">
        <ele>558.5</ele>
        <time>2021-08-21T10:33:52Z</time>
      </trkpt>
      <trkpt lat="2.933204" lon="-75.24835">
        <ele>558.6</ele>
        <time>2021-08-21T10:33:53Z</time>
      </trkpt>
      <trkpt lat="2.933215" lon="-75.24831">
        <ele>558.7</ele>
        <time>2021-08-21T10:33:54Z</time>
      </trkpt>
      <trkpt lat="2.933226" lon="-75.24827">
        <ele>558.8</ele>
        <time>2021-08-21T10:33:56Z</time>
      </trkpt>
      <trkpt lat="2.933238" lon="-75.24823">
        <ele>558.9</ele>
        <time>2021-08-21T10:33:56Z</time>
      </trkpt>
      <trkpt lat="2.933249" lon="-75.248184">
        <ele>559.0</ele>
        <time>2021-08-21T10:33:58Z</time>
      </trkpt>
      <trkpt lat="2.933261" lon="-75.248146">
        <ele>559.1</ele>
        <time>2021-08-21T10:33:59Z</time>
      </trkpt>
      <trkpt lat="2.933272" lon="-75.2481">
        <ele>559.2</ele>
        <time>2021-08-21T10:34:00Z</time>
      </trkpt>
      <trkpt lat="2.933284" lon="-75.24806">
        <ele>559.3</ele>
        <time>2021-08-21T10:34:01Z</time>
      </trkpt>
      <trkpt lat="2.933295" lon="-75.248024">
        <ele>559.4</ele>
        <time>2021-08-21T10:34:01Z</time>
      </trkpt>
      <trkpt lat="2.933306" lon="-75.24798">
        <ele>559.5</ele>
        <time>2021-08-21T10:34:02Z</time>
      </trkpt>
      <trkpt lat="2.933317" lon="-75.24794">
        <ele>559.6</ele>
        <time>2021-08-21T10:34:03Z</time>
      </trkpt>
      <trkpt lat="2.933328" lon="-75.247894">
        <ele>559.7</ele>
        <time>2021-08-21T10:34:05Z</time>
      </trkpt>
      <trkpt lat="2.933339" lon="-75.24785">
        <ele>559.8</ele>
        <time>2021-08-21T10:34:06Z</time>
      </trkpt>
      <trkpt lat="2.93335" lon="-75.24781">
        <ele>559.9</ele>
        <time>2021-08-21T10:34:07Z</time>
      </trkpt>
      <trkpt lat="2.933362" lon="-75.247765">
        <ele>560.0</ele>
        <time>2021-08-21T10:34:08Z</time>
      </trkpt>
      <trkpt lat="2.933374" lon="-75.24772">
        <ele>560.2</ele>
        <time>2021-08-21T10:34:08Z</time>
      </trkpt>
      <trkpt lat="2.933386" lon="-75.24767">
        <ele>560.3</ele>
        <time>2021-08-21T10:34:08Z</time>
      </trkpt>
      <trkpt lat="2.933398" lon="-75.24763">
        <ele>560.4</ele>
        <time>2021-08-21T10:34:09Z</time>
      </trkpt>
      <trkpt lat="2.93341" lon="-75.24759">
        <ele>560.5</ele>
        <time>2021-08-21T10:34:11Z</time>
      </trkpt>
      <trkpt lat="2.933421" lon="-75.24754">
        <ele>560.6</ele>
        <time>2021-08-21T10:34:12Z</time>
      </trkpt>
      <trkpt lat="2.933432" lon="-75.2475">
        <ele>560.7</ele>
        <time>2021-08-21T10:34:13Z</time>
      </trkpt>
      <trkpt lat="2.933443" lon="-75.24745">
        <ele>560.9</ele>
        <time>2021-08-21T10:34:13Z</time>
      </trkpt>
      <trkpt lat="2.933454" lon="-75.24741">
        <ele>561.0</ele>
        <time>2021-08-21T10:34:14Z</time>
      </trkpt>
      <trkpt lat="2.933466" lon="-75.24737">
        <ele>561.1</ele>
        <time>2021-08-21T10:34:15Z</time>
      </trkpt>
      <trkpt lat="2.933478" lon="-75.24732">
        <ele>561.2</ele>
        <time>2021-08-21T10:34:16Z</time>
      </trkpt>
      <trkpt lat="2.93349" lon="-75.247284">
        <ele>561.3</ele>
        <time>2021-08-21T10:34:17Z</time>
      </trkpt>
      <trkpt lat="2.933501" lon="-75.24724">
        <ele>561.5</ele>
        <time>2021-08-21T10:34:19Z</time>
      </trkpt>
      <trkpt lat="2.933513" lon="-75.24719">
        <ele>561.6</ele>
        <time>2021-08-21T10:34:20Z</time>
      </trkpt>
      <trkpt lat="2.933525" lon="-75.24715">
        <ele>561.7</ele>
        <time>2021-08-21T10:34:21Z</time>
      </trkpt>
      <trkpt lat="2.933536" lon="-75.2471">
        <ele>561.9</ele>
        <time>2021-08-21T10:34:21Z</time>
      </trkpt>
      <trkpt lat="2.933548" lon="-75.24706">
        <ele>562.0</ele>
        <time>2021-08-21T10:34:22Z</time>
      </trkpt>
      <trkpt lat="2.93356" lon="-75.24702">
        <ele>562.1</ele>
        <time>2021-08-21T10:34:23Z</time>
      </trkpt>
      <trkpt lat="2.933571" lon="-75.24697">
        <ele>562.2</ele>
        <time>2021-08-21T10:34:24Z</time>
      </trkpt>
      <trkpt lat="2.933582" lon="-75.24693">
        <ele>562.3</ele>
        <time>2021-08-21T10:34:25Z</time>
      </trkpt>
      <trkpt lat="2.933593" lon="-75.24689">
        <ele>562.5</ele>
        <time>2021-08-21T10:34:27Z</time>
      </trkpt>
      <trkpt lat="2.933604" lon="-75.24685">
        <ele>562.6</ele>
        <time>2021-08-21T10:34:28Z</time>
      </trkpt>
      <trkpt lat="2.933615" lon="-75.2468">
        <ele>562.7</ele>
        <time>2021-08-21T10:34:29Z</time>
      </trkpt>
      <trkpt lat="2.933627" lon="-75.24676">
        <ele>562.9</ele>
        <time>2021-08-21T10:34:29Z</time>
      </trkpt>
      <trkpt lat="2.933638" lon="-75.24672">
        <ele>563.0</ele>
        <time>2021-08-21T10:34:30Z</time>
      </trkpt>
      <trkpt lat="2.933649" lon="-75.24668">
        <ele>563.1</ele>
        <time>2021-08-21T10:34:31Z</time>
      </trkpt>
      <trkpt lat="2.93366" lon="-75.246635">
        <ele>563.2</ele>
        <time>2021-08-21T10:34:33Z</time>
      </trkpt>
      <trkpt lat="2.933671" lon="-75.2466">
        <ele>563.4</ele>
        <time>2021-08-21T10:34:33Z</time>
      </trkpt>
      <trkpt lat="2.933716" lon="-75.24643">
        <ele>563.9</ele>
        <time>2021-08-21T10:34:36Z</time>
      </trkpt>
      <trkpt lat="2.933719" lon="-75.246414">
        <ele>563.9</ele>
        <time>2021-08-21T10:34:37Z</time>
      </trkpt>
      <trkpt lat="2.933721" lon="-75.24641">
        <ele>563.9</ele>
        <time>2021-08-21T10:34:37Z</time>
      </trkpt>
      <trkpt lat="2.933728" lon="-75.24638">
        <ele>564.0</ele>
        <time>2021-08-21T10:34:38Z</time>
      </trkpt>
      <trkpt lat="2.933736" lon="-75.24635">
        <ele>564.1</ele>
        <time>2021-08-21T10:34:39Z</time>
      </trkpt>
      <trkpt lat="2.933744" lon="-75.24632">
        <ele>564.2</ele>
        <time>2021-08-21T10:34:41Z</time>
      </trkpt>
      <trkpt lat="2.933752" lon="-75.24629">
        <ele>564.3</ele>
        <time>2021-08-21T10:34:42Z</time>
      </trkpt>
      <trkpt lat="2.933762" lon="-75.24626">
        <ele>564.4</ele>
        <time>2021-08-21T10:34:43Z</time>
      </trkpt>
      <trkpt lat="2.933771" lon="-75.24622">
        <ele>564.5</ele>
        <time>2021-08-21T10:34:43Z</time>
      </trkpt>
      <trkpt lat="2.933779" lon="-75.24619">
        <ele>564.6</ele>
        <time>2021-08-21T10:34:44Z</time>
      </trkpt>
      <trkpt lat="2.933788" lon="-75.24616">
        <ele>564.7</ele>
        <time>2021-08-21T10:34:45Z</time>
      </trkpt>
      <trkpt lat="2.933797" lon="-75.246124">
        <ele>564.8</ele>
        <time>2021-08-21T10:34:47Z</time>
      </trkpt>
      <trkpt lat="2.933805" lon="-75.24609">
        <ele>564.9</ele>
        <time>2021-08-21T10:34:48Z</time>
      </trkpt>
      <trkpt lat="2.933813" lon="-75.246056">
        <ele>565.0</ele>
        <time>2021-08-21T10:34:49Z</time>
      </trkpt>
      <trkpt lat="2.933822" lon="-75.246025">
        <ele>565.1</ele>
        <time>2021-08-21T10:34:50Z</time>
      </trkpt>
      <trkpt lat="2.93383" lon="-75.245995">
        <ele>565.2</ele>
        <time>2021-08-21T10:34:51Z</time>
      </trkpt>
      <trkpt lat="2.933838" lon="-75.24597">
        <ele>565.2</ele>
        <time>2021-08-21T10:34:51Z</time>
      </trkpt>
      <trkpt lat="2.933846" lon="-75.24594">
        <ele>565.3</ele>
        <time>2021-08-21T10:34:52Z</time>
      </trkpt>
      <trkpt lat="2.933852" lon="-75.24591">
        <ele>565.4</ele>
        <time>2021-08-21T10:34:53Z</time>
      </trkpt>
      <trkpt lat="2.933863" lon="-75.24587">
        <ele>565.5</ele>
        <time>2021-08-21T10:34:55Z</time>
      </trkpt>
      <trkpt lat="2.933866" lon="-75.24586">
        <ele>565.5</ele>
        <time>2021-08-21T10:34:55Z</time>
      </trkpt>
      <trkpt lat="2.933872" lon="-75.245834">
        <ele>565.6</ele>
        <time>2021-08-21T10:34:56Z</time>
      </trkpt>
      <trkpt lat="2.933879" lon="-75.24581">
        <ele>565.7</ele>
        <time>2021-08-21T10:34:58Z</time>
      </trkpt>
      <trkpt lat="2.933884" lon="-75.24579">
        <ele>565.7</ele>
        <time>2021-08-21T10:34:59Z</time>
      </trkpt>
      <trkpt lat="2.933889" lon="-75.245766">
        <ele>565.8</ele>
        <time>2021-08-21T10:34:59Z</time>
      </trkpt>
      <trkpt lat="2.933893" lon="-75.24575">
        <ele>565.9</ele>
        <time>2021-08-21T10:35:00Z</time>
      </trkpt>
      <trkpt lat="2.933898" lon="-75.24573">
        <ele>565.9</ele>
        <time>2021-08-21T10:35:02Z</time>
      </trkpt>
      <trkpt lat="2.933904" lon="-75.24571">
        <ele>566.0</ele>
        <time>2021-08-21T10:35:03Z</time>
      </trkpt>
      <trkpt lat="2.933911" lon="-75.2457">
        <ele>566.0</ele>
        <time>2021-08-21T10:35:04Z</time>
      </trkpt>
      <trkpt lat="2.933921" lon="-75.245674">
        <ele>566.1</ele>
        <time>2021-08-21T10:35:05Z</time>
      </trkpt>
      <trkpt lat="2.933926" lon="-75.24567">
        <ele>566.1</ele>
        <time>2021-08-21T10:35:06Z</time>
      </trkpt>
      <trkpt lat="2.93393" lon="-75.24565">
        <ele>566.1</ele>
        <time>2021-08-21T10:35:07Z</time>
      </trkpt>
      <trkpt lat="2.933934" lon="-75.24564">
        <ele>566.1</ele>
        <time>2021-08-21T10:35:07Z</time>
      </trkpt>
      <trkpt lat="2.933946" lon="-75.24562">
        <ele>566.1</ele>
        <time>2021-08-21T10:35:09Z</time>
      </trkpt>
      <trkpt lat="2.93395" lon="-75.24562">
        <ele>566.1</ele>
        <time>2021-08-21T10:35:09Z</time>
      </trkpt>
      <trkpt lat="2.933958" lon="-75.2456">
        <ele>566.2</ele>
        <time>2021-08-21T10:35:10Z</time>
      </trkpt>
      <trkpt lat="2.933966" lon="-75.24558">
        <ele>566.2</ele>
        <time>2021-08-21T10:35:11Z</time>
      </trkpt>
      <trkpt lat="2.933976" lon="-75.24555">
        <ele>566.2</ele>
        <time>2021-08-21T10:35:13Z</time>
      </trkpt>
      <trkpt lat="2.933979" lon="-75.245544">
        <ele>566.3</ele>
        <time>2021-08-21T10:35:13Z</time>
      </trkpt>
      <trkpt lat="2.933982" lon="-75.24552">
        <ele>566.3</ele>
        <time>2021-08-21T10:35:14Z</time>
      </trkpt>
      <trkpt lat="2.933984" lon="-75.24549">
        <ele>566.4</ele>
        <time>2021-08-21T10:35:16Z</time>
      </trkpt>
      <trkpt lat="2.933984" lon="-75.24548">
        <ele>566.4</ele>
        <time>2021-08-21T10:35:16Z</time>
      </trkpt>
      <trkpt lat="2.933984" lon="-75.24546">
        <ele>566.4</ele>
        <time>2021-08-21T10:35:18Z</time>
      </trkpt>
      <trkpt lat="2.933983" lon="-75.24544">
        <ele>566.5</ele>
        <time>2021-08-21T10:35:19Z</time>
      </trkpt>
      <trkpt lat="2.933981" lon="-75.24542">
        <ele>566.5</ele>
        <time>2021-08-21T10:35:20Z</time>
      </trkpt>
      <trkpt lat="2.933981" lon="-75.2454">
        <ele>566.6</ele>
        <time>2021-08-21T10:35:21Z</time>
      </trkpt>
      <trkpt lat="2.933981" lon="-75.24539">
        <ele>566.6</ele>
        <time>2021-08-21T10:35:21Z</time>
      </trkpt>
      <trkpt lat="2.934017" lon="-75.2452">
        <ele>567.0</ele>
        <time>2021-08-21T10:38:16Z</time>
      </trkpt>
      <trkpt lat="2.93402" lon="-75.24519">
        <ele>567.1</ele>
        <time>2021-08-21T10:38:17Z</time>
      </trkpt>
      <trkpt lat="2.934025" lon="-75.24518">
        <ele>567.1</ele>
        <time>2021-08-21T10:38:18Z</time>
      </trkpt>
      <trkpt lat="2.934033" lon="-75.245155">
        <ele>567.2</ele>
        <time>2021-08-21T10:38:19Z</time>
      </trkpt>
      <trkpt lat="2.934042" lon="-75.24513">
        <ele>567.2</ele>
        <time>2021-08-21T10:38:20Z</time>
      </trkpt>
      <trkpt lat="2.934051" lon="-75.2451">
        <ele>567.3</ele>
        <time>2021-08-21T10:38:21Z</time>
      </trkpt>
      <trkpt lat="2.93406" lon="-75.24508">
        <ele>567.4</ele>
        <time>2021-08-21T10:38:21Z</time>
      </trkpt>
      <trkpt lat="2.934074" lon="-75.24504">
        <ele>567.5</ele>
        <time>2021-08-21T10:38:23Z</time>
      </trkpt>
      <trkpt lat="2.934078" lon="-75.245026">
        <ele>567.6</ele>
        <time>2021-08-21T10:38:23Z</time>
      </trkpt>
      <trkpt lat="2.934087" lon="-75.245">
        <ele>567.6</ele>
        <time>2021-08-21T10:38:24Z</time>
      </trkpt>
      <trkpt lat="2.934096" lon="-75.24497">
        <ele>567.7</ele>
        <time>2021-08-21T10:38:25Z</time>
      </trkpt>
      <trkpt lat="2.934106" lon="-75.24495">
        <ele>567.8</ele>
        <time>2021-08-21T10:38:26Z</time>
      </trkpt>
      <trkpt lat="2.934115" lon="-75.24492">
        <ele>567.9</ele>
        <time>2021-08-21T10:38:27Z</time>
      </trkpt>
      <trkpt lat="2.934125" lon="-75.244896">
        <ele>568.0</ele>
        <time>2021-08-21T10:38:27Z</time>
      </trkpt>
      <trkpt lat="2.934134" lon="-75.244865">
        <ele>568.1</ele>
        <time>2021-08-21T10:38:28Z</time>
      </trkpt>
      <trkpt lat="2.934144" lon="-75.24484">
        <ele>568.2</ele>
        <time>2021-08-21T10:38:30Z</time>
      </trkpt>
      <trkpt lat="2.934155" lon="-75.24481">
        <ele>568.3</ele>
        <time>2021-08-21T10:38:31Z</time>
      </trkpt>
      <trkpt lat="2.934166" lon="-75.24478">
        <ele>568.4</ele>
        <time>2021-08-21T10:38:32Z</time>
      </trkpt>
      <trkpt lat="2.934177" lon="-75.24475">
        <ele>568.5</ele>
        <time>2021-08-21T10:38:33Z</time>
      </trkpt>
      <trkpt lat="2.934189" lon="-75.24472">
        <ele>568.6</ele>
        <time>2021-08-21T10:38:34Z</time>
      </trkpt>
      <trkpt lat="2.934201" lon="-75.24469">
        <ele>568.6</ele>
        <time>2021-08-21T10:38:34Z</time>
      </trkpt>
      <trkpt lat="2.934213" lon="-75.24466">
        <ele>568.7</ele>
        <time>2021-08-21T10:38:35Z</time>
      </trkpt>
      <trkpt lat="2.934226" lon="-75.24463">
        <ele>568.8</ele>
        <time>2021-08-21T10:38:37Z</time>
      </trkpt>
      <trkpt lat="2.93424" lon="-75.2446">
        <ele>568.9</ele>
        <time>2021-08-21T10:38:38Z</time>
      </trkpt>
      <trkpt lat="2.934254" lon="-75.24456">
        <ele>569.0</ele>
        <time>2021-08-21T10:38:39Z</time>
      </trkpt>
      <trkpt lat="2.934267" lon="-75.24453">
        <ele>569.1</ele>
        <time>2021-08-21T10:38:40Z</time>
      </trkpt>
      <trkpt lat="2.934281" lon="-75.2445">
        <ele>569.2</ele>
        <time>2021-08-21T10:38:41Z</time>
      </trkpt>
      <trkpt lat="2.934295" lon="-75.24447">
        <ele>569.3</ele>
        <time>2021-08-21T10:38:42Z</time>
      </trkpt>
      <trkpt lat="2.934309" lon="-75.24444">
        <ele>569.4</ele>
        <time>2021-08-21T10:38:43Z</time>
      </trkpt>
      <trkpt lat="2.934323" lon="-75.2444">
        <ele>569.5</ele>
        <time>2021-08-21T10:38:43Z</time>
      </trkpt>
      <trkpt lat="2.934337" lon="-75.24437">
        <ele>569.6</ele>
        <time>2021-08-21T10:38:45Z</time>
      </trkpt>
      <trkpt lat="2.934351" lon="-75.24434">
        <ele>569.7</ele>
        <time>2021-08-21T10:38:46Z</time>
      </trkpt>
      <trkpt lat="2.934366" lon="-75.2443">
        <ele>569.8</ele>
        <time>2021-08-21T10:38:47Z</time>
      </trkpt>
      <trkpt lat="2.934381" lon="-75.24427">
        <ele>569.8</ele>
        <time>2021-08-21T10:38:48Z</time>
      </trkpt>
      <trkpt lat="2.934396" lon="-75.24423">
        <ele>569.9</ele>
        <time>2021-08-21T10:38:49Z</time>
      </trkpt>
      <trkpt lat="2.934411" lon="-75.2442">
        <ele>570.0</ele>
        <time>2021-08-21T10:38:50Z</time>
      </trkpt>
      <trkpt lat="2.934426" lon="-75.24417">
        <ele>570.1</ele>
        <time>2021-08-21T10:38:50Z</time>
      </trkpt>
      <trkpt lat="2.934441" lon="-75.24413">
        <ele>570.2</ele>
        <time>2021-08-21T10:38:51Z</time>
      </trkpt>
      <trkpt lat="2.934456" lon="-75.244095">
        <ele>570.3</ele>
        <time>2021-08-21T10:38:53Z</time>
      </trkpt>
      <trkpt lat="2.934471" lon="-75.244064">
        <ele>570.4</ele>
        <time>2021-08-21T10:38:54Z</time>
      </trkpt>
      <trkpt lat="2.934487" lon="-75.244026">
        <ele>570.5</ele>
        <time>2021-08-21T10:38:55Z</time>
      </trkpt>
      <trkpt lat="2.934502" lon="-75.24399">
        <ele>570.6</ele>
        <time>2021-08-21T10:38:56Z</time>
      </trkpt>
      <trkpt lat="2.934518" lon="-75.24396">
        <ele>570.7</ele>
        <time>2021-08-21T10:38:56Z</time>
      </trkpt>
      <trkpt lat="2.934533" lon="-75.24392">
        <ele>570.8</ele>
        <time>2021-08-21T10:38:57Z</time>
      </trkpt>
      <trkpt lat="2.934547" lon="-75.24388">
        <ele>570.9</ele>
        <time>2021-08-21T10:38:58Z</time>
      </trkpt>
      <trkpt lat="2.934561" lon="-75.24385">
        <ele>570.9</ele>
        <time>2021-08-21T10:39:00Z</time>
      </trkpt>
      <trkpt lat="2.934575" lon="-75.24381">
        <ele>570.8</ele>
        <time>2021-08-21T10:39:01Z</time>
      </trkpt>
      <trkpt lat="2.93459" lon="-75.243774">
        <ele>570.8</ele>
        <time>2021-08-21T10:39:02Z</time>
      </trkpt>
      <trkpt lat="2.934604" lon="-75.243744">
        <ele>570.7</ele>
        <time>2021-08-21T10:39:03Z</time>
      </trkpt>
      <trkpt lat="2.934619" lon="-75.243706">
        <ele>570.7</ele>
        <time>2021-08-21T10:39:04Z</time>
      </trkpt>
      <trkpt lat="2.934633" lon="-75.243675">
        <ele>570.6</ele>
        <time>2021-08-21T10:39:04Z</time>
      </trkpt>
      <trkpt lat="2.934647" lon="-75.24364">
        <ele>570.6</ele>
        <time>2021-08-21T10:39:05Z</time>
      </trkpt>
      <trkpt lat="2.934661" lon="-75.2436">
        <ele>570.6</ele>
        <time>2021-08-21T10:39:07Z</time>
      </trkpt>
      <trkpt lat="2.934676" lon="-75.24356">
        <ele>570.7</ele>
        <time>2021-08-21T10:39:08Z</time>
      </trkpt>
      <trkpt lat="2.934691" lon="-75.24353">
        <ele>570.8</ele>
        <time>2021-08-21T10:39:09Z</time>
      </trkpt>
      <trkpt lat="2.934706" lon="-75.24349">
        <ele>570.9</ele>
        <time>2021-08-21T10:39:10Z</time>
      </trkpt>
      <trkpt lat="2.934721" lon="-75.243454">
        <ele>571.0</ele>
        <time>2021-08-21T10:39:11Z</time>
      </trkpt>
      <trkpt lat="2.934736" lon="-75.24342">
        <ele>571.1</ele>
        <time>2021-08-21T10:39:12Z</time>
      </trkpt>
      <trkpt lat="2.934751" lon="-75.243385">
        <ele>571.2</ele>
        <time>2021-08-21T10:39:12Z</time>
      </trkpt>
      <trkpt lat="2.934766" lon="-75.24335">
        <ele>571.3</ele>
        <time>2021-08-21T10:39:14Z</time>
      </trkpt>
      <trkpt lat="2.93478" lon="-75.24332">
        <ele>571.4</ele>
        <time>2021-08-21T10:39:15Z</time>
      </trkpt>
      <trkpt lat="2.934796" lon="-75.24328">
        <ele>571.5</ele>
        <time>2021-08-21T10:39:16Z</time>
      </trkpt>
      <trkpt lat="2.934811" lon="-75.24324">
        <ele>571.5</ele>
        <time>2021-08-21T10:39:17Z</time>
      </trkpt>
      <trkpt lat="2.934826" lon="-75.2432">
        <ele>571.6</ele>
        <time>2021-08-21T10:39:18Z</time>
      </trkpt>
      <trkpt lat="2.934841" lon="-75.243164">
        <ele>571.7</ele>
        <time>2021-08-21T10:39:19Z</time>
      </trkpt>
      <trkpt lat="2.934856" lon="-75.24313">
        <ele>571.8</ele>
        <time>2021-08-21T10:39:20Z</time>
      </trkpt>
      <trkpt lat="2.934872" lon="-75.243095">
        <ele>571.8</ele>
        <time>2021-08-21T10:39:20Z</time>
      </trkpt>
      <trkpt lat="2.934887" lon="-75.24306">
        <ele>571.9</ele>
        <time>2021-08-21T10:39:22Z</time>
      </trkpt>
      <trkpt lat="2.934902" lon="-75.24302">
        <ele>572.0</ele>
        <time>2021-08-21T10:39:23Z</time>
      </trkpt>
      <trkpt lat="2.934917" lon="-75.24298">
        <ele>572.0</ele>
        <time>2021-08-21T10:39:24Z</time>
      </trkpt>
      <trkpt lat="2.934933" lon="-75.24294">
        <ele>572.1</ele>
        <time>2021-08-21T10:39:25Z</time>
      </trkpt>
      <trkpt lat="2.934948" lon="-75.242905">
        <ele>572.1</ele>
        <time>2021-08-21T10:39:26Z</time>
      </trkpt>
      <trkpt lat="2.934964" lon="-75.24287">
        <ele>572.2</ele>
        <time>2021-08-21T10:39:26Z</time>
      </trkpt>
      <trkpt lat="2.934978" lon="-75.24283">
        <ele>572.3</ele>
        <time>2021-08-21T10:39:27Z</time>
      </trkpt>
      <trkpt lat="2.934993" lon="-75.24279">
        <ele>572.3</ele>
        <time>2021-08-21T10:39:29Z</time>
      </trkpt>
      <trkpt lat="2.935008" lon="-75.24275">
        <ele>572.4</ele>
        <time>2021-08-21T10:39:30Z</time>
      </trkpt>
      <trkpt lat="2.935024" lon="-75.242714">
        <ele>572.4</ele>
        <time>2021-08-21T10:39:31Z</time>
      </trkpt>
      <trkpt lat="2.93504" lon="-75.242676">
        <ele>572.4</ele>
        <time>2021-08-21T10:39:32Z</time>
      </trkpt>
      <trkpt lat="2.935056" lon="-75.24264">
        <ele>572.5</ele>
        <time>2021-08-21T10:39:33Z</time>
      </trkpt>
      <trkpt lat="2.935071" lon="-75.2426">
        <ele>572.5</ele>
        <time>2021-08-21T10:39:34Z</time>
      </trkpt>
      <trkpt lat="2.935087" lon="-75.24256">
        <ele>572.5</ele>
        <time>2021-08-21T10:39:34Z</time>
      </trkpt>
      <trkpt lat="2.935103" lon="-75.24252">
        <ele>572.6</ele>
        <time>2021-08-21T10:39:35Z</time>
      </trkpt>
      <trkpt lat="2.935119" lon="-75.242485">
        <ele>572.6</ele>
        <time>2021-08-21T10:39:37Z</time>
      </trkpt>
      <trkpt lat="2.935135" lon="-75.24244">
        <ele>572.6</ele>
        <time>2021-08-21T10:39:38Z</time>
      </trkpt>
      <trkpt lat="2.935151" lon="-75.24241">
        <ele>572.6</ele>
        <time>2021-08-21T10:39:39Z</time>
      </trkpt>
      <trkpt lat="2.935168" lon="-75.24236">
        <ele>572.7</ele>
        <time>2021-08-21T10:39:40Z</time>
      </trkpt>
      <trkpt lat="2.935184" lon="-75.242325">
        <ele>572.7</ele>
        <time>2021-08-21T10:39:41Z</time>
      </trkpt>
      <trkpt lat="2.935202" lon="-75.24229">
        <ele>572.7</ele>
        <time>2021-08-21T10:39:42Z</time>
      </trkpt>
      <trkpt lat="2.935218" lon="-75.24225">
        <ele>572.7</ele>
        <time>2021-08-21T10:39:42Z</time>
      </trkpt>
      <trkpt lat="2.935237" lon="-75.24221">
        <ele>572.7</ele>
        <time>2021-08-21T10:39:44Z</time>
      </trkpt>
      <trkpt lat="2.935254" lon="-75.24217">
        <ele>572.7</ele>
        <time>2021-08-21T10:39:45Z</time>
      </trkpt>
      <trkpt lat="2.935272" lon="-75.242134">
        <ele>572.7</ele>
        <time>2021-08-21T10:39:46Z</time>
      </trkpt>
      <trkpt lat="2.93529" lon="-75.242096">
        <ele>572.7</ele>
        <time>2021-08-21T10:39:47Z</time>
      </trkpt>
      <trkpt lat="2.935308" lon="-75.24206">
        <ele>572.7</ele>
        <time>2021-08-21T10:39:48Z</time>
      </trkpt>
      <trkpt lat="2.935326" lon="-75.24201">
        <ele>572.7</ele>
        <time>2021-08-21T10:39:49Z</time>
      </trkpt>
      <trkpt lat="2.935344" lon="-75.241974">
        <ele>572.7</ele>
        <time>2021-08-21T10:39:50Z</time>
      </trkpt>
      <trkpt lat="2.935362" lon="-75.241936">
        <ele>572.7</ele>
        <time>2021-08-21T10:39:50Z</time>
      </trkpt>
      <trkpt lat="2.935381" lon="-75.2419">
        <ele>572.7</ele>
        <time>2021-08-21T10:39:51Z</time>
      </trkpt>
      <trkpt lat="2.935398" lon="-75.24186">
        <ele>572.7</ele>
        <time>2021-08-21T10:39:53Z</time>
      </trkpt>
      <trkpt lat="2.935414" lon="-75.24182">
        <ele>572.7</ele>
        <time>2021-08-21T10:39:54Z</time>
      </trkpt>
      <trkpt lat="2.935431" lon="-75.241776">
        <ele>572.7</ele>
        <time>2021-08-21T10:39:55Z</time>
      </trkpt>
      <trkpt lat="2.93545" lon="-75.24174">
        <ele>572.7</ele>
        <time>2021-08-21T10:39:56Z</time>
      </trkpt>
      <trkpt lat="2.935468" lon="-75.2417">
        <ele>572.7</ele>
        <time>2021-08-21T10:39:56Z</time>
      </trkpt>
      <trkpt lat="2.935487" lon="-75.24166">
        <ele>572.7</ele>
        <time>2021-08-21T10:39:57Z</time>
      </trkpt>
      <trkpt lat="2.935506" lon="-75.24162">
        <ele>572.7</ele>
        <time>2021-08-21T10:39:59Z</time>
      </trkpt>
      <trkpt lat="2.935523" lon="-75.241585">
        <ele>572.7</ele>
        <time>2021-08-21T10:40:00Z</time>
      </trkpt>
      <trkpt lat="2.935541" lon="-75.24155">
        <ele>572.6</ele>
        <time>2021-08-21T10:40:01Z</time>
      </trkpt>
      <trkpt lat="2.935559" lon="-75.2415">
        <ele>572.6</ele>
        <time>2021-08-21T10:40:02Z</time>
      </trkpt>
      <trkpt lat="2.935578" lon="-75.24146">
        <ele>572.6</ele>
        <time>2021-08-21T10:40:03Z</time>
      </trkpt>
      <trkpt lat="2.935597" lon="-75.24142">
        <ele>572.6</ele>
        <time>2021-08-21T10:40:04Z</time>
      </trkpt>
      <trkpt lat="2.935617" lon="-75.24138">
        <ele>572.6</ele>
        <time>2021-08-21T10:40:04Z</time>
      </trkpt>
      <trkpt lat="2.935636" lon="-75.24133">
        <ele>572.5</ele>
        <time>2021-08-21T10:40:05Z</time>
      </trkpt>
      <trkpt lat="2.935656" lon="-75.24129">
        <ele>572.5</ele>
        <time>2021-08-21T10:40:07Z</time>
      </trkpt>
      <trkpt lat="2.935674" lon="-75.24125">
        <ele>572.5</ele>
        <time>2021-08-21T10:40:08Z</time>
      </trkpt>
      <trkpt lat="2.935694" lon="-75.2412">
        <ele>572.5</ele>
        <time>2021-08-21T10:40:09Z</time>
      </trkpt>
      <trkpt lat="2.935713" lon="-75.24116">
        <ele>572.5</ele>
        <time>2021-08-21T10:40:10Z</time>
      </trkpt>
      <trkpt lat="2.935732" lon="-75.24111">
        <ele>572.4</ele>
        <time>2021-08-21T10:40:11Z</time>
      </trkpt>
      <trkpt lat="2.935752" lon="-75.24107">
        <ele>572.4</ele>
        <time>2021-08-21T10:40:12Z</time>
      </trkpt>
      <trkpt lat="2.935771" lon="-75.24103">
        <ele>572.4</ele>
        <time>2021-08-21T10:40:12Z</time>
      </trkpt>
      <trkpt lat="2.935791" lon="-75.24098">
        <ele>572.3</ele>
        <time>2021-08-21T10:40:14Z</time>
      </trkpt>
      <trkpt lat="2.935811" lon="-75.24094">
        <ele>572.3</ele>
        <time>2021-08-21T10:40:15Z</time>
      </trkpt>
      <trkpt lat="2.935832" lon="-75.24089">
        <ele>572.3</ele>
        <time>2021-08-21T10:40:16Z</time>
      </trkpt>
      <trkpt lat="2.935852" lon="-75.240845">
        <ele>572.3</ele>
        <time>2021-08-21T10:40:17Z</time>
      </trkpt>
      <trkpt lat="2.935873" lon="-75.2408">
        <ele>572.2</ele>
        <time>2021-08-21T10:40:18Z</time>
      </trkpt>
      <trkpt lat="2.935894" lon="-75.24075">
        <ele>572.2</ele>
        <time>2021-08-21T10:40:19Z</time>
      </trkpt>
      <trkpt lat="2.935914" lon="-75.24071">
        <ele>572.2</ele>
        <time>2021-08-21T10:40:20Z</time>
      </trkpt>
      <trkpt lat="2.935935" lon="-75.24066">
        <ele>572.2</ele>
        <time>2021-08-21T10:40:21Z</time>
      </trkpt>
      <trkpt lat="2.935955" lon="-75.240616">
        <ele>572.1</ele>
        <time>2021-08-21T10:40:22Z</time>
      </trkpt>
      <trkpt lat="2.935977" lon="-75.24057">
        <ele>572.1</ele>
        <time>2021-08-21T10:40:23Z</time>
      </trkpt>
      <trkpt lat="2.935997" lon="-75.240524">
        <ele>572.0</ele>
        <time>2021-08-21T10:40:24Z</time>
      </trkpt>
      <trkpt lat="2.936018" lon="-75.24047">
        <ele>572.0</ele>
        <time>2021-08-21T10:40:25Z</time>
      </trkpt>
      <trkpt lat="2.936038" lon="-75.240425">
        <ele>572.0</ele>
        <time>2021-08-21T10:40:26Z</time>
      </trkpt>
      <trkpt lat="2.936058" lon="-75.24038">
        <ele>572.0</ele>
        <time>2021-08-21T10:40:26Z</time>
      </trkpt>
      <trkpt lat="2.936079" lon="-75.24033">
        <ele>572.0</ele>
        <time>2021-08-21T10:40:28Z</time>
      </trkpt>
      <trkpt lat="2.9361" lon="-75.24029">
        <ele>572.0</ele>
        <time>2021-08-21T10:40:29Z</time>
      </trkpt>
      <trkpt lat="2.936119" lon="-75.24024">
        <ele>572.0</ele>
        <time>2021-08-21T10:40:30Z</time>
      </trkpt>
      <trkpt lat="2.936139" lon="-75.2402">
        <ele>572.0</ele>
        <time>2021-08-21T10:40:31Z</time>
      </trkpt>
      <trkpt lat="2.936158" lon="-75.24015">
        <ele>572.0</ele>
        <time>2021-08-21T10:40:32Z</time>
      </trkpt>
      <trkpt lat="2.936178" lon="-75.240105">
        <ele>572.0</ele>
        <time>2021-08-21T10:40:33Z</time>
      </trkpt>
      <trkpt lat="2.936198" lon="-75.24006">
        <ele>572.0</ele>
        <time>2021-08-21T10:40:34Z</time>
      </trkpt>
      <trkpt lat="2.936218" lon="-75.24001">
        <ele>572.0</ele>
        <time>2021-08-21T10:40:35Z</time>
      </trkpt>
      <trkpt lat="2.936238" lon="-75.23997">
        <ele>572.0</ele>
        <time>2021-08-21T10:40:35Z</time>
      </trkpt>
      <trkpt lat="2.936257" lon="-75.23992">
        <ele>572.0</ele>
        <time>2021-08-21T10:40:37Z</time>
      </trkpt>
      <trkpt lat="2.936276" lon="-75.239876">
        <ele>572.0</ele>
        <time>2021-08-21T10:40:38Z</time>
      </trkpt>
      <trkpt lat="2.936296" lon="-75.23982">
        <ele>572.0</ele>
        <time>2021-08-21T10:40:39Z</time>
      </trkpt>
      <trkpt lat="2.936316" lon="-75.23978">
        <ele>571.9</ele>
        <time>2021-08-21T10:40:40Z</time>
      </trkpt>
      <trkpt lat="2.936338" lon="-75.23973">
        <ele>571.9</ele>
        <time>2021-08-21T10:40:41Z</time>
      </trkpt>
      <trkpt lat="2.936358" lon="-75.239685">
        <ele>571.9</ele>
        <time>2021-08-21T10:40:42Z</time>
      </trkpt>
      <trkpt lat="2.936378" lon="-75.23964">
        <ele>571.9</ele>
        <time>2021-08-21T10:40:43Z</time>
      </trkpt>
      <trkpt lat="2.936398" lon="-75.23959">
        <ele>571.8</ele>
        <time>2021-08-21T10:40:43Z</time>
      </trkpt>
      <trkpt lat="2.936417" lon="-75.23955">
        <ele>571.8</ele>
        <time>2021-08-21T10:40:45Z</time>
      </trkpt>
      <trkpt lat="2.936437" lon="-75.2395">
        <ele>571.7</ele>
        <time>2021-08-21T10:40:46Z</time>
      </trkpt>
      <trkpt lat="2.936458" lon="-75.239456">
        <ele>571.7</ele>
        <time>2021-08-21T10:40:47Z</time>
      </trkpt>
      <trkpt lat="2.936479" lon="-75.2394">
        <ele>571.6</ele>
        <time>2021-08-21T10:40:48Z</time>
      </trkpt>
      <trkpt lat="2.936501" lon="-75.23936">
        <ele>571.5</ele>
        <time>2021-08-21T10:40:49Z</time>
      </trkpt>
      <trkpt lat="2.936522" lon="-75.2393">
        <ele>571.5</ele>
        <time>2021-08-21T10:40:50Z</time>
      </trkpt>
      <trkpt lat="2.936543" lon="-75.23926">
        <ele>571.4</ele>
        <time>2021-08-21T10:40:50Z</time>
      </trkpt>
      <trkpt lat="2.936564" lon="-75.23921">
        <ele>571.4</ele>
        <time>2021-08-21T10:40:51Z</time>
      </trkpt>
      <trkpt lat="2.936586" lon="-75.23916">
        <ele>571.3</ele>
        <time>2021-08-21T10:40:53Z</time>
      </trkpt>
      <trkpt lat="2.936609" lon="-75.23911">
        <ele>571.3</ele>
        <time>2021-08-21T10:40:54Z</time>
      </trkpt>
      <trkpt lat="2.936631" lon="-75.23906">
        <ele>571.2</ele>
        <time>2021-08-21T10:40:55Z</time>
      </trkpt>
      <trkpt lat="2.93665" lon="-75.23901">
        <ele>571.2</ele>
        <time>2021-08-21T10:40:56Z</time>
      </trkpt>
      <trkpt lat="2.93667" lon="-75.23897">
        <ele>571.1</ele>
        <time>2021-08-21T10:40:57Z</time>
      </trkpt>
      <trkpt lat="2.936691" lon="-75.238914">
        <ele>571.1</ele>
        <time>2021-08-21T10:40:57Z</time>
      </trkpt>
      <trkpt lat="2.936712" lon="-75.23887">
        <ele>571.0</ele>
        <time>2021-08-21T10:40:58Z</time>
      </trkpt>
      <trkpt lat="2.936733" lon="-75.23882">
        <ele>571.0</ele>
        <time>2021-08-21T10:40:59Z</time>
      </trkpt>
      <trkpt lat="2.936754" lon="-75.23877">
        <ele>571.0</ele>
        <time>2021-08-21T10:41:01Z</time>
      </trkpt>
      <trkpt lat="2.936776" lon="-75.23872">
        <ele>570.9</ele>
        <time>2021-08-21T10:41:02Z</time>
      </trkpt>
      <trkpt lat="2.936797" lon="-75.23867">
        <ele>570.9</ele>
        <time>2021-08-21T10:41:03Z</time>
      </trkpt>
      <trkpt lat="2.936819" lon="-75.238625">
        <ele>570.8</ele>
        <time>2021-08-21T10:41:04Z</time>
      </trkpt>
      <trkpt lat="2.936841" lon="-75.23857">
        <ele>570.7</ele>
        <time>2021-08-21T10:41:04Z</time>
      </trkpt>
      <trkpt lat="2.936863" lon="-75.23852">
        <ele>570.7</ele>
        <time>2021-08-21T10:41:05Z</time>
      </trkpt>
      <trkpt lat="2.936885" lon="-75.23847">
        <ele>570.6</ele>
        <time>2021-08-21T10:41:07Z</time>
      </trkpt>
      <trkpt lat="2.936907" lon="-75.23842">
        <ele>570.6</ele>
        <time>2021-08-21T10:41:08Z</time>
      </trkpt>
      <trkpt lat="2.936929" lon="-75.238365">
        <ele>570.5</ele>
        <time>2021-08-21T10:41:09Z</time>
      </trkpt>
      <trkpt lat="2.936951" lon="-75.23832">
        <ele>570.4</ele>
        <time>2021-08-21T10:41:10Z</time>
      </trkpt>
      <trkpt lat="2.936973" lon="-75.238266">
        <ele>570.4</ele>
        <time>2021-08-21T10:41:11Z</time>
      </trkpt>
      <trkpt lat="2.936995" lon="-75.23821">
        <ele>570.3</ele>
        <time>2021-08-21T10:41:12Z</time>
      </trkpt>
      <trkpt lat="2.937018" lon="-75.23816">
        <ele>570.2</ele>
        <time>2021-08-21T10:41:12Z</time>
      </trkpt>
      <trkpt lat="2.93704" lon="-75.238106">
        <ele>570.1</ele>
        <time>2021-08-21T10:41:14Z</time>
      </trkpt>
      <trkpt lat="2.937062" lon="-75.23806">
        <ele>570.0</ele>
        <time>2021-08-21T10:41:15Z</time>
      </trkpt>
      <trkpt lat="2.937085" lon="-75.23801">
        <ele>569.9</ele>
        <time>2021-08-21T10:41:16Z</time>
      </trkpt>
      <trkpt lat="2.937109" lon="-75.23795">
        <ele>569.8</ele>
        <time>2021-08-21T10:41:17Z</time>
      </trkpt>
      <trkpt lat="2.937132" lon="-75.2379">
        <ele>569.6</ele>
        <time>2021-08-21T10:41:18Z</time>
      </trkpt>
      <trkpt lat="2.937157" lon="-75.23785">
        <ele>569.5</ele>
        <time>2021-08-21T10:41:19Z</time>
      </trkpt>
      <trkpt lat="2.937182" lon="-75.23779">
        <ele>569.4</ele>
        <time>2021-08-21T10:41:20Z</time>
      </trkpt>
      <trkpt lat="2.937208" lon="-75.23774">
        <ele>569.2</ele>
        <time>2021-08-21T10:41:21Z</time>
      </trkpt>
      <trkpt lat="2.937233" lon="-75.237686">
        <ele>569.1</ele>
        <time>2021-08-21T10:41:21Z</time>
      </trkpt>
      <trkpt lat="2.937259" lon="-75.23763">
        <ele>569.0</ele>
        <time>2021-08-21T10:41:23Z</time>
      </trkpt>
      <trkpt lat="2.937284" lon="-75.23757">
        <ele>568.8</ele>
        <time>2021-08-21T10:41:24Z</time>
      </trkpt>
      <trkpt lat="2.93731" lon="-75.23752">
        <ele>568.7</ele>
        <time>2021-08-21T10:41:25Z</time>
      </trkpt>
      <trkpt lat="2.937336" lon="-75.23746">
        <ele>568.5</ele>
        <time>2021-08-21T10:41:26Z</time>
      </trkpt>
      <trkpt lat="2.937362" lon="-75.237404">
        <ele>568.4</ele>
        <time>2021-08-21T10:41:26Z</time>
      </trkpt>
      <trkpt lat="2.937389" lon="-75.23734">
        <ele>568.2</ele>
        <time>2021-08-21T10:41:27Z</time>
      </trkpt>
      <trkpt lat="2.937418" lon="-75.23728">
        <ele>568.1</ele>
        <time>2021-08-21T10:41:29Z</time>
      </trkpt>
      <trkpt lat="2.937445" lon="-75.23721">
        <ele>567.9</ele>
        <time>2021-08-21T10:41:30Z</time>
      </trkpt>
      <trkpt lat="2.937471" lon="-75.23715">
        <ele>567.8</ele>
        <time>2021-08-21T10:41:31Z</time>
      </trkpt>
      <trkpt lat="2.937493" lon="-75.23709">
        <ele>567.7</ele>
        <time>2021-08-21T10:41:32Z</time>
      </trkpt>
      <trkpt lat="2.937514" lon="-75.23703">
        <ele>567.6</ele>
        <time>2021-08-21T10:41:33Z</time>
      </trkpt>
      <trkpt lat="2.937533" lon="-75.23697">
        <ele>567.5</ele>
        <time>2021-08-21T10:41:34Z</time>
      </trkpt>
      <trkpt lat="2.93755" lon="-75.23691">
        <ele>567.4</ele>
        <time>2021-08-21T10:41:34Z</time>
      </trkpt>
      <trkpt lat="2.937565" lon="-75.23684">
        <ele>567.3</ele>
        <time>2021-08-21T10:41:35Z</time>
      </trkpt>
      <trkpt lat="2.937578" lon="-75.23678">
        <ele>567.3</ele>
        <time>2021-08-21T10:41:37Z</time>
      </trkpt>
      <trkpt lat="2.937588" lon="-75.23672">
        <ele>567.3</ele>
        <time>2021-08-21T10:41:38Z</time>
      </trkpt>
      <trkpt lat="2.937596" lon="-75.23666">
        <ele>567.3</ele>
        <time>2021-08-21T10:41:39Z</time>
      </trkpt>
      <trkpt lat="2.937601" lon="-75.236595">
        <ele>567.3</ele>
        <time>2021-08-21T10:41:40Z</time>
      </trkpt>
      <trkpt lat="2.937605" lon="-75.236534">
        <ele>567.3</ele>
        <time>2021-08-21T10:41:41Z</time>
      </trkpt>
      <trkpt lat="2.937606" lon="-75.23647">
        <ele>567.3</ele>
        <time>2021-08-21T10:41:42Z</time>
      </trkpt>
      <trkpt lat="2.937604" lon="-75.23641">
        <ele>567.3</ele>
        <time>2021-08-21T10:41:43Z</time>
      </trkpt>
      <trkpt lat="2.9376" lon="-75.23635">
        <ele>567.4</ele>
        <time>2021-08-21T10:41:44Z</time>
      </trkpt>
      <trkpt lat="2.937596" lon="-75.23629">
        <ele>567.4</ele>
        <time>2021-08-21T10:41:45Z</time>
      </trkpt>
      <trkpt lat="2.937591" lon="-75.23624">
        <ele>567.5</ele>
        <time>2021-08-21T10:41:46Z</time>
      </trkpt>
      <trkpt lat="2.937586" lon="-75.236176">
        <ele>567.5</ele>
        <time>2021-08-21T10:41:47Z</time>
      </trkpt>
      <trkpt lat="2.937581" lon="-75.23612">
        <ele>567.6</ele>
        <time>2021-08-21T10:41:48Z</time>
      </trkpt>
      <trkpt lat="2.937576" lon="-75.23607">
        <ele>567.7</ele>
        <time>2021-08-21T10:41:49Z</time>
      </trkpt>
      <trkpt lat="2.937565" lon="-75.23596">
        <ele>567.8</ele>
        <time>2021-08-21T10:41:50Z</time>
      </trkpt>
      <trkpt lat="2.93757" lon="-75.236015">
        <ele>567.7</ele>
        <time>2021-08-21T10:41:50Z</time>
      </trkpt>
      <trkpt lat="2.937559" lon="-75.23591">
        <ele>567.9</ele>
        <time>2021-08-21T10:41:52Z</time>
      </trkpt>
      <trkpt lat="2.937553" lon="-75.235855">
        <ele>568.0</ele>
        <time>2021-08-21T10:41:53Z</time>
      </trkpt>
      <trkpt lat="2.937548" lon="-75.2358">
        <ele>568.1</ele>
        <time>2021-08-21T10:41:54Z</time>
      </trkpt>
      <trkpt lat="2.937542" lon="-75.235756">
        <ele>568.2</ele>
        <time>2021-08-21T10:41:55Z</time>
      </trkpt>
      <trkpt lat="2.937532" lon="-75.23566">
        <ele>568.5</ele>
        <time>2021-08-21T10:41:56Z</time>
      </trkpt>
      <trkpt lat="2.937538" lon="-75.2357">
        <ele>568.4</ele>
        <time>2021-08-21T10:41:56Z</time>
      </trkpt>
      <trkpt lat="2.937527" lon="-75.2356">
        <ele>568.6</ele>
        <time>2021-08-21T10:41:57Z</time>
      </trkpt>
      <trkpt lat="2.937522" lon="-75.23556">
        <ele>568.7</ele>
        <time>2021-08-21T10:41:59Z</time>
      </trkpt>
      <trkpt lat="2.937517" lon="-75.235504">
        <ele>568.8</ele>
        <time>2021-08-21T10:42:00Z</time>
      </trkpt>
      <trkpt lat="2.937512" lon="-75.23546">
        <ele>568.9</ele>
        <time>2021-08-21T10:42:01Z</time>
      </trkpt>
      <trkpt lat="2.937507" lon="-75.23541">
        <ele>569.0</ele>
        <time>2021-08-21T10:42:02Z</time>
      </trkpt>
      <trkpt lat="2.937501" lon="-75.23537">
        <ele>569.1</ele>
        <time>2021-08-21T10:42:03Z</time>
      </trkpt>
      <trkpt lat="2.937492" lon="-75.23527">
        <ele>569.3</ele>
        <time>2021-08-21T10:42:04Z</time>
      </trkpt>
      <trkpt lat="2.937497" lon="-75.23531">
        <ele>569.2</ele>
        <time>2021-08-21T10:42:04Z</time>
      </trkpt>
      <trkpt lat="2.937488" lon="-75.23522">
        <ele>569.4</ele>
        <time>2021-08-21T10:42:06Z</time>
      </trkpt>
      <trkpt lat="2.937484" lon="-75.235176">
        <ele>569.5</ele>
        <time>2021-08-21T10:42:07Z</time>
      </trkpt>
      <trkpt lat="2.937478" lon="-75.23513">
        <ele>569.7</ele>
        <time>2021-08-21T10:42:08Z</time>
      </trkpt>
      <trkpt lat="2.937474" lon="-75.235085">
        <ele>569.8</ele>
        <time>2021-08-21T10:42:09Z</time>
      </trkpt>
      <trkpt lat="2.93747" lon="-75.23504">
        <ele>569.9</ele>
        <time>2021-08-21T10:42:10Z</time>
      </trkpt>
      <trkpt lat="2.937465" lon="-75.23499">
        <ele>570.0</ele>
        <time>2021-08-21T10:42:11Z</time>
      </trkpt>
      <trkpt lat="2.937456" lon="-75.2349">
        <ele>570.2</ele>
        <time>2021-08-21T10:42:12Z</time>
      </trkpt>
      <trkpt lat="2.937461" lon="-75.23495">
        <ele>570.1</ele>
        <time>2021-08-21T10:42:12Z</time>
      </trkpt>
      <trkpt lat="2.937451" lon="-75.234856">
        <ele>570.3</ele>
        <time>2021-08-21T10:42:14Z</time>
      </trkpt>
      <trkpt lat="2.937447" lon="-75.23481">
        <ele>570.4</ele>
        <time>2021-08-21T10:42:15Z</time>
      </trkpt>
      <trkpt lat="2.937443" lon="-75.234764">
        <ele>570.5</ele>
        <time>2021-08-21T10:42:16Z</time>
      </trkpt>
      <trkpt lat="2.937438" lon="-75.23472">
        <ele>570.6</ele>
        <time>2021-08-21T10:42:17Z</time>
      </trkpt>
      <trkpt lat="2.937434" lon="-75.23468">
        <ele>570.7</ele>
        <time>2021-08-21T10:42:18Z</time>
      </trkpt>
      <trkpt lat="2.937429" lon="-75.234634">
        <ele>570.8</ele>
        <time>2021-08-21T10:42:19Z</time>
      </trkpt>
      <trkpt lat="2.937419" lon="-75.23454">
        <ele>570.9</ele>
        <time>2021-08-21T10:42:20Z</time>
      </trkpt>
      <trkpt lat="2.937424" lon="-75.23459">
        <ele>570.9</ele>
        <time>2021-08-21T10:42:20Z</time>
      </trkpt>
      <trkpt lat="2.937415" lon="-75.234505">
        <ele>571.0</ele>
        <time>2021-08-21T10:42:22Z</time>
      </trkpt>
      <trkpt lat="2.93741" lon="-75.23446">
        <ele>571.1</ele>
        <time>2021-08-21T10:42:23Z</time>
      </trkpt>
      <trkpt lat="2.937405" lon="-75.23441">
        <ele>571.1</ele>
        <time>2021-08-21T10:42:24Z</time>
      </trkpt>
      <trkpt lat="2.9374" lon="-75.23437">
        <ele>571.2</ele>
        <time>2021-08-21T10:42:25Z</time>
      </trkpt>
      <trkpt lat="2.937396" lon="-75.23433">
        <ele>571.2</ele>
        <time>2021-08-21T10:42:26Z</time>
      </trkpt>
      <trkpt lat="2.937387" lon="-75.23424">
        <ele>571.4</ele>
        <time>2021-08-21T10:42:27Z</time>
      </trkpt>
      <trkpt lat="2.937392" lon="-75.23428">
        <ele>571.3</ele>
        <time>2021-08-21T10:42:27Z</time>
      </trkpt>
      <trkpt lat="2.937382" lon="-75.2342">
        <ele>571.5</ele>
        <time>2021-08-21T10:42:29Z</time>
      </trkpt>
      <trkpt lat="2.937377" lon="-75.23415">
        <ele>571.6</ele>
        <time>2021-08-21T10:42:30Z</time>
      </trkpt>
      <trkpt lat="2.937373" lon="-75.234116">
        <ele>571.7</ele>
        <time>2021-08-21T10:42:31Z</time>
      </trkpt>
      <trkpt lat="2.937369" lon="-75.23407">
        <ele>571.8</ele>
        <time>2021-08-21T10:42:32Z</time>
      </trkpt>
      <trkpt lat="2.937365" lon="-75.23403">
        <ele>571.9</ele>
        <time>2021-08-21T10:42:33Z</time>
      </trkpt>
      <trkpt lat="2.937357" lon="-75.23395">
        <ele>572.0</ele>
        <time>2021-08-21T10:42:34Z</time>
      </trkpt>
      <trkpt lat="2.937361" lon="-75.233986">
        <ele>572.0</ele>
        <time>2021-08-21T10:42:34Z</time>
      </trkpt>
      <trkpt lat="2.937353" lon="-75.2339">
        <ele>572.1</ele>
        <time>2021-08-21T10:42:35Z</time>
      </trkpt>
      <trkpt lat="2.937348" lon="-75.233864">
        <ele>572.2</ele>
        <time>2021-08-21T10:42:37Z</time>
      </trkpt>
      <trkpt lat="2.93734" lon="-75.23378">
        <ele>572.3</ele>
        <time>2021-08-21T10:42:38Z</time>
      </trkpt>
      <trkpt lat="2.937344" lon="-75.233826">
        <ele>572.2</ele>
        <time>2021-08-21T10:42:38Z</time>
      </trkpt>
      <trkpt lat="2.937336" lon="-75.23374">
        <ele>572.4</ele>
        <time>2021-08-21T10:42:39Z</time>
      </trkpt>
      <trkpt lat="2.937331" lon="-75.2337">
        <ele>572.5</ele>
        <time>2021-08-21T10:42:40Z</time>
      </trkpt>
      <trkpt lat="2.937322" lon="-75.23362">
        <ele>572.6</ele>
        <time>2021-08-21T10:42:41Z</time>
      </trkpt>
      <trkpt lat="2.937326" lon="-75.233665">
        <ele>572.5</ele>
        <time>2021-08-21T10:42:41Z</time>
      </trkpt>
      <trkpt lat="2.937318" lon="-75.23358">
        <ele>572.7</ele>
        <time>2021-08-21T10:42:42Z</time>
      </trkpt>
      <trkpt lat="2.937313" lon="-75.233536">
        <ele>572.8</ele>
        <time>2021-08-21T10:42:43Z</time>
      </trkpt>
      <trkpt lat="2.937309" lon="-75.23349">
        <ele>572.9</ele>
        <time>2021-08-21T10:42:45Z</time>
      </trkpt>
      <trkpt lat="2.937304" lon="-75.233444">
        <ele>572.9</ele>
        <time>2021-08-21T10:42:46Z</time>
      </trkpt>
      <trkpt lat="2.937299" lon="-75.233406">
        <ele>573.0</ele>
        <time>2021-08-21T10:42:47Z</time>
      </trkpt>
      <trkpt lat="2.937294" lon="-75.23336">
        <ele>573.1</ele>
        <time>2021-08-21T10:42:48Z</time>
      </trkpt>
      <trkpt lat="2.93729" lon="-75.233315">
        <ele>573.2</ele>
        <time>2021-08-21T10:42:49Z</time>
      </trkpt>
      <trkpt lat="2.937285" lon="-75.23328">
        <ele>573.3</ele>
        <time>2021-08-21T10:42:50Z</time>
      </trkpt>
      <trkpt lat="2.93728" lon="-75.23323">
        <ele>573.4</ele>
        <time>2021-08-21T10:42:51Z</time>
      </trkpt>
      <trkpt lat="2.937274" lon="-75.233185">
        <ele>573.5</ele>
        <time>2021-08-21T10:42:52Z</time>
      </trkpt>
      <trkpt lat="2.937269" lon="-75.23315">
        <ele>573.6</ele>
        <time>2021-08-21T10:42:53Z</time>
      </trkpt>
      <trkpt lat="2.937264" lon="-75.2331">
        <ele>573.7</ele>
        <time>2021-08-21T10:42:54Z</time>
      </trkpt>
      <trkpt lat="2.937254" lon="-75.23301">
        <ele>573.9</ele>
        <time>2021-08-21T10:42:55Z</time>
      </trkpt>
      <trkpt lat="2.937259" lon="-75.233055">
        <ele>573.8</ele>
        <time>2021-08-21T10:42:55Z</time>
      </trkpt>
      <trkpt lat="2.93725" lon="-75.23297">
        <ele>574.0</ele>
        <time>2021-08-21T10:42:56Z</time>
      </trkpt>
      <trkpt lat="2.937245" lon="-75.232925">
        <ele>574.1</ele>
        <time>2021-08-21T10:42:57Z</time>
      </trkpt>
      <trkpt lat="2.937241" lon="-75.23288">
        <ele>574.2</ele>
        <time>2021-08-21T10:42:59Z</time>
      </trkpt>
      <trkpt lat="2.937237" lon="-75.23284">
        <ele>574.3</ele>
        <time>2021-08-21T10:43:00Z</time>
      </trkpt>
      <trkpt lat="2.937235" lon="-75.232796">
        <ele>574.4</ele>
        <time>2021-08-21T10:43:01Z</time>
      </trkpt>
      <trkpt lat="2.937231" lon="-75.23275">
        <ele>574.5</ele>
        <time>2021-08-21T10:43:02Z</time>
      </trkpt>
      <trkpt lat="2.937224" lon="-75.232666">
        <ele>574.8</ele>
        <time>2021-08-21T10:43:03Z</time>
      </trkpt>
      <trkpt lat="2.937228" lon="-75.23271">
        <ele>574.7</ele>
        <time>2021-08-21T10:43:03Z</time>
      </trkpt>
      <trkpt lat="2.93722" lon="-75.23262">
        <ele>574.9</ele>
        <time>2021-08-21T10:43:04Z</time>
      </trkpt>
      <trkpt lat="2.937216" lon="-75.23258">
        <ele>575.0</ele>
        <time>2021-08-21T10:43:06Z</time>
      </trkpt>
      <trkpt lat="2.937213" lon="-75.23254">
        <ele>575.2</ele>
        <time>2021-08-21T10:43:07Z</time>
      </trkpt>
      <trkpt lat="2.93721" lon="-75.2325">
        <ele>575.3</ele>
        <time>2021-08-21T10:43:08Z</time>
      </trkpt>
      <trkpt lat="2.937207" lon="-75.23245">
        <ele>575.4</ele>
        <time>2021-08-21T10:43:09Z</time>
      </trkpt>
      <trkpt lat="2.937205" lon="-75.232414">
        <ele>575.5</ele>
        <time>2021-08-21T10:43:10Z</time>
      </trkpt>
      <trkpt lat="2.937202" lon="-75.232346">
        <ele>575.7</ele>
        <time>2021-08-21T10:43:11Z</time>
      </trkpt>
      <trkpt lat="2.937204" lon="-75.23238">
        <ele>575.6</ele>
        <time>2021-08-21T10:43:11Z</time>
      </trkpt>
      <trkpt lat="2.937198" lon="-75.232315">
        <ele>575.7</ele>
        <time>2021-08-21T10:43:12Z</time>
      </trkpt>
      <trkpt lat="2.937194" lon="-75.23227">
        <ele>575.8</ele>
        <time>2021-08-21T10:43:14Z</time>
      </trkpt>
      <trkpt lat="2.937188" lon="-75.23223">
        <ele>576.0</ele>
        <time>2021-08-21T10:43:15Z</time>
      </trkpt>
      <trkpt lat="2.937183" lon="-75.23219">
        <ele>576.1</ele>
        <time>2021-08-21T10:43:16Z</time>
      </trkpt>
      <trkpt lat="2.937178" lon="-75.232155">
        <ele>576.2</ele>
        <time>2021-08-21T10:43:17Z</time>
      </trkpt>
      <trkpt lat="2.937173" lon="-75.23211">
        <ele>576.3</ele>
        <time>2021-08-21T10:43:18Z</time>
      </trkpt>
      <trkpt lat="2.937169" lon="-75.23207">
        <ele>576.5</ele>
        <time>2021-08-21T10:43:19Z</time>
      </trkpt>
      <trkpt lat="2.937164" lon="-75.232025">
        <ele>576.6</ele>
        <time>2021-08-21T10:43:20Z</time>
      </trkpt>
      <trkpt lat="2.937161" lon="-75.23198">
        <ele>576.8</ele>
        <time>2021-08-21T10:43:21Z</time>
      </trkpt>
      <trkpt lat="2.937158" lon="-75.23194">
        <ele>576.9</ele>
        <time>2021-08-21T10:43:22Z</time>
      </trkpt>
      <trkpt lat="2.937156" lon="-75.2319">
        <ele>577.0</ele>
        <time>2021-08-21T10:43:23Z</time>
      </trkpt>
      <trkpt lat="2.937154" lon="-75.231865">
        <ele>577.1</ele>
        <time>2021-08-21T10:43:24Z</time>
      </trkpt>
      <trkpt lat="2.93715" lon="-75.23183">
        <ele>577.2</ele>
        <time>2021-08-21T10:43:25Z</time>
      </trkpt>
      <trkpt lat="2.937141" lon="-75.23175">
        <ele>577.5</ele>
        <time>2021-08-21T10:43:26Z</time>
      </trkpt>
      <trkpt lat="2.937145" lon="-75.23179">
        <ele>577.3</ele>
        <time>2021-08-21T10:43:26Z</time>
      </trkpt>
      <trkpt lat="2.937138" lon="-75.23171">
        <ele>577.6</ele>
        <time>2021-08-21T10:43:28Z</time>
      </trkpt>
      <trkpt lat="2.937133" lon="-75.231674">
        <ele>577.7</ele>
        <time>2021-08-21T10:43:29Z</time>
      </trkpt>
      <trkpt lat="2.937129" lon="-75.231636">
        <ele>577.9</ele>
        <time>2021-08-21T10:43:30Z</time>
      </trkpt>
      <trkpt lat="2.937125" lon="-75.2316">
        <ele>578.0</ele>
        <time>2021-08-21T10:43:31Z</time>
      </trkpt>
      <trkpt lat="2.937121" lon="-75.23156">
        <ele>578.2</ele>
        <time>2021-08-21T10:43:32Z</time>
      </trkpt>
      <trkpt lat="2.937114" lon="-75.23148">
        <ele>578.5</ele>
        <time>2021-08-21T10:43:33Z</time>
      </trkpt>
      <trkpt lat="2.937118" lon="-75.23152">
        <ele>578.3</ele>
        <time>2021-08-21T10:43:33Z</time>
      </trkpt>
      <trkpt lat="2.937111" lon="-75.231445">
        <ele>578.6</ele>
        <time>2021-08-21T10:43:34Z</time>
      </trkpt>
      <trkpt lat="2.937107" lon="-75.23141">
        <ele>578.7</ele>
        <time>2021-08-21T10:43:36Z</time>
      </trkpt>
      <trkpt lat="2.937103" lon="-75.23138">
        <ele>578.8</ele>
        <time>2021-08-21T10:43:37Z</time>
      </trkpt>
      <trkpt lat="2.937099" lon="-75.23134">
        <ele>578.9</ele>
        <time>2021-08-21T10:43:38Z</time>
      </trkpt>
      <trkpt lat="2.937096" lon="-75.2313">
        <ele>579.0</ele>
        <time>2021-08-21T10:43:39Z</time>
      </trkpt>
      <trkpt lat="2.937092" lon="-75.231255">
        <ele>579.1</ele>
        <time>2021-08-21T10:43:40Z</time>
      </trkpt>
      <trkpt lat="2.937085" lon="-75.231186">
        <ele>579.3</ele>
        <time>2021-08-21T10:43:41Z</time>
      </trkpt>
      <trkpt lat="2.937089" lon="-75.231224">
        <ele>579.2</ele>
        <time>2021-08-21T10:43:41Z</time>
      </trkpt>
      <trkpt lat="2.937082" lon="-75.23115">
        <ele>579.4</ele>
        <time>2021-08-21T10:43:43Z</time>
      </trkpt>
      <trkpt lat="2.937078" lon="-75.2311">
        <ele>579.5</ele>
        <time>2021-08-21T10:43:44Z</time>
      </trkpt>
      <trkpt lat="2.937076" lon="-75.231064">
        <ele>579.6</ele>
        <time>2021-08-21T10:43:45Z</time>
      </trkpt>
      <trkpt lat="2.937073" lon="-75.231026">
        <ele>579.7</ele>
        <time>2021-08-21T10:43:46Z</time>
      </trkpt>
      <trkpt lat="2.937069" lon="-75.23099">
        <ele>579.8</ele>
        <time>2021-08-21T10:43:47Z</time>
      </trkpt>
      <trkpt lat="2.937065" lon="-75.23095">
        <ele>579.9</ele>
        <time>2021-08-21T10:43:48Z</time>
      </trkpt>
      <trkpt lat="2.937057" lon="-75.230865">
        <ele>580.1</ele>
        <time>2021-08-21T10:43:49Z</time>
      </trkpt>
      <trkpt lat="2.937062" lon="-75.23091">
        <ele>580.0</ele>
        <time>2021-08-21T10:43:49Z</time>
      </trkpt>
      <trkpt lat="2.937053" lon="-75.23083">
        <ele>580.2</ele>
        <time>2021-08-21T10:43:51Z</time>
      </trkpt>
      <trkpt lat="2.937049" lon="-75.23079">
        <ele>580.3</ele>
        <time>2021-08-21T10:43:52Z</time>
      </trkpt>
      <trkpt lat="2.937045" lon="-75.23074">
        <ele>580.4</ele>
        <time>2021-08-21T10:43:53Z</time>
      </trkpt>
      <trkpt lat="2.93704" lon="-75.230705">
        <ele>580.5</ele>
        <time>2021-08-21T10:43:54Z</time>
      </trkpt>
      <trkpt lat="2.937032" lon="-75.23061">
        <ele>580.7</ele>
        <time>2021-08-21T10:43:55Z</time>
      </trkpt>
      <trkpt lat="2.937036" lon="-75.23066">
        <ele>580.6</ele>
        <time>2021-08-21T10:43:55Z</time>
      </trkpt>
      <trkpt lat="2.937028" lon="-75.230576">
        <ele>580.7</ele>
        <time>2021-08-21T10:43:56Z</time>
      </trkpt>
      <trkpt lat="2.937024" lon="-75.23054">
        <ele>580.8</ele>
        <time>2021-08-21T10:43:58Z</time>
      </trkpt>
      <trkpt lat="2.93702" lon="-75.2305">
        <ele>580.9</ele>
        <time>2021-08-21T10:43:59Z</time>
      </trkpt>
      <trkpt lat="2.937015" lon="-75.23045">
        <ele>581.0</ele>
        <time>2021-08-21T10:44:00Z</time>
      </trkpt>
      <trkpt lat="2.93701" lon="-75.23041">
        <ele>581.0</ele>
        <time>2021-08-21T10:44:01Z</time>
      </trkpt>
      <trkpt lat="2.937005" lon="-75.23037">
        <ele>581.1</ele>
        <time>2021-08-21T10:44:02Z</time>
      </trkpt>
      <trkpt lat="2.936995" lon="-75.23028">
        <ele>581.3</ele>
        <time>2021-08-21T10:44:03Z</time>
      </trkpt>
      <trkpt lat="2.937" lon="-75.23032">
        <ele>581.2</ele>
        <time>2021-08-21T10:44:03Z</time>
      </trkpt>
      <trkpt lat="2.93699" lon="-75.23023">
        <ele>581.3</ele>
        <time>2021-08-21T10:44:05Z</time>
      </trkpt>
      <trkpt lat="2.936985" lon="-75.23019">
        <ele>581.4</ele>
        <time>2021-08-21T10:44:06Z</time>
      </trkpt>
      <trkpt lat="2.936979" lon="-75.23014">
        <ele>581.5</ele>
        <time>2021-08-21T10:44:07Z</time>
      </trkpt>
      <trkpt lat="2.936974" lon="-75.230095">
        <ele>581.5</ele>
        <time>2021-08-21T10:44:08Z</time>
      </trkpt>
      <trkpt lat="2.936969" lon="-75.23004">
        <ele>581.6</ele>
        <time>2021-08-21T10:44:09Z</time>
      </trkpt>
      <trkpt lat="2.936965" lon="-75.229996">
        <ele>581.7</ele>
        <time>2021-08-21T10:44:10Z</time>
      </trkpt>
      <trkpt lat="2.93696" lon="-75.22996">
        <ele>581.7</ele>
        <time>2021-08-21T10:44:11Z</time>
      </trkpt>
      <trkpt lat="2.936949" lon="-75.229866">
        <ele>581.8</ele>
        <time>2021-08-21T10:44:12Z</time>
      </trkpt>
      <trkpt lat="2.936955" lon="-75.22991">
        <ele>581.8</ele>
        <time>2021-08-21T10:44:12Z</time>
      </trkpt>
      <trkpt lat="2.936944" lon="-75.22982">
        <ele>581.9</ele>
        <time>2021-08-21T10:44:14Z</time>
      </trkpt>
      <trkpt lat="2.936939" lon="-75.22978">
        <ele>581.9</ele>
        <time>2021-08-21T10:44:15Z</time>
      </trkpt>
      <trkpt lat="2.936935" lon="-75.22974">
        <ele>582.0</ele>
        <time>2021-08-21T10:44:16Z</time>
      </trkpt>
      <trkpt lat="2.93693" lon="-75.22968">
        <ele>582.0</ele>
        <time>2021-08-21T10:44:17Z</time>
      </trkpt>
      <trkpt lat="2.936924" lon="-75.22964">
        <ele>582.1</ele>
        <time>2021-08-21T10:44:18Z</time>
      </trkpt>
      <trkpt lat="2.936915" lon="-75.229546">
        <ele>582.2</ele>
        <time>2021-08-21T10:44:19Z</time>
      </trkpt>
      <trkpt lat="2.936919" lon="-75.22959">
        <ele>582.2</ele>
        <time>2021-08-21T10:44:19Z</time>
      </trkpt>
      <trkpt lat="2.936911" lon="-75.22951">
        <ele>582.3</ele>
        <time>2021-08-21T10:44:21Z</time>
      </trkpt>
      <trkpt lat="2.936907" lon="-75.229454">
        <ele>582.3</ele>
        <time>2021-08-21T10:44:22Z</time>
      </trkpt>
      <trkpt lat="2.936902" lon="-75.22941">
        <ele>582.4</ele>
        <time>2021-08-21T10:44:23Z</time>
      </trkpt>
      <trkpt lat="2.936898" lon="-75.22936">
        <ele>582.5</ele>
        <time>2021-08-21T10:44:24Z</time>
      </trkpt>
      <trkpt lat="2.93689" lon="-75.22927">
        <ele>582.6</ele>
        <time>2021-08-21T10:44:25Z</time>
      </trkpt>
      <trkpt lat="2.936894" lon="-75.22932">
        <ele>582.5</ele>
        <time>2021-08-21T10:44:25Z</time>
      </trkpt>
      <trkpt lat="2.936887" lon="-75.229225">
        <ele>582.7</ele>
        <time>2021-08-21T10:44:26Z</time>
      </trkpt>
      <trkpt lat="2.936882" lon="-75.22917">
        <ele>582.7</ele>
        <time>2021-08-21T10:44:28Z</time>
      </trkpt>
      <trkpt lat="2.936878" lon="-75.229126">
        <ele>582.8</ele>
        <time>2021-08-21T10:44:29Z</time>
      </trkpt>
      <trkpt lat="2.936874" lon="-75.22908">
        <ele>582.9</ele>
        <time>2021-08-21T10:44:30Z</time>
      </trkpt>
      <trkpt lat="2.93687" lon="-75.229034">
        <ele>582.9</ele>
        <time>2021-08-21T10:44:31Z</time>
      </trkpt>
      <trkpt lat="2.936866" lon="-75.22899">
        <ele>583.0</ele>
        <time>2021-08-21T10:44:32Z</time>
      </trkpt>
      <trkpt lat="2.936858" lon="-75.22889">
        <ele>583.1</ele>
        <time>2021-08-21T10:44:33Z</time>
      </trkpt>
      <trkpt lat="2.936862" lon="-75.22894">
        <ele>583.1</ele>
        <time>2021-08-21T10:44:33Z</time>
      </trkpt>
      <trkpt lat="2.936854" lon="-75.228836">
        <ele>583.2</ele>
        <time>2021-08-21T10:44:34Z</time>
      </trkpt>
      <trkpt lat="2.93685" lon="-75.22879">
        <ele>583.2</ele>
        <time>2021-08-21T10:44:36Z</time>
      </trkpt>
      <trkpt lat="2.936845" lon="-75.228745">
        <ele>583.2</ele>
        <time>2021-08-21T10:44:37Z</time>
      </trkpt>
      <trkpt lat="2.936842" lon="-75.2287">
        <ele>583.3</ele>
        <time>2021-08-21T10:44:38Z</time>
      </trkpt>
      <trkpt lat="2.936839" lon="-75.22865">
        <ele>583.3</ele>
        <time>2021-08-21T10:44:39Z</time>
      </trkpt>
      <trkpt lat="2.936837" lon="-75.22861">
        <ele>583.4</ele>
        <time>2021-08-21T10:44:40Z</time>
      </trkpt>
      <trkpt lat="2.936834" lon="-75.22856">
        <ele>583.5</ele>
        <time>2021-08-21T10:44:41Z</time>
      </trkpt>
      <trkpt lat="2.936827" lon="-75.22846">
        <ele>583.7</ele>
        <time>2021-08-21T10:44:42Z</time>
      </trkpt>
      <trkpt lat="2.936831" lon="-75.22851">
        <ele>583.6</ele>
        <time>2021-08-21T10:44:42Z</time>
      </trkpt>
      <trkpt lat="2.936824" lon="-75.22842">
        <ele>583.8</ele>
        <time>2021-08-21T10:44:44Z</time>
      </trkpt>
      <trkpt lat="2.93682" lon="-75.22837">
        <ele>583.9</ele>
        <time>2021-08-21T10:44:45Z</time>
      </trkpt>
      <trkpt lat="2.936818" lon="-75.228325">
        <ele>584.0</ele>
        <time>2021-08-21T10:44:46Z</time>
      </trkpt>
      <trkpt lat="2.936815" lon="-75.22828">
        <ele>584.2</ele>
        <time>2021-08-21T10:44:47Z</time>
      </trkpt>
      <trkpt lat="2.936812" lon="-75.22823">
        <ele>584.3</ele>
        <time>2021-08-21T10:44:48Z</time>
      </trkpt>
      <trkpt lat="2.936804" lon="-75.22814">
        <ele>584.6</ele>
        <time>2021-08-21T10:44:49Z</time>
      </trkpt>
      <trkpt lat="2.936808" lon="-75.22819">
        <ele>584.5</ele>
        <time>2021-08-21T10:44:49Z</time>
      </trkpt>
      <trkpt lat="2.936801" lon="-75.228096">
        <ele>584.8</ele>
        <time>2021-08-21T10:44:51Z</time>
      </trkpt>
      <trkpt lat="2.936798" lon="-75.22805">
        <ele>584.9</ele>
        <time>2021-08-21T10:44:52Z</time>
      </trkpt>
      <trkpt lat="2.936794" lon="-75.228004">
        <ele>585.1</ele>
        <time>2021-08-21T10:44:53Z</time>
      </trkpt>
      <trkpt lat="2.93679" lon="-75.22796">
        <ele>585.2</ele>
        <time>2021-08-21T10:44:54Z</time>
      </trkpt>
      <trkpt lat="2.936783" lon="-75.227875">
        <ele>585.6</ele>
        <time>2021-08-21T10:44:55Z</time>
      </trkpt>
      <trkpt lat="2.936786" lon="-75.22791">
        <ele>585.4</ele>
        <time>2021-08-21T10:44:55Z</time>
      </trkpt>
      <trkpt lat="2.93678" lon="-75.22783">
        <ele>585.7</ele>
        <time>2021-08-21T10:44:56Z</time>
      </trkpt>
      <trkpt lat="2.936773" lon="-75.22774">
        <ele>586.0</ele>
        <time>2021-08-21T10:44:58Z</time>
      </trkpt>
      <trkpt lat="2.936776" lon="-75.22778">
        <ele>585.9</ele>
        <time>2021-08-21T10:44:58Z</time>
      </trkpt>
      <trkpt lat="2.936769" lon="-75.2277">
        <ele>586.2</ele>
        <time>2021-08-21T10:45:00Z</time>
      </trkpt>
      <trkpt lat="2.936765" lon="-75.22765">
        <ele>586.3</ele>
        <time>2021-08-21T10:45:01Z</time>
      </trkpt>
      <trkpt lat="2.936762" lon="-75.227615">
        <ele>586.4</ele>
        <time>2021-08-21T10:45:02Z</time>
      </trkpt>
      <trkpt lat="2.936755" lon="-75.22752">
        <ele>586.7</ele>
        <time>2021-08-21T10:45:03Z</time>
      </trkpt>
      <trkpt lat="2.936759" lon="-75.22757">
        <ele>586.6</ele>
        <time>2021-08-21T10:45:03Z</time>
      </trkpt>
      <trkpt lat="2.936752" lon="-75.227486">
        <ele>586.8</ele>
        <time>2021-08-21T10:45:05Z</time>
      </trkpt>
      <trkpt lat="2.936748" lon="-75.22744">
        <ele>587.0</ele>
        <time>2021-08-21T10:45:06Z</time>
      </trkpt>
      <trkpt lat="2.936744" lon="-75.227394">
        <ele>587.1</ele>
        <time>2021-08-21T10:45:07Z</time>
      </trkpt>
      <trkpt lat="2.93674" lon="-75.22735">
        <ele>587.3</ele>
        <time>2021-08-21T10:45:08Z</time>
      </trkpt>
      <trkpt lat="2.936736" lon="-75.2273">
        <ele>587.4</ele>
        <time>2021-08-21T10:45:09Z</time>
      </trkpt>
      <trkpt lat="2.936732" lon="-75.227264">
        <ele>587.5</ele>
        <time>2021-08-21T10:45:10Z</time>
      </trkpt>
      <trkpt lat="2.936728" lon="-75.22722">
        <ele>587.7</ele>
        <time>2021-08-21T10:45:11Z</time>
      </trkpt>
      <trkpt lat="2.93672" lon="-75.22713">
        <ele>588.0</ele>
        <time>2021-08-21T10:45:12Z</time>
      </trkpt>
      <trkpt lat="2.936725" lon="-75.22717">
        <ele>587.8</ele>
        <time>2021-08-21T10:45:12Z</time>
      </trkpt>
      <trkpt lat="2.936716" lon="-75.22708">
        <ele>588.1</ele>
        <time>2021-08-21T10:45:14Z</time>
      </trkpt>
      <trkpt lat="2.936712" lon="-75.22704">
        <ele>588.2</ele>
        <time>2021-08-21T10:45:15Z</time>
      </trkpt>
      <trkpt lat="2.936707" lon="-75.227">
        <ele>588.3</ele>
        <time>2021-08-21T10:45:16Z</time>
      </trkpt>
      <trkpt lat="2.936703" lon="-75.22696">
        <ele>588.4</ele>
        <time>2021-08-21T10:45:17Z</time>
      </trkpt>
      <trkpt lat="2.9367" lon="-75.22691">
        <ele>588.5</ele>
        <time>2021-08-21T10:45:18Z</time>
      </trkpt>
      <trkpt lat="2.936693" lon="-75.22682">
        <ele>588.7</ele>
        <time>2021-08-21T10:45:19Z</time>
      </trkpt>
      <trkpt lat="2.936696" lon="-75.22687">
        <ele>588.6</ele>
        <time>2021-08-21T10:45:19Z</time>
      </trkpt>
      <trkpt lat="2.93669" lon="-75.22678">
        <ele>588.7</ele>
        <time>2021-08-21T10:45:20Z</time>
      </trkpt>
      <trkpt lat="2.936688" lon="-75.22674">
        <ele>588.8</ele>
        <time>2021-08-21T10:45:22Z</time>
      </trkpt>
      <trkpt lat="2.936686" lon="-75.2267">
        <ele>588.9</ele>
        <time>2021-08-21T10:45:23Z</time>
      </trkpt>
      <trkpt lat="2.936684" lon="-75.226654">
        <ele>588.9</ele>
        <time>2021-08-21T10:45:24Z</time>
      </trkpt>
      <trkpt lat="2.93668" lon="-75.22657">
        <ele>589.1</ele>
        <time>2021-08-21T10:45:25Z</time>
      </trkpt>
      <trkpt lat="2.936682" lon="-75.22661">
        <ele>589.0</ele>
        <time>2021-08-21T10:45:25Z</time>
      </trkpt>
      <trkpt lat="2.936677" lon="-75.22653">
        <ele>589.2</ele>
        <time>2021-08-21T10:45:27Z</time>
      </trkpt>
      <trkpt lat="2.936674" lon="-75.226494">
        <ele>589.3</ele>
        <time>2021-08-21T10:45:28Z</time>
      </trkpt>
      <trkpt lat="2.936672" lon="-75.226456">
        <ele>589.4</ele>
        <time>2021-08-21T10:45:29Z</time>
      </trkpt>
      <trkpt lat="2.936669" lon="-75.22641">
        <ele>589.5</ele>
        <time>2021-08-21T10:45:30Z</time>
      </trkpt>
      <trkpt lat="2.936666" lon="-75.22637">
        <ele>589.6</ele>
        <time>2021-08-21T10:45:31Z</time>
      </trkpt>
      <trkpt lat="2.936664" lon="-75.22633">
        <ele>589.7</ele>
        <time>2021-08-21T10:45:32Z</time>
      </trkpt>
      <trkpt lat="2.936662" lon="-75.226295">
        <ele>589.8</ele>
        <time>2021-08-21T10:45:33Z</time>
      </trkpt>
      <trkpt lat="2.93666" lon="-75.22622">
        <ele>590.0</ele>
        <time>2021-08-21T10:45:34Z</time>
      </trkpt>
      <trkpt lat="2.936661" lon="-75.22626">
        <ele>589.9</ele>
        <time>2021-08-21T10:45:34Z</time>
      </trkpt>
      <trkpt lat="2.936657" lon="-75.22618">
        <ele>590.1</ele>
        <time>2021-08-21T10:45:36Z</time>
      </trkpt>
      <trkpt lat="2.936654" lon="-75.226135">
        <ele>590.2</ele>
        <time>2021-08-21T10:45:37Z</time>
      </trkpt>
      <trkpt lat="2.93665" lon="-75.2261">
        <ele>590.3</ele>
        <time>2021-08-21T10:45:38Z</time>
      </trkpt>
      <trkpt lat="2.936646" lon="-75.22605">
        <ele>590.4</ele>
        <time>2021-08-21T10:45:39Z</time>
      </trkpt>
      <trkpt lat="2.936643" lon="-75.226006">
        <ele>590.5</ele>
        <time>2021-08-21T10:45:40Z</time>
      </trkpt>
      <trkpt lat="2.936635" lon="-75.22592">
        <ele>590.8</ele>
        <time>2021-08-21T10:45:41Z</time>
      </trkpt>
      <trkpt lat="2.936639" lon="-75.22597">
        <ele>590.7</ele>
        <time>2021-08-21T10:45:41Z</time>
      </trkpt>
      <trkpt lat="2.936631" lon="-75.225876">
        <ele>590.9</ele>
        <time>2021-08-21T10:45:42Z</time>
      </trkpt>
      <trkpt lat="2.936627" lon="-75.22583">
        <ele>591.0</ele>
        <time>2021-08-21T10:45:44Z</time>
      </trkpt>
      <trkpt lat="2.936623" lon="-75.225784">
        <ele>591.1</ele>
        <time>2021-08-21T10:45:45Z</time>
      </trkpt>
      <trkpt lat="2.93662" lon="-75.225746">
        <ele>591.2</ele>
        <time>2021-08-21T10:45:46Z</time>
      </trkpt>
      <trkpt lat="2.936616" lon="-75.2257">
        <ele>591.4</ele>
        <time>2021-08-21T10:45:47Z</time>
      </trkpt>
      <trkpt lat="2.936613" lon="-75.22566">
        <ele>591.5</ele>
        <time>2021-08-21T10:45:48Z</time>
      </trkpt>
      <trkpt lat="2.936606" lon="-75.22558">
        <ele>591.7</ele>
        <time>2021-08-21T10:45:49Z</time>
      </trkpt>
      <trkpt lat="2.93661" lon="-75.22562">
        <ele>591.6</ele>
        <time>2021-08-21T10:45:49Z</time>
      </trkpt>
      <trkpt lat="2.936603" lon="-75.22553">
        <ele>591.8</ele>
        <time>2021-08-21T10:45:51Z</time>
      </trkpt>
      <trkpt lat="2.936599" lon="-75.22549">
        <ele>591.9</ele>
        <time>2021-08-21T10:45:52Z</time>
      </trkpt>
      <trkpt lat="2.936595" lon="-75.22544">
        <ele>592.0</ele>
        <time>2021-08-21T10:45:53Z</time>
      </trkpt>
      <trkpt lat="2.936591" lon="-75.2254">
        <ele>592.1</ele>
        <time>2021-08-21T10:45:54Z</time>
      </trkpt>
      <trkpt lat="2.936587" lon="-75.225365">
        <ele>592.2</ele>
        <time>2021-08-21T10:45:55Z</time>
      </trkpt>
      <trkpt lat="2.936579" lon="-75.22527">
        <ele>592.5</ele>
        <time>2021-08-21T10:45:56Z</time>
      </trkpt>
      <trkpt lat="2.936583" lon="-75.22532">
        <ele>592.4</ele>
        <time>2021-08-21T10:45:56Z</time>
      </trkpt>
      <trkpt lat="2.936575" lon="-75.225235">
        <ele>592.6</ele>
        <time>2021-08-21T10:45:57Z</time>
      </trkpt>
      <trkpt lat="2.936572" lon="-75.22519">
        <ele>592.7</ele>
        <time>2021-08-21T10:45:59Z</time>
      </trkpt>
      <trkpt lat="2.936568" lon="-75.22514">
        <ele>592.9</ele>
        <time>2021-08-21T10:46:00Z</time>
      </trkpt>
      <trkpt lat="2.936565" lon="-75.225105">
        <ele>593.0</ele>
        <time>2021-08-21T10:46:01Z</time>
      </trkpt>
      <trkpt lat="2.936561" lon="-75.22507">
        <ele>593.1</ele>
        <time>2021-08-21T10:46:02Z</time>
      </trkpt>
      <trkpt lat="2.936559" lon="-75.22502">
        <ele>593.3</ele>
        <time>2021-08-21T10:46:03Z</time>
      </trkpt>
      <trkpt lat="2.936552" lon="-75.224945">
        <ele>593.6</ele>
        <time>2021-08-21T10:46:04Z</time>
      </trkpt>
      <trkpt lat="2.936555" lon="-75.22498">
        <ele>593.4</ele>
        <time>2021-08-21T10:46:04Z</time>
      </trkpt>
      <trkpt lat="2.936549" lon="-75.22491">
        <ele>593.7</ele>
        <time>2021-08-21T10:46:05Z</time>
      </trkpt>
      <trkpt lat="2.936545" lon="-75.22486">
        <ele>593.9</ele>
        <time>2021-08-21T10:46:07Z</time>
      </trkpt>
      <trkpt lat="2.936541" lon="-75.22482">
        <ele>594.1</ele>
        <time>2021-08-21T10:46:08Z</time>
      </trkpt>
      <trkpt lat="2.936537" lon="-75.224785">
        <ele>594.2</ele>
        <time>2021-08-21T10:46:09Z</time>
      </trkpt>
      <trkpt lat="2.936534" lon="-75.22474">
        <ele>594.4</ele>
        <time>2021-08-21T10:46:10Z</time>
      </trkpt>
      <trkpt lat="2.936527" lon="-75.22466">
        <ele>594.8</ele>
        <time>2021-08-21T10:46:11Z</time>
      </trkpt>
      <trkpt lat="2.936531" lon="-75.2247">
        <ele>594.6</ele>
        <time>2021-08-21T10:46:11Z</time>
      </trkpt>
      <trkpt lat="2.936524" lon="-75.224625">
        <ele>595.0</ele>
        <time>2021-08-21T10:46:12Z</time>
      </trkpt>
      <trkpt lat="2.936522" lon="-75.22458">
        <ele>595.2</ele>
        <time>2021-08-21T10:46:14Z</time>
      </trkpt>
      <trkpt lat="2.93652" lon="-75.22454">
        <ele>595.4</ele>
        <time>2021-08-21T10:46:15Z</time>
      </trkpt>
      <trkpt lat="2.936519" lon="-75.2245">
        <ele>595.6</ele>
        <time>2021-08-21T10:46:16Z</time>
      </trkpt>
      <trkpt lat="2.936517" lon="-75.224464">
        <ele>595.7</ele>
        <time>2021-08-21T10:46:17Z</time>
      </trkpt>
      <trkpt lat="2.936516" lon="-75.22443">
        <ele>595.9</ele>
        <time>2021-08-21T10:46:18Z</time>
      </trkpt>
      <trkpt lat="2.936511" lon="-75.22435">
        <ele>596.3</ele>
        <time>2021-08-21T10:46:19Z</time>
      </trkpt>
      <trkpt lat="2.936514" lon="-75.22438">
        <ele>596.1</ele>
        <time>2021-08-21T10:46:19Z</time>
      </trkpt>
      <trkpt lat="2.936506" lon="-75.22427">
        <ele>596.6</ele>
        <time>2021-08-21T10:46:21Z</time>
      </trkpt>
      <trkpt lat="2.936509" lon="-75.22431">
        <ele>596.4</ele>
        <time>2021-08-21T10:46:21Z</time>
      </trkpt>
      <trkpt lat="2.936503" lon="-75.22423">
        <ele>596.7</ele>
        <time>2021-08-21T10:46:23Z</time>
      </trkpt>
      <trkpt lat="2.936499" lon="-75.22419">
        <ele>596.8</ele>
        <time>2021-08-21T10:46:24Z</time>
      </trkpt>
      <trkpt lat="2.936492" lon="-75.22411">
        <ele>597.1</ele>
        <time>2021-08-21T10:46:25Z</time>
      </trkpt>
      <trkpt lat="2.936496" lon="-75.22415">
        <ele>597.0</ele>
        <time>2021-08-21T10:46:25Z</time>
      </trkpt>
      <trkpt lat="2.936488" lon="-75.224075">
        <ele>597.2</ele>
        <time>2021-08-21T10:46:26Z</time>
      </trkpt>
      <trkpt lat="2.936485" lon="-75.22404">
        <ele>597.4</ele>
        <time>2021-08-21T10:46:27Z</time>
      </trkpt>
      <trkpt lat="2.936481" lon="-75.22399">
        <ele>597.5</ele>
        <time>2021-08-21T10:46:29Z</time>
      </trkpt>
      <trkpt lat="2.936478" lon="-75.22395">
        <ele>597.7</ele>
        <time>2021-08-21T10:46:30Z</time>
      </trkpt>
      <trkpt lat="2.936476" lon="-75.223915">
        <ele>597.8</ele>
        <time>2021-08-21T10:46:31Z</time>
      </trkpt>
      <trkpt lat="2.936473" lon="-75.22387">
        <ele>597.9</ele>
        <time>2021-08-21T10:46:32Z</time>
      </trkpt>
      <trkpt lat="2.936466" lon="-75.223785">
        <ele>598.2</ele>
        <time>2021-08-21T10:46:33Z</time>
      </trkpt>
      <trkpt lat="2.936469" lon="-75.22383">
        <ele>598.1</ele>
        <time>2021-08-21T10:46:33Z</time>
      </trkpt>
      <trkpt lat="2.936463" lon="-75.22375">
        <ele>598.3</ele>
        <time>2021-08-21T10:46:34Z</time>
      </trkpt>
      <trkpt lat="2.93646" lon="-75.22371">
        <ele>598.5</ele>
        <time>2021-08-21T10:46:36Z</time>
      </trkpt>
      <trkpt lat="2.936455" lon="-75.22367">
        <ele>598.6</ele>
        <time>2021-08-21T10:46:37Z</time>
      </trkpt>
      <trkpt lat="2.936451" lon="-75.22363">
        <ele>598.7</ele>
        <time>2021-08-21T10:46:38Z</time>
      </trkpt>
      <trkpt lat="2.936447" lon="-75.223595">
        <ele>598.8</ele>
        <time>2021-08-21T10:46:39Z</time>
      </trkpt>
      <trkpt lat="2.936443" lon="-75.223564">
        <ele>598.9</ele>
        <time>2021-08-21T10:46:40Z</time>
      </trkpt>
      <trkpt lat="2.936435" lon="-75.22349">
        <ele>599.2</ele>
        <time>2021-08-21T10:46:41Z</time>
      </trkpt>
      <trkpt lat="2.936439" lon="-75.223526">
        <ele>599.1</ele>
        <time>2021-08-21T10:46:41Z</time>
      </trkpt>
      <trkpt lat="2.936432" lon="-75.22345">
        <ele>599.3</ele>
        <time>2021-08-21T10:46:42Z</time>
      </trkpt>
      <trkpt lat="2.936428" lon="-75.22341">
        <ele>599.4</ele>
        <time>2021-08-21T10:46:43Z</time>
      </trkpt>
      <trkpt lat="2.936425" lon="-75.22337">
        <ele>599.5</ele>
        <time>2021-08-21T10:46:45Z</time>
      </trkpt>
      <trkpt lat="2.936422" lon="-75.223335">
        <ele>599.6</ele>
        <time>2021-08-21T10:46:46Z</time>
      </trkpt>
      <trkpt lat="2.936419" lon="-75.22329">
        <ele>599.7</ele>
        <time>2021-08-21T10:46:47Z</time>
      </trkpt>
      <trkpt lat="2.936416" lon="-75.22326">
        <ele>599.8</ele>
        <time>2021-08-21T10:46:48Z</time>
      </trkpt>
      <trkpt lat="2.93641" lon="-75.22318">
        <ele>600.0</ele>
        <time>2021-08-21T10:46:49Z</time>
      </trkpt>
      <trkpt lat="2.936413" lon="-75.22322">
        <ele>599.9</ele>
        <time>2021-08-21T10:46:49Z</time>
      </trkpt>
      <trkpt lat="2.936407" lon="-75.223145">
        <ele>600.1</ele>
        <time>2021-08-21T10:46:50Z</time>
      </trkpt>
      <trkpt lat="2.936403" lon="-75.22311">
        <ele>600.3</ele>
        <time>2021-08-21T10:46:52Z</time>
      </trkpt>
      <trkpt lat="2.936395" lon="-75.22303">
        <ele>600.4</ele>
        <time>2021-08-21T10:46:53Z</time>
      </trkpt>
      <trkpt lat="2.936399" lon="-75.22307">
        <ele>600.4</ele>
        <time>2021-08-21T10:46:53Z</time>
      </trkpt>
      <trkpt lat="2.936391" lon="-75.22299">
        <ele>600.5</ele>
        <time>2021-08-21T10:46:54Z</time>
      </trkpt>
      <trkpt lat="2.936382" lon="-75.22291">
        <ele>600.7</ele>
        <time>2021-08-21T10:46:55Z</time>
      </trkpt>
      <trkpt lat="2.936387" lon="-75.22295">
        <ele>600.6</ele>
        <time>2021-08-21T10:46:55Z</time>
      </trkpt>
      <trkpt lat="2.936378" lon="-75.22287">
        <ele>600.8</ele>
        <time>2021-08-21T10:46:56Z</time>
      </trkpt>
      <trkpt lat="2.936373" lon="-75.22283">
        <ele>600.9</ele>
        <time>2021-08-21T10:46:58Z</time>
      </trkpt>
      <trkpt lat="2.936369" lon="-75.222786">
        <ele>600.9</ele>
        <time>2021-08-21T10:46:59Z</time>
      </trkpt>
      <trkpt lat="2.936365" lon="-75.22275">
        <ele>601.0</ele>
        <time>2021-08-21T10:47:00Z</time>
      </trkpt>
      <trkpt lat="2.936361" lon="-75.22271">
        <ele>601.1</ele>
        <time>2021-08-21T10:47:01Z</time>
      </trkpt>
      <trkpt lat="2.936351" lon="-75.222626">
        <ele>601.3</ele>
        <time>2021-08-21T10:47:02Z</time>
      </trkpt>
      <trkpt lat="2.936356" lon="-75.22267">
        <ele>601.2</ele>
        <time>2021-08-21T10:47:02Z</time>
      </trkpt>
      <trkpt lat="2.936347" lon="-75.22259">
        <ele>601.3</ele>
        <time>2021-08-21T10:47:03Z</time>
      </trkpt>
      <trkpt lat="2.936343" lon="-75.22255">
        <ele>601.4</ele>
        <time>2021-08-21T10:47:05Z</time>
      </trkpt>
      <trkpt lat="2.93634" lon="-75.22251">
        <ele>601.5</ele>
        <time>2021-08-21T10:47:06Z</time>
      </trkpt>
      <trkpt lat="2.936335" lon="-75.22247">
        <ele>601.5</ele>
        <time>2021-08-21T10:47:07Z</time>
      </trkpt>
      <trkpt lat="2.936331" lon="-75.22243">
        <ele>601.6</ele>
        <time>2021-08-21T10:47:08Z</time>
      </trkpt>
      <trkpt lat="2.936327" lon="-75.22239">
        <ele>601.6</ele>
        <time>2021-08-21T10:47:09Z</time>
      </trkpt>
      <trkpt lat="2.936318" lon="-75.222305">
        <ele>601.7</ele>
        <time>2021-08-21T10:47:10Z</time>
      </trkpt>
      <trkpt lat="2.936323" lon="-75.22235">
        <ele>601.6</ele>
        <time>2021-08-21T10:47:10Z</time>
      </trkpt>
      <trkpt lat="2.936315" lon="-75.22227">
        <ele>601.7</ele>
        <time>2021-08-21T10:47:12Z</time>
      </trkpt>
      <trkpt lat="2.936312" lon="-75.22222">
        <ele>601.7</ele>
        <time>2021-08-21T10:47:13Z</time>
      </trkpt>
      <trkpt lat="2.93631" lon="-75.22218">
        <ele>601.7</ele>
        <time>2021-08-21T10:47:14Z</time>
      </trkpt>
      <trkpt lat="2.936308" lon="-75.22214">
        <ele>601.7</ele>
        <time>2021-08-21T10:47:15Z</time>
      </trkpt>
      <trkpt lat="2.936306" lon="-75.2221">
        <ele>601.8</ele>
        <time>2021-08-21T10:47:16Z</time>
      </trkpt>
      <trkpt lat="2.936302" lon="-75.222015">
        <ele>601.8</ele>
        <time>2021-08-21T10:47:17Z</time>
      </trkpt>
      <trkpt lat="2.936304" lon="-75.22205">
        <ele>601.8</ele>
        <time>2021-08-21T10:47:17Z</time>
      </trkpt>
      <trkpt lat="2.936299" lon="-75.22198">
        <ele>601.9</ele>
        <time>2021-08-21T10:47:18Z</time>
      </trkpt>
      <trkpt lat="2.936295" lon="-75.22194">
        <ele>601.9</ele>
        <time>2021-08-21T10:47:20Z</time>
      </trkpt>
      <trkpt lat="2.936291" lon="-75.2219">
        <ele>601.9</ele>
        <time>2021-08-21T10:47:21Z</time>
      </trkpt>
      <trkpt lat="2.936285" lon="-75.221855">
        <ele>602.0</ele>
        <time>2021-08-21T10:47:22Z</time>
      </trkpt>
      <trkpt lat="2.93628" lon="-75.22181">
        <ele>602.1</ele>
        <time>2021-08-21T10:47:23Z</time>
      </trkpt>
      <trkpt lat="2.936273" lon="-75.221725">
        <ele>602.2</ele>
        <time>2021-08-21T10:47:24Z</time>
      </trkpt>
      <trkpt lat="2.936277" lon="-75.22177">
        <ele>602.1</ele>
        <time>2021-08-21T10:47:24Z</time>
      </trkpt>
      <trkpt lat="2.936266" lon="-75.221634">
        <ele>602.3</ele>
        <time>2021-08-21T10:47:26Z</time>
      </trkpt>
      <trkpt lat="2.93627" lon="-75.22168">
        <ele>602.2</ele>
        <time>2021-08-21T10:47:26Z</time>
      </trkpt>
      <trkpt lat="2.936263" lon="-75.221596">
        <ele>602.4</ele>
        <time>2021-08-21T10:47:28Z</time>
      </trkpt>
      <trkpt lat="2.93626" lon="-75.22155">
        <ele>602.4</ele>
        <time>2021-08-21T10:47:29Z</time>
      </trkpt>
      <trkpt lat="2.936256" lon="-75.221504">
        <ele>602.5</ele>
        <time>2021-08-21T10:47:30Z</time>
      </trkpt>
      <trkpt lat="2.936254" lon="-75.221466">
        <ele>602.5</ele>
        <time>2021-08-21T10:47:31Z</time>
      </trkpt>
      <trkpt lat="2.936248" lon="-75.22138">
        <ele>602.6</ele>
        <time>2021-08-21T10:47:32Z</time>
      </trkpt>
      <trkpt lat="2.936251" lon="-75.22142">
        <ele>602.6</ele>
        <time>2021-08-21T10:47:32Z</time>
      </trkpt>
      <trkpt lat="2.936245" lon="-75.22134">
        <ele>602.7</ele>
        <time>2021-08-21T10:47:33Z</time>
      </trkpt>
      <trkpt lat="2.936242" lon="-75.22129">
        <ele>602.7</ele>
        <time>2021-08-21T10:47:35Z</time>
      </trkpt>
      <trkpt lat="2.936239" lon="-75.22125">
        <ele>602.8</ele>
        <time>2021-08-21T10:47:36Z</time>
      </trkpt>
      <trkpt lat="2.936235" lon="-75.22121">
        <ele>602.9</ele>
        <time>2021-08-21T10:47:37Z</time>
      </trkpt>
      <trkpt lat="2.93623" lon="-75.22116">
        <ele>602.9</ele>
        <time>2021-08-21T10:47:38Z</time>
      </trkpt>
      <trkpt lat="2.936226" lon="-75.221115">
        <ele>603.0</ele>
        <time>2021-08-21T10:47:39Z</time>
      </trkpt>
      <trkpt lat="2.93622" lon="-75.22102">
        <ele>603.2</ele>
        <time>2021-08-21T10:47:40Z</time>
      </trkpt>
      <trkpt lat="2.936223" lon="-75.22107">
        <ele>603.1</ele>
        <time>2021-08-21T10:47:40Z</time>
      </trkpt>
      <trkpt lat="2.936218" lon="-75.22098">
        <ele>603.3</ele>
        <time>2021-08-21T10:47:42Z</time>
      </trkpt>
      <trkpt lat="2.936214" lon="-75.22094">
        <ele>603.3</ele>
        <time>2021-08-21T10:47:43Z</time>
      </trkpt>
      <trkpt lat="2.936211" lon="-75.220894">
        <ele>603.3</ele>
        <time>2021-08-21T10:47:44Z</time>
      </trkpt>
      <trkpt lat="2.936207" lon="-75.220856">
        <ele>603.3</ele>
        <time>2021-08-21T10:47:45Z</time>
      </trkpt>
      <trkpt lat="2.936204" lon="-75.22081">
        <ele>603.4</ele>
        <time>2021-08-21T10:47:46Z</time>
      </trkpt>
      <trkpt lat="2.936201" lon="-75.220764">
        <ele>603.4</ele>
        <time>2021-08-21T10:47:47Z</time>
      </trkpt>
      <trkpt lat="2.936192" lon="-75.22067">
        <ele>603.6</ele>
        <time>2021-08-21T10:47:48Z</time>
      </trkpt>
      <trkpt lat="2.936196" lon="-75.22072">
        <ele>603.5</ele>
        <time>2021-08-21T10:47:48Z</time>
      </trkpt>
      <trkpt lat="2.936189" lon="-75.220634">
        <ele>603.7</ele>
        <time>2021-08-21T10:47:50Z</time>
      </trkpt>
      <trkpt lat="2.936185" lon="-75.22059">
        <ele>603.8</ele>
        <time>2021-08-21T10:47:51Z</time>
      </trkpt>
      <trkpt lat="2.936181" lon="-75.22054">
        <ele>603.9</ele>
        <time>2021-08-21T10:47:52Z</time>
      </trkpt>
      <trkpt lat="2.936177" lon="-75.220505">
        <ele>604.0</ele>
        <time>2021-08-21T10:47:53Z</time>
      </trkpt>
      <trkpt lat="2.936171" lon="-75.22042">
        <ele>604.2</ele>
        <time>2021-08-21T10:47:54Z</time>
      </trkpt>
      <trkpt lat="2.936174" lon="-75.22046">
        <ele>604.1</ele>
        <time>2021-08-21T10:47:54Z</time>
      </trkpt>
      <trkpt lat="2.936168" lon="-75.220375">
        <ele>604.2</ele>
        <time>2021-08-21T10:47:55Z</time>
      </trkpt>
      <trkpt lat="2.936162" lon="-75.2203">
        <ele>604.4</ele>
        <time>2021-08-21T10:47:57Z</time>
      </trkpt>
      <trkpt lat="2.936165" lon="-75.22034">
        <ele>604.3</ele>
        <time>2021-08-21T10:47:57Z</time>
      </trkpt>
      <trkpt lat="2.936158" lon="-75.22025">
        <ele>604.5</ele>
        <time>2021-08-21T10:47:59Z</time>
      </trkpt>
      <trkpt lat="2.936156" lon="-75.220215">
        <ele>604.6</ele>
        <time>2021-08-21T10:48:00Z</time>
      </trkpt>
      <trkpt lat="2.936152" lon="-75.22018">
        <ele>604.8</ele>
        <time>2021-08-21T10:48:01Z</time>
      </trkpt>
      <trkpt lat="2.936147" lon="-75.22009">
        <ele>605.0</ele>
        <time>2021-08-21T10:48:02Z</time>
      </trkpt>
      <trkpt lat="2.936149" lon="-75.22014">
        <ele>604.9</ele>
        <time>2021-08-21T10:48:02Z</time>
      </trkpt>
      <trkpt lat="2.936142" lon="-75.22002">
        <ele>605.2</ele>
        <time>2021-08-21T10:48:04Z</time>
      </trkpt>
      <trkpt lat="2.936145" lon="-75.220055">
        <ele>605.1</ele>
        <time>2021-08-21T10:48:04Z</time>
      </trkpt>
      <trkpt lat="2.936139" lon="-75.21998">
        <ele>605.3</ele>
        <time>2021-08-21T10:48:06Z</time>
      </trkpt>
      <trkpt lat="2.936136" lon="-75.21993">
        <ele>605.4</ele>
        <time>2021-08-21T10:48:07Z</time>
      </trkpt>
      <trkpt lat="2.936133" lon="-75.219894">
        <ele>605.5</ele>
        <time>2021-08-21T10:48:08Z</time>
      </trkpt>
      <trkpt lat="2.936131" lon="-75.21985">
        <ele>605.6</ele>
        <time>2021-08-21T10:48:09Z</time>
      </trkpt>
      <trkpt lat="2.936129" lon="-75.21981">
        <ele>605.7</ele>
        <time>2021-08-21T10:48:10Z</time>
      </trkpt>
      <trkpt lat="2.936126" lon="-75.21977">
        <ele>605.8</ele>
        <time>2021-08-21T10:48:11Z</time>
      </trkpt>
      <trkpt lat="2.936122" lon="-75.219734">
        <ele>605.9</ele>
        <time>2021-08-21T10:48:12Z</time>
      </trkpt>
      <trkpt lat="2.936118" lon="-75.219696">
        <ele>606.0</ele>
        <time>2021-08-21T10:48:13Z</time>
      </trkpt>
      <trkpt lat="2.936112" lon="-75.21966">
        <ele>606.1</ele>
        <time>2021-08-21T10:48:14Z</time>
      </trkpt>
      <trkpt lat="2.936106" lon="-75.21962">
        <ele>606.2</ele>
        <time>2021-08-21T10:48:15Z</time>
      </trkpt>
      <trkpt lat="2.9361" lon="-75.219574">
        <ele>606.3</ele>
        <time>2021-08-21T10:48:16Z</time>
      </trkpt>
      <trkpt lat="2.936095" lon="-75.219536">
        <ele>606.4</ele>
        <time>2021-08-21T10:48:17Z</time>
      </trkpt>
      <trkpt lat="2.936087" lon="-75.21946">
        <ele>606.5</ele>
        <time>2021-08-21T10:48:18Z</time>
      </trkpt>
      <trkpt lat="2.936091" lon="-75.2195">
        <ele>606.4</ele>
        <time>2021-08-21T10:48:18Z</time>
      </trkpt>
      <trkpt lat="2.936084" lon="-75.21942">
        <ele>606.6</ele>
        <time>2021-08-21T10:48:20Z</time>
      </trkpt>
      <trkpt lat="2.93608" lon="-75.21938">
        <ele>606.7</ele>
        <time>2021-08-21T10:48:21Z</time>
      </trkpt>
      <trkpt lat="2.936076" lon="-75.21934">
        <ele>606.7</ele>
        <time>2021-08-21T10:48:22Z</time>
      </trkpt>
      <trkpt lat="2.936072" lon="-75.21929">
        <ele>606.8</ele>
        <time>2021-08-21T10:48:23Z</time>
      </trkpt>
      <trkpt lat="2.936068" lon="-75.21925">
        <ele>606.9</ele>
        <time>2021-08-21T10:48:24Z</time>
      </trkpt>
      <trkpt lat="2.936062" lon="-75.21917">
        <ele>607.1</ele>
        <time>2021-08-21T10:48:25Z</time>
      </trkpt>
      <trkpt lat="2.936066" lon="-75.219215">
        <ele>607.0</ele>
        <time>2021-08-21T10:48:25Z</time>
      </trkpt>
      <trkpt lat="2.936059" lon="-75.21913">
        <ele>607.2</ele>
        <time>2021-08-21T10:48:26Z</time>
      </trkpt>
      <trkpt lat="2.936056" lon="-75.21909">
        <ele>607.3</ele>
        <time>2021-08-21T10:48:28Z</time>
      </trkpt>
      <trkpt lat="2.936052" lon="-75.219055">
        <ele>607.4</ele>
        <time>2021-08-21T10:48:29Z</time>
      </trkpt>
      <trkpt lat="2.936047" lon="-75.21902">
        <ele>607.5</ele>
        <time>2021-08-21T10:48:30Z</time>
      </trkpt>
      <trkpt lat="2.936044" lon="-75.21898">
        <ele>607.6</ele>
        <time>2021-08-21T10:48:31Z</time>
      </trkpt>
      <trkpt lat="2.936041" lon="-75.21894">
        <ele>607.7</ele>
        <time>2021-08-21T10:48:32Z</time>
      </trkpt>
      <trkpt lat="2.936036" lon="-75.218864">
        <ele>608.0</ele>
        <time>2021-08-21T10:48:33Z</time>
      </trkpt>
      <trkpt lat="2.936038" lon="-75.2189">
        <ele>607.9</ele>
        <time>2021-08-21T10:48:33Z</time>
      </trkpt>
      <trkpt lat="2.936033" lon="-75.21883">
        <ele>608.1</ele>
        <time>2021-08-21T10:48:34Z</time>
      </trkpt>
      <trkpt lat="2.93603" lon="-75.218796">
        <ele>608.2</ele>
        <time>2021-08-21T10:48:36Z</time>
      </trkpt>
      <trkpt lat="2.936027" lon="-75.21876">
        <ele>608.3</ele>
        <time>2021-08-21T10:48:37Z</time>
      </trkpt>
      <trkpt lat="2.936024" lon="-75.21872">
        <ele>608.5</ele>
        <time>2021-08-21T10:48:38Z</time>
      </trkpt>
      <trkpt lat="2.936021" lon="-75.21868">
        <ele>608.6</ele>
        <time>2021-08-21T10:48:39Z</time>
      </trkpt>
      <trkpt lat="2.936015" lon="-75.21861">
        <ele>608.9</ele>
        <time>2021-08-21T10:48:40Z</time>
      </trkpt>
      <trkpt lat="2.936018" lon="-75.21864">
        <ele>608.7</ele>
        <time>2021-08-21T10:48:40Z</time>
      </trkpt>
      <trkpt lat="2.936011" lon="-75.218575">
        <ele>609.0</ele>
        <time>2021-08-21T10:48:42Z</time>
      </trkpt>
      <trkpt lat="2.936008" lon="-75.21854">
        <ele>609.2</ele>
        <time>2021-08-21T10:48:43Z</time>
      </trkpt>
      <trkpt lat="2.936005" lon="-75.2185">
        <ele>609.3</ele>
        <time>2021-08-21T10:48:44Z</time>
      </trkpt>
      <trkpt lat="2.936001" lon="-75.21846">
        <ele>609.5</ele>
        <time>2021-08-21T10:48:45Z</time>
      </trkpt>
      <trkpt lat="2.935999" lon="-75.21843">
        <ele>609.6</ele>
        <time>2021-08-21T10:48:46Z</time>
      </trkpt>
      <trkpt lat="2.935996" lon="-75.21839">
        <ele>609.8</ele>
        <time>2021-08-21T10:48:47Z</time>
      </trkpt>
      <trkpt lat="2.935989" lon="-75.21832">
        <ele>610.1</ele>
        <time>2021-08-21T10:48:48Z</time>
      </trkpt>
      <trkpt lat="2.935992" lon="-75.21835">
        <ele>609.9</ele>
        <time>2021-08-21T10:48:48Z</time>
      </trkpt>
      <trkpt lat="2.935985" lon="-75.218285">
        <ele>610.2</ele>
        <time>2021-08-21T10:48:50Z</time>
      </trkpt>
      <trkpt lat="2.935982" lon="-75.218254">
        <ele>610.4</ele>
        <time>2021-08-21T10:48:51Z</time>
      </trkpt>
      <trkpt lat="2.935978" lon="-75.218216">
        <ele>610.5</ele>
        <time>2021-08-21T10:48:52Z</time>
      </trkpt>
      <trkpt lat="2.935976" lon="-75.21818">
        <ele>610.7</ele>
        <time>2021-08-21T10:48:53Z</time>
      </trkpt>
      <trkpt lat="2.935969" lon="-75.2181">
        <ele>611.0</ele>
        <time>2021-08-21T10:48:54Z</time>
      </trkpt>
      <trkpt lat="2.935972" lon="-75.21814">
        <ele>610.8</ele>
        <time>2021-08-21T10:48:54Z</time>
      </trkpt>
      <trkpt lat="2.935967" lon="-75.21806">
        <ele>611.1</ele>
        <time>2021-08-21T10:48:55Z</time>
      </trkpt>
      <trkpt lat="2.935965" lon="-75.21803">
        <ele>611.3</ele>
        <time>2021-08-21T10:48:57Z</time>
      </trkpt>
      <trkpt lat="2.935963" lon="-75.217995">
        <ele>611.4</ele>
        <time>2021-08-21T10:48:58Z</time>
      </trkpt>
      <trkpt lat="2.935961" lon="-75.21796">
        <ele>611.6</ele>
        <time>2021-08-21T10:48:59Z</time>
      </trkpt>
      <trkpt lat="2.935959" lon="-75.21792">
        <ele>611.7</ele>
        <time>2021-08-21T10:49:00Z</time>
      </trkpt>
      <trkpt lat="2.935956" lon="-75.21789">
        <ele>611.8</ele>
        <time>2021-08-21T10:49:01Z</time>
      </trkpt>
      <trkpt lat="2.935953" lon="-75.21785">
        <ele>612.0</ele>
        <time>2021-08-21T10:49:02Z</time>
      </trkpt>
      <trkpt lat="2.935945" lon="-75.21777">
        <ele>612.2</ele>
        <time>2021-08-21T10:49:03Z</time>
      </trkpt>
      <trkpt lat="2.93595" lon="-75.21781">
        <ele>612.1</ele>
        <time>2021-08-21T10:49:03Z</time>
      </trkpt>
      <trkpt lat="2.935942" lon="-75.21774">
        <ele>612.3</ele>
        <time>2021-08-21T10:49:05Z</time>
      </trkpt>
      <trkpt lat="2.935937" lon="-75.217705">
        <ele>612.5</ele>
        <time>2021-08-21T10:49:06Z</time>
      </trkpt>
      <trkpt lat="2.935933" lon="-75.21767">
        <ele>612.6</ele>
        <time>2021-08-21T10:49:07Z</time>
      </trkpt>
      <trkpt lat="2.935929" lon="-75.21763">
        <ele>612.7</ele>
        <time>2021-08-21T10:49:08Z</time>
      </trkpt>
      <trkpt lat="2.935926" lon="-75.21759">
        <ele>612.8</ele>
        <time>2021-08-21T10:49:09Z</time>
      </trkpt>
      <trkpt lat="2.935919" lon="-75.217514">
        <ele>613.1</ele>
        <time>2021-08-21T10:49:10Z</time>
      </trkpt>
      <trkpt lat="2.935922" lon="-75.21755">
        <ele>613.0</ele>
        <time>2021-08-21T10:49:10Z</time>
      </trkpt>
      <trkpt lat="2.935916" lon="-75.217476">
        <ele>613.2</ele>
        <time>2021-08-21T10:49:11Z</time>
      </trkpt>
      <trkpt lat="2.935913" lon="-75.21744">
        <ele>613.3</ele>
        <time>2021-08-21T10:49:13Z</time>
      </trkpt>
      <trkpt lat="2.93591" lon="-75.2174">
        <ele>613.4</ele>
        <time>2021-08-21T10:49:14Z</time>
      </trkpt>
      <trkpt lat="2.935907" lon="-75.21737">
        <ele>613.5</ele>
        <time>2021-08-21T10:49:15Z</time>
      </trkpt>
      <trkpt lat="2.935903" lon="-75.21733">
        <ele>613.6</ele>
        <time>2021-08-21T10:49:16Z</time>
      </trkpt>
      <trkpt lat="2.935899" lon="-75.21729">
        <ele>613.7</ele>
        <time>2021-08-21T10:49:17Z</time>
      </trkpt>
      <trkpt lat="2.93589" lon="-75.21722">
        <ele>614.0</ele>
        <time>2021-08-21T10:49:18Z</time>
      </trkpt>
      <trkpt lat="2.935895" lon="-75.217255">
        <ele>613.8</ele>
        <time>2021-08-21T10:49:18Z</time>
      </trkpt>
      <trkpt lat="2.935882" lon="-75.21714">
        <ele>614.2</ele>
        <time>2021-08-21T10:49:20Z</time>
      </trkpt>
      <trkpt lat="2.935886" lon="-75.21718">
        <ele>614.1</ele>
        <time>2021-08-21T10:49:20Z</time>
      </trkpt>
      <trkpt lat="2.935879" lon="-75.217094">
        <ele>614.3</ele>
        <time>2021-08-21T10:49:22Z</time>
      </trkpt>
      <trkpt lat="2.935875" lon="-75.21706">
        <ele>614.5</ele>
        <time>2021-08-21T10:49:23Z</time>
      </trkpt>
      <trkpt lat="2.935869" lon="-75.21698">
        <ele>614.7</ele>
        <time>2021-08-21T10:49:24Z</time>
      </trkpt>
      <trkpt lat="2.935872" lon="-75.21702">
        <ele>614.6</ele>
        <time>2021-08-21T10:49:24Z</time>
      </trkpt>
      <trkpt lat="2.935867" lon="-75.21694">
        <ele>614.8</ele>
        <time>2021-08-21T10:49:25Z</time>
      </trkpt>
      <trkpt lat="2.935864" lon="-75.2169">
        <ele>614.9</ele>
        <time>2021-08-21T10:49:26Z</time>
      </trkpt>
      <trkpt lat="2.93586" lon="-75.21686">
        <ele>615.0</ele>
        <time>2021-08-21T10:49:28Z</time>
      </trkpt>
      <trkpt lat="2.935857" lon="-75.21683">
        <ele>615.1</ele>
        <time>2021-08-21T10:49:29Z</time>
      </trkpt>
      <trkpt lat="2.935854" lon="-75.21679">
        <ele>615.1</ele>
        <time>2021-08-21T10:49:30Z</time>
      </trkpt>
      <trkpt lat="2.93585" lon="-75.21675">
        <ele>615.2</ele>
        <time>2021-08-21T10:49:31Z</time>
      </trkpt>
      <trkpt lat="2.935843" lon="-75.216675">
        <ele>615.4</ele>
        <time>2021-08-21T10:49:32Z</time>
      </trkpt>
      <trkpt lat="2.935847" lon="-75.21671">
        <ele>615.3</ele>
        <time>2021-08-21T10:49:32Z</time>
      </trkpt>
      <trkpt lat="2.935839" lon="-75.21664">
        <ele>615.4</ele>
        <time>2021-08-21T10:49:34Z</time>
      </trkpt>
      <trkpt lat="2.935835" lon="-75.2166">
        <ele>615.5</ele>
        <time>2021-08-21T10:49:35Z</time>
      </trkpt>
      <trkpt lat="2.935831" lon="-75.21656">
        <ele>615.6</ele>
        <time>2021-08-21T10:49:36Z</time>
      </trkpt>
      <trkpt lat="2.935828" lon="-75.21652">
        <ele>615.6</ele>
        <time>2021-08-21T10:49:37Z</time>
      </trkpt>
      <trkpt lat="2.935824" lon="-75.216484">
        <ele>615.7</ele>
        <time>2021-08-21T10:49:38Z</time>
      </trkpt>
      <trkpt lat="2.93582" lon="-75.21644">
        <ele>615.7</ele>
        <time>2021-08-21T10:49:39Z</time>
      </trkpt>
      <trkpt lat="2.935816" lon="-75.2164">
        <ele>615.8</ele>
        <time>2021-08-21T10:49:40Z</time>
      </trkpt>
      <trkpt lat="2.935812" lon="-75.21636">
        <ele>615.8</ele>
        <time>2021-08-21T10:49:41Z</time>
      </trkpt>
      <trkpt lat="2.935808" lon="-75.216324">
        <ele>615.9</ele>
        <time>2021-08-21T10:49:42Z</time>
      </trkpt>
      <trkpt lat="2.935805" lon="-75.21628">
        <ele>616.0</ele>
        <time>2021-08-21T10:49:43Z</time>
      </trkpt>
      <trkpt lat="2.935801" lon="-75.21624">
        <ele>616.0</ele>
        <time>2021-08-21T10:49:44Z</time>
      </trkpt>
      <trkpt lat="2.935797" lon="-75.216194">
        <ele>616.1</ele>
        <time>2021-08-21T10:49:45Z</time>
      </trkpt>
      <trkpt lat="2.935793" lon="-75.21615">
        <ele>616.1</ele>
        <time>2021-08-21T10:49:46Z</time>
      </trkpt>
      <trkpt lat="2.935788" lon="-75.21611">
        <ele>616.1</ele>
        <time>2021-08-21T10:49:47Z</time>
      </trkpt>
      <trkpt lat="2.935785" lon="-75.216064">
        <ele>616.2</ele>
        <time>2021-08-21T10:49:48Z</time>
      </trkpt>
      <trkpt lat="2.93578" lon="-75.21603">
        <ele>616.3</ele>
        <time>2021-08-21T10:49:49Z</time>
      </trkpt>
      <trkpt lat="2.935776" lon="-75.21598">
        <ele>616.3</ele>
        <time>2021-08-21T10:49:50Z</time>
      </trkpt>
      <trkpt lat="2.935772" lon="-75.21594">
        <ele>616.4</ele>
        <time>2021-08-21T10:49:51Z</time>
      </trkpt>
      <trkpt lat="2.935768" lon="-75.2159">
        <ele>616.5</ele>
        <time>2021-08-21T10:49:52Z</time>
      </trkpt>
      <trkpt lat="2.935763" lon="-75.21586">
        <ele>616.5</ele>
        <time>2021-08-21T10:49:53Z</time>
      </trkpt>
      <trkpt lat="2.935759" lon="-75.215775">
        <ele>616.6</ele>
        <time>2021-08-21T10:49:54Z</time>
      </trkpt>
      <trkpt lat="2.93576" lon="-75.21581">
        <ele>616.6</ele>
        <time>2021-08-21T10:49:54Z</time>
      </trkpt>
      <trkpt lat="2.93576" lon="-75.21574">
        <ele>616.7</ele>
        <time>2021-08-21T10:49:56Z</time>
      </trkpt>
      <trkpt lat="2.935761" lon="-75.2157">
        <ele>616.8</ele>
        <time>2021-08-21T10:49:56Z</time>
      </trkpt>
      <trkpt lat="2.935761" lon="-75.21566">
        <ele>616.8</ele>
        <time>2021-08-21T10:49:58Z</time>
      </trkpt>
      <trkpt lat="2.935759" lon="-75.21562">
        <ele>616.9</ele>
        <time>2021-08-21T10:49:59Z</time>
      </trkpt>
      <trkpt lat="2.935754" lon="-75.21558">
        <ele>617.0</ele>
        <time>2021-08-21T10:50:00Z</time>
      </trkpt>
      <trkpt lat="2.93575" lon="-75.21554">
        <ele>617.0</ele>
        <time>2021-08-21T10:50:01Z</time>
      </trkpt>
      <trkpt lat="2.935745" lon="-75.2155">
        <ele>617.1</ele>
        <time>2021-08-21T10:50:02Z</time>
      </trkpt>
      <trkpt lat="2.935741" lon="-75.21542">
        <ele>617.2</ele>
        <time>2021-08-21T10:50:03Z</time>
      </trkpt>
      <trkpt lat="2.935742" lon="-75.21546">
        <ele>617.2</ele>
        <time>2021-08-21T10:50:03Z</time>
      </trkpt>
      <trkpt lat="2.93574" lon="-75.215385">
        <ele>617.3</ele>
        <time>2021-08-21T10:50:05Z</time>
      </trkpt>
      <trkpt lat="2.93574" lon="-75.21535">
        <ele>617.3</ele>
        <time>2021-08-21T10:50:06Z</time>
      </trkpt>
      <trkpt lat="2.935742" lon="-75.2153">
        <ele>617.4</ele>
        <time>2021-08-21T10:50:07Z</time>
      </trkpt>
      <trkpt lat="2.935742" lon="-75.21526">
        <ele>617.4</ele>
        <time>2021-08-21T10:50:08Z</time>
      </trkpt>
      <trkpt lat="2.935741" lon="-75.215225">
        <ele>617.5</ele>
        <time>2021-08-21T10:50:09Z</time>
      </trkpt>
      <trkpt lat="2.935733" lon="-75.21514">
        <ele>617.6</ele>
        <time>2021-08-21T10:50:10Z</time>
      </trkpt>
      <trkpt lat="2.935738" lon="-75.21519">
        <ele>617.5</ele>
        <time>2021-08-21T10:50:10Z</time>
      </trkpt>
      <trkpt lat="2.935729" lon="-75.2151">
        <ele>617.6</ele>
        <time>2021-08-21T10:50:11Z</time>
      </trkpt>
      <trkpt lat="2.935726" lon="-75.215065">
        <ele>617.7</ele>
        <time>2021-08-21T10:50:13Z</time>
      </trkpt>
      <trkpt lat="2.935724" lon="-75.21502">
        <ele>617.7</ele>
        <time>2021-08-21T10:50:14Z</time>
      </trkpt>
      <trkpt lat="2.935722" lon="-75.21498">
        <ele>617.8</ele>
        <time>2021-08-21T10:50:15Z</time>
      </trkpt>
      <trkpt lat="2.935719" lon="-75.21494">
        <ele>617.9</ele>
        <time>2021-08-21T10:50:16Z</time>
      </trkpt>
      <trkpt lat="2.935718" lon="-75.214905">
        <ele>617.9</ele>
        <time>2021-08-21T10:50:17Z</time>
      </trkpt>
      <trkpt lat="2.935717" lon="-75.21487">
        <ele>618.0</ele>
        <time>2021-08-21T10:50:18Z</time>
      </trkpt>
      <trkpt lat="2.935718" lon="-75.21483">
        <ele>618.1</ele>
        <time>2021-08-21T10:50:19Z</time>
      </trkpt>
      <trkpt lat="2.935718" lon="-75.21479">
        <ele>618.1</ele>
        <time>2021-08-21T10:50:20Z</time>
      </trkpt>
      <trkpt lat="2.935719" lon="-75.21475">
        <ele>618.2</ele>
        <time>2021-08-21T10:50:21Z</time>
      </trkpt>
      <trkpt lat="2.935717" lon="-75.214714">
        <ele>618.3</ele>
        <time>2021-08-21T10:50:22Z</time>
      </trkpt>
      <trkpt lat="2.935713" lon="-75.21468">
        <ele>618.4</ele>
        <time>2021-08-21T10:50:23Z</time>
      </trkpt>
      <trkpt lat="2.935701" lon="-75.214615">
        <ele>618.5</ele>
        <time>2021-08-21T10:50:24Z</time>
      </trkpt>
      <trkpt lat="2.935707" lon="-75.21465">
        <ele>618.4</ele>
        <time>2021-08-21T10:50:24Z</time>
      </trkpt>
      <trkpt lat="2.935695" lon="-75.214584">
        <ele>618.6</ele>
        <time>2021-08-21T10:50:25Z</time>
      </trkpt>
      <trkpt lat="2.93569" lon="-75.21455">
        <ele>618.7</ele>
        <time>2021-08-21T10:50:26Z</time>
      </trkpt>
      <trkpt lat="2.935685" lon="-75.214516">
        <ele>618.7</ele>
        <time>2021-08-21T10:50:28Z</time>
      </trkpt>
      <trkpt lat="2.935679" lon="-75.21448">
        <ele>618.8</ele>
        <time>2021-08-21T10:50:29Z</time>
      </trkpt>
      <trkpt lat="2.935674" lon="-75.21444">
        <ele>618.9</ele>
        <time>2021-08-21T10:50:30Z</time>
      </trkpt>
      <trkpt lat="2.93567" lon="-75.2144">
        <ele>619.0</ele>
        <time>2021-08-21T10:50:31Z</time>
      </trkpt>
      <trkpt lat="2.935666" lon="-75.21437">
        <ele>619.1</ele>
        <time>2021-08-21T10:50:32Z</time>
      </trkpt>
      <trkpt lat="2.935657" lon="-75.214294">
        <ele>619.3</ele>
        <time>2021-08-21T10:50:33Z</time>
      </trkpt>
      <trkpt lat="2.935661" lon="-75.21433">
        <ele>619.2</ele>
        <time>2021-08-21T10:50:33Z</time>
      </trkpt>
      <trkpt lat="2.935653" lon="-75.21426">
        <ele>619.4</ele>
        <time>2021-08-21T10:50:35Z</time>
      </trkpt>
      <trkpt lat="2.93565" lon="-75.21422">
        <ele>619.5</ele>
        <time>2021-08-21T10:50:36Z</time>
      </trkpt>
      <trkpt lat="2.935647" lon="-75.21418">
        <ele>619.6</ele>
        <time>2021-08-21T10:50:37Z</time>
      </trkpt>
      <trkpt lat="2.935643" lon="-75.21414">
        <ele>619.7</ele>
        <time>2021-08-21T10:50:38Z</time>
      </trkpt>
      <trkpt lat="2.935639" lon="-75.2141">
        <ele>619.8</ele>
        <time>2021-08-21T10:50:39Z</time>
      </trkpt>
      <trkpt lat="2.935634" lon="-75.214066">
        <ele>619.9</ele>
        <time>2021-08-21T10:50:40Z</time>
      </trkpt>
      <trkpt lat="2.935631" lon="-75.21403">
        <ele>620.0</ele>
        <time>2021-08-21T10:50:41Z</time>
      </trkpt>
      <trkpt lat="2.935628" lon="-75.21399">
        <ele>620.1</ele>
        <time>2021-08-21T10:50:42Z</time>
      </trkpt>
      <trkpt lat="2.935625" lon="-75.21395">
        <ele>620.2</ele>
        <time>2021-08-21T10:50:43Z</time>
      </trkpt>
      <trkpt lat="2.935622" lon="-75.21391">
        <ele>620.3</ele>
        <time>2021-08-21T10:50:44Z</time>
      </trkpt>
      <trkpt lat="2.935619" lon="-75.213875">
        <ele>620.4</ele>
        <time>2021-08-21T10:50:45Z</time>
      </trkpt>
      <trkpt lat="2.935616" lon="-75.21384">
        <ele>620.5</ele>
        <time>2021-08-21T10:50:46Z</time>
      </trkpt>
      <trkpt lat="2.935613" lon="-75.2138">
        <ele>620.6</ele>
        <time>2021-08-21T10:50:47Z</time>
      </trkpt>
      <trkpt lat="2.935609" lon="-75.21376">
        <ele>620.7</ele>
        <time>2021-08-21T10:50:48Z</time>
      </trkpt>
      <trkpt lat="2.935606" lon="-75.21372">
        <ele>620.9</ele>
        <time>2021-08-21T10:50:49Z</time>
      </trkpt>
      <trkpt lat="2.935602" lon="-75.213684">
        <ele>621.0</ele>
        <time>2021-08-21T10:50:50Z</time>
      </trkpt>
      <trkpt lat="2.935599" lon="-75.21364">
        <ele>621.1</ele>
        <time>2021-08-21T10:50:51Z</time>
      </trkpt>
      <trkpt lat="2.935596" lon="-75.2136">
        <ele>621.2</ele>
        <time>2021-08-21T10:50:52Z</time>
      </trkpt>
      <trkpt lat="2.935593" lon="-75.21357">
        <ele>621.3</ele>
        <time>2021-08-21T10:50:53Z</time>
      </trkpt>
      <trkpt lat="2.935586" lon="-75.21349">
        <ele>621.6</ele>
        <time>2021-08-21T10:50:54Z</time>
      </trkpt>
      <trkpt lat="2.935589" lon="-75.21353">
        <ele>621.4</ele>
        <time>2021-08-21T10:50:54Z</time>
      </trkpt>
      <trkpt lat="2.935579" lon="-75.21342">
        <ele>621.8</ele>
        <time>2021-08-21T10:50:56Z</time>
      </trkpt>
      <trkpt lat="2.935583" lon="-75.213455">
        <ele>621.7</ele>
        <time>2021-08-21T10:50:56Z</time>
      </trkpt>
      <trkpt lat="2.935576" lon="-75.21337">
        <ele>621.9</ele>
        <time>2021-08-21T10:50:58Z</time>
      </trkpt>
      <trkpt lat="2.935574" lon="-75.21334">
        <ele>622.0</ele>
        <time>2021-08-21T10:50:59Z</time>
      </trkpt>
      <trkpt lat="2.935572" lon="-75.2133">
        <ele>622.1</ele>
        <time>2021-08-21T10:51:00Z</time>
      </trkpt>
      <trkpt lat="2.935569" lon="-75.213264">
        <ele>622.3</ele>
        <time>2021-08-21T10:51:01Z</time>
      </trkpt>
      <trkpt lat="2.935566" lon="-75.21323">
        <ele>622.4</ele>
        <time>2021-08-21T10:51:02Z</time>
      </trkpt>
      <trkpt lat="2.93556" lon="-75.21315">
        <ele>622.6</ele>
        <time>2021-08-21T10:51:03Z</time>
      </trkpt>
      <trkpt lat="2.935563" lon="-75.21319">
        <ele>622.5</ele>
        <time>2021-08-21T10:51:03Z</time>
      </trkpt>
      <trkpt lat="2.935557" lon="-75.21311">
        <ele>622.7</ele>
        <time>2021-08-21T10:51:05Z</time>
      </trkpt>
      <trkpt lat="2.935553" lon="-75.21307">
        <ele>622.8</ele>
        <time>2021-08-21T10:51:06Z</time>
      </trkpt>
      <trkpt lat="2.93555" lon="-75.213036">
        <ele>623.0</ele>
        <time>2021-08-21T10:51:07Z</time>
      </trkpt>
      <trkpt lat="2.935542" lon="-75.21296">
        <ele>623.2</ele>
        <time>2021-08-21T10:51:08Z</time>
      </trkpt>
      <trkpt lat="2.935546" lon="-75.213">
        <ele>623.1</ele>
        <time>2021-08-21T10:51:08Z</time>
      </trkpt>
      <trkpt lat="2.935536" lon="-75.21288">
        <ele>623.4</ele>
        <time>2021-08-21T10:51:09Z</time>
      </trkpt>
      <trkpt lat="2.935538" lon="-75.21292">
        <ele>623.3</ele>
        <time>2021-08-21T10:51:09Z</time>
      </trkpt>
      <trkpt lat="2.935532" lon="-75.212845">
        <ele>623.6</ele>
        <time>2021-08-21T10:51:10Z</time>
      </trkpt>
      <trkpt lat="2.935529" lon="-75.21281">
        <ele>623.7</ele>
        <time>2021-08-21T10:51:12Z</time>
      </trkpt>
      <trkpt lat="2.935526" lon="-75.21277">
        <ele>623.8</ele>
        <time>2021-08-21T10:51:13Z</time>
      </trkpt>
      <trkpt lat="2.935523" lon="-75.21273">
        <ele>623.9</ele>
        <time>2021-08-21T10:51:14Z</time>
      </trkpt>
      <trkpt lat="2.93552" lon="-75.21269">
        <ele>624.0</ele>
        <time>2021-08-21T10:51:15Z</time>
      </trkpt>
      <trkpt lat="2.935517" lon="-75.212654">
        <ele>624.2</ele>
        <time>2021-08-21T10:51:16Z</time>
      </trkpt>
      <trkpt lat="2.93551" lon="-75.21258">
        <ele>624.4</ele>
        <time>2021-08-21T10:51:17Z</time>
      </trkpt>
      <trkpt lat="2.935513" lon="-75.212616">
        <ele>624.3</ele>
        <time>2021-08-21T10:51:17Z</time>
      </trkpt>
      <trkpt lat="2.935507" lon="-75.21254">
        <ele>624.6</ele>
        <time>2021-08-21T10:51:18Z</time>
      </trkpt>
      <trkpt lat="2.935504" lon="-75.21251">
        <ele>624.7</ele>
        <time>2021-08-21T10:51:19Z</time>
      </trkpt>
      <trkpt lat="2.935502" lon="-75.21247">
        <ele>624.8</ele>
        <time>2021-08-21T10:51:21Z</time>
      </trkpt>
      <trkpt lat="2.935499" lon="-75.21243">
        <ele>624.9</ele>
        <time>2021-08-21T10:51:22Z</time>
      </trkpt>
      <trkpt lat="2.935496" lon="-75.212395">
        <ele>625.1</ele>
        <time>2021-08-21T10:51:23Z</time>
      </trkpt>
      <trkpt lat="2.935489" lon="-75.21231">
        <ele>625.4</ele>
        <time>2021-08-21T10:51:24Z</time>
      </trkpt>
      <trkpt lat="2.935492" lon="-75.21235">
        <ele>625.2</ele>
        <time>2021-08-21T10:51:24Z</time>
      </trkpt>
      <trkpt lat="2.935484" lon="-75.21227">
        <ele>625.5</ele>
        <time>2021-08-21T10:51:25Z</time>
      </trkpt>
      <trkpt lat="2.935481" lon="-75.212234">
        <ele>625.6</ele>
        <time>2021-08-21T10:51:27Z</time>
      </trkpt>
      <trkpt lat="2.935478" lon="-75.2122">
        <ele>625.7</ele>
        <time>2021-08-21T10:51:28Z</time>
      </trkpt>
      <trkpt lat="2.935474" lon="-75.21216">
        <ele>625.8</ele>
        <time>2021-08-21T10:51:29Z</time>
      </trkpt>
      <trkpt lat="2.93547" lon="-75.21212">
        <ele>626.0</ele>
        <time>2021-08-21T10:51:30Z</time>
      </trkpt>
      <trkpt lat="2.935467" lon="-75.21208">
        <ele>626.1</ele>
        <time>2021-08-21T10:51:31Z</time>
      </trkpt>
      <trkpt lat="2.935459" lon="-75.212006">
        <ele>626.3</ele>
        <time>2021-08-21T10:51:32Z</time>
      </trkpt>
      <trkpt lat="2.935463" lon="-75.21204">
        <ele>626.2</ele>
        <time>2021-08-21T10:51:32Z</time>
      </trkpt>
      <trkpt lat="2.935455" lon="-75.21197">
        <ele>626.4</ele>
        <time>2021-08-21T10:51:34Z</time>
      </trkpt>
      <trkpt lat="2.935451" lon="-75.21193">
        <ele>626.5</ele>
        <time>2021-08-21T10:51:35Z</time>
      </trkpt>
      <trkpt lat="2.935448" lon="-75.21189">
        <ele>626.7</ele>
        <time>2021-08-21T10:51:36Z</time>
      </trkpt>
      <trkpt lat="2.935444" lon="-75.21185">
        <ele>626.8</ele>
        <time>2021-08-21T10:51:37Z</time>
      </trkpt>
      <trkpt lat="2.93544" lon="-75.211815">
        <ele>626.9</ele>
        <time>2021-08-21T10:51:38Z</time>
      </trkpt>
      <trkpt lat="2.935432" lon="-75.21174">
        <ele>627.1</ele>
        <time>2021-08-21T10:51:39Z</time>
      </trkpt>
      <trkpt lat="2.935436" lon="-75.21178">
        <ele>627.0</ele>
        <time>2021-08-21T10:51:39Z</time>
      </trkpt>
      <trkpt lat="2.935428" lon="-75.21169">
        <ele>627.3</ele>
        <time>2021-08-21T10:51:40Z</time>
      </trkpt>
      <trkpt lat="2.935425" lon="-75.211655">
        <ele>627.4</ele>
        <time>2021-08-21T10:51:42Z</time>
      </trkpt>
      <trkpt lat="2.935422" lon="-75.21162">
        <ele>627.5</ele>
        <time>2021-08-21T10:51:43Z</time>
      </trkpt>
      <trkpt lat="2.935419" lon="-75.21158">
        <ele>627.7</ele>
        <time>2021-08-21T10:51:44Z</time>
      </trkpt>
      <trkpt lat="2.935416" lon="-75.21154">
        <ele>627.8</ele>
        <time>2021-08-21T10:51:45Z</time>
      </trkpt>
      <trkpt lat="2.935412" lon="-75.2115">
        <ele>627.9</ele>
        <time>2021-08-21T10:51:46Z</time>
      </trkpt>
      <trkpt lat="2.935405" lon="-75.21143">
        <ele>628.2</ele>
        <time>2021-08-21T10:51:47Z</time>
      </trkpt>
      <trkpt lat="2.935409" lon="-75.211464">
        <ele>628.1</ele>
        <time>2021-08-21T10:51:47Z</time>
      </trkpt>
      <trkpt lat="2.935402" lon="-75.211395">
        <ele>628.3</ele>
        <time>2021-08-21T10:51:48Z</time>
      </trkpt>
      <trkpt lat="2.935399" lon="-75.21136">
        <ele>628.5</ele>
        <time>2021-08-21T10:51:50Z</time>
      </trkpt>
      <trkpt lat="2.935396" lon="-75.21132">
        <ele>628.6</ele>
        <time>2021-08-21T10:51:51Z</time>
      </trkpt>
      <trkpt lat="2.935393" lon="-75.21128">
        <ele>628.7</ele>
        <time>2021-08-21T10:51:52Z</time>
      </trkpt>
      <trkpt lat="2.935391" lon="-75.21124">
        <ele>628.9</ele>
        <time>2021-08-21T10:51:53Z</time>
      </trkpt>
      <trkpt lat="2.935386" lon="-75.21117">
        <ele>629.1</ele>
        <time>2021-08-21T10:51:54Z</time>
      </trkpt>
      <trkpt lat="2.935389" lon="-75.211205">
        <ele>629.0</ele>
        <time>2021-08-21T10:51:54Z</time>
      </trkpt>
      <trkpt lat="2.935383" lon="-75.21113">
        <ele>629.3</ele>
        <time>2021-08-21T10:51:56Z</time>
      </trkpt>
      <trkpt lat="2.935381" lon="-75.2111">
        <ele>629.4</ele>
        <time>2021-08-21T10:51:57Z</time>
      </trkpt>
      <trkpt lat="2.935378" lon="-75.21105">
        <ele>629.5</ele>
        <time>2021-08-21T10:51:58Z</time>
      </trkpt>
      <trkpt lat="2.935376" lon="-75.21102">
        <ele>629.7</ele>
        <time>2021-08-21T10:51:59Z</time>
      </trkpt>
      <trkpt lat="2.935374" lon="-75.21098">
        <ele>629.8</ele>
        <time>2021-08-21T10:52:00Z</time>
      </trkpt>
      <trkpt lat="2.935369" lon="-75.21091">
        <ele>630.1</ele>
        <time>2021-08-21T10:52:01Z</time>
      </trkpt>
      <trkpt lat="2.935372" lon="-75.210945">
        <ele>630.0</ele>
        <time>2021-08-21T10:52:01Z</time>
      </trkpt>
      <trkpt lat="2.935366" lon="-75.21086">
        <ele>630.2</ele>
        <time>2021-08-21T10:52:02Z</time>
      </trkpt>
      <trkpt lat="2.935364" lon="-75.21083">
        <ele>630.4</ele>
        <time>2021-08-21T10:52:04Z</time>
      </trkpt>
      <trkpt lat="2.935361" lon="-75.21079">
        <ele>630.5</ele>
        <time>2021-08-21T10:52:05Z</time>
      </trkpt>
      <trkpt lat="2.935359" lon="-75.210754">
        <ele>630.7</ele>
        <time>2021-08-21T10:52:06Z</time>
      </trkpt>
      <trkpt lat="2.935355" lon="-75.21071">
        <ele>630.8</ele>
        <time>2021-08-21T10:52:07Z</time>
      </trkpt>
      <trkpt lat="2.935352" lon="-75.21067">
        <ele>631.0</ele>
        <time>2021-08-21T10:52:08Z</time>
      </trkpt>
      <trkpt lat="2.935346" lon="-75.2106">
        <ele>631.3</ele>
        <time>2021-08-21T10:52:09Z</time>
      </trkpt>
      <trkpt lat="2.935349" lon="-75.21063">
        <ele>631.1</ele>
        <time>2021-08-21T10:52:09Z</time>
      </trkpt>
      <trkpt lat="2.935343" lon="-75.210556">
        <ele>631.4</ele>
        <time>2021-08-21T10:52:10Z</time>
      </trkpt>
      <trkpt lat="2.93534" lon="-75.21052">
        <ele>631.6</ele>
        <time>2021-08-21T10:52:12Z</time>
      </trkpt>
      <trkpt lat="2.935337" lon="-75.21048">
        <ele>631.7</ele>
        <time>2021-08-21T10:52:13Z</time>
      </trkpt>
      <trkpt lat="2.935334" lon="-75.21044">
        <ele>631.9</ele>
        <time>2021-08-21T10:52:14Z</time>
      </trkpt>
      <trkpt lat="2.93533" lon="-75.2104">
        <ele>632.0</ele>
        <time>2021-08-21T10:52:15Z</time>
      </trkpt>
      <trkpt lat="2.935327" lon="-75.21037">
        <ele>632.1</ele>
        <time>2021-08-21T10:52:16Z</time>
      </trkpt>
      <trkpt lat="2.935318" lon="-75.2103">
        <ele>632.4</ele>
        <time>2021-08-21T10:52:17Z</time>
      </trkpt>
      <trkpt lat="2.935323" lon="-75.210335">
        <ele>632.3</ele>
        <time>2021-08-21T10:52:17Z</time>
      </trkpt>
      <trkpt lat="2.935314" lon="-75.21026">
        <ele>632.5</ele>
        <time>2021-08-21T10:52:18Z</time>
      </trkpt>
      <trkpt lat="2.935311" lon="-75.21023">
        <ele>632.7</ele>
        <time>2021-08-21T10:52:20Z</time>
      </trkpt>
      <trkpt lat="2.935307" lon="-75.21019">
        <ele>632.8</ele>
        <time>2021-08-21T10:52:21Z</time>
      </trkpt>
      <trkpt lat="2.935304" lon="-75.21015">
        <ele>633.0</ele>
        <time>2021-08-21T10:52:22Z</time>
      </trkpt>
      <trkpt lat="2.935301" lon="-75.21011">
        <ele>633.1</ele>
        <time>2021-08-21T10:52:23Z</time>
      </trkpt>
      <trkpt lat="2.935296" lon="-75.21004">
        <ele>633.4</ele>
        <time>2021-08-21T10:52:24Z</time>
      </trkpt>
      <trkpt lat="2.935299" lon="-75.210075">
        <ele>633.2</ele>
        <time>2021-08-21T10:52:24Z</time>
      </trkpt>
      <trkpt lat="2.935293" lon="-75.21">
        <ele>633.5</ele>
        <time>2021-08-21T10:52:26Z</time>
      </trkpt>
      <trkpt lat="2.93529" lon="-75.20996">
        <ele>633.6</ele>
        <time>2021-08-21T10:52:27Z</time>
      </trkpt>
      <trkpt lat="2.935286" lon="-75.20992">
        <ele>633.8</ele>
        <time>2021-08-21T10:52:28Z</time>
      </trkpt>
      <trkpt lat="2.935283" lon="-75.209885">
        <ele>633.9</ele>
        <time>2021-08-21T10:52:29Z</time>
      </trkpt>
      <trkpt lat="2.93528" lon="-75.20985">
        <ele>634.0</ele>
        <time>2021-08-21T10:52:30Z</time>
      </trkpt>
      <trkpt lat="2.935274" lon="-75.20977">
        <ele>634.2</ele>
        <time>2021-08-21T10:52:31Z</time>
      </trkpt>
      <trkpt lat="2.935277" lon="-75.20981">
        <ele>634.1</ele>
        <time>2021-08-21T10:52:31Z</time>
      </trkpt>
      <trkpt lat="2.935271" lon="-75.20973">
        <ele>634.4</ele>
        <time>2021-08-21T10:52:32Z</time>
      </trkpt>
      <trkpt lat="2.935268" lon="-75.2097">
        <ele>634.5</ele>
        <time>2021-08-21T10:52:34Z</time>
      </trkpt>
      <trkpt lat="2.935265" lon="-75.20966">
        <ele>634.6</ele>
        <time>2021-08-21T10:52:35Z</time>
      </trkpt>
      <trkpt lat="2.935261" lon="-75.209625">
        <ele>634.7</ele>
        <time>2021-08-21T10:52:36Z</time>
      </trkpt>
      <trkpt lat="2.935258" lon="-75.20958">
        <ele>634.8</ele>
        <time>2021-08-21T10:52:37Z</time>
      </trkpt>
      <trkpt lat="2.935254" lon="-75.20955">
        <ele>634.9</ele>
        <time>2021-08-21T10:52:38Z</time>
      </trkpt>
      <trkpt lat="2.935251" lon="-75.20951">
        <ele>634.9</ele>
        <time>2021-08-21T10:52:39Z</time>
      </trkpt>
      <trkpt lat="2.935247" lon="-75.20947">
        <ele>635.0</ele>
        <time>2021-08-21T10:52:40Z</time>
      </trkpt>
      <trkpt lat="2.935244" lon="-75.20943">
        <ele>635.1</ele>
        <time>2021-08-21T10:52:41Z</time>
      </trkpt>
      <trkpt lat="2.935242" lon="-75.20939">
        <ele>635.2</ele>
        <time>2021-08-21T10:52:42Z</time>
      </trkpt>
      <trkpt lat="2.935239" lon="-75.20934">
        <ele>635.3</ele>
        <time>2021-08-21T10:52:43Z</time>
      </trkpt>
      <trkpt lat="2.935237" lon="-75.209305">
        <ele>635.4</ele>
        <time>2021-08-21T10:52:44Z</time>
      </trkpt>
      <trkpt lat="2.935235" lon="-75.20927">
        <ele>635.5</ele>
        <time>2021-08-21T10:52:45Z</time>
      </trkpt>
      <trkpt lat="2.935233" lon="-75.20923">
        <ele>635.6</ele>
        <time>2021-08-21T10:52:46Z</time>
      </trkpt>
      <trkpt lat="2.935226" lon="-75.209145">
        <ele>635.7</ele>
        <time>2021-08-21T10:52:47Z</time>
      </trkpt>
      <trkpt lat="2.935229" lon="-75.20918">
        <ele>635.7</ele>
        <time>2021-08-21T10:52:47Z</time>
      </trkpt>
      <trkpt lat="2.935222" lon="-75.20911">
        <ele>635.8</ele>
        <time>2021-08-21T10:52:49Z</time>
      </trkpt>
      <trkpt lat="2.935218" lon="-75.20907">
        <ele>635.9</ele>
        <time>2021-08-21T10:52:50Z</time>
      </trkpt>
      <trkpt lat="2.935215" lon="-75.20903">
        <ele>636.0</ele>
        <time>2021-08-21T10:52:51Z</time>
      </trkpt>
      <trkpt lat="2.935212" lon="-75.20899">
        <ele>636.1</ele>
        <time>2021-08-21T10:52:52Z</time>
      </trkpt>
      <trkpt lat="2.935205" lon="-75.208916">
        <ele>636.3</ele>
        <time>2021-08-21T10:52:53Z</time>
      </trkpt>
      <trkpt lat="2.935208" lon="-75.208954">
        <ele>636.2</ele>
        <time>2021-08-21T10:52:53Z</time>
      </trkpt>
      <trkpt lat="2.9352" lon="-75.20888">
        <ele>636.3</ele>
        <time>2021-08-21T10:52:54Z</time>
      </trkpt>
      <trkpt lat="2.935196" lon="-75.20884">
        <ele>636.4</ele>
        <time>2021-08-21T10:52:56Z</time>
      </trkpt>
      <trkpt lat="2.935192" lon="-75.2088">
        <ele>636.5</ele>
        <time>2021-08-21T10:52:57Z</time>
      </trkpt>
      <trkpt lat="2.935187" lon="-75.20876">
        <ele>636.6</ele>
        <time>2021-08-21T10:52:58Z</time>
      </trkpt>
      <trkpt lat="2.935183" lon="-75.208725">
        <ele>636.8</ele>
        <time>2021-08-21T10:52:59Z</time>
      </trkpt>
      <trkpt lat="2.935179" lon="-75.20869">
        <ele>636.9</ele>
        <time>2021-08-21T10:53:00Z</time>
      </trkpt>
      <trkpt lat="2.935175" lon="-75.20865">
        <ele>637.0</ele>
        <time>2021-08-21T10:53:01Z</time>
      </trkpt>
      <trkpt lat="2.935171" lon="-75.2086">
        <ele>637.1</ele>
        <time>2021-08-21T10:53:02Z</time>
      </trkpt>
      <trkpt lat="2.935168" lon="-75.208565">
        <ele>637.2</ele>
        <time>2021-08-21T10:53:03Z</time>
      </trkpt>
      <trkpt lat="2.935164" lon="-75.20853">
        <ele>637.4</ele>
        <time>2021-08-21T10:53:04Z</time>
      </trkpt>
      <trkpt lat="2.93516" lon="-75.20849">
        <ele>637.5</ele>
        <time>2021-08-21T10:53:05Z</time>
      </trkpt>
      <trkpt lat="2.935156" lon="-75.20845">
        <ele>637.6</ele>
        <time>2021-08-21T10:53:06Z</time>
      </trkpt>
      <trkpt lat="2.935152" lon="-75.20841">
        <ele>637.7</ele>
        <time>2021-08-21T10:53:07Z</time>
      </trkpt>
      <trkpt lat="2.935147" lon="-75.208374">
        <ele>637.8</ele>
        <time>2021-08-21T10:53:08Z</time>
      </trkpt>
      <trkpt lat="2.935142" lon="-75.20833">
        <ele>637.9</ele>
        <time>2021-08-21T10:53:09Z</time>
      </trkpt>
      <trkpt lat="2.935134" lon="-75.20826">
        <ele>638.2</ele>
        <time>2021-08-21T10:53:10Z</time>
      </trkpt>
      <trkpt lat="2.935138" lon="-75.2083">
        <ele>638.1</ele>
        <time>2021-08-21T10:53:10Z</time>
      </trkpt>
      <trkpt lat="2.93513" lon="-75.20822">
        <ele>638.3</ele>
        <time>2021-08-21T10:53:11Z</time>
      </trkpt>
      <trkpt lat="2.935127" lon="-75.20818">
        <ele>638.5</ele>
        <time>2021-08-21T10:53:13Z</time>
      </trkpt>
      <trkpt lat="2.935123" lon="-75.208145">
        <ele>638.7</ele>
        <time>2021-08-21T10:53:14Z</time>
      </trkpt>
      <trkpt lat="2.93512" lon="-75.20811">
        <ele>638.8</ele>
        <time>2021-08-21T10:53:15Z</time>
      </trkpt>
      <trkpt lat="2.935117" lon="-75.20807">
        <ele>639.0</ele>
        <time>2021-08-21T10:53:16Z</time>
      </trkpt>
      <trkpt lat="2.935111" lon="-75.208">
        <ele>639.3</ele>
        <time>2021-08-21T10:53:17Z</time>
      </trkpt>
      <trkpt lat="2.935114" lon="-75.20804">
        <ele>639.1</ele>
        <time>2021-08-21T10:53:17Z</time>
      </trkpt>
      <trkpt lat="2.935109" lon="-75.20796">
        <ele>639.5</ele>
        <time>2021-08-21T10:53:19Z</time>
      </trkpt>
      <trkpt lat="2.935108" lon="-75.20793">
        <ele>639.6</ele>
        <time>2021-08-21T10:53:20Z</time>
      </trkpt>
      <trkpt lat="2.935106" lon="-75.2079">
        <ele>639.7</ele>
        <time>2021-08-21T10:53:21Z</time>
      </trkpt>
      <trkpt lat="2.935105" lon="-75.20786">
        <ele>639.9</ele>
        <time>2021-08-21T10:53:22Z</time>
      </trkpt>
      <trkpt lat="2.935102" lon="-75.207794">
        <ele>640.2</ele>
        <time>2021-08-21T10:53:23Z</time>
      </trkpt>
      <trkpt lat="2.935103" lon="-75.20783">
        <ele>640.0</ele>
        <time>2021-08-21T10:53:23Z</time>
      </trkpt>
      <trkpt lat="2.935101" lon="-75.20776">
        <ele>640.3</ele>
        <time>2021-08-21T10:53:24Z</time>
      </trkpt>
      <trkpt lat="2.9351" lon="-75.207726">
        <ele>640.5</ele>
        <time>2021-08-21T10:53:25Z</time>
      </trkpt>
      <trkpt lat="2.935099" lon="-75.20769">
        <ele>640.7</ele>
        <time>2021-08-21T10:53:27Z</time>
      </trkpt>
      <trkpt lat="2.935099" lon="-75.20766">
        <ele>640.8</ele>
        <time>2021-08-21T10:53:28Z</time>
      </trkpt>
      <trkpt lat="2.9351" lon="-75.20762">
        <ele>641.0</ele>
        <time>2021-08-21T10:53:29Z</time>
      </trkpt>
      <trkpt lat="2.935101" lon="-75.20758">
        <ele>641.2</ele>
        <time>2021-08-21T10:53:30Z</time>
      </trkpt>
      <trkpt lat="2.935102" lon="-75.20755">
        <ele>641.4</ele>
        <time>2021-08-21T10:53:31Z</time>
      </trkpt>
      <trkpt lat="2.935104" lon="-75.20751">
        <ele>641.6</ele>
        <time>2021-08-21T10:53:32Z</time>
      </trkpt>
      <trkpt lat="2.935107" lon="-75.20747">
        <ele>641.8</ele>
        <time>2021-08-21T10:53:33Z</time>
      </trkpt>
      <trkpt lat="2.935109" lon="-75.20744">
        <ele>641.9</ele>
        <time>2021-08-21T10:53:34Z</time>
      </trkpt>
      <trkpt lat="2.935112" lon="-75.207405">
        <ele>642.1</ele>
        <time>2021-08-21T10:53:35Z</time>
      </trkpt>
      <trkpt lat="2.935114" lon="-75.207375">
        <ele>642.3</ele>
        <time>2021-08-21T10:53:36Z</time>
      </trkpt>
      <trkpt lat="2.935118" lon="-75.207344">
        <ele>642.5</ele>
        <time>2021-08-21T10:53:37Z</time>
      </trkpt>
      <trkpt lat="2.935121" lon="-75.20731">
        <ele>642.7</ele>
        <time>2021-08-21T10:53:38Z</time>
      </trkpt>
      <trkpt lat="2.935125" lon="-75.207275">
        <ele>642.9</ele>
        <time>2021-08-21T10:53:39Z</time>
      </trkpt>
      <trkpt lat="2.935128" lon="-75.207245">
        <ele>643.1</ele>
        <time>2021-08-21T10:53:39Z</time>
      </trkpt>
      <trkpt lat="2.935131" lon="-75.207214">
        <ele>643.3</ele>
        <time>2021-08-21T10:53:40Z</time>
      </trkpt>
      <trkpt lat="2.935135" lon="-75.207184">
        <ele>643.5</ele>
        <time>2021-08-21T10:53:42Z</time>
      </trkpt>
      <trkpt lat="2.935139" lon="-75.20715">
        <ele>643.7</ele>
        <time>2021-08-21T10:53:43Z</time>
      </trkpt>
      <trkpt lat="2.935143" lon="-75.20712">
        <ele>643.9</ele>
        <time>2021-08-21T10:53:44Z</time>
      </trkpt>
      <trkpt lat="2.935147" lon="-75.20709">
        <ele>644.1</ele>
        <time>2021-08-21T10:53:45Z</time>
      </trkpt>
      <trkpt lat="2.935152" lon="-75.20706">
        <ele>644.3</ele>
        <time>2021-08-21T10:53:46Z</time>
      </trkpt>
      <trkpt lat="2.935156" lon="-75.20702">
        <ele>644.5</ele>
        <time>2021-08-21T10:53:47Z</time>
      </trkpt>
      <trkpt lat="2.93516" lon="-75.20699">
        <ele>644.7</ele>
        <time>2021-08-21T10:53:48Z</time>
      </trkpt>
      <trkpt lat="2.935164" lon="-75.20697">
        <ele>644.9</ele>
        <time>2021-08-21T10:53:48Z</time>
      </trkpt>
      <trkpt lat="2.935168" lon="-75.20694">
        <ele>645.1</ele>
        <time>2021-08-21T10:53:50Z</time>
      </trkpt>
      <trkpt lat="2.935172" lon="-75.20691">
        <ele>645.2</ele>
        <time>2021-08-21T10:53:51Z</time>
      </trkpt>
      <trkpt lat="2.935176" lon="-75.20688">
        <ele>645.4</ele>
        <time>2021-08-21T10:53:52Z</time>
      </trkpt>
      <trkpt lat="2.935181" lon="-75.206856">
        <ele>645.5</ele>
        <time>2021-08-21T10:53:53Z</time>
      </trkpt>
      <trkpt lat="2.935185" lon="-75.206825">
        <ele>645.6</ele>
        <time>2021-08-21T10:53:53Z</time>
      </trkpt>
      <trkpt lat="2.935189" lon="-75.206795">
        <ele>645.7</ele>
        <time>2021-08-21T10:53:55Z</time>
      </trkpt>
      <trkpt lat="2.935193" lon="-75.206764">
        <ele>645.8</ele>
        <time>2021-08-21T10:53:56Z</time>
      </trkpt>
      <trkpt lat="2.935196" lon="-75.20673">
        <ele>645.9</ele>
        <time>2021-08-21T10:53:57Z</time>
      </trkpt>
      <trkpt lat="2.9352" lon="-75.2067">
        <ele>645.9</ele>
        <time>2021-08-21T10:53:58Z</time>
      </trkpt>
      <trkpt lat="2.935204" lon="-75.20667">
        <ele>645.9</ele>
        <time>2021-08-21T10:53:59Z</time>
      </trkpt>
      <trkpt lat="2.935209" lon="-75.20664">
        <ele>645.9</ele>
        <time>2021-08-21T10:54:00Z</time>
      </trkpt>
      <trkpt lat="2.935213" lon="-75.20661">
        <ele>645.8</ele>
        <time>2021-08-21T10:54:01Z</time>
      </trkpt>
      <trkpt lat="2.935217" lon="-75.20657">
        <ele>645.7</ele>
        <time>2021-08-21T10:54:02Z</time>
      </trkpt>
      <trkpt lat="2.93522" lon="-75.20654">
        <ele>645.6</ele>
        <time>2021-08-21T10:54:02Z</time>
      </trkpt>
      <trkpt lat="2.935221" lon="-75.206505">
        <ele>645.5</ele>
        <time>2021-08-21T10:54:04Z</time>
      </trkpt>
      <trkpt lat="2.935222" lon="-75.20647">
        <ele>645.3</ele>
        <time>2021-08-21T10:54:05Z</time>
      </trkpt>
      <trkpt lat="2.93522" lon="-75.20642">
        <ele>645.0</ele>
        <time>2021-08-21T10:54:06Z</time>
      </trkpt>
      <trkpt lat="2.935215" lon="-75.206375">
        <ele>644.7</ele>
        <time>2021-08-21T10:54:07Z</time>
      </trkpt>
      <trkpt lat="2.935207" lon="-75.20633">
        <ele>644.2</ele>
        <time>2021-08-21T10:54:08Z</time>
      </trkpt>
      <trkpt lat="2.935185" lon="-75.206215">
        <ele>643.1</ele>
        <time>2021-08-21T10:54:09Z</time>
      </trkpt>
      <trkpt lat="2.935197" lon="-75.206276">
        <ele>643.7</ele>
        <time>2021-08-21T10:54:09Z</time>
      </trkpt>
      <trkpt lat="2.935172" lon="-75.206154">
        <ele>642.4</ele>
        <time>2021-08-21T10:54:10Z</time>
      </trkpt>
      <trkpt lat="2.935161" lon="-75.206085">
        <ele>641.8</ele>
        <time>2021-08-21T10:54:12Z</time>
      </trkpt>
      <trkpt lat="2.935153" lon="-75.206024">
        <ele>641.2</ele>
        <time>2021-08-21T10:54:13Z</time>
      </trkpt>
      <trkpt lat="2.935149" lon="-75.205956">
        <ele>640.6</ele>
        <time>2021-08-21T10:54:14Z</time>
      </trkpt>
      <trkpt lat="2.935151" lon="-75.20589">
        <ele>640.0</ele>
        <time>2021-08-21T10:54:15Z</time>
      </trkpt>
      <trkpt lat="2.93516" lon="-75.20582">
        <ele>639.4</ele>
        <time>2021-08-21T10:54:16Z</time>
      </trkpt>
      <trkpt lat="2.935174" lon="-75.20576">
        <ele>638.9</ele>
        <time>2021-08-21T10:54:17Z</time>
      </trkpt>
      <trkpt lat="2.935193" lon="-75.20569">
        <ele>638.3</ele>
        <time>2021-08-21T10:54:17Z</time>
      </trkpt>
      <trkpt lat="2.935216" lon="-75.20562">
        <ele>637.6</ele>
        <time>2021-08-21T10:54:19Z</time>
      </trkpt>
      <trkpt lat="2.93524" lon="-75.20555">
        <ele>636.8</ele>
        <time>2021-08-21T10:54:20Z</time>
      </trkpt>
      <trkpt lat="2.935264" lon="-75.205475">
        <ele>636.0</ele>
        <time>2021-08-21T10:54:21Z</time>
      </trkpt>
      <trkpt lat="2.935288" lon="-75.20539">
        <ele>635.0</ele>
        <time>2021-08-21T10:54:22Z</time>
      </trkpt>
      <trkpt lat="2.935312" lon="-75.20531">
        <ele>633.9</ele>
        <time>2021-08-21T10:54:23Z</time>
      </trkpt>
      <trkpt lat="2.935336" lon="-75.20522">
        <ele>633.0</ele>
        <time>2021-08-21T10:54:23Z</time>
      </trkpt>
      <trkpt lat="2.935363" lon="-75.20514">
        <ele>632.1</ele>
        <time>2021-08-21T10:54:24Z</time>
      </trkpt>
      <trkpt lat="2.935393" lon="-75.20505">
        <ele>631.3</ele>
        <time>2021-08-21T10:54:26Z</time>
      </trkpt>
      <trkpt lat="2.935426" lon="-75.20496">
        <ele>630.7</ele>
        <time>2021-08-21T10:54:26Z</time>
      </trkpt>
      <trkpt lat="2.935464" lon="-75.20488">
        <ele>630.2</ele>
        <time>2021-08-21T10:54:28Z</time>
      </trkpt>
      <trkpt lat="2.935505" lon="-75.204796">
        <ele>629.9</ele>
        <time>2021-08-21T10:54:29Z</time>
      </trkpt>
      <trkpt lat="2.935548" lon="-75.20472">
        <ele>629.6</ele>
        <time>2021-08-21T10:54:30Z</time>
      </trkpt>
      <trkpt lat="2.935593" lon="-75.204636">
        <ele>629.3</ele>
        <time>2021-08-21T10:54:31Z</time>
      </trkpt>
      <trkpt lat="2.935639" lon="-75.20456">
        <ele>629.0</ele>
        <time>2021-08-21T10:54:32Z</time>
      </trkpt>
      <trkpt lat="2.935685" lon="-75.20448">
        <ele>628.6</ele>
        <time>2021-08-21T10:54:32Z</time>
      </trkpt>
      <trkpt lat="2.935732" lon="-75.20441">
        <ele>628.1</ele>
        <time>2021-08-21T10:54:34Z</time>
      </trkpt>
      <trkpt lat="2.93578" lon="-75.20432">
        <ele>627.5</ele>
        <time>2021-08-21T10:54:34Z</time>
      </trkpt>
      <trkpt lat="2.93583" lon="-75.20425">
        <ele>626.7</ele>
        <time>2021-08-21T10:54:36Z</time>
      </trkpt>
      <trkpt lat="2.935883" lon="-75.20417">
        <ele>625.7</ele>
        <time>2021-08-21T10:54:37Z</time>
      </trkpt>
      <trkpt lat="2.93594" lon="-75.20409">
        <ele>624.6</ele>
        <time>2021-08-21T10:54:38Z</time>
      </trkpt>
      <trkpt lat="2.936001" lon="-75.204">
        <ele>623.5</ele>
        <time>2021-08-21T10:54:39Z</time>
      </trkpt>
      <trkpt lat="2.936066" lon="-75.203926">
        <ele>622.2</ele>
        <time>2021-08-21T10:54:40Z</time>
      </trkpt>
      <trkpt lat="2.936134" lon="-75.20384">
        <ele>621.0</ele>
        <time>2021-08-21T10:54:40Z</time>
      </trkpt>
      <trkpt lat="2.936204" lon="-75.20376">
        <ele>619.7</ele>
        <time>2021-08-21T10:54:42Z</time>
      </trkpt>
      <trkpt lat="2.936276" lon="-75.20367">
        <ele>618.5</ele>
        <time>2021-08-21T10:54:43Z</time>
      </trkpt>
      <trkpt lat="2.936354" lon="-75.203575">
        <ele>617.4</ele>
        <time>2021-08-21T10:54:44Z</time>
      </trkpt>
      <trkpt lat="2.936428" lon="-75.20348">
        <ele>616.3</ele>
        <time>2021-08-21T10:54:45Z</time>
      </trkpt>
      <trkpt lat="2.9365" lon="-75.203384">
        <ele>615.3</ele>
        <time>2021-08-21T10:54:46Z</time>
      </trkpt>
      <trkpt lat="2.936569" lon="-75.203285">
        <ele>614.3</ele>
        <time>2021-08-21T10:54:47Z</time>
      </trkpt>
      <trkpt lat="2.936634" lon="-75.20318">
        <ele>613.2</ele>
        <time>2021-08-21T10:54:48Z</time>
      </trkpt>
      <trkpt lat="2.936698" lon="-75.20308">
        <ele>612.2</ele>
        <time>2021-08-21T10:54:48Z</time>
      </trkpt>
      <trkpt lat="2.936758" lon="-75.20298">
        <ele>611.2</ele>
        <time>2021-08-21T10:54:50Z</time>
      </trkpt>
      <trkpt lat="2.936825" lon="-75.20287">
        <ele>610.6</ele>
        <time>2021-08-21T10:54:51Z</time>
      </trkpt>
      <trkpt lat="2.936896" lon="-75.20277">
        <ele>610.2</ele>
        <time>2021-08-21T10:54:52Z</time>
      </trkpt>
      <trkpt lat="2.936969" lon="-75.20267">
        <ele>609.2</ele>
        <time>2021-08-21T10:54:53Z</time>
      </trkpt>
      <trkpt lat="2.937045" lon="-75.202576">
        <ele>608.4</ele>
        <time>2021-08-21T10:54:54Z</time>
      </trkpt>
      <trkpt lat="2.937123" lon="-75.20248">
        <ele>607.6</ele>
        <time>2021-08-21T10:54:54Z</time>
      </trkpt>
      <trkpt lat="2.937176" lon="-75.202415">
        <ele>607.2</ele>
        <time>2021-08-21T10:54:55Z</time>
      </trkpt>
      <trkpt lat="2.937282" lon="-75.20229">
        <ele>606.5</ele>
        <time>2021-08-21T10:54:57Z</time>
      </trkpt>
      <trkpt lat="2.93736" lon="-75.20221">
        <ele>606.2</ele>
        <time>2021-08-21T10:54:58Z</time>
      </trkpt>
      <trkpt lat="2.937435" lon="-75.20212">
        <ele>605.9</ele>
        <time>2021-08-21T10:54:59Z</time>
      </trkpt>
      <trkpt lat="2.937506" lon="-75.202034">
        <ele>605.8</ele>
        <time>2021-08-21T10:55:00Z</time>
      </trkpt>
      <trkpt lat="2.937572" lon="-75.20194">
        <ele>605.8</ele>
        <time>2021-08-21T10:55:01Z</time>
      </trkpt>
      <trkpt lat="2.937631" lon="-75.20186">
        <ele>605.8</ele>
        <time>2021-08-21T10:55:01Z</time>
      </trkpt>
      <trkpt lat="2.93768" lon="-75.20178">
        <ele>605.8</ele>
        <time>2021-08-21T10:55:02Z</time>
      </trkpt>
      <trkpt lat="2.937725" lon="-75.2017">
        <ele>606.0</ele>
        <time>2021-08-21T10:55:04Z</time>
      </trkpt>
      <trkpt lat="2.937763" lon="-75.201614">
        <ele>606.2</ele>
        <time>2021-08-21T10:55:05Z</time>
      </trkpt>
      <trkpt lat="2.937794" lon="-75.20153">
        <ele>606.5</ele>
        <time>2021-08-21T10:55:05Z</time>
      </trkpt>
      <trkpt lat="2.93782" lon="-75.201454">
        <ele>606.7</ele>
        <time>2021-08-21T10:55:07Z</time>
      </trkpt>
      <trkpt lat="2.937843" lon="-75.20138">
        <ele>606.9</ele>
        <time>2021-08-21T10:55:08Z</time>
      </trkpt>
      <trkpt lat="2.937863" lon="-75.20131">
        <ele>606.9</ele>
        <time>2021-08-21T10:55:09Z</time>
      </trkpt>
      <trkpt lat="2.937881" lon="-75.20123">
        <ele>607.0</ele>
        <time>2021-08-21T10:55:09Z</time>
      </trkpt>
      <trkpt lat="2.937901" lon="-75.201164">
        <ele>607.0</ele>
        <time>2021-08-21T10:55:11Z</time>
      </trkpt>
      <trkpt lat="2.93792" lon="-75.20109">
        <ele>606.9</ele>
        <time>2021-08-21T10:55:12Z</time>
      </trkpt>
      <trkpt lat="2.937939" lon="-75.20101">
        <ele>606.9</ele>
        <time>2021-08-21T10:55:13Z</time>
      </trkpt>
      <trkpt lat="2.937956" lon="-75.20094">
        <ele>606.9</ele>
        <time>2021-08-21T10:55:14Z</time>
      </trkpt>
      <trkpt lat="2.937973" lon="-75.200874">
        <ele>606.9</ele>
        <time>2021-08-21T10:55:15Z</time>
      </trkpt>
      <trkpt lat="2.937987" lon="-75.2008">
        <ele>607.0</ele>
        <time>2021-08-21T10:55:16Z</time>
      </trkpt>
      <trkpt lat="2.938001" lon="-75.20073">
        <ele>607.1</ele>
        <time>2021-08-21T10:55:17Z</time>
      </trkpt>
      <trkpt lat="2.938014" lon="-75.20066">
        <ele>607.3</ele>
        <time>2021-08-21T10:55:18Z</time>
      </trkpt>
      <trkpt lat="2.938026" lon="-75.200584">
        <ele>607.5</ele>
        <time>2021-08-21T10:55:19Z</time>
      </trkpt>
      <trkpt lat="2.938036" lon="-75.20052">
        <ele>607.7</ele>
        <time>2021-08-21T10:55:20Z</time>
      </trkpt>
      <trkpt lat="2.938045" lon="-75.20046">
        <ele>607.9</ele>
        <time>2021-08-21T10:55:21Z</time>
      </trkpt>
      <trkpt lat="2.938053" lon="-75.2004">
        <ele>608.1</ele>
        <time>2021-08-21T10:55:22Z</time>
      </trkpt>
      <trkpt lat="2.93806" lon="-75.20034">
        <ele>608.3</ele>
        <time>2021-08-21T10:55:23Z</time>
      </trkpt>
      <trkpt lat="2.938066" lon="-75.20029">
        <ele>608.5</ele>
        <time>2021-08-21T10:55:23Z</time>
      </trkpt>
      <trkpt lat="2.938071" lon="-75.20023">
        <ele>608.6</ele>
        <time>2021-08-21T10:55:24Z</time>
      </trkpt>
      <trkpt lat="2.938075" lon="-75.20018">
        <ele>608.8</ele>
        <time>2021-08-21T10:55:25Z</time>
      </trkpt>
      <trkpt lat="2.938078" lon="-75.200134">
        <ele>609.0</ele>
        <time>2021-08-21T10:55:26Z</time>
      </trkpt>
      <trkpt lat="2.93808" lon="-75.20008">
        <ele>609.1</ele>
        <time>2021-08-21T10:55:27Z</time>
      </trkpt>
      <trkpt lat="2.938081" lon="-75.200035">
        <ele>609.3</ele>
        <time>2021-08-21T10:55:28Z</time>
      </trkpt>
      <trkpt lat="2.938083" lon="-75.19999">
        <ele>609.5</ele>
        <time>2021-08-21T10:55:29Z</time>
      </trkpt>
      <trkpt lat="2.938084" lon="-75.19994">
        <ele>609.6</ele>
        <time>2021-08-21T10:55:30Z</time>
      </trkpt>
      <trkpt lat="2.938084" lon="-75.199905">
        <ele>609.8</ele>
        <time>2021-08-21T10:55:31Z</time>
      </trkpt>
      <trkpt lat="2.938084" lon="-75.19986">
        <ele>609.9</ele>
        <time>2021-08-21T10:55:32Z</time>
      </trkpt>
      <trkpt lat="2.938084" lon="-75.199814">
        <ele>610.1</ele>
        <time>2021-08-21T10:55:33Z</time>
      </trkpt>
      <trkpt lat="2.938083" lon="-75.199776">
        <ele>610.2</ele>
        <time>2021-08-21T10:55:34Z</time>
      </trkpt>
      <trkpt lat="2.938082" lon="-75.19974">
        <ele>610.4</ele>
        <time>2021-08-21T10:55:35Z</time>
      </trkpt>
      <trkpt lat="2.938079" lon="-75.19969">
        <ele>610.5</ele>
        <time>2021-08-21T10:55:36Z</time>
      </trkpt>
      <trkpt lat="2.938076" lon="-75.19965">
        <ele>610.7</ele>
        <time>2021-08-21T10:55:37Z</time>
      </trkpt>
      <trkpt lat="2.938072" lon="-75.19961">
        <ele>610.8</ele>
        <time>2021-08-21T10:55:38Z</time>
      </trkpt>
      <trkpt lat="2.938067" lon="-75.19957">
        <ele>611.0</ele>
        <time>2021-08-21T10:55:39Z</time>
      </trkpt>
      <trkpt lat="2.938063" lon="-75.19953">
        <ele>611.1</ele>
        <time>2021-08-21T10:55:40Z</time>
      </trkpt>
      <trkpt lat="2.938059" lon="-75.199486">
        <ele>611.3</ele>
        <time>2021-08-21T10:55:41Z</time>
      </trkpt>
      <trkpt lat="2.938053" lon="-75.19945">
        <ele>611.4</ele>
        <time>2021-08-21T10:55:42Z</time>
      </trkpt>
      <trkpt lat="2.938046" lon="-75.19941">
        <ele>611.5</ele>
        <time>2021-08-21T10:55:43Z</time>
      </trkpt>
      <trkpt lat="2.938039" lon="-75.19936">
        <ele>611.7</ele>
        <time>2021-08-21T10:55:44Z</time>
      </trkpt>
      <trkpt lat="2.938032" lon="-75.199326">
        <ele>611.8</ele>
        <time>2021-08-21T10:55:45Z</time>
      </trkpt>
      <trkpt lat="2.938025" lon="-75.19929">
        <ele>611.9</ele>
        <time>2021-08-21T10:55:46Z</time>
      </trkpt>
      <trkpt lat="2.938017" lon="-75.19925">
        <ele>612.0</ele>
        <time>2021-08-21T10:55:47Z</time>
      </trkpt>
      <trkpt lat="2.938009" lon="-75.19922">
        <ele>612.1</ele>
        <time>2021-08-21T10:55:48Z</time>
      </trkpt>
      <trkpt lat="2.938" lon="-75.19918">
        <ele>612.2</ele>
        <time>2021-08-21T10:55:49Z</time>
      </trkpt>
      <trkpt lat="2.937991" lon="-75.19914">
        <ele>612.4</ele>
        <time>2021-08-21T10:55:50Z</time>
      </trkpt>
      <trkpt lat="2.937981" lon="-75.199104">
        <ele>612.5</ele>
        <time>2021-08-21T10:55:51Z</time>
      </trkpt>
      <trkpt lat="2.937971" lon="-75.199066">
        <ele>612.6</ele>
        <time>2021-08-21T10:55:52Z</time>
      </trkpt>
      <trkpt lat="2.93795" lon="-75.19899">
        <ele>612.8</ele>
        <time>2021-08-21T10:55:53Z</time>
      </trkpt>
      <trkpt lat="2.937961" lon="-75.19903">
        <ele>612.7</ele>
        <time>2021-08-21T10:55:53Z</time>
      </trkpt>
      <trkpt lat="2.937938" lon="-75.19895">
        <ele>612.9</ele>
        <time>2021-08-21T10:55:55Z</time>
      </trkpt>
      <trkpt lat="2.937926" lon="-75.19891">
        <ele>613.0</ele>
        <time>2021-08-21T10:55:56Z</time>
      </trkpt>
      <trkpt lat="2.937912" lon="-75.198875">
        <ele>613.1</ele>
        <time>2021-08-21T10:55:57Z</time>
      </trkpt>
      <trkpt lat="2.937898" lon="-75.19884">
        <ele>613.2</ele>
        <time>2021-08-21T10:55:58Z</time>
      </trkpt>
      <trkpt lat="2.937884" lon="-75.1988">
        <ele>613.3</ele>
        <time>2021-08-21T10:55:59Z</time>
      </trkpt>
      <trkpt lat="2.93787" lon="-75.19876">
        <ele>613.4</ele>
        <time>2021-08-21T10:56:00Z</time>
      </trkpt>
      <trkpt lat="2.937855" lon="-75.19872">
        <ele>613.5</ele>
        <time>2021-08-21T10:56:01Z</time>
      </trkpt>
      <trkpt lat="2.937839" lon="-75.19868">
        <ele>613.6</ele>
        <time>2021-08-21T10:56:02Z</time>
      </trkpt>
      <trkpt lat="2.937824" lon="-75.19864">
        <ele>613.7</ele>
        <time>2021-08-21T10:56:03Z</time>
      </trkpt>
      <trkpt lat="2.937809" lon="-75.1986">
        <ele>613.8</ele>
        <time>2021-08-21T10:56:04Z</time>
      </trkpt>
      <trkpt lat="2.937794" lon="-75.19856">
        <ele>613.9</ele>
        <time>2021-08-21T10:56:05Z</time>
      </trkpt>
      <trkpt lat="2.937778" lon="-75.198524">
        <ele>614.0</ele>
        <time>2021-08-21T10:56:06Z</time>
      </trkpt>
      <trkpt lat="2.937761" lon="-75.19849">
        <ele>614.1</ele>
        <time>2021-08-21T10:56:07Z</time>
      </trkpt>
      <trkpt lat="2.937746" lon="-75.19845">
        <ele>614.2</ele>
        <time>2021-08-21T10:56:08Z</time>
      </trkpt>
      <trkpt lat="2.937729" lon="-75.19841">
        <ele>614.3</ele>
        <time>2021-08-21T10:56:09Z</time>
      </trkpt>
      <trkpt lat="2.937712" lon="-75.19837">
        <ele>614.4</ele>
        <time>2021-08-21T10:56:10Z</time>
      </trkpt>
      <trkpt lat="2.937695" lon="-75.19833">
        <ele>614.5</ele>
        <time>2021-08-21T10:56:11Z</time>
      </trkpt>
      <trkpt lat="2.93768" lon="-75.198296">
        <ele>614.5</ele>
        <time>2021-08-21T10:56:12Z</time>
      </trkpt>
      <trkpt lat="2.937665" lon="-75.19826">
        <ele>614.6</ele>
        <time>2021-08-21T10:56:13Z</time>
      </trkpt>
      <trkpt lat="2.937648" lon="-75.19821">
        <ele>614.8</ele>
        <time>2021-08-21T10:56:14Z</time>
      </trkpt>
      <trkpt lat="2.937631" lon="-75.19817">
        <ele>614.9</ele>
        <time>2021-08-21T10:56:15Z</time>
      </trkpt>
      <trkpt lat="2.937615" lon="-75.198135">
        <ele>615.0</ele>
        <time>2021-08-21T10:56:16Z</time>
      </trkpt>
      <trkpt lat="2.937599" lon="-75.1981">
        <ele>615.1</ele>
        <time>2021-08-21T10:56:17Z</time>
      </trkpt>
      <trkpt lat="2.937584" lon="-75.19806">
        <ele>615.2</ele>
        <time>2021-08-21T10:56:18Z</time>
      </trkpt>
      <trkpt lat="2.937568" lon="-75.19802">
        <ele>615.3</ele>
        <time>2021-08-21T10:56:19Z</time>
      </trkpt>
      <trkpt lat="2.937553" lon="-75.19798">
        <ele>615.4</ele>
        <time>2021-08-21T10:56:20Z</time>
      </trkpt>
      <trkpt lat="2.93754" lon="-75.197945">
        <ele>615.5</ele>
        <time>2021-08-21T10:56:21Z</time>
      </trkpt>
      <trkpt lat="2.937525" lon="-75.19791">
        <ele>615.6</ele>
        <time>2021-08-21T10:56:22Z</time>
      </trkpt>
      <trkpt lat="2.937498" lon="-75.19783">
        <ele>615.8</ele>
        <time>2021-08-21T10:56:23Z</time>
      </trkpt>
      <trkpt lat="2.937512" lon="-75.19787">
        <ele>615.7</ele>
        <time>2021-08-21T10:56:23Z</time>
      </trkpt>
      <trkpt lat="2.937485" lon="-75.19779">
        <ele>615.9</ele>
        <time>2021-08-21T10:56:25Z</time>
      </trkpt>
      <trkpt lat="2.937472" lon="-75.197754">
        <ele>616.0</ele>
        <time>2021-08-21T10:56:26Z</time>
      </trkpt>
      <trkpt lat="2.93746" lon="-75.197716">
        <ele>616.2</ele>
        <time>2021-08-21T10:56:27Z</time>
      </trkpt>
      <trkpt lat="2.937449" lon="-75.19768">
        <ele>616.3</ele>
        <time>2021-08-21T10:56:28Z</time>
      </trkpt>
      <trkpt lat="2.937437" lon="-75.19764">
        <ele>616.4</ele>
        <time>2021-08-21T10:56:29Z</time>
      </trkpt>
      <trkpt lat="2.937428" lon="-75.1976">
        <ele>616.5</ele>
        <time>2021-08-21T10:56:30Z</time>
      </trkpt>
      <trkpt lat="2.937419" lon="-75.197556">
        <ele>616.6</ele>
        <time>2021-08-21T10:56:31Z</time>
      </trkpt>
      <trkpt lat="2.937411" lon="-75.19752">
        <ele>616.7</ele>
        <time>2021-08-21T10:56:32Z</time>
      </trkpt>
      <trkpt lat="2.937403" lon="-75.19747">
        <ele>616.8</ele>
        <time>2021-08-21T10:56:33Z</time>
      </trkpt>
      <trkpt lat="2.937397" lon="-75.19743">
        <ele>616.9</ele>
        <time>2021-08-21T10:56:34Z</time>
      </trkpt>
      <trkpt lat="2.937392" lon="-75.19739">
        <ele>617.1</ele>
        <time>2021-08-21T10:56:35Z</time>
      </trkpt>
      <trkpt lat="2.937388" lon="-75.19735">
        <ele>617.2</ele>
        <time>2021-08-21T10:56:36Z</time>
      </trkpt>
      <trkpt lat="2.937385" lon="-75.19731">
        <ele>617.3</ele>
        <time>2021-08-21T10:56:37Z</time>
      </trkpt>
      <trkpt lat="2.937382" lon="-75.197266">
        <ele>617.4</ele>
        <time>2021-08-21T10:56:38Z</time>
      </trkpt>
      <trkpt lat="2.937381" lon="-75.19723">
        <ele>617.6</ele>
        <time>2021-08-21T10:56:39Z</time>
      </trkpt>
      <trkpt lat="2.937381" lon="-75.19718">
        <ele>617.7</ele>
        <time>2021-08-21T10:56:40Z</time>
      </trkpt>
      <trkpt lat="2.937381" lon="-75.19714">
        <ele>617.8</ele>
        <time>2021-08-21T10:56:41Z</time>
      </trkpt>
      <trkpt lat="2.937382" lon="-75.197105">
        <ele>617.9</ele>
        <time>2021-08-21T10:56:42Z</time>
      </trkpt>
      <trkpt lat="2.937383" lon="-75.19706">
        <ele>618.0</ele>
        <time>2021-08-21T10:56:43Z</time>
      </trkpt>
      <trkpt lat="2.937385" lon="-75.19702">
        <ele>618.1</ele>
        <time>2021-08-21T10:56:44Z</time>
      </trkpt>
      <trkpt lat="2.937386" lon="-75.196976">
        <ele>618.2</ele>
        <time>2021-08-21T10:56:45Z</time>
      </trkpt>
      <trkpt lat="2.937388" lon="-75.19694">
        <ele>618.3</ele>
        <time>2021-08-21T10:56:46Z</time>
      </trkpt>
      <trkpt lat="2.937391" lon="-75.19689">
        <ele>618.4</ele>
        <time>2021-08-21T10:56:47Z</time>
      </trkpt>
      <trkpt lat="2.937393" lon="-75.196846">
        <ele>618.5</ele>
        <time>2021-08-21T10:56:48Z</time>
      </trkpt>
      <trkpt lat="2.937396" lon="-75.1968">
        <ele>618.6</ele>
        <time>2021-08-21T10:56:49Z</time>
      </trkpt>
      <trkpt lat="2.937399" lon="-75.19676">
        <ele>618.7</ele>
        <time>2021-08-21T10:56:50Z</time>
      </trkpt>
      <trkpt lat="2.937402" lon="-75.196724">
        <ele>618.8</ele>
        <time>2021-08-21T10:56:51Z</time>
      </trkpt>
      <trkpt lat="2.937404" lon="-75.19668">
        <ele>618.9</ele>
        <time>2021-08-21T10:56:52Z</time>
      </trkpt>
      <trkpt lat="2.937408" lon="-75.19664">
        <ele>618.9</ele>
        <time>2021-08-21T10:56:53Z</time>
      </trkpt>
      <trkpt lat="2.93741" lon="-75.196594">
        <ele>618.9</ele>
        <time>2021-08-21T10:56:54Z</time>
      </trkpt>
      <trkpt lat="2.937413" lon="-75.196556">
        <ele>618.9</ele>
        <time>2021-08-21T10:56:55Z</time>
      </trkpt>
      <trkpt lat="2.937416" lon="-75.19651">
        <ele>618.9</ele>
        <time>2021-08-21T10:56:56Z</time>
      </trkpt>
      <trkpt lat="2.937419" lon="-75.19647">
        <ele>618.8</ele>
        <time>2021-08-21T10:56:57Z</time>
      </trkpt>
      <trkpt lat="2.937422" lon="-75.19643">
        <ele>618.7</ele>
        <time>2021-08-21T10:56:58Z</time>
      </trkpt>
      <trkpt lat="2.937425" lon="-75.19639">
        <ele>618.6</ele>
        <time>2021-08-21T10:56:59Z</time>
      </trkpt>
      <trkpt lat="2.937428" lon="-75.19634">
        <ele>618.4</ele>
        <time>2021-08-21T10:57:00Z</time>
      </trkpt>
      <trkpt lat="2.937432" lon="-75.19629">
        <ele>618.2</ele>
        <time>2021-08-21T10:57:01Z</time>
      </trkpt>
      <trkpt lat="2.937435" lon="-75.19624">
        <ele>617.8</ele>
        <time>2021-08-21T10:57:02Z</time>
      </trkpt>
      <trkpt lat="2.937439" lon="-75.19618">
        <ele>617.5</ele>
        <time>2021-08-21T10:57:03Z</time>
      </trkpt>
      <trkpt lat="2.937442" lon="-75.19613">
        <ele>617.0</ele>
        <time>2021-08-21T10:57:04Z</time>
      </trkpt>
      <trkpt lat="2.937446" lon="-75.19606">
        <ele>616.4</ele>
        <time>2021-08-21T10:57:05Z</time>
      </trkpt>
      <trkpt lat="2.937449" lon="-75.19599">
        <ele>615.8</ele>
        <time>2021-08-21T10:57:06Z</time>
      </trkpt>
      <trkpt lat="2.93745" lon="-75.195915">
        <ele>615.1</ele>
        <time>2021-08-21T10:57:07Z</time>
      </trkpt>
      <trkpt lat="2.937449" lon="-75.19583">
        <ele>614.4</ele>
        <time>2021-08-21T10:57:08Z</time>
      </trkpt>
      <trkpt lat="2.937444" lon="-75.195755">
        <ele>613.8</ele>
        <time>2021-08-21T10:57:09Z</time>
      </trkpt>
      <trkpt lat="2.937434" lon="-75.19567">
        <ele>613.3</ele>
        <time>2021-08-21T10:57:10Z</time>
      </trkpt>
      <trkpt lat="2.937419" lon="-75.19558">
        <ele>612.8</ele>
        <time>2021-08-21T10:57:11Z</time>
      </trkpt>
      <trkpt lat="2.937402" lon="-75.1955">
        <ele>612.4</ele>
        <time>2021-08-21T10:57:12Z</time>
      </trkpt>
      <trkpt lat="2.937382" lon="-75.19542">
        <ele>612.2</ele>
        <time>2021-08-21T10:57:13Z</time>
      </trkpt>
      <trkpt lat="2.937358" lon="-75.195335">
        <ele>612.1</ele>
        <time>2021-08-21T10:57:14Z</time>
      </trkpt>
      <trkpt lat="2.937332" lon="-75.19526">
        <ele>612.0</ele>
        <time>2021-08-21T10:57:15Z</time>
      </trkpt>
      <trkpt lat="2.937303" lon="-75.19518">
        <ele>612.0</ele>
        <time>2021-08-21T10:57:16Z</time>
      </trkpt>
      <trkpt lat="2.937272" lon="-75.19511">
        <ele>612.0</ele>
        <time>2021-08-21T10:57:17Z</time>
      </trkpt>
      <trkpt lat="2.937237" lon="-75.19504">
        <ele>612.0</ele>
        <time>2021-08-21T10:57:18Z</time>
      </trkpt>
      <trkpt lat="2.9372" lon="-75.19497">
        <ele>612.0</ele>
        <time>2021-08-21T10:57:19Z</time>
      </trkpt>
      <trkpt lat="2.937161" lon="-75.19491">
        <ele>612.0</ele>
        <time>2021-08-21T10:57:20Z</time>
      </trkpt>
      <trkpt lat="2.937121" lon="-75.19485">
        <ele>612.1</ele>
        <time>2021-08-21T10:57:21Z</time>
      </trkpt>
      <trkpt lat="2.937079" lon="-75.19479">
        <ele>612.1</ele>
        <time>2021-08-21T10:57:22Z</time>
      </trkpt>
      <trkpt lat="2.937038" lon="-75.19474">
        <ele>612.2</ele>
        <time>2021-08-21T10:57:23Z</time>
      </trkpt>
      <trkpt lat="2.936994" lon="-75.19469">
        <ele>612.2</ele>
        <time>2021-08-21T10:57:24Z</time>
      </trkpt>
      <trkpt lat="2.936951" lon="-75.19464">
        <ele>612.3</ele>
        <time>2021-08-21T10:57:25Z</time>
      </trkpt>
      <trkpt lat="2.936909" lon="-75.194595">
        <ele>612.3</ele>
        <time>2021-08-21T10:57:26Z</time>
      </trkpt>
      <trkpt lat="2.93687" lon="-75.19455">
        <ele>612.3</ele>
        <time>2021-08-21T10:57:27Z</time>
      </trkpt>
      <trkpt lat="2.936828" lon="-75.19451">
        <ele>612.3</ele>
        <time>2021-08-21T10:57:28Z</time>
      </trkpt>
      <trkpt lat="2.936787" lon="-75.19447">
        <ele>612.3</ele>
        <time>2021-08-21T10:57:29Z</time>
      </trkpt>
      <trkpt lat="2.936745" lon="-75.194435">
        <ele>612.2</ele>
        <time>2021-08-21T10:57:30Z</time>
      </trkpt>
      <trkpt lat="2.936703" lon="-75.1944">
        <ele>612.2</ele>
        <time>2021-08-21T10:57:31Z</time>
      </trkpt>
      <trkpt lat="2.936663" lon="-75.19437">
        <ele>612.1</ele>
        <time>2021-08-21T10:57:32Z</time>
      </trkpt>
      <trkpt lat="2.936622" lon="-75.19433">
        <ele>612.0</ele>
        <time>2021-08-21T10:57:33Z</time>
      </trkpt>
      <trkpt lat="2.936578" lon="-75.1943">
        <ele>611.8</ele>
        <time>2021-08-21T10:57:34Z</time>
      </trkpt>
      <trkpt lat="2.93653" lon="-75.19427">
        <ele>611.7</ele>
        <time>2021-08-21T10:57:35Z</time>
      </trkpt>
      <trkpt lat="2.93648" lon="-75.19424">
        <ele>611.5</ele>
        <time>2021-08-21T10:57:36Z</time>
      </trkpt>
      <trkpt lat="2.93643" lon="-75.19421">
        <ele>611.3</ele>
        <time>2021-08-21T10:57:37Z</time>
      </trkpt>
      <trkpt lat="2.936378" lon="-75.194176">
        <ele>611.0</ele>
        <time>2021-08-21T10:57:38Z</time>
      </trkpt>
      <trkpt lat="2.936325" lon="-75.194145">
        <ele>610.8</ele>
        <time>2021-08-21T10:57:39Z</time>
      </trkpt>
      <trkpt lat="2.936271" lon="-75.19412">
        <ele>610.5</ele>
        <time>2021-08-21T10:57:40Z</time>
      </trkpt>
      <trkpt lat="2.936218" lon="-75.19409">
        <ele>610.1</ele>
        <time>2021-08-21T10:57:41Z</time>
      </trkpt>
      <trkpt lat="2.936163" lon="-75.19407">
        <ele>609.8</ele>
        <time>2021-08-21T10:57:42Z</time>
      </trkpt>
      <trkpt lat="2.936105" lon="-75.19404">
        <ele>609.4</ele>
        <time>2021-08-21T10:57:43Z</time>
      </trkpt>
      <trkpt lat="2.936042" lon="-75.194016">
        <ele>608.9</ele>
        <time>2021-08-21T10:57:44Z</time>
      </trkpt>
      <trkpt lat="2.935978" lon="-75.19399">
        <ele>608.4</ele>
        <time>2021-08-21T10:57:45Z</time>
      </trkpt>
      <trkpt lat="2.935916" lon="-75.19397">
        <ele>608.0</ele>
        <time>2021-08-21T10:57:46Z</time>
      </trkpt>
      <trkpt lat="2.935845" lon="-75.193954">
        <ele>607.4</ele>
        <time>2021-08-21T10:57:47Z</time>
      </trkpt>
      <trkpt lat="2.935777" lon="-75.19394">
        <ele>606.9</ele>
        <time>2021-08-21T10:57:48Z</time>
      </trkpt>
      <trkpt lat="2.935701" lon="-75.19393">
        <ele>606.3</ele>
        <time>2021-08-21T10:57:49Z</time>
      </trkpt>
      <trkpt lat="2.935623" lon="-75.19393">
        <ele>605.6</ele>
        <time>2021-08-21T10:57:50Z</time>
      </trkpt>
      <trkpt lat="2.935543" lon="-75.19394">
        <ele>604.8</ele>
        <time>2021-08-21T10:57:51Z</time>
      </trkpt>
      <trkpt lat="2.93546" lon="-75.193954">
        <ele>603.9</ele>
        <time>2021-08-21T10:57:52Z</time>
      </trkpt>
      <trkpt lat="2.935281" lon="-75.194016">
        <ele>601.8</ele>
        <time>2021-08-21T10:57:53Z</time>
      </trkpt>
      <trkpt lat="2.935371" lon="-75.19398">
        <ele>602.8</ele>
        <time>2021-08-21T10:57:53Z</time>
      </trkpt>
      <trkpt lat="2.935192" lon="-75.19405">
        <ele>600.8</ele>
        <time>2021-08-21T10:57:55Z</time>
      </trkpt>
      <trkpt lat="2.935104" lon="-75.19409">
        <ele>600.1</ele>
        <time>2021-08-21T10:57:56Z</time>
      </trkpt>
      <trkpt lat="2.935021" lon="-75.19413">
        <ele>599.6</ele>
        <time>2021-08-21T10:57:57Z</time>
      </trkpt>
      <trkpt lat="2.934931" lon="-75.19416">
        <ele>599.4</ele>
        <time>2021-08-21T10:57:58Z</time>
      </trkpt>
      <trkpt lat="2.934844" lon="-75.19418">
        <ele>599.4</ele>
        <time>2021-08-21T10:57:59Z</time>
      </trkpt>
      <trkpt lat="2.934763" lon="-75.19419">
        <ele>599.6</ele>
        <time>2021-08-21T10:58:00Z</time>
      </trkpt>
      <trkpt lat="2.934688" lon="-75.19419">
        <ele>599.8</ele>
        <time>2021-08-21T10:58:01Z</time>
      </trkpt>
      <trkpt lat="2.934625" lon="-75.19416">
        <ele>600.1</ele>
        <time>2021-08-21T10:58:02Z</time>
      </trkpt>
      <trkpt lat="2.934576" lon="-75.19412">
        <ele>600.3</ele>
        <time>2021-08-21T10:58:03Z</time>
      </trkpt>
      <trkpt lat="2.93454" lon="-75.19408">
        <ele>600.5</ele>
        <time>2021-08-21T10:58:04Z</time>
      </trkpt>
      <trkpt lat="2.934517" lon="-75.19402">
        <ele>600.8</ele>
        <time>2021-08-21T10:58:05Z</time>
      </trkpt>
      <trkpt lat="2.934501" lon="-75.19397">
        <ele>601.1</ele>
        <time>2021-08-21T10:58:06Z</time>
      </trkpt>
      <trkpt lat="2.934495" lon="-75.19392">
        <ele>601.4</ele>
        <time>2021-08-21T10:58:07Z</time>
      </trkpt>
      <trkpt lat="2.934497" lon="-75.193855">
        <ele>601.8</ele>
        <time>2021-08-21T10:58:08Z</time>
      </trkpt>
      <trkpt lat="2.934507" lon="-75.19381">
        <ele>602.1</ele>
        <time>2021-08-21T10:58:09Z</time>
      </trkpt>
      <trkpt lat="2.934523" lon="-75.19376">
        <ele>602.4</ele>
        <time>2021-08-21T10:58:10Z</time>
      </trkpt>
      <trkpt lat="2.934543" lon="-75.193726">
        <ele>602.6</ele>
        <time>2021-08-21T10:58:11Z</time>
      </trkpt>
      <trkpt lat="2.934564" lon="-75.193695">
        <ele>602.9</ele>
        <time>2021-08-21T10:58:12Z</time>
      </trkpt>
      <trkpt lat="2.934588" lon="-75.193665">
        <ele>603.1</ele>
        <time>2021-08-21T10:58:13Z</time>
      </trkpt>
      <trkpt lat="2.934614" lon="-75.193634">
        <ele>603.4</ele>
        <time>2021-08-21T10:58:14Z</time>
      </trkpt>
      <trkpt lat="2.934639" lon="-75.19361">
        <ele>603.6</ele>
        <time>2021-08-21T10:58:15Z</time>
      </trkpt>
      <trkpt lat="2.934665" lon="-75.19358">
        <ele>603.9</ele>
        <time>2021-08-21T10:58:16Z</time>
      </trkpt>
      <trkpt lat="2.93469" lon="-75.19356">
        <ele>604.2</ele>
        <time>2021-08-21T10:58:17Z</time>
      </trkpt>
      <trkpt lat="2.934716" lon="-75.19353">
        <ele>604.4</ele>
        <time>2021-08-21T10:58:18Z</time>
      </trkpt>
      <trkpt lat="2.934741" lon="-75.193504">
        <ele>604.7</ele>
        <time>2021-08-21T10:58:19Z</time>
      </trkpt>
      <trkpt lat="2.934766" lon="-75.19348">
        <ele>605.0</ele>
        <time>2021-08-21T10:58:20Z</time>
      </trkpt>
      <trkpt lat="2.934791" lon="-75.19346">
        <ele>605.3</ele>
        <time>2021-08-21T10:58:21Z</time>
      </trkpt>
      <trkpt lat="2.934814" lon="-75.19344">
        <ele>605.6</ele>
        <time>2021-08-21T10:58:22Z</time>
      </trkpt>
      <trkpt lat="2.934837" lon="-75.19342">
        <ele>605.9</ele>
        <time>2021-08-21T10:58:23Z</time>
      </trkpt>
      <trkpt lat="2.934859" lon="-75.1934">
        <ele>606.2</ele>
        <time>2021-08-21T10:58:23Z</time>
      </trkpt>
      <trkpt lat="2.934881" lon="-75.193375">
        <ele>606.5</ele>
        <time>2021-08-21T10:58:24Z</time>
      </trkpt>
      <trkpt lat="2.934902" lon="-75.19335">
        <ele>606.8</ele>
        <time>2021-08-21T10:58:26Z</time>
      </trkpt>
      <trkpt lat="2.934924" lon="-75.19334">
        <ele>607.1</ele>
        <time>2021-08-21T10:58:27Z</time>
      </trkpt>
      <trkpt lat="2.934944" lon="-75.19331">
        <ele>607.4</ele>
        <time>2021-08-21T10:58:28Z</time>
      </trkpt>
      <trkpt lat="2.934961" lon="-75.19329">
        <ele>607.7</ele>
        <time>2021-08-21T10:58:29Z</time>
      </trkpt>
      <trkpt lat="2.93498" lon="-75.19327">
        <ele>608.0</ele>
        <time>2021-08-21T10:58:30Z</time>
      </trkpt>
      <trkpt lat="2.934999" lon="-75.19325">
        <ele>608.3</ele>
        <time>2021-08-21T10:58:31Z</time>
      </trkpt>
      <trkpt lat="2.935016" lon="-75.19323">
        <ele>608.6</ele>
        <time>2021-08-21T10:58:32Z</time>
      </trkpt>
      <trkpt lat="2.935031" lon="-75.193214">
        <ele>608.9</ele>
        <time>2021-08-21T10:58:33Z</time>
      </trkpt>
      <trkpt lat="2.935047" lon="-75.19319">
        <ele>609.2</ele>
        <time>2021-08-21T10:58:34Z</time>
      </trkpt>
      <trkpt lat="2.935063" lon="-75.19318">
        <ele>609.5</ele>
        <time>2021-08-21T10:58:35Z</time>
      </trkpt>
      <trkpt lat="2.93508" lon="-75.19316">
        <ele>609.7</ele>
        <time>2021-08-21T10:58:36Z</time>
      </trkpt>
      <trkpt lat="2.935095" lon="-75.19314">
        <ele>610.0</ele>
        <time>2021-08-21T10:58:37Z</time>
      </trkpt>
      <trkpt lat="2.935111" lon="-75.19312">
        <ele>610.3</ele>
        <time>2021-08-21T10:58:38Z</time>
      </trkpt>
      <trkpt lat="2.935127" lon="-75.1931">
        <ele>610.5</ele>
        <time>2021-08-21T10:58:39Z</time>
      </trkpt>
      <trkpt lat="2.935141" lon="-75.193085">
        <ele>610.8</ele>
        <time>2021-08-21T10:58:40Z</time>
      </trkpt>
      <trkpt lat="2.935157" lon="-75.19306">
        <ele>611.1</ele>
        <time>2021-08-21T10:58:41Z</time>
      </trkpt>
      <trkpt lat="2.93517" lon="-75.19305">
        <ele>611.3</ele>
        <time>2021-08-21T10:58:42Z</time>
      </trkpt>
      <trkpt lat="2.935181" lon="-75.19302">
        <ele>611.5</ele>
        <time>2021-08-21T10:58:43Z</time>
      </trkpt>
      <trkpt lat="2.935191" lon="-75.19301">
        <ele>611.7</ele>
        <time>2021-08-21T10:58:44Z</time>
      </trkpt>
      <trkpt lat="2.9352" lon="-75.192986">
        <ele>611.9</ele>
        <time>2021-08-21T10:58:45Z</time>
      </trkpt>
      <trkpt lat="2.935207" lon="-75.19296">
        <ele>612.1</ele>
        <time>2021-08-21T10:58:46Z</time>
      </trkpt>
      <trkpt lat="2.935213" lon="-75.19294">
        <ele>612.3</ele>
        <time>2021-08-21T10:58:47Z</time>
      </trkpt>
      <trkpt lat="2.935217" lon="-75.192924">
        <ele>612.4</ele>
        <time>2021-08-21T10:58:48Z</time>
      </trkpt>
      <trkpt lat="2.935221" lon="-75.1929">
        <ele>612.6</ele>
        <time>2021-08-21T10:58:49Z</time>
      </trkpt>
      <trkpt lat="2.935224" lon="-75.19288">
        <ele>612.7</ele>
        <time>2021-08-21T10:58:50Z</time>
      </trkpt>
      <trkpt lat="2.935225" lon="-75.192856">
        <ele>612.9</ele>
        <time>2021-08-21T10:58:51Z</time>
      </trkpt>
      <trkpt lat="2.935226" lon="-75.192825">
        <ele>613.0</ele>
        <time>2021-08-21T10:58:52Z</time>
      </trkpt>
      <trkpt lat="2.935225" lon="-75.19281">
        <ele>613.1</ele>
        <time>2021-08-21T10:58:53Z</time>
      </trkpt>
      <trkpt lat="2.935224" lon="-75.19278">
        <ele>613.2</ele>
        <time>2021-08-21T10:58:54Z</time>
      </trkpt>
      <trkpt lat="2.935221" lon="-75.19276">
        <ele>613.4</ele>
        <time>2021-08-21T10:58:55Z</time>
      </trkpt>
      <trkpt lat="2.935218" lon="-75.19273">
        <ele>613.5</ele>
        <time>2021-08-21T10:58:56Z</time>
      </trkpt>
      <trkpt lat="2.935214" lon="-75.1927">
        <ele>613.6</ele>
        <time>2021-08-21T10:58:57Z</time>
      </trkpt>
      <trkpt lat="2.935209" lon="-75.19267">
        <ele>613.7</ele>
        <time>2021-08-21T10:58:58Z</time>
      </trkpt>
      <trkpt lat="2.935204" lon="-75.19265">
        <ele>613.8</ele>
        <time>2021-08-21T10:58:59Z</time>
      </trkpt>
      <trkpt lat="2.935199" lon="-75.19262">
        <ele>613.9</ele>
        <time>2021-08-21T10:59:00Z</time>
      </trkpt>
      <trkpt lat="2.935192" lon="-75.19259">
        <ele>614.0</ele>
        <time>2021-08-21T10:59:01Z</time>
      </trkpt>
      <trkpt lat="2.935185" lon="-75.19256">
        <ele>614.2</ele>
        <time>2021-08-21T10:59:02Z</time>
      </trkpt>
      <trkpt lat="2.935177" lon="-75.19253">
        <ele>614.3</ele>
        <time>2021-08-21T10:59:03Z</time>
      </trkpt>
      <trkpt lat="2.935171" lon="-75.192505">
        <ele>614.4</ele>
        <time>2021-08-21T10:59:04Z</time>
      </trkpt>
      <trkpt lat="2.935163" lon="-75.192474">
        <ele>614.5</ele>
        <time>2021-08-21T10:59:05Z</time>
      </trkpt>
      <trkpt lat="2.935155" lon="-75.192444">
        <ele>614.6</ele>
        <time>2021-08-21T10:59:06Z</time>
      </trkpt>
      <trkpt lat="2.935147" lon="-75.19241">
        <ele>614.8</ele>
        <time>2021-08-21T10:59:07Z</time>
      </trkpt>
      <trkpt lat="2.935138" lon="-75.19239">
        <ele>614.9</ele>
        <time>2021-08-21T10:59:08Z</time>
      </trkpt>
      <trkpt lat="2.93513" lon="-75.19236">
        <ele>615.0</ele>
        <time>2021-08-21T10:59:09Z</time>
      </trkpt>
      <trkpt lat="2.935121" lon="-75.19233">
        <ele>615.2</ele>
        <time>2021-08-21T10:59:10Z</time>
      </trkpt>
      <trkpt lat="2.935112" lon="-75.1923">
        <ele>615.3</ele>
        <time>2021-08-21T10:59:11Z</time>
      </trkpt>
      <trkpt lat="2.935104" lon="-75.19227">
        <ele>615.5</ele>
        <time>2021-08-21T10:59:12Z</time>
      </trkpt>
      <trkpt lat="2.935096" lon="-75.192245">
        <ele>615.6</ele>
        <time>2021-08-21T10:59:13Z</time>
      </trkpt>
      <trkpt lat="2.935088" lon="-75.192215">
        <ele>615.7</ele>
        <time>2021-08-21T10:59:14Z</time>
      </trkpt>
      <trkpt lat="2.93508" lon="-75.19219">
        <ele>615.8</ele>
        <time>2021-08-21T10:59:15Z</time>
      </trkpt>
      <trkpt lat="2.935071" lon="-75.19216">
        <ele>616.0</ele>
        <time>2021-08-21T10:59:16Z</time>
      </trkpt>
      <trkpt lat="2.935063" lon="-75.19214">
        <ele>616.1</ele>
        <time>2021-08-21T10:59:17Z</time>
      </trkpt>
      <trkpt lat="2.935054" lon="-75.19211">
        <ele>616.2</ele>
        <time>2021-08-21T10:59:18Z</time>
      </trkpt>
      <trkpt lat="2.935045" lon="-75.19208">
        <ele>616.3</ele>
        <time>2021-08-21T10:59:19Z</time>
      </trkpt>
      <trkpt lat="2.935035" lon="-75.192055">
        <ele>616.5</ele>
        <time>2021-08-21T10:59:20Z</time>
      </trkpt>
      <trkpt lat="2.935025" lon="-75.192024">
        <ele>616.6</ele>
        <time>2021-08-21T10:59:21Z</time>
      </trkpt>
      <trkpt lat="2.935015" lon="-75.19199">
        <ele>616.7</ele>
        <time>2021-08-21T10:59:22Z</time>
      </trkpt>
      <trkpt lat="2.935005" lon="-75.19196">
        <ele>616.8</ele>
        <time>2021-08-21T10:59:23Z</time>
      </trkpt>
      <trkpt lat="2.934994" lon="-75.19193">
        <ele>617.0</ele>
        <time>2021-08-21T10:59:24Z</time>
      </trkpt>
      <trkpt lat="2.934983" lon="-75.1919">
        <ele>617.1</ele>
        <time>2021-08-21T10:59:25Z</time>
      </trkpt>
      <trkpt lat="2.934971" lon="-75.19187">
        <ele>617.2</ele>
        <time>2021-08-21T10:59:26Z</time>
      </trkpt>
      <trkpt lat="2.934961" lon="-75.19185">
        <ele>617.3</ele>
        <time>2021-08-21T10:59:27Z</time>
      </trkpt>
      <trkpt lat="2.934949" lon="-75.19182">
        <ele>617.5</ele>
        <time>2021-08-21T10:59:28Z</time>
      </trkpt>
      <trkpt lat="2.934938" lon="-75.191795">
        <ele>617.6</ele>
        <time>2021-08-21T10:59:29Z</time>
      </trkpt>
      <trkpt lat="2.934927" lon="-75.191765">
        <ele>617.7</ele>
        <time>2021-08-21T10:59:30Z</time>
      </trkpt>
      <trkpt lat="2.934916" lon="-75.191734">
        <ele>617.8</ele>
        <time>2021-08-21T10:59:31Z</time>
      </trkpt>
      <trkpt lat="2.934906" lon="-75.19171">
        <ele>617.9</ele>
        <time>2021-08-21T10:59:32Z</time>
      </trkpt>
      <trkpt lat="2.934893" lon="-75.19169">
        <ele>618.0</ele>
        <time>2021-08-21T10:59:33Z</time>
      </trkpt>
      <trkpt lat="2.93488" lon="-75.191666">
        <ele>618.1</ele>
        <time>2021-08-21T10:59:34Z</time>
      </trkpt>
      <trkpt lat="2.934865" lon="-75.19164">
        <ele>618.2</ele>
        <time>2021-08-21T10:59:35Z</time>
      </trkpt>
      <trkpt lat="2.934848" lon="-75.19162">
        <ele>618.3</ele>
        <time>2021-08-21T10:59:36Z</time>
      </trkpt>
      <trkpt lat="2.934833" lon="-75.1916">
        <ele>618.4</ele>
        <time>2021-08-21T10:59:37Z</time>
      </trkpt>
      <trkpt lat="2.934797" lon="-75.19156">
        <ele>618.6</ele>
        <time>2021-08-21T10:59:38Z</time>
      </trkpt>
      <trkpt lat="2.934816" lon="-75.19158">
        <ele>618.5</ele>
        <time>2021-08-21T10:59:38Z</time>
      </trkpt>
      <trkpt lat="2.934778" lon="-75.191536">
        <ele>618.7</ele>
        <time>2021-08-21T10:59:39Z</time>
      </trkpt>
      <trkpt lat="2.934759" lon="-75.19152">
        <ele>618.7</ele>
        <time>2021-08-21T10:59:40Z</time>
      </trkpt>
      <trkpt lat="2.934741" lon="-75.1915">
        <ele>618.8</ele>
        <time>2021-08-21T10:59:41Z</time>
      </trkpt>
      <trkpt lat="2.934721" lon="-75.191475">
        <ele>618.9</ele>
        <time>2021-08-21T10:59:42Z</time>
      </trkpt>
      <trkpt lat="2.934701" lon="-75.19145">
        <ele>618.9</ele>
        <time>2021-08-21T10:59:43Z</time>
      </trkpt>
      <trkpt lat="2.93468" lon="-75.19143">
        <ele>619.0</ele>
        <time>2021-08-21T10:59:44Z</time>
      </trkpt>
      <trkpt lat="2.934636" lon="-75.19138">
        <ele>619.1</ele>
        <time>2021-08-21T10:59:45Z</time>
      </trkpt>
      <trkpt lat="2.934658" lon="-75.19141">
        <ele>619.1</ele>
        <time>2021-08-21T10:59:45Z</time>
      </trkpt>
      <trkpt lat="2.934612" lon="-75.19137">
        <ele>619.2</ele>
        <time>2021-08-21T10:59:47Z</time>
      </trkpt>
      <trkpt lat="2.934587" lon="-75.191345">
        <ele>619.2</ele>
        <time>2021-08-21T10:59:48Z</time>
      </trkpt>
      <trkpt lat="2.934562" lon="-75.19132">
        <ele>619.3</ele>
        <time>2021-08-21T10:59:49Z</time>
      </trkpt>
      <trkpt lat="2.934537" lon="-75.1913">
        <ele>619.3</ele>
        <time>2021-08-21T10:59:50Z</time>
      </trkpt>
      <trkpt lat="2.93451" lon="-75.19128">
        <ele>619.4</ele>
        <time>2021-08-21T10:59:51Z</time>
      </trkpt>
      <trkpt lat="2.934484" lon="-75.19126">
        <ele>619.4</ele>
        <time>2021-08-21T10:59:52Z</time>
      </trkpt>
      <trkpt lat="2.934456" lon="-75.19124">
        <ele>619.5</ele>
        <time>2021-08-21T10:59:53Z</time>
      </trkpt>
      <trkpt lat="2.934427" lon="-75.191216">
        <ele>619.5</ele>
        <time>2021-08-21T10:59:54Z</time>
      </trkpt>
      <trkpt lat="2.934398" lon="-75.19119">
        <ele>619.6</ele>
        <time>2021-08-21T10:59:55Z</time>
      </trkpt>
      <trkpt lat="2.934369" lon="-75.19117">
        <ele>619.7</ele>
        <time>2021-08-21T10:59:56Z</time>
      </trkpt>
      <trkpt lat="2.934339" lon="-75.19115">
        <ele>619.7</ele>
        <time>2021-08-21T10:59:57Z</time>
      </trkpt>
      <trkpt lat="2.934308" lon="-75.191124">
        <ele>619.8</ele>
        <time>2021-08-21T10:59:58Z</time>
      </trkpt>
      <trkpt lat="2.934275" lon="-75.1911">
        <ele>619.9</ele>
        <time>2021-08-21T10:59:59Z</time>
      </trkpt>
      <trkpt lat="2.934242" lon="-75.19108">
        <ele>619.9</ele>
        <time>2021-08-21T11:00:00Z</time>
      </trkpt>
      <trkpt lat="2.934212" lon="-75.191055">
        <ele>620.0</ele>
        <time>2021-08-21T11:00:01Z</time>
      </trkpt>
      <trkpt lat="2.934181" lon="-75.19103">
        <ele>620.1</ele>
        <time>2021-08-21T11:00:02Z</time>
      </trkpt>
      <trkpt lat="2.93415" lon="-75.19101">
        <ele>620.2</ele>
        <time>2021-08-21T11:00:03Z</time>
      </trkpt>
      <trkpt lat="2.934118" lon="-75.19099">
        <ele>620.2</ele>
        <time>2021-08-21T11:00:04Z</time>
      </trkpt>
      <trkpt lat="2.934085" lon="-75.19096">
        <ele>620.3</ele>
        <time>2021-08-21T11:00:05Z</time>
      </trkpt>
      <trkpt lat="2.934054" lon="-75.19094">
        <ele>620.4</ele>
        <time>2021-08-21T11:00:06Z</time>
      </trkpt>
      <trkpt lat="2.934022" lon="-75.19092">
        <ele>620.5</ele>
        <time>2021-08-21T11:00:07Z</time>
      </trkpt>
      <trkpt lat="2.93399" lon="-75.190895">
        <ele>620.6</ele>
        <time>2021-08-21T11:00:08Z</time>
      </trkpt>
      <trkpt lat="2.933957" lon="-75.190865">
        <ele>620.7</ele>
        <time>2021-08-21T11:00:09Z</time>
      </trkpt>
      <trkpt lat="2.933926" lon="-75.19084">
        <ele>620.7</ele>
        <time>2021-08-21T11:00:10Z</time>
      </trkpt>
      <trkpt lat="2.933898" lon="-75.19081">
        <ele>620.8</ele>
        <time>2021-08-21T11:00:11Z</time>
      </trkpt>
      <trkpt lat="2.933872" lon="-75.19079">
        <ele>620.9</ele>
        <time>2021-08-21T11:00:12Z</time>
      </trkpt>
      <trkpt lat="2.933847" lon="-75.19076">
        <ele>621.0</ele>
        <time>2021-08-21T11:00:13Z</time>
      </trkpt>
      <trkpt lat="2.933823" lon="-75.19073">
        <ele>621.1</ele>
        <time>2021-08-21T11:00:14Z</time>
      </trkpt>
      <trkpt lat="2.933733" lon="-75.19058">
        <ele>621.3</ele>
        <time>2021-08-21T11:00:16Z</time>
      </trkpt>
      <trkpt lat="2.933731" lon="-75.190575">
        <ele>621.4</ele>
        <time>2021-08-21T11:00:17Z</time>
      </trkpt>
      <trkpt lat="2.933726" lon="-75.19056">
        <ele>621.4</ele>
        <time>2021-08-21T11:00:18Z</time>
      </trkpt>
      <trkpt lat="2.933719" lon="-75.19053">
        <ele>621.4</ele>
        <time>2021-08-21T11:00:19Z</time>
      </trkpt>
      <trkpt lat="2.933712" lon="-75.1905">
        <ele>621.5</ele>
        <time>2021-08-21T11:00:20Z</time>
      </trkpt>
      <trkpt lat="2.933704" lon="-75.19047">
        <ele>621.5</ele>
        <time>2021-08-21T11:00:21Z</time>
      </trkpt>
      <trkpt lat="2.933696" lon="-75.19043">
        <ele>621.5</ele>
        <time>2021-08-21T11:00:22Z</time>
      </trkpt>
      <trkpt lat="2.933687" lon="-75.19039">
        <ele>621.6</ele>
        <time>2021-08-21T11:00:23Z</time>
      </trkpt>
      <trkpt lat="2.933678" lon="-75.19035">
        <ele>621.6</ele>
        <time>2021-08-21T11:00:24Z</time>
      </trkpt>
      <trkpt lat="2.933669" lon="-75.19031">
        <ele>621.6</ele>
        <time>2021-08-21T11:00:25Z</time>
      </trkpt>
      <trkpt lat="2.93366" lon="-75.19027">
        <ele>621.7</ele>
        <time>2021-08-21T11:00:26Z</time>
      </trkpt>
      <trkpt lat="2.933652" lon="-75.19022">
        <ele>621.7</ele>
        <time>2021-08-21T11:00:27Z</time>
      </trkpt>
      <trkpt lat="2.933642" lon="-75.19018">
        <ele>621.7</ele>
        <time>2021-08-21T11:00:28Z</time>
      </trkpt>
      <trkpt lat="2.933633" lon="-75.19014">
        <ele>621.8</ele>
        <time>2021-08-21T11:00:29Z</time>
      </trkpt>
      <trkpt lat="2.933623" lon="-75.190094">
        <ele>621.8</ele>
        <time>2021-08-21T11:00:30Z</time>
      </trkpt>
      <trkpt lat="2.933616" lon="-75.19005">
        <ele>621.8</ele>
        <time>2021-08-21T11:00:31Z</time>
      </trkpt>
      <trkpt lat="2.933608" lon="-75.19">
        <ele>621.8</ele>
        <time>2021-08-21T11:00:32Z</time>
      </trkpt>
      <trkpt lat="2.933601" lon="-75.189964">
        <ele>621.9</ele>
        <time>2021-08-21T11:00:33Z</time>
      </trkpt>
      <trkpt lat="2.933592" lon="-75.18992">
        <ele>621.9</ele>
        <time>2021-08-21T11:00:34Z</time>
      </trkpt>
      <trkpt lat="2.933583" lon="-75.18987">
        <ele>621.9</ele>
        <time>2021-08-21T11:00:35Z</time>
      </trkpt>
      <trkpt lat="2.933574" lon="-75.189835">
        <ele>621.9</ele>
        <time>2021-08-21T11:00:36Z</time>
      </trkpt>
      <trkpt lat="2.933566" lon="-75.18979">
        <ele>621.8</ele>
        <time>2021-08-21T11:00:37Z</time>
      </trkpt>
      <trkpt lat="2.933557" lon="-75.18974">
        <ele>621.8</ele>
        <time>2021-08-21T11:00:38Z</time>
      </trkpt>
      <trkpt lat="2.933548" lon="-75.1897">
        <ele>621.8</ele>
        <time>2021-08-21T11:00:39Z</time>
      </trkpt>
      <trkpt lat="2.933538" lon="-75.18965">
        <ele>621.7</ele>
        <time>2021-08-21T11:00:40Z</time>
      </trkpt>
      <trkpt lat="2.933529" lon="-75.189606">
        <ele>621.6</ele>
        <time>2021-08-21T11:00:41Z</time>
      </trkpt>
      <trkpt lat="2.933517" lon="-75.189545">
        <ele>621.5</ele>
        <time>2021-08-21T11:00:42Z</time>
      </trkpt>
      <trkpt lat="2.933506" lon="-75.1895">
        <ele>621.4</ele>
        <time>2021-08-21T11:00:43Z</time>
      </trkpt>
      <trkpt lat="2.933495" lon="-75.189445">
        <ele>621.2</ele>
        <time>2021-08-21T11:00:44Z</time>
      </trkpt>
      <trkpt lat="2.933485" lon="-75.189384">
        <ele>621.0</ele>
        <time>2021-08-21T11:00:45Z</time>
      </trkpt>
      <trkpt lat="2.933476" lon="-75.18933">
        <ele>620.9</ele>
        <time>2021-08-21T11:00:46Z</time>
      </trkpt>
      <trkpt lat="2.933466" lon="-75.18927">
        <ele>620.7</ele>
        <time>2021-08-21T11:00:47Z</time>
      </trkpt>
      <trkpt lat="2.933456" lon="-75.18922">
        <ele>620.5</ele>
        <time>2021-08-21T11:00:48Z</time>
      </trkpt>
      <trkpt lat="2.933446" lon="-75.18915">
        <ele>620.3</ele>
        <time>2021-08-21T11:00:49Z</time>
      </trkpt>
      <trkpt lat="2.933437" lon="-75.18909">
        <ele>620.1</ele>
        <time>2021-08-21T11:00:50Z</time>
      </trkpt>
      <trkpt lat="2.933429" lon="-75.189026">
        <ele>620.0</ele>
        <time>2021-08-21T11:00:51Z</time>
      </trkpt>
      <trkpt lat="2.933421" lon="-75.188965">
        <ele>619.9</ele>
        <time>2021-08-21T11:00:52Z</time>
      </trkpt>
      <trkpt lat="2.933414" lon="-75.1889">
        <ele>619.9</ele>
        <time>2021-08-21T11:00:53Z</time>
      </trkpt>
      <trkpt lat="2.933407" lon="-75.18885">
        <ele>619.9</ele>
        <time>2021-08-21T11:00:54Z</time>
      </trkpt>
      <trkpt lat="2.933399" lon="-75.18879">
        <ele>619.9</ele>
        <time>2021-08-21T11:00:55Z</time>
      </trkpt>
      <trkpt lat="2.933392" lon="-75.18873">
        <ele>620.1</ele>
        <time>2021-08-21T11:00:56Z</time>
      </trkpt>
      <trkpt lat="2.933384" lon="-75.18867">
        <ele>620.2</ele>
        <time>2021-08-21T11:00:57Z</time>
      </trkpt>
      <trkpt lat="2.933374" lon="-75.18862">
        <ele>620.4</ele>
        <time>2021-08-21T11:00:58Z</time>
      </trkpt>
      <trkpt lat="2.933363" lon="-75.18857">
        <ele>620.6</ele>
        <time>2021-08-21T11:00:59Z</time>
      </trkpt>
      <trkpt lat="2.933336" lon="-75.18847">
        <ele>621.0</ele>
        <time>2021-08-21T11:01:00Z</time>
      </trkpt>
      <trkpt lat="2.93335" lon="-75.188515">
        <ele>620.8</ele>
        <time>2021-08-21T11:01:00Z</time>
      </trkpt>
      <trkpt lat="2.933322" lon="-75.18842">
        <ele>621.3</ele>
        <time>2021-08-21T11:01:02Z</time>
      </trkpt>
      <trkpt lat="2.933308" lon="-75.18838">
        <ele>621.5</ele>
        <time>2021-08-21T11:01:03Z</time>
      </trkpt>
      <trkpt lat="2.933293" lon="-75.18834">
        <ele>621.8</ele>
        <time>2021-08-21T11:01:04Z</time>
      </trkpt>
      <trkpt lat="2.933276" lon="-75.1883">
        <ele>622.0</ele>
        <time>2021-08-21T11:01:05Z</time>
      </trkpt>
      <trkpt lat="2.933259" lon="-75.18826">
        <ele>622.3</ele>
        <time>2021-08-21T11:01:06Z</time>
      </trkpt>
      <trkpt lat="2.933243" lon="-75.188225">
        <ele>622.5</ele>
        <time>2021-08-21T11:01:07Z</time>
      </trkpt>
      <trkpt lat="2.933225" lon="-75.188194">
        <ele>622.8</ele>
        <time>2021-08-21T11:01:08Z</time>
      </trkpt>
      <trkpt lat="2.933208" lon="-75.188156">
        <ele>623.0</ele>
        <time>2021-08-21T11:01:09Z</time>
      </trkpt>
      <trkpt lat="2.933192" lon="-75.188126">
        <ele>623.2</ele>
        <time>2021-08-21T11:01:10Z</time>
      </trkpt>
      <trkpt lat="2.933175" lon="-75.18809">
        <ele>623.4</ele>
        <time>2021-08-21T11:01:11Z</time>
      </trkpt>
      <trkpt lat="2.933158" lon="-75.18806">
        <ele>623.6</ele>
        <time>2021-08-21T11:01:12Z</time>
      </trkpt>
      <trkpt lat="2.933142" lon="-75.18803">
        <ele>623.8</ele>
        <time>2021-08-21T11:01:13Z</time>
      </trkpt>
      <trkpt lat="2.933125" lon="-75.18799">
        <ele>624.0</ele>
        <time>2021-08-21T11:01:14Z</time>
      </trkpt>
      <trkpt lat="2.933089" lon="-75.18793">
        <ele>624.2</ele>
        <time>2021-08-21T11:01:15Z</time>
      </trkpt>
      <trkpt lat="2.933107" lon="-75.18796">
        <ele>624.1</ele>
        <time>2021-08-21T11:01:15Z</time>
      </trkpt>
      <trkpt lat="2.93307" lon="-75.18789">
        <ele>624.3</ele>
        <time>2021-08-21T11:01:17Z</time>
      </trkpt>
      <trkpt lat="2.933051" lon="-75.18786">
        <ele>624.4</ele>
        <time>2021-08-21T11:01:18Z</time>
      </trkpt>
      <trkpt lat="2.93303" lon="-75.18782">
        <ele>624.5</ele>
        <time>2021-08-21T11:01:19Z</time>
      </trkpt>
      <trkpt lat="2.933009" lon="-75.18779">
        <ele>624.6</ele>
        <time>2021-08-21T11:01:20Z</time>
      </trkpt>
      <trkpt lat="2.932988" lon="-75.18775">
        <ele>624.6</ele>
        <time>2021-08-21T11:01:21Z</time>
      </trkpt>
      <trkpt lat="2.932967" lon="-75.18771">
        <ele>624.7</ele>
        <time>2021-08-21T11:01:22Z</time>
      </trkpt>
      <trkpt lat="2.932947" lon="-75.18768">
        <ele>624.7</ele>
        <time>2021-08-21T11:01:23Z</time>
      </trkpt>
      <trkpt lat="2.932927" lon="-75.187645">
        <ele>624.8</ele>
        <time>2021-08-21T11:01:24Z</time>
      </trkpt>
      <trkpt lat="2.932907" lon="-75.18761">
        <ele>624.8</ele>
        <time>2021-08-21T11:01:25Z</time>
      </trkpt>
      <trkpt lat="2.932885" lon="-75.18757">
        <ele>624.9</ele>
        <time>2021-08-21T11:01:26Z</time>
      </trkpt>
      <trkpt lat="2.932863" lon="-75.18753">
        <ele>624.9</ele>
        <time>2021-08-21T11:01:27Z</time>
      </trkpt>
      <trkpt lat="2.932842" lon="-75.18749">
        <ele>624.9</ele>
        <time>2021-08-21T11:01:28Z</time>
      </trkpt>
      <trkpt lat="2.932819" lon="-75.187454">
        <ele>625.0</ele>
        <time>2021-08-21T11:01:29Z</time>
      </trkpt>
      <trkpt lat="2.932796" lon="-75.18742">
        <ele>625.0</ele>
        <time>2021-08-21T11:01:30Z</time>
      </trkpt>
      <trkpt lat="2.932775" lon="-75.18738">
        <ele>625.0</ele>
        <time>2021-08-21T11:01:31Z</time>
      </trkpt>
      <trkpt lat="2.932755" lon="-75.18734">
        <ele>625.0</ele>
        <time>2021-08-21T11:01:32Z</time>
      </trkpt>
      <trkpt lat="2.932738" lon="-75.1873">
        <ele>625.1</ele>
        <time>2021-08-21T11:01:33Z</time>
      </trkpt>
      <trkpt lat="2.932722" lon="-75.18726">
        <ele>625.1</ele>
        <time>2021-08-21T11:01:34Z</time>
      </trkpt>
      <trkpt lat="2.932708" lon="-75.18722">
        <ele>625.1</ele>
        <time>2021-08-21T11:01:35Z</time>
      </trkpt>
      <trkpt lat="2.932695" lon="-75.18718">
        <ele>625.1</ele>
        <time>2021-08-21T11:01:36Z</time>
      </trkpt>
      <trkpt lat="2.932684" lon="-75.18713">
        <ele>625.1</ele>
        <time>2021-08-21T11:01:37Z</time>
      </trkpt>
      <trkpt lat="2.932675" lon="-75.18709">
        <ele>625.0</ele>
        <time>2021-08-21T11:01:38Z</time>
      </trkpt>
      <trkpt lat="2.932667" lon="-75.187035">
        <ele>624.9</ele>
        <time>2021-08-21T11:01:39Z</time>
      </trkpt>
      <trkpt lat="2.93266" lon="-75.18699">
        <ele>624.8</ele>
        <time>2021-08-21T11:01:40Z</time>
      </trkpt>
      <trkpt lat="2.932653" lon="-75.186935">
        <ele>624.6</ele>
        <time>2021-08-21T11:01:41Z</time>
      </trkpt>
      <trkpt lat="2.932647" lon="-75.18688">
        <ele>624.3</ele>
        <time>2021-08-21T11:01:42Z</time>
      </trkpt>
      <trkpt lat="2.93264" lon="-75.18682">
        <ele>624.0</ele>
        <time>2021-08-21T11:01:43Z</time>
      </trkpt>
      <trkpt lat="2.932633" lon="-75.18676">
        <ele>623.8</ele>
        <time>2021-08-21T11:01:44Z</time>
      </trkpt>
      <trkpt lat="2.932627" lon="-75.18671">
        <ele>623.5</ele>
        <time>2021-08-21T11:01:45Z</time>
      </trkpt>
      <trkpt lat="2.93262" lon="-75.186646">
        <ele>623.3</ele>
        <time>2021-08-21T11:01:46Z</time>
      </trkpt>
      <trkpt lat="2.932614" lon="-75.18658">
        <ele>623.1</ele>
        <time>2021-08-21T11:01:47Z</time>
      </trkpt>
      <trkpt lat="2.932608" lon="-75.186516">
        <ele>622.9</ele>
        <time>2021-08-21T11:01:48Z</time>
      </trkpt>
      <trkpt lat="2.932602" lon="-75.186455">
        <ele>622.8</ele>
        <time>2021-08-21T11:01:49Z</time>
      </trkpt>
      <trkpt lat="2.932595" lon="-75.18639">
        <ele>622.7</ele>
        <time>2021-08-21T11:01:50Z</time>
      </trkpt>
      <trkpt lat="2.932589" lon="-75.18633">
        <ele>622.7</ele>
        <time>2021-08-21T11:01:51Z</time>
      </trkpt>
      <trkpt lat="2.932578" lon="-75.18621">
        <ele>622.7</ele>
        <time>2021-08-21T11:01:52Z</time>
      </trkpt>
      <trkpt lat="2.932583" lon="-75.18627">
        <ele>622.6</ele>
        <time>2021-08-21T11:01:52Z</time>
      </trkpt>
      <trkpt lat="2.932572" lon="-75.18615">
        <ele>622.7</ele>
        <time>2021-08-21T11:01:54Z</time>
      </trkpt>
      <trkpt lat="2.932566" lon="-75.18609">
        <ele>622.7</ele>
        <time>2021-08-21T11:01:55Z</time>
      </trkpt>
      <trkpt lat="2.93256" lon="-75.18603">
        <ele>622.8</ele>
        <time>2021-08-21T11:01:56Z</time>
      </trkpt>
      <trkpt lat="2.932554" lon="-75.18597">
        <ele>622.8</ele>
        <time>2021-08-21T11:01:57Z</time>
      </trkpt>
      <trkpt lat="2.932547" lon="-75.185905">
        <ele>622.8</ele>
        <time>2021-08-21T11:01:58Z</time>
      </trkpt>
      <trkpt lat="2.932541" lon="-75.18585">
        <ele>622.8</ele>
        <time>2021-08-21T11:01:59Z</time>
      </trkpt>
      <trkpt lat="2.932536" lon="-75.1858">
        <ele>622.8</ele>
        <time>2021-08-21T11:02:00Z</time>
      </trkpt>
      <trkpt lat="2.93253" lon="-75.18574">
        <ele>622.8</ele>
        <time>2021-08-21T11:02:01Z</time>
      </trkpt>
      <trkpt lat="2.932525" lon="-75.18568">
        <ele>622.8</ele>
        <time>2021-08-21T11:02:02Z</time>
      </trkpt>
      <trkpt lat="2.93252" lon="-75.18562">
        <ele>622.8</ele>
        <time>2021-08-21T11:02:03Z</time>
      </trkpt>
      <trkpt lat="2.932514" lon="-75.18556">
        <ele>622.8</ele>
        <time>2021-08-21T11:02:04Z</time>
      </trkpt>
      <trkpt lat="2.932508" lon="-75.1855">
        <ele>622.8</ele>
        <time>2021-08-21T11:02:05Z</time>
      </trkpt>
      <trkpt lat="2.932502" lon="-75.18545">
        <ele>622.7</ele>
        <time>2021-08-21T11:02:06Z</time>
      </trkpt>
      <trkpt lat="2.932495" lon="-75.18539">
        <ele>622.7</ele>
        <time>2021-08-21T11:02:07Z</time>
      </trkpt>
      <trkpt lat="2.932489" lon="-75.185326">
        <ele>622.7</ele>
        <time>2021-08-21T11:02:08Z</time>
      </trkpt>
      <trkpt lat="2.932483" lon="-75.185265">
        <ele>622.7</ele>
        <time>2021-08-21T11:02:09Z</time>
      </trkpt>
      <trkpt lat="2.932477" lon="-75.18521">
        <ele>622.7</ele>
        <time>2021-08-21T11:02:10Z</time>
      </trkpt>
      <trkpt lat="2.93247" lon="-75.18515">
        <ele>622.7</ele>
        <time>2021-08-21T11:02:11Z</time>
      </trkpt>
      <trkpt lat="2.932464" lon="-75.1851">
        <ele>622.8</ele>
        <time>2021-08-21T11:02:12Z</time>
      </trkpt>
      <trkpt lat="2.932457" lon="-75.185036">
        <ele>622.9</ele>
        <time>2021-08-21T11:02:13Z</time>
      </trkpt>
      <trkpt lat="2.932449" lon="-75.184975">
        <ele>622.9</ele>
        <time>2021-08-21T11:02:14Z</time>
      </trkpt>
      <trkpt lat="2.932441" lon="-75.18492">
        <ele>623.0</ele>
        <time>2021-08-21T11:02:15Z</time>
      </trkpt>
      <trkpt lat="2.932433" lon="-75.18487">
        <ele>623.1</ele>
        <time>2021-08-21T11:02:16Z</time>
      </trkpt>
      <trkpt lat="2.932426" lon="-75.18481">
        <ele>623.2</ele>
        <time>2021-08-21T11:02:17Z</time>
      </trkpt>
      <trkpt lat="2.932419" lon="-75.18475">
        <ele>623.3</ele>
        <time>2021-08-21T11:02:18Z</time>
      </trkpt>
      <trkpt lat="2.932412" lon="-75.1847">
        <ele>623.4</ele>
        <time>2021-08-21T11:02:19Z</time>
      </trkpt>
      <trkpt lat="2.932404" lon="-75.18465">
        <ele>623.5</ele>
        <time>2021-08-21T11:02:20Z</time>
      </trkpt>
      <trkpt lat="2.932396" lon="-75.18459">
        <ele>623.6</ele>
        <time>2021-08-21T11:02:21Z</time>
      </trkpt>
      <trkpt lat="2.932388" lon="-75.18454">
        <ele>623.6</ele>
        <time>2021-08-21T11:02:22Z</time>
      </trkpt>
      <trkpt lat="2.93238" lon="-75.18449">
        <ele>623.7</ele>
        <time>2021-08-21T11:02:23Z</time>
      </trkpt>
      <trkpt lat="2.932373" lon="-75.18443">
        <ele>623.7</ele>
        <time>2021-08-21T11:02:24Z</time>
      </trkpt>
      <trkpt lat="2.932365" lon="-75.18439">
        <ele>623.8</ele>
        <time>2021-08-21T11:02:25Z</time>
      </trkpt>
      <trkpt lat="2.932358" lon="-75.18433">
        <ele>623.8</ele>
        <time>2021-08-21T11:02:26Z</time>
      </trkpt>
      <trkpt lat="2.932351" lon="-75.18427">
        <ele>623.9</ele>
        <time>2021-08-21T11:02:27Z</time>
      </trkpt>
      <trkpt lat="2.932345" lon="-75.18422">
        <ele>623.9</ele>
        <time>2021-08-21T11:02:28Z</time>
      </trkpt>
      <trkpt lat="2.932339" lon="-75.18417">
        <ele>623.9</ele>
        <time>2021-08-21T11:02:29Z</time>
      </trkpt>
      <trkpt lat="2.932333" lon="-75.18412">
        <ele>624.0</ele>
        <time>2021-08-21T11:02:30Z</time>
      </trkpt>
      <trkpt lat="2.932328" lon="-75.18407">
        <ele>624.0</ele>
        <time>2021-08-21T11:02:31Z</time>
      </trkpt>
      <trkpt lat="2.932317" lon="-75.18396">
        <ele>624.0</ele>
        <time>2021-08-21T11:02:32Z</time>
      </trkpt>
      <trkpt lat="2.932322" lon="-75.18401">
        <ele>624.0</ele>
        <time>2021-08-21T11:02:32Z</time>
      </trkpt>
      <trkpt lat="2.932312" lon="-75.18391">
        <ele>624.0</ele>
        <time>2021-08-21T11:02:33Z</time>
      </trkpt>
      <trkpt lat="2.932307" lon="-75.18385">
        <ele>624.0</ele>
        <time>2021-08-21T11:02:34Z</time>
      </trkpt>
      <trkpt lat="2.932303" lon="-75.1838">
        <ele>624.0</ele>
        <time>2021-08-21T11:02:35Z</time>
      </trkpt>
      <trkpt lat="2.932301" lon="-75.18375">
        <ele>624.1</ele>
        <time>2021-08-21T11:02:36Z</time>
      </trkpt>
      <trkpt lat="2.932301" lon="-75.18369">
        <ele>624.1</ele>
        <time>2021-08-21T11:02:37Z</time>
      </trkpt>
      <trkpt lat="2.932302" lon="-75.18364">
        <ele>624.1</ele>
        <time>2021-08-21T11:02:39Z</time>
      </trkpt>
      <trkpt lat="2.932306" lon="-75.18359">
        <ele>624.1</ele>
        <time>2021-08-21T11:02:39Z</time>
      </trkpt>
      <trkpt lat="2.932312" lon="-75.18354">
        <ele>624.1</ele>
        <time>2021-08-21T11:02:40Z</time>
      </trkpt>
      <trkpt lat="2.932319" lon="-75.18349">
        <ele>624.1</ele>
        <time>2021-08-21T11:02:41Z</time>
      </trkpt>
      <trkpt lat="2.932327" lon="-75.18343">
        <ele>624.2</ele>
        <time>2021-08-21T11:02:42Z</time>
      </trkpt>
      <trkpt lat="2.932336" lon="-75.18339">
        <ele>624.2</ele>
        <time>2021-08-21T11:02:43Z</time>
      </trkpt>
      <trkpt lat="2.932344" lon="-75.183334">
        <ele>624.2</ele>
        <time>2021-08-21T11:02:44Z</time>
      </trkpt>
      <trkpt lat="2.932351" lon="-75.18328">
        <ele>624.2</ele>
        <time>2021-08-21T11:02:46Z</time>
      </trkpt>
      <trkpt lat="2.932356" lon="-75.18323">
        <ele>624.2</ele>
        <time>2021-08-21T11:02:46Z</time>
      </trkpt>
      <trkpt lat="2.932359" lon="-75.183174">
        <ele>624.3</ele>
        <time>2021-08-21T11:02:47Z</time>
      </trkpt>
      <trkpt lat="2.932357" lon="-75.18311">
        <ele>624.3</ele>
        <time>2021-08-21T11:02:48Z</time>
      </trkpt>
      <trkpt lat="2.932353" lon="-75.18306">
        <ele>624.3</ele>
        <time>2021-08-21T11:02:49Z</time>
      </trkpt>
      <trkpt lat="2.932346" lon="-75.18301">
        <ele>624.3</ele>
        <time>2021-08-21T11:02:50Z</time>
      </trkpt>
      <trkpt lat="2.932337" lon="-75.18295">
        <ele>624.3</ele>
        <time>2021-08-21T11:02:51Z</time>
      </trkpt>
      <trkpt lat="2.932313" lon="-75.18285">
        <ele>624.4</ele>
        <time>2021-08-21T11:02:53Z</time>
      </trkpt>
      <trkpt lat="2.932326" lon="-75.18291">
        <ele>624.4</ele>
        <time>2021-08-21T11:02:53Z</time>
      </trkpt>
      <trkpt lat="2.9323" lon="-75.18281">
        <ele>624.4</ele>
        <time>2021-08-21T11:02:54Z</time>
      </trkpt>
      <trkpt lat="2.932285" lon="-75.18276">
        <ele>624.4</ele>
        <time>2021-08-21T11:02:55Z</time>
      </trkpt>
      <trkpt lat="2.93227" lon="-75.18272">
        <ele>624.4</ele>
        <time>2021-08-21T11:02:56Z</time>
      </trkpt>
      <trkpt lat="2.932254" lon="-75.18266">
        <ele>624.4</ele>
        <time>2021-08-21T11:02:57Z</time>
      </trkpt>
      <trkpt lat="2.932238" lon="-75.18261">
        <ele>624.4</ele>
        <time>2021-08-21T11:02:58Z</time>
      </trkpt>
      <trkpt lat="2.932223" lon="-75.18256">
        <ele>624.4</ele>
        <time>2021-08-21T11:02:59Z</time>
      </trkpt>
      <trkpt lat="2.932191" lon="-75.182465">
        <ele>624.4</ele>
        <time>2021-08-21T11:03:01Z</time>
      </trkpt>
      <trkpt lat="2.932207" lon="-75.18251">
        <ele>624.4</ele>
        <time>2021-08-21T11:03:01Z</time>
      </trkpt>
      <trkpt lat="2.932175" lon="-75.18241">
        <ele>624.4</ele>
        <time>2021-08-21T11:03:02Z</time>
      </trkpt>
      <trkpt lat="2.932159" lon="-75.182365">
        <ele>624.5</ele>
        <time>2021-08-21T11:03:03Z</time>
      </trkpt>
      <trkpt lat="2.932143" lon="-75.18231">
        <ele>624.5</ele>
        <time>2021-08-21T11:03:04Z</time>
      </trkpt>
      <trkpt lat="2.932126" lon="-75.18226">
        <ele>624.6</ele>
        <time>2021-08-21T11:03:05Z</time>
      </trkpt>
      <trkpt lat="2.932109" lon="-75.18221">
        <ele>624.6</ele>
        <time>2021-08-21T11:03:06Z</time>
      </trkpt>
      <trkpt lat="2.932092" lon="-75.18216">
        <ele>624.7</ele>
        <time>2021-08-21T11:03:07Z</time>
      </trkpt>
      <trkpt lat="2.932075" lon="-75.182106">
        <ele>624.8</ele>
        <time>2021-08-21T11:03:08Z</time>
      </trkpt>
      <trkpt lat="2.932058" lon="-75.18206">
        <ele>624.9</ele>
        <time>2021-08-21T11:03:09Z</time>
      </trkpt>
      <trkpt lat="2.932042" lon="-75.18201">
        <ele>625.0</ele>
        <time>2021-08-21T11:03:10Z</time>
      </trkpt>
      <trkpt lat="2.932027" lon="-75.18196">
        <ele>625.1</ele>
        <time>2021-08-21T11:03:11Z</time>
      </trkpt>
      <trkpt lat="2.931995" lon="-75.18186">
        <ele>625.3</ele>
        <time>2021-08-21T11:03:13Z</time>
      </trkpt>
      <trkpt lat="2.932011" lon="-75.181915">
        <ele>625.2</ele>
        <time>2021-08-21T11:03:13Z</time>
      </trkpt>
      <trkpt lat="2.93198" lon="-75.181816">
        <ele>625.4</ele>
        <time>2021-08-21T11:03:14Z</time>
      </trkpt>
      <trkpt lat="2.931965" lon="-75.18177">
        <ele>625.6</ele>
        <time>2021-08-21T11:03:15Z</time>
      </trkpt>
      <trkpt lat="2.93195" lon="-75.181725">
        <ele>625.7</ele>
        <time>2021-08-21T11:03:17Z</time>
      </trkpt>
      <trkpt lat="2.931921" lon="-75.18163">
        <ele>626.0</ele>
        <time>2021-08-21T11:03:18Z</time>
      </trkpt>
      <trkpt lat="2.931935" lon="-75.18168">
        <ele>625.9</ele>
        <time>2021-08-21T11:03:18Z</time>
      </trkpt>
      <trkpt lat="2.931907" lon="-75.18159">
        <ele>626.2</ele>
        <time>2021-08-21T11:03:19Z</time>
      </trkpt>
      <trkpt lat="2.931895" lon="-75.18154">
        <ele>626.3</ele>
        <time>2021-08-21T11:03:20Z</time>
      </trkpt>
      <trkpt lat="2.931883" lon="-75.181496">
        <ele>626.5</ele>
        <time>2021-08-21T11:03:21Z</time>
      </trkpt>
      <trkpt lat="2.931869" lon="-75.18145">
        <ele>626.7</ele>
        <time>2021-08-21T11:03:22Z</time>
      </trkpt>
      <trkpt lat="2.931857" lon="-75.18141">
        <ele>626.9</ele>
        <time>2021-08-21T11:03:23Z</time>
      </trkpt>
      <trkpt lat="2.931831" lon="-75.18132">
        <ele>627.2</ele>
        <time>2021-08-21T11:03:25Z</time>
      </trkpt>
      <trkpt lat="2.931844" lon="-75.181366">
        <ele>627.1</ele>
        <time>2021-08-21T11:03:25Z</time>
      </trkpt>
      <trkpt lat="2.931818" lon="-75.18128">
        <ele>627.4</ele>
        <time>2021-08-21T11:03:26Z</time>
      </trkpt>
      <trkpt lat="2.931805" lon="-75.18124">
        <ele>627.6</ele>
        <time>2021-08-21T11:03:27Z</time>
      </trkpt>
      <trkpt lat="2.931791" lon="-75.18119">
        <ele>627.8</ele>
        <time>2021-08-21T11:03:28Z</time>
      </trkpt>
      <trkpt lat="2.931778" lon="-75.18115">
        <ele>628.0</ele>
        <time>2021-08-21T11:03:29Z</time>
      </trkpt>
      <trkpt lat="2.931765" lon="-75.18111">
        <ele>628.2</ele>
        <time>2021-08-21T11:03:30Z</time>
      </trkpt>
      <trkpt lat="2.931738" lon="-75.18102">
        <ele>628.6</ele>
        <time>2021-08-21T11:03:32Z</time>
      </trkpt>
      <trkpt lat="2.931752" lon="-75.18107">
        <ele>628.4</ele>
        <time>2021-08-21T11:03:32Z</time>
      </trkpt>
      <trkpt lat="2.931725" lon="-75.180984">
        <ele>628.8</ele>
        <time>2021-08-21T11:03:33Z</time>
      </trkpt>
      <trkpt lat="2.931712" lon="-75.18095">
        <ele>629.0</ele>
        <time>2021-08-21T11:03:34Z</time>
      </trkpt>
      <trkpt lat="2.931698" lon="-75.1809">
        <ele>629.2</ele>
        <time>2021-08-21T11:03:35Z</time>
      </trkpt>
      <trkpt lat="2.931684" lon="-75.18086">
        <ele>629.4</ele>
        <time>2021-08-21T11:03:36Z</time>
      </trkpt>
      <trkpt lat="2.931671" lon="-75.180824">
        <ele>629.6</ele>
        <time>2021-08-21T11:03:37Z</time>
      </trkpt>
      <trkpt lat="2.931659" lon="-75.180786">
        <ele>629.8</ele>
        <time>2021-08-21T11:03:38Z</time>
      </trkpt>
      <trkpt lat="2.931647" lon="-75.18075">
        <ele>630.0</ele>
        <time>2021-08-21T11:03:39Z</time>
      </trkpt>
      <trkpt lat="2.931637" lon="-75.18071">
        <ele>630.1</ele>
        <time>2021-08-21T11:03:40Z</time>
      </trkpt>
      <trkpt lat="2.931626" lon="-75.18067">
        <ele>630.3</ele>
        <time>2021-08-21T11:03:41Z</time>
      </trkpt>
      <trkpt lat="2.931616" lon="-75.18063">
        <ele>630.5</ele>
        <time>2021-08-21T11:03:42Z</time>
      </trkpt>
      <trkpt lat="2.931606" lon="-75.180595">
        <ele>630.7</ele>
        <time>2021-08-21T11:03:43Z</time>
      </trkpt>
      <trkpt lat="2.931597" lon="-75.18055">
        <ele>630.9</ele>
        <time>2021-08-21T11:03:44Z</time>
      </trkpt>
      <trkpt lat="2.931588" lon="-75.18051">
        <ele>631.1</ele>
        <time>2021-08-21T11:03:45Z</time>
      </trkpt>
      <trkpt lat="2.931579" lon="-75.18047">
        <ele>631.3</ele>
        <time>2021-08-21T11:03:46Z</time>
      </trkpt>
      <trkpt lat="2.931572" lon="-75.180435">
        <ele>631.4</ele>
        <time>2021-08-21T11:03:47Z</time>
      </trkpt>
      <trkpt lat="2.931563" lon="-75.180405">
        <ele>631.6</ele>
        <time>2021-08-21T11:03:48Z</time>
      </trkpt>
      <trkpt lat="2.931543" lon="-75.18033">
        <ele>631.9</ele>
        <time>2021-08-21T11:03:50Z</time>
      </trkpt>
      <trkpt lat="2.931553" lon="-75.18037">
        <ele>631.8</ele>
        <time>2021-08-21T11:03:50Z</time>
      </trkpt>
      <trkpt lat="2.931533" lon="-75.18029">
        <ele>632.1</ele>
        <time>2021-08-21T11:03:51Z</time>
      </trkpt>
      <trkpt lat="2.931523" lon="-75.18025">
        <ele>632.2</ele>
        <time>2021-08-21T11:03:52Z</time>
      </trkpt>
      <trkpt lat="2.931502" lon="-75.18018">
        <ele>632.5</ele>
        <time>2021-08-21T11:03:53Z</time>
      </trkpt>
      <trkpt lat="2.931512" lon="-75.18022">
        <ele>632.4</ele>
        <time>2021-08-21T11:03:53Z</time>
      </trkpt>
      <trkpt lat="2.931491" lon="-75.180145">
        <ele>632.7</ele>
        <time>2021-08-21T11:03:54Z</time>
      </trkpt>
      <trkpt lat="2.931471" lon="-75.18007">
        <ele>632.9</ele>
        <time>2021-08-21T11:03:56Z</time>
      </trkpt>
      <trkpt lat="2.931481" lon="-75.18011">
        <ele>632.8</ele>
        <time>2021-08-21T11:03:56Z</time>
      </trkpt>
      <trkpt lat="2.931461" lon="-75.18002">
        <ele>633.0</ele>
        <time>2021-08-21T11:03:57Z</time>
      </trkpt>
      <trkpt lat="2.93145" lon="-75.179985">
        <ele>633.1</ele>
        <time>2021-08-21T11:03:58Z</time>
      </trkpt>
      <trkpt lat="2.93144" lon="-75.17995">
        <ele>633.2</ele>
        <time>2021-08-21T11:03:59Z</time>
      </trkpt>
      <trkpt lat="2.93143" lon="-75.17991">
        <ele>633.3</ele>
        <time>2021-08-21T11:04:00Z</time>
      </trkpt>
      <trkpt lat="2.93142" lon="-75.17986">
        <ele>633.4</ele>
        <time>2021-08-21T11:04:01Z</time>
      </trkpt>
      <trkpt lat="2.931396" lon="-75.17978">
        <ele>633.5</ele>
        <time>2021-08-21T11:04:03Z</time>
      </trkpt>
      <trkpt lat="2.931409" lon="-75.179825">
        <ele>633.5</ele>
        <time>2021-08-21T11:04:03Z</time>
      </trkpt>
      <trkpt lat="2.931384" lon="-75.17973">
        <ele>633.6</ele>
        <time>2021-08-21T11:04:04Z</time>
      </trkpt>
      <trkpt lat="2.931372" lon="-75.179695">
        <ele>633.7</ele>
        <time>2021-08-21T11:04:05Z</time>
      </trkpt>
      <trkpt lat="2.93136" lon="-75.17966">
        <ele>633.7</ele>
        <time>2021-08-21T11:04:06Z</time>
      </trkpt>
      <trkpt lat="2.931347" lon="-75.17961">
        <ele>633.8</ele>
        <time>2021-08-21T11:04:07Z</time>
      </trkpt>
      <trkpt lat="2.931333" lon="-75.17957">
        <ele>633.9</ele>
        <time>2021-08-21T11:04:08Z</time>
      </trkpt>
      <trkpt lat="2.93132" lon="-75.17953">
        <ele>633.9</ele>
        <time>2021-08-21T11:04:09Z</time>
      </trkpt>
      <trkpt lat="2.931309" lon="-75.17949">
        <ele>634.0</ele>
        <time>2021-08-21T11:04:10Z</time>
      </trkpt>
      <trkpt lat="2.931297" lon="-75.17945">
        <ele>634.0</ele>
        <time>2021-08-21T11:04:11Z</time>
      </trkpt>
      <trkpt lat="2.931286" lon="-75.179405">
        <ele>634.1</ele>
        <time>2021-08-21T11:04:12Z</time>
      </trkpt>
      <trkpt lat="2.931275" lon="-75.17937">
        <ele>634.2</ele>
        <time>2021-08-21T11:04:13Z</time>
      </trkpt>
      <trkpt lat="2.931264" lon="-75.17932">
        <ele>634.2</ele>
        <time>2021-08-21T11:04:14Z</time>
      </trkpt>
      <trkpt lat="2.931241" lon="-75.17924">
        <ele>634.3</ele>
        <time>2021-08-21T11:04:16Z</time>
      </trkpt>
      <trkpt lat="2.931253" lon="-75.17928">
        <ele>634.3</ele>
        <time>2021-08-21T11:04:16Z</time>
      </trkpt>
      <trkpt lat="2.931228" lon="-75.17919">
        <ele>634.4</ele>
        <time>2021-08-21T11:04:17Z</time>
      </trkpt>
      <trkpt lat="2.931215" lon="-75.17915">
        <ele>634.5</ele>
        <time>2021-08-21T11:04:18Z</time>
      </trkpt>
      <trkpt lat="2.931203" lon="-75.17911">
        <ele>634.6</ele>
        <time>2021-08-21T11:04:19Z</time>
      </trkpt>
      <trkpt lat="2.931192" lon="-75.17907">
        <ele>634.6</ele>
        <time>2021-08-21T11:04:20Z</time>
      </trkpt>
      <trkpt lat="2.93118" lon="-75.17902">
        <ele>634.7</ele>
        <time>2021-08-21T11:04:21Z</time>
      </trkpt>
      <trkpt lat="2.931166" lon="-75.178986">
        <ele>634.8</ele>
        <time>2021-08-21T11:04:22Z</time>
      </trkpt>
      <trkpt lat="2.931154" lon="-75.17894">
        <ele>634.9</ele>
        <time>2021-08-21T11:04:23Z</time>
      </trkpt>
      <trkpt lat="2.931142" lon="-75.1789">
        <ele>634.9</ele>
        <time>2021-08-21T11:04:24Z</time>
      </trkpt>
      <trkpt lat="2.931129" lon="-75.178856">
        <ele>635.0</ele>
        <time>2021-08-21T11:04:25Z</time>
      </trkpt>
      <trkpt lat="2.931116" lon="-75.17882">
        <ele>635.0</ele>
        <time>2021-08-21T11:04:26Z</time>
      </trkpt>
      <trkpt lat="2.931103" lon="-75.17877">
        <ele>635.1</ele>
        <time>2021-08-21T11:04:27Z</time>
      </trkpt>
      <trkpt lat="2.931088" lon="-75.178734">
        <ele>635.2</ele>
        <time>2021-08-21T11:04:28Z</time>
      </trkpt>
      <trkpt lat="2.931075" lon="-75.17869">
        <ele>635.2</ele>
        <time>2021-08-21T11:04:29Z</time>
      </trkpt>
      <trkpt lat="2.931062" lon="-75.17865">
        <ele>635.3</ele>
        <time>2021-08-21T11:04:30Z</time>
      </trkpt>
      <trkpt lat="2.93105" lon="-75.178604">
        <ele>635.4</ele>
        <time>2021-08-21T11:04:31Z</time>
      </trkpt>
      <trkpt lat="2.931038" lon="-75.17856">
        <ele>635.5</ele>
        <time>2021-08-21T11:04:32Z</time>
      </trkpt>
      <trkpt lat="2.931013" lon="-75.178474">
        <ele>635.7</ele>
        <time>2021-08-21T11:04:34Z</time>
      </trkpt>
      <trkpt lat="2.931025" lon="-75.17851">
        <ele>635.6</ele>
        <time>2021-08-21T11:04:34Z</time>
      </trkpt>
      <trkpt lat="2.931001" lon="-75.17844">
        <ele>635.8</ele>
        <time>2021-08-21T11:04:35Z</time>
      </trkpt>
      <trkpt lat="2.930989" lon="-75.17839">
        <ele>635.9</ele>
        <time>2021-08-21T11:04:36Z</time>
      </trkpt>
      <trkpt lat="2.930976" lon="-75.178345">
        <ele>636.0</ele>
        <time>2021-08-21T11:04:37Z</time>
      </trkpt>
      <trkpt lat="2.930963" lon="-75.17831">
        <ele>636.0</ele>
        <time>2021-08-21T11:04:38Z</time>
      </trkpt>
      <trkpt lat="2.930952" lon="-75.17826">
        <ele>636.1</ele>
        <time>2021-08-21T11:04:39Z</time>
      </trkpt>
      <trkpt lat="2.930928" lon="-75.17818">
        <ele>636.3</ele>
        <time>2021-08-21T11:04:41Z</time>
      </trkpt>
      <trkpt lat="2.93094" lon="-75.178215">
        <ele>636.2</ele>
        <time>2021-08-21T11:04:41Z</time>
      </trkpt>
      <trkpt lat="2.930915" lon="-75.17813">
        <ele>636.4</ele>
        <time>2021-08-21T11:04:42Z</time>
      </trkpt>
      <trkpt lat="2.930901" lon="-75.178085">
        <ele>636.5</ele>
        <time>2021-08-21T11:04:43Z</time>
      </trkpt>
      <trkpt lat="2.930887" lon="-75.17804">
        <ele>636.6</ele>
        <time>2021-08-21T11:04:44Z</time>
      </trkpt>
      <trkpt lat="2.930873" lon="-75.17799">
        <ele>636.7</ele>
        <time>2021-08-21T11:04:45Z</time>
      </trkpt>
      <trkpt lat="2.930861" lon="-75.177956">
        <ele>636.7</ele>
        <time>2021-08-21T11:04:46Z</time>
      </trkpt>
      <trkpt lat="2.930835" lon="-75.177864">
        <ele>636.8</ele>
        <time>2021-08-21T11:04:48Z</time>
      </trkpt>
      <trkpt lat="2.930848" lon="-75.17791">
        <ele>636.8</ele>
        <time>2021-08-21T11:04:48Z</time>
      </trkpt>
      <trkpt lat="2.930821" lon="-75.17782">
        <ele>636.8</ele>
        <time>2021-08-21T11:04:49Z</time>
      </trkpt>
      <trkpt lat="2.930807" lon="-75.17777">
        <ele>636.9</ele>
        <time>2021-08-21T11:04:50Z</time>
      </trkpt>
      <trkpt lat="2.930795" lon="-75.177734">
        <ele>636.9</ele>
        <time>2021-08-21T11:04:51Z</time>
      </trkpt>
      <trkpt lat="2.930781" lon="-75.17769">
        <ele>636.9</ele>
        <time>2021-08-21T11:04:52Z</time>
      </trkpt>
      <trkpt lat="2.930767" lon="-75.17764">
        <ele>636.9</ele>
        <time>2021-08-21T11:04:53Z</time>
      </trkpt>
      <trkpt lat="2.930754" lon="-75.1776">
        <ele>636.9</ele>
        <time>2021-08-21T11:04:54Z</time>
      </trkpt>
      <trkpt lat="2.93074" lon="-75.17755">
        <ele>636.9</ele>
        <time>2021-08-21T11:04:55Z</time>
      </trkpt>
      <trkpt lat="2.930727" lon="-75.177505">
        <ele>636.9</ele>
        <time>2021-08-21T11:04:56Z</time>
      </trkpt>
      <trkpt lat="2.930699" lon="-75.17741">
        <ele>637.0</ele>
        <time>2021-08-21T11:04:58Z</time>
      </trkpt>
      <trkpt lat="2.930713" lon="-75.17746">
        <ele>637.0</ele>
        <time>2021-08-21T11:04:58Z</time>
      </trkpt>
      <trkpt lat="2.930685" lon="-75.17736">
        <ele>637.0</ele>
        <time>2021-08-21T11:04:59Z</time>
      </trkpt>
      <trkpt lat="2.930672" lon="-75.177315">
        <ele>637.0</ele>
        <time>2021-08-21T11:05:00Z</time>
      </trkpt>
      <trkpt lat="2.930658" lon="-75.17727">
        <ele>637.0</ele>
        <time>2021-08-21T11:05:01Z</time>
      </trkpt>
      <trkpt lat="2.930644" lon="-75.17722">
        <ele>636.9</ele>
        <time>2021-08-21T11:05:02Z</time>
      </trkpt>
      <trkpt lat="2.930631" lon="-75.17718">
        <ele>636.9</ele>
        <time>2021-08-21T11:05:03Z</time>
      </trkpt>
      <trkpt lat="2.930618" lon="-75.17713">
        <ele>636.9</ele>
        <time>2021-08-21T11:05:04Z</time>
      </trkpt>
      <trkpt lat="2.930603" lon="-75.17708">
        <ele>636.9</ele>
        <time>2021-08-21T11:05:05Z</time>
      </trkpt>
      <trkpt lat="2.930589" lon="-75.17703">
        <ele>636.9</ele>
        <time>2021-08-21T11:05:07Z</time>
      </trkpt>
      <trkpt lat="2.930557" lon="-75.17693">
        <ele>637.0</ele>
        <time>2021-08-21T11:05:08Z</time>
      </trkpt>
      <trkpt lat="2.930572" lon="-75.17698">
        <ele>636.9</ele>
        <time>2021-08-21T11:05:08Z</time>
      </trkpt>
      <trkpt lat="2.930541" lon="-75.17688">
        <ele>637.0</ele>
        <time>2021-08-21T11:05:09Z</time>
      </trkpt>
      <trkpt lat="2.930526" lon="-75.176834">
        <ele>637.0</ele>
        <time>2021-08-21T11:05:10Z</time>
      </trkpt>
      <trkpt lat="2.93051" lon="-75.17679">
        <ele>637.0</ele>
        <time>2021-08-21T11:05:11Z</time>
      </trkpt>
      <trkpt lat="2.930495" lon="-75.17674">
        <ele>637.1</ele>
        <time>2021-08-21T11:05:12Z</time>
      </trkpt>
      <trkpt lat="2.930465" lon="-75.176636">
        <ele>637.1</ele>
        <time>2021-08-21T11:05:14Z</time>
      </trkpt>
      <trkpt lat="2.93048" lon="-75.17669">
        <ele>637.1</ele>
        <time>2021-08-21T11:05:14Z</time>
      </trkpt>
      <trkpt lat="2.93045" lon="-75.17659">
        <ele>637.1</ele>
        <time>2021-08-21T11:05:15Z</time>
      </trkpt>
      <trkpt lat="2.930435" lon="-75.17654">
        <ele>637.2</ele>
        <time>2021-08-21T11:05:16Z</time>
      </trkpt>
      <trkpt lat="2.93042" lon="-75.17649">
        <ele>637.2</ele>
        <time>2021-08-21T11:05:17Z</time>
      </trkpt>
      <trkpt lat="2.930406" lon="-75.176445">
        <ele>637.3</ele>
        <time>2021-08-21T11:05:18Z</time>
      </trkpt>
      <trkpt lat="2.930391" lon="-75.17639">
        <ele>637.4</ele>
        <time>2021-08-21T11:05:19Z</time>
      </trkpt>
      <trkpt lat="2.930363" lon="-75.1763">
        <ele>637.6</ele>
        <time>2021-08-21T11:05:21Z</time>
      </trkpt>
      <trkpt lat="2.930376" lon="-75.176346">
        <ele>637.5</ele>
        <time>2021-08-21T11:05:21Z</time>
      </trkpt>
      <trkpt lat="2.930349" lon="-75.176254">
        <ele>637.7</ele>
        <time>2021-08-21T11:05:22Z</time>
      </trkpt>
      <trkpt lat="2.930337" lon="-75.17621">
        <ele>637.8</ele>
        <time>2021-08-21T11:05:23Z</time>
      </trkpt>
      <trkpt lat="2.930324" lon="-75.17617">
        <ele>637.9</ele>
        <time>2021-08-21T11:05:24Z</time>
      </trkpt>
      <trkpt lat="2.930312" lon="-75.176125">
        <ele>638.1</ele>
        <time>2021-08-21T11:05:25Z</time>
      </trkpt>
      <trkpt lat="2.930299" lon="-75.17608">
        <ele>638.2</ele>
        <time>2021-08-21T11:05:26Z</time>
      </trkpt>
      <trkpt lat="2.930275" lon="-75.17599">
        <ele>638.4</ele>
        <time>2021-08-21T11:05:28Z</time>
      </trkpt>
      <trkpt lat="2.930287" lon="-75.17603">
        <ele>638.3</ele>
        <time>2021-08-21T11:05:28Z</time>
      </trkpt>
      <trkpt lat="2.930262" lon="-75.17594">
        <ele>638.6</ele>
        <time>2021-08-21T11:05:29Z</time>
      </trkpt>
      <trkpt lat="2.93025" lon="-75.1759">
        <ele>638.7</ele>
        <time>2021-08-21T11:05:30Z</time>
      </trkpt>
      <trkpt lat="2.930238" lon="-75.17586">
        <ele>638.8</ele>
        <time>2021-08-21T11:05:31Z</time>
      </trkpt>
      <trkpt lat="2.930226" lon="-75.17581">
        <ele>638.9</ele>
        <time>2021-08-21T11:05:32Z</time>
      </trkpt>
      <trkpt lat="2.930213" lon="-75.175766">
        <ele>639.0</ele>
        <time>2021-08-21T11:05:33Z</time>
      </trkpt>
      <trkpt lat="2.930199" lon="-75.17572">
        <ele>639.1</ele>
        <time>2021-08-21T11:05:34Z</time>
      </trkpt>
      <trkpt lat="2.930186" lon="-75.17568">
        <ele>639.2</ele>
        <time>2021-08-21T11:05:35Z</time>
      </trkpt>
      <trkpt lat="2.930174" lon="-75.175644">
        <ele>639.3</ele>
        <time>2021-08-21T11:05:36Z</time>
      </trkpt>
      <trkpt lat="2.930162" lon="-75.175606">
        <ele>639.4</ele>
        <time>2021-08-21T11:05:37Z</time>
      </trkpt>
      <trkpt lat="2.930149" lon="-75.17556">
        <ele>639.4</ele>
        <time>2021-08-21T11:05:39Z</time>
      </trkpt>
      <trkpt lat="2.930122" lon="-75.17547">
        <ele>639.7</ele>
        <time>2021-08-21T11:05:40Z</time>
      </trkpt>
      <trkpt lat="2.930135" lon="-75.175514">
        <ele>639.6</ele>
        <time>2021-08-21T11:05:40Z</time>
      </trkpt>
      <trkpt lat="2.93011" lon="-75.17543">
        <ele>639.8</ele>
        <time>2021-08-21T11:05:41Z</time>
      </trkpt>
      <trkpt lat="2.930097" lon="-75.175385">
        <ele>639.9</ele>
        <time>2021-08-21T11:05:42Z</time>
      </trkpt>
      <trkpt lat="2.930086" lon="-75.17535">
        <ele>640.0</ele>
        <time>2021-08-21T11:05:43Z</time>
      </trkpt>
      <trkpt lat="2.930073" lon="-75.1753">
        <ele>640.1</ele>
        <time>2021-08-21T11:05:44Z</time>
      </trkpt>
      <trkpt lat="2.930051" lon="-75.175224">
        <ele>640.4</ele>
        <time>2021-08-21T11:05:46Z</time>
      </trkpt>
      <trkpt lat="2.930062" lon="-75.17526">
        <ele>640.3</ele>
        <time>2021-08-21T11:05:46Z</time>
      </trkpt>
      <trkpt lat="2.930039" lon="-75.175186">
        <ele>640.5</ele>
        <time>2021-08-21T11:05:47Z</time>
      </trkpt>
      <trkpt lat="2.930027" lon="-75.17514">
        <ele>640.7</ele>
        <time>2021-08-21T11:05:48Z</time>
      </trkpt>
      <trkpt lat="2.930014" lon="-75.1751">
        <ele>640.8</ele>
        <time>2021-08-21T11:05:49Z</time>
      </trkpt>
      <trkpt lat="2.930001" lon="-75.17506">
        <ele>640.9</ele>
        <time>2021-08-21T11:05:50Z</time>
      </trkpt>
      <trkpt lat="2.929986" lon="-75.17502">
        <ele>641.1</ele>
        <time>2021-08-21T11:05:51Z</time>
      </trkpt>
      <trkpt lat="2.929955" lon="-75.17494">
        <ele>641.3</ele>
        <time>2021-08-21T11:05:53Z</time>
      </trkpt>
      <trkpt lat="2.929972" lon="-75.17498">
        <ele>641.2</ele>
        <time>2021-08-21T11:05:53Z</time>
      </trkpt>
      <trkpt lat="2.929935" lon="-75.174904">
        <ele>641.4</ele>
        <time>2021-08-21T11:05:54Z</time>
      </trkpt>
      <trkpt lat="2.929914" lon="-75.174866">
        <ele>641.6</ele>
        <time>2021-08-21T11:05:55Z</time>
      </trkpt>
      <trkpt lat="2.929892" lon="-75.174835">
        <ele>641.7</ele>
        <time>2021-08-21T11:05:56Z</time>
      </trkpt>
      <trkpt lat="2.929867" lon="-75.174805">
        <ele>641.8</ele>
        <time>2021-08-21T11:05:57Z</time>
      </trkpt>
      <trkpt lat="2.92984" lon="-75.174774">
        <ele>642.0</ele>
        <time>2021-08-21T11:05:58Z</time>
      </trkpt>
      <trkpt lat="2.929781" lon="-75.17472">
        <ele>642.3</ele>
        <time>2021-08-21T11:06:00Z</time>
      </trkpt>
      <trkpt lat="2.929811" lon="-75.17474">
        <ele>642.1</ele>
        <time>2021-08-21T11:06:00Z</time>
      </trkpt>
      <trkpt lat="2.92975" lon="-75.17469">
        <ele>642.4</ele>
        <time>2021-08-21T11:06:01Z</time>
      </trkpt>
      <trkpt lat="2.929718" lon="-75.17467">
        <ele>642.6</ele>
        <time>2021-08-21T11:06:02Z</time>
      </trkpt>
      <trkpt lat="2.929684" lon="-75.17465">
        <ele>642.8</ele>
        <time>2021-08-21T11:06:03Z</time>
      </trkpt>
      <trkpt lat="2.929651" lon="-75.17463">
        <ele>642.9</ele>
        <time>2021-08-21T11:06:04Z</time>
      </trkpt>
      <trkpt lat="2.929614" lon="-75.17461">
        <ele>643.1</ele>
        <time>2021-08-21T11:06:05Z</time>
      </trkpt>
      <trkpt lat="2.929539" lon="-75.174576">
        <ele>643.5</ele>
        <time>2021-08-21T11:06:07Z</time>
      </trkpt>
      <trkpt lat="2.929576" lon="-75.17459">
        <ele>643.3</ele>
        <time>2021-08-21T11:06:07Z</time>
      </trkpt>
      <trkpt lat="2.929502" lon="-75.17456">
        <ele>643.6</ele>
        <time>2021-08-21T11:06:08Z</time>
      </trkpt>
      <trkpt lat="2.929464" lon="-75.17455">
        <ele>643.8</ele>
        <time>2021-08-21T11:06:09Z</time>
      </trkpt>
      <trkpt lat="2.929426" lon="-75.17454">
        <ele>643.9</ele>
        <time>2021-08-21T11:06:10Z</time>
      </trkpt>
      <trkpt lat="2.929387" lon="-75.17453">
        <ele>644.1</ele>
        <time>2021-08-21T11:06:11Z</time>
      </trkpt>
      <trkpt lat="2.929348" lon="-75.17452">
        <ele>644.2</ele>
        <time>2021-08-21T11:06:12Z</time>
      </trkpt>
      <trkpt lat="2.929309" lon="-75.17451">
        <ele>644.4</ele>
        <time>2021-08-21T11:06:13Z</time>
      </trkpt>
      <trkpt lat="2.92927" lon="-75.1745">
        <ele>644.5</ele>
        <time>2021-08-21T11:06:14Z</time>
      </trkpt>
      <trkpt lat="2.92923" lon="-75.17449">
        <ele>644.7</ele>
        <time>2021-08-21T11:06:15Z</time>
      </trkpt>
      <trkpt lat="2.929191" lon="-75.174484">
        <ele>644.8</ele>
        <time>2021-08-21T11:06:16Z</time>
      </trkpt>
      <trkpt lat="2.929151" lon="-75.17448">
        <ele>644.9</ele>
        <time>2021-08-21T11:06:17Z</time>
      </trkpt>
      <trkpt lat="2.929069" lon="-75.17445">
        <ele>645.1</ele>
        <time>2021-08-21T11:06:19Z</time>
      </trkpt>
      <trkpt lat="2.929111" lon="-75.17446">
        <ele>645.0</ele>
        <time>2021-08-21T11:06:19Z</time>
      </trkpt>
      <trkpt lat="2.929027" lon="-75.174446">
        <ele>645.2</ele>
        <time>2021-08-21T11:06:20Z</time>
      </trkpt>
      <trkpt lat="2.928984" lon="-75.17444">
        <ele>645.3</ele>
        <time>2021-08-21T11:06:21Z</time>
      </trkpt>
      <trkpt lat="2.928943" lon="-75.17443">
        <ele>645.3</ele>
        <time>2021-08-21T11:06:22Z</time>
      </trkpt>
      <trkpt lat="2.9289" lon="-75.17442">
        <ele>645.4</ele>
        <time>2021-08-21T11:06:23Z</time>
      </trkpt>
      <trkpt lat="2.928857" lon="-75.174416">
        <ele>645.4</ele>
        <time>2021-08-21T11:06:24Z</time>
      </trkpt>
      <trkpt lat="2.928814" lon="-75.1744">
        <ele>645.4</ele>
        <time>2021-08-21T11:06:25Z</time>
      </trkpt>
      <trkpt lat="2.928769" lon="-75.17439">
        <ele>645.4</ele>
        <time>2021-08-21T11:06:26Z</time>
      </trkpt>
      <trkpt lat="2.928724" lon="-75.174385">
        <ele>645.4</ele>
        <time>2021-08-21T11:06:27Z</time>
      </trkpt>
      <trkpt lat="2.928678" lon="-75.17438">
        <ele>645.4</ele>
        <time>2021-08-21T11:06:28Z</time>
      </trkpt>
      <trkpt lat="2.928632" lon="-75.17437">
        <ele>645.4</ele>
        <time>2021-08-21T11:06:29Z</time>
      </trkpt>
      <trkpt lat="2.928586" lon="-75.174355">
        <ele>645.4</ele>
        <time>2021-08-21T11:06:30Z</time>
      </trkpt>
      <trkpt lat="2.928539" lon="-75.17435">
        <ele>645.4</ele>
        <time>2021-08-21T11:06:31Z</time>
      </trkpt>
      <trkpt lat="2.928492" lon="-75.17434">
        <ele>645.4</ele>
        <time>2021-08-21T11:06:32Z</time>
      </trkpt>
      <trkpt lat="2.928445" lon="-75.174324">
        <ele>645.4</ele>
        <time>2021-08-21T11:06:33Z</time>
      </trkpt>
      <trkpt lat="2.928397" lon="-75.17432">
        <ele>645.5</ele>
        <time>2021-08-21T11:06:34Z</time>
      </trkpt>
      <trkpt lat="2.928351" lon="-75.17431">
        <ele>645.5</ele>
        <time>2021-08-21T11:06:35Z</time>
      </trkpt>
      <trkpt lat="2.928305" lon="-75.1743">
        <ele>645.6</ele>
        <time>2021-08-21T11:06:36Z</time>
      </trkpt>
      <trkpt lat="2.928217" lon="-75.174286">
        <ele>645.9</ele>
        <time>2021-08-21T11:06:38Z</time>
      </trkpt>
      <trkpt lat="2.928261" lon="-75.17429">
        <ele>645.7</ele>
        <time>2021-08-21T11:06:38Z</time>
      </trkpt>
      <trkpt lat="2.928175" lon="-75.17428">
        <ele>646.0</ele>
        <time>2021-08-21T11:06:39Z</time>
      </trkpt>
      <trkpt lat="2.928133" lon="-75.17427">
        <ele>646.1</ele>
        <time>2021-08-21T11:06:40Z</time>
      </trkpt>
      <trkpt lat="2.928092" lon="-75.17426">
        <ele>646.2</ele>
        <time>2021-08-21T11:06:41Z</time>
      </trkpt>
      <trkpt lat="2.928051" lon="-75.174255">
        <ele>646.4</ele>
        <time>2021-08-21T11:06:42Z</time>
      </trkpt>
      <trkpt lat="2.92801" lon="-75.17424">
        <ele>646.5</ele>
        <time>2021-08-21T11:06:43Z</time>
      </trkpt>
      <trkpt lat="2.92797" lon="-75.17423">
        <ele>646.6</ele>
        <time>2021-08-21T11:06:44Z</time>
      </trkpt>
      <trkpt lat="2.927931" lon="-75.174225">
        <ele>646.7</ele>
        <time>2021-08-21T11:06:45Z</time>
      </trkpt>
      <trkpt lat="2.927893" lon="-75.17421">
        <ele>646.7</ele>
        <time>2021-08-21T11:06:46Z</time>
      </trkpt>
      <trkpt lat="2.927855" lon="-75.174194">
        <ele>646.7</ele>
        <time>2021-08-21T11:06:47Z</time>
      </trkpt>
      <trkpt lat="2.927819" lon="-75.17418">
        <ele>646.7</ele>
        <time>2021-08-21T11:06:48Z</time>
      </trkpt>
      <trkpt lat="2.927783" lon="-75.17416">
        <ele>646.7</ele>
        <time>2021-08-21T11:06:49Z</time>
      </trkpt>
      <trkpt lat="2.927747" lon="-75.17413">
        <ele>646.6</ele>
        <time>2021-08-21T11:06:50Z</time>
      </trkpt>
      <trkpt lat="2.927711" lon="-75.17411">
        <ele>646.5</ele>
        <time>2021-08-21T11:06:51Z</time>
      </trkpt>
      <trkpt lat="2.927675" lon="-75.17407">
        <ele>646.4</ele>
        <time>2021-08-21T11:06:52Z</time>
      </trkpt>
      <trkpt lat="2.92764" lon="-75.17404">
        <ele>646.3</ele>
        <time>2021-08-21T11:06:53Z</time>
      </trkpt>
      <trkpt lat="2.927606" lon="-75.174">
        <ele>646.2</ele>
        <time>2021-08-21T11:06:54Z</time>
      </trkpt>
      <trkpt lat="2.927573" lon="-75.173965">
        <ele>646.1</ele>
        <time>2021-08-21T11:06:55Z</time>
      </trkpt>
      <trkpt lat="2.927543" lon="-75.17392">
        <ele>646.0</ele>
        <time>2021-08-21T11:06:56Z</time>
      </trkpt>
      <trkpt lat="2.927514" lon="-75.17388">
        <ele>646.0</ele>
        <time>2021-08-21T11:06:57Z</time>
      </trkpt>
      <trkpt lat="2.927487" lon="-75.173836">
        <ele>646.0</ele>
        <time>2021-08-21T11:06:58Z</time>
      </trkpt>
      <trkpt lat="2.927462" lon="-75.17379">
        <ele>646.0</ele>
        <time>2021-08-21T11:06:59Z</time>
      </trkpt>
      <trkpt lat="2.927437" lon="-75.173744">
        <ele>646.0</ele>
        <time>2021-08-21T11:07:00Z</time>
      </trkpt>
      <trkpt lat="2.927413" lon="-75.1737">
        <ele>646.0</ele>
        <time>2021-08-21T11:07:01Z</time>
      </trkpt>
      <trkpt lat="2.927389" lon="-75.17365">
        <ele>646.1</ele>
        <time>2021-08-21T11:07:02Z</time>
      </trkpt>
      <trkpt lat="2.927365" lon="-75.17361">
        <ele>646.2</ele>
        <time>2021-08-21T11:07:03Z</time>
      </trkpt>
      <trkpt lat="2.927319" lon="-75.17352">
        <ele>646.4</ele>
        <time>2021-08-21T11:07:05Z</time>
      </trkpt>
      <trkpt lat="2.927342" lon="-75.17356">
        <ele>646.3</ele>
        <time>2021-08-21T11:07:05Z</time>
      </trkpt>
      <trkpt lat="2.927296" lon="-75.17348">
        <ele>646.5</ele>
        <time>2021-08-21T11:07:06Z</time>
      </trkpt>
      <trkpt lat="2.927274" lon="-75.17344">
        <ele>646.5</ele>
        <time>2021-08-21T11:07:07Z</time>
      </trkpt>
      <trkpt lat="2.927251" lon="-75.17339">
        <ele>646.6</ele>
        <time>2021-08-21T11:07:08Z</time>
      </trkpt>
      <trkpt lat="2.927227" lon="-75.173355">
        <ele>646.6</ele>
        <time>2021-08-21T11:07:09Z</time>
      </trkpt>
      <trkpt lat="2.927203" lon="-75.17332">
        <ele>646.6</ele>
        <time>2021-08-21T11:07:10Z</time>
      </trkpt>
      <trkpt lat="2.927155" lon="-75.17323">
        <ele>646.5</ele>
        <time>2021-08-21T11:07:12Z</time>
      </trkpt>
      <trkpt lat="2.927179" lon="-75.17328">
        <ele>646.6</ele>
        <time>2021-08-21T11:07:12Z</time>
      </trkpt>
      <trkpt lat="2.92713" lon="-75.173195">
        <ele>646.4</ele>
        <time>2021-08-21T11:07:13Z</time>
      </trkpt>
      <trkpt lat="2.927105" lon="-75.17315">
        <ele>646.2</ele>
        <time>2021-08-21T11:07:14Z</time>
      </trkpt>
      <trkpt lat="2.927079" lon="-75.17311">
        <ele>645.9</ele>
        <time>2021-08-21T11:07:15Z</time>
      </trkpt>
      <trkpt lat="2.927051" lon="-75.173065">
        <ele>645.6</ele>
        <time>2021-08-21T11:07:16Z</time>
      </trkpt>
      <trkpt lat="2.92699" lon="-75.17297">
        <ele>644.8</ele>
        <time>2021-08-21T11:07:18Z</time>
      </trkpt>
      <trkpt lat="2.927021" lon="-75.17302">
        <ele>645.2</ele>
        <time>2021-08-21T11:07:18Z</time>
      </trkpt>
      <trkpt lat="2.926957" lon="-75.17293">
        <ele>644.4</ele>
        <time>2021-08-21T11:07:19Z</time>
      </trkpt>
      <trkpt lat="2.926922" lon="-75.172874">
        <ele>643.9</ele>
        <time>2021-08-21T11:07:20Z</time>
      </trkpt>
      <trkpt lat="2.926887" lon="-75.17282">
        <ele>643.4</ele>
        <time>2021-08-21T11:07:21Z</time>
      </trkpt>
      <trkpt lat="2.926853" lon="-75.17276">
        <ele>642.9</ele>
        <time>2021-08-21T11:07:22Z</time>
      </trkpt>
      <trkpt lat="2.92682" lon="-75.1727">
        <ele>642.4</ele>
        <time>2021-08-21T11:07:23Z</time>
      </trkpt>
      <trkpt lat="2.926759" lon="-75.17257">
        <ele>641.9</ele>
        <time>2021-08-21T11:07:25Z</time>
      </trkpt>
      <trkpt lat="2.926788" lon="-75.17263">
        <ele>642.1</ele>
        <time>2021-08-21T11:07:25Z</time>
      </trkpt>
      <trkpt lat="2.926732" lon="-75.1725">
        <ele>642.0</ele>
        <time>2021-08-21T11:07:26Z</time>
      </trkpt>
      <trkpt lat="2.926707" lon="-75.17244">
        <ele>642.3</ele>
        <time>2021-08-21T11:07:27Z</time>
      </trkpt>
      <trkpt lat="2.926684" lon="-75.172386">
        <ele>642.7</ele>
        <time>2021-08-21T11:07:28Z</time>
      </trkpt>
      <trkpt lat="2.926663" lon="-75.17234">
        <ele>643.3</ele>
        <time>2021-08-21T11:07:29Z</time>
      </trkpt>
      <trkpt lat="2.926643" lon="-75.172295">
        <ele>643.9</ele>
        <time>2021-08-21T11:07:30Z</time>
      </trkpt>
      <trkpt lat="2.926626" lon="-75.17225">
        <ele>644.6</ele>
        <time>2021-08-21T11:07:31Z</time>
      </trkpt>
      <trkpt lat="2.926612" lon="-75.17222">
        <ele>645.1</ele>
        <time>2021-08-21T11:07:32Z</time>
      </trkpt>
      <trkpt lat="2.926598" lon="-75.17218">
        <ele>645.6</ele>
        <time>2021-08-21T11:07:33Z</time>
      </trkpt>
      <trkpt lat="2.926586" lon="-75.17216">
        <ele>646.1</ele>
        <time>2021-08-21T11:07:34Z</time>
      </trkpt>
      <trkpt lat="2.926575" lon="-75.17213">
        <ele>646.4</ele>
        <time>2021-08-21T11:07:35Z</time>
      </trkpt>
      <trkpt lat="2.926565" lon="-75.1721">
        <ele>646.7</ele>
        <time>2021-08-21T11:07:36Z</time>
      </trkpt>
      <trkpt lat="2.926556" lon="-75.17207">
        <ele>647.1</ele>
        <time>2021-08-21T11:07:37Z</time>
      </trkpt>
      <trkpt lat="2.926549" lon="-75.17205">
        <ele>647.4</ele>
        <time>2021-08-21T11:07:38Z</time>
      </trkpt>
      <trkpt lat="2.926542" lon="-75.17203">
        <ele>647.7</ele>
        <time>2021-08-21T11:07:39Z</time>
      </trkpt>
      <trkpt lat="2.926535" lon="-75.172005">
        <ele>648.0</ele>
        <time>2021-08-21T11:07:40Z</time>
      </trkpt>
      <trkpt lat="2.926528" lon="-75.17198">
        <ele>648.3</ele>
        <time>2021-08-21T11:07:41Z</time>
      </trkpt>
      <trkpt lat="2.926514" lon="-75.17194">
        <ele>648.9</ele>
        <time>2021-08-21T11:07:43Z</time>
      </trkpt>
      <trkpt lat="2.926518" lon="-75.17195">
        <ele>648.8</ele>
        <time>2021-08-21T11:07:43Z</time>
      </trkpt>
      <trkpt lat="2.926507" lon="-75.17191">
        <ele>649.2</ele>
        <time>2021-08-21T11:07:44Z</time>
      </trkpt>
      <trkpt lat="2.9265" lon="-75.17189">
        <ele>649.5</ele>
        <time>2021-08-21T11:07:45Z</time>
      </trkpt>
      <trkpt lat="2.926493" lon="-75.17187">
        <ele>649.9</ele>
        <time>2021-08-21T11:07:46Z</time>
      </trkpt>
      <trkpt lat="2.926487" lon="-75.171844">
        <ele>650.1</ele>
        <time>2021-08-21T11:07:47Z</time>
      </trkpt>
      <trkpt lat="2.92648" lon="-75.17182">
        <ele>650.4</ele>
        <time>2021-08-21T11:07:48Z</time>
      </trkpt>
      <trkpt lat="2.926467" lon="-75.171776">
        <ele>650.9</ele>
        <time>2021-08-21T11:07:50Z</time>
      </trkpt>
      <trkpt lat="2.92647" lon="-75.17179">
        <ele>650.8</ele>
        <time>2021-08-21T11:07:50Z</time>
      </trkpt>
      <trkpt lat="2.926461" lon="-75.17175">
        <ele>651.1</ele>
        <time>2021-08-21T11:07:51Z</time>
      </trkpt>
      <trkpt lat="2.926454" lon="-75.17173">
        <ele>651.4</ele>
        <time>2021-08-21T11:07:52Z</time>
      </trkpt>
      <trkpt lat="2.926449" lon="-75.171715">
        <ele>651.6</ele>
        <time>2021-08-21T11:07:53Z</time>
      </trkpt>
      <trkpt lat="2.926444" lon="-75.171684">
        <ele>651.8</ele>
        <time>2021-08-21T11:07:54Z</time>
      </trkpt>
      <trkpt lat="2.926439" lon="-75.17166">
        <ele>652.0</ele>
        <time>2021-08-21T11:07:55Z</time>
      </trkpt>
      <trkpt lat="2.926431" lon="-75.171616">
        <ele>652.4</ele>
        <time>2021-08-21T11:07:57Z</time>
      </trkpt>
      <trkpt lat="2.926433" lon="-75.17163">
        <ele>652.3</ele>
        <time>2021-08-21T11:07:57Z</time>
      </trkpt>
      <trkpt lat="2.926426" lon="-75.17159">
        <ele>652.6</ele>
        <time>2021-08-21T11:07:58Z</time>
      </trkpt>
      <trkpt lat="2.926422" lon="-75.17157">
        <ele>652.8</ele>
        <time>2021-08-21T11:07:59Z</time>
      </trkpt>
      <trkpt lat="2.926416" lon="-75.17155">
        <ele>653.0</ele>
        <time>2021-08-21T11:08:00Z</time>
      </trkpt>
      <trkpt lat="2.926412" lon="-75.171524">
        <ele>653.2</ele>
        <time>2021-08-21T11:08:01Z</time>
      </trkpt>
      <trkpt lat="2.926407" lon="-75.17149">
        <ele>653.4</ele>
        <time>2021-08-21T11:08:02Z</time>
      </trkpt>
      <trkpt lat="2.926397" lon="-75.17145">
        <ele>653.8</ele>
        <time>2021-08-21T11:08:04Z</time>
      </trkpt>
      <trkpt lat="2.9264" lon="-75.171455">
        <ele>653.7</ele>
        <time>2021-08-21T11:08:04Z</time>
      </trkpt>
      <trkpt lat="2.926391" lon="-75.17142">
        <ele>654.0</ele>
        <time>2021-08-21T11:08:05Z</time>
      </trkpt>
      <trkpt lat="2.926385" lon="-75.171394">
        <ele>654.2</ele>
        <time>2021-08-21T11:08:06Z</time>
      </trkpt>
      <trkpt lat="2.92638" lon="-75.17137">
        <ele>654.4</ele>
        <time>2021-08-21T11:08:07Z</time>
      </trkpt>
      <trkpt lat="2.926369" lon="-75.17132">
        <ele>654.7</ele>
        <time>2021-08-21T11:08:08Z</time>
      </trkpt>
      <trkpt lat="2.926374" lon="-75.17134">
        <ele>654.6</ele>
        <time>2021-08-21T11:08:08Z</time>
      </trkpt>
      <trkpt lat="2.926363" lon="-75.17129">
        <ele>654.9</ele>
        <time>2021-08-21T11:08:09Z</time>
      </trkpt>
      <trkpt lat="2.926358" lon="-75.171265">
        <ele>655.1</ele>
        <time>2021-08-21T11:08:10Z</time>
      </trkpt>
      <trkpt lat="2.926354" lon="-75.171234">
        <ele>655.3</ele>
        <time>2021-08-21T11:08:11Z</time>
      </trkpt>
      <trkpt lat="2.926349" lon="-75.17121">
        <ele>655.5</ele>
        <time>2021-08-21T11:08:12Z</time>
      </trkpt>
      <trkpt lat="2.926344" lon="-75.17118">
        <ele>655.6</ele>
        <time>2021-08-21T11:08:13Z</time>
      </trkpt>
      <trkpt lat="2.926339" lon="-75.17115">
        <ele>655.8</ele>
        <time>2021-08-21T11:08:14Z</time>
      </trkpt>
      <trkpt lat="2.926329" lon="-75.1711">
        <ele>656.2</ele>
        <time>2021-08-21T11:08:16Z</time>
      </trkpt>
      <trkpt lat="2.926332" lon="-75.17111">
        <ele>656.1</ele>
        <time>2021-08-21T11:08:16Z</time>
      </trkpt>
      <trkpt lat="2.926324" lon="-75.17107">
        <ele>656.3</ele>
        <time>2021-08-21T11:08:17Z</time>
      </trkpt>
      <trkpt lat="2.926317" lon="-75.171036">
        <ele>656.5</ele>
        <time>2021-08-21T11:08:18Z</time>
      </trkpt>
      <trkpt lat="2.926311" lon="-75.171005">
        <ele>656.7</ele>
        <time>2021-08-21T11:08:19Z</time>
      </trkpt>
      <trkpt lat="2.926305" lon="-75.17098">
        <ele>656.8</ele>
        <time>2021-08-21T11:08:20Z</time>
      </trkpt>
      <trkpt lat="2.926299" lon="-75.17095">
        <ele>656.9</ele>
        <time>2021-08-21T11:08:21Z</time>
      </trkpt>
      <trkpt lat="2.926293" lon="-75.17092">
        <ele>657.1</ele>
        <time>2021-08-21T11:08:22Z</time>
      </trkpt>
      <trkpt lat="2.926286" lon="-75.17089">
        <ele>657.2</ele>
        <time>2021-08-21T11:08:23Z</time>
      </trkpt>
      <trkpt lat="2.926279" lon="-75.17086">
        <ele>657.3</ele>
        <time>2021-08-21T11:08:24Z</time>
      </trkpt>
      <trkpt lat="2.926273" lon="-75.17083">
        <ele>657.5</ele>
        <time>2021-08-21T11:08:25Z</time>
      </trkpt>
      <trkpt lat="2.926265" lon="-75.1708">
        <ele>657.6</ele>
        <time>2021-08-21T11:08:26Z</time>
      </trkpt>
      <trkpt lat="2.926257" lon="-75.17077">
        <ele>657.7</ele>
        <time>2021-08-21T11:08:27Z</time>
      </trkpt>
      <trkpt lat="2.926251" lon="-75.17073">
        <ele>657.8</ele>
        <time>2021-08-21T11:08:28Z</time>
      </trkpt>
      <trkpt lat="2.926244" lon="-75.1707">
        <ele>657.9</ele>
        <time>2021-08-21T11:08:29Z</time>
      </trkpt>
      <trkpt lat="2.926236" lon="-75.17067">
        <ele>658.0</ele>
        <time>2021-08-21T11:08:30Z</time>
      </trkpt>
      <trkpt lat="2.926229" lon="-75.17064">
        <ele>658.1</ele>
        <time>2021-08-21T11:08:31Z</time>
      </trkpt>
      <trkpt lat="2.926222" lon="-75.1706">
        <ele>658.2</ele>
        <time>2021-08-21T11:08:32Z</time>
      </trkpt>
      <trkpt lat="2.926207" lon="-75.17054">
        <ele>658.4</ele>
        <time>2021-08-21T11:08:34Z</time>
      </trkpt>
      <trkpt lat="2.926211" lon="-75.170555">
        <ele>658.3</ele>
        <time>2021-08-21T11:08:34Z</time>
      </trkpt>
      <trkpt lat="2.926199" lon="-75.1705">
        <ele>658.4</ele>
        <time>2021-08-21T11:08:35Z</time>
      </trkpt>
      <trkpt lat="2.926191" lon="-75.17047">
        <ele>658.5</ele>
        <time>2021-08-21T11:08:36Z</time>
      </trkpt>
      <trkpt lat="2.926183" lon="-75.17044">
        <ele>658.6</ele>
        <time>2021-08-21T11:08:37Z</time>
      </trkpt>
      <trkpt lat="2.926176" lon="-75.1704">
        <ele>658.7</ele>
        <time>2021-08-21T11:08:38Z</time>
      </trkpt>
      <trkpt lat="2.92617" lon="-75.17037">
        <ele>658.8</ele>
        <time>2021-08-21T11:08:39Z</time>
      </trkpt>
      <trkpt lat="2.926155" lon="-75.1703">
        <ele>658.9</ele>
        <time>2021-08-21T11:08:41Z</time>
      </trkpt>
      <trkpt lat="2.926159" lon="-75.17033">
        <ele>658.8</ele>
        <time>2021-08-21T11:08:41Z</time>
      </trkpt>
      <trkpt lat="2.926148" lon="-75.17027">
        <ele>658.9</ele>
        <time>2021-08-21T11:08:42Z</time>
      </trkpt>
      <trkpt lat="2.926141" lon="-75.170235">
        <ele>659.0</ele>
        <time>2021-08-21T11:08:43Z</time>
      </trkpt>
      <trkpt lat="2.926135" lon="-75.1702">
        <ele>659.1</ele>
        <time>2021-08-21T11:08:44Z</time>
      </trkpt>
      <trkpt lat="2.926128" lon="-75.170166">
        <ele>659.2</ele>
        <time>2021-08-21T11:08:45Z</time>
      </trkpt>
      <trkpt lat="2.926121" lon="-75.17013">
        <ele>659.3</ele>
        <time>2021-08-21T11:08:46Z</time>
      </trkpt>
      <trkpt lat="2.926114" lon="-75.1701">
        <ele>659.4</ele>
        <time>2021-08-21T11:08:47Z</time>
      </trkpt>
      <trkpt lat="2.926108" lon="-75.17006">
        <ele>659.5</ele>
        <time>2021-08-21T11:08:48Z</time>
      </trkpt>
      <trkpt lat="2.926101" lon="-75.17003">
        <ele>659.6</ele>
        <time>2021-08-21T11:08:49Z</time>
      </trkpt>
      <trkpt lat="2.926094" lon="-75.17">
        <ele>659.7</ele>
        <time>2021-08-21T11:08:50Z</time>
      </trkpt>
      <trkpt lat="2.926087" lon="-75.16996">
        <ele>659.8</ele>
        <time>2021-08-21T11:08:51Z</time>
      </trkpt>
      <trkpt lat="2.926079" lon="-75.16993">
        <ele>660.0</ele>
        <time>2021-08-21T11:08:52Z</time>
      </trkpt>
      <trkpt lat="2.926072" lon="-75.1699">
        <ele>660.1</ele>
        <time>2021-08-21T11:08:53Z</time>
      </trkpt>
      <trkpt lat="2.926065" lon="-75.16986">
        <ele>660.2</ele>
        <time>2021-08-21T11:08:54Z</time>
      </trkpt>
      <trkpt lat="2.926058" lon="-75.16983">
        <ele>660.4</ele>
        <time>2021-08-21T11:08:55Z</time>
      </trkpt>
      <trkpt lat="2.92605" lon="-75.1698">
        <ele>660.5</ele>
        <time>2021-08-21T11:08:56Z</time>
      </trkpt>
      <trkpt lat="2.926042" lon="-75.16976">
        <ele>660.7</ele>
        <time>2021-08-21T11:08:57Z</time>
      </trkpt>
      <trkpt lat="2.926034" lon="-75.16973">
        <ele>660.8</ele>
        <time>2021-08-21T11:08:58Z</time>
      </trkpt>
      <trkpt lat="2.926028" lon="-75.1697">
        <ele>660.9</ele>
        <time>2021-08-21T11:08:59Z</time>
      </trkpt>
      <trkpt lat="2.926021" lon="-75.16966">
        <ele>661.0</ele>
        <time>2021-08-21T11:09:00Z</time>
      </trkpt>
      <trkpt lat="2.926014" lon="-75.16963">
        <ele>661.2</ele>
        <time>2021-08-21T11:09:01Z</time>
      </trkpt>
      <trkpt lat="2.926006" lon="-75.16959">
        <ele>661.3</ele>
        <time>2021-08-21T11:09:02Z</time>
      </trkpt>
      <trkpt lat="2.925999" lon="-75.169556">
        <ele>661.4</ele>
        <time>2021-08-21T11:09:03Z</time>
      </trkpt>
      <trkpt lat="2.925992" lon="-75.16952">
        <ele>661.5</ele>
        <time>2021-08-21T11:09:04Z</time>
      </trkpt>
      <trkpt lat="2.925984" lon="-75.16948">
        <ele>661.6</ele>
        <time>2021-08-21T11:09:05Z</time>
      </trkpt>
      <trkpt lat="2.925977" lon="-75.16945">
        <ele>661.8</ele>
        <time>2021-08-21T11:09:06Z</time>
      </trkpt>
      <trkpt lat="2.925961" lon="-75.16937">
        <ele>662.0</ele>
        <time>2021-08-21T11:09:08Z</time>
      </trkpt>
      <trkpt lat="2.925969" lon="-75.16941">
        <ele>661.9</ele>
        <time>2021-08-21T11:09:08Z</time>
      </trkpt>
      <trkpt lat="2.925953" lon="-75.169334">
        <ele>662.1</ele>
        <time>2021-08-21T11:09:09Z</time>
      </trkpt>
      <trkpt lat="2.925946" lon="-75.169304">
        <ele>662.2</ele>
        <time>2021-08-21T11:09:10Z</time>
      </trkpt>
      <trkpt lat="2.925938" lon="-75.169266">
        <ele>662.3</ele>
        <time>2021-08-21T11:09:11Z</time>
      </trkpt>
      <trkpt lat="2.925923" lon="-75.1692">
        <ele>662.5</ele>
        <time>2021-08-21T11:09:13Z</time>
      </trkpt>
      <trkpt lat="2.925927" lon="-75.16921">
        <ele>662.4</ele>
        <time>2021-08-21T11:09:13Z</time>
      </trkpt>
      <trkpt lat="2.925916" lon="-75.16916">
        <ele>662.6</ele>
        <time>2021-08-21T11:09:14Z</time>
      </trkpt>
      <trkpt lat="2.92591" lon="-75.16913">
        <ele>662.7</ele>
        <time>2021-08-21T11:09:15Z</time>
      </trkpt>
      <trkpt lat="2.925902" lon="-75.16909">
        <ele>662.8</ele>
        <time>2021-08-21T11:09:16Z</time>
      </trkpt>
      <trkpt lat="2.925896" lon="-75.16905">
        <ele>662.9</ele>
        <time>2021-08-21T11:09:17Z</time>
      </trkpt>
      <trkpt lat="2.925889" lon="-75.169014">
        <ele>663.0</ele>
        <time>2021-08-21T11:09:18Z</time>
      </trkpt>
      <trkpt lat="2.925882" lon="-75.16898">
        <ele>663.0</ele>
        <time>2021-08-21T11:09:19Z</time>
      </trkpt>
      <trkpt lat="2.925874" lon="-75.168945">
        <ele>663.1</ele>
        <time>2021-08-21T11:09:20Z</time>
      </trkpt>
      <trkpt lat="2.925867" lon="-75.16891">
        <ele>663.2</ele>
        <time>2021-08-21T11:09:21Z</time>
      </trkpt>
      <trkpt lat="2.92586" lon="-75.16887">
        <ele>663.3</ele>
        <time>2021-08-21T11:09:22Z</time>
      </trkpt>
      <trkpt lat="2.925853" lon="-75.16883">
        <ele>663.4</ele>
        <time>2021-08-21T11:09:23Z</time>
      </trkpt>
      <trkpt lat="2.925846" lon="-75.16879">
        <ele>663.5</ele>
        <time>2021-08-21T11:09:24Z</time>
      </trkpt>
      <trkpt lat="2.925832" lon="-75.168724">
        <ele>663.7</ele>
        <time>2021-08-21T11:09:26Z</time>
      </trkpt>
      <trkpt lat="2.925839" lon="-75.16876">
        <ele>663.6</ele>
        <time>2021-08-21T11:09:26Z</time>
      </trkpt>
      <trkpt lat="2.925824" lon="-75.168686">
        <ele>663.7</ele>
        <time>2021-08-21T11:09:27Z</time>
      </trkpt>
      <trkpt lat="2.925816" lon="-75.16865">
        <ele>663.8</ele>
        <time>2021-08-21T11:09:28Z</time>
      </trkpt>
      <trkpt lat="2.925808" lon="-75.16861">
        <ele>663.9</ele>
        <time>2021-08-21T11:09:29Z</time>
      </trkpt>
      <trkpt lat="2.925791" lon="-75.16853">
        <ele>664.1</ele>
        <time>2021-08-21T11:09:31Z</time>
      </trkpt>
      <trkpt lat="2.925799" lon="-75.16857">
        <ele>664.0</ele>
        <time>2021-08-21T11:09:31Z</time>
      </trkpt>
      <trkpt lat="2.925783" lon="-75.1685">
        <ele>664.2</ele>
        <time>2021-08-21T11:09:32Z</time>
      </trkpt>
      <trkpt lat="2.925775" lon="-75.168465">
        <ele>664.3</ele>
        <time>2021-08-21T11:09:33Z</time>
      </trkpt>
      <trkpt lat="2.925767" lon="-75.16843">
        <ele>664.4</ele>
        <time>2021-08-21T11:09:34Z</time>
      </trkpt>
      <trkpt lat="2.925759" lon="-75.16839">
        <ele>664.5</ele>
        <time>2021-08-21T11:09:35Z</time>
      </trkpt>
      <trkpt lat="2.925751" lon="-75.16835">
        <ele>664.7</ele>
        <time>2021-08-21T11:09:36Z</time>
      </trkpt>
      <trkpt lat="2.925735" lon="-75.16828">
        <ele>664.9</ele>
        <time>2021-08-21T11:09:38Z</time>
      </trkpt>
      <trkpt lat="2.925743" lon="-75.16832">
        <ele>664.8</ele>
        <time>2021-08-21T11:09:38Z</time>
      </trkpt>
      <trkpt lat="2.925727" lon="-75.16824">
        <ele>665.0</ele>
        <time>2021-08-21T11:09:39Z</time>
      </trkpt>
      <trkpt lat="2.925718" lon="-75.16821">
        <ele>665.1</ele>
        <time>2021-08-21T11:09:40Z</time>
      </trkpt>
      <trkpt lat="2.92571" lon="-75.168175">
        <ele>665.2</ele>
        <time>2021-08-21T11:09:41Z</time>
      </trkpt>
      <trkpt lat="2.925702" lon="-75.16814">
        <ele>665.3</ele>
        <time>2021-08-21T11:09:42Z</time>
      </trkpt>
      <trkpt lat="2.925694" lon="-75.168106">
        <ele>665.4</ele>
        <time>2021-08-21T11:09:43Z</time>
      </trkpt>
      <trkpt lat="2.925686" lon="-75.16807">
        <ele>665.5</ele>
        <time>2021-08-21T11:09:44Z</time>
      </trkpt>
      <trkpt lat="2.925679" lon="-75.16804">
        <ele>665.6</ele>
        <time>2021-08-21T11:09:45Z</time>
      </trkpt>
      <trkpt lat="2.925671" lon="-75.168">
        <ele>665.7</ele>
        <time>2021-08-21T11:09:46Z</time>
      </trkpt>
      <trkpt lat="2.925664" lon="-75.16797">
        <ele>665.8</ele>
        <time>2021-08-21T11:09:47Z</time>
      </trkpt>
      <trkpt lat="2.925656" lon="-75.16793">
        <ele>665.9</ele>
        <time>2021-08-21T11:09:48Z</time>
      </trkpt>
      <trkpt lat="2.925649" lon="-75.1679">
        <ele>666.0</ele>
        <time>2021-08-21T11:09:49Z</time>
      </trkpt>
      <trkpt lat="2.925641" lon="-75.16786">
        <ele>666.1</ele>
        <time>2021-08-21T11:09:50Z</time>
      </trkpt>
      <trkpt lat="2.925633" lon="-75.16783">
        <ele>666.3</ele>
        <time>2021-08-21T11:09:51Z</time>
      </trkpt>
      <trkpt lat="2.925625" lon="-75.16779">
        <ele>666.4</ele>
        <time>2021-08-21T11:09:52Z</time>
      </trkpt>
      <trkpt lat="2.925618" lon="-75.167755">
        <ele>666.5</ele>
        <time>2021-08-21T11:09:53Z</time>
      </trkpt>
      <trkpt lat="2.925613" lon="-75.167725">
        <ele>666.6</ele>
        <time>2021-08-21T11:09:54Z</time>
      </trkpt>
      <trkpt lat="2.925606" lon="-75.16769">
        <ele>666.7</ele>
        <time>2021-08-21T11:09:55Z</time>
      </trkpt>
      <trkpt lat="2.9256" lon="-75.167656">
        <ele>666.8</ele>
        <time>2021-08-21T11:09:56Z</time>
      </trkpt>
      <trkpt lat="2.925593" lon="-75.16762">
        <ele>666.9</ele>
        <time>2021-08-21T11:09:57Z</time>
      </trkpt>
      <trkpt lat="2.925587" lon="-75.16759">
        <ele>667.1</ele>
        <time>2021-08-21T11:09:58Z</time>
      </trkpt>
      <trkpt lat="2.92558" lon="-75.16755">
        <ele>667.2</ele>
        <time>2021-08-21T11:09:59Z</time>
      </trkpt>
      <trkpt lat="2.925573" lon="-75.16752">
        <ele>667.3</ele>
        <time>2021-08-21T11:10:00Z</time>
      </trkpt>
      <trkpt lat="2.925567" lon="-75.16748">
        <ele>667.4</ele>
        <time>2021-08-21T11:10:01Z</time>
      </trkpt>
      <trkpt lat="2.925559" lon="-75.16745">
        <ele>667.5</ele>
        <time>2021-08-21T11:10:02Z</time>
      </trkpt>
      <trkpt lat="2.925552" lon="-75.16742">
        <ele>667.6</ele>
        <time>2021-08-21T11:10:03Z</time>
      </trkpt>
      <trkpt lat="2.92554" lon="-75.16735">
        <ele>667.8</ele>
        <time>2021-08-21T11:10:05Z</time>
      </trkpt>
      <trkpt lat="2.925543" lon="-75.167366">
        <ele>667.8</ele>
        <time>2021-08-21T11:10:05Z</time>
      </trkpt>
      <trkpt lat="2.925532" lon="-75.16732">
        <ele>668.0</ele>
        <time>2021-08-21T11:10:06Z</time>
      </trkpt>
      <trkpt lat="2.925525" lon="-75.16728">
        <ele>668.1</ele>
        <time>2021-08-21T11:10:07Z</time>
      </trkpt>
      <trkpt lat="2.925518" lon="-75.16725">
        <ele>668.2</ele>
        <time>2021-08-21T11:10:08Z</time>
      </trkpt>
      <trkpt lat="2.92551" lon="-75.16722">
        <ele>668.3</ele>
        <time>2021-08-21T11:10:09Z</time>
      </trkpt>
      <trkpt lat="2.925503" lon="-75.16719">
        <ele>668.4</ele>
        <time>2021-08-21T11:10:10Z</time>
      </trkpt>
      <trkpt lat="2.925487" lon="-75.16712">
        <ele>668.6</ele>
        <time>2021-08-21T11:10:12Z</time>
      </trkpt>
      <trkpt lat="2.925491" lon="-75.16714">
        <ele>668.5</ele>
        <time>2021-08-21T11:10:12Z</time>
      </trkpt>
      <trkpt lat="2.92548" lon="-75.16709">
        <ele>668.7</ele>
        <time>2021-08-21T11:10:13Z</time>
      </trkpt>
      <trkpt lat="2.925472" lon="-75.16705">
        <ele>668.8</ele>
        <time>2021-08-21T11:10:14Z</time>
      </trkpt>
      <trkpt lat="2.925466" lon="-75.16702">
        <ele>668.9</ele>
        <time>2021-08-21T11:10:15Z</time>
      </trkpt>
      <trkpt lat="2.925461" lon="-75.16699">
        <ele>669.0</ele>
        <time>2021-08-21T11:10:16Z</time>
      </trkpt>
      <trkpt lat="2.925449" lon="-75.16692">
        <ele>669.3</ele>
        <time>2021-08-21T11:10:18Z</time>
      </trkpt>
      <trkpt lat="2.925452" lon="-75.16694">
        <ele>669.2</ele>
        <time>2021-08-21T11:10:18Z</time>
      </trkpt>
      <trkpt lat="2.925442" lon="-75.16689">
        <ele>669.4</ele>
        <time>2021-08-21T11:10:19Z</time>
      </trkpt>
      <trkpt lat="2.925435" lon="-75.166855">
        <ele>669.5</ele>
        <time>2021-08-21T11:10:20Z</time>
      </trkpt>
      <trkpt lat="2.925427" lon="-75.166824">
        <ele>669.6</ele>
        <time>2021-08-21T11:10:21Z</time>
      </trkpt>
      <trkpt lat="2.92542" lon="-75.16679">
        <ele>669.7</ele>
        <time>2021-08-21T11:10:22Z</time>
      </trkpt>
      <trkpt lat="2.925413" lon="-75.166756">
        <ele>669.9</ele>
        <time>2021-08-21T11:10:23Z</time>
      </trkpt>
      <trkpt lat="2.9254" lon="-75.16669">
        <ele>670.1</ele>
        <time>2021-08-21T11:10:25Z</time>
      </trkpt>
      <trkpt lat="2.925403" lon="-75.1667">
        <ele>670.1</ele>
        <time>2021-08-21T11:10:25Z</time>
      </trkpt>
      <trkpt lat="2.925393" lon="-75.16666">
        <ele>670.3</ele>
        <time>2021-08-21T11:10:26Z</time>
      </trkpt>
      <trkpt lat="2.925386" lon="-75.16662">
        <ele>670.4</ele>
        <time>2021-08-21T11:10:27Z</time>
      </trkpt>
      <trkpt lat="2.925379" lon="-75.16659">
        <ele>670.6</ele>
        <time>2021-08-21T11:10:28Z</time>
      </trkpt>
      <trkpt lat="2.925372" lon="-75.16656">
        <ele>670.7</ele>
        <time>2021-08-21T11:10:29Z</time>
      </trkpt>
      <trkpt lat="2.925365" lon="-75.16652">
        <ele>670.8</ele>
        <time>2021-08-21T11:10:30Z</time>
      </trkpt>
      <trkpt lat="2.925358" lon="-75.16649">
        <ele>671.0</ele>
        <time>2021-08-21T11:10:31Z</time>
      </trkpt>
      <trkpt lat="2.925351" lon="-75.16646">
        <ele>671.1</ele>
        <time>2021-08-21T11:10:32Z</time>
      </trkpt>
      <trkpt lat="2.925344" lon="-75.16642">
        <ele>671.3</ele>
        <time>2021-08-21T11:10:33Z</time>
      </trkpt>
      <trkpt lat="2.925338" lon="-75.16639">
        <ele>671.4</ele>
        <time>2021-08-21T11:10:34Z</time>
      </trkpt>
      <trkpt lat="2.925332" lon="-75.16636">
        <ele>671.6</ele>
        <time>2021-08-21T11:10:35Z</time>
      </trkpt>
      <trkpt lat="2.925325" lon="-75.16633">
        <ele>671.8</ele>
        <time>2021-08-21T11:10:36Z</time>
      </trkpt>
      <trkpt lat="2.925317" lon="-75.1663">
        <ele>671.9</ele>
        <time>2021-08-21T11:10:37Z</time>
      </trkpt>
      <trkpt lat="2.92531" lon="-75.16626">
        <ele>672.1</ele>
        <time>2021-08-21T11:10:38Z</time>
      </trkpt>
      <trkpt lat="2.925304" lon="-75.16623">
        <ele>672.3</ele>
        <time>2021-08-21T11:10:39Z</time>
      </trkpt>
      <trkpt lat="2.925297" lon="-75.1662">
        <ele>672.5</ele>
        <time>2021-08-21T11:10:40Z</time>
      </trkpt>
      <trkpt lat="2.925289" lon="-75.16617">
        <ele>672.7</ele>
        <time>2021-08-21T11:10:41Z</time>
      </trkpt>
      <trkpt lat="2.925276" lon="-75.1661">
        <ele>673.0</ele>
        <time>2021-08-21T11:10:43Z</time>
      </trkpt>
      <trkpt lat="2.92528" lon="-75.16612">
        <ele>672.9</ele>
        <time>2021-08-21T11:10:43Z</time>
      </trkpt>
      <trkpt lat="2.92527" lon="-75.16608">
        <ele>673.2</ele>
        <time>2021-08-21T11:10:44Z</time>
      </trkpt>
      <trkpt lat="2.925264" lon="-75.166046">
        <ele>673.3</ele>
        <time>2021-08-21T11:10:45Z</time>
      </trkpt>
      <trkpt lat="2.925258" lon="-75.16601">
        <ele>673.5</ele>
        <time>2021-08-21T11:10:46Z</time>
      </trkpt>
      <trkpt lat="2.925251" lon="-75.16598">
        <ele>673.7</ele>
        <time>2021-08-21T11:10:47Z</time>
      </trkpt>
      <trkpt lat="2.925245" lon="-75.16595">
        <ele>673.9</ele>
        <time>2021-08-21T11:10:48Z</time>
      </trkpt>
      <trkpt lat="2.925232" lon="-75.165886">
        <ele>674.2</ele>
        <time>2021-08-21T11:10:50Z</time>
      </trkpt>
      <trkpt lat="2.925236" lon="-75.1659">
        <ele>674.1</ele>
        <time>2021-08-21T11:10:50Z</time>
      </trkpt>
      <trkpt lat="2.925225" lon="-75.165855">
        <ele>674.4</ele>
        <time>2021-08-21T11:10:51Z</time>
      </trkpt>
      <trkpt lat="2.925218" lon="-75.16582">
        <ele>674.6</ele>
        <time>2021-08-21T11:10:52Z</time>
      </trkpt>
      <trkpt lat="2.925211" lon="-75.16579">
        <ele>674.7</ele>
        <time>2021-08-21T11:10:53Z</time>
      </trkpt>
      <trkpt lat="2.925204" lon="-75.16576">
        <ele>674.9</ele>
        <time>2021-08-21T11:10:54Z</time>
      </trkpt>
      <trkpt lat="2.925196" lon="-75.16572">
        <ele>675.1</ele>
        <time>2021-08-21T11:10:55Z</time>
      </trkpt>
      <trkpt lat="2.925183" lon="-75.16566">
        <ele>675.4</ele>
        <time>2021-08-21T11:10:57Z</time>
      </trkpt>
      <trkpt lat="2.925186" lon="-75.16567">
        <ele>675.4</ele>
        <time>2021-08-21T11:10:57Z</time>
      </trkpt>
      <trkpt lat="2.925176" lon="-75.16562">
        <ele>675.6</ele>
        <time>2021-08-21T11:10:58Z</time>
      </trkpt>
      <trkpt lat="2.92517" lon="-75.16559">
        <ele>675.8</ele>
        <time>2021-08-21T11:10:59Z</time>
      </trkpt>
      <trkpt lat="2.925164" lon="-75.16556">
        <ele>675.9</ele>
        <time>2021-08-21T11:11:00Z</time>
      </trkpt>
      <trkpt lat="2.925157" lon="-75.16553">
        <ele>676.1</ele>
        <time>2021-08-21T11:11:01Z</time>
      </trkpt>
      <trkpt lat="2.925151" lon="-75.1655">
        <ele>676.3</ele>
        <time>2021-08-21T11:11:02Z</time>
      </trkpt>
      <trkpt lat="2.925144" lon="-75.16546">
        <ele>676.5</ele>
        <time>2021-08-21T11:11:03Z</time>
      </trkpt>
      <trkpt lat="2.925137" lon="-75.16543">
        <ele>676.6</ele>
        <time>2021-08-21T11:11:04Z</time>
      </trkpt>
      <trkpt lat="2.92513" lon="-75.1654">
        <ele>676.8</ele>
        <time>2021-08-21T11:11:05Z</time>
      </trkpt>
      <trkpt lat="2.925122" lon="-75.16537">
        <ele>676.9</ele>
        <time>2021-08-21T11:11:06Z</time>
      </trkpt>
      <trkpt lat="2.925115" lon="-75.16533">
        <ele>677.1</ele>
        <time>2021-08-21T11:11:07Z</time>
      </trkpt>
      <trkpt lat="2.925108" lon="-75.1653">
        <ele>677.3</ele>
        <time>2021-08-21T11:11:08Z</time>
      </trkpt>
      <trkpt lat="2.925093" lon="-75.16524">
        <ele>677.6</ele>
        <time>2021-08-21T11:11:10Z</time>
      </trkpt>
      <trkpt lat="2.925097" lon="-75.16525">
        <ele>677.5</ele>
        <time>2021-08-21T11:11:10Z</time>
      </trkpt>
      <trkpt lat="2.925087" lon="-75.1652">
        <ele>677.8</ele>
        <time>2021-08-21T11:11:11Z</time>
      </trkpt>
      <trkpt lat="2.925081" lon="-75.16517">
        <ele>677.9</ele>
        <time>2021-08-21T11:11:12Z</time>
      </trkpt>
      <trkpt lat="2.925074" lon="-75.16514">
        <ele>678.1</ele>
        <time>2021-08-21T11:11:13Z</time>
      </trkpt>
      <trkpt lat="2.925068" lon="-75.16511">
        <ele>678.3</ele>
        <time>2021-08-21T11:11:14Z</time>
      </trkpt>
      <trkpt lat="2.925054" lon="-75.16504">
        <ele>678.6</ele>
        <time>2021-08-21T11:11:16Z</time>
      </trkpt>
      <trkpt lat="2.925058" lon="-75.165054">
        <ele>678.5</ele>
        <time>2021-08-21T11:11:16Z</time>
      </trkpt>
      <trkpt lat="2.925047" lon="-75.16501">
        <ele>678.8</ele>
        <time>2021-08-21T11:11:17Z</time>
      </trkpt>
      <trkpt lat="2.92504" lon="-75.16498">
        <ele>678.9</ele>
        <time>2021-08-21T11:11:18Z</time>
      </trkpt>
      <trkpt lat="2.925033" lon="-75.16495">
        <ele>679.1</ele>
        <time>2021-08-21T11:11:19Z</time>
      </trkpt>
      <trkpt lat="2.925025" lon="-75.16491">
        <ele>679.3</ele>
        <time>2021-08-21T11:11:20Z</time>
      </trkpt>
      <trkpt lat="2.925016" lon="-75.16488">
        <ele>679.4</ele>
        <time>2021-08-21T11:11:21Z</time>
      </trkpt>
      <trkpt lat="2.925001" lon="-75.16481">
        <ele>679.8</ele>
        <time>2021-08-21T11:11:23Z</time>
      </trkpt>
      <trkpt lat="2.925005" lon="-75.164825">
        <ele>679.7</ele>
        <time>2021-08-21T11:11:23Z</time>
      </trkpt>
      <trkpt lat="2.924994" lon="-75.16478">
        <ele>679.9</ele>
        <time>2021-08-21T11:11:24Z</time>
      </trkpt>
      <trkpt lat="2.924988" lon="-75.16475">
        <ele>680.1</ele>
        <time>2021-08-21T11:11:25Z</time>
      </trkpt>
      <trkpt lat="2.924981" lon="-75.16472">
        <ele>680.2</ele>
        <time>2021-08-21T11:11:26Z</time>
      </trkpt>
      <trkpt lat="2.924974" lon="-75.16468">
        <ele>680.4</ele>
        <time>2021-08-21T11:11:27Z</time>
      </trkpt>
      <trkpt lat="2.924967" lon="-75.16465">
        <ele>680.6</ele>
        <time>2021-08-21T11:11:28Z</time>
      </trkpt>
      <trkpt lat="2.924954" lon="-75.16458">
        <ele>680.9</ele>
        <time>2021-08-21T11:11:30Z</time>
      </trkpt>
      <trkpt lat="2.924957" lon="-75.1646">
        <ele>680.8</ele>
        <time>2021-08-21T11:11:30Z</time>
      </trkpt>
      <trkpt lat="2.924948" lon="-75.16455">
        <ele>681.0</ele>
        <time>2021-08-21T11:11:31Z</time>
      </trkpt>
      <trkpt lat="2.924941" lon="-75.16451">
        <ele>681.2</ele>
        <time>2021-08-21T11:11:32Z</time>
      </trkpt>
      <trkpt lat="2.924927" lon="-75.16445">
        <ele>681.5</ele>
        <time>2021-08-21T11:11:34Z</time>
      </trkpt>
      <trkpt lat="2.924931" lon="-75.16447">
        <ele>681.4</ele>
        <time>2021-08-21T11:11:34Z</time>
      </trkpt>
      <trkpt lat="2.92492" lon="-75.16441">
        <ele>681.7</ele>
        <time>2021-08-21T11:11:35Z</time>
      </trkpt>
      <trkpt lat="2.924913" lon="-75.16438">
        <ele>681.8</ele>
        <time>2021-08-21T11:11:36Z</time>
      </trkpt>
      <trkpt lat="2.924906" lon="-75.16435">
        <ele>682.0</ele>
        <time>2021-08-21T11:11:37Z</time>
      </trkpt>
      <trkpt lat="2.9249" lon="-75.164314">
        <ele>682.2</ele>
        <time>2021-08-21T11:11:38Z</time>
      </trkpt>
      <trkpt lat="2.924893" lon="-75.16428">
        <ele>682.4</ele>
        <time>2021-08-21T11:11:39Z</time>
      </trkpt>
      <trkpt lat="2.924879" lon="-75.16422">
        <ele>682.7</ele>
        <time>2021-08-21T11:11:41Z</time>
      </trkpt>
      <trkpt lat="2.924883" lon="-75.16424">
        <ele>682.6</ele>
        <time>2021-08-21T11:11:41Z</time>
      </trkpt>
      <trkpt lat="2.924871" lon="-75.16419">
        <ele>682.9</ele>
        <time>2021-08-21T11:11:42Z</time>
      </trkpt>
      <trkpt lat="2.924863" lon="-75.16416">
        <ele>683.0</ele>
        <time>2021-08-21T11:11:43Z</time>
      </trkpt>
      <trkpt lat="2.924856" lon="-75.16412">
        <ele>683.2</ele>
        <time>2021-08-21T11:11:44Z</time>
      </trkpt>
      <trkpt lat="2.92485" lon="-75.1641">
        <ele>683.3</ele>
        <time>2021-08-21T11:11:45Z</time>
      </trkpt>
      <trkpt lat="2.924844" lon="-75.16407">
        <ele>683.5</ele>
        <time>2021-08-21T11:11:46Z</time>
      </trkpt>
      <trkpt lat="2.924832" lon="-75.164">
        <ele>683.8</ele>
        <time>2021-08-21T11:11:48Z</time>
      </trkpt>
      <trkpt lat="2.924835" lon="-75.16402">
        <ele>683.7</ele>
        <time>2021-08-21T11:11:48Z</time>
      </trkpt>
      <trkpt lat="2.924826" lon="-75.16397">
        <ele>684.0</ele>
        <time>2021-08-21T11:11:49Z</time>
      </trkpt>
      <trkpt lat="2.924819" lon="-75.16394">
        <ele>684.1</ele>
        <time>2021-08-21T11:11:50Z</time>
      </trkpt>
      <trkpt lat="2.924811" lon="-75.16391">
        <ele>684.3</ele>
        <time>2021-08-21T11:11:51Z</time>
      </trkpt>
      <trkpt lat="2.924803" lon="-75.16388">
        <ele>684.4</ele>
        <time>2021-08-21T11:11:52Z</time>
      </trkpt>
      <trkpt lat="2.924795" lon="-75.16385">
        <ele>684.6</ele>
        <time>2021-08-21T11:11:53Z</time>
      </trkpt>
      <trkpt lat="2.92478" lon="-75.16379">
        <ele>684.9</ele>
        <time>2021-08-21T11:11:55Z</time>
      </trkpt>
      <trkpt lat="2.924784" lon="-75.1638">
        <ele>684.8</ele>
        <time>2021-08-21T11:11:55Z</time>
      </trkpt>
      <trkpt lat="2.924772" lon="-75.16376">
        <ele>685.0</ele>
        <time>2021-08-21T11:11:56Z</time>
      </trkpt>
      <trkpt lat="2.924763" lon="-75.163734">
        <ele>685.1</ele>
        <time>2021-08-21T11:11:57Z</time>
      </trkpt>
      <trkpt lat="2.924752" lon="-75.163704">
        <ele>685.3</ele>
        <time>2021-08-21T11:11:58Z</time>
      </trkpt>
      <trkpt lat="2.924741" lon="-75.16367">
        <ele>685.4</ele>
        <time>2021-08-21T11:11:59Z</time>
      </trkpt>
      <trkpt lat="2.924729" lon="-75.16364">
        <ele>685.6</ele>
        <time>2021-08-21T11:12:00Z</time>
      </trkpt>
      <trkpt lat="2.924717" lon="-75.16361">
        <ele>685.7</ele>
        <time>2021-08-21T11:12:01Z</time>
      </trkpt>
      <trkpt lat="2.924704" lon="-75.16359">
        <ele>685.9</ele>
        <time>2021-08-21T11:12:02Z</time>
      </trkpt>
      <trkpt lat="2.92469" lon="-75.16356">
        <ele>686.1</ele>
        <time>2021-08-21T11:12:03Z</time>
      </trkpt>
      <trkpt lat="2.924676" lon="-75.16353">
        <ele>686.2</ele>
        <time>2021-08-21T11:12:04Z</time>
      </trkpt>
      <trkpt lat="2.924661" lon="-75.1635">
        <ele>686.4</ele>
        <time>2021-08-21T11:12:05Z</time>
      </trkpt>
      <trkpt lat="2.924647" lon="-75.163475">
        <ele>686.5</ele>
        <time>2021-08-21T11:12:06Z</time>
      </trkpt>
      <trkpt lat="2.924632" lon="-75.16345">
        <ele>686.7</ele>
        <time>2021-08-21T11:12:07Z</time>
      </trkpt>
      <trkpt lat="2.924616" lon="-75.16342">
        <ele>686.9</ele>
        <time>2021-08-21T11:12:08Z</time>
      </trkpt>
      <trkpt lat="2.924598" lon="-75.16339">
        <ele>687.1</ele>
        <time>2021-08-21T11:12:09Z</time>
      </trkpt>
      <trkpt lat="2.92458" lon="-75.16337">
        <ele>687.2</ele>
        <time>2021-08-21T11:12:10Z</time>
      </trkpt>
      <trkpt lat="2.924562" lon="-75.163345">
        <ele>687.4</ele>
        <time>2021-08-21T11:12:11Z</time>
      </trkpt>
      <trkpt lat="2.924543" lon="-75.163315">
        <ele>687.5</ele>
        <time>2021-08-21T11:12:12Z</time>
      </trkpt>
      <trkpt lat="2.924523" lon="-75.16329">
        <ele>687.7</ele>
        <time>2021-08-21T11:12:13Z</time>
      </trkpt>
      <trkpt lat="2.924503" lon="-75.16327">
        <ele>687.9</ele>
        <time>2021-08-21T11:12:14Z</time>
      </trkpt>
      <trkpt lat="2.924482" lon="-75.16324">
        <ele>688.0</ele>
        <time>2021-08-21T11:12:15Z</time>
      </trkpt>
      <trkpt lat="2.924462" lon="-75.163216">
        <ele>688.2</ele>
        <time>2021-08-21T11:12:16Z</time>
      </trkpt>
      <trkpt lat="2.924441" lon="-75.16319">
        <ele>688.4</ele>
        <time>2021-08-21T11:12:17Z</time>
      </trkpt>
      <trkpt lat="2.924418" lon="-75.16317">
        <ele>688.5</ele>
        <time>2021-08-21T11:12:18Z</time>
      </trkpt>
      <trkpt lat="2.924394" lon="-75.16314">
        <ele>688.7</ele>
        <time>2021-08-21T11:12:19Z</time>
      </trkpt>
      <trkpt lat="2.924346" lon="-75.1631">
        <ele>689.1</ele>
        <time>2021-08-21T11:12:21Z</time>
      </trkpt>
      <trkpt lat="2.924358" lon="-75.16311">
        <ele>689.0</ele>
        <time>2021-08-21T11:12:21Z</time>
      </trkpt>
      <trkpt lat="2.924321" lon="-75.16308">
        <ele>689.3</ele>
        <time>2021-08-21T11:12:22Z</time>
      </trkpt>
      <trkpt lat="2.924266" lon="-75.16304">
        <ele>689.7</ele>
        <time>2021-08-21T11:12:23Z</time>
      </trkpt>
      <trkpt lat="2.924294" lon="-75.163055">
        <ele>689.5</ele>
        <time>2021-08-21T11:12:23Z</time>
      </trkpt>
      <trkpt lat="2.924239" lon="-75.16302">
        <ele>689.9</ele>
        <time>2021-08-21T11:12:24Z</time>
      </trkpt>
      <trkpt lat="2.924214" lon="-75.163">
        <ele>690.0</ele>
        <time>2021-08-21T11:12:25Z</time>
      </trkpt>
      <trkpt lat="2.924161" lon="-75.16296">
        <ele>690.4</ele>
        <time>2021-08-21T11:12:27Z</time>
      </trkpt>
      <trkpt lat="2.924175" lon="-75.16297">
        <ele>690.3</ele>
        <time>2021-08-21T11:12:27Z</time>
      </trkpt>
      <trkpt lat="2.924134" lon="-75.16294">
        <ele>690.6</ele>
        <time>2021-08-21T11:12:28Z</time>
      </trkpt>
      <trkpt lat="2.924107" lon="-75.162926">
        <ele>690.8</ele>
        <time>2021-08-21T11:12:29Z</time>
      </trkpt>
      <trkpt lat="2.92408" lon="-75.1629">
        <ele>691.0</ele>
        <time>2021-08-21T11:12:30Z</time>
      </trkpt>
      <trkpt lat="2.924054" lon="-75.16289">
        <ele>691.2</ele>
        <time>2021-08-21T11:12:31Z</time>
      </trkpt>
      <trkpt lat="2.924025" lon="-75.16287">
        <ele>691.4</ele>
        <time>2021-08-21T11:12:32Z</time>
      </trkpt>
      <trkpt lat="2.923996" lon="-75.16286">
        <ele>691.5</ele>
        <time>2021-08-21T11:12:33Z</time>
      </trkpt>
      <trkpt lat="2.923967" lon="-75.16284">
        <ele>691.7</ele>
        <time>2021-08-21T11:12:34Z</time>
      </trkpt>
      <trkpt lat="2.92394" lon="-75.162834">
        <ele>691.9</ele>
        <time>2021-08-21T11:12:35Z</time>
      </trkpt>
      <trkpt lat="2.923912" lon="-75.16282">
        <ele>692.1</ele>
        <time>2021-08-21T11:12:36Z</time>
      </trkpt>
      <trkpt lat="2.923881" lon="-75.16281">
        <ele>692.3</ele>
        <time>2021-08-21T11:12:37Z</time>
      </trkpt>
      <trkpt lat="2.923851" lon="-75.162796">
        <ele>692.5</ele>
        <time>2021-08-21T11:12:38Z</time>
      </trkpt>
      <trkpt lat="2.92382" lon="-75.16279">
        <ele>692.6</ele>
        <time>2021-08-21T11:12:39Z</time>
      </trkpt>
      <trkpt lat="2.92379" lon="-75.16278">
        <ele>692.8</ele>
        <time>2021-08-21T11:12:40Z</time>
      </trkpt>
      <trkpt lat="2.923728" lon="-75.16276">
        <ele>693.2</ele>
        <time>2021-08-21T11:12:42Z</time>
      </trkpt>
      <trkpt lat="2.923745" lon="-75.162766">
        <ele>693.1</ele>
        <time>2021-08-21T11:12:42Z</time>
      </trkpt>
      <trkpt lat="2.923696" lon="-75.16275">
        <ele>693.3</ele>
        <time>2021-08-21T11:12:43Z</time>
      </trkpt>
      <trkpt lat="2.923663" lon="-75.16274">
        <ele>693.5</ele>
        <time>2021-08-21T11:12:44Z</time>
      </trkpt>
      <trkpt lat="2.923634" lon="-75.162735">
        <ele>693.7</ele>
        <time>2021-08-21T11:12:45Z</time>
      </trkpt>
      <trkpt lat="2.923604" lon="-75.16273">
        <ele>693.9</ele>
        <time>2021-08-21T11:12:46Z</time>
      </trkpt>
      <trkpt lat="2.92357" lon="-75.16272">
        <ele>694.0</ele>
        <time>2021-08-21T11:12:47Z</time>
      </trkpt>
      <trkpt lat="2.923537" lon="-75.16271">
        <ele>694.2</ele>
        <time>2021-08-21T11:12:48Z</time>
      </trkpt>
      <trkpt lat="2.923505" lon="-75.162704">
        <ele>694.4</ele>
        <time>2021-08-21T11:12:49Z</time>
      </trkpt>
      <trkpt lat="2.923475" lon="-75.1627">
        <ele>694.6</ele>
        <time>2021-08-21T11:12:50Z</time>
      </trkpt>
      <trkpt lat="2.923445" lon="-75.16269">
        <ele>694.7</ele>
        <time>2021-08-21T11:12:51Z</time>
      </trkpt>
      <trkpt lat="2.923413" lon="-75.16268">
        <ele>694.9</ele>
        <time>2021-08-21T11:12:52Z</time>
      </trkpt>
      <trkpt lat="2.923381" lon="-75.16268">
        <ele>695.1</ele>
        <time>2021-08-21T11:12:53Z</time>
      </trkpt>
      <trkpt lat="2.923349" lon="-75.162674">
        <ele>695.3</ele>
        <time>2021-08-21T11:12:54Z</time>
      </trkpt>
      <trkpt lat="2.923319" lon="-75.16267">
        <ele>695.4</ele>
        <time>2021-08-21T11:12:55Z</time>
      </trkpt>
      <trkpt lat="2.923289" lon="-75.16266">
        <ele>695.6</ele>
        <time>2021-08-21T11:12:56Z</time>
      </trkpt>
      <trkpt lat="2.923255" lon="-75.16265">
        <ele>695.8</ele>
        <time>2021-08-21T11:12:57Z</time>
      </trkpt>
      <trkpt lat="2.923189" lon="-75.162636">
        <ele>696.1</ele>
        <time>2021-08-21T11:12:59Z</time>
      </trkpt>
      <trkpt lat="2.923206" lon="-75.16264">
        <ele>696.0</ele>
        <time>2021-08-21T11:12:59Z</time>
      </trkpt>
      <trkpt lat="2.923158" lon="-75.162636">
        <ele>696.3</ele>
        <time>2021-08-21T11:13:00Z</time>
      </trkpt>
      <trkpt lat="2.923127" lon="-75.16263">
        <ele>696.5</ele>
        <time>2021-08-21T11:13:01Z</time>
      </trkpt>
      <trkpt lat="2.923093" lon="-75.16262">
        <ele>696.6</ele>
        <time>2021-08-21T11:13:02Z</time>
      </trkpt>
      <trkpt lat="2.923059" lon="-75.16262">
        <ele>696.8</ele>
        <time>2021-08-21T11:13:03Z</time>
      </trkpt>
      <trkpt lat="2.923024" lon="-75.16261">
        <ele>697.0</ele>
        <time>2021-08-21T11:13:04Z</time>
      </trkpt>
      <trkpt lat="2.922961" lon="-75.1626">
        <ele>697.3</ele>
        <time>2021-08-21T11:13:06Z</time>
      </trkpt>
      <trkpt lat="2.922977" lon="-75.162605">
        <ele>697.2</ele>
        <time>2021-08-21T11:13:06Z</time>
      </trkpt>
      <trkpt lat="2.922927" lon="-75.16259">
        <ele>697.4</ele>
        <time>2021-08-21T11:13:07Z</time>
      </trkpt>
      <trkpt lat="2.922893" lon="-75.16259">
        <ele>697.6</ele>
        <time>2021-08-21T11:13:08Z</time>
      </trkpt>
      <trkpt lat="2.92286" lon="-75.16258">
        <ele>697.7</ele>
        <time>2021-08-21T11:13:09Z</time>
      </trkpt>
      <trkpt lat="2.922827" lon="-75.162575">
        <ele>697.8</ele>
        <time>2021-08-21T11:13:10Z</time>
      </trkpt>
      <trkpt lat="2.922763" lon="-75.16256">
        <ele>698.1</ele>
        <time>2021-08-21T11:13:12Z</time>
      </trkpt>
      <trkpt lat="2.92278" lon="-75.16257">
        <ele>698.0</ele>
        <time>2021-08-21T11:13:12Z</time>
      </trkpt>
      <trkpt lat="2.922729" lon="-75.16255">
        <ele>698.2</ele>
        <time>2021-08-21T11:13:13Z</time>
      </trkpt>
      <trkpt lat="2.922696" lon="-75.16255">
        <ele>698.3</ele>
        <time>2021-08-21T11:13:14Z</time>
      </trkpt>
      <trkpt lat="2.922663" lon="-75.162544">
        <ele>698.4</ele>
        <time>2021-08-21T11:13:15Z</time>
      </trkpt>
      <trkpt lat="2.92263" lon="-75.16254">
        <ele>698.5</ele>
        <time>2021-08-21T11:13:16Z</time>
      </trkpt>
      <trkpt lat="2.922596" lon="-75.16253">
        <ele>698.6</ele>
        <time>2021-08-21T11:13:17Z</time>
      </trkpt>
      <trkpt lat="2.922528" lon="-75.16251">
        <ele>698.8</ele>
        <time>2021-08-21T11:13:19Z</time>
      </trkpt>
      <trkpt lat="2.922545" lon="-75.16252">
        <ele>698.7</ele>
        <time>2021-08-21T11:13:19Z</time>
      </trkpt>
      <trkpt lat="2.922496" lon="-75.16251">
        <ele>698.8</ele>
        <time>2021-08-21T11:13:20Z</time>
      </trkpt>
      <trkpt lat="2.922462" lon="-75.162506">
        <ele>698.9</ele>
        <time>2021-08-21T11:13:21Z</time>
      </trkpt>
      <trkpt lat="2.922423" lon="-75.1625">
        <ele>699.0</ele>
        <time>2021-08-21T11:13:22Z</time>
      </trkpt>
      <trkpt lat="2.922385" lon="-75.16249">
        <ele>699.0</ele>
        <time>2021-08-21T11:13:23Z</time>
      </trkpt>
      <trkpt lat="2.922347" lon="-75.16248">
        <ele>699.1</ele>
        <time>2021-08-21T11:13:24Z</time>
      </trkpt>
      <trkpt lat="2.922309" lon="-75.162476">
        <ele>699.1</ele>
        <time>2021-08-21T11:13:25Z</time>
      </trkpt>
      <trkpt lat="2.922272" lon="-75.16247">
        <ele>699.1</ele>
        <time>2021-08-21T11:13:26Z</time>
      </trkpt>
      <trkpt lat="2.922235" lon="-75.16246">
        <ele>699.2</ele>
        <time>2021-08-21T11:13:27Z</time>
      </trkpt>
      <trkpt lat="2.922198" lon="-75.16245">
        <ele>699.2</ele>
        <time>2021-08-21T11:13:28Z</time>
      </trkpt>
      <trkpt lat="2.922126" lon="-75.16244">
        <ele>699.2</ele>
        <time>2021-08-21T11:13:30Z</time>
      </trkpt>
      <trkpt lat="2.922161" lon="-75.162445">
        <ele>699.2</ele>
        <time>2021-08-21T11:13:30Z</time>
      </trkpt>
      <trkpt lat="2.922091" lon="-75.16243">
        <ele>699.2</ele>
        <time>2021-08-21T11:13:31Z</time>
      </trkpt>
      <trkpt lat="2.922052" lon="-75.16242">
        <ele>699.1</ele>
        <time>2021-08-21T11:13:32Z</time>
      </trkpt>
      <trkpt lat="2.922013" lon="-75.162415">
        <ele>699.1</ele>
        <time>2021-08-21T11:13:33Z</time>
      </trkpt>
      <trkpt lat="2.921972" lon="-75.16241">
        <ele>699.1</ele>
        <time>2021-08-21T11:13:34Z</time>
      </trkpt>
      <trkpt lat="2.921931" lon="-75.1624">
        <ele>699.0</ele>
        <time>2021-08-21T11:13:35Z</time>
      </trkpt>
      <trkpt lat="2.921846" lon="-75.162384">
        <ele>698.9</ele>
        <time>2021-08-21T11:13:37Z</time>
      </trkpt>
      <trkpt lat="2.921891" lon="-75.16239">
        <ele>698.9</ele>
        <time>2021-08-21T11:13:37Z</time>
      </trkpt>
      <trkpt lat="2.921801" lon="-75.16238">
        <ele>698.8</ele>
        <time>2021-08-21T11:13:38Z</time>
      </trkpt>
      <trkpt lat="2.921756" lon="-75.16237">
        <ele>698.7</ele>
        <time>2021-08-21T11:13:39Z</time>
      </trkpt>
      <trkpt lat="2.921712" lon="-75.16235">
        <ele>698.6</ele>
        <time>2021-08-21T11:13:40Z</time>
      </trkpt>
      <trkpt lat="2.921664" lon="-75.162346">
        <ele>698.5</ele>
        <time>2021-08-21T11:13:41Z</time>
      </trkpt>
      <trkpt lat="2.921616" lon="-75.16234">
        <ele>698.4</ele>
        <time>2021-08-21T11:13:42Z</time>
      </trkpt>
      <trkpt lat="2.921521" lon="-75.16232">
        <ele>698.2</ele>
        <time>2021-08-21T11:13:44Z</time>
      </trkpt>
      <trkpt lat="2.921568" lon="-75.16233">
        <ele>698.3</ele>
        <time>2021-08-21T11:13:44Z</time>
      </trkpt>
      <trkpt lat="2.921476" lon="-75.162315">
        <ele>698.1</ele>
        <time>2021-08-21T11:13:45Z</time>
      </trkpt>
      <trkpt lat="2.921427" lon="-75.16231">
        <ele>698.0</ele>
        <time>2021-08-21T11:13:46Z</time>
      </trkpt>
      <trkpt lat="2.921374" lon="-75.1623">
        <ele>697.9</ele>
        <time>2021-08-21T11:13:47Z</time>
      </trkpt>
      <trkpt lat="2.921319" lon="-75.16229">
        <ele>697.7</ele>
        <time>2021-08-21T11:13:48Z</time>
      </trkpt>
      <trkpt lat="2.921264" lon="-75.16229">
        <ele>697.6</ele>
        <time>2021-08-21T11:13:49Z</time>
      </trkpt>
      <trkpt lat="2.92121" lon="-75.162285">
        <ele>697.4</ele>
        <time>2021-08-21T11:13:50Z</time>
      </trkpt>
      <trkpt lat="2.921155" lon="-75.162285">
        <ele>697.3</ele>
        <time>2021-08-21T11:13:51Z</time>
      </trkpt>
      <trkpt lat="2.921099" lon="-75.162285">
        <ele>697.2</ele>
        <time>2021-08-21T11:13:52Z</time>
      </trkpt>
      <trkpt lat="2.920987" lon="-75.162285">
        <ele>696.9</ele>
        <time>2021-08-21T11:13:54Z</time>
      </trkpt>
      <trkpt lat="2.921043" lon="-75.162285">
        <ele>697.0</ele>
        <time>2021-08-21T11:13:54Z</time>
      </trkpt>
      <trkpt lat="2.920929" lon="-75.162285">
        <ele>696.8</ele>
        <time>2021-08-21T11:13:55Z</time>
      </trkpt>
      <trkpt lat="2.920871" lon="-75.16229">
        <ele>696.7</ele>
        <time>2021-08-21T11:13:56Z</time>
      </trkpt>
      <trkpt lat="2.920811" lon="-75.16231">
        <ele>696.6</ele>
        <time>2021-08-21T11:13:57Z</time>
      </trkpt>
      <trkpt lat="2.920751" lon="-75.162315">
        <ele>696.5</ele>
        <time>2021-08-21T11:13:58Z</time>
      </trkpt>
      <trkpt lat="2.92069" lon="-75.16233">
        <ele>696.5</ele>
        <time>2021-08-21T11:13:59Z</time>
      </trkpt>
      <trkpt lat="2.920629" lon="-75.162346">
        <ele>696.4</ele>
        <time>2021-08-21T11:14:00Z</time>
      </trkpt>
      <trkpt lat="2.920569" lon="-75.16236">
        <ele>696.3</ele>
        <time>2021-08-21T11:14:01Z</time>
      </trkpt>
      <trkpt lat="2.92051" lon="-75.16238">
        <ele>696.3</ele>
        <time>2021-08-21T11:14:02Z</time>
      </trkpt>
      <trkpt lat="2.920394" lon="-75.162415">
        <ele>696.2</ele>
        <time>2021-08-21T11:14:04Z</time>
      </trkpt>
      <trkpt lat="2.920451" lon="-75.1624">
        <ele>696.2</ele>
        <time>2021-08-21T11:14:04Z</time>
      </trkpt>
      <trkpt lat="2.920338" lon="-75.16244">
        <ele>696.1</ele>
        <time>2021-08-21T11:14:05Z</time>
      </trkpt>
      <trkpt lat="2.920282" lon="-75.16245">
        <ele>696.0</ele>
        <time>2021-08-21T11:14:06Z</time>
      </trkpt>
      <trkpt lat="2.920226" lon="-75.16247">
        <ele>695.9</ele>
        <time>2021-08-21T11:14:07Z</time>
      </trkpt>
      <trkpt lat="2.920169" lon="-75.162476">
        <ele>695.8</ele>
        <time>2021-08-21T11:14:08Z</time>
      </trkpt>
      <trkpt lat="2.920115" lon="-75.16247">
        <ele>695.7</ele>
        <time>2021-08-21T11:14:09Z</time>
      </trkpt>
      <trkpt lat="2.920017" lon="-75.16244">
        <ele>695.5</ele>
        <time>2021-08-21T11:14:11Z</time>
      </trkpt>
      <trkpt lat="2.920064" lon="-75.16246">
        <ele>695.6</ele>
        <time>2021-08-21T11:14:11Z</time>
      </trkpt>
      <trkpt lat="2.919975" lon="-75.16241">
        <ele>695.4</ele>
        <time>2021-08-21T11:14:12Z</time>
      </trkpt>
      <trkpt lat="2.919937" lon="-75.16238">
        <ele>695.3</ele>
        <time>2021-08-21T11:14:13Z</time>
      </trkpt>
      <trkpt lat="2.919904" lon="-75.16234">
        <ele>695.3</ele>
        <time>2021-08-21T11:14:14Z</time>
      </trkpt>
      <trkpt lat="2.919876" lon="-75.16229">
        <ele>695.3</ele>
        <time>2021-08-21T11:14:15Z</time>
      </trkpt>
      <trkpt lat="2.919831" lon="-75.16221">
        <ele>695.6</ele>
        <time>2021-08-21T11:14:17Z</time>
      </trkpt>
      <trkpt lat="2.919851" lon="-75.162254">
        <ele>695.4</ele>
        <time>2021-08-21T11:14:17Z</time>
      </trkpt>
      <trkpt lat="2.919816" lon="-75.16217">
        <ele>695.7</ele>
        <time>2021-08-21T11:14:18Z</time>
      </trkpt>
      <trkpt lat="2.919803" lon="-75.16213">
        <ele>695.9</ele>
        <time>2021-08-21T11:14:19Z</time>
      </trkpt>
      <trkpt lat="2.919792" lon="-75.162094">
        <ele>696.1</ele>
        <time>2021-08-21T11:14:20Z</time>
      </trkpt>
      <trkpt lat="2.919784" lon="-75.16205">
        <ele>696.2</ele>
        <time>2021-08-21T11:14:21Z</time>
      </trkpt>
      <trkpt lat="2.91978" lon="-75.16201">
        <ele>696.4</ele>
        <time>2021-08-21T11:14:22Z</time>
      </trkpt>
      <trkpt lat="2.919776" lon="-75.161934">
        <ele>696.8</ele>
        <time>2021-08-21T11:14:24Z</time>
      </trkpt>
      <trkpt lat="2.919777" lon="-75.16197">
        <ele>696.6</ele>
        <time>2021-08-21T11:14:24Z</time>
      </trkpt>
      <trkpt lat="2.919778" lon="-75.161896">
        <ele>697.0</ele>
        <time>2021-08-21T11:14:25Z</time>
      </trkpt>
      <trkpt lat="2.91978" lon="-75.16185">
        <ele>697.2</ele>
        <time>2021-08-21T11:14:26Z</time>
      </trkpt>
      <trkpt lat="2.919786" lon="-75.16181">
        <ele>697.3</ele>
        <time>2021-08-21T11:14:27Z</time>
      </trkpt>
      <trkpt lat="2.919793" lon="-75.16177">
        <ele>697.5</ele>
        <time>2021-08-21T11:14:28Z</time>
      </trkpt>
      <trkpt lat="2.919801" lon="-75.16173">
        <ele>697.8</ele>
        <time>2021-08-21T11:14:29Z</time>
      </trkpt>
      <trkpt lat="2.919809" lon="-75.16169">
        <ele>698.0</ele>
        <time>2021-08-21T11:14:30Z</time>
      </trkpt>
      <trkpt lat="2.919817" lon="-75.16165">
        <ele>698.2</ele>
        <time>2021-08-21T11:14:31Z</time>
      </trkpt>
      <trkpt lat="2.919825" lon="-75.161606">
        <ele>698.4</ele>
        <time>2021-08-21T11:14:32Z</time>
      </trkpt>
      <trkpt lat="2.919832" lon="-75.16157">
        <ele>698.7</ele>
        <time>2021-08-21T11:14:33Z</time>
      </trkpt>
      <trkpt lat="2.919839" lon="-75.16153">
        <ele>698.9</ele>
        <time>2021-08-21T11:14:34Z</time>
      </trkpt>
      <trkpt lat="2.919846" lon="-75.16149">
        <ele>699.1</ele>
        <time>2021-08-21T11:14:36Z</time>
      </trkpt>
      <trkpt lat="2.919854" lon="-75.16146">
        <ele>699.3</ele>
        <time>2021-08-21T11:14:36Z</time>
      </trkpt>
      <trkpt lat="2.919863" lon="-75.16142">
        <ele>699.5</ele>
        <time>2021-08-21T11:14:37Z</time>
      </trkpt>
      <trkpt lat="2.91987" lon="-75.161385">
        <ele>699.7</ele>
        <time>2021-08-21T11:14:38Z</time>
      </trkpt>
      <trkpt lat="2.919878" lon="-75.16135">
        <ele>699.9</ele>
        <time>2021-08-21T11:14:39Z</time>
      </trkpt>
      <trkpt lat="2.919887" lon="-75.161316">
        <ele>700.0</ele>
        <time>2021-08-21T11:14:40Z</time>
      </trkpt>
      <trkpt lat="2.919899" lon="-75.16128">
        <ele>700.2</ele>
        <time>2021-08-21T11:14:42Z</time>
      </trkpt>
      <trkpt lat="2.919911" lon="-75.16125">
        <ele>700.4</ele>
        <time>2021-08-21T11:14:43Z</time>
      </trkpt>
      <trkpt lat="2.919925" lon="-75.161224">
        <ele>700.6</ele>
        <time>2021-08-21T11:14:43Z</time>
      </trkpt>
      <trkpt lat="2.919939" lon="-75.161194">
        <ele>700.7</ele>
        <time>2021-08-21T11:14:44Z</time>
      </trkpt>
      <trkpt lat="2.919955" lon="-75.16117">
        <ele>700.9</ele>
        <time>2021-08-21T11:14:45Z</time>
      </trkpt>
      <trkpt lat="2.919973" lon="-75.16114">
        <ele>701.1</ele>
        <time>2021-08-21T11:14:46Z</time>
      </trkpt>
      <trkpt lat="2.919991" lon="-75.16112">
        <ele>701.2</ele>
        <time>2021-08-21T11:14:47Z</time>
      </trkpt>
      <trkpt lat="2.92001" lon="-75.161095">
        <ele>701.4</ele>
        <time>2021-08-21T11:14:48Z</time>
      </trkpt>
      <trkpt lat="2.920029" lon="-75.161064">
        <ele>701.5</ele>
        <time>2021-08-21T11:14:49Z</time>
      </trkpt>
      <trkpt lat="2.920047" lon="-75.16104">
        <ele>701.7</ele>
        <time>2021-08-21T11:14:50Z</time>
      </trkpt>
      <trkpt lat="2.920065" lon="-75.16102">
        <ele>701.8</ele>
        <time>2021-08-21T11:14:51Z</time>
      </trkpt>
      <trkpt lat="2.920082" lon="-75.160995">
        <ele>702.0</ele>
        <time>2021-08-21T11:14:52Z</time>
      </trkpt>
      <trkpt lat="2.9201" lon="-75.16097">
        <ele>702.1</ele>
        <time>2021-08-21T11:14:53Z</time>
      </trkpt>
      <trkpt lat="2.920119" lon="-75.16095">
        <ele>702.3</ele>
        <time>2021-08-21T11:14:54Z</time>
      </trkpt>
      <trkpt lat="2.920148" lon="-75.16091">
        <ele>702.5</ele>
        <time>2021-08-21T11:14:56Z</time>
      </trkpt>
      <trkpt lat="2.920158" lon="-75.160904">
        <ele>702.6</ele>
        <time>2021-08-21T11:14:56Z</time>
      </trkpt>
      <trkpt lat="2.920176" lon="-75.16088">
        <ele>702.7</ele>
        <time>2021-08-21T11:14:57Z</time>
      </trkpt>
      <trkpt lat="2.920194" lon="-75.160866">
        <ele>702.9</ele>
        <time>2021-08-21T11:14:58Z</time>
      </trkpt>
      <trkpt lat="2.920209" lon="-75.16085">
        <ele>703.0</ele>
        <time>2021-08-21T11:14:59Z</time>
      </trkpt>
      <trkpt lat="2.920225" lon="-75.16083">
        <ele>703.1</ele>
        <time>2021-08-21T11:15:00Z</time>
      </trkpt>
      <trkpt lat="2.920238" lon="-75.16081">
        <ele>703.2</ele>
        <time>2021-08-21T11:15:01Z</time>
      </trkpt>
      <trkpt lat="2.920254" lon="-75.16079">
        <ele>703.4</ele>
        <time>2021-08-21T11:15:03Z</time>
      </trkpt>
      <trkpt lat="2.920258" lon="-75.16079">
        <ele>703.4</ele>
        <time>2021-08-21T11:15:03Z</time>
      </trkpt>
      <trkpt lat="2.920266" lon="-75.160774">
        <ele>703.5</ele>
        <time>2021-08-21T11:15:04Z</time>
      </trkpt>
      <trkpt lat="2.920272" lon="-75.16076">
        <ele>703.6</ele>
        <time>2021-08-21T11:15:05Z</time>
      </trkpt>
      <trkpt lat="2.920276" lon="-75.16075">
        <ele>703.6</ele>
        <time>2021-08-21T11:15:06Z</time>
      </trkpt>
      <trkpt lat="2.920278" lon="-75.16074">
        <ele>703.7</ele>
        <time>2021-08-21T11:15:07Z</time>
      </trkpt>
      <trkpt lat="2.920279" lon="-75.160736">
        <ele>703.7</ele>
        <time>2021-08-21T11:15:08Z</time>
      </trkpt>
      <trkpt lat="2.920379" lon="-75.16061">
        <ele>704.6</ele>
        <time>2021-08-21T11:19:02Z</time>
      </trkpt>
      <trkpt lat="2.920384" lon="-75.16061">
        <ele>704.6</ele>
        <time>2021-08-21T11:19:03Z</time>
      </trkpt>
      <trkpt lat="2.920393" lon="-75.16059">
        <ele>704.7</ele>
        <time>2021-08-21T11:19:04Z</time>
      </trkpt>
      <trkpt lat="2.920406" lon="-75.16058">
        <ele>704.8</ele>
        <time>2021-08-21T11:19:05Z</time>
      </trkpt>
      <trkpt lat="2.920421" lon="-75.16057">
        <ele>704.9</ele>
        <time>2021-08-21T11:19:06Z</time>
      </trkpt>
      <trkpt lat="2.920435" lon="-75.160545">
        <ele>705.0</ele>
        <time>2021-08-21T11:19:07Z</time>
      </trkpt>
      <trkpt lat="2.920449" lon="-75.16053">
        <ele>705.1</ele>
        <time>2021-08-21T11:19:08Z</time>
      </trkpt>
      <trkpt lat="2.920464" lon="-75.160515">
        <ele>705.2</ele>
        <time>2021-08-21T11:19:09Z</time>
      </trkpt>
      <trkpt lat="2.92048" lon="-75.16049">
        <ele>705.4</ele>
        <time>2021-08-21T11:19:10Z</time>
      </trkpt>
      <trkpt lat="2.920496" lon="-75.16048">
        <ele>705.5</ele>
        <time>2021-08-21T11:19:11Z</time>
      </trkpt>
      <trkpt lat="2.920511" lon="-75.16046">
        <ele>705.6</ele>
        <time>2021-08-21T11:19:12Z</time>
      </trkpt>
      <trkpt lat="2.920527" lon="-75.160446">
        <ele>705.7</ele>
        <time>2021-08-21T11:19:13Z</time>
      </trkpt>
      <trkpt lat="2.920543" lon="-75.16042">
        <ele>705.8</ele>
        <time>2021-08-21T11:19:14Z</time>
      </trkpt>
      <trkpt lat="2.920558" lon="-75.160416">
        <ele>705.9</ele>
        <time>2021-08-21T11:19:15Z</time>
      </trkpt>
      <trkpt lat="2.920573" lon="-75.16039">
        <ele>706.1</ele>
        <time>2021-08-21T11:19:16Z</time>
      </trkpt>
      <trkpt lat="2.920588" lon="-75.16038">
        <ele>706.2</ele>
        <time>2021-08-21T11:19:17Z</time>
      </trkpt>
      <trkpt lat="2.920603" lon="-75.16036">
        <ele>706.3</ele>
        <time>2021-08-21T11:19:18Z</time>
      </trkpt>
      <trkpt lat="2.920618" lon="-75.16035">
        <ele>706.4</ele>
        <time>2021-08-21T11:19:19Z</time>
      </trkpt>
      <trkpt lat="2.920633" lon="-75.16033">
        <ele>706.5</ele>
        <time>2021-08-21T11:19:20Z</time>
      </trkpt>
      <trkpt lat="2.920648" lon="-75.16032">
        <ele>706.6</ele>
        <time>2021-08-21T11:19:21Z</time>
      </trkpt>
      <trkpt lat="2.920663" lon="-75.16029">
        <ele>706.7</ele>
        <time>2021-08-21T11:19:22Z</time>
      </trkpt>
      <trkpt lat="2.920679" lon="-75.16028">
        <ele>706.9</ele>
        <time>2021-08-21T11:19:23Z</time>
      </trkpt>
      <trkpt lat="2.920696" lon="-75.16026">
        <ele>707.0</ele>
        <time>2021-08-21T11:19:24Z</time>
      </trkpt>
      <trkpt lat="2.920711" lon="-75.16024">
        <ele>707.1</ele>
        <time>2021-08-21T11:19:25Z</time>
      </trkpt>
      <trkpt lat="2.920726" lon="-75.160225">
        <ele>707.2</ele>
        <time>2021-08-21T11:19:26Z</time>
      </trkpt>
      <trkpt lat="2.920741" lon="-75.16021">
        <ele>707.3</ele>
        <time>2021-08-21T11:19:27Z</time>
      </trkpt>
      <trkpt lat="2.920754" lon="-75.160194">
        <ele>707.4</ele>
        <time>2021-08-21T11:19:28Z</time>
      </trkpt>
      <trkpt lat="2.920774" lon="-75.16017">
        <ele>707.6</ele>
        <time>2021-08-21T11:19:30Z</time>
      </trkpt>
      <trkpt lat="2.92078" lon="-75.160164">
        <ele>707.6</ele>
        <time>2021-08-21T11:19:30Z</time>
      </trkpt>
      <trkpt lat="2.920795" lon="-75.16015">
        <ele>707.7</ele>
        <time>2021-08-21T11:19:31Z</time>
      </trkpt>
      <trkpt lat="2.92081" lon="-75.16013">
        <ele>707.8</ele>
        <time>2021-08-21T11:19:32Z</time>
      </trkpt>
      <trkpt lat="2.920826" lon="-75.16012">
        <ele>708.0</ele>
        <time>2021-08-21T11:19:33Z</time>
      </trkpt>
      <trkpt lat="2.920842" lon="-75.160095">
        <ele>708.1</ele>
        <time>2021-08-21T11:19:34Z</time>
      </trkpt>
      <trkpt lat="2.920858" lon="-75.16008">
        <ele>708.2</ele>
        <time>2021-08-21T11:19:35Z</time>
      </trkpt>
      <trkpt lat="2.92088" lon="-75.16005">
        <ele>708.4</ele>
        <time>2021-08-21T11:19:37Z</time>
      </trkpt>
      <trkpt lat="2.920887" lon="-75.16004">
        <ele>708.5</ele>
        <time>2021-08-21T11:19:37Z</time>
      </trkpt>
      <trkpt lat="2.920901" lon="-75.16003">
        <ele>708.6</ele>
        <time>2021-08-21T11:19:38Z</time>
      </trkpt>
      <trkpt lat="2.920914" lon="-75.16001">
        <ele>708.7</ele>
        <time>2021-08-21T11:19:39Z</time>
      </trkpt>
      <trkpt lat="2.920928" lon="-75.15999">
        <ele>708.8</ele>
        <time>2021-08-21T11:19:40Z</time>
      </trkpt>
      <trkpt lat="2.920942" lon="-75.15997">
        <ele>708.9</ele>
        <time>2021-08-21T11:19:41Z</time>
      </trkpt>
      <trkpt lat="2.920956" lon="-75.15996">
        <ele>709.1</ele>
        <time>2021-08-21T11:19:42Z</time>
      </trkpt>
      <trkpt lat="2.920977" lon="-75.15993">
        <ele>709.3</ele>
        <time>2021-08-21T11:19:44Z</time>
      </trkpt>
      <trkpt lat="2.920984" lon="-75.15992">
        <ele>709.3</ele>
        <time>2021-08-21T11:19:44Z</time>
      </trkpt>
      <trkpt lat="2.920997" lon="-75.159904">
        <ele>709.5</ele>
        <time>2021-08-21T11:19:45Z</time>
      </trkpt>
      <trkpt lat="2.92101" lon="-75.15989">
        <ele>709.6</ele>
        <time>2021-08-21T11:19:46Z</time>
      </trkpt>
      <trkpt lat="2.921023" lon="-75.159874">
        <ele>709.8</ele>
        <time>2021-08-21T11:19:47Z</time>
      </trkpt>
      <trkpt lat="2.921034" lon="-75.15986">
        <ele>709.9</ele>
        <time>2021-08-21T11:19:48Z</time>
      </trkpt>
      <trkpt lat="2.921046" lon="-75.15985">
        <ele>710.0</ele>
        <time>2021-08-21T11:19:49Z</time>
      </trkpt>
      <trkpt lat="2.921061" lon="-75.15983">
        <ele>710.2</ele>
        <time>2021-08-21T11:19:51Z</time>
      </trkpt>
      <trkpt lat="2.921066" lon="-75.15982">
        <ele>710.2</ele>
        <time>2021-08-21T11:19:51Z</time>
      </trkpt>
      <trkpt lat="2.921083" lon="-75.1598">
        <ele>710.4</ele>
        <time>2021-08-21T11:19:52Z</time>
      </trkpt>
      <trkpt lat="2.92109" lon="-75.15979">
        <ele>710.5</ele>
        <time>2021-08-21T11:19:53Z</time>
      </trkpt>
      <trkpt lat="2.921097" lon="-75.159775">
        <ele>710.6</ele>
        <time>2021-08-21T11:19:54Z</time>
      </trkpt>
      <trkpt lat="2.921104" lon="-75.15977">
        <ele>710.6</ele>
        <time>2021-08-21T11:19:55Z</time>
      </trkpt>
      <trkpt lat="2.921111" lon="-75.15976">
        <ele>710.7</ele>
        <time>2021-08-21T11:19:56Z</time>
      </trkpt>
      <trkpt lat="2.921118" lon="-75.159744">
        <ele>710.8</ele>
        <time>2021-08-21T11:19:58Z</time>
      </trkpt>
      <trkpt lat="2.921125" lon="-75.15974">
        <ele>710.9</ele>
        <time>2021-08-21T11:19:58Z</time>
      </trkpt>
      <trkpt lat="2.921134" lon="-75.15972">
        <ele>711.0</ele>
        <time>2021-08-21T11:19:59Z</time>
      </trkpt>
      <trkpt lat="2.921143" lon="-75.159706">
        <ele>711.1</ele>
        <time>2021-08-21T11:20:00Z</time>
      </trkpt>
      <trkpt lat="2.921153" lon="-75.15968">
        <ele>711.3</ele>
        <time>2021-08-21T11:20:01Z</time>
      </trkpt>
      <trkpt lat="2.921162" lon="-75.15967">
        <ele>711.4</ele>
        <time>2021-08-21T11:20:02Z</time>
      </trkpt>
      <trkpt lat="2.921172" lon="-75.15965">
        <ele>711.5</ele>
        <time>2021-08-21T11:20:03Z</time>
      </trkpt>
      <trkpt lat="2.921183" lon="-75.15963">
        <ele>711.6</ele>
        <time>2021-08-21T11:20:04Z</time>
      </trkpt>
      <trkpt lat="2.921194" lon="-75.159615">
        <ele>711.7</ele>
        <time>2021-08-21T11:20:05Z</time>
      </trkpt>
      <trkpt lat="2.921206" lon="-75.1596">
        <ele>711.8</ele>
        <time>2021-08-21T11:20:06Z</time>
      </trkpt>
      <trkpt lat="2.921216" lon="-75.159584">
        <ele>711.9</ele>
        <time>2021-08-21T11:20:07Z</time>
      </trkpt>
      <trkpt lat="2.921227" lon="-75.15957">
        <ele>712.0</ele>
        <time>2021-08-21T11:20:08Z</time>
      </trkpt>
      <trkpt lat="2.921238" lon="-75.15955">
        <ele>712.1</ele>
        <time>2021-08-21T11:20:09Z</time>
      </trkpt>
      <trkpt lat="2.921254" lon="-75.15953">
        <ele>712.2</ele>
        <time>2021-08-21T11:20:11Z</time>
      </trkpt>
      <trkpt lat="2.921259" lon="-75.159515">
        <ele>712.3</ele>
        <time>2021-08-21T11:20:11Z</time>
      </trkpt>
      <trkpt lat="2.92127" lon="-75.1595">
        <ele>712.4</ele>
        <time>2021-08-21T11:20:12Z</time>
      </trkpt>
      <trkpt lat="2.921281" lon="-75.15948">
        <ele>712.5</ele>
        <time>2021-08-21T11:20:13Z</time>
      </trkpt>
      <trkpt lat="2.921293" lon="-75.15946">
        <ele>712.6</ele>
        <time>2021-08-21T11:20:14Z</time>
      </trkpt>
      <trkpt lat="2.921306" lon="-75.15944">
        <ele>712.7</ele>
        <time>2021-08-21T11:20:15Z</time>
      </trkpt>
      <trkpt lat="2.921318" lon="-75.159424">
        <ele>712.8</ele>
        <time>2021-08-21T11:20:16Z</time>
      </trkpt>
      <trkpt lat="2.921329" lon="-75.1594">
        <ele>712.9</ele>
        <time>2021-08-21T11:20:17Z</time>
      </trkpt>
      <trkpt lat="2.921339" lon="-75.159386">
        <ele>713.0</ele>
        <time>2021-08-21T11:20:18Z</time>
      </trkpt>
      <trkpt lat="2.921349" lon="-75.15936">
        <ele>713.1</ele>
        <time>2021-08-21T11:20:19Z</time>
      </trkpt>
      <trkpt lat="2.921359" lon="-75.15935">
        <ele>713.1</ele>
        <time>2021-08-21T11:20:20Z</time>
      </trkpt>
      <trkpt lat="2.92137" lon="-75.159325">
        <ele>713.2</ele>
        <time>2021-08-21T11:20:21Z</time>
      </trkpt>
      <trkpt lat="2.921382" lon="-75.1593">
        <ele>713.3</ele>
        <time>2021-08-21T11:20:22Z</time>
      </trkpt>
      <trkpt lat="2.921395" lon="-75.15929">
        <ele>713.3</ele>
        <time>2021-08-21T11:20:23Z</time>
      </trkpt>
      <trkpt lat="2.921408" lon="-75.15926">
        <ele>713.4</ele>
        <time>2021-08-21T11:20:24Z</time>
      </trkpt>
      <trkpt lat="2.921422" lon="-75.15924">
        <ele>713.5</ele>
        <time>2021-08-21T11:20:25Z</time>
      </trkpt>
      <trkpt lat="2.921436" lon="-75.15922">
        <ele>713.6</ele>
        <time>2021-08-21T11:20:26Z</time>
      </trkpt>
      <trkpt lat="2.921452" lon="-75.1592">
        <ele>713.6</ele>
        <time>2021-08-21T11:20:27Z</time>
      </trkpt>
      <trkpt lat="2.921469" lon="-75.15918">
        <ele>713.7</ele>
        <time>2021-08-21T11:20:28Z</time>
      </trkpt>
      <trkpt lat="2.921486" lon="-75.159164">
        <ele>713.8</ele>
        <time>2021-08-21T11:20:29Z</time>
      </trkpt>
      <trkpt lat="2.921504" lon="-75.15915">
        <ele>713.8</ele>
        <time>2021-08-21T11:20:30Z</time>
      </trkpt>
      <trkpt lat="2.921522" lon="-75.159134">
        <ele>713.9</ele>
        <time>2021-08-21T11:20:31Z</time>
      </trkpt>
      <trkpt lat="2.921542" lon="-75.15911">
        <ele>713.9</ele>
        <time>2021-08-21T11:20:32Z</time>
      </trkpt>
      <trkpt lat="2.921562" lon="-75.159096">
        <ele>713.9</ele>
        <time>2021-08-21T11:20:33Z</time>
      </trkpt>
      <trkpt lat="2.921583" lon="-75.15908">
        <ele>713.9</ele>
        <time>2021-08-21T11:20:34Z</time>
      </trkpt>
      <trkpt lat="2.921618" lon="-75.15906">
        <ele>714.0</ele>
        <time>2021-08-21T11:20:36Z</time>
      </trkpt>
      <trkpt lat="2.921629" lon="-75.15905">
        <ele>714.0</ele>
        <time>2021-08-21T11:20:36Z</time>
      </trkpt>
      <trkpt lat="2.921655" lon="-75.15904">
        <ele>714.0</ele>
        <time>2021-08-21T11:20:37Z</time>
      </trkpt>
      <trkpt lat="2.921682" lon="-75.15903">
        <ele>714.0</ele>
        <time>2021-08-21T11:20:38Z</time>
      </trkpt>
      <trkpt lat="2.921711" lon="-75.15902">
        <ele>714.0</ele>
        <time>2021-08-21T11:20:39Z</time>
      </trkpt>
      <trkpt lat="2.921742" lon="-75.159004">
        <ele>714.0</ele>
        <time>2021-08-21T11:20:40Z</time>
      </trkpt>
      <trkpt lat="2.921774" lon="-75.159">
        <ele>714.0</ele>
        <time>2021-08-21T11:20:41Z</time>
      </trkpt>
      <trkpt lat="2.921821" lon="-75.15898">
        <ele>714.0</ele>
        <time>2021-08-21T11:20:43Z</time>
      </trkpt>
      <trkpt lat="2.921837" lon="-75.15898">
        <ele>714.0</ele>
        <time>2021-08-21T11:20:43Z</time>
      </trkpt>
      <trkpt lat="2.921869" lon="-75.15897">
        <ele>714.0</ele>
        <time>2021-08-21T11:20:44Z</time>
      </trkpt>
      <trkpt lat="2.921901" lon="-75.158966">
        <ele>714.0</ele>
        <time>2021-08-21T11:20:45Z</time>
      </trkpt>
      <trkpt lat="2.921931" lon="-75.15896">
        <ele>714.0</ele>
        <time>2021-08-21T11:20:46Z</time>
      </trkpt>
      <trkpt lat="2.921961" lon="-75.15895">
        <ele>714.1</ele>
        <time>2021-08-21T11:20:47Z</time>
      </trkpt>
      <trkpt lat="2.921989" lon="-75.15894">
        <ele>714.1</ele>
        <time>2021-08-21T11:20:48Z</time>
      </trkpt>
      <trkpt lat="2.922032" lon="-75.15893">
        <ele>714.1</ele>
        <time>2021-08-21T11:20:50Z</time>
      </trkpt>
      <trkpt lat="2.922046" lon="-75.15892">
        <ele>714.2</ele>
        <time>2021-08-21T11:20:50Z</time>
      </trkpt>
      <trkpt lat="2.922075" lon="-75.15891">
        <ele>714.2</ele>
        <time>2021-08-21T11:20:51Z</time>
      </trkpt>
      <trkpt lat="2.922103" lon="-75.1589">
        <ele>714.2</ele>
        <time>2021-08-21T11:20:52Z</time>
      </trkpt>
      <trkpt lat="2.922129" lon="-75.15888">
        <ele>714.3</ele>
        <time>2021-08-21T11:20:53Z</time>
      </trkpt>
      <trkpt lat="2.922153" lon="-75.15886">
        <ele>714.3</ele>
        <time>2021-08-21T11:20:53Z</time>
      </trkpt>
      <trkpt lat="2.922177" lon="-75.15884">
        <ele>714.4</ele>
        <time>2021-08-21T11:20:54Z</time>
      </trkpt>
      <trkpt lat="2.922205" lon="-75.1588">
        <ele>714.4</ele>
        <time>2021-08-21T11:20:56Z</time>
      </trkpt>
      <trkpt lat="2.922212" lon="-75.15878">
        <ele>714.4</ele>
        <time>2021-08-21T11:20:56Z</time>
      </trkpt>
      <trkpt lat="2.922224" lon="-75.15875">
        <ele>714.5</ele>
        <time>2021-08-21T11:20:57Z</time>
      </trkpt>
      <trkpt lat="2.922231" lon="-75.15872">
        <ele>714.5</ele>
        <time>2021-08-21T11:20:58Z</time>
      </trkpt>
      <trkpt lat="2.922235" lon="-75.15869">
        <ele>714.6</ele>
        <time>2021-08-21T11:20:59Z</time>
      </trkpt>
      <trkpt lat="2.922235" lon="-75.15866">
        <ele>714.6</ele>
        <time>2021-08-21T11:21:00Z</time>
      </trkpt>
      <trkpt lat="2.922232" lon="-75.15863">
        <ele>714.7</ele>
        <time>2021-08-21T11:21:01Z</time>
      </trkpt>
      <trkpt lat="2.922223" lon="-75.15856">
        <ele>714.8</ele>
        <time>2021-08-21T11:21:03Z</time>
      </trkpt>
      <trkpt lat="2.922226" lon="-75.15858">
        <ele>714.8</ele>
        <time>2021-08-21T11:21:03Z</time>
      </trkpt>
      <trkpt lat="2.922217" lon="-75.15853">
        <ele>714.9</ele>
        <time>2021-08-21T11:21:04Z</time>
      </trkpt>
      <trkpt lat="2.92221" lon="-75.15851">
        <ele>714.9</ele>
        <time>2021-08-21T11:21:05Z</time>
      </trkpt>
      <trkpt lat="2.922203" lon="-75.15848">
        <ele>715.0</ele>
        <time>2021-08-21T11:21:06Z</time>
      </trkpt>
      <trkpt lat="2.922196" lon="-75.158455">
        <ele>715.1</ele>
        <time>2021-08-21T11:21:07Z</time>
      </trkpt>
      <trkpt lat="2.92219" lon="-75.158424">
        <ele>715.2</ele>
        <time>2021-08-21T11:21:08Z</time>
      </trkpt>
      <trkpt lat="2.922185" lon="-75.1584">
        <ele>715.2</ele>
        <time>2021-08-21T11:21:09Z</time>
      </trkpt>
      <trkpt lat="2.92218" lon="-75.15838">
        <ele>715.3</ele>
        <time>2021-08-21T11:21:10Z</time>
      </trkpt>
      <trkpt lat="2.922173" lon="-75.158356">
        <ele>715.4</ele>
        <time>2021-08-21T11:21:11Z</time>
      </trkpt>
      <trkpt lat="2.922167" lon="-75.15833">
        <ele>715.5</ele>
        <time>2021-08-21T11:21:12Z</time>
      </trkpt>
      <trkpt lat="2.922161" lon="-75.15831">
        <ele>715.6</ele>
        <time>2021-08-21T11:21:13Z</time>
      </trkpt>
      <trkpt lat="2.922154" lon="-75.158295">
        <ele>715.6</ele>
        <time>2021-08-21T11:21:14Z</time>
      </trkpt>
      <trkpt lat="2.922144" lon="-75.158264">
        <ele>715.8</ele>
        <time>2021-08-21T11:21:15Z</time>
      </trkpt>
      <trkpt lat="2.92214" lon="-75.15825">
        <ele>715.8</ele>
        <time>2021-08-21T11:21:16Z</time>
      </trkpt>
      <trkpt lat="2.922136" lon="-75.15823">
        <ele>715.9</ele>
        <time>2021-08-21T11:21:17Z</time>
      </trkpt>
      <trkpt lat="2.922131" lon="-75.15822">
        <ele>716.0</ele>
        <time>2021-08-21T11:21:18Z</time>
      </trkpt>
      <trkpt lat="2.922127" lon="-75.1582">
        <ele>716.0</ele>
        <time>2021-08-21T11:21:19Z</time>
      </trkpt>
      <trkpt lat="2.922119" lon="-75.15818">
        <ele>716.2</ele>
        <time>2021-08-21T11:21:21Z</time>
      </trkpt>
      <trkpt lat="2.922123" lon="-75.158195">
        <ele>716.1</ele>
        <time>2021-08-21T11:21:21Z</time>
      </trkpt>
      <trkpt lat="2.922113" lon="-75.15816">
        <ele>716.3</ele>
        <time>2021-08-21T11:21:22Z</time>
      </trkpt>
      <trkpt lat="2.922108" lon="-75.15814">
        <ele>716.3</ele>
        <time>2021-08-21T11:21:23Z</time>
      </trkpt>
      <trkpt lat="2.922104" lon="-75.15813">
        <ele>716.4</ele>
        <time>2021-08-21T11:21:24Z</time>
      </trkpt>
      <trkpt lat="2.922102" lon="-75.15811">
        <ele>716.5</ele>
        <time>2021-08-21T11:21:25Z</time>
      </trkpt>
      <trkpt lat="2.9221" lon="-75.15809">
        <ele>716.6</ele>
        <time>2021-08-21T11:21:26Z</time>
      </trkpt>
      <trkpt lat="2.922097" lon="-75.15807">
        <ele>716.7</ele>
        <time>2021-08-21T11:21:27Z</time>
      </trkpt>
      <trkpt lat="2.922093" lon="-75.15805">
        <ele>716.8</ele>
        <time>2021-08-21T11:21:28Z</time>
      </trkpt>
      <trkpt lat="2.922091" lon="-75.15803">
        <ele>716.9</ele>
        <time>2021-08-21T11:21:29Z</time>
      </trkpt>
      <trkpt lat="2.92209" lon="-75.15801">
        <ele>717.1</ele>
        <time>2021-08-21T11:21:30Z</time>
      </trkpt>
      <trkpt lat="2.922089" lon="-75.15799">
        <ele>717.2</ele>
        <time>2021-08-21T11:21:31Z</time>
      </trkpt>
      <trkpt lat="2.922087" lon="-75.15794">
        <ele>717.4</ele>
        <time>2021-08-21T11:21:33Z</time>
      </trkpt>
      <trkpt lat="2.922088" lon="-75.15795">
        <ele>717.3</ele>
        <time>2021-08-21T11:21:33Z</time>
      </trkpt>
      <trkpt lat="2.922087" lon="-75.15792">
        <ele>717.5</ele>
        <time>2021-08-21T11:21:34Z</time>
      </trkpt>
      <trkpt lat="2.922087" lon="-75.157906">
        <ele>717.6</ele>
        <time>2021-08-21T11:21:35Z</time>
      </trkpt>
      <trkpt lat="2.922088" lon="-75.15788">
        <ele>717.7</ele>
        <time>2021-08-21T11:21:36Z</time>
      </trkpt>
      <trkpt lat="2.922089" lon="-75.15787">
        <ele>717.8</ele>
        <time>2021-08-21T11:21:37Z</time>
      </trkpt>
      <trkpt lat="2.922091" lon="-75.157845">
        <ele>717.9</ele>
        <time>2021-08-21T11:21:38Z</time>
      </trkpt>
      <trkpt lat="2.922096" lon="-75.15782">
        <ele>718.0</ele>
        <time>2021-08-21T11:21:40Z</time>
      </trkpt>
      <trkpt lat="2.922097" lon="-75.15781">
        <ele>718.1</ele>
        <time>2021-08-21T11:21:40Z</time>
      </trkpt>
      <trkpt lat="2.922101" lon="-75.15779">
        <ele>718.2</ele>
        <time>2021-08-21T11:21:41Z</time>
      </trkpt>
      <trkpt lat="2.922105" lon="-75.15777">
        <ele>718.3</ele>
        <time>2021-08-21T11:21:42Z</time>
      </trkpt>
      <trkpt lat="2.92211" lon="-75.15775">
        <ele>718.4</ele>
        <time>2021-08-21T11:21:43Z</time>
      </trkpt>
      <trkpt lat="2.922118" lon="-75.15773">
        <ele>718.5</ele>
        <time>2021-08-21T11:21:44Z</time>
      </trkpt>
      <trkpt lat="2.922126" lon="-75.157715">
        <ele>718.6</ele>
        <time>2021-08-21T11:21:45Z</time>
      </trkpt>
      <trkpt lat="2.92214" lon="-75.157684">
        <ele>718.7</ele>
        <time>2021-08-21T11:21:47Z</time>
      </trkpt>
      <trkpt lat="2.922145" lon="-75.15767">
        <ele>718.8</ele>
        <time>2021-08-21T11:21:47Z</time>
      </trkpt>
      <trkpt lat="2.922155" lon="-75.15765">
        <ele>718.8</ele>
        <time>2021-08-21T11:21:48Z</time>
      </trkpt>
      <trkpt lat="2.922165" lon="-75.15763">
        <ele>718.9</ele>
        <time>2021-08-21T11:21:49Z</time>
      </trkpt>
      <trkpt lat="2.922177" lon="-75.157616">
        <ele>719.0</ele>
        <time>2021-08-21T11:21:50Z</time>
      </trkpt>
      <trkpt lat="2.922192" lon="-75.15759">
        <ele>719.1</ele>
        <time>2021-08-21T11:21:51Z</time>
      </trkpt>
      <trkpt lat="2.922206" lon="-75.15758">
        <ele>719.2</ele>
        <time>2021-08-21T11:21:52Z</time>
      </trkpt>
      <trkpt lat="2.922222" lon="-75.157555">
        <ele>719.4</ele>
        <time>2021-08-21T11:21:53Z</time>
      </trkpt>
      <trkpt lat="2.922237" lon="-75.15754">
        <ele>719.5</ele>
        <time>2021-08-21T11:21:54Z</time>
      </trkpt>
      <trkpt lat="2.922252" lon="-75.15752">
        <ele>719.6</ele>
        <time>2021-08-21T11:21:55Z</time>
      </trkpt>
      <trkpt lat="2.922267" lon="-75.1575">
        <ele>719.7</ele>
        <time>2021-08-21T11:21:56Z</time>
      </trkpt>
      <trkpt lat="2.922282" lon="-75.15748">
        <ele>719.8</ele>
        <time>2021-08-21T11:21:57Z</time>
      </trkpt>
      <trkpt lat="2.922297" lon="-75.157455">
        <ele>719.9</ele>
        <time>2021-08-21T11:21:58Z</time>
      </trkpt>
      <trkpt lat="2.922312" lon="-75.15743">
        <ele>720.0</ele>
        <time>2021-08-21T11:21:59Z</time>
      </trkpt>
      <trkpt lat="2.922326" lon="-75.15742">
        <ele>720.1</ele>
        <time>2021-08-21T11:22:00Z</time>
      </trkpt>
      <trkpt lat="2.922339" lon="-75.157394">
        <ele>720.2</ele>
        <time>2021-08-21T11:22:01Z</time>
      </trkpt>
      <trkpt lat="2.922351" lon="-75.15737">
        <ele>720.3</ele>
        <time>2021-08-21T11:22:02Z</time>
      </trkpt>
      <trkpt lat="2.922362" lon="-75.15736">
        <ele>720.4</ele>
        <time>2021-08-21T11:22:03Z</time>
      </trkpt>
      <trkpt lat="2.922373" lon="-75.15733">
        <ele>720.5</ele>
        <time>2021-08-21T11:22:04Z</time>
      </trkpt>
      <trkpt lat="2.922383" lon="-75.15731">
        <ele>720.6</ele>
        <time>2021-08-21T11:22:05Z</time>
      </trkpt>
      <trkpt lat="2.922394" lon="-75.15729">
        <ele>720.7</ele>
        <time>2021-08-21T11:22:06Z</time>
      </trkpt>
      <trkpt lat="2.922404" lon="-75.157265">
        <ele>720.9</ele>
        <time>2021-08-21T11:22:07Z</time>
      </trkpt>
      <trkpt lat="2.922412" lon="-75.15724">
        <ele>721.0</ele>
        <time>2021-08-21T11:22:08Z</time>
      </trkpt>
      <trkpt lat="2.92242" lon="-75.15722">
        <ele>721.1</ele>
        <time>2021-08-21T11:22:09Z</time>
      </trkpt>
      <trkpt lat="2.922427" lon="-75.1572">
        <ele>721.2</ele>
        <time>2021-08-21T11:22:10Z</time>
      </trkpt>
      <trkpt lat="2.922432" lon="-75.15718">
        <ele>721.3</ele>
        <time>2021-08-21T11:22:11Z</time>
      </trkpt>
      <trkpt lat="2.922437" lon="-75.15716">
        <ele>721.5</ele>
        <time>2021-08-21T11:22:12Z</time>
      </trkpt>
      <trkpt lat="2.922442" lon="-75.157135">
        <ele>721.6</ele>
        <time>2021-08-21T11:22:13Z</time>
      </trkpt>
      <trkpt lat="2.922447" lon="-75.15711">
        <ele>721.7</ele>
        <time>2021-08-21T11:22:14Z</time>
      </trkpt>
      <trkpt lat="2.922451" lon="-75.1571">
        <ele>721.9</ele>
        <time>2021-08-21T11:22:15Z</time>
      </trkpt>
      <trkpt lat="2.922456" lon="-75.157074">
        <ele>722.0</ele>
        <time>2021-08-21T11:22:16Z</time>
      </trkpt>
      <trkpt lat="2.922461" lon="-75.15705">
        <ele>722.1</ele>
        <time>2021-08-21T11:22:17Z</time>
      </trkpt>
      <trkpt lat="2.922465" lon="-75.15703">
        <ele>722.3</ele>
        <time>2021-08-21T11:22:18Z</time>
      </trkpt>
      <trkpt lat="2.922471" lon="-75.15701">
        <ele>722.4</ele>
        <time>2021-08-21T11:22:19Z</time>
      </trkpt>
      <trkpt lat="2.922475" lon="-75.15699">
        <ele>722.5</ele>
        <time>2021-08-21T11:22:20Z</time>
      </trkpt>
      <trkpt lat="2.922478" lon="-75.156975">
        <ele>722.6</ele>
        <time>2021-08-21T11:22:21Z</time>
      </trkpt>
      <trkpt lat="2.922482" lon="-75.15695">
        <ele>722.7</ele>
        <time>2021-08-21T11:22:22Z</time>
      </trkpt>
      <trkpt lat="2.922486" lon="-75.15694">
        <ele>722.8</ele>
        <time>2021-08-21T11:22:23Z</time>
      </trkpt>
      <trkpt lat="2.92249" lon="-75.15692">
        <ele>722.9</ele>
        <time>2021-08-21T11:22:24Z</time>
      </trkpt>
      <trkpt lat="2.922494" lon="-75.1569">
        <ele>723.0</ele>
        <time>2021-08-21T11:22:25Z</time>
      </trkpt>
      <trkpt lat="2.922497" lon="-75.156876">
        <ele>723.1</ele>
        <time>2021-08-21T11:22:26Z</time>
      </trkpt>
      <trkpt lat="2.922501" lon="-75.15686">
        <ele>723.2</ele>
        <time>2021-08-21T11:22:27Z</time>
      </trkpt>
      <trkpt lat="2.922505" lon="-75.15684">
        <ele>723.3</ele>
        <time>2021-08-21T11:22:28Z</time>
      </trkpt>
      <trkpt lat="2.922508" lon="-75.156815">
        <ele>723.4</ele>
        <time>2021-08-21T11:22:29Z</time>
      </trkpt>
      <trkpt lat="2.922511" lon="-75.15679">
        <ele>723.5</ele>
        <time>2021-08-21T11:22:30Z</time>
      </trkpt>
      <trkpt lat="2.922516" lon="-75.15675">
        <ele>723.7</ele>
        <time>2021-08-21T11:22:32Z</time>
      </trkpt>
      <trkpt lat="2.922517" lon="-75.156746">
        <ele>723.8</ele>
        <time>2021-08-21T11:22:32Z</time>
      </trkpt>
      <trkpt lat="2.922519" lon="-75.15671">
        <ele>723.9</ele>
        <time>2021-08-21T11:22:34Z</time>
      </trkpt>
      <trkpt lat="2.922519" lon="-75.15669">
        <ele>724.0</ele>
        <time>2021-08-21T11:22:34Z</time>
      </trkpt>
      <trkpt lat="2.92252" lon="-75.15667">
        <ele>724.1</ele>
        <time>2021-08-21T11:22:35Z</time>
      </trkpt>
      <trkpt lat="2.92252" lon="-75.15665">
        <ele>724.2</ele>
        <time>2021-08-21T11:22:36Z</time>
      </trkpt>
      <trkpt lat="2.922521" lon="-75.156624">
        <ele>724.3</ele>
        <time>2021-08-21T11:22:37Z</time>
      </trkpt>
      <trkpt lat="2.922523" lon="-75.15659">
        <ele>724.4</ele>
        <time>2021-08-21T11:22:39Z</time>
      </trkpt>
      <trkpt lat="2.922523" lon="-75.156586">
        <ele>724.4</ele>
        <time>2021-08-21T11:22:39Z</time>
      </trkpt>
      <trkpt lat="2.922523" lon="-75.15656">
        <ele>724.5</ele>
        <time>2021-08-21T11:22:40Z</time>
      </trkpt>
      <trkpt lat="2.922524" lon="-75.15654">
        <ele>724.6</ele>
        <time>2021-08-21T11:22:41Z</time>
      </trkpt>
      <trkpt lat="2.922524" lon="-75.15652">
        <ele>724.6</ele>
        <time>2021-08-21T11:22:42Z</time>
      </trkpt>
      <trkpt lat="2.922524" lon="-75.156494">
        <ele>724.7</ele>
        <time>2021-08-21T11:22:43Z</time>
      </trkpt>
      <trkpt lat="2.922524" lon="-75.15647">
        <ele>724.8</ele>
        <time>2021-08-21T11:22:44Z</time>
      </trkpt>
      <trkpt lat="2.922522" lon="-75.156425">
        <ele>724.9</ele>
        <time>2021-08-21T11:22:46Z</time>
      </trkpt>
      <trkpt lat="2.922523" lon="-75.15643">
        <ele>724.9</ele>
        <time>2021-08-21T11:22:46Z</time>
      </trkpt>
      <trkpt lat="2.922521" lon="-75.1564">
        <ele>725.0</ele>
        <time>2021-08-21T11:22:47Z</time>
      </trkpt>
      <trkpt lat="2.922521" lon="-75.15638">
        <ele>725.1</ele>
        <time>2021-08-21T11:22:48Z</time>
      </trkpt>
      <trkpt lat="2.92252" lon="-75.15636">
        <ele>725.1</ele>
        <time>2021-08-21T11:22:49Z</time>
      </trkpt>
      <trkpt lat="2.922519" lon="-75.156334">
        <ele>725.2</ele>
        <time>2021-08-21T11:22:50Z</time>
      </trkpt>
      <trkpt lat="2.922517" lon="-75.15631">
        <ele>725.3</ele>
        <time>2021-08-21T11:22:51Z</time>
      </trkpt>
      <trkpt lat="2.922514" lon="-75.15627">
        <ele>725.3</ele>
        <time>2021-08-21T11:22:53Z</time>
      </trkpt>
      <trkpt lat="2.922515" lon="-75.15628">
        <ele>725.3</ele>
        <time>2021-08-21T11:22:53Z</time>
      </trkpt>
      <trkpt lat="2.922511" lon="-75.15625">
        <ele>725.4</ele>
        <time>2021-08-21T11:22:54Z</time>
      </trkpt>
      <trkpt lat="2.922509" lon="-75.15623">
        <ele>725.4</ele>
        <time>2021-08-21T11:22:55Z</time>
      </trkpt>
      <trkpt lat="2.922506" lon="-75.15621">
        <ele>725.5</ele>
        <time>2021-08-21T11:22:56Z</time>
      </trkpt>
      <trkpt lat="2.922502" lon="-75.15619">
        <ele>725.5</ele>
        <time>2021-08-21T11:22:57Z</time>
      </trkpt>
      <trkpt lat="2.922498" lon="-75.15617">
        <ele>725.5</ele>
        <time>2021-08-21T11:22:58Z</time>
      </trkpt>
      <trkpt lat="2.922493" lon="-75.15615">
        <ele>725.5</ele>
        <time>2021-08-21T11:22:59Z</time>
      </trkpt>
      <trkpt lat="2.922487" lon="-75.156136">
        <ele>725.5</ele>
        <time>2021-08-21T11:23:00Z</time>
      </trkpt>
      <trkpt lat="2.92248" lon="-75.15612">
        <ele>725.5</ele>
        <time>2021-08-21T11:23:01Z</time>
      </trkpt>
      <trkpt lat="2.922474" lon="-75.1561">
        <ele>725.5</ele>
        <time>2021-08-21T11:23:02Z</time>
      </trkpt>
      <trkpt lat="2.922467" lon="-75.15608">
        <ele>725.5</ele>
        <time>2021-08-21T11:23:03Z</time>
      </trkpt>
      <trkpt lat="2.922459" lon="-75.15606">
        <ele>725.5</ele>
        <time>2021-08-21T11:23:04Z</time>
      </trkpt>
      <trkpt lat="2.922449" lon="-75.156044">
        <ele>725.5</ele>
        <time>2021-08-21T11:23:06Z</time>
      </trkpt>
      <trkpt lat="2.922424" lon="-75.156">
        <ele>725.4</ele>
        <time>2021-08-21T11:23:07Z</time>
      </trkpt>
      <trkpt lat="2.922437" lon="-75.15602">
        <ele>725.5</ele>
        <time>2021-08-21T11:23:07Z</time>
      </trkpt>
      <trkpt lat="2.922411" lon="-75.155975">
        <ele>725.4</ele>
        <time>2021-08-21T11:23:08Z</time>
      </trkpt>
      <trkpt lat="2.922397" lon="-75.15595">
        <ele>725.3</ele>
        <time>2021-08-21T11:23:09Z</time>
      </trkpt>
      <trkpt lat="2.922384" lon="-75.15594">
        <ele>725.3</ele>
        <time>2021-08-21T11:23:10Z</time>
      </trkpt>
      <trkpt lat="2.922371" lon="-75.155914">
        <ele>725.2</ele>
        <time>2021-08-21T11:23:11Z</time>
      </trkpt>
      <trkpt lat="2.922359" lon="-75.15589">
        <ele>725.1</ele>
        <time>2021-08-21T11:23:12Z</time>
      </trkpt>
      <trkpt lat="2.922345" lon="-75.15587">
        <ele>725.0</ele>
        <time>2021-08-21T11:23:13Z</time>
      </trkpt>
      <trkpt lat="2.922332" lon="-75.15584">
        <ele>724.9</ele>
        <time>2021-08-21T11:23:14Z</time>
      </trkpt>
      <trkpt lat="2.922319" lon="-75.155815">
        <ele>724.7</ele>
        <time>2021-08-21T11:23:15Z</time>
      </trkpt>
      <trkpt lat="2.922304" lon="-75.155785">
        <ele>724.6</ele>
        <time>2021-08-21T11:23:16Z</time>
      </trkpt>
      <trkpt lat="2.922289" lon="-75.155754">
        <ele>724.4</ele>
        <time>2021-08-21T11:23:17Z</time>
      </trkpt>
      <trkpt lat="2.922272" lon="-75.15572">
        <ele>724.2</ele>
        <time>2021-08-21T11:23:18Z</time>
      </trkpt>
      <trkpt lat="2.922254" lon="-75.15569">
        <ele>724.0</ele>
        <time>2021-08-21T11:23:19Z</time>
      </trkpt>
      <trkpt lat="2.922237" lon="-75.15566">
        <ele>723.8</ele>
        <time>2021-08-21T11:23:20Z</time>
      </trkpt>
      <trkpt lat="2.922219" lon="-75.155624">
        <ele>723.7</ele>
        <time>2021-08-21T11:23:21Z</time>
      </trkpt>
      <trkpt lat="2.922203" lon="-75.155594">
        <ele>723.5</ele>
        <time>2021-08-21T11:23:22Z</time>
      </trkpt>
      <trkpt lat="2.922187" lon="-75.155556">
        <ele>723.3</ele>
        <time>2021-08-21T11:23:23Z</time>
      </trkpt>
      <trkpt lat="2.922173" lon="-75.15552">
        <ele>723.1</ele>
        <time>2021-08-21T11:23:24Z</time>
      </trkpt>
      <trkpt lat="2.922148" lon="-75.15543">
        <ele>722.6</ele>
        <time>2021-08-21T11:23:26Z</time>
      </trkpt>
      <trkpt lat="2.92216" lon="-75.15548">
        <ele>722.9</ele>
        <time>2021-08-21T11:23:26Z</time>
      </trkpt>
      <trkpt lat="2.922138" lon="-75.15539">
        <ele>722.4</ele>
        <time>2021-08-21T11:23:27Z</time>
      </trkpt>
      <trkpt lat="2.92213" lon="-75.15535">
        <ele>722.2</ele>
        <time>2021-08-21T11:23:28Z</time>
      </trkpt>
      <trkpt lat="2.922125" lon="-75.155304">
        <ele>721.9</ele>
        <time>2021-08-21T11:23:29Z</time>
      </trkpt>
      <trkpt lat="2.922121" lon="-75.155205">
        <ele>721.4</ele>
        <time>2021-08-21T11:23:31Z</time>
      </trkpt>
      <trkpt lat="2.922122" lon="-75.15526">
        <ele>721.7</ele>
        <time>2021-08-21T11:23:31Z</time>
      </trkpt>
      <trkpt lat="2.922121" lon="-75.15516">
        <ele>721.2</ele>
        <time>2021-08-21T11:23:32Z</time>
      </trkpt>
      <trkpt lat="2.922123" lon="-75.155106">
        <ele>720.9</ele>
        <time>2021-08-21T11:23:33Z</time>
      </trkpt>
      <trkpt lat="2.922127" lon="-75.15506">
        <ele>720.6</ele>
        <time>2021-08-21T11:23:34Z</time>
      </trkpt>
      <trkpt lat="2.922133" lon="-75.15501">
        <ele>720.3</ele>
        <time>2021-08-21T11:23:35Z</time>
      </trkpt>
      <trkpt lat="2.922141" lon="-75.15495">
        <ele>719.9</ele>
        <time>2021-08-21T11:23:36Z</time>
      </trkpt>
      <trkpt lat="2.92215" lon="-75.15491">
        <ele>719.6</ele>
        <time>2021-08-21T11:23:38Z</time>
      </trkpt>
      <trkpt lat="2.922161" lon="-75.15486">
        <ele>719.3</ele>
        <time>2021-08-21T11:23:38Z</time>
      </trkpt>
      <trkpt lat="2.922174" lon="-75.15481">
        <ele>718.9</ele>
        <time>2021-08-21T11:23:39Z</time>
      </trkpt>
      <trkpt lat="2.922189" lon="-75.15476">
        <ele>718.6</ele>
        <time>2021-08-21T11:23:40Z</time>
      </trkpt>
      <trkpt lat="2.922205" lon="-75.15471">
        <ele>718.2</ele>
        <time>2021-08-21T11:23:41Z</time>
      </trkpt>
      <trkpt lat="2.922222" lon="-75.15466">
        <ele>717.9</ele>
        <time>2021-08-21T11:23:42Z</time>
      </trkpt>
      <trkpt lat="2.922239" lon="-75.15461">
        <ele>717.6</ele>
        <time>2021-08-21T11:23:43Z</time>
      </trkpt>
      <trkpt lat="2.922254" lon="-75.15456">
        <ele>717.3</ele>
        <time>2021-08-21T11:23:44Z</time>
      </trkpt>
      <trkpt lat="2.922266" lon="-75.15451">
        <ele>717.0</ele>
        <time>2021-08-21T11:23:45Z</time>
      </trkpt>
      <trkpt lat="2.922273" lon="-75.15446">
        <ele>716.7</ele>
        <time>2021-08-21T11:23:46Z</time>
      </trkpt>
      <trkpt lat="2.922275" lon="-75.1544">
        <ele>716.4</ele>
        <time>2021-08-21T11:23:47Z</time>
      </trkpt>
      <trkpt lat="2.922273" lon="-75.15436">
        <ele>716.2</ele>
        <time>2021-08-21T11:23:48Z</time>
      </trkpt>
      <trkpt lat="2.922267" lon="-75.154305">
        <ele>715.9</ele>
        <time>2021-08-21T11:23:49Z</time>
      </trkpt>
      <trkpt lat="2.922257" lon="-75.15426">
        <ele>715.7</ele>
        <time>2021-08-21T11:23:50Z</time>
      </trkpt>
      <trkpt lat="2.922244" lon="-75.15421">
        <ele>715.4</ele>
        <time>2021-08-21T11:23:51Z</time>
      </trkpt>
      <trkpt lat="2.922227" lon="-75.15417">
        <ele>715.1</ele>
        <time>2021-08-21T11:23:52Z</time>
      </trkpt>
      <trkpt lat="2.922207" lon="-75.15412">
        <ele>714.9</ele>
        <time>2021-08-21T11:23:53Z</time>
      </trkpt>
      <trkpt lat="2.922187" lon="-75.15408">
        <ele>714.6</ele>
        <time>2021-08-21T11:23:54Z</time>
      </trkpt>
      <trkpt lat="2.922163" lon="-75.154045">
        <ele>714.3</ele>
        <time>2021-08-21T11:23:55Z</time>
      </trkpt>
      <trkpt lat="2.922138" lon="-75.15401">
        <ele>713.9</ele>
        <time>2021-08-21T11:23:56Z</time>
      </trkpt>
      <trkpt lat="2.922099" lon="-75.15392">
        <ele>713.2</ele>
        <time>2021-08-21T11:23:58Z</time>
      </trkpt>
      <trkpt lat="2.922117" lon="-75.15397">
        <ele>713.6</ele>
        <time>2021-08-21T11:23:58Z</time>
      </trkpt>
      <trkpt lat="2.922087" lon="-75.15388">
        <ele>712.8</ele>
        <time>2021-08-21T11:23:59Z</time>
      </trkpt>
      <trkpt lat="2.922079" lon="-75.153824">
        <ele>712.4</ele>
        <time>2021-08-21T11:24:00Z</time>
      </trkpt>
      <trkpt lat="2.922077" lon="-75.15376">
        <ele>711.9</ele>
        <time>2021-08-21T11:24:01Z</time>
      </trkpt>
      <trkpt lat="2.922078" lon="-75.1537">
        <ele>711.4</ele>
        <time>2021-08-21T11:24:02Z</time>
      </trkpt>
      <trkpt lat="2.922083" lon="-75.15364">
        <ele>710.9</ele>
        <time>2021-08-21T11:24:03Z</time>
      </trkpt>
      <trkpt lat="2.922091" lon="-75.15359">
        <ele>710.5</ele>
        <time>2021-08-21T11:24:05Z</time>
      </trkpt>
      <trkpt lat="2.922101" lon="-75.15353">
        <ele>710.1</ele>
        <time>2021-08-21T11:24:05Z</time>
      </trkpt>
      <trkpt lat="2.922112" lon="-75.15347">
        <ele>709.8</ele>
        <time>2021-08-21T11:24:06Z</time>
      </trkpt>
      <trkpt lat="2.922123" lon="-75.15341">
        <ele>709.4</ele>
        <time>2021-08-21T11:24:07Z</time>
      </trkpt>
      <trkpt lat="2.922134" lon="-75.15336">
        <ele>709.1</ele>
        <time>2021-08-21T11:24:08Z</time>
      </trkpt>
      <trkpt lat="2.922144" lon="-75.1533">
        <ele>708.8</ele>
        <time>2021-08-21T11:24:09Z</time>
      </trkpt>
      <trkpt lat="2.922152" lon="-75.153244">
        <ele>708.5</ele>
        <time>2021-08-21T11:24:11Z</time>
      </trkpt>
      <trkpt lat="2.922159" lon="-75.15319">
        <ele>708.2</ele>
        <time>2021-08-21T11:24:11Z</time>
      </trkpt>
      <trkpt lat="2.922167" lon="-75.15314">
        <ele>707.9</ele>
        <time>2021-08-21T11:24:12Z</time>
      </trkpt>
      <trkpt lat="2.922172" lon="-75.15308">
        <ele>707.5</ele>
        <time>2021-08-21T11:24:13Z</time>
      </trkpt>
      <trkpt lat="2.922175" lon="-75.15303">
        <ele>707.2</ele>
        <time>2021-08-21T11:24:14Z</time>
      </trkpt>
      <trkpt lat="2.922172" lon="-75.15298">
        <ele>706.8</ele>
        <time>2021-08-21T11:24:15Z</time>
      </trkpt>
      <trkpt lat="2.922163" lon="-75.15293">
        <ele>706.4</ele>
        <time>2021-08-21T11:24:16Z</time>
      </trkpt>
      <trkpt lat="2.922148" lon="-75.152885">
        <ele>706.1</ele>
        <time>2021-08-21T11:24:17Z</time>
      </trkpt>
      <trkpt lat="2.922127" lon="-75.15284">
        <ele>705.8</ele>
        <time>2021-08-21T11:24:18Z</time>
      </trkpt>
      <trkpt lat="2.9221" lon="-75.15281">
        <ele>705.4</ele>
        <time>2021-08-21T11:24:19Z</time>
      </trkpt>
      <trkpt lat="2.922069" lon="-75.15278">
        <ele>705.1</ele>
        <time>2021-08-21T11:24:20Z</time>
      </trkpt>
      <trkpt lat="2.922033" lon="-75.15275">
        <ele>704.7</ele>
        <time>2021-08-21T11:24:21Z</time>
      </trkpt>
      <trkpt lat="2.92199" lon="-75.15273">
        <ele>704.3</ele>
        <time>2021-08-21T11:24:22Z</time>
      </trkpt>
      <trkpt lat="2.921942" lon="-75.15272">
        <ele>703.9</ele>
        <time>2021-08-21T11:24:23Z</time>
      </trkpt>
      <trkpt lat="2.921891" lon="-75.1527">
        <ele>703.4</ele>
        <time>2021-08-21T11:24:24Z</time>
      </trkpt>
      <trkpt lat="2.921839" lon="-75.15269">
        <ele>702.9</ele>
        <time>2021-08-21T11:24:25Z</time>
      </trkpt>
      <trkpt lat="2.921791" lon="-75.152664">
        <ele>702.4</ele>
        <time>2021-08-21T11:24:26Z</time>
      </trkpt>
      <trkpt lat="2.921743" lon="-75.15263">
        <ele>701.9</ele>
        <time>2021-08-21T11:24:27Z</time>
      </trkpt>
      <trkpt lat="2.921669" lon="-75.152565">
        <ele>700.8</ele>
        <time>2021-08-21T11:24:29Z</time>
      </trkpt>
      <trkpt lat="2.921702" lon="-75.1526">
        <ele>701.4</ele>
        <time>2021-08-21T11:24:29Z</time>
      </trkpt>
      <trkpt lat="2.921645" lon="-75.15252">
        <ele>700.3</ele>
        <time>2021-08-21T11:24:30Z</time>
      </trkpt>
      <trkpt lat="2.921631" lon="-75.15247">
        <ele>699.8</ele>
        <time>2021-08-21T11:24:31Z</time>
      </trkpt>
      <trkpt lat="2.921625" lon="-75.15242">
        <ele>699.2</ele>
        <time>2021-08-21T11:24:32Z</time>
      </trkpt>
      <trkpt lat="2.921634" lon="-75.15237">
        <ele>698.6</ele>
        <time>2021-08-21T11:24:33Z</time>
      </trkpt>
      <trkpt lat="2.921654" lon="-75.15232">
        <ele>698.0</ele>
        <time>2021-08-21T11:24:34Z</time>
      </trkpt>
      <trkpt lat="2.921684" lon="-75.152275">
        <ele>697.4</ele>
        <time>2021-08-21T11:24:35Z</time>
      </trkpt>
      <trkpt lat="2.921722" lon="-75.152245">
        <ele>696.9</ele>
        <time>2021-08-21T11:24:36Z</time>
      </trkpt>
      <trkpt lat="2.921771" lon="-75.15221">
        <ele>696.2</ele>
        <time>2021-08-21T11:24:37Z</time>
      </trkpt>
      <trkpt lat="2.921826" lon="-75.152176">
        <ele>695.6</ele>
        <time>2021-08-21T11:24:38Z</time>
      </trkpt>
      <trkpt lat="2.921885" lon="-75.15215">
        <ele>694.9</ele>
        <time>2021-08-21T11:24:39Z</time>
      </trkpt>
      <trkpt lat="2.921946" lon="-75.15214">
        <ele>694.3</ele>
        <time>2021-08-21T11:24:40Z</time>
      </trkpt>
      <trkpt lat="2.922004" lon="-75.15212">
        <ele>693.7</ele>
        <time>2021-08-21T11:24:41Z</time>
      </trkpt>
      <trkpt lat="2.922063" lon="-75.15212">
        <ele>693.2</ele>
        <time>2021-08-21T11:24:42Z</time>
      </trkpt>
      <trkpt lat="2.922122" lon="-75.15212">
        <ele>692.7</ele>
        <time>2021-08-21T11:24:43Z</time>
      </trkpt>
      <trkpt lat="2.92218" lon="-75.15213">
        <ele>692.0</ele>
        <time>2021-08-21T11:24:44Z</time>
      </trkpt>
      <trkpt lat="2.922238" lon="-75.152145">
        <ele>691.4</ele>
        <time>2021-08-21T11:24:46Z</time>
      </trkpt>
      <trkpt lat="2.922294" lon="-75.15217">
        <ele>690.7</ele>
        <time>2021-08-21T11:24:46Z</time>
      </trkpt>
      <trkpt lat="2.922349" lon="-75.1522">
        <ele>690.0</ele>
        <time>2021-08-21T11:24:47Z</time>
      </trkpt>
      <trkpt lat="2.922402" lon="-75.15223">
        <ele>689.3</ele>
        <time>2021-08-21T11:24:49Z</time>
      </trkpt>
      <trkpt lat="2.922453" lon="-75.15227">
        <ele>688.7</ele>
        <time>2021-08-21T11:24:49Z</time>
      </trkpt>
      <trkpt lat="2.922503" lon="-75.152306">
        <ele>688.1</ele>
        <time>2021-08-21T11:24:50Z</time>
      </trkpt>
      <trkpt lat="2.92255" lon="-75.15234">
        <ele>687.5</ele>
        <time>2021-08-21T11:24:51Z</time>
      </trkpt>
      <trkpt lat="2.922596" lon="-75.15238">
        <ele>687.0</ele>
        <time>2021-08-21T11:24:52Z</time>
      </trkpt>
      <trkpt lat="2.922641" lon="-75.15242">
        <ele>686.5</ele>
        <time>2021-08-21T11:24:53Z</time>
      </trkpt>
      <trkpt lat="2.922685" lon="-75.15246">
        <ele>686.0</ele>
        <time>2021-08-21T11:24:54Z</time>
      </trkpt>
      <trkpt lat="2.922727" lon="-75.1525">
        <ele>685.5</ele>
        <time>2021-08-21T11:24:56Z</time>
      </trkpt>
      <trkpt lat="2.922769" lon="-75.152534">
        <ele>685.1</ele>
        <time>2021-08-21T11:24:56Z</time>
      </trkpt>
      <trkpt lat="2.922809" lon="-75.152565">
        <ele>684.6</ele>
        <time>2021-08-21T11:24:57Z</time>
      </trkpt>
      <trkpt lat="2.92285" lon="-75.1526">
        <ele>684.2</ele>
        <time>2021-08-21T11:24:58Z</time>
      </trkpt>
      <trkpt lat="2.92289" lon="-75.15263">
        <ele>683.8</ele>
        <time>2021-08-21T11:24:59Z</time>
      </trkpt>
      <trkpt lat="2.922932" lon="-75.15267">
        <ele>683.4</ele>
        <time>2021-08-21T11:25:00Z</time>
      </trkpt>
      <trkpt lat="2.922974" lon="-75.152695">
        <ele>683.0</ele>
        <time>2021-08-21T11:25:01Z</time>
      </trkpt>
      <trkpt lat="2.923018" lon="-75.15272">
        <ele>682.5</ele>
        <time>2021-08-21T11:25:03Z</time>
      </trkpt>
      <trkpt lat="2.923062" lon="-75.15274">
        <ele>682.0</ele>
        <time>2021-08-21T11:25:03Z</time>
      </trkpt>
      <trkpt lat="2.923104" lon="-75.15275">
        <ele>681.5</ele>
        <time>2021-08-21T11:25:04Z</time>
      </trkpt>
      <trkpt lat="2.923145" lon="-75.152756">
        <ele>680.9</ele>
        <time>2021-08-21T11:25:05Z</time>
      </trkpt>
      <trkpt lat="2.92318" lon="-75.152756">
        <ele>680.5</ele>
        <time>2021-08-21T11:25:06Z</time>
      </trkpt>
      <trkpt lat="2.92321" lon="-75.15274">
        <ele>680.0</ele>
        <time>2021-08-21T11:25:07Z</time>
      </trkpt>
      <trkpt lat="2.923229" lon="-75.15272">
        <ele>679.5</ele>
        <time>2021-08-21T11:25:08Z</time>
      </trkpt>
      <trkpt lat="2.923238" lon="-75.15269">
        <ele>678.9</ele>
        <time>2021-08-21T11:25:08Z</time>
      </trkpt>
      <trkpt lat="2.923232" lon="-75.15261">
        <ele>677.7</ele>
        <time>2021-08-21T11:25:10Z</time>
      </trkpt>
      <trkpt lat="2.923239" lon="-75.15265">
        <ele>678.4</ele>
        <time>2021-08-21T11:25:10Z</time>
      </trkpt>
      <trkpt lat="2.923217" lon="-75.152565">
        <ele>677.0</ele>
        <time>2021-08-21T11:25:11Z</time>
      </trkpt>
      <trkpt lat="2.923195" lon="-75.15252">
        <ele>676.3</ele>
        <time>2021-08-21T11:25:12Z</time>
      </trkpt>
      <trkpt lat="2.923168" lon="-75.15248">
        <ele>675.6</ele>
        <time>2021-08-21T11:25:13Z</time>
      </trkpt>
      <trkpt lat="2.923135" lon="-75.152435">
        <ele>674.9</ele>
        <time>2021-08-21T11:25:14Z</time>
      </trkpt>
      <trkpt lat="2.923099" lon="-75.15239">
        <ele>674.3</ele>
        <time>2021-08-21T11:25:15Z</time>
      </trkpt>
      <trkpt lat="2.923057" lon="-75.15234">
        <ele>673.7</ele>
        <time>2021-08-21T11:25:16Z</time>
      </trkpt>
      <trkpt lat="2.923013" lon="-75.1523">
        <ele>673.1</ele>
        <time>2021-08-21T11:25:17Z</time>
      </trkpt>
      <trkpt lat="2.922968" lon="-75.152245">
        <ele>672.5</ele>
        <time>2021-08-21T11:25:18Z</time>
      </trkpt>
      <trkpt lat="2.922926" lon="-75.1522">
        <ele>672.0</ele>
        <time>2021-08-21T11:25:19Z</time>
      </trkpt>
      <trkpt lat="2.922838" lon="-75.1521">
        <ele>671.3</ele>
        <time>2021-08-21T11:25:21Z</time>
      </trkpt>
      <trkpt lat="2.922882" lon="-75.152145">
        <ele>671.6</ele>
        <time>2021-08-21T11:25:21Z</time>
      </trkpt>
      <trkpt lat="2.922795" lon="-75.15205">
        <ele>671.1</ele>
        <time>2021-08-21T11:25:22Z</time>
      </trkpt>
      <trkpt lat="2.922752" lon="-75.152">
        <ele>670.9</ele>
        <time>2021-08-21T11:25:23Z</time>
      </trkpt>
      <trkpt lat="2.92271" lon="-75.15196">
        <ele>670.7</ele>
        <time>2021-08-21T11:25:24Z</time>
      </trkpt>
      <trkpt lat="2.922669" lon="-75.15192">
        <ele>670.5</ele>
        <time>2021-08-21T11:25:25Z</time>
      </trkpt>
      <trkpt lat="2.922628" lon="-75.15188">
        <ele>670.3</ele>
        <time>2021-08-21T11:25:26Z</time>
      </trkpt>
      <trkpt lat="2.922586" lon="-75.15183">
        <ele>670.1</ele>
        <time>2021-08-21T11:25:27Z</time>
      </trkpt>
      <trkpt lat="2.9225" lon="-75.15176">
        <ele>669.8</ele>
        <time>2021-08-21T11:25:29Z</time>
      </trkpt>
      <trkpt lat="2.922543" lon="-75.151794">
        <ele>670.0</ele>
        <time>2021-08-21T11:25:29Z</time>
      </trkpt>
      <trkpt lat="2.922462" lon="-75.15172">
        <ele>669.7</ele>
        <time>2021-08-21T11:25:30Z</time>
      </trkpt>
      <trkpt lat="2.922426" lon="-75.15168">
        <ele>669.7</ele>
        <time>2021-08-21T11:25:31Z</time>
      </trkpt>
      <trkpt lat="2.922392" lon="-75.15164">
        <ele>669.6</ele>
        <time>2021-08-21T11:25:32Z</time>
      </trkpt>
      <trkpt lat="2.922357" lon="-75.1516">
        <ele>669.6</ele>
        <time>2021-08-21T11:25:33Z</time>
      </trkpt>
      <trkpt lat="2.922325" lon="-75.15157">
        <ele>669.6</ele>
        <time>2021-08-21T11:25:34Z</time>
      </trkpt>
      <trkpt lat="2.922295" lon="-75.15154">
        <ele>669.6</ele>
        <time>2021-08-21T11:25:35Z</time>
      </trkpt>
      <trkpt lat="2.922267" lon="-75.15152">
        <ele>669.6</ele>
        <time>2021-08-21T11:25:36Z</time>
      </trkpt>
      <trkpt lat="2.922239" lon="-75.15149">
        <ele>669.6</ele>
        <time>2021-08-21T11:25:37Z</time>
      </trkpt>
      <trkpt lat="2.922209" lon="-75.151474">
        <ele>669.6</ele>
        <time>2021-08-21T11:25:38Z</time>
      </trkpt>
      <trkpt lat="2.922179" lon="-75.15145">
        <ele>669.7</ele>
        <time>2021-08-21T11:25:39Z</time>
      </trkpt>
      <trkpt lat="2.92215" lon="-75.15143">
        <ele>669.7</ele>
        <time>2021-08-21T11:25:40Z</time>
      </trkpt>
      <trkpt lat="2.922123" lon="-75.151405">
        <ele>669.8</ele>
        <time>2021-08-21T11:25:41Z</time>
      </trkpt>
      <trkpt lat="2.922095" lon="-75.15138">
        <ele>669.9</ele>
        <time>2021-08-21T11:25:42Z</time>
      </trkpt>
      <trkpt lat="2.922044" lon="-75.15134">
        <ele>670.0</ele>
        <time>2021-08-21T11:25:44Z</time>
      </trkpt>
      <trkpt lat="2.922069" lon="-75.15136">
        <ele>670.0</ele>
        <time>2021-08-21T11:25:44Z</time>
      </trkpt>
      <trkpt lat="2.921995" lon="-75.15129">
        <ele>670.2</ele>
        <time>2021-08-21T11:25:46Z</time>
      </trkpt>
      <trkpt lat="2.922008" lon="-75.1513">
        <ele>670.2</ele>
        <time>2021-08-21T11:25:46Z</time>
      </trkpt>
      <trkpt lat="2.921971" lon="-75.15127">
        <ele>670.3</ele>
        <time>2021-08-21T11:25:47Z</time>
      </trkpt>
      <trkpt lat="2.921947" lon="-75.151245">
        <ele>670.4</ele>
        <time>2021-08-21T11:25:48Z</time>
      </trkpt>
      <trkpt lat="2.921923" lon="-75.15122">
        <ele>670.5</ele>
        <time>2021-08-21T11:25:49Z</time>
      </trkpt>
      <trkpt lat="2.921899" lon="-75.1512">
        <ele>670.5</ele>
        <time>2021-08-21T11:25:50Z</time>
      </trkpt>
      <trkpt lat="2.921876" lon="-75.15118">
        <ele>670.6</ele>
        <time>2021-08-21T11:25:51Z</time>
      </trkpt>
      <trkpt lat="2.921826" lon="-75.15114">
        <ele>670.8</ele>
        <time>2021-08-21T11:25:53Z</time>
      </trkpt>
      <trkpt lat="2.921839" lon="-75.151146">
        <ele>670.8</ele>
        <time>2021-08-21T11:25:53Z</time>
      </trkpt>
      <trkpt lat="2.921801" lon="-75.151115">
        <ele>670.9</ele>
        <time>2021-08-21T11:25:54Z</time>
      </trkpt>
      <trkpt lat="2.921777" lon="-75.15109">
        <ele>671.0</ele>
        <time>2021-08-21T11:25:55Z</time>
      </trkpt>
      <trkpt lat="2.921752" lon="-75.15107">
        <ele>671.0</ele>
        <time>2021-08-21T11:25:56Z</time>
      </trkpt>
      <trkpt lat="2.921725" lon="-75.151054">
        <ele>671.1</ele>
        <time>2021-08-21T11:25:57Z</time>
      </trkpt>
      <trkpt lat="2.921699" lon="-75.15103">
        <ele>671.2</ele>
        <time>2021-08-21T11:25:58Z</time>
      </trkpt>
      <trkpt lat="2.92165" lon="-75.150986">
        <ele>671.3</ele>
        <time>2021-08-21T11:26:00Z</time>
      </trkpt>
      <trkpt lat="2.921663" lon="-75.15099">
        <ele>671.3</ele>
        <time>2021-08-21T11:26:00Z</time>
      </trkpt>
      <trkpt lat="2.921623" lon="-75.15096">
        <ele>671.3</ele>
        <time>2021-08-21T11:26:01Z</time>
      </trkpt>
      <trkpt lat="2.921598" lon="-75.15094">
        <ele>671.4</ele>
        <time>2021-08-21T11:26:02Z</time>
      </trkpt>
      <trkpt lat="2.921573" lon="-75.150925">
        <ele>671.4</ele>
        <time>2021-08-21T11:26:03Z</time>
      </trkpt>
      <trkpt lat="2.921549" lon="-75.1509">
        <ele>671.4</ele>
        <time>2021-08-21T11:26:04Z</time>
      </trkpt>
      <trkpt lat="2.921528" lon="-75.15088">
        <ele>671.5</ele>
        <time>2021-08-21T11:26:05Z</time>
      </trkpt>
      <trkpt lat="2.921508" lon="-75.150856">
        <ele>671.5</ele>
        <time>2021-08-21T11:26:06Z</time>
      </trkpt>
      <trkpt lat="2.921487" lon="-75.15084">
        <ele>671.5</ele>
        <time>2021-08-21T11:26:07Z</time>
      </trkpt>
      <trkpt lat="2.921468" lon="-75.15082">
        <ele>671.5</ele>
        <time>2021-08-21T11:26:08Z</time>
      </trkpt>
      <trkpt lat="2.92145" lon="-75.1508">
        <ele>671.5</ele>
        <time>2021-08-21T11:26:09Z</time>
      </trkpt>
      <trkpt lat="2.92143" lon="-75.15078">
        <ele>671.6</ele>
        <time>2021-08-21T11:26:10Z</time>
      </trkpt>
      <trkpt lat="2.92141" lon="-75.150764">
        <ele>671.6</ele>
        <time>2021-08-21T11:26:11Z</time>
      </trkpt>
      <trkpt lat="2.921388" lon="-75.15074">
        <ele>671.6</ele>
        <time>2021-08-21T11:26:12Z</time>
      </trkpt>
      <trkpt lat="2.921364" lon="-75.15071">
        <ele>671.6</ele>
        <time>2021-08-21T11:26:13Z</time>
      </trkpt>
      <trkpt lat="2.921317" lon="-75.150665">
        <ele>671.5</ele>
        <time>2021-08-21T11:26:15Z</time>
      </trkpt>
      <trkpt lat="2.921329" lon="-75.15068">
        <ele>671.5</ele>
        <time>2021-08-21T11:26:15Z</time>
      </trkpt>
      <trkpt lat="2.921296" lon="-75.15064">
        <ele>671.5</ele>
        <time>2021-08-21T11:26:17Z</time>
      </trkpt>
      <trkpt lat="2.921256" lon="-75.1506">
        <ele>671.4</ele>
        <time>2021-08-21T11:26:18Z</time>
      </trkpt>
      <trkpt lat="2.921276" lon="-75.15062">
        <ele>671.4</ele>
        <time>2021-08-21T11:26:18Z</time>
      </trkpt>
      <trkpt lat="2.921239" lon="-75.15057">
        <ele>671.3</ele>
        <time>2021-08-21T11:26:19Z</time>
      </trkpt>
      <trkpt lat="2.92122" lon="-75.15054">
        <ele>671.2</ele>
        <time>2021-08-21T11:26:20Z</time>
      </trkpt>
      <trkpt lat="2.921204" lon="-75.15052">
        <ele>671.2</ele>
        <time>2021-08-21T11:26:21Z</time>
      </trkpt>
      <trkpt lat="2.921189" lon="-75.1505">
        <ele>671.1</ele>
        <time>2021-08-21T11:26:22Z</time>
      </trkpt>
      <trkpt lat="2.921175" lon="-75.15048">
        <ele>671.0</ele>
        <time>2021-08-21T11:26:23Z</time>
      </trkpt>
      <trkpt lat="2.921161" lon="-75.15046">
        <ele>671.0</ele>
        <time>2021-08-21T11:26:24Z</time>
      </trkpt>
      <trkpt lat="2.921146" lon="-75.15044">
        <ele>670.9</ele>
        <time>2021-08-21T11:26:25Z</time>
      </trkpt>
      <trkpt lat="2.921132" lon="-75.150406">
        <ele>670.8</ele>
        <time>2021-08-21T11:26:26Z</time>
      </trkpt>
      <trkpt lat="2.921116" lon="-75.15038">
        <ele>670.7</ele>
        <time>2021-08-21T11:26:27Z</time>
      </trkpt>
      <trkpt lat="2.921103" lon="-75.15035">
        <ele>670.6</ele>
        <time>2021-08-21T11:26:28Z</time>
      </trkpt>
      <trkpt lat="2.921093" lon="-75.150314">
        <ele>670.4</ele>
        <time>2021-08-21T11:26:29Z</time>
      </trkpt>
      <trkpt lat="2.921073" lon="-75.15024">
        <ele>670.2</ele>
        <time>2021-08-21T11:26:31Z</time>
      </trkpt>
      <trkpt lat="2.921083" lon="-75.150276">
        <ele>670.3</ele>
        <time>2021-08-21T11:26:31Z</time>
      </trkpt>
      <trkpt lat="2.921061" lon="-75.15019">
        <ele>670.0</ele>
        <time>2021-08-21T11:26:32Z</time>
      </trkpt>
      <trkpt lat="2.921048" lon="-75.150154">
        <ele>669.9</ele>
        <time>2021-08-21T11:26:33Z</time>
      </trkpt>
      <trkpt lat="2.921034" lon="-75.15011">
        <ele>669.9</ele>
        <time>2021-08-21T11:26:34Z</time>
      </trkpt>
      <trkpt lat="2.92102" lon="-75.15006">
        <ele>669.8</ele>
        <time>2021-08-21T11:26:35Z</time>
      </trkpt>
      <trkpt lat="2.921006" lon="-75.15002">
        <ele>669.7</ele>
        <time>2021-08-21T11:26:36Z</time>
      </trkpt>
      <trkpt lat="2.92098" lon="-75.14992">
        <ele>669.6</ele>
        <time>2021-08-21T11:26:38Z</time>
      </trkpt>
      <trkpt lat="2.920993" lon="-75.14996">
        <ele>669.7</ele>
        <time>2021-08-21T11:26:38Z</time>
      </trkpt>
      <trkpt lat="2.920969" lon="-75.14988">
        <ele>669.6</ele>
        <time>2021-08-21T11:26:39Z</time>
      </trkpt>
      <trkpt lat="2.920959" lon="-75.14984">
        <ele>669.5</ele>
        <time>2021-08-21T11:26:40Z</time>
      </trkpt>
      <trkpt lat="2.920947" lon="-75.1498">
        <ele>669.5</ele>
        <time>2021-08-21T11:26:41Z</time>
      </trkpt>
      <trkpt lat="2.920934" lon="-75.14977">
        <ele>669.5</ele>
        <time>2021-08-21T11:26:42Z</time>
      </trkpt>
      <trkpt lat="2.920918" lon="-75.149734">
        <ele>669.4</ele>
        <time>2021-08-21T11:26:43Z</time>
      </trkpt>
      <trkpt lat="2.920876" lon="-75.14968">
        <ele>669.4</ele>
        <time>2021-08-21T11:26:45Z</time>
      </trkpt>
      <trkpt lat="2.920888" lon="-75.1497">
        <ele>669.4</ele>
        <time>2021-08-21T11:26:45Z</time>
      </trkpt>
      <trkpt lat="2.920852" lon="-75.14966">
        <ele>669.3</ele>
        <time>2021-08-21T11:26:46Z</time>
      </trkpt>
      <trkpt lat="2.920825" lon="-75.14964">
        <ele>669.3</ele>
        <time>2021-08-21T11:26:47Z</time>
      </trkpt>
      <trkpt lat="2.920796" lon="-75.14962">
        <ele>669.3</ele>
        <time>2021-08-21T11:26:48Z</time>
      </trkpt>
      <trkpt lat="2.920765" lon="-75.149605">
        <ele>669.2</ele>
        <time>2021-08-21T11:26:49Z</time>
      </trkpt>
      <trkpt lat="2.920734" lon="-75.14959">
        <ele>669.2</ele>
        <time>2021-08-21T11:26:50Z</time>
      </trkpt>
      <trkpt lat="2.920703" lon="-75.149574">
        <ele>669.2</ele>
        <time>2021-08-21T11:26:51Z</time>
      </trkpt>
      <trkpt lat="2.920672" lon="-75.14957">
        <ele>669.2</ele>
        <time>2021-08-21T11:26:52Z</time>
      </trkpt>
      <trkpt lat="2.920639" lon="-75.14955">
        <ele>669.2</ele>
        <time>2021-08-21T11:26:53Z</time>
      </trkpt>
      <trkpt lat="2.920605" lon="-75.14954">
        <ele>669.2</ele>
        <time>2021-08-21T11:26:54Z</time>
      </trkpt>
      <trkpt lat="2.920572" lon="-75.14953">
        <ele>669.2</ele>
        <time>2021-08-21T11:26:55Z</time>
      </trkpt>
      <trkpt lat="2.92054" lon="-75.14952">
        <ele>669.2</ele>
        <time>2021-08-21T11:26:56Z</time>
      </trkpt>
      <trkpt lat="2.92051" lon="-75.14951">
        <ele>669.2</ele>
        <time>2021-08-21T11:26:57Z</time>
      </trkpt>
      <trkpt lat="2.920479" lon="-75.149506">
        <ele>669.2</ele>
        <time>2021-08-21T11:26:58Z</time>
      </trkpt>
      <trkpt lat="2.92045" lon="-75.14949">
        <ele>669.2</ele>
        <time>2021-08-21T11:26:59Z</time>
      </trkpt>
      <trkpt lat="2.920392" lon="-75.14947">
        <ele>669.3</ele>
        <time>2021-08-21T11:27:01Z</time>
      </trkpt>
      <trkpt lat="2.920407" lon="-75.149475">
        <ele>669.2</ele>
        <time>2021-08-21T11:27:01Z</time>
      </trkpt>
      <trkpt lat="2.920361" lon="-75.14946">
        <ele>669.3</ele>
        <time>2021-08-21T11:27:02Z</time>
      </trkpt>
      <trkpt lat="2.92033" lon="-75.14945">
        <ele>669.3</ele>
        <time>2021-08-21T11:27:03Z</time>
      </trkpt>
      <trkpt lat="2.920298" lon="-75.149445">
        <ele>669.3</ele>
        <time>2021-08-21T11:27:05Z</time>
      </trkpt>
      <trkpt lat="2.920231" lon="-75.14942">
        <ele>669.4</ele>
        <time>2021-08-21T11:27:06Z</time>
      </trkpt>
      <trkpt lat="2.920264" lon="-75.14944">
        <ele>669.4</ele>
        <time>2021-08-21T11:27:06Z</time>
      </trkpt>
      <trkpt lat="2.9202" lon="-75.14942">
        <ele>669.4</ele>
        <time>2021-08-21T11:27:07Z</time>
      </trkpt>
      <trkpt lat="2.920168" lon="-75.149414">
        <ele>669.5</ele>
        <time>2021-08-21T11:27:08Z</time>
      </trkpt>
      <trkpt lat="2.920105" lon="-75.1494">
        <ele>669.6</ele>
        <time>2021-08-21T11:27:10Z</time>
      </trkpt>
      <trkpt lat="2.920121" lon="-75.1494">
        <ele>669.5</ele>
        <time>2021-08-21T11:27:10Z</time>
      </trkpt>
      <trkpt lat="2.920073" lon="-75.14939">
        <ele>669.6</ele>
        <time>2021-08-21T11:27:11Z</time>
      </trkpt>
      <trkpt lat="2.92004" lon="-75.14938">
        <ele>669.7</ele>
        <time>2021-08-21T11:27:12Z</time>
      </trkpt>
      <trkpt lat="2.920009" lon="-75.14938">
        <ele>669.8</ele>
        <time>2021-08-21T11:27:13Z</time>
      </trkpt>
      <trkpt lat="2.919977" lon="-75.149376">
        <ele>669.8</ele>
        <time>2021-08-21T11:27:14Z</time>
      </trkpt>
      <trkpt lat="2.919945" lon="-75.149376">
        <ele>669.9</ele>
        <time>2021-08-21T11:27:15Z</time>
      </trkpt>
      <trkpt lat="2.919884" lon="-75.149376">
        <ele>670.1</ele>
        <time>2021-08-21T11:27:17Z</time>
      </trkpt>
      <trkpt lat="2.919899" lon="-75.149376">
        <ele>670.1</ele>
        <time>2021-08-21T11:27:17Z</time>
      </trkpt>
      <trkpt lat="2.919855" lon="-75.149376">
        <ele>670.2</ele>
        <time>2021-08-21T11:27:18Z</time>
      </trkpt>
      <trkpt lat="2.919827" lon="-75.149376">
        <ele>670.3</ele>
        <time>2021-08-21T11:27:19Z</time>
      </trkpt>
      <trkpt lat="2.919799" lon="-75.14938">
        <ele>670.4</ele>
        <time>2021-08-21T11:27:20Z</time>
      </trkpt>
      <trkpt lat="2.919772" lon="-75.14938">
        <ele>670.5</ele>
        <time>2021-08-21T11:27:21Z</time>
      </trkpt>
      <trkpt lat="2.919746" lon="-75.14938">
        <ele>670.7</ele>
        <time>2021-08-21T11:27:22Z</time>
      </trkpt>
      <trkpt lat="2.919721" lon="-75.149376">
        <ele>670.8</ele>
        <time>2021-08-21T11:27:24Z</time>
      </trkpt>
      <trkpt lat="2.919678" lon="-75.14937">
        <ele>671.0</ele>
        <time>2021-08-21T11:27:25Z</time>
      </trkpt>
      <trkpt lat="2.919699" lon="-75.149376">
        <ele>670.9</ele>
        <time>2021-08-21T11:27:25Z</time>
      </trkpt>
      <trkpt lat="2.919657" lon="-75.14937">
        <ele>671.2</ele>
        <time>2021-08-21T11:27:26Z</time>
      </trkpt>
      <trkpt lat="2.919638" lon="-75.14937">
        <ele>671.3</ele>
        <time>2021-08-21T11:27:27Z</time>
      </trkpt>
      <trkpt lat="2.919619" lon="-75.14937">
        <ele>671.5</ele>
        <time>2021-08-21T11:27:28Z</time>
      </trkpt>
      <trkpt lat="2.919602" lon="-75.14937">
        <ele>671.6</ele>
        <time>2021-08-21T11:27:29Z</time>
      </trkpt>
      <trkpt lat="2.919584" lon="-75.14937">
        <ele>671.7</ele>
        <time>2021-08-21T11:27:30Z</time>
      </trkpt>
      <trkpt lat="2.919568" lon="-75.149376">
        <ele>671.9</ele>
        <time>2021-08-21T11:27:31Z</time>
      </trkpt>
      <trkpt lat="2.919551" lon="-75.149376">
        <ele>672.0</ele>
        <time>2021-08-21T11:27:32Z</time>
      </trkpt>
      <trkpt lat="2.919534" lon="-75.149376">
        <ele>672.2</ele>
        <time>2021-08-21T11:27:33Z</time>
      </trkpt>
      <trkpt lat="2.919509" lon="-75.14938">
        <ele>672.4</ele>
        <time>2021-08-21T11:27:34Z</time>
      </trkpt>
      <trkpt lat="2.919484" lon="-75.1494">
        <ele>672.6</ele>
        <time>2021-08-21T11:27:35Z</time>
      </trkpt>
      <trkpt lat="2.919461" lon="-75.1494">
        <ele>672.8</ele>
        <time>2021-08-21T11:27:36Z</time>
      </trkpt>
      <trkpt lat="2.919438" lon="-75.1494">
        <ele>673.0</ele>
        <time>2021-08-21T11:27:37Z</time>
      </trkpt>
      <trkpt lat="2.919415" lon="-75.1494">
        <ele>673.2</ele>
        <time>2021-08-21T11:27:38Z</time>
      </trkpt>
      <trkpt lat="2.919393" lon="-75.1494">
        <ele>673.4</ele>
        <time>2021-08-21T11:27:39Z</time>
      </trkpt>
      <trkpt lat="2.919372" lon="-75.1494">
        <ele>673.6</ele>
        <time>2021-08-21T11:27:40Z</time>
      </trkpt>
      <trkpt lat="2.919337" lon="-75.14939">
        <ele>673.9</ele>
        <time>2021-08-21T11:27:42Z</time>
      </trkpt>
      <trkpt lat="2.919345" lon="-75.14939">
        <ele>673.8</ele>
        <time>2021-08-21T11:27:42Z</time>
      </trkpt>
      <trkpt lat="2.91932" lon="-75.14939">
        <ele>674.1</ele>
        <time>2021-08-21T11:27:43Z</time>
      </trkpt>
      <trkpt lat="2.919302" lon="-75.1494">
        <ele>674.2</ele>
        <time>2021-08-21T11:27:44Z</time>
      </trkpt>
      <trkpt lat="2.919284" lon="-75.1494">
        <ele>674.3</ele>
        <time>2021-08-21T11:27:45Z</time>
      </trkpt>
      <trkpt lat="2.919264" lon="-75.1494">
        <ele>674.5</ele>
        <time>2021-08-21T11:27:46Z</time>
      </trkpt>
      <trkpt lat="2.919244" lon="-75.1494">
        <ele>674.7</ele>
        <time>2021-08-21T11:27:47Z</time>
      </trkpt>
      <trkpt lat="2.919202" lon="-75.14939">
        <ele>675.0</ele>
        <time>2021-08-21T11:27:49Z</time>
      </trkpt>
      <trkpt lat="2.919213" lon="-75.14939">
        <ele>674.9</ele>
        <time>2021-08-21T11:27:49Z</time>
      </trkpt>
      <trkpt lat="2.91918" lon="-75.14939">
        <ele>675.2</ele>
        <time>2021-08-21T11:27:50Z</time>
      </trkpt>
      <trkpt lat="2.919156" lon="-75.14938">
        <ele>675.3</ele>
        <time>2021-08-21T11:27:51Z</time>
      </trkpt>
      <trkpt lat="2.919133" lon="-75.14938">
        <ele>675.5</ele>
        <time>2021-08-21T11:27:52Z</time>
      </trkpt>
      <trkpt lat="2.919111" lon="-75.14938">
        <ele>675.7</ele>
        <time>2021-08-21T11:27:53Z</time>
      </trkpt>
      <trkpt lat="2.91909" lon="-75.14938">
        <ele>675.8</ele>
        <time>2021-08-21T11:27:54Z</time>
      </trkpt>
      <trkpt lat="2.919048" lon="-75.14938">
        <ele>676.1</ele>
        <time>2021-08-21T11:27:56Z</time>
      </trkpt>
      <trkpt lat="2.919059" lon="-75.14938">
        <ele>676.0</ele>
        <time>2021-08-21T11:27:56Z</time>
      </trkpt>
      <trkpt lat="2.919027" lon="-75.14938">
        <ele>676.3</ele>
        <time>2021-08-21T11:27:57Z</time>
      </trkpt>
      <trkpt lat="2.919006" lon="-75.14938">
        <ele>676.4</ele>
        <time>2021-08-21T11:27:58Z</time>
      </trkpt>
      <trkpt lat="2.918987" lon="-75.14938">
        <ele>676.5</ele>
        <time>2021-08-21T11:27:59Z</time>
      </trkpt>
      <trkpt lat="2.918966" lon="-75.14938">
        <ele>676.7</ele>
        <time>2021-08-21T11:28:00Z</time>
      </trkpt>
      <trkpt lat="2.918946" lon="-75.14938">
        <ele>676.8</ele>
        <time>2021-08-21T11:28:01Z</time>
      </trkpt>
      <trkpt lat="2.918907" lon="-75.14938">
        <ele>677.1</ele>
        <time>2021-08-21T11:28:03Z</time>
      </trkpt>
      <trkpt lat="2.918917" lon="-75.14938">
        <ele>677.0</ele>
        <time>2021-08-21T11:28:03Z</time>
      </trkpt>
      <trkpt lat="2.918887" lon="-75.14938">
        <ele>677.2</ele>
        <time>2021-08-21T11:28:04Z</time>
      </trkpt>
      <trkpt lat="2.918868" lon="-75.14938">
        <ele>677.3</ele>
        <time>2021-08-21T11:28:05Z</time>
      </trkpt>
      <trkpt lat="2.918849" lon="-75.14938">
        <ele>677.5</ele>
        <time>2021-08-21T11:28:06Z</time>
      </trkpt>
      <trkpt lat="2.918829" lon="-75.14938">
        <ele>677.6</ele>
        <time>2021-08-21T11:28:07Z</time>
      </trkpt>
      <trkpt lat="2.918789" lon="-75.14938">
        <ele>677.9</ele>
        <time>2021-08-21T11:28:09Z</time>
      </trkpt>
      <trkpt lat="2.918799" lon="-75.14938">
        <ele>677.8</ele>
        <time>2021-08-21T11:28:09Z</time>
      </trkpt>
      <trkpt lat="2.918768" lon="-75.14938">
        <ele>678.0</ele>
        <time>2021-08-21T11:28:10Z</time>
      </trkpt>
      <trkpt lat="2.918747" lon="-75.14938">
        <ele>678.1</ele>
        <time>2021-08-21T11:28:11Z</time>
      </trkpt>
      <trkpt lat="2.918724" lon="-75.14938">
        <ele>678.2</ele>
        <time>2021-08-21T11:28:12Z</time>
      </trkpt>
      <trkpt lat="2.918701" lon="-75.14938">
        <ele>678.3</ele>
        <time>2021-08-21T11:28:13Z</time>
      </trkpt>
      <trkpt lat="2.918678" lon="-75.149376">
        <ele>678.4</ele>
        <time>2021-08-21T11:28:14Z</time>
      </trkpt>
      <trkpt lat="2.918652" lon="-75.149376">
        <ele>678.5</ele>
        <time>2021-08-21T11:28:16Z</time>
      </trkpt>
      <trkpt lat="2.918626" lon="-75.149376">
        <ele>678.6</ele>
        <time>2021-08-21T11:28:17Z</time>
      </trkpt>
      <trkpt lat="2.91857" lon="-75.14937">
        <ele>678.7</ele>
        <time>2021-08-21T11:28:18Z</time>
      </trkpt>
      <trkpt lat="2.918599" lon="-75.14937">
        <ele>678.7</ele>
        <time>2021-08-21T11:28:18Z</time>
      </trkpt>
      <trkpt lat="2.918543" lon="-75.14937">
        <ele>678.8</ele>
        <time>2021-08-21T11:28:19Z</time>
      </trkpt>
      <trkpt lat="2.918517" lon="-75.14937">
        <ele>678.8</ele>
        <time>2021-08-21T11:28:20Z</time>
      </trkpt>
      <trkpt lat="2.918489" lon="-75.14937">
        <ele>678.9</ele>
        <time>2021-08-21T11:28:21Z</time>
      </trkpt>
      <trkpt lat="2.918432" lon="-75.14937">
        <ele>678.9</ele>
        <time>2021-08-21T11:28:23Z</time>
      </trkpt>
      <trkpt lat="2.918447" lon="-75.14937">
        <ele>678.9</ele>
        <time>2021-08-21T11:28:23Z</time>
      </trkpt>
      <trkpt lat="2.918404" lon="-75.149376">
        <ele>679.0</ele>
        <time>2021-08-21T11:28:24Z</time>
      </trkpt>
      <trkpt lat="2.918376" lon="-75.149376">
        <ele>679.1</ele>
        <time>2021-08-21T11:28:25Z</time>
      </trkpt>
      <trkpt lat="2.918347" lon="-75.149376">
        <ele>679.1</ele>
        <time>2021-08-21T11:28:26Z</time>
      </trkpt>
      <trkpt lat="2.918319" lon="-75.149376">
        <ele>679.2</ele>
        <time>2021-08-21T11:28:27Z</time>
      </trkpt>
      <trkpt lat="2.918292" lon="-75.149376">
        <ele>679.2</ele>
        <time>2021-08-21T11:28:28Z</time>
      </trkpt>
      <trkpt lat="2.918267" lon="-75.149376">
        <ele>679.3</ele>
        <time>2021-08-21T11:28:29Z</time>
      </trkpt>
      <trkpt lat="2.918242" lon="-75.149376">
        <ele>679.4</ele>
        <time>2021-08-21T11:28:30Z</time>
      </trkpt>
      <trkpt lat="2.918218" lon="-75.149376">
        <ele>679.5</ele>
        <time>2021-08-21T11:28:31Z</time>
      </trkpt>
      <trkpt lat="2.918195" lon="-75.149376">
        <ele>679.6</ele>
        <time>2021-08-21T11:28:32Z</time>
      </trkpt>
      <trkpt lat="2.918172" lon="-75.149376">
        <ele>679.7</ele>
        <time>2021-08-21T11:28:33Z</time>
      </trkpt>
      <trkpt lat="2.918149" lon="-75.149376">
        <ele>679.8</ele>
        <time>2021-08-21T11:28:34Z</time>
      </trkpt>
      <trkpt lat="2.918124" lon="-75.149376">
        <ele>679.9</ele>
        <time>2021-08-21T11:28:35Z</time>
      </trkpt>
      <trkpt lat="2.9181" lon="-75.14937">
        <ele>680.0</ele>
        <time>2021-08-21T11:28:36Z</time>
      </trkpt>
      <trkpt lat="2.918077" lon="-75.14937">
        <ele>680.1</ele>
        <time>2021-08-21T11:28:37Z</time>
      </trkpt>
      <trkpt lat="2.918055" lon="-75.14937">
        <ele>680.2</ele>
        <time>2021-08-21T11:28:38Z</time>
      </trkpt>
      <trkpt lat="2.918033" lon="-75.14937">
        <ele>680.4</ele>
        <time>2021-08-21T11:28:39Z</time>
      </trkpt>
      <trkpt lat="2.917993" lon="-75.14937">
        <ele>680.6</ele>
        <time>2021-08-21T11:28:41Z</time>
      </trkpt>
      <trkpt lat="2.918003" lon="-75.14937">
        <ele>680.5</ele>
        <time>2021-08-21T11:28:41Z</time>
      </trkpt>
      <trkpt lat="2.917974" lon="-75.14937">
        <ele>680.8</ele>
        <time>2021-08-21T11:28:42Z</time>
      </trkpt>
      <trkpt lat="2.917955" lon="-75.14937">
        <ele>680.9</ele>
        <time>2021-08-21T11:28:43Z</time>
      </trkpt>
      <trkpt lat="2.917916" lon="-75.14937">
        <ele>681.2</ele>
        <time>2021-08-21T11:28:45Z</time>
      </trkpt>
      <trkpt lat="2.917926" lon="-75.14937">
        <ele>681.1</ele>
        <time>2021-08-21T11:28:45Z</time>
      </trkpt>
      <trkpt lat="2.917896" lon="-75.14937">
        <ele>681.3</ele>
        <time>2021-08-21T11:28:46Z</time>
      </trkpt>
      <trkpt lat="2.917857" lon="-75.14937">
        <ele>681.6</ele>
        <time>2021-08-21T11:28:48Z</time>
      </trkpt>
      <trkpt lat="2.917867" lon="-75.14937">
        <ele>681.5</ele>
        <time>2021-08-21T11:28:48Z</time>
      </trkpt>
      <trkpt lat="2.917838" lon="-75.14937">
        <ele>681.8</ele>
        <time>2021-08-21T11:28:49Z</time>
      </trkpt>
      <trkpt lat="2.917819" lon="-75.14937">
        <ele>681.9</ele>
        <time>2021-08-21T11:28:50Z</time>
      </trkpt>
      <trkpt lat="2.9178" lon="-75.14937">
        <ele>682.1</ele>
        <time>2021-08-21T11:28:51Z</time>
      </trkpt>
      <trkpt lat="2.917783" lon="-75.14937">
        <ele>682.3</ele>
        <time>2021-08-21T11:28:52Z</time>
      </trkpt>
      <trkpt lat="2.917765" lon="-75.14937">
        <ele>682.4</ele>
        <time>2021-08-21T11:28:53Z</time>
      </trkpt>
      <trkpt lat="2.91773" lon="-75.149376">
        <ele>682.8</ele>
        <time>2021-08-21T11:28:55Z</time>
      </trkpt>
      <trkpt lat="2.917739" lon="-75.149376">
        <ele>682.7</ele>
        <time>2021-08-21T11:28:55Z</time>
      </trkpt>
      <trkpt lat="2.917714" lon="-75.14938">
        <ele>682.9</ele>
        <time>2021-08-21T11:28:56Z</time>
      </trkpt>
      <trkpt lat="2.917696" lon="-75.14938">
        <ele>683.1</ele>
        <time>2021-08-21T11:28:57Z</time>
      </trkpt>
      <trkpt lat="2.917678" lon="-75.14939">
        <ele>683.3</ele>
        <time>2021-08-21T11:28:58Z</time>
      </trkpt>
      <trkpt lat="2.91766" lon="-75.1494">
        <ele>683.5</ele>
        <time>2021-08-21T11:28:59Z</time>
      </trkpt>
      <trkpt lat="2.917641" lon="-75.1494">
        <ele>683.6</ele>
        <time>2021-08-21T11:29:00Z</time>
      </trkpt>
      <trkpt lat="2.917603" lon="-75.149414">
        <ele>684.0</ele>
        <time>2021-08-21T11:29:02Z</time>
      </trkpt>
      <trkpt lat="2.917613" lon="-75.14941">
        <ele>683.9</ele>
        <time>2021-08-21T11:29:02Z</time>
      </trkpt>
      <trkpt lat="2.917585" lon="-75.149414">
        <ele>684.2</ele>
        <time>2021-08-21T11:29:03Z</time>
      </trkpt>
      <trkpt lat="2.917567" lon="-75.14942">
        <ele>684.3</ele>
        <time>2021-08-21T11:29:04Z</time>
      </trkpt>
      <trkpt lat="2.917548" lon="-75.14942">
        <ele>684.5</ele>
        <time>2021-08-21T11:29:05Z</time>
      </trkpt>
      <trkpt lat="2.917529" lon="-75.14943">
        <ele>684.6</ele>
        <time>2021-08-21T11:29:06Z</time>
      </trkpt>
      <trkpt lat="2.917509" lon="-75.14943">
        <ele>684.8</ele>
        <time>2021-08-21T11:29:07Z</time>
      </trkpt>
      <trkpt lat="2.917489" lon="-75.14943">
        <ele>684.9</ele>
        <time>2021-08-21T11:29:08Z</time>
      </trkpt>
      <trkpt lat="2.91747" lon="-75.14943">
        <ele>685.1</ele>
        <time>2021-08-21T11:29:09Z</time>
      </trkpt>
      <trkpt lat="2.91745" lon="-75.14944">
        <ele>685.2</ele>
        <time>2021-08-21T11:29:10Z</time>
      </trkpt>
      <trkpt lat="2.917428" lon="-75.14944">
        <ele>685.3</ele>
        <time>2021-08-21T11:29:11Z</time>
      </trkpt>
      <trkpt lat="2.917407" lon="-75.14944">
        <ele>685.5</ele>
        <time>2021-08-21T11:29:12Z</time>
      </trkpt>
      <trkpt lat="2.917385" lon="-75.149445">
        <ele>685.6</ele>
        <time>2021-08-21T11:29:13Z</time>
      </trkpt>
      <trkpt lat="2.91734" lon="-75.149445">
        <ele>685.8</ele>
        <time>2021-08-21T11:29:15Z</time>
      </trkpt>
      <trkpt lat="2.917352" lon="-75.149445">
        <ele>685.7</ele>
        <time>2021-08-21T11:29:15Z</time>
      </trkpt>
      <trkpt lat="2.917318" lon="-75.14945">
        <ele>685.9</ele>
        <time>2021-08-21T11:29:16Z</time>
      </trkpt>
      <trkpt lat="2.917295" lon="-75.14945">
        <ele>686.0</ele>
        <time>2021-08-21T11:29:17Z</time>
      </trkpt>
      <trkpt lat="2.917273" lon="-75.14945">
        <ele>686.1</ele>
        <time>2021-08-21T11:29:18Z</time>
      </trkpt>
      <trkpt lat="2.917251" lon="-75.14946">
        <ele>686.2</ele>
        <time>2021-08-21T11:29:19Z</time>
      </trkpt>
      <trkpt lat="2.917228" lon="-75.14946">
        <ele>686.3</ele>
        <time>2021-08-21T11:29:20Z</time>
      </trkpt>
      <trkpt lat="2.917184" lon="-75.14947">
        <ele>686.4</ele>
        <time>2021-08-21T11:29:22Z</time>
      </trkpt>
      <trkpt lat="2.917195" lon="-75.14947">
        <ele>686.4</ele>
        <time>2021-08-21T11:29:22Z</time>
      </trkpt>
      <trkpt lat="2.917139" lon="-75.149475">
        <ele>686.6</ele>
        <time>2021-08-21T11:29:23Z</time>
      </trkpt>
      <trkpt lat="2.917161" lon="-75.149475">
        <ele>686.5</ele>
        <time>2021-08-21T11:29:23Z</time>
      </trkpt>
      <trkpt lat="2.917117" lon="-75.14948">
        <ele>686.7</ele>
        <time>2021-08-21T11:29:24Z</time>
      </trkpt>
      <trkpt lat="2.917095" lon="-75.14949">
        <ele>686.7</ele>
        <time>2021-08-21T11:29:25Z</time>
      </trkpt>
      <trkpt lat="2.917074" lon="-75.1495">
        <ele>686.8</ele>
        <time>2021-08-21T11:29:26Z</time>
      </trkpt>
      <trkpt lat="2.917052" lon="-75.149506">
        <ele>686.9</ele>
        <time>2021-08-21T11:29:27Z</time>
      </trkpt>
      <trkpt lat="2.917031" lon="-75.149506">
        <ele>687.0</ele>
        <time>2021-08-21T11:29:28Z</time>
      </trkpt>
      <trkpt lat="2.917009" lon="-75.14951">
        <ele>687.1</ele>
        <time>2021-08-21T11:29:29Z</time>
      </trkpt>
      <trkpt lat="2.916989" lon="-75.14952">
        <ele>687.2</ele>
        <time>2021-08-21T11:29:30Z</time>
      </trkpt>
      <trkpt lat="2.916969" lon="-75.14953">
        <ele>687.3</ele>
        <time>2021-08-21T11:29:31Z</time>
      </trkpt>
      <trkpt lat="2.916949" lon="-75.14953">
        <ele>687.4</ele>
        <time>2021-08-21T11:29:32Z</time>
      </trkpt>
      <trkpt lat="2.916929" lon="-75.149536">
        <ele>687.5</ele>
        <time>2021-08-21T11:29:33Z</time>
      </trkpt>
      <trkpt lat="2.916908" lon="-75.14954">
        <ele>687.6</ele>
        <time>2021-08-21T11:29:34Z</time>
      </trkpt>
      <trkpt lat="2.916887" lon="-75.14955">
        <ele>687.8</ele>
        <time>2021-08-21T11:29:35Z</time>
      </trkpt>
      <trkpt lat="2.916867" lon="-75.14956">
        <ele>687.9</ele>
        <time>2021-08-21T11:29:36Z</time>
      </trkpt>
      <trkpt lat="2.916847" lon="-75.14956">
        <ele>688.0</ele>
        <time>2021-08-21T11:29:37Z</time>
      </trkpt>
      <trkpt lat="2.916827" lon="-75.14957">
        <ele>688.2</ele>
        <time>2021-08-21T11:29:38Z</time>
      </trkpt>
      <trkpt lat="2.916808" lon="-75.149574">
        <ele>688.3</ele>
        <time>2021-08-21T11:29:39Z</time>
      </trkpt>
      <trkpt lat="2.916789" lon="-75.149574">
        <ele>688.4</ele>
        <time>2021-08-21T11:29:40Z</time>
      </trkpt>
      <trkpt lat="2.91677" lon="-75.14958">
        <ele>688.6</ele>
        <time>2021-08-21T11:29:41Z</time>
      </trkpt>
      <trkpt lat="2.916751" lon="-75.14958">
        <ele>688.7</ele>
        <time>2021-08-21T11:29:42Z</time>
      </trkpt>
      <trkpt lat="2.916732" lon="-75.14959">
        <ele>688.9</ele>
        <time>2021-08-21T11:29:43Z</time>
      </trkpt>
      <trkpt lat="2.916712" lon="-75.14959">
        <ele>689.0</ele>
        <time>2021-08-21T11:29:44Z</time>
      </trkpt>
      <trkpt lat="2.916692" lon="-75.1496">
        <ele>689.2</ele>
        <time>2021-08-21T11:29:45Z</time>
      </trkpt>
      <trkpt lat="2.916673" lon="-75.1496">
        <ele>689.3</ele>
        <time>2021-08-21T11:29:46Z</time>
      </trkpt>
      <trkpt lat="2.916654" lon="-75.1496">
        <ele>689.4</ele>
        <time>2021-08-21T11:29:47Z</time>
      </trkpt>
      <trkpt lat="2.916635" lon="-75.149605">
        <ele>689.6</ele>
        <time>2021-08-21T11:29:48Z</time>
      </trkpt>
      <trkpt lat="2.916616" lon="-75.149605">
        <ele>689.7</ele>
        <time>2021-08-21T11:29:49Z</time>
      </trkpt>
      <trkpt lat="2.916597" lon="-75.149605">
        <ele>689.8</ele>
        <time>2021-08-21T11:29:50Z</time>
      </trkpt>
      <trkpt lat="2.916578" lon="-75.149605">
        <ele>690.0</ele>
        <time>2021-08-21T11:29:51Z</time>
      </trkpt>
      <trkpt lat="2.916539" lon="-75.14961">
        <ele>690.2</ele>
        <time>2021-08-21T11:29:53Z</time>
      </trkpt>
      <trkpt lat="2.916549" lon="-75.14961">
        <ele>690.2</ele>
        <time>2021-08-21T11:29:53Z</time>
      </trkpt>
      <trkpt lat="2.916519" lon="-75.14961">
        <ele>690.3</ele>
        <time>2021-08-21T11:29:54Z</time>
      </trkpt>
      <trkpt lat="2.916499" lon="-75.14961">
        <ele>690.5</ele>
        <time>2021-08-21T11:29:55Z</time>
      </trkpt>
      <trkpt lat="2.916479" lon="-75.14961">
        <ele>690.6</ele>
        <time>2021-08-21T11:29:56Z</time>
      </trkpt>
      <trkpt lat="2.916459" lon="-75.14961">
        <ele>690.7</ele>
        <time>2021-08-21T11:29:57Z</time>
      </trkpt>
      <trkpt lat="2.916439" lon="-75.14961">
        <ele>690.8</ele>
        <time>2021-08-21T11:29:58Z</time>
      </trkpt>
      <trkpt lat="2.916398" lon="-75.14961">
        <ele>691.1</ele>
        <time>2021-08-21T11:30:00Z</time>
      </trkpt>
      <trkpt lat="2.916408" lon="-75.14961">
        <ele>691.0</ele>
        <time>2021-08-21T11:30:00Z</time>
      </trkpt>
      <trkpt lat="2.916377" lon="-75.14961">
        <ele>691.2</ele>
        <time>2021-08-21T11:30:01Z</time>
      </trkpt>
      <trkpt lat="2.916355" lon="-75.14961">
        <ele>691.3</ele>
        <time>2021-08-21T11:30:02Z</time>
      </trkpt>
      <trkpt lat="2.916334" lon="-75.14962">
        <ele>691.5</ele>
        <time>2021-08-21T11:30:03Z</time>
      </trkpt>
      <trkpt lat="2.916313" lon="-75.14962">
        <ele>691.6</ele>
        <time>2021-08-21T11:30:04Z</time>
      </trkpt>
      <trkpt lat="2.916293" lon="-75.14962">
        <ele>691.7</ele>
        <time>2021-08-21T11:30:05Z</time>
      </trkpt>
      <trkpt lat="2.916253" lon="-75.14962">
        <ele>691.9</ele>
        <time>2021-08-21T11:30:07Z</time>
      </trkpt>
      <trkpt lat="2.916263" lon="-75.14962">
        <ele>691.9</ele>
        <time>2021-08-21T11:30:07Z</time>
      </trkpt>
      <trkpt lat="2.916233" lon="-75.14963">
        <ele>692.0</ele>
        <time>2021-08-21T11:30:08Z</time>
      </trkpt>
      <trkpt lat="2.916213" lon="-75.14963">
        <ele>692.1</ele>
        <time>2021-08-21T11:30:09Z</time>
      </trkpt>
      <trkpt lat="2.916193" lon="-75.149635">
        <ele>692.2</ele>
        <time>2021-08-21T11:30:10Z</time>
      </trkpt>
      <trkpt lat="2.916173" lon="-75.149635">
        <ele>692.4</ele>
        <time>2021-08-21T11:30:11Z</time>
      </trkpt>
      <trkpt lat="2.916132" lon="-75.14965">
        <ele>692.6</ele>
        <time>2021-08-21T11:30:13Z</time>
      </trkpt>
      <trkpt lat="2.916143" lon="-75.14964">
        <ele>692.5</ele>
        <time>2021-08-21T11:30:13Z</time>
      </trkpt>
      <trkpt lat="2.916113" lon="-75.14965">
        <ele>692.7</ele>
        <time>2021-08-21T11:30:14Z</time>
      </trkpt>
      <trkpt lat="2.916093" lon="-75.14966">
        <ele>692.8</ele>
        <time>2021-08-21T11:30:15Z</time>
      </trkpt>
      <trkpt lat="2.916072" lon="-75.14966">
        <ele>692.9</ele>
        <time>2021-08-21T11:30:16Z</time>
      </trkpt>
      <trkpt lat="2.91605" lon="-75.14966">
        <ele>693.1</ele>
        <time>2021-08-21T11:30:17Z</time>
      </trkpt>
      <trkpt lat="2.916029" lon="-75.14966">
        <ele>693.2</ele>
        <time>2021-08-21T11:30:18Z</time>
      </trkpt>
      <trkpt lat="2.915986" lon="-75.14966">
        <ele>693.4</ele>
        <time>2021-08-21T11:30:20Z</time>
      </trkpt>
      <trkpt lat="2.915996" lon="-75.14966">
        <ele>693.4</ele>
        <time>2021-08-21T11:30:20Z</time>
      </trkpt>
      <trkpt lat="2.915964" lon="-75.14966">
        <ele>693.5</ele>
        <time>2021-08-21T11:30:21Z</time>
      </trkpt>
      <trkpt lat="2.915943" lon="-75.14966">
        <ele>693.7</ele>
        <time>2021-08-21T11:30:22Z</time>
      </trkpt>
      <trkpt lat="2.915921" lon="-75.14965">
        <ele>693.8</ele>
        <time>2021-08-21T11:30:23Z</time>
      </trkpt>
      <trkpt lat="2.9159" lon="-75.14965">
        <ele>693.9</ele>
        <time>2021-08-21T11:30:24Z</time>
      </trkpt>
      <trkpt lat="2.915879" lon="-75.14964">
        <ele>694.0</ele>
        <time>2021-08-21T11:30:25Z</time>
      </trkpt>
      <trkpt lat="2.915859" lon="-75.149635">
        <ele>694.1</ele>
        <time>2021-08-21T11:30:26Z</time>
      </trkpt>
      <trkpt lat="2.915838" lon="-75.149635">
        <ele>694.2</ele>
        <time>2021-08-21T11:30:27Z</time>
      </trkpt>
      <trkpt lat="2.915818" lon="-75.14963">
        <ele>694.3</ele>
        <time>2021-08-21T11:30:28Z</time>
      </trkpt>
      <trkpt lat="2.915796" lon="-75.14962">
        <ele>694.4</ele>
        <time>2021-08-21T11:30:29Z</time>
      </trkpt>
      <trkpt lat="2.915775" lon="-75.14961">
        <ele>694.5</ele>
        <time>2021-08-21T11:30:30Z</time>
      </trkpt>
      <trkpt lat="2.915752" lon="-75.14961">
        <ele>694.6</ele>
        <time>2021-08-21T11:30:31Z</time>
      </trkpt>
      <trkpt lat="2.91573" lon="-75.149605">
        <ele>694.7</ele>
        <time>2021-08-21T11:30:32Z</time>
      </trkpt>
      <trkpt lat="2.915707" lon="-75.1496">
        <ele>694.8</ele>
        <time>2021-08-21T11:30:33Z</time>
      </trkpt>
      <trkpt lat="2.915685" lon="-75.14959">
        <ele>694.9</ele>
        <time>2021-08-21T11:30:34Z</time>
      </trkpt>
      <trkpt lat="2.915663" lon="-75.14959">
        <ele>694.9</ele>
        <time>2021-08-21T11:30:35Z</time>
      </trkpt>
      <trkpt lat="2.915641" lon="-75.14958">
        <ele>695.0</ele>
        <time>2021-08-21T11:30:36Z</time>
      </trkpt>
      <trkpt lat="2.915619" lon="-75.149574">
        <ele>695.0</ele>
        <time>2021-08-21T11:30:37Z</time>
      </trkpt>
      <trkpt lat="2.915594" lon="-75.149574">
        <ele>695.0</ele>
        <time>2021-08-21T11:30:38Z</time>
      </trkpt>
      <trkpt lat="2.915569" lon="-75.14957">
        <ele>695.0</ele>
        <time>2021-08-21T11:30:39Z</time>
      </trkpt>
      <trkpt lat="2.915542" lon="-75.14956">
        <ele>695.0</ele>
        <time>2021-08-21T11:30:40Z</time>
      </trkpt>
      <trkpt lat="2.915514" lon="-75.14955">
        <ele>695.0</ele>
        <time>2021-08-21T11:30:41Z</time>
      </trkpt>
      <trkpt lat="2.915483" lon="-75.14955">
        <ele>694.9</ele>
        <time>2021-08-21T11:30:42Z</time>
      </trkpt>
      <trkpt lat="2.915451" lon="-75.149536">
        <ele>694.8</ele>
        <time>2021-08-21T11:30:43Z</time>
      </trkpt>
      <trkpt lat="2.915417" lon="-75.14953">
        <ele>694.7</ele>
        <time>2021-08-21T11:30:44Z</time>
      </trkpt>
      <trkpt lat="2.915381" lon="-75.14951">
        <ele>694.6</ele>
        <time>2021-08-21T11:30:45Z</time>
      </trkpt>
      <trkpt lat="2.915344" lon="-75.149506">
        <ele>694.4</ele>
        <time>2021-08-21T11:30:46Z</time>
      </trkpt>
      <trkpt lat="2.915306" lon="-75.14949">
        <ele>694.3</ele>
        <time>2021-08-21T11:30:47Z</time>
      </trkpt>
      <trkpt lat="2.915269" lon="-75.149475">
        <ele>694.1</ele>
        <time>2021-08-21T11:30:48Z</time>
      </trkpt>
      <trkpt lat="2.915229" lon="-75.14946">
        <ele>694.0</ele>
        <time>2021-08-21T11:30:49Z</time>
      </trkpt>
      <trkpt lat="2.915187" lon="-75.149445">
        <ele>693.8</ele>
        <time>2021-08-21T11:30:50Z</time>
      </trkpt>
      <trkpt lat="2.9151" lon="-75.14942">
        <ele>693.4</ele>
        <time>2021-08-21T11:30:52Z</time>
      </trkpt>
      <trkpt lat="2.915144" lon="-75.14944">
        <ele>693.6</ele>
        <time>2021-08-21T11:30:52Z</time>
      </trkpt>
      <trkpt lat="2.915053" lon="-75.14941">
        <ele>693.2</ele>
        <time>2021-08-21T11:30:53Z</time>
      </trkpt>
      <trkpt lat="2.91501" lon="-75.14939">
        <ele>693.0</ele>
        <time>2021-08-21T11:30:54Z</time>
      </trkpt>
      <trkpt lat="2.914963" lon="-75.14938">
        <ele>692.8</ele>
        <time>2021-08-21T11:30:55Z</time>
      </trkpt>
      <trkpt lat="2.914915" lon="-75.14937">
        <ele>692.7</ele>
        <time>2021-08-21T11:30:56Z</time>
      </trkpt>
      <trkpt lat="2.914867" lon="-75.14935">
        <ele>692.5</ele>
        <time>2021-08-21T11:30:57Z</time>
      </trkpt>
      <trkpt lat="2.914774" lon="-75.14932">
        <ele>692.2</ele>
        <time>2021-08-21T11:30:59Z</time>
      </trkpt>
      <trkpt lat="2.91482" lon="-75.14934">
        <ele>692.4</ele>
        <time>2021-08-21T11:30:59Z</time>
      </trkpt>
      <trkpt lat="2.91473" lon="-75.14931">
        <ele>692.1</ele>
        <time>2021-08-21T11:31:00Z</time>
      </trkpt>
      <trkpt lat="2.914685" lon="-75.14929">
        <ele>692.0</ele>
        <time>2021-08-21T11:31:01Z</time>
      </trkpt>
      <trkpt lat="2.914644" lon="-75.149284">
        <ele>691.9</ele>
        <time>2021-08-21T11:31:02Z</time>
      </trkpt>
      <trkpt lat="2.914605" lon="-75.14928">
        <ele>691.8</ele>
        <time>2021-08-21T11:31:03Z</time>
      </trkpt>
      <trkpt lat="2.914567" lon="-75.14926">
        <ele>691.7</ele>
        <time>2021-08-21T11:31:04Z</time>
      </trkpt>
      <trkpt lat="2.914497" lon="-75.14924">
        <ele>691.6</ele>
        <time>2021-08-21T11:31:06Z</time>
      </trkpt>
      <trkpt lat="2.914532" lon="-75.149254">
        <ele>691.6</ele>
        <time>2021-08-21T11:31:06Z</time>
      </trkpt>
      <trkpt lat="2.914466" lon="-75.14922">
        <ele>691.5</ele>
        <time>2021-08-21T11:31:07Z</time>
      </trkpt>
      <trkpt lat="2.914432" lon="-75.149216">
        <ele>691.4</ele>
        <time>2021-08-21T11:31:08Z</time>
      </trkpt>
      <trkpt lat="2.9144" lon="-75.1492">
        <ele>691.4</ele>
        <time>2021-08-21T11:31:09Z</time>
      </trkpt>
      <trkpt lat="2.914367" lon="-75.14919">
        <ele>691.3</ele>
        <time>2021-08-21T11:31:10Z</time>
      </trkpt>
      <trkpt lat="2.914299" lon="-75.149155">
        <ele>691.2</ele>
        <time>2021-08-21T11:31:12Z</time>
      </trkpt>
      <trkpt lat="2.914332" lon="-75.14918">
        <ele>691.3</ele>
        <time>2021-08-21T11:31:12Z</time>
      </trkpt>
      <trkpt lat="2.914266" lon="-75.14913">
        <ele>691.1</ele>
        <time>2021-08-21T11:31:13Z</time>
      </trkpt>
      <trkpt lat="2.914235" lon="-75.14911">
        <ele>691.0</ele>
        <time>2021-08-21T11:31:14Z</time>
      </trkpt>
      <trkpt lat="2.914206" lon="-75.149086">
        <ele>690.9</ele>
        <time>2021-08-21T11:31:15Z</time>
      </trkpt>
      <trkpt lat="2.914175" lon="-75.14906">
        <ele>690.9</ele>
        <time>2021-08-21T11:31:16Z</time>
      </trkpt>
      <trkpt lat="2.914146" lon="-75.14903">
        <ele>690.8</ele>
        <time>2021-08-21T11:31:17Z</time>
      </trkpt>
      <trkpt lat="2.914095" lon="-75.148964">
        <ele>690.6</ele>
        <time>2021-08-21T11:31:19Z</time>
      </trkpt>
      <trkpt lat="2.914119" lon="-75.149">
        <ele>690.7</ele>
        <time>2021-08-21T11:31:19Z</time>
      </trkpt>
      <trkpt lat="2.914076" lon="-75.14892">
        <ele>690.4</ele>
        <time>2021-08-21T11:31:20Z</time>
      </trkpt>
      <trkpt lat="2.914061" lon="-75.14887">
        <ele>690.4</ele>
        <time>2021-08-21T11:31:21Z</time>
      </trkpt>
      <trkpt lat="2.914048" lon="-75.14883">
        <ele>690.3</ele>
        <time>2021-08-21T11:31:22Z</time>
      </trkpt>
      <trkpt lat="2.914035" lon="-75.14879">
        <ele>690.2</ele>
        <time>2021-08-21T11:31:23Z</time>
      </trkpt>
      <trkpt lat="2.914022" lon="-75.14874">
        <ele>690.1</ele>
        <time>2021-08-21T11:31:24Z</time>
      </trkpt>
      <trkpt lat="2.914012" lon="-75.1487">
        <ele>690.1</ele>
        <time>2021-08-21T11:31:25Z</time>
      </trkpt>
      <trkpt lat="2.914003" lon="-75.14866">
        <ele>690.0</ele>
        <time>2021-08-21T11:31:26Z</time>
      </trkpt>
      <trkpt lat="2.913993" lon="-75.14862">
        <ele>690.0</ele>
        <time>2021-08-21T11:31:27Z</time>
      </trkpt>
      <trkpt lat="2.913982" lon="-75.14858">
        <ele>690.0</ele>
        <time>2021-08-21T11:31:28Z</time>
      </trkpt>
      <trkpt lat="2.913976" lon="-75.14855">
        <ele>690.0</ele>
        <time>2021-08-21T11:31:29Z</time>
      </trkpt>
      <trkpt lat="2.913972" lon="-75.14851">
        <ele>690.0</ele>
        <time>2021-08-21T11:31:30Z</time>
      </trkpt>
      <trkpt lat="2.91397" lon="-75.14848">
        <ele>690.1</ele>
        <time>2021-08-21T11:31:31Z</time>
      </trkpt>
      <trkpt lat="2.913971" lon="-75.14844">
        <ele>690.1</ele>
        <time>2021-08-21T11:31:32Z</time>
      </trkpt>
      <trkpt lat="2.913974" lon="-75.1484">
        <ele>690.2</ele>
        <time>2021-08-21T11:31:33Z</time>
      </trkpt>
      <trkpt lat="2.913975" lon="-75.14836">
        <ele>690.3</ele>
        <time>2021-08-21T11:31:34Z</time>
      </trkpt>
      <trkpt lat="2.913976" lon="-75.14832">
        <ele>690.4</ele>
        <time>2021-08-21T11:31:35Z</time>
      </trkpt>
      <trkpt lat="2.913977" lon="-75.148285">
        <ele>690.5</ele>
        <time>2021-08-21T11:31:37Z</time>
      </trkpt>
      <trkpt lat="2.913977" lon="-75.14825">
        <ele>690.7</ele>
        <time>2021-08-21T11:31:37Z</time>
      </trkpt>
      <trkpt lat="2.913978" lon="-75.14822">
        <ele>690.8</ele>
        <time>2021-08-21T11:31:38Z</time>
      </trkpt>
      <trkpt lat="2.913977" lon="-75.148186">
        <ele>691.0</ele>
        <time>2021-08-21T11:31:39Z</time>
      </trkpt>
      <trkpt lat="2.913976" lon="-75.148155">
        <ele>691.2</ele>
        <time>2021-08-21T11:31:40Z</time>
      </trkpt>
      <trkpt lat="2.913972" lon="-75.148125">
        <ele>691.3</ele>
        <time>2021-08-21T11:31:41Z</time>
      </trkpt>
      <trkpt lat="2.913967" lon="-75.148094">
        <ele>691.5</ele>
        <time>2021-08-21T11:31:42Z</time>
      </trkpt>
      <trkpt lat="2.913953" lon="-75.14805">
        <ele>691.9</ele>
        <time>2021-08-21T11:31:44Z</time>
      </trkpt>
      <trkpt lat="2.913957" lon="-75.148056">
        <ele>691.8</ele>
        <time>2021-08-21T11:31:44Z</time>
      </trkpt>
      <trkpt lat="2.913943" lon="-75.148026">
        <ele>692.0</ele>
        <time>2021-08-21T11:31:45Z</time>
      </trkpt>
      <trkpt lat="2.913935" lon="-75.148">
        <ele>692.1</ele>
        <time>2021-08-21T11:31:46Z</time>
      </trkpt>
      <trkpt lat="2.913926" lon="-75.14799">
        <ele>692.3</ele>
        <time>2021-08-21T11:31:47Z</time>
      </trkpt>
      <trkpt lat="2.913916" lon="-75.14797">
        <ele>692.4</ele>
        <time>2021-08-21T11:31:48Z</time>
      </trkpt>
      <trkpt lat="2.913907" lon="-75.14796">
        <ele>692.6</ele>
        <time>2021-08-21T11:31:49Z</time>
      </trkpt>
      <trkpt lat="2.913897" lon="-75.14794">
        <ele>692.7</ele>
        <time>2021-08-21T11:31:50Z</time>
      </trkpt>
      <trkpt lat="2.913888" lon="-75.147934">
        <ele>692.8</ele>
        <time>2021-08-21T11:31:51Z</time>
      </trkpt>
      <trkpt lat="2.913878" lon="-75.14793">
        <ele>692.8</ele>
        <time>2021-08-21T11:31:52Z</time>
      </trkpt>
      <trkpt lat="2.913877" lon="-75.14792">
        <ele>692.9</ele>
        <time>2021-08-21T11:31:53Z</time>
      </trkpt>
      <trkpt lat="2.91388" lon="-75.147896">
        <ele>693.1</ele>
        <time>2021-08-21T11:31:54Z</time>
      </trkpt>
      <trkpt lat="2.913889" lon="-75.14787">
        <ele>693.3</ele>
        <time>2021-08-21T11:31:55Z</time>
      </trkpt>
      <trkpt lat="2.9139" lon="-75.147835">
        <ele>693.6</ele>
        <time>2021-08-21T11:31:56Z</time>
      </trkpt>
      <trkpt lat="2.913909" lon="-75.147804">
        <ele>693.8</ele>
        <time>2021-08-21T11:31:57Z</time>
      </trkpt>
      <trkpt lat="2.913915" lon="-75.14777">
        <ele>694.0</ele>
        <time>2021-08-21T11:31:58Z</time>
      </trkpt>
      <trkpt lat="2.913918" lon="-75.14775">
        <ele>694.2</ele>
        <time>2021-08-21T11:31:59Z</time>
      </trkpt>
      <trkpt lat="2.91392" lon="-75.147736">
        <ele>694.3</ele>
        <time>2021-08-21T11:32:00Z</time>
      </trkpt>
      <trkpt lat="2.913922" lon="-75.14772">
        <ele>694.5</ele>
        <time>2021-08-21T11:32:01Z</time>
      </trkpt>
      <trkpt lat="2.913924" lon="-75.147705">
        <ele>694.6</ele>
        <time>2021-08-21T11:32:02Z</time>
      </trkpt>
      <trkpt lat="2.913924" lon="-75.14769">
        <ele>694.7</ele>
        <time>2021-08-21T11:32:03Z</time>
      </trkpt>
      <trkpt lat="2.913929" lon="-75.147675">
        <ele>694.8</ele>
        <time>2021-08-21T11:32:04Z</time>
      </trkpt>
      <trkpt lat="2.91394" lon="-75.14766">
        <ele>694.9</ele>
        <time>2021-08-21T11:32:05Z</time>
      </trkpt>
      <trkpt lat="2.913953" lon="-75.14764">
        <ele>695.1</ele>
        <time>2021-08-21T11:32:06Z</time>
      </trkpt>
      <trkpt lat="2.913966" lon="-75.14762">
        <ele>695.2</ele>
        <time>2021-08-21T11:32:07Z</time>
      </trkpt>
      <trkpt lat="2.91398" lon="-75.147606">
        <ele>695.4</ele>
        <time>2021-08-21T11:32:08Z</time>
      </trkpt>
      <trkpt lat="2.913993" lon="-75.14758">
        <ele>695.5</ele>
        <time>2021-08-21T11:32:09Z</time>
      </trkpt>
      <trkpt lat="2.914006" lon="-75.14757">
        <ele>695.7</ele>
        <time>2021-08-21T11:32:10Z</time>
      </trkpt>
      <trkpt lat="2.914019" lon="-75.147545">
        <ele>695.8</ele>
        <time>2021-08-21T11:32:11Z</time>
      </trkpt>
      <trkpt lat="2.914032" lon="-75.14753">
        <ele>696.0</ele>
        <time>2021-08-21T11:32:12Z</time>
      </trkpt>
      <trkpt lat="2.914044" lon="-75.14751">
        <ele>696.1</ele>
        <time>2021-08-21T11:32:13Z</time>
      </trkpt>
      <trkpt lat="2.914055" lon="-75.147484">
        <ele>696.3</ele>
        <time>2021-08-21T11:32:14Z</time>
      </trkpt>
      <trkpt lat="2.914064" lon="-75.14747">
        <ele>696.4</ele>
        <time>2021-08-21T11:32:15Z</time>
      </trkpt>
      <trkpt lat="2.914072" lon="-75.147446">
        <ele>696.5</ele>
        <time>2021-08-21T11:32:16Z</time>
      </trkpt>
      <trkpt lat="2.914079" lon="-75.14742">
        <ele>696.6</ele>
        <time>2021-08-21T11:32:17Z</time>
      </trkpt>
      <trkpt lat="2.914083" lon="-75.1474">
        <ele>696.7</ele>
        <time>2021-08-21T11:32:18Z</time>
      </trkpt>
      <trkpt lat="2.914083" lon="-75.14738">
        <ele>696.8</ele>
        <time>2021-08-21T11:32:19Z</time>
      </trkpt>
      <trkpt lat="2.914082" lon="-75.14736">
        <ele>696.9</ele>
        <time>2021-08-21T11:32:20Z</time>
      </trkpt>
      <trkpt lat="2.914082" lon="-75.14734">
        <ele>697.0</ele>
        <time>2021-08-21T11:32:21Z</time>
      </trkpt>
      <trkpt lat="2.914082" lon="-75.147316">
        <ele>697.1</ele>
        <time>2021-08-21T11:32:22Z</time>
      </trkpt>
      <trkpt lat="2.914084" lon="-75.147285">
        <ele>697.1</ele>
        <time>2021-08-21T11:32:24Z</time>
      </trkpt>
      <trkpt lat="2.914084" lon="-75.14727">
        <ele>697.2</ele>
        <time>2021-08-21T11:32:24Z</time>
      </trkpt>
      <trkpt lat="2.914086" lon="-75.147255">
        <ele>697.2</ele>
        <time>2021-08-21T11:32:25Z</time>
      </trkpt>
      <trkpt lat="2.914089" lon="-75.14723">
        <ele>697.2</ele>
        <time>2021-08-21T11:32:26Z</time>
      </trkpt>
      <trkpt lat="2.914092" lon="-75.14721">
        <ele>697.2</ele>
        <time>2021-08-21T11:32:27Z</time>
      </trkpt>
      <trkpt lat="2.914097" lon="-75.14718">
        <ele>697.2</ele>
        <time>2021-08-21T11:32:29Z</time>
      </trkpt>
      <trkpt lat="2.914098" lon="-75.14716">
        <ele>697.2</ele>
        <time>2021-08-21T11:32:29Z</time>
      </trkpt>
      <trkpt lat="2.914099" lon="-75.14713">
        <ele>697.2</ele>
        <time>2021-08-21T11:32:30Z</time>
      </trkpt>
      <trkpt lat="2.914098" lon="-75.1471">
        <ele>697.1</ele>
        <time>2021-08-21T11:32:31Z</time>
      </trkpt>
      <trkpt lat="2.914092" lon="-75.14707">
        <ele>697.0</ele>
        <time>2021-08-21T11:32:32Z</time>
      </trkpt>
      <trkpt lat="2.914081" lon="-75.14703">
        <ele>696.9</ele>
        <time>2021-08-21T11:32:33Z</time>
      </trkpt>
      <trkpt lat="2.914063" lon="-75.147">
        <ele>696.9</ele>
        <time>2021-08-21T11:32:34Z</time>
      </trkpt>
      <trkpt lat="2.914015" lon="-75.146935">
        <ele>696.8</ele>
        <time>2021-08-21T11:32:36Z</time>
      </trkpt>
      <trkpt lat="2.914041" lon="-75.146965">
        <ele>696.8</ele>
        <time>2021-08-21T11:32:36Z</time>
      </trkpt>
      <trkpt lat="2.913985" lon="-75.146904">
        <ele>696.7</ele>
        <time>2021-08-21T11:32:37Z</time>
      </trkpt>
      <trkpt lat="2.913952" lon="-75.14689">
        <ele>696.7</ele>
        <time>2021-08-21T11:32:38Z</time>
      </trkpt>
      <trkpt lat="2.913918" lon="-75.14687">
        <ele>696.7</ele>
        <time>2021-08-21T11:32:39Z</time>
      </trkpt>
      <trkpt lat="2.913883" lon="-75.14687">
        <ele>696.7</ele>
        <time>2021-08-21T11:32:40Z</time>
      </trkpt>
      <trkpt lat="2.91385" lon="-75.146866">
        <ele>696.7</ele>
        <time>2021-08-21T11:32:41Z</time>
      </trkpt>
      <trkpt lat="2.913788" lon="-75.146866">
        <ele>696.6</ele>
        <time>2021-08-21T11:32:43Z</time>
      </trkpt>
      <trkpt lat="2.913804" lon="-75.146866">
        <ele>696.7</ele>
        <time>2021-08-21T11:32:43Z</time>
      </trkpt>
      <trkpt lat="2.913755" lon="-75.14687">
        <ele>696.6</ele>
        <time>2021-08-21T11:32:44Z</time>
      </trkpt>
      <trkpt lat="2.913723" lon="-75.14687">
        <ele>696.6</ele>
        <time>2021-08-21T11:32:45Z</time>
      </trkpt>
      <trkpt lat="2.913693" lon="-75.146866">
        <ele>696.6</ele>
        <time>2021-08-21T11:32:46Z</time>
      </trkpt>
      <trkpt lat="2.91366" lon="-75.14687">
        <ele>696.6</ele>
        <time>2021-08-21T11:32:47Z</time>
      </trkpt>
      <trkpt lat="2.913627" lon="-75.14687">
        <ele>696.6</ele>
        <time>2021-08-21T11:32:48Z</time>
      </trkpt>
      <trkpt lat="2.913593" lon="-75.14689">
        <ele>696.6</ele>
        <time>2021-08-21T11:32:49Z</time>
      </trkpt>
      <trkpt lat="2.913556" lon="-75.1469">
        <ele>696.6</ele>
        <time>2021-08-21T11:32:50Z</time>
      </trkpt>
      <trkpt lat="2.913519" lon="-75.146904">
        <ele>696.6</ele>
        <time>2021-08-21T11:32:51Z</time>
      </trkpt>
      <trkpt lat="2.913483" lon="-75.14691">
        <ele>696.6</ele>
        <time>2021-08-21T11:32:52Z</time>
      </trkpt>
      <trkpt lat="2.913447" lon="-75.14692">
        <ele>696.7</ele>
        <time>2021-08-21T11:32:53Z</time>
      </trkpt>
      <trkpt lat="2.913412" lon="-75.14693">
        <ele>696.7</ele>
        <time>2021-08-21T11:32:54Z</time>
      </trkpt>
      <trkpt lat="2.913376" lon="-75.146935">
        <ele>696.7</ele>
        <time>2021-08-21T11:32:55Z</time>
      </trkpt>
      <trkpt lat="2.91334" lon="-75.14695">
        <ele>696.7</ele>
        <time>2021-08-21T11:32:56Z</time>
      </trkpt>
      <trkpt lat="2.913305" lon="-75.14696">
        <ele>696.7</ele>
        <time>2021-08-21T11:32:57Z</time>
      </trkpt>
      <trkpt lat="2.91327" lon="-75.146965">
        <ele>696.7</ele>
        <time>2021-08-21T11:32:58Z</time>
      </trkpt>
      <trkpt lat="2.913237" lon="-75.14697">
        <ele>696.8</ele>
        <time>2021-08-21T11:32:59Z</time>
      </trkpt>
      <trkpt lat="2.913203" lon="-75.14698">
        <ele>696.8</ele>
        <time>2021-08-21T11:33:00Z</time>
      </trkpt>
      <trkpt lat="2.91317" lon="-75.14698">
        <ele>696.8</ele>
        <time>2021-08-21T11:33:01Z</time>
      </trkpt>
      <trkpt lat="2.913136" lon="-75.14698">
        <ele>696.9</ele>
        <time>2021-08-21T11:33:02Z</time>
      </trkpt>
      <trkpt lat="2.913102" lon="-75.14698">
        <ele>696.9</ele>
        <time>2021-08-21T11:33:03Z</time>
      </trkpt>
      <trkpt lat="2.913067" lon="-75.14698">
        <ele>697.0</ele>
        <time>2021-08-21T11:33:04Z</time>
      </trkpt>
      <trkpt lat="2.913033" lon="-75.14698">
        <ele>697.0</ele>
        <time>2021-08-21T11:33:05Z</time>
      </trkpt>
      <trkpt lat="2.913" lon="-75.14698">
        <ele>697.1</ele>
        <time>2021-08-21T11:33:06Z</time>
      </trkpt>
      <trkpt lat="2.91295" lon="-75.14697">
        <ele>697.2</ele>
        <time>2021-08-21T11:33:08Z</time>
      </trkpt>
      <trkpt lat="2.912933" lon="-75.14697">
        <ele>697.2</ele>
        <time>2021-08-21T11:33:08Z</time>
      </trkpt>
      <trkpt lat="2.9129" lon="-75.14697">
        <ele>697.2</ele>
        <time>2021-08-21T11:33:09Z</time>
      </trkpt>
      <trkpt lat="2.912865" lon="-75.146965">
        <ele>697.3</ele>
        <time>2021-08-21T11:33:10Z</time>
      </trkpt>
      <trkpt lat="2.912835" lon="-75.14696">
        <ele>697.4</ele>
        <time>2021-08-21T11:33:11Z</time>
      </trkpt>
      <trkpt lat="2.912804" lon="-75.14695">
        <ele>697.4</ele>
        <time>2021-08-21T11:33:12Z</time>
      </trkpt>
      <trkpt lat="2.912773" lon="-75.14694">
        <ele>697.5</ele>
        <time>2021-08-21T11:33:13Z</time>
      </trkpt>
      <trkpt lat="2.91271" lon="-75.146935">
        <ele>697.6</ele>
        <time>2021-08-21T11:33:15Z</time>
      </trkpt>
      <trkpt lat="2.912726" lon="-75.146935">
        <ele>697.5</ele>
        <time>2021-08-21T11:33:15Z</time>
      </trkpt>
      <trkpt lat="2.912679" lon="-75.14693">
        <ele>697.6</ele>
        <time>2021-08-21T11:33:16Z</time>
      </trkpt>
      <trkpt lat="2.91265" lon="-75.14692">
        <ele>697.7</ele>
        <time>2021-08-21T11:33:17Z</time>
      </trkpt>
      <trkpt lat="2.91262" lon="-75.14692">
        <ele>697.7</ele>
        <time>2021-08-21T11:33:18Z</time>
      </trkpt>
      <trkpt lat="2.912589" lon="-75.14692">
        <ele>697.8</ele>
        <time>2021-08-21T11:33:19Z</time>
      </trkpt>
      <trkpt lat="2.912562" lon="-75.14692">
        <ele>697.8</ele>
        <time>2021-08-21T11:33:20Z</time>
      </trkpt>
      <trkpt lat="2.912509" lon="-75.14692">
        <ele>697.9</ele>
        <time>2021-08-21T11:33:22Z</time>
      </trkpt>
      <trkpt lat="2.912522" lon="-75.14692">
        <ele>697.9</ele>
        <time>2021-08-21T11:33:22Z</time>
      </trkpt>
      <trkpt lat="2.912483" lon="-75.14693">
        <ele>698.0</ele>
        <time>2021-08-21T11:33:23Z</time>
      </trkpt>
      <trkpt lat="2.912457" lon="-75.14693">
        <ele>698.0</ele>
        <time>2021-08-21T11:33:24Z</time>
      </trkpt>
      <trkpt lat="2.912429" lon="-75.146935">
        <ele>698.1</ele>
        <time>2021-08-21T11:33:25Z</time>
      </trkpt>
      <trkpt lat="2.912399" lon="-75.14694">
        <ele>698.1</ele>
        <time>2021-08-21T11:33:27Z</time>
      </trkpt>
      <trkpt lat="2.912339" lon="-75.14696">
        <ele>698.3</ele>
        <time>2021-08-21T11:33:28Z</time>
      </trkpt>
      <trkpt lat="2.912369" lon="-75.14695">
        <ele>698.2</ele>
        <time>2021-08-21T11:33:28Z</time>
      </trkpt>
      <trkpt lat="2.912309" lon="-75.14696">
        <ele>698.3</ele>
        <time>2021-08-21T11:33:29Z</time>
      </trkpt>
      <trkpt lat="2.912281" lon="-75.146965">
        <ele>698.3</ele>
        <time>2021-08-21T11:33:30Z</time>
      </trkpt>
      <trkpt lat="2.912252" lon="-75.14697">
        <ele>698.4</ele>
        <time>2021-08-21T11:33:31Z</time>
      </trkpt>
      <trkpt lat="2.912224" lon="-75.14698">
        <ele>698.4</ele>
        <time>2021-08-21T11:33:32Z</time>
      </trkpt>
      <trkpt lat="2.912194" lon="-75.14699">
        <ele>698.5</ele>
        <time>2021-08-21T11:33:33Z</time>
      </trkpt>
      <trkpt lat="2.912165" lon="-75.146996">
        <ele>698.5</ele>
        <time>2021-08-21T11:33:34Z</time>
      </trkpt>
      <trkpt lat="2.912137" lon="-75.147">
        <ele>698.5</ele>
        <time>2021-08-21T11:33:35Z</time>
      </trkpt>
      <trkpt lat="2.912109" lon="-75.14701">
        <ele>698.5</ele>
        <time>2021-08-21T11:33:36Z</time>
      </trkpt>
      <trkpt lat="2.912082" lon="-75.14701">
        <ele>698.6</ele>
        <time>2021-08-21T11:33:37Z</time>
      </trkpt>
      <trkpt lat="2.912025" lon="-75.14703">
        <ele>698.7</ele>
        <time>2021-08-21T11:33:38Z</time>
      </trkpt>
      <trkpt lat="2.912053" lon="-75.14702">
        <ele>698.6</ele>
        <time>2021-08-21T11:33:38Z</time>
      </trkpt>
      <trkpt lat="2.911994" lon="-75.14704">
        <ele>698.7</ele>
        <time>2021-08-21T11:33:39Z</time>
      </trkpt>
      <trkpt lat="2.911961" lon="-75.14705">
        <ele>698.8</ele>
        <time>2021-08-21T11:33:40Z</time>
      </trkpt>
      <trkpt lat="2.911925" lon="-75.147064">
        <ele>698.9</ele>
        <time>2021-08-21T11:33:41Z</time>
      </trkpt>
      <trkpt lat="2.911849" lon="-75.14709">
        <ele>699.1</ele>
        <time>2021-08-21T11:33:43Z</time>
      </trkpt>
      <trkpt lat="2.911888" lon="-75.14708">
        <ele>699.0</ele>
        <time>2021-08-21T11:33:43Z</time>
      </trkpt>
      <trkpt lat="2.911806" lon="-75.1471">
        <ele>699.2</ele>
        <time>2021-08-21T11:33:44Z</time>
      </trkpt>
      <trkpt lat="2.911762" lon="-75.14712">
        <ele>699.2</ele>
        <time>2021-08-21T11:33:45Z</time>
      </trkpt>
      <trkpt lat="2.911668" lon="-75.14714">
        <ele>698.9</ele>
        <time>2021-08-21T11:33:47Z</time>
      </trkpt>
      <trkpt lat="2.911716" lon="-75.147125">
        <ele>699.0</ele>
        <time>2021-08-21T11:33:47Z</time>
      </trkpt>
      <trkpt lat="2.911621" lon="-75.147156">
        <ele>698.8</ele>
        <time>2021-08-21T11:33:48Z</time>
      </trkpt>
      <trkpt lat="2.911575" lon="-75.14716">
        <ele>698.8</ele>
        <time>2021-08-21T11:33:49Z</time>
      </trkpt>
      <trkpt lat="2.911531" lon="-75.14718">
        <ele>698.7</ele>
        <time>2021-08-21T11:33:50Z</time>
      </trkpt>
      <trkpt lat="2.91149" lon="-75.14719">
        <ele>698.8</ele>
        <time>2021-08-21T11:33:51Z</time>
      </trkpt>
      <trkpt lat="2.911415" lon="-75.14721">
        <ele>698.8</ele>
        <time>2021-08-21T11:33:53Z</time>
      </trkpt>
      <trkpt lat="2.911451" lon="-75.147194">
        <ele>698.8</ele>
        <time>2021-08-21T11:33:53Z</time>
      </trkpt>
      <trkpt lat="2.911379" lon="-75.14722">
        <ele>698.9</ele>
        <time>2021-08-21T11:33:54Z</time>
      </trkpt>
      <trkpt lat="2.911343" lon="-75.147224">
        <ele>699.0</ele>
        <time>2021-08-21T11:33:55Z</time>
      </trkpt>
      <trkpt lat="2.911307" lon="-75.14723">
        <ele>699.0</ele>
        <time>2021-08-21T11:33:56Z</time>
      </trkpt>
      <trkpt lat="2.911271" lon="-75.14724">
        <ele>699.1</ele>
        <time>2021-08-21T11:33:57Z</time>
      </trkpt>
      <trkpt lat="2.911234" lon="-75.14724">
        <ele>699.2</ele>
        <time>2021-08-21T11:33:58Z</time>
      </trkpt>
      <trkpt lat="2.911165" lon="-75.147255">
        <ele>699.3</ele>
        <time>2021-08-21T11:34:00Z</time>
      </trkpt>
      <trkpt lat="2.911199" lon="-75.14725">
        <ele>699.3</ele>
        <time>2021-08-21T11:34:00Z</time>
      </trkpt>
      <trkpt lat="2.911132" lon="-75.14726">
        <ele>699.4</ele>
        <time>2021-08-21T11:34:01Z</time>
      </trkpt>
      <trkpt lat="2.9111" lon="-75.14727">
        <ele>699.5</ele>
        <time>2021-08-21T11:34:02Z</time>
      </trkpt>
      <trkpt lat="2.911068" lon="-75.14728">
        <ele>699.6</ele>
        <time>2021-08-21T11:34:03Z</time>
      </trkpt>
      <trkpt lat="2.911036" lon="-75.147285">
        <ele>699.7</ele>
        <time>2021-08-21T11:34:04Z</time>
      </trkpt>
      <trkpt lat="2.911004" lon="-75.14729">
        <ele>699.8</ele>
        <time>2021-08-21T11:34:05Z</time>
      </trkpt>
      <trkpt lat="2.910973" lon="-75.1473">
        <ele>699.9</ele>
        <time>2021-08-21T11:34:06Z</time>
      </trkpt>
      <trkpt lat="2.910943" lon="-75.1473">
        <ele>700.0</ele>
        <time>2021-08-21T11:34:07Z</time>
      </trkpt>
      <trkpt lat="2.910912" lon="-75.14731">
        <ele>700.1</ele>
        <time>2021-08-21T11:34:08Z</time>
      </trkpt>
      <trkpt lat="2.910883" lon="-75.147316">
        <ele>700.2</ele>
        <time>2021-08-21T11:34:09Z</time>
      </trkpt>
      <trkpt lat="2.910854" lon="-75.14732">
        <ele>700.4</ele>
        <time>2021-08-21T11:34:10Z</time>
      </trkpt>
      <trkpt lat="2.910826" lon="-75.14732">
        <ele>700.5</ele>
        <time>2021-08-21T11:34:11Z</time>
      </trkpt>
      <trkpt lat="2.910768" lon="-75.14734">
        <ele>700.7</ele>
        <time>2021-08-21T11:34:13Z</time>
      </trkpt>
      <trkpt lat="2.910783" lon="-75.14733">
        <ele>700.6</ele>
        <time>2021-08-21T11:34:13Z</time>
      </trkpt>
      <trkpt lat="2.910739" lon="-75.14735">
        <ele>700.8</ele>
        <time>2021-08-21T11:34:14Z</time>
      </trkpt>
      <trkpt lat="2.910709" lon="-75.14735">
        <ele>700.9</ele>
        <time>2021-08-21T11:34:15Z</time>
      </trkpt>
      <trkpt lat="2.91068" lon="-75.147354">
        <ele>701.0</ele>
        <time>2021-08-21T11:34:16Z</time>
      </trkpt>
      <trkpt lat="2.910652" lon="-75.14736">
        <ele>701.1</ele>
        <time>2021-08-21T11:34:17Z</time>
      </trkpt>
      <trkpt lat="2.910624" lon="-75.14737">
        <ele>701.2</ele>
        <time>2021-08-21T11:34:18Z</time>
      </trkpt>
      <trkpt lat="2.910569" lon="-75.14738">
        <ele>701.4</ele>
        <time>2021-08-21T11:34:20Z</time>
      </trkpt>
      <trkpt lat="2.910583" lon="-75.14738">
        <ele>701.4</ele>
        <time>2021-08-21T11:34:20Z</time>
      </trkpt>
      <trkpt lat="2.910542" lon="-75.147385">
        <ele>701.5</ele>
        <time>2021-08-21T11:34:21Z</time>
      </trkpt>
      <trkpt lat="2.910517" lon="-75.14739">
        <ele>701.6</ele>
        <time>2021-08-21T11:34:22Z</time>
      </trkpt>
      <trkpt lat="2.910492" lon="-75.1474">
        <ele>701.7</ele>
        <time>2021-08-21T11:34:23Z</time>
      </trkpt>
      <trkpt lat="2.910466" lon="-75.14741">
        <ele>701.8</ele>
        <time>2021-08-21T11:34:24Z</time>
      </trkpt>
      <trkpt lat="2.910441" lon="-75.14742">
        <ele>701.9</ele>
        <time>2021-08-21T11:34:25Z</time>
      </trkpt>
      <trkpt lat="2.910418" lon="-75.14743">
        <ele>702.1</ele>
        <time>2021-08-21T11:34:26Z</time>
      </trkpt>
      <trkpt lat="2.910394" lon="-75.147446">
        <ele>702.2</ele>
        <time>2021-08-21T11:34:27Z</time>
      </trkpt>
      <trkpt lat="2.910372" lon="-75.14745">
        <ele>702.3</ele>
        <time>2021-08-21T11:34:28Z</time>
      </trkpt>
      <trkpt lat="2.91035" lon="-75.14747">
        <ele>702.4</ele>
        <time>2021-08-21T11:34:29Z</time>
      </trkpt>
      <trkpt lat="2.910329" lon="-75.14748">
        <ele>702.5</ele>
        <time>2021-08-21T11:34:30Z</time>
      </trkpt>
      <trkpt lat="2.910309" lon="-75.14749">
        <ele>702.6</ele>
        <time>2021-08-21T11:34:31Z</time>
      </trkpt>
      <trkpt lat="2.910288" lon="-75.14751">
        <ele>702.7</ele>
        <time>2021-08-21T11:34:32Z</time>
      </trkpt>
      <trkpt lat="2.91027" lon="-75.14753">
        <ele>702.8</ele>
        <time>2021-08-21T11:34:33Z</time>
      </trkpt>
      <trkpt lat="2.91025" lon="-75.147545">
        <ele>703.0</ele>
        <time>2021-08-21T11:34:34Z</time>
      </trkpt>
      <trkpt lat="2.910231" lon="-75.14756">
        <ele>703.1</ele>
        <time>2021-08-21T11:34:35Z</time>
      </trkpt>
      <trkpt lat="2.910212" lon="-75.147575">
        <ele>703.2</ele>
        <time>2021-08-21T11:34:36Z</time>
      </trkpt>
      <trkpt lat="2.910192" lon="-75.1476">
        <ele>703.3</ele>
        <time>2021-08-21T11:34:37Z</time>
      </trkpt>
      <trkpt lat="2.910171" lon="-75.14761">
        <ele>703.4</ele>
        <time>2021-08-21T11:34:38Z</time>
      </trkpt>
      <trkpt lat="2.91015" lon="-75.14763">
        <ele>703.5</ele>
        <time>2021-08-21T11:34:39Z</time>
      </trkpt>
      <trkpt lat="2.91013" lon="-75.14765">
        <ele>703.5</ele>
        <time>2021-08-21T11:34:40Z</time>
      </trkpt>
      <trkpt lat="2.910109" lon="-75.14767">
        <ele>703.6</ele>
        <time>2021-08-21T11:34:41Z</time>
      </trkpt>
      <trkpt lat="2.910089" lon="-75.14768">
        <ele>703.7</ele>
        <time>2021-08-21T11:34:42Z</time>
      </trkpt>
      <trkpt lat="2.910068" lon="-75.1477">
        <ele>703.8</ele>
        <time>2021-08-21T11:34:43Z</time>
      </trkpt>
      <trkpt lat="2.910025" lon="-75.14773">
        <ele>704.0</ele>
        <time>2021-08-21T11:34:45Z</time>
      </trkpt>
      <trkpt lat="2.910036" lon="-75.14772">
        <ele>704.0</ele>
        <time>2021-08-21T11:34:45Z</time>
      </trkpt>
      <trkpt lat="2.910004" lon="-75.14774">
        <ele>704.1</ele>
        <time>2021-08-21T11:34:46Z</time>
      </trkpt>
      <trkpt lat="2.909983" lon="-75.14776">
        <ele>704.2</ele>
        <time>2021-08-21T11:34:47Z</time>
      </trkpt>
      <trkpt lat="2.909961" lon="-75.14777">
        <ele>704.3</ele>
        <time>2021-08-21T11:34:48Z</time>
      </trkpt>
      <trkpt lat="2.909938" lon="-75.14779">
        <ele>704.4</ele>
        <time>2021-08-21T11:34:49Z</time>
      </trkpt>
      <trkpt lat="2.909914" lon="-75.147804">
        <ele>704.5</ele>
        <time>2021-08-21T11:34:50Z</time>
      </trkpt>
      <trkpt lat="2.909865" lon="-75.14783">
        <ele>704.6</ele>
        <time>2021-08-21T11:34:52Z</time>
      </trkpt>
      <trkpt lat="2.909878" lon="-75.14782">
        <ele>704.6</ele>
        <time>2021-08-21T11:34:52Z</time>
      </trkpt>
      <trkpt lat="2.909841" lon="-75.147835">
        <ele>704.7</ele>
        <time>2021-08-21T11:34:53Z</time>
      </trkpt>
      <trkpt lat="2.909817" lon="-75.14784">
        <ele>704.8</ele>
        <time>2021-08-21T11:34:54Z</time>
      </trkpt>
      <trkpt lat="2.909792" lon="-75.14786">
        <ele>704.9</ele>
        <time>2021-08-21T11:34:55Z</time>
      </trkpt>
      <trkpt lat="2.909766" lon="-75.147865">
        <ele>705.0</ele>
        <time>2021-08-21T11:34:56Z</time>
      </trkpt>
      <trkpt lat="2.909741" lon="-75.14787">
        <ele>705.1</ele>
        <time>2021-08-21T11:34:57Z</time>
      </trkpt>
      <trkpt lat="2.909689" lon="-75.14789">
        <ele>705.2</ele>
        <time>2021-08-21T11:34:59Z</time>
      </trkpt>
      <trkpt lat="2.909702" lon="-75.14788">
        <ele>705.2</ele>
        <time>2021-08-21T11:34:59Z</time>
      </trkpt>
      <trkpt lat="2.909663" lon="-75.147896">
        <ele>705.3</ele>
        <time>2021-08-21T11:35:00Z</time>
      </trkpt>
      <trkpt lat="2.909636" lon="-75.147896">
        <ele>705.3</ele>
        <time>2021-08-21T11:35:01Z</time>
      </trkpt>
      <trkpt lat="2.90961" lon="-75.1479">
        <ele>705.4</ele>
        <time>2021-08-21T11:35:02Z</time>
      </trkpt>
      <trkpt lat="2.909583" lon="-75.1479">
        <ele>705.5</ele>
        <time>2021-08-21T11:35:03Z</time>
      </trkpt>
      <trkpt lat="2.909555" lon="-75.14791">
        <ele>705.5</ele>
        <time>2021-08-21T11:35:04Z</time>
      </trkpt>
      <trkpt lat="2.909499" lon="-75.14792">
        <ele>705.7</ele>
        <time>2021-08-21T11:35:06Z</time>
      </trkpt>
      <trkpt lat="2.909513" lon="-75.14792">
        <ele>705.6</ele>
        <time>2021-08-21T11:35:06Z</time>
      </trkpt>
      <trkpt lat="2.909472" lon="-75.14792">
        <ele>705.7</ele>
        <time>2021-08-21T11:35:07Z</time>
      </trkpt>
      <trkpt lat="2.909445" lon="-75.14793">
        <ele>705.8</ele>
        <time>2021-08-21T11:35:08Z</time>
      </trkpt>
      <trkpt lat="2.909419" lon="-75.14793">
        <ele>705.8</ele>
        <time>2021-08-21T11:35:09Z</time>
      </trkpt>
      <trkpt lat="2.909393" lon="-75.14793">
        <ele>705.9</ele>
        <time>2021-08-21T11:35:10Z</time>
      </trkpt>
      <trkpt lat="2.909343" lon="-75.14794">
        <ele>706.0</ele>
        <time>2021-08-21T11:35:12Z</time>
      </trkpt>
      <trkpt lat="2.909356" lon="-75.147934">
        <ele>705.9</ele>
        <time>2021-08-21T11:35:12Z</time>
      </trkpt>
      <trkpt lat="2.909317" lon="-75.14794">
        <ele>706.0</ele>
        <time>2021-08-21T11:35:13Z</time>
      </trkpt>
      <trkpt lat="2.909293" lon="-75.14795">
        <ele>706.1</ele>
        <time>2021-08-21T11:35:14Z</time>
      </trkpt>
      <trkpt lat="2.909268" lon="-75.14795">
        <ele>706.1</ele>
        <time>2021-08-21T11:35:15Z</time>
      </trkpt>
      <trkpt lat="2.909243" lon="-75.14795">
        <ele>706.1</ele>
        <time>2021-08-21T11:35:16Z</time>
      </trkpt>
      <trkpt lat="2.909218" lon="-75.14796">
        <ele>706.2</ele>
        <time>2021-08-21T11:35:17Z</time>
      </trkpt>
      <trkpt lat="2.909167" lon="-75.147964">
        <ele>706.2</ele>
        <time>2021-08-21T11:35:19Z</time>
      </trkpt>
      <trkpt lat="2.90918" lon="-75.147964">
        <ele>706.2</ele>
        <time>2021-08-21T11:35:19Z</time>
      </trkpt>
      <trkpt lat="2.909139" lon="-75.147964">
        <ele>706.3</ele>
        <time>2021-08-21T11:35:20Z</time>
      </trkpt>
      <trkpt lat="2.909111" lon="-75.14797">
        <ele>706.3</ele>
        <time>2021-08-21T11:35:21Z</time>
      </trkpt>
      <trkpt lat="2.909083" lon="-75.14798">
        <ele>706.4</ele>
        <time>2021-08-21T11:35:22Z</time>
      </trkpt>
      <trkpt lat="2.909055" lon="-75.14798">
        <ele>706.4</ele>
        <time>2021-08-21T11:35:23Z</time>
      </trkpt>
      <trkpt lat="2.909027" lon="-75.14799">
        <ele>706.5</ele>
        <time>2021-08-21T11:35:24Z</time>
      </trkpt>
      <trkpt lat="2.908999" lon="-75.147995">
        <ele>706.5</ele>
        <time>2021-08-21T11:35:25Z</time>
      </trkpt>
      <trkpt lat="2.908943" lon="-75.147995">
        <ele>706.7</ele>
        <time>2021-08-21T11:35:27Z</time>
      </trkpt>
      <trkpt lat="2.908958" lon="-75.147995">
        <ele>706.6</ele>
        <time>2021-08-21T11:35:27Z</time>
      </trkpt>
      <trkpt lat="2.908915" lon="-75.148">
        <ele>706.7</ele>
        <time>2021-08-21T11:35:28Z</time>
      </trkpt>
      <trkpt lat="2.908886" lon="-75.147995">
        <ele>706.8</ele>
        <time>2021-08-21T11:35:29Z</time>
      </trkpt>
      <trkpt lat="2.908856" lon="-75.147995">
        <ele>706.8</ele>
        <time>2021-08-21T11:35:30Z</time>
      </trkpt>
      <trkpt lat="2.908826" lon="-75.147995">
        <ele>706.9</ele>
        <time>2021-08-21T11:35:31Z</time>
      </trkpt>
      <trkpt lat="2.908795" lon="-75.14799">
        <ele>706.9</ele>
        <time>2021-08-21T11:35:32Z</time>
      </trkpt>
      <trkpt lat="2.908764" lon="-75.14798">
        <ele>707.0</ele>
        <time>2021-08-21T11:35:33Z</time>
      </trkpt>
      <trkpt lat="2.908734" lon="-75.14797">
        <ele>707.1</ele>
        <time>2021-08-21T11:35:34Z</time>
      </trkpt>
      <trkpt lat="2.908704" lon="-75.147964">
        <ele>707.1</ele>
        <time>2021-08-21T11:35:35Z</time>
      </trkpt>
      <trkpt lat="2.908674" lon="-75.14795">
        <ele>707.2</ele>
        <time>2021-08-21T11:35:36Z</time>
      </trkpt>
      <trkpt lat="2.908645" lon="-75.14794">
        <ele>707.2</ele>
        <time>2021-08-21T11:35:37Z</time>
      </trkpt>
      <trkpt lat="2.908617" lon="-75.147934">
        <ele>707.2</ele>
        <time>2021-08-21T11:35:38Z</time>
      </trkpt>
      <trkpt lat="2.908588" lon="-75.14792">
        <ele>707.3</ele>
        <time>2021-08-21T11:35:39Z</time>
      </trkpt>
      <trkpt lat="2.908558" lon="-75.14791">
        <ele>707.3</ele>
        <time>2021-08-21T11:35:40Z</time>
      </trkpt>
      <trkpt lat="2.908528" lon="-75.147896">
        <ele>707.4</ele>
        <time>2021-08-21T11:35:41Z</time>
      </trkpt>
      <trkpt lat="2.908499" lon="-75.14789">
        <ele>707.4</ele>
        <time>2021-08-21T11:35:42Z</time>
      </trkpt>
      <trkpt lat="2.908469" lon="-75.14788">
        <ele>707.5</ele>
        <time>2021-08-21T11:35:43Z</time>
      </trkpt>
      <trkpt lat="2.908439" lon="-75.14787">
        <ele>707.5</ele>
        <time>2021-08-21T11:35:44Z</time>
      </trkpt>
      <trkpt lat="2.908409" lon="-75.147865">
        <ele>707.6</ele>
        <time>2021-08-21T11:35:45Z</time>
      </trkpt>
      <trkpt lat="2.908377" lon="-75.14786">
        <ele>707.6</ele>
        <time>2021-08-21T11:35:46Z</time>
      </trkpt>
      <trkpt lat="2.908345" lon="-75.14785">
        <ele>707.7</ele>
        <time>2021-08-21T11:35:47Z</time>
      </trkpt>
      <trkpt lat="2.908312" lon="-75.14784">
        <ele>707.7</ele>
        <time>2021-08-21T11:35:48Z</time>
      </trkpt>
      <trkpt lat="2.908281" lon="-75.147835">
        <ele>707.8</ele>
        <time>2021-08-21T11:35:49Z</time>
      </trkpt>
      <trkpt lat="2.908219" lon="-75.14783">
        <ele>707.9</ele>
        <time>2021-08-21T11:35:51Z</time>
      </trkpt>
      <trkpt lat="2.908235" lon="-75.14783">
        <ele>707.9</ele>
        <time>2021-08-21T11:35:51Z</time>
      </trkpt>
      <trkpt lat="2.908189" lon="-75.14783">
        <ele>708.0</ele>
        <time>2021-08-21T11:35:52Z</time>
      </trkpt>
      <trkpt lat="2.908158" lon="-75.14783">
        <ele>708.1</ele>
        <time>2021-08-21T11:35:53Z</time>
      </trkpt>
      <trkpt lat="2.908127" lon="-75.147835">
        <ele>708.2</ele>
        <time>2021-08-21T11:35:54Z</time>
      </trkpt>
      <trkpt lat="2.908098" lon="-75.147835">
        <ele>708.3</ele>
        <time>2021-08-21T11:35:55Z</time>
      </trkpt>
      <trkpt lat="2.908069" lon="-75.14784">
        <ele>708.4</ele>
        <time>2021-08-21T11:35:56Z</time>
      </trkpt>
      <trkpt lat="2.908017" lon="-75.147865">
        <ele>708.6</ele>
        <time>2021-08-21T11:35:58Z</time>
      </trkpt>
      <trkpt lat="2.90803" lon="-75.14786">
        <ele>708.6</ele>
        <time>2021-08-21T11:35:58Z</time>
      </trkpt>
      <trkpt lat="2.907993" lon="-75.14787">
        <ele>708.7</ele>
        <time>2021-08-21T11:35:59Z</time>
      </trkpt>
      <trkpt lat="2.90797" lon="-75.14789">
        <ele>708.8</ele>
        <time>2021-08-21T11:36:00Z</time>
      </trkpt>
      <trkpt lat="2.907947" lon="-75.1479">
        <ele>708.9</ele>
        <time>2021-08-21T11:36:01Z</time>
      </trkpt>
      <trkpt lat="2.907925" lon="-75.14793">
        <ele>709.0</ele>
        <time>2021-08-21T11:36:02Z</time>
      </trkpt>
      <trkpt lat="2.907902" lon="-75.14794">
        <ele>709.1</ele>
        <time>2021-08-21T11:36:03Z</time>
      </trkpt>
      <trkpt lat="2.907859" lon="-75.14798">
        <ele>709.3</ele>
        <time>2021-08-21T11:36:05Z</time>
      </trkpt>
      <trkpt lat="2.90787" lon="-75.14797">
        <ele>709.3</ele>
        <time>2021-08-21T11:36:05Z</time>
      </trkpt>
      <trkpt lat="2.907837" lon="-75.148">
        <ele>709.4</ele>
        <time>2021-08-21T11:36:06Z</time>
      </trkpt>
      <trkpt lat="2.907815" lon="-75.148026">
        <ele>709.5</ele>
        <time>2021-08-21T11:36:07Z</time>
      </trkpt>
      <trkpt lat="2.907793" lon="-75.14805">
        <ele>709.6</ele>
        <time>2021-08-21T11:36:08Z</time>
      </trkpt>
      <trkpt lat="2.90777" lon="-75.14807">
        <ele>709.7</ele>
        <time>2021-08-21T11:36:09Z</time>
      </trkpt>
      <trkpt lat="2.907723" lon="-75.14812">
        <ele>709.9</ele>
        <time>2021-08-21T11:36:11Z</time>
      </trkpt>
      <trkpt lat="2.907735" lon="-75.1481">
        <ele>709.8</ele>
        <time>2021-08-21T11:36:11Z</time>
      </trkpt>
      <trkpt lat="2.9077" lon="-75.14814">
        <ele>709.9</ele>
        <time>2021-08-21T11:36:12Z</time>
      </trkpt>
      <trkpt lat="2.907677" lon="-75.148155">
        <ele>710.0</ele>
        <time>2021-08-21T11:36:13Z</time>
      </trkpt>
      <trkpt lat="2.907654" lon="-75.14818">
        <ele>710.1</ele>
        <time>2021-08-21T11:36:14Z</time>
      </trkpt>
      <trkpt lat="2.90763" lon="-75.1482">
        <ele>710.1</ele>
        <time>2021-08-21T11:36:15Z</time>
      </trkpt>
      <trkpt lat="2.907608" lon="-75.148224">
        <ele>710.2</ele>
        <time>2021-08-21T11:36:16Z</time>
      </trkpt>
      <trkpt lat="2.907564" lon="-75.14826">
        <ele>710.4</ele>
        <time>2021-08-21T11:36:18Z</time>
      </trkpt>
      <trkpt lat="2.907575" lon="-75.148254">
        <ele>710.3</ele>
        <time>2021-08-21T11:36:18Z</time>
      </trkpt>
      <trkpt lat="2.907541" lon="-75.148285">
        <ele>710.4</ele>
        <time>2021-08-21T11:36:19Z</time>
      </trkpt>
      <trkpt lat="2.907519" lon="-75.14831">
        <ele>710.5</ele>
        <time>2021-08-21T11:36:20Z</time>
      </trkpt>
      <trkpt lat="2.907497" lon="-75.14832">
        <ele>710.6</ele>
        <time>2021-08-21T11:36:21Z</time>
      </trkpt>
      <trkpt lat="2.907476" lon="-75.14834">
        <ele>710.7</ele>
        <time>2021-08-21T11:36:22Z</time>
      </trkpt>
      <trkpt lat="2.907455" lon="-75.14836">
        <ele>710.8</ele>
        <time>2021-08-21T11:36:23Z</time>
      </trkpt>
      <trkpt lat="2.907432" lon="-75.14838">
        <ele>710.8</ele>
        <time>2021-08-21T11:36:24Z</time>
      </trkpt>
      <trkpt lat="2.907409" lon="-75.1484">
        <ele>710.9</ele>
        <time>2021-08-21T11:36:25Z</time>
      </trkpt>
      <trkpt lat="2.907386" lon="-75.148415">
        <ele>711.0</ele>
        <time>2021-08-21T11:36:26Z</time>
      </trkpt>
      <trkpt lat="2.907365" lon="-75.14843">
        <ele>711.1</ele>
        <time>2021-08-21T11:36:27Z</time>
      </trkpt>
      <trkpt lat="2.90734" lon="-75.148445">
        <ele>711.2</ele>
        <time>2021-08-21T11:36:28Z</time>
      </trkpt>
      <trkpt lat="2.907316" lon="-75.14845">
        <ele>711.3</ele>
        <time>2021-08-21T11:36:29Z</time>
      </trkpt>
      <trkpt lat="2.90729" lon="-75.14847">
        <ele>711.4</ele>
        <time>2021-08-21T11:36:30Z</time>
      </trkpt>
      <trkpt lat="2.907265" lon="-75.148476">
        <ele>711.5</ele>
        <time>2021-08-21T11:36:31Z</time>
      </trkpt>
      <trkpt lat="2.907239" lon="-75.14849">
        <ele>711.6</ele>
        <time>2021-08-21T11:36:32Z</time>
      </trkpt>
      <trkpt lat="2.907212" lon="-75.1485">
        <ele>711.7</ele>
        <time>2021-08-21T11:36:33Z</time>
      </trkpt>
      <trkpt lat="2.907185" lon="-75.148506">
        <ele>711.8</ele>
        <time>2021-08-21T11:36:34Z</time>
      </trkpt>
      <trkpt lat="2.907159" lon="-75.148506">
        <ele>711.9</ele>
        <time>2021-08-21T11:36:35Z</time>
      </trkpt>
      <trkpt lat="2.907133" lon="-75.14851">
        <ele>712.0</ele>
        <time>2021-08-21T11:36:36Z</time>
      </trkpt>
      <trkpt lat="2.907109" lon="-75.14851">
        <ele>712.1</ele>
        <time>2021-08-21T11:36:37Z</time>
      </trkpt>
      <trkpt lat="2.907083" lon="-75.14851">
        <ele>712.2</ele>
        <time>2021-08-21T11:36:38Z</time>
      </trkpt>
      <trkpt lat="2.907056" lon="-75.14852">
        <ele>712.3</ele>
        <time>2021-08-21T11:36:39Z</time>
      </trkpt>
      <trkpt lat="2.90703" lon="-75.14852">
        <ele>712.4</ele>
        <time>2021-08-21T11:36:40Z</time>
      </trkpt>
      <trkpt lat="2.907003" lon="-75.14852">
        <ele>712.5</ele>
        <time>2021-08-21T11:36:41Z</time>
      </trkpt>
      <trkpt lat="2.90695" lon="-75.14852">
        <ele>712.6</ele>
        <time>2021-08-21T11:36:43Z</time>
      </trkpt>
      <trkpt lat="2.906963" lon="-75.14852">
        <ele>712.6</ele>
        <time>2021-08-21T11:36:43Z</time>
      </trkpt>
      <trkpt lat="2.906922" lon="-75.14853">
        <ele>712.7</ele>
        <time>2021-08-21T11:36:44Z</time>
      </trkpt>
      <trkpt lat="2.906895" lon="-75.14853">
        <ele>712.8</ele>
        <time>2021-08-21T11:36:45Z</time>
      </trkpt>
      <trkpt lat="2.906867" lon="-75.14853">
        <ele>712.9</ele>
        <time>2021-08-21T11:36:46Z</time>
      </trkpt>
      <trkpt lat="2.90684" lon="-75.14853">
        <ele>713.0</ele>
        <time>2021-08-21T11:36:47Z</time>
      </trkpt>
      <trkpt lat="2.906812" lon="-75.14852">
        <ele>713.1</ele>
        <time>2021-08-21T11:36:48Z</time>
      </trkpt>
      <trkpt lat="2.906754" lon="-75.14852">
        <ele>713.3</ele>
        <time>2021-08-21T11:36:50Z</time>
      </trkpt>
      <trkpt lat="2.906769" lon="-75.14852">
        <ele>713.2</ele>
        <time>2021-08-21T11:36:50Z</time>
      </trkpt>
      <trkpt lat="2.906725" lon="-75.14852">
        <ele>713.4</ele>
        <time>2021-08-21T11:36:51Z</time>
      </trkpt>
      <trkpt lat="2.906697" lon="-75.14852">
        <ele>713.4</ele>
        <time>2021-08-21T11:36:52Z</time>
      </trkpt>
      <trkpt lat="2.906669" lon="-75.14851">
        <ele>713.5</ele>
        <time>2021-08-21T11:36:53Z</time>
      </trkpt>
      <trkpt lat="2.906641" lon="-75.14851">
        <ele>713.6</ele>
        <time>2021-08-21T11:36:54Z</time>
      </trkpt>
      <trkpt lat="2.906613" lon="-75.14851">
        <ele>713.7</ele>
        <time>2021-08-21T11:36:55Z</time>
      </trkpt>
      <trkpt lat="2.906557" lon="-75.14851">
        <ele>713.9</ele>
        <time>2021-08-21T11:36:57Z</time>
      </trkpt>
      <trkpt lat="2.906571" lon="-75.14851">
        <ele>713.9</ele>
        <time>2021-08-21T11:36:57Z</time>
      </trkpt>
      <trkpt lat="2.906528" lon="-75.14851">
        <ele>714.0</ele>
        <time>2021-08-21T11:36:58Z</time>
      </trkpt>
      <trkpt lat="2.906499" lon="-75.14851">
        <ele>714.1</ele>
        <time>2021-08-21T11:36:59Z</time>
      </trkpt>
      <trkpt lat="2.90647" lon="-75.14851">
        <ele>714.2</ele>
        <time>2021-08-21T11:37:00Z</time>
      </trkpt>
      <trkpt lat="2.90644" lon="-75.14852">
        <ele>714.3</ele>
        <time>2021-08-21T11:37:01Z</time>
      </trkpt>
      <trkpt lat="2.906409" lon="-75.14852">
        <ele>714.5</ele>
        <time>2021-08-21T11:37:02Z</time>
      </trkpt>
      <trkpt lat="2.906378" lon="-75.14852">
        <ele>714.6</ele>
        <time>2021-08-21T11:37:03Z</time>
      </trkpt>
      <trkpt lat="2.906348" lon="-75.14853">
        <ele>714.7</ele>
        <time>2021-08-21T11:37:04Z</time>
      </trkpt>
      <trkpt lat="2.906319" lon="-75.14853">
        <ele>714.8</ele>
        <time>2021-08-21T11:37:05Z</time>
      </trkpt>
      <trkpt lat="2.906289" lon="-75.14853">
        <ele>714.9</ele>
        <time>2021-08-21T11:37:06Z</time>
      </trkpt>
      <trkpt lat="2.906258" lon="-75.14853">
        <ele>715.0</ele>
        <time>2021-08-21T11:37:07Z</time>
      </trkpt>
      <trkpt lat="2.906228" lon="-75.14853">
        <ele>715.1</ele>
        <time>2021-08-21T11:37:08Z</time>
      </trkpt>
      <trkpt lat="2.906168" lon="-75.14853">
        <ele>715.3</ele>
        <time>2021-08-21T11:37:10Z</time>
      </trkpt>
      <trkpt lat="2.906183" lon="-75.14853">
        <ele>715.3</ele>
        <time>2021-08-21T11:37:10Z</time>
      </trkpt>
      <trkpt lat="2.906139" lon="-75.14853">
        <ele>715.4</ele>
        <time>2021-08-21T11:37:11Z</time>
      </trkpt>
      <trkpt lat="2.90611" lon="-75.14853">
        <ele>715.5</ele>
        <time>2021-08-21T11:37:12Z</time>
      </trkpt>
      <trkpt lat="2.906079" lon="-75.14852">
        <ele>715.6</ele>
        <time>2021-08-21T11:37:13Z</time>
      </trkpt>
      <trkpt lat="2.906048" lon="-75.14852">
        <ele>715.6</ele>
        <time>2021-08-21T11:37:14Z</time>
      </trkpt>
      <trkpt lat="2.906016" lon="-75.14852">
        <ele>715.7</ele>
        <time>2021-08-21T11:37:15Z</time>
      </trkpt>
      <trkpt lat="2.905984" lon="-75.14852">
        <ele>715.8</ele>
        <time>2021-08-21T11:37:16Z</time>
      </trkpt>
      <trkpt lat="2.905952" lon="-75.14852">
        <ele>715.9</ele>
        <time>2021-08-21T11:37:17Z</time>
      </trkpt>
      <trkpt lat="2.905921" lon="-75.14852">
        <ele>716.0</ele>
        <time>2021-08-21T11:37:18Z</time>
      </trkpt>
      <trkpt lat="2.90589" lon="-75.14852">
        <ele>716.0</ele>
        <time>2021-08-21T11:37:19Z</time>
      </trkpt>
      <trkpt lat="2.905859" lon="-75.14852">
        <ele>716.1</ele>
        <time>2021-08-21T11:37:20Z</time>
      </trkpt>
      <trkpt lat="2.905829" lon="-75.14852">
        <ele>716.2</ele>
        <time>2021-08-21T11:37:21Z</time>
      </trkpt>
      <trkpt lat="2.9058" lon="-75.14851">
        <ele>716.3</ele>
        <time>2021-08-21T11:37:22Z</time>
      </trkpt>
      <trkpt lat="2.905771" lon="-75.14851">
        <ele>716.4</ele>
        <time>2021-08-21T11:37:23Z</time>
      </trkpt>
      <trkpt lat="2.905743" lon="-75.14851">
        <ele>716.5</ele>
        <time>2021-08-21T11:37:24Z</time>
      </trkpt>
      <trkpt lat="2.905716" lon="-75.14851">
        <ele>716.6</ele>
        <time>2021-08-21T11:37:25Z</time>
      </trkpt>
      <trkpt lat="2.905689" lon="-75.14851">
        <ele>716.7</ele>
        <time>2021-08-21T11:37:26Z</time>
      </trkpt>
      <trkpt lat="2.905663" lon="-75.148506">
        <ele>716.8</ele>
        <time>2021-08-21T11:37:27Z</time>
      </trkpt>
      <trkpt lat="2.905636" lon="-75.148506">
        <ele>716.9</ele>
        <time>2021-08-21T11:37:28Z</time>
      </trkpt>
      <trkpt lat="2.905611" lon="-75.148506">
        <ele>717.0</ele>
        <time>2021-08-21T11:37:29Z</time>
      </trkpt>
      <trkpt lat="2.905584" lon="-75.148506">
        <ele>717.1</ele>
        <time>2021-08-21T11:37:30Z</time>
      </trkpt>
      <trkpt lat="2.905557" lon="-75.148506">
        <ele>717.2</ele>
        <time>2021-08-21T11:37:31Z</time>
      </trkpt>
      <trkpt lat="2.90553" lon="-75.148506">
        <ele>717.3</ele>
        <time>2021-08-21T11:37:32Z</time>
      </trkpt>
      <trkpt lat="2.905504" lon="-75.148506">
        <ele>717.4</ele>
        <time>2021-08-21T11:37:33Z</time>
      </trkpt>
      <trkpt lat="2.90545" lon="-75.148506">
        <ele>717.5</ele>
        <time>2021-08-21T11:37:35Z</time>
      </trkpt>
      <trkpt lat="2.905463" lon="-75.148506">
        <ele>717.5</ele>
        <time>2021-08-21T11:37:35Z</time>
      </trkpt>
      <trkpt lat="2.905423" lon="-75.148506">
        <ele>717.6</ele>
        <time>2021-08-21T11:37:36Z</time>
      </trkpt>
      <trkpt lat="2.905396" lon="-75.148506">
        <ele>717.7</ele>
        <time>2021-08-21T11:37:37Z</time>
      </trkpt>
      <trkpt lat="2.905368" lon="-75.148506">
        <ele>717.8</ele>
        <time>2021-08-21T11:37:38Z</time>
      </trkpt>
      <trkpt lat="2.905339" lon="-75.14851">
        <ele>717.9</ele>
        <time>2021-08-21T11:37:39Z</time>
      </trkpt>
      <trkpt lat="2.905309" lon="-75.14851">
        <ele>718.0</ele>
        <time>2021-08-21T11:37:40Z</time>
      </trkpt>
      <trkpt lat="2.905247" lon="-75.14851">
        <ele>718.2</ele>
        <time>2021-08-21T11:37:42Z</time>
      </trkpt>
      <trkpt lat="2.905262" lon="-75.14851">
        <ele>718.1</ele>
        <time>2021-08-21T11:37:42Z</time>
      </trkpt>
      <trkpt lat="2.905216" lon="-75.14851">
        <ele>718.3</ele>
        <time>2021-08-21T11:37:43Z</time>
      </trkpt>
      <trkpt lat="2.905185" lon="-75.14851">
        <ele>718.4</ele>
        <time>2021-08-21T11:37:44Z</time>
      </trkpt>
      <trkpt lat="2.905154" lon="-75.14851">
        <ele>718.5</ele>
        <time>2021-08-21T11:37:45Z</time>
      </trkpt>
      <trkpt lat="2.905124" lon="-75.14851">
        <ele>718.6</ele>
        <time>2021-08-21T11:37:46Z</time>
      </trkpt>
      <trkpt lat="2.905095" lon="-75.14851">
        <ele>718.7</ele>
        <time>2021-08-21T11:37:47Z</time>
      </trkpt>
      <trkpt lat="2.905039" lon="-75.14851">
        <ele>718.8</ele>
        <time>2021-08-21T11:37:49Z</time>
      </trkpt>
      <trkpt lat="2.905053" lon="-75.14851">
        <ele>718.8</ele>
        <time>2021-08-21T11:37:49Z</time>
      </trkpt>
      <trkpt lat="2.90501" lon="-75.14851">
        <ele>718.9</ele>
        <time>2021-08-21T11:37:50Z</time>
      </trkpt>
      <trkpt lat="2.90498" lon="-75.148506">
        <ele>719.0</ele>
        <time>2021-08-21T11:37:51Z</time>
      </trkpt>
      <trkpt lat="2.90495" lon="-75.148506">
        <ele>719.1</ele>
        <time>2021-08-21T11:37:52Z</time>
      </trkpt>
      <trkpt lat="2.904889" lon="-75.1485">
        <ele>719.3</ele>
        <time>2021-08-21T11:37:53Z</time>
      </trkpt>
      <trkpt lat="2.90492" lon="-75.148506">
        <ele>719.2</ele>
        <time>2021-08-21T11:37:53Z</time>
      </trkpt>
      <trkpt lat="2.904823" lon="-75.1485">
        <ele>719.5</ele>
        <time>2021-08-21T11:37:55Z</time>
      </trkpt>
      <trkpt lat="2.90484" lon="-75.1485">
        <ele>719.4</ele>
        <time>2021-08-21T11:37:55Z</time>
      </trkpt>
      <trkpt lat="2.90479" lon="-75.1485">
        <ele>719.6</ele>
        <time>2021-08-21T11:37:56Z</time>
      </trkpt>
      <trkpt lat="2.904758" lon="-75.1485">
        <ele>719.7</ele>
        <time>2021-08-21T11:37:57Z</time>
      </trkpt>
      <trkpt lat="2.904725" lon="-75.1485">
        <ele>719.8</ele>
        <time>2021-08-21T11:37:58Z</time>
      </trkpt>
      <trkpt lat="2.904691" lon="-75.14849">
        <ele>719.9</ele>
        <time>2021-08-21T11:37:59Z</time>
      </trkpt>
      <trkpt lat="2.904658" lon="-75.14849">
        <ele>720.0</ele>
        <time>2021-08-21T11:38:00Z</time>
      </trkpt>
      <trkpt lat="2.904625" lon="-75.14849">
        <ele>720.1</ele>
        <time>2021-08-21T11:38:01Z</time>
      </trkpt>
      <trkpt lat="2.904593" lon="-75.14849">
        <ele>720.2</ele>
        <time>2021-08-21T11:38:02Z</time>
      </trkpt>
      <trkpt lat="2.904561" lon="-75.14849">
        <ele>720.3</ele>
        <time>2021-08-21T11:38:03Z</time>
      </trkpt>
      <trkpt lat="2.904529" lon="-75.14848">
        <ele>720.5</ele>
        <time>2021-08-21T11:38:04Z</time>
      </trkpt>
      <trkpt lat="2.904496" lon="-75.14848">
        <ele>720.6</ele>
        <time>2021-08-21T11:38:05Z</time>
      </trkpt>
      <trkpt lat="2.904464" lon="-75.14848">
        <ele>720.7</ele>
        <time>2021-08-21T11:38:06Z</time>
      </trkpt>
      <trkpt lat="2.904402" lon="-75.14848">
        <ele>721.0</ele>
        <time>2021-08-21T11:38:08Z</time>
      </trkpt>
      <trkpt lat="2.904417" lon="-75.14848">
        <ele>720.9</ele>
        <time>2021-08-21T11:38:08Z</time>
      </trkpt>
      <trkpt lat="2.904373" lon="-75.14848">
        <ele>721.2</ele>
        <time>2021-08-21T11:38:09Z</time>
      </trkpt>
      <trkpt lat="2.904343" lon="-75.148476">
        <ele>721.3</ele>
        <time>2021-08-21T11:38:10Z</time>
      </trkpt>
      <trkpt lat="2.904314" lon="-75.148476">
        <ele>721.4</ele>
        <time>2021-08-21T11:38:11Z</time>
      </trkpt>
      <trkpt lat="2.904284" lon="-75.14847">
        <ele>721.6</ele>
        <time>2021-08-21T11:38:12Z</time>
      </trkpt>
      <trkpt lat="2.904254" lon="-75.14847">
        <ele>721.8</ele>
        <time>2021-08-21T11:38:13Z</time>
      </trkpt>
      <trkpt lat="2.904195" lon="-75.14845">
        <ele>722.2</ele>
        <time>2021-08-21T11:38:15Z</time>
      </trkpt>
      <trkpt lat="2.90421" lon="-75.14846">
        <ele>722.1</ele>
        <time>2021-08-21T11:38:15Z</time>
      </trkpt>
      <trkpt lat="2.904166" lon="-75.14845">
        <ele>722.4</ele>
        <time>2021-08-21T11:38:16Z</time>
      </trkpt>
      <trkpt lat="2.904138" lon="-75.148445">
        <ele>722.6</ele>
        <time>2021-08-21T11:38:17Z</time>
      </trkpt>
      <trkpt lat="2.904112" lon="-75.14844">
        <ele>722.7</ele>
        <time>2021-08-21T11:38:18Z</time>
      </trkpt>
      <trkpt lat="2.904087" lon="-75.14843">
        <ele>722.9</ele>
        <time>2021-08-21T11:38:19Z</time>
      </trkpt>
      <trkpt lat="2.904062" lon="-75.14842">
        <ele>723.1</ele>
        <time>2021-08-21T11:38:20Z</time>
      </trkpt>
      <trkpt lat="2.904038" lon="-75.148415">
        <ele>723.3</ele>
        <time>2021-08-21T11:38:21Z</time>
      </trkpt>
      <trkpt lat="2.904015" lon="-75.14841">
        <ele>723.4</ele>
        <time>2021-08-21T11:38:22Z</time>
      </trkpt>
      <trkpt lat="2.903993" lon="-75.1484">
        <ele>723.6</ele>
        <time>2021-08-21T11:38:23Z</time>
      </trkpt>
      <trkpt lat="2.903971" lon="-75.14839">
        <ele>723.8</ele>
        <time>2021-08-21T11:38:24Z</time>
      </trkpt>
      <trkpt lat="2.903949" lon="-75.148384">
        <ele>723.9</ele>
        <time>2021-08-21T11:38:25Z</time>
      </trkpt>
      <trkpt lat="2.903927" lon="-75.14838">
        <ele>724.1</ele>
        <time>2021-08-21T11:38:26Z</time>
      </trkpt>
      <trkpt lat="2.903905" lon="-75.14837">
        <ele>724.3</ele>
        <time>2021-08-21T11:38:27Z</time>
      </trkpt>
      <trkpt lat="2.903883" lon="-75.14836">
        <ele>724.4</ele>
        <time>2021-08-21T11:38:28Z</time>
      </trkpt>
      <trkpt lat="2.90386" lon="-75.14835">
        <ele>724.6</ele>
        <time>2021-08-21T11:38:29Z</time>
      </trkpt>
      <trkpt lat="2.903837" lon="-75.148346">
        <ele>724.8</ele>
        <time>2021-08-21T11:38:30Z</time>
      </trkpt>
      <trkpt lat="2.903813" lon="-75.148346">
        <ele>724.9</ele>
        <time>2021-08-21T11:38:31Z</time>
      </trkpt>
      <trkpt lat="2.903763" lon="-75.14834">
        <ele>725.2</ele>
        <time>2021-08-21T11:38:33Z</time>
      </trkpt>
      <trkpt lat="2.903776" lon="-75.14834">
        <ele>725.2</ele>
        <time>2021-08-21T11:38:33Z</time>
      </trkpt>
      <trkpt lat="2.903738" lon="-75.14833">
        <ele>725.4</ele>
        <time>2021-08-21T11:38:34Z</time>
      </trkpt>
      <trkpt lat="2.903712" lon="-75.14833">
        <ele>725.5</ele>
        <time>2021-08-21T11:38:35Z</time>
      </trkpt>
      <trkpt lat="2.903687" lon="-75.14832">
        <ele>725.7</ele>
        <time>2021-08-21T11:38:36Z</time>
      </trkpt>
      <trkpt lat="2.90366" lon="-75.148315">
        <ele>725.8</ele>
        <time>2021-08-21T11:38:37Z</time>
      </trkpt>
      <trkpt lat="2.903633" lon="-75.148315">
        <ele>725.9</ele>
        <time>2021-08-21T11:38:38Z</time>
      </trkpt>
      <trkpt lat="2.903578" lon="-75.1483">
        <ele>726.1</ele>
        <time>2021-08-21T11:38:40Z</time>
      </trkpt>
      <trkpt lat="2.903592" lon="-75.14831">
        <ele>726.0</ele>
        <time>2021-08-21T11:38:40Z</time>
      </trkpt>
      <trkpt lat="2.90355" lon="-75.14829">
        <ele>726.1</ele>
        <time>2021-08-21T11:38:41Z</time>
      </trkpt>
      <trkpt lat="2.90352" lon="-75.14829">
        <ele>726.2</ele>
        <time>2021-08-21T11:38:42Z</time>
      </trkpt>
      <trkpt lat="2.90349" lon="-75.148285">
        <ele>726.3</ele>
        <time>2021-08-21T11:38:43Z</time>
      </trkpt>
      <trkpt lat="2.90346" lon="-75.14828">
        <ele>726.4</ele>
        <time>2021-08-21T11:38:44Z</time>
      </trkpt>
      <trkpt lat="2.903429" lon="-75.14827">
        <ele>726.5</ele>
        <time>2021-08-21T11:38:45Z</time>
      </trkpt>
      <trkpt lat="2.903366" lon="-75.148254">
        <ele>726.7</ele>
        <time>2021-08-21T11:38:47Z</time>
      </trkpt>
      <trkpt lat="2.903382" lon="-75.14826">
        <ele>726.6</ele>
        <time>2021-08-21T11:38:47Z</time>
      </trkpt>
      <trkpt lat="2.903335" lon="-75.148254">
        <ele>726.8</ele>
        <time>2021-08-21T11:38:48Z</time>
      </trkpt>
      <trkpt lat="2.903305" lon="-75.14825">
        <ele>726.9</ele>
        <time>2021-08-21T11:38:49Z</time>
      </trkpt>
      <trkpt lat="2.903276" lon="-75.14824">
        <ele>726.9</ele>
        <time>2021-08-21T11:38:50Z</time>
      </trkpt>
      <trkpt lat="2.903247" lon="-75.14823">
        <ele>727.0</ele>
        <time>2021-08-21T11:38:51Z</time>
      </trkpt>
      <trkpt lat="2.903217" lon="-75.148224">
        <ele>727.1</ele>
        <time>2021-08-21T11:38:52Z</time>
      </trkpt>
      <trkpt lat="2.903158" lon="-75.14821">
        <ele>727.3</ele>
        <time>2021-08-21T11:38:54Z</time>
      </trkpt>
      <trkpt lat="2.903173" lon="-75.14822">
        <ele>727.2</ele>
        <time>2021-08-21T11:38:54Z</time>
      </trkpt>
      <trkpt lat="2.903128" lon="-75.1482">
        <ele>727.3</ele>
        <time>2021-08-21T11:38:55Z</time>
      </trkpt>
      <trkpt lat="2.903098" lon="-75.14819">
        <ele>727.4</ele>
        <time>2021-08-21T11:38:56Z</time>
      </trkpt>
      <trkpt lat="2.903069" lon="-75.148186">
        <ele>727.5</ele>
        <time>2021-08-21T11:38:57Z</time>
      </trkpt>
      <trkpt lat="2.903039" lon="-75.14818">
        <ele>727.6</ele>
        <time>2021-08-21T11:38:58Z</time>
      </trkpt>
      <trkpt lat="2.903009" lon="-75.14817">
        <ele>727.7</ele>
        <time>2021-08-21T11:38:59Z</time>
      </trkpt>
      <trkpt lat="2.902979" lon="-75.148155">
        <ele>727.7</ele>
        <time>2021-08-21T11:39:00Z</time>
      </trkpt>
      <trkpt lat="2.90295" lon="-75.14815">
        <ele>727.8</ele>
        <time>2021-08-21T11:39:01Z</time>
      </trkpt>
      <trkpt lat="2.90292" lon="-75.14814">
        <ele>727.9</ele>
        <time>2021-08-21T11:39:02Z</time>
      </trkpt>
      <trkpt lat="2.90289" lon="-75.14813">
        <ele>728.0</ele>
        <time>2021-08-21T11:39:03Z</time>
      </trkpt>
      <trkpt lat="2.90286" lon="-75.14812">
        <ele>728.2</ele>
        <time>2021-08-21T11:39:04Z</time>
      </trkpt>
      <trkpt lat="2.902831" lon="-75.14811">
        <ele>728.3</ele>
        <time>2021-08-21T11:39:05Z</time>
      </trkpt>
      <trkpt lat="2.902802" lon="-75.14811">
        <ele>728.4</ele>
        <time>2021-08-21T11:39:06Z</time>
      </trkpt>
      <trkpt lat="2.902774" lon="-75.1481">
        <ele>728.5</ele>
        <time>2021-08-21T11:39:07Z</time>
      </trkpt>
      <trkpt lat="2.902745" lon="-75.1481">
        <ele>728.6</ele>
        <time>2021-08-21T11:39:08Z</time>
      </trkpt>
      <trkpt lat="2.902716" lon="-75.148094">
        <ele>728.7</ele>
        <time>2021-08-21T11:39:09Z</time>
      </trkpt>
      <trkpt lat="2.902689" lon="-75.148094">
        <ele>728.8</ele>
        <time>2021-08-21T11:39:10Z</time>
      </trkpt>
      <trkpt lat="2.902662" lon="-75.148094">
        <ele>728.9</ele>
        <time>2021-08-21T11:39:11Z</time>
      </trkpt>
      <trkpt lat="2.902639" lon="-75.148094">
        <ele>729.0</ele>
        <time>2021-08-21T11:39:12Z</time>
      </trkpt>
      <trkpt lat="2.902614" lon="-75.148094">
        <ele>729.1</ele>
        <time>2021-08-21T11:39:13Z</time>
      </trkpt>
      <trkpt lat="2.902588" lon="-75.148094">
        <ele>729.3</ele>
        <time>2021-08-21T11:39:14Z</time>
      </trkpt>
      <trkpt lat="2.902562" lon="-75.148094">
        <ele>729.4</ele>
        <time>2021-08-21T11:39:15Z</time>
      </trkpt>
      <trkpt lat="2.902534" lon="-75.1481">
        <ele>729.5</ele>
        <time>2021-08-21T11:39:16Z</time>
      </trkpt>
      <trkpt lat="2.902506" lon="-75.1481">
        <ele>729.6</ele>
        <time>2021-08-21T11:39:17Z</time>
      </trkpt>
      <trkpt lat="2.902451" lon="-75.1481">
        <ele>729.9</ele>
        <time>2021-08-21T11:39:19Z</time>
      </trkpt>
      <trkpt lat="2.902465" lon="-75.1481">
        <ele>729.8</ele>
        <time>2021-08-21T11:39:19Z</time>
      </trkpt>
      <trkpt lat="2.902424" lon="-75.14811">
        <ele>730.0</ele>
        <time>2021-08-21T11:39:20Z</time>
      </trkpt>
      <trkpt lat="2.902398" lon="-75.14811">
        <ele>730.1</ele>
        <time>2021-08-21T11:39:21Z</time>
      </trkpt>
      <trkpt lat="2.902371" lon="-75.14811">
        <ele>730.2</ele>
        <time>2021-08-21T11:39:22Z</time>
      </trkpt>
      <trkpt lat="2.902321" lon="-75.148125">
        <ele>730.5</ele>
        <time>2021-08-21T11:39:24Z</time>
      </trkpt>
      <trkpt lat="2.902334" lon="-75.14812">
        <ele>730.4</ele>
        <time>2021-08-21T11:39:24Z</time>
      </trkpt>
      <trkpt lat="2.902295" lon="-75.148125">
        <ele>730.6</ele>
        <time>2021-08-21T11:39:25Z</time>
      </trkpt>
      <trkpt lat="2.902269" lon="-75.14813">
        <ele>730.7</ele>
        <time>2021-08-21T11:39:26Z</time>
      </trkpt>
      <trkpt lat="2.902243" lon="-75.14813">
        <ele>730.8</ele>
        <time>2021-08-21T11:39:27Z</time>
      </trkpt>
      <trkpt lat="2.902216" lon="-75.14813">
        <ele>730.9</ele>
        <time>2021-08-21T11:39:28Z</time>
      </trkpt>
      <trkpt lat="2.90219" lon="-75.14814">
        <ele>731.0</ele>
        <time>2021-08-21T11:39:29Z</time>
      </trkpt>
      <trkpt lat="2.902137" lon="-75.14815">
        <ele>731.2</ele>
        <time>2021-08-21T11:39:31Z</time>
      </trkpt>
      <trkpt lat="2.90215" lon="-75.14814">
        <ele>731.2</ele>
        <time>2021-08-21T11:39:31Z</time>
      </trkpt>
      <trkpt lat="2.90211" lon="-75.14815">
        <ele>731.3</ele>
        <time>2021-08-21T11:39:32Z</time>
      </trkpt>
      <trkpt lat="2.902083" lon="-75.14815">
        <ele>731.4</ele>
        <time>2021-08-21T11:39:33Z</time>
      </trkpt>
      <trkpt lat="2.902057" lon="-75.14815">
        <ele>731.5</ele>
        <time>2021-08-21T11:39:34Z</time>
      </trkpt>
      <trkpt lat="2.90203" lon="-75.148155">
        <ele>731.6</ele>
        <time>2021-08-21T11:39:35Z</time>
      </trkpt>
      <trkpt lat="2.902003" lon="-75.148155">
        <ele>731.7</ele>
        <time>2021-08-21T11:39:36Z</time>
      </trkpt>
      <trkpt lat="2.901948" lon="-75.14816">
        <ele>732.0</ele>
        <time>2021-08-21T11:39:38Z</time>
      </trkpt>
      <trkpt lat="2.901962" lon="-75.14816">
        <ele>731.9</ele>
        <time>2021-08-21T11:39:38Z</time>
      </trkpt>
      <trkpt lat="2.901921" lon="-75.14816">
        <ele>732.1</ele>
        <time>2021-08-21T11:39:39Z</time>
      </trkpt>
      <trkpt lat="2.901894" lon="-75.14817">
        <ele>732.2</ele>
        <time>2021-08-21T11:39:40Z</time>
      </trkpt>
      <trkpt lat="2.901866" lon="-75.14817">
        <ele>732.2</ele>
        <time>2021-08-21T11:39:41Z</time>
      </trkpt>
      <trkpt lat="2.901839" lon="-75.14818">
        <ele>732.3</ele>
        <time>2021-08-21T11:39:42Z</time>
      </trkpt>
      <trkpt lat="2.901811" lon="-75.14818">
        <ele>732.4</ele>
        <time>2021-08-21T11:39:43Z</time>
      </trkpt>
      <trkpt lat="2.901783" lon="-75.148186">
        <ele>732.4</ele>
        <time>2021-08-21T11:39:44Z</time>
      </trkpt>
      <trkpt lat="2.901756" lon="-75.148186">
        <ele>732.5</ele>
        <time>2021-08-21T11:39:45Z</time>
      </trkpt>
      <trkpt lat="2.901727" lon="-75.14819">
        <ele>732.6</ele>
        <time>2021-08-21T11:39:46Z</time>
      </trkpt>
      <trkpt lat="2.901669" lon="-75.1482">
        <ele>732.6</ele>
        <time>2021-08-21T11:39:48Z</time>
      </trkpt>
      <trkpt lat="2.901684" lon="-75.1482">
        <ele>732.6</ele>
        <time>2021-08-21T11:39:48Z</time>
      </trkpt>
      <trkpt lat="2.901639" lon="-75.14821">
        <ele>732.6</ele>
        <time>2021-08-21T11:39:49Z</time>
      </trkpt>
      <trkpt lat="2.901609" lon="-75.14822">
        <ele>732.6</ele>
        <time>2021-08-21T11:39:50Z</time>
      </trkpt>
      <trkpt lat="2.901578" lon="-75.14823">
        <ele>732.6</ele>
        <time>2021-08-21T11:39:51Z</time>
      </trkpt>
      <trkpt lat="2.901548" lon="-75.14824">
        <ele>732.6</ele>
        <time>2021-08-21T11:39:52Z</time>
      </trkpt>
      <trkpt lat="2.901518" lon="-75.14825">
        <ele>732.6</ele>
        <time>2021-08-21T11:39:53Z</time>
      </trkpt>
      <trkpt lat="2.901488" lon="-75.14826">
        <ele>732.6</ele>
        <time>2021-08-21T11:39:54Z</time>
      </trkpt>
      <trkpt lat="2.901458" lon="-75.14827">
        <ele>732.5</ele>
        <time>2021-08-21T11:39:55Z</time>
      </trkpt>
      <trkpt lat="2.901429" lon="-75.148285">
        <ele>732.5</ele>
        <time>2021-08-21T11:39:56Z</time>
      </trkpt>
      <trkpt lat="2.901399" lon="-75.1483">
        <ele>732.5</ele>
        <time>2021-08-21T11:39:57Z</time>
      </trkpt>
      <trkpt lat="2.901372" lon="-75.148315">
        <ele>732.5</ele>
        <time>2021-08-21T11:39:58Z</time>
      </trkpt>
      <trkpt lat="2.901345" lon="-75.14832">
        <ele>732.5</ele>
        <time>2021-08-21T11:39:59Z</time>
      </trkpt>
      <trkpt lat="2.901316" lon="-75.14834">
        <ele>732.6</ele>
        <time>2021-08-21T11:40:00Z</time>
      </trkpt>
      <trkpt lat="2.901288" lon="-75.14836">
        <ele>732.6</ele>
        <time>2021-08-21T11:40:01Z</time>
      </trkpt>
      <trkpt lat="2.901259" lon="-75.14838">
        <ele>732.6</ele>
        <time>2021-08-21T11:40:02Z</time>
      </trkpt>
      <trkpt lat="2.90123" lon="-75.14839">
        <ele>732.6</ele>
        <time>2021-08-21T11:40:03Z</time>
      </trkpt>
      <trkpt lat="2.901171" lon="-75.148415">
        <ele>732.7</ele>
        <time>2021-08-21T11:40:05Z</time>
      </trkpt>
      <trkpt lat="2.901186" lon="-75.14841">
        <ele>732.7</ele>
        <time>2021-08-21T11:40:05Z</time>
      </trkpt>
      <trkpt lat="2.901143" lon="-75.14843">
        <ele>732.7</ele>
        <time>2021-08-21T11:40:06Z</time>
      </trkpt>
      <trkpt lat="2.901113" lon="-75.14844">
        <ele>732.7</ele>
        <time>2021-08-21T11:40:07Z</time>
      </trkpt>
      <trkpt lat="2.901083" lon="-75.14845">
        <ele>732.7</ele>
        <time>2021-08-21T11:40:08Z</time>
      </trkpt>
      <trkpt lat="2.901053" lon="-75.14846">
        <ele>732.7</ele>
        <time>2021-08-21T11:40:09Z</time>
      </trkpt>
      <trkpt lat="2.901021" lon="-75.14847">
        <ele>732.7</ele>
        <time>2021-08-21T11:40:10Z</time>
      </trkpt>
      <trkpt lat="2.900989" lon="-75.14848">
        <ele>732.7</ele>
        <time>2021-08-21T11:40:11Z</time>
      </trkpt>
      <trkpt lat="2.900958" lon="-75.14849">
        <ele>732.7</ele>
        <time>2021-08-21T11:40:12Z</time>
      </trkpt>
      <trkpt lat="2.900924" lon="-75.148506">
        <ele>732.6</ele>
        <time>2021-08-21T11:40:13Z</time>
      </trkpt>
      <trkpt lat="2.900891" lon="-75.14852">
        <ele>732.6</ele>
        <time>2021-08-21T11:40:14Z</time>
      </trkpt>
      <trkpt lat="2.900856" lon="-75.14853">
        <ele>732.5</ele>
        <time>2021-08-21T11:40:15Z</time>
      </trkpt>
      <trkpt lat="2.900822" lon="-75.148544">
        <ele>732.5</ele>
        <time>2021-08-21T11:40:16Z</time>
      </trkpt>
      <trkpt lat="2.90075" lon="-75.14857">
        <ele>732.3</ele>
        <time>2021-08-21T11:40:18Z</time>
      </trkpt>
      <trkpt lat="2.900787" lon="-75.14855">
        <ele>732.4</ele>
        <time>2021-08-21T11:40:18Z</time>
      </trkpt>
      <trkpt lat="2.900713" lon="-75.148575">
        <ele>732.2</ele>
        <time>2021-08-21T11:40:19Z</time>
      </trkpt>
      <trkpt lat="2.900675" lon="-75.14859">
        <ele>732.1</ele>
        <time>2021-08-21T11:40:20Z</time>
      </trkpt>
      <trkpt lat="2.900637" lon="-75.1486">
        <ele>732.1</ele>
        <time>2021-08-21T11:40:21Z</time>
      </trkpt>
      <trkpt lat="2.900599" lon="-75.14861">
        <ele>732.0</ele>
        <time>2021-08-21T11:40:22Z</time>
      </trkpt>
      <trkpt lat="2.900562" lon="-75.14863">
        <ele>732.0</ele>
        <time>2021-08-21T11:40:23Z</time>
      </trkpt>
      <trkpt lat="2.900525" lon="-75.148636">
        <ele>731.9</ele>
        <time>2021-08-21T11:40:24Z</time>
      </trkpt>
      <trkpt lat="2.900488" lon="-75.14865">
        <ele>731.9</ele>
        <time>2021-08-21T11:40:25Z</time>
      </trkpt>
      <trkpt lat="2.900452" lon="-75.14866">
        <ele>731.8</ele>
        <time>2021-08-21T11:40:26Z</time>
      </trkpt>
      <trkpt lat="2.900417" lon="-75.14867">
        <ele>731.8</ele>
        <time>2021-08-21T11:40:27Z</time>
      </trkpt>
      <trkpt lat="2.900383" lon="-75.148674">
        <ele>731.8</ele>
        <time>2021-08-21T11:40:28Z</time>
      </trkpt>
      <trkpt lat="2.900315" lon="-75.1487">
        <ele>731.8</ele>
        <time>2021-08-21T11:40:30Z</time>
      </trkpt>
      <trkpt lat="2.900332" lon="-75.14869">
        <ele>731.8</ele>
        <time>2021-08-21T11:40:30Z</time>
      </trkpt>
      <trkpt lat="2.900283" lon="-75.148705">
        <ele>731.7</ele>
        <time>2021-08-21T11:40:31Z</time>
      </trkpt>
      <trkpt lat="2.900246" lon="-75.14871">
        <ele>731.7</ele>
        <time>2021-08-21T11:40:32Z</time>
      </trkpt>
      <trkpt lat="2.900212" lon="-75.14872">
        <ele>731.7</ele>
        <time>2021-08-21T11:40:33Z</time>
      </trkpt>
      <trkpt lat="2.900177" lon="-75.14873">
        <ele>731.7</ele>
        <time>2021-08-21T11:40:34Z</time>
      </trkpt>
      <trkpt lat="2.900142" lon="-75.148735">
        <ele>731.7</ele>
        <time>2021-08-21T11:40:35Z</time>
      </trkpt>
      <trkpt lat="2.900069" lon="-75.14875">
        <ele>731.6</ele>
        <time>2021-08-21T11:40:37Z</time>
      </trkpt>
      <trkpt lat="2.900106" lon="-75.14874">
        <ele>731.6</ele>
        <time>2021-08-21T11:40:37Z</time>
      </trkpt>
      <trkpt lat="2.900034" lon="-75.148766">
        <ele>731.5</ele>
        <time>2021-08-21T11:40:38Z</time>
      </trkpt>
      <trkpt lat="2.899998" lon="-75.14877">
        <ele>731.5</ele>
        <time>2021-08-21T11:40:39Z</time>
      </trkpt>
      <trkpt lat="2.899961" lon="-75.14879">
        <ele>731.4</ele>
        <time>2021-08-21T11:40:40Z</time>
      </trkpt>
      <trkpt lat="2.899924" lon="-75.148796">
        <ele>731.4</ele>
        <time>2021-08-21T11:40:41Z</time>
      </trkpt>
      <trkpt lat="2.899888" lon="-75.1488">
        <ele>731.4</ele>
        <time>2021-08-21T11:40:42Z</time>
      </trkpt>
      <trkpt lat="2.899852" lon="-75.14882">
        <ele>731.4</ele>
        <time>2021-08-21T11:40:43Z</time>
      </trkpt>
      <trkpt lat="2.899815" lon="-75.14883">
        <ele>731.4</ele>
        <time>2021-08-21T11:40:44Z</time>
      </trkpt>
      <trkpt lat="2.899778" lon="-75.14884">
        <ele>731.3</ele>
        <time>2021-08-21T11:40:45Z</time>
      </trkpt>
      <trkpt lat="2.899739" lon="-75.14885">
        <ele>731.3</ele>
        <time>2021-08-21T11:40:46Z</time>
      </trkpt>
      <trkpt lat="2.899701" lon="-75.14885">
        <ele>731.3</ele>
        <time>2021-08-21T11:40:47Z</time>
      </trkpt>
      <trkpt lat="2.899664" lon="-75.14886">
        <ele>731.3</ele>
        <time>2021-08-21T11:40:48Z</time>
      </trkpt>
      <trkpt lat="2.899628" lon="-75.14886">
        <ele>731.3</ele>
        <time>2021-08-21T11:40:49Z</time>
      </trkpt>
      <trkpt lat="2.899591" lon="-75.14886">
        <ele>731.3</ele>
        <time>2021-08-21T11:40:50Z</time>
      </trkpt>
      <trkpt lat="2.899557" lon="-75.14886">
        <ele>731.3</ele>
        <time>2021-08-21T11:40:51Z</time>
      </trkpt>
      <trkpt lat="2.89952" lon="-75.14885">
        <ele>731.3</ele>
        <time>2021-08-21T11:40:52Z</time>
      </trkpt>
      <trkpt lat="2.899484" lon="-75.14885">
        <ele>731.4</ele>
        <time>2021-08-21T11:40:53Z</time>
      </trkpt>
      <trkpt lat="2.899448" lon="-75.14885">
        <ele>731.4</ele>
        <time>2021-08-21T11:40:54Z</time>
      </trkpt>
      <trkpt lat="2.899414" lon="-75.14885">
        <ele>731.4</ele>
        <time>2021-08-21T11:40:55Z</time>
      </trkpt>
      <trkpt lat="2.899348" lon="-75.14885">
        <ele>731.5</ele>
        <time>2021-08-21T11:40:57Z</time>
      </trkpt>
      <trkpt lat="2.899365" lon="-75.14885">
        <ele>731.5</ele>
        <time>2021-08-21T11:40:57Z</time>
      </trkpt>
      <trkpt lat="2.899315" lon="-75.14885">
        <ele>731.6</ele>
        <time>2021-08-21T11:40:58Z</time>
      </trkpt>
      <trkpt lat="2.89928" lon="-75.14885">
        <ele>731.6</ele>
        <time>2021-08-21T11:40:59Z</time>
      </trkpt>
      <trkpt lat="2.899246" lon="-75.14885">
        <ele>731.7</ele>
        <time>2021-08-21T11:41:00Z</time>
      </trkpt>
      <trkpt lat="2.899216" lon="-75.14886">
        <ele>731.7</ele>
        <time>2021-08-21T11:41:01Z</time>
      </trkpt>
      <trkpt lat="2.899185" lon="-75.148865">
        <ele>731.8</ele>
        <time>2021-08-21T11:41:02Z</time>
      </trkpt>
      <trkpt lat="2.899128" lon="-75.14889">
        <ele>731.9</ele>
        <time>2021-08-21T11:41:04Z</time>
      </trkpt>
      <trkpt lat="2.899142" lon="-75.14888">
        <ele>731.9</ele>
        <time>2021-08-21T11:41:04Z</time>
      </trkpt>
      <trkpt lat="2.899101" lon="-75.148895">
        <ele>732.0</ele>
        <time>2021-08-21T11:41:05Z</time>
      </trkpt>
      <trkpt lat="2.899077" lon="-75.14891">
        <ele>732.0</ele>
        <time>2021-08-21T11:41:06Z</time>
      </trkpt>
      <trkpt lat="2.899051" lon="-75.148926">
        <ele>732.1</ele>
        <time>2021-08-21T11:41:07Z</time>
      </trkpt>
      <trkpt lat="2.899025" lon="-75.14894">
        <ele>732.1</ele>
        <time>2021-08-21T11:41:08Z</time>
      </trkpt>
      <trkpt lat="2.898973" lon="-75.14897">
        <ele>732.3</ele>
        <time>2021-08-21T11:41:10Z</time>
      </trkpt>
      <trkpt lat="2.898986" lon="-75.148964">
        <ele>732.2</ele>
        <time>2021-08-21T11:41:10Z</time>
      </trkpt>
      <trkpt lat="2.898949" lon="-75.14899">
        <ele>732.3</ele>
        <time>2021-08-21T11:41:11Z</time>
      </trkpt>
      <trkpt lat="2.898927" lon="-75.149">
        <ele>732.4</ele>
        <time>2021-08-21T11:41:12Z</time>
      </trkpt>
      <trkpt lat="2.898903" lon="-75.14902">
        <ele>732.5</ele>
        <time>2021-08-21T11:41:13Z</time>
      </trkpt>
      <trkpt lat="2.898882" lon="-75.14903">
        <ele>732.5</ele>
        <time>2021-08-21T11:41:14Z</time>
      </trkpt>
      <trkpt lat="2.898862" lon="-75.149055">
        <ele>732.6</ele>
        <time>2021-08-21T11:41:15Z</time>
      </trkpt>
      <trkpt lat="2.898822" lon="-75.149086">
        <ele>732.7</ele>
        <time>2021-08-21T11:41:17Z</time>
      </trkpt>
      <trkpt lat="2.898832" lon="-75.14908">
        <ele>732.7</ele>
        <time>2021-08-21T11:41:17Z</time>
      </trkpt>
      <trkpt lat="2.898802" lon="-75.14911">
        <ele>732.8</ele>
        <time>2021-08-21T11:41:18Z</time>
      </trkpt>
      <trkpt lat="2.898783" lon="-75.149124">
        <ele>732.9</ele>
        <time>2021-08-21T11:41:19Z</time>
      </trkpt>
      <trkpt lat="2.898765" lon="-75.14914">
        <ele>733.0</ele>
        <time>2021-08-21T11:41:20Z</time>
      </trkpt>
      <trkpt lat="2.898746" lon="-75.14916">
        <ele>733.0</ele>
        <time>2021-08-21T11:41:21Z</time>
      </trkpt>
      <trkpt lat="2.898727" lon="-75.14918">
        <ele>733.1</ele>
        <time>2021-08-21T11:41:22Z</time>
      </trkpt>
      <trkpt lat="2.898708" lon="-75.1492">
        <ele>733.2</ele>
        <time>2021-08-21T11:41:23Z</time>
      </trkpt>
      <trkpt lat="2.898689" lon="-75.149216">
        <ele>733.3</ele>
        <time>2021-08-21T11:41:24Z</time>
      </trkpt>
      <trkpt lat="2.898668" lon="-75.14923">
        <ele>733.4</ele>
        <time>2021-08-21T11:41:25Z</time>
      </trkpt>
      <trkpt lat="2.898647" lon="-75.149254">
        <ele>733.5</ele>
        <time>2021-08-21T11:41:26Z</time>
      </trkpt>
      <trkpt lat="2.898626" lon="-75.14927">
        <ele>733.5</ele>
        <time>2021-08-21T11:41:27Z</time>
      </trkpt>
      <trkpt lat="2.898605" lon="-75.149284">
        <ele>733.6</ele>
        <time>2021-08-21T11:41:28Z</time>
      </trkpt>
      <trkpt lat="2.898584" lon="-75.14931">
        <ele>733.7</ele>
        <time>2021-08-21T11:41:29Z</time>
      </trkpt>
      <trkpt lat="2.898563" lon="-75.14932">
        <ele>733.8</ele>
        <time>2021-08-21T11:41:30Z</time>
      </trkpt>
      <trkpt lat="2.898542" lon="-75.14934">
        <ele>733.9</ele>
        <time>2021-08-21T11:41:31Z</time>
      </trkpt>
      <trkpt lat="2.89852" lon="-75.14936">
        <ele>734.0</ele>
        <time>2021-08-21T11:41:32Z</time>
      </trkpt>
      <trkpt lat="2.898499" lon="-75.149376">
        <ele>734.1</ele>
        <time>2021-08-21T11:41:33Z</time>
      </trkpt>
      <trkpt lat="2.898477" lon="-75.14939">
        <ele>734.3</ele>
        <time>2021-08-21T11:41:34Z</time>
      </trkpt>
      <trkpt lat="2.898457" lon="-75.14941">
        <ele>734.4</ele>
        <time>2021-08-21T11:41:35Z</time>
      </trkpt>
      <trkpt lat="2.898438" lon="-75.14942">
        <ele>734.5</ele>
        <time>2021-08-21T11:41:36Z</time>
      </trkpt>
      <trkpt lat="2.898419" lon="-75.14944">
        <ele>734.7</ele>
        <time>2021-08-21T11:41:37Z</time>
      </trkpt>
      <trkpt lat="2.898399" lon="-75.14945">
        <ele>734.8</ele>
        <time>2021-08-21T11:41:38Z</time>
      </trkpt>
      <trkpt lat="2.89838" lon="-75.14947">
        <ele>734.9</ele>
        <time>2021-08-21T11:41:39Z</time>
      </trkpt>
      <trkpt lat="2.89836" lon="-75.14948">
        <ele>735.0</ele>
        <time>2021-08-21T11:41:40Z</time>
      </trkpt>
      <trkpt lat="2.898324" lon="-75.149506">
        <ele>735.3</ele>
        <time>2021-08-21T11:41:42Z</time>
      </trkpt>
      <trkpt lat="2.898333" lon="-75.1495">
        <ele>735.2</ele>
        <time>2021-08-21T11:41:42Z</time>
      </trkpt>
      <trkpt lat="2.898306" lon="-75.14952">
        <ele>735.4</ele>
        <time>2021-08-21T11:41:43Z</time>
      </trkpt>
      <trkpt lat="2.898289" lon="-75.149536">
        <ele>735.5</ele>
        <time>2021-08-21T11:41:44Z</time>
      </trkpt>
      <trkpt lat="2.898271" lon="-75.14955">
        <ele>735.7</ele>
        <time>2021-08-21T11:41:45Z</time>
      </trkpt>
      <trkpt lat="2.898253" lon="-75.14957">
        <ele>735.8</ele>
        <time>2021-08-21T11:41:46Z</time>
      </trkpt>
      <trkpt lat="2.898234" lon="-75.14958">
        <ele>735.9</ele>
        <time>2021-08-21T11:41:47Z</time>
      </trkpt>
      <trkpt lat="2.898198" lon="-75.14961">
        <ele>736.2</ele>
        <time>2021-08-21T11:41:49Z</time>
      </trkpt>
      <trkpt lat="2.898207" lon="-75.149605">
        <ele>736.1</ele>
        <time>2021-08-21T11:41:49Z</time>
      </trkpt>
      <trkpt lat="2.898181" lon="-75.149635">
        <ele>736.3</ele>
        <time>2021-08-21T11:41:50Z</time>
      </trkpt>
      <trkpt lat="2.898164" lon="-75.14966">
        <ele>736.5</ele>
        <time>2021-08-21T11:41:51Z</time>
      </trkpt>
      <trkpt lat="2.898147" lon="-75.14967">
        <ele>736.6</ele>
        <time>2021-08-21T11:41:52Z</time>
      </trkpt>
      <trkpt lat="2.898131" lon="-75.1497">
        <ele>736.8</ele>
        <time>2021-08-21T11:41:53Z</time>
      </trkpt>
      <trkpt lat="2.898117" lon="-75.14971">
        <ele>736.9</ele>
        <time>2021-08-21T11:41:54Z</time>
      </trkpt>
      <trkpt lat="2.898092" lon="-75.14975">
        <ele>737.2</ele>
        <time>2021-08-21T11:41:56Z</time>
      </trkpt>
      <trkpt lat="2.898098" lon="-75.14974">
        <ele>737.2</ele>
        <time>2021-08-21T11:41:56Z</time>
      </trkpt>
      <trkpt lat="2.89808" lon="-75.14977">
        <ele>737.4</ele>
        <time>2021-08-21T11:41:57Z</time>
      </trkpt>
      <trkpt lat="2.898067" lon="-75.14979">
        <ele>737.6</ele>
        <time>2021-08-21T11:41:58Z</time>
      </trkpt>
      <trkpt lat="2.898056" lon="-75.14981">
        <ele>737.7</ele>
        <time>2021-08-21T11:41:59Z</time>
      </trkpt>
      <trkpt lat="2.898044" lon="-75.14983">
        <ele>737.9</ele>
        <time>2021-08-21T11:42:00Z</time>
      </trkpt>
      <trkpt lat="2.898031" lon="-75.14985">
        <ele>738.1</ele>
        <time>2021-08-21T11:42:01Z</time>
      </trkpt>
      <trkpt lat="2.898002" lon="-75.14989">
        <ele>738.4</ele>
        <time>2021-08-21T11:42:03Z</time>
      </trkpt>
      <trkpt lat="2.898009" lon="-75.14988">
        <ele>738.3</ele>
        <time>2021-08-21T11:42:03Z</time>
      </trkpt>
      <trkpt lat="2.897987" lon="-75.1499">
        <ele>738.5</ele>
        <time>2021-08-21T11:42:04Z</time>
      </trkpt>
      <trkpt lat="2.897972" lon="-75.14992">
        <ele>738.7</ele>
        <time>2021-08-21T11:42:05Z</time>
      </trkpt>
      <trkpt lat="2.897953" lon="-75.14994">
        <ele>738.8</ele>
        <time>2021-08-21T11:42:06Z</time>
      </trkpt>
      <trkpt lat="2.897935" lon="-75.149956">
        <ele>739.0</ele>
        <time>2021-08-21T11:42:07Z</time>
      </trkpt>
      <trkpt lat="2.897896" lon="-75.149994">
        <ele>739.3</ele>
        <time>2021-08-21T11:42:08Z</time>
      </trkpt>
      <trkpt lat="2.897916" lon="-75.14997">
        <ele>739.2</ele>
        <time>2021-08-21T11:42:08Z</time>
      </trkpt>
      <trkpt lat="2.897875" lon="-75.15001">
        <ele>739.5</ele>
        <time>2021-08-21T11:42:09Z</time>
      </trkpt>
      <trkpt lat="2.897853" lon="-75.15003">
        <ele>739.7</ele>
        <time>2021-08-21T11:42:10Z</time>
      </trkpt>
      <trkpt lat="2.897831" lon="-75.15005">
        <ele>739.8</ele>
        <time>2021-08-21T11:42:11Z</time>
      </trkpt>
      <trkpt lat="2.897808" lon="-75.15007">
        <ele>740.0</ele>
        <time>2021-08-21T11:42:12Z</time>
      </trkpt>
      <trkpt lat="2.897784" lon="-75.15009">
        <ele>740.1</ele>
        <time>2021-08-21T11:42:13Z</time>
      </trkpt>
      <trkpt lat="2.897761" lon="-75.150116">
        <ele>740.2</ele>
        <time>2021-08-21T11:42:14Z</time>
      </trkpt>
      <trkpt lat="2.897737" lon="-75.15014">
        <ele>740.3</ele>
        <time>2021-08-21T11:42:15Z</time>
      </trkpt>
      <trkpt lat="2.897714" lon="-75.15016">
        <ele>740.4</ele>
        <time>2021-08-21T11:42:16Z</time>
      </trkpt>
      <trkpt lat="2.897691" lon="-75.150185">
        <ele>740.5</ele>
        <time>2021-08-21T11:42:17Z</time>
      </trkpt>
      <trkpt lat="2.897669" lon="-75.1502">
        <ele>740.6</ele>
        <time>2021-08-21T11:42:18Z</time>
      </trkpt>
      <trkpt lat="2.897649" lon="-75.15022">
        <ele>740.7</ele>
        <time>2021-08-21T11:42:19Z</time>
      </trkpt>
      <trkpt lat="2.897628" lon="-75.15024">
        <ele>740.8</ele>
        <time>2021-08-21T11:42:20Z</time>
      </trkpt>
      <trkpt lat="2.897606" lon="-75.15025">
        <ele>740.9</ele>
        <time>2021-08-21T11:42:21Z</time>
      </trkpt>
      <trkpt lat="2.897585" lon="-75.150276">
        <ele>741.0</ele>
        <time>2021-08-21T11:42:22Z</time>
      </trkpt>
      <trkpt lat="2.897563" lon="-75.15029">
        <ele>741.0</ele>
        <time>2021-08-21T11:42:23Z</time>
      </trkpt>
      <trkpt lat="2.897541" lon="-75.150314">
        <ele>741.1</ele>
        <time>2021-08-21T11:42:24Z</time>
      </trkpt>
      <trkpt lat="2.897498" lon="-75.15035">
        <ele>741.2</ele>
        <time>2021-08-21T11:42:26Z</time>
      </trkpt>
      <trkpt lat="2.897509" lon="-75.150345">
        <ele>741.2</ele>
        <time>2021-08-21T11:42:26Z</time>
      </trkpt>
      <trkpt lat="2.897477" lon="-75.150375">
        <ele>741.3</ele>
        <time>2021-08-21T11:42:27Z</time>
      </trkpt>
      <trkpt lat="2.897457" lon="-75.1504">
        <ele>741.3</ele>
        <time>2021-08-21T11:42:28Z</time>
      </trkpt>
      <trkpt lat="2.897438" lon="-75.15042">
        <ele>741.4</ele>
        <time>2021-08-21T11:42:29Z</time>
      </trkpt>
      <trkpt lat="2.897419" lon="-75.15045">
        <ele>741.5</ele>
        <time>2021-08-21T11:42:30Z</time>
      </trkpt>
      <trkpt lat="2.897403" lon="-75.150475">
        <ele>741.5</ele>
        <time>2021-08-21T11:42:31Z</time>
      </trkpt>
      <trkpt lat="2.897373" lon="-75.150536">
        <ele>741.6</ele>
        <time>2021-08-21T11:42:33Z</time>
      </trkpt>
      <trkpt lat="2.89738" lon="-75.15052">
        <ele>741.6</ele>
        <time>2021-08-21T11:42:33Z</time>
      </trkpt>
      <trkpt lat="2.897359" lon="-75.150566">
        <ele>741.7</ele>
        <time>2021-08-21T11:42:34Z</time>
      </trkpt>
      <trkpt lat="2.897346" lon="-75.1506">
        <ele>741.7</ele>
        <time>2021-08-21T11:42:35Z</time>
      </trkpt>
      <trkpt lat="2.897334" lon="-75.150635">
        <ele>741.8</ele>
        <time>2021-08-21T11:42:36Z</time>
      </trkpt>
      <trkpt lat="2.897321" lon="-75.150665">
        <ele>741.9</ele>
        <time>2021-08-21T11:42:37Z</time>
      </trkpt>
      <trkpt lat="2.89731" lon="-75.150696">
        <ele>741.9</ele>
        <time>2021-08-21T11:42:38Z</time>
      </trkpt>
      <trkpt lat="2.897286" lon="-75.150764">
        <ele>742.0</ele>
        <time>2021-08-21T11:42:40Z</time>
      </trkpt>
      <trkpt lat="2.897292" lon="-75.15075">
        <ele>742.0</ele>
        <time>2021-08-21T11:42:40Z</time>
      </trkpt>
      <trkpt lat="2.897272" lon="-75.150795">
        <ele>742.1</ele>
        <time>2021-08-21T11:42:41Z</time>
      </trkpt>
      <trkpt lat="2.897259" lon="-75.15083">
        <ele>742.2</ele>
        <time>2021-08-21T11:42:42Z</time>
      </trkpt>
      <trkpt lat="2.897246" lon="-75.15086">
        <ele>742.2</ele>
        <time>2021-08-21T11:42:43Z</time>
      </trkpt>
      <trkpt lat="2.897232" lon="-75.15089">
        <ele>742.3</ele>
        <time>2021-08-21T11:42:44Z</time>
      </trkpt>
      <trkpt lat="2.897218" lon="-75.150925">
        <ele>742.4</ele>
        <time>2021-08-21T11:42:45Z</time>
      </trkpt>
      <trkpt lat="2.897192" lon="-75.150986">
        <ele>742.5</ele>
        <time>2021-08-21T11:42:47Z</time>
      </trkpt>
      <trkpt lat="2.897204" lon="-75.150955">
        <ele>742.4</ele>
        <time>2021-08-21T11:42:47Z</time>
      </trkpt>
      <trkpt lat="2.897182" lon="-75.15102">
        <ele>742.5</ele>
        <time>2021-08-21T11:42:48Z</time>
      </trkpt>
      <trkpt lat="2.897171" lon="-75.151054">
        <ele>742.6</ele>
        <time>2021-08-21T11:42:49Z</time>
      </trkpt>
      <trkpt lat="2.89716" lon="-75.151085">
        <ele>742.7</ele>
        <time>2021-08-21T11:42:50Z</time>
      </trkpt>
      <trkpt lat="2.897148" lon="-75.15112">
        <ele>742.7</ele>
        <time>2021-08-21T11:42:51Z</time>
      </trkpt>
      <trkpt lat="2.897136" lon="-75.15115">
        <ele>742.8</ele>
        <time>2021-08-21T11:42:52Z</time>
      </trkpt>
      <trkpt lat="2.897124" lon="-75.15119">
        <ele>742.9</ele>
        <time>2021-08-21T11:42:53Z</time>
      </trkpt>
      <trkpt lat="2.897112" lon="-75.15122">
        <ele>743.0</ele>
        <time>2021-08-21T11:42:54Z</time>
      </trkpt>
      <trkpt lat="2.897098" lon="-75.15125">
        <ele>743.1</ele>
        <time>2021-08-21T11:42:55Z</time>
      </trkpt>
      <trkpt lat="2.897083" lon="-75.15128">
        <ele>743.2</ele>
        <time>2021-08-21T11:42:56Z</time>
      </trkpt>
      <trkpt lat="2.897065" lon="-75.15131">
        <ele>743.3</ele>
        <time>2021-08-21T11:42:57Z</time>
      </trkpt>
      <trkpt lat="2.897045" lon="-75.15134">
        <ele>743.4</ele>
        <time>2021-08-21T11:42:58Z</time>
      </trkpt>
      <trkpt lat="2.897025" lon="-75.15136">
        <ele>743.5</ele>
        <time>2021-08-21T11:42:59Z</time>
      </trkpt>
      <trkpt lat="2.897004" lon="-75.15138">
        <ele>743.7</ele>
        <time>2021-08-21T11:43:00Z</time>
      </trkpt>
      <trkpt lat="2.896981" lon="-75.151405">
        <ele>743.8</ele>
        <time>2021-08-21T11:43:01Z</time>
      </trkpt>
      <trkpt lat="2.896957" lon="-75.15143">
        <ele>743.9</ele>
        <time>2021-08-21T11:43:02Z</time>
      </trkpt>
      <trkpt lat="2.896932" lon="-75.15144">
        <ele>744.1</ele>
        <time>2021-08-21T11:43:03Z</time>
      </trkpt>
      <trkpt lat="2.896907" lon="-75.15147">
        <ele>744.3</ele>
        <time>2021-08-21T11:43:04Z</time>
      </trkpt>
      <trkpt lat="2.896881" lon="-75.15148">
        <ele>744.5</ele>
        <time>2021-08-21T11:43:05Z</time>
      </trkpt>
      <trkpt lat="2.896854" lon="-75.15149">
        <ele>744.7</ele>
        <time>2021-08-21T11:43:06Z</time>
      </trkpt>
      <trkpt lat="2.896826" lon="-75.1515">
        <ele>744.9</ele>
        <time>2021-08-21T11:43:07Z</time>
      </trkpt>
      <trkpt lat="2.896799" lon="-75.1515">
        <ele>745.1</ele>
        <time>2021-08-21T11:43:08Z</time>
      </trkpt>
      <trkpt lat="2.896773" lon="-75.151505">
        <ele>745.3</ele>
        <time>2021-08-21T11:43:09Z</time>
      </trkpt>
      <trkpt lat="2.896747" lon="-75.151505">
        <ele>745.4</ele>
        <time>2021-08-21T11:43:10Z</time>
      </trkpt>
      <trkpt lat="2.89672" lon="-75.1515">
        <ele>745.7</ele>
        <time>2021-08-21T11:43:11Z</time>
      </trkpt>
      <trkpt lat="2.896692" lon="-75.1515">
        <ele>745.9</ele>
        <time>2021-08-21T11:43:12Z</time>
      </trkpt>
      <trkpt lat="2.896662" lon="-75.15149">
        <ele>746.1</ele>
        <time>2021-08-21T11:43:13Z</time>
      </trkpt>
      <trkpt lat="2.896635" lon="-75.15149">
        <ele>746.3</ele>
        <time>2021-08-21T11:43:14Z</time>
      </trkpt>
      <trkpt lat="2.896608" lon="-75.15149">
        <ele>746.5</ele>
        <time>2021-08-21T11:43:15Z</time>
      </trkpt>
      <trkpt lat="2.896579" lon="-75.15148">
        <ele>746.7</ele>
        <time>2021-08-21T11:43:16Z</time>
      </trkpt>
      <trkpt lat="2.896549" lon="-75.151474">
        <ele>746.9</ele>
        <time>2021-08-21T11:43:17Z</time>
      </trkpt>
      <trkpt lat="2.89652" lon="-75.15147">
        <ele>747.1</ele>
        <time>2021-08-21T11:43:18Z</time>
      </trkpt>
      <trkpt lat="2.896493" lon="-75.15147">
        <ele>747.3</ele>
        <time>2021-08-21T11:43:19Z</time>
      </trkpt>
      <trkpt lat="2.896467" lon="-75.15146">
        <ele>747.4</ele>
        <time>2021-08-21T11:43:20Z</time>
      </trkpt>
      <trkpt lat="2.89644" lon="-75.15145">
        <ele>747.6</ele>
        <time>2021-08-21T11:43:21Z</time>
      </trkpt>
      <trkpt lat="2.896415" lon="-75.15144">
        <ele>747.7</ele>
        <time>2021-08-21T11:43:22Z</time>
      </trkpt>
      <trkpt lat="2.896391" lon="-75.15143">
        <ele>747.8</ele>
        <time>2021-08-21T11:43:23Z</time>
      </trkpt>
      <trkpt lat="2.896342" lon="-75.151405">
        <ele>748.1</ele>
        <time>2021-08-21T11:43:25Z</time>
      </trkpt>
      <trkpt lat="2.896355" lon="-75.151405">
        <ele>748.0</ele>
        <time>2021-08-21T11:43:25Z</time>
      </trkpt>
      <trkpt lat="2.896318" lon="-75.15139">
        <ele>748.2</ele>
        <time>2021-08-21T11:43:26Z</time>
      </trkpt>
      <trkpt lat="2.896295" lon="-75.151375">
        <ele>748.3</ele>
        <time>2021-08-21T11:43:27Z</time>
      </trkpt>
      <trkpt lat="2.896272" lon="-75.15136">
        <ele>748.4</ele>
        <time>2021-08-21T11:43:28Z</time>
      </trkpt>
      <trkpt lat="2.896245" lon="-75.151344">
        <ele>748.5</ele>
        <time>2021-08-21T11:43:29Z</time>
      </trkpt>
      <trkpt lat="2.896215" lon="-75.15133">
        <ele>748.6</ele>
        <time>2021-08-21T11:43:30Z</time>
      </trkpt>
      <trkpt lat="2.896151" lon="-75.1513">
        <ele>748.7</ele>
        <time>2021-08-21T11:43:32Z</time>
      </trkpt>
      <trkpt lat="2.896167" lon="-75.151306">
        <ele>748.7</ele>
        <time>2021-08-21T11:43:32Z</time>
      </trkpt>
      <trkpt lat="2.89612" lon="-75.15128">
        <ele>748.8</ele>
        <time>2021-08-21T11:43:33Z</time>
      </trkpt>
      <trkpt lat="2.896089" lon="-75.15127">
        <ele>748.9</ele>
        <time>2021-08-21T11:43:34Z</time>
      </trkpt>
      <trkpt lat="2.896058" lon="-75.15125">
        <ele>749.1</ele>
        <time>2021-08-21T11:43:35Z</time>
      </trkpt>
      <trkpt lat="2.896027" lon="-75.15124">
        <ele>749.2</ele>
        <time>2021-08-21T11:43:36Z</time>
      </trkpt>
      <trkpt lat="2.895994" lon="-75.15122">
        <ele>749.3</ele>
        <time>2021-08-21T11:43:37Z</time>
      </trkpt>
      <trkpt lat="2.895928" lon="-75.15119">
        <ele>749.6</ele>
        <time>2021-08-21T11:43:39Z</time>
      </trkpt>
      <trkpt lat="2.895961" lon="-75.15121">
        <ele>749.4</ele>
        <time>2021-08-21T11:43:39Z</time>
      </trkpt>
      <trkpt lat="2.895896" lon="-75.15118">
        <ele>749.7</ele>
        <time>2021-08-21T11:43:40Z</time>
      </trkpt>
      <trkpt lat="2.895864" lon="-75.15116">
        <ele>749.8</ele>
        <time>2021-08-21T11:43:41Z</time>
      </trkpt>
      <trkpt lat="2.895834" lon="-75.151146">
        <ele>750.0</ele>
        <time>2021-08-21T11:43:42Z</time>
      </trkpt>
      <trkpt lat="2.895805" lon="-75.15113">
        <ele>750.2</ele>
        <time>2021-08-21T11:43:43Z</time>
      </trkpt>
      <trkpt lat="2.895778" lon="-75.151115">
        <ele>750.3</ele>
        <time>2021-08-21T11:43:44Z</time>
      </trkpt>
      <trkpt lat="2.895752" lon="-75.1511">
        <ele>750.5</ele>
        <time>2021-08-21T11:43:45Z</time>
      </trkpt>
      <trkpt lat="2.895725" lon="-75.15109">
        <ele>750.7</ele>
        <time>2021-08-21T11:43:46Z</time>
      </trkpt>
      <trkpt lat="2.895699" lon="-75.15108">
        <ele>750.9</ele>
        <time>2021-08-21T11:43:47Z</time>
      </trkpt>
      <trkpt lat="2.895674" lon="-75.15106">
        <ele>751.1</ele>
        <time>2021-08-21T11:43:48Z</time>
      </trkpt>
      <trkpt lat="2.895648" lon="-75.151054">
        <ele>751.3</ele>
        <time>2021-08-21T11:43:49Z</time>
      </trkpt>
      <trkpt lat="2.895625" lon="-75.15105">
        <ele>751.5</ele>
        <time>2021-08-21T11:43:50Z</time>
      </trkpt>
      <trkpt lat="2.895605" lon="-75.15104">
        <ele>751.7</ele>
        <time>2021-08-21T11:43:51Z</time>
      </trkpt>
      <trkpt lat="2.895585" lon="-75.15103">
        <ele>751.9</ele>
        <time>2021-08-21T11:43:52Z</time>
      </trkpt>
      <trkpt lat="2.895567" lon="-75.151024">
        <ele>752.0</ele>
        <time>2021-08-21T11:43:53Z</time>
      </trkpt>
      <trkpt lat="2.89555" lon="-75.151024">
        <ele>752.2</ele>
        <time>2021-08-21T11:43:54Z</time>
      </trkpt>
      <trkpt lat="2.895532" lon="-75.151024">
        <ele>752.4</ele>
        <time>2021-08-21T11:43:55Z</time>
      </trkpt>
      <trkpt lat="2.895514" lon="-75.151024">
        <ele>752.5</ele>
        <time>2021-08-21T11:43:56Z</time>
      </trkpt>
      <trkpt lat="2.895496" lon="-75.151024">
        <ele>752.7</ele>
        <time>2021-08-21T11:43:57Z</time>
      </trkpt>
      <trkpt lat="2.895453" lon="-75.151024">
        <ele>753.1</ele>
        <time>2021-08-21T11:43:59Z</time>
      </trkpt>
      <trkpt lat="2.895465" lon="-75.151024">
        <ele>753.0</ele>
        <time>2021-08-21T11:43:59Z</time>
      </trkpt>
      <trkpt lat="2.895428" lon="-75.151024">
        <ele>753.3</ele>
        <time>2021-08-21T11:44:00Z</time>
      </trkpt>
      <trkpt lat="2.895404" lon="-75.15103">
        <ele>753.5</ele>
        <time>2021-08-21T11:44:01Z</time>
      </trkpt>
      <trkpt lat="2.895359" lon="-75.15103">
        <ele>753.9</ele>
        <time>2021-08-21T11:44:03Z</time>
      </trkpt>
      <trkpt lat="2.89537" lon="-75.15103">
        <ele>753.8</ele>
        <time>2021-08-21T11:44:03Z</time>
      </trkpt>
      <trkpt lat="2.895316" lon="-75.15104">
        <ele>754.2</ele>
        <time>2021-08-21T11:44:05Z</time>
      </trkpt>
      <trkpt lat="2.895327" lon="-75.15104">
        <ele>754.1</ele>
        <time>2021-08-21T11:44:05Z</time>
      </trkpt>
      <trkpt lat="2.895294" lon="-75.15104">
        <ele>754.4</ele>
        <time>2021-08-21T11:44:06Z</time>
      </trkpt>
      <trkpt lat="2.89527" lon="-75.15104">
        <ele>754.5</ele>
        <time>2021-08-21T11:44:07Z</time>
      </trkpt>
      <trkpt lat="2.895245" lon="-75.15104">
        <ele>754.7</ele>
        <time>2021-08-21T11:44:08Z</time>
      </trkpt>
      <trkpt lat="2.895219" lon="-75.15105">
        <ele>754.9</ele>
        <time>2021-08-21T11:44:09Z</time>
      </trkpt>
      <trkpt lat="2.895195" lon="-75.15105">
        <ele>755.0</ele>
        <time>2021-08-21T11:44:10Z</time>
      </trkpt>
      <trkpt lat="2.895144" lon="-75.151054">
        <ele>755.4</ele>
        <time>2021-08-21T11:44:12Z</time>
      </trkpt>
      <trkpt lat="2.895157" lon="-75.151054">
        <ele>755.3</ele>
        <time>2021-08-21T11:44:12Z</time>
      </trkpt>
      <trkpt lat="2.89512" lon="-75.15106">
        <ele>755.5</ele>
        <time>2021-08-21T11:44:13Z</time>
      </trkpt>
      <trkpt lat="2.895096" lon="-75.15106">
        <ele>755.6</ele>
        <time>2021-08-21T11:44:14Z</time>
      </trkpt>
      <trkpt lat="2.89507" lon="-75.15107">
        <ele>755.8</ele>
        <time>2021-08-21T11:44:15Z</time>
      </trkpt>
      <trkpt lat="2.895045" lon="-75.15108">
        <ele>756.0</ele>
        <time>2021-08-21T11:44:16Z</time>
      </trkpt>
      <trkpt lat="2.89502" lon="-75.151085">
        <ele>756.1</ele>
        <time>2021-08-21T11:44:17Z</time>
      </trkpt>
      <trkpt lat="2.894972" lon="-75.1511">
        <ele>756.4</ele>
        <time>2021-08-21T11:44:19Z</time>
      </trkpt>
      <trkpt lat="2.894984" lon="-75.1511">
        <ele>756.3</ele>
        <time>2021-08-21T11:44:19Z</time>
      </trkpt>
      <trkpt lat="2.894948" lon="-75.151115">
        <ele>756.6</ele>
        <time>2021-08-21T11:44:20Z</time>
      </trkpt>
      <trkpt lat="2.894925" lon="-75.15113">
        <ele>756.7</ele>
        <time>2021-08-21T11:44:21Z</time>
      </trkpt>
      <trkpt lat="2.894904" lon="-75.15114">
        <ele>756.9</ele>
        <time>2021-08-21T11:44:22Z</time>
      </trkpt>
      <trkpt lat="2.894884" lon="-75.15115">
        <ele>757.1</ele>
        <time>2021-08-21T11:44:23Z</time>
      </trkpt>
      <trkpt lat="2.894865" lon="-75.15117">
        <ele>757.2</ele>
        <time>2021-08-21T11:44:24Z</time>
      </trkpt>
      <trkpt lat="2.894846" lon="-75.151184">
        <ele>757.4</ele>
        <time>2021-08-21T11:44:25Z</time>
      </trkpt>
      <trkpt lat="2.894829" lon="-75.1512">
        <ele>757.5</ele>
        <time>2021-08-21T11:44:26Z</time>
      </trkpt>
      <trkpt lat="2.894813" lon="-75.151215">
        <ele>757.7</ele>
        <time>2021-08-21T11:44:27Z</time>
      </trkpt>
      <trkpt lat="2.894798" lon="-75.15124">
        <ele>757.8</ele>
        <time>2021-08-21T11:44:28Z</time>
      </trkpt>
      <trkpt lat="2.894785" lon="-75.15125">
        <ele>758.0</ele>
        <time>2021-08-21T11:44:29Z</time>
      </trkpt>
      <trkpt lat="2.894771" lon="-75.151276">
        <ele>758.1</ele>
        <time>2021-08-21T11:44:30Z</time>
      </trkpt>
      <trkpt lat="2.894759" lon="-75.15129">
        <ele>758.3</ele>
        <time>2021-08-21T11:44:31Z</time>
      </trkpt>
      <trkpt lat="2.894748" lon="-75.15131">
        <ele>758.4</ele>
        <time>2021-08-21T11:44:32Z</time>
      </trkpt>
      <trkpt lat="2.894738" lon="-75.15134">
        <ele>758.6</ele>
        <time>2021-08-21T11:44:33Z</time>
      </trkpt>
      <trkpt lat="2.89473" lon="-75.15136">
        <ele>758.7</ele>
        <time>2021-08-21T11:44:34Z</time>
      </trkpt>
      <trkpt lat="2.894722" lon="-75.15139">
        <ele>758.8</ele>
        <time>2021-08-21T11:44:35Z</time>
      </trkpt>
      <trkpt lat="2.894711" lon="-75.151436">
        <ele>759.1</ele>
        <time>2021-08-21T11:44:37Z</time>
      </trkpt>
      <trkpt lat="2.894714" lon="-75.15142">
        <ele>759.0</ele>
        <time>2021-08-21T11:44:37Z</time>
      </trkpt>
      <trkpt lat="2.894706" lon="-75.15147">
        <ele>759.2</ele>
        <time>2021-08-21T11:44:38Z</time>
      </trkpt>
      <trkpt lat="2.894699" lon="-75.15149">
        <ele>759.3</ele>
        <time>2021-08-21T11:44:39Z</time>
      </trkpt>
      <trkpt lat="2.894691" lon="-75.15151">
        <ele>759.4</ele>
        <time>2021-08-21T11:44:40Z</time>
      </trkpt>
      <trkpt lat="2.894681" lon="-75.15154">
        <ele>759.5</ele>
        <time>2021-08-21T11:44:41Z</time>
      </trkpt>
      <trkpt lat="2.894669" lon="-75.151566">
        <ele>759.6</ele>
        <time>2021-08-21T11:44:42Z</time>
      </trkpt>
      <trkpt lat="2.894637" lon="-75.15161">
        <ele>759.8</ele>
        <time>2021-08-21T11:44:44Z</time>
      </trkpt>
      <trkpt lat="2.894646" lon="-75.151596">
        <ele>759.7</ele>
        <time>2021-08-21T11:44:44Z</time>
      </trkpt>
      <trkpt lat="2.894617" lon="-75.15163">
        <ele>759.9</ele>
        <time>2021-08-21T11:44:45Z</time>
      </trkpt>
      <trkpt lat="2.894595" lon="-75.15165">
        <ele>760.0</ele>
        <time>2021-08-21T11:44:46Z</time>
      </trkpt>
      <trkpt lat="2.894569" lon="-75.151665">
        <ele>760.1</ele>
        <time>2021-08-21T11:44:47Z</time>
      </trkpt>
      <trkpt lat="2.894544" lon="-75.15168">
        <ele>760.1</ele>
        <time>2021-08-21T11:44:48Z</time>
      </trkpt>
      <trkpt lat="2.894516" lon="-75.151695">
        <ele>760.2</ele>
        <time>2021-08-21T11:44:49Z</time>
      </trkpt>
      <trkpt lat="2.894461" lon="-75.151726">
        <ele>760.4</ele>
        <time>2021-08-21T11:44:51Z</time>
      </trkpt>
      <trkpt lat="2.894475" lon="-75.15172">
        <ele>760.4</ele>
        <time>2021-08-21T11:44:51Z</time>
      </trkpt>
      <trkpt lat="2.894433" lon="-75.15173">
        <ele>760.5</ele>
        <time>2021-08-21T11:44:52Z</time>
      </trkpt>
      <trkpt lat="2.894404" lon="-75.15175">
        <ele>760.6</ele>
        <time>2021-08-21T11:44:53Z</time>
      </trkpt>
      <trkpt lat="2.894375" lon="-75.151764">
        <ele>760.7</ele>
        <time>2021-08-21T11:44:54Z</time>
      </trkpt>
      <trkpt lat="2.894346" lon="-75.15177">
        <ele>760.9</ele>
        <time>2021-08-21T11:44:55Z</time>
      </trkpt>
      <trkpt lat="2.894317" lon="-75.15179">
        <ele>761.0</ele>
        <time>2021-08-21T11:44:56Z</time>
      </trkpt>
      <trkpt lat="2.894261" lon="-75.1518">
        <ele>761.3</ele>
        <time>2021-08-21T11:44:58Z</time>
      </trkpt>
      <trkpt lat="2.894275" lon="-75.1518">
        <ele>761.2</ele>
        <time>2021-08-21T11:44:58Z</time>
      </trkpt>
      <trkpt lat="2.894233" lon="-75.15181">
        <ele>761.4</ele>
        <time>2021-08-21T11:44:59Z</time>
      </trkpt>
      <trkpt lat="2.894205" lon="-75.15182">
        <ele>761.6</ele>
        <time>2021-08-21T11:45:00Z</time>
      </trkpt>
      <trkpt lat="2.894177" lon="-75.15182">
        <ele>761.8</ele>
        <time>2021-08-21T11:45:01Z</time>
      </trkpt>
      <trkpt lat="2.894152" lon="-75.151825">
        <ele>762.0</ele>
        <time>2021-08-21T11:45:02Z</time>
      </trkpt>
      <trkpt lat="2.894129" lon="-75.151825">
        <ele>762.1</ele>
        <time>2021-08-21T11:45:03Z</time>
      </trkpt>
      <trkpt lat="2.894108" lon="-75.151825">
        <ele>762.3</ele>
        <time>2021-08-21T11:45:04Z</time>
      </trkpt>
      <trkpt lat="2.894085" lon="-75.15183">
        <ele>762.6</ele>
        <time>2021-08-21T11:45:05Z</time>
      </trkpt>
      <trkpt lat="2.894063" lon="-75.15183">
        <ele>762.8</ele>
        <time>2021-08-21T11:45:06Z</time>
      </trkpt>
      <trkpt lat="2.894043" lon="-75.151825">
        <ele>763.0</ele>
        <time>2021-08-21T11:45:07Z</time>
      </trkpt>
      <trkpt lat="2.894023" lon="-75.151825">
        <ele>763.2</ele>
        <time>2021-08-21T11:45:08Z</time>
      </trkpt>
      <trkpt lat="2.894003" lon="-75.151825">
        <ele>763.4</ele>
        <time>2021-08-21T11:45:09Z</time>
      </trkpt>
      <trkpt lat="2.893981" lon="-75.151825">
        <ele>763.7</ele>
        <time>2021-08-21T11:45:10Z</time>
      </trkpt>
      <trkpt lat="2.893962" lon="-75.15182">
        <ele>763.9</ele>
        <time>2021-08-21T11:45:11Z</time>
      </trkpt>
      <trkpt lat="2.893942" lon="-75.15182">
        <ele>764.1</ele>
        <time>2021-08-21T11:45:12Z</time>
      </trkpt>
      <trkpt lat="2.893924" lon="-75.15182">
        <ele>764.4</ele>
        <time>2021-08-21T11:45:13Z</time>
      </trkpt>
      <trkpt lat="2.893905" lon="-75.15182">
        <ele>764.6</ele>
        <time>2021-08-21T11:45:14Z</time>
      </trkpt>
      <trkpt lat="2.893887" lon="-75.15182">
        <ele>764.8</ele>
        <time>2021-08-21T11:45:15Z</time>
      </trkpt>
      <trkpt lat="2.893868" lon="-75.15182">
        <ele>765.1</ele>
        <time>2021-08-21T11:45:16Z</time>
      </trkpt>
      <trkpt lat="2.893837" lon="-75.151825">
        <ele>765.5</ele>
        <time>2021-08-21T11:45:17Z</time>
      </trkpt>
      <trkpt lat="2.893822" lon="-75.151825">
        <ele>765.7</ele>
        <time>2021-08-21T11:45:18Z</time>
      </trkpt>
      <trkpt lat="2.893808" lon="-75.151825">
        <ele>765.9</ele>
        <time>2021-08-21T11:45:19Z</time>
      </trkpt>
      <trkpt lat="2.893793" lon="-75.15183">
        <ele>766.0</ele>
        <time>2021-08-21T11:45:20Z</time>
      </trkpt>
      <trkpt lat="2.893779" lon="-75.15183">
        <ele>766.2</ele>
        <time>2021-08-21T11:45:21Z</time>
      </trkpt>
      <trkpt lat="2.893764" lon="-75.15183">
        <ele>766.4</ele>
        <time>2021-08-21T11:45:22Z</time>
      </trkpt>
      <trkpt lat="2.89375" lon="-75.15184">
        <ele>766.6</ele>
        <time>2021-08-21T11:45:23Z</time>
      </trkpt>
      <trkpt lat="2.893735" lon="-75.15184">
        <ele>766.8</ele>
        <time>2021-08-21T11:45:24Z</time>
      </trkpt>
      <trkpt lat="2.893721" lon="-75.15184">
        <ele>767.0</ele>
        <time>2021-08-21T11:45:25Z</time>
      </trkpt>
      <trkpt lat="2.893706" lon="-75.15185">
        <ele>767.2</ele>
        <time>2021-08-21T11:45:26Z</time>
      </trkpt>
      <trkpt lat="2.893677" lon="-75.15185">
        <ele>767.6</ele>
        <time>2021-08-21T11:45:28Z</time>
      </trkpt>
      <trkpt lat="2.893692" lon="-75.15185">
        <ele>767.4</ele>
        <time>2021-08-21T11:45:28Z</time>
      </trkpt>
      <trkpt lat="2.893652" lon="-75.15186">
        <ele>768.0</ele>
        <time>2021-08-21T11:45:29Z</time>
      </trkpt>
      <trkpt lat="2.893641" lon="-75.15187">
        <ele>768.1</ele>
        <time>2021-08-21T11:45:30Z</time>
      </trkpt>
      <trkpt lat="2.89363" lon="-75.15188">
        <ele>768.3</ele>
        <time>2021-08-21T11:45:31Z</time>
      </trkpt>
      <trkpt lat="2.89362" lon="-75.151886">
        <ele>768.4</ele>
        <time>2021-08-21T11:45:32Z</time>
      </trkpt>
      <trkpt lat="2.893609" lon="-75.15189">
        <ele>768.6</ele>
        <time>2021-08-21T11:45:33Z</time>
      </trkpt>
      <trkpt lat="2.893587" lon="-75.1519">
        <ele>768.9</ele>
        <time>2021-08-21T11:45:35Z</time>
      </trkpt>
      <trkpt lat="2.893598" lon="-75.1519">
        <ele>768.7</ele>
        <time>2021-08-21T11:45:35Z</time>
      </trkpt>
      <trkpt lat="2.893565" lon="-75.151924">
        <ele>769.2</ele>
        <time>2021-08-21T11:45:36Z</time>
      </trkpt>
      <trkpt lat="2.893556" lon="-75.15194">
        <ele>769.4</ele>
        <time>2021-08-21T11:45:37Z</time>
      </trkpt>
      <trkpt lat="2.893547" lon="-75.15195">
        <ele>769.5</ele>
        <time>2021-08-21T11:45:38Z</time>
      </trkpt>
      <trkpt lat="2.893538" lon="-75.15196">
        <ele>769.7</ele>
        <time>2021-08-21T11:45:39Z</time>
      </trkpt>
      <trkpt lat="2.89353" lon="-75.15197">
        <ele>769.9</ele>
        <time>2021-08-21T11:45:40Z</time>
      </trkpt>
      <trkpt lat="2.893521" lon="-75.15198">
        <ele>770.0</ele>
        <time>2021-08-21T11:45:41Z</time>
      </trkpt>
      <trkpt lat="2.893512" lon="-75.15199">
        <ele>770.2</ele>
        <time>2021-08-21T11:45:42Z</time>
      </trkpt>
      <trkpt lat="2.893503" lon="-75.152">
        <ele>770.3</ele>
        <time>2021-08-21T11:45:43Z</time>
      </trkpt>
      <trkpt lat="2.893494" lon="-75.152016">
        <ele>770.5</ele>
        <time>2021-08-21T11:45:44Z</time>
      </trkpt>
      <trkpt lat="2.893485" lon="-75.15202">
        <ele>770.6</ele>
        <time>2021-08-21T11:45:45Z</time>
      </trkpt>
      <trkpt lat="2.893476" lon="-75.15204">
        <ele>770.8</ele>
        <time>2021-08-21T11:45:46Z</time>
      </trkpt>
      <trkpt lat="2.893467" lon="-75.15205">
        <ele>770.9</ele>
        <time>2021-08-21T11:45:47Z</time>
      </trkpt>
      <trkpt lat="2.893458" lon="-75.15206">
        <ele>771.0</ele>
        <time>2021-08-21T11:45:48Z</time>
      </trkpt>
      <trkpt lat="2.893449" lon="-75.15207">
        <ele>771.2</ele>
        <time>2021-08-21T11:45:49Z</time>
      </trkpt>
      <trkpt lat="2.893441" lon="-75.152084">
        <ele>771.3</ele>
        <time>2021-08-21T11:45:50Z</time>
      </trkpt>
      <trkpt lat="2.893432" lon="-75.15209">
        <ele>771.5</ele>
        <time>2021-08-21T11:45:51Z</time>
      </trkpt>
      <trkpt lat="2.893423" lon="-75.15211">
        <ele>771.6</ele>
        <time>2021-08-21T11:45:52Z</time>
      </trkpt>
      <trkpt lat="2.893414" lon="-75.152115">
        <ele>771.8</ele>
        <time>2021-08-21T11:45:53Z</time>
      </trkpt>
      <trkpt lat="2.893396" lon="-75.15214">
        <ele>772.0</ele>
        <time>2021-08-21T11:45:55Z</time>
      </trkpt>
      <trkpt lat="2.893405" lon="-75.15212">
        <ele>771.9</ele>
        <time>2021-08-21T11:45:55Z</time>
      </trkpt>
      <trkpt lat="2.893382" lon="-75.15216">
        <ele>772.3</ele>
        <time>2021-08-21T11:45:56Z</time>
      </trkpt>
      <trkpt lat="2.893375" lon="-75.15217">
        <ele>772.5</ele>
        <time>2021-08-21T11:45:57Z</time>
      </trkpt>
      <trkpt lat="2.893369" lon="-75.15218">
        <ele>772.6</ele>
        <time>2021-08-21T11:45:58Z</time>
      </trkpt>
      <trkpt lat="2.893362" lon="-75.15219">
        <ele>772.7</ele>
        <time>2021-08-21T11:45:59Z</time>
      </trkpt>
      <trkpt lat="2.893356" lon="-75.15221">
        <ele>772.9</ele>
        <time>2021-08-21T11:46:00Z</time>
      </trkpt>
      <trkpt lat="2.893343" lon="-75.15223">
        <ele>773.1</ele>
        <time>2021-08-21T11:46:02Z</time>
      </trkpt>
      <trkpt lat="2.893349" lon="-75.152214">
        <ele>773.0</ele>
        <time>2021-08-21T11:46:02Z</time>
      </trkpt>
      <trkpt lat="2.893328" lon="-75.15225">
        <ele>773.5</ele>
        <time>2021-08-21T11:46:03Z</time>
      </trkpt>
      <trkpt lat="2.893321" lon="-75.15227">
        <ele>773.6</ele>
        <time>2021-08-21T11:46:04Z</time>
      </trkpt>
      <trkpt lat="2.893314" lon="-75.152275">
        <ele>773.7</ele>
        <time>2021-08-21T11:46:05Z</time>
      </trkpt>
      <trkpt lat="2.893306" lon="-75.15228">
        <ele>773.9</ele>
        <time>2021-08-21T11:46:06Z</time>
      </trkpt>
      <trkpt lat="2.893292" lon="-75.152306">
        <ele>774.2</ele>
        <time>2021-08-21T11:46:08Z</time>
      </trkpt>
      <trkpt lat="2.893299" lon="-75.1523">
        <ele>774.0</ele>
        <time>2021-08-21T11:46:08Z</time>
      </trkpt>
      <trkpt lat="2.893272" lon="-75.15233">
        <ele>774.5</ele>
        <time>2021-08-21T11:46:09Z</time>
      </trkpt>
      <trkpt lat="2.893264" lon="-75.152336">
        <ele>774.6</ele>
        <time>2021-08-21T11:46:10Z</time>
      </trkpt>
      <trkpt lat="2.893255" lon="-75.15234">
        <ele>774.7</ele>
        <time>2021-08-21T11:46:11Z</time>
      </trkpt>
      <trkpt lat="2.893246" lon="-75.15235">
        <ele>774.9</ele>
        <time>2021-08-21T11:46:12Z</time>
      </trkpt>
      <trkpt lat="2.893237" lon="-75.15236">
        <ele>775.0</ele>
        <time>2021-08-21T11:46:13Z</time>
      </trkpt>
      <trkpt lat="2.89322" lon="-75.15238">
        <ele>775.3</ele>
        <time>2021-08-21T11:46:15Z</time>
      </trkpt>
      <trkpt lat="2.893229" lon="-75.152374">
        <ele>775.2</ele>
        <time>2021-08-21T11:46:15Z</time>
      </trkpt>
      <trkpt lat="2.893201" lon="-75.1524">
        <ele>775.7</ele>
        <time>2021-08-21T11:46:16Z</time>
      </trkpt>
      <trkpt lat="2.893191" lon="-75.152405">
        <ele>775.8</ele>
        <time>2021-08-21T11:46:17Z</time>
      </trkpt>
      <trkpt lat="2.893182" lon="-75.15241">
        <ele>776.0</ele>
        <time>2021-08-21T11:46:18Z</time>
      </trkpt>
      <trkpt lat="2.893173" lon="-75.15242">
        <ele>776.2</ele>
        <time>2021-08-21T11:46:19Z</time>
      </trkpt>
      <trkpt lat="2.893164" lon="-75.15243">
        <ele>776.4</ele>
        <time>2021-08-21T11:46:20Z</time>
      </trkpt>
      <trkpt lat="2.893145" lon="-75.15244">
        <ele>776.7</ele>
        <time>2021-08-21T11:46:22Z</time>
      </trkpt>
      <trkpt lat="2.893154" lon="-75.152435">
        <ele>776.5</ele>
        <time>2021-08-21T11:46:22Z</time>
      </trkpt>
      <trkpt lat="2.893121" lon="-75.152466">
        <ele>777.2</ele>
        <time>2021-08-21T11:46:23Z</time>
      </trkpt>
      <trkpt lat="2.893127" lon="-75.15246">
        <ele>777.1</ele>
        <time>2021-08-21T11:46:23Z</time>
      </trkpt>
      <trkpt lat="2.893104" lon="-75.15248">
        <ele>777.5</ele>
        <time>2021-08-21T11:46:24Z</time>
      </trkpt>
      <trkpt lat="2.893089" lon="-75.15249">
        <ele>777.8</ele>
        <time>2021-08-21T11:46:26Z</time>
      </trkpt>
      <trkpt lat="2.893096" lon="-75.15249">
        <ele>777.7</ele>
        <time>2021-08-21T11:46:26Z</time>
      </trkpt>
      <trkpt lat="2.893064" lon="-75.152504">
        <ele>778.2</ele>
        <time>2021-08-21T11:46:27Z</time>
      </trkpt>
      <trkpt lat="2.89305" lon="-75.152504">
        <ele>778.5</ele>
        <time>2021-08-21T11:46:28Z</time>
      </trkpt>
      <trkpt lat="2.893037" lon="-75.15251">
        <ele>778.7</ele>
        <time>2021-08-21T11:46:29Z</time>
      </trkpt>
      <trkpt lat="2.893024" lon="-75.15251">
        <ele>778.9</ele>
        <time>2021-08-21T11:46:30Z</time>
      </trkpt>
      <trkpt lat="2.893011" lon="-75.15252">
        <ele>779.1</ele>
        <time>2021-08-21T11:46:31Z</time>
      </trkpt>
      <trkpt lat="2.892997" lon="-75.15252">
        <ele>779.3</ele>
        <time>2021-08-21T11:46:32Z</time>
      </trkpt>
      <trkpt lat="2.892984" lon="-75.15253">
        <ele>779.5</ele>
        <time>2021-08-21T11:46:33Z</time>
      </trkpt>
      <trkpt lat="2.892971" lon="-75.15253">
        <ele>779.7</ele>
        <time>2021-08-21T11:46:34Z</time>
      </trkpt>
      <trkpt lat="2.892957" lon="-75.152534">
        <ele>779.9</ele>
        <time>2021-08-21T11:46:35Z</time>
      </trkpt>
      <trkpt lat="2.892944" lon="-75.152534">
        <ele>780.1</ele>
        <time>2021-08-21T11:46:36Z</time>
      </trkpt>
      <trkpt lat="2.892931" lon="-75.15254">
        <ele>780.2</ele>
        <time>2021-08-21T11:46:37Z</time>
      </trkpt>
      <trkpt lat="2.892917" lon="-75.15254">
        <ele>780.4</ele>
        <time>2021-08-21T11:46:38Z</time>
      </trkpt>
      <trkpt lat="2.892904" lon="-75.15255">
        <ele>780.6</ele>
        <time>2021-08-21T11:46:39Z</time>
      </trkpt>
      <trkpt lat="2.892891" lon="-75.15255">
        <ele>780.8</ele>
        <time>2021-08-21T11:46:40Z</time>
      </trkpt>
      <trkpt lat="2.892878" lon="-75.15256">
        <ele>780.9</ele>
        <time>2021-08-21T11:46:41Z</time>
      </trkpt>
      <trkpt lat="2.892864" lon="-75.15256">
        <ele>781.1</ele>
        <time>2021-08-21T11:46:42Z</time>
      </trkpt>
      <trkpt lat="2.892851" lon="-75.152565">
        <ele>781.2</ele>
        <time>2021-08-21T11:46:43Z</time>
      </trkpt>
      <trkpt lat="2.892838" lon="-75.152565">
        <ele>781.4</ele>
        <time>2021-08-21T11:46:44Z</time>
      </trkpt>
      <trkpt lat="2.892824" lon="-75.15257">
        <ele>781.5</ele>
        <time>2021-08-21T11:46:45Z</time>
      </trkpt>
      <trkpt lat="2.892811" lon="-75.15257">
        <ele>781.7</ele>
        <time>2021-08-21T11:46:46Z</time>
      </trkpt>
      <trkpt lat="2.892798" lon="-75.15258">
        <ele>781.8</ele>
        <time>2021-08-21T11:46:47Z</time>
      </trkpt>
      <trkpt lat="2.892784" lon="-75.15258">
        <ele>782.0</ele>
        <time>2021-08-21T11:46:48Z</time>
      </trkpt>
      <trkpt lat="2.892771" lon="-75.15259">
        <ele>782.1</ele>
        <time>2021-08-21T11:46:49Z</time>
      </trkpt>
      <trkpt lat="2.892758" lon="-75.15259">
        <ele>782.3</ele>
        <time>2021-08-21T11:46:50Z</time>
      </trkpt>
      <trkpt lat="2.892745" lon="-75.152596">
        <ele>782.4</ele>
        <time>2021-08-21T11:46:51Z</time>
      </trkpt>
      <trkpt lat="2.892718" lon="-75.1526">
        <ele>782.7</ele>
        <time>2021-08-21T11:46:53Z</time>
      </trkpt>
      <trkpt lat="2.892731" lon="-75.152596">
        <ele>782.5</ele>
        <time>2021-08-21T11:46:53Z</time>
      </trkpt>
      <trkpt lat="2.892688" lon="-75.1526">
        <ele>782.9</ele>
        <time>2021-08-21T11:46:54Z</time>
      </trkpt>
      <trkpt lat="2.892673" lon="-75.1526">
        <ele>783.1</ele>
        <time>2021-08-21T11:46:55Z</time>
      </trkpt>
      <trkpt lat="2.892659" lon="-75.152596">
        <ele>783.2</ele>
        <time>2021-08-21T11:46:56Z</time>
      </trkpt>
      <trkpt lat="2.892644" lon="-75.152596">
        <ele>783.4</ele>
        <time>2021-08-21T11:46:57Z</time>
      </trkpt>
      <trkpt lat="2.89263" lon="-75.152596">
        <ele>783.5</ele>
        <time>2021-08-21T11:46:58Z</time>
      </trkpt>
      <trkpt lat="2.892601" lon="-75.152596">
        <ele>783.8</ele>
        <time>2021-08-21T11:47:00Z</time>
      </trkpt>
      <trkpt lat="2.892615" lon="-75.152596">
        <ele>783.7</ele>
        <time>2021-08-21T11:47:00Z</time>
      </trkpt>
      <trkpt lat="2.892583" lon="-75.152596">
        <ele>784.0</ele>
        <time>2021-08-21T11:47:01Z</time>
      </trkpt>
      <trkpt lat="2.892565" lon="-75.15259">
        <ele>784.1</ele>
        <time>2021-08-21T11:47:02Z</time>
      </trkpt>
      <trkpt lat="2.892546" lon="-75.15259">
        <ele>784.3</ele>
        <time>2021-08-21T11:47:03Z</time>
      </trkpt>
      <trkpt lat="2.892527" lon="-75.15258">
        <ele>784.5</ele>
        <time>2021-08-21T11:47:04Z</time>
      </trkpt>
      <trkpt lat="2.892489" lon="-75.15258">
        <ele>784.9</ele>
        <time>2021-08-21T11:47:06Z</time>
      </trkpt>
      <trkpt lat="2.892499" lon="-75.15258">
        <ele>784.8</ele>
        <time>2021-08-21T11:47:06Z</time>
      </trkpt>
      <trkpt lat="2.892453" lon="-75.15257">
        <ele>785.3</ele>
        <time>2021-08-21T11:47:08Z</time>
      </trkpt>
      <trkpt lat="2.892462" lon="-75.15257">
        <ele>785.2</ele>
        <time>2021-08-21T11:47:08Z</time>
      </trkpt>
      <trkpt lat="2.892426" lon="-75.15256">
        <ele>785.6</ele>
        <time>2021-08-21T11:47:09Z</time>
      </trkpt>
      <trkpt lat="2.892414" lon="-75.15256">
        <ele>785.7</ele>
        <time>2021-08-21T11:47:10Z</time>
      </trkpt>
      <trkpt lat="2.892401" lon="-75.15255">
        <ele>785.9</ele>
        <time>2021-08-21T11:47:11Z</time>
      </trkpt>
      <trkpt lat="2.892377" lon="-75.15254">
        <ele>786.2</ele>
        <time>2021-08-21T11:47:13Z</time>
      </trkpt>
      <trkpt lat="2.892389" lon="-75.15255">
        <ele>786.0</ele>
        <time>2021-08-21T11:47:13Z</time>
      </trkpt>
      <trkpt lat="2.89235" lon="-75.152534">
        <ele>786.5</ele>
        <time>2021-08-21T11:47:14Z</time>
      </trkpt>
      <trkpt lat="2.892338" lon="-75.15253">
        <ele>786.6</ele>
        <time>2021-08-21T11:47:15Z</time>
      </trkpt>
      <trkpt lat="2.892326" lon="-75.15252">
        <ele>786.8</ele>
        <time>2021-08-21T11:47:16Z</time>
      </trkpt>
      <trkpt lat="2.892313" lon="-75.15251">
        <ele>786.9</ele>
        <time>2021-08-21T11:47:17Z</time>
      </trkpt>
      <trkpt lat="2.892301" lon="-75.15251">
        <ele>787.1</ele>
        <time>2021-08-21T11:47:18Z</time>
      </trkpt>
      <trkpt lat="2.892277" lon="-75.1525">
        <ele>787.3</ele>
        <time>2021-08-21T11:47:20Z</time>
      </trkpt>
      <trkpt lat="2.892289" lon="-75.152504">
        <ele>787.2</ele>
        <time>2021-08-21T11:47:20Z</time>
      </trkpt>
      <trkpt lat="2.892254" lon="-75.15248">
        <ele>787.6</ele>
        <time>2021-08-21T11:47:21Z</time>
      </trkpt>
      <trkpt lat="2.892243" lon="-75.15247">
        <ele>787.8</ele>
        <time>2021-08-21T11:47:22Z</time>
      </trkpt>
      <trkpt lat="2.892233" lon="-75.152466">
        <ele>787.9</ele>
        <time>2021-08-21T11:47:23Z</time>
      </trkpt>
      <trkpt lat="2.892212" lon="-75.15245">
        <ele>788.2</ele>
        <time>2021-08-21T11:47:25Z</time>
      </trkpt>
      <trkpt lat="2.892222" lon="-75.15246">
        <ele>788.1</ele>
        <time>2021-08-21T11:47:25Z</time>
      </trkpt>
      <trkpt lat="2.892189" lon="-75.152435">
        <ele>788.5</ele>
        <time>2021-08-21T11:47:26Z</time>
      </trkpt>
      <trkpt lat="2.892179" lon="-75.15242">
        <ele>788.7</ele>
        <time>2021-08-21T11:47:27Z</time>
      </trkpt>
      <trkpt lat="2.89217" lon="-75.15241">
        <ele>788.9</ele>
        <time>2021-08-21T11:47:28Z</time>
      </trkpt>
      <trkpt lat="2.89216" lon="-75.1524">
        <ele>789.0</ele>
        <time>2021-08-21T11:47:29Z</time>
      </trkpt>
      <trkpt lat="2.89215" lon="-75.15239">
        <ele>789.2</ele>
        <time>2021-08-21T11:47:30Z</time>
      </trkpt>
      <trkpt lat="2.89214" lon="-75.152374">
        <ele>789.4</ele>
        <time>2021-08-21T11:47:31Z</time>
      </trkpt>
      <trkpt lat="2.892131" lon="-75.15237">
        <ele>789.5</ele>
        <time>2021-08-21T11:47:32Z</time>
      </trkpt>
      <trkpt lat="2.892121" lon="-75.15235">
        <ele>789.7</ele>
        <time>2021-08-21T11:47:33Z</time>
      </trkpt>
      <trkpt lat="2.892111" lon="-75.15234">
        <ele>789.9</ele>
        <time>2021-08-21T11:47:34Z</time>
      </trkpt>
      <trkpt lat="2.892101" lon="-75.15233">
        <ele>790.0</ele>
        <time>2021-08-21T11:47:35Z</time>
      </trkpt>
      <trkpt lat="2.892091" lon="-75.15232">
        <ele>790.2</ele>
        <time>2021-08-21T11:47:36Z</time>
      </trkpt>
      <trkpt lat="2.892082" lon="-75.15231">
        <ele>790.4</ele>
        <time>2021-08-21T11:47:37Z</time>
      </trkpt>
      <trkpt lat="2.892072" lon="-75.1523">
        <ele>790.5</ele>
        <time>2021-08-21T11:47:38Z</time>
      </trkpt>
      <trkpt lat="2.892062" lon="-75.15229">
        <ele>790.7</ele>
        <time>2021-08-21T11:47:39Z</time>
      </trkpt>
      <trkpt lat="2.892052" lon="-75.152275">
        <ele>790.9</ele>
        <time>2021-08-21T11:47:40Z</time>
      </trkpt>
      <trkpt lat="2.892043" lon="-75.15227">
        <ele>791.0</ele>
        <time>2021-08-21T11:47:41Z</time>
      </trkpt>
      <trkpt lat="2.892023" lon="-75.152245">
        <ele>791.4</ele>
        <time>2021-08-21T11:47:43Z</time>
      </trkpt>
      <trkpt lat="2.892033" lon="-75.15225">
        <ele>791.2</ele>
        <time>2021-08-21T11:47:43Z</time>
      </trkpt>
      <trkpt lat="2.892018" lon="-75.15223">
        <ele>791.5</ele>
        <time>2021-08-21T11:47:44Z</time>
      </trkpt>
      <trkpt lat="2.892012" lon="-75.152214">
        <ele>791.7</ele>
        <time>2021-08-21T11:47:45Z</time>
      </trkpt>
      <trkpt lat="2.892006" lon="-75.1522">
        <ele>791.9</ele>
        <time>2021-08-21T11:47:46Z</time>
      </trkpt>
      <trkpt lat="2.892002" lon="-75.15217">
        <ele>792.2</ele>
        <time>2021-08-21T11:47:47Z</time>
      </trkpt>
      <trkpt lat="2.891999" lon="-75.152145">
        <ele>792.4</ele>
        <time>2021-08-21T11:47:49Z</time>
      </trkpt>
      <trkpt lat="2.892" lon="-75.15216">
        <ele>792.3</ele>
        <time>2021-08-21T11:47:49Z</time>
      </trkpt>
      <trkpt lat="2.892" lon="-75.15213">
        <ele>792.6</ele>
        <time>2021-08-21T11:47:50Z</time>
      </trkpt>
      <trkpt lat="2.892" lon="-75.152115">
        <ele>792.7</ele>
        <time>2021-08-21T11:47:51Z</time>
      </trkpt>
      <trkpt lat="2.892" lon="-75.1521">
        <ele>792.8</ele>
        <time>2021-08-21T11:47:52Z</time>
      </trkpt>
      <trkpt lat="2.892001" lon="-75.15208">
        <ele>793.0</ele>
        <time>2021-08-21T11:47:53Z</time>
      </trkpt>
      <trkpt lat="2.892003" lon="-75.15206">
        <ele>793.1</ele>
        <time>2021-08-21T11:47:54Z</time>
      </trkpt>
      <trkpt lat="2.892005" lon="-75.15205">
        <ele>793.3</ele>
        <time>2021-08-21T11:47:55Z</time>
      </trkpt>
      <trkpt lat="2.892006" lon="-75.15203">
        <ele>793.4</ele>
        <time>2021-08-21T11:47:56Z</time>
      </trkpt>
      <trkpt lat="2.892007" lon="-75.15201">
        <ele>793.5</ele>
        <time>2021-08-21T11:47:57Z</time>
      </trkpt>
      <trkpt lat="2.892009" lon="-75.15198">
        <ele>793.7</ele>
        <time>2021-08-21T11:47:59Z</time>
      </trkpt>
      <trkpt lat="2.892009" lon="-75.15197">
        <ele>793.8</ele>
        <time>2021-08-21T11:47:59Z</time>
      </trkpt>
      <trkpt lat="2.89201" lon="-75.15195">
        <ele>794.0</ele>
        <time>2021-08-21T11:48:00Z</time>
      </trkpt>
      <trkpt lat="2.89201" lon="-75.151924">
        <ele>794.1</ele>
        <time>2021-08-21T11:48:01Z</time>
      </trkpt>
      <trkpt lat="2.892009" lon="-75.1519">
        <ele>794.3</ele>
        <time>2021-08-21T11:48:02Z</time>
      </trkpt>
      <trkpt lat="2.892007" lon="-75.15188">
        <ele>794.4</ele>
        <time>2021-08-21T11:48:03Z</time>
      </trkpt>
      <trkpt lat="2.892004" lon="-75.15186">
        <ele>794.5</ele>
        <time>2021-08-21T11:48:04Z</time>
      </trkpt>
      <trkpt lat="2.892" lon="-75.15184">
        <ele>794.6</ele>
        <time>2021-08-21T11:48:05Z</time>
      </trkpt>
      <trkpt lat="2.891995" lon="-75.15182">
        <ele>794.7</ele>
        <time>2021-08-21T11:48:06Z</time>
      </trkpt>
      <trkpt lat="2.89199" lon="-75.1518">
        <ele>794.8</ele>
        <time>2021-08-21T11:48:07Z</time>
      </trkpt>
      <trkpt lat="2.891984" lon="-75.15178">
        <ele>794.9</ele>
        <time>2021-08-21T11:48:08Z</time>
      </trkpt>
      <trkpt lat="2.891978" lon="-75.15176">
        <ele>795.0</ele>
        <time>2021-08-21T11:48:09Z</time>
      </trkpt>
      <trkpt lat="2.89197" lon="-75.15174">
        <ele>795.1</ele>
        <time>2021-08-21T11:48:10Z</time>
      </trkpt>
      <trkpt lat="2.891954" lon="-75.1517">
        <ele>795.3</ele>
        <time>2021-08-21T11:48:12Z</time>
      </trkpt>
      <trkpt lat="2.891958" lon="-75.15171">
        <ele>795.2</ele>
        <time>2021-08-21T11:48:12Z</time>
      </trkpt>
      <trkpt lat="2.891944" lon="-75.15168">
        <ele>795.4</ele>
        <time>2021-08-21T11:48:13Z</time>
      </trkpt>
      <trkpt lat="2.891934" lon="-75.151665">
        <ele>795.4</ele>
        <time>2021-08-21T11:48:14Z</time>
      </trkpt>
      <trkpt lat="2.891923" lon="-75.15164">
        <ele>795.5</ele>
        <time>2021-08-21T11:48:15Z</time>
      </trkpt>
      <trkpt lat="2.891912" lon="-75.15162">
        <ele>795.6</ele>
        <time>2021-08-21T11:48:16Z</time>
      </trkpt>
      <trkpt lat="2.891899" lon="-75.1516">
        <ele>795.6</ele>
        <time>2021-08-21T11:48:17Z</time>
      </trkpt>
      <trkpt lat="2.891873" lon="-75.15156">
        <ele>795.8</ele>
        <time>2021-08-21T11:48:19Z</time>
      </trkpt>
      <trkpt lat="2.89188" lon="-75.151566">
        <ele>795.7</ele>
        <time>2021-08-21T11:48:19Z</time>
      </trkpt>
      <trkpt lat="2.891859" lon="-75.151535">
        <ele>795.9</ele>
        <time>2021-08-21T11:48:20Z</time>
      </trkpt>
      <trkpt lat="2.891844" lon="-75.15152">
        <ele>795.9</ele>
        <time>2021-08-21T11:48:21Z</time>
      </trkpt>
      <trkpt lat="2.89183" lon="-75.1515">
        <ele>796.0</ele>
        <time>2021-08-21T11:48:22Z</time>
      </trkpt>
      <trkpt lat="2.891817" lon="-75.151474">
        <ele>796.1</ele>
        <time>2021-08-21T11:48:23Z</time>
      </trkpt>
      <trkpt lat="2.891804" lon="-75.15146">
        <ele>796.2</ele>
        <time>2021-08-21T11:48:24Z</time>
      </trkpt>
      <trkpt lat="2.891792" lon="-75.151436">
        <ele>796.2</ele>
        <time>2021-08-21T11:48:25Z</time>
      </trkpt>
      <trkpt lat="2.891781" lon="-75.15142">
        <ele>796.3</ele>
        <time>2021-08-21T11:48:26Z</time>
      </trkpt>
      <trkpt lat="2.891768" lon="-75.1514">
        <ele>796.4</ele>
        <time>2021-08-21T11:48:27Z</time>
      </trkpt>
      <trkpt lat="2.891756" lon="-75.15138">
        <ele>796.5</ele>
        <time>2021-08-21T11:48:28Z</time>
      </trkpt>
      <trkpt lat="2.891743" lon="-75.15136">
        <ele>796.6</ele>
        <time>2021-08-21T11:48:29Z</time>
      </trkpt>
      <trkpt lat="2.891731" lon="-75.15134">
        <ele>796.7</ele>
        <time>2021-08-21T11:48:30Z</time>
      </trkpt>
      <trkpt lat="2.891718" lon="-75.15132">
        <ele>796.8</ele>
        <time>2021-08-21T11:48:31Z</time>
      </trkpt>
      <trkpt lat="2.891706" lon="-75.1513">
        <ele>796.9</ele>
        <time>2021-08-21T11:48:32Z</time>
      </trkpt>
      <trkpt lat="2.891684" lon="-75.15126">
        <ele>797.1</ele>
        <time>2021-08-21T11:48:34Z</time>
      </trkpt>
      <trkpt lat="2.89169" lon="-75.151276">
        <ele>797.0</ele>
        <time>2021-08-21T11:48:34Z</time>
      </trkpt>
      <trkpt lat="2.891674" lon="-75.151245">
        <ele>797.2</ele>
        <time>2021-08-21T11:48:35Z</time>
      </trkpt>
      <trkpt lat="2.891664" lon="-75.15123">
        <ele>797.3</ele>
        <time>2021-08-21T11:48:36Z</time>
      </trkpt>
      <trkpt lat="2.891655" lon="-75.15121">
        <ele>797.4</ele>
        <time>2021-08-21T11:48:37Z</time>
      </trkpt>
      <trkpt lat="2.891647" lon="-75.15119">
        <ele>797.5</ele>
        <time>2021-08-21T11:48:38Z</time>
      </trkpt>
      <trkpt lat="2.891638" lon="-75.15117">
        <ele>797.6</ele>
        <time>2021-08-21T11:48:39Z</time>
      </trkpt>
      <trkpt lat="2.89163" lon="-75.15115">
        <ele>797.8</ele>
        <time>2021-08-21T11:48:40Z</time>
      </trkpt>
      <trkpt lat="2.89162" lon="-75.15113">
        <ele>797.9</ele>
        <time>2021-08-21T11:48:41Z</time>
      </trkpt>
      <trkpt lat="2.89161" lon="-75.15111">
        <ele>798.0</ele>
        <time>2021-08-21T11:48:42Z</time>
      </trkpt>
      <trkpt lat="2.891599" lon="-75.15109">
        <ele>798.1</ele>
        <time>2021-08-21T11:48:43Z</time>
      </trkpt>
      <trkpt lat="2.891588" lon="-75.15107">
        <ele>798.2</ele>
        <time>2021-08-21T11:48:44Z</time>
      </trkpt>
      <trkpt lat="2.891576" lon="-75.151054">
        <ele>798.3</ele>
        <time>2021-08-21T11:48:45Z</time>
      </trkpt>
      <trkpt lat="2.891563" lon="-75.15103">
        <ele>798.4</ele>
        <time>2021-08-21T11:48:46Z</time>
      </trkpt>
      <trkpt lat="2.89155" lon="-75.15101">
        <ele>798.5</ele>
        <time>2021-08-21T11:48:47Z</time>
      </trkpt>
      <trkpt lat="2.891536" lon="-75.15099">
        <ele>798.6</ele>
        <time>2021-08-21T11:48:48Z</time>
      </trkpt>
      <trkpt lat="2.891523" lon="-75.15097">
        <ele>798.6</ele>
        <time>2021-08-21T11:48:49Z</time>
      </trkpt>
      <trkpt lat="2.891495" lon="-75.150925">
        <ele>798.8</ele>
        <time>2021-08-21T11:48:51Z</time>
      </trkpt>
      <trkpt lat="2.891502" lon="-75.15094">
        <ele>798.8</ele>
        <time>2021-08-21T11:48:51Z</time>
      </trkpt>
      <trkpt lat="2.89148" lon="-75.1509">
        <ele>798.8</ele>
        <time>2021-08-21T11:48:52Z</time>
      </trkpt>
      <trkpt lat="2.891465" lon="-75.15088">
        <ele>798.9</ele>
        <time>2021-08-21T11:48:53Z</time>
      </trkpt>
      <trkpt lat="2.891448" lon="-75.150856">
        <ele>798.9</ele>
        <time>2021-08-21T11:48:54Z</time>
      </trkpt>
      <trkpt lat="2.89143" lon="-75.15083">
        <ele>799.0</ele>
        <time>2021-08-21T11:48:55Z</time>
      </trkpt>
      <trkpt lat="2.891411" lon="-75.15081">
        <ele>799.0</ele>
        <time>2021-08-21T11:48:56Z</time>
      </trkpt>
      <trkpt lat="2.891366" lon="-75.15077">
        <ele>799.0</ele>
        <time>2021-08-21T11:48:58Z</time>
      </trkpt>
      <trkpt lat="2.891378" lon="-75.15078">
        <ele>799.0</ele>
        <time>2021-08-21T11:48:58Z</time>
      </trkpt>
      <trkpt lat="2.891341" lon="-75.15075">
        <ele>799.0</ele>
        <time>2021-08-21T11:48:59Z</time>
      </trkpt>
      <trkpt lat="2.891314" lon="-75.150734">
        <ele>799.0</ele>
        <time>2021-08-21T11:49:00Z</time>
      </trkpt>
      <trkpt lat="2.891288" lon="-75.15072">
        <ele>799.0</ele>
        <time>2021-08-21T11:49:01Z</time>
      </trkpt>
      <trkpt lat="2.89126" lon="-75.1507">
        <ele>798.9</ele>
        <time>2021-08-21T11:49:02Z</time>
      </trkpt>
      <trkpt lat="2.891204" lon="-75.15069">
        <ele>798.9</ele>
        <time>2021-08-21T11:49:04Z</time>
      </trkpt>
      <trkpt lat="2.891218" lon="-75.15069">
        <ele>798.9</ele>
        <time>2021-08-21T11:49:04Z</time>
      </trkpt>
      <trkpt lat="2.891176" lon="-75.15068">
        <ele>798.8</ele>
        <time>2021-08-21T11:49:05Z</time>
      </trkpt>
      <trkpt lat="2.891147" lon="-75.15067">
        <ele>798.8</ele>
        <time>2021-08-21T11:49:06Z</time>
      </trkpt>
      <trkpt lat="2.891117" lon="-75.15067">
        <ele>798.8</ele>
        <time>2021-08-21T11:49:07Z</time>
      </trkpt>
      <trkpt lat="2.891087" lon="-75.15067">
        <ele>798.7</ele>
        <time>2021-08-21T11:49:08Z</time>
      </trkpt>
      <trkpt lat="2.891057" lon="-75.15068">
        <ele>798.7</ele>
        <time>2021-08-21T11:49:09Z</time>
      </trkpt>
      <trkpt lat="2.890998" lon="-75.150696">
        <ele>798.6</ele>
        <time>2021-08-21T11:49:11Z</time>
      </trkpt>
      <trkpt lat="2.891013" lon="-75.150696">
        <ele>798.7</ele>
        <time>2021-08-21T11:49:11Z</time>
      </trkpt>
      <trkpt lat="2.890969" lon="-75.15071">
        <ele>798.6</ele>
        <time>2021-08-21T11:49:12Z</time>
      </trkpt>
      <trkpt lat="2.890941" lon="-75.15072">
        <ele>798.5</ele>
        <time>2021-08-21T11:49:13Z</time>
      </trkpt>
      <trkpt lat="2.890913" lon="-75.150734">
        <ele>798.4</ele>
        <time>2021-08-21T11:49:14Z</time>
      </trkpt>
      <trkpt lat="2.890885" lon="-75.15075">
        <ele>798.3</ele>
        <time>2021-08-21T11:49:15Z</time>
      </trkpt>
      <trkpt lat="2.89086" lon="-75.150764">
        <ele>798.2</ele>
        <time>2021-08-21T11:49:16Z</time>
      </trkpt>
      <trkpt lat="2.890811" lon="-75.15081">
        <ele>798.0</ele>
        <time>2021-08-21T11:49:18Z</time>
      </trkpt>
      <trkpt lat="2.890824" lon="-75.150795">
        <ele>798.0</ele>
        <time>2021-08-21T11:49:18Z</time>
      </trkpt>
      <trkpt lat="2.890785" lon="-75.15083">
        <ele>797.8</ele>
        <time>2021-08-21T11:49:19Z</time>
      </trkpt>
      <trkpt lat="2.890759" lon="-75.15086">
        <ele>797.5</ele>
        <time>2021-08-21T11:49:20Z</time>
      </trkpt>
      <trkpt lat="2.890732" lon="-75.1509">
        <ele>797.3</ele>
        <time>2021-08-21T11:49:21Z</time>
      </trkpt>
      <trkpt lat="2.890708" lon="-75.15093">
        <ele>797.0</ele>
        <time>2021-08-21T11:49:22Z</time>
      </trkpt>
      <trkpt lat="2.890685" lon="-75.15097">
        <ele>796.7</ele>
        <time>2021-08-21T11:49:23Z</time>
      </trkpt>
      <trkpt lat="2.890664" lon="-75.15102">
        <ele>796.4</ele>
        <time>2021-08-21T11:49:24Z</time>
      </trkpt>
      <trkpt lat="2.890644" lon="-75.15106">
        <ele>796.0</ele>
        <time>2021-08-21T11:49:25Z</time>
      </trkpt>
      <trkpt lat="2.890624" lon="-75.15111">
        <ele>795.7</ele>
        <time>2021-08-21T11:49:26Z</time>
      </trkpt>
      <trkpt lat="2.890602" lon="-75.15115">
        <ele>795.3</ele>
        <time>2021-08-21T11:49:27Z</time>
      </trkpt>
      <trkpt lat="2.890576" lon="-75.1512">
        <ele>794.9</ele>
        <time>2021-08-21T11:49:28Z</time>
      </trkpt>
      <trkpt lat="2.890543" lon="-75.15124">
        <ele>794.5</ele>
        <time>2021-08-21T11:49:29Z</time>
      </trkpt>
      <trkpt lat="2.890504" lon="-75.151276">
        <ele>794.2</ele>
        <time>2021-08-21T11:49:30Z</time>
      </trkpt>
      <trkpt lat="2.890459" lon="-75.151306">
        <ele>793.8</ele>
        <time>2021-08-21T11:49:31Z</time>
      </trkpt>
      <trkpt lat="2.890409" lon="-75.15134">
        <ele>793.5</ele>
        <time>2021-08-21T11:49:32Z</time>
      </trkpt>
      <trkpt lat="2.890356" lon="-75.15135">
        <ele>793.2</ele>
        <time>2021-08-21T11:49:33Z</time>
      </trkpt>
      <trkpt lat="2.890302" lon="-75.15137">
        <ele>793.0</ele>
        <time>2021-08-21T11:49:34Z</time>
      </trkpt>
      <trkpt lat="2.890193" lon="-75.151375">
        <ele>792.7</ele>
        <time>2021-08-21T11:49:36Z</time>
      </trkpt>
      <trkpt lat="2.890247" lon="-75.151375">
        <ele>792.8</ele>
        <time>2021-08-21T11:49:36Z</time>
      </trkpt>
      <trkpt lat="2.89014" lon="-75.151375">
        <ele>792.6</ele>
        <time>2021-08-21T11:49:37Z</time>
      </trkpt>
      <trkpt lat="2.89009" lon="-75.15137">
        <ele>792.5</ele>
        <time>2021-08-21T11:49:38Z</time>
      </trkpt>
      <trkpt lat="2.890042" lon="-75.15136">
        <ele>792.5</ele>
        <time>2021-08-21T11:49:39Z</time>
      </trkpt>
      <trkpt lat="2.889997" lon="-75.151344">
        <ele>792.5</ele>
        <time>2021-08-21T11:49:40Z</time>
      </trkpt>
      <trkpt lat="2.889954" lon="-75.15133">
        <ele>792.4</ele>
        <time>2021-08-21T11:49:41Z</time>
      </trkpt>
      <trkpt lat="2.889868" lon="-75.151306">
        <ele>792.3</ele>
        <time>2021-08-21T11:49:43Z</time>
      </trkpt>
      <trkpt lat="2.889912" lon="-75.15132">
        <ele>792.4</ele>
        <time>2021-08-21T11:49:43Z</time>
      </trkpt>
      <trkpt lat="2.889823" lon="-75.15129">
        <ele>792.3</ele>
        <time>2021-08-21T11:49:44Z</time>
      </trkpt>
      <trkpt lat="2.889734" lon="-75.15126">
        <ele>792.2</ele>
        <time>2021-08-21T11:49:46Z</time>
      </trkpt>
      <trkpt lat="2.889777" lon="-75.151276">
        <ele>792.2</ele>
        <time>2021-08-21T11:49:46Z</time>
      </trkpt>
      <trkpt lat="2.889693" lon="-75.151245">
        <ele>792.2</ele>
        <time>2021-08-21T11:49:47Z</time>
      </trkpt>
      <trkpt lat="2.889657" lon="-75.15123">
        <ele>792.3</ele>
        <time>2021-08-21T11:49:48Z</time>
      </trkpt>
      <trkpt lat="2.889596" lon="-75.1512">
        <ele>792.5</ele>
        <time>2021-08-21T11:49:50Z</time>
      </trkpt>
      <trkpt lat="2.889611" lon="-75.15121">
        <ele>792.4</ele>
        <time>2021-08-21T11:49:50Z</time>
      </trkpt>
      <trkpt lat="2.88957" lon="-75.15119">
        <ele>792.6</ele>
        <time>2021-08-21T11:49:51Z</time>
      </trkpt>
      <trkpt lat="2.889545" lon="-75.15118">
        <ele>792.7</ele>
        <time>2021-08-21T11:49:52Z</time>
      </trkpt>
      <trkpt lat="2.889522" lon="-75.15117">
        <ele>792.8</ele>
        <time>2021-08-21T11:49:53Z</time>
      </trkpt>
      <trkpt lat="2.889501" lon="-75.15115">
        <ele>792.9</ele>
        <time>2021-08-21T11:49:54Z</time>
      </trkpt>
      <trkpt lat="2.88948" lon="-75.15114">
        <ele>793.0</ele>
        <time>2021-08-21T11:49:55Z</time>
      </trkpt>
      <trkpt lat="2.88946" lon="-75.15113">
        <ele>793.2</ele>
        <time>2021-08-21T11:49:56Z</time>
      </trkpt>
      <trkpt lat="2.889441" lon="-75.151115">
        <ele>793.3</ele>
        <time>2021-08-21T11:49:57Z</time>
      </trkpt>
      <trkpt lat="2.889422" lon="-75.15111">
        <ele>793.5</ele>
        <time>2021-08-21T11:49:58Z</time>
      </trkpt>
      <trkpt lat="2.889403" lon="-75.15109">
        <ele>793.6</ele>
        <time>2021-08-21T11:49:59Z</time>
      </trkpt>
      <trkpt lat="2.889384" lon="-75.151085">
        <ele>793.8</ele>
        <time>2021-08-21T11:50:00Z</time>
      </trkpt>
      <trkpt lat="2.889368" lon="-75.15107">
        <ele>794.0</ele>
        <time>2021-08-21T11:50:01Z</time>
      </trkpt>
      <trkpt lat="2.889353" lon="-75.15106">
        <ele>794.1</ele>
        <time>2021-08-21T11:50:02Z</time>
      </trkpt>
      <trkpt lat="2.889338" lon="-75.15105">
        <ele>794.3</ele>
        <time>2021-08-21T11:50:03Z</time>
      </trkpt>
      <trkpt lat="2.889312" lon="-75.15103">
        <ele>794.6</ele>
        <time>2021-08-21T11:50:04Z</time>
      </trkpt>
      <trkpt lat="2.8893" lon="-75.151024">
        <ele>794.8</ele>
        <time>2021-08-21T11:50:05Z</time>
      </trkpt>
      <trkpt lat="2.889287" lon="-75.151024">
        <ele>794.9</ele>
        <time>2021-08-21T11:50:06Z</time>
      </trkpt>
      <trkpt lat="2.889275" lon="-75.15102">
        <ele>795.1</ele>
        <time>2021-08-21T11:50:07Z</time>
      </trkpt>
      <trkpt lat="2.889262" lon="-75.15101">
        <ele>795.3</ele>
        <time>2021-08-21T11:50:08Z</time>
      </trkpt>
      <trkpt lat="2.889249" lon="-75.151">
        <ele>795.5</ele>
        <time>2021-08-21T11:50:09Z</time>
      </trkpt>
      <trkpt lat="2.889237" lon="-75.151">
        <ele>795.7</ele>
        <time>2021-08-21T11:50:10Z</time>
      </trkpt>
      <trkpt lat="2.889224" lon="-75.15099">
        <ele>795.9</ele>
        <time>2021-08-21T11:50:11Z</time>
      </trkpt>
      <trkpt lat="2.889212" lon="-75.150986">
        <ele>796.1</ele>
        <time>2021-08-21T11:50:12Z</time>
      </trkpt>
      <trkpt lat="2.889199" lon="-75.15098">
        <ele>796.3</ele>
        <time>2021-08-21T11:50:13Z</time>
      </trkpt>
      <trkpt lat="2.889186" lon="-75.15098">
        <ele>796.5</ele>
        <time>2021-08-21T11:50:14Z</time>
      </trkpt>
      <trkpt lat="2.889174" lon="-75.15097">
        <ele>796.7</ele>
        <time>2021-08-21T11:50:15Z</time>
      </trkpt>
      <trkpt lat="2.889161" lon="-75.15096">
        <ele>796.9</ele>
        <time>2021-08-21T11:50:16Z</time>
      </trkpt>
      <trkpt lat="2.889149" lon="-75.150955">
        <ele>797.1</ele>
        <time>2021-08-21T11:50:17Z</time>
      </trkpt>
      <trkpt lat="2.889136" lon="-75.150955">
        <ele>797.3</ele>
        <time>2021-08-21T11:50:18Z</time>
      </trkpt>
      <trkpt lat="2.889123" lon="-75.15095">
        <ele>797.5</ele>
        <time>2021-08-21T11:50:19Z</time>
      </trkpt>
      <trkpt lat="2.889111" lon="-75.15094">
        <ele>797.7</ele>
        <time>2021-08-21T11:50:20Z</time>
      </trkpt>
      <trkpt lat="2.889098" lon="-75.15093">
        <ele>797.9</ele>
        <time>2021-08-21T11:50:21Z</time>
      </trkpt>
      <trkpt lat="2.889086" lon="-75.15093">
        <ele>798.1</ele>
        <time>2021-08-21T11:50:22Z</time>
      </trkpt>
      <trkpt lat="2.889073" lon="-75.150925">
        <ele>798.3</ele>
        <time>2021-08-21T11:50:23Z</time>
      </trkpt>
      <trkpt lat="2.88906" lon="-75.15092">
        <ele>798.4</ele>
        <time>2021-08-21T11:50:24Z</time>
      </trkpt>
      <trkpt lat="2.889048" lon="-75.15091">
        <ele>798.6</ele>
        <time>2021-08-21T11:50:25Z</time>
      </trkpt>
      <trkpt lat="2.889035" lon="-75.15091">
        <ele>798.8</ele>
        <time>2021-08-21T11:50:26Z</time>
      </trkpt>
      <trkpt lat="2.88901" lon="-75.150894">
        <ele>799.2</ele>
        <time>2021-08-21T11:50:28Z</time>
      </trkpt>
      <trkpt lat="2.889023" lon="-75.1509">
        <ele>799.0</ele>
        <time>2021-08-21T11:50:28Z</time>
      </trkpt>
      <trkpt lat="2.888982" lon="-75.150894">
        <ele>799.5</ele>
        <time>2021-08-21T11:50:29Z</time>
      </trkpt>
      <trkpt lat="2.888969" lon="-75.150894">
        <ele>799.6</ele>
        <time>2021-08-21T11:50:30Z</time>
      </trkpt>
      <trkpt lat="2.888956" lon="-75.150894">
        <ele>799.8</ele>
        <time>2021-08-21T11:50:31Z</time>
      </trkpt>
      <trkpt lat="2.888944" lon="-75.150894">
        <ele>799.9</ele>
        <time>2021-08-21T11:50:32Z</time>
      </trkpt>
      <trkpt lat="2.888931" lon="-75.150894">
        <ele>800.0</ele>
        <time>2021-08-21T11:50:33Z</time>
      </trkpt>
      <trkpt lat="2.888905" lon="-75.150894">
        <ele>800.3</ele>
        <time>2021-08-21T11:50:35Z</time>
      </trkpt>
      <trkpt lat="2.888918" lon="-75.150894">
        <ele>800.2</ele>
        <time>2021-08-21T11:50:35Z</time>
      </trkpt>
      <trkpt lat="2.888879" lon="-75.150894">
        <ele>800.5</ele>
        <time>2021-08-21T11:50:36Z</time>
      </trkpt>
      <trkpt lat="2.888868" lon="-75.1509">
        <ele>800.6</ele>
        <time>2021-08-21T11:50:37Z</time>
      </trkpt>
      <trkpt lat="2.888844" lon="-75.1509">
        <ele>800.9</ele>
        <time>2021-08-21T11:50:38Z</time>
      </trkpt>
      <trkpt lat="2.888856" lon="-75.1509">
        <ele>800.8</ele>
        <time>2021-08-21T11:50:38Z</time>
      </trkpt>
      <trkpt lat="2.888818" lon="-75.15091">
        <ele>801.1</ele>
        <time>2021-08-21T11:50:39Z</time>
      </trkpt>
      <trkpt lat="2.888796" lon="-75.15092">
        <ele>801.3</ele>
        <time>2021-08-21T11:50:41Z</time>
      </trkpt>
      <trkpt lat="2.888807" lon="-75.15091">
        <ele>801.2</ele>
        <time>2021-08-21T11:50:41Z</time>
      </trkpt>
      <trkpt lat="2.888768" lon="-75.150925">
        <ele>801.6</ele>
        <time>2021-08-21T11:50:42Z</time>
      </trkpt>
      <trkpt lat="2.888756" lon="-75.15093">
        <ele>801.7</ele>
        <time>2021-08-21T11:50:43Z</time>
      </trkpt>
      <trkpt lat="2.888743" lon="-75.15093">
        <ele>801.8</ele>
        <time>2021-08-21T11:50:44Z</time>
      </trkpt>
      <trkpt lat="2.88873" lon="-75.15094">
        <ele>802.0</ele>
        <time>2021-08-21T11:50:45Z</time>
      </trkpt>
      <trkpt lat="2.888717" lon="-75.15095">
        <ele>802.1</ele>
        <time>2021-08-21T11:50:46Z</time>
      </trkpt>
      <trkpt lat="2.888692" lon="-75.150955">
        <ele>802.3</ele>
        <time>2021-08-21T11:50:48Z</time>
      </trkpt>
      <trkpt lat="2.888705" lon="-75.15095">
        <ele>802.2</ele>
        <time>2021-08-21T11:50:48Z</time>
      </trkpt>
      <trkpt lat="2.888677" lon="-75.15096">
        <ele>802.5</ele>
        <time>2021-08-21T11:50:49Z</time>
      </trkpt>
      <trkpt lat="2.888662" lon="-75.15097">
        <ele>802.6</ele>
        <time>2021-08-21T11:50:50Z</time>
      </trkpt>
      <trkpt lat="2.888646" lon="-75.15098">
        <ele>802.8</ele>
        <time>2021-08-21T11:50:51Z</time>
      </trkpt>
      <trkpt lat="2.888589" lon="-75.15102">
        <ele>803.5</ele>
        <time>2021-08-21T11:50:53Z</time>
      </trkpt>
      <trkpt lat="2.888579" lon="-75.15103">
        <ele>803.6</ele>
        <time>2021-08-21T11:50:55Z</time>
      </trkpt>
      <trkpt lat="2.888583" lon="-75.151024">
        <ele>803.5</ele>
        <time>2021-08-21T11:50:55Z</time>
      </trkpt>
      <trkpt lat="2.888561" lon="-75.15105">
        <ele>803.8</ele>
        <time>2021-08-21T11:50:56Z</time>
      </trkpt>
      <trkpt lat="2.888551" lon="-75.151054">
        <ele>803.9</ele>
        <time>2021-08-21T11:50:57Z</time>
      </trkpt>
      <trkpt lat="2.888542" lon="-75.15106">
        <ele>804.0</ele>
        <time>2021-08-21T11:50:58Z</time>
      </trkpt>
      <trkpt lat="2.888532" lon="-75.15107">
        <ele>804.1</ele>
        <time>2021-08-21T11:50:59Z</time>
      </trkpt>
      <trkpt lat="2.888523" lon="-75.15108">
        <ele>804.2</ele>
        <time>2021-08-21T11:51:00Z</time>
      </trkpt>
      <trkpt lat="2.888504" lon="-75.1511">
        <ele>804.5</ele>
        <time>2021-08-21T11:51:02Z</time>
      </trkpt>
      <trkpt lat="2.888513" lon="-75.15109">
        <ele>804.3</ele>
        <time>2021-08-21T11:51:02Z</time>
      </trkpt>
      <trkpt lat="2.888487" lon="-75.151115">
        <ele>804.7</ele>
        <time>2021-08-21T11:51:03Z</time>
      </trkpt>
      <trkpt lat="2.88848" lon="-75.15113">
        <ele>804.8</ele>
        <time>2021-08-21T11:51:04Z</time>
      </trkpt>
      <trkpt lat="2.888472" lon="-75.15114">
        <ele>804.9</ele>
        <time>2021-08-21T11:51:05Z</time>
      </trkpt>
      <trkpt lat="2.888458" lon="-75.15116">
        <ele>805.1</ele>
        <time>2021-08-21T11:51:07Z</time>
      </trkpt>
      <trkpt lat="2.888465" lon="-75.15115">
        <ele>805.0</ele>
        <time>2021-08-21T11:51:07Z</time>
      </trkpt>
      <trkpt lat="2.888438" lon="-75.151184">
        <ele>805.3</ele>
        <time>2021-08-21T11:51:08Z</time>
      </trkpt>
      <trkpt lat="2.888429" lon="-75.15119">
        <ele>805.4</ele>
        <time>2021-08-21T11:51:09Z</time>
      </trkpt>
      <trkpt lat="2.888419" lon="-75.15121">
        <ele>805.5</ele>
        <time>2021-08-21T11:51:10Z</time>
      </trkpt>
      <trkpt lat="2.88841" lon="-75.151215">
        <ele>805.6</ele>
        <time>2021-08-21T11:51:11Z</time>
      </trkpt>
      <trkpt lat="2.8884" lon="-75.15122">
        <ele>805.7</ele>
        <time>2021-08-21T11:51:12Z</time>
      </trkpt>
      <trkpt lat="2.888381" lon="-75.151245">
        <ele>806.0</ele>
        <time>2021-08-21T11:51:14Z</time>
      </trkpt>
      <trkpt lat="2.888391" lon="-75.15124">
        <ele>805.8</ele>
        <time>2021-08-21T11:51:14Z</time>
      </trkpt>
      <trkpt lat="2.888363" lon="-75.15127">
        <ele>806.2</ele>
        <time>2021-08-21T11:51:15Z</time>
      </trkpt>
      <trkpt lat="2.888356" lon="-75.15128">
        <ele>806.3</ele>
        <time>2021-08-21T11:51:16Z</time>
      </trkpt>
      <trkpt lat="2.888348" lon="-75.15129">
        <ele>806.4</ele>
        <time>2021-08-21T11:51:17Z</time>
      </trkpt>
      <trkpt lat="2.88834" lon="-75.151306">
        <ele>806.5</ele>
        <time>2021-08-21T11:51:18Z</time>
      </trkpt>
      <trkpt lat="2.888325" lon="-75.15133">
        <ele>806.8</ele>
        <time>2021-08-21T11:51:20Z</time>
      </trkpt>
      <trkpt lat="2.888333" lon="-75.15131">
        <ele>806.6</ele>
        <time>2021-08-21T11:51:20Z</time>
      </trkpt>
      <trkpt lat="2.888315" lon="-75.15134">
        <ele>806.9</ele>
        <time>2021-08-21T11:51:21Z</time>
      </trkpt>
      <trkpt lat="2.888305" lon="-75.15135">
        <ele>807.0</ele>
        <time>2021-08-21T11:51:22Z</time>
      </trkpt>
      <trkpt lat="2.888295" lon="-75.15137">
        <ele>807.2</ele>
        <time>2021-08-21T11:51:23Z</time>
      </trkpt>
      <trkpt lat="2.888284" lon="-75.151375">
        <ele>807.3</ele>
        <time>2021-08-21T11:51:24Z</time>
      </trkpt>
      <trkpt lat="2.888274" lon="-75.15138">
        <ele>807.4</ele>
        <time>2021-08-21T11:51:25Z</time>
      </trkpt>
      <trkpt lat="2.888264" lon="-75.1514">
        <ele>807.6</ele>
        <time>2021-08-21T11:51:26Z</time>
      </trkpt>
      <trkpt lat="2.888253" lon="-75.151405">
        <ele>807.7</ele>
        <time>2021-08-21T11:51:27Z</time>
      </trkpt>
      <trkpt lat="2.888243" lon="-75.15142">
        <ele>807.8</ele>
        <time>2021-08-21T11:51:28Z</time>
      </trkpt>
      <trkpt lat="2.888234" lon="-75.15143">
        <ele>808.0</ele>
        <time>2021-08-21T11:51:29Z</time>
      </trkpt>
      <trkpt lat="2.888225" lon="-75.15144">
        <ele>808.1</ele>
        <time>2021-08-21T11:51:30Z</time>
      </trkpt>
      <trkpt lat="2.888218" lon="-75.15146">
        <ele>808.3</ele>
        <time>2021-08-21T11:51:31Z</time>
      </trkpt>
      <trkpt lat="2.888211" lon="-75.151474">
        <ele>808.4</ele>
        <time>2021-08-21T11:51:32Z</time>
      </trkpt>
      <trkpt lat="2.888204" lon="-75.15149">
        <ele>808.6</ele>
        <time>2021-08-21T11:51:33Z</time>
      </trkpt>
      <trkpt lat="2.888198" lon="-75.151505">
        <ele>808.7</ele>
        <time>2021-08-21T11:51:34Z</time>
      </trkpt>
      <trkpt lat="2.888193" lon="-75.15152">
        <ele>808.9</ele>
        <time>2021-08-21T11:51:35Z</time>
      </trkpt>
      <trkpt lat="2.888188" lon="-75.151535">
        <ele>809.0</ele>
        <time>2021-08-21T11:51:36Z</time>
      </trkpt>
      <trkpt lat="2.888182" lon="-75.15155">
        <ele>809.2</ele>
        <time>2021-08-21T11:51:37Z</time>
      </trkpt>
      <trkpt lat="2.888168" lon="-75.15159">
        <ele>809.5</ele>
        <time>2021-08-21T11:51:39Z</time>
      </trkpt>
      <trkpt lat="2.888172" lon="-75.15158">
        <ele>809.4</ele>
        <time>2021-08-21T11:51:39Z</time>
      </trkpt>
      <trkpt lat="2.888161" lon="-75.1516">
        <ele>809.6</ele>
        <time>2021-08-21T11:51:40Z</time>
      </trkpt>
      <trkpt lat="2.888153" lon="-75.15162">
        <ele>809.8</ele>
        <time>2021-08-21T11:51:41Z</time>
      </trkpt>
      <trkpt lat="2.888145" lon="-75.151634">
        <ele>810.0</ele>
        <time>2021-08-21T11:51:42Z</time>
      </trkpt>
      <trkpt lat="2.888137" lon="-75.15165">
        <ele>810.1</ele>
        <time>2021-08-21T11:51:43Z</time>
      </trkpt>
      <trkpt lat="2.888128" lon="-75.15167">
        <ele>810.3</ele>
        <time>2021-08-21T11:51:44Z</time>
      </trkpt>
      <trkpt lat="2.888109" lon="-75.1517">
        <ele>810.6</ele>
        <time>2021-08-21T11:51:46Z</time>
      </trkpt>
      <trkpt lat="2.888114" lon="-75.151695">
        <ele>810.5</ele>
        <time>2021-08-21T11:51:46Z</time>
      </trkpt>
      <trkpt lat="2.888099" lon="-75.15172">
        <ele>810.7</ele>
        <time>2021-08-21T11:51:47Z</time>
      </trkpt>
      <trkpt lat="2.888089" lon="-75.15173">
        <ele>810.9</ele>
        <time>2021-08-21T11:51:48Z</time>
      </trkpt>
      <trkpt lat="2.888078" lon="-75.15174">
        <ele>811.0</ele>
        <time>2021-08-21T11:51:49Z</time>
      </trkpt>
      <trkpt lat="2.888067" lon="-75.15176">
        <ele>811.2</ele>
        <time>2021-08-21T11:51:50Z</time>
      </trkpt>
      <trkpt lat="2.888056" lon="-75.15177">
        <ele>811.3</ele>
        <time>2021-08-21T11:51:51Z</time>
      </trkpt>
      <trkpt lat="2.888032" lon="-75.1518">
        <ele>811.6</ele>
        <time>2021-08-21T11:51:53Z</time>
      </trkpt>
      <trkpt lat="2.888038" lon="-75.151794">
        <ele>811.5</ele>
        <time>2021-08-21T11:51:53Z</time>
      </trkpt>
      <trkpt lat="2.888019" lon="-75.15181">
        <ele>811.7</ele>
        <time>2021-08-21T11:51:54Z</time>
      </trkpt>
      <trkpt lat="2.888005" lon="-75.151825">
        <ele>811.9</ele>
        <time>2021-08-21T11:51:55Z</time>
      </trkpt>
      <trkpt lat="2.887991" lon="-75.15184">
        <ele>812.0</ele>
        <time>2021-08-21T11:51:56Z</time>
      </trkpt>
      <trkpt lat="2.887976" lon="-75.15185">
        <ele>812.2</ele>
        <time>2021-08-21T11:51:57Z</time>
      </trkpt>
      <trkpt lat="2.887961" lon="-75.151855">
        <ele>812.3</ele>
        <time>2021-08-21T11:51:58Z</time>
      </trkpt>
      <trkpt lat="2.887928" lon="-75.15187">
        <ele>812.5</ele>
        <time>2021-08-21T11:52:00Z</time>
      </trkpt>
      <trkpt lat="2.887937" lon="-75.15187">
        <ele>812.5</ele>
        <time>2021-08-21T11:52:00Z</time>
      </trkpt>
      <trkpt lat="2.887911" lon="-75.15188">
        <ele>812.7</ele>
        <time>2021-08-21T11:52:01Z</time>
      </trkpt>
      <trkpt lat="2.887895" lon="-75.15188">
        <ele>812.8</ele>
        <time>2021-08-21T11:52:02Z</time>
      </trkpt>
      <trkpt lat="2.887878" lon="-75.15188">
        <ele>812.9</ele>
        <time>2021-08-21T11:52:03Z</time>
      </trkpt>
      <trkpt lat="2.887858" lon="-75.15188">
        <ele>813.0</ele>
        <time>2021-08-21T11:52:04Z</time>
      </trkpt>
      <trkpt lat="2.88784" lon="-75.15188">
        <ele>813.2</ele>
        <time>2021-08-21T11:52:06Z</time>
      </trkpt>
      <trkpt lat="2.887802" lon="-75.15186">
        <ele>813.5</ele>
        <time>2021-08-21T11:52:07Z</time>
      </trkpt>
      <trkpt lat="2.887821" lon="-75.15187">
        <ele>813.3</ele>
        <time>2021-08-21T11:52:07Z</time>
      </trkpt>
      <trkpt lat="2.887784" lon="-75.151855">
        <ele>813.6</ele>
        <time>2021-08-21T11:52:08Z</time>
      </trkpt>
      <trkpt lat="2.887768" lon="-75.15184">
        <ele>813.8</ele>
        <time>2021-08-21T11:52:09Z</time>
      </trkpt>
      <trkpt lat="2.887753" lon="-75.151825">
        <ele>813.9</ele>
        <time>2021-08-21T11:52:10Z</time>
      </trkpt>
      <trkpt lat="2.88774" lon="-75.15182">
        <ele>814.0</ele>
        <time>2021-08-21T11:52:11Z</time>
      </trkpt>
      <trkpt lat="2.887717" lon="-75.15179">
        <ele>814.3</ele>
        <time>2021-08-21T11:52:13Z</time>
      </trkpt>
      <trkpt lat="2.887723" lon="-75.151794">
        <ele>814.2</ele>
        <time>2021-08-21T11:52:13Z</time>
      </trkpt>
      <trkpt lat="2.887707" lon="-75.15177">
        <ele>814.4</ele>
        <time>2021-08-21T11:52:14Z</time>
      </trkpt>
      <trkpt lat="2.887697" lon="-75.15176">
        <ele>814.5</ele>
        <time>2021-08-21T11:52:15Z</time>
      </trkpt>
      <trkpt lat="2.887688" lon="-75.15174">
        <ele>814.7</ele>
        <time>2021-08-21T11:52:16Z</time>
      </trkpt>
      <trkpt lat="2.887672" lon="-75.15172">
        <ele>814.9</ele>
        <time>2021-08-21T11:52:17Z</time>
      </trkpt>
      <trkpt lat="2.887666" lon="-75.1517">
        <ele>815.0</ele>
        <time>2021-08-21T11:52:18Z</time>
      </trkpt>
      <trkpt lat="2.887652" lon="-75.15168">
        <ele>815.2</ele>
        <time>2021-08-21T11:52:20Z</time>
      </trkpt>
      <trkpt lat="2.887659" lon="-75.151695">
        <ele>815.1</ele>
        <time>2021-08-21T11:52:20Z</time>
      </trkpt>
      <trkpt lat="2.887644" lon="-75.151665">
        <ele>815.3</ele>
        <time>2021-08-21T11:52:21Z</time>
      </trkpt>
      <trkpt lat="2.887634" lon="-75.15165">
        <ele>815.4</ele>
        <time>2021-08-21T11:52:22Z</time>
      </trkpt>
      <trkpt lat="2.887625" lon="-75.151634">
        <ele>815.6</ele>
        <time>2021-08-21T11:52:23Z</time>
      </trkpt>
      <trkpt lat="2.887616" lon="-75.15162">
        <ele>815.7</ele>
        <time>2021-08-21T11:52:24Z</time>
      </trkpt>
      <trkpt lat="2.887607" lon="-75.1516">
        <ele>815.9</ele>
        <time>2021-08-21T11:52:25Z</time>
      </trkpt>
      <trkpt lat="2.887598" lon="-75.15159">
        <ele>816.0</ele>
        <time>2021-08-21T11:52:26Z</time>
      </trkpt>
      <trkpt lat="2.887579" lon="-75.151566">
        <ele>816.3</ele>
        <time>2021-08-21T11:52:27Z</time>
      </trkpt>
      <trkpt lat="2.88757" lon="-75.15156">
        <ele>816.4</ele>
        <time>2021-08-21T11:52:28Z</time>
      </trkpt>
      <trkpt lat="2.887561" lon="-75.15154">
        <ele>816.5</ele>
        <time>2021-08-21T11:52:29Z</time>
      </trkpt>
      <trkpt lat="2.887552" lon="-75.151535">
        <ele>816.6</ele>
        <time>2021-08-21T11:52:30Z</time>
      </trkpt>
      <trkpt lat="2.887542" lon="-75.15153">
        <ele>816.7</ele>
        <time>2021-08-21T11:52:31Z</time>
      </trkpt>
      <trkpt lat="2.887533" lon="-75.15151">
        <ele>816.9</ele>
        <time>2021-08-21T11:52:32Z</time>
      </trkpt>
      <trkpt lat="2.887524" lon="-75.151505">
        <ele>817.0</ele>
        <time>2021-08-21T11:52:33Z</time>
      </trkpt>
      <trkpt lat="2.887515" lon="-75.1515">
        <ele>817.1</ele>
        <time>2021-08-21T11:52:34Z</time>
      </trkpt>
      <trkpt lat="2.887506" lon="-75.15148">
        <ele>817.3</ele>
        <time>2021-08-21T11:52:35Z</time>
      </trkpt>
      <trkpt lat="2.887497" lon="-75.151474">
        <ele>817.4</ele>
        <time>2021-08-21T11:52:36Z</time>
      </trkpt>
      <trkpt lat="2.887488" lon="-75.15147">
        <ele>817.5</ele>
        <time>2021-08-21T11:52:37Z</time>
      </trkpt>
      <trkpt lat="2.887479" lon="-75.15145">
        <ele>817.7</ele>
        <time>2021-08-21T11:52:38Z</time>
      </trkpt>
      <trkpt lat="2.88747" lon="-75.15144">
        <ele>817.8</ele>
        <time>2021-08-21T11:52:39Z</time>
      </trkpt>
      <trkpt lat="2.887461" lon="-75.151436">
        <ele>817.9</ele>
        <time>2021-08-21T11:52:40Z</time>
      </trkpt>
      <trkpt lat="2.887451" lon="-75.15142">
        <ele>818.1</ele>
        <time>2021-08-21T11:52:41Z</time>
      </trkpt>
      <trkpt lat="2.887442" lon="-75.15141">
        <ele>818.2</ele>
        <time>2021-08-21T11:52:42Z</time>
      </trkpt>
      <trkpt lat="2.887433" lon="-75.151405">
        <ele>818.3</ele>
        <time>2021-08-21T11:52:43Z</time>
      </trkpt>
      <trkpt lat="2.887415" lon="-75.15138">
        <ele>818.6</ele>
        <time>2021-08-21T11:52:45Z</time>
      </trkpt>
      <trkpt lat="2.887424" lon="-75.1514">
        <ele>818.5</ele>
        <time>2021-08-21T11:52:45Z</time>
      </trkpt>
      <trkpt lat="2.887392" lon="-75.15137">
        <ele>818.9</ele>
        <time>2021-08-21T11:52:46Z</time>
      </trkpt>
      <trkpt lat="2.887382" lon="-75.15137">
        <ele>819.0</ele>
        <time>2021-08-21T11:52:47Z</time>
      </trkpt>
      <trkpt lat="2.887371" lon="-75.15136">
        <ele>819.1</ele>
        <time>2021-08-21T11:52:48Z</time>
      </trkpt>
      <trkpt lat="2.88736" lon="-75.15135">
        <ele>819.3</ele>
        <time>2021-08-21T11:52:49Z</time>
      </trkpt>
      <trkpt lat="2.887349" lon="-75.151344">
        <ele>819.4</ele>
        <time>2021-08-21T11:52:50Z</time>
      </trkpt>
      <trkpt lat="2.887328" lon="-75.15133">
        <ele>819.6</ele>
        <time>2021-08-21T11:52:52Z</time>
      </trkpt>
      <trkpt lat="2.887339" lon="-75.15134">
        <ele>819.5</ele>
        <time>2021-08-21T11:52:52Z</time>
      </trkpt>
      <trkpt lat="2.887305" lon="-75.15132">
        <ele>819.9</ele>
        <time>2021-08-21T11:52:53Z</time>
      </trkpt>
      <trkpt lat="2.887286" lon="-75.15131">
        <ele>820.1</ele>
        <time>2021-08-21T11:52:55Z</time>
      </trkpt>
      <trkpt lat="2.887296" lon="-75.15132">
        <ele>820.0</ele>
        <time>2021-08-21T11:52:55Z</time>
      </trkpt>
      <trkpt lat="2.88726" lon="-75.151306">
        <ele>820.4</ele>
        <time>2021-08-21T11:52:56Z</time>
      </trkpt>
      <trkpt lat="2.887249" lon="-75.1513">
        <ele>820.5</ele>
        <time>2021-08-21T11:52:57Z</time>
      </trkpt>
      <trkpt lat="2.887228" lon="-75.15129">
        <ele>820.8</ele>
        <time>2021-08-21T11:52:59Z</time>
      </trkpt>
      <trkpt lat="2.887239" lon="-75.1513">
        <ele>820.6</ele>
        <time>2021-08-21T11:52:59Z</time>
      </trkpt>
      <trkpt lat="2.887204" lon="-75.151276">
        <ele>821.1</ele>
        <time>2021-08-21T11:53:00Z</time>
      </trkpt>
      <trkpt lat="2.887194" lon="-75.15127">
        <ele>821.2</ele>
        <time>2021-08-21T11:53:01Z</time>
      </trkpt>
      <trkpt lat="2.887184" lon="-75.15127">
        <ele>821.3</ele>
        <time>2021-08-21T11:53:02Z</time>
      </trkpt>
      <trkpt lat="2.887174" lon="-75.15126">
        <ele>821.4</ele>
        <time>2021-08-21T11:53:03Z</time>
      </trkpt>
      <trkpt lat="2.887154" lon="-75.151245">
        <ele>821.7</ele>
        <time>2021-08-21T11:53:05Z</time>
      </trkpt>
      <trkpt lat="2.887164" lon="-75.15125">
        <ele>821.6</ele>
        <time>2021-08-21T11:53:05Z</time>
      </trkpt>
      <trkpt lat="2.88713" lon="-75.15124">
        <ele>822.0</ele>
        <time>2021-08-21T11:53:06Z</time>
      </trkpt>
      <trkpt lat="2.88712" lon="-75.15123">
        <ele>822.1</ele>
        <time>2021-08-21T11:53:07Z</time>
      </trkpt>
      <trkpt lat="2.8871" lon="-75.15122">
        <ele>822.4</ele>
        <time>2021-08-21T11:53:09Z</time>
      </trkpt>
      <trkpt lat="2.88711" lon="-75.15123">
        <ele>822.3</ele>
        <time>2021-08-21T11:53:09Z</time>
      </trkpt>
      <trkpt lat="2.887077" lon="-75.151215">
        <ele>822.7</ele>
        <time>2021-08-21T11:53:10Z</time>
      </trkpt>
      <trkpt lat="2.887058" lon="-75.151215">
        <ele>822.9</ele>
        <time>2021-08-21T11:53:12Z</time>
      </trkpt>
      <trkpt lat="2.887067" lon="-75.151215">
        <ele>822.8</ele>
        <time>2021-08-21T11:53:12Z</time>
      </trkpt>
      <trkpt lat="2.887034" lon="-75.15121">
        <ele>823.2</ele>
        <time>2021-08-21T11:53:13Z</time>
      </trkpt>
      <trkpt lat="2.887024" lon="-75.1512">
        <ele>823.3</ele>
        <time>2021-08-21T11:53:14Z</time>
      </trkpt>
      <trkpt lat="2.887013" lon="-75.1512">
        <ele>823.4</ele>
        <time>2021-08-21T11:53:15Z</time>
      </trkpt>
      <trkpt lat="2.887003" lon="-75.1512">
        <ele>823.6</ele>
        <time>2021-08-21T11:53:16Z</time>
      </trkpt>
      <trkpt lat="2.886992" lon="-75.15119">
        <ele>823.7</ele>
        <time>2021-08-21T11:53:17Z</time>
      </trkpt>
      <trkpt lat="2.886971" lon="-75.15119">
        <ele>824.0</ele>
        <time>2021-08-21T11:53:19Z</time>
      </trkpt>
      <trkpt lat="2.886982" lon="-75.15119">
        <ele>823.8</ele>
        <time>2021-08-21T11:53:19Z</time>
      </trkpt>
      <trkpt lat="2.88695" lon="-75.151184">
        <ele>824.2</ele>
        <time>2021-08-21T11:53:21Z</time>
      </trkpt>
      <trkpt lat="2.886931" lon="-75.151184">
        <ele>824.4</ele>
        <time>2021-08-21T11:53:22Z</time>
      </trkpt>
      <trkpt lat="2.88694" lon="-75.151184">
        <ele>824.3</ele>
        <time>2021-08-21T11:53:22Z</time>
      </trkpt>
      <trkpt lat="2.886908" lon="-75.151184">
        <ele>824.7</ele>
        <time>2021-08-21T11:53:23Z</time>
      </trkpt>
      <trkpt lat="2.886897" lon="-75.15118">
        <ele>824.9</ele>
        <time>2021-08-21T11:53:24Z</time>
      </trkpt>
      <trkpt lat="2.886886" lon="-75.15118">
        <ele>825.0</ele>
        <time>2021-08-21T11:53:25Z</time>
      </trkpt>
      <trkpt lat="2.886875" lon="-75.15118">
        <ele>825.1</ele>
        <time>2021-08-21T11:53:26Z</time>
      </trkpt>
      <trkpt lat="2.886863" lon="-75.15118">
        <ele>825.3</ele>
        <time>2021-08-21T11:53:27Z</time>
      </trkpt>
      <trkpt lat="2.886852" lon="-75.15117">
        <ele>825.4</ele>
        <time>2021-08-21T11:53:28Z</time>
      </trkpt>
      <trkpt lat="2.88683" lon="-75.15117">
        <ele>825.6</ele>
        <time>2021-08-21T11:53:30Z</time>
      </trkpt>
      <trkpt lat="2.886841" lon="-75.15117">
        <ele>825.5</ele>
        <time>2021-08-21T11:53:30Z</time>
      </trkpt>
      <trkpt lat="2.886806" lon="-75.15116">
        <ele>825.9</ele>
        <time>2021-08-21T11:53:31Z</time>
      </trkpt>
      <trkpt lat="2.886796" lon="-75.15116">
        <ele>826.0</ele>
        <time>2021-08-21T11:53:32Z</time>
      </trkpt>
      <trkpt lat="2.886785" lon="-75.15116">
        <ele>826.2</ele>
        <time>2021-08-21T11:53:33Z</time>
      </trkpt>
      <trkpt lat="2.886765" lon="-75.15116">
        <ele>826.4</ele>
        <time>2021-08-21T11:53:35Z</time>
      </trkpt>
      <trkpt lat="2.886775" lon="-75.15116">
        <ele>826.3</ele>
        <time>2021-08-21T11:53:35Z</time>
      </trkpt>
      <trkpt lat="2.886738" lon="-75.15116">
        <ele>826.7</ele>
        <time>2021-08-21T11:53:37Z</time>
      </trkpt>
      <trkpt lat="2.886745" lon="-75.15116">
        <ele>826.6</ele>
        <time>2021-08-21T11:53:37Z</time>
      </trkpt>
      <trkpt lat="2.886713" lon="-75.15115">
        <ele>827.0</ele>
        <time>2021-08-21T11:53:38Z</time>
      </trkpt>
      <trkpt lat="2.886702" lon="-75.15115">
        <ele>827.1</ele>
        <time>2021-08-21T11:53:39Z</time>
      </trkpt>
      <trkpt lat="2.886691" lon="-75.15115">
        <ele>827.2</ele>
        <time>2021-08-21T11:53:40Z</time>
      </trkpt>
      <trkpt lat="2.886681" lon="-75.15115">
        <ele>827.3</ele>
        <time>2021-08-21T11:53:41Z</time>
      </trkpt>
      <trkpt lat="2.88667" lon="-75.15115">
        <ele>827.5</ele>
        <time>2021-08-21T11:53:42Z</time>
      </trkpt>
      <trkpt lat="2.886648" lon="-75.151146">
        <ele>827.7</ele>
        <time>2021-08-21T11:53:44Z</time>
      </trkpt>
      <trkpt lat="2.886659" lon="-75.151146">
        <ele>827.6</ele>
        <time>2021-08-21T11:53:44Z</time>
      </trkpt>
      <trkpt lat="2.886635" lon="-75.151146">
        <ele>827.9</ele>
        <time>2021-08-21T11:53:45Z</time>
      </trkpt>
      <trkpt lat="2.886623" lon="-75.15114">
        <ele>828.0</ele>
        <time>2021-08-21T11:53:46Z</time>
      </trkpt>
      <trkpt lat="2.886609" lon="-75.15114">
        <ele>828.2</ele>
        <time>2021-08-21T11:53:47Z</time>
      </trkpt>
      <trkpt lat="2.886596" lon="-75.15114">
        <ele>828.4</ele>
        <time>2021-08-21T11:53:48Z</time>
      </trkpt>
      <trkpt lat="2.886582" lon="-75.15113">
        <ele>828.5</ele>
        <time>2021-08-21T11:53:49Z</time>
      </trkpt>
      <trkpt lat="2.886569" lon="-75.15113">
        <ele>828.7</ele>
        <time>2021-08-21T11:53:50Z</time>
      </trkpt>
      <trkpt lat="2.886558" lon="-75.15112">
        <ele>828.8</ele>
        <time>2021-08-21T11:53:51Z</time>
      </trkpt>
      <trkpt lat="2.886546" lon="-75.15112">
        <ele>829.0</ele>
        <time>2021-08-21T11:53:52Z</time>
      </trkpt>
      <trkpt lat="2.886533" lon="-75.151115">
        <ele>829.1</ele>
        <time>2021-08-21T11:53:53Z</time>
      </trkpt>
      <trkpt lat="2.88652" lon="-75.151115">
        <ele>829.3</ele>
        <time>2021-08-21T11:53:54Z</time>
      </trkpt>
      <trkpt lat="2.886508" lon="-75.151115">
        <ele>829.4</ele>
        <time>2021-08-21T11:53:55Z</time>
      </trkpt>
      <trkpt lat="2.886495" lon="-75.151115">
        <ele>829.6</ele>
        <time>2021-08-21T11:53:56Z</time>
      </trkpt>
      <trkpt lat="2.88648" lon="-75.151115">
        <ele>829.7</ele>
        <time>2021-08-21T11:53:57Z</time>
      </trkpt>
      <trkpt lat="2.886465" lon="-75.151115">
        <ele>829.9</ele>
        <time>2021-08-21T11:53:58Z</time>
      </trkpt>
      <trkpt lat="2.88645" lon="-75.151115">
        <ele>830.1</ele>
        <time>2021-08-21T11:53:59Z</time>
      </trkpt>
      <trkpt lat="2.886436" lon="-75.151115">
        <ele>830.2</ele>
        <time>2021-08-21T11:54:00Z</time>
      </trkpt>
      <trkpt lat="2.886422" lon="-75.15111">
        <ele>830.3</ele>
        <time>2021-08-21T11:54:01Z</time>
      </trkpt>
      <trkpt lat="2.886407" lon="-75.15111">
        <ele>830.5</ele>
        <time>2021-08-21T11:54:02Z</time>
      </trkpt>
      <trkpt lat="2.886391" lon="-75.15111">
        <ele>830.6</ele>
        <time>2021-08-21T11:54:03Z</time>
      </trkpt>
      <trkpt lat="2.886376" lon="-75.15111">
        <ele>830.8</ele>
        <time>2021-08-21T11:54:04Z</time>
      </trkpt>
      <trkpt lat="2.886361" lon="-75.15111">
        <ele>830.9</ele>
        <time>2021-08-21T11:54:05Z</time>
      </trkpt>
      <trkpt lat="2.886345" lon="-75.15111">
        <ele>831.0</ele>
        <time>2021-08-21T11:54:06Z</time>
      </trkpt>
      <trkpt lat="2.886328" lon="-75.15111">
        <ele>831.1</ele>
        <time>2021-08-21T11:54:07Z</time>
      </trkpt>
      <trkpt lat="2.886311" lon="-75.15111">
        <ele>831.3</ele>
        <time>2021-08-21T11:54:08Z</time>
      </trkpt>
      <trkpt lat="2.886295" lon="-75.15111">
        <ele>831.4</ele>
        <time>2021-08-21T11:54:09Z</time>
      </trkpt>
      <trkpt lat="2.88628" lon="-75.1511">
        <ele>831.5</ele>
        <time>2021-08-21T11:54:10Z</time>
      </trkpt>
      <trkpt lat="2.886265" lon="-75.1511">
        <ele>831.6</ele>
        <time>2021-08-21T11:54:11Z</time>
      </trkpt>
      <trkpt lat="2.886247" lon="-75.15109">
        <ele>831.7</ele>
        <time>2021-08-21T11:54:12Z</time>
      </trkpt>
      <trkpt lat="2.88623" lon="-75.15109">
        <ele>831.8</ele>
        <time>2021-08-21T11:54:13Z</time>
      </trkpt>
      <trkpt lat="2.886212" lon="-75.151085">
        <ele>831.8</ele>
        <time>2021-08-21T11:54:14Z</time>
      </trkpt>
      <trkpt lat="2.886195" lon="-75.151085">
        <ele>831.9</ele>
        <time>2021-08-21T11:54:15Z</time>
      </trkpt>
      <trkpt lat="2.886179" lon="-75.15108">
        <ele>832.0</ele>
        <time>2021-08-21T11:54:16Z</time>
      </trkpt>
      <trkpt lat="2.886163" lon="-75.15107">
        <ele>832.0</ele>
        <time>2021-08-21T11:54:17Z</time>
      </trkpt>
      <trkpt lat="2.886146" lon="-75.15106">
        <ele>832.0</ele>
        <time>2021-08-21T11:54:18Z</time>
      </trkpt>
      <trkpt lat="2.886127" lon="-75.151054">
        <ele>832.1</ele>
        <time>2021-08-21T11:54:19Z</time>
      </trkpt>
      <trkpt lat="2.886107" lon="-75.15105">
        <ele>832.1</ele>
        <time>2021-08-21T11:54:20Z</time>
      </trkpt>
      <trkpt lat="2.886061" lon="-75.15102">
        <ele>832.0</ele>
        <time>2021-08-21T11:54:22Z</time>
      </trkpt>
      <trkpt lat="2.886073" lon="-75.151024">
        <ele>832.0</ele>
        <time>2021-08-21T11:54:22Z</time>
      </trkpt>
      <trkpt lat="2.886033" lon="-75.151">
        <ele>831.8</ele>
        <time>2021-08-21T11:54:23Z</time>
      </trkpt>
      <trkpt lat="2.886002" lon="-75.150986">
        <ele>831.7</ele>
        <time>2021-08-21T11:54:24Z</time>
      </trkpt>
      <trkpt lat="2.885968" lon="-75.15097">
        <ele>831.4</ele>
        <time>2021-08-21T11:54:25Z</time>
      </trkpt>
      <trkpt lat="2.885931" lon="-75.150955">
        <ele>831.1</ele>
        <time>2021-08-21T11:54:26Z</time>
      </trkpt>
      <trkpt lat="2.885889" lon="-75.15093">
        <ele>830.7</ele>
        <time>2021-08-21T11:54:27Z</time>
      </trkpt>
      <trkpt lat="2.885783" lon="-75.1509">
        <ele>829.7</ele>
        <time>2021-08-21T11:54:29Z</time>
      </trkpt>
      <trkpt lat="2.885841" lon="-75.15092">
        <ele>830.3</ele>
        <time>2021-08-21T11:54:29Z</time>
      </trkpt>
      <trkpt lat="2.885725" lon="-75.150894">
        <ele>829.1</ele>
        <time>2021-08-21T11:54:30Z</time>
      </trkpt>
      <trkpt lat="2.885658" lon="-75.15089">
        <ele>828.5</ele>
        <time>2021-08-21T11:54:31Z</time>
      </trkpt>
      <trkpt lat="2.88559" lon="-75.15088">
        <ele>827.9</ele>
        <time>2021-08-21T11:54:32Z</time>
      </trkpt>
      <trkpt lat="2.885521" lon="-75.15088">
        <ele>827.3</ele>
        <time>2021-08-21T11:54:33Z</time>
      </trkpt>
      <trkpt lat="2.885451" lon="-75.15088">
        <ele>826.7</ele>
        <time>2021-08-21T11:54:34Z</time>
      </trkpt>
      <trkpt lat="2.885381" lon="-75.15088">
        <ele>826.0</ele>
        <time>2021-08-21T11:54:35Z</time>
      </trkpt>
      <trkpt lat="2.885311" lon="-75.15089">
        <ele>825.4</ele>
        <time>2021-08-21T11:54:36Z</time>
      </trkpt>
      <trkpt lat="2.885242" lon="-75.150894">
        <ele>824.8</ele>
        <time>2021-08-21T11:54:37Z</time>
      </trkpt>
      <trkpt lat="2.885106" lon="-75.150925">
        <ele>823.6</ele>
        <time>2021-08-21T11:54:39Z</time>
      </trkpt>
      <trkpt lat="2.885174" lon="-75.15091">
        <ele>824.2</ele>
        <time>2021-08-21T11:54:39Z</time>
      </trkpt>
      <trkpt lat="2.885037" lon="-75.15094">
        <ele>822.9</ele>
        <time>2021-08-21T11:54:40Z</time>
      </trkpt>
      <trkpt lat="2.884966" lon="-75.150955">
        <ele>822.3</ele>
        <time>2021-08-21T11:54:41Z</time>
      </trkpt>
      <trkpt lat="2.884893" lon="-75.15096">
        <ele>821.8</ele>
        <time>2021-08-21T11:54:42Z</time>
      </trkpt>
      <trkpt lat="2.884821" lon="-75.15097">
        <ele>821.3</ele>
        <time>2021-08-21T11:54:43Z</time>
      </trkpt>
      <trkpt lat="2.884748" lon="-75.15097">
        <ele>820.9</ele>
        <time>2021-08-21T11:54:44Z</time>
      </trkpt>
      <trkpt lat="2.884678" lon="-75.15096">
        <ele>820.6</ele>
        <time>2021-08-21T11:54:45Z</time>
      </trkpt>
      <trkpt lat="2.88461" lon="-75.15094">
        <ele>820.4</ele>
        <time>2021-08-21T11:54:46Z</time>
      </trkpt>
      <trkpt lat="2.884546" lon="-75.150925">
        <ele>820.1</ele>
        <time>2021-08-21T11:54:47Z</time>
      </trkpt>
      <trkpt lat="2.884423" lon="-75.15086">
        <ele>819.6</ele>
        <time>2021-08-21T11:54:49Z</time>
      </trkpt>
      <trkpt lat="2.884483" lon="-75.150894">
        <ele>819.8</ele>
        <time>2021-08-21T11:54:49Z</time>
      </trkpt>
      <trkpt lat="2.884364" lon="-75.15084">
        <ele>819.4</ele>
        <time>2021-08-21T11:54:50Z</time>
      </trkpt>
      <trkpt lat="2.884306" lon="-75.15081">
        <ele>819.2</ele>
        <time>2021-08-21T11:54:51Z</time>
      </trkpt>
      <trkpt lat="2.88425" lon="-75.15078">
        <ele>819.2</ele>
        <time>2021-08-21T11:54:52Z</time>
      </trkpt>
      <trkpt lat="2.884143" lon="-75.150734">
        <ele>819.1</ele>
        <time>2021-08-21T11:54:53Z</time>
      </trkpt>
      <trkpt lat="2.884196" lon="-75.15076">
        <ele>819.1</ele>
        <time>2021-08-21T11:54:53Z</time>
      </trkpt>
      <trkpt lat="2.884093" lon="-75.15071">
        <ele>819.2</ele>
        <time>2021-08-21T11:54:54Z</time>
      </trkpt>
      <trkpt lat="2.884046" lon="-75.150696">
        <ele>819.4</ele>
        <time>2021-08-21T11:54:55Z</time>
      </trkpt>
      <trkpt lat="2.884003" lon="-75.15067">
        <ele>819.5</ele>
        <time>2021-08-21T11:54:56Z</time>
      </trkpt>
      <trkpt lat="2.883965" lon="-75.15066">
        <ele>819.6</ele>
        <time>2021-08-21T11:54:57Z</time>
      </trkpt>
      <trkpt lat="2.883931" lon="-75.15064">
        <ele>819.8</ele>
        <time>2021-08-21T11:54:58Z</time>
      </trkpt>
      <trkpt lat="2.8839" lon="-75.15062">
        <ele>820.0</ele>
        <time>2021-08-21T11:54:59Z</time>
      </trkpt>
      <trkpt lat="2.883872" lon="-75.150604">
        <ele>820.1</ele>
        <time>2021-08-21T11:55:00Z</time>
      </trkpt>
      <trkpt lat="2.883845" lon="-75.1506">
        <ele>820.3</ele>
        <time>2021-08-21T11:55:01Z</time>
      </trkpt>
      <trkpt lat="2.883819" lon="-75.15058">
        <ele>820.5</ele>
        <time>2021-08-21T11:55:02Z</time>
      </trkpt>
      <trkpt lat="2.883795" lon="-75.150566">
        <ele>820.7</ele>
        <time>2021-08-21T11:55:03Z</time>
      </trkpt>
      <trkpt lat="2.883771" lon="-75.15055">
        <ele>820.8</ele>
        <time>2021-08-21T11:55:04Z</time>
      </trkpt>
      <trkpt lat="2.883747" lon="-75.15054">
        <ele>821.0</ele>
        <time>2021-08-21T11:55:05Z</time>
      </trkpt>
      <trkpt lat="2.883722" lon="-75.150536">
        <ele>821.2</ele>
        <time>2021-08-21T11:55:06Z</time>
      </trkpt>
      <trkpt lat="2.883697" lon="-75.15053">
        <ele>821.3</ele>
        <time>2021-08-21T11:55:07Z</time>
      </trkpt>
      <trkpt lat="2.883673" lon="-75.15052">
        <ele>821.5</ele>
        <time>2021-08-21T11:55:08Z</time>
      </trkpt>
      <trkpt lat="2.883646" lon="-75.15051">
        <ele>821.7</ele>
        <time>2021-08-21T11:55:09Z</time>
      </trkpt>
      <trkpt lat="2.883621" lon="-75.15051">
        <ele>821.9</ele>
        <time>2021-08-21T11:55:10Z</time>
      </trkpt>
      <trkpt lat="2.883595" lon="-75.150505">
        <ele>822.1</ele>
        <time>2021-08-21T11:55:11Z</time>
      </trkpt>
      <trkpt lat="2.88357" lon="-75.150505">
        <ele>822.3</ele>
        <time>2021-08-21T11:55:12Z</time>
      </trkpt>
      <trkpt lat="2.883545" lon="-75.150505">
        <ele>822.5</ele>
        <time>2021-08-21T11:55:14Z</time>
      </trkpt>
      <trkpt lat="2.883497" lon="-75.150505">
        <ele>822.9</ele>
        <time>2021-08-21T11:55:15Z</time>
      </trkpt>
      <trkpt lat="2.883521" lon="-75.150505">
        <ele>822.7</ele>
        <time>2021-08-21T11:55:15Z</time>
      </trkpt>
      <trkpt lat="2.883475" lon="-75.150505">
        <ele>823.1</ele>
        <time>2021-08-21T11:55:16Z</time>
      </trkpt>
      <trkpt lat="2.883453" lon="-75.150505">
        <ele>823.4</ele>
        <time>2021-08-21T11:55:17Z</time>
      </trkpt>
      <trkpt lat="2.88343" lon="-75.150505">
        <ele>823.6</ele>
        <time>2021-08-21T11:55:18Z</time>
      </trkpt>
      <trkpt lat="2.883409" lon="-75.15051">
        <ele>823.8</ele>
        <time>2021-08-21T11:55:19Z</time>
      </trkpt>
      <trkpt lat="2.883388" lon="-75.15051">
        <ele>824.0</ele>
        <time>2021-08-21T11:55:20Z</time>
      </trkpt>
      <trkpt lat="2.883367" lon="-75.15052">
        <ele>824.2</ele>
        <time>2021-08-21T11:55:21Z</time>
      </trkpt>
      <trkpt lat="2.883347" lon="-75.15052">
        <ele>824.5</ele>
        <time>2021-08-21T11:55:22Z</time>
      </trkpt>
      <trkpt lat="2.883326" lon="-75.15052">
        <ele>824.7</ele>
        <time>2021-08-21T11:55:23Z</time>
      </trkpt>
      <trkpt lat="2.883307" lon="-75.15053">
        <ele>824.9</ele>
        <time>2021-08-21T11:55:24Z</time>
      </trkpt>
      <trkpt lat="2.88327" lon="-75.15053">
        <ele>825.4</ele>
        <time>2021-08-21T11:55:26Z</time>
      </trkpt>
      <trkpt lat="2.883279" lon="-75.15053">
        <ele>825.3</ele>
        <time>2021-08-21T11:55:26Z</time>
      </trkpt>
      <trkpt lat="2.883252" lon="-75.15053">
        <ele>825.6</ele>
        <time>2021-08-21T11:55:27Z</time>
      </trkpt>
      <trkpt lat="2.883236" lon="-75.150536">
        <ele>825.8</ele>
        <time>2021-08-21T11:55:28Z</time>
      </trkpt>
      <trkpt lat="2.88322" lon="-75.150536">
        <ele>826.0</ele>
        <time>2021-08-21T11:55:29Z</time>
      </trkpt>
      <trkpt lat="2.883203" lon="-75.150536">
        <ele>826.2</ele>
        <time>2021-08-21T11:55:30Z</time>
      </trkpt>
      <trkpt lat="2.883188" lon="-75.15054">
        <ele>826.4</ele>
        <time>2021-08-21T11:55:31Z</time>
      </trkpt>
      <trkpt lat="2.883171" lon="-75.15054">
        <ele>826.7</ele>
        <time>2021-08-21T11:55:32Z</time>
      </trkpt>
      <trkpt lat="2.883154" lon="-75.15054">
        <ele>826.9</ele>
        <time>2021-08-21T11:55:33Z</time>
      </trkpt>
      <trkpt lat="2.883137" lon="-75.15055">
        <ele>827.1</ele>
        <time>2021-08-21T11:55:34Z</time>
      </trkpt>
      <trkpt lat="2.88312" lon="-75.15055">
        <ele>827.3</ele>
        <time>2021-08-21T11:55:35Z</time>
      </trkpt>
      <trkpt lat="2.883103" lon="-75.15056">
        <ele>827.6</ele>
        <time>2021-08-21T11:55:36Z</time>
      </trkpt>
      <trkpt lat="2.883071" lon="-75.150566">
        <ele>828.0</ele>
        <time>2021-08-21T11:55:37Z</time>
      </trkpt>
      <trkpt lat="2.883057" lon="-75.150566">
        <ele>828.2</ele>
        <time>2021-08-21T11:55:38Z</time>
      </trkpt>
      <trkpt lat="2.883042" lon="-75.150566">
        <ele>828.4</ele>
        <time>2021-08-21T11:55:39Z</time>
      </trkpt>
      <trkpt lat="2.883028" lon="-75.15057">
        <ele>828.6</ele>
        <time>2021-08-21T11:55:40Z</time>
      </trkpt>
      <trkpt lat="2.883013" lon="-75.15057">
        <ele>828.8</ele>
        <time>2021-08-21T11:55:41Z</time>
      </trkpt>
      <trkpt lat="2.882998" lon="-75.15057">
        <ele>829.0</ele>
        <time>2021-08-21T11:55:42Z</time>
      </trkpt>
      <trkpt lat="2.882984" lon="-75.15058">
        <ele>829.2</ele>
        <time>2021-08-21T11:55:43Z</time>
      </trkpt>
      <trkpt lat="2.882969" lon="-75.15058">
        <ele>829.4</ele>
        <time>2021-08-21T11:55:44Z</time>
      </trkpt>
      <trkpt lat="2.88294" lon="-75.15059">
        <ele>829.8</ele>
        <time>2021-08-21T11:55:46Z</time>
      </trkpt>
      <trkpt lat="2.882955" lon="-75.15058">
        <ele>829.6</ele>
        <time>2021-08-21T11:55:46Z</time>
      </trkpt>
      <trkpt lat="2.882913" lon="-75.1506">
        <ele>830.1</ele>
        <time>2021-08-21T11:55:47Z</time>
      </trkpt>
      <trkpt lat="2.882901" lon="-75.1506">
        <ele>830.3</ele>
        <time>2021-08-21T11:55:48Z</time>
      </trkpt>
      <trkpt lat="2.882889" lon="-75.150604">
        <ele>830.5</ele>
        <time>2021-08-21T11:55:49Z</time>
      </trkpt>
      <trkpt lat="2.882876" lon="-75.150604">
        <ele>830.6</ele>
        <time>2021-08-21T11:55:50Z</time>
      </trkpt>
      <trkpt lat="2.882864" lon="-75.15061">
        <ele>830.8</ele>
        <time>2021-08-21T11:55:51Z</time>
      </trkpt>
      <trkpt lat="2.88284" lon="-75.15062">
        <ele>831.1</ele>
        <time>2021-08-21T11:55:53Z</time>
      </trkpt>
      <trkpt lat="2.882852" lon="-75.15062">
        <ele>831.0</ele>
        <time>2021-08-21T11:55:53Z</time>
      </trkpt>
      <trkpt lat="2.882817" lon="-75.150635">
        <ele>831.5</ele>
        <time>2021-08-21T11:55:54Z</time>
      </trkpt>
      <trkpt lat="2.882806" lon="-75.150635">
        <ele>831.6</ele>
        <time>2021-08-21T11:55:55Z</time>
      </trkpt>
      <trkpt lat="2.882795" lon="-75.150635">
        <ele>831.8</ele>
        <time>2021-08-21T11:55:56Z</time>
      </trkpt>
      <trkpt lat="2.882784" lon="-75.15064">
        <ele>831.9</ele>
        <time>2021-08-21T11:55:57Z</time>
      </trkpt>
      <trkpt lat="2.882773" lon="-75.15064">
        <ele>832.1</ele>
        <time>2021-08-21T11:55:58Z</time>
      </trkpt>
      <trkpt lat="2.882751" lon="-75.15065">
        <ele>832.4</ele>
        <time>2021-08-21T11:56:00Z</time>
      </trkpt>
      <trkpt lat="2.882762" lon="-75.15065">
        <ele>832.2</ele>
        <time>2021-08-21T11:56:00Z</time>
      </trkpt>
      <trkpt lat="2.882729" lon="-75.150665">
        <ele>832.7</ele>
        <time>2021-08-21T11:56:01Z</time>
      </trkpt>
      <trkpt lat="2.882718" lon="-75.15067">
        <ele>832.8</ele>
        <time>2021-08-21T11:56:02Z</time>
      </trkpt>
      <trkpt lat="2.882708" lon="-75.15067">
        <ele>833.0</ele>
        <time>2021-08-21T11:56:03Z</time>
      </trkpt>
      <trkpt lat="2.882698" lon="-75.15068">
        <ele>833.1</ele>
        <time>2021-08-21T11:56:04Z</time>
      </trkpt>
      <trkpt lat="2.882677" lon="-75.150696">
        <ele>833.5</ele>
        <time>2021-08-21T11:56:06Z</time>
      </trkpt>
      <trkpt lat="2.882687" lon="-75.15069">
        <ele>833.3</ele>
        <time>2021-08-21T11:56:06Z</time>
      </trkpt>
      <trkpt lat="2.882654" lon="-75.1507">
        <ele>833.8</ele>
        <time>2021-08-21T11:56:07Z</time>
      </trkpt>
      <trkpt lat="2.882643" lon="-75.15071">
        <ele>834.0</ele>
        <time>2021-08-21T11:56:08Z</time>
      </trkpt>
      <trkpt lat="2.882632" lon="-75.15072">
        <ele>834.1</ele>
        <time>2021-08-21T11:56:09Z</time>
      </trkpt>
      <trkpt lat="2.882621" lon="-75.15073">
        <ele>834.3</ele>
        <time>2021-08-21T11:56:10Z</time>
      </trkpt>
      <trkpt lat="2.88261" lon="-75.15073">
        <ele>834.5</ele>
        <time>2021-08-21T11:56:11Z</time>
      </trkpt>
      <trkpt lat="2.882588" lon="-75.15074">
        <ele>834.8</ele>
        <time>2021-08-21T11:56:13Z</time>
      </trkpt>
      <trkpt lat="2.882599" lon="-75.150734">
        <ele>834.6</ele>
        <time>2021-08-21T11:56:13Z</time>
      </trkpt>
      <trkpt lat="2.882567" lon="-75.15076">
        <ele>835.1</ele>
        <time>2021-08-21T11:56:14Z</time>
      </trkpt>
      <trkpt lat="2.882557" lon="-75.150764">
        <ele>835.3</ele>
        <time>2021-08-21T11:56:15Z</time>
      </trkpt>
      <trkpt lat="2.882548" lon="-75.150764">
        <ele>835.4</ele>
        <time>2021-08-21T11:56:16Z</time>
      </trkpt>
      <trkpt lat="2.882529" lon="-75.15078">
        <ele>835.7</ele>
        <time>2021-08-21T11:56:18Z</time>
      </trkpt>
      <trkpt lat="2.882538" lon="-75.15077">
        <ele>835.6</ele>
        <time>2021-08-21T11:56:18Z</time>
      </trkpt>
      <trkpt lat="2.882505" lon="-75.150795">
        <ele>836.1</ele>
        <time>2021-08-21T11:56:19Z</time>
      </trkpt>
      <trkpt lat="2.882493" lon="-75.1508">
        <ele>836.2</ele>
        <time>2021-08-21T11:56:20Z</time>
      </trkpt>
      <trkpt lat="2.882481" lon="-75.1508">
        <ele>836.4</ele>
        <time>2021-08-21T11:56:21Z</time>
      </trkpt>
      <trkpt lat="2.882469" lon="-75.15081">
        <ele>836.6</ele>
        <time>2021-08-21T11:56:22Z</time>
      </trkpt>
      <trkpt lat="2.882457" lon="-75.15082">
        <ele>836.8</ele>
        <time>2021-08-21T11:56:23Z</time>
      </trkpt>
      <trkpt lat="2.882445" lon="-75.150826">
        <ele>837.0</ele>
        <time>2021-08-21T11:56:24Z</time>
      </trkpt>
      <trkpt lat="2.882433" lon="-75.150826">
        <ele>837.1</ele>
        <time>2021-08-21T11:56:25Z</time>
      </trkpt>
      <trkpt lat="2.882421" lon="-75.15083">
        <ele>837.3</ele>
        <time>2021-08-21T11:56:26Z</time>
      </trkpt>
      <trkpt lat="2.882409" lon="-75.15084">
        <ele>837.5</ele>
        <time>2021-08-21T11:56:27Z</time>
      </trkpt>
      <trkpt lat="2.882397" lon="-75.15085">
        <ele>837.7</ele>
        <time>2021-08-21T11:56:28Z</time>
      </trkpt>
      <trkpt lat="2.882385" lon="-75.15085">
        <ele>837.8</ele>
        <time>2021-08-21T11:56:29Z</time>
      </trkpt>
      <trkpt lat="2.882373" lon="-75.150856">
        <ele>838.0</ele>
        <time>2021-08-21T11:56:30Z</time>
      </trkpt>
      <trkpt lat="2.882361" lon="-75.15086">
        <ele>838.2</ele>
        <time>2021-08-21T11:56:31Z</time>
      </trkpt>
      <trkpt lat="2.882349" lon="-75.15087">
        <ele>838.4</ele>
        <time>2021-08-21T11:56:32Z</time>
      </trkpt>
      <trkpt lat="2.882337" lon="-75.15087">
        <ele>838.5</ele>
        <time>2021-08-21T11:56:33Z</time>
      </trkpt>
      <trkpt lat="2.882313" lon="-75.15089">
        <ele>838.9</ele>
        <time>2021-08-21T11:56:35Z</time>
      </trkpt>
      <trkpt lat="2.882325" lon="-75.15088">
        <ele>838.7</ele>
        <time>2021-08-21T11:56:35Z</time>
      </trkpt>
      <trkpt lat="2.882289" lon="-75.1509">
        <ele>839.2</ele>
        <time>2021-08-21T11:56:36Z</time>
      </trkpt>
      <trkpt lat="2.882278" lon="-75.1509">
        <ele>839.4</ele>
        <time>2021-08-21T11:56:37Z</time>
      </trkpt>
      <trkpt lat="2.882266" lon="-75.15091">
        <ele>839.6</ele>
        <time>2021-08-21T11:56:38Z</time>
      </trkpt>
      <trkpt lat="2.882255" lon="-75.15092">
        <ele>839.7</ele>
        <time>2021-08-21T11:56:39Z</time>
      </trkpt>
      <trkpt lat="2.882243" lon="-75.150925">
        <ele>839.9</ele>
        <time>2021-08-21T11:56:40Z</time>
      </trkpt>
      <trkpt lat="2.882232" lon="-75.15093">
        <ele>840.0</ele>
        <time>2021-08-21T11:56:41Z</time>
      </trkpt>
      <trkpt lat="2.88222" lon="-75.15094">
        <ele>840.2</ele>
        <time>2021-08-21T11:56:42Z</time>
      </trkpt>
      <trkpt lat="2.882209" lon="-75.15095">
        <ele>840.4</ele>
        <time>2021-08-21T11:56:43Z</time>
      </trkpt>
      <trkpt lat="2.882197" lon="-75.15095">
        <ele>840.6</ele>
        <time>2021-08-21T11:56:44Z</time>
      </trkpt>
      <trkpt lat="2.882186" lon="-75.150955">
        <ele>840.7</ele>
        <time>2021-08-21T11:56:45Z</time>
      </trkpt>
      <trkpt lat="2.882174" lon="-75.15096">
        <ele>840.9</ele>
        <time>2021-08-21T11:56:46Z</time>
      </trkpt>
      <trkpt lat="2.882163" lon="-75.15097">
        <ele>841.0</ele>
        <time>2021-08-21T11:56:47Z</time>
      </trkpt>
      <trkpt lat="2.882151" lon="-75.15098">
        <ele>841.2</ele>
        <time>2021-08-21T11:56:48Z</time>
      </trkpt>
      <trkpt lat="2.88214" lon="-75.150986">
        <ele>841.4</ele>
        <time>2021-08-21T11:56:49Z</time>
      </trkpt>
      <trkpt lat="2.882128" lon="-75.15099">
        <ele>841.6</ele>
        <time>2021-08-21T11:56:50Z</time>
      </trkpt>
      <trkpt lat="2.882105" lon="-75.151">
        <ele>841.9</ele>
        <time>2021-08-21T11:56:52Z</time>
      </trkpt>
      <trkpt lat="2.882117" lon="-75.15099">
        <ele>841.7</ele>
        <time>2021-08-21T11:56:52Z</time>
      </trkpt>
      <trkpt lat="2.882083" lon="-75.15102">
        <ele>842.2</ele>
        <time>2021-08-21T11:56:53Z</time>
      </trkpt>
      <trkpt lat="2.882074" lon="-75.151024">
        <ele>842.3</ele>
        <time>2021-08-21T11:56:54Z</time>
      </trkpt>
      <trkpt lat="2.882064" lon="-75.151024">
        <ele>842.5</ele>
        <time>2021-08-21T11:56:55Z</time>
      </trkpt>
      <trkpt lat="2.882054" lon="-75.15103">
        <ele>842.6</ele>
        <time>2021-08-21T11:56:56Z</time>
      </trkpt>
      <trkpt lat="2.882044" lon="-75.15104">
        <ele>842.8</ele>
        <time>2021-08-21T11:56:57Z</time>
      </trkpt>
      <trkpt lat="2.882025" lon="-75.15105">
        <ele>843.0</ele>
        <time>2021-08-21T11:56:59Z</time>
      </trkpt>
      <trkpt lat="2.882035" lon="-75.15105">
        <ele>842.9</ele>
        <time>2021-08-21T11:56:59Z</time>
      </trkpt>
      <trkpt lat="2.882004" lon="-75.15106">
        <ele>843.3</ele>
        <time>2021-08-21T11:57:00Z</time>
      </trkpt>
      <trkpt lat="2.881994" lon="-75.15106">
        <ele>843.5</ele>
        <time>2021-08-21T11:57:01Z</time>
      </trkpt>
      <trkpt lat="2.881985" lon="-75.15107">
        <ele>843.6</ele>
        <time>2021-08-21T11:57:02Z</time>
      </trkpt>
      <trkpt lat="2.881966" lon="-75.15108">
        <ele>843.9</ele>
        <time>2021-08-21T11:57:04Z</time>
      </trkpt>
      <trkpt lat="2.881975" lon="-75.15107">
        <ele>843.7</ele>
        <time>2021-08-21T11:57:04Z</time>
      </trkpt>
      <trkpt lat="2.881941" lon="-75.151085">
        <ele>844.2</ele>
        <time>2021-08-21T11:57:05Z</time>
      </trkpt>
      <trkpt lat="2.88193" lon="-75.15109">
        <ele>844.3</ele>
        <time>2021-08-21T11:57:06Z</time>
      </trkpt>
      <trkpt lat="2.881918" lon="-75.15109">
        <ele>844.5</ele>
        <time>2021-08-21T11:57:07Z</time>
      </trkpt>
      <trkpt lat="2.881906" lon="-75.1511">
        <ele>844.6</ele>
        <time>2021-08-21T11:57:08Z</time>
      </trkpt>
      <trkpt lat="2.881894" lon="-75.15111">
        <ele>844.8</ele>
        <time>2021-08-21T11:57:09Z</time>
      </trkpt>
      <trkpt lat="2.881871" lon="-75.151115">
        <ele>845.1</ele>
        <time>2021-08-21T11:57:11Z</time>
      </trkpt>
      <trkpt lat="2.881883" lon="-75.15111">
        <ele>844.9</ele>
        <time>2021-08-21T11:57:11Z</time>
      </trkpt>
      <trkpt lat="2.881846" lon="-75.15112">
        <ele>845.4</ele>
        <time>2021-08-21T11:57:12Z</time>
      </trkpt>
      <trkpt lat="2.881834" lon="-75.15113">
        <ele>845.5</ele>
        <time>2021-08-21T11:57:13Z</time>
      </trkpt>
      <trkpt lat="2.881822" lon="-75.15113">
        <ele>845.7</ele>
        <time>2021-08-21T11:57:14Z</time>
      </trkpt>
      <trkpt lat="2.881811" lon="-75.15114">
        <ele>845.8</ele>
        <time>2021-08-21T11:57:15Z</time>
      </trkpt>
      <trkpt lat="2.881799" lon="-75.15114">
        <ele>845.9</ele>
        <time>2021-08-21T11:57:16Z</time>
      </trkpt>
      <trkpt lat="2.881775" lon="-75.15115">
        <ele>846.2</ele>
        <time>2021-08-21T11:57:18Z</time>
      </trkpt>
      <trkpt lat="2.881787" lon="-75.151146">
        <ele>846.0</ele>
        <time>2021-08-21T11:57:18Z</time>
      </trkpt>
      <trkpt lat="2.881749" lon="-75.15116">
        <ele>846.5</ele>
        <time>2021-08-21T11:57:19Z</time>
      </trkpt>
      <trkpt lat="2.881737" lon="-75.15116">
        <ele>846.6</ele>
        <time>2021-08-21T11:57:20Z</time>
      </trkpt>
      <trkpt lat="2.881725" lon="-75.15117">
        <ele>846.7</ele>
        <time>2021-08-21T11:57:21Z</time>
      </trkpt>
      <trkpt lat="2.881701" lon="-75.15118">
        <ele>846.9</ele>
        <time>2021-08-21T11:57:23Z</time>
      </trkpt>
      <trkpt lat="2.881713" lon="-75.15117">
        <ele>846.8</ele>
        <time>2021-08-21T11:57:23Z</time>
      </trkpt>
      <trkpt lat="2.881685" lon="-75.151184">
        <ele>847.0</ele>
        <time>2021-08-21T11:57:24Z</time>
      </trkpt>
      <trkpt lat="2.881669" lon="-75.151184">
        <ele>847.1</ele>
        <time>2021-08-21T11:57:25Z</time>
      </trkpt>
      <trkpt lat="2.881653" lon="-75.15119">
        <ele>847.3</ele>
        <time>2021-08-21T11:57:26Z</time>
      </trkpt>
      <trkpt lat="2.881635" lon="-75.1512">
        <ele>847.4</ele>
        <time>2021-08-21T11:57:27Z</time>
      </trkpt>
      <trkpt lat="2.881618" lon="-75.15121">
        <ele>847.5</ele>
        <time>2021-08-21T11:57:28Z</time>
      </trkpt>
      <trkpt lat="2.881598" lon="-75.151215">
        <ele>847.7</ele>
        <time>2021-08-21T11:57:29Z</time>
      </trkpt>
      <trkpt lat="2.881579" lon="-75.151215">
        <ele>847.8</ele>
        <time>2021-08-21T11:57:30Z</time>
      </trkpt>
      <trkpt lat="2.881561" lon="-75.151215">
        <ele>847.9</ele>
        <time>2021-08-21T11:57:31Z</time>
      </trkpt>
      <trkpt lat="2.881541" lon="-75.151215">
        <ele>848.1</ele>
        <time>2021-08-21T11:57:32Z</time>
      </trkpt>
      <trkpt lat="2.881523" lon="-75.151215">
        <ele>848.2</ele>
        <time>2021-08-21T11:57:33Z</time>
      </trkpt>
      <trkpt lat="2.881503" lon="-75.151215">
        <ele>848.3</ele>
        <time>2021-08-21T11:57:34Z</time>
      </trkpt>
      <trkpt lat="2.881466" lon="-75.1512">
        <ele>848.5</ele>
        <time>2021-08-21T11:57:36Z</time>
      </trkpt>
      <trkpt lat="2.881476" lon="-75.15121">
        <ele>848.5</ele>
        <time>2021-08-21T11:57:36Z</time>
      </trkpt>
      <trkpt lat="2.881449" lon="-75.15119">
        <ele>848.6</ele>
        <time>2021-08-21T11:57:37Z</time>
      </trkpt>
      <trkpt lat="2.881433" lon="-75.15118">
        <ele>848.7</ele>
        <time>2021-08-21T11:57:38Z</time>
      </trkpt>
      <trkpt lat="2.881418" lon="-75.15117">
        <ele>848.8</ele>
        <time>2021-08-21T11:57:39Z</time>
      </trkpt>
      <trkpt lat="2.881405" lon="-75.15115">
        <ele>848.8</ele>
        <time>2021-08-21T11:57:40Z</time>
      </trkpt>
      <trkpt lat="2.881394" lon="-75.15114">
        <ele>848.9</ele>
        <time>2021-08-21T11:57:41Z</time>
      </trkpt>
      <trkpt lat="2.881374" lon="-75.15111">
        <ele>849.0</ele>
        <time>2021-08-21T11:57:43Z</time>
      </trkpt>
      <trkpt lat="2.881379" lon="-75.151115">
        <ele>849.0</ele>
        <time>2021-08-21T11:57:43Z</time>
      </trkpt>
      <trkpt lat="2.881365" lon="-75.151085">
        <ele>849.1</ele>
        <time>2021-08-21T11:57:44Z</time>
      </trkpt>
      <trkpt lat="2.881357" lon="-75.15107">
        <ele>849.1</ele>
        <time>2021-08-21T11:57:45Z</time>
      </trkpt>
      <trkpt lat="2.881352" lon="-75.15105">
        <ele>849.1</ele>
        <time>2021-08-21T11:57:46Z</time>
      </trkpt>
      <trkpt lat="2.88135" lon="-75.151024">
        <ele>849.2</ele>
        <time>2021-08-21T11:57:47Z</time>
      </trkpt>
      <trkpt lat="2.881348" lon="-75.151">
        <ele>849.2</ele>
        <time>2021-08-21T11:57:48Z</time>
      </trkpt>
      <trkpt lat="2.881346" lon="-75.150955">
        <ele>849.2</ele>
        <time>2021-08-21T11:57:50Z</time>
      </trkpt>
      <trkpt lat="2.881347" lon="-75.15096">
        <ele>849.2</ele>
        <time>2021-08-21T11:57:50Z</time>
      </trkpt>
      <trkpt lat="2.881344" lon="-75.15093">
        <ele>849.2</ele>
        <time>2021-08-21T11:57:51Z</time>
      </trkpt>
      <trkpt lat="2.88134" lon="-75.1509">
        <ele>849.2</ele>
        <time>2021-08-21T11:57:52Z</time>
      </trkpt>
      <trkpt lat="2.881336" lon="-75.15088">
        <ele>849.1</ele>
        <time>2021-08-21T11:57:53Z</time>
      </trkpt>
      <trkpt lat="2.881332" lon="-75.150856">
        <ele>849.1</ele>
        <time>2021-08-21T11:57:54Z</time>
      </trkpt>
      <trkpt lat="2.881327" lon="-75.15083">
        <ele>849.0</ele>
        <time>2021-08-21T11:57:55Z</time>
      </trkpt>
      <trkpt lat="2.881313" lon="-75.15078">
        <ele>848.9</ele>
        <time>2021-08-21T11:57:57Z</time>
      </trkpt>
      <trkpt lat="2.881317" lon="-75.150795">
        <ele>849.0</ele>
        <time>2021-08-21T11:57:57Z</time>
      </trkpt>
      <trkpt lat="2.881305" lon="-75.15076">
        <ele>848.9</ele>
        <time>2021-08-21T11:57:58Z</time>
      </trkpt>
      <trkpt lat="2.881296" lon="-75.150734">
        <ele>848.8</ele>
        <time>2021-08-21T11:57:59Z</time>
      </trkpt>
      <trkpt lat="2.881286" lon="-75.15071">
        <ele>848.7</ele>
        <time>2021-08-21T11:58:00Z</time>
      </trkpt>
      <trkpt lat="2.881276" lon="-75.15068">
        <ele>848.6</ele>
        <time>2021-08-21T11:58:01Z</time>
      </trkpt>
      <trkpt lat="2.88126" lon="-75.150635">
        <ele>848.4</ele>
        <time>2021-08-21T11:58:03Z</time>
      </trkpt>
      <trkpt lat="2.881254" lon="-75.15063">
        <ele>848.3</ele>
        <time>2021-08-21T11:58:03Z</time>
      </trkpt>
      <trkpt lat="2.881242" lon="-75.1506">
        <ele>848.2</ele>
        <time>2021-08-21T11:58:04Z</time>
      </trkpt>
      <trkpt lat="2.88123" lon="-75.15057">
        <ele>848.0</ele>
        <time>2021-08-21T11:58:05Z</time>
      </trkpt>
      <trkpt lat="2.881217" lon="-75.15054">
        <ele>847.8</ele>
        <time>2021-08-21T11:58:06Z</time>
      </trkpt>
      <trkpt lat="2.881202" lon="-75.15051">
        <ele>847.6</ele>
        <time>2021-08-21T11:58:07Z</time>
      </trkpt>
      <trkpt lat="2.881188" lon="-75.15048">
        <ele>847.4</ele>
        <time>2021-08-21T11:58:08Z</time>
      </trkpt>
      <trkpt lat="2.881164" lon="-75.15041">
        <ele>846.8</ele>
        <time>2021-08-21T11:58:10Z</time>
      </trkpt>
      <trkpt lat="2.881175" lon="-75.15045">
        <ele>847.1</ele>
        <time>2021-08-21T11:58:10Z</time>
      </trkpt>
      <trkpt lat="2.881158" lon="-75.150375">
        <ele>846.4</ele>
        <time>2021-08-21T11:58:11Z</time>
      </trkpt>
      <trkpt lat="2.881156" lon="-75.15033">
        <ele>846.1</ele>
        <time>2021-08-21T11:58:12Z</time>
      </trkpt>
      <trkpt lat="2.881157" lon="-75.15028">
        <ele>845.7</ele>
        <time>2021-08-21T11:58:13Z</time>
      </trkpt>
      <trkpt lat="2.88116" lon="-75.15023">
        <ele>845.2</ele>
        <time>2021-08-21T11:58:14Z</time>
      </trkpt>
      <trkpt lat="2.881164" lon="-75.150185">
        <ele>844.8</ele>
        <time>2021-08-21T11:58:15Z</time>
      </trkpt>
      <trkpt lat="2.88117" lon="-75.15013">
        <ele>844.5</ele>
        <time>2021-08-21T11:58:16Z</time>
      </trkpt>
      <trkpt lat="2.881181" lon="-75.15008">
        <ele>844.1</ele>
        <time>2021-08-21T11:58:17Z</time>
      </trkpt>
      <trkpt lat="2.881196" lon="-75.150024">
        <ele>843.7</ele>
        <time>2021-08-21T11:58:18Z</time>
      </trkpt>
      <trkpt lat="2.881215" lon="-75.14997">
        <ele>843.4</ele>
        <time>2021-08-21T11:58:19Z</time>
      </trkpt>
      <trkpt lat="2.881238" lon="-75.14992">
        <ele>843.1</ele>
        <time>2021-08-21T11:58:20Z</time>
      </trkpt>
      <trkpt lat="2.881262" lon="-75.149864">
        <ele>842.8</ele>
        <time>2021-08-21T11:58:21Z</time>
      </trkpt>
      <trkpt lat="2.881287" lon="-75.14981">
        <ele>842.6</ele>
        <time>2021-08-21T11:58:22Z</time>
      </trkpt>
      <trkpt lat="2.881312" lon="-75.14976">
        <ele>842.4</ele>
        <time>2021-08-21T11:58:23Z</time>
      </trkpt>
      <trkpt lat="2.881335" lon="-75.149704">
        <ele>842.3</ele>
        <time>2021-08-21T11:58:24Z</time>
      </trkpt>
      <trkpt lat="2.881357" lon="-75.14966">
        <ele>842.3</ele>
        <time>2021-08-21T11:58:25Z</time>
      </trkpt>
      <trkpt lat="2.881378" lon="-75.149605">
        <ele>842.2</ele>
        <time>2021-08-21T11:58:26Z</time>
      </trkpt>
      <trkpt lat="2.881398" lon="-75.14957">
        <ele>842.2</ele>
        <time>2021-08-21T11:58:28Z</time>
      </trkpt>
      <trkpt lat="2.881417" lon="-75.14952">
        <ele>842.2</ele>
        <time>2021-08-21T11:58:28Z</time>
      </trkpt>
      <trkpt lat="2.881435" lon="-75.149475">
        <ele>842.3</ele>
        <time>2021-08-21T11:58:29Z</time>
      </trkpt>
      <trkpt lat="2.88145" lon="-75.14944">
        <ele>842.3</ele>
        <time>2021-08-21T11:58:30Z</time>
      </trkpt>
      <trkpt lat="2.881463" lon="-75.1494">
        <ele>842.3</ele>
        <time>2021-08-21T11:58:31Z</time>
      </trkpt>
      <trkpt lat="2.881472" lon="-75.14936">
        <ele>842.3</ele>
        <time>2021-08-21T11:58:32Z</time>
      </trkpt>
      <trkpt lat="2.881477" lon="-75.14932">
        <ele>842.3</ele>
        <time>2021-08-21T11:58:33Z</time>
      </trkpt>
      <trkpt lat="2.88148" lon="-75.14928">
        <ele>842.3</ele>
        <time>2021-08-21T11:58:35Z</time>
      </trkpt>
      <trkpt lat="2.88148" lon="-75.149254">
        <ele>842.3</ele>
        <time>2021-08-21T11:58:35Z</time>
      </trkpt>
      <trkpt lat="2.88148" lon="-75.14922">
        <ele>842.3</ele>
        <time>2021-08-21T11:58:36Z</time>
      </trkpt>
      <trkpt lat="2.881481" lon="-75.14919">
        <ele>842.3</ele>
        <time>2021-08-21T11:58:37Z</time>
      </trkpt>
      <trkpt lat="2.881482" lon="-75.14916">
        <ele>842.3</ele>
        <time>2021-08-21T11:58:38Z</time>
      </trkpt>
      <trkpt lat="2.881483" lon="-75.149124">
        <ele>842.3</ele>
        <time>2021-08-21T11:58:39Z</time>
      </trkpt>
      <trkpt lat="2.881483" lon="-75.14909">
        <ele>842.3</ele>
        <time>2021-08-21T11:58:40Z</time>
      </trkpt>
      <trkpt lat="2.881488" lon="-75.14904">
        <ele>842.3</ele>
        <time>2021-08-21T11:58:42Z</time>
      </trkpt>
      <trkpt lat="2.88149" lon="-75.149025">
        <ele>842.4</ele>
        <time>2021-08-21T11:58:42Z</time>
      </trkpt>
      <trkpt lat="2.881496" lon="-75.14899">
        <ele>842.4</ele>
        <time>2021-08-21T11:58:43Z</time>
      </trkpt>
      <trkpt lat="2.881504" lon="-75.14896">
        <ele>842.4</ele>
        <time>2021-08-21T11:58:44Z</time>
      </trkpt>
      <trkpt lat="2.881515" lon="-75.14892">
        <ele>842.5</ele>
        <time>2021-08-21T11:58:45Z</time>
      </trkpt>
      <trkpt lat="2.881528" lon="-75.14889">
        <ele>842.6</ele>
        <time>2021-08-21T11:58:46Z</time>
      </trkpt>
      <trkpt lat="2.881542" lon="-75.14886">
        <ele>842.7</ele>
        <time>2021-08-21T11:58:47Z</time>
      </trkpt>
      <trkpt lat="2.881568" lon="-75.14882">
        <ele>842.8</ele>
        <time>2021-08-21T11:58:49Z</time>
      </trkpt>
      <trkpt lat="2.881576" lon="-75.1488">
        <ele>842.9</ele>
        <time>2021-08-21T11:58:49Z</time>
      </trkpt>
      <trkpt lat="2.881596" lon="-75.14878">
        <ele>843.0</ele>
        <time>2021-08-21T11:58:50Z</time>
      </trkpt>
      <trkpt lat="2.881618" lon="-75.148766">
        <ele>843.1</ele>
        <time>2021-08-21T11:58:51Z</time>
      </trkpt>
      <trkpt lat="2.881641" lon="-75.14874">
        <ele>843.2</ele>
        <time>2021-08-21T11:58:52Z</time>
      </trkpt>
      <trkpt lat="2.881664" lon="-75.14872">
        <ele>843.3</ele>
        <time>2021-08-21T11:58:53Z</time>
      </trkpt>
      <trkpt lat="2.881688" lon="-75.1487">
        <ele>843.4</ele>
        <time>2021-08-21T11:58:54Z</time>
      </trkpt>
      <trkpt lat="2.881711" lon="-75.14868">
        <ele>843.5</ele>
        <time>2021-08-21T11:58:55Z</time>
      </trkpt>
      <trkpt lat="2.881733" lon="-75.14866">
        <ele>843.6</ele>
        <time>2021-08-21T11:58:56Z</time>
      </trkpt>
      <trkpt lat="2.881755" lon="-75.148636">
        <ele>843.8</ele>
        <time>2021-08-21T11:58:57Z</time>
      </trkpt>
      <trkpt lat="2.881776" lon="-75.14861">
        <ele>843.9</ele>
        <time>2021-08-21T11:58:58Z</time>
      </trkpt>
      <trkpt lat="2.881795" lon="-75.14859">
        <ele>843.9</ele>
        <time>2021-08-21T11:58:59Z</time>
      </trkpt>
      <trkpt lat="2.881812" lon="-75.14857">
        <ele>844.0</ele>
        <time>2021-08-21T11:59:00Z</time>
      </trkpt>
      <trkpt lat="2.881827" lon="-75.148544">
        <ele>844.0</ele>
        <time>2021-08-21T11:59:01Z</time>
      </trkpt>
      <trkpt lat="2.881841" lon="-75.14852">
        <ele>844.1</ele>
        <time>2021-08-21T11:59:02Z</time>
      </trkpt>
      <trkpt lat="2.881854" lon="-75.14849">
        <ele>844.1</ele>
        <time>2021-08-21T11:59:03Z</time>
      </trkpt>
      <trkpt lat="2.881866" lon="-75.14847">
        <ele>844.1</ele>
        <time>2021-08-21T11:59:04Z</time>
      </trkpt>
      <trkpt lat="2.881878" lon="-75.14844">
        <ele>844.1</ele>
        <time>2021-08-21T11:59:05Z</time>
      </trkpt>
      <trkpt lat="2.881889" lon="-75.14841">
        <ele>844.0</ele>
        <time>2021-08-21T11:59:06Z</time>
      </trkpt>
      <trkpt lat="2.881901" lon="-75.14838">
        <ele>844.0</ele>
        <time>2021-08-21T11:59:07Z</time>
      </trkpt>
      <trkpt lat="2.881914" lon="-75.148346">
        <ele>843.9</ele>
        <time>2021-08-21T11:59:08Z</time>
      </trkpt>
      <trkpt lat="2.881927" lon="-75.148315">
        <ele>843.8</ele>
        <time>2021-08-21T11:59:08Z</time>
      </trkpt>
      <trkpt lat="2.881943" lon="-75.14828">
        <ele>843.6</ele>
        <time>2021-08-21T11:59:09Z</time>
      </trkpt>
      <trkpt lat="2.881958" lon="-75.14825">
        <ele>843.5</ele>
        <time>2021-08-21T11:59:10Z</time>
      </trkpt>
      <trkpt lat="2.881978" lon="-75.14821">
        <ele>843.2</ele>
        <time>2021-08-21T11:59:11Z</time>
      </trkpt>
      <trkpt lat="2.881998" lon="-75.14817">
        <ele>843.0</ele>
        <time>2021-08-21T11:59:12Z</time>
      </trkpt>
      <trkpt lat="2.882016" lon="-75.14813">
        <ele>842.8</ele>
        <time>2021-08-21T11:59:13Z</time>
      </trkpt>
      <trkpt lat="2.882033" lon="-75.14809">
        <ele>842.5</ele>
        <time>2021-08-21T11:59:14Z</time>
      </trkpt>
      <trkpt lat="2.882048" lon="-75.14804">
        <ele>842.3</ele>
        <time>2021-08-21T11:59:15Z</time>
      </trkpt>
      <trkpt lat="2.882063" lon="-75.147995">
        <ele>841.9</ele>
        <time>2021-08-21T11:59:16Z</time>
      </trkpt>
      <trkpt lat="2.882076" lon="-75.14794">
        <ele>841.6</ele>
        <time>2021-08-21T11:59:17Z</time>
      </trkpt>
      <trkpt lat="2.882088" lon="-75.147896">
        <ele>841.3</ele>
        <time>2021-08-21T11:59:19Z</time>
      </trkpt>
      <trkpt lat="2.882097" lon="-75.14784">
        <ele>840.9</ele>
        <time>2021-08-21T11:59:19Z</time>
      </trkpt>
      <trkpt lat="2.882105" lon="-75.14779">
        <ele>840.6</ele>
        <time>2021-08-21T11:59:20Z</time>
      </trkpt>
      <trkpt lat="2.88211" lon="-75.14773">
        <ele>840.3</ele>
        <time>2021-08-21T11:59:21Z</time>
      </trkpt>
      <trkpt lat="2.882109" lon="-75.147675">
        <ele>840.0</ele>
        <time>2021-08-21T11:59:22Z</time>
      </trkpt>
      <trkpt lat="2.882102" lon="-75.14762">
        <ele>839.7</ele>
        <time>2021-08-21T11:59:23Z</time>
      </trkpt>
      <trkpt lat="2.882087" lon="-75.14757">
        <ele>839.4</ele>
        <time>2021-08-21T11:59:24Z</time>
      </trkpt>
      <trkpt lat="2.882029" lon="-75.147484">
        <ele>839.0</ele>
        <time>2021-08-21T11:59:26Z</time>
      </trkpt>
      <trkpt lat="2.882062" lon="-75.14752">
        <ele>839.2</ele>
        <time>2021-08-21T11:59:26Z</time>
      </trkpt>
      <trkpt lat="2.88199" lon="-75.14745">
        <ele>838.9</ele>
        <time>2021-08-21T11:59:27Z</time>
      </trkpt>
      <trkpt lat="2.881945" lon="-75.14743">
        <ele>838.7</ele>
        <time>2021-08-21T11:59:28Z</time>
      </trkpt>
      <trkpt lat="2.881898" lon="-75.147415">
        <ele>838.6</ele>
        <time>2021-08-21T11:59:29Z</time>
      </trkpt>
      <trkpt lat="2.881852" lon="-75.14741">
        <ele>838.4</ele>
        <time>2021-08-21T11:59:30Z</time>
      </trkpt>
      <trkpt lat="2.8818" lon="-75.147415">
        <ele>838.3</ele>
        <time>2021-08-21T11:59:31Z</time>
      </trkpt>
      <trkpt lat="2.881748" lon="-75.14742">
        <ele>838.2</ele>
        <time>2021-08-21T11:59:32Z</time>
      </trkpt>
      <trkpt lat="2.881697" lon="-75.14742">
        <ele>838.1</ele>
        <time>2021-08-21T11:59:33Z</time>
      </trkpt>
      <trkpt lat="2.881648" lon="-75.14743">
        <ele>838.0</ele>
        <time>2021-08-21T11:59:34Z</time>
      </trkpt>
      <trkpt lat="2.8816" lon="-75.14743">
        <ele>838.0</ele>
        <time>2021-08-21T11:59:35Z</time>
      </trkpt>
      <trkpt lat="2.881552" lon="-75.14743">
        <ele>837.9</ele>
        <time>2021-08-21T11:59:36Z</time>
      </trkpt>
      <trkpt lat="2.881505" lon="-75.14743">
        <ele>837.9</ele>
        <time>2021-08-21T11:59:37Z</time>
      </trkpt>
      <trkpt lat="2.881462" lon="-75.14743">
        <ele>837.9</ele>
        <time>2021-08-21T11:59:38Z</time>
      </trkpt>
      <trkpt lat="2.881421" lon="-75.14743">
        <ele>837.9</ele>
        <time>2021-08-21T11:59:39Z</time>
      </trkpt>
      <trkpt lat="2.881381" lon="-75.14742">
        <ele>837.9</ele>
        <time>2021-08-21T11:59:40Z</time>
      </trkpt>
      <trkpt lat="2.881342" lon="-75.14742">
        <ele>837.9</ele>
        <time>2021-08-21T11:59:41Z</time>
      </trkpt>
      <trkpt lat="2.881261" lon="-75.147415">
        <ele>838.0</ele>
        <time>2021-08-21T11:59:43Z</time>
      </trkpt>
      <trkpt lat="2.881302" lon="-75.14742">
        <ele>838.0</ele>
        <time>2021-08-21T11:59:43Z</time>
      </trkpt>
      <trkpt lat="2.881225" lon="-75.147415">
        <ele>838.1</ele>
        <time>2021-08-21T11:59:44Z</time>
      </trkpt>
      <trkpt lat="2.881158" lon="-75.1474">
        <ele>838.3</ele>
        <time>2021-08-21T11:59:46Z</time>
      </trkpt>
      <trkpt lat="2.881174" lon="-75.1474">
        <ele>838.2</ele>
        <time>2021-08-21T11:59:46Z</time>
      </trkpt>
      <trkpt lat="2.881129" lon="-75.14739">
        <ele>838.4</ele>
        <time>2021-08-21T11:59:47Z</time>
      </trkpt>
      <trkpt lat="2.8811" lon="-75.14738">
        <ele>838.5</ele>
        <time>2021-08-21T11:59:48Z</time>
      </trkpt>
      <trkpt lat="2.881073" lon="-75.14737">
        <ele>838.6</ele>
        <time>2021-08-21T11:59:49Z</time>
      </trkpt>
      <trkpt lat="2.881046" lon="-75.147354">
        <ele>838.7</ele>
        <time>2021-08-21T11:59:50Z</time>
      </trkpt>
      <trkpt lat="2.881018" lon="-75.14735">
        <ele>838.9</ele>
        <time>2021-08-21T11:59:51Z</time>
      </trkpt>
      <trkpt lat="2.880963" lon="-75.14732">
        <ele>839.2</ele>
        <time>2021-08-21T11:59:53Z</time>
      </trkpt>
      <trkpt lat="2.880977" lon="-75.14733">
        <ele>839.2</ele>
        <time>2021-08-21T11:59:53Z</time>
      </trkpt>
      <trkpt lat="2.880937" lon="-75.14731">
        <ele>839.4</ele>
        <time>2021-08-21T11:59:54Z</time>
      </trkpt>
      <trkpt lat="2.880913" lon="-75.1473">
        <ele>839.6</ele>
        <time>2021-08-21T11:59:55Z</time>
      </trkpt>
      <trkpt lat="2.880889" lon="-75.147285">
        <ele>839.8</ele>
        <time>2021-08-21T11:59:56Z</time>
      </trkpt>
      <trkpt lat="2.880866" lon="-75.14728">
        <ele>840.0</ele>
        <time>2021-08-21T11:59:57Z</time>
      </trkpt>
      <trkpt lat="2.880844" lon="-75.14726">
        <ele>840.3</ele>
        <time>2021-08-21T11:59:58Z</time>
      </trkpt>
      <trkpt lat="2.880802" lon="-75.14724">
        <ele>840.8</ele>
        <time>2021-08-21T12:00:00Z</time>
      </trkpt>
      <trkpt lat="2.880813" lon="-75.14725">
        <ele>840.6</ele>
        <time>2021-08-21T12:00:00Z</time>
      </trkpt>
      <trkpt lat="2.880783" lon="-75.147224">
        <ele>841.0</ele>
        <time>2021-08-21T12:00:01Z</time>
      </trkpt>
      <trkpt lat="2.880763" lon="-75.14721">
        <ele>841.3</ele>
        <time>2021-08-21T12:00:02Z</time>
      </trkpt>
      <trkpt lat="2.880744" lon="-75.1472">
        <ele>841.6</ele>
        <time>2021-08-21T12:00:03Z</time>
      </trkpt>
      <trkpt lat="2.880726" lon="-75.14719">
        <ele>841.8</ele>
        <time>2021-08-21T12:00:04Z</time>
      </trkpt>
      <trkpt lat="2.880691" lon="-75.147156">
        <ele>842.3</ele>
        <time>2021-08-21T12:00:06Z</time>
      </trkpt>
      <trkpt lat="2.880699" lon="-75.14716">
        <ele>842.2</ele>
        <time>2021-08-21T12:00:06Z</time>
      </trkpt>
      <trkpt lat="2.880674" lon="-75.14714">
        <ele>842.6</ele>
        <time>2021-08-21T12:00:07Z</time>
      </trkpt>
      <trkpt lat="2.880658" lon="-75.147125">
        <ele>842.8</ele>
        <time>2021-08-21T12:00:08Z</time>
      </trkpt>
      <trkpt lat="2.880642" lon="-75.14712">
        <ele>843.0</ele>
        <time>2021-08-21T12:00:09Z</time>
      </trkpt>
      <trkpt lat="2.880625" lon="-75.14711">
        <ele>843.2</ele>
        <time>2021-08-21T12:00:10Z</time>
      </trkpt>
      <trkpt lat="2.880607" lon="-75.1471">
        <ele>843.4</ele>
        <time>2021-08-21T12:00:11Z</time>
      </trkpt>
      <trkpt lat="2.880589" lon="-75.147095">
        <ele>843.6</ele>
        <time>2021-08-21T12:00:12Z</time>
      </trkpt>
      <trkpt lat="2.88057" lon="-75.14709">
        <ele>843.8</ele>
        <time>2021-08-21T12:00:13Z</time>
      </trkpt>
      <trkpt lat="2.880552" lon="-75.14708">
        <ele>844.0</ele>
        <time>2021-08-21T12:00:14Z</time>
      </trkpt>
      <trkpt lat="2.880533" lon="-75.147064">
        <ele>844.2</ele>
        <time>2021-08-21T12:00:15Z</time>
      </trkpt>
      <trkpt lat="2.880513" lon="-75.14706">
        <ele>844.4</ele>
        <time>2021-08-21T12:00:16Z</time>
      </trkpt>
      <trkpt lat="2.880493" lon="-75.14705">
        <ele>844.6</ele>
        <time>2021-08-21T12:00:17Z</time>
      </trkpt>
      <trkpt lat="2.880472" lon="-75.14704">
        <ele>844.7</ele>
        <time>2021-08-21T12:00:18Z</time>
      </trkpt>
      <trkpt lat="2.880451" lon="-75.14704">
        <ele>844.9</ele>
        <time>2021-08-21T12:00:19Z</time>
      </trkpt>
      <trkpt lat="2.880432" lon="-75.14703">
        <ele>845.1</ele>
        <time>2021-08-21T12:00:20Z</time>
      </trkpt>
      <trkpt lat="2.880413" lon="-75.147026">
        <ele>845.2</ele>
        <time>2021-08-21T12:00:21Z</time>
      </trkpt>
      <trkpt lat="2.880393" lon="-75.14702">
        <ele>845.4</ele>
        <time>2021-08-21T12:00:22Z</time>
      </trkpt>
      <trkpt lat="2.880354" lon="-75.147">
        <ele>845.7</ele>
        <time>2021-08-21T12:00:24Z</time>
      </trkpt>
      <trkpt lat="2.880364" lon="-75.147">
        <ele>845.6</ele>
        <time>2021-08-21T12:00:24Z</time>
      </trkpt>
      <trkpt lat="2.880336" lon="-75.146996">
        <ele>845.8</ele>
        <time>2021-08-21T12:00:25Z</time>
      </trkpt>
      <trkpt lat="2.880318" lon="-75.14699">
        <ele>846.0</ele>
        <time>2021-08-21T12:00:26Z</time>
      </trkpt>
      <trkpt lat="2.8803" lon="-75.14697">
        <ele>846.1</ele>
        <time>2021-08-21T12:00:27Z</time>
      </trkpt>
      <trkpt lat="2.880283" lon="-75.146965">
        <ele>846.2</ele>
        <time>2021-08-21T12:00:28Z</time>
      </trkpt>
      <trkpt lat="2.880266" lon="-75.14696">
        <ele>846.3</ele>
        <time>2021-08-21T12:00:29Z</time>
      </trkpt>
      <trkpt lat="2.880231" lon="-75.14694">
        <ele>846.6</ele>
        <time>2021-08-21T12:00:31Z</time>
      </trkpt>
      <trkpt lat="2.88024" lon="-75.14695">
        <ele>846.5</ele>
        <time>2021-08-21T12:00:31Z</time>
      </trkpt>
      <trkpt lat="2.880213" lon="-75.146935">
        <ele>846.7</ele>
        <time>2021-08-21T12:00:32Z</time>
      </trkpt>
      <trkpt lat="2.880176" lon="-75.14691">
        <ele>847.0</ele>
        <time>2021-08-21T12:00:34Z</time>
      </trkpt>
      <trkpt lat="2.880186" lon="-75.14692">
        <ele>846.9</ele>
        <time>2021-08-21T12:00:34Z</time>
      </trkpt>
      <trkpt lat="2.880158" lon="-75.146904">
        <ele>847.1</ele>
        <time>2021-08-21T12:00:35Z</time>
      </trkpt>
      <trkpt lat="2.880139" lon="-75.1469">
        <ele>847.2</ele>
        <time>2021-08-21T12:00:36Z</time>
      </trkpt>
      <trkpt lat="2.8801" lon="-75.14689">
        <ele>847.5</ele>
        <time>2021-08-21T12:00:38Z</time>
      </trkpt>
      <trkpt lat="2.88011" lon="-75.14689">
        <ele>847.4</ele>
        <time>2021-08-21T12:00:38Z</time>
      </trkpt>
      <trkpt lat="2.880081" lon="-75.14688">
        <ele>847.6</ele>
        <time>2021-08-21T12:00:39Z</time>
      </trkpt>
      <trkpt lat="2.880061" lon="-75.14687">
        <ele>847.7</ele>
        <time>2021-08-21T12:00:40Z</time>
      </trkpt>
      <trkpt lat="2.88004" lon="-75.146866">
        <ele>847.9</ele>
        <time>2021-08-21T12:00:41Z</time>
      </trkpt>
      <trkpt lat="2.88002" lon="-75.14686">
        <ele>848.0</ele>
        <time>2021-08-21T12:00:42Z</time>
      </trkpt>
      <trkpt lat="2.879999" lon="-75.14686">
        <ele>848.2</ele>
        <time>2021-08-21T12:00:43Z</time>
      </trkpt>
      <trkpt lat="2.879979" lon="-75.14685">
        <ele>848.3</ele>
        <time>2021-08-21T12:00:44Z</time>
      </trkpt>
      <trkpt lat="2.879959" lon="-75.14685">
        <ele>848.4</ele>
        <time>2021-08-21T12:00:45Z</time>
      </trkpt>
      <trkpt lat="2.879938" lon="-75.14685">
        <ele>848.6</ele>
        <time>2021-08-21T12:00:46Z</time>
      </trkpt>
      <trkpt lat="2.879917" lon="-75.14685">
        <ele>848.7</ele>
        <time>2021-08-21T12:00:47Z</time>
      </trkpt>
      <trkpt lat="2.879897" lon="-75.14685">
        <ele>848.9</ele>
        <time>2021-08-21T12:00:48Z</time>
      </trkpt>
      <trkpt lat="2.879876" lon="-75.14686">
        <ele>849.0</ele>
        <time>2021-08-21T12:00:49Z</time>
      </trkpt>
      <trkpt lat="2.879855" lon="-75.14686">
        <ele>849.2</ele>
        <time>2021-08-21T12:00:50Z</time>
      </trkpt>
      <trkpt lat="2.879834" lon="-75.146866">
        <ele>849.3</ele>
        <time>2021-08-21T12:00:51Z</time>
      </trkpt>
      <trkpt lat="2.879814" lon="-75.14687">
        <ele>849.5</ele>
        <time>2021-08-21T12:00:52Z</time>
      </trkpt>
      <trkpt lat="2.879795" lon="-75.14688">
        <ele>849.6</ele>
        <time>2021-08-21T12:00:53Z</time>
      </trkpt>
      <trkpt lat="2.879777" lon="-75.14689">
        <ele>849.8</ele>
        <time>2021-08-21T12:00:54Z</time>
      </trkpt>
      <trkpt lat="2.879759" lon="-75.1469">
        <ele>849.9</ele>
        <time>2021-08-21T12:00:55Z</time>
      </trkpt>
      <trkpt lat="2.87974" lon="-75.146904">
        <ele>850.1</ele>
        <time>2021-08-21T12:00:56Z</time>
      </trkpt>
      <trkpt lat="2.879723" lon="-75.14691">
        <ele>850.2</ele>
        <time>2021-08-21T12:00:57Z</time>
      </trkpt>
      <trkpt lat="2.879706" lon="-75.14692">
        <ele>850.4</ele>
        <time>2021-08-21T12:00:58Z</time>
      </trkpt>
      <trkpt lat="2.879688" lon="-75.14693">
        <ele>850.5</ele>
        <time>2021-08-21T12:00:59Z</time>
      </trkpt>
      <trkpt lat="2.879671" lon="-75.146935">
        <ele>850.7</ele>
        <time>2021-08-21T12:01:00Z</time>
      </trkpt>
      <trkpt lat="2.879655" lon="-75.14694">
        <ele>850.8</ele>
        <time>2021-08-21T12:01:01Z</time>
      </trkpt>
      <trkpt lat="2.879638" lon="-75.14695">
        <ele>851.0</ele>
        <time>2021-08-21T12:01:02Z</time>
      </trkpt>
      <trkpt lat="2.879619" lon="-75.14695">
        <ele>851.1</ele>
        <time>2021-08-21T12:01:03Z</time>
      </trkpt>
      <trkpt lat="2.879601" lon="-75.14696">
        <ele>851.2</ele>
        <time>2021-08-21T12:01:04Z</time>
      </trkpt>
      <trkpt lat="2.879582" lon="-75.14696">
        <ele>851.4</ele>
        <time>2021-08-21T12:01:05Z</time>
      </trkpt>
      <trkpt lat="2.879564" lon="-75.146965">
        <ele>851.5</ele>
        <time>2021-08-21T12:01:06Z</time>
      </trkpt>
      <trkpt lat="2.879547" lon="-75.146965">
        <ele>851.7</ele>
        <time>2021-08-21T12:01:07Z</time>
      </trkpt>
      <trkpt lat="2.879531" lon="-75.146965">
        <ele>851.8</ele>
        <time>2021-08-21T12:01:08Z</time>
      </trkpt>
      <trkpt lat="2.879514" lon="-75.146965">
        <ele>851.9</ele>
        <time>2021-08-21T12:01:09Z</time>
      </trkpt>
      <trkpt lat="2.879496" lon="-75.14697">
        <ele>852.1</ele>
        <time>2021-08-21T12:01:10Z</time>
      </trkpt>
      <trkpt lat="2.879478" lon="-75.146965">
        <ele>852.2</ele>
        <time>2021-08-21T12:01:11Z</time>
      </trkpt>
      <trkpt lat="2.879459" lon="-75.146965">
        <ele>852.4</ele>
        <time>2021-08-21T12:01:12Z</time>
      </trkpt>
      <trkpt lat="2.879441" lon="-75.146965">
        <ele>852.5</ele>
        <time>2021-08-21T12:01:13Z</time>
      </trkpt>
      <trkpt lat="2.879423" lon="-75.146965">
        <ele>852.7</ele>
        <time>2021-08-21T12:01:14Z</time>
      </trkpt>
      <trkpt lat="2.879405" lon="-75.146965">
        <ele>852.8</ele>
        <time>2021-08-21T12:01:15Z</time>
      </trkpt>
      <trkpt lat="2.879387" lon="-75.14696">
        <ele>852.9</ele>
        <time>2021-08-21T12:01:16Z</time>
      </trkpt>
      <trkpt lat="2.87935" lon="-75.14695">
        <ele>853.2</ele>
        <time>2021-08-21T12:01:18Z</time>
      </trkpt>
      <trkpt lat="2.879359" lon="-75.14696">
        <ele>853.2</ele>
        <time>2021-08-21T12:01:18Z</time>
      </trkpt>
      <trkpt lat="2.879332" lon="-75.14695">
        <ele>853.4</ele>
        <time>2021-08-21T12:01:19Z</time>
      </trkpt>
      <trkpt lat="2.879313" lon="-75.14694">
        <ele>853.5</ele>
        <time>2021-08-21T12:01:20Z</time>
      </trkpt>
      <trkpt lat="2.879295" lon="-75.146935">
        <ele>853.7</ele>
        <time>2021-08-21T12:01:21Z</time>
      </trkpt>
      <trkpt lat="2.879258" lon="-75.14692">
        <ele>854.0</ele>
        <time>2021-08-21T12:01:23Z</time>
      </trkpt>
      <trkpt lat="2.879267" lon="-75.14692">
        <ele>853.9</ele>
        <time>2021-08-21T12:01:23Z</time>
      </trkpt>
      <trkpt lat="2.879241" lon="-75.14691">
        <ele>854.1</ele>
        <time>2021-08-21T12:01:24Z</time>
      </trkpt>
      <trkpt lat="2.879223" lon="-75.14691">
        <ele>854.2</ele>
        <time>2021-08-21T12:01:25Z</time>
      </trkpt>
      <trkpt lat="2.879205" lon="-75.146904">
        <ele>854.4</ele>
        <time>2021-08-21T12:01:26Z</time>
      </trkpt>
      <trkpt lat="2.879187" lon="-75.1469">
        <ele>854.5</ele>
        <time>2021-08-21T12:01:27Z</time>
      </trkpt>
      <trkpt lat="2.879168" lon="-75.14689">
        <ele>854.7</ele>
        <time>2021-08-21T12:01:28Z</time>
      </trkpt>
      <trkpt lat="2.87913" lon="-75.14688">
        <ele>855.0</ele>
        <time>2021-08-21T12:01:30Z</time>
      </trkpt>
      <trkpt lat="2.87914" lon="-75.14688">
        <ele>854.9</ele>
        <time>2021-08-21T12:01:30Z</time>
      </trkpt>
      <trkpt lat="2.879112" lon="-75.14687">
        <ele>855.1</ele>
        <time>2021-08-21T12:01:31Z</time>
      </trkpt>
      <trkpt lat="2.879094" lon="-75.14687">
        <ele>855.2</ele>
        <time>2021-08-21T12:01:32Z</time>
      </trkpt>
      <trkpt lat="2.879076" lon="-75.146866">
        <ele>855.4</ele>
        <time>2021-08-21T12:01:33Z</time>
      </trkpt>
      <trkpt lat="2.879058" lon="-75.14686">
        <ele>855.5</ele>
        <time>2021-08-21T12:01:34Z</time>
      </trkpt>
      <trkpt lat="2.87904" lon="-75.14685">
        <ele>855.7</ele>
        <time>2021-08-21T12:01:35Z</time>
      </trkpt>
      <trkpt lat="2.879004" lon="-75.146835">
        <ele>856.0</ele>
        <time>2021-08-21T12:01:37Z</time>
      </trkpt>
      <trkpt lat="2.879013" lon="-75.14684">
        <ele>855.9</ele>
        <time>2021-08-21T12:01:37Z</time>
      </trkpt>
      <trkpt lat="2.878987" lon="-75.14683">
        <ele>856.1</ele>
        <time>2021-08-21T12:01:38Z</time>
      </trkpt>
      <trkpt lat="2.878969" lon="-75.14682">
        <ele>856.3</ele>
        <time>2021-08-21T12:01:39Z</time>
      </trkpt>
      <trkpt lat="2.878952" lon="-75.14681">
        <ele>856.4</ele>
        <time>2021-08-21T12:01:40Z</time>
      </trkpt>
      <trkpt lat="2.878935" lon="-75.146805">
        <ele>856.6</ele>
        <time>2021-08-21T12:01:41Z</time>
      </trkpt>
      <trkpt lat="2.878918" lon="-75.1468">
        <ele>856.7</ele>
        <time>2021-08-21T12:01:42Z</time>
      </trkpt>
      <trkpt lat="2.878901" lon="-75.14679">
        <ele>856.9</ele>
        <time>2021-08-21T12:01:43Z</time>
      </trkpt>
      <trkpt lat="2.878874" lon="-75.14678">
        <ele>857.1</ele>
        <time>2021-08-21T12:01:44Z</time>
      </trkpt>
      <trkpt lat="2.878852" lon="-75.146774">
        <ele>857.3</ele>
        <time>2021-08-21T12:01:46Z</time>
      </trkpt>
      <trkpt lat="2.878863" lon="-75.146774">
        <ele>857.2</ele>
        <time>2021-08-21T12:01:46Z</time>
      </trkpt>
      <trkpt lat="2.878836" lon="-75.14677">
        <ele>857.5</ele>
        <time>2021-08-21T12:01:47Z</time>
      </trkpt>
      <trkpt lat="2.878819" lon="-75.14676">
        <ele>857.6</ele>
        <time>2021-08-21T12:01:48Z</time>
      </trkpt>
      <trkpt lat="2.878802" lon="-75.14675">
        <ele>857.8</ele>
        <time>2021-08-21T12:01:49Z</time>
      </trkpt>
      <trkpt lat="2.878784" lon="-75.14675">
        <ele>858.0</ele>
        <time>2021-08-21T12:01:50Z</time>
      </trkpt>
      <trkpt lat="2.878767" lon="-75.14674">
        <ele>858.1</ele>
        <time>2021-08-21T12:01:51Z</time>
      </trkpt>
      <trkpt lat="2.87875" lon="-75.146736">
        <ele>858.3</ele>
        <time>2021-08-21T12:01:52Z</time>
      </trkpt>
      <trkpt lat="2.878734" lon="-75.14673">
        <ele>858.4</ele>
        <time>2021-08-21T12:01:53Z</time>
      </trkpt>
      <trkpt lat="2.878717" lon="-75.14672">
        <ele>858.6</ele>
        <time>2021-08-21T12:01:54Z</time>
      </trkpt>
      <trkpt lat="2.878701" lon="-75.14671">
        <ele>858.8</ele>
        <time>2021-08-21T12:01:55Z</time>
      </trkpt>
      <trkpt lat="2.878684" lon="-75.146706">
        <ele>858.9</ele>
        <time>2021-08-21T12:01:56Z</time>
      </trkpt>
      <trkpt lat="2.878668" lon="-75.1467">
        <ele>859.1</ele>
        <time>2021-08-21T12:01:57Z</time>
      </trkpt>
      <trkpt lat="2.878652" lon="-75.14669">
        <ele>859.3</ele>
        <time>2021-08-21T12:01:58Z</time>
      </trkpt>
      <trkpt lat="2.878637" lon="-75.14668">
        <ele>859.4</ele>
        <time>2021-08-21T12:01:59Z</time>
      </trkpt>
      <trkpt lat="2.87862" lon="-75.146675">
        <ele>859.6</ele>
        <time>2021-08-21T12:02:00Z</time>
      </trkpt>
      <trkpt lat="2.878603" lon="-75.14667">
        <ele>859.7</ele>
        <time>2021-08-21T12:02:01Z</time>
      </trkpt>
      <trkpt lat="2.878587" lon="-75.14667">
        <ele>859.9</ele>
        <time>2021-08-21T12:02:02Z</time>
      </trkpt>
      <trkpt lat="2.878571" lon="-75.14666">
        <ele>860.0</ele>
        <time>2021-08-21T12:02:03Z</time>
      </trkpt>
      <trkpt lat="2.878555" lon="-75.14665">
        <ele>860.2</ele>
        <time>2021-08-21T12:02:04Z</time>
      </trkpt>
      <trkpt lat="2.87854" lon="-75.146645">
        <ele>860.3</ele>
        <time>2021-08-21T12:02:05Z</time>
      </trkpt>
      <trkpt lat="2.878524" lon="-75.146645">
        <ele>860.5</ele>
        <time>2021-08-21T12:02:06Z</time>
      </trkpt>
      <trkpt lat="2.878509" lon="-75.14664">
        <ele>860.6</ele>
        <time>2021-08-21T12:02:07Z</time>
      </trkpt>
      <trkpt lat="2.878493" lon="-75.14663">
        <ele>860.8</ele>
        <time>2021-08-21T12:02:08Z</time>
      </trkpt>
      <trkpt lat="2.878477" lon="-75.14663">
        <ele>860.9</ele>
        <time>2021-08-21T12:02:09Z</time>
      </trkpt>
      <trkpt lat="2.878461" lon="-75.14662">
        <ele>861.0</ele>
        <time>2021-08-21T12:02:10Z</time>
      </trkpt>
      <trkpt lat="2.878444" lon="-75.146614">
        <ele>861.2</ele>
        <time>2021-08-21T12:02:11Z</time>
      </trkpt>
      <trkpt lat="2.878428" lon="-75.146614">
        <ele>861.3</ele>
        <time>2021-08-21T12:02:12Z</time>
      </trkpt>
      <trkpt lat="2.878411" lon="-75.14661">
        <ele>861.4</ele>
        <time>2021-08-21T12:02:13Z</time>
      </trkpt>
      <trkpt lat="2.878394" lon="-75.1466">
        <ele>861.6</ele>
        <time>2021-08-21T12:02:14Z</time>
      </trkpt>
      <trkpt lat="2.878376" lon="-75.14659">
        <ele>861.7</ele>
        <time>2021-08-21T12:02:15Z</time>
      </trkpt>
      <trkpt lat="2.87834" lon="-75.14658">
        <ele>862.0</ele>
        <time>2021-08-21T12:02:17Z</time>
      </trkpt>
      <trkpt lat="2.878349" lon="-75.14659">
        <ele>861.9</ele>
        <time>2021-08-21T12:02:17Z</time>
      </trkpt>
      <trkpt lat="2.878322" lon="-75.14658">
        <ele>862.1</ele>
        <time>2021-08-21T12:02:18Z</time>
      </trkpt>
      <trkpt lat="2.878304" lon="-75.14658">
        <ele>862.2</ele>
        <time>2021-08-21T12:02:19Z</time>
      </trkpt>
      <trkpt lat="2.878286" lon="-75.14658">
        <ele>862.4</ele>
        <time>2021-08-21T12:02:20Z</time>
      </trkpt>
      <trkpt lat="2.87825" lon="-75.14658">
        <ele>862.6</ele>
        <time>2021-08-21T12:02:22Z</time>
      </trkpt>
      <trkpt lat="2.878259" lon="-75.14658">
        <ele>862.6</ele>
        <time>2021-08-21T12:02:22Z</time>
      </trkpt>
      <trkpt lat="2.878231" lon="-75.14658">
        <ele>862.8</ele>
        <time>2021-08-21T12:02:23Z</time>
      </trkpt>
      <trkpt lat="2.878211" lon="-75.14658">
        <ele>862.9</ele>
        <time>2021-08-21T12:02:24Z</time>
      </trkpt>
      <trkpt lat="2.878192" lon="-75.146576">
        <ele>863.1</ele>
        <time>2021-08-21T12:02:25Z</time>
      </trkpt>
      <trkpt lat="2.878173" lon="-75.146576">
        <ele>863.2</ele>
        <time>2021-08-21T12:02:26Z</time>
      </trkpt>
      <trkpt lat="2.878153" lon="-75.146576">
        <ele>863.4</ele>
        <time>2021-08-21T12:02:27Z</time>
      </trkpt>
      <trkpt lat="2.878116" lon="-75.14657">
        <ele>863.7</ele>
        <time>2021-08-21T12:02:29Z</time>
      </trkpt>
      <trkpt lat="2.878126" lon="-75.14657">
        <ele>863.6</ele>
        <time>2021-08-21T12:02:29Z</time>
      </trkpt>
      <trkpt lat="2.878097" lon="-75.14657">
        <ele>863.9</ele>
        <time>2021-08-21T12:02:30Z</time>
      </trkpt>
      <trkpt lat="2.878078" lon="-75.14657">
        <ele>864.1</ele>
        <time>2021-08-21T12:02:31Z</time>
      </trkpt>
      <trkpt lat="2.878061" lon="-75.14656">
        <ele>864.3</ele>
        <time>2021-08-21T12:02:32Z</time>
      </trkpt>
      <trkpt lat="2.878042" lon="-75.14656">
        <ele>864.5</ele>
        <time>2021-08-21T12:02:33Z</time>
      </trkpt>
      <trkpt lat="2.878023" lon="-75.14656">
        <ele>864.7</ele>
        <time>2021-08-21T12:02:34Z</time>
      </trkpt>
      <trkpt lat="2.877986" lon="-75.14655">
        <ele>865.1</ele>
        <time>2021-08-21T12:02:36Z</time>
      </trkpt>
      <trkpt lat="2.877996" lon="-75.14655">
        <ele>864.9</ele>
        <time>2021-08-21T12:02:36Z</time>
      </trkpt>
      <trkpt lat="2.877968" lon="-75.14655">
        <ele>865.3</ele>
        <time>2021-08-21T12:02:37Z</time>
      </trkpt>
      <trkpt lat="2.877951" lon="-75.146545">
        <ele>865.5</ele>
        <time>2021-08-21T12:02:38Z</time>
      </trkpt>
      <trkpt lat="2.877921" lon="-75.146545">
        <ele>865.8</ele>
        <time>2021-08-21T12:02:39Z</time>
      </trkpt>
      <trkpt lat="2.877908" lon="-75.14654">
        <ele>866.0</ele>
        <time>2021-08-21T12:02:40Z</time>
      </trkpt>
      <trkpt lat="2.877895" lon="-75.14654">
        <ele>866.1</ele>
        <time>2021-08-21T12:02:41Z</time>
      </trkpt>
      <trkpt lat="2.877869" lon="-75.14654">
        <ele>866.4</ele>
        <time>2021-08-21T12:02:43Z</time>
      </trkpt>
      <trkpt lat="2.877882" lon="-75.14654">
        <ele>866.3</ele>
        <time>2021-08-21T12:02:43Z</time>
      </trkpt>
      <trkpt lat="2.877853" lon="-75.14653">
        <ele>866.6</ele>
        <time>2021-08-21T12:02:44Z</time>
      </trkpt>
      <trkpt lat="2.877838" lon="-75.14653">
        <ele>866.8</ele>
        <time>2021-08-21T12:02:45Z</time>
      </trkpt>
      <trkpt lat="2.877823" lon="-75.14652">
        <ele>867.0</ele>
        <time>2021-08-21T12:02:46Z</time>
      </trkpt>
      <trkpt lat="2.877809" lon="-75.14652">
        <ele>867.2</ele>
        <time>2021-08-21T12:02:47Z</time>
      </trkpt>
      <trkpt lat="2.877796" lon="-75.146515">
        <ele>867.3</ele>
        <time>2021-08-21T12:02:48Z</time>
      </trkpt>
      <trkpt lat="2.877785" lon="-75.14651">
        <ele>867.5</ele>
        <time>2021-08-21T12:02:49Z</time>
      </trkpt>
      <trkpt lat="2.877775" lon="-75.1465">
        <ele>867.6</ele>
        <time>2021-08-21T12:02:50Z</time>
      </trkpt>
      <trkpt lat="2.877765" lon="-75.1465">
        <ele>867.8</ele>
        <time>2021-08-21T12:02:51Z</time>
      </trkpt>
      <trkpt lat="2.877755" lon="-75.146484">
        <ele>867.9</ele>
        <time>2021-08-21T12:02:52Z</time>
      </trkpt>
      <trkpt lat="2.877744" lon="-75.14648">
        <ele>868.1</ele>
        <time>2021-08-21T12:02:53Z</time>
      </trkpt>
      <trkpt lat="2.877735" lon="-75.14646">
        <ele>868.3</ele>
        <time>2021-08-21T12:02:54Z</time>
      </trkpt>
      <trkpt lat="2.877727" lon="-75.14645">
        <ele>868.4</ele>
        <time>2021-08-21T12:02:55Z</time>
      </trkpt>
      <trkpt lat="2.87772" lon="-75.14643">
        <ele>868.6</ele>
        <time>2021-08-21T12:02:56Z</time>
      </trkpt>
      <trkpt lat="2.877717" lon="-75.14641">
        <ele>868.7</ele>
        <time>2021-08-21T12:02:57Z</time>
      </trkpt>
      <trkpt lat="2.877716" lon="-75.146385">
        <ele>868.9</ele>
        <time>2021-08-21T12:02:58Z</time>
      </trkpt>
      <trkpt lat="2.877716" lon="-75.14637">
        <ele>869.0</ele>
        <time>2021-08-21T12:02:59Z</time>
      </trkpt>
      <trkpt lat="2.87772" lon="-75.14634">
        <ele>869.2</ele>
        <time>2021-08-21T12:03:01Z</time>
      </trkpt>
      <trkpt lat="2.877721" lon="-75.146324">
        <ele>869.2</ele>
        <time>2021-08-21T12:03:01Z</time>
      </trkpt>
      <trkpt lat="2.877725" lon="-75.1463">
        <ele>869.3</ele>
        <time>2021-08-21T12:03:02Z</time>
      </trkpt>
      <trkpt lat="2.877732" lon="-75.146286">
        <ele>869.4</ele>
        <time>2021-08-21T12:03:03Z</time>
      </trkpt>
      <trkpt lat="2.87774" lon="-75.14626">
        <ele>869.6</ele>
        <time>2021-08-21T12:03:04Z</time>
      </trkpt>
      <trkpt lat="2.877748" lon="-75.14624">
        <ele>869.8</ele>
        <time>2021-08-21T12:03:05Z</time>
      </trkpt>
      <trkpt lat="2.877758" lon="-75.14622">
        <ele>869.9</ele>
        <time>2021-08-21T12:03:06Z</time>
      </trkpt>
      <trkpt lat="2.877774" lon="-75.14619">
        <ele>870.2</ele>
        <time>2021-08-21T12:03:08Z</time>
      </trkpt>
      <trkpt lat="2.877779" lon="-75.14618">
        <ele>870.3</ele>
        <time>2021-08-21T12:03:08Z</time>
      </trkpt>
      <trkpt lat="2.877789" lon="-75.14616">
        <ele>870.5</ele>
        <time>2021-08-21T12:03:09Z</time>
      </trkpt>
      <trkpt lat="2.877798" lon="-75.14613">
        <ele>870.7</ele>
        <time>2021-08-21T12:03:10Z</time>
      </trkpt>
      <trkpt lat="2.877806" lon="-75.14611">
        <ele>870.9</ele>
        <time>2021-08-21T12:03:11Z</time>
      </trkpt>
      <trkpt lat="2.877812" lon="-75.14609">
        <ele>871.0</ele>
        <time>2021-08-21T12:03:12Z</time>
      </trkpt>
      <trkpt lat="2.877819" lon="-75.146065">
        <ele>871.2</ele>
        <time>2021-08-21T12:03:13Z</time>
      </trkpt>
      <trkpt lat="2.877829" lon="-75.146034">
        <ele>871.5</ele>
        <time>2021-08-21T12:03:15Z</time>
      </trkpt>
      <trkpt lat="2.877832" lon="-75.14603">
        <ele>871.6</ele>
        <time>2021-08-21T12:03:15Z</time>
      </trkpt>
      <trkpt lat="2.87784" lon="-75.146">
        <ele>871.8</ele>
        <time>2021-08-21T12:03:16Z</time>
      </trkpt>
      <trkpt lat="2.877847" lon="-75.14599">
        <ele>871.9</ele>
        <time>2021-08-21T12:03:17Z</time>
      </trkpt>
      <trkpt lat="2.877855" lon="-75.145966">
        <ele>872.1</ele>
        <time>2021-08-21T12:03:18Z</time>
      </trkpt>
      <trkpt lat="2.87787" lon="-75.145935">
        <ele>872.4</ele>
        <time>2021-08-21T12:03:20Z</time>
      </trkpt>
      <trkpt lat="2.877875" lon="-75.14593">
        <ele>872.5</ele>
        <time>2021-08-21T12:03:20Z</time>
      </trkpt>
      <trkpt lat="2.877886" lon="-75.145905">
        <ele>872.7</ele>
        <time>2021-08-21T12:03:21Z</time>
      </trkpt>
      <trkpt lat="2.877898" lon="-75.14589">
        <ele>872.9</ele>
        <time>2021-08-21T12:03:22Z</time>
      </trkpt>
      <trkpt lat="2.87791" lon="-75.145874">
        <ele>873.1</ele>
        <time>2021-08-21T12:03:23Z</time>
      </trkpt>
      <trkpt lat="2.877924" lon="-75.14586">
        <ele>873.3</ele>
        <time>2021-08-21T12:03:23Z</time>
      </trkpt>
      <trkpt lat="2.877939" lon="-75.14584">
        <ele>873.5</ele>
        <time>2021-08-21T12:03:24Z</time>
      </trkpt>
      <trkpt lat="2.877953" lon="-75.145836">
        <ele>873.8</ele>
        <time>2021-08-21T12:03:25Z</time>
      </trkpt>
      <trkpt lat="2.877967" lon="-75.14582">
        <ele>874.0</ele>
        <time>2021-08-21T12:03:26Z</time>
      </trkpt>
      <trkpt lat="2.87798" lon="-75.145805">
        <ele>874.2</ele>
        <time>2021-08-21T12:03:27Z</time>
      </trkpt>
      <trkpt lat="2.877994" lon="-75.1458">
        <ele>874.4</ele>
        <time>2021-08-21T12:03:28Z</time>
      </trkpt>
      <trkpt lat="2.878009" lon="-75.14578">
        <ele>874.6</ele>
        <time>2021-08-21T12:03:29Z</time>
      </trkpt>
      <trkpt lat="2.878023" lon="-75.14577">
        <ele>874.9</ele>
        <time>2021-08-21T12:03:30Z</time>
      </trkpt>
      <trkpt lat="2.878036" lon="-75.14575">
        <ele>875.1</ele>
        <time>2021-08-21T12:03:31Z</time>
      </trkpt>
      <trkpt lat="2.878048" lon="-75.14574">
        <ele>875.3</ele>
        <time>2021-08-21T12:03:32Z</time>
      </trkpt>
      <trkpt lat="2.878057" lon="-75.14572">
        <ele>875.6</ele>
        <time>2021-08-21T12:03:33Z</time>
      </trkpt>
      <trkpt lat="2.878067" lon="-75.145706">
        <ele>875.8</ele>
        <time>2021-08-21T12:03:34Z</time>
      </trkpt>
      <trkpt lat="2.878082" lon="-75.14568">
        <ele>876.1</ele>
        <time>2021-08-21T12:03:36Z</time>
      </trkpt>
      <trkpt lat="2.878087" lon="-75.145676">
        <ele>876.3</ele>
        <time>2021-08-21T12:03:36Z</time>
      </trkpt>
      <trkpt lat="2.878098" lon="-75.14566">
        <ele>876.5</ele>
        <time>2021-08-21T12:03:37Z</time>
      </trkpt>
      <trkpt lat="2.878108" lon="-75.14565">
        <ele>876.7</ele>
        <time>2021-08-21T12:03:38Z</time>
      </trkpt>
      <trkpt lat="2.878117" lon="-75.14564">
        <ele>876.9</ele>
        <time>2021-08-21T12:03:39Z</time>
      </trkpt>
      <trkpt lat="2.878126" lon="-75.14562">
        <ele>877.1</ele>
        <time>2021-08-21T12:03:40Z</time>
      </trkpt>
      <trkpt lat="2.878135" lon="-75.145615">
        <ele>877.3</ele>
        <time>2021-08-21T12:03:41Z</time>
      </trkpt>
      <trkpt lat="2.878144" lon="-75.1456">
        <ele>877.6</ele>
        <time>2021-08-21T12:03:42Z</time>
      </trkpt>
      <trkpt lat="2.878153" lon="-75.145584">
        <ele>877.8</ele>
        <time>2021-08-21T12:03:43Z</time>
      </trkpt>
      <trkpt lat="2.878162" lon="-75.14557">
        <ele>878.0</ele>
        <time>2021-08-21T12:03:44Z</time>
      </trkpt>
      <trkpt lat="2.87817" lon="-75.14555">
        <ele>878.2</ele>
        <time>2021-08-21T12:03:45Z</time>
      </trkpt>
      <trkpt lat="2.878178" lon="-75.14554">
        <ele>878.4</ele>
        <time>2021-08-21T12:03:46Z</time>
      </trkpt>
      <trkpt lat="2.878186" lon="-75.14552">
        <ele>878.6</ele>
        <time>2021-08-21T12:03:47Z</time>
      </trkpt>
      <trkpt lat="2.878194" lon="-75.14551">
        <ele>878.9</ele>
        <time>2021-08-21T12:03:48Z</time>
      </trkpt>
      <trkpt lat="2.878201" lon="-75.14549">
        <ele>879.1</ele>
        <time>2021-08-21T12:03:49Z</time>
      </trkpt>
      <trkpt lat="2.878209" lon="-75.14548">
        <ele>879.3</ele>
        <time>2021-08-21T12:03:50Z</time>
      </trkpt>
      <trkpt lat="2.878216" lon="-75.14547">
        <ele>879.5</ele>
        <time>2021-08-21T12:03:51Z</time>
      </trkpt>
      <trkpt lat="2.878222" lon="-75.145454">
        <ele>879.7</ele>
        <time>2021-08-21T12:03:52Z</time>
      </trkpt>
      <trkpt lat="2.878229" lon="-75.14544">
        <ele>879.8</ele>
        <time>2021-08-21T12:03:53Z</time>
      </trkpt>
      <trkpt lat="2.878236" lon="-75.145424">
        <ele>880.0</ele>
        <time>2021-08-21T12:03:54Z</time>
      </trkpt>
      <trkpt lat="2.878244" lon="-75.14541">
        <ele>880.2</ele>
        <time>2021-08-21T12:03:55Z</time>
      </trkpt>
      <trkpt lat="2.878254" lon="-75.1454">
        <ele>880.4</ele>
        <time>2021-08-21T12:03:56Z</time>
      </trkpt>
      <trkpt lat="2.87827" lon="-75.14537">
        <ele>880.8</ele>
        <time>2021-08-21T12:03:57Z</time>
      </trkpt>
      <trkpt lat="2.878277" lon="-75.145355">
        <ele>880.9</ele>
        <time>2021-08-21T12:03:58Z</time>
      </trkpt>
      <trkpt lat="2.878284" lon="-75.14535">
        <ele>881.1</ele>
        <time>2021-08-21T12:03:59Z</time>
      </trkpt>
      <trkpt lat="2.878291" lon="-75.14533">
        <ele>881.3</ele>
        <time>2021-08-21T12:04:00Z</time>
      </trkpt>
      <trkpt lat="2.878298" lon="-75.145325">
        <ele>881.4</ele>
        <time>2021-08-21T12:04:01Z</time>
      </trkpt>
      <trkpt lat="2.878305" lon="-75.14531">
        <ele>881.6</ele>
        <time>2021-08-21T12:04:02Z</time>
      </trkpt>
      <trkpt lat="2.878312" lon="-75.145294">
        <ele>881.8</ele>
        <time>2021-08-21T12:04:03Z</time>
      </trkpt>
      <trkpt lat="2.878319" lon="-75.14529">
        <ele>881.9</ele>
        <time>2021-08-21T12:04:04Z</time>
      </trkpt>
      <trkpt lat="2.878326" lon="-75.14527">
        <ele>882.1</ele>
        <time>2021-08-21T12:04:06Z</time>
      </trkpt>
      <trkpt lat="2.878333" lon="-75.14526">
        <ele>882.3</ele>
        <time>2021-08-21T12:04:06Z</time>
      </trkpt>
      <trkpt lat="2.878344" lon="-75.14524">
        <ele>882.5</ele>
        <time>2021-08-21T12:04:07Z</time>
      </trkpt>
      <trkpt lat="2.878349" lon="-75.145226">
        <ele>882.7</ele>
        <time>2021-08-21T12:04:08Z</time>
      </trkpt>
      <trkpt lat="2.878355" lon="-75.14522">
        <ele>882.8</ele>
        <time>2021-08-21T12:04:09Z</time>
      </trkpt>
      <trkpt lat="2.878361" lon="-75.1452">
        <ele>882.9</ele>
        <time>2021-08-21T12:04:10Z</time>
      </trkpt>
      <trkpt lat="2.878367" lon="-75.145195">
        <ele>883.1</ele>
        <time>2021-08-21T12:04:11Z</time>
      </trkpt>
      <trkpt lat="2.878372" lon="-75.14519">
        <ele>883.2</ele>
        <time>2021-08-21T12:04:13Z</time>
      </trkpt>
      <trkpt lat="2.878378" lon="-75.14517">
        <ele>883.3</ele>
        <time>2021-08-21T12:04:13Z</time>
      </trkpt>
      <trkpt lat="2.878391" lon="-75.14515">
        <ele>883.6</ele>
        <time>2021-08-21T12:04:14Z</time>
      </trkpt>
      <trkpt lat="2.878397" lon="-75.14514">
        <ele>883.8</ele>
        <time>2021-08-21T12:04:15Z</time>
      </trkpt>
      <trkpt lat="2.878402" lon="-75.14513">
        <ele>883.9</ele>
        <time>2021-08-21T12:04:16Z</time>
      </trkpt>
      <trkpt lat="2.878408" lon="-75.14511">
        <ele>884.1</ele>
        <time>2021-08-21T12:04:18Z</time>
      </trkpt>
      <trkpt lat="2.878414" lon="-75.1451">
        <ele>884.2</ele>
        <time>2021-08-21T12:04:18Z</time>
      </trkpt>
      <trkpt lat="2.878421" lon="-75.14508">
        <ele>884.4</ele>
        <time>2021-08-21T12:04:19Z</time>
      </trkpt>
      <trkpt lat="2.878428" lon="-75.145065">
        <ele>884.6</ele>
        <time>2021-08-21T12:04:20Z</time>
      </trkpt>
      <trkpt lat="2.878435" lon="-75.14505">
        <ele>884.7</ele>
        <time>2021-08-21T12:04:21Z</time>
      </trkpt>
      <trkpt lat="2.878446" lon="-75.14503">
        <ele>885.0</ele>
        <time>2021-08-21T12:04:22Z</time>
      </trkpt>
      <trkpt lat="2.878451" lon="-75.14501">
        <ele>885.2</ele>
        <time>2021-08-21T12:04:23Z</time>
      </trkpt>
      <trkpt lat="2.878455" lon="-75.145004">
        <ele>885.3</ele>
        <time>2021-08-21T12:04:25Z</time>
      </trkpt>
      <trkpt lat="2.878459" lon="-75.145">
        <ele>885.4</ele>
        <time>2021-08-21T12:04:25Z</time>
      </trkpt>
      <trkpt lat="2.878469" lon="-75.144966">
        <ele>885.7</ele>
        <time>2021-08-21T12:04:26Z</time>
      </trkpt>
      <trkpt lat="2.878474" lon="-75.14496">
        <ele>885.8</ele>
        <time>2021-08-21T12:04:27Z</time>
      </trkpt>
      <trkpt lat="2.878478" lon="-75.14494">
        <ele>886.0</ele>
        <time>2021-08-21T12:04:28Z</time>
      </trkpt>
      <trkpt lat="2.878483" lon="-75.14493">
        <ele>886.1</ele>
        <time>2021-08-21T12:04:29Z</time>
      </trkpt>
      <trkpt lat="2.878487" lon="-75.14491">
        <ele>886.2</ele>
        <time>2021-08-21T12:04:30Z</time>
      </trkpt>
      <trkpt lat="2.878492" lon="-75.144905">
        <ele>886.4</ele>
        <time>2021-08-21T12:04:32Z</time>
      </trkpt>
      <trkpt lat="2.878496" lon="-75.14489">
        <ele>886.5</ele>
        <time>2021-08-21T12:04:32Z</time>
      </trkpt>
      <trkpt lat="2.878503" lon="-75.144875">
        <ele>886.7</ele>
        <time>2021-08-21T12:04:33Z</time>
      </trkpt>
      <trkpt lat="2.878516" lon="-75.144844">
        <ele>887.0</ele>
        <time>2021-08-21T12:04:34Z</time>
      </trkpt>
      <trkpt lat="2.878521" lon="-75.14483">
        <ele>887.2</ele>
        <time>2021-08-21T12:04:35Z</time>
      </trkpt>
      <trkpt lat="2.878527" lon="-75.14482">
        <ele>887.3</ele>
        <time>2021-08-21T12:04:36Z</time>
      </trkpt>
      <trkpt lat="2.878532" lon="-75.144806">
        <ele>887.4</ele>
        <time>2021-08-21T12:04:37Z</time>
      </trkpt>
      <trkpt lat="2.878538" lon="-75.14479">
        <ele>887.6</ele>
        <time>2021-08-21T12:04:39Z</time>
      </trkpt>
      <trkpt lat="2.878543" lon="-75.14478">
        <ele>887.7</ele>
        <time>2021-08-21T12:04:39Z</time>
      </trkpt>
      <trkpt lat="2.878549" lon="-75.14477">
        <ele>887.9</ele>
        <time>2021-08-21T12:04:40Z</time>
      </trkpt>
      <trkpt lat="2.878556" lon="-75.14475">
        <ele>888.1</ele>
        <time>2021-08-21T12:04:41Z</time>
      </trkpt>
      <trkpt lat="2.878563" lon="-75.14473">
        <ele>888.2</ele>
        <time>2021-08-21T12:04:42Z</time>
      </trkpt>
      <trkpt lat="2.87857" lon="-75.144714">
        <ele>888.4</ele>
        <time>2021-08-21T12:04:43Z</time>
      </trkpt>
      <trkpt lat="2.878577" lon="-75.14471">
        <ele>888.6</ele>
        <time>2021-08-21T12:04:44Z</time>
      </trkpt>
      <trkpt lat="2.878585" lon="-75.14469">
        <ele>888.7</ele>
        <time>2021-08-21T12:04:45Z</time>
      </trkpt>
      <trkpt lat="2.878593" lon="-75.14468">
        <ele>888.9</ele>
        <time>2021-08-21T12:04:46Z</time>
      </trkpt>
      <trkpt lat="2.878601" lon="-75.14466">
        <ele>889.1</ele>
        <time>2021-08-21T12:04:47Z</time>
      </trkpt>
      <trkpt lat="2.87861" lon="-75.144646">
        <ele>889.2</ele>
        <time>2021-08-21T12:04:48Z</time>
      </trkpt>
      <trkpt lat="2.878618" lon="-75.14463">
        <ele>889.4</ele>
        <time>2021-08-21T12:04:49Z</time>
      </trkpt>
      <trkpt lat="2.878627" lon="-75.144615">
        <ele>889.6</ele>
        <time>2021-08-21T12:04:50Z</time>
      </trkpt>
      <trkpt lat="2.878635" lon="-75.1446">
        <ele>889.7</ele>
        <time>2021-08-21T12:04:51Z</time>
      </trkpt>
      <trkpt lat="2.878644" lon="-75.144585">
        <ele>889.9</ele>
        <time>2021-08-21T12:04:52Z</time>
      </trkpt>
      <trkpt lat="2.878651" lon="-75.14457">
        <ele>890.1</ele>
        <time>2021-08-21T12:04:53Z</time>
      </trkpt>
      <trkpt lat="2.878658" lon="-75.144554">
        <ele>890.3</ele>
        <time>2021-08-21T12:04:54Z</time>
      </trkpt>
      <trkpt lat="2.878666" lon="-75.14454">
        <ele>890.4</ele>
        <time>2021-08-21T12:04:55Z</time>
      </trkpt>
      <trkpt lat="2.878674" lon="-75.14452">
        <ele>890.6</ele>
        <time>2021-08-21T12:04:56Z</time>
      </trkpt>
      <trkpt lat="2.878682" lon="-75.1445">
        <ele>890.8</ele>
        <time>2021-08-21T12:04:57Z</time>
      </trkpt>
      <trkpt lat="2.878689" lon="-75.144485">
        <ele>891.0</ele>
        <time>2021-08-21T12:04:58Z</time>
      </trkpt>
      <trkpt lat="2.878695" lon="-75.14447">
        <ele>891.2</ele>
        <time>2021-08-21T12:04:59Z</time>
      </trkpt>
      <trkpt lat="2.878702" lon="-75.144455">
        <ele>891.4</ele>
        <time>2021-08-21T12:05:00Z</time>
      </trkpt>
      <trkpt lat="2.878708" lon="-75.14444">
        <ele>891.5</ele>
        <time>2021-08-21T12:05:01Z</time>
      </trkpt>
      <trkpt lat="2.878715" lon="-75.144424">
        <ele>891.7</ele>
        <time>2021-08-21T12:05:02Z</time>
      </trkpt>
      <trkpt lat="2.878722" lon="-75.14441">
        <ele>891.9</ele>
        <time>2021-08-21T12:05:03Z</time>
      </trkpt>
      <trkpt lat="2.878729" lon="-75.144394">
        <ele>892.1</ele>
        <time>2021-08-21T12:05:04Z</time>
      </trkpt>
      <trkpt lat="2.878736" lon="-75.14438">
        <ele>892.3</ele>
        <time>2021-08-21T12:05:05Z</time>
      </trkpt>
      <trkpt lat="2.878743" lon="-75.14436">
        <ele>892.5</ele>
        <time>2021-08-21T12:05:06Z</time>
      </trkpt>
      <trkpt lat="2.878751" lon="-75.14435">
        <ele>892.7</ele>
        <time>2021-08-21T12:05:07Z</time>
      </trkpt>
      <trkpt lat="2.878757" lon="-75.144325">
        <ele>892.9</ele>
        <time>2021-08-21T12:05:08Z</time>
      </trkpt>
      <trkpt lat="2.878762" lon="-75.14431">
        <ele>893.1</ele>
        <time>2021-08-21T12:05:09Z</time>
      </trkpt>
      <trkpt lat="2.878767" lon="-75.144295">
        <ele>893.3</ele>
        <time>2021-08-21T12:05:10Z</time>
      </trkpt>
      <trkpt lat="2.878774" lon="-75.14427">
        <ele>893.6</ele>
        <time>2021-08-21T12:05:11Z</time>
      </trkpt>
      <trkpt lat="2.878777" lon="-75.14426">
        <ele>893.7</ele>
        <time>2021-08-21T12:05:12Z</time>
      </trkpt>
      <trkpt lat="2.87878" lon="-75.14424">
        <ele>893.9</ele>
        <time>2021-08-21T12:05:13Z</time>
      </trkpt>
      <trkpt lat="2.878783" lon="-75.144226">
        <ele>894.1</ele>
        <time>2021-08-21T12:05:14Z</time>
      </trkpt>
      <trkpt lat="2.878786" lon="-75.14422">
        <ele>894.2</ele>
        <time>2021-08-21T12:05:15Z</time>
      </trkpt>
      <trkpt lat="2.878789" lon="-75.1442">
        <ele>894.4</ele>
        <time>2021-08-21T12:05:16Z</time>
      </trkpt>
      <trkpt lat="2.878793" lon="-75.14419">
        <ele>894.5</ele>
        <time>2021-08-21T12:05:17Z</time>
      </trkpt>
      <trkpt lat="2.878796" lon="-75.14418">
        <ele>894.6</ele>
        <time>2021-08-21T12:05:18Z</time>
      </trkpt>
      <trkpt lat="2.878799" lon="-75.144165">
        <ele>894.8</ele>
        <time>2021-08-21T12:05:19Z</time>
      </trkpt>
      <trkpt lat="2.878802" lon="-75.14415">
        <ele>894.9</ele>
        <time>2021-08-21T12:05:20Z</time>
      </trkpt>
      <trkpt lat="2.878805" lon="-75.144135">
        <ele>895.1</ele>
        <time>2021-08-21T12:05:21Z</time>
      </trkpt>
      <trkpt lat="2.878808" lon="-75.14413">
        <ele>895.2</ele>
        <time>2021-08-21T12:05:22Z</time>
      </trkpt>
      <trkpt lat="2.878811" lon="-75.14411">
        <ele>895.3</ele>
        <time>2021-08-21T12:05:24Z</time>
      </trkpt>
      <trkpt lat="2.878814" lon="-75.1441">
        <ele>895.4</ele>
        <time>2021-08-21T12:05:24Z</time>
      </trkpt>
      <trkpt lat="2.878818" lon="-75.14408">
        <ele>895.6</ele>
        <time>2021-08-21T12:05:25Z</time>
      </trkpt>
      <trkpt lat="2.878821" lon="-75.144066">
        <ele>895.7</ele>
        <time>2021-08-21T12:05:26Z</time>
      </trkpt>
      <trkpt lat="2.878823" lon="-75.14405">
        <ele>895.9</ele>
        <time>2021-08-21T12:05:27Z</time>
      </trkpt>
      <trkpt lat="2.878825" lon="-75.14403">
        <ele>896.1</ele>
        <time>2021-08-21T12:05:28Z</time>
      </trkpt>
      <trkpt lat="2.878827" lon="-75.14401">
        <ele>896.2</ele>
        <time>2021-08-21T12:05:29Z</time>
      </trkpt>
      <trkpt lat="2.878831" lon="-75.14398">
        <ele>896.4</ele>
        <time>2021-08-21T12:05:31Z</time>
      </trkpt>
      <trkpt lat="2.878833" lon="-75.143974">
        <ele>896.5</ele>
        <time>2021-08-21T12:05:31Z</time>
      </trkpt>
      <trkpt lat="2.878837" lon="-75.14396">
        <ele>896.7</ele>
        <time>2021-08-21T12:05:32Z</time>
      </trkpt>
      <trkpt lat="2.878842" lon="-75.14394">
        <ele>896.8</ele>
        <time>2021-08-21T12:05:33Z</time>
      </trkpt>
      <trkpt lat="2.878846" lon="-75.14392">
        <ele>897.0</ele>
        <time>2021-08-21T12:05:34Z</time>
      </trkpt>
      <trkpt lat="2.87885" lon="-75.143906">
        <ele>897.1</ele>
        <time>2021-08-21T12:05:35Z</time>
      </trkpt>
      <trkpt lat="2.878855" lon="-75.14389">
        <ele>897.3</ele>
        <time>2021-08-21T12:05:36Z</time>
      </trkpt>
      <trkpt lat="2.878861" lon="-75.14386">
        <ele>897.5</ele>
        <time>2021-08-21T12:05:38Z</time>
      </trkpt>
      <trkpt lat="2.878863" lon="-75.14385">
        <ele>897.6</ele>
        <time>2021-08-21T12:05:38Z</time>
      </trkpt>
      <trkpt lat="2.878869" lon="-75.14384">
        <ele>897.8</ele>
        <time>2021-08-21T12:05:39Z</time>
      </trkpt>
      <trkpt lat="2.878876" lon="-75.143814">
        <ele>898.0</ele>
        <time>2021-08-21T12:05:40Z</time>
      </trkpt>
      <trkpt lat="2.878881" lon="-75.1438">
        <ele>898.1</ele>
        <time>2021-08-21T12:05:41Z</time>
      </trkpt>
      <trkpt lat="2.878887" lon="-75.14378">
        <ele>898.2</ele>
        <time>2021-08-21T12:05:42Z</time>
      </trkpt>
      <trkpt lat="2.878892" lon="-75.14376">
        <ele>898.4</ele>
        <time>2021-08-21T12:05:43Z</time>
      </trkpt>
      <trkpt lat="2.8789" lon="-75.14374">
        <ele>898.6</ele>
        <time>2021-08-21T12:05:45Z</time>
      </trkpt>
      <trkpt lat="2.878902" lon="-75.14372">
        <ele>898.7</ele>
        <time>2021-08-21T12:05:45Z</time>
      </trkpt>
      <trkpt lat="2.878908" lon="-75.14371">
        <ele>898.8</ele>
        <time>2021-08-21T12:05:46Z</time>
      </trkpt>
      <trkpt lat="2.878913" lon="-75.143684">
        <ele>899.0</ele>
        <time>2021-08-21T12:05:47Z</time>
      </trkpt>
      <trkpt lat="2.878919" lon="-75.14367">
        <ele>899.1</ele>
        <time>2021-08-21T12:05:48Z</time>
      </trkpt>
      <trkpt lat="2.878925" lon="-75.14365">
        <ele>899.3</ele>
        <time>2021-08-21T12:05:49Z</time>
      </trkpt>
      <trkpt lat="2.878931" lon="-75.14363">
        <ele>899.4</ele>
        <time>2021-08-21T12:05:50Z</time>
      </trkpt>
      <trkpt lat="2.87894" lon="-75.1436">
        <ele>899.6</ele>
        <time>2021-08-21T12:05:52Z</time>
      </trkpt>
      <trkpt lat="2.878943" lon="-75.14359">
        <ele>899.7</ele>
        <time>2021-08-21T12:05:52Z</time>
      </trkpt>
      <trkpt lat="2.878948" lon="-75.14357">
        <ele>899.9</ele>
        <time>2021-08-21T12:05:53Z</time>
      </trkpt>
      <trkpt lat="2.878954" lon="-75.143555">
        <ele>900.0</ele>
        <time>2021-08-21T12:05:54Z</time>
      </trkpt>
      <trkpt lat="2.878961" lon="-75.14354">
        <ele>900.1</ele>
        <time>2021-08-21T12:05:55Z</time>
      </trkpt>
      <trkpt lat="2.878969" lon="-75.14352">
        <ele>900.3</ele>
        <time>2021-08-21T12:05:56Z</time>
      </trkpt>
      <trkpt lat="2.878978" lon="-75.1435">
        <ele>900.4</ele>
        <time>2021-08-21T12:05:57Z</time>
      </trkpt>
      <trkpt lat="2.878987" lon="-75.14348">
        <ele>900.6</ele>
        <time>2021-08-21T12:05:58Z</time>
      </trkpt>
      <trkpt lat="2.878995" lon="-75.14346">
        <ele>900.7</ele>
        <time>2021-08-21T12:05:59Z</time>
      </trkpt>
      <trkpt lat="2.879004" lon="-75.14344">
        <ele>900.9</ele>
        <time>2021-08-21T12:06:00Z</time>
      </trkpt>
      <trkpt lat="2.879013" lon="-75.143425">
        <ele>901.0</ele>
        <time>2021-08-21T12:06:01Z</time>
      </trkpt>
      <trkpt lat="2.879024" lon="-75.14341">
        <ele>901.2</ele>
        <time>2021-08-21T12:06:02Z</time>
      </trkpt>
      <trkpt lat="2.879036" lon="-75.14339">
        <ele>901.3</ele>
        <time>2021-08-21T12:06:03Z</time>
      </trkpt>
      <trkpt lat="2.879055" lon="-75.143364">
        <ele>901.6</ele>
        <time>2021-08-21T12:06:05Z</time>
      </trkpt>
      <trkpt lat="2.879061" lon="-75.14336">
        <ele>901.7</ele>
        <time>2021-08-21T12:06:05Z</time>
      </trkpt>
      <trkpt lat="2.879074" lon="-75.14334">
        <ele>901.8</ele>
        <time>2021-08-21T12:06:06Z</time>
      </trkpt>
      <trkpt lat="2.879087" lon="-75.143326">
        <ele>902.0</ele>
        <time>2021-08-21T12:06:07Z</time>
      </trkpt>
      <trkpt lat="2.8791" lon="-75.1433">
        <ele>902.2</ele>
        <time>2021-08-21T12:06:08Z</time>
      </trkpt>
      <trkpt lat="2.879112" lon="-75.14329">
        <ele>902.4</ele>
        <time>2021-08-21T12:06:09Z</time>
      </trkpt>
      <trkpt lat="2.879122" lon="-75.14327">
        <ele>902.5</ele>
        <time>2021-08-21T12:06:10Z</time>
      </trkpt>
      <trkpt lat="2.879134" lon="-75.14326">
        <ele>902.7</ele>
        <time>2021-08-21T12:06:11Z</time>
      </trkpt>
      <trkpt lat="2.879147" lon="-75.14324">
        <ele>902.9</ele>
        <time>2021-08-21T12:06:12Z</time>
      </trkpt>
      <trkpt lat="2.879159" lon="-75.14323">
        <ele>903.1</ele>
        <time>2021-08-21T12:06:13Z</time>
      </trkpt>
      <trkpt lat="2.879171" lon="-75.14321">
        <ele>903.2</ele>
        <time>2021-08-21T12:06:14Z</time>
      </trkpt>
      <trkpt lat="2.879185" lon="-75.1432">
        <ele>903.4</ele>
        <time>2021-08-21T12:06:15Z</time>
      </trkpt>
      <trkpt lat="2.879199" lon="-75.14319">
        <ele>903.6</ele>
        <time>2021-08-21T12:06:16Z</time>
      </trkpt>
      <trkpt lat="2.879214" lon="-75.14317">
        <ele>903.8</ele>
        <time>2021-08-21T12:06:17Z</time>
      </trkpt>
      <trkpt lat="2.87923" lon="-75.14316">
        <ele>904.0</ele>
        <time>2021-08-21T12:06:18Z</time>
      </trkpt>
      <trkpt lat="2.879245" lon="-75.14314">
        <ele>904.2</ele>
        <time>2021-08-21T12:06:19Z</time>
      </trkpt>
      <trkpt lat="2.87926" lon="-75.14313">
        <ele>904.5</ele>
        <time>2021-08-21T12:06:20Z</time>
      </trkpt>
      <trkpt lat="2.879273" lon="-75.14311">
        <ele>904.7</ele>
        <time>2021-08-21T12:06:21Z</time>
      </trkpt>
      <trkpt lat="2.87929" lon="-75.1431">
        <ele>904.9</ele>
        <time>2021-08-21T12:06:23Z</time>
      </trkpt>
      <trkpt lat="2.879295" lon="-75.14309">
        <ele>905.0</ele>
        <time>2021-08-21T12:06:23Z</time>
      </trkpt>
      <trkpt lat="2.879317" lon="-75.14307">
        <ele>905.3</ele>
        <time>2021-08-21T12:06:24Z</time>
      </trkpt>
      <trkpt lat="2.879329" lon="-75.14306">
        <ele>905.5</ele>
        <time>2021-08-21T12:06:25Z</time>
      </trkpt>
      <trkpt lat="2.87934" lon="-75.14305">
        <ele>905.6</ele>
        <time>2021-08-21T12:06:26Z</time>
      </trkpt>
      <trkpt lat="2.879352" lon="-75.14304">
        <ele>905.7</ele>
        <time>2021-08-21T12:06:27Z</time>
      </trkpt>
      <trkpt lat="2.879363" lon="-75.143036">
        <ele>905.9</ele>
        <time>2021-08-21T12:06:28Z</time>
      </trkpt>
      <trkpt lat="2.879375" lon="-75.14303">
        <ele>906.0</ele>
        <time>2021-08-21T12:06:30Z</time>
      </trkpt>
      <trkpt lat="2.879386" lon="-75.14302">
        <ele>906.2</ele>
        <time>2021-08-21T12:06:30Z</time>
      </trkpt>
      <trkpt lat="2.879399" lon="-75.14301">
        <ele>906.3</ele>
        <time>2021-08-21T12:06:31Z</time>
      </trkpt>
      <trkpt lat="2.879413" lon="-75.143">
        <ele>906.5</ele>
        <time>2021-08-21T12:06:32Z</time>
      </trkpt>
      <trkpt lat="2.879437" lon="-75.14298">
        <ele>906.8</ele>
        <time>2021-08-21T12:06:33Z</time>
      </trkpt>
      <trkpt lat="2.879448" lon="-75.142975">
        <ele>907.0</ele>
        <time>2021-08-21T12:06:34Z</time>
      </trkpt>
      <trkpt lat="2.87946" lon="-75.14297">
        <ele>907.1</ele>
        <time>2021-08-21T12:06:35Z</time>
      </trkpt>
      <trkpt lat="2.879471" lon="-75.14296">
        <ele>907.2</ele>
        <time>2021-08-21T12:06:37Z</time>
      </trkpt>
      <trkpt lat="2.879482" lon="-75.14295">
        <ele>907.4</ele>
        <time>2021-08-21T12:06:37Z</time>
      </trkpt>
      <trkpt lat="2.879498" lon="-75.142944">
        <ele>907.6</ele>
        <time>2021-08-21T12:06:38Z</time>
      </trkpt>
      <trkpt lat="2.879524" lon="-75.14293">
        <ele>907.9</ele>
        <time>2021-08-21T12:06:39Z</time>
      </trkpt>
      <trkpt lat="2.879535" lon="-75.14292">
        <ele>908.0</ele>
        <time>2021-08-21T12:06:40Z</time>
      </trkpt>
      <trkpt lat="2.879546" lon="-75.142914">
        <ele>908.2</ele>
        <time>2021-08-21T12:06:41Z</time>
      </trkpt>
      <trkpt lat="2.879557" lon="-75.14291">
        <ele>908.3</ele>
        <time>2021-08-21T12:06:42Z</time>
      </trkpt>
      <trkpt lat="2.879568" lon="-75.1429">
        <ele>908.4</ele>
        <time>2021-08-21T12:06:44Z</time>
      </trkpt>
      <trkpt lat="2.879579" lon="-75.14289">
        <ele>908.6</ele>
        <time>2021-08-21T12:06:44Z</time>
      </trkpt>
      <trkpt lat="2.879591" lon="-75.14288">
        <ele>908.7</ele>
        <time>2021-08-21T12:06:45Z</time>
      </trkpt>
      <trkpt lat="2.879604" lon="-75.142876">
        <ele>908.9</ele>
        <time>2021-08-21T12:06:46Z</time>
      </trkpt>
      <trkpt lat="2.879617" lon="-75.14286">
        <ele>909.1</ele>
        <time>2021-08-21T12:06:47Z</time>
      </trkpt>
      <trkpt lat="2.879631" lon="-75.14285">
        <ele>909.3</ele>
        <time>2021-08-21T12:06:48Z</time>
      </trkpt>
      <trkpt lat="2.879651" lon="-75.14283">
        <ele>909.5</ele>
        <time>2021-08-21T12:06:49Z</time>
      </trkpt>
      <trkpt lat="2.879658" lon="-75.14282">
        <ele>909.6</ele>
        <time>2021-08-21T12:06:51Z</time>
      </trkpt>
      <trkpt lat="2.879666" lon="-75.14281">
        <ele>909.8</ele>
        <time>2021-08-21T12:06:51Z</time>
      </trkpt>
      <trkpt lat="2.879675" lon="-75.14279">
        <ele>909.9</ele>
        <time>2021-08-21T12:06:52Z</time>
      </trkpt>
      <trkpt lat="2.879683" lon="-75.14278">
        <ele>910.1</ele>
        <time>2021-08-21T12:06:53Z</time>
      </trkpt>
      <trkpt lat="2.87969" lon="-75.14275">
        <ele>910.4</ele>
        <time>2021-08-21T12:06:54Z</time>
      </trkpt>
      <trkpt lat="2.879692" lon="-75.14274">
        <ele>910.5</ele>
        <time>2021-08-21T12:06:55Z</time>
      </trkpt>
      <trkpt lat="2.879695" lon="-75.14272">
        <ele>910.6</ele>
        <time>2021-08-21T12:06:56Z</time>
      </trkpt>
      <trkpt lat="2.879697" lon="-75.142715">
        <ele>910.7</ele>
        <time>2021-08-21T12:06:58Z</time>
      </trkpt>
      <trkpt lat="2.879699" lon="-75.1427">
        <ele>910.8</ele>
        <time>2021-08-21T12:06:58Z</time>
      </trkpt>
      <trkpt lat="2.879696" lon="-75.14269">
        <ele>910.9</ele>
        <time>2021-08-21T12:06:59Z</time>
      </trkpt>
      <trkpt lat="2.879691" lon="-75.14268">
        <ele>911.0</ele>
        <time>2021-08-21T12:07:00Z</time>
      </trkpt>
      <trkpt lat="2.879685" lon="-75.14266">
        <ele>911.2</ele>
        <time>2021-08-21T12:07:01Z</time>
      </trkpt>
      <trkpt lat="2.87968" lon="-75.14264">
        <ele>911.3</ele>
        <time>2021-08-21T12:07:02Z</time>
      </trkpt>
      <trkpt lat="2.87967" lon="-75.14261">
        <ele>911.6</ele>
        <time>2021-08-21T12:07:04Z</time>
      </trkpt>
      <trkpt lat="2.879673" lon="-75.14262">
        <ele>911.5</ele>
        <time>2021-08-21T12:07:04Z</time>
      </trkpt>
      <trkpt lat="2.879657" lon="-75.142586">
        <ele>911.8</ele>
        <time>2021-08-21T12:07:05Z</time>
      </trkpt>
      <trkpt lat="2.87965" lon="-75.14257">
        <ele>912.0</ele>
        <time>2021-08-21T12:07:06Z</time>
      </trkpt>
      <trkpt lat="2.879642" lon="-75.142555">
        <ele>912.1</ele>
        <time>2021-08-21T12:07:07Z</time>
      </trkpt>
      <trkpt lat="2.879634" lon="-75.14255">
        <ele>912.2</ele>
        <time>2021-08-21T12:07:08Z</time>
      </trkpt>
      <trkpt lat="2.879626" lon="-75.14253">
        <ele>912.3</ele>
        <time>2021-08-21T12:07:09Z</time>
      </trkpt>
      <trkpt lat="2.879611" lon="-75.14251">
        <ele>912.5</ele>
        <time>2021-08-21T12:07:11Z</time>
      </trkpt>
      <trkpt lat="2.879619" lon="-75.142525">
        <ele>912.4</ele>
        <time>2021-08-21T12:07:11Z</time>
      </trkpt>
      <trkpt lat="2.879602" lon="-75.142494">
        <ele>912.6</ele>
        <time>2021-08-21T12:07:12Z</time>
      </trkpt>
      <trkpt lat="2.879593" lon="-75.14248">
        <ele>912.7</ele>
        <time>2021-08-21T12:07:13Z</time>
      </trkpt>
      <trkpt lat="2.879585" lon="-75.14246">
        <ele>912.9</ele>
        <time>2021-08-21T12:07:14Z</time>
      </trkpt>
      <trkpt lat="2.879577" lon="-75.14245">
        <ele>913.0</ele>
        <time>2021-08-21T12:07:15Z</time>
      </trkpt>
      <trkpt lat="2.879571" lon="-75.14243">
        <ele>913.2</ele>
        <time>2021-08-21T12:07:16Z</time>
      </trkpt>
      <trkpt lat="2.879566" lon="-75.14241">
        <ele>913.3</ele>
        <time>2021-08-21T12:07:17Z</time>
      </trkpt>
      <trkpt lat="2.879562" lon="-75.142395">
        <ele>913.4</ele>
        <time>2021-08-21T12:07:18Z</time>
      </trkpt>
      <trkpt lat="2.87956" lon="-75.14237">
        <ele>913.6</ele>
        <time>2021-08-21T12:07:19Z</time>
      </trkpt>
      <trkpt lat="2.879558" lon="-75.14235">
        <ele>913.7</ele>
        <time>2021-08-21T12:07:20Z</time>
      </trkpt>
      <trkpt lat="2.879558" lon="-75.142334">
        <ele>913.9</ele>
        <time>2021-08-21T12:07:21Z</time>
      </trkpt>
      <trkpt lat="2.879557" lon="-75.14231">
        <ele>914.1</ele>
        <time>2021-08-21T12:07:22Z</time>
      </trkpt>
      <trkpt lat="2.879558" lon="-75.142296">
        <ele>914.2</ele>
        <time>2021-08-21T12:07:23Z</time>
      </trkpt>
      <trkpt lat="2.87956" lon="-75.14227">
        <ele>914.4</ele>
        <time>2021-08-21T12:07:24Z</time>
      </trkpt>
      <trkpt lat="2.879563" lon="-75.14226">
        <ele>914.5</ele>
        <time>2021-08-21T12:07:25Z</time>
      </trkpt>
      <trkpt lat="2.879565" lon="-75.142235">
        <ele>914.7</ele>
        <time>2021-08-21T12:07:26Z</time>
      </trkpt>
      <trkpt lat="2.879568" lon="-75.14221">
        <ele>914.9</ele>
        <time>2021-08-21T12:07:27Z</time>
      </trkpt>
      <trkpt lat="2.87957" lon="-75.1422">
        <ele>915.1</ele>
        <time>2021-08-21T12:07:28Z</time>
      </trkpt>
      <trkpt lat="2.879572" lon="-75.14218">
        <ele>915.2</ele>
        <time>2021-08-21T12:07:29Z</time>
      </trkpt>
      <trkpt lat="2.879578" lon="-75.14215">
        <ele>915.5</ele>
        <time>2021-08-21T12:07:30Z</time>
      </trkpt>
      <trkpt lat="2.879582" lon="-75.142136">
        <ele>915.6</ele>
        <time>2021-08-21T12:07:31Z</time>
      </trkpt>
      <trkpt lat="2.879586" lon="-75.14213">
        <ele>915.7</ele>
        <time>2021-08-21T12:07:32Z</time>
      </trkpt>
      <trkpt lat="2.879589" lon="-75.14211">
        <ele>915.8</ele>
        <time>2021-08-21T12:07:33Z</time>
      </trkpt>
      <trkpt lat="2.879593" lon="-75.1421">
        <ele>916.0</ele>
        <time>2021-08-21T12:07:34Z</time>
      </trkpt>
      <trkpt lat="2.879597" lon="-75.14209">
        <ele>916.1</ele>
        <time>2021-08-21T12:07:36Z</time>
      </trkpt>
      <trkpt lat="2.879601" lon="-75.142075">
        <ele>916.2</ele>
        <time>2021-08-21T12:07:36Z</time>
      </trkpt>
      <trkpt lat="2.879608" lon="-75.14205">
        <ele>916.4</ele>
        <time>2021-08-21T12:07:37Z</time>
      </trkpt>
      <trkpt lat="2.87961" lon="-75.14204">
        <ele>916.5</ele>
        <time>2021-08-21T12:07:38Z</time>
      </trkpt>
      <trkpt lat="2.879612" lon="-75.14203">
        <ele>916.6</ele>
        <time>2021-08-21T12:07:38Z</time>
      </trkpt>
      <trkpt lat="2.879615" lon="-75.14201">
        <ele>916.8</ele>
        <time>2021-08-21T12:07:39Z</time>
      </trkpt>
      <trkpt lat="2.879618" lon="-75.142">
        <ele>916.9</ele>
        <time>2021-08-21T12:07:40Z</time>
      </trkpt>
      <trkpt lat="2.879626" lon="-75.14197">
        <ele>917.2</ele>
        <time>2021-08-21T12:07:42Z</time>
      </trkpt>
      <trkpt lat="2.879628" lon="-75.14196">
        <ele>917.2</ele>
        <time>2021-08-21T12:07:42Z</time>
      </trkpt>
      <trkpt lat="2.879634" lon="-75.141945">
        <ele>917.4</ele>
        <time>2021-08-21T12:07:43Z</time>
      </trkpt>
      <trkpt lat="2.879639" lon="-75.14192">
        <ele>917.5</ele>
        <time>2021-08-21T12:07:44Z</time>
      </trkpt>
      <trkpt lat="2.879643" lon="-75.14191">
        <ele>917.6</ele>
        <time>2021-08-21T12:07:45Z</time>
      </trkpt>
      <trkpt lat="2.879648" lon="-75.14189">
        <ele>917.8</ele>
        <time>2021-08-21T12:07:46Z</time>
      </trkpt>
      <trkpt lat="2.879653" lon="-75.14187">
        <ele>917.9</ele>
        <time>2021-08-21T12:07:47Z</time>
      </trkpt>
      <trkpt lat="2.879661" lon="-75.14184">
        <ele>918.2</ele>
        <time>2021-08-21T12:07:49Z</time>
      </trkpt>
      <trkpt lat="2.879663" lon="-75.14183">
        <ele>918.2</ele>
        <time>2021-08-21T12:07:49Z</time>
      </trkpt>
      <trkpt lat="2.879668" lon="-75.14181">
        <ele>918.4</ele>
        <time>2021-08-21T12:07:50Z</time>
      </trkpt>
      <trkpt lat="2.879675" lon="-75.141785">
        <ele>918.5</ele>
        <time>2021-08-21T12:07:51Z</time>
      </trkpt>
      <trkpt lat="2.879682" lon="-75.14177">
        <ele>918.7</ele>
        <time>2021-08-21T12:07:52Z</time>
      </trkpt>
      <trkpt lat="2.879688" lon="-75.14175">
        <ele>918.9</ele>
        <time>2021-08-21T12:07:53Z</time>
      </trkpt>
      <trkpt lat="2.879695" lon="-75.14172">
        <ele>919.0</ele>
        <time>2021-08-21T12:07:54Z</time>
      </trkpt>
      <trkpt lat="2.879708" lon="-75.1417">
        <ele>919.2</ele>
        <time>2021-08-21T12:07:56Z</time>
      </trkpt>
      <trkpt lat="2.879712" lon="-75.141685">
        <ele>919.3</ele>
        <time>2021-08-21T12:07:56Z</time>
      </trkpt>
      <trkpt lat="2.879719" lon="-75.14167">
        <ele>919.5</ele>
        <time>2021-08-21T12:07:57Z</time>
      </trkpt>
      <trkpt lat="2.879724" lon="-75.141655">
        <ele>919.6</ele>
        <time>2021-08-21T12:07:58Z</time>
      </trkpt>
      <trkpt lat="2.879729" lon="-75.14164">
        <ele>919.7</ele>
        <time>2021-08-21T12:07:59Z</time>
      </trkpt>
      <trkpt lat="2.879734" lon="-75.14161">
        <ele>919.9</ele>
        <time>2021-08-21T12:08:00Z</time>
      </trkpt>
      <trkpt lat="2.879736" lon="-75.1416">
        <ele>920.0</ele>
        <time>2021-08-21T12:08:02Z</time>
      </trkpt>
      <trkpt lat="2.879737" lon="-75.14159">
        <ele>920.1</ele>
        <time>2021-08-21T12:08:02Z</time>
      </trkpt>
      <trkpt lat="2.879738" lon="-75.141556">
        <ele>920.3</ele>
        <time>2021-08-21T12:08:03Z</time>
      </trkpt>
      <trkpt lat="2.879739" lon="-75.14154">
        <ele>920.4</ele>
        <time>2021-08-21T12:08:04Z</time>
      </trkpt>
      <trkpt lat="2.87974" lon="-75.141525">
        <ele>920.6</ele>
        <time>2021-08-21T12:08:05Z</time>
      </trkpt>
      <trkpt lat="2.879741" lon="-75.14151">
        <ele>920.7</ele>
        <time>2021-08-21T12:08:06Z</time>
      </trkpt>
      <trkpt lat="2.879742" lon="-75.141495">
        <ele>920.8</ele>
        <time>2021-08-21T12:08:07Z</time>
      </trkpt>
      <trkpt lat="2.879743" lon="-75.14148">
        <ele>920.9</ele>
        <time>2021-08-21T12:08:09Z</time>
      </trkpt>
      <trkpt lat="2.879744" lon="-75.141464">
        <ele>921.0</ele>
        <time>2021-08-21T12:08:09Z</time>
      </trkpt>
      <trkpt lat="2.879746" lon="-75.14145">
        <ele>921.2</ele>
        <time>2021-08-21T12:08:10Z</time>
      </trkpt>
      <trkpt lat="2.87975" lon="-75.141426">
        <ele>921.3</ele>
        <time>2021-08-21T12:08:11Z</time>
      </trkpt>
      <trkpt lat="2.879753" lon="-75.1414">
        <ele>921.5</ele>
        <time>2021-08-21T12:08:12Z</time>
      </trkpt>
      <trkpt lat="2.879757" lon="-75.14138">
        <ele>921.6</ele>
        <time>2021-08-21T12:08:13Z</time>
      </trkpt>
      <trkpt lat="2.879761" lon="-75.14136">
        <ele>921.8</ele>
        <time>2021-08-21T12:08:14Z</time>
      </trkpt>
      <trkpt lat="2.879766" lon="-75.14133">
        <ele>922.0</ele>
        <time>2021-08-21T12:08:16Z</time>
      </trkpt>
      <trkpt lat="2.879768" lon="-75.14131">
        <ele>922.1</ele>
        <time>2021-08-21T12:08:16Z</time>
      </trkpt>
      <trkpt lat="2.879771" lon="-75.14129">
        <ele>922.2</ele>
        <time>2021-08-21T12:08:17Z</time>
      </trkpt>
      <trkpt lat="2.879773" lon="-75.141266">
        <ele>922.4</ele>
        <time>2021-08-21T12:08:18Z</time>
      </trkpt>
      <trkpt lat="2.879775" lon="-75.14124">
        <ele>922.5</ele>
        <time>2021-08-21T12:08:19Z</time>
      </trkpt>
      <trkpt lat="2.879776" lon="-75.14123">
        <ele>922.7</ele>
        <time>2021-08-21T12:08:20Z</time>
      </trkpt>
      <trkpt lat="2.879777" lon="-75.141205">
        <ele>922.8</ele>
        <time>2021-08-21T12:08:21Z</time>
      </trkpt>
      <trkpt lat="2.879778" lon="-75.14118">
        <ele>922.9</ele>
        <time>2021-08-21T12:08:22Z</time>
      </trkpt>
      <trkpt lat="2.879779" lon="-75.14116">
        <ele>923.0</ele>
        <time>2021-08-21T12:08:23Z</time>
      </trkpt>
      <trkpt lat="2.879781" lon="-75.14114">
        <ele>923.2</ele>
        <time>2021-08-21T12:08:24Z</time>
      </trkpt>
      <trkpt lat="2.879785" lon="-75.14112">
        <ele>923.3</ele>
        <time>2021-08-21T12:08:25Z</time>
      </trkpt>
      <trkpt lat="2.879788" lon="-75.1411">
        <ele>923.4</ele>
        <time>2021-08-21T12:08:26Z</time>
      </trkpt>
      <trkpt lat="2.87979" lon="-75.14108">
        <ele>923.5</ele>
        <time>2021-08-21T12:08:27Z</time>
      </trkpt>
      <trkpt lat="2.87979" lon="-75.14106">
        <ele>923.6</ele>
        <time>2021-08-21T12:08:28Z</time>
      </trkpt>
      <trkpt lat="2.87979" lon="-75.14104">
        <ele>923.7</ele>
        <time>2021-08-21T12:08:29Z</time>
      </trkpt>
      <trkpt lat="2.87979" lon="-75.141014">
        <ele>923.9</ele>
        <time>2021-08-21T12:08:30Z</time>
      </trkpt>
      <trkpt lat="2.879788" lon="-75.141">
        <ele>924.0</ele>
        <time>2021-08-21T12:08:31Z</time>
      </trkpt>
      <trkpt lat="2.879787" lon="-75.140976">
        <ele>924.1</ele>
        <time>2021-08-21T12:08:32Z</time>
      </trkpt>
      <trkpt lat="2.879786" lon="-75.14093">
        <ele>924.3</ele>
        <time>2021-08-21T12:08:34Z</time>
      </trkpt>
      <trkpt lat="2.879787" lon="-75.14094">
        <ele>924.3</ele>
        <time>2021-08-21T12:08:34Z</time>
      </trkpt>
      <trkpt lat="2.879784" lon="-75.14091">
        <ele>924.4</ele>
        <time>2021-08-21T12:08:35Z</time>
      </trkpt>
      <trkpt lat="2.879781" lon="-75.140884">
        <ele>924.6</ele>
        <time>2021-08-21T12:08:36Z</time>
      </trkpt>
      <trkpt lat="2.879778" lon="-75.14086">
        <ele>924.7</ele>
        <time>2021-08-21T12:08:37Z</time>
      </trkpt>
      <trkpt lat="2.879774" lon="-75.14084">
        <ele>924.8</ele>
        <time>2021-08-21T12:08:38Z</time>
      </trkpt>
      <trkpt lat="2.87977" lon="-75.140816">
        <ele>924.9</ele>
        <time>2021-08-21T12:08:39Z</time>
      </trkpt>
      <trkpt lat="2.879763" lon="-75.14077">
        <ele>925.2</ele>
        <time>2021-08-21T12:08:41Z</time>
      </trkpt>
      <trkpt lat="2.879764" lon="-75.14078">
        <ele>925.1</ele>
        <time>2021-08-21T12:08:41Z</time>
      </trkpt>
      <trkpt lat="2.87976" lon="-75.14075">
        <ele>925.2</ele>
        <time>2021-08-21T12:08:42Z</time>
      </trkpt>
      <trkpt lat="2.879759" lon="-75.14073">
        <ele>925.3</ele>
        <time>2021-08-21T12:08:43Z</time>
      </trkpt>
      <trkpt lat="2.879761" lon="-75.14072">
        <ele>925.4</ele>
        <time>2021-08-21T12:08:44Z</time>
      </trkpt>
      <trkpt lat="2.879762" lon="-75.1407">
        <ele>925.4</ele>
        <time>2021-08-21T12:08:45Z</time>
      </trkpt>
      <trkpt lat="2.879763" lon="-75.14069">
        <ele>925.5</ele>
        <time>2021-08-21T12:08:46Z</time>
      </trkpt>
      <trkpt lat="2.879769" lon="-75.14058">
        <ele>925.7</ele>
        <time>2021-08-21T12:09:26Z</time>
      </trkpt>
      <trkpt lat="2.879769" lon="-75.14057">
        <ele>925.7</ele>
        <time>2021-08-21T12:09:27Z</time>
      </trkpt>
      <trkpt lat="2.879767" lon="-75.140564">
        <ele>925.7</ele>
        <time>2021-08-21T12:09:28Z</time>
      </trkpt>
      <trkpt lat="2.879767" lon="-75.14054">
        <ele>925.8</ele>
        <time>2021-08-21T12:09:29Z</time>
      </trkpt>
      <trkpt lat="2.879767" lon="-75.14052">
        <ele>925.8</ele>
        <time>2021-08-21T12:09:30Z</time>
      </trkpt>
      <trkpt lat="2.879768" lon="-75.14049">
        <ele>925.8</ele>
        <time>2021-08-21T12:09:31Z</time>
      </trkpt>
      <trkpt lat="2.87977" lon="-75.14045">
        <ele>925.8</ele>
        <time>2021-08-21T12:09:33Z</time>
      </trkpt>
      <trkpt lat="2.87977" lon="-75.140434">
        <ele>925.8</ele>
        <time>2021-08-21T12:09:33Z</time>
      </trkpt>
      <trkpt lat="2.879769" lon="-75.1404">
        <ele>925.8</ele>
        <time>2021-08-21T12:09:34Z</time>
      </trkpt>
      <trkpt lat="2.879767" lon="-75.140366">
        <ele>925.7</ele>
        <time>2021-08-21T12:09:35Z</time>
      </trkpt>
      <trkpt lat="2.879765" lon="-75.140335">
        <ele>925.7</ele>
        <time>2021-08-21T12:09:36Z</time>
      </trkpt>
      <trkpt lat="2.879763" lon="-75.140305">
        <ele>925.7</ele>
        <time>2021-08-21T12:09:37Z</time>
      </trkpt>
      <trkpt lat="2.879763" lon="-75.140274">
        <ele>925.6</ele>
        <time>2021-08-21T12:09:38Z</time>
      </trkpt>
      <trkpt lat="2.879765" lon="-75.14023">
        <ele>925.5</ele>
        <time>2021-08-21T12:09:40Z</time>
      </trkpt>
      <trkpt lat="2.879765" lon="-75.14021">
        <ele>925.5</ele>
        <time>2021-08-21T12:09:40Z</time>
      </trkpt>
      <trkpt lat="2.879764" lon="-75.140175">
        <ele>925.4</ele>
        <time>2021-08-21T12:09:41Z</time>
      </trkpt>
      <trkpt lat="2.879763" lon="-75.14014">
        <ele>925.2</ele>
        <time>2021-08-21T12:09:42Z</time>
      </trkpt>
      <trkpt lat="2.879762" lon="-75.1401">
        <ele>925.1</ele>
        <time>2021-08-21T12:09:43Z</time>
      </trkpt>
      <trkpt lat="2.87976" lon="-75.14006">
        <ele>925.0</ele>
        <time>2021-08-21T12:09:44Z</time>
      </trkpt>
      <trkpt lat="2.879757" lon="-75.140015">
        <ele>924.9</ele>
        <time>2021-08-21T12:09:45Z</time>
      </trkpt>
      <trkpt lat="2.879754" lon="-75.13998">
        <ele>924.8</ele>
        <time>2021-08-21T12:09:46Z</time>
      </trkpt>
      <trkpt lat="2.879752" lon="-75.13994">
        <ele>924.7</ele>
        <time>2021-08-21T12:09:47Z</time>
      </trkpt>
      <trkpt lat="2.879746" lon="-75.1399">
        <ele>924.6</ele>
        <time>2021-08-21T12:09:48Z</time>
      </trkpt>
      <trkpt lat="2.879739" lon="-75.13986">
        <ele>924.5</ele>
        <time>2021-08-21T12:09:49Z</time>
      </trkpt>
      <trkpt lat="2.879729" lon="-75.139824">
        <ele>924.5</ele>
        <time>2021-08-21T12:09:50Z</time>
      </trkpt>
      <trkpt lat="2.879716" lon="-75.13979">
        <ele>924.4</ele>
        <time>2021-08-21T12:09:51Z</time>
      </trkpt>
      <trkpt lat="2.879699" lon="-75.13976">
        <ele>924.4</ele>
        <time>2021-08-21T12:09:52Z</time>
      </trkpt>
      <trkpt lat="2.879681" lon="-75.13973">
        <ele>924.4</ele>
        <time>2021-08-21T12:09:53Z</time>
      </trkpt>
      <trkpt lat="2.879662" lon="-75.13971">
        <ele>924.4</ele>
        <time>2021-08-21T12:09:54Z</time>
      </trkpt>
      <trkpt lat="2.879642" lon="-75.13969">
        <ele>924.4</ele>
        <time>2021-08-21T12:09:55Z</time>
      </trkpt>
      <trkpt lat="2.879622" lon="-75.13966">
        <ele>924.4</ele>
        <time>2021-08-21T12:09:56Z</time>
      </trkpt>
      <trkpt lat="2.879603" lon="-75.13964">
        <ele>924.3</ele>
        <time>2021-08-21T12:09:57Z</time>
      </trkpt>
      <trkpt lat="2.879585" lon="-75.13962">
        <ele>924.3</ele>
        <time>2021-08-21T12:09:58Z</time>
      </trkpt>
      <trkpt lat="2.879569" lon="-75.13959">
        <ele>924.3</ele>
        <time>2021-08-21T12:09:59Z</time>
      </trkpt>
      <trkpt lat="2.879555" lon="-75.139565">
        <ele>924.2</ele>
        <time>2021-08-21T12:10:00Z</time>
      </trkpt>
      <trkpt lat="2.879542" lon="-75.13954">
        <ele>924.1</ele>
        <time>2021-08-21T12:10:01Z</time>
      </trkpt>
      <trkpt lat="2.879529" lon="-75.13951">
        <ele>924.1</ele>
        <time>2021-08-21T12:10:02Z</time>
      </trkpt>
      <trkpt lat="2.879518" lon="-75.13948">
        <ele>924.0</ele>
        <time>2021-08-21T12:10:03Z</time>
      </trkpt>
      <trkpt lat="2.879507" lon="-75.13945">
        <ele>923.9</ele>
        <time>2021-08-21T12:10:04Z</time>
      </trkpt>
      <trkpt lat="2.879495" lon="-75.13942">
        <ele>923.8</ele>
        <time>2021-08-21T12:10:05Z</time>
      </trkpt>
      <trkpt lat="2.879481" lon="-75.13938">
        <ele>923.6</ele>
        <time>2021-08-21T12:10:06Z</time>
      </trkpt>
      <trkpt lat="2.879468" lon="-75.13934">
        <ele>923.4</ele>
        <time>2021-08-21T12:10:07Z</time>
      </trkpt>
      <trkpt lat="2.879455" lon="-75.1393">
        <ele>923.2</ele>
        <time>2021-08-21T12:10:08Z</time>
      </trkpt>
      <trkpt lat="2.879441" lon="-75.13926">
        <ele>923.0</ele>
        <time>2021-08-21T12:10:09Z</time>
      </trkpt>
      <trkpt lat="2.879424" lon="-75.139206">
        <ele>922.7</ele>
        <time>2021-08-21T12:10:10Z</time>
      </trkpt>
      <trkpt lat="2.879405" lon="-75.13916">
        <ele>922.5</ele>
        <time>2021-08-21T12:10:11Z</time>
      </trkpt>
      <trkpt lat="2.879366" lon="-75.13908">
        <ele>922.1</ele>
        <time>2021-08-21T12:10:13Z</time>
      </trkpt>
      <trkpt lat="2.879386" lon="-75.139114">
        <ele>922.3</ele>
        <time>2021-08-21T12:10:13Z</time>
      </trkpt>
      <trkpt lat="2.879345" lon="-75.13903">
        <ele>921.9</ele>
        <time>2021-08-21T12:10:14Z</time>
      </trkpt>
      <trkpt lat="2.879324" lon="-75.138985">
        <ele>921.7</ele>
        <time>2021-08-21T12:10:15Z</time>
      </trkpt>
      <trkpt lat="2.879302" lon="-75.13895">
        <ele>921.5</ele>
        <time>2021-08-21T12:10:16Z</time>
      </trkpt>
      <trkpt lat="2.879264" lon="-75.13886">
        <ele>921.2</ele>
        <time>2021-08-21T12:10:18Z</time>
      </trkpt>
      <trkpt lat="2.879281" lon="-75.1389">
        <ele>921.4</ele>
        <time>2021-08-21T12:10:18Z</time>
      </trkpt>
      <trkpt lat="2.879251" lon="-75.13882">
        <ele>921.1</ele>
        <time>2021-08-21T12:10:19Z</time>
      </trkpt>
      <trkpt lat="2.879243" lon="-75.13876">
        <ele>920.9</ele>
        <time>2021-08-21T12:10:20Z</time>
      </trkpt>
      <trkpt lat="2.879239" lon="-75.138725">
        <ele>920.8</ele>
        <time>2021-08-21T12:10:21Z</time>
      </trkpt>
      <trkpt lat="2.879241" lon="-75.13868">
        <ele>920.7</ele>
        <time>2021-08-21T12:10:22Z</time>
      </trkpt>
      <trkpt lat="2.879248" lon="-75.13864">
        <ele>920.6</ele>
        <time>2021-08-21T12:10:23Z</time>
      </trkpt>
      <trkpt lat="2.879257" lon="-75.1386">
        <ele>920.5</ele>
        <time>2021-08-21T12:10:24Z</time>
      </trkpt>
      <trkpt lat="2.879267" lon="-75.13856">
        <ele>920.4</ele>
        <time>2021-08-21T12:10:25Z</time>
      </trkpt>
      <trkpt lat="2.879273" lon="-75.13852">
        <ele>920.4</ele>
        <time>2021-08-21T12:10:26Z</time>
      </trkpt>
      <trkpt lat="2.879276" lon="-75.13848">
        <ele>920.4</ele>
        <time>2021-08-21T12:10:27Z</time>
      </trkpt>
      <trkpt lat="2.879276" lon="-75.13844">
        <ele>920.4</ele>
        <time>2021-08-21T12:10:28Z</time>
      </trkpt>
      <trkpt lat="2.87927" lon="-75.138405">
        <ele>920.4</ele>
        <time>2021-08-21T12:10:29Z</time>
      </trkpt>
      <trkpt lat="2.87926" lon="-75.138374">
        <ele>920.4</ele>
        <time>2021-08-21T12:10:30Z</time>
      </trkpt>
      <trkpt lat="2.879244" lon="-75.13834">
        <ele>920.5</ele>
        <time>2021-08-21T12:10:31Z</time>
      </trkpt>
      <trkpt lat="2.879226" lon="-75.13832">
        <ele>920.6</ele>
        <time>2021-08-21T12:10:32Z</time>
      </trkpt>
      <trkpt lat="2.879205" lon="-75.138306">
        <ele>920.7</ele>
        <time>2021-08-21T12:10:33Z</time>
      </trkpt>
      <trkpt lat="2.879185" lon="-75.13829">
        <ele>920.7</ele>
        <time>2021-08-21T12:10:34Z</time>
      </trkpt>
      <trkpt lat="2.879162" lon="-75.13828">
        <ele>920.8</ele>
        <time>2021-08-21T12:10:35Z</time>
      </trkpt>
      <trkpt lat="2.879137" lon="-75.13827">
        <ele>920.9</ele>
        <time>2021-08-21T12:10:36Z</time>
      </trkpt>
      <trkpt lat="2.879093" lon="-75.13826">
        <ele>921.1</ele>
        <time>2021-08-21T12:10:38Z</time>
      </trkpt>
      <trkpt lat="2.879104" lon="-75.13826">
        <ele>921.0</ele>
        <time>2021-08-21T12:10:38Z</time>
      </trkpt>
      <trkpt lat="2.87907" lon="-75.13826">
        <ele>921.2</ele>
        <time>2021-08-21T12:10:39Z</time>
      </trkpt>
      <trkpt lat="2.879048" lon="-75.13826">
        <ele>921.3</ele>
        <time>2021-08-21T12:10:40Z</time>
      </trkpt>
      <trkpt lat="2.879024" lon="-75.13826">
        <ele>921.4</ele>
        <time>2021-08-21T12:10:41Z</time>
      </trkpt>
      <trkpt lat="2.879" lon="-75.13826">
        <ele>921.5</ele>
        <time>2021-08-21T12:10:42Z</time>
      </trkpt>
      <trkpt lat="2.878975" lon="-75.13827">
        <ele>921.6</ele>
        <time>2021-08-21T12:10:43Z</time>
      </trkpt>
      <trkpt lat="2.878929" lon="-75.138275">
        <ele>921.9</ele>
        <time>2021-08-21T12:10:45Z</time>
      </trkpt>
      <trkpt lat="2.87894" lon="-75.13827">
        <ele>921.8</ele>
        <time>2021-08-21T12:10:45Z</time>
      </trkpt>
      <trkpt lat="2.878907" lon="-75.138275">
        <ele>922.0</ele>
        <time>2021-08-21T12:10:46Z</time>
      </trkpt>
      <trkpt lat="2.878886" lon="-75.13828">
        <ele>922.1</ele>
        <time>2021-08-21T12:10:47Z</time>
      </trkpt>
      <trkpt lat="2.878866" lon="-75.13828">
        <ele>922.2</ele>
        <time>2021-08-21T12:10:48Z</time>
      </trkpt>
      <trkpt lat="2.878847" lon="-75.13829">
        <ele>922.3</ele>
        <time>2021-08-21T12:10:49Z</time>
      </trkpt>
      <trkpt lat="2.878828" lon="-75.1383">
        <ele>922.5</ele>
        <time>2021-08-21T12:10:50Z</time>
      </trkpt>
      <trkpt lat="2.878794" lon="-75.13831">
        <ele>922.7</ele>
        <time>2021-08-21T12:10:52Z</time>
      </trkpt>
      <trkpt lat="2.878802" lon="-75.138306">
        <ele>922.6</ele>
        <time>2021-08-21T12:10:52Z</time>
      </trkpt>
      <trkpt lat="2.87878" lon="-75.13832">
        <ele>922.8</ele>
        <time>2021-08-21T12:10:53Z</time>
      </trkpt>
      <trkpt lat="2.87877" lon="-75.138336">
        <ele>922.8</ele>
        <time>2021-08-21T12:10:54Z</time>
      </trkpt>
      <trkpt lat="2.878761" lon="-75.13835">
        <ele>922.9</ele>
        <time>2021-08-21T12:10:55Z</time>
      </trkpt>
      <trkpt lat="2.878754" lon="-75.13837">
        <ele>923.0</ele>
        <time>2021-08-21T12:10:56Z</time>
      </trkpt>
      <trkpt lat="2.878746" lon="-75.13838">
        <ele>923.1</ele>
        <time>2021-08-21T12:10:57Z</time>
      </trkpt>
      <trkpt lat="2.878739" lon="-75.1384">
        <ele>923.2</ele>
        <time>2021-08-21T12:10:58Z</time>
      </trkpt>
      <trkpt lat="2.87873" lon="-75.13841">
        <ele>923.3</ele>
        <time>2021-08-21T12:10:59Z</time>
      </trkpt>
      <trkpt lat="2.87872" lon="-75.138435">
        <ele>923.4</ele>
        <time>2021-08-21T12:11:00Z</time>
      </trkpt>
      <trkpt lat="2.878708" lon="-75.13845">
        <ele>923.5</ele>
        <time>2021-08-21T12:11:01Z</time>
      </trkpt>
      <trkpt lat="2.878695" lon="-75.138466">
        <ele>923.6</ele>
        <time>2021-08-21T12:11:02Z</time>
      </trkpt>
      <trkpt lat="2.878685" lon="-75.13848">
        <ele>923.7</ele>
        <time>2021-08-21T12:11:03Z</time>
      </trkpt>
      <trkpt lat="2.878677" lon="-75.138504">
        <ele>923.9</ele>
        <time>2021-08-21T12:11:04Z</time>
      </trkpt>
      <trkpt lat="2.878671" lon="-75.13853">
        <ele>924.0</ele>
        <time>2021-08-21T12:11:05Z</time>
      </trkpt>
      <trkpt lat="2.878665" lon="-75.13855">
        <ele>924.1</ele>
        <time>2021-08-21T12:11:06Z</time>
      </trkpt>
      <trkpt lat="2.878657" lon="-75.13857">
        <ele>924.3</ele>
        <time>2021-08-21T12:11:07Z</time>
      </trkpt>
      <trkpt lat="2.878648" lon="-75.138596">
        <ele>924.4</ele>
        <time>2021-08-21T12:11:08Z</time>
      </trkpt>
      <trkpt lat="2.878636" lon="-75.13862">
        <ele>924.6</ele>
        <time>2021-08-21T12:11:09Z</time>
      </trkpt>
      <trkpt lat="2.878622" lon="-75.13864">
        <ele>924.7</ele>
        <time>2021-08-21T12:11:10Z</time>
      </trkpt>
      <trkpt lat="2.878607" lon="-75.13866">
        <ele>924.9</ele>
        <time>2021-08-21T12:11:11Z</time>
      </trkpt>
      <trkpt lat="2.878594" lon="-75.13868">
        <ele>925.0</ele>
        <time>2021-08-21T12:11:12Z</time>
      </trkpt>
      <trkpt lat="2.87858" lon="-75.138695">
        <ele>925.2</ele>
        <time>2021-08-21T12:11:13Z</time>
      </trkpt>
      <trkpt lat="2.878565" lon="-75.13871">
        <ele>925.3</ele>
        <time>2021-08-21T12:11:14Z</time>
      </trkpt>
      <trkpt lat="2.878547" lon="-75.13872">
        <ele>925.5</ele>
        <time>2021-08-21T12:11:15Z</time>
      </trkpt>
      <trkpt lat="2.878527" lon="-75.13873">
        <ele>925.6</ele>
        <time>2021-08-21T12:11:16Z</time>
      </trkpt>
      <trkpt lat="2.878506" lon="-75.13874">
        <ele>925.8</ele>
        <time>2021-08-21T12:11:17Z</time>
      </trkpt>
      <trkpt lat="2.878485" lon="-75.138756">
        <ele>926.0</ele>
        <time>2021-08-21T12:11:18Z</time>
      </trkpt>
      <trkpt lat="2.878462" lon="-75.13876">
        <ele>926.1</ele>
        <time>2021-08-21T12:11:19Z</time>
      </trkpt>
      <trkpt lat="2.878442" lon="-75.13877">
        <ele>926.3</ele>
        <time>2021-08-21T12:11:20Z</time>
      </trkpt>
      <trkpt lat="2.878421" lon="-75.13878">
        <ele>926.4</ele>
        <time>2021-08-21T12:11:21Z</time>
      </trkpt>
      <trkpt lat="2.878382" lon="-75.1388">
        <ele>926.8</ele>
        <time>2021-08-21T12:11:23Z</time>
      </trkpt>
      <trkpt lat="2.878392" lon="-75.138794">
        <ele>926.7</ele>
        <time>2021-08-21T12:11:23Z</time>
      </trkpt>
      <trkpt lat="2.878361" lon="-75.1388">
        <ele>926.9</ele>
        <time>2021-08-21T12:11:24Z</time>
      </trkpt>
      <trkpt lat="2.878338" lon="-75.13881">
        <ele>927.1</ele>
        <time>2021-08-21T12:11:25Z</time>
      </trkpt>
      <trkpt lat="2.878315" lon="-75.13882">
        <ele>927.3</ele>
        <time>2021-08-21T12:11:26Z</time>
      </trkpt>
      <trkpt lat="2.878292" lon="-75.13882">
        <ele>927.5</ele>
        <time>2021-08-21T12:11:27Z</time>
      </trkpt>
      <trkpt lat="2.87827" lon="-75.13882">
        <ele>927.7</ele>
        <time>2021-08-21T12:11:28Z</time>
      </trkpt>
      <trkpt lat="2.878224" lon="-75.138824">
        <ele>928.0</ele>
        <time>2021-08-21T12:11:30Z</time>
      </trkpt>
      <trkpt lat="2.878236" lon="-75.138824">
        <ele>927.9</ele>
        <time>2021-08-21T12:11:30Z</time>
      </trkpt>
      <trkpt lat="2.878201" lon="-75.138824">
        <ele>928.2</ele>
        <time>2021-08-21T12:11:31Z</time>
      </trkpt>
      <trkpt lat="2.878178" lon="-75.13882">
        <ele>928.4</ele>
        <time>2021-08-21T12:11:32Z</time>
      </trkpt>
      <trkpt lat="2.878155" lon="-75.13882">
        <ele>928.6</ele>
        <time>2021-08-21T12:11:33Z</time>
      </trkpt>
      <trkpt lat="2.878131" lon="-75.13881">
        <ele>928.8</ele>
        <time>2021-08-21T12:11:34Z</time>
      </trkpt>
      <trkpt lat="2.878108" lon="-75.13881">
        <ele>929.0</ele>
        <time>2021-08-21T12:11:35Z</time>
      </trkpt>
      <trkpt lat="2.878085" lon="-75.1388">
        <ele>929.2</ele>
        <time>2021-08-21T12:11:36Z</time>
      </trkpt>
      <trkpt lat="2.878064" lon="-75.1388">
        <ele>929.4</ele>
        <time>2021-08-21T12:11:37Z</time>
      </trkpt>
      <trkpt lat="2.878043" lon="-75.1388">
        <ele>929.6</ele>
        <time>2021-08-21T12:11:38Z</time>
      </trkpt>
      <trkpt lat="2.878024" lon="-75.1388">
        <ele>929.8</ele>
        <time>2021-08-21T12:11:39Z</time>
      </trkpt>
      <trkpt lat="2.878006" lon="-75.1388">
        <ele>930.0</ele>
        <time>2021-08-21T12:11:40Z</time>
      </trkpt>
      <trkpt lat="2.877987" lon="-75.1388">
        <ele>930.1</ele>
        <time>2021-08-21T12:11:41Z</time>
      </trkpt>
      <trkpt lat="2.877965" lon="-75.13882">
        <ele>930.4</ele>
        <time>2021-08-21T12:11:42Z</time>
      </trkpt>
      <trkpt lat="2.87796" lon="-75.138824">
        <ele>930.5</ele>
        <time>2021-08-21T12:11:43Z</time>
      </trkpt>
      <trkpt lat="2.877956" lon="-75.13883">
        <ele>930.6</ele>
        <time>2021-08-21T12:11:44Z</time>
      </trkpt>
      <trkpt lat="2.877951" lon="-75.13885">
        <ele>930.7</ele>
        <time>2021-08-21T12:11:45Z</time>
      </trkpt>
      <trkpt lat="2.877946" lon="-75.138855">
        <ele>930.8</ele>
        <time>2021-08-21T12:11:46Z</time>
      </trkpt>
      <trkpt lat="2.877941" lon="-75.13886">
        <ele>930.9</ele>
        <time>2021-08-21T12:11:47Z</time>
      </trkpt>
      <trkpt lat="2.877937" lon="-75.13888">
        <ele>931.0</ele>
        <time>2021-08-21T12:11:48Z</time>
      </trkpt>
      <trkpt lat="2.877927" lon="-75.13889">
        <ele>931.2</ele>
        <time>2021-08-21T12:11:50Z</time>
      </trkpt>
      <trkpt lat="2.877932" lon="-75.138885">
        <ele>931.1</ele>
        <time>2021-08-21T12:11:50Z</time>
      </trkpt>
      <trkpt lat="2.877936" lon="-75.13891">
        <ele>931.4</ele>
        <time>2021-08-21T12:11:51Z</time>
      </trkpt>
      <trkpt lat="2.877946" lon="-75.13892">
        <ele>931.5</ele>
        <time>2021-08-21T12:11:52Z</time>
      </trkpt>
      <trkpt lat="2.877957" lon="-75.13894">
        <ele>931.7</ele>
        <time>2021-08-21T12:11:53Z</time>
      </trkpt>
      <trkpt lat="2.877968" lon="-75.13896">
        <ele>931.8</ele>
        <time>2021-08-21T12:11:53Z</time>
      </trkpt>
      <trkpt lat="2.877979" lon="-75.13898">
        <ele>932.0</ele>
        <time>2021-08-21T12:11:54Z</time>
      </trkpt>
      <trkpt lat="2.877994" lon="-75.139">
        <ele>932.2</ele>
        <time>2021-08-21T12:11:56Z</time>
      </trkpt>
      <trkpt lat="2.877999" lon="-75.13901">
        <ele>932.3</ele>
        <time>2021-08-21T12:11:56Z</time>
      </trkpt>
      <trkpt lat="2.878007" lon="-75.13903">
        <ele>932.5</ele>
        <time>2021-08-21T12:11:57Z</time>
      </trkpt>
      <trkpt lat="2.878014" lon="-75.139046">
        <ele>932.6</ele>
        <time>2021-08-21T12:11:58Z</time>
      </trkpt>
      <trkpt lat="2.878022" lon="-75.13907">
        <ele>932.8</ele>
        <time>2021-08-21T12:11:59Z</time>
      </trkpt>
      <trkpt lat="2.878029" lon="-75.139084">
        <ele>932.9</ele>
        <time>2021-08-21T12:12:00Z</time>
      </trkpt>
      <trkpt lat="2.878038" lon="-75.139114">
        <ele>933.2</ele>
        <time>2021-08-21T12:12:02Z</time>
      </trkpt>
      <trkpt lat="2.87804" lon="-75.13913">
        <ele>933.2</ele>
        <time>2021-08-21T12:12:02Z</time>
      </trkpt>
      <trkpt lat="2.878042" lon="-75.139145">
        <ele>933.4</ele>
        <time>2021-08-21T12:12:03Z</time>
      </trkpt>
      <trkpt lat="2.87804" lon="-75.13917">
        <ele>933.6</ele>
        <time>2021-08-21T12:12:04Z</time>
      </trkpt>
      <trkpt lat="2.878036" lon="-75.13919">
        <ele>933.7</ele>
        <time>2021-08-21T12:12:05Z</time>
      </trkpt>
      <trkpt lat="2.878028" lon="-75.13921">
        <ele>933.9</ele>
        <time>2021-08-21T12:12:06Z</time>
      </trkpt>
      <trkpt lat="2.878019" lon="-75.13923">
        <ele>934.0</ele>
        <time>2021-08-21T12:12:07Z</time>
      </trkpt>
      <trkpt lat="2.877997" lon="-75.13927">
        <ele>934.4</ele>
        <time>2021-08-21T12:12:09Z</time>
      </trkpt>
      <trkpt lat="2.878003" lon="-75.13926">
        <ele>934.3</ele>
        <time>2021-08-21T12:12:09Z</time>
      </trkpt>
      <trkpt lat="2.877988" lon="-75.13929">
        <ele>934.5</ele>
        <time>2021-08-21T12:12:10Z</time>
      </trkpt>
      <trkpt lat="2.877978" lon="-75.139305">
        <ele>934.6</ele>
        <time>2021-08-21T12:12:11Z</time>
      </trkpt>
      <trkpt lat="2.877968" lon="-75.13933">
        <ele>934.8</ele>
        <time>2021-08-21T12:12:12Z</time>
      </trkpt>
      <trkpt lat="2.877959" lon="-75.13934">
        <ele>934.9</ele>
        <time>2021-08-21T12:12:13Z</time>
      </trkpt>
      <trkpt lat="2.877951" lon="-75.139366">
        <ele>935.0</ele>
        <time>2021-08-21T12:12:14Z</time>
      </trkpt>
      <trkpt lat="2.877943" lon="-75.13938">
        <ele>935.1</ele>
        <time>2021-08-21T12:12:15Z</time>
      </trkpt>
      <trkpt lat="2.877936" lon="-75.1394">
        <ele>935.2</ele>
        <time>2021-08-21T12:12:16Z</time>
      </trkpt>
      <trkpt lat="2.877929" lon="-75.13942">
        <ele>935.3</ele>
        <time>2021-08-21T12:12:17Z</time>
      </trkpt>
      <trkpt lat="2.877922" lon="-75.139435">
        <ele>935.4</ele>
        <time>2021-08-21T12:12:18Z</time>
      </trkpt>
      <trkpt lat="2.877909" lon="-75.13945">
        <ele>935.5</ele>
        <time>2021-08-21T12:12:19Z</time>
      </trkpt>
      <trkpt lat="2.877887" lon="-75.139465">
        <ele>935.7</ele>
        <time>2021-08-21T12:12:20Z</time>
      </trkpt>
      <trkpt lat="2.877863" lon="-75.13949">
        <ele>935.9</ele>
        <time>2021-08-21T12:12:21Z</time>
      </trkpt>
      <trkpt lat="2.877839" lon="-75.1395">
        <ele>936.1</ele>
        <time>2021-08-21T12:12:22Z</time>
      </trkpt>
      <trkpt lat="2.877814" lon="-75.13952">
        <ele>936.3</ele>
        <time>2021-08-21T12:12:23Z</time>
      </trkpt>
      <trkpt lat="2.877791" lon="-75.139534">
        <ele>936.5</ele>
        <time>2021-08-21T12:12:24Z</time>
      </trkpt>
      <trkpt lat="2.877769" lon="-75.13955">
        <ele>936.6</ele>
        <time>2021-08-21T12:12:25Z</time>
      </trkpt>
      <trkpt lat="2.877748" lon="-75.139565">
        <ele>936.8</ele>
        <time>2021-08-21T12:12:26Z</time>
      </trkpt>
      <trkpt lat="2.877728" lon="-75.13958">
        <ele>937.0</ele>
        <time>2021-08-21T12:12:27Z</time>
      </trkpt>
      <trkpt lat="2.877708" lon="-75.13959">
        <ele>937.0</ele>
        <time>2021-08-21T12:12:28Z</time>
      </trkpt>
      <trkpt lat="2.877688" lon="-75.1396">
        <ele>937.0</ele>
        <time>2021-08-21T12:12:29Z</time>
      </trkpt>
      <trkpt lat="2.877669" lon="-75.13962">
        <ele>937.0</ele>
        <time>2021-08-21T12:12:30Z</time>
      </trkpt>
      <trkpt lat="2.87765" lon="-75.13963">
        <ele>937.0</ele>
        <time>2021-08-21T12:12:31Z</time>
      </trkpt>
      <trkpt lat="2.877632" lon="-75.13965">
        <ele>937.0</ele>
        <time>2021-08-21T12:12:32Z</time>
      </trkpt>
      <trkpt lat="2.877602" lon="-75.13969">
        <ele>937.0</ele>
        <time>2021-08-21T12:12:34Z</time>
      </trkpt>
      <trkpt lat="2.877609" lon="-75.13968">
        <ele>937.0</ele>
        <time>2021-08-21T12:12:34Z</time>
      </trkpt>
      <trkpt lat="2.877588" lon="-75.13971">
        <ele>936.9</ele>
        <time>2021-08-21T12:12:35Z</time>
      </trkpt>
      <trkpt lat="2.877576" lon="-75.139725">
        <ele>936.9</ele>
        <time>2021-08-21T12:12:36Z</time>
      </trkpt>
      <trkpt lat="2.877565" lon="-75.13975">
        <ele>936.9</ele>
        <time>2021-08-21T12:12:37Z</time>
      </trkpt>
      <trkpt lat="2.877557" lon="-75.13977">
        <ele>936.9</ele>
        <time>2021-08-21T12:12:38Z</time>
      </trkpt>
      <trkpt lat="2.87755" lon="-75.13979">
        <ele>936.9</ele>
        <time>2021-08-21T12:12:39Z</time>
      </trkpt>
      <trkpt lat="2.877544" lon="-75.13982">
        <ele>936.9</ele>
        <time>2021-08-21T12:12:40Z</time>
      </trkpt>
      <trkpt lat="2.877537" lon="-75.13984">
        <ele>936.9</ele>
        <time>2021-08-21T12:12:41Z</time>
      </trkpt>
      <trkpt lat="2.877532" lon="-75.13986">
        <ele>936.9</ele>
        <time>2021-08-21T12:12:42Z</time>
      </trkpt>
      <trkpt lat="2.877527" lon="-75.139885">
        <ele>936.9</ele>
        <time>2021-08-21T12:12:43Z</time>
      </trkpt>
      <trkpt lat="2.877523" lon="-75.13991">
        <ele>936.9</ele>
        <time>2021-08-21T12:12:44Z</time>
      </trkpt>
      <trkpt lat="2.877517" lon="-75.13994">
        <ele>936.9</ele>
        <time>2021-08-21T12:12:45Z</time>
      </trkpt>
      <trkpt lat="2.877511" lon="-75.13996">
        <ele>936.9</ele>
        <time>2021-08-21T12:12:46Z</time>
      </trkpt>
      <trkpt lat="2.877504" lon="-75.139984">
        <ele>936.9</ele>
        <time>2021-08-21T12:12:47Z</time>
      </trkpt>
      <trkpt lat="2.877495" lon="-75.14001">
        <ele>936.9</ele>
        <time>2021-08-21T12:12:48Z</time>
      </trkpt>
      <trkpt lat="2.877485" lon="-75.14004">
        <ele>936.9</ele>
        <time>2021-08-21T12:12:49Z</time>
      </trkpt>
      <trkpt lat="2.877474" lon="-75.14006">
        <ele>936.9</ele>
        <time>2021-08-21T12:12:50Z</time>
      </trkpt>
      <trkpt lat="2.877463" lon="-75.14008">
        <ele>936.9</ele>
        <time>2021-08-21T12:12:51Z</time>
      </trkpt>
      <trkpt lat="2.877451" lon="-75.14011">
        <ele>936.9</ele>
        <time>2021-08-21T12:12:52Z</time>
      </trkpt>
      <trkpt lat="2.877439" lon="-75.14013">
        <ele>936.9</ele>
        <time>2021-08-21T12:12:53Z</time>
      </trkpt>
      <trkpt lat="2.877427" lon="-75.14015">
        <ele>936.9</ele>
        <time>2021-08-21T12:12:54Z</time>
      </trkpt>
      <trkpt lat="2.877416" lon="-75.140175">
        <ele>936.9</ele>
        <time>2021-08-21T12:12:55Z</time>
      </trkpt>
      <trkpt lat="2.877407" lon="-75.1402">
        <ele>936.9</ele>
        <time>2021-08-21T12:12:56Z</time>
      </trkpt>
      <trkpt lat="2.877397" lon="-75.14022">
        <ele>936.9</ele>
        <time>2021-08-21T12:12:57Z</time>
      </trkpt>
      <trkpt lat="2.877386" lon="-75.14024">
        <ele>936.9</ele>
        <time>2021-08-21T12:12:58Z</time>
      </trkpt>
      <trkpt lat="2.877377" lon="-75.14027">
        <ele>936.9</ele>
        <time>2021-08-21T12:12:59Z</time>
      </trkpt>
      <trkpt lat="2.877368" lon="-75.14029">
        <ele>936.9</ele>
        <time>2021-08-21T12:13:00Z</time>
      </trkpt>
      <trkpt lat="2.877359" lon="-75.140305">
        <ele>936.9</ele>
        <time>2021-08-21T12:13:01Z</time>
      </trkpt>
      <trkpt lat="2.877351" lon="-75.14033">
        <ele>936.9</ele>
        <time>2021-08-21T12:13:02Z</time>
      </trkpt>
      <trkpt lat="2.877343" lon="-75.14035">
        <ele>936.9</ele>
        <time>2021-08-21T12:13:03Z</time>
      </trkpt>
      <trkpt lat="2.877335" lon="-75.14037">
        <ele>936.9</ele>
        <time>2021-08-21T12:13:04Z</time>
      </trkpt>
      <trkpt lat="2.877327" lon="-75.140396">
        <ele>937.0</ele>
        <time>2021-08-21T12:13:05Z</time>
      </trkpt>
      <trkpt lat="2.87732" lon="-75.14042">
        <ele>937.0</ele>
        <time>2021-08-21T12:13:06Z</time>
      </trkpt>
      <trkpt lat="2.877311" lon="-75.140434">
        <ele>937.0</ele>
        <time>2021-08-21T12:13:07Z</time>
      </trkpt>
      <trkpt lat="2.877302" lon="-75.14046">
        <ele>937.0</ele>
        <time>2021-08-21T12:13:08Z</time>
      </trkpt>
      <trkpt lat="2.877293" lon="-75.14048">
        <ele>937.0</ele>
        <time>2021-08-21T12:13:09Z</time>
      </trkpt>
      <trkpt lat="2.877284" lon="-75.140495">
        <ele>937.0</ele>
        <time>2021-08-21T12:13:10Z</time>
      </trkpt>
      <trkpt lat="2.877275" lon="-75.14052">
        <ele>937.0</ele>
        <time>2021-08-21T12:13:11Z</time>
      </trkpt>
      <trkpt lat="2.877267" lon="-75.14054">
        <ele>937.0</ele>
        <time>2021-08-21T12:13:12Z</time>
      </trkpt>
      <trkpt lat="2.877255" lon="-75.14058">
        <ele>937.0</ele>
        <time>2021-08-21T12:13:14Z</time>
      </trkpt>
      <trkpt lat="2.877258" lon="-75.14057">
        <ele>937.0</ele>
        <time>2021-08-21T12:13:14Z</time>
      </trkpt>
      <trkpt lat="2.87725" lon="-75.1406">
        <ele>937.0</ele>
        <time>2021-08-21T12:13:15Z</time>
      </trkpt>
      <trkpt lat="2.877245" lon="-75.140625">
        <ele>937.0</ele>
        <time>2021-08-21T12:13:16Z</time>
      </trkpt>
      <trkpt lat="2.877242" lon="-75.140656">
        <ele>937.0</ele>
        <time>2021-08-21T12:13:17Z</time>
      </trkpt>
      <trkpt lat="2.877233" lon="-75.1407">
        <ele>937.0</ele>
        <time>2021-08-21T12:13:19Z</time>
      </trkpt>
      <trkpt lat="2.877236" lon="-75.140686">
        <ele>937.0</ele>
        <time>2021-08-21T12:13:19Z</time>
      </trkpt>
      <trkpt lat="2.877227" lon="-75.140724">
        <ele>937.1</ele>
        <time>2021-08-21T12:13:20Z</time>
      </trkpt>
      <trkpt lat="2.877221" lon="-75.14075">
        <ele>937.1</ele>
        <time>2021-08-21T12:13:21Z</time>
      </trkpt>
      <trkpt lat="2.877214" lon="-75.14077">
        <ele>937.1</ele>
        <time>2021-08-21T12:13:22Z</time>
      </trkpt>
      <trkpt lat="2.877206" lon="-75.140785">
        <ele>937.1</ele>
        <time>2021-08-21T12:13:23Z</time>
      </trkpt>
      <trkpt lat="2.877198" lon="-75.14081">
        <ele>937.1</ele>
        <time>2021-08-21T12:13:24Z</time>
      </trkpt>
      <trkpt lat="2.87718" lon="-75.140854">
        <ele>937.1</ele>
        <time>2021-08-21T12:13:26Z</time>
      </trkpt>
      <trkpt lat="2.877185" lon="-75.14084">
        <ele>937.1</ele>
        <time>2021-08-21T12:13:26Z</time>
      </trkpt>
      <trkpt lat="2.877168" lon="-75.14087">
        <ele>937.2</ele>
        <time>2021-08-21T12:13:27Z</time>
      </trkpt>
      <trkpt lat="2.877154" lon="-75.140884">
        <ele>937.2</ele>
        <time>2021-08-21T12:13:28Z</time>
      </trkpt>
      <trkpt lat="2.877138" lon="-75.1409">
        <ele>937.2</ele>
        <time>2021-08-21T12:13:29Z</time>
      </trkpt>
      <trkpt lat="2.877121" lon="-75.14091">
        <ele>937.2</ele>
        <time>2021-08-21T12:13:30Z</time>
      </trkpt>
      <trkpt lat="2.877103" lon="-75.14092">
        <ele>937.2</ele>
        <time>2021-08-21T12:13:31Z</time>
      </trkpt>
      <trkpt lat="2.877065" lon="-75.140945">
        <ele>937.3</ele>
        <time>2021-08-21T12:13:33Z</time>
      </trkpt>
      <trkpt lat="2.877075" lon="-75.140945">
        <ele>937.2</ele>
        <time>2021-08-21T12:13:33Z</time>
      </trkpt>
      <trkpt lat="2.877047" lon="-75.14096">
        <ele>937.3</ele>
        <time>2021-08-21T12:13:34Z</time>
      </trkpt>
      <trkpt lat="2.877029" lon="-75.14097">
        <ele>937.3</ele>
        <time>2021-08-21T12:13:35Z</time>
      </trkpt>
      <trkpt lat="2.877012" lon="-75.14098">
        <ele>937.3</ele>
        <time>2021-08-21T12:13:36Z</time>
      </trkpt>
      <trkpt lat="2.876992" lon="-75.141">
        <ele>937.4</ele>
        <time>2021-08-21T12:13:37Z</time>
      </trkpt>
      <trkpt lat="2.876973" lon="-75.14101">
        <ele>937.4</ele>
        <time>2021-08-21T12:13:38Z</time>
      </trkpt>
      <trkpt lat="2.876953" lon="-75.14102">
        <ele>937.4</ele>
        <time>2021-08-21T12:13:39Z</time>
      </trkpt>
      <trkpt lat="2.876934" lon="-75.14103">
        <ele>937.5</ele>
        <time>2021-08-21T12:13:40Z</time>
      </trkpt>
      <trkpt lat="2.876913" lon="-75.141045">
        <ele>937.5</ele>
        <time>2021-08-21T12:13:41Z</time>
      </trkpt>
      <trkpt lat="2.876893" lon="-75.14105">
        <ele>937.5</ele>
        <time>2021-08-21T12:13:42Z</time>
      </trkpt>
      <trkpt lat="2.876873" lon="-75.14107">
        <ele>937.5</ele>
        <time>2021-08-21T12:13:43Z</time>
      </trkpt>
      <trkpt lat="2.876854" lon="-75.141075">
        <ele>937.6</ele>
        <time>2021-08-21T12:13:44Z</time>
      </trkpt>
      <trkpt lat="2.876835" lon="-75.14108">
        <ele>937.6</ele>
        <time>2021-08-21T12:13:45Z</time>
      </trkpt>
      <trkpt lat="2.876817" lon="-75.14109">
        <ele>937.6</ele>
        <time>2021-08-21T12:13:46Z</time>
      </trkpt>
      <trkpt lat="2.876799" lon="-75.141106">
        <ele>937.6</ele>
        <time>2021-08-21T12:13:47Z</time>
      </trkpt>
      <trkpt lat="2.87678" lon="-75.14111">
        <ele>937.6</ele>
        <time>2021-08-21T12:13:48Z</time>
      </trkpt>
      <trkpt lat="2.876761" lon="-75.14113">
        <ele>937.7</ele>
        <time>2021-08-21T12:13:49Z</time>
      </trkpt>
      <trkpt lat="2.876741" lon="-75.14114">
        <ele>937.7</ele>
        <time>2021-08-21T12:13:50Z</time>
      </trkpt>
      <trkpt lat="2.876722" lon="-75.14115">
        <ele>937.7</ele>
        <time>2021-08-21T12:13:51Z</time>
      </trkpt>
      <trkpt lat="2.876681" lon="-75.141174">
        <ele>937.8</ele>
        <time>2021-08-21T12:13:53Z</time>
      </trkpt>
      <trkpt lat="2.876691" lon="-75.14117">
        <ele>937.8</ele>
        <time>2021-08-21T12:13:53Z</time>
      </trkpt>
      <trkpt lat="2.876661" lon="-75.14118">
        <ele>937.9</ele>
        <time>2021-08-21T12:13:54Z</time>
      </trkpt>
      <trkpt lat="2.87664" lon="-75.14119">
        <ele>937.9</ele>
        <time>2021-08-21T12:13:55Z</time>
      </trkpt>
      <trkpt lat="2.87662" lon="-75.141205">
        <ele>938.0</ele>
        <time>2021-08-21T12:13:56Z</time>
      </trkpt>
      <trkpt lat="2.876598" lon="-75.14121">
        <ele>938.0</ele>
        <time>2021-08-21T12:13:57Z</time>
      </trkpt>
      <trkpt lat="2.876578" lon="-75.14122">
        <ele>938.1</ele>
        <time>2021-08-21T12:13:58Z</time>
      </trkpt>
      <trkpt lat="2.876556" lon="-75.14123">
        <ele>938.1</ele>
        <time>2021-08-21T12:13:59Z</time>
      </trkpt>
      <trkpt lat="2.876534" lon="-75.141235">
        <ele>938.2</ele>
        <time>2021-08-21T12:14:00Z</time>
      </trkpt>
      <trkpt lat="2.876512" lon="-75.14124">
        <ele>938.2</ele>
        <time>2021-08-21T12:14:01Z</time>
      </trkpt>
      <trkpt lat="2.876493" lon="-75.14125">
        <ele>938.3</ele>
        <time>2021-08-21T12:14:02Z</time>
      </trkpt>
      <trkpt lat="2.876475" lon="-75.14126">
        <ele>938.3</ele>
        <time>2021-08-21T12:14:03Z</time>
      </trkpt>
      <trkpt lat="2.876458" lon="-75.14127">
        <ele>938.4</ele>
        <time>2021-08-21T12:14:04Z</time>
      </trkpt>
      <trkpt lat="2.876442" lon="-75.14128">
        <ele>938.4</ele>
        <time>2021-08-21T12:14:05Z</time>
      </trkpt>
      <trkpt lat="2.876426" lon="-75.1413">
        <ele>938.4</ele>
        <time>2021-08-21T12:14:06Z</time>
      </trkpt>
      <trkpt lat="2.87641" lon="-75.14131">
        <ele>938.5</ele>
        <time>2021-08-21T12:14:07Z</time>
      </trkpt>
      <trkpt lat="2.876395" lon="-75.14133">
        <ele>938.5</ele>
        <time>2021-08-21T12:14:08Z</time>
      </trkpt>
      <trkpt lat="2.876381" lon="-75.14134">
        <ele>938.5</ele>
        <time>2021-08-21T12:14:09Z</time>
      </trkpt>
      <trkpt lat="2.876367" lon="-75.14136">
        <ele>938.6</ele>
        <time>2021-08-21T12:14:10Z</time>
      </trkpt>
      <trkpt lat="2.876352" lon="-75.14137">
        <ele>938.6</ele>
        <time>2021-08-21T12:14:11Z</time>
      </trkpt>
      <trkpt lat="2.876321" lon="-75.141396">
        <ele>938.7</ele>
        <time>2021-08-21T12:14:13Z</time>
      </trkpt>
      <trkpt lat="2.876329" lon="-75.14139">
        <ele>938.7</ele>
        <time>2021-08-21T12:14:13Z</time>
      </trkpt>
      <trkpt lat="2.876306" lon="-75.14141">
        <ele>938.8</ele>
        <time>2021-08-21T12:14:14Z</time>
      </trkpt>
      <trkpt lat="2.876291" lon="-75.141426">
        <ele>938.8</ele>
        <time>2021-08-21T12:14:15Z</time>
      </trkpt>
      <trkpt lat="2.876278" lon="-75.14143">
        <ele>938.9</ele>
        <time>2021-08-21T12:14:16Z</time>
      </trkpt>
      <trkpt lat="2.876253" lon="-75.141464">
        <ele>939.0</ele>
        <time>2021-08-21T12:14:18Z</time>
      </trkpt>
      <trkpt lat="2.876259" lon="-75.14146">
        <ele>939.0</ele>
        <time>2021-08-21T12:14:18Z</time>
      </trkpt>
      <trkpt lat="2.876241" lon="-75.14147">
        <ele>939.0</ele>
        <time>2021-08-21T12:14:19Z</time>
      </trkpt>
      <trkpt lat="2.876229" lon="-75.14149">
        <ele>939.1</ele>
        <time>2021-08-21T12:14:20Z</time>
      </trkpt>
      <trkpt lat="2.876216" lon="-75.141495">
        <ele>939.1</ele>
        <time>2021-08-21T12:14:21Z</time>
      </trkpt>
      <trkpt lat="2.876204" lon="-75.14151">
        <ele>939.2</ele>
        <time>2021-08-21T12:14:22Z</time>
      </trkpt>
      <trkpt lat="2.87619" lon="-75.141525">
        <ele>939.3</ele>
        <time>2021-08-21T12:14:23Z</time>
      </trkpt>
      <trkpt lat="2.876161" lon="-75.14155">
        <ele>939.4</ele>
        <time>2021-08-21T12:14:25Z</time>
      </trkpt>
      <trkpt lat="2.876169" lon="-75.14154">
        <ele>939.4</ele>
        <time>2021-08-21T12:14:25Z</time>
      </trkpt>
      <trkpt lat="2.876147" lon="-75.141556">
        <ele>939.5</ele>
        <time>2021-08-21T12:14:26Z</time>
      </trkpt>
      <trkpt lat="2.876118" lon="-75.14159">
        <ele>939.6</ele>
        <time>2021-08-21T12:14:28Z</time>
      </trkpt>
      <trkpt lat="2.876126" lon="-75.14158">
        <ele>939.6</ele>
        <time>2021-08-21T12:14:28Z</time>
      </trkpt>
      <trkpt lat="2.876104" lon="-75.141594">
        <ele>939.7</ele>
        <time>2021-08-21T12:14:29Z</time>
      </trkpt>
      <trkpt lat="2.87609" lon="-75.14161">
        <ele>939.7</ele>
        <time>2021-08-21T12:14:30Z</time>
      </trkpt>
      <trkpt lat="2.876062" lon="-75.14163">
        <ele>939.8</ele>
        <time>2021-08-21T12:14:32Z</time>
      </trkpt>
      <trkpt lat="2.87607" lon="-75.141624">
        <ele>939.8</ele>
        <time>2021-08-21T12:14:32Z</time>
      </trkpt>
      <trkpt lat="2.876047" lon="-75.14165">
        <ele>939.9</ele>
        <time>2021-08-21T12:14:33Z</time>
      </trkpt>
      <trkpt lat="2.876031" lon="-75.141655">
        <ele>939.9</ele>
        <time>2021-08-21T12:14:34Z</time>
      </trkpt>
      <trkpt lat="2.876016" lon="-75.14167">
        <ele>940.0</ele>
        <time>2021-08-21T12:14:35Z</time>
      </trkpt>
      <trkpt lat="2.876001" lon="-75.14168">
        <ele>940.0</ele>
        <time>2021-08-21T12:14:36Z</time>
      </trkpt>
      <trkpt lat="2.875985" lon="-75.14169">
        <ele>940.1</ele>
        <time>2021-08-21T12:14:37Z</time>
      </trkpt>
      <trkpt lat="2.875968" lon="-75.1417">
        <ele>940.1</ele>
        <time>2021-08-21T12:14:38Z</time>
      </trkpt>
      <trkpt lat="2.875951" lon="-75.141716">
        <ele>940.2</ele>
        <time>2021-08-21T12:14:39Z</time>
      </trkpt>
      <trkpt lat="2.875932" lon="-75.14172">
        <ele>940.2</ele>
        <time>2021-08-21T12:14:40Z</time>
      </trkpt>
      <trkpt lat="2.875912" lon="-75.14174">
        <ele>940.3</ele>
        <time>2021-08-21T12:14:41Z</time>
      </trkpt>
      <trkpt lat="2.875891" lon="-75.14175">
        <ele>940.3</ele>
        <time>2021-08-21T12:14:42Z</time>
      </trkpt>
      <trkpt lat="2.875869" lon="-75.141754">
        <ele>940.4</ele>
        <time>2021-08-21T12:14:43Z</time>
      </trkpt>
      <trkpt lat="2.875848" lon="-75.14176">
        <ele>940.5</ele>
        <time>2021-08-21T12:14:44Z</time>
      </trkpt>
      <trkpt lat="2.875828" lon="-75.14177">
        <ele>940.5</ele>
        <time>2021-08-21T12:14:45Z</time>
      </trkpt>
      <trkpt lat="2.875807" lon="-75.141785">
        <ele>940.6</ele>
        <time>2021-08-21T12:14:46Z</time>
      </trkpt>
      <trkpt lat="2.875786" lon="-75.14179">
        <ele>940.6</ele>
        <time>2021-08-21T12:14:47Z</time>
      </trkpt>
      <trkpt lat="2.875765" lon="-75.1418">
        <ele>940.6</ele>
        <time>2021-08-21T12:14:48Z</time>
      </trkpt>
      <trkpt lat="2.875743" lon="-75.141815">
        <ele>940.7</ele>
        <time>2021-08-21T12:14:49Z</time>
      </trkpt>
      <trkpt lat="2.875721" lon="-75.14182">
        <ele>940.7</ele>
        <time>2021-08-21T12:14:50Z</time>
      </trkpt>
      <trkpt lat="2.875701" lon="-75.14183">
        <ele>940.8</ele>
        <time>2021-08-21T12:14:51Z</time>
      </trkpt>
      <trkpt lat="2.875681" lon="-75.14184">
        <ele>940.8</ele>
        <time>2021-08-21T12:14:52Z</time>
      </trkpt>
      <trkpt lat="2.875661" lon="-75.141846">
        <ele>940.8</ele>
        <time>2021-08-21T12:14:53Z</time>
      </trkpt>
      <trkpt lat="2.875641" lon="-75.14185">
        <ele>940.9</ele>
        <time>2021-08-21T12:14:54Z</time>
      </trkpt>
      <trkpt lat="2.875622" lon="-75.14187">
        <ele>940.9</ele>
        <time>2021-08-21T12:14:55Z</time>
      </trkpt>
      <trkpt lat="2.875605" lon="-75.14188">
        <ele>940.9</ele>
        <time>2021-08-21T12:14:56Z</time>
      </trkpt>
      <trkpt lat="2.875587" lon="-75.14189">
        <ele>941.0</ele>
        <time>2021-08-21T12:14:57Z</time>
      </trkpt>
      <trkpt lat="2.875568" lon="-75.14191">
        <ele>941.0</ele>
        <time>2021-08-21T12:14:58Z</time>
      </trkpt>
      <trkpt lat="2.87555" lon="-75.141914">
        <ele>941.0</ele>
        <time>2021-08-21T12:14:59Z</time>
      </trkpt>
      <trkpt lat="2.875533" lon="-75.14193">
        <ele>941.1</ele>
        <time>2021-08-21T12:15:00Z</time>
      </trkpt>
      <trkpt lat="2.875515" lon="-75.14194">
        <ele>941.1</ele>
        <time>2021-08-21T12:15:01Z</time>
      </trkpt>
      <trkpt lat="2.875498" lon="-75.14195">
        <ele>941.1</ele>
        <time>2021-08-21T12:15:02Z</time>
      </trkpt>
      <trkpt lat="2.875463" lon="-75.141975">
        <ele>941.2</ele>
        <time>2021-08-21T12:15:04Z</time>
      </trkpt>
      <trkpt lat="2.875472" lon="-75.14197">
        <ele>941.2</ele>
        <time>2021-08-21T12:15:04Z</time>
      </trkpt>
      <trkpt lat="2.875446" lon="-75.14198">
        <ele>941.3</ele>
        <time>2021-08-21T12:15:05Z</time>
      </trkpt>
      <trkpt lat="2.875428" lon="-75.142">
        <ele>941.3</ele>
        <time>2021-08-21T12:15:06Z</time>
      </trkpt>
      <trkpt lat="2.875411" lon="-75.142006">
        <ele>941.3</ele>
        <time>2021-08-21T12:15:07Z</time>
      </trkpt>
      <trkpt lat="2.875394" lon="-75.14202">
        <ele>941.4</ele>
        <time>2021-08-21T12:15:08Z</time>
      </trkpt>
      <trkpt lat="2.875376" lon="-75.14203">
        <ele>941.4</ele>
        <time>2021-08-21T12:15:09Z</time>
      </trkpt>
      <trkpt lat="2.875339" lon="-75.14205">
        <ele>941.5</ele>
        <time>2021-08-21T12:15:11Z</time>
      </trkpt>
      <trkpt lat="2.875348" lon="-75.14205">
        <ele>941.5</ele>
        <time>2021-08-21T12:15:11Z</time>
      </trkpt>
      <trkpt lat="2.87532" lon="-75.14207">
        <ele>941.6</ele>
        <time>2021-08-21T12:15:12Z</time>
      </trkpt>
      <trkpt lat="2.875302" lon="-75.14208">
        <ele>941.6</ele>
        <time>2021-08-21T12:15:13Z</time>
      </trkpt>
      <trkpt lat="2.875284" lon="-75.14209">
        <ele>941.7</ele>
        <time>2021-08-21T12:15:14Z</time>
      </trkpt>
      <trkpt lat="2.875265" lon="-75.142105">
        <ele>941.7</ele>
        <time>2021-08-21T12:15:15Z</time>
      </trkpt>
      <trkpt lat="2.875247" lon="-75.14211">
        <ele>941.8</ele>
        <time>2021-08-21T12:15:16Z</time>
      </trkpt>
      <trkpt lat="2.875229" lon="-75.14212">
        <ele>941.8</ele>
        <time>2021-08-21T12:15:17Z</time>
      </trkpt>
      <trkpt lat="2.875212" lon="-75.142136">
        <ele>941.9</ele>
        <time>2021-08-21T12:15:18Z</time>
      </trkpt>
      <trkpt lat="2.875194" lon="-75.14214">
        <ele>941.9</ele>
        <time>2021-08-21T12:15:19Z</time>
      </trkpt>
      <trkpt lat="2.875176" lon="-75.14215">
        <ele>942.0</ele>
        <time>2021-08-21T12:15:20Z</time>
      </trkpt>
      <trkpt lat="2.875158" lon="-75.14216">
        <ele>942.0</ele>
        <time>2021-08-21T12:15:21Z</time>
      </trkpt>
      <trkpt lat="2.87514" lon="-75.142166">
        <ele>942.2</ele>
        <time>2021-08-21T12:15:22Z</time>
      </trkpt>
      <trkpt lat="2.875121" lon="-75.14217">
        <ele>942.5</ele>
        <time>2021-08-21T12:15:23Z</time>
      </trkpt>
      <trkpt lat="2.875102" lon="-75.14218">
        <ele>942.8</ele>
        <time>2021-08-21T12:15:24Z</time>
      </trkpt>
      <trkpt lat="2.875083" lon="-75.14218">
        <ele>943.1</ele>
        <time>2021-08-21T12:15:25Z</time>
      </trkpt>
      <trkpt lat="2.875063" lon="-75.14219">
        <ele>943.4</ele>
        <time>2021-08-21T12:15:26Z</time>
      </trkpt>
      <trkpt lat="2.875034" lon="-75.1422">
        <ele>943.8</ele>
        <time>2021-08-21T12:15:27Z</time>
      </trkpt>
      <trkpt lat="2.87501" lon="-75.142204">
        <ele>944.2</ele>
        <time>2021-08-21T12:15:29Z</time>
      </trkpt>
      <trkpt lat="2.875022" lon="-75.142204">
        <ele>944.0</ele>
        <time>2021-08-21T12:15:29Z</time>
      </trkpt>
      <trkpt lat="2.874992" lon="-75.14221">
        <ele>944.5</ele>
        <time>2021-08-21T12:15:30Z</time>
      </trkpt>
      <trkpt lat="2.874973" lon="-75.14221">
        <ele>944.7</ele>
        <time>2021-08-21T12:15:31Z</time>
      </trkpt>
      <trkpt lat="2.874953" lon="-75.14222">
        <ele>945.0</ele>
        <time>2021-08-21T12:15:32Z</time>
      </trkpt>
      <trkpt lat="2.874933" lon="-75.14222">
        <ele>945.3</ele>
        <time>2021-08-21T12:15:33Z</time>
      </trkpt>
      <trkpt lat="2.874914" lon="-75.14222">
        <ele>945.6</ele>
        <time>2021-08-21T12:15:34Z</time>
      </trkpt>
      <trkpt lat="2.874873" lon="-75.14222">
        <ele>946.2</ele>
        <time>2021-08-21T12:15:36Z</time>
      </trkpt>
      <trkpt lat="2.874883" lon="-75.14222">
        <ele>946.1</ele>
        <time>2021-08-21T12:15:36Z</time>
      </trkpt>
      <trkpt lat="2.874853" lon="-75.14222">
        <ele>946.5</ele>
        <time>2021-08-21T12:15:37Z</time>
      </trkpt>
      <trkpt lat="2.874834" lon="-75.14221">
        <ele>946.8</ele>
        <time>2021-08-21T12:15:38Z</time>
      </trkpt>
      <trkpt lat="2.874816" lon="-75.142204">
        <ele>947.1</ele>
        <time>2021-08-21T12:15:39Z</time>
      </trkpt>
      <trkpt lat="2.874797" lon="-75.1422">
        <ele>947.4</ele>
        <time>2021-08-21T12:15:40Z</time>
      </trkpt>
      <trkpt lat="2.874779" lon="-75.14219">
        <ele>947.7</ele>
        <time>2021-08-21T12:15:41Z</time>
      </trkpt>
      <trkpt lat="2.874743" lon="-75.14217">
        <ele>948.3</ele>
        <time>2021-08-21T12:15:43Z</time>
      </trkpt>
      <trkpt lat="2.874752" lon="-75.14217">
        <ele>948.2</ele>
        <time>2021-08-21T12:15:43Z</time>
      </trkpt>
      <trkpt lat="2.874726" lon="-75.14216">
        <ele>948.7</ele>
        <time>2021-08-21T12:15:44Z</time>
      </trkpt>
      <trkpt lat="2.874711" lon="-75.14215">
        <ele>948.9</ele>
        <time>2021-08-21T12:15:45Z</time>
      </trkpt>
      <trkpt lat="2.874695" lon="-75.142136">
        <ele>949.2</ele>
        <time>2021-08-21T12:15:46Z</time>
      </trkpt>
      <trkpt lat="2.874681" lon="-75.14213">
        <ele>949.5</ele>
        <time>2021-08-21T12:15:47Z</time>
      </trkpt>
      <trkpt lat="2.874668" lon="-75.14211">
        <ele>949.8</ele>
        <time>2021-08-21T12:15:48Z</time>
      </trkpt>
      <trkpt lat="2.874643" lon="-75.14208">
        <ele>950.3</ele>
        <time>2021-08-21T12:15:50Z</time>
      </trkpt>
      <trkpt lat="2.87465" lon="-75.14209">
        <ele>950.2</ele>
        <time>2021-08-21T12:15:50Z</time>
      </trkpt>
      <trkpt lat="2.874628" lon="-75.142075">
        <ele>950.6</ele>
        <time>2021-08-21T12:15:51Z</time>
      </trkpt>
      <trkpt lat="2.874602" lon="-75.14206">
        <ele>951.1</ele>
        <time>2021-08-21T12:15:52Z</time>
      </trkpt>
      <trkpt lat="2.87459" lon="-75.14205">
        <ele>951.3</ele>
        <time>2021-08-21T12:15:53Z</time>
      </trkpt>
      <trkpt lat="2.874579" lon="-75.142044">
        <ele>951.5</ele>
        <time>2021-08-21T12:15:54Z</time>
      </trkpt>
      <trkpt lat="2.874567" lon="-75.14204">
        <ele>951.7</ele>
        <time>2021-08-21T12:15:55Z</time>
      </trkpt>
      <trkpt lat="2.874543" lon="-75.14202">
        <ele>952.1</ele>
        <time>2021-08-21T12:15:57Z</time>
      </trkpt>
      <trkpt lat="2.874555" lon="-75.14203">
        <ele>951.9</ele>
        <time>2021-08-21T12:15:57Z</time>
      </trkpt>
      <trkpt lat="2.874514" lon="-75.14201">
        <ele>952.5</ele>
        <time>2021-08-21T12:15:58Z</time>
      </trkpt>
      <trkpt lat="2.874501" lon="-75.142006">
        <ele>952.7</ele>
        <time>2021-08-21T12:15:59Z</time>
      </trkpt>
      <trkpt lat="2.874487" lon="-75.142006">
        <ele>953.0</ele>
        <time>2021-08-21T12:16:00Z</time>
      </trkpt>
      <trkpt lat="2.874473" lon="-75.142">
        <ele>953.2</ele>
        <time>2021-08-21T12:16:01Z</time>
      </trkpt>
      <trkpt lat="2.874446" lon="-75.14199">
        <ele>953.6</ele>
        <time>2021-08-21T12:16:03Z</time>
      </trkpt>
      <trkpt lat="2.87446" lon="-75.142">
        <ele>953.4</ele>
        <time>2021-08-21T12:16:03Z</time>
      </trkpt>
      <trkpt lat="2.874427" lon="-75.14199">
        <ele>953.9</ele>
        <time>2021-08-21T12:16:04Z</time>
      </trkpt>
      <trkpt lat="2.874409" lon="-75.14198">
        <ele>954.2</ele>
        <time>2021-08-21T12:16:05Z</time>
      </trkpt>
      <trkpt lat="2.87439" lon="-75.14198">
        <ele>954.5</ele>
        <time>2021-08-21T12:16:06Z</time>
      </trkpt>
      <trkpt lat="2.874371" lon="-75.141975">
        <ele>954.8</ele>
        <time>2021-08-21T12:16:07Z</time>
      </trkpt>
      <trkpt lat="2.874354" lon="-75.14197">
        <ele>955.1</ele>
        <time>2021-08-21T12:16:08Z</time>
      </trkpt>
      <trkpt lat="2.874323" lon="-75.14195">
        <ele>955.6</ele>
        <time>2021-08-21T12:16:09Z</time>
      </trkpt>
      <trkpt lat="2.874331" lon="-75.14196">
        <ele>955.5</ele>
        <time>2021-08-21T12:16:09Z</time>
      </trkpt>
      <trkpt lat="2.874299" lon="-75.14194">
        <ele>956.1</ele>
        <time>2021-08-21T12:16:10Z</time>
      </trkpt>
      <trkpt lat="2.87428" lon="-75.14193">
        <ele>956.5</ele>
        <time>2021-08-21T12:16:12Z</time>
      </trkpt>
      <trkpt lat="2.87429" lon="-75.14194">
        <ele>956.3</ele>
        <time>2021-08-21T12:16:12Z</time>
      </trkpt>
      <trkpt lat="2.874266" lon="-75.14192">
        <ele>956.8</ele>
        <time>2021-08-21T12:16:13Z</time>
      </trkpt>
      <trkpt lat="2.874252" lon="-75.14191">
        <ele>957.0</ele>
        <time>2021-08-21T12:16:14Z</time>
      </trkpt>
      <trkpt lat="2.874238" lon="-75.1419">
        <ele>957.3</ele>
        <time>2021-08-21T12:16:15Z</time>
      </trkpt>
      <trkpt lat="2.874224" lon="-75.141884">
        <ele>957.6</ele>
        <time>2021-08-21T12:16:16Z</time>
      </trkpt>
      <trkpt lat="2.874212" lon="-75.14188">
        <ele>957.9</ele>
        <time>2021-08-21T12:16:17Z</time>
      </trkpt>
      <trkpt lat="2.874201" lon="-75.14186">
        <ele>958.2</ele>
        <time>2021-08-21T12:16:18Z</time>
      </trkpt>
      <trkpt lat="2.874191" lon="-75.141846">
        <ele>958.5</ele>
        <time>2021-08-21T12:16:19Z</time>
      </trkpt>
      <trkpt lat="2.874182" lon="-75.14184">
        <ele>958.7</ele>
        <time>2021-08-21T12:16:20Z</time>
      </trkpt>
      <trkpt lat="2.874173" lon="-75.14182">
        <ele>959.0</ele>
        <time>2021-08-21T12:16:21Z</time>
      </trkpt>
      <trkpt lat="2.874164" lon="-75.14181">
        <ele>959.3</ele>
        <time>2021-08-21T12:16:22Z</time>
      </trkpt>
      <trkpt lat="2.874155" lon="-75.14179">
        <ele>959.6</ele>
        <time>2021-08-21T12:16:23Z</time>
      </trkpt>
      <trkpt lat="2.874145" lon="-75.14178">
        <ele>959.9</ele>
        <time>2021-08-21T12:16:24Z</time>
      </trkpt>
      <trkpt lat="2.874136" lon="-75.14176">
        <ele>960.2</ele>
        <time>2021-08-21T12:16:25Z</time>
      </trkpt>
      <trkpt lat="2.874116" lon="-75.14174">
        <ele>960.7</ele>
        <time>2021-08-21T12:16:26Z</time>
      </trkpt>
      <trkpt lat="2.874106" lon="-75.14172">
        <ele>960.9</ele>
        <time>2021-08-21T12:16:27Z</time>
      </trkpt>
      <trkpt lat="2.874097" lon="-75.141716">
        <ele>961.2</ele>
        <time>2021-08-21T12:16:28Z</time>
      </trkpt>
      <trkpt lat="2.874088" lon="-75.1417">
        <ele>961.4</ele>
        <time>2021-08-21T12:16:29Z</time>
      </trkpt>
      <trkpt lat="2.874078" lon="-75.14169">
        <ele>961.7</ele>
        <time>2021-08-21T12:16:30Z</time>
      </trkpt>
      <trkpt lat="2.874069" lon="-75.14168">
        <ele>961.9</ele>
        <time>2021-08-21T12:16:31Z</time>
      </trkpt>
      <trkpt lat="2.87406" lon="-75.14167">
        <ele>962.2</ele>
        <time>2021-08-21T12:16:32Z</time>
      </trkpt>
      <trkpt lat="2.874041" lon="-75.14165">
        <ele>962.7</ele>
        <time>2021-08-21T12:16:34Z</time>
      </trkpt>
      <trkpt lat="2.87405" lon="-75.141655">
        <ele>962.4</ele>
        <time>2021-08-21T12:16:34Z</time>
      </trkpt>
      <trkpt lat="2.874021" lon="-75.141624">
        <ele>963.3</ele>
        <time>2021-08-21T12:16:35Z</time>
      </trkpt>
      <trkpt lat="2.874013" lon="-75.14161">
        <ele>963.5</ele>
        <time>2021-08-21T12:16:36Z</time>
      </trkpt>
      <trkpt lat="2.874005" lon="-75.1416">
        <ele>963.8</ele>
        <time>2021-08-21T12:16:37Z</time>
      </trkpt>
      <trkpt lat="2.873998" lon="-75.141594">
        <ele>964.0</ele>
        <time>2021-08-21T12:16:38Z</time>
      </trkpt>
      <trkpt lat="2.87399" lon="-75.14158">
        <ele>964.3</ele>
        <time>2021-08-21T12:16:39Z</time>
      </trkpt>
      <trkpt lat="2.873974" lon="-75.14156">
        <ele>964.8</ele>
        <time>2021-08-21T12:16:41Z</time>
      </trkpt>
      <trkpt lat="2.873982" lon="-75.14157">
        <ele>964.5</ele>
        <time>2021-08-21T12:16:41Z</time>
      </trkpt>
      <trkpt lat="2.873965" lon="-75.14154">
        <ele>965.2</ele>
        <time>2021-08-21T12:16:42Z</time>
      </trkpt>
      <trkpt lat="2.873962" lon="-75.141525">
        <ele>965.5</ele>
        <time>2021-08-21T12:16:43Z</time>
      </trkpt>
      <trkpt lat="2.873959" lon="-75.14152">
        <ele>965.7</ele>
        <time>2021-08-21T12:16:44Z</time>
      </trkpt>
      <trkpt lat="2.873956" lon="-75.14151">
        <ele>965.9</ele>
        <time>2021-08-21T12:16:45Z</time>
      </trkpt>
      <trkpt lat="2.873953" lon="-75.141495">
        <ele>966.1</ele>
        <time>2021-08-21T12:16:46Z</time>
      </trkpt>
      <trkpt lat="2.873947" lon="-75.14147">
        <ele>966.6</ele>
        <time>2021-08-21T12:16:48Z</time>
      </trkpt>
      <trkpt lat="2.87395" lon="-75.14149">
        <ele>966.3</ele>
        <time>2021-08-21T12:16:48Z</time>
      </trkpt>
      <trkpt lat="2.873947" lon="-75.14146">
        <ele>967.0</ele>
        <time>2021-08-21T12:16:49Z</time>
      </trkpt>
      <trkpt lat="2.873949" lon="-75.14144">
        <ele>967.2</ele>
        <time>2021-08-21T12:16:50Z</time>
      </trkpt>
      <trkpt lat="2.87395" lon="-75.14143">
        <ele>967.4</ele>
        <time>2021-08-21T12:16:51Z</time>
      </trkpt>
      <trkpt lat="2.873952" lon="-75.14142">
        <ele>967.6</ele>
        <time>2021-08-21T12:16:52Z</time>
      </trkpt>
      <trkpt lat="2.873953" lon="-75.14141">
        <ele>967.8</ele>
        <time>2021-08-21T12:16:53Z</time>
      </trkpt>
      <trkpt lat="2.873955" lon="-75.1414">
        <ele>968.0</ele>
        <time>2021-08-21T12:16:55Z</time>
      </trkpt>
      <trkpt lat="2.873956" lon="-75.14139">
        <ele>968.2</ele>
        <time>2021-08-21T12:16:55Z</time>
      </trkpt>
      <trkpt lat="2.873964" lon="-75.14137">
        <ele>968.6</ele>
        <time>2021-08-21T12:16:56Z</time>
      </trkpt>
      <trkpt lat="2.873967" lon="-75.14136">
        <ele>968.8</ele>
        <time>2021-08-21T12:16:57Z</time>
      </trkpt>
      <trkpt lat="2.873971" lon="-75.14135">
        <ele>969.0</ele>
        <time>2021-08-21T12:16:58Z</time>
      </trkpt>
      <trkpt lat="2.873974" lon="-75.14134">
        <ele>969.2</ele>
        <time>2021-08-21T12:16:59Z</time>
      </trkpt>
      <trkpt lat="2.873978" lon="-75.141335">
        <ele>969.3</ele>
        <time>2021-08-21T12:17:01Z</time>
      </trkpt>
      <trkpt lat="2.873981" lon="-75.14133">
        <ele>969.5</ele>
        <time>2021-08-21T12:17:01Z</time>
      </trkpt>
      <trkpt lat="2.87399" lon="-75.141304">
        <ele>969.9</ele>
        <time>2021-08-21T12:17:02Z</time>
      </trkpt>
      <trkpt lat="2.873994" lon="-75.1413">
        <ele>970.1</ele>
        <time>2021-08-21T12:17:03Z</time>
      </trkpt>
      <trkpt lat="2.873998" lon="-75.14129">
        <ele>970.3</ele>
        <time>2021-08-21T12:17:04Z</time>
      </trkpt>
      <trkpt lat="2.874001" lon="-75.14127">
        <ele>970.5</ele>
        <time>2021-08-21T12:17:05Z</time>
      </trkpt>
      <trkpt lat="2.874005" lon="-75.141266">
        <ele>970.7</ele>
        <time>2021-08-21T12:17:06Z</time>
      </trkpt>
      <trkpt lat="2.874009" lon="-75.14126">
        <ele>970.8</ele>
        <time>2021-08-21T12:17:08Z</time>
      </trkpt>
      <trkpt lat="2.874013" lon="-75.14125">
        <ele>971.0</ele>
        <time>2021-08-21T12:17:08Z</time>
      </trkpt>
      <trkpt lat="2.874006" lon="-75.14123">
        <ele>971.4</ele>
        <time>2021-08-21T12:17:09Z</time>
      </trkpt>
      <trkpt lat="2.873996" lon="-75.14123">
        <ele>971.6</ele>
        <time>2021-08-21T12:17:10Z</time>
      </trkpt>
      <trkpt lat="2.873986" lon="-75.14122">
        <ele>971.8</ele>
        <time>2021-08-21T12:17:11Z</time>
      </trkpt>
      <trkpt lat="2.873976" lon="-75.14121">
        <ele>972.0</ele>
        <time>2021-08-21T12:17:12Z</time>
      </trkpt>
      <trkpt lat="2.873966" lon="-75.141205">
        <ele>972.2</ele>
        <time>2021-08-21T12:17:13Z</time>
      </trkpt>
      <trkpt lat="2.873956" lon="-75.1412">
        <ele>972.4</ele>
        <time>2021-08-21T12:17:14Z</time>
      </trkpt>
      <trkpt lat="2.873946" lon="-75.14119">
        <ele>972.6</ele>
        <time>2021-08-21T12:17:15Z</time>
      </trkpt>
      <trkpt lat="2.873936" lon="-75.14118">
        <ele>972.8</ele>
        <time>2021-08-21T12:17:16Z</time>
      </trkpt>
      <trkpt lat="2.873926" lon="-75.141174">
        <ele>973.0</ele>
        <time>2021-08-21T12:17:17Z</time>
      </trkpt>
      <trkpt lat="2.873916" lon="-75.14117">
        <ele>973.3</ele>
        <time>2021-08-21T12:17:18Z</time>
      </trkpt>
      <trkpt lat="2.873906" lon="-75.14117">
        <ele>973.5</ele>
        <time>2021-08-21T12:17:19Z</time>
      </trkpt>
      <trkpt lat="2.873896" lon="-75.14116">
        <ele>973.6</ele>
        <time>2021-08-21T12:17:20Z</time>
      </trkpt>
      <trkpt lat="2.873886" lon="-75.14115">
        <ele>973.8</ele>
        <time>2021-08-21T12:17:21Z</time>
      </trkpt>
      <trkpt lat="2.873876" lon="-75.14114">
        <ele>974.0</ele>
        <time>2021-08-21T12:17:22Z</time>
      </trkpt>
      <trkpt lat="2.873866" lon="-75.141136">
        <ele>974.2</ele>
        <time>2021-08-21T12:17:23Z</time>
      </trkpt>
      <trkpt lat="2.873857" lon="-75.14113">
        <ele>974.4</ele>
        <time>2021-08-21T12:17:24Z</time>
      </trkpt>
      <trkpt lat="2.873847" lon="-75.14112">
        <ele>974.6</ele>
        <time>2021-08-21T12:17:25Z</time>
      </trkpt>
      <trkpt lat="2.873837" lon="-75.14111">
        <ele>974.8</ele>
        <time>2021-08-21T12:17:26Z</time>
      </trkpt>
      <trkpt lat="2.873827" lon="-75.141106">
        <ele>975.0</ele>
        <time>2021-08-21T12:17:27Z</time>
      </trkpt>
      <trkpt lat="2.873817" lon="-75.141106">
        <ele>975.2</ele>
        <time>2021-08-21T12:17:28Z</time>
      </trkpt>
      <trkpt lat="2.873807" lon="-75.1411">
        <ele>975.4</ele>
        <time>2021-08-21T12:17:29Z</time>
      </trkpt>
      <trkpt lat="2.873797" lon="-75.14109">
        <ele>975.6</ele>
        <time>2021-08-21T12:17:30Z</time>
      </trkpt>
      <trkpt lat="2.873787" lon="-75.14108">
        <ele>975.8</ele>
        <time>2021-08-21T12:17:31Z</time>
      </trkpt>
      <trkpt lat="2.873777" lon="-75.141075">
        <ele>975.9</ele>
        <time>2021-08-21T12:17:32Z</time>
      </trkpt>
      <trkpt lat="2.873767" lon="-75.14107">
        <ele>976.1</ele>
        <time>2021-08-21T12:17:33Z</time>
      </trkpt>
      <trkpt lat="2.873757" lon="-75.14106">
        <ele>976.3</ele>
        <time>2021-08-21T12:17:34Z</time>
      </trkpt>
      <trkpt lat="2.873747" lon="-75.14105">
        <ele>976.5</ele>
        <time>2021-08-21T12:17:35Z</time>
      </trkpt>
      <trkpt lat="2.873737" lon="-75.141045">
        <ele>976.7</ele>
        <time>2021-08-21T12:17:36Z</time>
      </trkpt>
      <trkpt lat="2.873727" lon="-75.141045">
        <ele>976.9</ele>
        <time>2021-08-21T12:17:37Z</time>
      </trkpt>
      <trkpt lat="2.873717" lon="-75.14104">
        <ele>977.1</ele>
        <time>2021-08-21T12:17:38Z</time>
      </trkpt>
      <trkpt lat="2.873697" lon="-75.14102">
        <ele>977.5</ele>
        <time>2021-08-21T12:17:40Z</time>
      </trkpt>
      <trkpt lat="2.873707" lon="-75.14103">
        <ele>977.3</ele>
        <time>2021-08-21T12:17:40Z</time>
      </trkpt>
      <trkpt lat="2.873668" lon="-75.14102">
        <ele>977.9</ele>
        <time>2021-08-21T12:17:41Z</time>
      </trkpt>
      <trkpt lat="2.873655" lon="-75.141014">
        <ele>978.2</ele>
        <time>2021-08-21T12:17:42Z</time>
      </trkpt>
      <trkpt lat="2.873641" lon="-75.141014">
        <ele>978.4</ele>
        <time>2021-08-21T12:17:43Z</time>
      </trkpt>
      <trkpt lat="2.873628" lon="-75.141014">
        <ele>978.6</ele>
        <time>2021-08-21T12:17:44Z</time>
      </trkpt>
      <trkpt lat="2.873614" lon="-75.141014">
        <ele>978.8</ele>
        <time>2021-08-21T12:17:45Z</time>
      </trkpt>
      <trkpt lat="2.873587" lon="-75.14101">
        <ele>979.3</ele>
        <time>2021-08-21T12:17:47Z</time>
      </trkpt>
      <trkpt lat="2.873601" lon="-75.14101">
        <ele>979.0</ele>
        <time>2021-08-21T12:17:47Z</time>
      </trkpt>
      <trkpt lat="2.87357" lon="-75.14101">
        <ele>979.6</ele>
        <time>2021-08-21T12:17:48Z</time>
      </trkpt>
      <trkpt lat="2.873539" lon="-75.141">
        <ele>980.1</ele>
        <time>2021-08-21T12:17:49Z</time>
      </trkpt>
      <trkpt lat="2.873526" lon="-75.14099">
        <ele>980.3</ele>
        <time>2021-08-21T12:17:50Z</time>
      </trkpt>
      <trkpt lat="2.873512" lon="-75.14099">
        <ele>980.5</ele>
        <time>2021-08-21T12:17:51Z</time>
      </trkpt>
      <trkpt lat="2.873498" lon="-75.14099">
        <ele>980.7</ele>
        <time>2021-08-21T12:17:52Z</time>
      </trkpt>
      <trkpt lat="2.873471" lon="-75.14098">
        <ele>981.1</ele>
        <time>2021-08-21T12:17:54Z</time>
      </trkpt>
      <trkpt lat="2.873485" lon="-75.14099">
        <ele>980.9</ele>
        <time>2021-08-21T12:17:54Z</time>
      </trkpt>
      <trkpt lat="2.873442" lon="-75.14098">
        <ele>981.6</ele>
        <time>2021-08-21T12:17:55Z</time>
      </trkpt>
      <trkpt lat="2.873428" lon="-75.14098">
        <ele>981.8</ele>
        <time>2021-08-21T12:17:56Z</time>
      </trkpt>
      <trkpt lat="2.873415" lon="-75.140976">
        <ele>981.9</ele>
        <time>2021-08-21T12:17:57Z</time>
      </trkpt>
      <trkpt lat="2.873401" lon="-75.140976">
        <ele>982.1</ele>
        <time>2021-08-21T12:17:58Z</time>
      </trkpt>
      <trkpt lat="2.873374" lon="-75.14097">
        <ele>982.5</ele>
        <time>2021-08-21T12:18:00Z</time>
      </trkpt>
      <trkpt lat="2.873388" lon="-75.140976">
        <ele>982.3</ele>
        <time>2021-08-21T12:18:00Z</time>
      </trkpt>
      <trkpt lat="2.873355" lon="-75.14097">
        <ele>982.7</ele>
        <time>2021-08-21T12:18:01Z</time>
      </trkpt>
      <trkpt lat="2.873335" lon="-75.14097">
        <ele>982.9</ele>
        <time>2021-08-21T12:18:02Z</time>
      </trkpt>
      <trkpt lat="2.873313" lon="-75.14096">
        <ele>983.1</ele>
        <time>2021-08-21T12:18:03Z</time>
      </trkpt>
      <trkpt lat="2.87329" lon="-75.14096">
        <ele>983.3</ele>
        <time>2021-08-21T12:18:04Z</time>
      </trkpt>
      <trkpt lat="2.873265" lon="-75.14096">
        <ele>983.5</ele>
        <time>2021-08-21T12:18:05Z</time>
      </trkpt>
      <trkpt lat="2.873208" lon="-75.140945">
        <ele>983.9</ele>
        <time>2021-08-21T12:18:07Z</time>
      </trkpt>
      <trkpt lat="2.873223" lon="-75.14095">
        <ele>983.8</ele>
        <time>2021-08-21T12:18:07Z</time>
      </trkpt>
      <trkpt lat="2.873177" lon="-75.140945">
        <ele>984.0</ele>
        <time>2021-08-21T12:18:08Z</time>
      </trkpt>
      <trkpt lat="2.873143" lon="-75.14094">
        <ele>984.1</ele>
        <time>2021-08-21T12:18:09Z</time>
      </trkpt>
      <trkpt lat="2.873105" lon="-75.14093">
        <ele>984.2</ele>
        <time>2021-08-21T12:18:10Z</time>
      </trkpt>
      <trkpt lat="2.873064" lon="-75.14092">
        <ele>984.3</ele>
        <time>2021-08-21T12:18:11Z</time>
      </trkpt>
      <trkpt lat="2.873022" lon="-75.14091">
        <ele>984.3</ele>
        <time>2021-08-21T12:18:12Z</time>
      </trkpt>
      <trkpt lat="2.87293" lon="-75.14087">
        <ele>984.3</ele>
        <time>2021-08-21T12:18:14Z</time>
      </trkpt>
      <trkpt lat="2.872977" lon="-75.14089">
        <ele>984.3</ele>
        <time>2021-08-21T12:18:14Z</time>
      </trkpt>
      <trkpt lat="2.872883" lon="-75.14085">
        <ele>984.3</ele>
        <time>2021-08-21T12:18:15Z</time>
      </trkpt>
      <trkpt lat="2.872838" lon="-75.140816">
        <ele>984.2</ele>
        <time>2021-08-21T12:18:16Z</time>
      </trkpt>
      <trkpt lat="2.872796" lon="-75.14077">
        <ele>984.2</ele>
        <time>2021-08-21T12:18:17Z</time>
      </trkpt>
      <trkpt lat="2.872757" lon="-75.140724">
        <ele>984.1</ele>
        <time>2021-08-21T12:18:18Z</time>
      </trkpt>
      <trkpt lat="2.87272" lon="-75.14067">
        <ele>984.1</ele>
        <time>2021-08-21T12:18:19Z</time>
      </trkpt>
      <trkpt lat="2.872684" lon="-75.14061">
        <ele>984.1</ele>
        <time>2021-08-21T12:18:20Z</time>
      </trkpt>
      <trkpt lat="2.872647" lon="-75.14055">
        <ele>984.2</ele>
        <time>2021-08-21T12:18:21Z</time>
      </trkpt>
      <trkpt lat="2.872608" lon="-75.140495">
        <ele>984.3</ele>
        <time>2021-08-21T12:18:22Z</time>
      </trkpt>
      <trkpt lat="2.872566" lon="-75.140434">
        <ele>984.4</ele>
        <time>2021-08-21T12:18:23Z</time>
      </trkpt>
      <trkpt lat="2.872521" lon="-75.14038">
        <ele>984.6</ele>
        <time>2021-08-21T12:18:24Z</time>
      </trkpt>
      <trkpt lat="2.872474" lon="-75.140335">
        <ele>984.9</ele>
        <time>2021-08-21T12:18:25Z</time>
      </trkpt>
      <trkpt lat="2.872425" lon="-75.1403">
        <ele>985.2</ele>
        <time>2021-08-21T12:18:26Z</time>
      </trkpt>
      <trkpt lat="2.872378" lon="-75.14027">
        <ele>985.5</ele>
        <time>2021-08-21T12:18:27Z</time>
      </trkpt>
      <trkpt lat="2.87233" lon="-75.14024">
        <ele>985.9</ele>
        <time>2021-08-21T12:18:28Z</time>
      </trkpt>
      <trkpt lat="2.872285" lon="-75.14022">
        <ele>986.3</ele>
        <time>2021-08-21T12:18:29Z</time>
      </trkpt>
      <trkpt lat="2.87224" lon="-75.140205">
        <ele>986.7</ele>
        <time>2021-08-21T12:18:30Z</time>
      </trkpt>
      <trkpt lat="2.872163" lon="-75.14018">
        <ele>987.5</ele>
        <time>2021-08-21T12:18:32Z</time>
      </trkpt>
      <trkpt lat="2.8722" lon="-75.14019">
        <ele>987.1</ele>
        <time>2021-08-21T12:18:32Z</time>
      </trkpt>
      <trkpt lat="2.872128" lon="-75.140175">
        <ele>987.9</ele>
        <time>2021-08-21T12:18:33Z</time>
      </trkpt>
      <trkpt lat="2.872097" lon="-75.140175">
        <ele>988.2</ele>
        <time>2021-08-21T12:18:34Z</time>
      </trkpt>
      <trkpt lat="2.872068" lon="-75.140175">
        <ele>988.5</ele>
        <time>2021-08-21T12:18:35Z</time>
      </trkpt>
      <trkpt lat="2.87204" lon="-75.14018">
        <ele>988.8</ele>
        <time>2021-08-21T12:18:36Z</time>
      </trkpt>
      <trkpt lat="2.872017" lon="-75.14018">
        <ele>989.0</ele>
        <time>2021-08-21T12:18:37Z</time>
      </trkpt>
      <trkpt lat="2.871979" lon="-75.14021">
        <ele>989.1</ele>
        <time>2021-08-21T12:18:39Z</time>
      </trkpt>
      <trkpt lat="2.871988" lon="-75.140205">
        <ele>989.1</ele>
        <time>2021-08-21T12:18:39Z</time>
      </trkpt>
      <trkpt lat="2.871962" lon="-75.140236">
        <ele>989.2</ele>
        <time>2021-08-21T12:18:40Z</time>
      </trkpt>
      <trkpt lat="2.871947" lon="-75.14025">
        <ele>989.3</ele>
        <time>2021-08-21T12:18:41Z</time>
      </trkpt>
      <trkpt lat="2.871934" lon="-75.140274">
        <ele>989.3</ele>
        <time>2021-08-21T12:18:42Z</time>
      </trkpt>
      <trkpt lat="2.87192" lon="-75.1403">
        <ele>989.4</ele>
        <time>2021-08-21T12:18:43Z</time>
      </trkpt>
      <trkpt lat="2.871907" lon="-75.14031">
        <ele>989.5</ele>
        <time>2021-08-21T12:18:44Z</time>
      </trkpt>
      <trkpt lat="2.871881" lon="-75.14036">
        <ele>989.7</ele>
        <time>2021-08-21T12:18:46Z</time>
      </trkpt>
      <trkpt lat="2.871888" lon="-75.14035">
        <ele>989.6</ele>
        <time>2021-08-21T12:18:46Z</time>
      </trkpt>
      <trkpt lat="2.871869" lon="-75.14038">
        <ele>989.8</ele>
        <time>2021-08-21T12:18:47Z</time>
      </trkpt>
      <trkpt lat="2.871855" lon="-75.140396">
        <ele>989.9</ele>
        <time>2021-08-21T12:18:48Z</time>
      </trkpt>
      <trkpt lat="2.871841" lon="-75.14041">
        <ele>990.0</ele>
        <time>2021-08-21T12:18:49Z</time>
      </trkpt>
      <trkpt lat="2.871827" lon="-75.14043">
        <ele>990.1</ele>
        <time>2021-08-21T12:18:50Z</time>
      </trkpt>
      <trkpt lat="2.871813" lon="-75.14044">
        <ele>990.2</ele>
        <time>2021-08-21T12:18:51Z</time>
      </trkpt>
      <trkpt lat="2.871798" lon="-75.14045">
        <ele>990.4</ele>
        <time>2021-08-21T12:18:52Z</time>
      </trkpt>
      <trkpt lat="2.871781" lon="-75.14046">
        <ele>990.5</ele>
        <time>2021-08-21T12:18:53Z</time>
      </trkpt>
      <trkpt lat="2.871765" lon="-75.140465">
        <ele>990.6</ele>
        <time>2021-08-21T12:18:54Z</time>
      </trkpt>
      <trkpt lat="2.871749" lon="-75.14048">
        <ele>990.7</ele>
        <time>2021-08-21T12:18:55Z</time>
      </trkpt>
      <trkpt lat="2.871732" lon="-75.14049">
        <ele>990.8</ele>
        <time>2021-08-21T12:18:56Z</time>
      </trkpt>
      <trkpt lat="2.871714" lon="-75.140495">
        <ele>991.0</ele>
        <time>2021-08-21T12:18:57Z</time>
      </trkpt>
      <trkpt lat="2.871696" lon="-75.1405">
        <ele>991.1</ele>
        <time>2021-08-21T12:18:58Z</time>
      </trkpt>
      <trkpt lat="2.871678" lon="-75.1405">
        <ele>991.2</ele>
        <time>2021-08-21T12:18:59Z</time>
      </trkpt>
      <trkpt lat="2.871656" lon="-75.14051">
        <ele>991.4</ele>
        <time>2021-08-21T12:19:00Z</time>
      </trkpt>
      <trkpt lat="2.871636" lon="-75.14052">
        <ele>991.5</ele>
        <time>2021-08-21T12:19:01Z</time>
      </trkpt>
      <trkpt lat="2.871614" lon="-75.14052">
        <ele>991.6</ele>
        <time>2021-08-21T12:19:02Z</time>
      </trkpt>
      <trkpt lat="2.871594" lon="-75.14052">
        <ele>991.7</ele>
        <time>2021-08-21T12:19:03Z</time>
      </trkpt>
      <trkpt lat="2.871574" lon="-75.14052">
        <ele>991.9</ele>
        <time>2021-08-21T12:19:04Z</time>
      </trkpt>
      <trkpt lat="2.871555" lon="-75.14052">
        <ele>992.0</ele>
        <time>2021-08-21T12:19:05Z</time>
      </trkpt>
      <trkpt lat="2.871537" lon="-75.14051">
        <ele>992.1</ele>
        <time>2021-08-21T12:19:06Z</time>
      </trkpt>
      <trkpt lat="2.87152" lon="-75.1405">
        <ele>992.2</ele>
        <time>2021-08-21T12:19:07Z</time>
      </trkpt>
      <trkpt lat="2.871505" lon="-75.140495">
        <ele>992.3</ele>
        <time>2021-08-21T12:19:08Z</time>
      </trkpt>
      <trkpt lat="2.871489" lon="-75.14048">
        <ele>992.5</ele>
        <time>2021-08-21T12:19:09Z</time>
      </trkpt>
      <trkpt lat="2.871474" lon="-75.14047">
        <ele>992.6</ele>
        <time>2021-08-21T12:19:10Z</time>
      </trkpt>
      <trkpt lat="2.871446" lon="-75.14044">
        <ele>992.8</ele>
        <time>2021-08-21T12:19:12Z</time>
      </trkpt>
      <trkpt lat="2.871453" lon="-75.14045">
        <ele>992.8</ele>
        <time>2021-08-21T12:19:12Z</time>
      </trkpt>
      <trkpt lat="2.871433" lon="-75.14043">
        <ele>992.9</ele>
        <time>2021-08-21T12:19:13Z</time>
      </trkpt>
      <trkpt lat="2.871422" lon="-75.14041">
        <ele>993.1</ele>
        <time>2021-08-21T12:19:14Z</time>
      </trkpt>
      <trkpt lat="2.871413" lon="-75.140396">
        <ele>993.2</ele>
        <time>2021-08-21T12:19:15Z</time>
      </trkpt>
      <trkpt lat="2.871398" lon="-75.14036">
        <ele>993.4</ele>
        <time>2021-08-21T12:19:17Z</time>
      </trkpt>
      <trkpt lat="2.871402" lon="-75.140366">
        <ele>993.4</ele>
        <time>2021-08-21T12:19:17Z</time>
      </trkpt>
      <trkpt lat="2.871392" lon="-75.140335">
        <ele>993.5</ele>
        <time>2021-08-21T12:19:18Z</time>
      </trkpt>
      <trkpt lat="2.871386" lon="-75.14031">
        <ele>993.7</ele>
        <time>2021-08-21T12:19:19Z</time>
      </trkpt>
      <trkpt lat="2.871379" lon="-75.1403">
        <ele>993.8</ele>
        <time>2021-08-21T12:19:20Z</time>
      </trkpt>
      <trkpt lat="2.871373" lon="-75.14028">
        <ele>993.9</ele>
        <time>2021-08-21T12:19:21Z</time>
      </trkpt>
      <trkpt lat="2.871367" lon="-75.14026">
        <ele>994.0</ele>
        <time>2021-08-21T12:19:22Z</time>
      </trkpt>
      <trkpt lat="2.871357" lon="-75.14022">
        <ele>994.2</ele>
        <time>2021-08-21T12:19:24Z</time>
      </trkpt>
      <trkpt lat="2.87136" lon="-75.14023">
        <ele>994.2</ele>
        <time>2021-08-21T12:19:24Z</time>
      </trkpt>
      <trkpt lat="2.871352" lon="-75.140205">
        <ele>994.4</ele>
        <time>2021-08-21T12:19:25Z</time>
      </trkpt>
      <trkpt lat="2.871347" lon="-75.14018">
        <ele>994.5</ele>
        <time>2021-08-21T12:19:26Z</time>
      </trkpt>
      <trkpt lat="2.871341" lon="-75.14017">
        <ele>994.6</ele>
        <time>2021-08-21T12:19:27Z</time>
      </trkpt>
      <trkpt lat="2.871336" lon="-75.140144">
        <ele>994.7</ele>
        <time>2021-08-21T12:19:28Z</time>
      </trkpt>
      <trkpt lat="2.871331" lon="-75.14013">
        <ele>994.8</ele>
        <time>2021-08-21T12:19:29Z</time>
      </trkpt>
      <trkpt lat="2.871324" lon="-75.1401">
        <ele>995.1</ele>
        <time>2021-08-21T12:19:31Z</time>
      </trkpt>
      <trkpt lat="2.871326" lon="-75.14011">
        <ele>995.0</ele>
        <time>2021-08-21T12:19:31Z</time>
      </trkpt>
      <trkpt lat="2.87132" lon="-75.140076">
        <ele>995.2</ele>
        <time>2021-08-21T12:19:32Z</time>
      </trkpt>
      <trkpt lat="2.871317" lon="-75.14006">
        <ele>995.3</ele>
        <time>2021-08-21T12:19:33Z</time>
      </trkpt>
      <trkpt lat="2.871315" lon="-75.140045">
        <ele>995.4</ele>
        <time>2021-08-21T12:19:34Z</time>
      </trkpt>
      <trkpt lat="2.871313" lon="-75.14003">
        <ele>995.5</ele>
        <time>2021-08-21T12:19:35Z</time>
      </trkpt>
      <trkpt lat="2.871311" lon="-75.140015">
        <ele>995.6</ele>
        <time>2021-08-21T12:19:36Z</time>
      </trkpt>
      <trkpt lat="2.871309" lon="-75.13999">
        <ele>995.7</ele>
        <time>2021-08-21T12:19:37Z</time>
      </trkpt>
      <trkpt lat="2.87131" lon="-75.13998">
        <ele>995.9</ele>
        <time>2021-08-21T12:19:38Z</time>
      </trkpt>
      <trkpt lat="2.871311" lon="-75.13996">
        <ele>996.0</ele>
        <time>2021-08-21T12:19:39Z</time>
      </trkpt>
      <trkpt lat="2.871313" lon="-75.139946">
        <ele>996.1</ele>
        <time>2021-08-21T12:19:40Z</time>
      </trkpt>
      <trkpt lat="2.871318" lon="-75.139915">
        <ele>996.3</ele>
        <time>2021-08-21T12:19:41Z</time>
      </trkpt>
      <trkpt lat="2.87132" lon="-75.1399">
        <ele>996.4</ele>
        <time>2021-08-21T12:19:43Z</time>
      </trkpt>
      <trkpt lat="2.871322" lon="-75.13989">
        <ele>996.5</ele>
        <time>2021-08-21T12:19:43Z</time>
      </trkpt>
      <trkpt lat="2.871324" lon="-75.13988">
        <ele>996.6</ele>
        <time>2021-08-21T12:19:44Z</time>
      </trkpt>
      <trkpt lat="2.871325" lon="-75.13986">
        <ele>996.8</ele>
        <time>2021-08-21T12:19:45Z</time>
      </trkpt>
      <trkpt lat="2.871327" lon="-75.13985">
        <ele>996.9</ele>
        <time>2021-08-21T12:19:46Z</time>
      </trkpt>
      <trkpt lat="2.871328" lon="-75.13983">
        <ele>997.0</ele>
        <time>2021-08-21T12:19:47Z</time>
      </trkpt>
      <trkpt lat="2.871329" lon="-75.13982">
        <ele>997.1</ele>
        <time>2021-08-21T12:19:48Z</time>
      </trkpt>
      <trkpt lat="2.87133" lon="-75.13981">
        <ele>997.2</ele>
        <time>2021-08-21T12:19:49Z</time>
      </trkpt>
      <trkpt lat="2.871329" lon="-75.13979">
        <ele>997.3</ele>
        <time>2021-08-21T12:19:50Z</time>
      </trkpt>
      <trkpt lat="2.871328" lon="-75.13978">
        <ele>997.4</ele>
        <time>2021-08-21T12:19:51Z</time>
      </trkpt>
      <trkpt lat="2.871325" lon="-75.13976">
        <ele>997.5</ele>
        <time>2021-08-21T12:19:52Z</time>
      </trkpt>
      <trkpt lat="2.871321" lon="-75.13975">
        <ele>997.6</ele>
        <time>2021-08-21T12:19:53Z</time>
      </trkpt>
      <trkpt lat="2.871316" lon="-75.13973">
        <ele>997.7</ele>
        <time>2021-08-21T12:19:54Z</time>
      </trkpt>
      <trkpt lat="2.87131" lon="-75.139725">
        <ele>997.8</ele>
        <time>2021-08-21T12:19:55Z</time>
      </trkpt>
      <trkpt lat="2.871304" lon="-75.13971">
        <ele>997.9</ele>
        <time>2021-08-21T12:19:56Z</time>
      </trkpt>
      <trkpt lat="2.871297" lon="-75.139694">
        <ele>998.0</ele>
        <time>2021-08-21T12:19:57Z</time>
      </trkpt>
      <trkpt lat="2.871289" lon="-75.13969">
        <ele>998.1</ele>
        <time>2021-08-21T12:19:58Z</time>
      </trkpt>
      <trkpt lat="2.871281" lon="-75.13967">
        <ele>998.2</ele>
        <time>2021-08-21T12:19:59Z</time>
      </trkpt>
      <trkpt lat="2.871272" lon="-75.13966">
        <ele>998.3</ele>
        <time>2021-08-21T12:20:00Z</time>
      </trkpt>
      <trkpt lat="2.871264" lon="-75.13965">
        <ele>998.4</ele>
        <time>2021-08-21T12:20:01Z</time>
      </trkpt>
      <trkpt lat="2.871255" lon="-75.13963">
        <ele>998.4</ele>
        <time>2021-08-21T12:20:02Z</time>
      </trkpt>
      <trkpt lat="2.871248" lon="-75.139626">
        <ele>998.5</ele>
        <time>2021-08-21T12:20:03Z</time>
      </trkpt>
      <trkpt lat="2.871241" lon="-75.13961">
        <ele>998.6</ele>
        <time>2021-08-21T12:20:04Z</time>
      </trkpt>
      <trkpt lat="2.871232" lon="-75.139595">
        <ele>998.7</ele>
        <time>2021-08-21T12:20:05Z</time>
      </trkpt>
      <trkpt lat="2.871224" lon="-75.13959">
        <ele>998.8</ele>
        <time>2021-08-21T12:20:06Z</time>
      </trkpt>
      <trkpt lat="2.871215" lon="-75.13957">
        <ele>998.9</ele>
        <time>2021-08-21T12:20:07Z</time>
      </trkpt>
      <trkpt lat="2.871207" lon="-75.13956">
        <ele>999.0</ele>
        <time>2021-08-21T12:20:08Z</time>
      </trkpt>
      <trkpt lat="2.871199" lon="-75.13954">
        <ele>999.1</ele>
        <time>2021-08-21T12:20:09Z</time>
      </trkpt>
      <trkpt lat="2.87119" lon="-75.13953">
        <ele>999.2</ele>
        <time>2021-08-21T12:20:10Z</time>
      </trkpt>
      <trkpt lat="2.87118" lon="-75.13951">
        <ele>999.3</ele>
        <time>2021-08-21T12:20:11Z</time>
      </trkpt>
      <trkpt lat="2.871173" lon="-75.13949">
        <ele>999.4</ele>
        <time>2021-08-21T12:20:12Z</time>
      </trkpt>
      <trkpt lat="2.871165" lon="-75.13947">
        <ele>999.5</ele>
        <time>2021-08-21T12:20:13Z</time>
      </trkpt>
      <trkpt lat="2.871158" lon="-75.13946">
        <ele>999.6</ele>
        <time>2021-08-21T12:20:14Z</time>
      </trkpt>
      <trkpt lat="2.871144" lon="-75.13943">
        <ele>999.8</ele>
        <time>2021-08-21T12:20:16Z</time>
      </trkpt>
      <trkpt lat="2.871147" lon="-75.139435">
        <ele>999.8</ele>
        <time>2021-08-21T12:20:16Z</time>
      </trkpt>
      <trkpt lat="2.871137" lon="-75.139404">
        <ele>999.9</ele>
        <time>2021-08-21T12:20:17Z</time>
      </trkpt>
      <trkpt lat="2.87113" lon="-75.13939">
        <ele>1000.0</ele>
        <time>2021-08-21T12:20:18Z</time>
      </trkpt>
      <trkpt lat="2.871124" lon="-75.13937">
        <ele>1000.1</ele>
        <time>2021-08-21T12:20:19Z</time>
      </trkpt>
      <trkpt lat="2.871118" lon="-75.13936">
        <ele>1000.2</ele>
        <time>2021-08-21T12:20:20Z</time>
      </trkpt>
      <trkpt lat="2.871111" lon="-75.13934">
        <ele>1000.3</ele>
        <time>2021-08-21T12:20:21Z</time>
      </trkpt>
      <trkpt lat="2.87108" lon="-75.1393">
        <ele>1000.6</ele>
        <time>2021-08-21T12:20:23Z</time>
      </trkpt>
      <trkpt lat="2.871092" lon="-75.13931">
        <ele>1000.5</ele>
        <time>2021-08-21T12:20:23Z</time>
      </trkpt>
      <trkpt lat="2.871098" lon="-75.13932">
        <ele>1000.5</ele>
        <time>2021-08-21T12:20:23Z</time>
      </trkpt>
      <trkpt lat="2.871055" lon="-75.13928">
        <ele>1000.7</ele>
        <time>2021-08-21T12:20:24Z</time>
      </trkpt>
      <trkpt lat="2.871042" lon="-75.139275">
        <ele>1000.8</ele>
        <time>2021-08-21T12:20:25Z</time>
      </trkpt>
      <trkpt lat="2.87103" lon="-75.13927">
        <ele>1000.8</ele>
        <time>2021-08-21T12:20:26Z</time>
      </trkpt>
      <trkpt lat="2.871018" lon="-75.13926">
        <ele>1000.9</ele>
        <time>2021-08-21T12:20:27Z</time>
      </trkpt>
      <trkpt lat="2.870993" lon="-75.13925">
        <ele>1001.0</ele>
        <time>2021-08-21T12:20:29Z</time>
      </trkpt>
      <trkpt lat="2.871005" lon="-75.13926">
        <ele>1000.9</ele>
        <time>2021-08-21T12:20:29Z</time>
      </trkpt>
      <trkpt lat="2.870977" lon="-75.13925">
        <ele>1001.0</ele>
        <time>2021-08-21T12:20:30Z</time>
      </trkpt>
      <trkpt lat="2.87096" lon="-75.13925">
        <ele>1001.1</ele>
        <time>2021-08-21T12:20:31Z</time>
      </trkpt>
      <trkpt lat="2.870944" lon="-75.13926">
        <ele>1001.1</ele>
        <time>2021-08-21T12:20:32Z</time>
      </trkpt>
      <trkpt lat="2.870927" lon="-75.13927">
        <ele>1001.2</ele>
        <time>2021-08-21T12:20:33Z</time>
      </trkpt>
      <trkpt lat="2.87091" lon="-75.139275">
        <ele>1001.2</ele>
        <time>2021-08-21T12:20:34Z</time>
      </trkpt>
      <trkpt lat="2.870881" lon="-75.13928">
        <ele>1001.3</ele>
        <time>2021-08-21T12:20:36Z</time>
      </trkpt>
      <trkpt lat="2.870888" lon="-75.13928">
        <ele>1001.3</ele>
        <time>2021-08-21T12:20:36Z</time>
      </trkpt>
      <trkpt lat="2.870857" lon="-75.139305">
        <ele>1001.5</ele>
        <time>2021-08-21T12:20:37Z</time>
      </trkpt>
      <trkpt lat="2.870847" lon="-75.13931">
        <ele>1001.5</ele>
        <time>2021-08-21T12:20:38Z</time>
      </trkpt>
      <trkpt lat="2.870837" lon="-75.13932">
        <ele>1001.5</ele>
        <time>2021-08-21T12:20:39Z</time>
      </trkpt>
      <trkpt lat="2.870827" lon="-75.139336">
        <ele>1001.6</ele>
        <time>2021-08-21T12:20:40Z</time>
      </trkpt>
      <trkpt lat="2.870817" lon="-75.13934">
        <ele>1001.6</ele>
        <time>2021-08-21T12:20:41Z</time>
      </trkpt>
      <trkpt lat="2.870797" lon="-75.139366">
        <ele>1001.7</ele>
        <time>2021-08-21T12:20:43Z</time>
      </trkpt>
      <trkpt lat="2.870807" lon="-75.13936">
        <ele>1001.7</ele>
        <time>2021-08-21T12:20:43Z</time>
      </trkpt>
      <trkpt lat="2.870787" lon="-75.13938">
        <ele>1001.8</ele>
        <time>2021-08-21T12:20:44Z</time>
      </trkpt>
      <trkpt lat="2.870777" lon="-75.1394">
        <ele>1001.8</ele>
        <time>2021-08-21T12:20:45Z</time>
      </trkpt>
      <trkpt lat="2.870768" lon="-75.13941">
        <ele>1001.9</ele>
        <time>2021-08-21T12:20:46Z</time>
      </trkpt>
      <trkpt lat="2.870758" lon="-75.13943">
        <ele>1001.9</ele>
        <time>2021-08-21T12:20:47Z</time>
      </trkpt>
      <trkpt lat="2.870748" lon="-75.13944">
        <ele>1002.0</ele>
        <time>2021-08-21T12:20:48Z</time>
      </trkpt>
      <trkpt lat="2.87074" lon="-75.13946">
        <ele>1002.0</ele>
        <time>2021-08-21T12:20:49Z</time>
      </trkpt>
      <trkpt lat="2.870731" lon="-75.13947">
        <ele>1002.1</ele>
        <time>2021-08-21T12:20:50Z</time>
      </trkpt>
      <trkpt lat="2.870722" lon="-75.13949">
        <ele>1002.1</ele>
        <time>2021-08-21T12:20:51Z</time>
      </trkpt>
      <trkpt lat="2.870713" lon="-75.1395">
        <ele>1002.2</ele>
        <time>2021-08-21T12:20:52Z</time>
      </trkpt>
      <trkpt lat="2.870703" lon="-75.13953">
        <ele>1002.2</ele>
        <time>2021-08-21T12:20:53Z</time>
      </trkpt>
      <trkpt lat="2.870693" lon="-75.13954">
        <ele>1002.3</ele>
        <time>2021-08-21T12:20:54Z</time>
      </trkpt>
      <trkpt lat="2.870682" lon="-75.13956">
        <ele>1002.4</ele>
        <time>2021-08-21T12:20:55Z</time>
      </trkpt>
      <trkpt lat="2.870669" lon="-75.13958">
        <ele>1002.4</ele>
        <time>2021-08-21T12:20:56Z</time>
      </trkpt>
      <trkpt lat="2.870654" lon="-75.139595">
        <ele>1002.5</ele>
        <time>2021-08-21T12:20:57Z</time>
      </trkpt>
      <trkpt lat="2.870614" lon="-75.13963">
        <ele>1002.6</ele>
        <time>2021-08-21T12:20:59Z</time>
      </trkpt>
      <trkpt lat="2.870625" lon="-75.139626">
        <ele>1002.6</ele>
        <time>2021-08-21T12:20:59Z</time>
      </trkpt>
      <trkpt lat="2.87059" lon="-75.13965">
        <ele>1002.7</ele>
        <time>2021-08-21T12:21:00Z</time>
      </trkpt>
      <trkpt lat="2.870566" lon="-75.139656">
        <ele>1002.7</ele>
        <time>2021-08-21T12:21:01Z</time>
      </trkpt>
      <trkpt lat="2.870538" lon="-75.13967">
        <ele>1002.8</ele>
        <time>2021-08-21T12:21:02Z</time>
      </trkpt>
      <trkpt lat="2.870506" lon="-75.13967">
        <ele>1002.9</ele>
        <time>2021-08-21T12:21:03Z</time>
      </trkpt>
      <trkpt lat="2.870475" lon="-75.13967">
        <ele>1002.9</ele>
        <time>2021-08-21T12:21:04Z</time>
      </trkpt>
      <trkpt lat="2.870445" lon="-75.13967">
        <ele>1003.0</ele>
        <time>2021-08-21T12:21:05Z</time>
      </trkpt>
      <trkpt lat="2.870412" lon="-75.139656">
        <ele>1003.1</ele>
        <time>2021-08-21T12:21:06Z</time>
      </trkpt>
      <trkpt lat="2.87038" lon="-75.13965">
        <ele>1003.1</ele>
        <time>2021-08-21T12:21:07Z</time>
      </trkpt>
      <trkpt lat="2.870351" lon="-75.13963">
        <ele>1003.2</ele>
        <time>2021-08-21T12:21:08Z</time>
      </trkpt>
      <trkpt lat="2.870324" lon="-75.13962">
        <ele>1003.2</ele>
        <time>2021-08-21T12:21:09Z</time>
      </trkpt>
      <trkpt lat="2.870296" lon="-75.1396">
        <ele>1003.3</ele>
        <time>2021-08-21T12:21:10Z</time>
      </trkpt>
      <trkpt lat="2.870269" lon="-75.139595">
        <ele>1003.3</ele>
        <time>2021-08-21T12:21:11Z</time>
      </trkpt>
      <trkpt lat="2.870241" lon="-75.13959">
        <ele>1003.3</ele>
        <time>2021-08-21T12:21:12Z</time>
      </trkpt>
      <trkpt lat="2.870214" lon="-75.13959">
        <ele>1003.4</ele>
        <time>2021-08-21T12:21:13Z</time>
      </trkpt>
      <trkpt lat="2.870186" lon="-75.13958">
        <ele>1003.4</ele>
        <time>2021-08-21T12:21:14Z</time>
      </trkpt>
      <trkpt lat="2.870157" lon="-75.13959">
        <ele>1003.4</ele>
        <time>2021-08-21T12:21:15Z</time>
      </trkpt>
      <trkpt lat="2.870127" lon="-75.13959">
        <ele>1003.4</ele>
        <time>2021-08-21T12:21:16Z</time>
      </trkpt>
      <trkpt lat="2.870097" lon="-75.139595">
        <ele>1003.4</ele>
        <time>2021-08-21T12:21:17Z</time>
      </trkpt>
      <trkpt lat="2.870066" lon="-75.1396">
        <ele>1003.3</ele>
        <time>2021-08-21T12:21:18Z</time>
      </trkpt>
      <trkpt lat="2.870004" lon="-75.13961">
        <ele>1003.3</ele>
        <time>2021-08-21T12:21:20Z</time>
      </trkpt>
      <trkpt lat="2.87002" lon="-75.13961">
        <ele>1003.3</ele>
        <time>2021-08-21T12:21:20Z</time>
      </trkpt>
      <trkpt lat="2.869969" lon="-75.13962">
        <ele>1003.2</ele>
        <time>2021-08-21T12:21:21Z</time>
      </trkpt>
      <trkpt lat="2.869935" lon="-75.139626">
        <ele>1003.2</ele>
        <time>2021-08-21T12:21:22Z</time>
      </trkpt>
      <trkpt lat="2.869904" lon="-75.13963">
        <ele>1003.2</ele>
        <time>2021-08-21T12:21:23Z</time>
      </trkpt>
      <trkpt lat="2.869873" lon="-75.13963">
        <ele>1003.1</ele>
        <time>2021-08-21T12:21:24Z</time>
      </trkpt>
      <trkpt lat="2.869842" lon="-75.13964">
        <ele>1003.1</ele>
        <time>2021-08-21T12:21:25Z</time>
      </trkpt>
      <trkpt lat="2.869784" lon="-75.13967">
        <ele>1003.0</ele>
        <time>2021-08-21T12:21:27Z</time>
      </trkpt>
      <trkpt lat="2.869799" lon="-75.13966">
        <ele>1003.0</ele>
        <time>2021-08-21T12:21:27Z</time>
      </trkpt>
      <trkpt lat="2.869758" lon="-75.13969">
        <ele>1002.9</ele>
        <time>2021-08-21T12:21:28Z</time>
      </trkpt>
      <trkpt lat="2.869735" lon="-75.13971">
        <ele>1002.9</ele>
        <time>2021-08-21T12:21:29Z</time>
      </trkpt>
      <trkpt lat="2.869715" lon="-75.13973">
        <ele>1002.8</ele>
        <time>2021-08-21T12:21:30Z</time>
      </trkpt>
      <trkpt lat="2.869699" lon="-75.139755">
        <ele>1002.8</ele>
        <time>2021-08-21T12:21:31Z</time>
      </trkpt>
      <trkpt lat="2.869685" lon="-75.139786">
        <ele>1002.8</ele>
        <time>2021-08-21T12:21:32Z</time>
      </trkpt>
      <trkpt lat="2.869665" lon="-75.13983">
        <ele>1002.7</ele>
        <time>2021-08-21T12:21:34Z</time>
      </trkpt>
      <trkpt lat="2.86967" lon="-75.139824">
        <ele>1002.7</ele>
        <time>2021-08-21T12:21:34Z</time>
      </trkpt>
      <trkpt lat="2.869657" lon="-75.13986">
        <ele>1002.7</ele>
        <time>2021-08-21T12:21:35Z</time>
      </trkpt>
      <trkpt lat="2.869651" lon="-75.13989">
        <ele>1002.7</ele>
        <time>2021-08-21T12:21:36Z</time>
      </trkpt>
      <trkpt lat="2.869645" lon="-75.139915">
        <ele>1002.7</ele>
        <time>2021-08-21T12:21:37Z</time>
      </trkpt>
      <trkpt lat="2.869639" lon="-75.139946">
        <ele>1002.6</ele>
        <time>2021-08-21T12:21:38Z</time>
      </trkpt>
      <trkpt lat="2.869634" lon="-75.13998">
        <ele>1002.6</ele>
        <time>2021-08-21T12:21:39Z</time>
      </trkpt>
      <trkpt lat="2.869629" lon="-75.14001">
        <ele>1002.6</ele>
        <time>2021-08-21T12:21:40Z</time>
      </trkpt>
      <trkpt lat="2.869624" lon="-75.14004">
        <ele>1002.5</ele>
        <time>2021-08-21T12:21:41Z</time>
      </trkpt>
      <trkpt lat="2.869619" lon="-75.14007">
        <ele>1002.5</ele>
        <time>2021-08-21T12:21:42Z</time>
      </trkpt>
      <trkpt lat="2.869614" lon="-75.1401">
        <ele>1002.5</ele>
        <time>2021-08-21T12:21:43Z</time>
      </trkpt>
      <trkpt lat="2.869609" lon="-75.14013">
        <ele>1002.4</ele>
        <time>2021-08-21T12:21:44Z</time>
      </trkpt>
      <trkpt lat="2.869604" lon="-75.14017">
        <ele>1002.4</ele>
        <time>2021-08-21T12:21:45Z</time>
      </trkpt>
      <trkpt lat="2.869598" lon="-75.1402">
        <ele>1002.4</ele>
        <time>2021-08-21T12:21:46Z</time>
      </trkpt>
      <trkpt lat="2.869592" lon="-75.14023">
        <ele>1002.3</ele>
        <time>2021-08-21T12:21:47Z</time>
      </trkpt>
      <trkpt lat="2.869586" lon="-75.14027">
        <ele>1002.3</ele>
        <time>2021-08-21T12:21:48Z</time>
      </trkpt>
      <trkpt lat="2.869579" lon="-75.1403">
        <ele>1002.2</ele>
        <time>2021-08-21T12:21:49Z</time>
      </trkpt>
      <trkpt lat="2.869571" lon="-75.140335">
        <ele>1002.2</ele>
        <time>2021-08-21T12:21:50Z</time>
      </trkpt>
      <trkpt lat="2.869562" lon="-75.140366">
        <ele>1002.2</ele>
        <time>2021-08-21T12:21:51Z</time>
      </trkpt>
      <trkpt lat="2.869551" lon="-75.140396">
        <ele>1002.1</ele>
        <time>2021-08-21T12:21:52Z</time>
      </trkpt>
      <trkpt lat="2.869539" lon="-75.14043">
        <ele>1002.1</ele>
        <time>2021-08-21T12:21:53Z</time>
      </trkpt>
      <trkpt lat="2.869522" lon="-75.14046">
        <ele>1002.0</ele>
        <time>2021-08-21T12:21:54Z</time>
      </trkpt>
      <trkpt lat="2.869504" lon="-75.14049">
        <ele>1002.0</ele>
        <time>2021-08-21T12:21:55Z</time>
      </trkpt>
      <trkpt lat="2.869483" lon="-75.14051">
        <ele>1001.9</ele>
        <time>2021-08-21T12:21:56Z</time>
      </trkpt>
      <trkpt lat="2.869459" lon="-75.14054">
        <ele>1001.9</ele>
        <time>2021-08-21T12:21:57Z</time>
      </trkpt>
      <trkpt lat="2.869434" lon="-75.140564">
        <ele>1001.8</ele>
        <time>2021-08-21T12:21:58Z</time>
      </trkpt>
      <trkpt lat="2.869407" lon="-75.14059">
        <ele>1001.7</ele>
        <time>2021-08-21T12:21:59Z</time>
      </trkpt>
      <trkpt lat="2.869353" lon="-75.14065">
        <ele>1001.5</ele>
        <time>2021-08-21T12:22:01Z</time>
      </trkpt>
      <trkpt lat="2.869379" lon="-75.14062">
        <ele>1001.6</ele>
        <time>2021-08-21T12:22:01Z</time>
      </trkpt>
      <trkpt lat="2.869329" lon="-75.14068">
        <ele>1001.4</ele>
        <time>2021-08-21T12:22:02Z</time>
      </trkpt>
      <trkpt lat="2.869307" lon="-75.14071">
        <ele>1001.3</ele>
        <time>2021-08-21T12:22:03Z</time>
      </trkpt>
      <trkpt lat="2.869288" lon="-75.14074">
        <ele>1001.2</ele>
        <time>2021-08-21T12:22:04Z</time>
      </trkpt>
      <trkpt lat="2.869272" lon="-75.14077">
        <ele>1001.1</ele>
        <time>2021-08-21T12:22:05Z</time>
      </trkpt>
      <trkpt lat="2.869249" lon="-75.14084">
        <ele>1001.0</ele>
        <time>2021-08-21T12:22:07Z</time>
      </trkpt>
      <trkpt lat="2.869254" lon="-75.14082">
        <ele>1001.0</ele>
        <time>2021-08-21T12:22:07Z</time>
      </trkpt>
      <trkpt lat="2.869238" lon="-75.14087">
        <ele>1000.9</ele>
        <time>2021-08-21T12:22:08Z</time>
      </trkpt>
      <trkpt lat="2.869227" lon="-75.1409">
        <ele>1000.9</ele>
        <time>2021-08-21T12:22:09Z</time>
      </trkpt>
      <trkpt lat="2.869215" lon="-75.14093">
        <ele>1000.8</ele>
        <time>2021-08-21T12:22:10Z</time>
      </trkpt>
      <trkpt lat="2.869203" lon="-75.14096">
        <ele>1000.7</ele>
        <time>2021-08-21T12:22:11Z</time>
      </trkpt>
      <trkpt lat="2.86919" lon="-75.14099">
        <ele>1000.6</ele>
        <time>2021-08-21T12:22:12Z</time>
      </trkpt>
      <trkpt lat="2.869177" lon="-75.14102">
        <ele>1000.5</ele>
        <time>2021-08-21T12:22:13Z</time>
      </trkpt>
      <trkpt lat="2.869163" lon="-75.14105">
        <ele>1000.5</ele>
        <time>2021-08-21T12:22:14Z</time>
      </trkpt>
      <trkpt lat="2.869143" lon="-75.14112">
        <ele>1000.3</ele>
        <time>2021-08-21T12:22:16Z</time>
      </trkpt>
      <trkpt lat="2.869148" lon="-75.141106">
        <ele>1000.3</ele>
        <time>2021-08-21T12:22:16Z</time>
      </trkpt>
      <trkpt lat="2.869136" lon="-75.14115">
        <ele>1000.2</ele>
        <time>2021-08-21T12:22:17Z</time>
      </trkpt>
      <trkpt lat="2.869126" lon="-75.14121">
        <ele>1000.1</ele>
        <time>2021-08-21T12:22:19Z</time>
      </trkpt>
      <trkpt lat="2.869128" lon="-75.1412">
        <ele>1000.1</ele>
        <time>2021-08-21T12:22:19Z</time>
      </trkpt>
      <trkpt lat="2.869125" lon="-75.14124">
        <ele>1000.0</ele>
        <time>2021-08-21T12:22:20Z</time>
      </trkpt>
      <trkpt lat="2.869123" lon="-75.14127">
        <ele>1000.0</ele>
        <time>2021-08-21T12:22:21Z</time>
      </trkpt>
      <trkpt lat="2.869122" lon="-75.141304">
        <ele>999.9</ele>
        <time>2021-08-21T12:22:22Z</time>
      </trkpt>
      <trkpt lat="2.869119" lon="-75.141335">
        <ele>999.8</ele>
        <time>2021-08-21T12:22:23Z</time>
      </trkpt>
      <trkpt lat="2.869114" lon="-75.141365">
        <ele>999.7</ele>
        <time>2021-08-21T12:22:24Z</time>
      </trkpt>
      <trkpt lat="2.869104" lon="-75.141396">
        <ele>999.6</ele>
        <time>2021-08-21T12:22:25Z</time>
      </trkpt>
      <trkpt lat="2.869091" lon="-75.141426">
        <ele>999.5</ele>
        <time>2021-08-21T12:22:26Z</time>
      </trkpt>
      <trkpt lat="2.869075" lon="-75.14146">
        <ele>999.3</ele>
        <time>2021-08-21T12:22:27Z</time>
      </trkpt>
      <trkpt lat="2.869056" lon="-75.14148">
        <ele>999.2</ele>
        <time>2021-08-21T12:22:28Z</time>
      </trkpt>
      <trkpt lat="2.869033" lon="-75.14151">
        <ele>999.0</ele>
        <time>2021-08-21T12:22:29Z</time>
      </trkpt>
      <trkpt lat="2.869005" lon="-75.14153">
        <ele>998.8</ele>
        <time>2021-08-21T12:22:30Z</time>
      </trkpt>
      <trkpt lat="2.868972" lon="-75.141556">
        <ele>998.5</ele>
        <time>2021-08-21T12:22:31Z</time>
      </trkpt>
      <trkpt lat="2.868934" lon="-75.14157">
        <ele>998.3</ele>
        <time>2021-08-21T12:22:32Z</time>
      </trkpt>
      <trkpt lat="2.868894" lon="-75.14159">
        <ele>998.1</ele>
        <time>2021-08-21T12:22:33Z</time>
      </trkpt>
      <trkpt lat="2.86885" lon="-75.141594">
        <ele>997.9</ele>
        <time>2021-08-21T12:22:34Z</time>
      </trkpt>
      <trkpt lat="2.868808" lon="-75.141594">
        <ele>997.6</ele>
        <time>2021-08-21T12:22:35Z</time>
      </trkpt>
      <trkpt lat="2.868762" lon="-75.14159">
        <ele>997.4</ele>
        <time>2021-08-21T12:22:36Z</time>
      </trkpt>
      <trkpt lat="2.868715" lon="-75.14157">
        <ele>997.1</ele>
        <time>2021-08-21T12:22:37Z</time>
      </trkpt>
      <trkpt lat="2.868621" lon="-75.14154">
        <ele>996.6</ele>
        <time>2021-08-21T12:22:39Z</time>
      </trkpt>
      <trkpt lat="2.868668" lon="-75.141556">
        <ele>996.8</ele>
        <time>2021-08-21T12:22:39Z</time>
      </trkpt>
      <trkpt lat="2.868575" lon="-75.141525">
        <ele>996.3</ele>
        <time>2021-08-21T12:22:40Z</time>
      </trkpt>
      <trkpt lat="2.86853" lon="-75.1415">
        <ele>996.1</ele>
        <time>2021-08-21T12:22:41Z</time>
      </trkpt>
      <trkpt lat="2.868486" lon="-75.14148">
        <ele>995.9</ele>
        <time>2021-08-21T12:22:42Z</time>
      </trkpt>
      <trkpt lat="2.868444" lon="-75.14146">
        <ele>995.7</ele>
        <time>2021-08-21T12:22:43Z</time>
      </trkpt>
      <trkpt lat="2.868403" lon="-75.14143">
        <ele>995.5</ele>
        <time>2021-08-21T12:22:44Z</time>
      </trkpt>
      <trkpt lat="2.868365" lon="-75.14141">
        <ele>995.3</ele>
        <time>2021-08-21T12:22:45Z</time>
      </trkpt>
      <trkpt lat="2.868327" lon="-75.14139">
        <ele>995.2</ele>
        <time>2021-08-21T12:22:46Z</time>
      </trkpt>
      <trkpt lat="2.868289" lon="-75.141365">
        <ele>995.0</ele>
        <time>2021-08-21T12:22:47Z</time>
      </trkpt>
      <trkpt lat="2.868251" lon="-75.14134">
        <ele>994.9</ele>
        <time>2021-08-21T12:22:48Z</time>
      </trkpt>
      <trkpt lat="2.868211" lon="-75.14133">
        <ele>994.7</ele>
        <time>2021-08-21T12:22:49Z</time>
      </trkpt>
      <trkpt lat="2.868172" lon="-75.14131">
        <ele>994.6</ele>
        <time>2021-08-21T12:22:50Z</time>
      </trkpt>
      <trkpt lat="2.868132" lon="-75.1413">
        <ele>994.4</ele>
        <time>2021-08-21T12:22:51Z</time>
      </trkpt>
      <trkpt lat="2.868093" lon="-75.14128">
        <ele>994.3</ele>
        <time>2021-08-21T12:22:52Z</time>
      </trkpt>
      <trkpt lat="2.868055" lon="-75.141266">
        <ele>994.2</ele>
        <time>2021-08-21T12:22:53Z</time>
      </trkpt>
      <trkpt lat="2.868019" lon="-75.14125">
        <ele>994.0</ele>
        <time>2021-08-21T12:22:54Z</time>
      </trkpt>
      <trkpt lat="2.867986" lon="-75.141235">
        <ele>993.9</ele>
        <time>2021-08-21T12:22:55Z</time>
      </trkpt>
      <trkpt lat="2.867955" lon="-75.14123">
        <ele>993.8</ele>
        <time>2021-08-21T12:22:56Z</time>
      </trkpt>
      <trkpt lat="2.867929" lon="-75.14121">
        <ele>993.7</ele>
        <time>2021-08-21T12:22:57Z</time>
      </trkpt>
      <trkpt lat="2.867908" lon="-75.1412">
        <ele>993.6</ele>
        <time>2021-08-21T12:22:58Z</time>
      </trkpt>
      <trkpt lat="2.867892" lon="-75.14119">
        <ele>993.6</ele>
        <time>2021-08-21T12:22:59Z</time>
      </trkpt>
      <trkpt lat="2.867862" lon="-75.14117">
        <ele>993.5</ele>
        <time>2021-08-21T12:23:02Z</time>
      </trkpt>
      <trkpt lat="2.867806" lon="-75.14109">
        <ele>993.2</ele>
        <time>2021-08-21T12:23:41Z</time>
      </trkpt>
      <trkpt lat="2.867802" lon="-75.14108">
        <ele>993.2</ele>
        <time>2021-08-21T12:23:42Z</time>
      </trkpt>
      <trkpt lat="2.867795" lon="-75.14107">
        <ele>993.1</ele>
        <time>2021-08-21T12:23:43Z</time>
      </trkpt>
      <trkpt lat="2.867785" lon="-75.14105">
        <ele>993.0</ele>
        <time>2021-08-21T12:23:44Z</time>
      </trkpt>
      <trkpt lat="2.867775" lon="-75.14102">
        <ele>993.0</ele>
        <time>2021-08-21T12:23:45Z</time>
      </trkpt>
      <trkpt lat="2.867751" lon="-75.14097">
        <ele>992.7</ele>
        <time>2021-08-21T12:23:47Z</time>
      </trkpt>
      <trkpt lat="2.867757" lon="-75.140976">
        <ele>992.8</ele>
        <time>2021-08-21T12:23:47Z</time>
      </trkpt>
      <trkpt lat="2.867738" lon="-75.14094">
        <ele>992.6</ele>
        <time>2021-08-21T12:23:48Z</time>
      </trkpt>
      <trkpt lat="2.867726" lon="-75.14091">
        <ele>992.5</ele>
        <time>2021-08-21T12:23:49Z</time>
      </trkpt>
      <trkpt lat="2.867712" lon="-75.14088">
        <ele>992.5</ele>
        <time>2021-08-21T12:23:50Z</time>
      </trkpt>
      <trkpt lat="2.867698" lon="-75.14085">
        <ele>992.4</ele>
        <time>2021-08-21T12:23:51Z</time>
      </trkpt>
      <trkpt lat="2.867684" lon="-75.140816">
        <ele>992.4</ele>
        <time>2021-08-21T12:23:52Z</time>
      </trkpt>
      <trkpt lat="2.867669" lon="-75.14079">
        <ele>992.3</ele>
        <time>2021-08-21T12:23:53Z</time>
      </trkpt>
      <trkpt lat="2.867653" lon="-75.14077">
        <ele>992.3</ele>
        <time>2021-08-21T12:23:54Z</time>
      </trkpt>
      <trkpt lat="2.867638" lon="-75.14075">
        <ele>992.2</ele>
        <time>2021-08-21T12:23:55Z</time>
      </trkpt>
      <trkpt lat="2.867623" lon="-75.140724">
        <ele>992.2</ele>
        <time>2021-08-21T12:23:56Z</time>
      </trkpt>
      <trkpt lat="2.867608" lon="-75.14069">
        <ele>992.1</ele>
        <time>2021-08-21T12:23:57Z</time>
      </trkpt>
      <trkpt lat="2.867594" lon="-75.14067">
        <ele>992.0</ele>
        <time>2021-08-21T12:23:58Z</time>
      </trkpt>
      <trkpt lat="2.86758" lon="-75.14065">
        <ele>992.0</ele>
        <time>2021-08-21T12:23:59Z</time>
      </trkpt>
      <trkpt lat="2.867564" lon="-75.140625">
        <ele>991.9</ele>
        <time>2021-08-21T12:24:00Z</time>
      </trkpt>
      <trkpt lat="2.867548" lon="-75.1406">
        <ele>991.9</ele>
        <time>2021-08-21T12:24:01Z</time>
      </trkpt>
      <trkpt lat="2.86753" lon="-75.14058">
        <ele>991.8</ele>
        <time>2021-08-21T12:24:02Z</time>
      </trkpt>
      <trkpt lat="2.86751" lon="-75.14055">
        <ele>991.8</ele>
        <time>2021-08-21T12:24:03Z</time>
      </trkpt>
      <trkpt lat="2.867489" lon="-75.140526">
        <ele>991.7</ele>
        <time>2021-08-21T12:24:04Z</time>
      </trkpt>
      <trkpt lat="2.867466" lon="-75.1405">
        <ele>991.6</ele>
        <time>2021-08-21T12:24:05Z</time>
      </trkpt>
      <trkpt lat="2.867442" lon="-75.14049">
        <ele>991.6</ele>
        <time>2021-08-21T12:24:06Z</time>
      </trkpt>
      <trkpt lat="2.867417" lon="-75.140465">
        <ele>991.6</ele>
        <time>2021-08-21T12:24:07Z</time>
      </trkpt>
      <trkpt lat="2.867392" lon="-75.14045">
        <ele>991.5</ele>
        <time>2021-08-21T12:24:08Z</time>
      </trkpt>
      <trkpt lat="2.867365" lon="-75.14043">
        <ele>991.5</ele>
        <time>2021-08-21T12:24:09Z</time>
      </trkpt>
      <trkpt lat="2.867337" lon="-75.14041">
        <ele>991.4</ele>
        <time>2021-08-21T12:24:10Z</time>
      </trkpt>
      <trkpt lat="2.867309" lon="-75.140396">
        <ele>991.4</ele>
        <time>2021-08-21T12:24:11Z</time>
      </trkpt>
      <trkpt lat="2.867253" lon="-75.14037">
        <ele>991.4</ele>
        <time>2021-08-21T12:24:13Z</time>
      </trkpt>
      <trkpt lat="2.867267" lon="-75.14037">
        <ele>991.4</ele>
        <time>2021-08-21T12:24:13Z</time>
      </trkpt>
      <trkpt lat="2.867226" lon="-75.14036">
        <ele>991.3</ele>
        <time>2021-08-21T12:24:14Z</time>
      </trkpt>
      <trkpt lat="2.8672" lon="-75.14034">
        <ele>991.3</ele>
        <time>2021-08-21T12:24:15Z</time>
      </trkpt>
      <trkpt lat="2.867173" lon="-75.140335">
        <ele>991.3</ele>
        <time>2021-08-21T12:24:16Z</time>
      </trkpt>
      <trkpt lat="2.867121" lon="-75.14031">
        <ele>991.3</ele>
        <time>2021-08-21T12:24:18Z</time>
      </trkpt>
      <trkpt lat="2.867134" lon="-75.14032">
        <ele>991.3</ele>
        <time>2021-08-21T12:24:18Z</time>
      </trkpt>
      <trkpt lat="2.867098" lon="-75.140305">
        <ele>991.2</ele>
        <time>2021-08-21T12:24:19Z</time>
      </trkpt>
      <trkpt lat="2.867075" lon="-75.14029">
        <ele>991.2</ele>
        <time>2021-08-21T12:24:20Z</time>
      </trkpt>
      <trkpt lat="2.867053" lon="-75.14028">
        <ele>991.3</ele>
        <time>2021-08-21T12:24:21Z</time>
      </trkpt>
      <trkpt lat="2.867033" lon="-75.14027">
        <ele>991.3</ele>
        <time>2021-08-21T12:24:22Z</time>
      </trkpt>
      <trkpt lat="2.867013" lon="-75.14026">
        <ele>991.3</ele>
        <time>2021-08-21T12:24:23Z</time>
      </trkpt>
      <trkpt lat="2.866975" lon="-75.14022">
        <ele>991.3</ele>
        <time>2021-08-21T12:24:25Z</time>
      </trkpt>
      <trkpt lat="2.866985" lon="-75.14023">
        <ele>991.3</ele>
        <time>2021-08-21T12:24:25Z</time>
      </trkpt>
      <trkpt lat="2.866959" lon="-75.1402">
        <ele>991.3</ele>
        <time>2021-08-21T12:24:26Z</time>
      </trkpt>
      <trkpt lat="2.866944" lon="-75.140175">
        <ele>991.3</ele>
        <time>2021-08-21T12:24:27Z</time>
      </trkpt>
      <trkpt lat="2.866933" lon="-75.14015">
        <ele>991.3</ele>
        <time>2021-08-21T12:24:28Z</time>
      </trkpt>
      <trkpt lat="2.866925" lon="-75.14013">
        <ele>991.4</ele>
        <time>2021-08-21T12:24:29Z</time>
      </trkpt>
      <trkpt lat="2.86692" lon="-75.14011">
        <ele>991.4</ele>
        <time>2021-08-21T12:24:30Z</time>
      </trkpt>
      <trkpt lat="2.866919" lon="-75.14007">
        <ele>991.4</ele>
        <time>2021-08-21T12:24:32Z</time>
      </trkpt>
      <trkpt lat="2.866919" lon="-75.14006">
        <ele>991.4</ele>
        <time>2021-08-21T12:24:32Z</time>
      </trkpt>
      <trkpt lat="2.866922" lon="-75.14004">
        <ele>991.4</ele>
        <time>2021-08-21T12:24:33Z</time>
      </trkpt>
      <trkpt lat="2.866927" lon="-75.14001">
        <ele>991.3</ele>
        <time>2021-08-21T12:24:34Z</time>
      </trkpt>
      <trkpt lat="2.866934" lon="-75.139984">
        <ele>991.3</ele>
        <time>2021-08-21T12:24:35Z</time>
      </trkpt>
      <trkpt lat="2.866943" lon="-75.13995">
        <ele>991.3</ele>
        <time>2021-08-21T12:24:36Z</time>
      </trkpt>
      <trkpt lat="2.866954" lon="-75.13993">
        <ele>991.3</ele>
        <time>2021-08-21T12:24:37Z</time>
      </trkpt>
      <trkpt lat="2.866967" lon="-75.1399">
        <ele>991.3</ele>
        <time>2021-08-21T12:24:38Z</time>
      </trkpt>
      <trkpt lat="2.86698" lon="-75.13987">
        <ele>991.3</ele>
        <time>2021-08-21T12:24:38Z</time>
      </trkpt>
      <trkpt lat="2.866994" lon="-75.13985">
        <ele>991.2</ele>
        <time>2021-08-21T12:24:39Z</time>
      </trkpt>
      <trkpt lat="2.867008" lon="-75.13982">
        <ele>991.2</ele>
        <time>2021-08-21T12:24:40Z</time>
      </trkpt>
      <trkpt lat="2.867021" lon="-75.139786">
        <ele>991.2</ele>
        <time>2021-08-21T12:24:41Z</time>
      </trkpt>
      <trkpt lat="2.867035" lon="-75.139755">
        <ele>991.1</ele>
        <time>2021-08-21T12:24:42Z</time>
      </trkpt>
      <trkpt lat="2.867049" lon="-75.139725">
        <ele>991.1</ele>
        <time>2021-08-21T12:24:43Z</time>
      </trkpt>
      <trkpt lat="2.867063" lon="-75.139694">
        <ele>991.1</ele>
        <time>2021-08-21T12:24:44Z</time>
      </trkpt>
      <trkpt lat="2.867078" lon="-75.13967">
        <ele>991.1</ele>
        <time>2021-08-21T12:24:45Z</time>
      </trkpt>
      <trkpt lat="2.867092" lon="-75.13964">
        <ele>991.0</ele>
        <time>2021-08-21T12:24:46Z</time>
      </trkpt>
      <trkpt lat="2.867106" lon="-75.13961">
        <ele>991.0</ele>
        <time>2021-08-21T12:24:47Z</time>
      </trkpt>
      <trkpt lat="2.86712" lon="-75.13959">
        <ele>991.0</ele>
        <time>2021-08-21T12:24:48Z</time>
      </trkpt>
      <trkpt lat="2.867133" lon="-75.13956">
        <ele>991.0</ele>
        <time>2021-08-21T12:24:49Z</time>
      </trkpt>
      <trkpt lat="2.867147" lon="-75.13953">
        <ele>991.0</ele>
        <time>2021-08-21T12:24:50Z</time>
      </trkpt>
      <trkpt lat="2.867159" lon="-75.139496">
        <ele>991.0</ele>
        <time>2021-08-21T12:24:51Z</time>
      </trkpt>
      <trkpt lat="2.867171" lon="-75.13947">
        <ele>991.0</ele>
        <time>2021-08-21T12:24:52Z</time>
      </trkpt>
      <trkpt lat="2.867183" lon="-75.13944">
        <ele>991.0</ele>
        <time>2021-08-21T12:24:53Z</time>
      </trkpt>
      <trkpt lat="2.867193" lon="-75.13941">
        <ele>991.0</ele>
        <time>2021-08-21T12:24:54Z</time>
      </trkpt>
      <trkpt lat="2.867203" lon="-75.13938">
        <ele>991.0</ele>
        <time>2021-08-21T12:24:55Z</time>
      </trkpt>
      <trkpt lat="2.867212" lon="-75.13936">
        <ele>991.2</ele>
        <time>2021-08-21T12:24:56Z</time>
      </trkpt>
      <trkpt lat="2.867221" lon="-75.13933">
        <ele>991.4</ele>
        <time>2021-08-21T12:24:57Z</time>
      </trkpt>
      <trkpt lat="2.867229" lon="-75.1393">
        <ele>991.6</ele>
        <time>2021-08-21T12:24:58Z</time>
      </trkpt>
      <trkpt lat="2.867237" lon="-75.13927">
        <ele>991.8</ele>
        <time>2021-08-21T12:24:59Z</time>
      </trkpt>
      <trkpt lat="2.867244" lon="-75.13924">
        <ele>992.0</ele>
        <time>2021-08-21T12:25:00Z</time>
      </trkpt>
      <trkpt lat="2.867252" lon="-75.139206">
        <ele>992.2</ele>
        <time>2021-08-21T12:25:01Z</time>
      </trkpt>
      <trkpt lat="2.867259" lon="-75.139175">
        <ele>992.4</ele>
        <time>2021-08-21T12:25:02Z</time>
      </trkpt>
      <trkpt lat="2.867264" lon="-75.139145">
        <ele>992.6</ele>
        <time>2021-08-21T12:25:03Z</time>
      </trkpt>
      <trkpt lat="2.867271" lon="-75.139114">
        <ele>992.9</ele>
        <time>2021-08-21T12:25:04Z</time>
      </trkpt>
      <trkpt lat="2.867277" lon="-75.13909">
        <ele>993.1</ele>
        <time>2021-08-21T12:25:05Z</time>
      </trkpt>
      <trkpt lat="2.867282" lon="-75.13906">
        <ele>993.3</ele>
        <time>2021-08-21T12:25:06Z</time>
      </trkpt>
      <trkpt lat="2.867287" lon="-75.13903">
        <ele>993.5</ele>
        <time>2021-08-21T12:25:07Z</time>
      </trkpt>
      <trkpt lat="2.867291" lon="-75.13901">
        <ele>993.7</ele>
        <time>2021-08-21T12:25:08Z</time>
      </trkpt>
      <trkpt lat="2.867296" lon="-75.13898">
        <ele>993.9</ele>
        <time>2021-08-21T12:25:09Z</time>
      </trkpt>
      <trkpt lat="2.867302" lon="-75.13893">
        <ele>994.2</ele>
        <time>2021-08-21T12:25:11Z</time>
      </trkpt>
      <trkpt lat="2.867304" lon="-75.138916">
        <ele>994.3</ele>
        <time>2021-08-21T12:25:11Z</time>
      </trkpt>
      <trkpt lat="2.867307" lon="-75.13889">
        <ele>994.6</ele>
        <time>2021-08-21T12:25:12Z</time>
      </trkpt>
      <trkpt lat="2.867311" lon="-75.13886">
        <ele>994.8</ele>
        <time>2021-08-21T12:25:13Z</time>
      </trkpt>
      <trkpt lat="2.867316" lon="-75.13883">
        <ele>995.0</ele>
        <time>2021-08-21T12:25:14Z</time>
      </trkpt>
      <trkpt lat="2.867326" lon="-75.138794">
        <ele>995.3</ele>
        <time>2021-08-21T12:25:16Z</time>
      </trkpt>
      <trkpt lat="2.867329" lon="-75.13878">
        <ele>995.4</ele>
        <time>2021-08-21T12:25:16Z</time>
      </trkpt>
      <trkpt lat="2.867336" lon="-75.138756">
        <ele>995.7</ele>
        <time>2021-08-21T12:25:17Z</time>
      </trkpt>
      <trkpt lat="2.867345" lon="-75.13873">
        <ele>995.9</ele>
        <time>2021-08-21T12:25:18Z</time>
      </trkpt>
      <trkpt lat="2.867354" lon="-75.1387">
        <ele>996.1</ele>
        <time>2021-08-21T12:25:19Z</time>
      </trkpt>
      <trkpt lat="2.867364" lon="-75.13868">
        <ele>996.3</ele>
        <time>2021-08-21T12:25:20Z</time>
      </trkpt>
      <trkpt lat="2.867375" lon="-75.13866">
        <ele>996.5</ele>
        <time>2021-08-21T12:25:21Z</time>
      </trkpt>
      <trkpt lat="2.867392" lon="-75.13862">
        <ele>996.8</ele>
        <time>2021-08-21T12:25:23Z</time>
      </trkpt>
      <trkpt lat="2.867397" lon="-75.1386">
        <ele>996.9</ele>
        <time>2021-08-21T12:25:23Z</time>
      </trkpt>
      <trkpt lat="2.867409" lon="-75.13857">
        <ele>997.2</ele>
        <time>2021-08-21T12:25:24Z</time>
      </trkpt>
      <trkpt lat="2.86742" lon="-75.13855">
        <ele>997.4</ele>
        <time>2021-08-21T12:25:25Z</time>
      </trkpt>
      <trkpt lat="2.867431" lon="-75.13852">
        <ele>997.6</ele>
        <time>2021-08-21T12:25:26Z</time>
      </trkpt>
      <trkpt lat="2.867441" lon="-75.1385">
        <ele>997.8</ele>
        <time>2021-08-21T12:25:27Z</time>
      </trkpt>
      <trkpt lat="2.867451" lon="-75.138466">
        <ele>998.1</ele>
        <time>2021-08-21T12:25:28Z</time>
      </trkpt>
      <trkpt lat="2.867461" lon="-75.13844">
        <ele>998.3</ele>
        <time>2021-08-21T12:25:29Z</time>
      </trkpt>
      <trkpt lat="2.867471" lon="-75.13841">
        <ele>998.6</ele>
        <time>2021-08-21T12:25:30Z</time>
      </trkpt>
      <trkpt lat="2.867479" lon="-75.13838">
        <ele>998.8</ele>
        <time>2021-08-21T12:25:31Z</time>
      </trkpt>
      <trkpt lat="2.867491" lon="-75.13834">
        <ele>999.2</ele>
        <time>2021-08-21T12:25:33Z</time>
      </trkpt>
      <trkpt lat="2.867494" lon="-75.13833">
        <ele>999.3</ele>
        <time>2021-08-21T12:25:33Z</time>
      </trkpt>
      <trkpt lat="2.867501" lon="-75.138306">
        <ele>999.5</ele>
        <time>2021-08-21T12:25:34Z</time>
      </trkpt>
      <trkpt lat="2.867509" lon="-75.13828">
        <ele>999.7</ele>
        <time>2021-08-21T12:25:35Z</time>
      </trkpt>
      <trkpt lat="2.867519" lon="-75.13825">
        <ele>999.9</ele>
        <time>2021-08-21T12:25:36Z</time>
      </trkpt>
      <trkpt lat="2.86753" lon="-75.13823">
        <ele>1000.1</ele>
        <time>2021-08-21T12:25:37Z</time>
      </trkpt>
      <trkpt lat="2.867543" lon="-75.13821">
        <ele>1000.3</ele>
        <time>2021-08-21T12:25:38Z</time>
      </trkpt>
      <trkpt lat="2.867557" lon="-75.13819">
        <ele>1000.5</ele>
        <time>2021-08-21T12:25:39Z</time>
      </trkpt>
      <trkpt lat="2.867574" lon="-75.13817">
        <ele>1000.7</ele>
        <time>2021-08-21T12:25:40Z</time>
      </trkpt>
      <trkpt lat="2.867593" lon="-75.138145">
        <ele>1000.9</ele>
        <time>2021-08-21T12:25:41Z</time>
      </trkpt>
      <trkpt lat="2.867614" lon="-75.13813">
        <ele>1001.1</ele>
        <time>2021-08-21T12:25:42Z</time>
      </trkpt>
      <trkpt lat="2.867635" lon="-75.13811">
        <ele>1001.4</ele>
        <time>2021-08-21T12:25:43Z</time>
      </trkpt>
      <trkpt lat="2.867658" lon="-75.13809">
        <ele>1001.6</ele>
        <time>2021-08-21T12:25:44Z</time>
      </trkpt>
      <trkpt lat="2.867681" lon="-75.13808">
        <ele>1001.8</ele>
        <time>2021-08-21T12:25:45Z</time>
      </trkpt>
      <trkpt lat="2.867702" lon="-75.13806">
        <ele>1002.0</ele>
        <time>2021-08-21T12:25:46Z</time>
      </trkpt>
      <trkpt lat="2.867724" lon="-75.13804">
        <ele>1002.2</ele>
        <time>2021-08-21T12:25:47Z</time>
      </trkpt>
      <trkpt lat="2.867744" lon="-75.13802">
        <ele>1002.4</ele>
        <time>2021-08-21T12:25:48Z</time>
      </trkpt>
      <trkpt lat="2.867776" lon="-75.13799">
        <ele>1002.8</ele>
        <time>2021-08-21T12:25:50Z</time>
      </trkpt>
      <trkpt lat="2.867786" lon="-75.13798">
        <ele>1002.9</ele>
        <time>2021-08-21T12:25:50Z</time>
      </trkpt>
      <trkpt lat="2.867804" lon="-75.13796">
        <ele>1003.1</ele>
        <time>2021-08-21T12:25:51Z</time>
      </trkpt>
      <trkpt lat="2.867819" lon="-75.13793">
        <ele>1003.3</ele>
        <time>2021-08-21T12:25:52Z</time>
      </trkpt>
      <trkpt lat="2.867831" lon="-75.13791">
        <ele>1003.4</ele>
        <time>2021-08-21T12:25:53Z</time>
      </trkpt>
      <trkpt lat="2.867841" lon="-75.137886">
        <ele>1003.6</ele>
        <time>2021-08-21T12:25:54Z</time>
      </trkpt>
      <trkpt lat="2.867849" lon="-75.13785">
        <ele>1003.9</ele>
        <time>2021-08-21T12:25:56Z</time>
      </trkpt>
      <trkpt lat="2.867849" lon="-75.13783">
        <ele>1003.9</ele>
        <time>2021-08-21T12:25:56Z</time>
      </trkpt>
      <trkpt lat="2.867844" lon="-75.13781">
        <ele>1004.1</ele>
        <time>2021-08-21T12:25:57Z</time>
      </trkpt>
      <trkpt lat="2.867836" lon="-75.13778">
        <ele>1004.3</ele>
        <time>2021-08-21T12:25:58Z</time>
      </trkpt>
      <trkpt lat="2.867822" lon="-75.137764">
        <ele>1004.4</ele>
        <time>2021-08-21T12:25:59Z</time>
      </trkpt>
      <trkpt lat="2.867804" lon="-75.13774">
        <ele>1004.6</ele>
        <time>2021-08-21T12:26:00Z</time>
      </trkpt>
      <trkpt lat="2.867783" lon="-75.137726">
        <ele>1004.7</ele>
        <time>2021-08-21T12:26:01Z</time>
      </trkpt>
      <trkpt lat="2.867733" lon="-75.1377">
        <ele>1005.0</ele>
        <time>2021-08-21T12:26:03Z</time>
      </trkpt>
      <trkpt lat="2.867746" lon="-75.13771">
        <ele>1005.0</ele>
        <time>2021-08-21T12:26:03Z</time>
      </trkpt>
      <trkpt lat="2.867705" lon="-75.137695">
        <ele>1005.2</ele>
        <time>2021-08-21T12:26:04Z</time>
      </trkpt>
      <trkpt lat="2.867678" lon="-75.13769">
        <ele>1005.3</ele>
        <time>2021-08-21T12:26:05Z</time>
      </trkpt>
      <trkpt lat="2.86765" lon="-75.13769">
        <ele>1005.5</ele>
        <time>2021-08-21T12:26:06Z</time>
      </trkpt>
      <trkpt lat="2.86762" lon="-75.13769">
        <ele>1005.7</ele>
        <time>2021-08-21T12:26:07Z</time>
      </trkpt>
      <trkpt lat="2.867589" lon="-75.13768">
        <ele>1005.8</ele>
        <time>2021-08-21T12:26:08Z</time>
      </trkpt>
      <trkpt lat="2.867532" lon="-75.13767">
        <ele>1006.2</ele>
        <time>2021-08-21T12:26:10Z</time>
      </trkpt>
      <trkpt lat="2.867547" lon="-75.13767">
        <ele>1006.1</ele>
        <time>2021-08-21T12:26:10Z</time>
      </trkpt>
      <trkpt lat="2.867504" lon="-75.137665">
        <ele>1006.3</ele>
        <time>2021-08-21T12:26:11Z</time>
      </trkpt>
      <trkpt lat="2.867475" lon="-75.13766">
        <ele>1006.5</ele>
        <time>2021-08-21T12:26:12Z</time>
      </trkpt>
      <trkpt lat="2.867447" lon="-75.13765">
        <ele>1006.7</ele>
        <time>2021-08-21T12:26:13Z</time>
      </trkpt>
      <trkpt lat="2.867419" lon="-75.13765">
        <ele>1006.8</ele>
        <time>2021-08-21T12:26:14Z</time>
      </trkpt>
      <trkpt lat="2.867388" lon="-75.13764">
        <ele>1007.0</ele>
        <time>2021-08-21T12:26:15Z</time>
      </trkpt>
      <trkpt lat="2.867358" lon="-75.13764">
        <ele>1007.2</ele>
        <time>2021-08-21T12:26:16Z</time>
      </trkpt>
      <trkpt lat="2.867329" lon="-75.137634">
        <ele>1007.4</ele>
        <time>2021-08-21T12:26:17Z</time>
      </trkpt>
      <trkpt lat="2.867302" lon="-75.137634">
        <ele>1007.5</ele>
        <time>2021-08-21T12:26:18Z</time>
      </trkpt>
      <trkpt lat="2.867274" lon="-75.13763">
        <ele>1007.7</ele>
        <time>2021-08-21T12:26:19Z</time>
      </trkpt>
      <trkpt lat="2.867246" lon="-75.13762">
        <ele>1007.9</ele>
        <time>2021-08-21T12:26:20Z</time>
      </trkpt>
      <trkpt lat="2.867221" lon="-75.13761">
        <ele>1008.1</ele>
        <time>2021-08-21T12:26:21Z</time>
      </trkpt>
      <trkpt lat="2.867198" lon="-75.137596">
        <ele>1008.2</ele>
        <time>2021-08-21T12:26:22Z</time>
      </trkpt>
      <trkpt lat="2.867176" lon="-75.13758">
        <ele>1008.4</ele>
        <time>2021-08-21T12:26:23Z</time>
      </trkpt>
      <trkpt lat="2.867155" lon="-75.137566">
        <ele>1008.6</ele>
        <time>2021-08-21T12:26:24Z</time>
      </trkpt>
      <trkpt lat="2.867135" lon="-75.13754">
        <ele>1008.8</ele>
        <time>2021-08-21T12:26:25Z</time>
      </trkpt>
      <trkpt lat="2.867115" lon="-75.13753">
        <ele>1009.0</ele>
        <time>2021-08-21T12:26:26Z</time>
      </trkpt>
      <trkpt lat="2.867074" lon="-75.13748">
        <ele>1009.4</ele>
        <time>2021-08-21T12:26:28Z</time>
      </trkpt>
      <trkpt lat="2.867085" lon="-75.13749">
        <ele>1009.3</ele>
        <time>2021-08-21T12:26:28Z</time>
      </trkpt>
      <trkpt lat="2.867054" lon="-75.13747">
        <ele>1009.7</ele>
        <time>2021-08-21T12:26:29Z</time>
      </trkpt>
      <trkpt lat="2.867033" lon="-75.13744">
        <ele>1009.9</ele>
        <time>2021-08-21T12:26:30Z</time>
      </trkpt>
      <trkpt lat="2.86701" lon="-75.13743">
        <ele>1010.1</ele>
        <time>2021-08-21T12:26:31Z</time>
      </trkpt>
      <trkpt lat="2.866989" lon="-75.13741">
        <ele>1010.3</ele>
        <time>2021-08-21T12:26:32Z</time>
      </trkpt>
      <trkpt lat="2.866968" lon="-75.137405">
        <ele>1010.5</ele>
        <time>2021-08-21T12:26:33Z</time>
      </trkpt>
      <trkpt lat="2.866924" lon="-75.13738">
        <ele>1010.8</ele>
        <time>2021-08-21T12:26:35Z</time>
      </trkpt>
      <trkpt lat="2.866935" lon="-75.13738">
        <ele>1010.8</ele>
        <time>2021-08-21T12:26:35Z</time>
      </trkpt>
      <trkpt lat="2.866901" lon="-75.13737">
        <ele>1011.0</ele>
        <time>2021-08-21T12:26:36Z</time>
      </trkpt>
      <trkpt lat="2.866878" lon="-75.13736">
        <ele>1011.2</ele>
        <time>2021-08-21T12:26:37Z</time>
      </trkpt>
      <trkpt lat="2.866854" lon="-75.137344">
        <ele>1011.4</ele>
        <time>2021-08-21T12:26:38Z</time>
      </trkpt>
      <trkpt lat="2.86683" lon="-75.13734">
        <ele>1011.6</ele>
        <time>2021-08-21T12:26:39Z</time>
      </trkpt>
      <trkpt lat="2.866805" lon="-75.13733">
        <ele>1011.8</ele>
        <time>2021-08-21T12:26:40Z</time>
      </trkpt>
      <trkpt lat="2.866755" lon="-75.13731">
        <ele>1012.2</ele>
        <time>2021-08-21T12:26:42Z</time>
      </trkpt>
      <trkpt lat="2.866767" lon="-75.13731">
        <ele>1012.1</ele>
        <time>2021-08-21T12:26:42Z</time>
      </trkpt>
      <trkpt lat="2.866729" lon="-75.13729">
        <ele>1012.4</ele>
        <time>2021-08-21T12:26:43Z</time>
      </trkpt>
      <trkpt lat="2.866705" lon="-75.137276">
        <ele>1012.6</ele>
        <time>2021-08-21T12:26:44Z</time>
      </trkpt>
      <trkpt lat="2.86668" lon="-75.13727">
        <ele>1012.8</ele>
        <time>2021-08-21T12:26:45Z</time>
      </trkpt>
      <trkpt lat="2.866655" lon="-75.13725">
        <ele>1013.0</ele>
        <time>2021-08-21T12:26:46Z</time>
      </trkpt>
      <trkpt lat="2.866628" lon="-75.137245">
        <ele>1013.2</ele>
        <time>2021-08-21T12:26:47Z</time>
      </trkpt>
      <trkpt lat="2.866602" lon="-75.13724">
        <ele>1013.4</ele>
        <time>2021-08-21T12:26:48Z</time>
      </trkpt>
      <trkpt lat="2.866577" lon="-75.13722">
        <ele>1013.6</ele>
        <time>2021-08-21T12:26:49Z</time>
      </trkpt>
      <trkpt lat="2.86655" lon="-75.137215">
        <ele>1013.8</ele>
        <time>2021-08-21T12:26:50Z</time>
      </trkpt>
      <trkpt lat="2.866523" lon="-75.13721">
        <ele>1014.0</ele>
        <time>2021-08-21T12:26:51Z</time>
      </trkpt>
      <trkpt lat="2.866496" lon="-75.1372">
        <ele>1014.2</ele>
        <time>2021-08-21T12:26:52Z</time>
      </trkpt>
      <trkpt lat="2.866467" lon="-75.13719">
        <ele>1014.4</ele>
        <time>2021-08-21T12:26:53Z</time>
      </trkpt>
      <trkpt lat="2.866441" lon="-75.137184">
        <ele>1014.6</ele>
        <time>2021-08-21T12:26:54Z</time>
      </trkpt>
      <trkpt lat="2.866416" lon="-75.13718">
        <ele>1014.8</ele>
        <time>2021-08-21T12:26:55Z</time>
      </trkpt>
      <trkpt lat="2.86639" lon="-75.13717">
        <ele>1015.0</ele>
        <time>2021-08-21T12:26:56Z</time>
      </trkpt>
      <trkpt lat="2.866364" lon="-75.13717">
        <ele>1015.2</ele>
        <time>2021-08-21T12:26:57Z</time>
      </trkpt>
      <trkpt lat="2.86634" lon="-75.13716">
        <ele>1015.4</ele>
        <time>2021-08-21T12:26:58Z</time>
      </trkpt>
      <trkpt lat="2.866295" lon="-75.13715">
        <ele>1015.7</ele>
        <time>2021-08-21T12:27:00Z</time>
      </trkpt>
      <trkpt lat="2.866306" lon="-75.13715">
        <ele>1015.6</ele>
        <time>2021-08-21T12:27:00Z</time>
      </trkpt>
      <trkpt lat="2.866274" lon="-75.137146">
        <ele>1015.8</ele>
        <time>2021-08-21T12:27:01Z</time>
      </trkpt>
      <trkpt lat="2.866253" lon="-75.137146">
        <ele>1016.0</ele>
        <time>2021-08-21T12:27:02Z</time>
      </trkpt>
      <trkpt lat="2.866231" lon="-75.137146">
        <ele>1016.1</ele>
        <time>2021-08-21T12:27:03Z</time>
      </trkpt>
      <trkpt lat="2.86621" lon="-75.13714">
        <ele>1016.3</ele>
        <time>2021-08-21T12:27:04Z</time>
      </trkpt>
      <trkpt lat="2.866189" lon="-75.13714">
        <ele>1016.4</ele>
        <time>2021-08-21T12:27:05Z</time>
      </trkpt>
      <trkpt lat="2.866144" lon="-75.13714">
        <ele>1016.7</ele>
        <time>2021-08-21T12:27:07Z</time>
      </trkpt>
      <trkpt lat="2.866155" lon="-75.13714">
        <ele>1016.6</ele>
        <time>2021-08-21T12:27:07Z</time>
      </trkpt>
      <trkpt lat="2.86612" lon="-75.13714">
        <ele>1016.9</ele>
        <time>2021-08-21T12:27:08Z</time>
      </trkpt>
      <trkpt lat="2.866098" lon="-75.137146">
        <ele>1017.1</ele>
        <time>2021-08-21T12:27:09Z</time>
      </trkpt>
      <trkpt lat="2.866075" lon="-75.13715">
        <ele>1017.2</ele>
        <time>2021-08-21T12:27:10Z</time>
      </trkpt>
      <trkpt lat="2.866052" lon="-75.13715">
        <ele>1017.4</ele>
        <time>2021-08-21T12:27:11Z</time>
      </trkpt>
      <trkpt lat="2.866029" lon="-75.13716">
        <ele>1017.6</ele>
        <time>2021-08-21T12:27:12Z</time>
      </trkpt>
      <trkpt lat="2.866005" lon="-75.13716">
        <ele>1017.8</ele>
        <time>2021-08-21T12:27:13Z</time>
      </trkpt>
      <trkpt lat="2.865983" lon="-75.13717">
        <ele>1017.9</ele>
        <time>2021-08-21T12:27:14Z</time>
      </trkpt>
      <trkpt lat="2.865959" lon="-75.13717">
        <ele>1018.1</ele>
        <time>2021-08-21T12:27:15Z</time>
      </trkpt>
      <trkpt lat="2.865934" lon="-75.13717">
        <ele>1018.3</ele>
        <time>2021-08-21T12:27:16Z</time>
      </trkpt>
      <trkpt lat="2.865907" lon="-75.13718">
        <ele>1018.5</ele>
        <time>2021-08-21T12:27:17Z</time>
      </trkpt>
      <trkpt lat="2.865877" lon="-75.137184">
        <ele>1018.8</ele>
        <time>2021-08-21T12:27:18Z</time>
      </trkpt>
      <trkpt lat="2.865852" lon="-75.13719">
        <ele>1018.9</ele>
        <time>2021-08-21T12:27:19Z</time>
      </trkpt>
      <trkpt lat="2.865827" lon="-75.13719">
        <ele>1019.1</ele>
        <time>2021-08-21T12:27:20Z</time>
      </trkpt>
      <trkpt lat="2.865802" lon="-75.1372">
        <ele>1019.3</ele>
        <time>2021-08-21T12:27:21Z</time>
      </trkpt>
      <trkpt lat="2.865778" lon="-75.13721">
        <ele>1019.5</ele>
        <time>2021-08-21T12:27:22Z</time>
      </trkpt>
      <trkpt lat="2.865755" lon="-75.137215">
        <ele>1019.7</ele>
        <time>2021-08-21T12:27:23Z</time>
      </trkpt>
      <trkpt lat="2.865709" lon="-75.13724">
        <ele>1020.0</ele>
        <time>2021-08-21T12:27:25Z</time>
      </trkpt>
      <trkpt lat="2.865721" lon="-75.13723">
        <ele>1019.9</ele>
        <time>2021-08-21T12:27:25Z</time>
      </trkpt>
      <trkpt lat="2.865687" lon="-75.137245">
        <ele>1020.2</ele>
        <time>2021-08-21T12:27:26Z</time>
      </trkpt>
      <trkpt lat="2.865664" lon="-75.13725">
        <ele>1020.4</ele>
        <time>2021-08-21T12:27:27Z</time>
      </trkpt>
      <trkpt lat="2.865641" lon="-75.13726">
        <ele>1020.6</ele>
        <time>2021-08-21T12:27:28Z</time>
      </trkpt>
      <trkpt lat="2.865618" lon="-75.137276">
        <ele>1020.7</ele>
        <time>2021-08-21T12:27:29Z</time>
      </trkpt>
      <trkpt lat="2.865596" lon="-75.13728">
        <ele>1020.9</ele>
        <time>2021-08-21T12:27:30Z</time>
      </trkpt>
      <trkpt lat="2.865549" lon="-75.1373">
        <ele>1021.2</ele>
        <time>2021-08-21T12:27:32Z</time>
      </trkpt>
      <trkpt lat="2.865561" lon="-75.13729">
        <ele>1021.2</ele>
        <time>2021-08-21T12:27:32Z</time>
      </trkpt>
      <trkpt lat="2.865527" lon="-75.13731">
        <ele>1021.4</ele>
        <time>2021-08-21T12:27:33Z</time>
      </trkpt>
      <trkpt lat="2.865503" lon="-75.137314">
        <ele>1021.6</ele>
        <time>2021-08-21T12:27:34Z</time>
      </trkpt>
      <trkpt lat="2.865479" lon="-75.13732">
        <ele>1021.8</ele>
        <time>2021-08-21T12:27:35Z</time>
      </trkpt>
      <trkpt lat="2.865456" lon="-75.13733">
        <ele>1022.0</ele>
        <time>2021-08-21T12:27:36Z</time>
      </trkpt>
      <trkpt lat="2.865433" lon="-75.13734">
        <ele>1022.2</ele>
        <time>2021-08-21T12:27:37Z</time>
      </trkpt>
      <trkpt lat="2.865409" lon="-75.13735">
        <ele>1022.5</ele>
        <time>2021-08-21T12:27:38Z</time>
      </trkpt>
      <trkpt lat="2.865385" lon="-75.13736">
        <ele>1022.7</ele>
        <time>2021-08-21T12:27:39Z</time>
      </trkpt>
      <trkpt lat="2.865361" lon="-75.13737">
        <ele>1022.9</ele>
        <time>2021-08-21T12:27:40Z</time>
      </trkpt>
      <trkpt lat="2.865336" lon="-75.137375">
        <ele>1023.1</ele>
        <time>2021-08-21T12:27:41Z</time>
      </trkpt>
      <trkpt lat="2.86531" lon="-75.13738">
        <ele>1023.4</ele>
        <time>2021-08-21T12:27:42Z</time>
      </trkpt>
      <trkpt lat="2.865285" lon="-75.13739">
        <ele>1023.6</ele>
        <time>2021-08-21T12:27:43Z</time>
      </trkpt>
      <trkpt lat="2.865237" lon="-75.137405">
        <ele>1024.1</ele>
        <time>2021-08-21T12:27:45Z</time>
      </trkpt>
      <trkpt lat="2.865249" lon="-75.137405">
        <ele>1024.0</ele>
        <time>2021-08-21T12:27:45Z</time>
      </trkpt>
      <trkpt lat="2.865216" lon="-75.13741">
        <ele>1024.3</ele>
        <time>2021-08-21T12:27:46Z</time>
      </trkpt>
      <trkpt lat="2.865196" lon="-75.13742">
        <ele>1024.6</ele>
        <time>2021-08-21T12:27:47Z</time>
      </trkpt>
      <trkpt lat="2.865177" lon="-75.13743">
        <ele>1024.8</ele>
        <time>2021-08-21T12:27:48Z</time>
      </trkpt>
      <trkpt lat="2.865159" lon="-75.137436">
        <ele>1025.0</ele>
        <time>2021-08-21T12:27:49Z</time>
      </trkpt>
      <trkpt lat="2.865142" lon="-75.13744">
        <ele>1025.2</ele>
        <time>2021-08-21T12:27:50Z</time>
      </trkpt>
      <trkpt lat="2.865108" lon="-75.13745">
        <ele>1025.6</ele>
        <time>2021-08-21T12:27:52Z</time>
      </trkpt>
      <trkpt lat="2.865117" lon="-75.13745">
        <ele>1025.5</ele>
        <time>2021-08-21T12:27:52Z</time>
      </trkpt>
      <trkpt lat="2.865081" lon="-75.13747">
        <ele>1026.0</ele>
        <time>2021-08-21T12:27:53Z</time>
      </trkpt>
      <trkpt lat="2.865068" lon="-75.13747">
        <ele>1026.2</ele>
        <time>2021-08-21T12:27:54Z</time>
      </trkpt>
      <trkpt lat="2.865056" lon="-75.137474">
        <ele>1026.3</ele>
        <time>2021-08-21T12:27:55Z</time>
      </trkpt>
      <trkpt lat="2.865043" lon="-75.13748">
        <ele>1026.5</ele>
        <time>2021-08-21T12:27:56Z</time>
      </trkpt>
      <trkpt lat="2.865018" lon="-75.1375">
        <ele>1026.8</ele>
        <time>2021-08-21T12:27:58Z</time>
      </trkpt>
      <trkpt lat="2.865031" lon="-75.13749">
        <ele>1026.6</ele>
        <time>2021-08-21T12:27:58Z</time>
      </trkpt>
      <trkpt lat="2.865002" lon="-75.137505">
        <ele>1027.0</ele>
        <time>2021-08-21T12:27:59Z</time>
      </trkpt>
      <trkpt lat="2.864988" lon="-75.13751">
        <ele>1027.2</ele>
        <time>2021-08-21T12:28:00Z</time>
      </trkpt>
      <trkpt lat="2.864972" lon="-75.13752">
        <ele>1027.4</ele>
        <time>2021-08-21T12:28:01Z</time>
      </trkpt>
      <trkpt lat="2.864957" lon="-75.13753">
        <ele>1027.6</ele>
        <time>2021-08-21T12:28:02Z</time>
      </trkpt>
      <trkpt lat="2.864942" lon="-75.137535">
        <ele>1027.8</ele>
        <time>2021-08-21T12:28:03Z</time>
      </trkpt>
      <trkpt lat="2.864927" lon="-75.13754">
        <ele>1028.0</ele>
        <time>2021-08-21T12:28:04Z</time>
      </trkpt>
      <trkpt lat="2.864911" lon="-75.13755">
        <ele>1028.2</ele>
        <time>2021-08-21T12:28:05Z</time>
      </trkpt>
      <trkpt lat="2.864896" lon="-75.13756">
        <ele>1028.4</ele>
        <time>2021-08-21T12:28:06Z</time>
      </trkpt>
      <trkpt lat="2.864881" lon="-75.137566">
        <ele>1028.6</ele>
        <time>2021-08-21T12:28:07Z</time>
      </trkpt>
      <trkpt lat="2.864865" lon="-75.13757">
        <ele>1028.8</ele>
        <time>2021-08-21T12:28:08Z</time>
      </trkpt>
      <trkpt lat="2.864849" lon="-75.13758">
        <ele>1029.0</ele>
        <time>2021-08-21T12:28:09Z</time>
      </trkpt>
      <trkpt lat="2.864832" lon="-75.13759">
        <ele>1029.2</ele>
        <time>2021-08-21T12:28:10Z</time>
      </trkpt>
      <trkpt lat="2.864816" lon="-75.13759">
        <ele>1029.4</ele>
        <time>2021-08-21T12:28:11Z</time>
      </trkpt>
      <trkpt lat="2.864799" lon="-75.137596">
        <ele>1029.6</ele>
        <time>2021-08-21T12:28:12Z</time>
      </trkpt>
      <trkpt lat="2.864782" lon="-75.1376">
        <ele>1029.8</ele>
        <time>2021-08-21T12:28:13Z</time>
      </trkpt>
      <trkpt lat="2.864764" lon="-75.13761">
        <ele>1030.1</ele>
        <time>2021-08-21T12:28:14Z</time>
      </trkpt>
      <trkpt lat="2.864726" lon="-75.13763">
        <ele>1030.5</ele>
        <time>2021-08-21T12:28:16Z</time>
      </trkpt>
      <trkpt lat="2.864736" lon="-75.13763">
        <ele>1030.4</ele>
        <time>2021-08-21T12:28:16Z</time>
      </trkpt>
      <trkpt lat="2.864707" lon="-75.137634">
        <ele>1030.8</ele>
        <time>2021-08-21T12:28:17Z</time>
      </trkpt>
      <trkpt lat="2.864688" lon="-75.13764">
        <ele>1031.0</ele>
        <time>2021-08-21T12:28:18Z</time>
      </trkpt>
      <trkpt lat="2.864671" lon="-75.13765">
        <ele>1031.2</ele>
        <time>2021-08-21T12:28:19Z</time>
      </trkpt>
      <trkpt lat="2.864654" lon="-75.13766">
        <ele>1031.4</ele>
        <time>2021-08-21T12:28:20Z</time>
      </trkpt>
      <trkpt lat="2.864638" lon="-75.137665">
        <ele>1031.6</ele>
        <time>2021-08-21T12:28:21Z</time>
      </trkpt>
      <trkpt lat="2.864605" lon="-75.13767">
        <ele>1032.0</ele>
        <time>2021-08-21T12:28:23Z</time>
      </trkpt>
      <trkpt lat="2.864613" lon="-75.13767">
        <ele>1031.9</ele>
        <time>2021-08-21T12:28:23Z</time>
      </trkpt>
      <trkpt lat="2.864589" lon="-75.13768">
        <ele>1032.2</ele>
        <time>2021-08-21T12:28:24Z</time>
      </trkpt>
      <trkpt lat="2.864572" lon="-75.13769">
        <ele>1032.4</ele>
        <time>2021-08-21T12:28:25Z</time>
      </trkpt>
      <trkpt lat="2.864556" lon="-75.13769">
        <ele>1032.5</ele>
        <time>2021-08-21T12:28:26Z</time>
      </trkpt>
      <trkpt lat="2.864539" lon="-75.13769">
        <ele>1032.7</ele>
        <time>2021-08-21T12:28:27Z</time>
      </trkpt>
      <trkpt lat="2.864522" lon="-75.13769">
        <ele>1032.9</ele>
        <time>2021-08-21T12:28:28Z</time>
      </trkpt>
      <trkpt lat="2.864504" lon="-75.13769">
        <ele>1033.1</ele>
        <time>2021-08-21T12:28:29Z</time>
      </trkpt>
      <trkpt lat="2.864486" lon="-75.13769">
        <ele>1033.3</ele>
        <time>2021-08-21T12:28:30Z</time>
      </trkpt>
      <trkpt lat="2.864467" lon="-75.13769">
        <ele>1033.5</ele>
        <time>2021-08-21T12:28:31Z</time>
      </trkpt>
      <trkpt lat="2.864448" lon="-75.13769">
        <ele>1033.7</ele>
        <time>2021-08-21T12:28:32Z</time>
      </trkpt>
      <trkpt lat="2.864429" lon="-75.13768">
        <ele>1033.9</ele>
        <time>2021-08-21T12:28:33Z</time>
      </trkpt>
      <trkpt lat="2.864408" lon="-75.13767">
        <ele>1034.1</ele>
        <time>2021-08-21T12:28:34Z</time>
      </trkpt>
      <trkpt lat="2.864388" lon="-75.137665">
        <ele>1034.3</ele>
        <time>2021-08-21T12:28:35Z</time>
      </trkpt>
      <trkpt lat="2.864369" lon="-75.13766">
        <ele>1034.5</ele>
        <time>2021-08-21T12:28:36Z</time>
      </trkpt>
      <trkpt lat="2.864354" lon="-75.13765">
        <ele>1034.7</ele>
        <time>2021-08-21T12:28:37Z</time>
      </trkpt>
      <trkpt lat="2.864336" lon="-75.137634">
        <ele>1034.9</ele>
        <time>2021-08-21T12:28:38Z</time>
      </trkpt>
      <trkpt lat="2.864321" lon="-75.13763">
        <ele>1035.1</ele>
        <time>2021-08-21T12:28:39Z</time>
      </trkpt>
      <trkpt lat="2.864305" lon="-75.13761">
        <ele>1035.3</ele>
        <time>2021-08-21T12:28:40Z</time>
      </trkpt>
      <trkpt lat="2.86429" lon="-75.1376">
        <ele>1035.4</ele>
        <time>2021-08-21T12:28:41Z</time>
      </trkpt>
      <trkpt lat="2.864259" lon="-75.13758">
        <ele>1035.8</ele>
        <time>2021-08-21T12:28:43Z</time>
      </trkpt>
      <trkpt lat="2.864267" lon="-75.13759">
        <ele>1035.7</ele>
        <time>2021-08-21T12:28:43Z</time>
      </trkpt>
      <trkpt lat="2.864244" lon="-75.137566">
        <ele>1036.0</ele>
        <time>2021-08-21T12:28:44Z</time>
      </trkpt>
      <trkpt lat="2.864229" lon="-75.13755">
        <ele>1036.2</ele>
        <time>2021-08-21T12:28:45Z</time>
      </trkpt>
      <trkpt lat="2.864215" lon="-75.137535">
        <ele>1036.4</ele>
        <time>2021-08-21T12:28:46Z</time>
      </trkpt>
      <trkpt lat="2.864201" lon="-75.13753">
        <ele>1036.5</ele>
        <time>2021-08-21T12:28:47Z</time>
      </trkpt>
      <trkpt lat="2.864189" lon="-75.13751">
        <ele>1036.7</ele>
        <time>2021-08-21T12:28:48Z</time>
      </trkpt>
      <trkpt lat="2.864164" lon="-75.13748">
        <ele>1037.2</ele>
        <time>2021-08-21T12:28:50Z</time>
      </trkpt>
      <trkpt lat="2.864171" lon="-75.13749">
        <ele>1037.0</ele>
        <time>2021-08-21T12:28:50Z</time>
      </trkpt>
      <trkpt lat="2.864153" lon="-75.13746">
        <ele>1037.4</ele>
        <time>2021-08-21T12:28:51Z</time>
      </trkpt>
      <trkpt lat="2.864143" lon="-75.13744">
        <ele>1037.6</ele>
        <time>2021-08-21T12:28:52Z</time>
      </trkpt>
      <trkpt lat="2.864125" lon="-75.13741">
        <ele>1038.0</ele>
        <time>2021-08-21T12:28:53Z</time>
      </trkpt>
      <trkpt lat="2.864133" lon="-75.13743">
        <ele>1037.8</ele>
        <time>2021-08-21T12:28:53Z</time>
      </trkpt>
      <trkpt lat="2.86411" lon="-75.13738">
        <ele>1038.4</ele>
        <time>2021-08-21T12:28:55Z</time>
      </trkpt>
      <trkpt lat="2.864114" lon="-75.13739">
        <ele>1038.3</ele>
        <time>2021-08-21T12:28:55Z</time>
      </trkpt>
      <trkpt lat="2.864104" lon="-75.13736">
        <ele>1038.7</ele>
        <time>2021-08-21T12:28:56Z</time>
      </trkpt>
      <trkpt lat="2.864099" lon="-75.137344">
        <ele>1038.9</ele>
        <time>2021-08-21T12:28:57Z</time>
      </trkpt>
      <trkpt lat="2.864095" lon="-75.13733">
        <ele>1039.1</ele>
        <time>2021-08-21T12:28:58Z</time>
      </trkpt>
      <trkpt lat="2.86409" lon="-75.137314">
        <ele>1039.3</ele>
        <time>2021-08-21T12:28:59Z</time>
      </trkpt>
      <trkpt lat="2.86408" lon="-75.13728">
        <ele>1039.7</ele>
        <time>2021-08-21T12:29:00Z</time>
      </trkpt>
      <trkpt lat="2.864073" lon="-75.137276">
        <ele>1039.9</ele>
        <time>2021-08-21T12:29:01Z</time>
      </trkpt>
      <trkpt lat="2.864067" lon="-75.13726">
        <ele>1040.0</ele>
        <time>2021-08-21T12:29:02Z</time>
      </trkpt>
      <trkpt lat="2.86406" lon="-75.13725">
        <ele>1040.2</ele>
        <time>2021-08-21T12:29:03Z</time>
      </trkpt>
      <trkpt lat="2.864054" lon="-75.13724">
        <ele>1040.4</ele>
        <time>2021-08-21T12:29:04Z</time>
      </trkpt>
      <trkpt lat="2.864047" lon="-75.13723">
        <ele>1040.6</ele>
        <time>2021-08-21T12:29:05Z</time>
      </trkpt>
      <trkpt lat="2.864041" lon="-75.137215">
        <ele>1040.8</ele>
        <time>2021-08-21T12:29:06Z</time>
      </trkpt>
      <trkpt lat="2.864034" lon="-75.13721">
        <ele>1041.0</ele>
        <time>2021-08-21T12:29:07Z</time>
      </trkpt>
      <trkpt lat="2.864028" lon="-75.13719">
        <ele>1041.1</ele>
        <time>2021-08-21T12:29:08Z</time>
      </trkpt>
      <trkpt lat="2.864021" lon="-75.137184">
        <ele>1041.3</ele>
        <time>2021-08-21T12:29:09Z</time>
      </trkpt>
      <trkpt lat="2.864015" lon="-75.13717">
        <ele>1041.5</ele>
        <time>2021-08-21T12:29:10Z</time>
      </trkpt>
      <trkpt lat="2.864008" lon="-75.13716">
        <ele>1041.7</ele>
        <time>2021-08-21T12:29:11Z</time>
      </trkpt>
      <trkpt lat="2.863995" lon="-75.13714">
        <ele>1042.1</ele>
        <time>2021-08-21T12:29:13Z</time>
      </trkpt>
      <trkpt lat="2.864002" lon="-75.137146">
        <ele>1041.9</ele>
        <time>2021-08-21T12:29:13Z</time>
      </trkpt>
      <trkpt lat="2.863973" lon="-75.13712">
        <ele>1042.5</ele>
        <time>2021-08-21T12:29:14Z</time>
      </trkpt>
      <trkpt lat="2.863961" lon="-75.137115">
        <ele>1042.7</ele>
        <time>2021-08-21T12:29:15Z</time>
      </trkpt>
      <trkpt lat="2.86395" lon="-75.13711">
        <ele>1042.9</ele>
        <time>2021-08-21T12:29:16Z</time>
      </trkpt>
      <trkpt lat="2.863938" lon="-75.13711">
        <ele>1043.1</ele>
        <time>2021-08-21T12:29:17Z</time>
      </trkpt>
      <trkpt lat="2.863927" lon="-75.1371">
        <ele>1043.2</ele>
        <time>2021-08-21T12:29:18Z</time>
      </trkpt>
      <trkpt lat="2.863904" lon="-75.137085">
        <ele>1043.6</ele>
        <time>2021-08-21T12:29:20Z</time>
      </trkpt>
      <trkpt lat="2.863915" lon="-75.13709">
        <ele>1043.4</ele>
        <time>2021-08-21T12:29:20Z</time>
      </trkpt>
      <trkpt lat="2.863881" lon="-75.13708">
        <ele>1044.0</ele>
        <time>2021-08-21T12:29:21Z</time>
      </trkpt>
      <trkpt lat="2.863871" lon="-75.13707">
        <ele>1044.2</ele>
        <time>2021-08-21T12:29:22Z</time>
      </trkpt>
      <trkpt lat="2.86386" lon="-75.13706">
        <ele>1044.4</ele>
        <time>2021-08-21T12:29:23Z</time>
      </trkpt>
      <trkpt lat="2.86385" lon="-75.137054">
        <ele>1044.5</ele>
        <time>2021-08-21T12:29:24Z</time>
      </trkpt>
      <trkpt lat="2.86384" lon="-75.137054">
        <ele>1044.7</ele>
        <time>2021-08-21T12:29:25Z</time>
      </trkpt>
      <trkpt lat="2.86383" lon="-75.13705">
        <ele>1044.9</ele>
        <time>2021-08-21T12:29:26Z</time>
      </trkpt>
      <trkpt lat="2.86382" lon="-75.13704">
        <ele>1045.0</ele>
        <time>2021-08-21T12:29:27Z</time>
      </trkpt>
      <trkpt lat="2.863809" lon="-75.13703">
        <ele>1045.2</ele>
        <time>2021-08-21T12:29:28Z</time>
      </trkpt>
      <trkpt lat="2.863789" lon="-75.137024">
        <ele>1045.5</ele>
        <time>2021-08-21T12:29:30Z</time>
      </trkpt>
      <trkpt lat="2.863799" lon="-75.137024">
        <ele>1045.4</ele>
        <time>2021-08-21T12:29:30Z</time>
      </trkpt>
      <trkpt lat="2.863776" lon="-75.13702">
        <ele>1045.7</ele>
        <time>2021-08-21T12:29:31Z</time>
      </trkpt>
      <trkpt lat="2.863762" lon="-75.13701">
        <ele>1045.9</ele>
        <time>2021-08-21T12:29:32Z</time>
      </trkpt>
      <trkpt lat="2.863749" lon="-75.137">
        <ele>1046.1</ele>
        <time>2021-08-21T12:29:33Z</time>
      </trkpt>
      <trkpt lat="2.863735" lon="-75.13699">
        <ele>1046.3</ele>
        <time>2021-08-21T12:29:34Z</time>
      </trkpt>
      <trkpt lat="2.863721" lon="-75.136986">
        <ele>1046.6</ele>
        <time>2021-08-21T12:29:35Z</time>
      </trkpt>
      <trkpt lat="2.863707" lon="-75.13697">
        <ele>1046.8</ele>
        <time>2021-08-21T12:29:36Z</time>
      </trkpt>
      <trkpt lat="2.863693" lon="-75.13696">
        <ele>1047.0</ele>
        <time>2021-08-21T12:29:37Z</time>
      </trkpt>
      <trkpt lat="2.863679" lon="-75.13695">
        <ele>1047.3</ele>
        <time>2021-08-21T12:29:38Z</time>
      </trkpt>
      <trkpt lat="2.863654" lon="-75.13692">
        <ele>1047.7</ele>
        <time>2021-08-21T12:29:40Z</time>
      </trkpt>
      <trkpt lat="2.86366" lon="-75.136925">
        <ele>1047.6</ele>
        <time>2021-08-21T12:29:40Z</time>
      </trkpt>
      <trkpt lat="2.863643" lon="-75.1369">
        <ele>1047.9</ele>
        <time>2021-08-21T12:29:41Z</time>
      </trkpt>
      <trkpt lat="2.863633" lon="-75.13689">
        <ele>1048.1</ele>
        <time>2021-08-21T12:29:42Z</time>
      </trkpt>
      <trkpt lat="2.863624" lon="-75.13686">
        <ele>1048.3</ele>
        <time>2021-08-21T12:29:43Z</time>
      </trkpt>
      <trkpt lat="2.863617" lon="-75.13685">
        <ele>1048.5</ele>
        <time>2021-08-21T12:29:44Z</time>
      </trkpt>
      <trkpt lat="2.863611" lon="-75.136826">
        <ele>1048.7</ele>
        <time>2021-08-21T12:29:45Z</time>
      </trkpt>
      <trkpt lat="2.863604" lon="-75.13679">
        <ele>1049.0</ele>
        <time>2021-08-21T12:29:47Z</time>
      </trkpt>
      <trkpt lat="2.863606" lon="-75.136795">
        <ele>1048.9</ele>
        <time>2021-08-21T12:29:47Z</time>
      </trkpt>
      <trkpt lat="2.863605" lon="-75.136765">
        <ele>1049.2</ele>
        <time>2021-08-21T12:29:48Z</time>
      </trkpt>
      <trkpt lat="2.863607" lon="-75.13674">
        <ele>1049.3</ele>
        <time>2021-08-21T12:29:49Z</time>
      </trkpt>
      <trkpt lat="2.863611" lon="-75.13673">
        <ele>1049.5</ele>
        <time>2021-08-21T12:29:50Z</time>
      </trkpt>
      <trkpt lat="2.863617" lon="-75.1367">
        <ele>1049.7</ele>
        <time>2021-08-21T12:29:51Z</time>
      </trkpt>
      <trkpt lat="2.863626" lon="-75.13668">
        <ele>1049.8</ele>
        <time>2021-08-21T12:29:52Z</time>
      </trkpt>
      <trkpt lat="2.863637" lon="-75.13666">
        <ele>1050.0</ele>
        <time>2021-08-21T12:29:53Z</time>
      </trkpt>
      <trkpt lat="2.863651" lon="-75.136635">
        <ele>1050.2</ele>
        <time>2021-08-21T12:29:54Z</time>
      </trkpt>
      <trkpt lat="2.863665" lon="-75.136604">
        <ele>1050.3</ele>
        <time>2021-08-21T12:29:55Z</time>
      </trkpt>
      <trkpt lat="2.86368" lon="-75.13658">
        <ele>1050.5</ele>
        <time>2021-08-21T12:29:56Z</time>
      </trkpt>
      <trkpt lat="2.863695" lon="-75.13656">
        <ele>1050.6</ele>
        <time>2021-08-21T12:29:57Z</time>
      </trkpt>
      <trkpt lat="2.863712" lon="-75.136536">
        <ele>1050.8</ele>
        <time>2021-08-21T12:29:58Z</time>
      </trkpt>
      <trkpt lat="2.863736" lon="-75.136505">
        <ele>1051.0</ele>
        <time>2021-08-21T12:30:00Z</time>
      </trkpt>
      <trkpt lat="2.863743" lon="-75.1365">
        <ele>1051.1</ele>
        <time>2021-08-21T12:30:00Z</time>
      </trkpt>
      <trkpt lat="2.863756" lon="-75.136475">
        <ele>1051.2</ele>
        <time>2021-08-21T12:30:01Z</time>
      </trkpt>
      <trkpt lat="2.863768" lon="-75.13645">
        <ele>1051.3</ele>
        <time>2021-08-21T12:30:02Z</time>
      </trkpt>
      <trkpt lat="2.86378" lon="-75.13643">
        <ele>1051.5</ele>
        <time>2021-08-21T12:30:03Z</time>
      </trkpt>
      <trkpt lat="2.863791" lon="-75.136406">
        <ele>1051.6</ele>
        <time>2021-08-21T12:30:04Z</time>
      </trkpt>
      <trkpt lat="2.863803" lon="-75.13639">
        <ele>1051.7</ele>
        <time>2021-08-21T12:30:05Z</time>
      </trkpt>
      <trkpt lat="2.863816" lon="-75.13637">
        <ele>1051.9</ele>
        <time>2021-08-21T12:30:06Z</time>
      </trkpt>
      <trkpt lat="2.863829" lon="-75.136345">
        <ele>1052.0</ele>
        <time>2021-08-21T12:30:07Z</time>
      </trkpt>
      <trkpt lat="2.863842" lon="-75.13632">
        <ele>1052.1</ele>
        <time>2021-08-21T12:30:08Z</time>
      </trkpt>
      <trkpt lat="2.863855" lon="-75.1363">
        <ele>1052.3</ele>
        <time>2021-08-21T12:30:09Z</time>
      </trkpt>
      <trkpt lat="2.863867" lon="-75.13628">
        <ele>1052.4</ele>
        <time>2021-08-21T12:30:10Z</time>
      </trkpt>
      <trkpt lat="2.863881" lon="-75.13625">
        <ele>1052.5</ele>
        <time>2021-08-21T12:30:11Z</time>
      </trkpt>
      <trkpt lat="2.863895" lon="-75.13623">
        <ele>1052.7</ele>
        <time>2021-08-21T12:30:12Z</time>
      </trkpt>
      <trkpt lat="2.863909" lon="-75.136215">
        <ele>1052.8</ele>
        <time>2021-08-21T12:30:13Z</time>
      </trkpt>
      <trkpt lat="2.863925" lon="-75.13619">
        <ele>1053.0</ele>
        <time>2021-08-21T12:30:14Z</time>
      </trkpt>
      <trkpt lat="2.863943" lon="-75.13618">
        <ele>1053.1</ele>
        <time>2021-08-21T12:30:15Z</time>
      </trkpt>
      <trkpt lat="2.863961" lon="-75.136154">
        <ele>1053.3</ele>
        <time>2021-08-21T12:30:16Z</time>
      </trkpt>
      <trkpt lat="2.863993" lon="-75.13613">
        <ele>1053.5</ele>
        <time>2021-08-21T12:30:18Z</time>
      </trkpt>
      <trkpt lat="2.864004" lon="-75.13612">
        <ele>1053.6</ele>
        <time>2021-08-21T12:30:18Z</time>
      </trkpt>
      <trkpt lat="2.864028" lon="-75.13611">
        <ele>1053.7</ele>
        <time>2021-08-21T12:30:19Z</time>
      </trkpt>
      <trkpt lat="2.864053" lon="-75.1361">
        <ele>1053.9</ele>
        <time>2021-08-21T12:30:20Z</time>
      </trkpt>
      <trkpt lat="2.86408" lon="-75.136086">
        <ele>1054.0</ele>
        <time>2021-08-21T12:30:21Z</time>
      </trkpt>
      <trkpt lat="2.864107" lon="-75.13608">
        <ele>1054.2</ele>
        <time>2021-08-21T12:30:22Z</time>
      </trkpt>
      <trkpt lat="2.864134" lon="-75.13607">
        <ele>1054.4</ele>
        <time>2021-08-21T12:30:23Z</time>
      </trkpt>
      <trkpt lat="2.864176" lon="-75.13606">
        <ele>1054.6</ele>
        <time>2021-08-21T12:30:25Z</time>
      </trkpt>
      <trkpt lat="2.864189" lon="-75.136055">
        <ele>1054.7</ele>
        <time>2021-08-21T12:30:25Z</time>
      </trkpt>
      <trkpt lat="2.864216" lon="-75.13605">
        <ele>1054.8</ele>
        <time>2021-08-21T12:30:26Z</time>
      </trkpt>
      <trkpt lat="2.864243" lon="-75.13604">
        <ele>1055.0</ele>
        <time>2021-08-21T12:30:27Z</time>
      </trkpt>
      <trkpt lat="2.864268" lon="-75.13604">
        <ele>1055.2</ele>
        <time>2021-08-21T12:30:28Z</time>
      </trkpt>
      <trkpt lat="2.864294" lon="-75.136024">
        <ele>1055.3</ele>
        <time>2021-08-21T12:30:29Z</time>
      </trkpt>
      <trkpt lat="2.86432" lon="-75.136024">
        <ele>1055.5</ele>
        <time>2021-08-21T12:30:30Z</time>
      </trkpt>
      <trkpt lat="2.864345" lon="-75.13601">
        <ele>1055.6</ele>
        <time>2021-08-21T12:30:31Z</time>
      </trkpt>
      <trkpt lat="2.864368" lon="-75.13601">
        <ele>1055.8</ele>
        <time>2021-08-21T12:30:32Z</time>
      </trkpt>
      <trkpt lat="2.864392" lon="-75.136">
        <ele>1056.0</ele>
        <time>2021-08-21T12:30:33Z</time>
      </trkpt>
      <trkpt lat="2.864416" lon="-75.135994">
        <ele>1056.1</ele>
        <time>2021-08-21T12:30:34Z</time>
      </trkpt>
      <trkpt lat="2.86444" lon="-75.13598">
        <ele>1056.3</ele>
        <time>2021-08-21T12:30:35Z</time>
      </trkpt>
      <trkpt lat="2.864462" lon="-75.13597">
        <ele>1056.5</ele>
        <time>2021-08-21T12:30:36Z</time>
      </trkpt>
      <trkpt lat="2.864483" lon="-75.13596">
        <ele>1056.6</ele>
        <time>2021-08-21T12:30:37Z</time>
      </trkpt>
      <trkpt lat="2.864506" lon="-75.135956">
        <ele>1056.8</ele>
        <time>2021-08-21T12:30:38Z</time>
      </trkpt>
      <trkpt lat="2.864529" lon="-75.13594">
        <ele>1056.9</ele>
        <time>2021-08-21T12:30:39Z</time>
      </trkpt>
      <trkpt lat="2.864549" lon="-75.13593">
        <ele>1057.1</ele>
        <time>2021-08-21T12:30:40Z</time>
      </trkpt>
      <trkpt lat="2.864569" lon="-75.135925">
        <ele>1057.3</ele>
        <time>2021-08-21T12:30:41Z</time>
      </trkpt>
      <trkpt lat="2.864589" lon="-75.13591">
        <ele>1057.4</ele>
        <time>2021-08-21T12:30:42Z</time>
      </trkpt>
      <trkpt lat="2.864612" lon="-75.135895">
        <ele>1057.6</ele>
        <time>2021-08-21T12:30:43Z</time>
      </trkpt>
      <trkpt lat="2.864649" lon="-75.13588">
        <ele>1057.9</ele>
        <time>2021-08-21T12:30:45Z</time>
      </trkpt>
      <trkpt lat="2.864662" lon="-75.13588">
        <ele>1058.0</ele>
        <time>2021-08-21T12:30:45Z</time>
      </trkpt>
      <trkpt lat="2.864689" lon="-75.135864">
        <ele>1058.2</ele>
        <time>2021-08-21T12:30:46Z</time>
      </trkpt>
      <trkpt lat="2.864715" lon="-75.13586">
        <ele>1058.3</ele>
        <time>2021-08-21T12:30:47Z</time>
      </trkpt>
      <trkpt lat="2.864742" lon="-75.13585">
        <ele>1058.5</ele>
        <time>2021-08-21T12:30:48Z</time>
      </trkpt>
      <trkpt lat="2.864767" lon="-75.13584">
        <ele>1058.7</ele>
        <time>2021-08-21T12:30:49Z</time>
      </trkpt>
      <trkpt lat="2.864792" lon="-75.135826">
        <ele>1058.9</ele>
        <time>2021-08-21T12:30:50Z</time>
      </trkpt>
      <trkpt lat="2.864827" lon="-75.13581">
        <ele>1059.2</ele>
        <time>2021-08-21T12:30:52Z</time>
      </trkpt>
      <trkpt lat="2.864837" lon="-75.1358">
        <ele>1059.3</ele>
        <time>2021-08-21T12:30:52Z</time>
      </trkpt>
      <trkpt lat="2.864855" lon="-75.13578">
        <ele>1059.5</ele>
        <time>2021-08-21T12:30:53Z</time>
      </trkpt>
      <trkpt lat="2.864868" lon="-75.135765">
        <ele>1059.7</ele>
        <time>2021-08-21T12:30:54Z</time>
      </trkpt>
      <trkpt lat="2.864876" lon="-75.13575">
        <ele>1059.9</ele>
        <time>2021-08-21T12:30:55Z</time>
      </trkpt>
      <trkpt lat="2.864878" lon="-75.13573">
        <ele>1060.0</ele>
        <time>2021-08-21T12:30:56Z</time>
      </trkpt>
      <trkpt lat="2.864872" lon="-75.1357">
        <ele>1060.3</ele>
        <time>2021-08-21T12:30:58Z</time>
      </trkpt>
      <trkpt lat="2.864875" lon="-75.135704">
        <ele>1060.3</ele>
        <time>2021-08-21T12:30:58Z</time>
      </trkpt>
      <trkpt lat="2.864864" lon="-75.13568">
        <ele>1060.5</ele>
        <time>2021-08-21T12:30:59Z</time>
      </trkpt>
      <trkpt lat="2.864854" lon="-75.13567">
        <ele>1060.6</ele>
        <time>2021-08-21T12:31:00Z</time>
      </trkpt>
      <trkpt lat="2.864841" lon="-75.13566">
        <ele>1060.8</ele>
        <time>2021-08-21T12:31:01Z</time>
      </trkpt>
      <trkpt lat="2.864826" lon="-75.13565">
        <ele>1061.0</ele>
        <time>2021-08-21T12:31:02Z</time>
      </trkpt>
      <trkpt lat="2.864809" lon="-75.13564">
        <ele>1061.1</ele>
        <time>2021-08-21T12:31:03Z</time>
      </trkpt>
      <trkpt lat="2.864774" lon="-75.135635">
        <ele>1061.2</ele>
        <time>2021-08-21T12:31:05Z</time>
      </trkpt>
      <trkpt lat="2.864783" lon="-75.135635">
        <ele>1061.2</ele>
        <time>2021-08-21T12:31:05Z</time>
      </trkpt>
      <trkpt lat="2.864755" lon="-75.13563">
        <ele>1061.3</ele>
        <time>2021-08-21T12:31:06Z</time>
      </trkpt>
      <trkpt lat="2.864737" lon="-75.13562">
        <ele>1061.3</ele>
        <time>2021-08-21T12:31:07Z</time>
      </trkpt>
      <trkpt lat="2.864719" lon="-75.13562">
        <ele>1061.4</ele>
        <time>2021-08-21T12:31:08Z</time>
      </trkpt>
      <trkpt lat="2.864702" lon="-75.13561">
        <ele>1061.4</ele>
        <time>2021-08-21T12:31:09Z</time>
      </trkpt>
      <trkpt lat="2.864683" lon="-75.135605">
        <ele>1061.5</ele>
        <time>2021-08-21T12:31:10Z</time>
      </trkpt>
      <trkpt lat="2.864666" lon="-75.1356">
        <ele>1061.5</ele>
        <time>2021-08-21T12:31:11Z</time>
      </trkpt>
      <trkpt lat="2.864647" lon="-75.13559">
        <ele>1061.6</ele>
        <time>2021-08-21T12:31:12Z</time>
      </trkpt>
      <trkpt lat="2.864628" lon="-75.13558">
        <ele>1061.7</ele>
        <time>2021-08-21T12:31:13Z</time>
      </trkpt>
      <trkpt lat="2.864611" lon="-75.135574">
        <ele>1061.7</ele>
        <time>2021-08-21T12:31:14Z</time>
      </trkpt>
      <trkpt lat="2.864578" lon="-75.13556">
        <ele>1061.9</ele>
        <time>2021-08-21T12:31:16Z</time>
      </trkpt>
      <trkpt lat="2.864586" lon="-75.13557">
        <ele>1061.8</ele>
        <time>2021-08-21T12:31:16Z</time>
      </trkpt>
      <trkpt lat="2.864552" lon="-75.135544">
        <ele>1062.0</ele>
        <time>2021-08-21T12:31:17Z</time>
      </trkpt>
      <trkpt lat="2.864541" lon="-75.13554">
        <ele>1062.1</ele>
        <time>2021-08-21T12:31:18Z</time>
      </trkpt>
      <trkpt lat="2.86453" lon="-75.13553">
        <ele>1062.1</ele>
        <time>2021-08-21T12:31:19Z</time>
      </trkpt>
      <trkpt lat="2.864519" lon="-75.13552">
        <ele>1062.2</ele>
        <time>2021-08-21T12:31:20Z</time>
      </trkpt>
      <trkpt lat="2.864508" lon="-75.13551">
        <ele>1062.2</ele>
        <time>2021-08-21T12:31:21Z</time>
      </trkpt>
      <trkpt lat="2.864486" lon="-75.13549">
        <ele>1062.4</ele>
        <time>2021-08-21T12:31:23Z</time>
      </trkpt>
      <trkpt lat="2.864497" lon="-75.135506">
        <ele>1062.3</ele>
        <time>2021-08-21T12:31:23Z</time>
      </trkpt>
      <trkpt lat="2.864472" lon="-75.13548">
        <ele>1062.4</ele>
        <time>2021-08-21T12:31:24Z</time>
      </trkpt>
      <trkpt lat="2.864458" lon="-75.135475">
        <ele>1062.5</ele>
        <time>2021-08-21T12:31:25Z</time>
      </trkpt>
      <trkpt lat="2.864443" lon="-75.13546">
        <ele>1062.6</ele>
        <time>2021-08-21T12:31:26Z</time>
      </trkpt>
      <trkpt lat="2.864427" lon="-75.13545">
        <ele>1062.7</ele>
        <time>2021-08-21T12:31:27Z</time>
      </trkpt>
      <trkpt lat="2.864411" lon="-75.135445">
        <ele>1062.7</ele>
        <time>2021-08-21T12:31:28Z</time>
      </trkpt>
      <trkpt lat="2.864395" lon="-75.13543">
        <ele>1062.8</ele>
        <time>2021-08-21T12:31:29Z</time>
      </trkpt>
      <trkpt lat="2.864378" lon="-75.13542">
        <ele>1062.9</ele>
        <time>2021-08-21T12:31:30Z</time>
      </trkpt>
      <trkpt lat="2.864363" lon="-75.13541">
        <ele>1062.9</ele>
        <time>2021-08-21T12:31:31Z</time>
      </trkpt>
      <trkpt lat="2.864347" lon="-75.13539">
        <ele>1063.0</ele>
        <time>2021-08-21T12:31:32Z</time>
      </trkpt>
      <trkpt lat="2.864332" lon="-75.135376">
        <ele>1063.1</ele>
        <time>2021-08-21T12:31:33Z</time>
      </trkpt>
      <trkpt lat="2.864316" lon="-75.13536">
        <ele>1063.2</ele>
        <time>2021-08-21T12:31:34Z</time>
      </trkpt>
      <trkpt lat="2.864301" lon="-75.135345">
        <ele>1063.3</ele>
        <time>2021-08-21T12:31:35Z</time>
      </trkpt>
      <trkpt lat="2.864285" lon="-75.13533">
        <ele>1063.4</ele>
        <time>2021-08-21T12:31:36Z</time>
      </trkpt>
      <trkpt lat="2.86427" lon="-75.13532">
        <ele>1063.5</ele>
        <time>2021-08-21T12:31:37Z</time>
      </trkpt>
      <trkpt lat="2.864255" lon="-75.13531">
        <ele>1063.5</ele>
        <time>2021-08-21T12:31:38Z</time>
      </trkpt>
      <trkpt lat="2.864239" lon="-75.13529">
        <ele>1063.6</ele>
        <time>2021-08-21T12:31:39Z</time>
      </trkpt>
      <trkpt lat="2.864223" lon="-75.13528">
        <ele>1063.7</ele>
        <time>2021-08-21T12:31:40Z</time>
      </trkpt>
      <trkpt lat="2.864209" lon="-75.13526">
        <ele>1063.8</ele>
        <time>2021-08-21T12:31:41Z</time>
      </trkpt>
      <trkpt lat="2.864178" lon="-75.13524">
        <ele>1063.9</ele>
        <time>2021-08-21T12:31:43Z</time>
      </trkpt>
      <trkpt lat="2.864186" lon="-75.13525">
        <ele>1063.9</ele>
        <time>2021-08-21T12:31:43Z</time>
      </trkpt>
      <trkpt lat="2.864162" lon="-75.13522">
        <ele>1064.0</ele>
        <time>2021-08-21T12:31:44Z</time>
      </trkpt>
      <trkpt lat="2.864148" lon="-75.135216">
        <ele>1064.0</ele>
        <time>2021-08-21T12:31:45Z</time>
      </trkpt>
      <trkpt lat="2.864132" lon="-75.13521">
        <ele>1064.1</ele>
        <time>2021-08-21T12:31:46Z</time>
      </trkpt>
      <trkpt lat="2.864117" lon="-75.1352">
        <ele>1064.1</ele>
        <time>2021-08-21T12:31:47Z</time>
      </trkpt>
      <trkpt lat="2.864099" lon="-75.13519">
        <ele>1064.1</ele>
        <time>2021-08-21T12:31:48Z</time>
      </trkpt>
      <trkpt lat="2.864063" lon="-75.13519">
        <ele>1064.2</ele>
        <time>2021-08-21T12:31:50Z</time>
      </trkpt>
      <trkpt lat="2.864072" lon="-75.13519">
        <ele>1064.2</ele>
        <time>2021-08-21T12:31:50Z</time>
      </trkpt>
      <trkpt lat="2.864043" lon="-75.13519">
        <ele>1064.2</ele>
        <time>2021-08-21T12:31:51Z</time>
      </trkpt>
      <trkpt lat="2.864022" lon="-75.1352">
        <ele>1064.2</ele>
        <time>2021-08-21T12:31:52Z</time>
      </trkpt>
      <trkpt lat="2.864001" lon="-75.13521">
        <ele>1064.2</ele>
        <time>2021-08-21T12:31:53Z</time>
      </trkpt>
      <trkpt lat="2.863977" lon="-75.135216">
        <ele>1064.2</ele>
        <time>2021-08-21T12:31:54Z</time>
      </trkpt>
      <trkpt lat="2.863924" lon="-75.13522">
        <ele>1064.1</ele>
        <time>2021-08-21T12:31:56Z</time>
      </trkpt>
      <trkpt lat="2.863938" lon="-75.13522">
        <ele>1064.2</ele>
        <time>2021-08-21T12:31:56Z</time>
      </trkpt>
      <trkpt lat="2.863895" lon="-75.13523">
        <ele>1064.1</ele>
        <time>2021-08-21T12:31:57Z</time>
      </trkpt>
      <trkpt lat="2.863866" lon="-75.13524">
        <ele>1064.1</ele>
        <time>2021-08-21T12:31:58Z</time>
      </trkpt>
      <trkpt lat="2.863836" lon="-75.13525">
        <ele>1064.0</ele>
        <time>2021-08-21T12:31:59Z</time>
      </trkpt>
      <trkpt lat="2.863805" lon="-75.13525">
        <ele>1064.0</ele>
        <time>2021-08-21T12:32:00Z</time>
      </trkpt>
      <trkpt lat="2.863772" lon="-75.135254">
        <ele>1063.9</ele>
        <time>2021-08-21T12:32:01Z</time>
      </trkpt>
      <trkpt lat="2.863705" lon="-75.13525">
        <ele>1063.7</ele>
        <time>2021-08-21T12:32:03Z</time>
      </trkpt>
      <trkpt lat="2.863722" lon="-75.13525">
        <ele>1063.8</ele>
        <time>2021-08-21T12:32:03Z</time>
      </trkpt>
      <trkpt lat="2.863672" lon="-75.13524">
        <ele>1063.7</ele>
        <time>2021-08-21T12:32:04Z</time>
      </trkpt>
      <trkpt lat="2.86364" lon="-75.13523">
        <ele>1063.6</ele>
        <time>2021-08-21T12:32:05Z</time>
      </trkpt>
      <trkpt lat="2.86361" lon="-75.135216">
        <ele>1063.5</ele>
        <time>2021-08-21T12:32:06Z</time>
      </trkpt>
      <trkpt lat="2.863583" lon="-75.13519">
        <ele>1063.4</ele>
        <time>2021-08-21T12:32:07Z</time>
      </trkpt>
      <trkpt lat="2.863558" lon="-75.13517">
        <ele>1063.4</ele>
        <time>2021-08-21T12:32:08Z</time>
      </trkpt>
      <trkpt lat="2.863537" lon="-75.13515">
        <ele>1063.3</ele>
        <time>2021-08-21T12:32:09Z</time>
      </trkpt>
      <trkpt lat="2.86352" lon="-75.13512">
        <ele>1063.3</ele>
        <time>2021-08-21T12:32:10Z</time>
      </trkpt>
      <trkpt lat="2.863508" lon="-75.13509">
        <ele>1063.2</ele>
        <time>2021-08-21T12:32:11Z</time>
      </trkpt>
      <trkpt lat="2.8635" lon="-75.13506">
        <ele>1063.1</ele>
        <time>2021-08-21T12:32:12Z</time>
      </trkpt>
      <trkpt lat="2.863498" lon="-75.13503">
        <ele>1063.0</ele>
        <time>2021-08-21T12:32:14Z</time>
      </trkpt>
      <trkpt lat="2.863501" lon="-75.135">
        <ele>1062.9</ele>
        <time>2021-08-21T12:32:15Z</time>
      </trkpt>
      <trkpt lat="2.863509" lon="-75.13497">
        <ele>1062.8</ele>
        <time>2021-08-21T12:32:16Z</time>
      </trkpt>
      <trkpt lat="2.863521" lon="-75.13493">
        <ele>1062.7</ele>
        <time>2021-08-21T12:32:16Z</time>
      </trkpt>
      <trkpt lat="2.863536" lon="-75.13491">
        <ele>1062.5</ele>
        <time>2021-08-21T12:32:17Z</time>
      </trkpt>
      <trkpt lat="2.863555" lon="-75.13488">
        <ele>1062.4</ele>
        <time>2021-08-21T12:32:18Z</time>
      </trkpt>
      <trkpt lat="2.863579" lon="-75.13485">
        <ele>1062.2</ele>
        <time>2021-08-21T12:32:19Z</time>
      </trkpt>
      <trkpt lat="2.863606" lon="-75.13482">
        <ele>1062.1</ele>
        <time>2021-08-21T12:32:21Z</time>
      </trkpt>
      <trkpt lat="2.863634" lon="-75.13479">
        <ele>1061.9</ele>
        <time>2021-08-21T12:32:21Z</time>
      </trkpt>
      <trkpt lat="2.863662" lon="-75.13476">
        <ele>1061.7</ele>
        <time>2021-08-21T12:32:22Z</time>
      </trkpt>
      <trkpt lat="2.863687" lon="-75.13473">
        <ele>1061.5</ele>
        <time>2021-08-21T12:32:23Z</time>
      </trkpt>
      <trkpt lat="2.863711" lon="-75.13469">
        <ele>1061.4</ele>
        <time>2021-08-21T12:32:24Z</time>
      </trkpt>
      <trkpt lat="2.863731" lon="-75.13466">
        <ele>1061.2</ele>
        <time>2021-08-21T12:32:25Z</time>
      </trkpt>
      <trkpt lat="2.863748" lon="-75.13462">
        <ele>1061.1</ele>
        <time>2021-08-21T12:32:26Z</time>
      </trkpt>
      <trkpt lat="2.863759" lon="-75.13459">
        <ele>1060.9</ele>
        <time>2021-08-21T12:32:28Z</time>
      </trkpt>
      <trkpt lat="2.863767" lon="-75.13455">
        <ele>1060.8</ele>
        <time>2021-08-21T12:32:28Z</time>
      </trkpt>
      <trkpt lat="2.86377" lon="-75.13452">
        <ele>1060.7</ele>
        <time>2021-08-21T12:32:29Z</time>
      </trkpt>
      <trkpt lat="2.863769" lon="-75.13448">
        <ele>1060.5</ele>
        <time>2021-08-21T12:32:30Z</time>
      </trkpt>
      <trkpt lat="2.863763" lon="-75.13445">
        <ele>1060.4</ele>
        <time>2021-08-21T12:32:31Z</time>
      </trkpt>
      <trkpt lat="2.863753" lon="-75.13443">
        <ele>1060.3</ele>
        <time>2021-08-21T12:32:32Z</time>
      </trkpt>
      <trkpt lat="2.863738" lon="-75.13441">
        <ele>1060.2</ele>
        <time>2021-08-21T12:32:33Z</time>
      </trkpt>
      <trkpt lat="2.86372" lon="-75.13438">
        <ele>1060.1</ele>
        <time>2021-08-21T12:32:34Z</time>
      </trkpt>
      <trkpt lat="2.863699" lon="-75.13435">
        <ele>1060.0</ele>
        <time>2021-08-21T12:32:35Z</time>
      </trkpt>
      <trkpt lat="2.863677" lon="-75.13433">
        <ele>1059.9</ele>
        <time>2021-08-21T12:32:36Z</time>
      </trkpt>
      <trkpt lat="2.863654" lon="-75.13431">
        <ele>1059.8</ele>
        <time>2021-08-21T12:32:37Z</time>
      </trkpt>
      <trkpt lat="2.86363" lon="-75.134285">
        <ele>1059.6</ele>
        <time>2021-08-21T12:32:38Z</time>
      </trkpt>
      <trkpt lat="2.863606" lon="-75.13426">
        <ele>1059.5</ele>
        <time>2021-08-21T12:32:39Z</time>
      </trkpt>
      <trkpt lat="2.86356" lon="-75.13421">
        <ele>1059.3</ele>
        <time>2021-08-21T12:32:41Z</time>
      </trkpt>
      <trkpt lat="2.863572" lon="-75.13422">
        <ele>1059.3</ele>
        <time>2021-08-21T12:32:41Z</time>
      </trkpt>
      <trkpt lat="2.863536" lon="-75.13418">
        <ele>1059.1</ele>
        <time>2021-08-21T12:32:42Z</time>
      </trkpt>
      <trkpt lat="2.863511" lon="-75.13415">
        <ele>1059.0</ele>
        <time>2021-08-21T12:32:43Z</time>
      </trkpt>
      <trkpt lat="2.863487" lon="-75.13412">
        <ele>1058.9</ele>
        <time>2021-08-21T12:32:44Z</time>
      </trkpt>
      <trkpt lat="2.863465" lon="-75.13409">
        <ele>1058.8</ele>
        <time>2021-08-21T12:32:45Z</time>
      </trkpt>
      <trkpt lat="2.863444" lon="-75.134056">
        <ele>1058.6</ele>
        <time>2021-08-21T12:32:46Z</time>
      </trkpt>
      <trkpt lat="2.863409" lon="-75.13399">
        <ele>1058.4</ele>
        <time>2021-08-21T12:32:48Z</time>
      </trkpt>
      <trkpt lat="2.863425" lon="-75.13402">
        <ele>1058.5</ele>
        <time>2021-08-21T12:32:48Z</time>
      </trkpt>
      <trkpt lat="2.863395" lon="-75.13395">
        <ele>1058.3</ele>
        <time>2021-08-21T12:32:49Z</time>
      </trkpt>
      <trkpt lat="2.863385" lon="-75.13391">
        <ele>1058.1</ele>
        <time>2021-08-21T12:32:50Z</time>
      </trkpt>
      <trkpt lat="2.863378" lon="-75.13387">
        <ele>1058.0</ele>
        <time>2021-08-21T12:32:51Z</time>
      </trkpt>
      <trkpt lat="2.863372" lon="-75.133835">
        <ele>1057.9</ele>
        <time>2021-08-21T12:32:52Z</time>
      </trkpt>
      <trkpt lat="2.863369" lon="-75.1338">
        <ele>1057.8</ele>
        <time>2021-08-21T12:32:53Z</time>
      </trkpt>
      <trkpt lat="2.863369" lon="-75.13376">
        <ele>1057.7</ele>
        <time>2021-08-21T12:32:54Z</time>
      </trkpt>
      <trkpt lat="2.863371" lon="-75.13371">
        <ele>1057.6</ele>
        <time>2021-08-21T12:32:55Z</time>
      </trkpt>
      <trkpt lat="2.863375" lon="-75.133675">
        <ele>1057.5</ele>
        <time>2021-08-21T12:32:56Z</time>
      </trkpt>
      <trkpt lat="2.863379" lon="-75.13364">
        <ele>1057.4</ele>
        <time>2021-08-21T12:32:57Z</time>
      </trkpt>
      <trkpt lat="2.863384" lon="-75.1336">
        <ele>1057.2</ele>
        <time>2021-08-21T12:32:58Z</time>
      </trkpt>
      <trkpt lat="2.863389" lon="-75.13355">
        <ele>1057.1</ele>
        <time>2021-08-21T12:32:59Z</time>
      </trkpt>
      <trkpt lat="2.863394" lon="-75.13352">
        <ele>1057.0</ele>
        <time>2021-08-21T12:33:00Z</time>
      </trkpt>
      <trkpt lat="2.863399" lon="-75.133484">
        <ele>1056.9</ele>
        <time>2021-08-21T12:33:01Z</time>
      </trkpt>
      <trkpt lat="2.863403" lon="-75.133446">
        <ele>1056.8</ele>
        <time>2021-08-21T12:33:02Z</time>
      </trkpt>
      <trkpt lat="2.863406" lon="-75.13341">
        <ele>1056.7</ele>
        <time>2021-08-21T12:33:03Z</time>
      </trkpt>
      <trkpt lat="2.86341" lon="-75.13338">
        <ele>1056.6</ele>
        <time>2021-08-21T12:33:04Z</time>
      </trkpt>
      <trkpt lat="2.863415" lon="-75.13332">
        <ele>1056.3</ele>
        <time>2021-08-21T12:33:06Z</time>
      </trkpt>
      <trkpt lat="2.863416" lon="-75.1333">
        <ele>1056.2</ele>
        <time>2021-08-21T12:33:06Z</time>
      </trkpt>
      <trkpt lat="2.863416" lon="-75.13327">
        <ele>1056.1</ele>
        <time>2021-08-21T12:33:07Z</time>
      </trkpt>
      <trkpt lat="2.863414" lon="-75.1332">
        <ele>1055.7</ele>
        <time>2021-08-21T12:33:08Z</time>
      </trkpt>
      <trkpt lat="2.863416" lon="-75.13323">
        <ele>1055.9</ele>
        <time>2021-08-21T12:33:08Z</time>
      </trkpt>
      <trkpt lat="2.863409" lon="-75.13316">
        <ele>1055.5</ele>
        <time>2021-08-21T12:33:09Z</time>
      </trkpt>
      <trkpt lat="2.863403" lon="-75.133125">
        <ele>1055.3</ele>
        <time>2021-08-21T12:33:10Z</time>
      </trkpt>
      <trkpt lat="2.863395" lon="-75.13309">
        <ele>1055.1</ele>
        <time>2021-08-21T12:33:11Z</time>
      </trkpt>
      <trkpt lat="2.863384" lon="-75.13305">
        <ele>1054.9</ele>
        <time>2021-08-21T12:33:12Z</time>
      </trkpt>
      <trkpt lat="2.86337" lon="-75.13302">
        <ele>1054.7</ele>
        <time>2021-08-21T12:33:13Z</time>
      </trkpt>
      <trkpt lat="2.863352" lon="-75.13298">
        <ele>1054.5</ele>
        <time>2021-08-21T12:33:14Z</time>
      </trkpt>
      <trkpt lat="2.863333" lon="-75.13295">
        <ele>1054.3</ele>
        <time>2021-08-21T12:33:15Z</time>
      </trkpt>
      <trkpt lat="2.863309" lon="-75.13292">
        <ele>1054.1</ele>
        <time>2021-08-21T12:33:16Z</time>
      </trkpt>
      <trkpt lat="2.863287" lon="-75.13289">
        <ele>1053.9</ele>
        <time>2021-08-21T12:33:17Z</time>
      </trkpt>
      <trkpt lat="2.863263" lon="-75.13286">
        <ele>1053.6</ele>
        <time>2021-08-21T12:33:18Z</time>
      </trkpt>
      <trkpt lat="2.863238" lon="-75.13283">
        <ele>1053.4</ele>
        <time>2021-08-21T12:33:19Z</time>
      </trkpt>
      <trkpt lat="2.863213" lon="-75.1328">
        <ele>1053.2</ele>
        <time>2021-08-21T12:33:20Z</time>
      </trkpt>
      <trkpt lat="2.863186" lon="-75.132774">
        <ele>1053.0</ele>
        <time>2021-08-21T12:33:21Z</time>
      </trkpt>
      <trkpt lat="2.863159" lon="-75.13275">
        <ele>1052.8</ele>
        <time>2021-08-21T12:33:22Z</time>
      </trkpt>
      <trkpt lat="2.863127" lon="-75.13272">
        <ele>1052.5</ele>
        <time>2021-08-21T12:33:23Z</time>
      </trkpt>
      <trkpt lat="2.863094" lon="-75.1327">
        <ele>1052.3</ele>
        <time>2021-08-21T12:33:24Z</time>
      </trkpt>
      <trkpt lat="2.86306" lon="-75.132675">
        <ele>1052.0</ele>
        <time>2021-08-21T12:33:25Z</time>
      </trkpt>
      <trkpt lat="2.863023" lon="-75.13265">
        <ele>1051.7</ele>
        <time>2021-08-21T12:33:26Z</time>
      </trkpt>
      <trkpt lat="2.862986" lon="-75.13263">
        <ele>1051.5</ele>
        <time>2021-08-21T12:33:27Z</time>
      </trkpt>
      <trkpt lat="2.862948" lon="-75.132614">
        <ele>1051.2</ele>
        <time>2021-08-21T12:33:28Z</time>
      </trkpt>
      <trkpt lat="2.862878" lon="-75.13256">
        <ele>1050.6</ele>
        <time>2021-08-21T12:33:30Z</time>
      </trkpt>
      <trkpt lat="2.862912" lon="-75.13259">
        <ele>1050.9</ele>
        <time>2021-08-21T12:33:30Z</time>
      </trkpt>
      <trkpt lat="2.862848" lon="-75.13253">
        <ele>1050.3</ele>
        <time>2021-08-21T12:33:31Z</time>
      </trkpt>
      <trkpt lat="2.862824" lon="-75.13249">
        <ele>1050.0</ele>
        <time>2021-08-21T12:33:32Z</time>
      </trkpt>
      <trkpt lat="2.862806" lon="-75.13245">
        <ele>1049.7</ele>
        <time>2021-08-21T12:33:33Z</time>
      </trkpt>
      <trkpt lat="2.862795" lon="-75.13241">
        <ele>1049.4</ele>
        <time>2021-08-21T12:33:34Z</time>
      </trkpt>
      <trkpt lat="2.862787" lon="-75.13236">
        <ele>1049.0</ele>
        <time>2021-08-21T12:33:35Z</time>
      </trkpt>
      <trkpt lat="2.862782" lon="-75.13231">
        <ele>1048.7</ele>
        <time>2021-08-21T12:33:36Z</time>
      </trkpt>
      <trkpt lat="2.862779" lon="-75.13226">
        <ele>1048.4</ele>
        <time>2021-08-21T12:33:37Z</time>
      </trkpt>
      <trkpt lat="2.862779" lon="-75.13221">
        <ele>1048.0</ele>
        <time>2021-08-21T12:33:38Z</time>
      </trkpt>
      <trkpt lat="2.86278" lon="-75.13216">
        <ele>1047.7</ele>
        <time>2021-08-21T12:33:39Z</time>
      </trkpt>
      <trkpt lat="2.862783" lon="-75.13211">
        <ele>1047.4</ele>
        <time>2021-08-21T12:33:40Z</time>
      </trkpt>
      <trkpt lat="2.862789" lon="-75.13206">
        <ele>1047.1</ele>
        <time>2021-08-21T12:33:41Z</time>
      </trkpt>
      <trkpt lat="2.862798" lon="-75.13201">
        <ele>1046.8</ele>
        <time>2021-08-21T12:33:42Z</time>
      </trkpt>
      <trkpt lat="2.862805" lon="-75.13196">
        <ele>1046.5</ele>
        <time>2021-08-21T12:33:43Z</time>
      </trkpt>
      <trkpt lat="2.86281" lon="-75.131905">
        <ele>1046.1</ele>
        <time>2021-08-21T12:33:44Z</time>
      </trkpt>
      <trkpt lat="2.86281" lon="-75.13185">
        <ele>1045.8</ele>
        <time>2021-08-21T12:33:45Z</time>
      </trkpt>
      <trkpt lat="2.862804" lon="-75.131805">
        <ele>1045.5</ele>
        <time>2021-08-21T12:33:46Z</time>
      </trkpt>
      <trkpt lat="2.862788" lon="-75.13177">
        <ele>1045.2</ele>
        <time>2021-08-21T12:33:47Z</time>
      </trkpt>
      <trkpt lat="2.86276" lon="-75.13174">
        <ele>1044.9</ele>
        <time>2021-08-21T12:33:48Z</time>
      </trkpt>
      <trkpt lat="2.862667" lon="-75.1317">
        <ele>1044.0</ele>
        <time>2021-08-21T12:33:50Z</time>
      </trkpt>
      <trkpt lat="2.862717" lon="-75.131714">
        <ele>1044.5</ele>
        <time>2021-08-21T12:33:50Z</time>
      </trkpt>
      <trkpt lat="2.862612" lon="-75.13169">
        <ele>1043.5</ele>
        <time>2021-08-21T12:33:51Z</time>
      </trkpt>
      <trkpt lat="2.862556" lon="-75.13168">
        <ele>1043.1</ele>
        <time>2021-08-21T12:33:52Z</time>
      </trkpt>
      <trkpt lat="2.862498" lon="-75.131676">
        <ele>1042.7</ele>
        <time>2021-08-21T12:33:53Z</time>
      </trkpt>
      <trkpt lat="2.862442" lon="-75.13167">
        <ele>1042.3</ele>
        <time>2021-08-21T12:33:54Z</time>
      </trkpt>
      <trkpt lat="2.862348" lon="-75.13163">
        <ele>1041.6</ele>
        <time>2021-08-21T12:33:56Z</time>
      </trkpt>
      <trkpt lat="2.862391" lon="-75.13165">
        <ele>1041.9</ele>
        <time>2021-08-21T12:33:56Z</time>
      </trkpt>
      <trkpt lat="2.862312" lon="-75.13161">
        <ele>1041.3</ele>
        <time>2021-08-21T12:33:57Z</time>
      </trkpt>
      <trkpt lat="2.862286" lon="-75.13158">
        <ele>1041.0</ele>
        <time>2021-08-21T12:33:58Z</time>
      </trkpt>
      <trkpt lat="2.862267" lon="-75.13155">
        <ele>1040.8</ele>
        <time>2021-08-21T12:33:59Z</time>
      </trkpt>
      <trkpt lat="2.862254" lon="-75.13152">
        <ele>1040.6</ele>
        <time>2021-08-21T12:34:00Z</time>
      </trkpt>
      <trkpt lat="2.862246" lon="-75.1315">
        <ele>1040.4</ele>
        <time>2021-08-21T12:34:01Z</time>
      </trkpt>
      <trkpt lat="2.862242" lon="-75.13147">
        <ele>1040.1</ele>
        <time>2021-08-21T12:34:03Z</time>
      </trkpt>
      <trkpt lat="2.862243" lon="-75.13148">
        <ele>1040.2</ele>
        <time>2021-08-21T12:34:03Z</time>
      </trkpt>
      <trkpt lat="2.862246" lon="-75.131454">
        <ele>1040.0</ele>
        <time>2021-08-21T12:34:04Z</time>
      </trkpt>
      <trkpt lat="2.862249" lon="-75.13145">
        <ele>1039.9</ele>
        <time>2021-08-21T12:34:06Z</time>
      </trkpt>
      <trkpt lat="2.862253" lon="-75.13144">
        <ele>1039.9</ele>
        <time>2021-08-21T12:34:07Z</time>
      </trkpt>
      <trkpt lat="2.862256" lon="-75.13144">
        <ele>1039.8</ele>
        <time>2021-08-21T12:34:08Z</time>
      </trkpt>
      <trkpt lat="2.86226" lon="-75.13143">
        <ele>1039.8</ele>
        <time>2021-08-21T12:34:10Z</time>
      </trkpt>
      <trkpt lat="2.862263" lon="-75.131424">
        <ele>1039.7</ele>
        <time>2021-08-21T12:34:10Z</time>
      </trkpt>
      <trkpt lat="2.862273" lon="-75.13142">
        <ele>1039.6</ele>
        <time>2021-08-21T12:34:11Z</time>
      </trkpt>
      <trkpt lat="2.862283" lon="-75.1314">
        <ele>1039.4</ele>
        <time>2021-08-21T12:34:12Z</time>
      </trkpt>
      <trkpt lat="2.862296" lon="-75.131386">
        <ele>1039.2</ele>
        <time>2021-08-21T12:34:13Z</time>
      </trkpt>
      <trkpt lat="2.862313" lon="-75.13137">
        <ele>1039.0</ele>
        <time>2021-08-21T12:34:14Z</time>
      </trkpt>
      <trkpt lat="2.862334" lon="-75.131355">
        <ele>1038.8</ele>
        <time>2021-08-21T12:34:15Z</time>
      </trkpt>
      <trkpt lat="2.862359" lon="-75.13134">
        <ele>1038.5</ele>
        <time>2021-08-21T12:34:16Z</time>
      </trkpt>
      <trkpt lat="2.862388" lon="-75.131325">
        <ele>1038.2</ele>
        <time>2021-08-21T12:34:17Z</time>
      </trkpt>
      <trkpt lat="2.86242" lon="-75.13131">
        <ele>1037.8</ele>
        <time>2021-08-21T12:34:18Z</time>
      </trkpt>
      <trkpt lat="2.862455" lon="-75.13129">
        <ele>1037.4</ele>
        <time>2021-08-21T12:34:19Z</time>
      </trkpt>
      <trkpt lat="2.862492" lon="-75.13126">
        <ele>1036.9</ele>
        <time>2021-08-21T12:34:20Z</time>
      </trkpt>
      <trkpt lat="2.862532" lon="-75.13124">
        <ele>1036.5</ele>
        <time>2021-08-21T12:34:21Z</time>
      </trkpt>
      <trkpt lat="2.862573" lon="-75.13121">
        <ele>1036.0</ele>
        <time>2021-08-21T12:34:22Z</time>
      </trkpt>
      <trkpt lat="2.862618" lon="-75.13119">
        <ele>1035.5</ele>
        <time>2021-08-21T12:34:23Z</time>
      </trkpt>
      <trkpt lat="2.862666" lon="-75.13116">
        <ele>1035.0</ele>
        <time>2021-08-21T12:34:24Z</time>
      </trkpt>
      <trkpt lat="2.862716" lon="-75.13113">
        <ele>1034.4</ele>
        <time>2021-08-21T12:34:25Z</time>
      </trkpt>
      <trkpt lat="2.862769" lon="-75.131096">
        <ele>1033.8</ele>
        <time>2021-08-21T12:34:26Z</time>
      </trkpt>
      <trkpt lat="2.862823" lon="-75.131065">
        <ele>1033.2</ele>
        <time>2021-08-21T12:34:28Z</time>
      </trkpt>
      <trkpt lat="2.862879" lon="-75.131035">
        <ele>1032.6</ele>
        <time>2021-08-21T12:34:28Z</time>
      </trkpt>
      <trkpt lat="2.862936" lon="-75.13101">
        <ele>1032.0</ele>
        <time>2021-08-21T12:34:29Z</time>
      </trkpt>
      <trkpt lat="2.862993" lon="-75.13098">
        <ele>1031.4</ele>
        <time>2021-08-21T12:34:30Z</time>
      </trkpt>
      <trkpt lat="2.863047" lon="-75.13095">
        <ele>1030.9</ele>
        <time>2021-08-21T12:34:31Z</time>
      </trkpt>
      <trkpt lat="2.863095" lon="-75.13092">
        <ele>1030.4</ele>
        <time>2021-08-21T12:34:32Z</time>
      </trkpt>
      <trkpt lat="2.86314" lon="-75.13089">
        <ele>1030.0</ele>
        <time>2021-08-21T12:34:33Z</time>
      </trkpt>
      <trkpt lat="2.863179" lon="-75.13086">
        <ele>1029.6</ele>
        <time>2021-08-21T12:34:35Z</time>
      </trkpt>
      <trkpt lat="2.863214" lon="-75.13082">
        <ele>1029.3</ele>
        <time>2021-08-21T12:34:35Z</time>
      </trkpt>
      <trkpt lat="2.863244" lon="-75.13079">
        <ele>1029.0</ele>
        <time>2021-08-21T12:34:36Z</time>
      </trkpt>
      <trkpt lat="2.863271" lon="-75.130745">
        <ele>1028.7</ele>
        <time>2021-08-21T12:34:37Z</time>
      </trkpt>
      <trkpt lat="2.863292" lon="-75.13071">
        <ele>1028.4</ele>
        <time>2021-08-21T12:34:38Z</time>
      </trkpt>
      <trkpt lat="2.86331" lon="-75.13067">
        <ele>1028.2</ele>
        <time>2021-08-21T12:34:39Z</time>
      </trkpt>
      <trkpt lat="2.863319" lon="-75.13063">
        <ele>1028.0</ele>
        <time>2021-08-21T12:34:40Z</time>
      </trkpt>
      <trkpt lat="2.863319" lon="-75.1306">
        <ele>1027.8</ele>
        <time>2021-08-21T12:34:41Z</time>
      </trkpt>
      <trkpt lat="2.863309" lon="-75.13057">
        <ele>1027.6</ele>
        <time>2021-08-21T12:34:42Z</time>
      </trkpt>
      <trkpt lat="2.86329" lon="-75.13055">
        <ele>1027.4</ele>
        <time>2021-08-21T12:34:43Z</time>
      </trkpt>
      <trkpt lat="2.863264" lon="-75.13053">
        <ele>1027.2</ele>
        <time>2021-08-21T12:34:44Z</time>
      </trkpt>
      <trkpt lat="2.863231" lon="-75.13053">
        <ele>1027.0</ele>
        <time>2021-08-21T12:34:45Z</time>
      </trkpt>
      <trkpt lat="2.8632" lon="-75.13054">
        <ele>1026.8</ele>
        <time>2021-08-21T12:34:46Z</time>
      </trkpt>
      <trkpt lat="2.863169" lon="-75.13055">
        <ele>1026.6</ele>
        <time>2021-08-21T12:34:47Z</time>
      </trkpt>
      <trkpt lat="2.86314" lon="-75.130554">
        <ele>1026.4</ele>
        <time>2021-08-21T12:34:48Z</time>
      </trkpt>
      <trkpt lat="2.863113" lon="-75.13057">
        <ele>1026.2</ele>
        <time>2021-08-21T12:34:49Z</time>
      </trkpt>
      <trkpt lat="2.863084" lon="-75.130585">
        <ele>1026.0</ele>
        <time>2021-08-21T12:34:50Z</time>
      </trkpt>
      <trkpt lat="2.863056" lon="-75.13059">
        <ele>1025.8</ele>
        <time>2021-08-21T12:34:51Z</time>
      </trkpt>
      <trkpt lat="2.863027" lon="-75.13061">
        <ele>1025.6</ele>
        <time>2021-08-21T12:34:52Z</time>
      </trkpt>
      <trkpt lat="2.863" lon="-75.130615">
        <ele>1025.5</ele>
        <time>2021-08-21T12:34:53Z</time>
      </trkpt>
      <trkpt lat="2.862972" lon="-75.13063">
        <ele>1025.4</ele>
        <time>2021-08-21T12:34:54Z</time>
      </trkpt>
      <trkpt lat="2.862942" lon="-75.13064">
        <ele>1025.2</ele>
        <time>2021-08-21T12:34:55Z</time>
      </trkpt>
      <trkpt lat="2.86291" lon="-75.130646">
        <ele>1025.1</ele>
        <time>2021-08-21T12:34:56Z</time>
      </trkpt>
      <trkpt lat="2.862878" lon="-75.13065">
        <ele>1025.0</ele>
        <time>2021-08-21T12:34:57Z</time>
      </trkpt>
      <trkpt lat="2.862846" lon="-75.13066">
        <ele>1024.9</ele>
        <time>2021-08-21T12:34:58Z</time>
      </trkpt>
      <trkpt lat="2.862814" lon="-75.13066">
        <ele>1024.8</ele>
        <time>2021-08-21T12:34:59Z</time>
      </trkpt>
      <trkpt lat="2.862752" lon="-75.13068">
        <ele>1024.5</ele>
        <time>2021-08-21T12:35:01Z</time>
      </trkpt>
      <trkpt lat="2.862767" lon="-75.13067">
        <ele>1024.6</ele>
        <time>2021-08-21T12:35:01Z</time>
      </trkpt>
      <trkpt lat="2.862693" lon="-75.13069">
        <ele>1024.3</ele>
        <time>2021-08-21T12:35:03Z</time>
      </trkpt>
      <trkpt lat="2.862708" lon="-75.130684">
        <ele>1024.4</ele>
        <time>2021-08-21T12:35:03Z</time>
      </trkpt>
      <trkpt lat="2.862666" lon="-75.13069">
        <ele>1024.3</ele>
        <time>2021-08-21T12:35:04Z</time>
      </trkpt>
      <trkpt lat="2.862638" lon="-75.1307">
        <ele>1024.2</ele>
        <time>2021-08-21T12:35:05Z</time>
      </trkpt>
      <trkpt lat="2.86261" lon="-75.13071">
        <ele>1024.1</ele>
        <time>2021-08-21T12:35:06Z</time>
      </trkpt>
      <trkpt lat="2.86255" lon="-75.13072">
        <ele>1023.9</ele>
        <time>2021-08-21T12:35:08Z</time>
      </trkpt>
      <trkpt lat="2.862565" lon="-75.13072">
        <ele>1024.0</ele>
        <time>2021-08-21T12:35:08Z</time>
      </trkpt>
      <trkpt lat="2.862522" lon="-75.13073">
        <ele>1023.8</ele>
        <time>2021-08-21T12:35:09Z</time>
      </trkpt>
      <trkpt lat="2.862492" lon="-75.13074">
        <ele>1023.8</ele>
        <time>2021-08-21T12:35:10Z</time>
      </trkpt>
      <trkpt lat="2.862465" lon="-75.130745">
        <ele>1023.7</ele>
        <time>2021-08-21T12:35:11Z</time>
      </trkpt>
      <trkpt lat="2.86244" lon="-75.130745">
        <ele>1023.7</ele>
        <time>2021-08-21T12:35:12Z</time>
      </trkpt>
      <trkpt lat="2.862417" lon="-75.130745">
        <ele>1023.6</ele>
        <time>2021-08-21T12:35:13Z</time>
      </trkpt>
      <trkpt lat="2.862396" lon="-75.130745">
        <ele>1023.6</ele>
        <time>2021-08-21T12:35:14Z</time>
      </trkpt>
      <trkpt lat="2.862373" lon="-75.13075">
        <ele>1023.5</ele>
        <time>2021-08-21T12:35:15Z</time>
      </trkpt>
      <trkpt lat="2.862349" lon="-75.13075">
        <ele>1023.5</ele>
        <time>2021-08-21T12:35:16Z</time>
      </trkpt>
      <trkpt lat="2.862322" lon="-75.13076">
        <ele>1023.4</ele>
        <time>2021-08-21T12:35:17Z</time>
      </trkpt>
      <trkpt lat="2.862273" lon="-75.130775">
        <ele>1023.3</ele>
        <time>2021-08-21T12:35:19Z</time>
      </trkpt>
      <trkpt lat="2.862286" lon="-75.13077">
        <ele>1023.3</ele>
        <time>2021-08-21T12:35:19Z</time>
      </trkpt>
      <trkpt lat="2.862248" lon="-75.13078">
        <ele>1023.2</ele>
        <time>2021-08-21T12:35:20Z</time>
      </trkpt>
      <trkpt lat="2.862222" lon="-75.13079">
        <ele>1023.2</ele>
        <time>2021-08-21T12:35:21Z</time>
      </trkpt>
      <trkpt lat="2.862198" lon="-75.13079">
        <ele>1023.2</ele>
        <time>2021-08-21T12:35:22Z</time>
      </trkpt>
      <trkpt lat="2.862173" lon="-75.1308">
        <ele>1023.1</ele>
        <time>2021-08-21T12:35:23Z</time>
      </trkpt>
      <trkpt lat="2.862146" lon="-75.1308">
        <ele>1023.1</ele>
        <time>2021-08-21T12:35:24Z</time>
      </trkpt>
      <trkpt lat="2.862097" lon="-75.130806">
        <ele>1023.1</ele>
        <time>2021-08-21T12:35:26Z</time>
      </trkpt>
      <trkpt lat="2.86211" lon="-75.130806">
        <ele>1023.1</ele>
        <time>2021-08-21T12:35:26Z</time>
      </trkpt>
      <trkpt lat="2.862069" lon="-75.130806">
        <ele>1023.1</ele>
        <time>2021-08-21T12:35:27Z</time>
      </trkpt>
      <trkpt lat="2.862019" lon="-75.130806">
        <ele>1023.0</ele>
        <time>2021-08-21T12:35:29Z</time>
      </trkpt>
      <trkpt lat="2.862032" lon="-75.130806">
        <ele>1023.0</ele>
        <time>2021-08-21T12:35:29Z</time>
      </trkpt>
      <trkpt lat="2.861994" lon="-75.130806">
        <ele>1023.0</ele>
        <time>2021-08-21T12:35:30Z</time>
      </trkpt>
      <trkpt lat="2.861969" lon="-75.130806">
        <ele>1023.0</ele>
        <time>2021-08-21T12:35:31Z</time>
      </trkpt>
      <trkpt lat="2.861918" lon="-75.1308">
        <ele>1023.0</ele>
        <time>2021-08-21T12:35:33Z</time>
      </trkpt>
      <trkpt lat="2.861931" lon="-75.1308">
        <ele>1023.0</ele>
        <time>2021-08-21T12:35:33Z</time>
      </trkpt>
      <trkpt lat="2.861893" lon="-75.1308">
        <ele>1023.1</ele>
        <time>2021-08-21T12:35:34Z</time>
      </trkpt>
      <trkpt lat="2.861867" lon="-75.1308">
        <ele>1023.2</ele>
        <time>2021-08-21T12:35:35Z</time>
      </trkpt>
      <trkpt lat="2.861843" lon="-75.13079">
        <ele>1023.3</ele>
        <time>2021-08-21T12:35:36Z</time>
      </trkpt>
      <trkpt lat="2.861819" lon="-75.13078">
        <ele>1023.4</ele>
        <time>2021-08-21T12:35:37Z</time>
      </trkpt>
      <trkpt lat="2.861796" lon="-75.13078">
        <ele>1023.5</ele>
        <time>2021-08-21T12:35:38Z</time>
      </trkpt>
      <trkpt lat="2.861771" lon="-75.130775">
        <ele>1023.6</ele>
        <time>2021-08-21T12:35:39Z</time>
      </trkpt>
      <trkpt lat="2.861748" lon="-75.13077">
        <ele>1023.7</ele>
        <time>2021-08-21T12:35:40Z</time>
      </trkpt>
      <trkpt lat="2.861724" lon="-75.13077">
        <ele>1023.8</ele>
        <time>2021-08-21T12:35:41Z</time>
      </trkpt>
      <trkpt lat="2.8617" lon="-75.13076">
        <ele>1024.0</ele>
        <time>2021-08-21T12:35:42Z</time>
      </trkpt>
      <trkpt lat="2.861677" lon="-75.13075">
        <ele>1024.1</ele>
        <time>2021-08-21T12:35:43Z</time>
      </trkpt>
      <trkpt lat="2.861653" lon="-75.13075">
        <ele>1024.2</ele>
        <time>2021-08-21T12:35:44Z</time>
      </trkpt>
      <trkpt lat="2.861605" lon="-75.130745">
        <ele>1024.4</ele>
        <time>2021-08-21T12:35:46Z</time>
      </trkpt>
      <trkpt lat="2.861617" lon="-75.13075">
        <ele>1024.3</ele>
        <time>2021-08-21T12:35:46Z</time>
      </trkpt>
      <trkpt lat="2.861581" lon="-75.130745">
        <ele>1024.5</ele>
        <time>2021-08-21T12:35:47Z</time>
      </trkpt>
      <trkpt lat="2.861557" lon="-75.13074">
        <ele>1024.6</ele>
        <time>2021-08-21T12:35:48Z</time>
      </trkpt>
      <trkpt lat="2.861532" lon="-75.13074">
        <ele>1024.7</ele>
        <time>2021-08-21T12:35:49Z</time>
      </trkpt>
      <trkpt lat="2.861508" lon="-75.13073">
        <ele>1024.8</ele>
        <time>2021-08-21T12:35:50Z</time>
      </trkpt>
      <trkpt lat="2.861484" lon="-75.13072">
        <ele>1024.9</ele>
        <time>2021-08-21T12:35:51Z</time>
      </trkpt>
      <trkpt lat="2.861461" lon="-75.130714">
        <ele>1024.9</ele>
        <time>2021-08-21T12:35:52Z</time>
      </trkpt>
      <trkpt lat="2.861437" lon="-75.13071">
        <ele>1025.0</ele>
        <time>2021-08-21T12:35:53Z</time>
      </trkpt>
      <trkpt lat="2.861412" lon="-75.1307">
        <ele>1025.1</ele>
        <time>2021-08-21T12:35:54Z</time>
      </trkpt>
      <trkpt lat="2.861387" lon="-75.13069">
        <ele>1025.2</ele>
        <time>2021-08-21T12:35:55Z</time>
      </trkpt>
      <trkpt lat="2.861361" lon="-75.130684">
        <ele>1025.2</ele>
        <time>2021-08-21T12:35:56Z</time>
      </trkpt>
      <trkpt lat="2.861335" lon="-75.13067">
        <ele>1025.3</ele>
        <time>2021-08-21T12:35:57Z</time>
      </trkpt>
      <trkpt lat="2.861282" lon="-75.13065">
        <ele>1025.4</ele>
        <time>2021-08-21T12:35:59Z</time>
      </trkpt>
      <trkpt lat="2.861295" lon="-75.13066">
        <ele>1025.4</ele>
        <time>2021-08-21T12:35:59Z</time>
      </trkpt>
      <trkpt lat="2.861255" lon="-75.130646">
        <ele>1025.5</ele>
        <time>2021-08-21T12:36:00Z</time>
      </trkpt>
      <trkpt lat="2.861228" lon="-75.13064">
        <ele>1025.5</ele>
        <time>2021-08-21T12:36:01Z</time>
      </trkpt>
      <trkpt lat="2.8612" lon="-75.13063">
        <ele>1025.6</ele>
        <time>2021-08-21T12:36:02Z</time>
      </trkpt>
      <trkpt lat="2.861173" lon="-75.130615">
        <ele>1025.6</ele>
        <time>2021-08-21T12:36:03Z</time>
      </trkpt>
      <trkpt lat="2.861146" lon="-75.13061">
        <ele>1025.6</ele>
        <time>2021-08-21T12:36:04Z</time>
      </trkpt>
      <trkpt lat="2.861094" lon="-75.13059">
        <ele>1025.7</ele>
        <time>2021-08-21T12:36:06Z</time>
      </trkpt>
      <trkpt lat="2.861107" lon="-75.13059">
        <ele>1025.7</ele>
        <time>2021-08-21T12:36:06Z</time>
      </trkpt>
      <trkpt lat="2.861066" lon="-75.13058">
        <ele>1025.7</ele>
        <time>2021-08-21T12:36:07Z</time>
      </trkpt>
      <trkpt lat="2.861038" lon="-75.13057">
        <ele>1025.7</ele>
        <time>2021-08-21T12:36:08Z</time>
      </trkpt>
      <trkpt lat="2.861009" lon="-75.13056">
        <ele>1025.7</ele>
        <time>2021-08-21T12:36:09Z</time>
      </trkpt>
      <trkpt lat="2.86098" lon="-75.130554">
        <ele>1025.8</ele>
        <time>2021-08-21T12:36:10Z</time>
      </trkpt>
      <trkpt lat="2.860951" lon="-75.13055">
        <ele>1025.8</ele>
        <time>2021-08-21T12:36:11Z</time>
      </trkpt>
      <trkpt lat="2.860923" lon="-75.13054">
        <ele>1025.8</ele>
        <time>2021-08-21T12:36:12Z</time>
      </trkpt>
      <trkpt lat="2.860896" lon="-75.13054">
        <ele>1025.8</ele>
        <time>2021-08-21T12:36:13Z</time>
      </trkpt>
      <trkpt lat="2.860868" lon="-75.13053">
        <ele>1025.8</ele>
        <time>2021-08-21T12:36:14Z</time>
      </trkpt>
      <trkpt lat="2.86084" lon="-75.13053">
        <ele>1025.8</ele>
        <time>2021-08-21T12:36:15Z</time>
      </trkpt>
      <trkpt lat="2.860788" lon="-75.13052">
        <ele>1025.9</ele>
        <time>2021-08-21T12:36:17Z</time>
      </trkpt>
      <trkpt lat="2.860801" lon="-75.13052">
        <ele>1025.9</ele>
        <time>2021-08-21T12:36:17Z</time>
      </trkpt>
      <trkpt lat="2.860763" lon="-75.13052">
        <ele>1025.9</ele>
        <time>2021-08-21T12:36:18Z</time>
      </trkpt>
      <trkpt lat="2.860738" lon="-75.13052">
        <ele>1025.9</ele>
        <time>2021-08-21T12:36:19Z</time>
      </trkpt>
      <trkpt lat="2.860713" lon="-75.130516">
        <ele>1025.9</ele>
        <time>2021-08-21T12:36:20Z</time>
      </trkpt>
      <trkpt lat="2.860686" lon="-75.130516">
        <ele>1025.8</ele>
        <time>2021-08-21T12:36:21Z</time>
      </trkpt>
      <trkpt lat="2.860659" lon="-75.13051">
        <ele>1025.8</ele>
        <time>2021-08-21T12:36:22Z</time>
      </trkpt>
      <trkpt lat="2.860599" lon="-75.13051">
        <ele>1025.7</ele>
        <time>2021-08-21T12:36:24Z</time>
      </trkpt>
      <trkpt lat="2.860615" lon="-75.13051">
        <ele>1025.7</ele>
        <time>2021-08-21T12:36:24Z</time>
      </trkpt>
      <trkpt lat="2.860567" lon="-75.13051">
        <ele>1025.6</ele>
        <time>2021-08-21T12:36:25Z</time>
      </trkpt>
      <trkpt lat="2.860534" lon="-75.1305">
        <ele>1025.5</ele>
        <time>2021-08-21T12:36:26Z</time>
      </trkpt>
      <trkpt lat="2.860466" lon="-75.1305">
        <ele>1025.3</ele>
        <time>2021-08-21T12:36:28Z</time>
      </trkpt>
      <trkpt lat="2.860484" lon="-75.1305">
        <ele>1025.4</ele>
        <time>2021-08-21T12:36:28Z</time>
      </trkpt>
      <trkpt lat="2.860431" lon="-75.13049">
        <ele>1025.2</ele>
        <time>2021-08-21T12:36:29Z</time>
      </trkpt>
      <trkpt lat="2.860395" lon="-75.130486">
        <ele>1025.1</ele>
        <time>2021-08-21T12:36:30Z</time>
      </trkpt>
      <trkpt lat="2.86036" lon="-75.13047">
        <ele>1024.9</ele>
        <time>2021-08-21T12:36:31Z</time>
      </trkpt>
      <trkpt lat="2.860328" lon="-75.130455">
        <ele>1024.8</ele>
        <time>2021-08-21T12:36:32Z</time>
      </trkpt>
      <trkpt lat="2.860298" lon="-75.13043">
        <ele>1024.7</ele>
        <time>2021-08-21T12:36:33Z</time>
      </trkpt>
      <trkpt lat="2.860272" lon="-75.13041">
        <ele>1024.5</ele>
        <time>2021-08-21T12:36:34Z</time>
      </trkpt>
      <trkpt lat="2.860251" lon="-75.13037">
        <ele>1024.3</ele>
        <time>2021-08-21T12:36:35Z</time>
      </trkpt>
      <trkpt lat="2.860232" lon="-75.1303">
        <ele>1023.8</ele>
        <time>2021-08-21T12:36:37Z</time>
      </trkpt>
      <trkpt lat="2.860238" lon="-75.13034">
        <ele>1024.1</ele>
        <time>2021-08-21T12:36:37Z</time>
      </trkpt>
      <trkpt lat="2.860235" lon="-75.130264">
        <ele>1023.5</ele>
        <time>2021-08-21T12:36:38Z</time>
      </trkpt>
      <trkpt lat="2.860245" lon="-75.13022">
        <ele>1023.2</ele>
        <time>2021-08-21T12:36:39Z</time>
      </trkpt>
      <trkpt lat="2.860261" lon="-75.13018">
        <ele>1022.9</ele>
        <time>2021-08-21T12:36:40Z</time>
      </trkpt>
      <trkpt lat="2.860281" lon="-75.13014">
        <ele>1022.5</ele>
        <time>2021-08-21T12:36:41Z</time>
      </trkpt>
      <trkpt lat="2.860303" lon="-75.1301">
        <ele>1022.1</ele>
        <time>2021-08-21T12:36:42Z</time>
      </trkpt>
      <trkpt lat="2.860324" lon="-75.13005">
        <ele>1021.6</ele>
        <time>2021-08-21T12:36:44Z</time>
      </trkpt>
      <trkpt lat="2.860348" lon="-75.13">
        <ele>1021.1</ele>
        <time>2021-08-21T12:36:44Z</time>
      </trkpt>
      <trkpt lat="2.860375" lon="-75.12995">
        <ele>1020.7</ele>
        <time>2021-08-21T12:36:45Z</time>
      </trkpt>
      <trkpt lat="2.860404" lon="-75.129906">
        <ele>1020.2</ele>
        <time>2021-08-21T12:36:46Z</time>
      </trkpt>
      <trkpt lat="2.860435" lon="-75.12986">
        <ele>1019.7</ele>
        <time>2021-08-21T12:36:47Z</time>
      </trkpt>
      <trkpt lat="2.860467" lon="-75.129814">
        <ele>1019.3</ele>
        <time>2021-08-21T12:36:48Z</time>
      </trkpt>
      <trkpt lat="2.860498" lon="-75.12977">
        <ele>1018.8</ele>
        <time>2021-08-21T12:36:49Z</time>
      </trkpt>
      <trkpt lat="2.860531" lon="-75.129715">
        <ele>1018.3</ele>
        <time>2021-08-21T12:36:50Z</time>
      </trkpt>
      <trkpt lat="2.86056" lon="-75.12967">
        <ele>1017.8</ele>
        <time>2021-08-21T12:36:51Z</time>
      </trkpt>
      <trkpt lat="2.860587" lon="-75.12962">
        <ele>1017.3</ele>
        <time>2021-08-21T12:36:52Z</time>
      </trkpt>
      <trkpt lat="2.860612" lon="-75.12958">
        <ele>1016.8</ele>
        <time>2021-08-21T12:36:53Z</time>
      </trkpt>
      <trkpt lat="2.860636" lon="-75.129524">
        <ele>1016.3</ele>
        <time>2021-08-21T12:36:54Z</time>
      </trkpt>
      <trkpt lat="2.86066" lon="-75.12948">
        <ele>1015.8</ele>
        <time>2021-08-21T12:36:55Z</time>
      </trkpt>
      <trkpt lat="2.860684" lon="-75.129425">
        <ele>1015.3</ele>
        <time>2021-08-21T12:36:57Z</time>
      </trkpt>
      <trkpt lat="2.860704" lon="-75.12938">
        <ele>1014.8</ele>
        <time>2021-08-21T12:36:57Z</time>
      </trkpt>
      <trkpt lat="2.860723" lon="-75.12933">
        <ele>1014.4</ele>
        <time>2021-08-21T12:36:59Z</time>
      </trkpt>
      <trkpt lat="2.860745" lon="-75.12929">
        <ele>1014.0</ele>
        <time>2021-08-21T12:36:59Z</time>
      </trkpt>
      <trkpt lat="2.860765" lon="-75.129234">
        <ele>1013.7</ele>
        <time>2021-08-21T12:37:00Z</time>
      </trkpt>
      <trkpt lat="2.860781" lon="-75.12919">
        <ele>1013.4</ele>
        <time>2021-08-21T12:37:01Z</time>
      </trkpt>
      <trkpt lat="2.860795" lon="-75.12914">
        <ele>1013.1</ele>
        <time>2021-08-21T12:37:02Z</time>
      </trkpt>
      <trkpt lat="2.860807" lon="-75.12909">
        <ele>1012.9</ele>
        <time>2021-08-21T12:37:03Z</time>
      </trkpt>
      <trkpt lat="2.860814" lon="-75.12904">
        <ele>1012.7</ele>
        <time>2021-08-21T12:37:04Z</time>
      </trkpt>
      <trkpt lat="2.860812" lon="-75.129005">
        <ele>1012.6</ele>
        <time>2021-08-21T12:37:05Z</time>
      </trkpt>
      <trkpt lat="2.860799" lon="-75.12896">
        <ele>1012.4</ele>
        <time>2021-08-21T12:37:06Z</time>
      </trkpt>
      <trkpt lat="2.860779" lon="-75.12892">
        <ele>1012.4</ele>
        <time>2021-08-21T12:37:07Z</time>
      </trkpt>
      <trkpt lat="2.860753" lon="-75.12889">
        <ele>1012.3</ele>
        <time>2021-08-21T12:37:08Z</time>
      </trkpt>
      <trkpt lat="2.860697" lon="-75.12886">
        <ele>1012.3</ele>
        <time>2021-08-21T12:37:10Z</time>
      </trkpt>
      <trkpt lat="2.860711" lon="-75.12887">
        <ele>1012.3</ele>
        <time>2021-08-21T12:37:10Z</time>
      </trkpt>
      <trkpt lat="2.860673" lon="-75.12886">
        <ele>1012.3</ele>
        <time>2021-08-21T12:37:11Z</time>
      </trkpt>
      <trkpt lat="2.860655" lon="-75.12886">
        <ele>1012.3</ele>
        <time>2021-08-21T12:37:12Z</time>
      </trkpt>
      <trkpt lat="2.86063" lon="-75.12887">
        <ele>1012.3</ele>
        <time>2021-08-21T12:37:13Z</time>
      </trkpt>
      <trkpt lat="2.860611" lon="-75.128876">
        <ele>1012.4</ele>
        <time>2021-08-21T12:37:15Z</time>
      </trkpt>
      <trkpt lat="2.860621" lon="-75.12887">
        <ele>1012.4</ele>
        <time>2021-08-21T12:37:15Z</time>
      </trkpt>
      <trkpt lat="2.860583" lon="-75.1289">
        <ele>1012.4</ele>
        <time>2021-08-21T12:37:17Z</time>
      </trkpt>
      <trkpt lat="2.86059" lon="-75.12889">
        <ele>1012.4</ele>
        <time>2021-08-21T12:37:17Z</time>
      </trkpt>
      <trkpt lat="2.860571" lon="-75.12891">
        <ele>1012.4</ele>
        <time>2021-08-21T12:37:18Z</time>
      </trkpt>
      <trkpt lat="2.860559" lon="-75.12893">
        <ele>1012.5</ele>
        <time>2021-08-21T12:37:19Z</time>
      </trkpt>
      <trkpt lat="2.860546" lon="-75.128944">
        <ele>1012.5</ele>
        <time>2021-08-21T12:37:20Z</time>
      </trkpt>
      <trkpt lat="2.86052" lon="-75.12898">
        <ele>1012.7</ele>
        <time>2021-08-21T12:37:22Z</time>
      </trkpt>
      <trkpt lat="2.860527" lon="-75.128975">
        <ele>1012.6</ele>
        <time>2021-08-21T12:37:22Z</time>
      </trkpt>
      <trkpt lat="2.860486" lon="-75.12903">
        <ele>1012.8</ele>
        <time>2021-08-21T12:37:23Z</time>
      </trkpt>
      <trkpt lat="2.860502" lon="-75.129005">
        <ele>1012.8</ele>
        <time>2021-08-21T12:37:23Z</time>
      </trkpt>
      <trkpt lat="2.860469" lon="-75.12905">
        <ele>1012.9</ele>
        <time>2021-08-21T12:37:24Z</time>
      </trkpt>
      <trkpt lat="2.860453" lon="-75.12907">
        <ele>1013.0</ele>
        <time>2021-08-21T12:37:25Z</time>
      </trkpt>
      <trkpt lat="2.860436" lon="-75.12908">
        <ele>1013.1</ele>
        <time>2021-08-21T12:37:26Z</time>
      </trkpt>
      <trkpt lat="2.860418" lon="-75.129105">
        <ele>1013.2</ele>
        <time>2021-08-21T12:37:27Z</time>
      </trkpt>
      <trkpt lat="2.860399" lon="-75.12912">
        <ele>1013.3</ele>
        <time>2021-08-21T12:37:28Z</time>
      </trkpt>
      <trkpt lat="2.86038" lon="-75.129135">
        <ele>1013.4</ele>
        <time>2021-08-21T12:37:29Z</time>
      </trkpt>
      <trkpt lat="2.86036" lon="-75.12915">
        <ele>1013.5</ele>
        <time>2021-08-21T12:37:30Z</time>
      </trkpt>
      <trkpt lat="2.86034" lon="-75.129166">
        <ele>1013.6</ele>
        <time>2021-08-21T12:37:31Z</time>
      </trkpt>
      <trkpt lat="2.86032" lon="-75.12918">
        <ele>1013.7</ele>
        <time>2021-08-21T12:37:32Z</time>
      </trkpt>
      <trkpt lat="2.86028" lon="-75.12921">
        <ele>1013.9</ele>
        <time>2021-08-21T12:37:34Z</time>
      </trkpt>
      <trkpt lat="2.86029" lon="-75.1292">
        <ele>1013.8</ele>
        <time>2021-08-21T12:37:34Z</time>
      </trkpt>
      <trkpt lat="2.860259" lon="-75.12923">
        <ele>1013.9</ele>
        <time>2021-08-21T12:37:35Z</time>
      </trkpt>
      <trkpt lat="2.860238" lon="-75.12924">
        <ele>1014.0</ele>
        <time>2021-08-21T12:37:36Z</time>
      </trkpt>
      <trkpt lat="2.860217" lon="-75.12926">
        <ele>1014.1</ele>
        <time>2021-08-21T12:37:37Z</time>
      </trkpt>
      <trkpt lat="2.860197" lon="-75.129265">
        <ele>1014.2</ele>
        <time>2021-08-21T12:37:38Z</time>
      </trkpt>
      <trkpt lat="2.860177" lon="-75.12928">
        <ele>1014.3</ele>
        <time>2021-08-21T12:37:39Z</time>
      </trkpt>
      <trkpt lat="2.860139" lon="-75.1293">
        <ele>1014.4</ele>
        <time>2021-08-21T12:37:41Z</time>
      </trkpt>
      <trkpt lat="2.860149" lon="-75.129295">
        <ele>1014.4</ele>
        <time>2021-08-21T12:37:41Z</time>
      </trkpt>
      <trkpt lat="2.860118" lon="-75.12931">
        <ele>1014.5</ele>
        <time>2021-08-21T12:37:42Z</time>
      </trkpt>
      <trkpt lat="2.860096" lon="-75.12932">
        <ele>1014.5</ele>
        <time>2021-08-21T12:37:43Z</time>
      </trkpt>
      <trkpt lat="2.860072" lon="-75.12933">
        <ele>1014.6</ele>
        <time>2021-08-21T12:37:44Z</time>
      </trkpt>
      <trkpt lat="2.860047" lon="-75.12934">
        <ele>1014.7</ele>
        <time>2021-08-21T12:37:45Z</time>
      </trkpt>
      <trkpt lat="2.860022" lon="-75.12935">
        <ele>1014.7</ele>
        <time>2021-08-21T12:37:46Z</time>
      </trkpt>
      <trkpt lat="2.859997" lon="-75.12936">
        <ele>1014.8</ele>
        <time>2021-08-21T12:37:47Z</time>
      </trkpt>
      <trkpt lat="2.859969" lon="-75.129364">
        <ele>1014.9</ele>
        <time>2021-08-21T12:37:48Z</time>
      </trkpt>
      <trkpt lat="2.859941" lon="-75.12937">
        <ele>1014.9</ele>
        <time>2021-08-21T12:37:49Z</time>
      </trkpt>
      <trkpt lat="2.859911" lon="-75.12937">
        <ele>1015.0</ele>
        <time>2021-08-21T12:37:50Z</time>
      </trkpt>
      <trkpt lat="2.859881" lon="-75.12938">
        <ele>1015.0</ele>
        <time>2021-08-21T12:37:51Z</time>
      </trkpt>
      <trkpt lat="2.859851" lon="-75.12938">
        <ele>1015.0</ele>
        <time>2021-08-21T12:37:52Z</time>
      </trkpt>
      <trkpt lat="2.859822" lon="-75.12939">
        <ele>1015.1</ele>
        <time>2021-08-21T12:37:53Z</time>
      </trkpt>
      <trkpt lat="2.859793" lon="-75.12939">
        <ele>1015.1</ele>
        <time>2021-08-21T12:37:54Z</time>
      </trkpt>
      <trkpt lat="2.859763" lon="-75.12939">
        <ele>1015.1</ele>
        <time>2021-08-21T12:37:55Z</time>
      </trkpt>
      <trkpt lat="2.859735" lon="-75.12939">
        <ele>1015.1</ele>
        <time>2021-08-21T12:37:56Z</time>
      </trkpt>
      <trkpt lat="2.859705" lon="-75.12939">
        <ele>1015.0</ele>
        <time>2021-08-21T12:37:57Z</time>
      </trkpt>
      <trkpt lat="2.859674" lon="-75.12938">
        <ele>1015.0</ele>
        <time>2021-08-21T12:37:58Z</time>
      </trkpt>
      <trkpt lat="2.859641" lon="-75.12937">
        <ele>1015.0</ele>
        <time>2021-08-21T12:37:59Z</time>
      </trkpt>
      <trkpt lat="2.859609" lon="-75.12936">
        <ele>1015.0</ele>
        <time>2021-08-21T12:38:00Z</time>
      </trkpt>
      <trkpt lat="2.859579" lon="-75.12934">
        <ele>1014.9</ele>
        <time>2021-08-21T12:38:01Z</time>
      </trkpt>
      <trkpt lat="2.859552" lon="-75.12932">
        <ele>1014.9</ele>
        <time>2021-08-21T12:38:02Z</time>
      </trkpt>
      <trkpt lat="2.859531" lon="-75.129295">
        <ele>1014.9</ele>
        <time>2021-08-21T12:38:03Z</time>
      </trkpt>
      <trkpt lat="2.859515" lon="-75.129265">
        <ele>1014.8</ele>
        <time>2021-08-21T12:38:04Z</time>
      </trkpt>
      <trkpt lat="2.859504" lon="-75.129234">
        <ele>1014.8</ele>
        <time>2021-08-21T12:38:05Z</time>
      </trkpt>
      <trkpt lat="2.859492" lon="-75.12916">
        <ele>1014.7</ele>
        <time>2021-08-21T12:38:07Z</time>
      </trkpt>
      <trkpt lat="2.859494" lon="-75.12918">
        <ele>1014.7</ele>
        <time>2021-08-21T12:38:07Z</time>
      </trkpt>
      <trkpt lat="2.85949" lon="-75.12913">
        <ele>1014.7</ele>
        <time>2021-08-21T12:38:08Z</time>
      </trkpt>
      <trkpt lat="2.859489" lon="-75.12909">
        <ele>1014.6</ele>
        <time>2021-08-21T12:38:09Z</time>
      </trkpt>
      <trkpt lat="2.859488" lon="-75.12905">
        <ele>1014.6</ele>
        <time>2021-08-21T12:38:10Z</time>
      </trkpt>
      <trkpt lat="2.859487" lon="-75.128975">
        <ele>1014.5</ele>
        <time>2021-08-21T12:38:12Z</time>
      </trkpt>
      <trkpt lat="2.859489" lon="-75.12901">
        <ele>1014.5</ele>
        <time>2021-08-21T12:38:12Z</time>
      </trkpt>
      <trkpt lat="2.859485" lon="-75.12894">
        <ele>1014.4</ele>
        <time>2021-08-21T12:38:13Z</time>
      </trkpt>
      <trkpt lat="2.859481" lon="-75.12891">
        <ele>1014.4</ele>
        <time>2021-08-21T12:38:14Z</time>
      </trkpt>
      <trkpt lat="2.859477" lon="-75.12887">
        <ele>1014.4</ele>
        <time>2021-08-21T12:38:15Z</time>
      </trkpt>
      <trkpt lat="2.859472" lon="-75.12883">
        <ele>1014.4</ele>
        <time>2021-08-21T12:38:16Z</time>
      </trkpt>
      <trkpt lat="2.859462" lon="-75.12876">
        <ele>1014.5</ele>
        <time>2021-08-21T12:38:18Z</time>
      </trkpt>
      <trkpt lat="2.859467" lon="-75.1288">
        <ele>1014.5</ele>
        <time>2021-08-21T12:38:18Z</time>
      </trkpt>
      <trkpt lat="2.859456" lon="-75.12872">
        <ele>1014.5</ele>
        <time>2021-08-21T12:38:19Z</time>
      </trkpt>
      <trkpt lat="2.85945" lon="-75.128685">
        <ele>1014.6</ele>
        <time>2021-08-21T12:38:20Z</time>
      </trkpt>
      <trkpt lat="2.859437" lon="-75.12862">
        <ele>1014.8</ele>
        <time>2021-08-21T12:38:22Z</time>
      </trkpt>
      <trkpt lat="2.859444" lon="-75.128654">
        <ele>1014.7</ele>
        <time>2021-08-21T12:38:22Z</time>
      </trkpt>
      <trkpt lat="2.859428" lon="-75.128586">
        <ele>1014.9</ele>
        <time>2021-08-21T12:38:23Z</time>
      </trkpt>
      <trkpt lat="2.859405" lon="-75.12852">
        <ele>1015.1</ele>
        <time>2021-08-21T12:38:25Z</time>
      </trkpt>
      <trkpt lat="2.859412" lon="-75.12853">
        <ele>1015.0</ele>
        <time>2021-08-21T12:38:25Z</time>
      </trkpt>
      <trkpt lat="2.85939" lon="-75.12849">
        <ele>1015.2</ele>
        <time>2021-08-21T12:38:26Z</time>
      </trkpt>
      <trkpt lat="2.859372" lon="-75.12846">
        <ele>1015.4</ele>
        <time>2021-08-21T12:38:27Z</time>
      </trkpt>
      <trkpt lat="2.859351" lon="-75.12843">
        <ele>1015.5</ele>
        <time>2021-08-21T12:38:28Z</time>
      </trkpt>
      <trkpt lat="2.859329" lon="-75.12841">
        <ele>1015.7</ele>
        <time>2021-08-21T12:38:29Z</time>
      </trkpt>
      <trkpt lat="2.859307" lon="-75.12839">
        <ele>1015.8</ele>
        <time>2021-08-21T12:38:30Z</time>
      </trkpt>
      <trkpt lat="2.859262" lon="-75.12836">
        <ele>1016.1</ele>
        <time>2021-08-21T12:38:32Z</time>
      </trkpt>
      <trkpt lat="2.859273" lon="-75.128365">
        <ele>1016.0</ele>
        <time>2021-08-21T12:38:32Z</time>
      </trkpt>
      <trkpt lat="2.859241" lon="-75.128334">
        <ele>1016.2</ele>
        <time>2021-08-21T12:38:33Z</time>
      </trkpt>
      <trkpt lat="2.859221" lon="-75.12832">
        <ele>1016.4</ele>
        <time>2021-08-21T12:38:34Z</time>
      </trkpt>
      <trkpt lat="2.8592" lon="-75.128296">
        <ele>1016.5</ele>
        <time>2021-08-21T12:38:35Z</time>
      </trkpt>
      <trkpt lat="2.859181" lon="-75.12827">
        <ele>1016.7</ele>
        <time>2021-08-21T12:38:36Z</time>
      </trkpt>
      <trkpt lat="2.859161" lon="-75.12825">
        <ele>1016.9</ele>
        <time>2021-08-21T12:38:37Z</time>
      </trkpt>
      <trkpt lat="2.85914" lon="-75.12823">
        <ele>1017.0</ele>
        <time>2021-08-21T12:38:38Z</time>
      </trkpt>
      <trkpt lat="2.859119" lon="-75.128204">
        <ele>1017.2</ele>
        <time>2021-08-21T12:38:39Z</time>
      </trkpt>
      <trkpt lat="2.859098" lon="-75.12819">
        <ele>1017.3</ele>
        <time>2021-08-21T12:38:40Z</time>
      </trkpt>
      <trkpt lat="2.859076" lon="-75.12817">
        <ele>1017.5</ele>
        <time>2021-08-21T12:38:41Z</time>
      </trkpt>
      <trkpt lat="2.859055" lon="-75.12814">
        <ele>1017.7</ele>
        <time>2021-08-21T12:38:42Z</time>
      </trkpt>
      <trkpt lat="2.859033" lon="-75.12813">
        <ele>1017.8</ele>
        <time>2021-08-21T12:38:43Z</time>
      </trkpt>
      <trkpt lat="2.858992" lon="-75.12809">
        <ele>1018.2</ele>
        <time>2021-08-21T12:38:45Z</time>
      </trkpt>
      <trkpt lat="2.859002" lon="-75.1281">
        <ele>1018.1</ele>
        <time>2021-08-21T12:38:45Z</time>
      </trkpt>
      <trkpt lat="2.858972" lon="-75.12807">
        <ele>1018.3</ele>
        <time>2021-08-21T12:38:46Z</time>
      </trkpt>
      <trkpt lat="2.858954" lon="-75.12805">
        <ele>1018.5</ele>
        <time>2021-08-21T12:38:47Z</time>
      </trkpt>
      <trkpt lat="2.858937" lon="-75.12802">
        <ele>1018.7</ele>
        <time>2021-08-21T12:38:48Z</time>
      </trkpt>
      <trkpt lat="2.858922" lon="-75.128">
        <ele>1018.8</ele>
        <time>2021-08-21T12:38:49Z</time>
      </trkpt>
      <trkpt lat="2.858908" lon="-75.127975">
        <ele>1019.0</ele>
        <time>2021-08-21T12:38:50Z</time>
      </trkpt>
      <trkpt lat="2.858897" lon="-75.127945">
        <ele>1019.1</ele>
        <time>2021-08-21T12:38:51Z</time>
      </trkpt>
      <trkpt lat="2.858888" lon="-75.12792">
        <ele>1019.2</ele>
        <time>2021-08-21T12:38:52Z</time>
      </trkpt>
      <trkpt lat="2.858881" lon="-75.12789">
        <ele>1019.4</ele>
        <time>2021-08-21T12:38:53Z</time>
      </trkpt>
      <trkpt lat="2.858875" lon="-75.12787">
        <ele>1019.5</ele>
        <time>2021-08-21T12:38:54Z</time>
      </trkpt>
      <trkpt lat="2.858869" lon="-75.12784">
        <ele>1019.6</ele>
        <time>2021-08-21T12:38:55Z</time>
      </trkpt>
      <trkpt lat="2.858859" lon="-75.127785">
        <ele>1019.8</ele>
        <time>2021-08-21T12:38:57Z</time>
      </trkpt>
      <trkpt lat="2.858862" lon="-75.1278">
        <ele>1019.8</ele>
        <time>2021-08-21T12:38:57Z</time>
      </trkpt>
      <trkpt lat="2.858853" lon="-75.127754">
        <ele>1019.9</ele>
        <time>2021-08-21T12:38:58Z</time>
      </trkpt>
      <trkpt lat="2.858849" lon="-75.12773">
        <ele>1020.0</ele>
        <time>2021-08-21T12:38:59Z</time>
      </trkpt>
      <trkpt lat="2.858844" lon="-75.1277">
        <ele>1020.2</ele>
        <time>2021-08-21T12:39:00Z</time>
      </trkpt>
      <trkpt lat="2.85884" lon="-75.12767">
        <ele>1020.3</ele>
        <time>2021-08-21T12:39:01Z</time>
      </trkpt>
      <trkpt lat="2.858836" lon="-75.12765">
        <ele>1020.4</ele>
        <time>2021-08-21T12:39:02Z</time>
      </trkpt>
      <trkpt lat="2.858832" lon="-75.12762">
        <ele>1020.5</ele>
        <time>2021-08-21T12:39:03Z</time>
      </trkpt>
      <trkpt lat="2.858828" lon="-75.12759">
        <ele>1020.6</ele>
        <time>2021-08-21T12:39:04Z</time>
      </trkpt>
      <trkpt lat="2.858822" lon="-75.12756">
        <ele>1020.8</ele>
        <time>2021-08-21T12:39:05Z</time>
      </trkpt>
      <trkpt lat="2.858816" lon="-75.12753">
        <ele>1020.9</ele>
        <time>2021-08-21T12:39:06Z</time>
      </trkpt>
      <trkpt lat="2.85881" lon="-75.1275">
        <ele>1021.1</ele>
        <time>2021-08-21T12:39:07Z</time>
      </trkpt>
      <trkpt lat="2.858802" lon="-75.12748">
        <ele>1021.2</ele>
        <time>2021-08-21T12:39:08Z</time>
      </trkpt>
      <trkpt lat="2.858795" lon="-75.12746">
        <ele>1021.4</ele>
        <time>2021-08-21T12:39:09Z</time>
      </trkpt>
      <trkpt lat="2.858785" lon="-75.12743">
        <ele>1021.6</ele>
        <time>2021-08-21T12:39:10Z</time>
      </trkpt>
      <trkpt lat="2.858774" lon="-75.12741">
        <ele>1021.8</ele>
        <time>2021-08-21T12:39:11Z</time>
      </trkpt>
      <trkpt lat="2.858764" lon="-75.12739">
        <ele>1022.0</ele>
        <time>2021-08-21T12:39:12Z</time>
      </trkpt>
      <trkpt lat="2.858753" lon="-75.127365">
        <ele>1022.2</ele>
        <time>2021-08-21T12:39:13Z</time>
      </trkpt>
      <trkpt lat="2.858726" lon="-75.12733">
        <ele>1022.7</ele>
        <time>2021-08-21T12:39:15Z</time>
      </trkpt>
      <trkpt lat="2.858734" lon="-75.127335">
        <ele>1022.5</ele>
        <time>2021-08-21T12:39:15Z</time>
      </trkpt>
      <trkpt lat="2.858711" lon="-75.12731">
        <ele>1022.9</ele>
        <time>2021-08-21T12:39:16Z</time>
      </trkpt>
      <trkpt lat="2.858694" lon="-75.1273">
        <ele>1023.1</ele>
        <time>2021-08-21T12:39:17Z</time>
      </trkpt>
      <trkpt lat="2.858678" lon="-75.12728">
        <ele>1023.4</ele>
        <time>2021-08-21T12:39:18Z</time>
      </trkpt>
      <trkpt lat="2.858662" lon="-75.127266">
        <ele>1023.6</ele>
        <time>2021-08-21T12:39:19Z</time>
      </trkpt>
      <trkpt lat="2.858648" lon="-75.12725">
        <ele>1023.8</ele>
        <time>2021-08-21T12:39:20Z</time>
      </trkpt>
      <trkpt lat="2.858618" lon="-75.12723">
        <ele>1024.2</ele>
        <time>2021-08-21T12:39:22Z</time>
      </trkpt>
      <trkpt lat="2.858626" lon="-75.127235">
        <ele>1024.1</ele>
        <time>2021-08-21T12:39:22Z</time>
      </trkpt>
      <trkpt lat="2.858603" lon="-75.12722">
        <ele>1024.3</ele>
        <time>2021-08-21T12:39:23Z</time>
      </trkpt>
      <trkpt lat="2.858587" lon="-75.12721">
        <ele>1024.5</ele>
        <time>2021-08-21T12:39:24Z</time>
      </trkpt>
      <trkpt lat="2.858569" lon="-75.127205">
        <ele>1024.7</ele>
        <time>2021-08-21T12:39:25Z</time>
      </trkpt>
      <trkpt lat="2.858551" lon="-75.1272">
        <ele>1024.9</ele>
        <time>2021-08-21T12:39:26Z</time>
      </trkpt>
      <trkpt lat="2.858532" lon="-75.1272">
        <ele>1025.1</ele>
        <time>2021-08-21T12:39:27Z</time>
      </trkpt>
      <trkpt lat="2.858515" lon="-75.12719">
        <ele>1025.2</ele>
        <time>2021-08-21T12:39:28Z</time>
      </trkpt>
      <trkpt lat="2.858498" lon="-75.12719">
        <ele>1025.3</ele>
        <time>2021-08-21T12:39:29Z</time>
      </trkpt>
      <trkpt lat="2.858481" lon="-75.12718">
        <ele>1025.5</ele>
        <time>2021-08-21T12:39:30Z</time>
      </trkpt>
      <trkpt lat="2.858465" lon="-75.12718">
        <ele>1025.6</ele>
        <time>2021-08-21T12:39:31Z</time>
      </trkpt>
      <trkpt lat="2.858449" lon="-75.12718">
        <ele>1025.7</ele>
        <time>2021-08-21T12:39:32Z</time>
      </trkpt>
      <trkpt lat="2.858431" lon="-75.12718">
        <ele>1025.8</ele>
        <time>2021-08-21T12:39:33Z</time>
      </trkpt>
      <trkpt lat="2.858412" lon="-75.12718">
        <ele>1026.0</ele>
        <time>2021-08-21T12:39:34Z</time>
      </trkpt>
      <trkpt lat="2.858394" lon="-75.12718">
        <ele>1026.1</ele>
        <time>2021-08-21T12:39:35Z</time>
      </trkpt>
      <trkpt lat="2.858375" lon="-75.12718">
        <ele>1026.2</ele>
        <time>2021-08-21T12:39:36Z</time>
      </trkpt>
      <trkpt lat="2.858355" lon="-75.12718">
        <ele>1026.3</ele>
        <time>2021-08-21T12:39:37Z</time>
      </trkpt>
      <trkpt lat="2.858334" lon="-75.12719">
        <ele>1026.4</ele>
        <time>2021-08-21T12:39:38Z</time>
      </trkpt>
      <trkpt lat="2.858314" lon="-75.1272">
        <ele>1026.5</ele>
        <time>2021-08-21T12:39:39Z</time>
      </trkpt>
      <trkpt lat="2.858291" lon="-75.12721">
        <ele>1026.6</ele>
        <time>2021-08-21T12:39:40Z</time>
      </trkpt>
      <trkpt lat="2.858251" lon="-75.127235">
        <ele>1026.8</ele>
        <time>2021-08-21T12:39:42Z</time>
      </trkpt>
      <trkpt lat="2.858261" lon="-75.12723">
        <ele>1026.8</ele>
        <time>2021-08-21T12:39:42Z</time>
      </trkpt>
      <trkpt lat="2.858231" lon="-75.12725">
        <ele>1026.9</ele>
        <time>2021-08-21T12:39:43Z</time>
      </trkpt>
      <trkpt lat="2.858213" lon="-75.12726">
        <ele>1027.0</ele>
        <time>2021-08-21T12:39:44Z</time>
      </trkpt>
      <trkpt lat="2.858194" lon="-75.12727">
        <ele>1027.1</ele>
        <time>2021-08-21T12:39:45Z</time>
      </trkpt>
      <trkpt lat="2.858176" lon="-75.12729">
        <ele>1027.1</ele>
        <time>2021-08-21T12:39:46Z</time>
      </trkpt>
      <trkpt lat="2.858158" lon="-75.127304">
        <ele>1027.2</ele>
        <time>2021-08-21T12:39:47Z</time>
      </trkpt>
      <trkpt lat="2.858121" lon="-75.127335">
        <ele>1027.4</ele>
        <time>2021-08-21T12:39:49Z</time>
      </trkpt>
      <trkpt lat="2.85813" lon="-75.12733">
        <ele>1027.3</ele>
        <time>2021-08-21T12:39:49Z</time>
      </trkpt>
      <trkpt lat="2.858102" lon="-75.12734">
        <ele>1027.5</ele>
        <time>2021-08-21T12:39:50Z</time>
      </trkpt>
      <trkpt lat="2.858084" lon="-75.12736">
        <ele>1027.5</ele>
        <time>2021-08-21T12:39:51Z</time>
      </trkpt>
      <trkpt lat="2.858066" lon="-75.12737">
        <ele>1027.6</ele>
        <time>2021-08-21T12:39:52Z</time>
      </trkpt>
      <trkpt lat="2.858048" lon="-75.12738">
        <ele>1027.7</ele>
        <time>2021-08-21T12:39:53Z</time>
      </trkpt>
      <trkpt lat="2.858009" lon="-75.127396">
        <ele>1027.8</ele>
        <time>2021-08-21T12:39:55Z</time>
      </trkpt>
      <trkpt lat="2.858019" lon="-75.127396">
        <ele>1027.8</ele>
        <time>2021-08-21T12:39:55Z</time>
      </trkpt>
      <trkpt lat="2.857987" lon="-75.1274">
        <ele>1027.9</ele>
        <time>2021-08-21T12:39:56Z</time>
      </trkpt>
      <trkpt lat="2.857965" lon="-75.1274">
        <ele>1027.9</ele>
        <time>2021-08-21T12:39:57Z</time>
      </trkpt>
      <trkpt lat="2.857943" lon="-75.1274">
        <ele>1028.0</ele>
        <time>2021-08-21T12:39:58Z</time>
      </trkpt>
      <trkpt lat="2.857922" lon="-75.127396">
        <ele>1028.1</ele>
        <time>2021-08-21T12:39:59Z</time>
      </trkpt>
      <trkpt lat="2.857901" lon="-75.12739">
        <ele>1028.1</ele>
        <time>2021-08-21T12:40:00Z</time>
      </trkpt>
      <trkpt lat="2.857882" lon="-75.12737">
        <ele>1028.2</ele>
        <time>2021-08-21T12:40:01Z</time>
      </trkpt>
      <trkpt lat="2.857865" lon="-75.127365">
        <ele>1028.2</ele>
        <time>2021-08-21T12:40:02Z</time>
      </trkpt>
      <trkpt lat="2.857849" lon="-75.12734">
        <ele>1028.3</ele>
        <time>2021-08-21T12:40:03Z</time>
      </trkpt>
      <trkpt lat="2.857836" lon="-75.12733">
        <ele>1028.3</ele>
        <time>2021-08-21T12:40:04Z</time>
      </trkpt>
      <trkpt lat="2.857825" lon="-75.127304">
        <ele>1028.4</ele>
        <time>2021-08-21T12:40:05Z</time>
      </trkpt>
      <trkpt lat="2.857815" lon="-75.12728">
        <ele>1028.4</ele>
        <time>2021-08-21T12:40:06Z</time>
      </trkpt>
      <trkpt lat="2.857806" lon="-75.12726">
        <ele>1028.5</ele>
        <time>2021-08-21T12:40:07Z</time>
      </trkpt>
      <trkpt lat="2.857797" lon="-75.12724">
        <ele>1028.6</ele>
        <time>2021-08-21T12:40:08Z</time>
      </trkpt>
      <trkpt lat="2.857787" lon="-75.12722">
        <ele>1028.6</ele>
        <time>2021-08-21T12:40:09Z</time>
      </trkpt>
      <trkpt lat="2.857777" lon="-75.1272">
        <ele>1028.7</ele>
        <time>2021-08-21T12:40:10Z</time>
      </trkpt>
      <trkpt lat="2.857765" lon="-75.127174">
        <ele>1028.7</ele>
        <time>2021-08-21T12:40:11Z</time>
      </trkpt>
      <trkpt lat="2.857736" lon="-75.12714">
        <ele>1028.9</ele>
        <time>2021-08-21T12:40:13Z</time>
      </trkpt>
      <trkpt lat="2.857744" lon="-75.12715">
        <ele>1028.8</ele>
        <time>2021-08-21T12:40:13Z</time>
      </trkpt>
      <trkpt lat="2.85772" lon="-75.12712">
        <ele>1028.9</ele>
        <time>2021-08-21T12:40:14Z</time>
      </trkpt>
      <trkpt lat="2.857703" lon="-75.127106">
        <ele>1029.0</ele>
        <time>2021-08-21T12:40:15Z</time>
      </trkpt>
      <trkpt lat="2.857684" lon="-75.12709">
        <ele>1029.1</ele>
        <time>2021-08-21T12:40:16Z</time>
      </trkpt>
      <trkpt lat="2.857663" lon="-75.127075">
        <ele>1029.2</ele>
        <time>2021-08-21T12:40:17Z</time>
      </trkpt>
      <trkpt lat="2.857642" lon="-75.12707">
        <ele>1029.2</ele>
        <time>2021-08-21T12:40:18Z</time>
      </trkpt>
      <trkpt lat="2.857599" lon="-75.12705">
        <ele>1029.4</ele>
        <time>2021-08-21T12:40:20Z</time>
      </trkpt>
      <trkpt lat="2.85761" lon="-75.12705">
        <ele>1029.3</ele>
        <time>2021-08-21T12:40:20Z</time>
      </trkpt>
      <trkpt lat="2.857577" lon="-75.127045">
        <ele>1029.5</ele>
        <time>2021-08-21T12:40:21Z</time>
      </trkpt>
      <trkpt lat="2.857555" lon="-75.12703">
        <ele>1029.5</ele>
        <time>2021-08-21T12:40:22Z</time>
      </trkpt>
      <trkpt lat="2.857535" lon="-75.12702">
        <ele>1029.6</ele>
        <time>2021-08-21T12:40:23Z</time>
      </trkpt>
      <trkpt lat="2.857513" lon="-75.12701">
        <ele>1029.7</ele>
        <time>2021-08-21T12:40:24Z</time>
      </trkpt>
      <trkpt lat="2.857491" lon="-75.12699">
        <ele>1029.8</ele>
        <time>2021-08-21T12:40:25Z</time>
      </trkpt>
      <trkpt lat="2.857468" lon="-75.12698">
        <ele>1029.9</ele>
        <time>2021-08-21T12:40:26Z</time>
      </trkpt>
      <trkpt lat="2.857446" lon="-75.12697">
        <ele>1030.0</ele>
        <time>2021-08-21T12:40:27Z</time>
      </trkpt>
      <trkpt lat="2.857424" lon="-75.12695">
        <ele>1030.1</ele>
        <time>2021-08-21T12:40:28Z</time>
      </trkpt>
      <trkpt lat="2.857402" lon="-75.12694">
        <ele>1030.2</ele>
        <time>2021-08-21T12:40:29Z</time>
      </trkpt>
      <trkpt lat="2.857381" lon="-75.12692">
        <ele>1030.3</ele>
        <time>2021-08-21T12:40:30Z</time>
      </trkpt>
      <trkpt lat="2.857362" lon="-75.1269">
        <ele>1030.4</ele>
        <time>2021-08-21T12:40:31Z</time>
      </trkpt>
      <trkpt lat="2.857343" lon="-75.126884">
        <ele>1030.5</ele>
        <time>2021-08-21T12:40:32Z</time>
      </trkpt>
      <trkpt lat="2.857323" lon="-75.12687">
        <ele>1030.6</ele>
        <time>2021-08-21T12:40:33Z</time>
      </trkpt>
      <trkpt lat="2.857303" lon="-75.126854">
        <ele>1030.7</ele>
        <time>2021-08-21T12:40:34Z</time>
      </trkpt>
      <trkpt lat="2.857283" lon="-75.12684">
        <ele>1030.8</ele>
        <time>2021-08-21T12:40:35Z</time>
      </trkpt>
      <trkpt lat="2.857263" lon="-75.12683">
        <ele>1030.9</ele>
        <time>2021-08-21T12:40:36Z</time>
      </trkpt>
      <trkpt lat="2.85724" lon="-75.12682">
        <ele>1031.0</ele>
        <time>2021-08-21T12:40:37Z</time>
      </trkpt>
      <trkpt lat="2.857217" lon="-75.126816">
        <ele>1031.1</ele>
        <time>2021-08-21T12:40:38Z</time>
      </trkpt>
      <trkpt lat="2.857168" lon="-75.12681">
        <ele>1031.3</ele>
        <time>2021-08-21T12:40:40Z</time>
      </trkpt>
      <trkpt lat="2.857181" lon="-75.12681">
        <ele>1031.3</ele>
        <time>2021-08-21T12:40:40Z</time>
      </trkpt>
      <trkpt lat="2.857145" lon="-75.1268">
        <ele>1031.4</ele>
        <time>2021-08-21T12:40:41Z</time>
      </trkpt>
      <trkpt lat="2.857122" lon="-75.1268">
        <ele>1031.5</ele>
        <time>2021-08-21T12:40:42Z</time>
      </trkpt>
      <trkpt lat="2.857098" lon="-75.1268">
        <ele>1031.7</ele>
        <time>2021-08-21T12:40:43Z</time>
      </trkpt>
      <trkpt lat="2.857075" lon="-75.1268">
        <ele>1031.8</ele>
        <time>2021-08-21T12:40:44Z</time>
      </trkpt>
      <trkpt lat="2.857052" lon="-75.12679">
        <ele>1031.9</ele>
        <time>2021-08-21T12:40:45Z</time>
      </trkpt>
      <trkpt lat="2.857007" lon="-75.126785">
        <ele>1032.2</ele>
        <time>2021-08-21T12:40:47Z</time>
      </trkpt>
      <trkpt lat="2.857018" lon="-75.126785">
        <ele>1032.1</ele>
        <time>2021-08-21T12:40:47Z</time>
      </trkpt>
      <trkpt lat="2.856986" lon="-75.12678">
        <ele>1032.3</ele>
        <time>2021-08-21T12:40:48Z</time>
      </trkpt>
      <trkpt lat="2.856967" lon="-75.12676">
        <ele>1032.4</ele>
        <time>2021-08-21T12:40:49Z</time>
      </trkpt>
      <trkpt lat="2.856949" lon="-75.126755">
        <ele>1032.6</ele>
        <time>2021-08-21T12:40:50Z</time>
      </trkpt>
      <trkpt lat="2.856932" lon="-75.12674">
        <ele>1032.7</ele>
        <time>2021-08-21T12:40:51Z</time>
      </trkpt>
      <trkpt lat="2.856908" lon="-75.12671">
        <ele>1032.9</ele>
        <time>2021-08-21T12:40:53Z</time>
      </trkpt>
      <trkpt lat="2.856901" lon="-75.1267">
        <ele>1033.0</ele>
        <time>2021-08-21T12:40:53Z</time>
      </trkpt>
      <trkpt lat="2.856889" lon="-75.126686">
        <ele>1033.1</ele>
        <time>2021-08-21T12:40:54Z</time>
      </trkpt>
      <trkpt lat="2.856879" lon="-75.12666">
        <ele>1033.2</ele>
        <time>2021-08-21T12:40:55Z</time>
      </trkpt>
      <trkpt lat="2.856871" lon="-75.12664">
        <ele>1033.3</ele>
        <time>2021-08-21T12:40:56Z</time>
      </trkpt>
      <trkpt lat="2.856866" lon="-75.12662">
        <ele>1033.4</ele>
        <time>2021-08-21T12:40:57Z</time>
      </trkpt>
      <trkpt lat="2.856862" lon="-75.12659">
        <ele>1033.5</ele>
        <time>2021-08-21T12:40:58Z</time>
      </trkpt>
      <trkpt lat="2.856858" lon="-75.126564">
        <ele>1033.7</ele>
        <time>2021-08-21T12:40:59Z</time>
      </trkpt>
      <trkpt lat="2.856857" lon="-75.12653">
        <ele>1033.8</ele>
        <time>2021-08-21T12:41:00Z</time>
      </trkpt>
      <trkpt lat="2.856856" lon="-75.12651">
        <ele>1033.9</ele>
        <time>2021-08-21T12:41:01Z</time>
      </trkpt>
      <trkpt lat="2.856855" lon="-75.12649">
        <ele>1034.0</ele>
        <time>2021-08-21T12:41:02Z</time>
      </trkpt>
      <trkpt lat="2.856852" lon="-75.12646">
        <ele>1034.1</ele>
        <time>2021-08-21T12:41:03Z</time>
      </trkpt>
      <trkpt lat="2.856851" lon="-75.12643">
        <ele>1034.2</ele>
        <time>2021-08-21T12:41:04Z</time>
      </trkpt>
      <trkpt lat="2.85685" lon="-75.1264">
        <ele>1034.3</ele>
        <time>2021-08-21T12:41:05Z</time>
      </trkpt>
      <trkpt lat="2.856847" lon="-75.12637">
        <ele>1034.4</ele>
        <time>2021-08-21T12:41:06Z</time>
      </trkpt>
      <trkpt lat="2.856846" lon="-75.12635">
        <ele>1034.4</ele>
        <time>2021-08-21T12:41:07Z</time>
      </trkpt>
      <trkpt lat="2.856843" lon="-75.12632">
        <ele>1034.5</ele>
        <time>2021-08-21T12:41:08Z</time>
      </trkpt>
      <trkpt lat="2.856841" lon="-75.1263">
        <ele>1034.6</ele>
        <time>2021-08-21T12:41:09Z</time>
      </trkpt>
      <trkpt lat="2.856835" lon="-75.12624">
        <ele>1034.8</ele>
        <time>2021-08-21T12:41:11Z</time>
      </trkpt>
      <trkpt lat="2.856837" lon="-75.12625">
        <ele>1034.7</ele>
        <time>2021-08-21T12:41:11Z</time>
      </trkpt>
      <trkpt lat="2.856832" lon="-75.12621">
        <ele>1034.9</ele>
        <time>2021-08-21T12:41:12Z</time>
      </trkpt>
      <trkpt lat="2.85683" lon="-75.12618">
        <ele>1034.9</ele>
        <time>2021-08-21T12:41:13Z</time>
      </trkpt>
      <trkpt lat="2.856828" lon="-75.12615">
        <ele>1035.0</ele>
        <time>2021-08-21T12:41:14Z</time>
      </trkpt>
      <trkpt lat="2.856826" lon="-75.12612">
        <ele>1035.1</ele>
        <time>2021-08-21T12:41:15Z</time>
      </trkpt>
      <trkpt lat="2.856823" lon="-75.1261">
        <ele>1035.2</ele>
        <time>2021-08-21T12:41:16Z</time>
      </trkpt>
      <trkpt lat="2.856818" lon="-75.12603">
        <ele>1035.4</ele>
        <time>2021-08-21T12:41:18Z</time>
      </trkpt>
      <trkpt lat="2.85682" lon="-75.126045">
        <ele>1035.4</ele>
        <time>2021-08-21T12:41:18Z</time>
      </trkpt>
      <trkpt lat="2.856814" lon="-75.126">
        <ele>1035.5</ele>
        <time>2021-08-21T12:41:19Z</time>
      </trkpt>
      <trkpt lat="2.856811" lon="-75.12597">
        <ele>1035.7</ele>
        <time>2021-08-21T12:41:20Z</time>
      </trkpt>
      <trkpt lat="2.856808" lon="-75.12594">
        <ele>1035.7</ele>
        <time>2021-08-21T12:41:21Z</time>
      </trkpt>
      <trkpt lat="2.856805" lon="-75.12591">
        <ele>1035.8</ele>
        <time>2021-08-21T12:41:22Z</time>
      </trkpt>
      <trkpt lat="2.856804" lon="-75.125885">
        <ele>1035.9</ele>
        <time>2021-08-21T12:41:23Z</time>
      </trkpt>
      <trkpt lat="2.856803" lon="-75.125854">
        <ele>1036.0</ele>
        <time>2021-08-21T12:41:24Z</time>
      </trkpt>
      <trkpt lat="2.856805" lon="-75.125824">
        <ele>1036.1</ele>
        <time>2021-08-21T12:41:25Z</time>
      </trkpt>
      <trkpt lat="2.856809" lon="-75.1258">
        <ele>1036.2</ele>
        <time>2021-08-21T12:41:26Z</time>
      </trkpt>
      <trkpt lat="2.856816" lon="-75.12577">
        <ele>1036.2</ele>
        <time>2021-08-21T12:41:27Z</time>
      </trkpt>
      <trkpt lat="2.856828" lon="-75.12575">
        <ele>1036.3</ele>
        <time>2021-08-21T12:41:28Z</time>
      </trkpt>
      <trkpt lat="2.856845" lon="-75.125725">
        <ele>1036.4</ele>
        <time>2021-08-21T12:41:29Z</time>
      </trkpt>
      <trkpt lat="2.856866" lon="-75.125694">
        <ele>1036.4</ele>
        <time>2021-08-21T12:41:30Z</time>
      </trkpt>
      <trkpt lat="2.85689" lon="-75.12567">
        <ele>1036.5</ele>
        <time>2021-08-21T12:41:31Z</time>
      </trkpt>
      <trkpt lat="2.856916" lon="-75.12565">
        <ele>1036.5</ele>
        <time>2021-08-21T12:41:32Z</time>
      </trkpt>
      <trkpt lat="2.856943" lon="-75.125626">
        <ele>1036.5</ele>
        <time>2021-08-21T12:41:33Z</time>
      </trkpt>
      <trkpt lat="2.856972" lon="-75.12561">
        <ele>1036.5</ele>
        <time>2021-08-21T12:41:34Z</time>
      </trkpt>
      <trkpt lat="2.857" lon="-75.12559">
        <ele>1036.5</ele>
        <time>2021-08-21T12:41:35Z</time>
      </trkpt>
      <trkpt lat="2.857028" lon="-75.12557">
        <ele>1036.5</ele>
        <time>2021-08-21T12:41:36Z</time>
      </trkpt>
      <trkpt lat="2.85707" lon="-75.12555">
        <ele>1036.5</ele>
        <time>2021-08-21T12:41:38Z</time>
      </trkpt>
      <trkpt lat="2.857085" lon="-75.125534">
        <ele>1036.5</ele>
        <time>2021-08-21T12:41:38Z</time>
      </trkpt>
      <trkpt lat="2.857114" lon="-75.12552">
        <ele>1036.6</ele>
        <time>2021-08-21T12:41:38Z</time>
      </trkpt>
      <trkpt lat="2.857144" lon="-75.125496">
        <ele>1036.6</ele>
        <time>2021-08-21T12:41:39Z</time>
      </trkpt>
      <trkpt lat="2.857173" lon="-75.12547">
        <ele>1036.6</ele>
        <time>2021-08-21T12:41:40Z</time>
      </trkpt>
      <trkpt lat="2.8572" lon="-75.12545">
        <ele>1036.6</ele>
        <time>2021-08-21T12:41:41Z</time>
      </trkpt>
      <trkpt lat="2.857225" lon="-75.12543">
        <ele>1036.6</ele>
        <time>2021-08-21T12:41:42Z</time>
      </trkpt>
      <trkpt lat="2.857255" lon="-75.12538">
        <ele>1036.6</ele>
        <time>2021-08-21T12:41:44Z</time>
      </trkpt>
      <trkpt lat="2.857263" lon="-75.12537">
        <ele>1036.7</ele>
        <time>2021-08-21T12:41:44Z</time>
      </trkpt>
      <trkpt lat="2.857274" lon="-75.12534">
        <ele>1036.7</ele>
        <time>2021-08-21T12:41:45Z</time>
      </trkpt>
      <trkpt lat="2.85728" lon="-75.12531">
        <ele>1036.7</ele>
        <time>2021-08-21T12:41:46Z</time>
      </trkpt>
      <trkpt lat="2.857282" lon="-75.12529">
        <ele>1036.7</ele>
        <time>2021-08-21T12:41:47Z</time>
      </trkpt>
      <trkpt lat="2.857278" lon="-75.12527">
        <ele>1036.8</ele>
        <time>2021-08-21T12:41:48Z</time>
      </trkpt>
      <trkpt lat="2.857269" lon="-75.125244">
        <ele>1036.8</ele>
        <time>2021-08-21T12:41:49Z</time>
      </trkpt>
      <trkpt lat="2.857255" lon="-75.12522">
        <ele>1036.8</ele>
        <time>2021-08-21T12:41:50Z</time>
      </trkpt>
      <trkpt lat="2.857237" lon="-75.125206">
        <ele>1036.9</ele>
        <time>2021-08-21T12:41:51Z</time>
      </trkpt>
      <trkpt lat="2.857218" lon="-75.12519">
        <ele>1036.9</ele>
        <time>2021-08-21T12:41:52Z</time>
      </trkpt>
      <trkpt lat="2.857196" lon="-75.12518">
        <ele>1037.0</ele>
        <time>2021-08-21T12:41:53Z</time>
      </trkpt>
      <trkpt lat="2.857173" lon="-75.12517">
        <ele>1037.0</ele>
        <time>2021-08-21T12:41:54Z</time>
      </trkpt>
      <trkpt lat="2.857148" lon="-75.12516">
        <ele>1037.1</ele>
        <time>2021-08-21T12:41:55Z</time>
      </trkpt>
      <trkpt lat="2.857095" lon="-75.12515">
        <ele>1037.2</ele>
        <time>2021-08-21T12:41:57Z</time>
      </trkpt>
      <trkpt lat="2.857109" lon="-75.12515">
        <ele>1037.2</ele>
        <time>2021-08-21T12:41:57Z</time>
      </trkpt>
      <trkpt lat="2.857067" lon="-75.12515">
        <ele>1037.2</ele>
        <time>2021-08-21T12:41:58Z</time>
      </trkpt>
      <trkpt lat="2.85704" lon="-75.125145">
        <ele>1037.3</ele>
        <time>2021-08-21T12:41:59Z</time>
      </trkpt>
      <trkpt lat="2.857011" lon="-75.125145">
        <ele>1037.4</ele>
        <time>2021-08-21T12:42:00Z</time>
      </trkpt>
      <trkpt lat="2.856981" lon="-75.125145">
        <ele>1037.5</ele>
        <time>2021-08-21T12:42:01Z</time>
      </trkpt>
      <trkpt lat="2.856952" lon="-75.125145">
        <ele>1037.5</ele>
        <time>2021-08-21T12:42:02Z</time>
      </trkpt>
      <trkpt lat="2.856923" lon="-75.125145">
        <ele>1037.6</ele>
        <time>2021-08-21T12:42:03Z</time>
      </trkpt>
      <trkpt lat="2.856895" lon="-75.12514">
        <ele>1037.7</ele>
        <time>2021-08-21T12:42:04Z</time>
      </trkpt>
      <trkpt lat="2.856866" lon="-75.12513">
        <ele>1037.8</ele>
        <time>2021-08-21T12:42:05Z</time>
      </trkpt>
      <trkpt lat="2.856836" lon="-75.12512">
        <ele>1037.9</ele>
        <time>2021-08-21T12:42:06Z</time>
      </trkpt>
      <trkpt lat="2.856806" lon="-75.125114">
        <ele>1037.9</ele>
        <time>2021-08-21T12:42:07Z</time>
      </trkpt>
      <trkpt lat="2.856778" lon="-75.1251">
        <ele>1038.0</ele>
        <time>2021-08-21T12:42:08Z</time>
      </trkpt>
      <trkpt lat="2.856752" lon="-75.12508">
        <ele>1038.1</ele>
        <time>2021-08-21T12:42:09Z</time>
      </trkpt>
      <trkpt lat="2.856729" lon="-75.12505">
        <ele>1038.2</ele>
        <time>2021-08-21T12:42:10Z</time>
      </trkpt>
      <trkpt lat="2.85671" lon="-75.12503">
        <ele>1038.3</ele>
        <time>2021-08-21T12:42:11Z</time>
      </trkpt>
      <trkpt lat="2.856693" lon="-75.125">
        <ele>1038.3</ele>
        <time>2021-08-21T12:42:12Z</time>
      </trkpt>
      <trkpt lat="2.856681" lon="-75.12497">
        <ele>1038.4</ele>
        <time>2021-08-21T12:42:13Z</time>
      </trkpt>
      <trkpt lat="2.85666" lon="-75.1249">
        <ele>1038.6</ele>
        <time>2021-08-21T12:42:15Z</time>
      </trkpt>
      <trkpt lat="2.856666" lon="-75.124916">
        <ele>1038.6</ele>
        <time>2021-08-21T12:42:15Z</time>
      </trkpt>
      <trkpt lat="2.856647" lon="-75.12487">
        <ele>1038.7</ele>
        <time>2021-08-21T12:42:16Z</time>
      </trkpt>
      <trkpt lat="2.856635" lon="-75.12484">
        <ele>1038.8</ele>
        <time>2021-08-21T12:42:17Z</time>
      </trkpt>
      <trkpt lat="2.856623" lon="-75.12481">
        <ele>1038.9</ele>
        <time>2021-08-21T12:42:18Z</time>
      </trkpt>
      <trkpt lat="2.856612" lon="-75.12478">
        <ele>1039.0</ele>
        <time>2021-08-21T12:42:19Z</time>
      </trkpt>
      <trkpt lat="2.856601" lon="-75.12475">
        <ele>1039.2</ele>
        <time>2021-08-21T12:42:20Z</time>
      </trkpt>
      <trkpt lat="2.856589" lon="-75.12472">
        <ele>1039.3</ele>
        <time>2021-08-21T12:42:21Z</time>
      </trkpt>
      <trkpt lat="2.856577" lon="-75.12469">
        <ele>1039.5</ele>
        <time>2021-08-21T12:42:22Z</time>
      </trkpt>
      <trkpt lat="2.856564" lon="-75.124664">
        <ele>1039.6</ele>
        <time>2021-08-21T12:42:23Z</time>
      </trkpt>
      <trkpt lat="2.856551" lon="-75.12463">
        <ele>1039.8</ele>
        <time>2021-08-21T12:42:24Z</time>
      </trkpt>
      <trkpt lat="2.856541" lon="-75.12461">
        <ele>1040.0</ele>
        <time>2021-08-21T12:42:25Z</time>
      </trkpt>
      <trkpt lat="2.856532" lon="-75.12458">
        <ele>1040.1</ele>
        <time>2021-08-21T12:42:26Z</time>
      </trkpt>
      <trkpt lat="2.856525" lon="-75.12456">
        <ele>1040.3</ele>
        <time>2021-08-21T12:42:27Z</time>
      </trkpt>
      <trkpt lat="2.856521" lon="-75.124535">
        <ele>1040.4</ele>
        <time>2021-08-21T12:42:28Z</time>
      </trkpt>
      <trkpt lat="2.856518" lon="-75.12451">
        <ele>1040.6</ele>
        <time>2021-08-21T12:42:29Z</time>
      </trkpt>
      <trkpt lat="2.856517" lon="-75.12449">
        <ele>1040.7</ele>
        <time>2021-08-21T12:42:30Z</time>
      </trkpt>
      <trkpt lat="2.856518" lon="-75.12446">
        <ele>1040.9</ele>
        <time>2021-08-21T12:42:31Z</time>
      </trkpt>
      <trkpt lat="2.856521" lon="-75.124435">
        <ele>1041.0</ele>
        <time>2021-08-21T12:42:32Z</time>
      </trkpt>
      <trkpt lat="2.856529" lon="-75.12441">
        <ele>1041.2</ele>
        <time>2021-08-21T12:42:33Z</time>
      </trkpt>
      <trkpt lat="2.856547" lon="-75.124374">
        <ele>1041.5</ele>
        <time>2021-08-21T12:42:35Z</time>
      </trkpt>
      <trkpt lat="2.856553" lon="-75.12436">
        <ele>1041.6</ele>
        <time>2021-08-21T12:42:35Z</time>
      </trkpt>
      <trkpt lat="2.856566" lon="-75.12433">
        <ele>1041.8</ele>
        <time>2021-08-21T12:42:36Z</time>
      </trkpt>
      <trkpt lat="2.85658" lon="-75.124306">
        <ele>1042.0</ele>
        <time>2021-08-21T12:42:37Z</time>
      </trkpt>
      <trkpt lat="2.856594" lon="-75.12428">
        <ele>1042.1</ele>
        <time>2021-08-21T12:42:38Z</time>
      </trkpt>
      <trkpt lat="2.856609" lon="-75.12426">
        <ele>1042.3</ele>
        <time>2021-08-21T12:42:39Z</time>
      </trkpt>
      <trkpt lat="2.856625" lon="-75.124245">
        <ele>1042.5</ele>
        <time>2021-08-21T12:42:40Z</time>
      </trkpt>
      <trkpt lat="2.85665" lon="-75.12421">
        <ele>1042.7</ele>
        <time>2021-08-21T12:42:42Z</time>
      </trkpt>
      <trkpt lat="2.856658" lon="-75.1242">
        <ele>1042.8</ele>
        <time>2021-08-21T12:42:42Z</time>
      </trkpt>
      <trkpt lat="2.856674" lon="-75.124176">
        <ele>1043.0</ele>
        <time>2021-08-21T12:42:43Z</time>
      </trkpt>
      <trkpt lat="2.85669" lon="-75.12415">
        <ele>1043.2</ele>
        <time>2021-08-21T12:42:44Z</time>
      </trkpt>
      <trkpt lat="2.856707" lon="-75.12413">
        <ele>1043.4</ele>
        <time>2021-08-21T12:42:45Z</time>
      </trkpt>
      <trkpt lat="2.856726" lon="-75.12411">
        <ele>1043.6</ele>
        <time>2021-08-21T12:42:46Z</time>
      </trkpt>
      <trkpt lat="2.856746" lon="-75.12409">
        <ele>1043.8</ele>
        <time>2021-08-21T12:42:47Z</time>
      </trkpt>
      <trkpt lat="2.856775" lon="-75.12407">
        <ele>1044.1</ele>
        <time>2021-08-21T12:42:49Z</time>
      </trkpt>
      <trkpt lat="2.856784" lon="-75.12406">
        <ele>1044.1</ele>
        <time>2021-08-21T12:42:49Z</time>
      </trkpt>
      <trkpt lat="2.856802" lon="-75.12405">
        <ele>1044.3</ele>
        <time>2021-08-21T12:42:50Z</time>
      </trkpt>
      <trkpt lat="2.85682" lon="-75.12403">
        <ele>1044.5</ele>
        <time>2021-08-21T12:42:51Z</time>
      </trkpt>
      <trkpt lat="2.856836" lon="-75.124016">
        <ele>1044.6</ele>
        <time>2021-08-21T12:42:52Z</time>
      </trkpt>
      <trkpt lat="2.856852" lon="-75.124">
        <ele>1044.7</ele>
        <time>2021-08-21T12:42:53Z</time>
      </trkpt>
      <trkpt lat="2.856874" lon="-75.12398">
        <ele>1044.9</ele>
        <time>2021-08-21T12:42:55Z</time>
      </trkpt>
      <trkpt lat="2.856882" lon="-75.12397">
        <ele>1045.0</ele>
        <time>2021-08-21T12:42:55Z</time>
      </trkpt>
      <trkpt lat="2.856898" lon="-75.123955">
        <ele>1045.2</ele>
        <time>2021-08-21T12:42:56Z</time>
      </trkpt>
      <trkpt lat="2.856914" lon="-75.12393">
        <ele>1045.3</ele>
        <time>2021-08-21T12:42:57Z</time>
      </trkpt>
      <trkpt lat="2.85693" lon="-75.12392">
        <ele>1045.4</ele>
        <time>2021-08-21T12:42:58Z</time>
      </trkpt>
      <trkpt lat="2.856945" lon="-75.12389">
        <ele>1045.6</ele>
        <time>2021-08-21T12:42:59Z</time>
      </trkpt>
      <trkpt lat="2.856962" lon="-75.12388">
        <ele>1045.7</ele>
        <time>2021-08-21T12:43:00Z</time>
      </trkpt>
      <trkpt lat="2.856979" lon="-75.123856">
        <ele>1045.8</ele>
        <time>2021-08-21T12:43:01Z</time>
      </trkpt>
      <trkpt lat="2.856996" lon="-75.12384">
        <ele>1045.9</ele>
        <time>2021-08-21T12:43:02Z</time>
      </trkpt>
      <trkpt lat="2.857014" lon="-75.12382">
        <ele>1046.0</ele>
        <time>2021-08-21T12:43:03Z</time>
      </trkpt>
      <trkpt lat="2.85703" lon="-75.12379">
        <ele>1046.1</ele>
        <time>2021-08-21T12:43:04Z</time>
      </trkpt>
      <trkpt lat="2.857044" lon="-75.123764">
        <ele>1046.2</ele>
        <time>2021-08-21T12:43:05Z</time>
      </trkpt>
      <trkpt lat="2.857054" lon="-75.12373">
        <ele>1046.2</ele>
        <time>2021-08-21T12:43:06Z</time>
      </trkpt>
      <trkpt lat="2.857059" lon="-75.1237">
        <ele>1046.2</ele>
        <time>2021-08-21T12:43:07Z</time>
      </trkpt>
      <trkpt lat="2.857059" lon="-75.12368">
        <ele>1046.2</ele>
        <time>2021-08-21T12:43:08Z</time>
      </trkpt>
      <trkpt lat="2.857052" lon="-75.12365">
        <ele>1046.2</ele>
        <time>2021-08-21T12:43:09Z</time>
      </trkpt>
      <trkpt lat="2.857042" lon="-75.12362">
        <ele>1046.2</ele>
        <time>2021-08-21T12:43:10Z</time>
      </trkpt>
      <trkpt lat="2.857025" lon="-75.1236">
        <ele>1046.1</ele>
        <time>2021-08-21T12:43:11Z</time>
      </trkpt>
      <trkpt lat="2.856983" lon="-75.12355">
        <ele>1045.9</ele>
        <time>2021-08-21T12:43:13Z</time>
      </trkpt>
      <trkpt lat="2.856995" lon="-75.12356">
        <ele>1046.0</ele>
        <time>2021-08-21T12:43:13Z</time>
      </trkpt>
      <trkpt lat="2.856957" lon="-75.12353">
        <ele>1045.8</ele>
        <time>2021-08-21T12:43:14Z</time>
      </trkpt>
      <trkpt lat="2.856929" lon="-75.12351">
        <ele>1045.7</ele>
        <time>2021-08-21T12:43:15Z</time>
      </trkpt>
      <trkpt lat="2.856899" lon="-75.1235">
        <ele>1045.6</ele>
        <time>2021-08-21T12:43:16Z</time>
      </trkpt>
      <trkpt lat="2.856865" lon="-75.12349">
        <ele>1045.5</ele>
        <time>2021-08-21T12:43:17Z</time>
      </trkpt>
      <trkpt lat="2.85683" lon="-75.123474">
        <ele>1045.3</ele>
        <time>2021-08-21T12:43:18Z</time>
      </trkpt>
      <trkpt lat="2.856789" lon="-75.12346">
        <ele>1045.1</ele>
        <time>2021-08-21T12:43:19Z</time>
      </trkpt>
      <trkpt lat="2.856751" lon="-75.12344">
        <ele>1044.9</ele>
        <time>2021-08-21T12:43:20Z</time>
      </trkpt>
      <trkpt lat="2.856712" lon="-75.12343">
        <ele>1044.6</ele>
        <time>2021-08-21T12:43:21Z</time>
      </trkpt>
      <trkpt lat="2.856672" lon="-75.1234">
        <ele>1044.3</ele>
        <time>2021-08-21T12:43:22Z</time>
      </trkpt>
      <trkpt lat="2.856631" lon="-75.12337">
        <ele>1043.9</ele>
        <time>2021-08-21T12:43:23Z</time>
      </trkpt>
      <trkpt lat="2.856592" lon="-75.12334">
        <ele>1043.5</ele>
        <time>2021-08-21T12:43:24Z</time>
      </trkpt>
      <trkpt lat="2.856555" lon="-75.1233">
        <ele>1043.1</ele>
        <time>2021-08-21T12:43:25Z</time>
      </trkpt>
      <trkpt lat="2.856522" lon="-75.12325">
        <ele>1042.6</ele>
        <time>2021-08-21T12:43:26Z</time>
      </trkpt>
      <trkpt lat="2.856493" lon="-75.123215">
        <ele>1042.2</ele>
        <time>2021-08-21T12:43:27Z</time>
      </trkpt>
      <trkpt lat="2.856464" lon="-75.12317">
        <ele>1041.7</ele>
        <time>2021-08-21T12:43:28Z</time>
      </trkpt>
      <trkpt lat="2.856435" lon="-75.12312">
        <ele>1041.2</ele>
        <time>2021-08-21T12:43:29Z</time>
      </trkpt>
      <trkpt lat="2.856403" lon="-75.12307">
        <ele>1040.8</ele>
        <time>2021-08-21T12:43:30Z</time>
      </trkpt>
      <trkpt lat="2.85637" lon="-75.12303">
        <ele>1040.4</ele>
        <time>2021-08-21T12:43:31Z</time>
      </trkpt>
      <trkpt lat="2.856294" lon="-75.122955">
        <ele>1039.6</ele>
        <time>2021-08-21T12:43:33Z</time>
      </trkpt>
      <trkpt lat="2.856333" lon="-75.12299">
        <ele>1040.0</ele>
        <time>2021-08-21T12:43:33Z</time>
      </trkpt>
      <trkpt lat="2.856252" lon="-75.12292">
        <ele>1039.1</ele>
        <time>2021-08-21T12:43:34Z</time>
      </trkpt>
      <trkpt lat="2.856207" lon="-75.12288">
        <ele>1038.7</ele>
        <time>2021-08-21T12:43:35Z</time>
      </trkpt>
      <trkpt lat="2.85616" lon="-75.12285">
        <ele>1038.2</ele>
        <time>2021-08-21T12:43:36Z</time>
      </trkpt>
      <trkpt lat="2.85611" lon="-75.12281">
        <ele>1037.8</ele>
        <time>2021-08-21T12:43:37Z</time>
      </trkpt>
      <trkpt lat="2.856059" lon="-75.12278">
        <ele>1037.3</ele>
        <time>2021-08-21T12:43:38Z</time>
      </trkpt>
      <trkpt lat="2.856009" lon="-75.12275">
        <ele>1036.9</ele>
        <time>2021-08-21T12:43:39Z</time>
      </trkpt>
      <trkpt lat="2.855961" lon="-75.12271">
        <ele>1036.6</ele>
        <time>2021-08-21T12:43:40Z</time>
      </trkpt>
      <trkpt lat="2.855916" lon="-75.12268">
        <ele>1036.2</ele>
        <time>2021-08-21T12:43:41Z</time>
      </trkpt>
      <trkpt lat="2.855874" lon="-75.12264">
        <ele>1035.9</ele>
        <time>2021-08-21T12:43:42Z</time>
      </trkpt>
      <trkpt lat="2.855831" lon="-75.122604">
        <ele>1035.5</ele>
        <time>2021-08-21T12:43:43Z</time>
      </trkpt>
      <trkpt lat="2.855795" lon="-75.12257">
        <ele>1035.1</ele>
        <time>2021-08-21T12:43:44Z</time>
      </trkpt>
      <trkpt lat="2.855742" lon="-75.12249">
        <ele>1034.4</ele>
        <time>2021-08-21T12:43:46Z</time>
      </trkpt>
      <trkpt lat="2.855765" lon="-75.12253">
        <ele>1034.7</ele>
        <time>2021-08-21T12:43:46Z</time>
      </trkpt>
      <trkpt lat="2.855724" lon="-75.122444">
        <ele>1034.0</ele>
        <time>2021-08-21T12:43:47Z</time>
      </trkpt>
      <trkpt lat="2.855709" lon="-75.12239">
        <ele>1033.6</ele>
        <time>2021-08-21T12:43:48Z</time>
      </trkpt>
      <trkpt lat="2.855696" lon="-75.12234">
        <ele>1033.2</ele>
        <time>2021-08-21T12:43:49Z</time>
      </trkpt>
      <trkpt lat="2.85568" lon="-75.122284">
        <ele>1032.8</ele>
        <time>2021-08-21T12:43:50Z</time>
      </trkpt>
      <trkpt lat="2.855639" lon="-75.12218">
        <ele>1032.1</ele>
        <time>2021-08-21T12:43:52Z</time>
      </trkpt>
      <trkpt lat="2.85566" lon="-75.12223">
        <ele>1032.5</ele>
        <time>2021-08-21T12:43:52Z</time>
      </trkpt>
      <trkpt lat="2.855612" lon="-75.12212">
        <ele>1031.8</ele>
        <time>2021-08-21T12:43:53Z</time>
      </trkpt>
      <trkpt lat="2.855586" lon="-75.12206">
        <ele>1031.4</ele>
        <time>2021-08-21T12:43:54Z</time>
      </trkpt>
      <trkpt lat="2.855562" lon="-75.12202">
        <ele>1031.2</ele>
        <time>2021-08-21T12:43:55Z</time>
      </trkpt>
      <trkpt lat="2.855542" lon="-75.12196">
        <ele>1030.9</ele>
        <time>2021-08-21T12:43:56Z</time>
      </trkpt>
      <trkpt lat="2.855527" lon="-75.12192">
        <ele>1030.7</ele>
        <time>2021-08-21T12:43:57Z</time>
      </trkpt>
      <trkpt lat="2.855515" lon="-75.12182">
        <ele>1030.3</ele>
        <time>2021-08-21T12:43:59Z</time>
      </trkpt>
      <trkpt lat="2.855518" lon="-75.121864">
        <ele>1030.5</ele>
        <time>2021-08-21T12:43:59Z</time>
      </trkpt>
      <trkpt lat="2.855515" lon="-75.121765">
        <ele>1030.1</ele>
        <time>2021-08-21T12:44:00Z</time>
      </trkpt>
      <trkpt lat="2.855521" lon="-75.12171">
        <ele>1029.9</ele>
        <time>2021-08-21T12:44:01Z</time>
      </trkpt>
      <trkpt lat="2.855533" lon="-75.12165">
        <ele>1029.7</ele>
        <time>2021-08-21T12:44:02Z</time>
      </trkpt>
      <trkpt lat="2.85555" lon="-75.1216">
        <ele>1029.4</ele>
        <time>2021-08-21T12:44:03Z</time>
      </trkpt>
      <trkpt lat="2.855571" lon="-75.12154">
        <ele>1029.2</ele>
        <time>2021-08-21T12:44:04Z</time>
      </trkpt>
      <trkpt lat="2.855592" lon="-75.12149">
        <ele>1028.9</ele>
        <time>2021-08-21T12:44:05Z</time>
      </trkpt>
      <trkpt lat="2.855616" lon="-75.12144">
        <ele>1028.7</ele>
        <time>2021-08-21T12:44:06Z</time>
      </trkpt>
      <trkpt lat="2.855643" lon="-75.12139">
        <ele>1028.4</ele>
        <time>2021-08-21T12:44:07Z</time>
      </trkpt>
      <trkpt lat="2.855674" lon="-75.12134">
        <ele>1028.1</ele>
        <time>2021-08-21T12:44:08Z</time>
      </trkpt>
      <trkpt lat="2.855707" lon="-75.121284">
        <ele>1027.9</ele>
        <time>2021-08-21T12:44:10Z</time>
      </trkpt>
      <trkpt lat="2.855742" lon="-75.12123">
        <ele>1027.6</ele>
        <time>2021-08-21T12:44:10Z</time>
      </trkpt>
      <trkpt lat="2.855773" lon="-75.121185">
        <ele>1027.3</ele>
        <time>2021-08-21T12:44:11Z</time>
      </trkpt>
      <trkpt lat="2.855807" lon="-75.12113">
        <ele>1027.1</ele>
        <time>2021-08-21T12:44:12Z</time>
      </trkpt>
      <trkpt lat="2.855836" lon="-75.121086">
        <ele>1026.9</ele>
        <time>2021-08-21T12:44:13Z</time>
      </trkpt>
      <trkpt lat="2.855864" lon="-75.12103">
        <ele>1026.7</ele>
        <time>2021-08-21T12:44:14Z</time>
      </trkpt>
      <trkpt lat="2.855891" lon="-75.12099">
        <ele>1026.5</ele>
        <time>2021-08-21T12:44:15Z</time>
      </trkpt>
      <trkpt lat="2.855915" lon="-75.12093">
        <ele>1026.4</ele>
        <time>2021-08-21T12:44:17Z</time>
      </trkpt>
      <trkpt lat="2.855933" lon="-75.12089">
        <ele>1026.3</ele>
        <time>2021-08-21T12:44:17Z</time>
      </trkpt>
      <trkpt lat="2.855946" lon="-75.120834">
        <ele>1026.2</ele>
        <time>2021-08-21T12:44:18Z</time>
      </trkpt>
      <trkpt lat="2.855955" lon="-75.12079">
        <ele>1026.1</ele>
        <time>2021-08-21T12:44:19Z</time>
      </trkpt>
      <trkpt lat="2.855963" lon="-75.12074">
        <ele>1026.1</ele>
        <time>2021-08-21T12:44:20Z</time>
      </trkpt>
      <trkpt lat="2.855969" lon="-75.120705">
        <ele>1026.0</ele>
        <time>2021-08-21T12:44:21Z</time>
      </trkpt>
      <trkpt lat="2.855974" lon="-75.12067">
        <ele>1026.0</ele>
        <time>2021-08-21T12:44:22Z</time>
      </trkpt>
      <trkpt lat="2.855974" lon="-75.12063">
        <ele>1026.1</ele>
        <time>2021-08-21T12:44:23Z</time>
      </trkpt>
      <trkpt lat="2.855968" lon="-75.1206">
        <ele>1026.1</ele>
        <time>2021-08-21T12:44:24Z</time>
      </trkpt>
      <trkpt lat="2.855956" lon="-75.12057">
        <ele>1026.1</ele>
        <time>2021-08-21T12:44:25Z</time>
      </trkpt>
      <trkpt lat="2.85594" lon="-75.12054">
        <ele>1026.2</ele>
        <time>2021-08-21T12:44:26Z</time>
      </trkpt>
      <trkpt lat="2.855921" lon="-75.120514">
        <ele>1026.3</ele>
        <time>2021-08-21T12:44:27Z</time>
      </trkpt>
      <trkpt lat="2.855899" lon="-75.1205">
        <ele>1026.4</ele>
        <time>2021-08-21T12:44:28Z</time>
      </trkpt>
      <trkpt lat="2.855876" lon="-75.12048">
        <ele>1026.4</ele>
        <time>2021-08-21T12:44:29Z</time>
      </trkpt>
      <trkpt lat="2.855853" lon="-75.12048">
        <ele>1026.5</ele>
        <time>2021-08-21T12:44:30Z</time>
      </trkpt>
      <trkpt lat="2.855832" lon="-75.12048">
        <ele>1026.6</ele>
        <time>2021-08-21T12:44:31Z</time>
      </trkpt>
      <trkpt lat="2.855813" lon="-75.12049">
        <ele>1026.6</ele>
        <time>2021-08-21T12:44:32Z</time>
      </trkpt>
      <trkpt lat="2.855795" lon="-75.1205">
        <ele>1026.7</ele>
        <time>2021-08-21T12:44:33Z</time>
      </trkpt>
      <trkpt lat="2.85578" lon="-75.12051">
        <ele>1026.7</ele>
        <time>2021-08-21T12:44:34Z</time>
      </trkpt>
      <trkpt lat="2.855765" lon="-75.12052">
        <ele>1026.8</ele>
        <time>2021-08-21T12:44:35Z</time>
      </trkpt>
      <trkpt lat="2.855737" lon="-75.12055">
        <ele>1026.9</ele>
        <time>2021-08-21T12:44:37Z</time>
      </trkpt>
      <trkpt lat="2.855744" lon="-75.120544">
        <ele>1026.9</ele>
        <time>2021-08-21T12:44:37Z</time>
      </trkpt>
      <trkpt lat="2.855723" lon="-75.120575">
        <ele>1027.0</ele>
        <time>2021-08-21T12:44:38Z</time>
      </trkpt>
      <trkpt lat="2.855712" lon="-75.1206">
        <ele>1027.1</ele>
        <time>2021-08-21T12:44:39Z</time>
      </trkpt>
      <trkpt lat="2.855702" lon="-75.12062">
        <ele>1027.2</ele>
        <time>2021-08-21T12:44:40Z</time>
      </trkpt>
      <trkpt lat="2.855689" lon="-75.12064">
        <ele>1027.3</ele>
        <time>2021-08-21T12:44:41Z</time>
      </trkpt>
      <trkpt lat="2.855674" lon="-75.12067">
        <ele>1027.5</ele>
        <time>2021-08-21T12:44:42Z</time>
      </trkpt>
      <trkpt lat="2.855644" lon="-75.12071">
        <ele>1027.8</ele>
        <time>2021-08-21T12:44:44Z</time>
      </trkpt>
      <trkpt lat="2.855651" lon="-75.1207">
        <ele>1027.7</ele>
        <time>2021-08-21T12:44:44Z</time>
      </trkpt>
      <trkpt lat="2.855629" lon="-75.12073">
        <ele>1028.0</ele>
        <time>2021-08-21T12:44:45Z</time>
      </trkpt>
      <trkpt lat="2.855614" lon="-75.12075">
        <ele>1028.1</ele>
        <time>2021-08-21T12:44:46Z</time>
      </trkpt>
      <trkpt lat="2.8556" lon="-75.120766">
        <ele>1028.3</ele>
        <time>2021-08-21T12:44:47Z</time>
      </trkpt>
      <trkpt lat="2.855587" lon="-75.12078">
        <ele>1028.5</ele>
        <time>2021-08-21T12:44:48Z</time>
      </trkpt>
      <trkpt lat="2.855575" lon="-75.1208">
        <ele>1028.7</ele>
        <time>2021-08-21T12:44:49Z</time>
      </trkpt>
      <trkpt lat="2.855562" lon="-75.12081">
        <ele>1028.9</ele>
        <time>2021-08-21T12:44:50Z</time>
      </trkpt>
      <trkpt lat="2.855546" lon="-75.12083">
        <ele>1029.1</ele>
        <time>2021-08-21T12:44:51Z</time>
      </trkpt>
      <trkpt lat="2.85553" lon="-75.120834">
        <ele>1029.3</ele>
        <time>2021-08-21T12:44:52Z</time>
      </trkpt>
      <trkpt lat="2.855511" lon="-75.12085">
        <ele>1029.5</ele>
        <time>2021-08-21T12:44:53Z</time>
      </trkpt>
      <trkpt lat="2.855492" lon="-75.12086">
        <ele>1029.8</ele>
        <time>2021-08-21T12:44:54Z</time>
      </trkpt>
      <trkpt lat="2.855472" lon="-75.120865">
        <ele>1030.0</ele>
        <time>2021-08-21T12:44:55Z</time>
      </trkpt>
      <trkpt lat="2.855453" lon="-75.12087">
        <ele>1030.2</ele>
        <time>2021-08-21T12:44:56Z</time>
      </trkpt>
      <trkpt lat="2.855434" lon="-75.12088">
        <ele>1030.5</ele>
        <time>2021-08-21T12:44:57Z</time>
      </trkpt>
      <trkpt lat="2.855413" lon="-75.12088">
        <ele>1030.7</ele>
        <time>2021-08-21T12:44:58Z</time>
      </trkpt>
      <trkpt lat="2.855393" lon="-75.12089">
        <ele>1031.0</ele>
        <time>2021-08-21T12:44:59Z</time>
      </trkpt>
      <trkpt lat="2.855374" lon="-75.12089">
        <ele>1031.2</ele>
        <time>2021-08-21T12:45:00Z</time>
      </trkpt>
      <trkpt lat="2.855336" lon="-75.12089">
        <ele>1031.6</ele>
        <time>2021-08-21T12:45:02Z</time>
      </trkpt>
      <trkpt lat="2.855346" lon="-75.12089">
        <ele>1031.5</ele>
        <time>2021-08-21T12:45:02Z</time>
      </trkpt>
      <trkpt lat="2.855318" lon="-75.12089">
        <ele>1031.8</ele>
        <time>2021-08-21T12:45:03Z</time>
      </trkpt>
      <trkpt lat="2.855299" lon="-75.12089">
        <ele>1032.0</ele>
        <time>2021-08-21T12:45:04Z</time>
      </trkpt>
      <trkpt lat="2.85528" lon="-75.12088">
        <ele>1032.2</ele>
        <time>2021-08-21T12:45:05Z</time>
      </trkpt>
      <trkpt lat="2.85526" lon="-75.12088">
        <ele>1032.3</ele>
        <time>2021-08-21T12:45:06Z</time>
      </trkpt>
      <trkpt lat="2.855238" lon="-75.12087">
        <ele>1032.6</ele>
        <time>2021-08-21T12:45:07Z</time>
      </trkpt>
      <trkpt lat="2.855216" lon="-75.12087">
        <ele>1032.7</ele>
        <time>2021-08-21T12:45:08Z</time>
      </trkpt>
      <trkpt lat="2.855194" lon="-75.120865">
        <ele>1032.9</ele>
        <time>2021-08-21T12:45:09Z</time>
      </trkpt>
      <trkpt lat="2.855172" lon="-75.12086">
        <ele>1033.1</ele>
        <time>2021-08-21T12:45:10Z</time>
      </trkpt>
      <trkpt lat="2.85515" lon="-75.12086">
        <ele>1033.3</ele>
        <time>2021-08-21T12:45:11Z</time>
      </trkpt>
      <trkpt lat="2.855127" lon="-75.12085">
        <ele>1033.5</ele>
        <time>2021-08-21T12:45:12Z</time>
      </trkpt>
      <trkpt lat="2.855103" lon="-75.12084">
        <ele>1033.7</ele>
        <time>2021-08-21T12:45:13Z</time>
      </trkpt>
      <trkpt lat="2.855081" lon="-75.12083">
        <ele>1033.8</ele>
        <time>2021-08-21T12:45:14Z</time>
      </trkpt>
      <trkpt lat="2.85506" lon="-75.12082">
        <ele>1034.2</ele>
        <time>2021-08-21T12:45:15Z</time>
      </trkpt>
      <trkpt lat="2.85504" lon="-75.120804">
        <ele>1034.4</ele>
        <time>2021-08-21T12:45:16Z</time>
      </trkpt>
      <trkpt lat="2.855022" lon="-75.12079">
        <ele>1034.6</ele>
        <time>2021-08-21T12:45:17Z</time>
      </trkpt>
      <trkpt lat="2.855005" lon="-75.12077">
        <ele>1034.8</ele>
        <time>2021-08-21T12:45:18Z</time>
      </trkpt>
      <trkpt lat="2.854992" lon="-75.12076">
        <ele>1034.9</ele>
        <time>2021-08-21T12:45:19Z</time>
      </trkpt>
      <trkpt lat="2.854979" lon="-75.12074">
        <ele>1035.1</ele>
        <time>2021-08-21T12:45:20Z</time>
      </trkpt>
      <trkpt lat="2.854968" lon="-75.12072">
        <ele>1035.3</ele>
        <time>2021-08-21T12:45:21Z</time>
      </trkpt>
      <trkpt lat="2.854958" lon="-75.120705">
        <ele>1035.5</ele>
        <time>2021-08-21T12:45:22Z</time>
      </trkpt>
      <trkpt lat="2.854949" lon="-75.12068">
        <ele>1035.7</ele>
        <time>2021-08-21T12:45:23Z</time>
      </trkpt>
      <trkpt lat="2.854942" lon="-75.12067">
        <ele>1035.8</ele>
        <time>2021-08-21T12:45:24Z</time>
      </trkpt>
      <trkpt lat="2.854937" lon="-75.12065">
        <ele>1036.0</ele>
        <time>2021-08-21T12:45:25Z</time>
      </trkpt>
      <trkpt lat="2.854926" lon="-75.12061">
        <ele>1036.3</ele>
        <time>2021-08-21T12:45:27Z</time>
      </trkpt>
      <trkpt lat="2.854929" lon="-75.12062">
        <ele>1036.2</ele>
        <time>2021-08-21T12:45:27Z</time>
      </trkpt>
      <trkpt lat="2.854921" lon="-75.12059">
        <ele>1036.5</ele>
        <time>2021-08-21T12:45:28Z</time>
      </trkpt>
      <trkpt lat="2.854917" lon="-75.12057">
        <ele>1036.7</ele>
        <time>2021-08-21T12:45:29Z</time>
      </trkpt>
      <trkpt lat="2.854913" lon="-75.120544">
        <ele>1036.9</ele>
        <time>2021-08-21T12:45:30Z</time>
      </trkpt>
      <trkpt lat="2.854911" lon="-75.12052">
        <ele>1037.1</ele>
        <time>2021-08-21T12:45:31Z</time>
      </trkpt>
      <trkpt lat="2.854909" lon="-75.1205">
        <ele>1037.3</ele>
        <time>2021-08-21T12:45:32Z</time>
      </trkpt>
      <trkpt lat="2.854904" lon="-75.12046">
        <ele>1037.7</ele>
        <time>2021-08-21T12:45:34Z</time>
      </trkpt>
      <trkpt lat="2.854906" lon="-75.12047">
        <ele>1037.6</ele>
        <time>2021-08-21T12:45:34Z</time>
      </trkpt>
      <trkpt lat="2.854901" lon="-75.12044">
        <ele>1037.9</ele>
        <time>2021-08-21T12:45:35Z</time>
      </trkpt>
      <trkpt lat="2.854899" lon="-75.12042">
        <ele>1038.1</ele>
        <time>2021-08-21T12:45:36Z</time>
      </trkpt>
      <trkpt lat="2.8549" lon="-75.120384">
        <ele>1038.4</ele>
        <time>2021-08-21T12:45:37Z</time>
      </trkpt>
      <trkpt lat="2.854901" lon="-75.12037">
        <ele>1038.5</ele>
        <time>2021-08-21T12:45:38Z</time>
      </trkpt>
      <trkpt lat="2.854903" lon="-75.12035">
        <ele>1038.7</ele>
        <time>2021-08-21T12:45:39Z</time>
      </trkpt>
      <trkpt lat="2.854904" lon="-75.12034">
        <ele>1038.8</ele>
        <time>2021-08-21T12:45:40Z</time>
      </trkpt>
      <trkpt lat="2.854906" lon="-75.12033">
        <ele>1039.0</ele>
        <time>2021-08-21T12:45:41Z</time>
      </trkpt>
      <trkpt lat="2.854907" lon="-75.120316">
        <ele>1039.1</ele>
        <time>2021-08-21T12:45:42Z</time>
      </trkpt>
      <trkpt lat="2.854909" lon="-75.1203">
        <ele>1039.2</ele>
        <time>2021-08-21T12:45:43Z</time>
      </trkpt>
      <trkpt lat="2.85491" lon="-75.120285">
        <ele>1039.4</ele>
        <time>2021-08-21T12:45:44Z</time>
      </trkpt>
      <trkpt lat="2.854912" lon="-75.12027">
        <ele>1039.5</ele>
        <time>2021-08-21T12:45:45Z</time>
      </trkpt>
      <trkpt lat="2.854914" lon="-75.120255">
        <ele>1039.7</ele>
        <time>2021-08-21T12:45:46Z</time>
      </trkpt>
      <trkpt lat="2.854915" lon="-75.12024">
        <ele>1039.8</ele>
        <time>2021-08-21T12:45:47Z</time>
      </trkpt>
      <trkpt lat="2.854917" lon="-75.120224">
        <ele>1040.0</ele>
        <time>2021-08-21T12:45:48Z</time>
      </trkpt>
      <trkpt lat="2.854918" lon="-75.12021">
        <ele>1040.1</ele>
        <time>2021-08-21T12:45:49Z</time>
      </trkpt>
      <trkpt lat="2.85492" lon="-75.12019">
        <ele>1040.3</ele>
        <time>2021-08-21T12:45:50Z</time>
      </trkpt>
      <trkpt lat="2.854921" lon="-75.12018">
        <ele>1040.4</ele>
        <time>2021-08-21T12:45:51Z</time>
      </trkpt>
      <trkpt lat="2.854923" lon="-75.12016">
        <ele>1040.6</ele>
        <time>2021-08-21T12:45:52Z</time>
      </trkpt>
      <trkpt lat="2.854924" lon="-75.12015">
        <ele>1040.7</ele>
        <time>2021-08-21T12:45:53Z</time>
      </trkpt>
      <trkpt lat="2.854926" lon="-75.12013">
        <ele>1040.9</ele>
        <time>2021-08-21T12:45:53Z</time>
      </trkpt>
      <trkpt lat="2.854933" lon="-75.1201">
        <ele>1041.2</ele>
        <time>2021-08-21T12:45:54Z</time>
      </trkpt>
      <trkpt lat="2.854936" lon="-75.12009">
        <ele>1041.3</ele>
        <time>2021-08-21T12:45:55Z</time>
      </trkpt>
      <trkpt lat="2.85494" lon="-75.12008">
        <ele>1041.4</ele>
        <time>2021-08-21T12:45:56Z</time>
      </trkpt>
      <trkpt lat="2.854943" lon="-75.12006">
        <ele>1041.5</ele>
        <time>2021-08-21T12:45:57Z</time>
      </trkpt>
      <trkpt lat="2.854947" lon="-75.12005">
        <ele>1041.7</ele>
        <time>2021-08-21T12:45:59Z</time>
      </trkpt>
      <trkpt lat="2.85495" lon="-75.12003">
        <ele>1041.8</ele>
        <time>2021-08-21T12:45:59Z</time>
      </trkpt>
      <trkpt lat="2.854953" lon="-75.12002">
        <ele>1042.0</ele>
        <time>2021-08-21T12:46:00Z</time>
      </trkpt>
      <trkpt lat="2.854956" lon="-75.12">
        <ele>1042.1</ele>
        <time>2021-08-21T12:46:01Z</time>
      </trkpt>
      <trkpt lat="2.854959" lon="-75.11999">
        <ele>1042.3</ele>
        <time>2021-08-21T12:46:02Z</time>
      </trkpt>
      <trkpt lat="2.85496" lon="-75.119965">
        <ele>1042.4</ele>
        <time>2021-08-21T12:46:03Z</time>
      </trkpt>
      <trkpt lat="2.854961" lon="-75.11995">
        <ele>1042.6</ele>
        <time>2021-08-21T12:46:04Z</time>
      </trkpt>
      <trkpt lat="2.854963" lon="-75.11992">
        <ele>1042.8</ele>
        <time>2021-08-21T12:46:06Z</time>
      </trkpt>
      <trkpt lat="2.854963" lon="-75.11991">
        <ele>1042.9</ele>
        <time>2021-08-21T12:46:06Z</time>
      </trkpt>
      <trkpt lat="2.854963" lon="-75.11989">
        <ele>1043.1</ele>
        <time>2021-08-21T12:46:07Z</time>
      </trkpt>
      <trkpt lat="2.854963" lon="-75.11987">
        <ele>1043.2</ele>
        <time>2021-08-21T12:46:08Z</time>
      </trkpt>
      <trkpt lat="2.854961" lon="-75.11985">
        <ele>1043.4</ele>
        <time>2021-08-21T12:46:09Z</time>
      </trkpt>
      <trkpt lat="2.854961" lon="-75.119835">
        <ele>1043.6</ele>
        <time>2021-08-21T12:46:10Z</time>
      </trkpt>
      <trkpt lat="2.85496" lon="-75.11981">
        <ele>1043.7</ele>
        <time>2021-08-21T12:46:11Z</time>
      </trkpt>
      <trkpt lat="2.85496" lon="-75.1198">
        <ele>1043.9</ele>
        <time>2021-08-21T12:46:12Z</time>
      </trkpt>
      <trkpt lat="2.854958" lon="-75.11978">
        <ele>1044.0</ele>
        <time>2021-08-21T12:46:13Z</time>
      </trkpt>
      <trkpt lat="2.854957" lon="-75.11976">
        <ele>1044.2</ele>
        <time>2021-08-21T12:46:14Z</time>
      </trkpt>
      <trkpt lat="2.854957" lon="-75.11974">
        <ele>1044.3</ele>
        <time>2021-08-21T12:46:15Z</time>
      </trkpt>
      <trkpt lat="2.854958" lon="-75.11972">
        <ele>1044.5</ele>
        <time>2021-08-21T12:46:16Z</time>
      </trkpt>
      <trkpt lat="2.854958" lon="-75.119705">
        <ele>1044.7</ele>
        <time>2021-08-21T12:46:17Z</time>
      </trkpt>
      <trkpt lat="2.854956" lon="-75.11969">
        <ele>1044.8</ele>
        <time>2021-08-21T12:46:18Z</time>
      </trkpt>
      <trkpt lat="2.854954" lon="-75.11967">
        <ele>1045.0</ele>
        <time>2021-08-21T12:46:19Z</time>
      </trkpt>
      <trkpt lat="2.854951" lon="-75.11965">
        <ele>1045.1</ele>
        <time>2021-08-21T12:46:20Z</time>
      </trkpt>
      <trkpt lat="2.854948" lon="-75.11963">
        <ele>1045.3</ele>
        <time>2021-08-21T12:46:21Z</time>
      </trkpt>
      <trkpt lat="2.854946" lon="-75.11961">
        <ele>1045.4</ele>
        <time>2021-08-21T12:46:22Z</time>
      </trkpt>
      <trkpt lat="2.854941" lon="-75.119576">
        <ele>1045.8</ele>
        <time>2021-08-21T12:46:24Z</time>
      </trkpt>
      <trkpt lat="2.854943" lon="-75.11958">
        <ele>1045.7</ele>
        <time>2021-08-21T12:46:24Z</time>
      </trkpt>
      <trkpt lat="2.854938" lon="-75.11956">
        <ele>1045.9</ele>
        <time>2021-08-21T12:46:25Z</time>
      </trkpt>
      <trkpt lat="2.854934" lon="-75.11954">
        <ele>1046.1</ele>
        <time>2021-08-21T12:46:26Z</time>
      </trkpt>
      <trkpt lat="2.85493" lon="-75.11952">
        <ele>1046.3</ele>
        <time>2021-08-21T12:46:27Z</time>
      </trkpt>
      <trkpt lat="2.854926" lon="-75.1195">
        <ele>1046.4</ele>
        <time>2021-08-21T12:46:28Z</time>
      </trkpt>
      <trkpt lat="2.854922" lon="-75.119484">
        <ele>1046.6</ele>
        <time>2021-08-21T12:46:29Z</time>
      </trkpt>
      <trkpt lat="2.854914" lon="-75.11945">
        <ele>1046.9</ele>
        <time>2021-08-21T12:46:31Z</time>
      </trkpt>
      <trkpt lat="2.854916" lon="-75.11946">
        <ele>1046.8</ele>
        <time>2021-08-21T12:46:31Z</time>
      </trkpt>
      <trkpt lat="2.854909" lon="-75.11943">
        <ele>1047.1</ele>
        <time>2021-08-21T12:46:32Z</time>
      </trkpt>
      <trkpt lat="2.854902" lon="-75.119415">
        <ele>1047.2</ele>
        <time>2021-08-21T12:46:33Z</time>
      </trkpt>
      <trkpt lat="2.854895" lon="-75.1194">
        <ele>1047.4</ele>
        <time>2021-08-21T12:46:34Z</time>
      </trkpt>
      <trkpt lat="2.854888" lon="-75.119385">
        <ele>1047.5</ele>
        <time>2021-08-21T12:46:35Z</time>
      </trkpt>
      <trkpt lat="2.85488" lon="-75.11937">
        <ele>1047.7</ele>
        <time>2021-08-21T12:46:36Z</time>
      </trkpt>
      <trkpt lat="2.854872" lon="-75.11935">
        <ele>1047.9</ele>
        <time>2021-08-21T12:46:37Z</time>
      </trkpt>
      <trkpt lat="2.854862" lon="-75.11933">
        <ele>1048.0</ele>
        <time>2021-08-21T12:46:38Z</time>
      </trkpt>
      <trkpt lat="2.854851" lon="-75.11931">
        <ele>1048.2</ele>
        <time>2021-08-21T12:46:39Z</time>
      </trkpt>
      <trkpt lat="2.85484" lon="-75.11929">
        <ele>1048.4</ele>
        <time>2021-08-21T12:46:40Z</time>
      </trkpt>
      <trkpt lat="2.854828" lon="-75.11928">
        <ele>1048.6</ele>
        <time>2021-08-21T12:46:41Z</time>
      </trkpt>
      <trkpt lat="2.854816" lon="-75.11926">
        <ele>1048.7</ele>
        <time>2021-08-21T12:46:42Z</time>
      </trkpt>
      <trkpt lat="2.854804" lon="-75.11924">
        <ele>1048.9</ele>
        <time>2021-08-21T12:46:43Z</time>
      </trkpt>
      <trkpt lat="2.854792" lon="-75.119225">
        <ele>1049.1</ele>
        <time>2021-08-21T12:46:44Z</time>
      </trkpt>
      <trkpt lat="2.854781" lon="-75.1192">
        <ele>1049.3</ele>
        <time>2021-08-21T12:46:45Z</time>
      </trkpt>
      <trkpt lat="2.854769" lon="-75.11919">
        <ele>1049.4</ele>
        <time>2021-08-21T12:46:46Z</time>
      </trkpt>
      <trkpt lat="2.854757" lon="-75.11916">
        <ele>1049.6</ele>
        <time>2021-08-21T12:46:47Z</time>
      </trkpt>
      <trkpt lat="2.854744" lon="-75.11915">
        <ele>1049.8</ele>
        <time>2021-08-21T12:46:48Z</time>
      </trkpt>
      <trkpt lat="2.854732" lon="-75.11913">
        <ele>1049.9</ele>
        <time>2021-08-21T12:46:49Z</time>
      </trkpt>
      <trkpt lat="2.85472" lon="-75.11911">
        <ele>1050.1</ele>
        <time>2021-08-21T12:46:50Z</time>
      </trkpt>
      <trkpt lat="2.854708" lon="-75.11909">
        <ele>1050.3</ele>
        <time>2021-08-21T12:46:51Z</time>
      </trkpt>
      <trkpt lat="2.854696" lon="-75.11907">
        <ele>1050.4</ele>
        <time>2021-08-21T12:46:52Z</time>
      </trkpt>
      <trkpt lat="2.854683" lon="-75.11906">
        <ele>1050.6</ele>
        <time>2021-08-21T12:46:53Z</time>
      </trkpt>
      <trkpt lat="2.854669" lon="-75.11903">
        <ele>1050.8</ele>
        <time>2021-08-21T12:46:54Z</time>
      </trkpt>
      <trkpt lat="2.854656" lon="-75.11902">
        <ele>1050.9</ele>
        <time>2021-08-21T12:46:55Z</time>
      </trkpt>
      <trkpt lat="2.854631" lon="-75.11898">
        <ele>1051.2</ele>
        <time>2021-08-21T12:46:57Z</time>
      </trkpt>
      <trkpt lat="2.854637" lon="-75.11899">
        <ele>1051.2</ele>
        <time>2021-08-21T12:46:57Z</time>
      </trkpt>
      <trkpt lat="2.85462" lon="-75.11896">
        <ele>1051.4</ele>
        <time>2021-08-21T12:46:58Z</time>
      </trkpt>
      <trkpt lat="2.85461" lon="-75.11894">
        <ele>1051.5</ele>
        <time>2021-08-21T12:46:59Z</time>
      </trkpt>
      <trkpt lat="2.854601" lon="-75.11892">
        <ele>1051.7</ele>
        <time>2021-08-21T12:47:00Z</time>
      </trkpt>
      <trkpt lat="2.854596" lon="-75.1189">
        <ele>1051.8</ele>
        <time>2021-08-21T12:47:01Z</time>
      </trkpt>
      <trkpt lat="2.854592" lon="-75.11888">
        <ele>1051.9</ele>
        <time>2021-08-21T12:47:02Z</time>
      </trkpt>
      <trkpt lat="2.854589" lon="-75.11884">
        <ele>1052.2</ele>
        <time>2021-08-21T12:47:04Z</time>
      </trkpt>
      <trkpt lat="2.854589" lon="-75.118835">
        <ele>1052.2</ele>
        <time>2021-08-21T12:47:04Z</time>
      </trkpt>
      <trkpt lat="2.854591" lon="-75.11881">
        <ele>1052.4</ele>
        <time>2021-08-21T12:47:05Z</time>
      </trkpt>
      <trkpt lat="2.854596" lon="-75.11878">
        <ele>1052.5</ele>
        <time>2021-08-21T12:47:06Z</time>
      </trkpt>
      <trkpt lat="2.854603" lon="-75.11876">
        <ele>1052.7</ele>
        <time>2021-08-21T12:47:07Z</time>
      </trkpt>
      <trkpt lat="2.854611" lon="-75.11874">
        <ele>1052.8</ele>
        <time>2021-08-21T12:47:08Z</time>
      </trkpt>
      <trkpt lat="2.854619" lon="-75.11871">
        <ele>1052.9</ele>
        <time>2021-08-21T12:47:09Z</time>
      </trkpt>
      <trkpt lat="2.854631" lon="-75.11869">
        <ele>1053.1</ele>
        <time>2021-08-21T12:47:10Z</time>
      </trkpt>
      <trkpt lat="2.854644" lon="-75.11867">
        <ele>1053.2</ele>
        <time>2021-08-21T12:47:11Z</time>
      </trkpt>
      <trkpt lat="2.854659" lon="-75.118645">
        <ele>1053.4</ele>
        <time>2021-08-21T12:47:12Z</time>
      </trkpt>
      <trkpt lat="2.854674" lon="-75.11863">
        <ele>1053.5</ele>
        <time>2021-08-21T12:47:13Z</time>
      </trkpt>
      <trkpt lat="2.854689" lon="-75.118614">
        <ele>1053.6</ele>
        <time>2021-08-21T12:47:14Z</time>
      </trkpt>
      <trkpt lat="2.854705" lon="-75.11859">
        <ele>1053.7</ele>
        <time>2021-08-21T12:47:15Z</time>
      </trkpt>
      <trkpt lat="2.854721" lon="-75.118576">
        <ele>1053.8</ele>
        <time>2021-08-21T12:47:16Z</time>
      </trkpt>
      <trkpt lat="2.854735" lon="-75.11856">
        <ele>1053.9</ele>
        <time>2021-08-21T12:47:17Z</time>
      </trkpt>
      <trkpt lat="2.854748" lon="-75.11854">
        <ele>1054.0</ele>
        <time>2021-08-21T12:47:18Z</time>
      </trkpt>
      <trkpt lat="2.854761" lon="-75.11852">
        <ele>1054.1</ele>
        <time>2021-08-21T12:47:19Z</time>
      </trkpt>
      <trkpt lat="2.854773" lon="-75.1185">
        <ele>1054.2</ele>
        <time>2021-08-21T12:47:20Z</time>
      </trkpt>
      <trkpt lat="2.85479" lon="-75.11847">
        <ele>1054.3</ele>
        <time>2021-08-21T12:47:22Z</time>
      </trkpt>
      <trkpt lat="2.854795" lon="-75.118454">
        <ele>1054.4</ele>
        <time>2021-08-21T12:47:22Z</time>
      </trkpt>
      <trkpt lat="2.854806" lon="-75.11844">
        <ele>1054.5</ele>
        <time>2021-08-21T12:47:23Z</time>
      </trkpt>
      <trkpt lat="2.854815" lon="-75.118416">
        <ele>1054.6</ele>
        <time>2021-08-21T12:47:24Z</time>
      </trkpt>
      <trkpt lat="2.854826" lon="-75.1184">
        <ele>1054.7</ele>
        <time>2021-08-21T12:47:25Z</time>
      </trkpt>
      <trkpt lat="2.854837" lon="-75.11838">
        <ele>1054.8</ele>
        <time>2021-08-21T12:47:26Z</time>
      </trkpt>
      <trkpt lat="2.854847" lon="-75.11836">
        <ele>1054.9</ele>
        <time>2021-08-21T12:47:27Z</time>
      </trkpt>
      <trkpt lat="2.854861" lon="-75.11833">
        <ele>1055.0</ele>
        <time>2021-08-21T12:47:29Z</time>
      </trkpt>
      <trkpt lat="2.854865" lon="-75.118324">
        <ele>1055.1</ele>
        <time>2021-08-21T12:47:29Z</time>
      </trkpt>
      <trkpt lat="2.854873" lon="-75.1183">
        <ele>1055.2</ele>
        <time>2021-08-21T12:47:30Z</time>
      </trkpt>
      <trkpt lat="2.854882" lon="-75.11828">
        <ele>1055.4</ele>
        <time>2021-08-21T12:47:32Z</time>
      </trkpt>
      <trkpt lat="2.854885" lon="-75.11826">
        <ele>1055.4</ele>
        <time>2021-08-21T12:47:32Z</time>
      </trkpt>
      <trkpt lat="2.854891" lon="-75.11825">
        <ele>1055.5</ele>
        <time>2021-08-21T12:47:33Z</time>
      </trkpt>
      <trkpt lat="2.854898" lon="-75.118225">
        <ele>1055.6</ele>
        <time>2021-08-21T12:47:34Z</time>
      </trkpt>
      <trkpt lat="2.854908" lon="-75.118195">
        <ele>1055.8</ele>
        <time>2021-08-21T12:47:36Z</time>
      </trkpt>
      <trkpt lat="2.854911" lon="-75.11819">
        <ele>1055.9</ele>
        <time>2021-08-21T12:47:36Z</time>
      </trkpt>
      <trkpt lat="2.854918" lon="-75.118164">
        <ele>1056.0</ele>
        <time>2021-08-21T12:47:37Z</time>
      </trkpt>
      <trkpt lat="2.854924" lon="-75.11815">
        <ele>1056.1</ele>
        <time>2021-08-21T12:47:38Z</time>
      </trkpt>
      <trkpt lat="2.854929" lon="-75.11813">
        <ele>1056.2</ele>
        <time>2021-08-21T12:47:39Z</time>
      </trkpt>
      <trkpt lat="2.854934" lon="-75.11811">
        <ele>1056.3</ele>
        <time>2021-08-21T12:47:40Z</time>
      </trkpt>
      <trkpt lat="2.854941" lon="-75.118095">
        <ele>1056.5</ele>
        <time>2021-08-21T12:47:41Z</time>
      </trkpt>
      <trkpt lat="2.854948" lon="-75.11807">
        <ele>1056.6</ele>
        <time>2021-08-21T12:47:42Z</time>
      </trkpt>
      <trkpt lat="2.854954" lon="-75.11806">
        <ele>1056.8</ele>
        <time>2021-08-21T12:47:43Z</time>
      </trkpt>
      <trkpt lat="2.854962" lon="-75.11804">
        <ele>1056.9</ele>
        <time>2021-08-21T12:47:44Z</time>
      </trkpt>
      <trkpt lat="2.85497" lon="-75.11802">
        <ele>1057.1</ele>
        <time>2021-08-21T12:47:45Z</time>
      </trkpt>
      <trkpt lat="2.854978" lon="-75.118004">
        <ele>1057.2</ele>
        <time>2021-08-21T12:47:46Z</time>
      </trkpt>
      <trkpt lat="2.854987" lon="-75.11799">
        <ele>1057.3</ele>
        <time>2021-08-21T12:47:47Z</time>
      </trkpt>
      <trkpt lat="2.854996" lon="-75.11797">
        <ele>1057.5</ele>
        <time>2021-08-21T12:47:48Z</time>
      </trkpt>
      <trkpt lat="2.855005" lon="-75.11796">
        <ele>1057.6</ele>
        <time>2021-08-21T12:47:49Z</time>
      </trkpt>
      <trkpt lat="2.855014" lon="-75.11794">
        <ele>1057.7</ele>
        <time>2021-08-21T12:47:50Z</time>
      </trkpt>
      <trkpt lat="2.855022" lon="-75.11793">
        <ele>1057.9</ele>
        <time>2021-08-21T12:47:51Z</time>
      </trkpt>
      <trkpt lat="2.85503" lon="-75.11791">
        <ele>1058.0</ele>
        <time>2021-08-21T12:47:52Z</time>
      </trkpt>
      <trkpt lat="2.855037" lon="-75.11789">
        <ele>1058.2</ele>
        <time>2021-08-21T12:47:53Z</time>
      </trkpt>
      <trkpt lat="2.855044" lon="-75.117874">
        <ele>1058.4</ele>
        <time>2021-08-21T12:47:54Z</time>
      </trkpt>
      <trkpt lat="2.85505" lon="-75.11786">
        <ele>1058.5</ele>
        <time>2021-08-21T12:47:55Z</time>
      </trkpt>
      <trkpt lat="2.855056" lon="-75.11784">
        <ele>1058.7</ele>
        <time>2021-08-21T12:47:56Z</time>
      </trkpt>
      <trkpt lat="2.855067" lon="-75.11781">
        <ele>1058.9</ele>
        <time>2021-08-21T12:47:58Z</time>
      </trkpt>
      <trkpt lat="2.85507" lon="-75.117805">
        <ele>1059.0</ele>
        <time>2021-08-21T12:47:58Z</time>
      </trkpt>
      <trkpt lat="2.855076" lon="-75.11779">
        <ele>1059.2</ele>
        <time>2021-08-21T12:47:59Z</time>
      </trkpt>
      <trkpt lat="2.855082" lon="-75.11777">
        <ele>1059.4</ele>
        <time>2021-08-21T12:48:00Z</time>
      </trkpt>
      <trkpt lat="2.855092" lon="-75.117744">
        <ele>1059.7</ele>
        <time>2021-08-21T12:48:02Z</time>
      </trkpt>
      <trkpt lat="2.855095" lon="-75.11773">
        <ele>1059.8</ele>
        <time>2021-08-21T12:48:02Z</time>
      </trkpt>
      <trkpt lat="2.855103" lon="-75.117714">
        <ele>1059.9</ele>
        <time>2021-08-21T12:48:03Z</time>
      </trkpt>
      <trkpt lat="2.85511" lon="-75.1177">
        <ele>1060.1</ele>
        <time>2021-08-21T12:48:04Z</time>
      </trkpt>
      <trkpt lat="2.855117" lon="-75.117676">
        <ele>1060.3</ele>
        <time>2021-08-21T12:48:05Z</time>
      </trkpt>
      <trkpt lat="2.855124" lon="-75.11766">
        <ele>1060.5</ele>
        <time>2021-08-21T12:48:06Z</time>
      </trkpt>
      <trkpt lat="2.85513" lon="-75.11764">
        <ele>1060.7</ele>
        <time>2021-08-21T12:48:07Z</time>
      </trkpt>
      <trkpt lat="2.855139" lon="-75.11762">
        <ele>1060.9</ele>
        <time>2021-08-21T12:48:08Z</time>
      </trkpt>
      <trkpt lat="2.855148" lon="-75.11761">
        <ele>1061.1</ele>
        <time>2021-08-21T12:48:09Z</time>
      </trkpt>
      <trkpt lat="2.855156" lon="-75.117584">
        <ele>1061.3</ele>
        <time>2021-08-21T12:48:10Z</time>
      </trkpt>
      <trkpt lat="2.855164" lon="-75.11757">
        <ele>1061.4</ele>
        <time>2021-08-21T12:48:11Z</time>
      </trkpt>
      <trkpt lat="2.855171" lon="-75.11755">
        <ele>1061.6</ele>
        <time>2021-08-21T12:48:12Z</time>
      </trkpt>
      <trkpt lat="2.855178" lon="-75.11753">
        <ele>1061.8</ele>
        <time>2021-08-21T12:48:13Z</time>
      </trkpt>
      <trkpt lat="2.855186" lon="-75.117516">
        <ele>1062.0</ele>
        <time>2021-08-21T12:48:14Z</time>
      </trkpt>
      <trkpt lat="2.855194" lon="-75.1175">
        <ele>1062.2</ele>
        <time>2021-08-21T12:48:15Z</time>
      </trkpt>
      <trkpt lat="2.855201" lon="-75.117485">
        <ele>1062.4</ele>
        <time>2021-08-21T12:48:16Z</time>
      </trkpt>
      <trkpt lat="2.855207" lon="-75.11747">
        <ele>1062.6</ele>
        <time>2021-08-21T12:48:17Z</time>
      </trkpt>
      <trkpt lat="2.855213" lon="-75.11745">
        <ele>1062.8</ele>
        <time>2021-08-21T12:48:18Z</time>
      </trkpt>
      <trkpt lat="2.855218" lon="-75.11743">
        <ele>1063.0</ele>
        <time>2021-08-21T12:48:19Z</time>
      </trkpt>
      <trkpt lat="2.855223" lon="-75.11741">
        <ele>1063.2</ele>
        <time>2021-08-21T12:48:20Z</time>
      </trkpt>
      <trkpt lat="2.855226" lon="-75.11739">
        <ele>1063.4</ele>
        <time>2021-08-21T12:48:21Z</time>
      </trkpt>
      <trkpt lat="2.855229" lon="-75.11737">
        <ele>1063.6</ele>
        <time>2021-08-21T12:48:22Z</time>
      </trkpt>
      <trkpt lat="2.855231" lon="-75.117355">
        <ele>1063.7</ele>
        <time>2021-08-21T12:48:23Z</time>
      </trkpt>
      <trkpt lat="2.855231" lon="-75.11734">
        <ele>1063.9</ele>
        <time>2021-08-21T12:48:24Z</time>
      </trkpt>
      <trkpt lat="2.855229" lon="-75.11731">
        <ele>1064.2</ele>
        <time>2021-08-21T12:48:25Z</time>
      </trkpt>
      <trkpt lat="2.855226" lon="-75.11729">
        <ele>1064.4</ele>
        <time>2021-08-21T12:48:27Z</time>
      </trkpt>
      <trkpt lat="2.855227" lon="-75.117294">
        <ele>1064.3</ele>
        <time>2021-08-21T12:48:27Z</time>
      </trkpt>
      <trkpt lat="2.855221" lon="-75.11727">
        <ele>1064.5</ele>
        <time>2021-08-21T12:48:28Z</time>
      </trkpt>
      <trkpt lat="2.855215" lon="-75.11725">
        <ele>1064.7</ele>
        <time>2021-08-21T12:48:29Z</time>
      </trkpt>
      <trkpt lat="2.855208" lon="-75.11723">
        <ele>1064.9</ele>
        <time>2021-08-21T12:48:30Z</time>
      </trkpt>
      <trkpt lat="2.855201" lon="-75.11721">
        <ele>1065.0</ele>
        <time>2021-08-21T12:48:31Z</time>
      </trkpt>
      <trkpt lat="2.855195" lon="-75.117195">
        <ele>1065.2</ele>
        <time>2021-08-21T12:48:32Z</time>
      </trkpt>
      <trkpt lat="2.855181" lon="-75.11716">
        <ele>1065.5</ele>
        <time>2021-08-21T12:48:34Z</time>
      </trkpt>
      <trkpt lat="2.855185" lon="-75.117165">
        <ele>1065.4</ele>
        <time>2021-08-21T12:48:34Z</time>
      </trkpt>
      <trkpt lat="2.855172" lon="-75.117134">
        <ele>1065.7</ele>
        <time>2021-08-21T12:48:35Z</time>
      </trkpt>
      <trkpt lat="2.855162" lon="-75.11712">
        <ele>1065.9</ele>
        <time>2021-08-21T12:48:36Z</time>
      </trkpt>
      <trkpt lat="2.855152" lon="-75.1171">
        <ele>1066.1</ele>
        <time>2021-08-21T12:48:37Z</time>
      </trkpt>
      <trkpt lat="2.855142" lon="-75.11708">
        <ele>1066.2</ele>
        <time>2021-08-21T12:48:38Z</time>
      </trkpt>
      <trkpt lat="2.855133" lon="-75.117065">
        <ele>1066.4</ele>
        <time>2021-08-21T12:48:39Z</time>
      </trkpt>
      <trkpt lat="2.855125" lon="-75.11705">
        <ele>1066.6</ele>
        <time>2021-08-21T12:48:40Z</time>
      </trkpt>
      <trkpt lat="2.855116" lon="-75.11704">
        <ele>1066.7</ele>
        <time>2021-08-21T12:48:41Z</time>
      </trkpt>
      <trkpt lat="2.855106" lon="-75.11703">
        <ele>1066.9</ele>
        <time>2021-08-21T12:48:42Z</time>
      </trkpt>
      <trkpt lat="2.855096" lon="-75.11701">
        <ele>1067.1</ele>
        <time>2021-08-21T12:48:43Z</time>
      </trkpt>
      <trkpt lat="2.855087" lon="-75.117">
        <ele>1067.2</ele>
        <time>2021-08-21T12:48:44Z</time>
      </trkpt>
      <trkpt lat="2.855077" lon="-75.11698">
        <ele>1067.4</ele>
        <time>2021-08-21T12:48:45Z</time>
      </trkpt>
      <trkpt lat="2.855067" lon="-75.11697">
        <ele>1067.6</ele>
        <time>2021-08-21T12:48:46Z</time>
      </trkpt>
      <trkpt lat="2.855057" lon="-75.11695">
        <ele>1067.8</ele>
        <time>2021-08-21T12:48:47Z</time>
      </trkpt>
      <trkpt lat="2.855047" lon="-75.116936">
        <ele>1068.0</ele>
        <time>2021-08-21T12:48:48Z</time>
      </trkpt>
      <trkpt lat="2.855037" lon="-75.11692">
        <ele>1068.2</ele>
        <time>2021-08-21T12:48:49Z</time>
      </trkpt>
      <trkpt lat="2.855028" lon="-75.116905">
        <ele>1068.4</ele>
        <time>2021-08-21T12:48:50Z</time>
      </trkpt>
      <trkpt lat="2.855019" lon="-75.11689">
        <ele>1068.5</ele>
        <time>2021-08-21T12:48:51Z</time>
      </trkpt>
      <trkpt lat="2.855009" lon="-75.116875">
        <ele>1068.7</ele>
        <time>2021-08-21T12:48:52Z</time>
      </trkpt>
      <trkpt lat="2.854999" lon="-75.11686">
        <ele>1068.9</ele>
        <time>2021-08-21T12:48:53Z</time>
      </trkpt>
      <trkpt lat="2.854989" lon="-75.116844">
        <ele>1069.1</ele>
        <time>2021-08-21T12:48:54Z</time>
      </trkpt>
      <trkpt lat="2.854978" lon="-75.11683">
        <ele>1069.3</ele>
        <time>2021-08-21T12:48:55Z</time>
      </trkpt>
      <trkpt lat="2.854968" lon="-75.11681">
        <ele>1069.5</ele>
        <time>2021-08-21T12:48:56Z</time>
      </trkpt>
      <trkpt lat="2.854957" lon="-75.1168">
        <ele>1069.7</ele>
        <time>2021-08-21T12:48:57Z</time>
      </trkpt>
      <trkpt lat="2.854947" lon="-75.11678">
        <ele>1069.8</ele>
        <time>2021-08-21T12:48:58Z</time>
      </trkpt>
      <trkpt lat="2.854927" lon="-75.11675">
        <ele>1070.2</ele>
        <time>2021-08-21T12:49:00Z</time>
      </trkpt>
      <trkpt lat="2.854932" lon="-75.11676">
        <ele>1070.1</ele>
        <time>2021-08-21T12:49:00Z</time>
      </trkpt>
      <trkpt lat="2.854918" lon="-75.11673">
        <ele>1070.4</ele>
        <time>2021-08-21T12:49:01Z</time>
      </trkpt>
      <trkpt lat="2.854912" lon="-75.116714">
        <ele>1070.6</ele>
        <time>2021-08-21T12:49:02Z</time>
      </trkpt>
      <trkpt lat="2.854906" lon="-75.1167">
        <ele>1070.8</ele>
        <time>2021-08-21T12:49:03Z</time>
      </trkpt>
      <trkpt lat="2.854902" lon="-75.11668">
        <ele>1071.0</ele>
        <time>2021-08-21T12:49:04Z</time>
      </trkpt>
      <trkpt lat="2.854899" lon="-75.11666">
        <ele>1071.2</ele>
        <time>2021-08-21T12:49:05Z</time>
      </trkpt>
      <trkpt lat="2.854898" lon="-75.11663">
        <ele>1071.4</ele>
        <time>2021-08-21T12:49:07Z</time>
      </trkpt>
      <trkpt lat="2.854898" lon="-75.11662">
        <ele>1071.5</ele>
        <time>2021-08-21T12:49:07Z</time>
      </trkpt>
      <trkpt lat="2.854902" lon="-75.11661">
        <ele>1071.6</ele>
        <time>2021-08-21T12:49:08Z</time>
      </trkpt>
      <trkpt lat="2.854907" lon="-75.11659">
        <ele>1071.8</ele>
        <time>2021-08-21T12:49:09Z</time>
      </trkpt>
      <trkpt lat="2.854913" lon="-75.11658">
        <ele>1072.0</ele>
        <time>2021-08-21T12:49:10Z</time>
      </trkpt>
      <trkpt lat="2.85492" lon="-75.116554">
        <ele>1072.1</ele>
        <time>2021-08-21T12:49:11Z</time>
      </trkpt>
      <trkpt lat="2.854928" lon="-75.11654">
        <ele>1072.3</ele>
        <time>2021-08-21T12:49:12Z</time>
      </trkpt>
      <trkpt lat="2.854937" lon="-75.11652">
        <ele>1072.5</ele>
        <time>2021-08-21T12:49:13Z</time>
      </trkpt>
      <trkpt lat="2.854946" lon="-75.11651">
        <ele>1072.6</ele>
        <time>2021-08-21T12:49:14Z</time>
      </trkpt>
      <trkpt lat="2.854956" lon="-75.116486">
        <ele>1072.8</ele>
        <time>2021-08-21T12:49:15Z</time>
      </trkpt>
      <trkpt lat="2.854965" lon="-75.11647">
        <ele>1073.0</ele>
        <time>2021-08-21T12:49:16Z</time>
      </trkpt>
      <trkpt lat="2.854973" lon="-75.11645">
        <ele>1073.2</ele>
        <time>2021-08-21T12:49:17Z</time>
      </trkpt>
      <trkpt lat="2.854982" lon="-75.11643">
        <ele>1073.3</ele>
        <time>2021-08-21T12:49:18Z</time>
      </trkpt>
      <trkpt lat="2.854991" lon="-75.11642">
        <ele>1073.5</ele>
        <time>2021-08-21T12:49:19Z</time>
      </trkpt>
      <trkpt lat="2.855" lon="-75.1164">
        <ele>1073.7</ele>
        <time>2021-08-21T12:49:20Z</time>
      </trkpt>
      <trkpt lat="2.855009" lon="-75.11638">
        <ele>1073.8</ele>
        <time>2021-08-21T12:49:21Z</time>
      </trkpt>
      <trkpt lat="2.855017" lon="-75.11636">
        <ele>1074.0</ele>
        <time>2021-08-21T12:49:22Z</time>
      </trkpt>
      <trkpt lat="2.855027" lon="-75.11635">
        <ele>1074.1</ele>
        <time>2021-08-21T12:49:23Z</time>
      </trkpt>
      <trkpt lat="2.855042" lon="-75.11632">
        <ele>1074.3</ele>
        <time>2021-08-21T12:49:25Z</time>
      </trkpt>
      <trkpt lat="2.855047" lon="-75.11631">
        <ele>1074.4</ele>
        <time>2021-08-21T12:49:25Z</time>
      </trkpt>
      <trkpt lat="2.855057" lon="-75.116295">
        <ele>1074.6</ele>
        <time>2021-08-21T12:49:26Z</time>
      </trkpt>
      <trkpt lat="2.855066" lon="-75.11628">
        <ele>1074.7</ele>
        <time>2021-08-21T12:49:27Z</time>
      </trkpt>
      <trkpt lat="2.855075" lon="-75.116264">
        <ele>1074.9</ele>
        <time>2021-08-21T12:49:28Z</time>
      </trkpt>
      <trkpt lat="2.855085" lon="-75.11625">
        <ele>1075.0</ele>
        <time>2021-08-21T12:49:29Z</time>
      </trkpt>
      <trkpt lat="2.855094" lon="-75.11623">
        <ele>1075.2</ele>
        <time>2021-08-21T12:49:30Z</time>
      </trkpt>
      <trkpt lat="2.85511" lon="-75.1162">
        <ele>1075.4</ele>
        <time>2021-08-21T12:49:32Z</time>
      </trkpt>
      <trkpt lat="2.855115" lon="-75.116196">
        <ele>1075.5</ele>
        <time>2021-08-21T12:49:32Z</time>
      </trkpt>
      <trkpt lat="2.855124" lon="-75.11617">
        <ele>1075.7</ele>
        <time>2021-08-21T12:49:33Z</time>
      </trkpt>
      <trkpt lat="2.855132" lon="-75.11616">
        <ele>1075.8</ele>
        <time>2021-08-21T12:49:34Z</time>
      </trkpt>
      <trkpt lat="2.85514" lon="-75.116135">
        <ele>1076.0</ele>
        <time>2021-08-21T12:49:35Z</time>
      </trkpt>
      <trkpt lat="2.855147" lon="-75.11611">
        <ele>1076.2</ele>
        <time>2021-08-21T12:49:36Z</time>
      </trkpt>
      <trkpt lat="2.855155" lon="-75.1161">
        <ele>1076.3</ele>
        <time>2021-08-21T12:49:37Z</time>
      </trkpt>
      <trkpt lat="2.855164" lon="-75.11607">
        <ele>1076.5</ele>
        <time>2021-08-21T12:49:38Z</time>
      </trkpt>
      <trkpt lat="2.855171" lon="-75.11605">
        <ele>1076.6</ele>
        <time>2021-08-21T12:49:39Z</time>
      </trkpt>
      <trkpt lat="2.855178" lon="-75.116035">
        <ele>1076.8</ele>
        <time>2021-08-21T12:49:40Z</time>
      </trkpt>
      <trkpt lat="2.855185" lon="-75.11601">
        <ele>1076.9</ele>
        <time>2021-08-21T12:49:41Z</time>
      </trkpt>
      <trkpt lat="2.855191" lon="-75.11599">
        <ele>1077.0</ele>
        <time>2021-08-21T12:49:42Z</time>
      </trkpt>
      <trkpt lat="2.855196" lon="-75.11597">
        <ele>1077.2</ele>
        <time>2021-08-21T12:49:43Z</time>
      </trkpt>
      <trkpt lat="2.855199" lon="-75.11594">
        <ele>1077.3</ele>
        <time>2021-08-21T12:49:44Z</time>
      </trkpt>
      <trkpt lat="2.855201" lon="-75.11591">
        <ele>1077.3</ele>
        <time>2021-08-21T12:49:45Z</time>
      </trkpt>
      <trkpt lat="2.855198" lon="-75.11589">
        <ele>1077.4</ele>
        <time>2021-08-21T12:49:46Z</time>
      </trkpt>
      <trkpt lat="2.855188" lon="-75.11587">
        <ele>1077.4</ele>
        <time>2021-08-21T12:49:47Z</time>
      </trkpt>
      <trkpt lat="2.855174" lon="-75.11585">
        <ele>1077.5</ele>
        <time>2021-08-21T12:49:48Z</time>
      </trkpt>
      <trkpt lat="2.855157" lon="-75.11583">
        <ele>1077.5</ele>
        <time>2021-08-21T12:49:49Z</time>
      </trkpt>
      <trkpt lat="2.855138" lon="-75.115814">
        <ele>1077.5</ele>
        <time>2021-08-21T12:49:50Z</time>
      </trkpt>
      <trkpt lat="2.855118" lon="-75.11581">
        <ele>1077.6</ele>
        <time>2021-08-21T12:49:51Z</time>
      </trkpt>
      <trkpt lat="2.855097" lon="-75.1158">
        <ele>1077.6</ele>
        <time>2021-08-21T12:49:52Z</time>
      </trkpt>
      <trkpt lat="2.855075" lon="-75.1158">
        <ele>1077.6</ele>
        <time>2021-08-21T12:49:53Z</time>
      </trkpt>
      <trkpt lat="2.855054" lon="-75.1158">
        <ele>1077.6</ele>
        <time>2021-08-21T12:49:54Z</time>
      </trkpt>
      <trkpt lat="2.855033" lon="-75.1158">
        <ele>1077.7</ele>
        <time>2021-08-21T12:49:55Z</time>
      </trkpt>
      <trkpt lat="2.855013" lon="-75.11581">
        <ele>1077.7</ele>
        <time>2021-08-21T12:49:56Z</time>
      </trkpt>
      <trkpt lat="2.854974" lon="-75.11582">
        <ele>1077.7</ele>
        <time>2021-08-21T12:49:58Z</time>
      </trkpt>
      <trkpt lat="2.854984" lon="-75.11582">
        <ele>1077.7</ele>
        <time>2021-08-21T12:49:58Z</time>
      </trkpt>
      <trkpt lat="2.854956" lon="-75.11584">
        <ele>1077.7</ele>
        <time>2021-08-21T12:49:59Z</time>
      </trkpt>
      <trkpt lat="2.854938" lon="-75.115845">
        <ele>1077.8</ele>
        <time>2021-08-21T12:50:00Z</time>
      </trkpt>
      <trkpt lat="2.85492" lon="-75.11586">
        <ele>1077.8</ele>
        <time>2021-08-21T12:50:01Z</time>
      </trkpt>
      <trkpt lat="2.854903" lon="-75.11588">
        <ele>1077.8</ele>
        <time>2021-08-21T12:50:02Z</time>
      </trkpt>
      <trkpt lat="2.854886" lon="-75.1159">
        <ele>1077.9</ele>
        <time>2021-08-21T12:50:03Z</time>
      </trkpt>
      <trkpt lat="2.854851" lon="-75.11594">
        <ele>1077.9</ele>
        <time>2021-08-21T12:50:05Z</time>
      </trkpt>
      <trkpt lat="2.854861" lon="-75.11593">
        <ele>1077.9</ele>
        <time>2021-08-21T12:50:05Z</time>
      </trkpt>
      <trkpt lat="2.854834" lon="-75.11596">
        <ele>1078.0</ele>
        <time>2021-08-21T12:50:06Z</time>
      </trkpt>
      <trkpt lat="2.854818" lon="-75.115974">
        <ele>1078.0</ele>
        <time>2021-08-21T12:50:07Z</time>
      </trkpt>
      <trkpt lat="2.854786" lon="-75.11601">
        <ele>1078.1</ele>
        <time>2021-08-21T12:50:08Z</time>
      </trkpt>
      <trkpt lat="2.854802" lon="-75.116">
        <ele>1078.0</ele>
        <time>2021-08-21T12:50:08Z</time>
      </trkpt>
      <trkpt lat="2.85477" lon="-75.116035">
        <ele>1078.1</ele>
        <time>2021-08-21T12:50:09Z</time>
      </trkpt>
      <trkpt lat="2.854754" lon="-75.11606">
        <ele>1078.2</ele>
        <time>2021-08-21T12:50:10Z</time>
      </trkpt>
      <trkpt lat="2.854738" lon="-75.11607">
        <ele>1078.2</ele>
        <time>2021-08-21T12:50:11Z</time>
      </trkpt>
      <trkpt lat="2.854722" lon="-75.1161">
        <ele>1078.2</ele>
        <time>2021-08-21T12:50:12Z</time>
      </trkpt>
      <trkpt lat="2.854707" lon="-75.11611">
        <ele>1078.3</ele>
        <time>2021-08-21T12:50:13Z</time>
      </trkpt>
      <trkpt lat="2.854691" lon="-75.116135">
        <ele>1078.3</ele>
        <time>2021-08-21T12:50:14Z</time>
      </trkpt>
      <trkpt lat="2.854675" lon="-75.11615">
        <ele>1078.4</ele>
        <time>2021-08-21T12:50:15Z</time>
      </trkpt>
      <trkpt lat="2.854658" lon="-75.11617">
        <ele>1078.4</ele>
        <time>2021-08-21T12:50:16Z</time>
      </trkpt>
      <trkpt lat="2.85464" lon="-75.11619">
        <ele>1078.5</ele>
        <time>2021-08-21T12:50:17Z</time>
      </trkpt>
      <trkpt lat="2.8546" lon="-75.11622">
        <ele>1078.6</ele>
        <time>2021-08-21T12:50:19Z</time>
      </trkpt>
      <trkpt lat="2.85461" lon="-75.11621">
        <ele>1078.6</ele>
        <time>2021-08-21T12:50:19Z</time>
      </trkpt>
      <trkpt lat="2.854578" lon="-75.11623">
        <ele>1078.7</ele>
        <time>2021-08-21T12:50:20Z</time>
      </trkpt>
      <trkpt lat="2.854531" lon="-75.11625">
        <ele>1078.8</ele>
        <time>2021-08-21T12:50:22Z</time>
      </trkpt>
      <trkpt lat="2.854543" lon="-75.11624">
        <ele>1078.8</ele>
        <time>2021-08-21T12:50:22Z</time>
      </trkpt>
      <trkpt lat="2.854507" lon="-75.11626">
        <ele>1078.9</ele>
        <time>2021-08-21T12:50:23Z</time>
      </trkpt>
      <trkpt lat="2.854482" lon="-75.116264">
        <ele>1079.0</ele>
        <time>2021-08-21T12:50:24Z</time>
      </trkpt>
      <trkpt lat="2.854458" lon="-75.11627">
        <ele>1079.1</ele>
        <time>2021-08-21T12:50:25Z</time>
      </trkpt>
      <trkpt lat="2.854434" lon="-75.11628">
        <ele>1079.2</ele>
        <time>2021-08-21T12:50:26Z</time>
      </trkpt>
      <trkpt lat="2.854411" lon="-75.11628">
        <ele>1079.3</ele>
        <time>2021-08-21T12:50:27Z</time>
      </trkpt>
      <trkpt lat="2.854365" lon="-75.11629">
        <ele>1079.5</ele>
        <time>2021-08-21T12:50:29Z</time>
      </trkpt>
      <trkpt lat="2.854377" lon="-75.11629">
        <ele>1079.4</ele>
        <time>2021-08-21T12:50:29Z</time>
      </trkpt>
      <trkpt lat="2.854343" lon="-75.11629">
        <ele>1079.6</ele>
        <time>2021-08-21T12:50:30Z</time>
      </trkpt>
      <trkpt lat="2.85432" lon="-75.116295">
        <ele>1079.6</ele>
        <time>2021-08-21T12:50:31Z</time>
      </trkpt>
      <trkpt lat="2.854297" lon="-75.116295">
        <ele>1079.7</ele>
        <time>2021-08-21T12:50:32Z</time>
      </trkpt>
      <trkpt lat="2.854275" lon="-75.116295">
        <ele>1079.9</ele>
        <time>2021-08-21T12:50:33Z</time>
      </trkpt>
      <trkpt lat="2.854252" lon="-75.116295">
        <ele>1080.0</ele>
        <time>2021-08-21T12:50:34Z</time>
      </trkpt>
      <trkpt lat="2.85423" lon="-75.11629">
        <ele>1080.1</ele>
        <time>2021-08-21T12:50:35Z</time>
      </trkpt>
      <trkpt lat="2.854209" lon="-75.11629">
        <ele>1080.2</ele>
        <time>2021-08-21T12:50:36Z</time>
      </trkpt>
      <trkpt lat="2.854188" lon="-75.11628">
        <ele>1080.4</ele>
        <time>2021-08-21T12:50:37Z</time>
      </trkpt>
      <trkpt lat="2.854168" lon="-75.116264">
        <ele>1080.5</ele>
        <time>2021-08-21T12:50:38Z</time>
      </trkpt>
      <trkpt lat="2.85415" lon="-75.11626">
        <ele>1080.6</ele>
        <time>2021-08-21T12:50:39Z</time>
      </trkpt>
      <trkpt lat="2.854132" lon="-75.11624">
        <ele>1080.8</ele>
        <time>2021-08-21T12:50:40Z</time>
      </trkpt>
      <trkpt lat="2.854116" lon="-75.11623">
        <ele>1081.0</ele>
        <time>2021-08-21T12:50:41Z</time>
      </trkpt>
      <trkpt lat="2.854101" lon="-75.11621">
        <ele>1081.1</ele>
        <time>2021-08-21T12:50:42Z</time>
      </trkpt>
      <trkpt lat="2.854088" lon="-75.11619">
        <ele>1081.3</ele>
        <time>2021-08-21T12:50:43Z</time>
      </trkpt>
      <trkpt lat="2.854078" lon="-75.11617">
        <ele>1081.5</ele>
        <time>2021-08-21T12:50:44Z</time>
      </trkpt>
      <trkpt lat="2.854071" lon="-75.11615">
        <ele>1081.7</ele>
        <time>2021-08-21T12:50:45Z</time>
      </trkpt>
      <trkpt lat="2.854066" lon="-75.11613">
        <ele>1081.8</ele>
        <time>2021-08-21T12:50:46Z</time>
      </trkpt>
      <trkpt lat="2.854064" lon="-75.11611">
        <ele>1082.0</ele>
        <time>2021-08-21T12:50:47Z</time>
      </trkpt>
      <trkpt lat="2.854062" lon="-75.11609">
        <ele>1082.2</ele>
        <time>2021-08-21T12:50:48Z</time>
      </trkpt>
      <trkpt lat="2.854062" lon="-75.116066">
        <ele>1082.3</ele>
        <time>2021-08-21T12:50:49Z</time>
      </trkpt>
      <trkpt lat="2.854063" lon="-75.11604">
        <ele>1082.5</ele>
        <time>2021-08-21T12:50:50Z</time>
      </trkpt>
      <trkpt lat="2.854064" lon="-75.11602">
        <ele>1082.7</ele>
        <time>2021-08-21T12:50:51Z</time>
      </trkpt>
      <trkpt lat="2.854068" lon="-75.116">
        <ele>1082.8</ele>
        <time>2021-08-21T12:50:52Z</time>
      </trkpt>
      <trkpt lat="2.854076" lon="-75.11597">
        <ele>1083.1</ele>
        <time>2021-08-21T12:50:54Z</time>
      </trkpt>
      <trkpt lat="2.854079" lon="-75.11595">
        <ele>1083.2</ele>
        <time>2021-08-21T12:50:54Z</time>
      </trkpt>
      <trkpt lat="2.854083" lon="-75.11593">
        <ele>1083.3</ele>
        <time>2021-08-21T12:50:55Z</time>
      </trkpt>
      <trkpt lat="2.854088" lon="-75.11591">
        <ele>1083.5</ele>
        <time>2021-08-21T12:50:56Z</time>
      </trkpt>
      <trkpt lat="2.854093" lon="-75.11589">
        <ele>1083.6</ele>
        <time>2021-08-21T12:50:57Z</time>
      </trkpt>
      <trkpt lat="2.854099" lon="-75.115875">
        <ele>1083.8</ele>
        <time>2021-08-21T12:50:58Z</time>
      </trkpt>
      <trkpt lat="2.854106" lon="-75.11585">
        <ele>1083.9</ele>
        <time>2021-08-21T12:50:59Z</time>
      </trkpt>
      <trkpt lat="2.854113" lon="-75.11584">
        <ele>1084.1</ele>
        <time>2021-08-21T12:51:00Z</time>
      </trkpt>
      <trkpt lat="2.854121" lon="-75.11582">
        <ele>1084.2</ele>
        <time>2021-08-21T12:51:01Z</time>
      </trkpt>
      <trkpt lat="2.854128" lon="-75.1158">
        <ele>1084.4</ele>
        <time>2021-08-21T12:51:02Z</time>
      </trkpt>
      <trkpt lat="2.854135" lon="-75.11578">
        <ele>1084.5</ele>
        <time>2021-08-21T12:51:03Z</time>
      </trkpt>
      <trkpt lat="2.854142" lon="-75.11576">
        <ele>1084.7</ele>
        <time>2021-08-21T12:51:04Z</time>
      </trkpt>
      <trkpt lat="2.85415" lon="-75.115746">
        <ele>1084.9</ele>
        <time>2021-08-21T12:51:05Z</time>
      </trkpt>
      <trkpt lat="2.85416" lon="-75.11573">
        <ele>1085.1</ele>
        <time>2021-08-21T12:51:06Z</time>
      </trkpt>
      <trkpt lat="2.854169" lon="-75.11571">
        <ele>1085.2</ele>
        <time>2021-08-21T12:51:07Z</time>
      </trkpt>
      <trkpt lat="2.854179" lon="-75.11569">
        <ele>1085.4</ele>
        <time>2021-08-21T12:51:08Z</time>
      </trkpt>
      <trkpt lat="2.854191" lon="-75.11568">
        <ele>1085.5</ele>
        <time>2021-08-21T12:51:09Z</time>
      </trkpt>
      <trkpt lat="2.854205" lon="-75.11566">
        <ele>1085.7</ele>
        <time>2021-08-21T12:51:10Z</time>
      </trkpt>
      <trkpt lat="2.854224" lon="-75.11564">
        <ele>1086.0</ele>
        <time>2021-08-21T12:51:12Z</time>
      </trkpt>
      <trkpt lat="2.85423" lon="-75.11562">
        <ele>1086.1</ele>
        <time>2021-08-21T12:51:12Z</time>
      </trkpt>
      <trkpt lat="2.854242" lon="-75.11561">
        <ele>1086.3</ele>
        <time>2021-08-21T12:51:13Z</time>
      </trkpt>
      <trkpt lat="2.854253" lon="-75.115585">
        <ele>1086.4</ele>
        <time>2021-08-21T12:51:14Z</time>
      </trkpt>
      <trkpt lat="2.854262" lon="-75.11557">
        <ele>1086.6</ele>
        <time>2021-08-21T12:51:15Z</time>
      </trkpt>
      <trkpt lat="2.854272" lon="-75.11555">
        <ele>1086.8</ele>
        <time>2021-08-21T12:51:16Z</time>
      </trkpt>
      <trkpt lat="2.854281" lon="-75.115524">
        <ele>1087.0</ele>
        <time>2021-08-21T12:51:17Z</time>
      </trkpt>
      <trkpt lat="2.854292" lon="-75.1155">
        <ele>1087.2</ele>
        <time>2021-08-21T12:51:19Z</time>
      </trkpt>
      <trkpt lat="2.854295" lon="-75.115486">
        <ele>1087.3</ele>
        <time>2021-08-21T12:51:19Z</time>
      </trkpt>
      <trkpt lat="2.854301" lon="-75.11547">
        <ele>1087.4</ele>
        <time>2021-08-21T12:51:20Z</time>
      </trkpt>
      <trkpt lat="2.854306" lon="-75.11545">
        <ele>1087.6</ele>
        <time>2021-08-21T12:51:21Z</time>
      </trkpt>
      <trkpt lat="2.854312" lon="-75.11543">
        <ele>1087.8</ele>
        <time>2021-08-21T12:51:22Z</time>
      </trkpt>
      <trkpt lat="2.854316" lon="-75.11541">
        <ele>1087.9</ele>
        <time>2021-08-21T12:51:23Z</time>
      </trkpt>
      <trkpt lat="2.854321" lon="-75.115395">
        <ele>1088.1</ele>
        <time>2021-08-21T12:51:24Z</time>
      </trkpt>
      <trkpt lat="2.854328" lon="-75.115364">
        <ele>1088.4</ele>
        <time>2021-08-21T12:51:26Z</time>
      </trkpt>
      <trkpt lat="2.854329" lon="-75.11535">
        <ele>1088.4</ele>
        <time>2021-08-21T12:51:26Z</time>
      </trkpt>
      <trkpt lat="2.854332" lon="-75.11533">
        <ele>1088.6</ele>
        <time>2021-08-21T12:51:27Z</time>
      </trkpt>
      <trkpt lat="2.854335" lon="-75.11531">
        <ele>1088.8</ele>
        <time>2021-08-21T12:51:28Z</time>
      </trkpt>
      <trkpt lat="2.854336" lon="-75.115295">
        <ele>1088.9</ele>
        <time>2021-08-21T12:51:29Z</time>
      </trkpt>
      <trkpt lat="2.854338" lon="-75.11527">
        <ele>1089.1</ele>
        <time>2021-08-21T12:51:30Z</time>
      </trkpt>
      <trkpt lat="2.854341" lon="-75.11526">
        <ele>1089.3</ele>
        <time>2021-08-21T12:51:31Z</time>
      </trkpt>
      <trkpt lat="2.854342" lon="-75.115234">
        <ele>1089.5</ele>
        <time>2021-08-21T12:51:32Z</time>
      </trkpt>
      <trkpt lat="2.854342" lon="-75.11522">
        <ele>1089.6</ele>
        <time>2021-08-21T12:51:33Z</time>
      </trkpt>
      <trkpt lat="2.854341" lon="-75.115204">
        <ele>1089.8</ele>
        <time>2021-08-21T12:51:34Z</time>
      </trkpt>
      <trkpt lat="2.85434" lon="-75.11518">
        <ele>1090.0</ele>
        <time>2021-08-21T12:51:35Z</time>
      </trkpt>
      <trkpt lat="2.854339" lon="-75.115166">
        <ele>1090.2</ele>
        <time>2021-08-21T12:51:36Z</time>
      </trkpt>
      <trkpt lat="2.854338" lon="-75.11514">
        <ele>1090.4</ele>
        <time>2021-08-21T12:51:37Z</time>
      </trkpt>
      <trkpt lat="2.854337" lon="-75.11512">
        <ele>1090.7</ele>
        <time>2021-08-21T12:51:39Z</time>
      </trkpt>
      <trkpt lat="2.854337" lon="-75.115105">
        <ele>1090.8</ele>
        <time>2021-08-21T12:51:39Z</time>
      </trkpt>
      <trkpt lat="2.854337" lon="-75.11509">
        <ele>1091.1</ele>
        <time>2021-08-21T12:51:40Z</time>
      </trkpt>
      <trkpt lat="2.854336" lon="-75.11507">
        <ele>1091.3</ele>
        <time>2021-08-21T12:51:41Z</time>
      </trkpt>
      <trkpt lat="2.854335" lon="-75.11504">
        <ele>1091.5</ele>
        <time>2021-08-21T12:51:42Z</time>
      </trkpt>
      <trkpt lat="2.854333" lon="-75.11503">
        <ele>1091.7</ele>
        <time>2021-08-21T12:51:43Z</time>
      </trkpt>
      <trkpt lat="2.854329" lon="-75.115005">
        <ele>1091.9</ele>
        <time>2021-08-21T12:51:44Z</time>
      </trkpt>
      <trkpt lat="2.85432" lon="-75.11497">
        <ele>1092.4</ele>
        <time>2021-08-21T12:51:46Z</time>
      </trkpt>
      <trkpt lat="2.854323" lon="-75.114975">
        <ele>1092.3</ele>
        <time>2021-08-21T12:51:46Z</time>
      </trkpt>
      <trkpt lat="2.854315" lon="-75.114944">
        <ele>1092.6</ele>
        <time>2021-08-21T12:51:47Z</time>
      </trkpt>
      <trkpt lat="2.854311" lon="-75.11493">
        <ele>1092.9</ele>
        <time>2021-08-21T12:51:48Z</time>
      </trkpt>
      <trkpt lat="2.854308" lon="-75.11491">
        <ele>1093.1</ele>
        <time>2021-08-21T12:51:49Z</time>
      </trkpt>
      <trkpt lat="2.854306" lon="-75.11488">
        <ele>1093.3</ele>
        <time>2021-08-21T12:51:50Z</time>
      </trkpt>
      <trkpt lat="2.854303" lon="-75.114845">
        <ele>1093.8</ele>
        <time>2021-08-21T12:51:52Z</time>
      </trkpt>
      <trkpt lat="2.854304" lon="-75.11485">
        <ele>1093.6</ele>
        <time>2021-08-21T12:51:52Z</time>
      </trkpt>
      <trkpt lat="2.854303" lon="-75.11482">
        <ele>1094.0</ele>
        <time>2021-08-21T12:51:53Z</time>
      </trkpt>
      <trkpt lat="2.854304" lon="-75.11481">
        <ele>1094.2</ele>
        <time>2021-08-21T12:51:54Z</time>
      </trkpt>
      <trkpt lat="2.854306" lon="-75.11478">
        <ele>1094.5</ele>
        <time>2021-08-21T12:51:56Z</time>
      </trkpt>
      <trkpt lat="2.854307" lon="-75.11476">
        <ele>1094.6</ele>
        <time>2021-08-21T12:51:56Z</time>
      </trkpt>
      <trkpt lat="2.854309" lon="-75.11474">
        <ele>1094.8</ele>
        <time>2021-08-21T12:51:57Z</time>
      </trkpt>
      <trkpt lat="2.854313" lon="-75.114716">
        <ele>1095.1</ele>
        <time>2021-08-21T12:51:59Z</time>
      </trkpt>
      <trkpt lat="2.854315" lon="-75.1147">
        <ele>1095.2</ele>
        <time>2021-08-21T12:51:59Z</time>
      </trkpt>
      <trkpt lat="2.854319" lon="-75.114685">
        <ele>1095.4</ele>
        <time>2021-08-21T12:52:00Z</time>
      </trkpt>
      <trkpt lat="2.854325" lon="-75.11466">
        <ele>1095.6</ele>
        <time>2021-08-21T12:52:01Z</time>
      </trkpt>
      <trkpt lat="2.854331" lon="-75.11464">
        <ele>1095.8</ele>
        <time>2021-08-21T12:52:02Z</time>
      </trkpt>
      <trkpt lat="2.854338" lon="-75.114624">
        <ele>1095.9</ele>
        <time>2021-08-21T12:52:03Z</time>
      </trkpt>
      <trkpt lat="2.854347" lon="-75.1146">
        <ele>1096.1</ele>
        <time>2021-08-21T12:52:04Z</time>
      </trkpt>
      <trkpt lat="2.854359" lon="-75.11457">
        <ele>1096.4</ele>
        <time>2021-08-21T12:52:06Z</time>
      </trkpt>
      <trkpt lat="2.854363" lon="-75.114555">
        <ele>1096.5</ele>
        <time>2021-08-21T12:52:06Z</time>
      </trkpt>
      <trkpt lat="2.854372" lon="-75.11454">
        <ele>1096.7</ele>
        <time>2021-08-21T12:52:07Z</time>
      </trkpt>
      <trkpt lat="2.854381" lon="-75.11452">
        <ele>1096.8</ele>
        <time>2021-08-21T12:52:08Z</time>
      </trkpt>
      <trkpt lat="2.85439" lon="-75.1145">
        <ele>1097.0</ele>
        <time>2021-08-21T12:52:09Z</time>
      </trkpt>
      <trkpt lat="2.854398" lon="-75.11449">
        <ele>1097.1</ele>
        <time>2021-08-21T12:52:10Z</time>
      </trkpt>
      <trkpt lat="2.854405" lon="-75.11447">
        <ele>1097.2</ele>
        <time>2021-08-21T12:52:11Z</time>
      </trkpt>
      <trkpt lat="2.854412" lon="-75.114456">
        <ele>1097.4</ele>
        <time>2021-08-21T12:52:12Z</time>
      </trkpt>
      <trkpt lat="2.854419" lon="-75.11443">
        <ele>1097.5</ele>
        <time>2021-08-21T12:52:13Z</time>
      </trkpt>
      <trkpt lat="2.854429" lon="-75.11441">
        <ele>1097.7</ele>
        <time>2021-08-21T12:52:14Z</time>
      </trkpt>
      <trkpt lat="2.854438" lon="-75.114395">
        <ele>1097.8</ele>
        <time>2021-08-21T12:52:15Z</time>
      </trkpt>
      <trkpt lat="2.854447" lon="-75.11437">
        <ele>1098.0</ele>
        <time>2021-08-21T12:52:16Z</time>
      </trkpt>
      <trkpt lat="2.854455" lon="-75.11435">
        <ele>1098.1</ele>
        <time>2021-08-21T12:52:17Z</time>
      </trkpt>
      <trkpt lat="2.854463" lon="-75.114334">
        <ele>1098.3</ele>
        <time>2021-08-21T12:52:18Z</time>
      </trkpt>
      <trkpt lat="2.85447" lon="-75.11431">
        <ele>1098.4</ele>
        <time>2021-08-21T12:52:19Z</time>
      </trkpt>
      <trkpt lat="2.854477" lon="-75.11429">
        <ele>1098.6</ele>
        <time>2021-08-21T12:52:20Z</time>
      </trkpt>
      <trkpt lat="2.854484" lon="-75.11427">
        <ele>1098.7</ele>
        <time>2021-08-21T12:52:21Z</time>
      </trkpt>
      <trkpt lat="2.85449" lon="-75.11425">
        <ele>1098.8</ele>
        <time>2021-08-21T12:52:22Z</time>
      </trkpt>
      <trkpt lat="2.854499" lon="-75.11423">
        <ele>1099.0</ele>
        <time>2021-08-21T12:52:24Z</time>
      </trkpt>
      <trkpt lat="2.854502" lon="-75.11421">
        <ele>1099.1</ele>
        <time>2021-08-21T12:52:24Z</time>
      </trkpt>
      <trkpt lat="2.854508" lon="-75.1142">
        <ele>1099.2</ele>
        <time>2021-08-21T12:52:25Z</time>
      </trkpt>
      <trkpt lat="2.854514" lon="-75.114174">
        <ele>1099.4</ele>
        <time>2021-08-21T12:52:26Z</time>
      </trkpt>
      <trkpt lat="2.854521" lon="-75.11416">
        <ele>1099.5</ele>
        <time>2021-08-21T12:52:27Z</time>
      </trkpt>
      <trkpt lat="2.854527" lon="-75.114136">
        <ele>1099.6</ele>
        <time>2021-08-21T12:52:28Z</time>
      </trkpt>
      <trkpt lat="2.854533" lon="-75.11412">
        <ele>1099.7</ele>
        <time>2021-08-21T12:52:29Z</time>
      </trkpt>
      <trkpt lat="2.854542" lon="-75.11409">
        <ele>1099.9</ele>
        <time>2021-08-21T12:52:31Z</time>
      </trkpt>
      <trkpt lat="2.854544" lon="-75.11408">
        <ele>1100.0</ele>
        <time>2021-08-21T12:52:31Z</time>
      </trkpt>
      <trkpt lat="2.854549" lon="-75.11406">
        <ele>1100.0</ele>
        <time>2021-08-21T12:52:32Z</time>
      </trkpt>
      <trkpt lat="2.854552" lon="-75.11404">
        <ele>1100.2</ele>
        <time>2021-08-21T12:52:33Z</time>
      </trkpt>
      <trkpt lat="2.854555" lon="-75.11402">
        <ele>1100.3</ele>
        <time>2021-08-21T12:52:34Z</time>
      </trkpt>
      <trkpt lat="2.854559" lon="-75.114">
        <ele>1100.4</ele>
        <time>2021-08-21T12:52:35Z</time>
      </trkpt>
      <trkpt lat="2.854562" lon="-75.113976">
        <ele>1100.6</ele>
        <time>2021-08-21T12:52:36Z</time>
      </trkpt>
      <trkpt lat="2.854566" lon="-75.113945">
        <ele>1100.7</ele>
        <time>2021-08-21T12:52:38Z</time>
      </trkpt>
      <trkpt lat="2.854567" lon="-75.11394">
        <ele>1100.8</ele>
        <time>2021-08-21T12:52:38Z</time>
      </trkpt>
      <trkpt lat="2.854569" lon="-75.113914">
        <ele>1100.9</ele>
        <time>2021-08-21T12:52:39Z</time>
      </trkpt>
      <trkpt lat="2.854572" lon="-75.11389">
        <ele>1101.1</ele>
        <time>2021-08-21T12:52:40Z</time>
      </trkpt>
      <trkpt lat="2.854576" lon="-75.11388">
        <ele>1101.2</ele>
        <time>2021-08-21T12:52:41Z</time>
      </trkpt>
      <trkpt lat="2.854581" lon="-75.11385">
        <ele>1101.3</ele>
        <time>2021-08-21T12:52:42Z</time>
      </trkpt>
      <trkpt lat="2.854586" lon="-75.11383">
        <ele>1101.4</ele>
        <time>2021-08-21T12:52:43Z</time>
      </trkpt>
      <trkpt lat="2.854591" lon="-75.113815">
        <ele>1101.6</ele>
        <time>2021-08-21T12:52:44Z</time>
      </trkpt>
      <trkpt lat="2.854596" lon="-75.11379">
        <ele>1101.7</ele>
        <time>2021-08-21T12:52:45Z</time>
      </trkpt>
      <trkpt lat="2.8546" lon="-75.11378">
        <ele>1101.8</ele>
        <time>2021-08-21T12:52:46Z</time>
      </trkpt>
      <trkpt lat="2.854603" lon="-75.11376">
        <ele>1101.9</ele>
        <time>2021-08-21T12:52:47Z</time>
      </trkpt>
      <trkpt lat="2.854605" lon="-75.11374">
        <ele>1102.0</ele>
        <time>2021-08-21T12:52:48Z</time>
      </trkpt>
      <trkpt lat="2.854608" lon="-75.11372">
        <ele>1102.1</ele>
        <time>2021-08-21T12:52:49Z</time>
      </trkpt>
      <trkpt lat="2.854612" lon="-75.1137">
        <ele>1102.3</ele>
        <time>2021-08-21T12:52:50Z</time>
      </trkpt>
      <trkpt lat="2.854616" lon="-75.113686">
        <ele>1102.4</ele>
        <time>2021-08-21T12:52:51Z</time>
      </trkpt>
      <trkpt lat="2.854619" lon="-75.11366">
        <ele>1102.5</ele>
        <time>2021-08-21T12:52:52Z</time>
      </trkpt>
      <trkpt lat="2.854622" lon="-75.11365">
        <ele>1102.6</ele>
        <time>2021-08-21T12:52:53Z</time>
      </trkpt>
      <trkpt lat="2.854623" lon="-75.113625">
        <ele>1102.7</ele>
        <time>2021-08-21T12:52:54Z</time>
      </trkpt>
      <trkpt lat="2.854622" lon="-75.11361">
        <ele>1102.8</ele>
        <time>2021-08-21T12:57:08Z</time>
      </trkpt>
      <trkpt lat="2.854621" lon="-75.113594">
        <ele>1102.9</ele>
        <time>2021-08-21T12:57:09Z</time>
      </trkpt>
      <trkpt lat="2.85462" lon="-75.11357">
        <ele>1103.0</ele>
        <time>2021-08-21T12:57:10Z</time>
      </trkpt>
      <trkpt lat="2.854618" lon="-75.11355">
        <ele>1103.1</ele>
        <time>2021-08-21T12:57:11Z</time>
      </trkpt>
      <trkpt lat="2.854614" lon="-75.11353">
        <ele>1103.2</ele>
        <time>2021-08-21T12:57:12Z</time>
      </trkpt>
      <trkpt lat="2.854609" lon="-75.11352">
        <ele>1103.3</ele>
        <time>2021-08-21T12:57:13Z</time>
      </trkpt>
      <trkpt lat="2.854602" lon="-75.113495">
        <ele>1103.4</ele>
        <time>2021-08-21T12:57:14Z</time>
      </trkpt>
      <trkpt lat="2.854591" lon="-75.11348">
        <ele>1103.5</ele>
        <time>2021-08-21T12:57:15Z</time>
      </trkpt>
      <trkpt lat="2.854579" lon="-75.113464">
        <ele>1103.6</ele>
        <time>2021-08-21T12:57:16Z</time>
      </trkpt>
      <trkpt lat="2.854564" lon="-75.11345">
        <ele>1103.6</ele>
        <time>2021-08-21T12:57:17Z</time>
      </trkpt>
      <trkpt lat="2.854547" lon="-75.113434">
        <ele>1103.7</ele>
        <time>2021-08-21T12:57:18Z</time>
      </trkpt>
      <trkpt lat="2.854528" lon="-75.11343">
        <ele>1103.8</ele>
        <time>2021-08-21T12:57:19Z</time>
      </trkpt>
      <trkpt lat="2.854507" lon="-75.11342">
        <ele>1103.8</ele>
        <time>2021-08-21T12:57:20Z</time>
      </trkpt>
      <trkpt lat="2.854486" lon="-75.1134">
        <ele>1103.9</ele>
        <time>2021-08-21T12:57:21Z</time>
      </trkpt>
      <trkpt lat="2.854464" lon="-75.113396">
        <ele>1103.9</ele>
        <time>2021-08-21T12:57:22Z</time>
      </trkpt>
      <trkpt lat="2.854442" lon="-75.113396">
        <ele>1104.0</ele>
        <time>2021-08-21T12:57:23Z</time>
      </trkpt>
      <trkpt lat="2.85442" lon="-75.11339">
        <ele>1104.0</ele>
        <time>2021-08-21T12:57:24Z</time>
      </trkpt>
      <trkpt lat="2.854398" lon="-75.11338">
        <ele>1104.0</ele>
        <time>2021-08-21T12:57:25Z</time>
      </trkpt>
      <trkpt lat="2.854377" lon="-75.11337">
        <ele>1104.1</ele>
        <time>2021-08-21T12:57:26Z</time>
      </trkpt>
      <trkpt lat="2.854354" lon="-75.11337">
        <ele>1104.1</ele>
        <time>2021-08-21T12:57:27Z</time>
      </trkpt>
      <trkpt lat="2.854332" lon="-75.11337">
        <ele>1104.1</ele>
        <time>2021-08-21T12:57:28Z</time>
      </trkpt>
      <trkpt lat="2.854312" lon="-75.11338">
        <ele>1104.2</ele>
        <time>2021-08-21T12:57:29Z</time>
      </trkpt>
      <trkpt lat="2.854289" lon="-75.113396">
        <ele>1104.2</ele>
        <time>2021-08-21T12:57:30Z</time>
      </trkpt>
      <trkpt lat="2.854269" lon="-75.11341">
        <ele>1104.2</ele>
        <time>2021-08-21T12:57:31Z</time>
      </trkpt>
      <trkpt lat="2.854253" lon="-75.11343">
        <ele>1104.3</ele>
        <time>2021-08-21T12:57:32Z</time>
      </trkpt>
      <trkpt lat="2.854241" lon="-75.11345">
        <ele>1104.3</ele>
        <time>2021-08-21T12:57:33Z</time>
      </trkpt>
      <trkpt lat="2.854231" lon="-75.11347">
        <ele>1104.4</ele>
        <time>2021-08-21T12:57:34Z</time>
      </trkpt>
      <trkpt lat="2.854223" lon="-75.113495">
        <ele>1104.4</ele>
        <time>2021-08-21T12:57:35Z</time>
      </trkpt>
      <trkpt lat="2.854216" lon="-75.11352">
        <ele>1104.4</ele>
        <time>2021-08-21T12:57:36Z</time>
      </trkpt>
      <trkpt lat="2.85421" lon="-75.11355">
        <ele>1104.5</ele>
        <time>2021-08-21T12:57:37Z</time>
      </trkpt>
      <trkpt lat="2.854203" lon="-75.11357">
        <ele>1104.5</ele>
        <time>2021-08-21T12:57:38Z</time>
      </trkpt>
      <trkpt lat="2.854195" lon="-75.113594">
        <ele>1104.6</ele>
        <time>2021-08-21T12:57:39Z</time>
      </trkpt>
      <trkpt lat="2.854186" lon="-75.113625">
        <ele>1104.7</ele>
        <time>2021-08-21T12:57:40Z</time>
      </trkpt>
      <trkpt lat="2.854177" lon="-75.11365">
        <ele>1104.7</ele>
        <time>2021-08-21T12:57:41Z</time>
      </trkpt>
      <trkpt lat="2.854167" lon="-75.11368">
        <ele>1104.8</ele>
        <time>2021-08-21T12:57:42Z</time>
      </trkpt>
      <trkpt lat="2.854155" lon="-75.1137">
        <ele>1104.8</ele>
        <time>2021-08-21T12:57:43Z</time>
      </trkpt>
      <trkpt lat="2.854141" lon="-75.11373">
        <ele>1104.9</ele>
        <time>2021-08-21T12:57:44Z</time>
      </trkpt>
      <trkpt lat="2.854127" lon="-75.113754">
        <ele>1104.9</ele>
        <time>2021-08-21T12:57:45Z</time>
      </trkpt>
      <trkpt lat="2.854111" lon="-75.113785">
        <ele>1105.0</ele>
        <time>2021-08-21T12:57:46Z</time>
      </trkpt>
      <trkpt lat="2.854094" lon="-75.11381">
        <ele>1105.1</ele>
        <time>2021-08-21T12:57:47Z</time>
      </trkpt>
      <trkpt lat="2.854077" lon="-75.11383">
        <ele>1105.1</ele>
        <time>2021-08-21T12:57:48Z</time>
      </trkpt>
      <trkpt lat="2.854059" lon="-75.11385">
        <ele>1105.2</ele>
        <time>2021-08-21T12:57:49Z</time>
      </trkpt>
      <trkpt lat="2.854041" lon="-75.11388">
        <ele>1105.2</ele>
        <time>2021-08-21T12:57:50Z</time>
      </trkpt>
      <trkpt lat="2.854022" lon="-75.1139">
        <ele>1105.3</ele>
        <time>2021-08-21T12:57:51Z</time>
      </trkpt>
      <trkpt lat="2.854004" lon="-75.11392">
        <ele>1105.3</ele>
        <time>2021-08-21T12:57:52Z</time>
      </trkpt>
      <trkpt lat="2.853986" lon="-75.113945">
        <ele>1105.4</ele>
        <time>2021-08-21T12:57:53Z</time>
      </trkpt>
      <trkpt lat="2.853969" lon="-75.11396">
        <ele>1105.5</ele>
        <time>2021-08-21T12:57:54Z</time>
      </trkpt>
      <trkpt lat="2.853952" lon="-75.11398">
        <ele>1105.5</ele>
        <time>2021-08-21T12:57:55Z</time>
      </trkpt>
      <trkpt lat="2.853936" lon="-75.114">
        <ele>1105.6</ele>
        <time>2021-08-21T12:57:56Z</time>
      </trkpt>
      <trkpt lat="2.85392" lon="-75.11402">
        <ele>1105.7</ele>
        <time>2021-08-21T12:57:57Z</time>
      </trkpt>
      <trkpt lat="2.853903" lon="-75.11404">
        <ele>1105.8</ele>
        <time>2021-08-21T12:57:58Z</time>
      </trkpt>
      <trkpt lat="2.853885" lon="-75.11406">
        <ele>1105.8</ele>
        <time>2021-08-21T12:57:59Z</time>
      </trkpt>
      <trkpt lat="2.853869" lon="-75.114075">
        <ele>1105.9</ele>
        <time>2021-08-21T12:58:00Z</time>
      </trkpt>
      <trkpt lat="2.853853" lon="-75.1141">
        <ele>1106.0</ele>
        <time>2021-08-21T12:58:01Z</time>
      </trkpt>
      <trkpt lat="2.853835" lon="-75.11411">
        <ele>1106.1</ele>
        <time>2021-08-21T12:58:02Z</time>
      </trkpt>
      <trkpt lat="2.853819" lon="-75.114136">
        <ele>1106.2</ele>
        <time>2021-08-21T12:58:03Z</time>
      </trkpt>
      <trkpt lat="2.853804" lon="-75.11415">
        <ele>1106.3</ele>
        <time>2021-08-21T12:58:04Z</time>
      </trkpt>
      <trkpt lat="2.85379" lon="-75.11417">
        <ele>1106.4</ele>
        <time>2021-08-21T12:58:05Z</time>
      </trkpt>
      <trkpt lat="2.853777" lon="-75.11418">
        <ele>1106.4</ele>
        <time>2021-08-21T12:58:06Z</time>
      </trkpt>
      <trkpt lat="2.853765" lon="-75.1142">
        <ele>1106.5</ele>
        <time>2021-08-21T12:58:07Z</time>
      </trkpt>
      <trkpt lat="2.853753" lon="-75.11421">
        <ele>1106.7</ele>
        <time>2021-08-21T12:58:08Z</time>
      </trkpt>
      <trkpt lat="2.853739" lon="-75.11423">
        <ele>1106.8</ele>
        <time>2021-08-21T12:58:09Z</time>
      </trkpt>
      <trkpt lat="2.853725" lon="-75.11425">
        <ele>1107.0</ele>
        <time>2021-08-21T12:58:10Z</time>
      </trkpt>
      <trkpt lat="2.85371" lon="-75.114265">
        <ele>1107.1</ele>
        <time>2021-08-21T12:58:11Z</time>
      </trkpt>
      <trkpt lat="2.853695" lon="-75.11428">
        <ele>1107.2</ele>
        <time>2021-08-21T12:58:12Z</time>
      </trkpt>
      <trkpt lat="2.85368" lon="-75.114296">
        <ele>1107.4</ele>
        <time>2021-08-21T12:58:13Z</time>
      </trkpt>
      <trkpt lat="2.853665" lon="-75.11432">
        <ele>1107.5</ele>
        <time>2021-08-21T12:58:14Z</time>
      </trkpt>
      <trkpt lat="2.853651" lon="-75.114334">
        <ele>1107.6</ele>
        <time>2021-08-21T12:58:15Z</time>
      </trkpt>
      <trkpt lat="2.853637" lon="-75.11435">
        <ele>1107.8</ele>
        <time>2021-08-21T12:58:16Z</time>
      </trkpt>
      <trkpt lat="2.853625" lon="-75.11437">
        <ele>1107.9</ele>
        <time>2021-08-21T12:58:17Z</time>
      </trkpt>
      <trkpt lat="2.853612" lon="-75.11439">
        <ele>1108.0</ele>
        <time>2021-08-21T12:58:18Z</time>
      </trkpt>
      <trkpt lat="2.853599" lon="-75.1144">
        <ele>1108.2</ele>
        <time>2021-08-21T12:58:19Z</time>
      </trkpt>
      <trkpt lat="2.853587" lon="-75.11442">
        <ele>1108.3</ele>
        <time>2021-08-21T12:58:20Z</time>
      </trkpt>
      <trkpt lat="2.853573" lon="-75.11443">
        <ele>1108.5</ele>
        <time>2021-08-21T12:58:21Z</time>
      </trkpt>
      <trkpt lat="2.853559" lon="-75.11445">
        <ele>1108.6</ele>
        <time>2021-08-21T12:58:22Z</time>
      </trkpt>
      <trkpt lat="2.853545" lon="-75.11446">
        <ele>1108.8</ele>
        <time>2021-08-21T12:58:23Z</time>
      </trkpt>
      <trkpt lat="2.85353" lon="-75.11448">
        <ele>1108.9</ele>
        <time>2021-08-21T12:58:24Z</time>
      </trkpt>
      <trkpt lat="2.853514" lon="-75.11449">
        <ele>1109.1</ele>
        <time>2021-08-21T12:58:25Z</time>
      </trkpt>
      <trkpt lat="2.853498" lon="-75.1145">
        <ele>1109.2</ele>
        <time>2021-08-21T12:58:26Z</time>
      </trkpt>
      <trkpt lat="2.853482" lon="-75.11451">
        <ele>1109.4</ele>
        <time>2021-08-21T12:58:27Z</time>
      </trkpt>
      <trkpt lat="2.853467" lon="-75.114525">
        <ele>1109.6</ele>
        <time>2021-08-21T12:58:28Z</time>
      </trkpt>
      <trkpt lat="2.853452" lon="-75.11453">
        <ele>1109.7</ele>
        <time>2021-08-21T12:58:29Z</time>
      </trkpt>
      <trkpt lat="2.853436" lon="-75.11454">
        <ele>1109.9</ele>
        <time>2021-08-21T12:58:30Z</time>
      </trkpt>
      <trkpt lat="2.85342" lon="-75.114555">
        <ele>1110.1</ele>
        <time>2021-08-21T12:58:31Z</time>
      </trkpt>
      <trkpt lat="2.853403" lon="-75.11456">
        <ele>1110.2</ele>
        <time>2021-08-21T12:58:32Z</time>
      </trkpt>
      <trkpt lat="2.853386" lon="-75.11456">
        <ele>1110.4</ele>
        <time>2021-08-21T12:58:33Z</time>
      </trkpt>
      <trkpt lat="2.853369" lon="-75.11457">
        <ele>1110.6</ele>
        <time>2021-08-21T12:58:34Z</time>
      </trkpt>
      <trkpt lat="2.853353" lon="-75.11458">
        <ele>1110.8</ele>
        <time>2021-08-21T12:58:35Z</time>
      </trkpt>
      <trkpt lat="2.853337" lon="-75.114586">
        <ele>1110.9</ele>
        <time>2021-08-21T12:58:36Z</time>
      </trkpt>
      <trkpt lat="2.85332" lon="-75.11459">
        <ele>1111.1</ele>
        <time>2021-08-21T12:58:37Z</time>
      </trkpt>
      <trkpt lat="2.853284" lon="-75.1146">
        <ele>1111.4</ele>
        <time>2021-08-21T12:58:38Z</time>
      </trkpt>
      <trkpt lat="2.853294" lon="-75.11459">
        <ele>1111.3</ele>
        <time>2021-08-21T12:58:38Z</time>
      </trkpt>
      <trkpt lat="2.853266" lon="-75.1146">
        <ele>1111.6</ele>
        <time>2021-08-21T12:58:39Z</time>
      </trkpt>
      <trkpt lat="2.853246" lon="-75.1146">
        <ele>1111.7</ele>
        <time>2021-08-21T12:58:40Z</time>
      </trkpt>
      <trkpt lat="2.853228" lon="-75.11461">
        <ele>1111.9</ele>
        <time>2021-08-21T12:58:41Z</time>
      </trkpt>
      <trkpt lat="2.853209" lon="-75.11461">
        <ele>1112.1</ele>
        <time>2021-08-21T12:58:42Z</time>
      </trkpt>
      <trkpt lat="2.85319" lon="-75.11461">
        <ele>1112.3</ele>
        <time>2021-08-21T12:58:43Z</time>
      </trkpt>
      <trkpt lat="2.85317" lon="-75.11461">
        <ele>1112.5</ele>
        <time>2021-08-21T12:58:44Z</time>
      </trkpt>
      <trkpt lat="2.85315" lon="-75.1146">
        <ele>1112.7</ele>
        <time>2021-08-21T12:58:45Z</time>
      </trkpt>
      <trkpt lat="2.853131" lon="-75.1146">
        <ele>1112.8</ele>
        <time>2021-08-21T12:58:46Z</time>
      </trkpt>
      <trkpt lat="2.853112" lon="-75.11459">
        <ele>1113.0</ele>
        <time>2021-08-21T12:58:47Z</time>
      </trkpt>
      <trkpt lat="2.853093" lon="-75.11459">
        <ele>1113.2</ele>
        <time>2021-08-21T12:58:48Z</time>
      </trkpt>
      <trkpt lat="2.853074" lon="-75.11459">
        <ele>1113.3</ele>
        <time>2021-08-21T12:58:49Z</time>
      </trkpt>
      <trkpt lat="2.853055" lon="-75.11459">
        <ele>1113.5</ele>
        <time>2021-08-21T12:58:50Z</time>
      </trkpt>
      <trkpt lat="2.853035" lon="-75.11459">
        <ele>1113.7</ele>
        <time>2021-08-21T12:58:51Z</time>
      </trkpt>
      <trkpt lat="2.853017" lon="-75.11459">
        <ele>1113.8</ele>
        <time>2021-08-21T12:58:52Z</time>
      </trkpt>
      <trkpt lat="2.852999" lon="-75.11459">
        <ele>1114.0</ele>
        <time>2021-08-21T12:58:53Z</time>
      </trkpt>
      <trkpt lat="2.852981" lon="-75.11459">
        <ele>1114.2</ele>
        <time>2021-08-21T12:58:54Z</time>
      </trkpt>
      <trkpt lat="2.852964" lon="-75.11459">
        <ele>1114.3</ele>
        <time>2021-08-21T12:58:55Z</time>
      </trkpt>
      <trkpt lat="2.852945" lon="-75.1146">
        <ele>1114.5</ele>
        <time>2021-08-21T12:58:56Z</time>
      </trkpt>
      <trkpt lat="2.852928" lon="-75.1146">
        <ele>1114.7</ele>
        <time>2021-08-21T12:58:57Z</time>
      </trkpt>
      <trkpt lat="2.852909" lon="-75.1146">
        <ele>1114.8</ele>
        <time>2021-08-21T12:58:58Z</time>
      </trkpt>
      <trkpt lat="2.85289" lon="-75.1146">
        <ele>1115.0</ele>
        <time>2021-08-21T12:58:59Z</time>
      </trkpt>
      <trkpt lat="2.852871" lon="-75.1146">
        <ele>1115.2</ele>
        <time>2021-08-21T12:59:00Z</time>
      </trkpt>
      <trkpt lat="2.852853" lon="-75.1146">
        <ele>1115.3</ele>
        <time>2021-08-21T12:59:01Z</time>
      </trkpt>
      <trkpt lat="2.852833" lon="-75.1146">
        <ele>1115.5</ele>
        <time>2021-08-21T12:59:02Z</time>
      </trkpt>
      <trkpt lat="2.852813" lon="-75.1146">
        <ele>1115.7</ele>
        <time>2021-08-21T12:59:03Z</time>
      </trkpt>
      <trkpt lat="2.852793" lon="-75.1146">
        <ele>1115.9</ele>
        <time>2021-08-21T12:59:04Z</time>
      </trkpt>
      <trkpt lat="2.852773" lon="-75.1146">
        <ele>1116.0</ele>
        <time>2021-08-21T12:59:05Z</time>
      </trkpt>
      <trkpt lat="2.852753" lon="-75.1146">
        <ele>1116.2</ele>
        <time>2021-08-21T12:59:06Z</time>
      </trkpt>
      <trkpt lat="2.852733" lon="-75.11459">
        <ele>1116.4</ele>
        <time>2021-08-21T12:59:07Z</time>
      </trkpt>
      <trkpt lat="2.852715" lon="-75.11459">
        <ele>1116.5</ele>
        <time>2021-08-21T12:59:08Z</time>
      </trkpt>
      <trkpt lat="2.852696" lon="-75.11459">
        <ele>1116.7</ele>
        <time>2021-08-21T12:59:09Z</time>
      </trkpt>
      <trkpt lat="2.852679" lon="-75.114586">
        <ele>1116.9</ele>
        <time>2021-08-21T12:59:10Z</time>
      </trkpt>
      <trkpt lat="2.85266" lon="-75.11458">
        <ele>1117.0</ele>
        <time>2021-08-21T12:59:11Z</time>
      </trkpt>
      <trkpt lat="2.852642" lon="-75.11458">
        <ele>1117.2</ele>
        <time>2021-08-21T12:59:12Z</time>
      </trkpt>
      <trkpt lat="2.852623" lon="-75.11457">
        <ele>1117.4</ele>
        <time>2021-08-21T12:59:13Z</time>
      </trkpt>
      <trkpt lat="2.852605" lon="-75.11457">
        <ele>1117.5</ele>
        <time>2021-08-21T12:59:14Z</time>
      </trkpt>
      <trkpt lat="2.852585" lon="-75.11457">
        <ele>1117.7</ele>
        <time>2021-08-21T12:59:15Z</time>
      </trkpt>
      <trkpt lat="2.852565" lon="-75.11456">
        <ele>1117.9</ele>
        <time>2021-08-21T12:59:16Z</time>
      </trkpt>
      <trkpt lat="2.852544" lon="-75.11456">
        <ele>1118.1</ele>
        <time>2021-08-21T12:59:17Z</time>
      </trkpt>
      <trkpt lat="2.852524" lon="-75.114555">
        <ele>1118.3</ele>
        <time>2021-08-21T12:59:18Z</time>
      </trkpt>
      <trkpt lat="2.852504" lon="-75.114555">
        <ele>1118.5</ele>
        <time>2021-08-21T12:59:19Z</time>
      </trkpt>
      <trkpt lat="2.852484" lon="-75.114555">
        <ele>1118.7</ele>
        <time>2021-08-21T12:59:20Z</time>
      </trkpt>
      <trkpt lat="2.852464" lon="-75.11455">
        <ele>1118.9</ele>
        <time>2021-08-21T12:59:21Z</time>
      </trkpt>
      <trkpt lat="2.852446" lon="-75.11454">
        <ele>1119.1</ele>
        <time>2021-08-21T12:59:22Z</time>
      </trkpt>
      <trkpt lat="2.852428" lon="-75.11453">
        <ele>1119.2</ele>
        <time>2021-08-21T12:59:23Z</time>
      </trkpt>
      <trkpt lat="2.85241" lon="-75.114525">
        <ele>1119.4</ele>
        <time>2021-08-21T12:59:24Z</time>
      </trkpt>
      <trkpt lat="2.852391" lon="-75.11452">
        <ele>1119.6</ele>
        <time>2021-08-21T12:59:25Z</time>
      </trkpt>
      <trkpt lat="2.852373" lon="-75.11451">
        <ele>1119.8</ele>
        <time>2021-08-21T12:59:26Z</time>
      </trkpt>
      <trkpt lat="2.852354" lon="-75.1145">
        <ele>1120.0</ele>
        <time>2021-08-21T12:59:27Z</time>
      </trkpt>
      <trkpt lat="2.852336" lon="-75.114494">
        <ele>1120.2</ele>
        <time>2021-08-21T12:59:28Z</time>
      </trkpt>
      <trkpt lat="2.852317" lon="-75.11449">
        <ele>1120.4</ele>
        <time>2021-08-21T12:59:29Z</time>
      </trkpt>
      <trkpt lat="2.852299" lon="-75.11448">
        <ele>1120.6</ele>
        <time>2021-08-21T12:59:30Z</time>
      </trkpt>
      <trkpt lat="2.85228" lon="-75.11447">
        <ele>1120.8</ele>
        <time>2021-08-21T12:59:31Z</time>
      </trkpt>
      <trkpt lat="2.85226" lon="-75.11447">
        <ele>1121.1</ele>
        <time>2021-08-21T12:59:32Z</time>
      </trkpt>
      <trkpt lat="2.852241" lon="-75.11446">
        <ele>1121.3</ele>
        <time>2021-08-21T12:59:33Z</time>
      </trkpt>
      <trkpt lat="2.852223" lon="-75.11445">
        <ele>1121.5</ele>
        <time>2021-08-21T12:59:34Z</time>
      </trkpt>
      <trkpt lat="2.852204" lon="-75.11444">
        <ele>1121.7</ele>
        <time>2021-08-21T12:59:35Z</time>
      </trkpt>
      <trkpt lat="2.852185" lon="-75.11443">
        <ele>1121.9</ele>
        <time>2021-08-21T12:59:36Z</time>
      </trkpt>
      <trkpt lat="2.852166" lon="-75.114426">
        <ele>1122.1</ele>
        <time>2021-08-21T12:59:37Z</time>
      </trkpt>
      <trkpt lat="2.852146" lon="-75.11442">
        <ele>1122.3</ele>
        <time>2021-08-21T12:59:38Z</time>
      </trkpt>
      <trkpt lat="2.852128" lon="-75.11441">
        <ele>1122.5</ele>
        <time>2021-08-21T12:59:39Z</time>
      </trkpt>
      <trkpt lat="2.85211" lon="-75.11441">
        <ele>1122.7</ele>
        <time>2021-08-21T12:59:40Z</time>
      </trkpt>
      <trkpt lat="2.852092" lon="-75.1144">
        <ele>1122.9</ele>
        <time>2021-08-21T12:59:41Z</time>
      </trkpt>
      <trkpt lat="2.852074" lon="-75.1144">
        <ele>1123.1</ele>
        <time>2021-08-21T12:59:42Z</time>
      </trkpt>
      <trkpt lat="2.852057" lon="-75.1144">
        <ele>1123.3</ele>
        <time>2021-08-21T12:59:43Z</time>
      </trkpt>
      <trkpt lat="2.85204" lon="-75.114395">
        <ele>1123.5</ele>
        <time>2021-08-21T12:59:44Z</time>
      </trkpt>
      <trkpt lat="2.852023" lon="-75.11439">
        <ele>1123.7</ele>
        <time>2021-08-21T12:59:45Z</time>
      </trkpt>
      <trkpt lat="2.852008" lon="-75.11439">
        <ele>1123.8</ele>
        <time>2021-08-21T12:59:46Z</time>
      </trkpt>
      <trkpt lat="2.851993" lon="-75.11438">
        <ele>1124.0</ele>
        <time>2021-08-21T12:59:47Z</time>
      </trkpt>
      <trkpt lat="2.851978" lon="-75.11437">
        <ele>1124.2</ele>
        <time>2021-08-21T12:59:48Z</time>
      </trkpt>
      <trkpt lat="2.851963" lon="-75.114365">
        <ele>1124.4</ele>
        <time>2021-08-21T12:59:49Z</time>
      </trkpt>
      <trkpt lat="2.851948" lon="-75.11435">
        <ele>1124.5</ele>
        <time>2021-08-21T12:59:50Z</time>
      </trkpt>
      <trkpt lat="2.851934" lon="-75.11434">
        <ele>1124.7</ele>
        <time>2021-08-21T12:59:51Z</time>
      </trkpt>
      <trkpt lat="2.851921" lon="-75.11433">
        <ele>1124.9</ele>
        <time>2021-08-21T12:59:52Z</time>
      </trkpt>
      <trkpt lat="2.85191" lon="-75.11432">
        <ele>1125.0</ele>
        <time>2021-08-21T12:59:53Z</time>
      </trkpt>
      <trkpt lat="2.851897" lon="-75.1143">
        <ele>1125.2</ele>
        <time>2021-08-21T12:59:54Z</time>
      </trkpt>
      <trkpt lat="2.851885" lon="-75.11429">
        <ele>1125.4</ele>
        <time>2021-08-21T12:59:55Z</time>
      </trkpt>
      <trkpt lat="2.851873" lon="-75.11428">
        <ele>1125.5</ele>
        <time>2021-08-21T12:59:56Z</time>
      </trkpt>
      <trkpt lat="2.851862" lon="-75.114265">
        <ele>1125.7</ele>
        <time>2021-08-21T12:59:57Z</time>
      </trkpt>
      <trkpt lat="2.851854" lon="-75.11425">
        <ele>1125.8</ele>
        <time>2021-08-21T12:59:58Z</time>
      </trkpt>
      <trkpt lat="2.851847" lon="-75.11423">
        <ele>1126.0</ele>
        <time>2021-08-21T12:59:59Z</time>
      </trkpt>
      <trkpt lat="2.85184" lon="-75.11421">
        <ele>1126.1</ele>
        <time>2021-08-21T13:00:00Z</time>
      </trkpt>
      <trkpt lat="2.851834" lon="-75.1142">
        <ele>1126.2</ele>
        <time>2021-08-21T13:00:01Z</time>
      </trkpt>
      <trkpt lat="2.85183" lon="-75.11418">
        <ele>1126.4</ele>
        <time>2021-08-21T13:00:02Z</time>
      </trkpt>
      <trkpt lat="2.851827" lon="-75.11416">
        <ele>1126.5</ele>
        <time>2021-08-21T13:00:03Z</time>
      </trkpt>
      <trkpt lat="2.851825" lon="-75.11414">
        <ele>1126.7</ele>
        <time>2021-08-21T13:00:04Z</time>
      </trkpt>
      <trkpt lat="2.851824" lon="-75.11413">
        <ele>1126.8</ele>
        <time>2021-08-21T13:00:05Z</time>
      </trkpt>
      <trkpt lat="2.851824" lon="-75.114105">
        <ele>1126.9</ele>
        <time>2021-08-21T13:00:06Z</time>
      </trkpt>
      <trkpt lat="2.851826" lon="-75.11409">
        <ele>1127.1</ele>
        <time>2021-08-21T13:00:07Z</time>
      </trkpt>
      <trkpt lat="2.851827" lon="-75.11407">
        <ele>1127.2</ele>
        <time>2021-08-21T13:00:08Z</time>
      </trkpt>
      <trkpt lat="2.851828" lon="-75.11405">
        <ele>1127.3</ele>
        <time>2021-08-21T13:00:09Z</time>
      </trkpt>
      <trkpt lat="2.851829" lon="-75.11403">
        <ele>1127.5</ele>
        <time>2021-08-21T13:00:10Z</time>
      </trkpt>
      <trkpt lat="2.85183" lon="-75.11401">
        <ele>1127.6</ele>
        <time>2021-08-21T13:00:11Z</time>
      </trkpt>
      <trkpt lat="2.851831" lon="-75.114">
        <ele>1127.7</ele>
        <time>2021-08-21T13:00:12Z</time>
      </trkpt>
      <trkpt lat="2.851831" lon="-75.11398">
        <ele>1127.9</ele>
        <time>2021-08-21T13:00:13Z</time>
      </trkpt>
      <trkpt lat="2.851833" lon="-75.11396">
        <ele>1128.0</ele>
        <time>2021-08-21T13:00:14Z</time>
      </trkpt>
      <trkpt lat="2.851836" lon="-75.113945">
        <ele>1128.1</ele>
        <time>2021-08-21T13:00:15Z</time>
      </trkpt>
      <trkpt lat="2.851838" lon="-75.11393">
        <ele>1128.3</ele>
        <time>2021-08-21T13:00:16Z</time>
      </trkpt>
      <trkpt lat="2.85184" lon="-75.11391">
        <ele>1128.4</ele>
        <time>2021-08-21T13:00:17Z</time>
      </trkpt>
      <trkpt lat="2.851841" lon="-75.11389">
        <ele>1128.5</ele>
        <time>2021-08-21T13:00:18Z</time>
      </trkpt>
      <trkpt lat="2.851841" lon="-75.11388">
        <ele>1128.7</ele>
        <time>2021-08-21T13:00:19Z</time>
      </trkpt>
      <trkpt lat="2.851841" lon="-75.11386">
        <ele>1128.8</ele>
        <time>2021-08-21T13:00:20Z</time>
      </trkpt>
      <trkpt lat="2.85184" lon="-75.113846">
        <ele>1128.9</ele>
        <time>2021-08-21T13:00:21Z</time>
      </trkpt>
      <trkpt lat="2.85184" lon="-75.11382">
        <ele>1129.1</ele>
        <time>2021-08-21T13:00:22Z</time>
      </trkpt>
      <trkpt lat="2.851841" lon="-75.11381">
        <ele>1129.2</ele>
        <time>2021-08-21T13:00:23Z</time>
      </trkpt>
      <trkpt lat="2.851842" lon="-75.11379">
        <ele>1129.4</ele>
        <time>2021-08-21T13:00:24Z</time>
      </trkpt>
      <trkpt lat="2.851844" lon="-75.11378">
        <ele>1129.5</ele>
        <time>2021-08-21T13:00:25Z</time>
      </trkpt>
      <trkpt lat="2.851845" lon="-75.113754">
        <ele>1129.7</ele>
        <time>2021-08-21T13:00:26Z</time>
      </trkpt>
      <trkpt lat="2.851847" lon="-75.11374">
        <ele>1129.9</ele>
        <time>2021-08-21T13:00:27Z</time>
      </trkpt>
      <trkpt lat="2.851847" lon="-75.11372">
        <ele>1130.1</ele>
        <time>2021-08-21T13:00:28Z</time>
      </trkpt>
      <trkpt lat="2.851846" lon="-75.11371">
        <ele>1130.2</ele>
        <time>2021-08-21T13:00:29Z</time>
      </trkpt>
      <trkpt lat="2.851843" lon="-75.11369">
        <ele>1130.4</ele>
        <time>2021-08-21T13:00:30Z</time>
      </trkpt>
      <trkpt lat="2.851839" lon="-75.11368">
        <ele>1130.5</ele>
        <time>2021-08-21T13:00:31Z</time>
      </trkpt>
      <trkpt lat="2.851834" lon="-75.11366">
        <ele>1130.7</ele>
        <time>2021-08-21T13:00:32Z</time>
      </trkpt>
      <trkpt lat="2.851828" lon="-75.11365">
        <ele>1130.8</ele>
        <time>2021-08-21T13:00:33Z</time>
      </trkpt>
      <trkpt lat="2.851821" lon="-75.11363">
        <ele>1131.0</ele>
        <time>2021-08-21T13:00:34Z</time>
      </trkpt>
      <trkpt lat="2.851813" lon="-75.11362">
        <ele>1131.1</ele>
        <time>2021-08-21T13:00:35Z</time>
      </trkpt>
      <trkpt lat="2.851805" lon="-75.11361">
        <ele>1131.3</ele>
        <time>2021-08-21T13:00:36Z</time>
      </trkpt>
      <trkpt lat="2.851796" lon="-75.113594">
        <ele>1131.4</ele>
        <time>2021-08-21T13:00:37Z</time>
      </trkpt>
      <trkpt lat="2.851787" lon="-75.11358">
        <ele>1131.5</ele>
        <time>2021-08-21T13:00:38Z</time>
      </trkpt>
      <trkpt lat="2.851775" lon="-75.11357">
        <ele>1131.7</ele>
        <time>2021-08-21T13:00:39Z</time>
      </trkpt>
      <trkpt lat="2.851761" lon="-75.113556">
        <ele>1131.8</ele>
        <time>2021-08-21T13:00:40Z</time>
      </trkpt>
      <trkpt lat="2.851745" lon="-75.11354">
        <ele>1132.0</ele>
        <time>2021-08-21T13:00:41Z</time>
      </trkpt>
      <trkpt lat="2.851729" lon="-75.11353">
        <ele>1132.2</ele>
        <time>2021-08-21T13:00:42Z</time>
      </trkpt>
      <trkpt lat="2.851711" lon="-75.11352">
        <ele>1132.3</ele>
        <time>2021-08-21T13:00:43Z</time>
      </trkpt>
      <trkpt lat="2.851694" lon="-75.11351">
        <ele>1132.5</ele>
        <time>2021-08-21T13:00:44Z</time>
      </trkpt>
      <trkpt lat="2.851677" lon="-75.1135">
        <ele>1132.7</ele>
        <time>2021-08-21T13:00:45Z</time>
      </trkpt>
      <trkpt lat="2.85166" lon="-75.11349">
        <ele>1132.8</ele>
        <time>2021-08-21T13:00:46Z</time>
      </trkpt>
      <trkpt lat="2.851643" lon="-75.11348">
        <ele>1133.0</ele>
        <time>2021-08-21T13:00:47Z</time>
      </trkpt>
      <trkpt lat="2.851627" lon="-75.11347">
        <ele>1133.1</ele>
        <time>2021-08-21T13:00:48Z</time>
      </trkpt>
      <trkpt lat="2.85161" lon="-75.11346">
        <ele>1133.3</ele>
        <time>2021-08-21T13:00:49Z</time>
      </trkpt>
      <trkpt lat="2.851593" lon="-75.11345">
        <ele>1133.5</ele>
        <time>2021-08-21T13:00:50Z</time>
      </trkpt>
      <trkpt lat="2.851577" lon="-75.11344">
        <ele>1133.6</ele>
        <time>2021-08-21T13:00:51Z</time>
      </trkpt>
      <trkpt lat="2.851562" lon="-75.11343">
        <ele>1133.8</ele>
        <time>2021-08-21T13:00:52Z</time>
      </trkpt>
      <trkpt lat="2.851546" lon="-75.11342">
        <ele>1133.9</ele>
        <time>2021-08-21T13:00:53Z</time>
      </trkpt>
      <trkpt lat="2.85153" lon="-75.1134">
        <ele>1134.1</ele>
        <time>2021-08-21T13:00:54Z</time>
      </trkpt>
      <trkpt lat="2.851515" lon="-75.113396">
        <ele>1134.2</ele>
        <time>2021-08-21T13:00:55Z</time>
      </trkpt>
      <trkpt lat="2.851498" lon="-75.11339">
        <ele>1134.4</ele>
        <time>2021-08-21T13:00:56Z</time>
      </trkpt>
      <trkpt lat="2.851482" lon="-75.11338">
        <ele>1134.5</ele>
        <time>2021-08-21T13:00:57Z</time>
      </trkpt>
      <trkpt lat="2.851466" lon="-75.113365">
        <ele>1134.7</ele>
        <time>2021-08-21T13:00:58Z</time>
      </trkpt>
      <trkpt lat="2.851449" lon="-75.11336">
        <ele>1134.8</ele>
        <time>2021-08-21T13:00:59Z</time>
      </trkpt>
      <trkpt lat="2.851432" lon="-75.11334">
        <ele>1135.0</ele>
        <time>2021-08-21T13:01:00Z</time>
      </trkpt>
      <trkpt lat="2.851416" lon="-75.113335">
        <ele>1135.1</ele>
        <time>2021-08-21T13:01:01Z</time>
      </trkpt>
      <trkpt lat="2.851402" lon="-75.11332">
        <ele>1135.3</ele>
        <time>2021-08-21T13:01:02Z</time>
      </trkpt>
      <trkpt lat="2.851389" lon="-75.11331">
        <ele>1135.4</ele>
        <time>2021-08-21T13:01:03Z</time>
      </trkpt>
      <trkpt lat="2.851379" lon="-75.1133">
        <ele>1135.6</ele>
        <time>2021-08-21T13:01:04Z</time>
      </trkpt>
      <trkpt lat="2.851369" lon="-75.11328">
        <ele>1135.7</ele>
        <time>2021-08-21T13:01:05Z</time>
      </trkpt>
      <trkpt lat="2.85136" lon="-75.113266">
        <ele>1135.9</ele>
        <time>2021-08-21T13:01:06Z</time>
      </trkpt>
      <trkpt lat="2.851351" lon="-75.11325">
        <ele>1136.0</ele>
        <time>2021-08-21T13:01:07Z</time>
      </trkpt>
      <trkpt lat="2.851341" lon="-75.113235">
        <ele>1136.1</ele>
        <time>2021-08-21T13:01:08Z</time>
      </trkpt>
      <trkpt lat="2.851332" lon="-75.11322">
        <ele>1136.3</ele>
        <time>2021-08-21T13:01:09Z</time>
      </trkpt>
      <trkpt lat="2.851322" lon="-75.11321">
        <ele>1136.4</ele>
        <time>2021-08-21T13:01:10Z</time>
      </trkpt>
      <trkpt lat="2.851313" lon="-75.1132">
        <ele>1136.5</ele>
        <time>2021-08-21T13:01:11Z</time>
      </trkpt>
      <trkpt lat="2.851303" lon="-75.11318">
        <ele>1136.6</ele>
        <time>2021-08-21T13:01:12Z</time>
      </trkpt>
      <trkpt lat="2.851294" lon="-75.11317">
        <ele>1136.8</ele>
        <time>2021-08-21T13:01:13Z</time>
      </trkpt>
      <trkpt lat="2.851285" lon="-75.11315">
        <ele>1136.9</ele>
        <time>2021-08-21T13:01:14Z</time>
      </trkpt>
      <trkpt lat="2.851276" lon="-75.11314">
        <ele>1137.0</ele>
        <time>2021-08-21T13:01:15Z</time>
      </trkpt>
      <trkpt lat="2.851268" lon="-75.11312">
        <ele>1137.1</ele>
        <time>2021-08-21T13:01:16Z</time>
      </trkpt>
      <trkpt lat="2.85126" lon="-75.113106">
        <ele>1137.2</ele>
        <time>2021-08-21T13:01:17Z</time>
      </trkpt>
      <trkpt lat="2.851252" lon="-75.11308">
        <ele>1137.4</ele>
        <time>2021-08-21T13:01:18Z</time>
      </trkpt>
      <trkpt lat="2.851244" lon="-75.11307">
        <ele>1137.5</ele>
        <time>2021-08-21T13:01:19Z</time>
      </trkpt>
      <trkpt lat="2.851237" lon="-75.11305">
        <ele>1137.6</ele>
        <time>2021-08-21T13:01:20Z</time>
      </trkpt>
      <trkpt lat="2.851232" lon="-75.11303">
        <ele>1137.8</ele>
        <time>2021-08-21T13:01:21Z</time>
      </trkpt>
      <trkpt lat="2.851228" lon="-75.11301">
        <ele>1137.9</ele>
        <time>2021-08-21T13:01:22Z</time>
      </trkpt>
      <trkpt lat="2.851225" lon="-75.11299">
        <ele>1138.0</ele>
        <time>2021-08-21T13:01:23Z</time>
      </trkpt>
      <trkpt lat="2.851222" lon="-75.11297">
        <ele>1138.1</ele>
        <time>2021-08-21T13:01:24Z</time>
      </trkpt>
      <trkpt lat="2.85122" lon="-75.112946">
        <ele>1138.2</ele>
        <time>2021-08-21T13:01:25Z</time>
      </trkpt>
      <trkpt lat="2.851219" lon="-75.11292">
        <ele>1138.3</ele>
        <time>2021-08-21T13:01:26Z</time>
      </trkpt>
      <trkpt lat="2.851218" lon="-75.11289">
        <ele>1138.4</ele>
        <time>2021-08-21T13:01:27Z</time>
      </trkpt>
      <trkpt lat="2.851219" lon="-75.11287">
        <ele>1138.6</ele>
        <time>2021-08-21T13:01:28Z</time>
      </trkpt>
      <trkpt lat="2.851222" lon="-75.11285">
        <ele>1138.6</ele>
        <time>2021-08-21T13:01:29Z</time>
      </trkpt>
      <trkpt lat="2.851226" lon="-75.11282">
        <ele>1138.7</ele>
        <time>2021-08-21T13:01:30Z</time>
      </trkpt>
      <trkpt lat="2.851232" lon="-75.11279">
        <ele>1138.8</ele>
        <time>2021-08-21T13:01:31Z</time>
      </trkpt>
      <trkpt lat="2.85124" lon="-75.11276">
        <ele>1138.9</ele>
        <time>2021-08-21T13:01:32Z</time>
      </trkpt>
      <trkpt lat="2.85125" lon="-75.11274">
        <ele>1139.0</ele>
        <time>2021-08-21T13:01:33Z</time>
      </trkpt>
      <trkpt lat="2.851261" lon="-75.11272">
        <ele>1139.1</ele>
        <time>2021-08-21T13:01:34Z</time>
      </trkpt>
      <trkpt lat="2.851276" lon="-75.112686">
        <ele>1139.2</ele>
        <time>2021-08-21T13:01:35Z</time>
      </trkpt>
      <trkpt lat="2.851293" lon="-75.11266">
        <ele>1139.3</ele>
        <time>2021-08-21T13:01:36Z</time>
      </trkpt>
      <trkpt lat="2.851312" lon="-75.11264">
        <ele>1139.3</ele>
        <time>2021-08-21T13:01:37Z</time>
      </trkpt>
      <trkpt lat="2.851334" lon="-75.11262">
        <ele>1139.4</ele>
        <time>2021-08-21T13:01:38Z</time>
      </trkpt>
      <trkpt lat="2.851357" lon="-75.1126">
        <ele>1139.5</ele>
        <time>2021-08-21T13:01:39Z</time>
      </trkpt>
      <trkpt lat="2.851381" lon="-75.11258">
        <ele>1139.6</ele>
        <time>2021-08-21T13:01:40Z</time>
      </trkpt>
      <trkpt lat="2.851406" lon="-75.112564">
        <ele>1139.6</ele>
        <time>2021-08-21T13:01:41Z</time>
      </trkpt>
      <trkpt lat="2.851432" lon="-75.11255">
        <ele>1139.7</ele>
        <time>2021-08-21T13:01:42Z</time>
      </trkpt>
      <trkpt lat="2.851456" lon="-75.11253">
        <ele>1139.8</ele>
        <time>2021-08-21T13:01:43Z</time>
      </trkpt>
      <trkpt lat="2.85148" lon="-75.11252">
        <ele>1139.9</ele>
        <time>2021-08-21T13:01:44Z</time>
      </trkpt>
      <trkpt lat="2.851504" lon="-75.11251">
        <ele>1140.0</ele>
        <time>2021-08-21T13:01:45Z</time>
      </trkpt>
      <trkpt lat="2.851529" lon="-75.112495">
        <ele>1140.1</ele>
        <time>2021-08-21T13:01:46Z</time>
      </trkpt>
      <trkpt lat="2.851556" lon="-75.11249">
        <ele>1140.2</ele>
        <time>2021-08-21T13:01:47Z</time>
      </trkpt>
      <trkpt lat="2.851579" lon="-75.11248">
        <ele>1140.3</ele>
        <time>2021-08-21T13:01:48Z</time>
      </trkpt>
      <trkpt lat="2.851603" lon="-75.11248">
        <ele>1140.4</ele>
        <time>2021-08-21T13:01:49Z</time>
      </trkpt>
      <trkpt lat="2.851629" lon="-75.11247">
        <ele>1140.5</ele>
        <time>2021-08-21T13:01:50Z</time>
      </trkpt>
      <trkpt lat="2.851654" lon="-75.11247">
        <ele>1140.5</ele>
        <time>2021-08-21T13:01:51Z</time>
      </trkpt>
      <trkpt lat="2.851678" lon="-75.11247">
        <ele>1140.6</ele>
        <time>2021-08-21T13:01:52Z</time>
      </trkpt>
      <trkpt lat="2.851701" lon="-75.11247">
        <ele>1140.7</ele>
        <time>2021-08-21T13:01:53Z</time>
      </trkpt>
      <trkpt lat="2.851725" lon="-75.11248">
        <ele>1140.8</ele>
        <time>2021-08-21T13:01:54Z</time>
      </trkpt>
      <trkpt lat="2.85175" lon="-75.11249">
        <ele>1140.9</ele>
        <time>2021-08-21T13:01:55Z</time>
      </trkpt>
      <trkpt lat="2.851776" lon="-75.11249">
        <ele>1141.0</ele>
        <time>2021-08-21T13:01:56Z</time>
      </trkpt>
      <trkpt lat="2.851802" lon="-75.112495">
        <ele>1141.1</ele>
        <time>2021-08-21T13:01:57Z</time>
      </trkpt>
      <trkpt lat="2.851829" lon="-75.1125">
        <ele>1141.2</ele>
        <time>2021-08-21T13:01:58Z</time>
      </trkpt>
      <trkpt lat="2.851855" lon="-75.11251">
        <ele>1141.3</ele>
        <time>2021-08-21T13:01:59Z</time>
      </trkpt>
      <trkpt lat="2.851882" lon="-75.11252">
        <ele>1141.4</ele>
        <time>2021-08-21T13:02:00Z</time>
      </trkpt>
      <trkpt lat="2.851908" lon="-75.112526">
        <ele>1141.5</ele>
        <time>2021-08-21T13:02:01Z</time>
      </trkpt>
      <trkpt lat="2.851935" lon="-75.11253">
        <ele>1141.6</ele>
        <time>2021-08-21T13:02:02Z</time>
      </trkpt>
      <trkpt lat="2.851961" lon="-75.11253">
        <ele>1141.8</ele>
        <time>2021-08-21T13:02:03Z</time>
      </trkpt>
      <trkpt lat="2.851985" lon="-75.11254">
        <ele>1141.9</ele>
        <time>2021-08-21T13:02:04Z</time>
      </trkpt>
      <trkpt lat="2.852009" lon="-75.11254">
        <ele>1142.0</ele>
        <time>2021-08-21T13:02:05Z</time>
      </trkpt>
      <trkpt lat="2.852032" lon="-75.11254">
        <ele>1142.1</ele>
        <time>2021-08-21T13:02:06Z</time>
      </trkpt>
      <trkpt lat="2.852054" lon="-75.11253">
        <ele>1142.2</ele>
        <time>2021-08-21T13:02:07Z</time>
      </trkpt>
      <trkpt lat="2.852076" lon="-75.11253">
        <ele>1142.4</ele>
        <time>2021-08-21T13:02:08Z</time>
      </trkpt>
      <trkpt lat="2.852099" lon="-75.11253">
        <ele>1142.5</ele>
        <time>2021-08-21T13:02:09Z</time>
      </trkpt>
      <trkpt lat="2.852123" lon="-75.112526">
        <ele>1142.6</ele>
        <time>2021-08-21T13:02:10Z</time>
      </trkpt>
      <trkpt lat="2.852146" lon="-75.112526">
        <ele>1142.8</ele>
        <time>2021-08-21T13:02:11Z</time>
      </trkpt>
      <trkpt lat="2.852168" lon="-75.11252">
        <ele>1142.9</ele>
        <time>2021-08-21T13:02:12Z</time>
      </trkpt>
      <trkpt lat="2.852191" lon="-75.11251">
        <ele>1143.0</ele>
        <time>2021-08-21T13:02:13Z</time>
      </trkpt>
      <trkpt lat="2.852213" lon="-75.1125">
        <ele>1143.2</ele>
        <time>2021-08-21T13:02:14Z</time>
      </trkpt>
      <trkpt lat="2.852234" lon="-75.112495">
        <ele>1143.3</ele>
        <time>2021-08-21T13:02:15Z</time>
      </trkpt>
      <trkpt lat="2.852254" lon="-75.11249">
        <ele>1143.4</ele>
        <time>2021-08-21T13:02:16Z</time>
      </trkpt>
      <trkpt lat="2.852275" lon="-75.11247">
        <ele>1143.6</ele>
        <time>2021-08-21T13:02:17Z</time>
      </trkpt>
      <trkpt lat="2.852294" lon="-75.112465">
        <ele>1143.7</ele>
        <time>2021-08-21T13:02:18Z</time>
      </trkpt>
      <trkpt lat="2.852313" lon="-75.11245">
        <ele>1143.8</ele>
        <time>2021-08-21T13:02:19Z</time>
      </trkpt>
      <trkpt lat="2.852332" lon="-75.11244">
        <ele>1144.0</ele>
        <time>2021-08-21T13:02:20Z</time>
      </trkpt>
      <trkpt lat="2.85235" lon="-75.112434">
        <ele>1144.1</ele>
        <time>2021-08-21T13:02:21Z</time>
      </trkpt>
      <trkpt lat="2.852367" lon="-75.11242">
        <ele>1144.2</ele>
        <time>2021-08-21T13:02:22Z</time>
      </trkpt>
      <trkpt lat="2.852385" lon="-75.112404">
        <ele>1144.3</ele>
        <time>2021-08-21T13:02:23Z</time>
      </trkpt>
      <trkpt lat="2.852402" lon="-75.1124">
        <ele>1144.5</ele>
        <time>2021-08-21T13:02:24Z</time>
      </trkpt>
      <trkpt lat="2.852418" lon="-75.11238">
        <ele>1144.6</ele>
        <time>2021-08-21T13:02:25Z</time>
      </trkpt>
      <trkpt lat="2.852434" lon="-75.112366">
        <ele>1144.7</ele>
        <time>2021-08-21T13:02:26Z</time>
      </trkpt>
      <trkpt lat="2.852449" lon="-75.11236">
        <ele>1144.8</ele>
        <time>2021-08-21T13:02:27Z</time>
      </trkpt>
      <trkpt lat="2.852464" lon="-75.11234">
        <ele>1144.9</ele>
        <time>2021-08-21T13:02:28Z</time>
      </trkpt>
      <trkpt lat="2.85248" lon="-75.11233">
        <ele>1145.0</ele>
        <time>2021-08-21T13:02:29Z</time>
      </trkpt>
      <trkpt lat="2.852495" lon="-75.11231">
        <ele>1145.1</ele>
        <time>2021-08-21T13:02:30Z</time>
      </trkpt>
      <trkpt lat="2.85251" lon="-75.1123">
        <ele>1145.2</ele>
        <time>2021-08-21T13:02:31Z</time>
      </trkpt>
      <trkpt lat="2.852525" lon="-75.11228">
        <ele>1145.3</ele>
        <time>2021-08-21T13:02:32Z</time>
      </trkpt>
      <trkpt lat="2.852541" lon="-75.11226">
        <ele>1145.3</ele>
        <time>2021-08-21T13:02:33Z</time>
      </trkpt>
      <trkpt lat="2.852558" lon="-75.11224">
        <ele>1145.4</ele>
        <time>2021-08-21T13:02:34Z</time>
      </trkpt>
      <trkpt lat="2.852574" lon="-75.11223">
        <ele>1145.5</ele>
        <time>2021-08-21T13:02:35Z</time>
      </trkpt>
      <trkpt lat="2.852591" lon="-75.11221">
        <ele>1145.5</ele>
        <time>2021-08-21T13:02:36Z</time>
      </trkpt>
      <trkpt lat="2.85261" lon="-75.1122">
        <ele>1145.6</ele>
        <time>2021-08-21T13:02:37Z</time>
      </trkpt>
      <trkpt lat="2.852629" lon="-75.11218">
        <ele>1145.6</ele>
        <time>2021-08-21T13:02:38Z</time>
      </trkpt>
      <trkpt lat="2.85265" lon="-75.11217">
        <ele>1145.6</ele>
        <time>2021-08-21T13:02:39Z</time>
      </trkpt>
      <trkpt lat="2.852671" lon="-75.11216">
        <ele>1145.7</ele>
        <time>2021-08-21T13:02:40Z</time>
      </trkpt>
      <trkpt lat="2.852695" lon="-75.112144">
        <ele>1145.7</ele>
        <time>2021-08-21T13:02:41Z</time>
      </trkpt>
      <trkpt lat="2.852719" lon="-75.11213">
        <ele>1145.6</ele>
        <time>2021-08-21T13:02:42Z</time>
      </trkpt>
      <trkpt lat="2.852743" lon="-75.11211">
        <ele>1145.6</ele>
        <time>2021-08-21T13:02:43Z</time>
      </trkpt>
      <trkpt lat="2.852769" lon="-75.11208">
        <ele>1145.5</ele>
        <time>2021-08-21T13:02:44Z</time>
      </trkpt>
      <trkpt lat="2.852795" lon="-75.11206">
        <ele>1145.5</ele>
        <time>2021-08-21T13:02:45Z</time>
      </trkpt>
      <trkpt lat="2.852823" lon="-75.11204">
        <ele>1145.4</ele>
        <time>2021-08-21T13:02:46Z</time>
      </trkpt>
      <trkpt lat="2.85285" lon="-75.11201">
        <ele>1145.3</ele>
        <time>2021-08-21T13:02:47Z</time>
      </trkpt>
      <trkpt lat="2.852876" lon="-75.11198">
        <ele>1145.1</ele>
        <time>2021-08-21T13:02:48Z</time>
      </trkpt>
      <trkpt lat="2.8529" lon="-75.11194">
        <ele>1145.0</ele>
        <time>2021-08-21T13:02:49Z</time>
      </trkpt>
      <trkpt lat="2.85292" lon="-75.1119">
        <ele>1144.8</ele>
        <time>2021-08-21T13:02:50Z</time>
      </trkpt>
      <trkpt lat="2.852937" lon="-75.111855">
        <ele>1144.6</ele>
        <time>2021-08-21T13:02:51Z</time>
      </trkpt>
      <trkpt lat="2.852954" lon="-75.11181">
        <ele>1144.3</ele>
        <time>2021-08-21T13:02:52Z</time>
      </trkpt>
      <trkpt lat="2.852971" lon="-75.111755">
        <ele>1144.0</ele>
        <time>2021-08-21T13:02:53Z</time>
      </trkpt>
      <trkpt lat="2.852992" lon="-75.1117">
        <ele>1143.7</ele>
        <time>2021-08-21T13:02:53Z</time>
      </trkpt>
      <trkpt lat="2.853012" lon="-75.11165">
        <ele>1143.4</ele>
        <time>2021-08-21T13:02:54Z</time>
      </trkpt>
      <trkpt lat="2.853032" lon="-75.111595">
        <ele>1143.1</ele>
        <time>2021-08-21T13:02:55Z</time>
      </trkpt>
      <trkpt lat="2.85305" lon="-75.11154">
        <ele>1142.7</ele>
        <time>2021-08-21T13:02:56Z</time>
      </trkpt>
      <trkpt lat="2.853065" lon="-75.11147">
        <ele>1142.4</ele>
        <time>2021-08-21T13:02:57Z</time>
      </trkpt>
      <trkpt lat="2.853071" lon="-75.111404">
        <ele>1142.0</ele>
        <time>2021-08-21T13:02:58Z</time>
      </trkpt>
      <trkpt lat="2.85307" lon="-75.11134">
        <ele>1141.6</ele>
        <time>2021-08-21T13:02:59Z</time>
      </trkpt>
      <trkpt lat="2.853062" lon="-75.111275">
        <ele>1141.2</ele>
        <time>2021-08-21T13:03:00Z</time>
      </trkpt>
      <trkpt lat="2.853048" lon="-75.111206">
        <ele>1140.8</ele>
        <time>2021-08-21T13:03:01Z</time>
      </trkpt>
      <trkpt lat="2.853032" lon="-75.11113">
        <ele>1140.3</ele>
        <time>2021-08-21T13:03:02Z</time>
      </trkpt>
      <trkpt lat="2.853013" lon="-75.11105">
        <ele>1139.8</ele>
        <time>2021-08-21T13:03:03Z</time>
      </trkpt>
      <trkpt lat="2.852997" lon="-75.110985">
        <ele>1139.3</ele>
        <time>2021-08-21T13:03:04Z</time>
      </trkpt>
      <trkpt lat="2.85298" lon="-75.11091">
        <ele>1138.8</ele>
        <time>2021-08-21T13:03:05Z</time>
      </trkpt>
      <trkpt lat="2.85296" lon="-75.11084">
        <ele>1138.4</ele>
        <time>2021-08-21T13:03:06Z</time>
      </trkpt>
      <trkpt lat="2.852939" lon="-75.11078">
        <ele>1138.0</ele>
        <time>2021-08-21T13:03:07Z</time>
      </trkpt>
      <trkpt lat="2.852917" lon="-75.11071">
        <ele>1137.6</ele>
        <time>2021-08-21T13:03:08Z</time>
      </trkpt>
      <trkpt lat="2.85289" lon="-75.11065">
        <ele>1137.2</ele>
        <time>2021-08-21T13:03:09Z</time>
      </trkpt>
      <trkpt lat="2.852862" lon="-75.110596">
        <ele>1136.8</ele>
        <time>2021-08-21T13:03:10Z</time>
      </trkpt>
      <trkpt lat="2.852836" lon="-75.110535">
        <ele>1136.5</ele>
        <time>2021-08-21T13:03:11Z</time>
      </trkpt>
      <trkpt lat="2.85281" lon="-75.11048">
        <ele>1136.2</ele>
        <time>2021-08-21T13:03:12Z</time>
      </trkpt>
      <trkpt lat="2.852788" lon="-75.11042">
        <ele>1135.9</ele>
        <time>2021-08-21T13:03:13Z</time>
      </trkpt>
      <trkpt lat="2.85277" lon="-75.11037">
        <ele>1135.7</ele>
        <time>2021-08-21T13:03:14Z</time>
      </trkpt>
      <trkpt lat="2.852757" lon="-75.11031">
        <ele>1135.5</ele>
        <time>2021-08-21T13:03:15Z</time>
      </trkpt>
      <trkpt lat="2.852749" lon="-75.11026">
        <ele>1135.3</ele>
        <time>2021-08-21T13:03:16Z</time>
      </trkpt>
      <trkpt lat="2.852749" lon="-75.11021">
        <ele>1135.2</ele>
        <time>2021-08-21T13:03:17Z</time>
      </trkpt>
      <trkpt lat="2.852757" lon="-75.11016">
        <ele>1135.0</ele>
        <time>2021-08-21T13:03:18Z</time>
      </trkpt>
      <trkpt lat="2.852772" lon="-75.11011">
        <ele>1134.9</ele>
        <time>2021-08-21T13:03:19Z</time>
      </trkpt>
      <trkpt lat="2.852798" lon="-75.11007">
        <ele>1134.7</ele>
        <time>2021-08-21T13:03:20Z</time>
      </trkpt>
      <trkpt lat="2.852831" lon="-75.11003">
        <ele>1134.6</ele>
        <time>2021-08-21T13:03:21Z</time>
      </trkpt>
      <trkpt lat="2.85287" lon="-75.10999">
        <ele>1134.4</ele>
        <time>2021-08-21T13:03:22Z</time>
      </trkpt>
      <trkpt lat="2.852911" lon="-75.109955">
        <ele>1134.3</ele>
        <time>2021-08-21T13:03:23Z</time>
      </trkpt>
      <trkpt lat="2.852955" lon="-75.109924">
        <ele>1134.1</ele>
        <time>2021-08-21T13:03:24Z</time>
      </trkpt>
      <trkpt lat="2.853" lon="-75.10989">
        <ele>1134.0</ele>
        <time>2021-08-21T13:03:25Z</time>
      </trkpt>
      <trkpt lat="2.853044" lon="-75.109856">
        <ele>1133.9</ele>
        <time>2021-08-21T13:03:26Z</time>
      </trkpt>
      <trkpt lat="2.853088" lon="-75.109825">
        <ele>1133.7</ele>
        <time>2021-08-21T13:03:27Z</time>
      </trkpt>
      <trkpt lat="2.853132" lon="-75.109795">
        <ele>1133.6</ele>
        <time>2021-08-21T13:03:28Z</time>
      </trkpt>
      <trkpt lat="2.853175" lon="-75.10977">
        <ele>1133.5</ele>
        <time>2021-08-21T13:03:29Z</time>
      </trkpt>
      <trkpt lat="2.85322" lon="-75.10976">
        <ele>1133.4</ele>
        <time>2021-08-21T13:03:30Z</time>
      </trkpt>
      <trkpt lat="2.853266" lon="-75.10974">
        <ele>1133.3</ele>
        <time>2021-08-21T13:03:31Z</time>
      </trkpt>
      <trkpt lat="2.853314" lon="-75.10973">
        <ele>1133.2</ele>
        <time>2021-08-21T13:03:32Z</time>
      </trkpt>
      <trkpt lat="2.853362" lon="-75.109726">
        <ele>1133.1</ele>
        <time>2021-08-21T13:03:33Z</time>
      </trkpt>
      <trkpt lat="2.853409" lon="-75.109726">
        <ele>1133.0</ele>
        <time>2021-08-21T13:03:34Z</time>
      </trkpt>
      <trkpt lat="2.853457" lon="-75.109726">
        <ele>1132.9</ele>
        <time>2021-08-21T13:03:35Z</time>
      </trkpt>
      <trkpt lat="2.853503" lon="-75.109726">
        <ele>1132.8</ele>
        <time>2021-08-21T13:03:36Z</time>
      </trkpt>
      <trkpt lat="2.853555" lon="-75.10973">
        <ele>1132.7</ele>
        <time>2021-08-21T13:03:37Z</time>
      </trkpt>
      <trkpt lat="2.853604" lon="-75.10974">
        <ele>1132.6</ele>
        <time>2021-08-21T13:03:38Z</time>
      </trkpt>
      <trkpt lat="2.853651" lon="-75.10974">
        <ele>1132.5</ele>
        <time>2021-08-21T13:03:39Z</time>
      </trkpt>
      <trkpt lat="2.853699" lon="-75.10975">
        <ele>1132.3</ele>
        <time>2021-08-21T13:03:40Z</time>
      </trkpt>
      <trkpt lat="2.853748" lon="-75.10975">
        <ele>1132.2</ele>
        <time>2021-08-21T13:03:41Z</time>
      </trkpt>
      <trkpt lat="2.853795" lon="-75.10975">
        <ele>1132.1</ele>
        <time>2021-08-21T13:03:42Z</time>
      </trkpt>
      <trkpt lat="2.853838" lon="-75.10975">
        <ele>1132.1</ele>
        <time>2021-08-21T13:03:43Z</time>
      </trkpt>
      <trkpt lat="2.853879" lon="-75.10973">
        <ele>1132.1</ele>
        <time>2021-08-21T13:03:44Z</time>
      </trkpt>
      <trkpt lat="2.853918" lon="-75.109726">
        <ele>1132.0</ele>
        <time>2021-08-21T13:03:45Z</time>
      </trkpt>
      <trkpt lat="2.853955" lon="-75.10971">
        <ele>1132.0</ele>
        <time>2021-08-21T13:03:46Z</time>
      </trkpt>
      <trkpt lat="2.853987" lon="-75.109695">
        <ele>1132.0</ele>
        <time>2021-08-21T13:03:47Z</time>
      </trkpt>
      <trkpt lat="2.85402" lon="-75.10968">
        <ele>1132.0</ele>
        <time>2021-08-21T13:03:48Z</time>
      </trkpt>
      <trkpt lat="2.85405" lon="-75.10966">
        <ele>1131.9</ele>
        <time>2021-08-21T13:03:49Z</time>
      </trkpt>
      <trkpt lat="2.854078" lon="-75.10964">
        <ele>1131.9</ele>
        <time>2021-08-21T13:03:50Z</time>
      </trkpt>
      <trkpt lat="2.854106" lon="-75.10962">
        <ele>1131.9</ele>
        <time>2021-08-21T13:03:51Z</time>
      </trkpt>
      <trkpt lat="2.854135" lon="-75.109604">
        <ele>1131.8</ele>
        <time>2021-08-21T13:03:52Z</time>
      </trkpt>
      <trkpt lat="2.854165" lon="-75.10958">
        <ele>1131.8</ele>
        <time>2021-08-21T13:03:53Z</time>
      </trkpt>
      <trkpt lat="2.854195" lon="-75.10955">
        <ele>1131.7</ele>
        <time>2021-08-21T13:03:54Z</time>
      </trkpt>
      <trkpt lat="2.854226" lon="-75.10953">
        <ele>1131.6</ele>
        <time>2021-08-21T13:03:55Z</time>
      </trkpt>
      <trkpt lat="2.854254" lon="-75.10949">
        <ele>1131.6</ele>
        <time>2021-08-21T13:03:56Z</time>
      </trkpt>
      <trkpt lat="2.85428" lon="-75.10946">
        <ele>1131.5</ele>
        <time>2021-08-21T13:03:57Z</time>
      </trkpt>
      <trkpt lat="2.854306" lon="-75.10942">
        <ele>1131.4</ele>
        <time>2021-08-21T13:03:58Z</time>
      </trkpt>
      <trkpt lat="2.85433" lon="-75.10938">
        <ele>1131.4</ele>
        <time>2021-08-21T13:03:59Z</time>
      </trkpt>
      <trkpt lat="2.854351" lon="-75.109344">
        <ele>1131.3</ele>
        <time>2021-08-21T13:04:00Z</time>
      </trkpt>
      <trkpt lat="2.854369" lon="-75.10931">
        <ele>1131.2</ele>
        <time>2021-08-21T13:04:01Z</time>
      </trkpt>
      <trkpt lat="2.854384" lon="-75.10927">
        <ele>1131.2</ele>
        <time>2021-08-21T13:04:02Z</time>
      </trkpt>
      <trkpt lat="2.854397" lon="-75.10922">
        <ele>1131.2</ele>
        <time>2021-08-21T13:04:03Z</time>
      </trkpt>
      <trkpt lat="2.854408" lon="-75.109184">
        <ele>1131.2</ele>
        <time>2021-08-21T13:04:04Z</time>
      </trkpt>
      <trkpt lat="2.854416" lon="-75.10915">
        <ele>1131.2</ele>
        <time>2021-08-21T13:04:05Z</time>
      </trkpt>
      <trkpt lat="2.854425" lon="-75.10912">
        <ele>1131.2</ele>
        <time>2021-08-21T13:04:06Z</time>
      </trkpt>
      <trkpt lat="2.854432" lon="-75.109085">
        <ele>1131.2</ele>
        <time>2021-08-21T13:04:07Z</time>
      </trkpt>
      <trkpt lat="2.854438" lon="-75.109055">
        <ele>1131.3</ele>
        <time>2021-08-21T13:04:08Z</time>
      </trkpt>
      <trkpt lat="2.854444" lon="-75.109024">
        <ele>1131.3</ele>
        <time>2021-08-21T13:04:09Z</time>
      </trkpt>
      <trkpt lat="2.854452" lon="-75.10899">
        <ele>1131.4</ele>
        <time>2021-08-21T13:04:10Z</time>
      </trkpt>
      <trkpt lat="2.854459" lon="-75.10896">
        <ele>1131.4</ele>
        <time>2021-08-21T13:04:11Z</time>
      </trkpt>
      <trkpt lat="2.854465" lon="-75.10893">
        <ele>1131.4</ele>
        <time>2021-08-21T13:04:12Z</time>
      </trkpt>
      <trkpt lat="2.85447" lon="-75.1089">
        <ele>1131.5</ele>
        <time>2021-08-21T13:04:13Z</time>
      </trkpt>
      <trkpt lat="2.854472" lon="-75.10887">
        <ele>1131.5</ele>
        <time>2021-08-21T13:04:14Z</time>
      </trkpt>
      <trkpt lat="2.854469" lon="-75.10884">
        <ele>1131.6</ele>
        <time>2021-08-21T13:04:15Z</time>
      </trkpt>
      <trkpt lat="2.854464" lon="-75.10881">
        <ele>1131.6</ele>
        <time>2021-08-21T13:04:16Z</time>
      </trkpt>
      <trkpt lat="2.854458" lon="-75.10879">
        <ele>1131.7</ele>
        <time>2021-08-21T13:04:17Z</time>
      </trkpt>
      <trkpt lat="2.854451" lon="-75.108765">
        <ele>1131.7</ele>
        <time>2021-08-21T13:04:18Z</time>
      </trkpt>
      <trkpt lat="2.854441" lon="-75.10875">
        <ele>1131.7</ele>
        <time>2021-08-21T13:04:19Z</time>
      </trkpt>
      <trkpt lat="2.854428" lon="-75.108734">
        <ele>1131.8</ele>
        <time>2021-08-21T13:04:20Z</time>
      </trkpt>
      <trkpt lat="2.854411" lon="-75.10873">
        <ele>1131.8</ele>
        <time>2021-08-21T13:04:21Z</time>
      </trkpt>
      <trkpt lat="2.854391" lon="-75.10872">
        <ele>1131.8</ele>
        <time>2021-08-21T13:04:22Z</time>
      </trkpt>
      <trkpt lat="2.854367" lon="-75.10871">
        <ele>1131.9</ele>
        <time>2021-08-21T13:04:23Z</time>
      </trkpt>
      <trkpt lat="2.854344" lon="-75.1087">
        <ele>1131.9</ele>
        <time>2021-08-21T13:04:24Z</time>
      </trkpt>
      <trkpt lat="2.854323" lon="-75.108696">
        <ele>1132.0</ele>
        <time>2021-08-21T13:04:25Z</time>
      </trkpt>
      <trkpt lat="2.854301" lon="-75.108696">
        <ele>1132.0</ele>
        <time>2021-08-21T13:04:26Z</time>
      </trkpt>
      <trkpt lat="2.854279" lon="-75.108696">
        <ele>1132.0</ele>
        <time>2021-08-21T13:04:27Z</time>
      </trkpt>
      <trkpt lat="2.854258" lon="-75.1087">
        <ele>1132.1</ele>
        <time>2021-08-21T13:04:28Z</time>
      </trkpt>
      <trkpt lat="2.854236" lon="-75.10871">
        <ele>1132.1</ele>
        <time>2021-08-21T13:04:29Z</time>
      </trkpt>
      <trkpt lat="2.854213" lon="-75.10872">
        <ele>1132.1</ele>
        <time>2021-08-21T13:04:30Z</time>
      </trkpt>
      <trkpt lat="2.854193" lon="-75.10872">
        <ele>1132.2</ele>
        <time>2021-08-21T13:04:31Z</time>
      </trkpt>
      <trkpt lat="2.854173" lon="-75.108734">
        <ele>1132.2</ele>
        <time>2021-08-21T13:04:32Z</time>
      </trkpt>
      <trkpt lat="2.854152" lon="-75.10874">
        <ele>1132.2</ele>
        <time>2021-08-21T13:04:33Z</time>
      </trkpt>
      <trkpt lat="2.854131" lon="-75.10876">
        <ele>1132.3</ele>
        <time>2021-08-21T13:04:34Z</time>
      </trkpt>
      <trkpt lat="2.85411" lon="-75.108765">
        <ele>1132.3</ele>
        <time>2021-08-21T13:04:35Z</time>
      </trkpt>
      <trkpt lat="2.854092" lon="-75.10878">
        <ele>1132.4</ele>
        <time>2021-08-21T13:04:36Z</time>
      </trkpt>
      <trkpt lat="2.854077" lon="-75.10879">
        <ele>1132.4</ele>
        <time>2021-08-21T13:04:37Z</time>
      </trkpt>
      <trkpt lat="2.854062" lon="-75.1088">
        <ele>1132.5</ele>
        <time>2021-08-21T13:04:38Z</time>
      </trkpt>
      <trkpt lat="2.854048" lon="-75.10882">
        <ele>1132.5</ele>
        <time>2021-08-21T13:04:39Z</time>
      </trkpt>
      <trkpt lat="2.854036" lon="-75.10883">
        <ele>1132.5</ele>
        <time>2021-08-21T13:04:40Z</time>
      </trkpt>
      <trkpt lat="2.854023" lon="-75.10885">
        <ele>1132.6</ele>
        <time>2021-08-21T13:04:41Z</time>
      </trkpt>
      <trkpt lat="2.854009" lon="-75.108864">
        <ele>1132.6</ele>
        <time>2021-08-21T13:04:42Z</time>
      </trkpt>
      <trkpt lat="2.853994" lon="-75.10888">
        <ele>1132.7</ele>
        <time>2021-08-21T13:04:43Z</time>
      </trkpt>
      <trkpt lat="2.853981" lon="-75.1089">
        <ele>1132.8</ele>
        <time>2021-08-21T13:04:44Z</time>
      </trkpt>
      <trkpt lat="2.853967" lon="-75.10892">
        <ele>1132.8</ele>
        <time>2021-08-21T13:04:45Z</time>
      </trkpt>
      <trkpt lat="2.853954" lon="-75.10894">
        <ele>1132.9</ele>
        <time>2021-08-21T13:04:46Z</time>
      </trkpt>
      <trkpt lat="2.85394" lon="-75.108955">
        <ele>1133.0</ele>
        <time>2021-08-21T13:04:47Z</time>
      </trkpt>
      <trkpt lat="2.853926" lon="-75.10898">
        <ele>1133.1</ele>
        <time>2021-08-21T13:04:48Z</time>
      </trkpt>
      <trkpt lat="2.853911" lon="-75.10899">
        <ele>1133.2</ele>
        <time>2021-08-21T13:04:49Z</time>
      </trkpt>
      <trkpt lat="2.853895" lon="-75.10902">
        <ele>1133.3</ele>
        <time>2021-08-21T13:04:50Z</time>
      </trkpt>
      <trkpt lat="2.85388" lon="-75.10904">
        <ele>1133.4</ele>
        <time>2021-08-21T13:04:51Z</time>
      </trkpt>
      <trkpt lat="2.853864" lon="-75.109055">
        <ele>1133.5</ele>
        <time>2021-08-21T13:04:52Z</time>
      </trkpt>
      <trkpt lat="2.853848" lon="-75.10908">
        <ele>1133.6</ele>
        <time>2021-08-21T13:04:53Z</time>
      </trkpt>
      <trkpt lat="2.853832" lon="-75.10909">
        <ele>1133.7</ele>
        <time>2021-08-21T13:04:54Z</time>
      </trkpt>
      <trkpt lat="2.853813" lon="-75.109116">
        <ele>1133.8</ele>
        <time>2021-08-21T13:04:55Z</time>
      </trkpt>
      <trkpt lat="2.853795" lon="-75.10913">
        <ele>1133.9</ele>
        <time>2021-08-21T13:04:56Z</time>
      </trkpt>
      <trkpt lat="2.853774" lon="-75.10914">
        <ele>1133.9</ele>
        <time>2021-08-21T13:04:57Z</time>
      </trkpt>
      <trkpt lat="2.853751" lon="-75.10915">
        <ele>1134.0</ele>
        <time>2021-08-21T13:04:58Z</time>
      </trkpt>
      <trkpt lat="2.853726" lon="-75.10915">
        <ele>1134.1</ele>
        <time>2021-08-21T13:04:59Z</time>
      </trkpt>
      <trkpt lat="2.8537" lon="-75.10915">
        <ele>1134.2</ele>
        <time>2021-08-21T13:05:00Z</time>
      </trkpt>
      <trkpt lat="2.853673" lon="-75.10915">
        <ele>1134.4</ele>
        <time>2021-08-21T13:05:01Z</time>
      </trkpt>
      <trkpt lat="2.853646" lon="-75.10915">
        <ele>1134.5</ele>
        <time>2021-08-21T13:05:02Z</time>
      </trkpt>
      <trkpt lat="2.853615" lon="-75.109146">
        <ele>1134.6</ele>
        <time>2021-08-21T13:05:03Z</time>
      </trkpt>
      <trkpt lat="2.853588" lon="-75.10913">
        <ele>1134.7</ele>
        <time>2021-08-21T13:05:04Z</time>
      </trkpt>
      <trkpt lat="2.853561" lon="-75.10912">
        <ele>1134.9</ele>
        <time>2021-08-21T13:05:05Z</time>
      </trkpt>
      <trkpt lat="2.853535" lon="-75.10911">
        <ele>1135.0</ele>
        <time>2021-08-21T13:05:06Z</time>
      </trkpt>
      <trkpt lat="2.853508" lon="-75.1091">
        <ele>1135.1</ele>
        <time>2021-08-21T13:05:07Z</time>
      </trkpt>
      <trkpt lat="2.853481" lon="-75.109085">
        <ele>1135.3</ele>
        <time>2021-08-21T13:05:08Z</time>
      </trkpt>
      <trkpt lat="2.853455" lon="-75.10908">
        <ele>1135.4</ele>
        <time>2021-08-21T13:05:09Z</time>
      </trkpt>
      <trkpt lat="2.85343" lon="-75.10906">
        <ele>1135.6</ele>
        <time>2021-08-21T13:05:10Z</time>
      </trkpt>
      <trkpt lat="2.853406" lon="-75.109055">
        <ele>1135.7</ele>
        <time>2021-08-21T13:05:11Z</time>
      </trkpt>
      <trkpt lat="2.853382" lon="-75.10905">
        <ele>1135.8</ele>
        <time>2021-08-21T13:05:12Z</time>
      </trkpt>
      <trkpt lat="2.853358" lon="-75.10904">
        <ele>1136.0</ele>
        <time>2021-08-21T13:05:13Z</time>
      </trkpt>
      <trkpt lat="2.853334" lon="-75.10903">
        <ele>1136.1</ele>
        <time>2021-08-21T13:05:14Z</time>
      </trkpt>
      <trkpt lat="2.85331" lon="-75.109024">
        <ele>1136.3</ele>
        <time>2021-08-21T13:05:15Z</time>
      </trkpt>
      <trkpt lat="2.853286" lon="-75.10902">
        <ele>1136.4</ele>
        <time>2021-08-21T13:05:16Z</time>
      </trkpt>
      <trkpt lat="2.853264" lon="-75.10901">
        <ele>1136.5</ele>
        <time>2021-08-21T13:05:17Z</time>
      </trkpt>
      <trkpt lat="2.853243" lon="-75.10901">
        <ele>1136.7</ele>
        <time>2021-08-21T13:05:18Z</time>
      </trkpt>
      <trkpt lat="2.853222" lon="-75.109">
        <ele>1136.8</ele>
        <time>2021-08-21T13:05:19Z</time>
      </trkpt>
      <trkpt lat="2.8532" lon="-75.109">
        <ele>1136.9</ele>
        <time>2021-08-21T13:05:20Z</time>
      </trkpt>
      <trkpt lat="2.853178" lon="-75.109">
        <ele>1137.1</ele>
        <time>2021-08-21T13:05:21Z</time>
      </trkpt>
      <trkpt lat="2.853155" lon="-75.109">
        <ele>1137.2</ele>
        <time>2021-08-21T13:05:22Z</time>
      </trkpt>
      <trkpt lat="2.853132" lon="-75.10899">
        <ele>1137.3</ele>
        <time>2021-08-21T13:05:23Z</time>
      </trkpt>
      <trkpt lat="2.853108" lon="-75.10899">
        <ele>1137.5</ele>
        <time>2021-08-21T13:05:24Z</time>
      </trkpt>
      <trkpt lat="2.853086" lon="-75.10899">
        <ele>1137.6</ele>
        <time>2021-08-21T13:05:25Z</time>
      </trkpt>
      <trkpt lat="2.853064" lon="-75.10899">
        <ele>1137.7</ele>
        <time>2021-08-21T13:05:26Z</time>
      </trkpt>
      <trkpt lat="2.853043" lon="-75.109">
        <ele>1137.9</ele>
        <time>2021-08-21T13:05:27Z</time>
      </trkpt>
      <trkpt lat="2.853023" lon="-75.10901">
        <ele>1138.0</ele>
        <time>2021-08-21T13:05:28Z</time>
      </trkpt>
      <trkpt lat="2.853005" lon="-75.10901">
        <ele>1138.1</ele>
        <time>2021-08-21T13:05:29Z</time>
      </trkpt>
      <trkpt lat="2.852987" lon="-75.10902">
        <ele>1138.2</ele>
        <time>2021-08-21T13:05:30Z</time>
      </trkpt>
      <trkpt lat="2.852968" lon="-75.109024">
        <ele>1138.3</ele>
        <time>2021-08-21T13:05:31Z</time>
      </trkpt>
      <trkpt lat="2.852949" lon="-75.10903">
        <ele>1138.5</ele>
        <time>2021-08-21T13:05:32Z</time>
      </trkpt>
      <trkpt lat="2.852931" lon="-75.10904">
        <ele>1138.6</ele>
        <time>2021-08-21T13:05:33Z</time>
      </trkpt>
      <trkpt lat="2.852913" lon="-75.10904">
        <ele>1138.7</ele>
        <time>2021-08-21T13:05:34Z</time>
      </trkpt>
      <trkpt lat="2.852893" lon="-75.10905">
        <ele>1138.9</ele>
        <time>2021-08-21T13:05:35Z</time>
      </trkpt>
      <trkpt lat="2.852875" lon="-75.109055">
        <ele>1139.0</ele>
        <time>2021-08-21T13:05:36Z</time>
      </trkpt>
      <trkpt lat="2.852857" lon="-75.10906">
        <ele>1139.1</ele>
        <time>2021-08-21T13:05:37Z</time>
      </trkpt>
      <trkpt lat="2.852839" lon="-75.10908">
        <ele>1139.3</ele>
        <time>2021-08-21T13:05:38Z</time>
      </trkpt>
      <trkpt lat="2.852821" lon="-75.109085">
        <ele>1139.4</ele>
        <time>2021-08-21T13:05:39Z</time>
      </trkpt>
      <trkpt lat="2.852803" lon="-75.10909">
        <ele>1139.6</ele>
        <time>2021-08-21T13:05:40Z</time>
      </trkpt>
      <trkpt lat="2.852786" lon="-75.1091">
        <ele>1139.7</ele>
        <time>2021-08-21T13:05:41Z</time>
      </trkpt>
      <trkpt lat="2.852767" lon="-75.109116">
        <ele>1139.9</ele>
        <time>2021-08-21T13:05:42Z</time>
      </trkpt>
      <trkpt lat="2.852748" lon="-75.10912">
        <ele>1140.0</ele>
        <time>2021-08-21T13:05:43Z</time>
      </trkpt>
      <trkpt lat="2.852729" lon="-75.10913">
        <ele>1140.1</ele>
        <time>2021-08-21T13:05:44Z</time>
      </trkpt>
      <trkpt lat="2.852708" lon="-75.10914">
        <ele>1140.3</ele>
        <time>2021-08-21T13:05:45Z</time>
      </trkpt>
      <trkpt lat="2.852688" lon="-75.10915">
        <ele>1140.5</ele>
        <time>2021-08-21T13:05:46Z</time>
      </trkpt>
      <trkpt lat="2.852669" lon="-75.10916">
        <ele>1140.6</ele>
        <time>2021-08-21T13:05:47Z</time>
      </trkpt>
      <trkpt lat="2.852651" lon="-75.10918">
        <ele>1140.8</ele>
        <time>2021-08-21T13:05:48Z</time>
      </trkpt>
      <trkpt lat="2.852632" lon="-75.109184">
        <ele>1140.9</ele>
        <time>2021-08-21T13:05:49Z</time>
      </trkpt>
      <trkpt lat="2.852615" lon="-75.1092">
        <ele>1141.1</ele>
        <time>2021-08-21T13:05:50Z</time>
      </trkpt>
      <trkpt lat="2.852597" lon="-75.109215">
        <ele>1141.2</ele>
        <time>2021-08-21T13:05:51Z</time>
      </trkpt>
      <trkpt lat="2.85258" lon="-75.10922">
        <ele>1141.4</ele>
        <time>2021-08-21T13:05:52Z</time>
      </trkpt>
      <trkpt lat="2.852562" lon="-75.10924">
        <ele>1141.5</ele>
        <time>2021-08-21T13:05:53Z</time>
      </trkpt>
      <trkpt lat="2.852543" lon="-75.10925">
        <ele>1141.7</ele>
        <time>2021-08-21T13:05:54Z</time>
      </trkpt>
      <trkpt lat="2.852524" lon="-75.10926">
        <ele>1141.8</ele>
        <time>2021-08-21T13:05:55Z</time>
      </trkpt>
      <trkpt lat="2.852502" lon="-75.109276">
        <ele>1142.0</ele>
        <time>2021-08-21T13:05:56Z</time>
      </trkpt>
      <trkpt lat="2.852482" lon="-75.10928">
        <ele>1142.2</ele>
        <time>2021-08-21T13:05:57Z</time>
      </trkpt>
      <trkpt lat="2.852461" lon="-75.1093">
        <ele>1142.3</ele>
        <time>2021-08-21T13:05:58Z</time>
      </trkpt>
      <trkpt lat="2.852438" lon="-75.10931">
        <ele>1142.5</ele>
        <time>2021-08-21T13:05:59Z</time>
      </trkpt>
      <trkpt lat="2.852416" lon="-75.109314">
        <ele>1142.6</ele>
        <time>2021-08-21T13:06:00Z</time>
      </trkpt>
      <trkpt lat="2.852393" lon="-75.109314">
        <ele>1142.8</ele>
        <time>2021-08-21T13:06:01Z</time>
      </trkpt>
      <trkpt lat="2.85237" lon="-75.10932">
        <ele>1142.9</ele>
        <time>2021-08-21T13:06:02Z</time>
      </trkpt>
      <trkpt lat="2.852347" lon="-75.10932">
        <ele>1143.1</ele>
        <time>2021-08-21T13:06:03Z</time>
      </trkpt>
      <trkpt lat="2.852324" lon="-75.10932">
        <ele>1143.3</ele>
        <time>2021-08-21T13:06:04Z</time>
      </trkpt>
      <trkpt lat="2.852301" lon="-75.10932">
        <ele>1143.4</ele>
        <time>2021-08-21T13:06:05Z</time>
      </trkpt>
      <trkpt lat="2.852278" lon="-75.10932">
        <ele>1143.6</ele>
        <time>2021-08-21T13:06:06Z</time>
      </trkpt>
      <trkpt lat="2.852256" lon="-75.10932">
        <ele>1143.7</ele>
        <time>2021-08-21T13:06:07Z</time>
      </trkpt>
      <trkpt lat="2.852233" lon="-75.10932">
        <ele>1143.9</ele>
        <time>2021-08-21T13:06:08Z</time>
      </trkpt>
      <trkpt lat="2.852209" lon="-75.10932">
        <ele>1144.1</ele>
        <time>2021-08-21T13:06:09Z</time>
      </trkpt>
      <trkpt lat="2.852185" lon="-75.10932">
        <ele>1144.2</ele>
        <time>2021-08-21T13:06:10Z</time>
      </trkpt>
      <trkpt lat="2.852165" lon="-75.10932">
        <ele>1144.4</ele>
        <time>2021-08-21T13:06:11Z</time>
      </trkpt>
      <trkpt lat="2.852146" lon="-75.10933">
        <ele>1144.5</ele>
        <time>2021-08-21T13:06:12Z</time>
      </trkpt>
      <trkpt lat="2.852127" lon="-75.10933">
        <ele>1144.6</ele>
        <time>2021-08-21T13:06:13Z</time>
      </trkpt>
      <trkpt lat="2.852109" lon="-75.10933">
        <ele>1144.7</ele>
        <time>2021-08-21T13:06:14Z</time>
      </trkpt>
      <trkpt lat="2.852071" lon="-75.10934">
        <ele>1145.0</ele>
        <time>2021-08-21T13:06:16Z</time>
      </trkpt>
      <trkpt lat="2.852081" lon="-75.10934">
        <ele>1144.9</ele>
        <time>2021-08-21T13:06:16Z</time>
      </trkpt>
      <trkpt lat="2.852053" lon="-75.10934">
        <ele>1145.1</ele>
        <time>2021-08-21T13:06:17Z</time>
      </trkpt>
      <trkpt lat="2.852036" lon="-75.10934">
        <ele>1145.3</ele>
        <time>2021-08-21T13:06:18Z</time>
      </trkpt>
      <trkpt lat="2.852019" lon="-75.109344">
        <ele>1145.4</ele>
        <time>2021-08-21T13:06:19Z</time>
      </trkpt>
      <trkpt lat="2.852002" lon="-75.109344">
        <ele>1145.5</ele>
        <time>2021-08-21T13:06:20Z</time>
      </trkpt>
      <trkpt lat="2.851985" lon="-75.109344">
        <ele>1145.6</ele>
        <time>2021-08-21T13:06:21Z</time>
      </trkpt>
      <trkpt lat="2.851967" lon="-75.10935">
        <ele>1145.8</ele>
        <time>2021-08-21T13:06:22Z</time>
      </trkpt>
      <trkpt lat="2.851951" lon="-75.10935">
        <ele>1145.9</ele>
        <time>2021-08-21T13:06:23Z</time>
      </trkpt>
      <trkpt lat="2.851934" lon="-75.10935">
        <ele>1146.0</ele>
        <time>2021-08-21T13:06:24Z</time>
      </trkpt>
      <trkpt lat="2.851918" lon="-75.10936">
        <ele>1146.1</ele>
        <time>2021-08-21T13:06:25Z</time>
      </trkpt>
      <trkpt lat="2.851901" lon="-75.10936">
        <ele>1146.3</ele>
        <time>2021-08-21T13:06:26Z</time>
      </trkpt>
      <trkpt lat="2.851885" lon="-75.10936">
        <ele>1146.4</ele>
        <time>2021-08-21T13:06:27Z</time>
      </trkpt>
      <trkpt lat="2.851868" lon="-75.10936">
        <ele>1146.5</ele>
        <time>2021-08-21T13:06:28Z</time>
      </trkpt>
      <trkpt lat="2.85185" lon="-75.10936">
        <ele>1146.7</ele>
        <time>2021-08-21T13:06:29Z</time>
      </trkpt>
      <trkpt lat="2.851834" lon="-75.10937">
        <ele>1146.8</ele>
        <time>2021-08-21T13:06:30Z</time>
      </trkpt>
      <trkpt lat="2.851816" lon="-75.10937">
        <ele>1147.0</ele>
        <time>2021-08-21T13:06:31Z</time>
      </trkpt>
      <trkpt lat="2.851798" lon="-75.10937">
        <ele>1147.1</ele>
        <time>2021-08-21T13:06:32Z</time>
      </trkpt>
      <trkpt lat="2.851781" lon="-75.10937">
        <ele>1147.3</ele>
        <time>2021-08-21T13:06:33Z</time>
      </trkpt>
      <trkpt lat="2.851764" lon="-75.10937">
        <ele>1147.4</ele>
        <time>2021-08-21T13:06:34Z</time>
      </trkpt>
      <trkpt lat="2.851748" lon="-75.10937">
        <ele>1147.6</ele>
        <time>2021-08-21T13:06:35Z</time>
      </trkpt>
      <trkpt lat="2.851732" lon="-75.10937">
        <ele>1147.7</ele>
        <time>2021-08-21T13:06:36Z</time>
      </trkpt>
      <trkpt lat="2.851715" lon="-75.10937">
        <ele>1147.9</ele>
        <time>2021-08-21T13:06:37Z</time>
      </trkpt>
      <trkpt lat="2.851698" lon="-75.10937">
        <ele>1148.0</ele>
        <time>2021-08-21T13:06:38Z</time>
      </trkpt>
      <trkpt lat="2.851681" lon="-75.10937">
        <ele>1148.2</ele>
        <time>2021-08-21T13:06:39Z</time>
      </trkpt>
      <trkpt lat="2.851664" lon="-75.10936">
        <ele>1148.3</ele>
        <time>2021-08-21T13:06:40Z</time>
      </trkpt>
      <trkpt lat="2.851646" lon="-75.10937">
        <ele>1148.5</ele>
        <time>2021-08-21T13:06:41Z</time>
      </trkpt>
      <trkpt lat="2.851628" lon="-75.10937">
        <ele>1148.6</ele>
        <time>2021-08-21T13:06:42Z</time>
      </trkpt>
      <trkpt lat="2.851609" lon="-75.10937">
        <ele>1148.8</ele>
        <time>2021-08-21T13:06:43Z</time>
      </trkpt>
      <trkpt lat="2.85159" lon="-75.10936">
        <ele>1149.0</ele>
        <time>2021-08-21T13:06:44Z</time>
      </trkpt>
      <trkpt lat="2.851572" lon="-75.10936">
        <ele>1149.1</ele>
        <time>2021-08-21T13:06:45Z</time>
      </trkpt>
      <trkpt lat="2.851552" lon="-75.10935">
        <ele>1149.3</ele>
        <time>2021-08-21T13:06:46Z</time>
      </trkpt>
      <trkpt lat="2.851534" lon="-75.10935">
        <ele>1149.5</ele>
        <time>2021-08-21T13:06:47Z</time>
      </trkpt>
      <trkpt lat="2.851517" lon="-75.109344">
        <ele>1149.6</ele>
        <time>2021-08-21T13:06:48Z</time>
      </trkpt>
      <trkpt lat="2.851502" lon="-75.10934">
        <ele>1149.7</ele>
        <time>2021-08-21T13:06:49Z</time>
      </trkpt>
      <trkpt lat="2.851488" lon="-75.10933">
        <ele>1149.9</ele>
        <time>2021-08-21T13:06:50Z</time>
      </trkpt>
      <trkpt lat="2.851474" lon="-75.10932">
        <ele>1150.0</ele>
        <time>2021-08-21T13:06:51Z</time>
      </trkpt>
      <trkpt lat="2.851461" lon="-75.109314">
        <ele>1150.1</ele>
        <time>2021-08-21T13:06:52Z</time>
      </trkpt>
      <trkpt lat="2.851448" lon="-75.10931">
        <ele>1150.2</ele>
        <time>2021-08-21T13:06:53Z</time>
      </trkpt>
      <trkpt lat="2.851434" lon="-75.10931">
        <ele>1150.3</ele>
        <time>2021-08-21T13:06:54Z</time>
      </trkpt>
      <trkpt lat="2.851421" lon="-75.1093">
        <ele>1150.4</ele>
        <time>2021-08-21T13:06:55Z</time>
      </trkpt>
      <trkpt lat="2.851408" lon="-75.1093">
        <ele>1150.5</ele>
        <time>2021-08-21T13:06:56Z</time>
      </trkpt>
      <trkpt lat="2.851397" lon="-75.1093">
        <ele>1150.5</ele>
        <time>2021-08-21T13:06:57Z</time>
      </trkpt>
      <trkpt lat="2.851386" lon="-75.1093">
        <ele>1150.6</ele>
        <time>2021-08-21T13:06:58Z</time>
      </trkpt>
      <trkpt lat="2.851376" lon="-75.1093">
        <ele>1150.7</ele>
        <time>2021-08-21T13:06:59Z</time>
      </trkpt>
      <trkpt lat="2.851367" lon="-75.10931">
        <ele>1150.7</ele>
        <time>2021-08-21T13:07:00Z</time>
      </trkpt>
      <trkpt lat="2.851359" lon="-75.10931">
        <ele>1150.8</ele>
        <time>2021-08-21T13:07:01Z</time>
      </trkpt>
      <trkpt lat="2.851352" lon="-75.109314">
        <ele>1150.8</ele>
        <time>2021-08-21T13:07:02Z</time>
      </trkpt>
      <trkpt lat="2.851345" lon="-75.10932">
        <ele>1150.9</ele>
        <time>2021-08-21T13:07:03Z</time>
      </trkpt>
      <trkpt lat="2.851338" lon="-75.10932">
        <ele>1150.9</ele>
        <time>2021-08-21T13:07:04Z</time>
      </trkpt>
      <trkpt lat="2.851322" lon="-75.10933">
        <ele>1151.0</ele>
        <time>2021-08-21T13:07:07Z</time>
      </trkpt>
      <trkpt lat="2.851388" lon="-75.10927">
        <ele>1151.5</ele>
        <time>2021-08-21T13:10:38Z</time>
      </trkpt>
      <trkpt lat="2.851389" lon="-75.10926">
        <ele>1151.5</ele>
        <time>2021-08-21T13:10:39Z</time>
      </trkpt>
      <trkpt lat="2.851391" lon="-75.10925">
        <ele>1151.6</ele>
        <time>2021-08-21T13:10:40Z</time>
      </trkpt>
      <trkpt lat="2.851392" lon="-75.10924">
        <ele>1151.7</ele>
        <time>2021-08-21T13:10:41Z</time>
      </trkpt>
      <trkpt lat="2.851392" lon="-75.10922">
        <ele>1151.7</ele>
        <time>2021-08-21T13:10:42Z</time>
      </trkpt>
      <trkpt lat="2.851392" lon="-75.10921">
        <ele>1151.8</ele>
        <time>2021-08-21T13:10:43Z</time>
      </trkpt>
      <trkpt lat="2.85139" lon="-75.10919">
        <ele>1151.9</ele>
        <time>2021-08-21T13:10:44Z</time>
      </trkpt>
      <trkpt lat="2.851389" lon="-75.10917">
        <ele>1152.0</ele>
        <time>2021-08-21T13:10:45Z</time>
      </trkpt>
      <trkpt lat="2.851388" lon="-75.10915">
        <ele>1152.1</ele>
        <time>2021-08-21T13:10:46Z</time>
      </trkpt>
      <trkpt lat="2.851386" lon="-75.10914">
        <ele>1152.2</ele>
        <time>2021-08-21T13:10:47Z</time>
      </trkpt>
      <trkpt lat="2.851383" lon="-75.10912">
        <ele>1152.3</ele>
        <time>2021-08-21T13:10:48Z</time>
      </trkpt>
      <trkpt lat="2.851381" lon="-75.10911">
        <ele>1152.4</ele>
        <time>2021-08-21T13:10:49Z</time>
      </trkpt>
      <trkpt lat="2.851379" lon="-75.109085">
        <ele>1152.5</ele>
        <time>2021-08-21T13:10:50Z</time>
      </trkpt>
      <trkpt lat="2.851377" lon="-75.10907">
        <ele>1152.6</ele>
        <time>2021-08-21T13:10:51Z</time>
      </trkpt>
      <trkpt lat="2.851374" lon="-75.10905">
        <ele>1152.7</ele>
        <time>2021-08-21T13:10:52Z</time>
      </trkpt>
      <trkpt lat="2.851372" lon="-75.109024">
        <ele>1152.8</ele>
        <time>2021-08-21T13:10:53Z</time>
      </trkpt>
      <trkpt lat="2.85137" lon="-75.109">
        <ele>1152.9</ele>
        <time>2021-08-21T13:10:54Z</time>
      </trkpt>
      <trkpt lat="2.851369" lon="-75.108986">
        <ele>1153.1</ele>
        <time>2021-08-21T13:10:55Z</time>
      </trkpt>
      <trkpt lat="2.851368" lon="-75.10896">
        <ele>1153.2</ele>
        <time>2021-08-21T13:10:56Z</time>
      </trkpt>
      <trkpt lat="2.851367" lon="-75.10895">
        <ele>1153.3</ele>
        <time>2021-08-21T13:10:57Z</time>
      </trkpt>
      <trkpt lat="2.851366" lon="-75.108925">
        <ele>1153.4</ele>
        <time>2021-08-21T13:10:58Z</time>
      </trkpt>
      <trkpt lat="2.851365" lon="-75.10891">
        <ele>1153.5</ele>
        <time>2021-08-21T13:10:59Z</time>
      </trkpt>
      <trkpt lat="2.851364" lon="-75.10889">
        <ele>1153.6</ele>
        <time>2021-08-21T13:11:00Z</time>
      </trkpt>
      <trkpt lat="2.851363" lon="-75.10887">
        <ele>1153.7</ele>
        <time>2021-08-21T13:11:01Z</time>
      </trkpt>
      <trkpt lat="2.851361" lon="-75.10885">
        <ele>1153.8</ele>
        <time>2021-08-21T13:11:02Z</time>
      </trkpt>
      <trkpt lat="2.851359" lon="-75.10883">
        <ele>1153.9</ele>
        <time>2021-08-21T13:11:03Z</time>
      </trkpt>
      <trkpt lat="2.851357" lon="-75.10882">
        <ele>1154.1</ele>
        <time>2021-08-21T13:11:04Z</time>
      </trkpt>
      <trkpt lat="2.851355" lon="-75.10879">
        <ele>1154.2</ele>
        <time>2021-08-21T13:11:05Z</time>
      </trkpt>
      <trkpt lat="2.851352" lon="-75.108765">
        <ele>1154.4</ele>
        <time>2021-08-21T13:11:07Z</time>
      </trkpt>
      <trkpt lat="2.851353" lon="-75.10878">
        <ele>1154.3</ele>
        <time>2021-08-21T13:11:07Z</time>
      </trkpt>
      <trkpt lat="2.85135" lon="-75.10875">
        <ele>1154.5</ele>
        <time>2021-08-21T13:11:08Z</time>
      </trkpt>
      <trkpt lat="2.851347" lon="-75.10873">
        <ele>1154.6</ele>
        <time>2021-08-21T13:11:09Z</time>
      </trkpt>
      <trkpt lat="2.851344" lon="-75.10871">
        <ele>1154.7</ele>
        <time>2021-08-21T13:11:10Z</time>
      </trkpt>
      <trkpt lat="2.851341" lon="-75.10869">
        <ele>1154.8</ele>
        <time>2021-08-21T13:11:11Z</time>
      </trkpt>
      <trkpt lat="2.851339" lon="-75.10867">
        <ele>1154.9</ele>
        <time>2021-08-21T13:11:12Z</time>
      </trkpt>
      <trkpt lat="2.851336" lon="-75.10866">
        <ele>1155.0</ele>
        <time>2021-08-21T13:11:13Z</time>
      </trkpt>
      <trkpt lat="2.851335" lon="-75.10864">
        <ele>1155.1</ele>
        <time>2021-08-21T13:11:14Z</time>
      </trkpt>
      <trkpt lat="2.851333" lon="-75.10862">
        <ele>1155.2</ele>
        <time>2021-08-21T13:11:15Z</time>
      </trkpt>
      <trkpt lat="2.851331" lon="-75.108604">
        <ele>1155.3</ele>
        <time>2021-08-21T13:11:16Z</time>
      </trkpt>
      <trkpt lat="2.851329" lon="-75.10858">
        <ele>1155.5</ele>
        <time>2021-08-21T13:11:17Z</time>
      </trkpt>
      <trkpt lat="2.851326" lon="-75.10856">
        <ele>1155.6</ele>
        <time>2021-08-21T13:11:18Z</time>
      </trkpt>
      <trkpt lat="2.851323" lon="-75.108536">
        <ele>1155.7</ele>
        <time>2021-08-21T13:11:19Z</time>
      </trkpt>
      <trkpt lat="2.85132" lon="-75.10852">
        <ele>1155.8</ele>
        <time>2021-08-21T13:11:20Z</time>
      </trkpt>
      <trkpt lat="2.851315" lon="-75.1085">
        <ele>1155.9</ele>
        <time>2021-08-21T13:11:21Z</time>
      </trkpt>
      <trkpt lat="2.851309" lon="-75.10848">
        <ele>1156.1</ele>
        <time>2021-08-21T13:11:22Z</time>
      </trkpt>
      <trkpt lat="2.851299" lon="-75.10845">
        <ele>1156.3</ele>
        <time>2021-08-21T13:11:23Z</time>
      </trkpt>
      <trkpt lat="2.851304" lon="-75.10847">
        <ele>1156.2</ele>
        <time>2021-08-21T13:11:23Z</time>
      </trkpt>
      <trkpt lat="2.851296" lon="-75.10843">
        <ele>1156.4</ele>
        <time>2021-08-21T13:11:24Z</time>
      </trkpt>
      <trkpt lat="2.851293" lon="-75.10841">
        <ele>1156.5</ele>
        <time>2021-08-21T13:11:25Z</time>
      </trkpt>
      <trkpt lat="2.85129" lon="-75.1084">
        <ele>1156.6</ele>
        <time>2021-08-21T13:11:26Z</time>
      </trkpt>
      <trkpt lat="2.851286" lon="-75.108376">
        <ele>1156.7</ele>
        <time>2021-08-21T13:11:27Z</time>
      </trkpt>
      <trkpt lat="2.85128" lon="-75.10836">
        <ele>1156.8</ele>
        <time>2021-08-21T13:11:28Z</time>
      </trkpt>
      <trkpt lat="2.851275" lon="-75.108345">
        <ele>1156.9</ele>
        <time>2021-08-21T13:11:29Z</time>
      </trkpt>
      <trkpt lat="2.851269" lon="-75.10833">
        <ele>1157.1</ele>
        <time>2021-08-21T13:11:30Z</time>
      </trkpt>
      <trkpt lat="2.851263" lon="-75.10831">
        <ele>1157.2</ele>
        <time>2021-08-21T13:11:31Z</time>
      </trkpt>
      <trkpt lat="2.851256" lon="-75.10829">
        <ele>1157.3</ele>
        <time>2021-08-21T13:11:32Z</time>
      </trkpt>
      <trkpt lat="2.85125" lon="-75.10827">
        <ele>1157.5</ele>
        <time>2021-08-21T13:11:33Z</time>
      </trkpt>
      <trkpt lat="2.851242" lon="-75.10825">
        <ele>1157.6</ele>
        <time>2021-08-21T13:11:34Z</time>
      </trkpt>
      <trkpt lat="2.851233" lon="-75.10824">
        <ele>1157.7</ele>
        <time>2021-08-21T13:11:35Z</time>
      </trkpt>
      <trkpt lat="2.851223" lon="-75.108215">
        <ele>1157.9</ele>
        <time>2021-08-21T13:11:36Z</time>
      </trkpt>
      <trkpt lat="2.851212" lon="-75.1082">
        <ele>1158.0</ele>
        <time>2021-08-21T13:11:37Z</time>
      </trkpt>
      <trkpt lat="2.851201" lon="-75.10818">
        <ele>1158.2</ele>
        <time>2021-08-21T13:11:38Z</time>
      </trkpt>
      <trkpt lat="2.85119" lon="-75.10816">
        <ele>1158.3</ele>
        <time>2021-08-21T13:11:39Z</time>
      </trkpt>
      <trkpt lat="2.85118" lon="-75.10815">
        <ele>1158.5</ele>
        <time>2021-08-21T13:11:40Z</time>
      </trkpt>
      <trkpt lat="2.85117" lon="-75.10812">
        <ele>1158.6</ele>
        <time>2021-08-21T13:11:41Z</time>
      </trkpt>
      <trkpt lat="2.85116" lon="-75.10811">
        <ele>1158.8</ele>
        <time>2021-08-21T13:11:42Z</time>
      </trkpt>
      <trkpt lat="2.851149" lon="-75.108086">
        <ele>1159.0</ele>
        <time>2021-08-21T13:11:43Z</time>
      </trkpt>
      <trkpt lat="2.851138" lon="-75.10807">
        <ele>1159.1</ele>
        <time>2021-08-21T13:11:44Z</time>
      </trkpt>
      <trkpt lat="2.851126" lon="-75.10805">
        <ele>1159.3</ele>
        <time>2021-08-21T13:11:45Z</time>
      </trkpt>
      <trkpt lat="2.851116" lon="-75.10803">
        <ele>1159.4</ele>
        <time>2021-08-21T13:11:46Z</time>
      </trkpt>
      <trkpt lat="2.851105" lon="-75.10801">
        <ele>1159.6</ele>
        <time>2021-08-21T13:11:47Z</time>
      </trkpt>
      <trkpt lat="2.851094" lon="-75.107994">
        <ele>1159.7</ele>
        <time>2021-08-21T13:11:48Z</time>
      </trkpt>
      <trkpt lat="2.851082" lon="-75.10798">
        <ele>1159.9</ele>
        <time>2021-08-21T13:11:49Z</time>
      </trkpt>
      <trkpt lat="2.851071" lon="-75.107956">
        <ele>1160.0</ele>
        <time>2021-08-21T13:11:50Z</time>
      </trkpt>
      <trkpt lat="2.851061" lon="-75.10794">
        <ele>1160.2</ele>
        <time>2021-08-21T13:11:51Z</time>
      </trkpt>
      <trkpt lat="2.851053" lon="-75.10792">
        <ele>1160.3</ele>
        <time>2021-08-21T13:11:52Z</time>
      </trkpt>
      <trkpt lat="2.851044" lon="-75.1079">
        <ele>1160.4</ele>
        <time>2021-08-21T13:11:53Z</time>
      </trkpt>
      <trkpt lat="2.851036" lon="-75.10788">
        <ele>1160.6</ele>
        <time>2021-08-21T13:11:54Z</time>
      </trkpt>
      <trkpt lat="2.851027" lon="-75.107864">
        <ele>1160.7</ele>
        <time>2021-08-21T13:11:55Z</time>
      </trkpt>
      <trkpt lat="2.851019" lon="-75.10784">
        <ele>1160.9</ele>
        <time>2021-08-21T13:11:56Z</time>
      </trkpt>
      <trkpt lat="2.851013" lon="-75.10783">
        <ele>1161.0</ele>
        <time>2021-08-21T13:11:57Z</time>
      </trkpt>
      <trkpt lat="2.851009" lon="-75.1078">
        <ele>1161.2</ele>
        <time>2021-08-21T13:11:58Z</time>
      </trkpt>
      <trkpt lat="2.851005" lon="-75.10778">
        <ele>1161.3</ele>
        <time>2021-08-21T13:11:59Z</time>
      </trkpt>
      <trkpt lat="2.851003" lon="-75.10776">
        <ele>1161.4</ele>
        <time>2021-08-21T13:12:00Z</time>
      </trkpt>
      <trkpt lat="2.851002" lon="-75.10774">
        <ele>1161.6</ele>
        <time>2021-08-21T13:12:01Z</time>
      </trkpt>
      <trkpt lat="2.851001" lon="-75.10772">
        <ele>1161.8</ele>
        <time>2021-08-21T13:12:02Z</time>
      </trkpt>
      <trkpt lat="2.851001" lon="-75.1077">
        <ele>1161.9</ele>
        <time>2021-08-21T13:12:03Z</time>
      </trkpt>
      <trkpt lat="2.851002" lon="-75.10767">
        <ele>1162.1</ele>
        <time>2021-08-21T13:12:04Z</time>
      </trkpt>
      <trkpt lat="2.851003" lon="-75.10765">
        <ele>1162.2</ele>
        <time>2021-08-21T13:12:05Z</time>
      </trkpt>
      <trkpt lat="2.851006" lon="-75.107635">
        <ele>1162.3</ele>
        <time>2021-08-21T13:12:06Z</time>
      </trkpt>
      <trkpt lat="2.851009" lon="-75.10761">
        <ele>1162.5</ele>
        <time>2021-08-21T13:12:07Z</time>
      </trkpt>
      <trkpt lat="2.851013" lon="-75.10759">
        <ele>1162.6</ele>
        <time>2021-08-21T13:12:08Z</time>
      </trkpt>
      <trkpt lat="2.851017" lon="-75.10757">
        <ele>1162.8</ele>
        <time>2021-08-21T13:12:09Z</time>
      </trkpt>
      <trkpt lat="2.851018" lon="-75.107544">
        <ele>1162.9</ele>
        <time>2021-08-21T13:12:10Z</time>
      </trkpt>
      <trkpt lat="2.851019" lon="-75.10753">
        <ele>1163.0</ele>
        <time>2021-08-21T13:12:11Z</time>
      </trkpt>
      <trkpt lat="2.85102" lon="-75.107506">
        <ele>1163.2</ele>
        <time>2021-08-21T13:12:12Z</time>
      </trkpt>
      <trkpt lat="2.851019" lon="-75.10748">
        <ele>1163.3</ele>
        <time>2021-08-21T13:12:13Z</time>
      </trkpt>
      <trkpt lat="2.851016" lon="-75.10746">
        <ele>1163.5</ele>
        <time>2021-08-21T13:12:14Z</time>
      </trkpt>
      <trkpt lat="2.851012" lon="-75.10744">
        <ele>1163.6</ele>
        <time>2021-08-21T13:12:15Z</time>
      </trkpt>
      <trkpt lat="2.851007" lon="-75.107414">
        <ele>1163.7</ele>
        <time>2021-08-21T13:12:16Z</time>
      </trkpt>
      <trkpt lat="2.851" lon="-75.1074">
        <ele>1163.9</ele>
        <time>2021-08-21T13:12:17Z</time>
      </trkpt>
      <trkpt lat="2.850989" lon="-75.107376">
        <ele>1164.0</ele>
        <time>2021-08-21T13:12:18Z</time>
      </trkpt>
      <trkpt lat="2.850978" lon="-75.10736">
        <ele>1164.1</ele>
        <time>2021-08-21T13:12:19Z</time>
      </trkpt>
      <trkpt lat="2.850966" lon="-75.107346">
        <ele>1164.3</ele>
        <time>2021-08-21T13:12:20Z</time>
      </trkpt>
      <trkpt lat="2.850954" lon="-75.10733">
        <ele>1164.4</ele>
        <time>2021-08-21T13:12:21Z</time>
      </trkpt>
      <trkpt lat="2.85094" lon="-75.107315">
        <ele>1164.6</ele>
        <time>2021-08-21T13:12:22Z</time>
      </trkpt>
      <trkpt lat="2.850925" lon="-75.1073">
        <ele>1164.8</ele>
        <time>2021-08-21T13:12:23Z</time>
      </trkpt>
      <trkpt lat="2.85091" lon="-75.10729">
        <ele>1164.9</ele>
        <time>2021-08-21T13:12:24Z</time>
      </trkpt>
      <trkpt lat="2.850894" lon="-75.10728">
        <ele>1165.1</ele>
        <time>2021-08-21T13:12:25Z</time>
      </trkpt>
      <trkpt lat="2.850877" lon="-75.10727">
        <ele>1165.2</ele>
        <time>2021-08-21T13:12:26Z</time>
      </trkpt>
      <trkpt lat="2.85086" lon="-75.10726">
        <ele>1165.4</ele>
        <time>2021-08-21T13:12:27Z</time>
      </trkpt>
      <trkpt lat="2.850841" lon="-75.10725">
        <ele>1165.6</ele>
        <time>2021-08-21T13:12:28Z</time>
      </trkpt>
      <trkpt lat="2.850823" lon="-75.10724">
        <ele>1165.7</ele>
        <time>2021-08-21T13:12:29Z</time>
      </trkpt>
      <trkpt lat="2.850804" lon="-75.10722">
        <ele>1165.9</ele>
        <time>2021-08-21T13:12:30Z</time>
      </trkpt>
      <trkpt lat="2.850785" lon="-75.107216">
        <ele>1166.1</ele>
        <time>2021-08-21T13:12:31Z</time>
      </trkpt>
      <trkpt lat="2.850767" lon="-75.10721">
        <ele>1166.2</ele>
        <time>2021-08-21T13:12:32Z</time>
      </trkpt>
      <trkpt lat="2.85075" lon="-75.1072">
        <ele>1166.4</ele>
        <time>2021-08-21T13:12:33Z</time>
      </trkpt>
      <trkpt lat="2.850732" lon="-75.10719">
        <ele>1166.5</ele>
        <time>2021-08-21T13:12:34Z</time>
      </trkpt>
      <trkpt lat="2.850714" lon="-75.107185">
        <ele>1166.7</ele>
        <time>2021-08-21T13:12:35Z</time>
      </trkpt>
      <trkpt lat="2.850696" lon="-75.10718">
        <ele>1166.8</ele>
        <time>2021-08-21T13:12:36Z</time>
      </trkpt>
      <trkpt lat="2.850678" lon="-75.10716">
        <ele>1167.0</ele>
        <time>2021-08-21T13:12:37Z</time>
      </trkpt>
      <trkpt lat="2.85066" lon="-75.107155">
        <ele>1167.1</ele>
        <time>2021-08-21T13:12:38Z</time>
      </trkpt>
      <trkpt lat="2.850643" lon="-75.10714">
        <ele>1167.3</ele>
        <time>2021-08-21T13:12:39Z</time>
      </trkpt>
      <trkpt lat="2.850625" lon="-75.10713">
        <ele>1167.5</ele>
        <time>2021-08-21T13:12:40Z</time>
      </trkpt>
      <trkpt lat="2.850607" lon="-75.10712">
        <ele>1167.6</ele>
        <time>2021-08-21T13:12:41Z</time>
      </trkpt>
      <trkpt lat="2.85059" lon="-75.1071">
        <ele>1167.8</ele>
        <time>2021-08-21T13:12:42Z</time>
      </trkpt>
      <trkpt lat="2.850573" lon="-75.10709">
        <ele>1168.0</ele>
        <time>2021-08-21T13:12:43Z</time>
      </trkpt>
      <trkpt lat="2.850557" lon="-75.10708">
        <ele>1168.1</ele>
        <time>2021-08-21T13:12:44Z</time>
      </trkpt>
      <trkpt lat="2.850543" lon="-75.10706">
        <ele>1168.3</ele>
        <time>2021-08-21T13:12:45Z</time>
      </trkpt>
      <trkpt lat="2.850528" lon="-75.10705">
        <ele>1168.4</ele>
        <time>2021-08-21T13:12:46Z</time>
      </trkpt>
      <trkpt lat="2.850513" lon="-75.10703">
        <ele>1168.6</ele>
        <time>2021-08-21T13:12:47Z</time>
      </trkpt>
      <trkpt lat="2.850499" lon="-75.10702">
        <ele>1168.8</ele>
        <time>2021-08-21T13:12:48Z</time>
      </trkpt>
      <trkpt lat="2.850483" lon="-75.107">
        <ele>1168.9</ele>
        <time>2021-08-21T13:12:49Z</time>
      </trkpt>
      <trkpt lat="2.850467" lon="-75.10699">
        <ele>1169.1</ele>
        <time>2021-08-21T13:12:50Z</time>
      </trkpt>
      <trkpt lat="2.850451" lon="-75.10697">
        <ele>1169.2</ele>
        <time>2021-08-21T13:12:51Z</time>
      </trkpt>
      <trkpt lat="2.850434" lon="-75.10696">
        <ele>1169.4</ele>
        <time>2021-08-21T13:12:52Z</time>
      </trkpt>
      <trkpt lat="2.850416" lon="-75.10695">
        <ele>1169.5</ele>
        <time>2021-08-21T13:12:53Z</time>
      </trkpt>
      <trkpt lat="2.850398" lon="-75.10693">
        <ele>1169.7</ele>
        <time>2021-08-21T13:12:54Z</time>
      </trkpt>
      <trkpt lat="2.85038" lon="-75.106926">
        <ele>1169.9</ele>
        <time>2021-08-21T13:12:55Z</time>
      </trkpt>
      <trkpt lat="2.850361" lon="-75.10691">
        <ele>1170.0</ele>
        <time>2021-08-21T13:12:56Z</time>
      </trkpt>
      <trkpt lat="2.850342" lon="-75.1069">
        <ele>1170.2</ele>
        <time>2021-08-21T13:12:57Z</time>
      </trkpt>
      <trkpt lat="2.850323" lon="-75.106895">
        <ele>1170.4</ele>
        <time>2021-08-21T13:12:58Z</time>
      </trkpt>
      <trkpt lat="2.850305" lon="-75.10688">
        <ele>1170.5</ele>
        <time>2021-08-21T13:12:59Z</time>
      </trkpt>
      <trkpt lat="2.850288" lon="-75.10687">
        <ele>1170.7</ele>
        <time>2021-08-21T13:13:00Z</time>
      </trkpt>
      <trkpt lat="2.850271" lon="-75.106865">
        <ele>1170.9</ele>
        <time>2021-08-21T13:13:01Z</time>
      </trkpt>
      <trkpt lat="2.850255" lon="-75.10685">
        <ele>1171.0</ele>
        <time>2021-08-21T13:13:02Z</time>
      </trkpt>
      <trkpt lat="2.850237" lon="-75.10684">
        <ele>1171.2</ele>
        <time>2021-08-21T13:13:03Z</time>
      </trkpt>
      <trkpt lat="2.85022" lon="-75.106834">
        <ele>1171.4</ele>
        <time>2021-08-21T13:13:04Z</time>
      </trkpt>
      <trkpt lat="2.850204" lon="-75.10682">
        <ele>1171.5</ele>
        <time>2021-08-21T13:13:05Z</time>
      </trkpt>
      <trkpt lat="2.850187" lon="-75.10681">
        <ele>1171.7</ele>
        <time>2021-08-21T13:13:06Z</time>
      </trkpt>
      <trkpt lat="2.85017" lon="-75.1068">
        <ele>1171.9</ele>
        <time>2021-08-21T13:13:07Z</time>
      </trkpt>
      <trkpt lat="2.850152" lon="-75.10679">
        <ele>1172.1</ele>
        <time>2021-08-21T13:13:08Z</time>
      </trkpt>
      <trkpt lat="2.850134" lon="-75.10678">
        <ele>1172.3</ele>
        <time>2021-08-21T13:13:09Z</time>
      </trkpt>
      <trkpt lat="2.850115" lon="-75.10677">
        <ele>1172.4</ele>
        <time>2021-08-21T13:13:10Z</time>
      </trkpt>
      <trkpt lat="2.850097" lon="-75.10676">
        <ele>1172.6</ele>
        <time>2021-08-21T13:13:11Z</time>
      </trkpt>
      <trkpt lat="2.850078" lon="-75.10675">
        <ele>1172.8</ele>
        <time>2021-08-21T13:13:12Z</time>
      </trkpt>
      <trkpt lat="2.850059" lon="-75.10674">
        <ele>1173.0</ele>
        <time>2021-08-21T13:13:13Z</time>
      </trkpt>
      <trkpt lat="2.85004" lon="-75.106735">
        <ele>1173.2</ele>
        <time>2021-08-21T13:13:14Z</time>
      </trkpt>
      <trkpt lat="2.850022" lon="-75.10672">
        <ele>1173.3</ele>
        <time>2021-08-21T13:13:15Z</time>
      </trkpt>
      <trkpt lat="2.850004" lon="-75.10671">
        <ele>1173.5</ele>
        <time>2021-08-21T13:13:16Z</time>
      </trkpt>
      <trkpt lat="2.849986" lon="-75.1067">
        <ele>1173.7</ele>
        <time>2021-08-21T13:13:17Z</time>
      </trkpt>
      <trkpt lat="2.849967" lon="-75.10669">
        <ele>1173.9</ele>
        <time>2021-08-21T13:13:18Z</time>
      </trkpt>
      <trkpt lat="2.849948" lon="-75.106674">
        <ele>1174.1</ele>
        <time>2021-08-21T13:13:19Z</time>
      </trkpt>
      <trkpt lat="2.849928" lon="-75.10667">
        <ele>1174.3</ele>
        <time>2021-08-21T13:13:20Z</time>
      </trkpt>
      <trkpt lat="2.849908" lon="-75.10665">
        <ele>1174.5</ele>
        <time>2021-08-21T13:13:21Z</time>
      </trkpt>
      <trkpt lat="2.849888" lon="-75.10664">
        <ele>1174.7</ele>
        <time>2021-08-21T13:13:22Z</time>
      </trkpt>
      <trkpt lat="2.849869" lon="-75.106636">
        <ele>1174.9</ele>
        <time>2021-08-21T13:13:23Z</time>
      </trkpt>
      <trkpt lat="2.84985" lon="-75.10663">
        <ele>1175.1</ele>
        <time>2021-08-21T13:13:24Z</time>
      </trkpt>
      <trkpt lat="2.849829" lon="-75.10662">
        <ele>1175.3</ele>
        <time>2021-08-21T13:13:25Z</time>
      </trkpt>
      <trkpt lat="2.849809" lon="-75.106606">
        <ele>1175.5</ele>
        <time>2021-08-21T13:13:26Z</time>
      </trkpt>
      <trkpt lat="2.849789" lon="-75.1066">
        <ele>1175.7</ele>
        <time>2021-08-21T13:13:27Z</time>
      </trkpt>
      <trkpt lat="2.849769" lon="-75.10659">
        <ele>1175.9</ele>
        <time>2021-08-21T13:13:28Z</time>
      </trkpt>
      <trkpt lat="2.84975" lon="-75.10658">
        <ele>1176.1</ele>
        <time>2021-08-21T13:13:29Z</time>
      </trkpt>
      <trkpt lat="2.849732" lon="-75.10657">
        <ele>1176.3</ele>
        <time>2021-08-21T13:13:30Z</time>
      </trkpt>
      <trkpt lat="2.849715" lon="-75.10656">
        <ele>1176.5</ele>
        <time>2021-08-21T13:13:31Z</time>
      </trkpt>
      <trkpt lat="2.849698" lon="-75.106544">
        <ele>1176.7</ele>
        <time>2021-08-21T13:13:32Z</time>
      </trkpt>
      <trkpt lat="2.849682" lon="-75.10653">
        <ele>1176.9</ele>
        <time>2021-08-21T13:13:33Z</time>
      </trkpt>
      <trkpt lat="2.849667" lon="-75.106514">
        <ele>1177.1</ele>
        <time>2021-08-21T13:13:34Z</time>
      </trkpt>
      <trkpt lat="2.849652" lon="-75.1065">
        <ele>1177.3</ele>
        <time>2021-08-21T13:13:35Z</time>
      </trkpt>
      <trkpt lat="2.849638" lon="-75.106476">
        <ele>1177.6</ele>
        <time>2021-08-21T13:13:36Z</time>
      </trkpt>
      <trkpt lat="2.849623" lon="-75.10646">
        <ele>1177.8</ele>
        <time>2021-08-21T13:13:37Z</time>
      </trkpt>
      <trkpt lat="2.849609" lon="-75.10644">
        <ele>1178.0</ele>
        <time>2021-08-21T13:13:38Z</time>
      </trkpt>
      <trkpt lat="2.849595" lon="-75.10642">
        <ele>1178.2</ele>
        <time>2021-08-21T13:13:39Z</time>
      </trkpt>
      <trkpt lat="2.849581" lon="-75.10641">
        <ele>1178.4</ele>
        <time>2021-08-21T13:13:40Z</time>
      </trkpt>
      <trkpt lat="2.849568" lon="-75.106384">
        <ele>1178.6</ele>
        <time>2021-08-21T13:13:41Z</time>
      </trkpt>
      <trkpt lat="2.849556" lon="-75.10637">
        <ele>1178.8</ele>
        <time>2021-08-21T13:13:42Z</time>
      </trkpt>
      <trkpt lat="2.849545" lon="-75.10635">
        <ele>1179.0</ele>
        <time>2021-08-21T13:13:43Z</time>
      </trkpt>
      <trkpt lat="2.849536" lon="-75.10633">
        <ele>1179.2</ele>
        <time>2021-08-21T13:13:44Z</time>
      </trkpt>
      <trkpt lat="2.849528" lon="-75.10631">
        <ele>1179.3</ele>
        <time>2021-08-21T13:13:45Z</time>
      </trkpt>
      <trkpt lat="2.849523" lon="-75.10629">
        <ele>1179.5</ele>
        <time>2021-08-21T13:13:46Z</time>
      </trkpt>
      <trkpt lat="2.84952" lon="-75.10627">
        <ele>1179.7</ele>
        <time>2021-08-21T13:13:47Z</time>
      </trkpt>
      <trkpt lat="2.849519" lon="-75.10625">
        <ele>1179.9</ele>
        <time>2021-08-21T13:13:48Z</time>
      </trkpt>
      <trkpt lat="2.849519" lon="-75.106224">
        <ele>1180.1</ele>
        <time>2021-08-21T13:13:49Z</time>
      </trkpt>
      <trkpt lat="2.849521" lon="-75.10621">
        <ele>1180.3</ele>
        <time>2021-08-21T13:13:50Z</time>
      </trkpt>
      <trkpt lat="2.849527" lon="-75.106186">
        <ele>1180.5</ele>
        <time>2021-08-21T13:13:51Z</time>
      </trkpt>
      <trkpt lat="2.849534" lon="-75.10616">
        <ele>1180.6</ele>
        <time>2021-08-21T13:13:52Z</time>
      </trkpt>
      <trkpt lat="2.849544" lon="-75.10615">
        <ele>1180.8</ele>
        <time>2021-08-21T13:13:53Z</time>
      </trkpt>
      <trkpt lat="2.849557" lon="-75.106125">
        <ele>1181.0</ele>
        <time>2021-08-21T13:13:54Z</time>
      </trkpt>
      <trkpt lat="2.84957" lon="-75.10611">
        <ele>1181.2</ele>
        <time>2021-08-21T13:13:55Z</time>
      </trkpt>
      <trkpt lat="2.849584" lon="-75.106094">
        <ele>1181.4</ele>
        <time>2021-08-21T13:13:56Z</time>
      </trkpt>
      <trkpt lat="2.849597" lon="-75.10608">
        <ele>1181.5</ele>
        <time>2021-08-21T13:13:57Z</time>
      </trkpt>
      <trkpt lat="2.84961" lon="-75.106064">
        <ele>1181.7</ele>
        <time>2021-08-21T13:13:58Z</time>
      </trkpt>
      <trkpt lat="2.849623" lon="-75.10604">
        <ele>1181.9</ele>
        <time>2021-08-21T13:13:59Z</time>
      </trkpt>
      <trkpt lat="2.849633" lon="-75.106026">
        <ele>1182.1</ele>
        <time>2021-08-21T13:14:00Z</time>
      </trkpt>
      <trkpt lat="2.84964" lon="-75.106">
        <ele>1182.2</ele>
        <time>2021-08-21T13:14:01Z</time>
      </trkpt>
      <trkpt lat="2.849645" lon="-75.10599">
        <ele>1182.4</ele>
        <time>2021-08-21T13:14:02Z</time>
      </trkpt>
      <trkpt lat="2.84965" lon="-75.105965">
        <ele>1182.6</ele>
        <time>2021-08-21T13:14:03Z</time>
      </trkpt>
      <trkpt lat="2.849654" lon="-75.10594">
        <ele>1182.8</ele>
        <time>2021-08-21T13:14:04Z</time>
      </trkpt>
      <trkpt lat="2.849655" lon="-75.10592">
        <ele>1182.9</ele>
        <time>2021-08-21T13:14:05Z</time>
      </trkpt>
      <trkpt lat="2.849656" lon="-75.1059">
        <ele>1183.1</ele>
        <time>2021-08-21T13:14:06Z</time>
      </trkpt>
      <trkpt lat="2.849657" lon="-75.10588">
        <ele>1183.3</ele>
        <time>2021-08-21T13:14:07Z</time>
      </trkpt>
      <trkpt lat="2.849654" lon="-75.10586">
        <ele>1183.4</ele>
        <time>2021-08-21T13:14:08Z</time>
      </trkpt>
      <trkpt lat="2.84965" lon="-75.105835">
        <ele>1183.6</ele>
        <time>2021-08-21T13:14:09Z</time>
      </trkpt>
      <trkpt lat="2.849643" lon="-75.10581">
        <ele>1183.8</ele>
        <time>2021-08-21T13:14:10Z</time>
      </trkpt>
      <trkpt lat="2.849637" lon="-75.10579">
        <ele>1184.0</ele>
        <time>2021-08-21T13:14:11Z</time>
      </trkpt>
      <trkpt lat="2.849632" lon="-75.10577">
        <ele>1184.2</ele>
        <time>2021-08-21T13:14:12Z</time>
      </trkpt>
      <trkpt lat="2.849628" lon="-75.10574">
        <ele>1184.4</ele>
        <time>2021-08-21T13:14:13Z</time>
      </trkpt>
      <trkpt lat="2.849624" lon="-75.10572">
        <ele>1184.6</ele>
        <time>2021-08-21T13:14:14Z</time>
      </trkpt>
      <trkpt lat="2.849621" lon="-75.1057">
        <ele>1184.8</ele>
        <time>2021-08-21T13:14:15Z</time>
      </trkpt>
      <trkpt lat="2.849619" lon="-75.105675">
        <ele>1185.0</ele>
        <time>2021-08-21T13:14:16Z</time>
      </trkpt>
      <trkpt lat="2.849619" lon="-75.10565">
        <ele>1185.2</ele>
        <time>2021-08-21T13:14:17Z</time>
      </trkpt>
      <trkpt lat="2.849618" lon="-75.10564">
        <ele>1185.3</ele>
        <time>2021-08-21T13:14:18Z</time>
      </trkpt>
      <trkpt lat="2.849618" lon="-75.10561">
        <ele>1185.5</ele>
        <time>2021-08-21T13:14:19Z</time>
      </trkpt>
      <trkpt lat="2.849617" lon="-75.1056">
        <ele>1185.6</ele>
        <time>2021-08-21T13:14:20Z</time>
      </trkpt>
      <trkpt lat="2.849615" lon="-75.10558">
        <ele>1185.8</ele>
        <time>2021-08-21T13:14:21Z</time>
      </trkpt>
      <trkpt lat="2.849613" lon="-75.10557">
        <ele>1185.9</ele>
        <time>2021-08-21T13:14:22Z</time>
      </trkpt>
      <trkpt lat="2.849607" lon="-75.105545">
        <ele>1186.1</ele>
        <time>2021-08-21T13:14:23Z</time>
      </trkpt>
      <trkpt lat="2.849599" lon="-75.10553">
        <ele>1186.2</ele>
        <time>2021-08-21T13:14:24Z</time>
      </trkpt>
      <trkpt lat="2.849588" lon="-75.105515">
        <ele>1186.4</ele>
        <time>2021-08-21T13:14:25Z</time>
      </trkpt>
      <trkpt lat="2.849576" lon="-75.1055">
        <ele>1186.5</ele>
        <time>2021-08-21T13:14:26Z</time>
      </trkpt>
      <trkpt lat="2.84956" lon="-75.105484">
        <ele>1186.7</ele>
        <time>2021-08-21T13:14:27Z</time>
      </trkpt>
      <trkpt lat="2.849543" lon="-75.10548">
        <ele>1186.8</ele>
        <time>2021-08-21T13:14:28Z</time>
      </trkpt>
      <trkpt lat="2.849524" lon="-75.10546">
        <ele>1186.9</ele>
        <time>2021-08-21T13:14:29Z</time>
      </trkpt>
      <trkpt lat="2.849504" lon="-75.10545">
        <ele>1187.1</ele>
        <time>2021-08-21T13:14:30Z</time>
      </trkpt>
      <trkpt lat="2.849484" lon="-75.10545">
        <ele>1187.2</ele>
        <time>2021-08-21T13:14:31Z</time>
      </trkpt>
      <trkpt lat="2.849463" lon="-75.105446">
        <ele>1187.3</ele>
        <time>2021-08-21T13:14:32Z</time>
      </trkpt>
      <trkpt lat="2.849441" lon="-75.105446">
        <ele>1187.5</ele>
        <time>2021-08-21T13:14:33Z</time>
      </trkpt>
      <trkpt lat="2.849419" lon="-75.105446">
        <ele>1187.6</ele>
        <time>2021-08-21T13:14:34Z</time>
      </trkpt>
      <trkpt lat="2.849396" lon="-75.10545">
        <ele>1187.7</ele>
        <time>2021-08-21T13:14:35Z</time>
      </trkpt>
      <trkpt lat="2.849373" lon="-75.10546">
        <ele>1187.9</ele>
        <time>2021-08-21T13:14:36Z</time>
      </trkpt>
      <trkpt lat="2.849349" lon="-75.10547">
        <ele>1188.0</ele>
        <time>2021-08-21T13:14:37Z</time>
      </trkpt>
      <trkpt lat="2.849326" lon="-75.10548">
        <ele>1188.1</ele>
        <time>2021-08-21T13:14:38Z</time>
      </trkpt>
      <trkpt lat="2.849303" lon="-75.105484">
        <ele>1188.3</ele>
        <time>2021-08-21T13:14:39Z</time>
      </trkpt>
      <trkpt lat="2.849279" lon="-75.10549">
        <ele>1188.4</ele>
        <time>2021-08-21T13:14:40Z</time>
      </trkpt>
      <trkpt lat="2.849256" lon="-75.1055">
        <ele>1188.5</ele>
        <time>2021-08-21T13:14:41Z</time>
      </trkpt>
      <trkpt lat="2.849231" lon="-75.10551">
        <ele>1188.7</ele>
        <time>2021-08-21T13:14:42Z</time>
      </trkpt>
      <trkpt lat="2.849207" lon="-75.105515">
        <ele>1188.8</ele>
        <time>2021-08-21T13:14:43Z</time>
      </trkpt>
      <trkpt lat="2.849184" lon="-75.105515">
        <ele>1188.9</ele>
        <time>2021-08-21T13:14:44Z</time>
      </trkpt>
      <trkpt lat="2.849161" lon="-75.10552">
        <ele>1189.1</ele>
        <time>2021-08-21T13:14:45Z</time>
      </trkpt>
      <trkpt lat="2.849139" lon="-75.10552">
        <ele>1189.2</ele>
        <time>2021-08-21T13:14:46Z</time>
      </trkpt>
      <trkpt lat="2.849116" lon="-75.10552">
        <ele>1189.3</ele>
        <time>2021-08-21T13:14:47Z</time>
      </trkpt>
      <trkpt lat="2.849095" lon="-75.10552">
        <ele>1189.4</ele>
        <time>2021-08-21T13:14:48Z</time>
      </trkpt>
      <trkpt lat="2.849073" lon="-75.105515">
        <ele>1189.5</ele>
        <time>2021-08-21T13:14:49Z</time>
      </trkpt>
      <trkpt lat="2.849052" lon="-75.105515">
        <ele>1189.6</ele>
        <time>2021-08-21T13:14:50Z</time>
      </trkpt>
      <trkpt lat="2.849031" lon="-75.10551">
        <ele>1189.7</ele>
        <time>2021-08-21T13:14:51Z</time>
      </trkpt>
      <trkpt lat="2.84901" lon="-75.1055">
        <ele>1189.8</ele>
        <time>2021-08-21T13:14:52Z</time>
      </trkpt>
      <trkpt lat="2.848987" lon="-75.1055">
        <ele>1189.9</ele>
        <time>2021-08-21T13:14:53Z</time>
      </trkpt>
      <trkpt lat="2.848964" lon="-75.10549">
        <ele>1190.1</ele>
        <time>2021-08-21T13:14:54Z</time>
      </trkpt>
      <trkpt lat="2.848942" lon="-75.10548">
        <ele>1190.2</ele>
        <time>2021-08-21T13:14:55Z</time>
      </trkpt>
      <trkpt lat="2.848919" lon="-75.10547">
        <ele>1190.3</ele>
        <time>2021-08-21T13:14:56Z</time>
      </trkpt>
      <trkpt lat="2.848899" lon="-75.10546">
        <ele>1190.4</ele>
        <time>2021-08-21T13:14:57Z</time>
      </trkpt>
      <trkpt lat="2.848877" lon="-75.105446">
        <ele>1190.5</ele>
        <time>2021-08-21T13:14:58Z</time>
      </trkpt>
      <trkpt lat="2.848856" lon="-75.10544">
        <ele>1190.7</ele>
        <time>2021-08-21T13:14:59Z</time>
      </trkpt>
      <trkpt lat="2.848837" lon="-75.10543">
        <ele>1190.8</ele>
        <time>2021-08-21T13:15:00Z</time>
      </trkpt>
      <trkpt lat="2.84882" lon="-75.105415">
        <ele>1190.9</ele>
        <time>2021-08-21T13:15:01Z</time>
      </trkpt>
      <trkpt lat="2.848804" lon="-75.1054">
        <ele>1191.0</ele>
        <time>2021-08-21T13:15:02Z</time>
      </trkpt>
      <trkpt lat="2.848788" lon="-75.105385">
        <ele>1191.1</ele>
        <time>2021-08-21T13:15:03Z</time>
      </trkpt>
      <trkpt lat="2.848774" lon="-75.10537">
        <ele>1191.2</ele>
        <time>2021-08-21T13:15:04Z</time>
      </trkpt>
      <trkpt lat="2.848762" lon="-75.10535">
        <ele>1191.3</ele>
        <time>2021-08-21T13:15:05Z</time>
      </trkpt>
      <trkpt lat="2.848751" lon="-75.10532">
        <ele>1191.4</ele>
        <time>2021-08-21T13:15:06Z</time>
      </trkpt>
      <trkpt lat="2.848744" lon="-75.1053">
        <ele>1191.6</ele>
        <time>2021-08-21T13:15:07Z</time>
      </trkpt>
      <trkpt lat="2.848739" lon="-75.10528">
        <ele>1191.7</ele>
        <time>2021-08-21T13:15:08Z</time>
      </trkpt>
      <trkpt lat="2.848738" lon="-75.105255">
        <ele>1191.8</ele>
        <time>2021-08-21T13:15:09Z</time>
      </trkpt>
      <trkpt lat="2.848739" lon="-75.105225">
        <ele>1191.9</ele>
        <time>2021-08-21T13:15:10Z</time>
      </trkpt>
      <trkpt lat="2.848742" lon="-75.1052">
        <ele>1192.1</ele>
        <time>2021-08-21T13:15:11Z</time>
      </trkpt>
      <trkpt lat="2.848745" lon="-75.10517">
        <ele>1192.2</ele>
        <time>2021-08-21T13:15:12Z</time>
      </trkpt>
      <trkpt lat="2.848748" lon="-75.10514">
        <ele>1192.3</ele>
        <time>2021-08-21T13:15:13Z</time>
      </trkpt>
      <trkpt lat="2.848751" lon="-75.10512">
        <ele>1192.4</ele>
        <time>2021-08-21T13:15:14Z</time>
      </trkpt>
      <trkpt lat="2.848754" lon="-75.10509">
        <ele>1192.5</ele>
        <time>2021-08-21T13:15:15Z</time>
      </trkpt>
      <trkpt lat="2.848755" lon="-75.105064">
        <ele>1192.7</ele>
        <time>2021-08-21T13:15:16Z</time>
      </trkpt>
      <trkpt lat="2.848755" lon="-75.105034">
        <ele>1192.8</ele>
        <time>2021-08-21T13:15:17Z</time>
      </trkpt>
      <trkpt lat="2.848752" lon="-75.10501">
        <ele>1192.9</ele>
        <time>2021-08-21T13:15:18Z</time>
      </trkpt>
      <trkpt lat="2.848748" lon="-75.10499">
        <ele>1193.0</ele>
        <time>2021-08-21T13:15:19Z</time>
      </trkpt>
      <trkpt lat="2.848743" lon="-75.10496">
        <ele>1193.1</ele>
        <time>2021-08-21T13:15:20Z</time>
      </trkpt>
      <trkpt lat="2.848736" lon="-75.10494">
        <ele>1193.2</ele>
        <time>2021-08-21T13:15:21Z</time>
      </trkpt>
      <trkpt lat="2.848726" lon="-75.10492">
        <ele>1193.3</ele>
        <time>2021-08-21T13:15:22Z</time>
      </trkpt>
      <trkpt lat="2.848713" lon="-75.104904">
        <ele>1193.4</ele>
        <time>2021-08-21T13:15:23Z</time>
      </trkpt>
      <trkpt lat="2.848696" lon="-75.10488">
        <ele>1193.5</ele>
        <time>2021-08-21T13:15:24Z</time>
      </trkpt>
      <trkpt lat="2.848675" lon="-75.104866">
        <ele>1193.6</ele>
        <time>2021-08-21T13:15:25Z</time>
      </trkpt>
      <trkpt lat="2.848652" lon="-75.10486">
        <ele>1193.7</ele>
        <time>2021-08-21T13:15:26Z</time>
      </trkpt>
      <trkpt lat="2.84863" lon="-75.10485">
        <ele>1193.8</ele>
        <time>2021-08-21T13:15:27Z</time>
      </trkpt>
      <trkpt lat="2.848606" lon="-75.10484">
        <ele>1193.9</ele>
        <time>2021-08-21T13:15:28Z</time>
      </trkpt>
      <trkpt lat="2.848581" lon="-75.10484">
        <ele>1194.0</ele>
        <time>2021-08-21T13:15:29Z</time>
      </trkpt>
      <trkpt lat="2.848556" lon="-75.10484">
        <ele>1194.2</ele>
        <time>2021-08-21T13:15:30Z</time>
      </trkpt>
      <trkpt lat="2.848529" lon="-75.10485">
        <ele>1194.3</ele>
        <time>2021-08-21T13:15:31Z</time>
      </trkpt>
      <trkpt lat="2.848503" lon="-75.10486">
        <ele>1194.5</ele>
        <time>2021-08-21T13:15:32Z</time>
      </trkpt>
      <trkpt lat="2.848476" lon="-75.104866">
        <ele>1194.6</ele>
        <time>2021-08-21T13:15:33Z</time>
      </trkpt>
      <trkpt lat="2.848451" lon="-75.10488">
        <ele>1194.8</ele>
        <time>2021-08-21T13:15:34Z</time>
      </trkpt>
      <trkpt lat="2.848429" lon="-75.10489">
        <ele>1194.9</ele>
        <time>2021-08-21T13:15:35Z</time>
      </trkpt>
      <trkpt lat="2.848406" lon="-75.104904">
        <ele>1195.1</ele>
        <time>2021-08-21T13:15:36Z</time>
      </trkpt>
      <trkpt lat="2.848383" lon="-75.10492">
        <ele>1195.3</ele>
        <time>2021-08-21T13:15:37Z</time>
      </trkpt>
      <trkpt lat="2.848337" lon="-75.10495">
        <ele>1195.6</ele>
        <time>2021-08-21T13:15:38Z</time>
      </trkpt>
      <trkpt lat="2.84836" lon="-75.104935">
        <ele>1195.4</ele>
        <time>2021-08-21T13:15:38Z</time>
      </trkpt>
      <trkpt lat="2.848315" lon="-75.104965">
        <ele>1195.7</ele>
        <time>2021-08-21T13:15:39Z</time>
      </trkpt>
      <trkpt lat="2.848294" lon="-75.10498">
        <ele>1195.9</ele>
        <time>2021-08-21T13:15:40Z</time>
      </trkpt>
      <trkpt lat="2.848273" lon="-75.104996">
        <ele>1196.1</ele>
        <time>2021-08-21T13:15:41Z</time>
      </trkpt>
      <trkpt lat="2.848253" lon="-75.10502">
        <ele>1196.3</ele>
        <time>2021-08-21T13:15:42Z</time>
      </trkpt>
      <trkpt lat="2.848234" lon="-75.105034">
        <ele>1196.4</ele>
        <time>2021-08-21T13:15:43Z</time>
      </trkpt>
      <trkpt lat="2.848217" lon="-75.10506">
        <ele>1196.6</ele>
        <time>2021-08-21T13:15:44Z</time>
      </trkpt>
      <trkpt lat="2.8482" lon="-75.10508">
        <ele>1196.8</ele>
        <time>2021-08-21T13:15:45Z</time>
      </trkpt>
      <trkpt lat="2.848184" lon="-75.105095">
        <ele>1196.9</ele>
        <time>2021-08-21T13:15:46Z</time>
      </trkpt>
      <trkpt lat="2.848166" lon="-75.10512">
        <ele>1197.1</ele>
        <time>2021-08-21T13:15:47Z</time>
      </trkpt>
      <trkpt lat="2.84815" lon="-75.10514">
        <ele>1197.3</ele>
        <time>2021-08-21T13:15:48Z</time>
      </trkpt>
      <trkpt lat="2.848134" lon="-75.10516">
        <ele>1197.5</ele>
        <time>2021-08-21T13:15:49Z</time>
      </trkpt>
      <trkpt lat="2.848119" lon="-75.10519">
        <ele>1197.6</ele>
        <time>2021-08-21T13:15:50Z</time>
      </trkpt>
      <trkpt lat="2.848103" lon="-75.10521">
        <ele>1197.8</ele>
        <time>2021-08-21T13:15:51Z</time>
      </trkpt>
      <trkpt lat="2.848088" lon="-75.10523">
        <ele>1198.0</ele>
        <time>2021-08-21T13:15:52Z</time>
      </trkpt>
      <trkpt lat="2.848072" lon="-75.105255">
        <ele>1198.2</ele>
        <time>2021-08-21T13:15:53Z</time>
      </trkpt>
      <trkpt lat="2.848058" lon="-75.10527">
        <ele>1198.3</ele>
        <time>2021-08-21T13:15:54Z</time>
      </trkpt>
      <trkpt lat="2.848041" lon="-75.10529">
        <ele>1198.5</ele>
        <time>2021-08-21T13:15:55Z</time>
      </trkpt>
      <trkpt lat="2.848025" lon="-75.105316">
        <ele>1198.7</ele>
        <time>2021-08-21T13:15:56Z</time>
      </trkpt>
      <trkpt lat="2.848007" lon="-75.10534">
        <ele>1198.9</ele>
        <time>2021-08-21T13:15:57Z</time>
      </trkpt>
      <trkpt lat="2.847988" lon="-75.105354">
        <ele>1199.0</ele>
        <time>2021-08-21T13:15:58Z</time>
      </trkpt>
      <trkpt lat="2.847968" lon="-75.10537">
        <ele>1199.2</ele>
        <time>2021-08-21T13:15:59Z</time>
      </trkpt>
      <trkpt lat="2.847947" lon="-75.105385">
        <ele>1199.4</ele>
        <time>2021-08-21T13:16:00Z</time>
      </trkpt>
      <trkpt lat="2.847925" lon="-75.10539">
        <ele>1199.5</ele>
        <time>2021-08-21T13:16:01Z</time>
      </trkpt>
      <trkpt lat="2.847902" lon="-75.1054">
        <ele>1199.7</ele>
        <time>2021-08-21T13:16:02Z</time>
      </trkpt>
      <trkpt lat="2.84788" lon="-75.10541">
        <ele>1199.9</ele>
        <time>2021-08-21T13:16:03Z</time>
      </trkpt>
      <trkpt lat="2.847857" lon="-75.10541">
        <ele>1200.1</ele>
        <time>2021-08-21T13:16:04Z</time>
      </trkpt>
      <trkpt lat="2.847835" lon="-75.105415">
        <ele>1200.2</ele>
        <time>2021-08-21T13:16:05Z</time>
      </trkpt>
      <trkpt lat="2.847793" lon="-75.10541">
        <ele>1200.6</ele>
        <time>2021-08-21T13:16:07Z</time>
      </trkpt>
      <trkpt lat="2.847804" lon="-75.10541">
        <ele>1200.5</ele>
        <time>2021-08-21T13:16:07Z</time>
      </trkpt>
      <trkpt lat="2.847772" lon="-75.1054">
        <ele>1200.7</ele>
        <time>2021-08-21T13:16:08Z</time>
      </trkpt>
      <trkpt lat="2.847753" lon="-75.10539">
        <ele>1200.9</ele>
        <time>2021-08-21T13:16:09Z</time>
      </trkpt>
      <trkpt lat="2.847733" lon="-75.10538">
        <ele>1201.1</ele>
        <time>2021-08-21T13:16:10Z</time>
      </trkpt>
      <trkpt lat="2.847715" lon="-75.10537">
        <ele>1201.3</ele>
        <time>2021-08-21T13:16:11Z</time>
      </trkpt>
      <trkpt lat="2.847698" lon="-75.105354">
        <ele>1201.4</ele>
        <time>2021-08-21T13:16:12Z</time>
      </trkpt>
      <trkpt lat="2.847683" lon="-75.10534">
        <ele>1201.6</ele>
        <time>2021-08-21T13:16:13Z</time>
      </trkpt>
      <trkpt lat="2.847667" lon="-75.10533">
        <ele>1201.7</ele>
        <time>2021-08-21T13:16:14Z</time>
      </trkpt>
      <trkpt lat="2.847652" lon="-75.105316">
        <ele>1201.9</ele>
        <time>2021-08-21T13:16:15Z</time>
      </trkpt>
      <trkpt lat="2.847636" lon="-75.1053">
        <ele>1202.0</ele>
        <time>2021-08-21T13:16:16Z</time>
      </trkpt>
      <trkpt lat="2.847622" lon="-75.10529">
        <ele>1202.1</ele>
        <time>2021-08-21T13:16:17Z</time>
      </trkpt>
      <trkpt lat="2.847606" lon="-75.10528">
        <ele>1202.3</ele>
        <time>2021-08-21T13:16:18Z</time>
      </trkpt>
      <trkpt lat="2.847589" lon="-75.10526">
        <ele>1202.5</ele>
        <time>2021-08-21T13:16:19Z</time>
      </trkpt>
      <trkpt lat="2.847572" lon="-75.105255">
        <ele>1202.6</ele>
        <time>2021-08-21T13:16:20Z</time>
      </trkpt>
      <trkpt lat="2.847553" lon="-75.10524">
        <ele>1202.8</ele>
        <time>2021-08-21T13:16:21Z</time>
      </trkpt>
      <trkpt lat="2.847535" lon="-75.10523">
        <ele>1202.9</ele>
        <time>2021-08-21T13:16:22Z</time>
      </trkpt>
      <trkpt lat="2.847516" lon="-75.10522">
        <ele>1203.1</ele>
        <time>2021-08-21T13:16:23Z</time>
      </trkpt>
      <trkpt lat="2.847497" lon="-75.10521">
        <ele>1203.2</ele>
        <time>2021-08-21T13:16:24Z</time>
      </trkpt>
      <trkpt lat="2.847478" lon="-75.1052">
        <ele>1203.4</ele>
        <time>2021-08-21T13:16:25Z</time>
      </trkpt>
      <trkpt lat="2.847458" lon="-75.10519">
        <ele>1203.6</ele>
        <time>2021-08-21T13:16:26Z</time>
      </trkpt>
      <trkpt lat="2.847439" lon="-75.10517">
        <ele>1203.8</ele>
        <time>2021-08-21T13:16:27Z</time>
      </trkpt>
      <trkpt lat="2.847421" lon="-75.10516">
        <ele>1204.0</ele>
        <time>2021-08-21T13:16:28Z</time>
      </trkpt>
      <trkpt lat="2.847403" lon="-75.10515">
        <ele>1204.2</ele>
        <time>2021-08-21T13:16:29Z</time>
      </trkpt>
      <trkpt lat="2.847385" lon="-75.10513">
        <ele>1204.4</ele>
        <time>2021-08-21T13:16:30Z</time>
      </trkpt>
      <trkpt lat="2.847366" lon="-75.10512">
        <ele>1204.6</ele>
        <time>2021-08-21T13:16:31Z</time>
      </trkpt>
      <trkpt lat="2.847348" lon="-75.1051">
        <ele>1204.8</ele>
        <time>2021-08-21T13:16:32Z</time>
      </trkpt>
      <trkpt lat="2.84733" lon="-75.10508">
        <ele>1205.0</ele>
        <time>2021-08-21T13:16:33Z</time>
      </trkpt>
      <trkpt lat="2.847313" lon="-75.105064">
        <ele>1205.2</ele>
        <time>2021-08-21T13:16:34Z</time>
      </trkpt>
      <trkpt lat="2.847296" lon="-75.10505">
        <ele>1205.3</ele>
        <time>2021-08-21T13:16:35Z</time>
      </trkpt>
      <trkpt lat="2.847278" lon="-75.105034">
        <ele>1205.5</ele>
        <time>2021-08-21T13:16:36Z</time>
      </trkpt>
      <trkpt lat="2.84726" lon="-75.10502">
        <ele>1205.7</ele>
        <time>2021-08-21T13:16:37Z</time>
      </trkpt>
      <trkpt lat="2.847243" lon="-75.10501">
        <ele>1205.9</ele>
        <time>2021-08-21T13:16:38Z</time>
      </trkpt>
      <trkpt lat="2.847225" lon="-75.104996">
        <ele>1206.0</ele>
        <time>2021-08-21T13:16:39Z</time>
      </trkpt>
      <trkpt lat="2.847208" lon="-75.10498">
        <ele>1206.2</ele>
        <time>2021-08-21T13:16:40Z</time>
      </trkpt>
      <trkpt lat="2.84719" lon="-75.10497">
        <ele>1206.4</ele>
        <time>2021-08-21T13:16:41Z</time>
      </trkpt>
      <trkpt lat="2.847172" lon="-75.10496">
        <ele>1206.5</ele>
        <time>2021-08-21T13:16:42Z</time>
      </trkpt>
      <trkpt lat="2.847154" lon="-75.10495">
        <ele>1206.7</ele>
        <time>2021-08-21T13:16:43Z</time>
      </trkpt>
      <trkpt lat="2.847136" lon="-75.104935">
        <ele>1206.8</ele>
        <time>2021-08-21T13:16:44Z</time>
      </trkpt>
      <trkpt lat="2.847118" lon="-75.10493">
        <ele>1207.0</ele>
        <time>2021-08-21T13:16:45Z</time>
      </trkpt>
      <trkpt lat="2.847099" lon="-75.10492">
        <ele>1207.2</ele>
        <time>2021-08-21T13:16:46Z</time>
      </trkpt>
      <trkpt lat="2.84708" lon="-75.10491">
        <ele>1207.3</ele>
        <time>2021-08-21T13:16:47Z</time>
      </trkpt>
      <trkpt lat="2.847061" lon="-75.1049">
        <ele>1207.5</ele>
        <time>2021-08-21T13:16:48Z</time>
      </trkpt>
      <trkpt lat="2.847042" lon="-75.10489">
        <ele>1207.7</ele>
        <time>2021-08-21T13:16:49Z</time>
      </trkpt>
      <trkpt lat="2.847024" lon="-75.10487">
        <ele>1207.9</ele>
        <time>2021-08-21T13:16:50Z</time>
      </trkpt>
      <trkpt lat="2.847008" lon="-75.10486">
        <ele>1208.0</ele>
        <time>2021-08-21T13:16:51Z</time>
      </trkpt>
      <trkpt lat="2.846995" lon="-75.104836">
        <ele>1208.2</ele>
        <time>2021-08-21T13:16:52Z</time>
      </trkpt>
      <trkpt lat="2.846983" lon="-75.10482">
        <ele>1208.3</ele>
        <time>2021-08-21T13:16:53Z</time>
      </trkpt>
      <trkpt lat="2.846973" lon="-75.1048">
        <ele>1208.5</ele>
        <time>2021-08-21T13:16:54Z</time>
      </trkpt>
      <trkpt lat="2.846965" lon="-75.104774">
        <ele>1208.6</ele>
        <time>2021-08-21T13:16:55Z</time>
      </trkpt>
      <trkpt lat="2.846956" lon="-75.10475">
        <ele>1208.8</ele>
        <time>2021-08-21T13:16:56Z</time>
      </trkpt>
      <trkpt lat="2.846949" lon="-75.10473">
        <ele>1209.0</ele>
        <time>2021-08-21T13:16:57Z</time>
      </trkpt>
      <trkpt lat="2.846944" lon="-75.104706">
        <ele>1209.1</ele>
        <time>2021-08-21T13:16:58Z</time>
      </trkpt>
      <trkpt lat="2.846938" lon="-75.10468">
        <ele>1209.3</ele>
        <time>2021-08-21T13:16:59Z</time>
      </trkpt>
      <trkpt lat="2.846934" lon="-75.10465">
        <ele>1209.4</ele>
        <time>2021-08-21T13:17:00Z</time>
      </trkpt>
      <trkpt lat="2.846932" lon="-75.10463">
        <ele>1209.6</ele>
        <time>2021-08-21T13:17:01Z</time>
      </trkpt>
      <trkpt lat="2.846931" lon="-75.1046">
        <ele>1209.7</ele>
        <time>2021-08-21T13:17:02Z</time>
      </trkpt>
      <trkpt lat="2.846931" lon="-75.104576">
        <ele>1209.9</ele>
        <time>2021-08-21T13:17:03Z</time>
      </trkpt>
      <trkpt lat="2.846932" lon="-75.10455">
        <ele>1210.0</ele>
        <time>2021-08-21T13:17:04Z</time>
      </trkpt>
      <trkpt lat="2.846934" lon="-75.10452">
        <ele>1210.1</ele>
        <time>2021-08-21T13:17:05Z</time>
      </trkpt>
      <trkpt lat="2.846935" lon="-75.1045">
        <ele>1210.2</ele>
        <time>2021-08-21T13:17:06Z</time>
      </trkpt>
      <trkpt lat="2.846937" lon="-75.10448">
        <ele>1210.3</ele>
        <time>2021-08-21T13:17:07Z</time>
      </trkpt>
      <trkpt lat="2.84694" lon="-75.104454">
        <ele>1210.5</ele>
        <time>2021-08-21T13:17:08Z</time>
      </trkpt>
      <trkpt lat="2.846943" lon="-75.10443">
        <ele>1210.6</ele>
        <time>2021-08-21T13:17:09Z</time>
      </trkpt>
      <trkpt lat="2.846945" lon="-75.10441">
        <ele>1210.7</ele>
        <time>2021-08-21T13:17:10Z</time>
      </trkpt>
      <trkpt lat="2.846947" lon="-75.10439">
        <ele>1210.8</ele>
        <time>2021-08-21T13:17:11Z</time>
      </trkpt>
      <trkpt lat="2.846947" lon="-75.10437">
        <ele>1210.9</ele>
        <time>2021-08-21T13:17:12Z</time>
      </trkpt>
      <trkpt lat="2.846947" lon="-75.10435">
        <ele>1211.0</ele>
        <time>2021-08-21T13:17:13Z</time>
      </trkpt>
      <trkpt lat="2.846947" lon="-75.104324">
        <ele>1211.1</ele>
        <time>2021-08-21T13:17:14Z</time>
      </trkpt>
      <trkpt lat="2.846948" lon="-75.1043">
        <ele>1211.2</ele>
        <time>2021-08-21T13:17:15Z</time>
      </trkpt>
      <trkpt lat="2.846949" lon="-75.10429">
        <ele>1211.3</ele>
        <time>2021-08-21T13:17:16Z</time>
      </trkpt>
      <trkpt lat="2.84695" lon="-75.10426">
        <ele>1211.4</ele>
        <time>2021-08-21T13:17:17Z</time>
      </trkpt>
      <trkpt lat="2.846952" lon="-75.10424">
        <ele>1211.6</ele>
        <time>2021-08-21T13:17:18Z</time>
      </trkpt>
      <trkpt lat="2.846954" lon="-75.10422">
        <ele>1211.7</ele>
        <time>2021-08-21T13:17:19Z</time>
      </trkpt>
      <trkpt lat="2.846954" lon="-75.10419">
        <ele>1211.8</ele>
        <time>2021-08-21T13:17:20Z</time>
      </trkpt>
      <trkpt lat="2.846956" lon="-75.104164">
        <ele>1212.0</ele>
        <time>2021-08-21T13:17:21Z</time>
      </trkpt>
      <trkpt lat="2.846957" lon="-75.10414">
        <ele>1212.1</ele>
        <time>2021-08-21T13:17:22Z</time>
      </trkpt>
      <trkpt lat="2.846959" lon="-75.10411">
        <ele>1212.3</ele>
        <time>2021-08-21T13:17:23Z</time>
      </trkpt>
      <trkpt lat="2.846961" lon="-75.10409">
        <ele>1212.4</ele>
        <time>2021-08-21T13:17:24Z</time>
      </trkpt>
      <trkpt lat="2.846962" lon="-75.104065">
        <ele>1212.5</ele>
        <time>2021-08-21T13:17:25Z</time>
      </trkpt>
      <trkpt lat="2.846963" lon="-75.104034">
        <ele>1212.7</ele>
        <time>2021-08-21T13:17:26Z</time>
      </trkpt>
      <trkpt lat="2.846963" lon="-75.10401">
        <ele>1212.8</ele>
        <time>2021-08-21T13:17:27Z</time>
      </trkpt>
      <trkpt lat="2.846962" lon="-75.10399">
        <ele>1212.9</ele>
        <time>2021-08-21T13:17:28Z</time>
      </trkpt>
      <trkpt lat="2.846961" lon="-75.103966">
        <ele>1213.0</ele>
        <time>2021-08-21T13:17:29Z</time>
      </trkpt>
      <trkpt lat="2.846959" lon="-75.10394">
        <ele>1213.2</ele>
        <time>2021-08-21T13:17:30Z</time>
      </trkpt>
      <trkpt lat="2.846957" lon="-75.10391">
        <ele>1213.3</ele>
        <time>2021-08-21T13:17:31Z</time>
      </trkpt>
      <trkpt lat="2.846954" lon="-75.10389">
        <ele>1213.4</ele>
        <time>2021-08-21T13:17:32Z</time>
      </trkpt>
      <trkpt lat="2.846952" lon="-75.10387">
        <ele>1213.6</ele>
        <time>2021-08-21T13:17:33Z</time>
      </trkpt>
      <trkpt lat="2.846949" lon="-75.10384">
        <ele>1213.7</ele>
        <time>2021-08-21T13:17:34Z</time>
      </trkpt>
      <trkpt lat="2.846947" lon="-75.10382">
        <ele>1213.8</ele>
        <time>2021-08-21T13:17:35Z</time>
      </trkpt>
      <trkpt lat="2.846945" lon="-75.1038">
        <ele>1214.0</ele>
        <time>2021-08-21T13:17:36Z</time>
      </trkpt>
      <trkpt lat="2.846942" lon="-75.103775">
        <ele>1214.1</ele>
        <time>2021-08-21T13:17:37Z</time>
      </trkpt>
      <trkpt lat="2.846941" lon="-75.10375">
        <ele>1214.2</ele>
        <time>2021-08-21T13:17:38Z</time>
      </trkpt>
      <trkpt lat="2.846939" lon="-75.10373">
        <ele>1214.3</ele>
        <time>2021-08-21T13:17:39Z</time>
      </trkpt>
      <trkpt lat="2.846939" lon="-75.103714">
        <ele>1214.4</ele>
        <time>2021-08-21T13:17:40Z</time>
      </trkpt>
      <trkpt lat="2.846941" lon="-75.10369">
        <ele>1214.5</ele>
        <time>2021-08-21T13:17:41Z</time>
      </trkpt>
      <trkpt lat="2.846942" lon="-75.10367">
        <ele>1214.7</ele>
        <time>2021-08-21T13:17:42Z</time>
      </trkpt>
      <trkpt lat="2.846944" lon="-75.103645">
        <ele>1214.8</ele>
        <time>2021-08-21T13:17:43Z</time>
      </trkpt>
      <trkpt lat="2.846946" lon="-75.10362">
        <ele>1214.9</ele>
        <time>2021-08-21T13:17:44Z</time>
      </trkpt>
      <trkpt lat="2.846951" lon="-75.1036">
        <ele>1215.0</ele>
        <time>2021-08-21T13:17:45Z</time>
      </trkpt>
      <trkpt lat="2.846957" lon="-75.10358">
        <ele>1215.2</ele>
        <time>2021-08-21T13:17:46Z</time>
      </trkpt>
      <trkpt lat="2.846964" lon="-75.10355">
        <ele>1215.3</ele>
        <time>2021-08-21T13:17:47Z</time>
      </trkpt>
      <trkpt lat="2.846972" lon="-75.10352">
        <ele>1215.4</ele>
        <time>2021-08-21T13:17:48Z</time>
      </trkpt>
      <trkpt lat="2.846983" lon="-75.1035">
        <ele>1215.6</ele>
        <time>2021-08-21T13:17:49Z</time>
      </trkpt>
      <trkpt lat="2.846996" lon="-75.10348">
        <ele>1215.7</ele>
        <time>2021-08-21T13:17:50Z</time>
      </trkpt>
      <trkpt lat="2.84701" lon="-75.10345">
        <ele>1215.9</ele>
        <time>2021-08-21T13:17:51Z</time>
      </trkpt>
      <trkpt lat="2.847023" lon="-75.103424">
        <ele>1216.0</ele>
        <time>2021-08-21T13:17:52Z</time>
      </trkpt>
      <trkpt lat="2.847035" lon="-75.1034">
        <ele>1216.1</ele>
        <time>2021-08-21T13:17:53Z</time>
      </trkpt>
      <trkpt lat="2.847044" lon="-75.10338">
        <ele>1216.3</ele>
        <time>2021-08-21T13:17:54Z</time>
      </trkpt>
      <trkpt lat="2.847053" lon="-75.103355">
        <ele>1216.4</ele>
        <time>2021-08-21T13:17:55Z</time>
      </trkpt>
      <trkpt lat="2.847061" lon="-75.10333">
        <ele>1216.5</ele>
        <time>2021-08-21T13:17:56Z</time>
      </trkpt>
      <trkpt lat="2.847069" lon="-75.10331">
        <ele>1216.6</ele>
        <time>2021-08-21T13:17:57Z</time>
      </trkpt>
      <trkpt lat="2.847075" lon="-75.10329">
        <ele>1216.7</ele>
        <time>2021-08-21T13:17:58Z</time>
      </trkpt>
      <trkpt lat="2.847079" lon="-75.103264">
        <ele>1216.8</ele>
        <time>2021-08-21T13:17:59Z</time>
      </trkpt>
      <trkpt lat="2.847081" lon="-75.10323">
        <ele>1217.0</ele>
        <time>2021-08-21T13:18:00Z</time>
      </trkpt>
      <trkpt lat="2.847079" lon="-75.10321">
        <ele>1217.1</ele>
        <time>2021-08-21T13:18:01Z</time>
      </trkpt>
      <trkpt lat="2.847074" lon="-75.10319">
        <ele>1217.2</ele>
        <time>2021-08-21T13:18:02Z</time>
      </trkpt>
      <trkpt lat="2.847068" lon="-75.103165">
        <ele>1217.3</ele>
        <time>2021-08-21T13:18:03Z</time>
      </trkpt>
      <trkpt lat="2.847059" lon="-75.10315">
        <ele>1217.4</ele>
        <time>2021-08-21T13:18:04Z</time>
      </trkpt>
      <trkpt lat="2.847048" lon="-75.10313">
        <ele>1217.5</ele>
        <time>2021-08-21T13:18:05Z</time>
      </trkpt>
      <trkpt lat="2.847035" lon="-75.10311">
        <ele>1217.6</ele>
        <time>2021-08-21T13:18:06Z</time>
      </trkpt>
      <trkpt lat="2.847022" lon="-75.10309">
        <ele>1217.8</ele>
        <time>2021-08-21T13:18:07Z</time>
      </trkpt>
      <trkpt lat="2.847009" lon="-75.10307">
        <ele>1217.9</ele>
        <time>2021-08-21T13:18:08Z</time>
      </trkpt>
      <trkpt lat="2.846994" lon="-75.10305">
        <ele>1218.0</ele>
        <time>2021-08-21T13:18:09Z</time>
      </trkpt>
      <trkpt lat="2.846979" lon="-75.103035">
        <ele>1218.1</ele>
        <time>2021-08-21T13:18:10Z</time>
      </trkpt>
      <trkpt lat="2.846966" lon="-75.10301">
        <ele>1218.3</ele>
        <time>2021-08-21T13:18:11Z</time>
      </trkpt>
      <trkpt lat="2.846954" lon="-75.103">
        <ele>1218.4</ele>
        <time>2021-08-21T13:18:12Z</time>
      </trkpt>
      <trkpt lat="2.846945" lon="-75.102974">
        <ele>1218.5</ele>
        <time>2021-08-21T13:18:13Z</time>
      </trkpt>
      <trkpt lat="2.846938" lon="-75.10295">
        <ele>1218.6</ele>
        <time>2021-08-21T13:18:14Z</time>
      </trkpt>
      <trkpt lat="2.846934" lon="-75.102936">
        <ele>1218.7</ele>
        <time>2021-08-21T13:18:15Z</time>
      </trkpt>
      <trkpt lat="2.846934" lon="-75.10291">
        <ele>1218.8</ele>
        <time>2021-08-21T13:18:16Z</time>
      </trkpt>
      <trkpt lat="2.846936" lon="-75.10289">
        <ele>1218.9</ele>
        <time>2021-08-21T13:18:17Z</time>
      </trkpt>
      <trkpt lat="2.846941" lon="-75.10286">
        <ele>1219.1</ele>
        <time>2021-08-21T13:18:18Z</time>
      </trkpt>
      <trkpt lat="2.846949" lon="-75.10284">
        <ele>1219.2</ele>
        <time>2021-08-21T13:18:19Z</time>
      </trkpt>
      <trkpt lat="2.84696" lon="-75.10281">
        <ele>1219.3</ele>
        <time>2021-08-21T13:18:20Z</time>
      </trkpt>
      <trkpt lat="2.846973" lon="-75.10278">
        <ele>1219.5</ele>
        <time>2021-08-21T13:18:21Z</time>
      </trkpt>
      <trkpt lat="2.846987" lon="-75.10276">
        <ele>1219.6</ele>
        <time>2021-08-21T13:18:22Z</time>
      </trkpt>
      <trkpt lat="2.847002" lon="-75.102745">
        <ele>1219.7</ele>
        <time>2021-08-21T13:18:23Z</time>
      </trkpt>
      <trkpt lat="2.847018" lon="-75.10272">
        <ele>1219.8</ele>
        <time>2021-08-21T13:18:24Z</time>
      </trkpt>
      <trkpt lat="2.847036" lon="-75.10271">
        <ele>1220.0</ele>
        <time>2021-08-21T13:18:25Z</time>
      </trkpt>
      <trkpt lat="2.847058" lon="-75.102684">
        <ele>1220.1</ele>
        <time>2021-08-21T13:18:26Z</time>
      </trkpt>
      <trkpt lat="2.847081" lon="-75.10267">
        <ele>1220.2</ele>
        <time>2021-08-21T13:18:27Z</time>
      </trkpt>
      <trkpt lat="2.847104" lon="-75.102646">
        <ele>1220.4</ele>
        <time>2021-08-21T13:18:28Z</time>
      </trkpt>
      <trkpt lat="2.847127" lon="-75.10263">
        <ele>1220.5</ele>
        <time>2021-08-21T13:18:29Z</time>
      </trkpt>
      <trkpt lat="2.847151" lon="-75.102615">
        <ele>1220.6</ele>
        <time>2021-08-21T13:18:30Z</time>
      </trkpt>
      <trkpt lat="2.847173" lon="-75.10259">
        <ele>1220.8</ele>
        <time>2021-08-21T13:18:31Z</time>
      </trkpt>
      <trkpt lat="2.847195" lon="-75.10258">
        <ele>1220.9</ele>
        <time>2021-08-21T13:18:32Z</time>
      </trkpt>
      <trkpt lat="2.847214" lon="-75.10256">
        <ele>1221.0</ele>
        <time>2021-08-21T13:18:33Z</time>
      </trkpt>
      <trkpt lat="2.847232" lon="-75.10255">
        <ele>1221.1</ele>
        <time>2021-08-21T13:18:34Z</time>
      </trkpt>
      <trkpt lat="2.847246" lon="-75.10252">
        <ele>1221.2</ele>
        <time>2021-08-21T13:18:35Z</time>
      </trkpt>
      <trkpt lat="2.847259" lon="-75.10251">
        <ele>1221.4</ele>
        <time>2021-08-21T13:18:36Z</time>
      </trkpt>
      <trkpt lat="2.847271" lon="-75.10249">
        <ele>1221.5</ele>
        <time>2021-08-21T13:18:37Z</time>
      </trkpt>
      <trkpt lat="2.847284" lon="-75.10247">
        <ele>1221.6</ele>
        <time>2021-08-21T13:18:38Z</time>
      </trkpt>
      <trkpt lat="2.847298" lon="-75.102455">
        <ele>1221.7</ele>
        <time>2021-08-21T13:18:39Z</time>
      </trkpt>
      <trkpt lat="2.847312" lon="-75.10243">
        <ele>1221.8</ele>
        <time>2021-08-21T13:18:40Z</time>
      </trkpt>
      <trkpt lat="2.847323" lon="-75.10242">
        <ele>1222.0</ele>
        <time>2021-08-21T13:18:41Z</time>
      </trkpt>
      <trkpt lat="2.847332" lon="-75.102394">
        <ele>1222.1</ele>
        <time>2021-08-21T13:18:42Z</time>
      </trkpt>
      <trkpt lat="2.847341" lon="-75.10237">
        <ele>1222.3</ele>
        <time>2021-08-21T13:18:43Z</time>
      </trkpt>
      <trkpt lat="2.847348" lon="-75.102356">
        <ele>1222.4</ele>
        <time>2021-08-21T13:18:44Z</time>
      </trkpt>
      <trkpt lat="2.847354" lon="-75.10233">
        <ele>1222.5</ele>
        <time>2021-08-21T13:18:45Z</time>
      </trkpt>
      <trkpt lat="2.84736" lon="-75.10231">
        <ele>1222.6</ele>
        <time>2021-08-21T13:18:46Z</time>
      </trkpt>
      <trkpt lat="2.847366" lon="-75.10229">
        <ele>1222.7</ele>
        <time>2021-08-21T13:18:47Z</time>
      </trkpt>
      <trkpt lat="2.847369" lon="-75.102264">
        <ele>1222.8</ele>
        <time>2021-08-21T13:18:48Z</time>
      </trkpt>
      <trkpt lat="2.84737" lon="-75.10224">
        <ele>1222.9</ele>
        <time>2021-08-21T13:18:49Z</time>
      </trkpt>
      <trkpt lat="2.847369" lon="-75.10222">
        <ele>1223.0</ele>
        <time>2021-08-21T13:18:50Z</time>
      </trkpt>
      <trkpt lat="2.847367" lon="-75.102196">
        <ele>1223.1</ele>
        <time>2021-08-21T13:18:51Z</time>
      </trkpt>
      <trkpt lat="2.847367" lon="-75.10217">
        <ele>1223.2</ele>
        <time>2021-08-21T13:18:52Z</time>
      </trkpt>
      <trkpt lat="2.847368" lon="-75.10215">
        <ele>1223.4</ele>
        <time>2021-08-21T13:18:53Z</time>
      </trkpt>
      <trkpt lat="2.847374" lon="-75.10213">
        <ele>1223.5</ele>
        <time>2021-08-21T13:18:54Z</time>
      </trkpt>
      <trkpt lat="2.847381" lon="-75.102104">
        <ele>1223.6</ele>
        <time>2021-08-21T13:18:55Z</time>
      </trkpt>
      <trkpt lat="2.84739" lon="-75.10207">
        <ele>1223.7</ele>
        <time>2021-08-21T13:18:56Z</time>
      </trkpt>
      <trkpt lat="2.8474" lon="-75.10205">
        <ele>1223.8</ele>
        <time>2021-08-21T13:18:57Z</time>
      </trkpt>
      <trkpt lat="2.847414" lon="-75.10203">
        <ele>1224.0</ele>
        <time>2021-08-21T13:18:58Z</time>
      </trkpt>
      <trkpt lat="2.847432" lon="-75.10201">
        <ele>1224.1</ele>
        <time>2021-08-21T13:18:59Z</time>
      </trkpt>
      <trkpt lat="2.847452" lon="-75.10199">
        <ele>1224.3</ele>
        <time>2021-08-21T13:19:00Z</time>
      </trkpt>
      <trkpt lat="2.847474" lon="-75.101974">
        <ele>1224.4</ele>
        <time>2021-08-21T13:19:01Z</time>
      </trkpt>
      <trkpt lat="2.8475" lon="-75.10195">
        <ele>1224.6</ele>
        <time>2021-08-21T13:19:02Z</time>
      </trkpt>
      <trkpt lat="2.847526" lon="-75.10194">
        <ele>1224.8</ele>
        <time>2021-08-21T13:19:03Z</time>
      </trkpt>
      <trkpt lat="2.847555" lon="-75.10192">
        <ele>1224.9</ele>
        <time>2021-08-21T13:19:04Z</time>
      </trkpt>
      <trkpt lat="2.847584" lon="-75.10191">
        <ele>1225.1</ele>
        <time>2021-08-21T13:19:05Z</time>
      </trkpt>
      <trkpt lat="2.847613" lon="-75.1019">
        <ele>1225.3</ele>
        <time>2021-08-21T13:19:06Z</time>
      </trkpt>
      <trkpt lat="2.847643" lon="-75.10189">
        <ele>1225.4</ele>
        <time>2021-08-21T13:19:07Z</time>
      </trkpt>
      <trkpt lat="2.847671" lon="-75.101875">
        <ele>1225.6</ele>
        <time>2021-08-21T13:19:08Z</time>
      </trkpt>
      <trkpt lat="2.847699" lon="-75.10187">
        <ele>1225.7</ele>
        <time>2021-08-21T13:19:09Z</time>
      </trkpt>
      <trkpt lat="2.847728" lon="-75.10186">
        <ele>1225.9</ele>
        <time>2021-08-21T13:19:10Z</time>
      </trkpt>
      <trkpt lat="2.847756" lon="-75.10185">
        <ele>1226.0</ele>
        <time>2021-08-21T13:19:11Z</time>
      </trkpt>
      <trkpt lat="2.847784" lon="-75.101845">
        <ele>1226.2</ele>
        <time>2021-08-21T13:19:12Z</time>
      </trkpt>
      <trkpt lat="2.847811" lon="-75.101845">
        <ele>1226.3</ele>
        <time>2021-08-21T13:19:13Z</time>
      </trkpt>
      <trkpt lat="2.847837" lon="-75.10184">
        <ele>1226.4</ele>
        <time>2021-08-21T13:19:14Z</time>
      </trkpt>
      <trkpt lat="2.847862" lon="-75.10182">
        <ele>1226.5</ele>
        <time>2021-08-21T13:19:15Z</time>
      </trkpt>
      <trkpt lat="2.847887" lon="-75.101814">
        <ele>1226.7</ele>
        <time>2021-08-21T13:19:16Z</time>
      </trkpt>
      <trkpt lat="2.847911" lon="-75.1018">
        <ele>1226.8</ele>
        <time>2021-08-21T13:19:17Z</time>
      </trkpt>
      <trkpt lat="2.847934" lon="-75.10179">
        <ele>1226.9</ele>
        <time>2021-08-21T13:19:18Z</time>
      </trkpt>
      <trkpt lat="2.847955" lon="-75.101776">
        <ele>1227.0</ele>
        <time>2021-08-21T13:19:19Z</time>
      </trkpt>
      <trkpt lat="2.847975" lon="-75.10176">
        <ele>1227.1</ele>
        <time>2021-08-21T13:19:20Z</time>
      </trkpt>
      <trkpt lat="2.847993" lon="-75.101746">
        <ele>1227.2</ele>
        <time>2021-08-21T13:19:21Z</time>
      </trkpt>
      <trkpt lat="2.848009" lon="-75.10173">
        <ele>1227.4</ele>
        <time>2021-08-21T13:19:22Z</time>
      </trkpt>
      <trkpt lat="2.848022" lon="-75.10171">
        <ele>1227.5</ele>
        <time>2021-08-21T13:19:23Z</time>
      </trkpt>
      <trkpt lat="2.84803" lon="-75.101685">
        <ele>1227.6</ele>
        <time>2021-08-21T13:19:24Z</time>
      </trkpt>
      <trkpt lat="2.848036" lon="-75.10166">
        <ele>1227.8</ele>
        <time>2021-08-21T13:19:25Z</time>
      </trkpt>
      <trkpt lat="2.848042" lon="-75.10164">
        <ele>1227.9</ele>
        <time>2021-08-21T13:19:26Z</time>
      </trkpt>
      <trkpt lat="2.848049" lon="-75.10162">
        <ele>1228.0</ele>
        <time>2021-08-21T13:19:27Z</time>
      </trkpt>
      <trkpt lat="2.848059" lon="-75.1016">
        <ele>1228.2</ele>
        <time>2021-08-21T13:19:28Z</time>
      </trkpt>
      <trkpt lat="2.84807" lon="-75.10158">
        <ele>1228.3</ele>
        <time>2021-08-21T13:19:29Z</time>
      </trkpt>
      <trkpt lat="2.848081" lon="-75.101555">
        <ele>1228.5</ele>
        <time>2021-08-21T13:19:30Z</time>
      </trkpt>
      <trkpt lat="2.84809" lon="-75.10153">
        <ele>1228.6</ele>
        <time>2021-08-21T13:19:31Z</time>
      </trkpt>
      <trkpt lat="2.848101" lon="-75.10151">
        <ele>1228.8</ele>
        <time>2021-08-21T13:19:32Z</time>
      </trkpt>
      <trkpt lat="2.848111" lon="-75.10149">
        <ele>1228.9</ele>
        <time>2021-08-21T13:19:33Z</time>
      </trkpt>
      <trkpt lat="2.848124" lon="-75.10146">
        <ele>1229.1</ele>
        <time>2021-08-21T13:19:34Z</time>
      </trkpt>
      <trkpt lat="2.84814" lon="-75.10145">
        <ele>1229.2</ele>
        <time>2021-08-21T13:19:35Z</time>
      </trkpt>
      <trkpt lat="2.848157" lon="-75.101425">
        <ele>1229.4</ele>
        <time>2021-08-21T13:19:36Z</time>
      </trkpt>
      <trkpt lat="2.848175" lon="-75.10141">
        <ele>1229.5</ele>
        <time>2021-08-21T13:19:37Z</time>
      </trkpt>
      <trkpt lat="2.848193" lon="-75.101395">
        <ele>1229.7</ele>
        <time>2021-08-21T13:19:38Z</time>
      </trkpt>
      <trkpt lat="2.848211" lon="-75.10138">
        <ele>1229.8</ele>
        <time>2021-08-21T13:19:39Z</time>
      </trkpt>
      <trkpt lat="2.848228" lon="-75.101364">
        <ele>1229.9</ele>
        <time>2021-08-21T13:19:40Z</time>
      </trkpt>
      <trkpt lat="2.848246" lon="-75.10135">
        <ele>1230.1</ele>
        <time>2021-08-21T13:19:41Z</time>
      </trkpt>
      <trkpt lat="2.848262" lon="-75.10133">
        <ele>1230.2</ele>
        <time>2021-08-21T13:19:42Z</time>
      </trkpt>
      <trkpt lat="2.84828" lon="-75.10132">
        <ele>1230.3</ele>
        <time>2021-08-21T13:19:43Z</time>
      </trkpt>
      <trkpt lat="2.848298" lon="-75.101295">
        <ele>1230.5</ele>
        <time>2021-08-21T13:19:44Z</time>
      </trkpt>
      <trkpt lat="2.848316" lon="-75.10128">
        <ele>1230.6</ele>
        <time>2021-08-21T13:19:45Z</time>
      </trkpt>
      <trkpt lat="2.848336" lon="-75.101265">
        <ele>1230.8</ele>
        <time>2021-08-21T13:19:46Z</time>
      </trkpt>
      <trkpt lat="2.848356" lon="-75.10125">
        <ele>1230.9</ele>
        <time>2021-08-21T13:19:47Z</time>
      </trkpt>
      <trkpt lat="2.848377" lon="-75.10124">
        <ele>1231.1</ele>
        <time>2021-08-21T13:19:48Z</time>
      </trkpt>
      <trkpt lat="2.848398" lon="-75.10123">
        <ele>1231.2</ele>
        <time>2021-08-21T13:19:49Z</time>
      </trkpt>
      <trkpt lat="2.848419" lon="-75.10121">
        <ele>1231.4</ele>
        <time>2021-08-21T13:19:50Z</time>
      </trkpt>
      <trkpt lat="2.848438" lon="-75.1012">
        <ele>1231.5</ele>
        <time>2021-08-21T13:19:51Z</time>
      </trkpt>
      <trkpt lat="2.84846" lon="-75.10119">
        <ele>1231.7</ele>
        <time>2021-08-21T13:19:52Z</time>
      </trkpt>
      <trkpt lat="2.848481" lon="-75.10117">
        <ele>1231.9</ele>
        <time>2021-08-21T13:19:53Z</time>
      </trkpt>
      <trkpt lat="2.848502" lon="-75.101166">
        <ele>1232.0</ele>
        <time>2021-08-21T13:19:53Z</time>
      </trkpt>
      <trkpt lat="2.848525" lon="-75.10116">
        <ele>1232.2</ele>
        <time>2021-08-21T13:19:54Z</time>
      </trkpt>
      <trkpt lat="2.848548" lon="-75.10115">
        <ele>1232.4</ele>
        <time>2021-08-21T13:19:55Z</time>
      </trkpt>
      <trkpt lat="2.848574" lon="-75.10114">
        <ele>1232.6</ele>
        <time>2021-08-21T13:19:56Z</time>
      </trkpt>
      <trkpt lat="2.848601" lon="-75.101135">
        <ele>1232.8</ele>
        <time>2021-08-21T13:19:57Z</time>
      </trkpt>
      <trkpt lat="2.848627" lon="-75.10113">
        <ele>1233.0</ele>
        <time>2021-08-21T13:19:58Z</time>
      </trkpt>
      <trkpt lat="2.848654" lon="-75.10113">
        <ele>1233.2</ele>
        <time>2021-08-21T13:19:59Z</time>
      </trkpt>
      <trkpt lat="2.848682" lon="-75.10113">
        <ele>1233.5</ele>
        <time>2021-08-21T13:20:00Z</time>
      </trkpt>
      <trkpt lat="2.84871" lon="-75.10113">
        <ele>1233.7</ele>
        <time>2021-08-21T13:20:01Z</time>
      </trkpt>
      <trkpt lat="2.848738" lon="-75.10113">
        <ele>1233.9</ele>
        <time>2021-08-21T13:20:02Z</time>
      </trkpt>
      <trkpt lat="2.848764" lon="-75.10113">
        <ele>1234.1</ele>
        <time>2021-08-21T13:20:03Z</time>
      </trkpt>
      <trkpt lat="2.848788" lon="-75.101135">
        <ele>1234.3</ele>
        <time>2021-08-21T13:20:04Z</time>
      </trkpt>
      <trkpt lat="2.848814" lon="-75.10114">
        <ele>1234.4</ele>
        <time>2021-08-21T13:20:05Z</time>
      </trkpt>
      <trkpt lat="2.848839" lon="-75.10114">
        <ele>1234.6</ele>
        <time>2021-08-21T13:20:06Z</time>
      </trkpt>
      <trkpt lat="2.848863" lon="-75.10115">
        <ele>1234.8</ele>
        <time>2021-08-21T13:20:07Z</time>
      </trkpt>
      <trkpt lat="2.848888" lon="-75.10116">
        <ele>1235.0</ele>
        <time>2021-08-21T13:20:08Z</time>
      </trkpt>
      <trkpt lat="2.848913" lon="-75.10116">
        <ele>1235.1</ele>
        <time>2021-08-21T13:20:09Z</time>
      </trkpt>
      <trkpt lat="2.848939" lon="-75.101166">
        <ele>1235.3</ele>
        <time>2021-08-21T13:20:10Z</time>
      </trkpt>
      <trkpt lat="2.848965" lon="-75.10117">
        <ele>1235.5</ele>
        <time>2021-08-21T13:20:11Z</time>
      </trkpt>
      <trkpt lat="2.848992" lon="-75.10118">
        <ele>1235.7</ele>
        <time>2021-08-21T13:20:12Z</time>
      </trkpt>
      <trkpt lat="2.849018" lon="-75.10119">
        <ele>1235.8</ele>
        <time>2021-08-21T13:20:13Z</time>
      </trkpt>
      <trkpt lat="2.849047" lon="-75.1012">
        <ele>1236.0</ele>
        <time>2021-08-21T13:20:14Z</time>
      </trkpt>
      <trkpt lat="2.849076" lon="-75.1012">
        <ele>1236.2</ele>
        <time>2021-08-21T13:20:15Z</time>
      </trkpt>
      <trkpt lat="2.849103" lon="-75.1012">
        <ele>1236.3</ele>
        <time>2021-08-21T13:20:16Z</time>
      </trkpt>
      <trkpt lat="2.849128" lon="-75.1012">
        <ele>1236.4</ele>
        <time>2021-08-21T13:20:17Z</time>
      </trkpt>
      <trkpt lat="2.849152" lon="-75.10119">
        <ele>1236.6</ele>
        <time>2021-08-21T13:20:18Z</time>
      </trkpt>
      <trkpt lat="2.849175" lon="-75.10118">
        <ele>1236.7</ele>
        <time>2021-08-21T13:20:19Z</time>
      </trkpt>
      <trkpt lat="2.849198" lon="-75.10117">
        <ele>1236.7</ele>
        <time>2021-08-21T13:20:20Z</time>
      </trkpt>
      <trkpt lat="2.849222" lon="-75.101166">
        <ele>1236.8</ele>
        <time>2021-08-21T13:20:21Z</time>
      </trkpt>
      <trkpt lat="2.849247" lon="-75.10116">
        <ele>1236.9</ele>
        <time>2021-08-21T13:20:22Z</time>
      </trkpt>
      <trkpt lat="2.849271" lon="-75.10115">
        <ele>1237.0</ele>
        <time>2021-08-21T13:20:23Z</time>
      </trkpt>
      <trkpt lat="2.849296" lon="-75.101135">
        <ele>1237.1</ele>
        <time>2021-08-21T13:20:24Z</time>
      </trkpt>
      <trkpt lat="2.849319" lon="-75.10113">
        <ele>1237.1</ele>
        <time>2021-08-21T13:20:25Z</time>
      </trkpt>
      <trkpt lat="2.849338" lon="-75.10111">
        <ele>1237.2</ele>
        <time>2021-08-21T13:20:26Z</time>
      </trkpt>
      <trkpt lat="2.849355" lon="-75.1011">
        <ele>1237.2</ele>
        <time>2021-08-21T13:20:27Z</time>
      </trkpt>
      <trkpt lat="2.849369" lon="-75.10108">
        <ele>1237.3</ele>
        <time>2021-08-21T13:20:28Z</time>
      </trkpt>
      <trkpt lat="2.849379" lon="-75.10106">
        <ele>1237.3</ele>
        <time>2021-08-21T13:20:29Z</time>
      </trkpt>
      <trkpt lat="2.849386" lon="-75.10104">
        <ele>1237.3</ele>
        <time>2021-08-21T13:20:30Z</time>
      </trkpt>
      <trkpt lat="2.84939" lon="-75.10102">
        <ele>1237.4</ele>
        <time>2021-08-21T13:20:31Z</time>
      </trkpt>
      <trkpt lat="2.84939" lon="-75.101">
        <ele>1237.4</ele>
        <time>2021-08-21T13:20:32Z</time>
      </trkpt>
      <trkpt lat="2.849389" lon="-75.100975">
        <ele>1237.5</ele>
        <time>2021-08-21T13:20:33Z</time>
      </trkpt>
      <trkpt lat="2.849385" lon="-75.10095">
        <ele>1237.5</ele>
        <time>2021-08-21T13:20:34Z</time>
      </trkpt>
      <trkpt lat="2.849378" lon="-75.10093">
        <ele>1237.6</ele>
        <time>2021-08-21T13:20:35Z</time>
      </trkpt>
      <trkpt lat="2.849367" lon="-75.10091">
        <ele>1237.6</ele>
        <time>2021-08-21T13:20:36Z</time>
      </trkpt>
      <trkpt lat="2.849352" lon="-75.10089">
        <ele>1237.7</ele>
        <time>2021-08-21T13:20:37Z</time>
      </trkpt>
      <trkpt lat="2.849335" lon="-75.100876">
        <ele>1237.8</ele>
        <time>2021-08-21T13:20:38Z</time>
      </trkpt>
      <trkpt lat="2.849318" lon="-75.10086">
        <ele>1237.8</ele>
        <time>2021-08-21T13:20:39Z</time>
      </trkpt>
      <trkpt lat="2.8493" lon="-75.10085">
        <ele>1237.9</ele>
        <time>2021-08-21T13:20:40Z</time>
      </trkpt>
      <trkpt lat="2.849277" lon="-75.10084">
        <ele>1238.0</ele>
        <time>2021-08-21T13:20:41Z</time>
      </trkpt>
      <trkpt lat="2.849253" lon="-75.10083">
        <ele>1238.0</ele>
        <time>2021-08-21T13:20:42Z</time>
      </trkpt>
      <trkpt lat="2.849226" lon="-75.10082">
        <ele>1238.1</ele>
        <time>2021-08-21T13:20:43Z</time>
      </trkpt>
      <trkpt lat="2.849199" lon="-75.100815">
        <ele>1238.2</ele>
        <time>2021-08-21T13:20:44Z</time>
      </trkpt>
      <trkpt lat="2.849173" lon="-75.10081">
        <ele>1238.3</ele>
        <time>2021-08-21T13:20:45Z</time>
      </trkpt>
      <trkpt lat="2.849147" lon="-75.1008">
        <ele>1238.4</ele>
        <time>2021-08-21T13:20:46Z</time>
      </trkpt>
      <trkpt lat="2.849121" lon="-75.10079">
        <ele>1238.5</ele>
        <time>2021-08-21T13:20:47Z</time>
      </trkpt>
      <trkpt lat="2.849094" lon="-75.100784">
        <ele>1238.6</ele>
        <time>2021-08-21T13:20:48Z</time>
      </trkpt>
      <trkpt lat="2.849067" lon="-75.10078">
        <ele>1238.8</ele>
        <time>2021-08-21T13:20:49Z</time>
      </trkpt>
      <trkpt lat="2.849042" lon="-75.10077">
        <ele>1238.9</ele>
        <time>2021-08-21T13:20:50Z</time>
      </trkpt>
      <trkpt lat="2.849017" lon="-75.10076">
        <ele>1239.0</ele>
        <time>2021-08-21T13:20:51Z</time>
      </trkpt>
      <trkpt lat="2.84899" lon="-75.10075">
        <ele>1239.1</ele>
        <time>2021-08-21T13:20:52Z</time>
      </trkpt>
      <trkpt lat="2.848964" lon="-75.100746">
        <ele>1239.2</ele>
        <time>2021-08-21T13:20:53Z</time>
      </trkpt>
      <trkpt lat="2.848939" lon="-75.10074">
        <ele>1239.3</ele>
        <time>2021-08-21T13:20:54Z</time>
      </trkpt>
      <trkpt lat="2.848916" lon="-75.10073">
        <ele>1239.4</ele>
        <time>2021-08-21T13:20:55Z</time>
      </trkpt>
      <trkpt lat="2.848889" lon="-75.10072">
        <ele>1239.6</ele>
        <time>2021-08-21T13:20:56Z</time>
      </trkpt>
      <trkpt lat="2.848863" lon="-75.100716">
        <ele>1239.7</ele>
        <time>2021-08-21T13:20:57Z</time>
      </trkpt>
      <trkpt lat="2.848836" lon="-75.1007">
        <ele>1239.8</ele>
        <time>2021-08-21T13:20:58Z</time>
      </trkpt>
      <trkpt lat="2.848809" lon="-75.10069">
        <ele>1240.0</ele>
        <time>2021-08-21T13:20:59Z</time>
      </trkpt>
      <trkpt lat="2.848784" lon="-75.100685">
        <ele>1240.1</ele>
        <time>2021-08-21T13:21:00Z</time>
      </trkpt>
      <trkpt lat="2.848758" lon="-75.10068">
        <ele>1240.3</ele>
        <time>2021-08-21T13:21:01Z</time>
      </trkpt>
      <trkpt lat="2.848732" lon="-75.10067">
        <ele>1240.4</ele>
        <time>2021-08-21T13:21:02Z</time>
      </trkpt>
      <trkpt lat="2.848707" lon="-75.10066">
        <ele>1240.5</ele>
        <time>2021-08-21T13:21:03Z</time>
      </trkpt>
      <trkpt lat="2.848683" lon="-75.10066">
        <ele>1240.7</ele>
        <time>2021-08-21T13:21:04Z</time>
      </trkpt>
      <trkpt lat="2.848658" lon="-75.100655">
        <ele>1240.8</ele>
        <time>2021-08-21T13:21:05Z</time>
      </trkpt>
      <trkpt lat="2.848632" lon="-75.100655">
        <ele>1240.9</ele>
        <time>2021-08-21T13:21:06Z</time>
      </trkpt>
      <trkpt lat="2.848607" lon="-75.100655">
        <ele>1241.0</ele>
        <time>2021-08-21T13:21:07Z</time>
      </trkpt>
      <trkpt lat="2.848583" lon="-75.10065">
        <ele>1241.2</ele>
        <time>2021-08-21T13:21:08Z</time>
      </trkpt>
      <trkpt lat="2.848559" lon="-75.100655">
        <ele>1241.3</ele>
        <time>2021-08-21T13:21:09Z</time>
      </trkpt>
      <trkpt lat="2.848535" lon="-75.100655">
        <ele>1241.4</ele>
        <time>2021-08-21T13:21:10Z</time>
      </trkpt>
      <trkpt lat="2.848511" lon="-75.100655">
        <ele>1241.5</ele>
        <time>2021-08-21T13:21:11Z</time>
      </trkpt>
      <trkpt lat="2.848487" lon="-75.10066">
        <ele>1241.6</ele>
        <time>2021-08-21T13:21:12Z</time>
      </trkpt>
      <trkpt lat="2.848463" lon="-75.10066">
        <ele>1241.8</ele>
        <time>2021-08-21T13:21:13Z</time>
      </trkpt>
      <trkpt lat="2.848439" lon="-75.10067">
        <ele>1241.9</ele>
        <time>2021-08-21T13:21:14Z</time>
      </trkpt>
      <trkpt lat="2.848414" lon="-75.10068">
        <ele>1242.0</ele>
        <time>2021-08-21T13:21:15Z</time>
      </trkpt>
      <trkpt lat="2.848391" lon="-75.100685">
        <ele>1242.2</ele>
        <time>2021-08-21T13:21:16Z</time>
      </trkpt>
      <trkpt lat="2.848368" lon="-75.10069">
        <ele>1242.3</ele>
        <time>2021-08-21T13:21:17Z</time>
      </trkpt>
      <trkpt lat="2.848347" lon="-75.1007">
        <ele>1242.4</ele>
        <time>2021-08-21T13:21:18Z</time>
      </trkpt>
      <trkpt lat="2.848324" lon="-75.10071">
        <ele>1242.6</ele>
        <time>2021-08-21T13:21:19Z</time>
      </trkpt>
      <trkpt lat="2.848302" lon="-75.100716">
        <ele>1242.7</ele>
        <time>2021-08-21T13:21:20Z</time>
      </trkpt>
      <trkpt lat="2.84828" lon="-75.10072">
        <ele>1242.9</ele>
        <time>2021-08-21T13:21:21Z</time>
      </trkpt>
      <trkpt lat="2.84826" lon="-75.10073">
        <ele>1243.0</ele>
        <time>2021-08-21T13:21:22Z</time>
      </trkpt>
      <trkpt lat="2.848241" lon="-75.10074">
        <ele>1243.2</ele>
        <time>2021-08-21T13:21:23Z</time>
      </trkpt>
      <trkpt lat="2.848222" lon="-75.10075">
        <ele>1243.3</ele>
        <time>2021-08-21T13:21:24Z</time>
      </trkpt>
      <trkpt lat="2.848203" lon="-75.10076">
        <ele>1243.5</ele>
        <time>2021-08-21T13:21:25Z</time>
      </trkpt>
      <trkpt lat="2.848183" lon="-75.10077">
        <ele>1243.6</ele>
        <time>2021-08-21T13:21:26Z</time>
      </trkpt>
      <trkpt lat="2.848164" lon="-75.10078">
        <ele>1243.8</ele>
        <time>2021-08-21T13:21:27Z</time>
      </trkpt>
      <trkpt lat="2.848143" lon="-75.100784">
        <ele>1243.9</ele>
        <time>2021-08-21T13:21:28Z</time>
      </trkpt>
      <trkpt lat="2.848118" lon="-75.10079">
        <ele>1244.1</ele>
        <time>2021-08-21T13:21:29Z</time>
      </trkpt>
      <trkpt lat="2.848094" lon="-75.1008">
        <ele>1244.2</ele>
        <time>2021-08-21T13:21:30Z</time>
      </trkpt>
      <trkpt lat="2.84807" lon="-75.1008">
        <ele>1244.4</ele>
        <time>2021-08-21T13:21:31Z</time>
      </trkpt>
      <trkpt lat="2.848045" lon="-75.1008">
        <ele>1244.6</ele>
        <time>2021-08-21T13:21:32Z</time>
      </trkpt>
      <trkpt lat="2.848021" lon="-75.10079">
        <ele>1244.7</ele>
        <time>2021-08-21T13:21:33Z</time>
      </trkpt>
      <trkpt lat="2.847998" lon="-75.100784">
        <ele>1244.9</ele>
        <time>2021-08-21T13:21:34Z</time>
      </trkpt>
      <trkpt lat="2.847974" lon="-75.10078">
        <ele>1245.0</ele>
        <time>2021-08-21T13:21:35Z</time>
      </trkpt>
      <trkpt lat="2.847953" lon="-75.10076">
        <ele>1245.2</ele>
        <time>2021-08-21T13:21:36Z</time>
      </trkpt>
      <trkpt lat="2.847933" lon="-75.100746">
        <ele>1245.4</ele>
        <time>2021-08-21T13:21:37Z</time>
      </trkpt>
      <trkpt lat="2.847913" lon="-75.10072">
        <ele>1245.5</ele>
        <time>2021-08-21T13:21:38Z</time>
      </trkpt>
      <trkpt lat="2.847897" lon="-75.10071">
        <ele>1245.7</ele>
        <time>2021-08-21T13:21:39Z</time>
      </trkpt>
      <trkpt lat="2.847882" lon="-75.100685">
        <ele>1245.9</ele>
        <time>2021-08-21T13:21:40Z</time>
      </trkpt>
      <trkpt lat="2.847872" lon="-75.10066">
        <ele>1246.0</ele>
        <time>2021-08-21T13:21:41Z</time>
      </trkpt>
      <trkpt lat="2.847867" lon="-75.10063">
        <ele>1246.2</ele>
        <time>2021-08-21T13:21:42Z</time>
      </trkpt>
      <trkpt lat="2.847866" lon="-75.10059">
        <ele>1246.4</ele>
        <time>2021-08-21T13:21:43Z</time>
      </trkpt>
      <trkpt lat="2.847869" lon="-75.10056">
        <ele>1246.5</ele>
        <time>2021-08-21T13:21:44Z</time>
      </trkpt>
      <trkpt lat="2.847873" lon="-75.10053">
        <ele>1246.7</ele>
        <time>2021-08-21T13:21:45Z</time>
      </trkpt>
      <trkpt lat="2.847879" lon="-75.1005">
        <ele>1246.8</ele>
        <time>2021-08-21T13:21:46Z</time>
      </trkpt>
      <trkpt lat="2.847887" lon="-75.100464">
        <ele>1246.9</ele>
        <time>2021-08-21T13:21:47Z</time>
      </trkpt>
      <trkpt lat="2.847895" lon="-75.10043">
        <ele>1247.0</ele>
        <time>2021-08-21T13:21:48Z</time>
      </trkpt>
      <trkpt lat="2.847903" lon="-75.100395">
        <ele>1247.1</ele>
        <time>2021-08-21T13:21:49Z</time>
      </trkpt>
      <trkpt lat="2.847908" lon="-75.100365">
        <ele>1247.2</ele>
        <time>2021-08-21T13:21:50Z</time>
      </trkpt>
      <trkpt lat="2.847911" lon="-75.10033">
        <ele>1247.3</ele>
        <time>2021-08-21T13:21:51Z</time>
      </trkpt>
      <trkpt lat="2.847913" lon="-75.100296">
        <ele>1247.4</ele>
        <time>2021-08-21T13:21:52Z</time>
      </trkpt>
      <trkpt lat="2.847913" lon="-75.100266">
        <ele>1247.5</ele>
        <time>2021-08-21T13:21:53Z</time>
      </trkpt>
      <trkpt lat="2.847914" lon="-75.10024">
        <ele>1247.6</ele>
        <time>2021-08-21T13:21:54Z</time>
      </trkpt>
      <trkpt lat="2.847912" lon="-75.10021">
        <ele>1247.7</ele>
        <time>2021-08-21T13:21:55Z</time>
      </trkpt>
      <trkpt lat="2.847906" lon="-75.10018">
        <ele>1247.8</ele>
        <time>2021-08-21T13:21:56Z</time>
      </trkpt>
      <trkpt lat="2.847899" lon="-75.10015">
        <ele>1247.8</ele>
        <time>2021-08-21T13:21:57Z</time>
      </trkpt>
      <trkpt lat="2.847892" lon="-75.10012">
        <ele>1247.9</ele>
        <time>2021-08-21T13:21:58Z</time>
      </trkpt>
      <trkpt lat="2.847885" lon="-75.10009">
        <ele>1248.0</ele>
        <time>2021-08-21T13:21:59Z</time>
      </trkpt>
      <trkpt lat="2.847879" lon="-75.10005">
        <ele>1248.1</ele>
        <time>2021-08-21T13:22:00Z</time>
      </trkpt>
      <trkpt lat="2.847873" lon="-75.10002">
        <ele>1248.1</ele>
        <time>2021-08-21T13:22:01Z</time>
      </trkpt>
      <trkpt lat="2.847868" lon="-75.09999">
        <ele>1248.2</ele>
        <time>2021-08-21T13:22:02Z</time>
      </trkpt>
      <trkpt lat="2.847861" lon="-75.09996">
        <ele>1248.3</ele>
        <time>2021-08-21T13:22:03Z</time>
      </trkpt>
      <trkpt lat="2.847849" lon="-75.09994">
        <ele>1248.3</ele>
        <time>2021-08-21T13:22:04Z</time>
      </trkpt>
      <trkpt lat="2.847837" lon="-75.099915">
        <ele>1248.4</ele>
        <time>2021-08-21T13:22:05Z</time>
      </trkpt>
      <trkpt lat="2.847823" lon="-75.09989">
        <ele>1248.4</ele>
        <time>2021-08-21T13:22:06Z</time>
      </trkpt>
      <trkpt lat="2.847806" lon="-75.09988">
        <ele>1248.4</ele>
        <time>2021-08-21T13:22:07Z</time>
      </trkpt>
      <trkpt lat="2.847788" lon="-75.09986">
        <ele>1248.5</ele>
        <time>2021-08-21T13:22:08Z</time>
      </trkpt>
      <trkpt lat="2.847769" lon="-75.09985">
        <ele>1248.5</ele>
        <time>2021-08-21T13:22:09Z</time>
      </trkpt>
      <trkpt lat="2.84775" lon="-75.099846">
        <ele>1248.6</ele>
        <time>2021-08-21T13:22:10Z</time>
      </trkpt>
      <trkpt lat="2.847729" lon="-75.099846">
        <ele>1248.6</ele>
        <time>2021-08-21T13:22:11Z</time>
      </trkpt>
      <trkpt lat="2.847708" lon="-75.099846">
        <ele>1248.6</ele>
        <time>2021-08-21T13:22:12Z</time>
      </trkpt>
      <trkpt lat="2.847688" lon="-75.09985">
        <ele>1248.7</ele>
        <time>2021-08-21T13:22:13Z</time>
      </trkpt>
      <trkpt lat="2.847667" lon="-75.09986">
        <ele>1248.7</ele>
        <time>2021-08-21T13:22:14Z</time>
      </trkpt>
      <trkpt lat="2.847646" lon="-75.09988">
        <ele>1248.8</ele>
        <time>2021-08-21T13:22:15Z</time>
      </trkpt>
      <trkpt lat="2.847623" lon="-75.099884">
        <ele>1248.8</ele>
        <time>2021-08-21T13:22:16Z</time>
      </trkpt>
      <trkpt lat="2.847602" lon="-75.0999">
        <ele>1248.9</ele>
        <time>2021-08-21T13:22:17Z</time>
      </trkpt>
      <trkpt lat="2.847582" lon="-75.099915">
        <ele>1248.9</ele>
        <time>2021-08-21T13:22:18Z</time>
      </trkpt>
      <trkpt lat="2.84756" lon="-75.09992">
        <ele>1249.0</ele>
        <time>2021-08-21T13:22:19Z</time>
      </trkpt>
      <trkpt lat="2.847537" lon="-75.09994">
        <ele>1249.0</ele>
        <time>2021-08-21T13:22:20Z</time>
      </trkpt>
      <trkpt lat="2.847514" lon="-75.09995">
        <ele>1249.1</ele>
        <time>2021-08-21T13:22:21Z</time>
      </trkpt>
      <trkpt lat="2.847492" lon="-75.099976">
        <ele>1249.1</ele>
        <time>2021-08-21T13:22:22Z</time>
      </trkpt>
      <trkpt lat="2.847471" lon="-75.09998">
        <ele>1249.2</ele>
        <time>2021-08-21T13:22:23Z</time>
      </trkpt>
      <trkpt lat="2.847449" lon="-75.100006">
        <ele>1249.2</ele>
        <time>2021-08-21T13:22:24Z</time>
      </trkpt>
      <trkpt lat="2.847426" lon="-75.10002">
        <ele>1249.3</ele>
        <time>2021-08-21T13:22:25Z</time>
      </trkpt>
      <trkpt lat="2.847406" lon="-75.10004">
        <ele>1249.4</ele>
        <time>2021-08-21T13:22:26Z</time>
      </trkpt>
      <trkpt lat="2.847385" lon="-75.100044">
        <ele>1249.4</ele>
        <time>2021-08-21T13:22:27Z</time>
      </trkpt>
      <trkpt lat="2.847364" lon="-75.10006">
        <ele>1249.5</ele>
        <time>2021-08-21T13:22:28Z</time>
      </trkpt>
      <trkpt lat="2.847342" lon="-75.100075">
        <ele>1249.5</ele>
        <time>2021-08-21T13:22:29Z</time>
      </trkpt>
      <trkpt lat="2.847293" lon="-75.1001">
        <ele>1249.7</ele>
        <time>2021-08-21T13:22:31Z</time>
      </trkpt>
      <trkpt lat="2.847305" lon="-75.10009">
        <ele>1249.7</ele>
        <time>2021-08-21T13:22:31Z</time>
      </trkpt>
      <trkpt lat="2.847271" lon="-75.10011">
        <ele>1249.8</ele>
        <time>2021-08-21T13:22:32Z</time>
      </trkpt>
      <trkpt lat="2.847248" lon="-75.10012">
        <ele>1249.8</ele>
        <time>2021-08-21T13:22:33Z</time>
      </trkpt>
      <trkpt lat="2.847224" lon="-75.10013">
        <ele>1249.9</ele>
        <time>2021-08-21T13:22:34Z</time>
      </trkpt>
      <trkpt lat="2.8472" lon="-75.100136">
        <ele>1250.0</ele>
        <time>2021-08-21T13:22:35Z</time>
      </trkpt>
      <trkpt lat="2.847175" lon="-75.10014">
        <ele>1250.1</ele>
        <time>2021-08-21T13:22:36Z</time>
      </trkpt>
      <trkpt lat="2.847149" lon="-75.10015">
        <ele>1250.2</ele>
        <time>2021-08-21T13:22:37Z</time>
      </trkpt>
      <trkpt lat="2.847123" lon="-75.10016">
        <ele>1250.3</ele>
        <time>2021-08-21T13:22:38Z</time>
      </trkpt>
      <trkpt lat="2.847095" lon="-75.10017">
        <ele>1250.5</ele>
        <time>2021-08-21T13:22:39Z</time>
      </trkpt>
      <trkpt lat="2.847068" lon="-75.10018">
        <ele>1250.6</ele>
        <time>2021-08-21T13:22:40Z</time>
      </trkpt>
      <trkpt lat="2.847041" lon="-75.10019">
        <ele>1250.7</ele>
        <time>2021-08-21T13:22:41Z</time>
      </trkpt>
      <trkpt lat="2.847015" lon="-75.1002">
        <ele>1250.9</ele>
        <time>2021-08-21T13:22:42Z</time>
      </trkpt>
      <trkpt lat="2.846989" lon="-75.100204">
        <ele>1251.0</ele>
        <time>2021-08-21T13:22:43Z</time>
      </trkpt>
      <trkpt lat="2.846962" lon="-75.100204">
        <ele>1251.1</ele>
        <time>2021-08-21T13:22:44Z</time>
      </trkpt>
      <trkpt lat="2.846936" lon="-75.10021">
        <ele>1251.3</ele>
        <time>2021-08-21T13:22:45Z</time>
      </trkpt>
      <trkpt lat="2.846909" lon="-75.10021">
        <ele>1251.4</ele>
        <time>2021-08-21T13:22:46Z</time>
      </trkpt>
      <trkpt lat="2.846883" lon="-75.100204">
        <ele>1251.6</ele>
        <time>2021-08-21T13:22:47Z</time>
      </trkpt>
      <trkpt lat="2.846857" lon="-75.100204">
        <ele>1251.7</ele>
        <time>2021-08-21T13:22:48Z</time>
      </trkpt>
      <trkpt lat="2.846831" lon="-75.10019">
        <ele>1251.9</ele>
        <time>2021-08-21T13:22:49Z</time>
      </trkpt>
      <trkpt lat="2.846805" lon="-75.10018">
        <ele>1252.0</ele>
        <time>2021-08-21T13:22:50Z</time>
      </trkpt>
      <trkpt lat="2.846781" lon="-75.10016">
        <ele>1252.2</ele>
        <time>2021-08-21T13:22:51Z</time>
      </trkpt>
      <trkpt lat="2.846759" lon="-75.10014">
        <ele>1252.4</ele>
        <time>2021-08-21T13:22:52Z</time>
      </trkpt>
      <trkpt lat="2.846739" lon="-75.10012">
        <ele>1252.5</ele>
        <time>2021-08-21T13:22:53Z</time>
      </trkpt>
      <trkpt lat="2.846721" lon="-75.1001">
        <ele>1252.7</ele>
        <time>2021-08-21T13:22:54Z</time>
      </trkpt>
      <trkpt lat="2.846704" lon="-75.100075">
        <ele>1252.9</ele>
        <time>2021-08-21T13:22:55Z</time>
      </trkpt>
      <trkpt lat="2.84669" lon="-75.100044">
        <ele>1253.1</ele>
        <time>2021-08-21T13:22:56Z</time>
      </trkpt>
      <trkpt lat="2.846677" lon="-75.10002">
        <ele>1253.3</ele>
        <time>2021-08-21T13:22:57Z</time>
      </trkpt>
      <trkpt lat="2.846666" lon="-75.09999">
        <ele>1253.5</ele>
        <time>2021-08-21T13:22:58Z</time>
      </trkpt>
      <trkpt lat="2.846657" lon="-75.09996">
        <ele>1253.7</ele>
        <time>2021-08-21T13:22:59Z</time>
      </trkpt>
      <trkpt lat="2.846648" lon="-75.09993">
        <ele>1253.9</ele>
        <time>2021-08-21T13:23:00Z</time>
      </trkpt>
      <trkpt lat="2.846638" lon="-75.0999">
        <ele>1254.1</ele>
        <time>2021-08-21T13:23:01Z</time>
      </trkpt>
      <trkpt lat="2.846628" lon="-75.09988">
        <ele>1254.3</ele>
        <time>2021-08-21T13:23:02Z</time>
      </trkpt>
      <trkpt lat="2.846617" lon="-75.099846">
        <ele>1254.5</ele>
        <time>2021-08-21T13:23:03Z</time>
      </trkpt>
      <trkpt lat="2.846607" lon="-75.099815">
        <ele>1254.7</ele>
        <time>2021-08-21T13:23:04Z</time>
      </trkpt>
      <trkpt lat="2.846595" lon="-75.099785">
        <ele>1254.9</ele>
        <time>2021-08-21T13:23:05Z</time>
      </trkpt>
      <trkpt lat="2.846582" lon="-75.099754">
        <ele>1255.1</ele>
        <time>2021-08-21T13:23:06Z</time>
      </trkpt>
      <trkpt lat="2.846568" lon="-75.099724">
        <ele>1255.3</ele>
        <time>2021-08-21T13:23:07Z</time>
      </trkpt>
      <trkpt lat="2.846556" lon="-75.0997">
        <ele>1255.5</ele>
        <time>2021-08-21T13:23:08Z</time>
      </trkpt>
      <trkpt lat="2.846544" lon="-75.09967">
        <ele>1255.6</ele>
        <time>2021-08-21T13:23:09Z</time>
      </trkpt>
      <trkpt lat="2.846531" lon="-75.09965">
        <ele>1255.8</ele>
        <time>2021-08-21T13:23:10Z</time>
      </trkpt>
      <trkpt lat="2.846516" lon="-75.09962">
        <ele>1256.0</ele>
        <time>2021-08-21T13:23:11Z</time>
      </trkpt>
      <trkpt lat="2.846501" lon="-75.09959">
        <ele>1256.2</ele>
        <time>2021-08-21T13:23:12Z</time>
      </trkpt>
      <trkpt lat="2.846486" lon="-75.09956">
        <ele>1256.3</ele>
        <time>2021-08-21T13:23:13Z</time>
      </trkpt>
      <trkpt lat="2.846471" lon="-75.09953">
        <ele>1256.5</ele>
        <time>2021-08-21T13:23:14Z</time>
      </trkpt>
      <trkpt lat="2.846454" lon="-75.09951">
        <ele>1256.7</ele>
        <time>2021-08-21T13:23:15Z</time>
      </trkpt>
      <trkpt lat="2.846437" lon="-75.09948">
        <ele>1256.9</ele>
        <time>2021-08-21T13:23:16Z</time>
      </trkpt>
      <trkpt lat="2.84642" lon="-75.09946">
        <ele>1257.1</ele>
        <time>2021-08-21T13:23:17Z</time>
      </trkpt>
      <trkpt lat="2.846404" lon="-75.099434">
        <ele>1257.2</ele>
        <time>2021-08-21T13:23:18Z</time>
      </trkpt>
      <trkpt lat="2.846385" lon="-75.09942">
        <ele>1257.4</ele>
        <time>2021-08-21T13:23:19Z</time>
      </trkpt>
      <trkpt lat="2.846368" lon="-75.099396">
        <ele>1257.6</ele>
        <time>2021-08-21T13:23:20Z</time>
      </trkpt>
      <trkpt lat="2.846349" lon="-75.09938">
        <ele>1257.8</ele>
        <time>2021-08-21T13:23:21Z</time>
      </trkpt>
      <trkpt lat="2.846329" lon="-75.09936">
        <ele>1257.9</ele>
        <time>2021-08-21T13:23:22Z</time>
      </trkpt>
      <trkpt lat="2.846309" lon="-75.09934">
        <ele>1258.1</ele>
        <time>2021-08-21T13:23:23Z</time>
      </trkpt>
      <trkpt lat="2.84629" lon="-75.09933">
        <ele>1258.3</ele>
        <time>2021-08-21T13:23:24Z</time>
      </trkpt>
      <trkpt lat="2.846269" lon="-75.099304">
        <ele>1258.5</ele>
        <time>2021-08-21T13:23:25Z</time>
      </trkpt>
      <trkpt lat="2.846249" lon="-75.09929">
        <ele>1258.7</ele>
        <time>2021-08-21T13:23:26Z</time>
      </trkpt>
      <trkpt lat="2.846229" lon="-75.09927">
        <ele>1258.9</ele>
        <time>2021-08-21T13:23:27Z</time>
      </trkpt>
      <trkpt lat="2.846209" lon="-75.09925">
        <ele>1259.0</ele>
        <time>2021-08-21T13:23:28Z</time>
      </trkpt>
      <trkpt lat="2.84619" lon="-75.099236">
        <ele>1259.2</ele>
        <time>2021-08-21T13:23:29Z</time>
      </trkpt>
      <trkpt lat="2.84617" lon="-75.09922">
        <ele>1259.4</ele>
        <time>2021-08-21T13:23:30Z</time>
      </trkpt>
      <trkpt lat="2.846153" lon="-75.0992">
        <ele>1259.6</ele>
        <time>2021-08-21T13:23:31Z</time>
      </trkpt>
      <trkpt lat="2.846136" lon="-75.099174">
        <ele>1259.8</ele>
        <time>2021-08-21T13:23:32Z</time>
      </trkpt>
      <trkpt lat="2.846121" lon="-75.09915">
        <ele>1259.9</ele>
        <time>2021-08-21T13:23:33Z</time>
      </trkpt>
      <trkpt lat="2.846107" lon="-75.09913">
        <ele>1260.1</ele>
        <time>2021-08-21T13:23:34Z</time>
      </trkpt>
      <trkpt lat="2.846096" lon="-75.099106">
        <ele>1260.3</ele>
        <time>2021-08-21T13:23:35Z</time>
      </trkpt>
      <trkpt lat="2.846085" lon="-75.099075">
        <ele>1260.5</ele>
        <time>2021-08-21T13:23:36Z</time>
      </trkpt>
      <trkpt lat="2.846076" lon="-75.09905">
        <ele>1260.6</ele>
        <time>2021-08-21T13:23:37Z</time>
      </trkpt>
      <trkpt lat="2.846068" lon="-75.09902">
        <ele>1260.8</ele>
        <time>2021-08-21T13:23:38Z</time>
      </trkpt>
      <trkpt lat="2.846061" lon="-75.099">
        <ele>1261.0</ele>
        <time>2021-08-21T13:23:39Z</time>
      </trkpt>
      <trkpt lat="2.846056" lon="-75.09897">
        <ele>1261.2</ele>
        <time>2021-08-21T13:23:40Z</time>
      </trkpt>
      <trkpt lat="2.846052" lon="-75.09894">
        <ele>1261.3</ele>
        <time>2021-08-21T13:23:41Z</time>
      </trkpt>
      <trkpt lat="2.846047" lon="-75.098915">
        <ele>1261.5</ele>
        <time>2021-08-21T13:23:42Z</time>
      </trkpt>
      <trkpt lat="2.846042" lon="-75.098885">
        <ele>1261.7</ele>
        <time>2021-08-21T13:23:43Z</time>
      </trkpt>
      <trkpt lat="2.846036" lon="-75.098854">
        <ele>1261.9</ele>
        <time>2021-08-21T13:23:44Z</time>
      </trkpt>
      <trkpt lat="2.846032" lon="-75.09882">
        <ele>1262.0</ele>
        <time>2021-08-21T13:23:45Z</time>
      </trkpt>
      <trkpt lat="2.846028" lon="-75.09879">
        <ele>1262.2</ele>
        <time>2021-08-21T13:23:46Z</time>
      </trkpt>
      <trkpt lat="2.846024" lon="-75.09876">
        <ele>1262.4</ele>
        <time>2021-08-21T13:23:47Z</time>
      </trkpt>
      <trkpt lat="2.846019" lon="-75.09873">
        <ele>1262.6</ele>
        <time>2021-08-21T13:23:48Z</time>
      </trkpt>
      <trkpt lat="2.846015" lon="-75.0987">
        <ele>1262.8</ele>
        <time>2021-08-21T13:23:49Z</time>
      </trkpt>
      <trkpt lat="2.846011" lon="-75.09867">
        <ele>1262.9</ele>
        <time>2021-08-21T13:23:50Z</time>
      </trkpt>
      <trkpt lat="2.846007" lon="-75.09864">
        <ele>1263.1</ele>
        <time>2021-08-21T13:23:51Z</time>
      </trkpt>
      <trkpt lat="2.846004" lon="-75.09861">
        <ele>1263.3</ele>
        <time>2021-08-21T13:23:52Z</time>
      </trkpt>
      <trkpt lat="2.845999" lon="-75.09859">
        <ele>1263.5</ele>
        <time>2021-08-21T13:23:53Z</time>
      </trkpt>
      <trkpt lat="2.845993" lon="-75.09856">
        <ele>1263.7</ele>
        <time>2021-08-21T13:23:54Z</time>
      </trkpt>
      <trkpt lat="2.845986" lon="-75.09853">
        <ele>1263.8</ele>
        <time>2021-08-21T13:23:55Z</time>
      </trkpt>
      <trkpt lat="2.845974" lon="-75.09851">
        <ele>1264.0</ele>
        <time>2021-08-21T13:23:56Z</time>
      </trkpt>
      <trkpt lat="2.845961" lon="-75.09849">
        <ele>1264.1</ele>
        <time>2021-08-21T13:23:57Z</time>
      </trkpt>
      <trkpt lat="2.845947" lon="-75.09847">
        <ele>1264.3</ele>
        <time>2021-08-21T13:23:58Z</time>
      </trkpt>
      <trkpt lat="2.845932" lon="-75.09846">
        <ele>1264.4</ele>
        <time>2021-08-21T13:23:59Z</time>
      </trkpt>
      <trkpt lat="2.845915" lon="-75.09846">
        <ele>1264.5</ele>
        <time>2021-08-21T13:24:00Z</time>
      </trkpt>
      <trkpt lat="2.845898" lon="-75.09845">
        <ele>1264.7</ele>
        <time>2021-08-21T13:24:01Z</time>
      </trkpt>
      <trkpt lat="2.845881" lon="-75.09845">
        <ele>1264.8</ele>
        <time>2021-08-21T13:24:02Z</time>
      </trkpt>
      <trkpt lat="2.845861" lon="-75.09845">
        <ele>1264.9</ele>
        <time>2021-08-21T13:24:03Z</time>
      </trkpt>
      <trkpt lat="2.845842" lon="-75.09846">
        <ele>1265.1</ele>
        <time>2021-08-21T13:24:04Z</time>
      </trkpt>
      <trkpt lat="2.845824" lon="-75.09846">
        <ele>1265.2</ele>
        <time>2021-08-21T13:24:05Z</time>
      </trkpt>
      <trkpt lat="2.845807" lon="-75.098465">
        <ele>1265.4</ele>
        <time>2021-08-21T13:24:06Z</time>
      </trkpt>
      <trkpt lat="2.845792" lon="-75.09848">
        <ele>1265.5</ele>
        <time>2021-08-21T13:24:07Z</time>
      </trkpt>
      <trkpt lat="2.845764" lon="-75.0985">
        <ele>1265.8</ele>
        <time>2021-08-21T13:24:08Z</time>
      </trkpt>
      <trkpt lat="2.845778" lon="-75.09849">
        <ele>1265.6</ele>
        <time>2021-08-21T13:24:08Z</time>
      </trkpt>
      <trkpt lat="2.845749" lon="-75.09852">
        <ele>1266.0</ele>
        <time>2021-08-21T13:24:09Z</time>
      </trkpt>
      <trkpt lat="2.845735" lon="-75.09854">
        <ele>1266.1</ele>
        <time>2021-08-21T13:24:10Z</time>
      </trkpt>
      <trkpt lat="2.84572" lon="-75.09856">
        <ele>1266.3</ele>
        <time>2021-08-21T13:24:11Z</time>
      </trkpt>
      <trkpt lat="2.845703" lon="-75.09858">
        <ele>1266.5</ele>
        <time>2021-08-21T13:24:12Z</time>
      </trkpt>
      <trkpt lat="2.845686" lon="-75.0986">
        <ele>1266.7</ele>
        <time>2021-08-21T13:24:13Z</time>
      </trkpt>
      <trkpt lat="2.84567" lon="-75.098625">
        <ele>1266.9</ele>
        <time>2021-08-21T13:24:14Z</time>
      </trkpt>
      <trkpt lat="2.845655" lon="-75.09865">
        <ele>1267.1</ele>
        <time>2021-08-21T13:24:15Z</time>
      </trkpt>
      <trkpt lat="2.845639" lon="-75.09868">
        <ele>1267.3</ele>
        <time>2021-08-21T13:24:16Z</time>
      </trkpt>
      <trkpt lat="2.845625" lon="-75.0987">
        <ele>1267.4</ele>
        <time>2021-08-21T13:24:17Z</time>
      </trkpt>
      <trkpt lat="2.84561" lon="-75.09873">
        <ele>1267.6</ele>
        <time>2021-08-21T13:24:18Z</time>
      </trkpt>
      <trkpt lat="2.845596" lon="-75.09876">
        <ele>1267.8</ele>
        <time>2021-08-21T13:24:19Z</time>
      </trkpt>
      <trkpt lat="2.845584" lon="-75.0988">
        <ele>1268.1</ele>
        <time>2021-08-21T13:24:20Z</time>
      </trkpt>
      <trkpt lat="2.845572" lon="-75.09883">
        <ele>1268.2</ele>
        <time>2021-08-21T13:24:21Z</time>
      </trkpt>
      <trkpt lat="2.845559" lon="-75.09886">
        <ele>1268.3</ele>
        <time>2021-08-21T13:24:22Z</time>
      </trkpt>
      <trkpt lat="2.845547" lon="-75.09889">
        <ele>1268.4</ele>
        <time>2021-08-21T13:24:23Z</time>
      </trkpt>
      <trkpt lat="2.845534" lon="-75.09892">
        <ele>1268.4</ele>
        <time>2021-08-21T13:24:24Z</time>
      </trkpt>
      <trkpt lat="2.845519" lon="-75.098946">
        <ele>1268.5</ele>
        <time>2021-08-21T13:24:25Z</time>
      </trkpt>
      <trkpt lat="2.845503" lon="-75.098976">
        <ele>1268.5</ele>
        <time>2021-08-21T13:24:26Z</time>
      </trkpt>
      <trkpt lat="2.845488" lon="-75.099">
        <ele>1268.6</ele>
        <time>2021-08-21T13:24:27Z</time>
      </trkpt>
      <trkpt lat="2.845471" lon="-75.09902">
        <ele>1268.6</ele>
        <time>2021-08-21T13:24:28Z</time>
      </trkpt>
      <trkpt lat="2.845452" lon="-75.099045">
        <ele>1268.6</ele>
        <time>2021-08-21T13:24:29Z</time>
      </trkpt>
      <trkpt lat="2.845434" lon="-75.09907">
        <ele>1268.7</ele>
        <time>2021-08-21T13:24:30Z</time>
      </trkpt>
      <trkpt lat="2.845415" lon="-75.09908">
        <ele>1268.7</ele>
        <time>2021-08-21T13:24:31Z</time>
      </trkpt>
      <trkpt lat="2.845396" lon="-75.0991">
        <ele>1268.7</ele>
        <time>2021-08-21T13:24:32Z</time>
      </trkpt>
      <trkpt lat="2.845374" lon="-75.09911">
        <ele>1268.8</ele>
        <time>2021-08-21T13:24:33Z</time>
      </trkpt>
      <trkpt lat="2.84535" lon="-75.09913">
        <ele>1268.8</ele>
        <time>2021-08-21T13:24:34Z</time>
      </trkpt>
      <trkpt lat="2.845324" lon="-75.09914">
        <ele>1268.9</ele>
        <time>2021-08-21T13:24:35Z</time>
      </trkpt>
      <trkpt lat="2.845296" lon="-75.099144">
        <ele>1268.9</ele>
        <time>2021-08-21T13:24:36Z</time>
      </trkpt>
      <trkpt lat="2.845269" lon="-75.09915">
        <ele>1269.0</ele>
        <time>2021-08-21T13:24:37Z</time>
      </trkpt>
      <trkpt lat="2.84524" lon="-75.09916">
        <ele>1269.0</ele>
        <time>2021-08-21T13:24:38Z</time>
      </trkpt>
      <trkpt lat="2.845211" lon="-75.09916">
        <ele>1269.1</ele>
        <time>2021-08-21T13:24:39Z</time>
      </trkpt>
      <trkpt lat="2.845182" lon="-75.09917">
        <ele>1269.1</ele>
        <time>2021-08-21T13:24:40Z</time>
      </trkpt>
      <trkpt lat="2.845152" lon="-75.09917">
        <ele>1269.2</ele>
        <time>2021-08-21T13:24:41Z</time>
      </trkpt>
      <trkpt lat="2.845121" lon="-75.09917">
        <ele>1269.3</ele>
        <time>2021-08-21T13:24:42Z</time>
      </trkpt>
      <trkpt lat="2.845091" lon="-75.09916">
        <ele>1269.3</ele>
        <time>2021-08-21T13:24:43Z</time>
      </trkpt>
      <trkpt lat="2.845061" lon="-75.09916">
        <ele>1269.4</ele>
        <time>2021-08-21T13:24:44Z</time>
      </trkpt>
      <trkpt lat="2.84503" lon="-75.09916">
        <ele>1269.4</ele>
        <time>2021-08-21T13:24:45Z</time>
      </trkpt>
      <trkpt lat="2.845" lon="-75.09916">
        <ele>1269.5</ele>
        <time>2021-08-21T13:24:46Z</time>
      </trkpt>
      <trkpt lat="2.844971" lon="-75.09915">
        <ele>1269.6</ele>
        <time>2021-08-21T13:24:47Z</time>
      </trkpt>
      <trkpt lat="2.844941" lon="-75.099144">
        <ele>1269.6</ele>
        <time>2021-08-21T13:24:48Z</time>
      </trkpt>
      <trkpt lat="2.844911" lon="-75.09914">
        <ele>1269.7</ele>
        <time>2021-08-21T13:24:49Z</time>
      </trkpt>
      <trkpt lat="2.84488" lon="-75.09913">
        <ele>1269.7</ele>
        <time>2021-08-21T13:24:50Z</time>
      </trkpt>
      <trkpt lat="2.84485" lon="-75.09912">
        <ele>1269.8</ele>
        <time>2021-08-21T13:24:51Z</time>
      </trkpt>
      <trkpt lat="2.844819" lon="-75.09911">
        <ele>1269.9</ele>
        <time>2021-08-21T13:24:52Z</time>
      </trkpt>
      <trkpt lat="2.844787" lon="-75.099106">
        <ele>1269.9</ele>
        <time>2021-08-21T13:24:53Z</time>
      </trkpt>
      <trkpt lat="2.844756" lon="-75.09909">
        <ele>1270.0</ele>
        <time>2021-08-21T13:24:54Z</time>
      </trkpt>
      <trkpt lat="2.844727" lon="-75.09908">
        <ele>1270.0</ele>
        <time>2021-08-21T13:24:55Z</time>
      </trkpt>
      <trkpt lat="2.844697" lon="-75.099075">
        <ele>1270.1</ele>
        <time>2021-08-21T13:24:56Z</time>
      </trkpt>
      <trkpt lat="2.844668" lon="-75.09906">
        <ele>1270.1</ele>
        <time>2021-08-21T13:24:57Z</time>
      </trkpt>
      <trkpt lat="2.844639" lon="-75.099045">
        <ele>1270.2</ele>
        <time>2021-08-21T13:24:58Z</time>
      </trkpt>
      <trkpt lat="2.844613" lon="-75.09902">
        <ele>1270.2</ele>
        <time>2021-08-21T13:24:59Z</time>
      </trkpt>
      <trkpt lat="2.84459" lon="-75.099">
        <ele>1270.2</ele>
        <time>2021-08-21T13:25:00Z</time>
      </trkpt>
      <trkpt lat="2.84457" lon="-75.098976">
        <ele>1270.2</ele>
        <time>2021-08-21T13:25:01Z</time>
      </trkpt>
      <trkpt lat="2.844556" lon="-75.098946">
        <ele>1270.3</ele>
        <time>2021-08-21T13:25:02Z</time>
      </trkpt>
      <trkpt lat="2.844544" lon="-75.09891">
        <ele>1270.3</ele>
        <time>2021-08-21T13:25:03Z</time>
      </trkpt>
      <trkpt lat="2.844535" lon="-75.09888">
        <ele>1270.3</ele>
        <time>2021-08-21T13:25:04Z</time>
      </trkpt>
      <trkpt lat="2.844526" lon="-75.09884">
        <ele>1270.3</ele>
        <time>2021-08-21T13:25:05Z</time>
      </trkpt>
      <trkpt lat="2.844516" lon="-75.09881">
        <ele>1270.3</ele>
        <time>2021-08-21T13:25:06Z</time>
      </trkpt>
      <trkpt lat="2.844507" lon="-75.09878">
        <ele>1270.3</ele>
        <time>2021-08-21T13:25:07Z</time>
      </trkpt>
      <trkpt lat="2.844495" lon="-75.09874">
        <ele>1270.3</ele>
        <time>2021-08-21T13:25:08Z</time>
      </trkpt>
      <trkpt lat="2.844482" lon="-75.09871">
        <ele>1270.3</ele>
        <time>2021-08-21T13:25:09Z</time>
      </trkpt>
      <trkpt lat="2.844467" lon="-75.09868">
        <ele>1270.3</ele>
        <time>2021-08-21T13:25:10Z</time>
      </trkpt>
      <trkpt lat="2.844448" lon="-75.098656">
        <ele>1270.3</ele>
        <time>2021-08-21T13:25:11Z</time>
      </trkpt>
      <trkpt lat="2.844426" lon="-75.09863">
        <ele>1270.3</ele>
        <time>2021-08-21T13:25:12Z</time>
      </trkpt>
      <trkpt lat="2.844401" lon="-75.09862">
        <ele>1270.3</ele>
        <time>2021-08-21T13:25:13Z</time>
      </trkpt>
      <trkpt lat="2.844374" lon="-75.0986">
        <ele>1270.3</ele>
        <time>2021-08-21T13:25:14Z</time>
      </trkpt>
      <trkpt lat="2.844347" lon="-75.098595">
        <ele>1270.4</ele>
        <time>2021-08-21T13:25:15Z</time>
      </trkpt>
      <trkpt lat="2.844319" lon="-75.098595">
        <ele>1270.4</ele>
        <time>2021-08-21T13:25:16Z</time>
      </trkpt>
      <trkpt lat="2.844292" lon="-75.098595">
        <ele>1270.4</ele>
        <time>2021-08-21T13:25:17Z</time>
      </trkpt>
      <trkpt lat="2.844264" lon="-75.0986">
        <ele>1270.5</ele>
        <time>2021-08-21T13:25:18Z</time>
      </trkpt>
      <trkpt lat="2.844238" lon="-75.09861">
        <ele>1270.5</ele>
        <time>2021-08-21T13:25:19Z</time>
      </trkpt>
      <trkpt lat="2.844213" lon="-75.09862">
        <ele>1270.5</ele>
        <time>2021-08-21T13:25:20Z</time>
      </trkpt>
      <trkpt lat="2.844189" lon="-75.09863">
        <ele>1270.5</ele>
        <time>2021-08-21T13:25:21Z</time>
      </trkpt>
      <trkpt lat="2.844168" lon="-75.09865">
        <ele>1270.6</ele>
        <time>2021-08-21T13:25:22Z</time>
      </trkpt>
      <trkpt lat="2.844147" lon="-75.09867">
        <ele>1270.6</ele>
        <time>2021-08-21T13:25:23Z</time>
      </trkpt>
      <trkpt lat="2.844129" lon="-75.09869">
        <ele>1270.6</ele>
        <time>2021-08-21T13:25:24Z</time>
      </trkpt>
      <trkpt lat="2.844112" lon="-75.09871">
        <ele>1270.7</ele>
        <time>2021-08-21T13:25:25Z</time>
      </trkpt>
      <trkpt lat="2.844097" lon="-75.09873">
        <ele>1270.7</ele>
        <time>2021-08-21T13:25:26Z</time>
      </trkpt>
      <trkpt lat="2.844083" lon="-75.098755">
        <ele>1270.7</ele>
        <time>2021-08-21T13:25:27Z</time>
      </trkpt>
      <trkpt lat="2.84407" lon="-75.09878">
        <ele>1270.8</ele>
        <time>2021-08-21T13:25:28Z</time>
      </trkpt>
      <trkpt lat="2.844056" lon="-75.09881">
        <ele>1270.8</ele>
        <time>2021-08-21T13:25:29Z</time>
      </trkpt>
      <trkpt lat="2.844044" lon="-75.09883">
        <ele>1270.8</ele>
        <time>2021-08-21T13:25:30Z</time>
      </trkpt>
      <trkpt lat="2.844031" lon="-75.09886">
        <ele>1270.9</ele>
        <time>2021-08-21T13:25:31Z</time>
      </trkpt>
      <trkpt lat="2.844019" lon="-75.09889">
        <ele>1270.9</ele>
        <time>2021-08-21T13:25:32Z</time>
      </trkpt>
      <trkpt lat="2.844006" lon="-75.09892">
        <ele>1270.9</ele>
        <time>2021-08-21T13:25:33Z</time>
      </trkpt>
      <trkpt lat="2.843991" lon="-75.09895">
        <ele>1270.9</ele>
        <time>2021-08-21T13:25:34Z</time>
      </trkpt>
      <trkpt lat="2.843975" lon="-75.09898">
        <ele>1270.9</ele>
        <time>2021-08-21T13:25:35Z</time>
      </trkpt>
      <trkpt lat="2.843957" lon="-75.09901">
        <ele>1270.9</ele>
        <time>2021-08-21T13:25:36Z</time>
      </trkpt>
      <trkpt lat="2.843937" lon="-75.09904">
        <ele>1270.9</ele>
        <time>2021-08-21T13:25:37Z</time>
      </trkpt>
      <trkpt lat="2.843914" lon="-75.09907">
        <ele>1271.0</ele>
        <time>2021-08-21T13:25:38Z</time>
      </trkpt>
      <trkpt lat="2.843889" lon="-75.09909">
        <ele>1271.0</ele>
        <time>2021-08-21T13:25:39Z</time>
      </trkpt>
      <trkpt lat="2.843861" lon="-75.09911">
        <ele>1271.0</ele>
        <time>2021-08-21T13:25:40Z</time>
      </trkpt>
      <trkpt lat="2.84383" lon="-75.09913">
        <ele>1271.0</ele>
        <time>2021-08-21T13:25:41Z</time>
      </trkpt>
      <trkpt lat="2.843796" lon="-75.09915">
        <ele>1271.0</ele>
        <time>2021-08-21T13:25:42Z</time>
      </trkpt>
      <trkpt lat="2.84376" lon="-75.09916">
        <ele>1271.0</ele>
        <time>2021-08-21T13:25:43Z</time>
      </trkpt>
      <trkpt lat="2.843724" lon="-75.09917">
        <ele>1271.0</ele>
        <time>2021-08-21T13:25:44Z</time>
      </trkpt>
      <trkpt lat="2.843686" lon="-75.09917">
        <ele>1271.1</ele>
        <time>2021-08-21T13:25:45Z</time>
      </trkpt>
      <trkpt lat="2.843649" lon="-75.09917">
        <ele>1271.1</ele>
        <time>2021-08-21T13:25:46Z</time>
      </trkpt>
      <trkpt lat="2.843609" lon="-75.09917">
        <ele>1271.1</ele>
        <time>2021-08-21T13:25:47Z</time>
      </trkpt>
      <trkpt lat="2.84357" lon="-75.09916">
        <ele>1271.1</ele>
        <time>2021-08-21T13:25:48Z</time>
      </trkpt>
      <trkpt lat="2.843531" lon="-75.09915">
        <ele>1271.1</ele>
        <time>2021-08-21T13:25:49Z</time>
      </trkpt>
      <trkpt lat="2.843493" lon="-75.099144">
        <ele>1271.1</ele>
        <time>2021-08-21T13:25:50Z</time>
      </trkpt>
      <trkpt lat="2.843457" lon="-75.09914">
        <ele>1271.1</ele>
        <time>2021-08-21T13:25:51Z</time>
      </trkpt>
      <trkpt lat="2.843419" lon="-75.09913">
        <ele>1271.1</ele>
        <time>2021-08-21T13:25:52Z</time>
      </trkpt>
      <trkpt lat="2.843382" lon="-75.09913">
        <ele>1271.1</ele>
        <time>2021-08-21T13:25:53Z</time>
      </trkpt>
      <trkpt lat="2.843345" lon="-75.09913">
        <ele>1271.2</ele>
        <time>2021-08-21T13:25:54Z</time>
      </trkpt>
      <trkpt lat="2.84331" lon="-75.09914">
        <ele>1271.2</ele>
        <time>2021-08-21T13:25:55Z</time>
      </trkpt>
      <trkpt lat="2.843275" lon="-75.09914">
        <ele>1271.2</ele>
        <time>2021-08-21T13:25:56Z</time>
      </trkpt>
      <trkpt lat="2.84324" lon="-75.09914">
        <ele>1271.3</ele>
        <time>2021-08-21T13:25:57Z</time>
      </trkpt>
      <trkpt lat="2.843209" lon="-75.099144">
        <ele>1271.4</ele>
        <time>2021-08-21T13:25:58Z</time>
      </trkpt>
      <trkpt lat="2.843179" lon="-75.09915">
        <ele>1271.4</ele>
        <time>2021-08-21T13:25:59Z</time>
      </trkpt>
      <trkpt lat="2.843151" lon="-75.09916">
        <ele>1271.5</ele>
        <time>2021-08-21T13:26:00Z</time>
      </trkpt>
      <trkpt lat="2.843123" lon="-75.09917">
        <ele>1271.5</ele>
        <time>2021-08-21T13:26:01Z</time>
      </trkpt>
      <trkpt lat="2.843093" lon="-75.099174">
        <ele>1271.6</ele>
        <time>2021-08-21T13:26:02Z</time>
      </trkpt>
      <trkpt lat="2.843035" lon="-75.0992">
        <ele>1271.7</ele>
        <time>2021-08-21T13:26:04Z</time>
      </trkpt>
      <trkpt lat="2.84305" lon="-75.0992">
        <ele>1271.7</ele>
        <time>2021-08-21T13:26:04Z</time>
      </trkpt>
      <trkpt lat="2.843004" lon="-75.09921">
        <ele>1271.7</ele>
        <time>2021-08-21T13:26:05Z</time>
      </trkpt>
      <trkpt lat="2.842975" lon="-75.09923">
        <ele>1271.8</ele>
        <time>2021-08-21T13:26:06Z</time>
      </trkpt>
      <trkpt lat="2.842946" lon="-75.09924">
        <ele>1271.8</ele>
        <time>2021-08-21T13:26:07Z</time>
      </trkpt>
      <trkpt lat="2.842917" lon="-75.09926">
        <ele>1271.8</ele>
        <time>2021-08-21T13:26:08Z</time>
      </trkpt>
      <trkpt lat="2.842888" lon="-75.09928">
        <ele>1271.8</ele>
        <time>2021-08-21T13:26:09Z</time>
      </trkpt>
      <trkpt lat="2.84286" lon="-75.099304">
        <ele>1271.8</ele>
        <time>2021-08-21T13:26:10Z</time>
      </trkpt>
      <trkpt lat="2.842834" lon="-75.09933">
        <ele>1271.9</ele>
        <time>2021-08-21T13:26:11Z</time>
      </trkpt>
      <trkpt lat="2.842811" lon="-75.09935">
        <ele>1271.9</ele>
        <time>2021-08-21T13:26:12Z</time>
      </trkpt>
      <trkpt lat="2.842788" lon="-75.09937">
        <ele>1271.9</ele>
        <time>2021-08-21T13:26:13Z</time>
      </trkpt>
      <trkpt lat="2.842768" lon="-75.0994">
        <ele>1272.0</ele>
        <time>2021-08-21T13:26:14Z</time>
      </trkpt>
      <trkpt lat="2.842749" lon="-75.09943">
        <ele>1272.0</ele>
        <time>2021-08-21T13:26:15Z</time>
      </trkpt>
      <trkpt lat="2.84273" lon="-75.09945">
        <ele>1272.1</ele>
        <time>2021-08-21T13:26:16Z</time>
      </trkpt>
      <trkpt lat="2.842711" lon="-75.09947">
        <ele>1272.1</ele>
        <time>2021-08-21T13:26:17Z</time>
      </trkpt>
      <trkpt lat="2.842691" lon="-75.099495">
        <ele>1272.2</ele>
        <time>2021-08-21T13:26:18Z</time>
      </trkpt>
      <trkpt lat="2.842669" lon="-75.09952">
        <ele>1272.2</ele>
        <time>2021-08-21T13:26:19Z</time>
      </trkpt>
      <trkpt lat="2.842647" lon="-75.09954">
        <ele>1272.3</ele>
        <time>2021-08-21T13:26:20Z</time>
      </trkpt>
      <trkpt lat="2.842623" lon="-75.099556">
        <ele>1272.3</ele>
        <time>2021-08-21T13:26:21Z</time>
      </trkpt>
      <trkpt lat="2.842597" lon="-75.09957">
        <ele>1272.4</ele>
        <time>2021-08-21T13:26:22Z</time>
      </trkpt>
      <trkpt lat="2.84257" lon="-75.099594">
        <ele>1272.4</ele>
        <time>2021-08-21T13:26:23Z</time>
      </trkpt>
      <trkpt lat="2.842541" lon="-75.0996">
        <ele>1272.5</ele>
        <time>2021-08-21T13:26:24Z</time>
      </trkpt>
      <trkpt lat="2.842511" lon="-75.09962">
        <ele>1272.6</ele>
        <time>2021-08-21T13:26:25Z</time>
      </trkpt>
      <trkpt lat="2.842479" lon="-75.099625">
        <ele>1272.6</ele>
        <time>2021-08-21T13:26:26Z</time>
      </trkpt>
      <trkpt lat="2.842447" lon="-75.09963">
        <ele>1272.7</ele>
        <time>2021-08-21T13:26:27Z</time>
      </trkpt>
      <trkpt lat="2.842412" lon="-75.09964">
        <ele>1272.7</ele>
        <time>2021-08-21T13:26:28Z</time>
      </trkpt>
      <trkpt lat="2.842377" lon="-75.09965">
        <ele>1272.8</ele>
        <time>2021-08-21T13:26:29Z</time>
      </trkpt>
      <trkpt lat="2.842342" lon="-75.09966">
        <ele>1272.9</ele>
        <time>2021-08-21T13:26:30Z</time>
      </trkpt>
      <trkpt lat="2.842307" lon="-75.09967">
        <ele>1272.9</ele>
        <time>2021-08-21T13:26:31Z</time>
      </trkpt>
      <trkpt lat="2.842274" lon="-75.09968">
        <ele>1273.0</ele>
        <time>2021-08-21T13:26:32Z</time>
      </trkpt>
      <trkpt lat="2.84224" lon="-75.09969">
        <ele>1273.1</ele>
        <time>2021-08-21T13:26:33Z</time>
      </trkpt>
      <trkpt lat="2.842206" lon="-75.0997">
        <ele>1273.2</ele>
        <time>2021-08-21T13:26:34Z</time>
      </trkpt>
      <trkpt lat="2.842174" lon="-75.09972">
        <ele>1273.2</ele>
        <time>2021-08-21T13:26:35Z</time>
      </trkpt>
      <trkpt lat="2.842142" lon="-75.09973">
        <ele>1273.3</ele>
        <time>2021-08-21T13:26:36Z</time>
      </trkpt>
      <trkpt lat="2.842111" lon="-75.09975">
        <ele>1273.4</ele>
        <time>2021-08-21T13:26:37Z</time>
      </trkpt>
      <trkpt lat="2.842082" lon="-75.09977">
        <ele>1273.5</ele>
        <time>2021-08-21T13:26:38Z</time>
      </trkpt>
      <trkpt lat="2.842056" lon="-75.09979">
        <ele>1273.5</ele>
        <time>2021-08-21T13:26:39Z</time>
      </trkpt>
      <trkpt lat="2.84203" lon="-75.09981">
        <ele>1273.6</ele>
        <time>2021-08-21T13:26:40Z</time>
      </trkpt>
      <trkpt lat="2.842004" lon="-75.09984">
        <ele>1273.6</ele>
        <time>2021-08-21T13:26:41Z</time>
      </trkpt>
      <trkpt lat="2.841981" lon="-75.09986">
        <ele>1273.7</ele>
        <time>2021-08-21T13:26:42Z</time>
      </trkpt>
      <trkpt lat="2.841959" lon="-75.099884">
        <ele>1273.8</ele>
        <time>2021-08-21T13:26:43Z</time>
      </trkpt>
      <trkpt lat="2.841938" lon="-75.09991">
        <ele>1273.8</ele>
        <time>2021-08-21T13:26:44Z</time>
      </trkpt>
      <trkpt lat="2.841917" lon="-75.09994">
        <ele>1273.9</ele>
        <time>2021-08-21T13:26:45Z</time>
      </trkpt>
      <trkpt lat="2.841899" lon="-75.09996">
        <ele>1273.9</ele>
        <time>2021-08-21T13:26:46Z</time>
      </trkpt>
      <trkpt lat="2.841882" lon="-75.09999">
        <ele>1274.0</ele>
        <time>2021-08-21T13:26:47Z</time>
      </trkpt>
      <trkpt lat="2.841865" lon="-75.10002">
        <ele>1274.1</ele>
        <time>2021-08-21T13:26:48Z</time>
      </trkpt>
      <trkpt lat="2.841846" lon="-75.10005">
        <ele>1274.1</ele>
        <time>2021-08-21T13:26:49Z</time>
      </trkpt>
      <trkpt lat="2.841829" lon="-75.10008">
        <ele>1274.2</ele>
        <time>2021-08-21T13:26:50Z</time>
      </trkpt>
      <trkpt lat="2.841811" lon="-75.10011">
        <ele>1274.3</ele>
        <time>2021-08-21T13:26:51Z</time>
      </trkpt>
      <trkpt lat="2.841792" lon="-75.10014">
        <ele>1274.3</ele>
        <time>2021-08-21T13:26:52Z</time>
      </trkpt>
      <trkpt lat="2.841773" lon="-75.10018">
        <ele>1274.4</ele>
        <time>2021-08-21T13:26:53Z</time>
      </trkpt>
      <trkpt lat="2.841753" lon="-75.100204">
        <ele>1274.5</ele>
        <time>2021-08-21T13:26:54Z</time>
      </trkpt>
      <trkpt lat="2.841732" lon="-75.100235">
        <ele>1274.6</ele>
        <time>2021-08-21T13:26:55Z</time>
      </trkpt>
      <trkpt lat="2.841709" lon="-75.100266">
        <ele>1274.6</ele>
        <time>2021-08-21T13:26:56Z</time>
      </trkpt>
      <trkpt lat="2.841685" lon="-75.10029">
        <ele>1274.7</ele>
        <time>2021-08-21T13:26:57Z</time>
      </trkpt>
      <trkpt lat="2.841659" lon="-75.1003">
        <ele>1274.7</ele>
        <time>2021-08-21T13:26:58Z</time>
      </trkpt>
      <trkpt lat="2.84163" lon="-75.10033">
        <ele>1274.7</ele>
        <time>2021-08-21T13:26:59Z</time>
      </trkpt>
      <trkpt lat="2.841599" lon="-75.100334">
        <ele>1274.7</ele>
        <time>2021-08-21T13:27:00Z</time>
      </trkpt>
      <trkpt lat="2.841564" lon="-75.10034">
        <ele>1274.7</ele>
        <time>2021-08-21T13:27:01Z</time>
      </trkpt>
      <trkpt lat="2.841529" lon="-75.10034">
        <ele>1274.7</ele>
        <time>2021-08-21T13:27:02Z</time>
      </trkpt>
      <trkpt lat="2.841492" lon="-75.100334">
        <ele>1274.7</ele>
        <time>2021-08-21T13:27:03Z</time>
      </trkpt>
      <trkpt lat="2.841453" lon="-75.10033">
        <ele>1274.7</ele>
        <time>2021-08-21T13:27:04Z</time>
      </trkpt>
      <trkpt lat="2.841416" lon="-75.10031">
        <ele>1274.7</ele>
        <time>2021-08-21T13:27:05Z</time>
      </trkpt>
      <trkpt lat="2.841381" lon="-75.10029">
        <ele>1274.7</ele>
        <time>2021-08-21T13:27:06Z</time>
      </trkpt>
      <trkpt lat="2.841349" lon="-75.100266">
        <ele>1274.7</ele>
        <time>2021-08-21T13:27:07Z</time>
      </trkpt>
      <trkpt lat="2.84132" lon="-75.100235">
        <ele>1274.6</ele>
        <time>2021-08-21T13:27:08Z</time>
      </trkpt>
      <trkpt lat="2.841294" lon="-75.100204">
        <ele>1274.6</ele>
        <time>2021-08-21T13:27:09Z</time>
      </trkpt>
      <trkpt lat="2.84127" lon="-75.100174">
        <ele>1274.6</ele>
        <time>2021-08-21T13:27:10Z</time>
      </trkpt>
      <trkpt lat="2.841248" lon="-75.10015">
        <ele>1274.5</ele>
        <time>2021-08-21T13:27:11Z</time>
      </trkpt>
      <trkpt lat="2.841228" lon="-75.10012">
        <ele>1274.5</ele>
        <time>2021-08-21T13:27:12Z</time>
      </trkpt>
      <trkpt lat="2.841207" lon="-75.10009">
        <ele>1274.5</ele>
        <time>2021-08-21T13:27:13Z</time>
      </trkpt>
      <trkpt lat="2.841186" lon="-75.10006">
        <ele>1274.4</ele>
        <time>2021-08-21T13:27:14Z</time>
      </trkpt>
      <trkpt lat="2.841167" lon="-75.10004">
        <ele>1274.4</ele>
        <time>2021-08-21T13:27:15Z</time>
      </trkpt>
      <trkpt lat="2.841147" lon="-75.1">
        <ele>1274.4</ele>
        <time>2021-08-21T13:27:16Z</time>
      </trkpt>
      <trkpt lat="2.841126" lon="-75.099976">
        <ele>1274.4</ele>
        <time>2021-08-21T13:27:17Z</time>
      </trkpt>
      <trkpt lat="2.841104" lon="-75.099945">
        <ele>1274.4</ele>
        <time>2021-08-21T13:27:18Z</time>
      </trkpt>
      <trkpt lat="2.841082" lon="-75.099915">
        <ele>1274.3</ele>
        <time>2021-08-21T13:27:19Z</time>
      </trkpt>
      <trkpt lat="2.841058" lon="-75.09989">
        <ele>1274.3</ele>
        <time>2021-08-21T13:27:20Z</time>
      </trkpt>
      <trkpt lat="2.841036" lon="-75.09987">
        <ele>1274.3</ele>
        <time>2021-08-21T13:27:21Z</time>
      </trkpt>
      <trkpt lat="2.841016" lon="-75.09984">
        <ele>1274.3</ele>
        <time>2021-08-21T13:27:22Z</time>
      </trkpt>
      <trkpt lat="2.840996" lon="-75.099815">
        <ele>1274.2</ele>
        <time>2021-08-21T13:27:23Z</time>
      </trkpt>
      <trkpt lat="2.840978" lon="-75.099785">
        <ele>1274.2</ele>
        <time>2021-08-21T13:27:24Z</time>
      </trkpt>
      <trkpt lat="2.840961" lon="-75.099754">
        <ele>1274.2</ele>
        <time>2021-08-21T13:27:25Z</time>
      </trkpt>
      <trkpt lat="2.840946" lon="-75.09972">
        <ele>1274.2</ele>
        <time>2021-08-21T13:27:26Z</time>
      </trkpt>
      <trkpt lat="2.840933" lon="-75.099686">
        <ele>1274.2</ele>
        <time>2021-08-21T13:27:27Z</time>
      </trkpt>
      <trkpt lat="2.840921" lon="-75.09965">
        <ele>1274.2</ele>
        <time>2021-08-21T13:27:28Z</time>
      </trkpt>
      <trkpt lat="2.840911" lon="-75.09961">
        <ele>1274.1</ele>
        <time>2021-08-21T13:27:29Z</time>
      </trkpt>
      <trkpt lat="2.840904" lon="-75.09957">
        <ele>1274.1</ele>
        <time>2021-08-21T13:27:30Z</time>
      </trkpt>
      <trkpt lat="2.840898" lon="-75.09953">
        <ele>1274.1</ele>
        <time>2021-08-21T13:27:31Z</time>
      </trkpt>
      <trkpt lat="2.840895" lon="-75.099495">
        <ele>1274.1</ele>
        <time>2021-08-21T13:27:32Z</time>
      </trkpt>
      <trkpt lat="2.840893" lon="-75.09946">
        <ele>1274.1</ele>
        <time>2021-08-21T13:27:33Z</time>
      </trkpt>
      <trkpt lat="2.840893" lon="-75.09942">
        <ele>1274.0</ele>
        <time>2021-08-21T13:27:34Z</time>
      </trkpt>
      <trkpt lat="2.840893" lon="-75.09938">
        <ele>1274.0</ele>
        <time>2021-08-21T13:27:35Z</time>
      </trkpt>
      <trkpt lat="2.840894" lon="-75.099335">
        <ele>1274.0</ele>
        <time>2021-08-21T13:27:36Z</time>
      </trkpt>
      <trkpt lat="2.840898" lon="-75.0993">
        <ele>1273.9</ele>
        <time>2021-08-21T13:27:37Z</time>
      </trkpt>
      <trkpt lat="2.840902" lon="-75.09926">
        <ele>1273.9</ele>
        <time>2021-08-21T13:27:38Z</time>
      </trkpt>
      <trkpt lat="2.840909" lon="-75.09921">
        <ele>1273.9</ele>
        <time>2021-08-21T13:27:39Z</time>
      </trkpt>
      <trkpt lat="2.840916" lon="-75.099174">
        <ele>1273.9</ele>
        <time>2021-08-21T13:27:40Z</time>
      </trkpt>
      <trkpt lat="2.840926" lon="-75.09913">
        <ele>1273.8</ele>
        <time>2021-08-21T13:27:41Z</time>
      </trkpt>
      <trkpt lat="2.840936" lon="-75.09909">
        <ele>1273.8</ele>
        <time>2021-08-21T13:27:42Z</time>
      </trkpt>
      <trkpt lat="2.840947" lon="-75.09905">
        <ele>1273.8</ele>
        <time>2021-08-21T13:27:43Z</time>
      </trkpt>
      <trkpt lat="2.840962" lon="-75.099014">
        <ele>1273.8</ele>
        <time>2021-08-21T13:27:44Z</time>
      </trkpt>
      <trkpt lat="2.840976" lon="-75.09898">
        <ele>1273.8</ele>
        <time>2021-08-21T13:27:45Z</time>
      </trkpt>
      <trkpt lat="2.840987" lon="-75.098946">
        <ele>1273.8</ele>
        <time>2021-08-21T13:27:46Z</time>
      </trkpt>
      <trkpt lat="2.840996" lon="-75.09891">
        <ele>1273.8</ele>
        <time>2021-08-21T13:27:47Z</time>
      </trkpt>
      <trkpt lat="2.841005" lon="-75.09888">
        <ele>1273.8</ele>
        <time>2021-08-21T13:27:48Z</time>
      </trkpt>
      <trkpt lat="2.841015" lon="-75.09884">
        <ele>1273.8</ele>
        <time>2021-08-21T13:27:49Z</time>
      </trkpt>
      <trkpt lat="2.841026" lon="-75.0988">
        <ele>1273.8</ele>
        <time>2021-08-21T13:27:50Z</time>
      </trkpt>
      <trkpt lat="2.841036" lon="-75.09877">
        <ele>1273.9</ele>
        <time>2021-08-21T13:27:51Z</time>
      </trkpt>
      <trkpt lat="2.841042" lon="-75.09873">
        <ele>1273.9</ele>
        <time>2021-08-21T13:27:52Z</time>
      </trkpt>
      <trkpt lat="2.841048" lon="-75.0987">
        <ele>1274.0</ele>
        <time>2021-08-21T13:27:53Z</time>
      </trkpt>
      <trkpt lat="2.841058" lon="-75.09866">
        <ele>1274.0</ele>
        <time>2021-08-21T13:27:54Z</time>
      </trkpt>
      <trkpt lat="2.841067" lon="-75.09863">
        <ele>1274.1</ele>
        <time>2021-08-21T13:27:55Z</time>
      </trkpt>
      <trkpt lat="2.841076" lon="-75.0986">
        <ele>1274.1</ele>
        <time>2021-08-21T13:27:56Z</time>
      </trkpt>
      <trkpt lat="2.841082" lon="-75.09857">
        <ele>1274.1</ele>
        <time>2021-08-21T13:27:57Z</time>
      </trkpt>
      <trkpt lat="2.84109" lon="-75.09853">
        <ele>1274.1</ele>
        <time>2021-08-21T13:27:58Z</time>
      </trkpt>
      <trkpt lat="2.841097" lon="-75.0985">
        <ele>1274.2</ele>
        <time>2021-08-21T13:27:59Z</time>
      </trkpt>
      <trkpt lat="2.841098" lon="-75.098465">
        <ele>1274.2</ele>
        <time>2021-08-21T13:28:00Z</time>
      </trkpt>
      <trkpt lat="2.841098" lon="-75.098434">
        <ele>1274.2</ele>
        <time>2021-08-21T13:28:01Z</time>
      </trkpt>
      <trkpt lat="2.841087" lon="-75.09841">
        <ele>1274.2</ele>
        <time>2021-08-21T13:28:02Z</time>
      </trkpt>
      <trkpt lat="2.841063" lon="-75.0984">
        <ele>1271.4</ele>
        <time>2021-08-21T13:28:03Z</time>
      </trkpt>
      <trkpt lat="2.841027" lon="-75.0984">
        <ele>1268.9</ele>
        <time>2021-08-21T13:28:04Z</time>
      </trkpt>
      <trkpt lat="2.84099" lon="-75.098404">
        <ele>1268.4</ele>
        <time>2021-08-21T13:28:05Z</time>
      </trkpt>
      <trkpt lat="2.84094" lon="-75.09842">
        <ele>1264.6</ele>
        <time>2021-08-21T13:28:06Z</time>
      </trkpt>
      <trkpt lat="2.840887" lon="-75.098434">
        <ele>1263.2</ele>
        <time>2021-08-21T13:28:07Z</time>
      </trkpt>
      <trkpt lat="2.840835" lon="-75.09845">
        <ele>1261.1</ele>
        <time>2021-08-21T13:28:08Z</time>
      </trkpt>
      <trkpt lat="2.840788" lon="-75.09846">
        <ele>1259.0</ele>
        <time>2021-08-21T13:28:09Z</time>
      </trkpt>
      <trkpt lat="2.840742" lon="-75.098465">
        <ele>1256.5</ele>
        <time>2021-08-21T13:28:10Z</time>
      </trkpt>
      <trkpt lat="2.840698" lon="-75.09847">
        <ele>1254.1</ele>
        <time>2021-08-21T13:28:11Z</time>
      </trkpt>
      <trkpt lat="2.840659" lon="-75.09847">
        <ele>1251.8</ele>
        <time>2021-08-21T13:28:12Z</time>
      </trkpt>
      <trkpt lat="2.840629" lon="-75.098465">
        <ele>1249.6</ele>
        <time>2021-08-21T13:28:13Z</time>
      </trkpt>
      <trkpt lat="2.840609" lon="-75.09846">
        <ele>1250.8</ele>
        <time>2021-08-21T13:28:14Z</time>
      </trkpt>
      <trkpt lat="2.840602" lon="-75.098434">
        <ele>1249.3</ele>
        <time>2021-08-21T13:28:15Z</time>
      </trkpt>
      <trkpt lat="2.840604" lon="-75.098404">
        <ele>1251.6</ele>
        <time>2021-08-21T13:28:16Z</time>
      </trkpt>
      <trkpt lat="2.840595" lon="-75.09838">
        <ele>1250.3</ele>
        <time>2021-08-21T13:28:17Z</time>
      </trkpt>
      <trkpt lat="2.840589" lon="-75.09835">
        <ele>1251.7</ele>
        <time>2021-08-21T13:28:18Z</time>
      </trkpt>
      <trkpt lat="2.840592" lon="-75.09832">
        <ele>1252.6</ele>
        <time>2021-08-21T13:28:19Z</time>
      </trkpt>
      <trkpt lat="2.840603" lon="-75.09828">
        <ele>1253.1</ele>
        <time>2021-08-21T13:28:20Z</time>
      </trkpt>
      <trkpt lat="2.840624" lon="-75.098236">
        <ele>1253.5</ele>
        <time>2021-08-21T13:28:21Z</time>
      </trkpt>
      <trkpt lat="2.840653" lon="-75.09819">
        <ele>1253.5</ele>
        <time>2021-08-21T13:28:22Z</time>
      </trkpt>
      <trkpt lat="2.840661" lon="-75.098145">
        <ele>1253.4</ele>
        <time>2021-08-21T13:28:23Z</time>
      </trkpt>
      <trkpt lat="2.840664" lon="-75.0981">
        <ele>1253.3</ele>
        <time>2021-08-21T13:28:23Z</time>
      </trkpt>
      <trkpt lat="2.840665" lon="-75.09806">
        <ele>1253.3</ele>
        <time>2021-08-21T13:28:24Z</time>
      </trkpt>
      <trkpt lat="2.840667" lon="-75.09803">
        <ele>1253.4</ele>
        <time>2021-08-21T13:28:25Z</time>
      </trkpt>
      <trkpt lat="2.840677" lon="-75.09799">
        <ele>1252.9</ele>
        <time>2021-08-21T13:28:26Z</time>
      </trkpt>
      <trkpt lat="2.840694" lon="-75.09796">
        <ele>1252.6</ele>
        <time>2021-08-21T13:28:27Z</time>
      </trkpt>
      <trkpt lat="2.840728" lon="-75.097916">
        <ele>1252.9</ele>
        <time>2021-08-21T13:28:28Z</time>
      </trkpt>
      <trkpt lat="2.840775" lon="-75.09787">
        <ele>1252.7</ele>
        <time>2021-08-21T13:28:29Z</time>
      </trkpt>
      <trkpt lat="2.840816" lon="-75.09782">
        <ele>1252.7</ele>
        <time>2021-08-21T13:28:30Z</time>
      </trkpt>
      <trkpt lat="2.840855" lon="-75.09776">
        <ele>1253.7</ele>
        <time>2021-08-21T13:28:31Z</time>
      </trkpt>
      <trkpt lat="2.840871" lon="-75.09772">
        <ele>1254.2</ele>
        <time>2021-08-21T13:28:32Z</time>
      </trkpt>
      <trkpt lat="2.84087" lon="-75.09767">
        <ele>1254.6</ele>
        <time>2021-08-21T13:28:33Z</time>
      </trkpt>
      <trkpt lat="2.840856" lon="-75.097626">
        <ele>1255.2</ele>
        <time>2021-08-21T13:28:34Z</time>
      </trkpt>
      <trkpt lat="2.840839" lon="-75.09759">
        <ele>1256.0</ele>
        <time>2021-08-21T13:28:35Z</time>
      </trkpt>
      <trkpt lat="2.840826" lon="-75.09756">
        <ele>1256.9</ele>
        <time>2021-08-21T13:28:36Z</time>
      </trkpt>
      <trkpt lat="2.840809" lon="-75.09753">
        <ele>1256.9</ele>
        <time>2021-08-21T13:28:37Z</time>
      </trkpt>
      <trkpt lat="2.84079" lon="-75.097496">
        <ele>1258.1</ele>
        <time>2021-08-21T13:28:38Z</time>
      </trkpt>
      <trkpt lat="2.84075" lon="-75.09742">
        <ele>1261.9</ele>
        <time>2021-08-21T13:28:40Z</time>
      </trkpt>
      <trkpt lat="2.840771" lon="-75.09746">
        <ele>1260.4</ele>
        <time>2021-08-21T13:28:40Z</time>
      </trkpt>
      <trkpt lat="2.840726" lon="-75.09738">
        <ele>1264.6</ele>
        <time>2021-08-21T13:28:41Z</time>
      </trkpt>
      <trkpt lat="2.840697" lon="-75.09736">
        <ele>1264.1</ele>
        <time>2021-08-21T13:28:42Z</time>
      </trkpt>
      <trkpt lat="2.840663" lon="-75.09734">
        <ele>1267.1</ele>
        <time>2021-08-21T13:28:43Z</time>
      </trkpt>
      <trkpt lat="2.84063" lon="-75.09734">
        <ele>1267.3</ele>
        <time>2021-08-21T13:28:44Z</time>
      </trkpt>
      <trkpt lat="2.8406" lon="-75.09734">
        <ele>1267.4</ele>
        <time>2021-08-21T13:28:45Z</time>
      </trkpt>
      <trkpt lat="2.840572" lon="-75.09734">
        <ele>1267.5</ele>
        <time>2021-08-21T13:28:46Z</time>
      </trkpt>
      <trkpt lat="2.840549" lon="-75.09735">
        <ele>1267.6</ele>
        <time>2021-08-21T13:28:47Z</time>
      </trkpt>
      <trkpt lat="2.840531" lon="-75.09736">
        <ele>1267.6</ele>
        <time>2021-08-21T13:28:48Z</time>
      </trkpt>
      <trkpt lat="2.840517" lon="-75.09737">
        <ele>1267.7</ele>
        <time>2021-08-21T13:28:49Z</time>
      </trkpt>
      <trkpt lat="2.840505" lon="-75.09738">
        <ele>1267.8</ele>
        <time>2021-08-21T13:28:50Z</time>
      </trkpt>
      <trkpt lat="2.840495" lon="-75.0974">
        <ele>1267.8</ele>
        <time>2021-08-21T13:28:51Z</time>
      </trkpt>
      <trkpt lat="2.840488" lon="-75.09741">
        <ele>1267.9</ele>
        <time>2021-08-21T13:28:52Z</time>
      </trkpt>
      <trkpt lat="2.840483" lon="-75.09743">
        <ele>1268.0</ele>
        <time>2021-08-21T13:28:53Z</time>
      </trkpt>
      <trkpt lat="2.840479" lon="-75.09744">
        <ele>1268.0</ele>
        <time>2021-08-21T13:28:54Z</time>
      </trkpt>
      <trkpt lat="2.840476" lon="-75.09746">
        <ele>1268.1</ele>
        <time>2021-08-21T13:28:55Z</time>
      </trkpt>
      <trkpt lat="2.840472" lon="-75.09747">
        <ele>1268.1</ele>
        <time>2021-08-21T13:28:56Z</time>
      </trkpt>
      <trkpt lat="2.84047" lon="-75.09749">
        <ele>1268.2</ele>
        <time>2021-08-21T13:28:57Z</time>
      </trkpt>
      <trkpt lat="2.84047" lon="-75.097496">
        <ele>1268.2</ele>
        <time>2021-08-21T13:28:58Z</time>
      </trkpt>
      <trkpt lat="2.840477" lon="-75.097496">
        <ele>1268.3</ele>
        <time>2021-08-21T13:28:59Z</time>
      </trkpt>
      <trkpt lat="2.840493" lon="-75.097496">
        <ele>1268.4</ele>
        <time>2021-08-21T13:29:00Z</time>
      </trkpt>
      <trkpt lat="2.840514" lon="-75.097496">
        <ele>1268.5</ele>
        <time>2021-08-21T13:29:01Z</time>
      </trkpt>
      <trkpt lat="2.840538" lon="-75.09749">
        <ele>1268.6</ele>
        <time>2021-08-21T13:29:02Z</time>
      </trkpt>
      <trkpt lat="2.840565" lon="-75.09748">
        <ele>1268.8</ele>
        <time>2021-08-21T13:29:03Z</time>
      </trkpt>
      <trkpt lat="2.84059" lon="-75.09747">
        <ele>1268.9</ele>
        <time>2021-08-21T13:29:04Z</time>
      </trkpt>
      <trkpt lat="2.840609" lon="-75.09747">
        <ele>1269.0</ele>
        <time>2021-08-21T13:29:05Z</time>
      </trkpt>
      <trkpt lat="2.840622" lon="-75.09748">
        <ele>1269.1</ele>
        <time>2021-08-21T13:29:06Z</time>
      </trkpt>
      <trkpt lat="2.840632" lon="-75.09749">
        <ele>1269.2</ele>
        <time>2021-08-21T13:29:07Z</time>
      </trkpt>
      <trkpt lat="2.840636" lon="-75.097496">
        <ele>1269.2</ele>
        <time>2021-08-21T13:29:08Z</time>
      </trkpt>
      <trkpt lat="2.84064" lon="-75.0975">
        <ele>1269.3</ele>
        <time>2021-08-21T13:29:09Z</time>
      </trkpt>
      <trkpt lat="2.840639" lon="-75.09752">
        <ele>1269.4</ele>
        <time>2021-08-21T13:29:10Z</time>
      </trkpt>
      <trkpt lat="2.840638" lon="-75.09753">
        <ele>1269.4</ele>
        <time>2021-08-21T13:29:11Z</time>
      </trkpt>
      <trkpt lat="2.840635" lon="-75.09754">
        <ele>1269.5</ele>
        <time>2021-08-21T13:29:12Z</time>
      </trkpt>
      <trkpt lat="2.840632" lon="-75.09755">
        <ele>1269.6</ele>
        <time>2021-08-21T13:29:13Z</time>
      </trkpt>
      <trkpt lat="2.840627" lon="-75.09756">
        <ele>1269.6</ele>
        <time>2021-08-21T13:29:14Z</time>
      </trkpt>
      <trkpt lat="2.840619" lon="-75.097565">
        <ele>1269.7</ele>
        <time>2021-08-21T13:29:15Z</time>
      </trkpt>
      <trkpt lat="2.840609" lon="-75.09757">
        <ele>1269.8</ele>
        <time>2021-08-21T13:29:16Z</time>
      </trkpt>
      <trkpt lat="2.840599" lon="-75.09758">
        <ele>1269.9</ele>
        <time>2021-08-21T13:29:17Z</time>
      </trkpt>
      <trkpt lat="2.840591" lon="-75.09758">
        <ele>1269.9</ele>
        <time>2021-08-21T13:29:18Z</time>
      </trkpt>
      <trkpt lat="2.840583" lon="-75.09759">
        <ele>1270.0</ele>
        <time>2021-08-21T13:29:19Z</time>
      </trkpt>
      <trkpt lat="2.840576" lon="-75.09759">
        <ele>1270.0</ele>
        <time>2021-08-21T13:29:20Z</time>
      </trkpt>
      <trkpt lat="2.840569" lon="-75.09759">
        <ele>1270.1</ele>
        <time>2021-08-21T13:29:21Z</time>
      </trkpt>
      <trkpt lat="2.840559" lon="-75.097595">
        <ele>1270.2</ele>
        <time>2021-08-21T13:29:22Z</time>
      </trkpt>
      <trkpt lat="2.84055" lon="-75.0976">
        <ele>1270.2</ele>
        <time>2021-08-21T13:29:23Z</time>
      </trkpt>
      <trkpt lat="2.840541" lon="-75.09761">
        <ele>1270.3</ele>
        <time>2021-08-21T13:29:24Z</time>
      </trkpt>
      <trkpt lat="2.840533" lon="-75.09762">
        <ele>1270.4</ele>
        <time>2021-08-21T13:29:25Z</time>
      </trkpt>
      <trkpt lat="2.840526" lon="-75.097626">
        <ele>1270.5</ele>
        <time>2021-08-21T13:29:26Z</time>
      </trkpt>
      <trkpt lat="2.840517" lon="-75.09764">
        <ele>1270.6</ele>
        <time>2021-08-21T13:29:27Z</time>
      </trkpt>
      <trkpt lat="2.84051" lon="-75.09766">
        <ele>1270.7</ele>
        <time>2021-08-21T13:29:28Z</time>
      </trkpt>
      <trkpt lat="2.840502" lon="-75.09767">
        <ele>1270.8</ele>
        <time>2021-08-21T13:29:29Z</time>
      </trkpt>
      <trkpt lat="2.840495" lon="-75.09769">
        <ele>1271.0</ele>
        <time>2021-08-21T13:29:30Z</time>
      </trkpt>
      <trkpt lat="2.840486" lon="-75.0977">
        <ele>1271.1</ele>
        <time>2021-08-21T13:29:31Z</time>
      </trkpt>
      <trkpt lat="2.840475" lon="-75.09772">
        <ele>1271.2</ele>
        <time>2021-08-21T13:29:32Z</time>
      </trkpt>
      <trkpt lat="2.840462" lon="-75.09774">
        <ele>1271.4</ele>
        <time>2021-08-21T13:29:33Z</time>
      </trkpt>
      <trkpt lat="2.840446" lon="-75.097755">
        <ele>1271.5</ele>
        <time>2021-08-21T13:29:34Z</time>
      </trkpt>
      <trkpt lat="2.84043" lon="-75.09777">
        <ele>1271.7</ele>
        <time>2021-08-21T13:29:35Z</time>
      </trkpt>
      <trkpt lat="2.840412" lon="-75.097786">
        <ele>1271.9</ele>
        <time>2021-08-21T13:29:36Z</time>
      </trkpt>
      <trkpt lat="2.840392" lon="-75.0978">
        <ele>1272.1</ele>
        <time>2021-08-21T13:29:37Z</time>
      </trkpt>
      <trkpt lat="2.840373" lon="-75.097824">
        <ele>1272.3</ele>
        <time>2021-08-21T13:29:38Z</time>
      </trkpt>
      <trkpt lat="2.840354" lon="-75.09784">
        <ele>1272.5</ele>
        <time>2021-08-21T13:29:39Z</time>
      </trkpt>
      <trkpt lat="2.840333" lon="-75.09785">
        <ele>1272.7</ele>
        <time>2021-08-21T13:29:40Z</time>
      </trkpt>
      <trkpt lat="2.840312" lon="-75.09786">
        <ele>1272.9</ele>
        <time>2021-08-21T13:29:41Z</time>
      </trkpt>
      <trkpt lat="2.84029" lon="-75.09787">
        <ele>1273.0</ele>
        <time>2021-08-21T13:29:42Z</time>
      </trkpt>
      <trkpt lat="2.840268" lon="-75.09788">
        <ele>1273.2</ele>
        <time>2021-08-21T13:29:43Z</time>
      </trkpt>
      <trkpt lat="2.840247" lon="-75.097885">
        <ele>1273.4</ele>
        <time>2021-08-21T13:29:44Z</time>
      </trkpt>
      <trkpt lat="2.840226" lon="-75.09789">
        <ele>1273.6</ele>
        <time>2021-08-21T13:29:45Z</time>
      </trkpt>
      <trkpt lat="2.840204" lon="-75.09789">
        <ele>1273.7</ele>
        <time>2021-08-21T13:29:46Z</time>
      </trkpt>
      <trkpt lat="2.840182" lon="-75.0979">
        <ele>1273.9</ele>
        <time>2021-08-21T13:29:47Z</time>
      </trkpt>
      <trkpt lat="2.840161" lon="-75.0979">
        <ele>1274.1</ele>
        <time>2021-08-21T13:29:48Z</time>
      </trkpt>
      <trkpt lat="2.840139" lon="-75.0979">
        <ele>1274.3</ele>
        <time>2021-08-21T13:29:49Z</time>
      </trkpt>
      <trkpt lat="2.840118" lon="-75.0979">
        <ele>1274.4</ele>
        <time>2021-08-21T13:29:50Z</time>
      </trkpt>
      <trkpt lat="2.840096" lon="-75.0979">
        <ele>1274.6</ele>
        <time>2021-08-21T13:29:51Z</time>
      </trkpt>
      <trkpt lat="2.840077" lon="-75.0979">
        <ele>1274.7</ele>
        <time>2021-08-21T13:29:52Z</time>
      </trkpt>
      <trkpt lat="2.840058" lon="-75.09791">
        <ele>1274.9</ele>
        <time>2021-08-21T13:29:53Z</time>
      </trkpt>
      <trkpt lat="2.840042" lon="-75.097916">
        <ele>1275.0</ele>
        <time>2021-08-21T13:29:54Z</time>
      </trkpt>
      <trkpt lat="2.840028" lon="-75.09792">
        <ele>1275.1</ele>
        <time>2021-08-21T13:29:55Z</time>
      </trkpt>
      <trkpt lat="2.840015" lon="-75.09793">
        <ele>1275.2</ele>
        <time>2021-08-21T13:29:56Z</time>
      </trkpt>
      <trkpt lat="2.840002" lon="-75.09794">
        <ele>1275.4</ele>
        <time>2021-08-21T13:29:57Z</time>
      </trkpt>
      <trkpt lat="2.839991" lon="-75.09795">
        <ele>1275.5</ele>
        <time>2021-08-21T13:29:58Z</time>
      </trkpt>
      <trkpt lat="2.83998" lon="-75.09797">
        <ele>1275.6</ele>
        <time>2021-08-21T13:29:59Z</time>
      </trkpt>
      <trkpt lat="2.83997" lon="-75.097984">
        <ele>1275.8</ele>
        <time>2021-08-21T13:30:00Z</time>
      </trkpt>
      <trkpt lat="2.839961" lon="-75.098">
        <ele>1275.9</ele>
        <time>2021-08-21T13:30:01Z</time>
      </trkpt>
      <trkpt lat="2.839952" lon="-75.09802">
        <ele>1276.1</ele>
        <time>2021-08-21T13:30:02Z</time>
      </trkpt>
      <trkpt lat="2.839944" lon="-75.09804">
        <ele>1276.2</ele>
        <time>2021-08-21T13:30:03Z</time>
      </trkpt>
      <trkpt lat="2.839936" lon="-75.09805">
        <ele>1276.4</ele>
        <time>2021-08-21T13:30:04Z</time>
      </trkpt>
      <trkpt lat="2.839927" lon="-75.09807">
        <ele>1276.5</ele>
        <time>2021-08-21T13:30:05Z</time>
      </trkpt>
      <trkpt lat="2.839919" lon="-75.09809">
        <ele>1276.6</ele>
        <time>2021-08-21T13:30:06Z</time>
      </trkpt>
      <trkpt lat="2.83991" lon="-75.09811">
        <ele>1276.8</ele>
        <time>2021-08-21T13:30:07Z</time>
      </trkpt>
      <trkpt lat="2.839901" lon="-75.09812">
        <ele>1276.9</ele>
        <time>2021-08-21T13:30:08Z</time>
      </trkpt>
      <trkpt lat="2.83989" lon="-75.09814">
        <ele>1277.1</ele>
        <time>2021-08-21T13:30:09Z</time>
      </trkpt>
      <trkpt lat="2.83988" lon="-75.09816">
        <ele>1277.3</ele>
        <time>2021-08-21T13:30:10Z</time>
      </trkpt>
      <trkpt lat="2.83987" lon="-75.098175">
        <ele>1277.4</ele>
        <time>2021-08-21T13:30:11Z</time>
      </trkpt>
      <trkpt lat="2.83986" lon="-75.09819">
        <ele>1277.6</ele>
        <time>2021-08-21T13:30:12Z</time>
      </trkpt>
      <trkpt lat="2.839851" lon="-75.09821">
        <ele>1277.7</ele>
        <time>2021-08-21T13:30:13Z</time>
      </trkpt>
      <trkpt lat="2.839842" lon="-75.09823">
        <ele>1277.9</ele>
        <time>2021-08-21T13:30:14Z</time>
      </trkpt>
      <trkpt lat="2.839833" lon="-75.09825">
        <ele>1278.1</ele>
        <time>2021-08-21T13:30:15Z</time>
      </trkpt>
      <trkpt lat="2.839824" lon="-75.09827">
        <ele>1278.2</ele>
        <time>2021-08-21T13:30:16Z</time>
      </trkpt>
      <trkpt lat="2.839816" lon="-75.09828">
        <ele>1278.4</ele>
        <time>2021-08-21T13:30:17Z</time>
      </trkpt>
      <trkpt lat="2.839808" lon="-75.0983">
        <ele>1278.5</ele>
        <time>2021-08-21T13:30:18Z</time>
      </trkpt>
      <trkpt lat="2.839801" lon="-75.09831">
        <ele>1278.6</ele>
        <time>2021-08-21T13:30:19Z</time>
      </trkpt>
      <trkpt lat="2.839795" lon="-75.09833">
        <ele>1278.8</ele>
        <time>2021-08-21T13:30:20Z</time>
      </trkpt>
      <trkpt lat="2.83979" lon="-75.09835">
        <ele>1278.9</ele>
        <time>2021-08-21T13:30:21Z</time>
      </trkpt>
      <trkpt lat="2.839786" lon="-75.098366">
        <ele>1279.0</ele>
        <time>2021-08-21T13:30:22Z</time>
      </trkpt>
      <trkpt lat="2.839784" lon="-75.09838">
        <ele>1279.1</ele>
        <time>2021-08-21T13:30:23Z</time>
      </trkpt>
      <trkpt lat="2.839783" lon="-75.0984">
        <ele>1279.3</ele>
        <time>2021-08-21T13:30:24Z</time>
      </trkpt>
      <trkpt lat="2.839784" lon="-75.09842">
        <ele>1279.4</ele>
        <time>2021-08-21T13:30:25Z</time>
      </trkpt>
      <trkpt lat="2.839786" lon="-75.098434">
        <ele>1279.5</ele>
        <time>2021-08-21T13:30:26Z</time>
      </trkpt>
      <trkpt lat="2.839788" lon="-75.09845">
        <ele>1279.6</ele>
        <time>2021-08-21T13:30:27Z</time>
      </trkpt>
      <trkpt lat="2.83979" lon="-75.098465">
        <ele>1279.7</ele>
        <time>2021-08-21T13:30:28Z</time>
      </trkpt>
      <trkpt lat="2.83979" lon="-75.09848">
        <ele>1279.9</ele>
        <time>2021-08-21T13:30:29Z</time>
      </trkpt>
      <trkpt lat="2.83979" lon="-75.098495">
        <ele>1280.0</ele>
        <time>2021-08-21T13:30:30Z</time>
      </trkpt>
      <trkpt lat="2.839789" lon="-75.09851">
        <ele>1280.1</ele>
        <time>2021-08-21T13:30:31Z</time>
      </trkpt>
      <trkpt lat="2.839787" lon="-75.098526">
        <ele>1280.2</ele>
        <time>2021-08-21T13:30:32Z</time>
      </trkpt>
      <trkpt lat="2.839784" lon="-75.09854">
        <ele>1280.3</ele>
        <time>2021-08-21T13:30:33Z</time>
      </trkpt>
      <trkpt lat="2.83978" lon="-75.09856">
        <ele>1280.4</ele>
        <time>2021-08-21T13:30:34Z</time>
      </trkpt>
      <trkpt lat="2.839775" lon="-75.09857">
        <ele>1280.5</ele>
        <time>2021-08-21T13:30:35Z</time>
      </trkpt>
      <trkpt lat="2.83977" lon="-75.09859">
        <ele>1280.6</ele>
        <time>2021-08-21T13:30:36Z</time>
      </trkpt>
      <trkpt lat="2.839766" lon="-75.0986">
        <ele>1280.7</ele>
        <time>2021-08-21T13:30:37Z</time>
      </trkpt>
      <trkpt lat="2.839763" lon="-75.09862">
        <ele>1280.8</ele>
        <time>2021-08-21T13:30:38Z</time>
      </trkpt>
      <trkpt lat="2.83976" lon="-75.09863">
        <ele>1280.9</ele>
        <time>2021-08-21T13:30:39Z</time>
      </trkpt>
      <trkpt lat="2.839758" lon="-75.09865">
        <ele>1281.0</ele>
        <time>2021-08-21T13:30:40Z</time>
      </trkpt>
      <trkpt lat="2.839754" lon="-75.09866">
        <ele>1281.1</ele>
        <time>2021-08-21T13:30:41Z</time>
      </trkpt>
      <trkpt lat="2.839752" lon="-75.09868">
        <ele>1281.2</ele>
        <time>2021-08-21T13:30:42Z</time>
      </trkpt>
      <trkpt lat="2.83975" lon="-75.098694">
        <ele>1281.3</ele>
        <time>2021-08-21T13:30:43Z</time>
      </trkpt>
      <trkpt lat="2.839747" lon="-75.09871">
        <ele>1281.4</ele>
        <time>2021-08-21T13:30:44Z</time>
      </trkpt>
      <trkpt lat="2.839744" lon="-75.098724">
        <ele>1281.5</ele>
        <time>2021-08-21T13:30:45Z</time>
      </trkpt>
      <trkpt lat="2.83974" lon="-75.09874">
        <ele>1281.6</ele>
        <time>2021-08-21T13:30:46Z</time>
      </trkpt>
      <trkpt lat="2.839735" lon="-75.09876">
        <ele>1281.7</ele>
        <time>2021-08-21T13:30:47Z</time>
      </trkpt>
      <trkpt lat="2.839728" lon="-75.09878">
        <ele>1281.8</ele>
        <time>2021-08-21T13:30:48Z</time>
      </trkpt>
      <trkpt lat="2.83972" lon="-75.09879">
        <ele>1281.9</ele>
        <time>2021-08-21T13:30:49Z</time>
      </trkpt>
      <trkpt lat="2.839711" lon="-75.098816">
        <ele>1282.0</ele>
        <time>2021-08-21T13:30:50Z</time>
      </trkpt>
      <trkpt lat="2.839701" lon="-75.09883">
        <ele>1282.2</ele>
        <time>2021-08-21T13:30:51Z</time>
      </trkpt>
      <trkpt lat="2.839692" lon="-75.09885">
        <ele>1282.3</ele>
        <time>2021-08-21T13:30:52Z</time>
      </trkpt>
      <trkpt lat="2.839683" lon="-75.09886">
        <ele>1282.4</ele>
        <time>2021-08-21T13:30:53Z</time>
      </trkpt>
      <trkpt lat="2.839672" lon="-75.09888">
        <ele>1282.5</ele>
        <time>2021-08-21T13:30:54Z</time>
      </trkpt>
      <trkpt lat="2.839662" lon="-75.09889">
        <ele>1282.7</ele>
        <time>2021-08-21T13:30:55Z</time>
      </trkpt>
      <trkpt lat="2.839652" lon="-75.09891">
        <ele>1282.8</ele>
        <time>2021-08-21T13:30:56Z</time>
      </trkpt>
      <trkpt lat="2.839642" lon="-75.09893">
        <ele>1282.9</ele>
        <time>2021-08-21T13:30:57Z</time>
      </trkpt>
      <trkpt lat="2.839631" lon="-75.098946">
        <ele>1283.1</ele>
        <time>2021-08-21T13:30:58Z</time>
      </trkpt>
      <trkpt lat="2.839619" lon="-75.09895">
        <ele>1283.2</ele>
        <time>2021-08-21T13:30:59Z</time>
      </trkpt>
      <trkpt lat="2.839608" lon="-75.09897">
        <ele>1283.3</ele>
        <time>2021-08-21T13:31:00Z</time>
      </trkpt>
      <trkpt lat="2.839597" lon="-75.098976">
        <ele>1283.4</ele>
        <time>2021-08-21T13:31:01Z</time>
      </trkpt>
      <trkpt lat="2.839586" lon="-75.09899">
        <ele>1283.5</ele>
        <time>2021-08-21T13:31:02Z</time>
      </trkpt>
      <trkpt lat="2.839575" lon="-75.09901">
        <ele>1283.7</ele>
        <time>2021-08-21T13:31:03Z</time>
      </trkpt>
      <trkpt lat="2.839565" lon="-75.099014">
        <ele>1283.8</ele>
        <time>2021-08-21T13:31:04Z</time>
      </trkpt>
      <trkpt lat="2.839555" lon="-75.09904">
        <ele>1283.9</ele>
        <time>2021-08-21T13:31:05Z</time>
      </trkpt>
      <trkpt lat="2.839545" lon="-75.09905">
        <ele>1284.1</ele>
        <time>2021-08-21T13:31:06Z</time>
      </trkpt>
      <trkpt lat="2.839536" lon="-75.09907">
        <ele>1284.2</ele>
        <time>2021-08-21T13:31:07Z</time>
      </trkpt>
      <trkpt lat="2.839525" lon="-75.099075">
        <ele>1284.4</ele>
        <time>2021-08-21T13:31:08Z</time>
      </trkpt>
      <trkpt lat="2.839513" lon="-75.09909">
        <ele>1284.5</ele>
        <time>2021-08-21T13:31:09Z</time>
      </trkpt>
      <trkpt lat="2.839502" lon="-75.099106">
        <ele>1284.6</ele>
        <time>2021-08-21T13:31:10Z</time>
      </trkpt>
      <trkpt lat="2.83949" lon="-75.09912">
        <ele>1284.8</ele>
        <time>2021-08-21T13:31:11Z</time>
      </trkpt>
      <trkpt lat="2.839477" lon="-75.09914">
        <ele>1284.9</ele>
        <time>2021-08-21T13:31:12Z</time>
      </trkpt>
      <trkpt lat="2.839465" lon="-75.09915">
        <ele>1285.0</ele>
        <time>2021-08-21T13:31:13Z</time>
      </trkpt>
      <trkpt lat="2.839452" lon="-75.09916">
        <ele>1285.2</ele>
        <time>2021-08-21T13:31:14Z</time>
      </trkpt>
      <trkpt lat="2.839437" lon="-75.099174">
        <ele>1285.3</ele>
        <time>2021-08-21T13:31:15Z</time>
      </trkpt>
      <trkpt lat="2.839421" lon="-75.09918">
        <ele>1285.4</ele>
        <time>2021-08-21T13:31:16Z</time>
      </trkpt>
      <trkpt lat="2.839404" lon="-75.09919">
        <ele>1285.6</ele>
        <time>2021-08-21T13:31:17Z</time>
      </trkpt>
      <trkpt lat="2.839388" lon="-75.0992">
        <ele>1285.7</ele>
        <time>2021-08-21T13:31:18Z</time>
      </trkpt>
      <trkpt lat="2.83937" lon="-75.099205">
        <ele>1285.8</ele>
        <time>2021-08-21T13:31:19Z</time>
      </trkpt>
      <trkpt lat="2.839353" lon="-75.09921">
        <ele>1286.0</ele>
        <time>2021-08-21T13:31:20Z</time>
      </trkpt>
      <trkpt lat="2.839336" lon="-75.09922">
        <ele>1286.1</ele>
        <time>2021-08-21T13:31:21Z</time>
      </trkpt>
      <trkpt lat="2.839318" lon="-75.09923">
        <ele>1286.2</ele>
        <time>2021-08-21T13:31:22Z</time>
      </trkpt>
      <trkpt lat="2.8393" lon="-75.099236">
        <ele>1286.4</ele>
        <time>2021-08-21T13:31:23Z</time>
      </trkpt>
      <trkpt lat="2.839281" lon="-75.09924">
        <ele>1286.5</ele>
        <time>2021-08-21T13:31:24Z</time>
      </trkpt>
      <trkpt lat="2.839261" lon="-75.09925">
        <ele>1286.7</ele>
        <time>2021-08-21T13:31:25Z</time>
      </trkpt>
      <trkpt lat="2.839242" lon="-75.09925">
        <ele>1286.8</ele>
        <time>2021-08-21T13:31:26Z</time>
      </trkpt>
      <trkpt lat="2.839222" lon="-75.09926">
        <ele>1287.0</ele>
        <time>2021-08-21T13:31:27Z</time>
      </trkpt>
      <trkpt lat="2.839203" lon="-75.09926">
        <ele>1287.2</ele>
        <time>2021-08-21T13:31:28Z</time>
      </trkpt>
      <trkpt lat="2.839185" lon="-75.099266">
        <ele>1287.3</ele>
        <time>2021-08-21T13:31:29Z</time>
      </trkpt>
      <trkpt lat="2.839167" lon="-75.099266">
        <ele>1287.5</ele>
        <time>2021-08-21T13:31:30Z</time>
      </trkpt>
      <trkpt lat="2.839149" lon="-75.09927">
        <ele>1287.6</ele>
        <time>2021-08-21T13:31:31Z</time>
      </trkpt>
      <trkpt lat="2.839131" lon="-75.09927">
        <ele>1287.8</ele>
        <time>2021-08-21T13:31:32Z</time>
      </trkpt>
      <trkpt lat="2.839113" lon="-75.09928">
        <ele>1287.9</ele>
        <time>2021-08-21T13:31:33Z</time>
      </trkpt>
      <trkpt lat="2.839095" lon="-75.09928">
        <ele>1288.1</ele>
        <time>2021-08-21T13:31:34Z</time>
      </trkpt>
      <trkpt lat="2.839075" lon="-75.09929">
        <ele>1288.2</ele>
        <time>2021-08-21T13:31:35Z</time>
      </trkpt>
      <trkpt lat="2.839057" lon="-75.09929">
        <ele>1288.4</ele>
        <time>2021-08-21T13:31:36Z</time>
      </trkpt>
      <trkpt lat="2.83904" lon="-75.0993">
        <ele>1288.6</ele>
        <time>2021-08-21T13:31:37Z</time>
      </trkpt>
      <trkpt lat="2.839023" lon="-75.0993">
        <ele>1288.7</ele>
        <time>2021-08-21T13:31:38Z</time>
      </trkpt>
      <trkpt lat="2.839006" lon="-75.099304">
        <ele>1288.9</ele>
        <time>2021-08-21T13:31:39Z</time>
      </trkpt>
      <trkpt lat="2.838991" lon="-75.099304">
        <ele>1289.0</ele>
        <time>2021-08-21T13:31:40Z</time>
      </trkpt>
      <trkpt lat="2.838975" lon="-75.099304">
        <ele>1289.1</ele>
        <time>2021-08-21T13:31:41Z</time>
      </trkpt>
      <trkpt lat="2.838958" lon="-75.09931">
        <ele>1289.3</ele>
        <time>2021-08-21T13:31:42Z</time>
      </trkpt>
      <trkpt lat="2.838942" lon="-75.09931">
        <ele>1289.4</ele>
        <time>2021-08-21T13:31:43Z</time>
      </trkpt>
      <trkpt lat="2.838927" lon="-75.09931">
        <ele>1289.6</ele>
        <time>2021-08-21T13:31:44Z</time>
      </trkpt>
      <trkpt lat="2.83891" lon="-75.09932">
        <ele>1289.7</ele>
        <time>2021-08-21T13:31:45Z</time>
      </trkpt>
      <trkpt lat="2.838894" lon="-75.09932">
        <ele>1289.9</ele>
        <time>2021-08-21T13:31:46Z</time>
      </trkpt>
      <trkpt lat="2.838877" lon="-75.09932">
        <ele>1290.0</ele>
        <time>2021-08-21T13:31:47Z</time>
      </trkpt>
      <trkpt lat="2.838859" lon="-75.09932">
        <ele>1290.2</ele>
        <time>2021-08-21T13:31:48Z</time>
      </trkpt>
      <trkpt lat="2.838842" lon="-75.09933">
        <ele>1290.3</ele>
        <time>2021-08-21T13:31:49Z</time>
      </trkpt>
      <trkpt lat="2.838825" lon="-75.09933">
        <ele>1290.4</ele>
        <time>2021-08-21T13:31:50Z</time>
      </trkpt>
      <trkpt lat="2.838807" lon="-75.099335">
        <ele>1290.6</ele>
        <time>2021-08-21T13:31:51Z</time>
      </trkpt>
      <trkpt lat="2.83879" lon="-75.099335">
        <ele>1290.7</ele>
        <time>2021-08-21T13:31:52Z</time>
      </trkpt>
      <trkpt lat="2.838774" lon="-75.099335">
        <ele>1290.8</ele>
        <time>2021-08-21T13:31:53Z</time>
      </trkpt>
      <trkpt lat="2.838758" lon="-75.099335">
        <ele>1290.9</ele>
        <time>2021-08-21T13:31:54Z</time>
      </trkpt>
      <trkpt lat="2.838743" lon="-75.099335">
        <ele>1291.1</ele>
        <time>2021-08-21T13:31:55Z</time>
      </trkpt>
      <trkpt lat="2.838729" lon="-75.099335">
        <ele>1291.2</ele>
        <time>2021-08-21T13:31:56Z</time>
      </trkpt>
      <trkpt lat="2.838714" lon="-75.09934">
        <ele>1291.3</ele>
        <time>2021-08-21T13:31:57Z</time>
      </trkpt>
      <trkpt lat="2.838699" lon="-75.09934">
        <ele>1291.4</ele>
        <time>2021-08-21T13:31:58Z</time>
      </trkpt>
      <trkpt lat="2.838683" lon="-75.09934">
        <ele>1291.5</ele>
        <time>2021-08-21T13:31:59Z</time>
      </trkpt>
      <trkpt lat="2.838668" lon="-75.09935">
        <ele>1291.6</ele>
        <time>2021-08-21T13:32:00Z</time>
      </trkpt>
      <trkpt lat="2.838653" lon="-75.09936">
        <ele>1291.7</ele>
        <time>2021-08-21T13:32:01Z</time>
      </trkpt>
      <trkpt lat="2.838638" lon="-75.09936">
        <ele>1291.8</ele>
        <time>2021-08-21T13:32:02Z</time>
      </trkpt>
      <trkpt lat="2.838622" lon="-75.099365">
        <ele>1291.9</ele>
        <time>2021-08-21T13:32:03Z</time>
      </trkpt>
      <trkpt lat="2.838607" lon="-75.099365">
        <ele>1292.0</ele>
        <time>2021-08-21T13:32:04Z</time>
      </trkpt>
      <trkpt lat="2.838591" lon="-75.09937">
        <ele>1292.1</ele>
        <time>2021-08-21T13:32:05Z</time>
      </trkpt>
      <trkpt lat="2.838575" lon="-75.09938">
        <ele>1292.2</ele>
        <time>2021-08-21T13:32:06Z</time>
      </trkpt>
      <trkpt lat="2.83856" lon="-75.09938">
        <ele>1292.3</ele>
        <time>2021-08-21T13:32:07Z</time>
      </trkpt>
      <trkpt lat="2.838545" lon="-75.09939">
        <ele>1292.4</ele>
        <time>2021-08-21T13:32:08Z</time>
      </trkpt>
      <trkpt lat="2.838531" lon="-75.09939">
        <ele>1292.5</ele>
        <time>2021-08-21T13:32:09Z</time>
      </trkpt>
      <trkpt lat="2.838516" lon="-75.099396">
        <ele>1292.6</ele>
        <time>2021-08-21T13:32:10Z</time>
      </trkpt>
      <trkpt lat="2.838502" lon="-75.099396">
        <ele>1292.7</ele>
        <time>2021-08-21T13:32:11Z</time>
      </trkpt>
      <trkpt lat="2.838487" lon="-75.0994">
        <ele>1292.8</ele>
        <time>2021-08-21T13:32:12Z</time>
      </trkpt>
      <trkpt lat="2.838472" lon="-75.09941">
        <ele>1292.9</ele>
        <time>2021-08-21T13:32:13Z</time>
      </trkpt>
      <trkpt lat="2.838457" lon="-75.09942">
        <ele>1293.0</ele>
        <time>2021-08-21T13:32:14Z</time>
      </trkpt>
      <trkpt lat="2.838442" lon="-75.09943">
        <ele>1293.1</ele>
        <time>2021-08-21T13:32:15Z</time>
      </trkpt>
      <trkpt lat="2.838427" lon="-75.099434">
        <ele>1293.2</ele>
        <time>2021-08-21T13:32:16Z</time>
      </trkpt>
      <trkpt lat="2.838411" lon="-75.09944">
        <ele>1293.3</ele>
        <time>2021-08-21T13:32:17Z</time>
      </trkpt>
      <trkpt lat="2.838395" lon="-75.09944">
        <ele>1293.4</ele>
        <time>2021-08-21T13:32:18Z</time>
      </trkpt>
      <trkpt lat="2.83838" lon="-75.09945">
        <ele>1293.5</ele>
        <time>2021-08-21T13:32:19Z</time>
      </trkpt>
      <trkpt lat="2.838365" lon="-75.09946">
        <ele>1293.7</ele>
        <time>2021-08-21T13:32:20Z</time>
      </trkpt>
      <trkpt lat="2.83835" lon="-75.099464">
        <ele>1293.8</ele>
        <time>2021-08-21T13:32:21Z</time>
      </trkpt>
      <trkpt lat="2.838336" lon="-75.09947">
        <ele>1293.9</ele>
        <time>2021-08-21T13:32:22Z</time>
      </trkpt>
      <trkpt lat="2.838321" lon="-75.09948">
        <ele>1294.0</ele>
        <time>2021-08-21T13:32:23Z</time>
      </trkpt>
      <trkpt lat="2.838307" lon="-75.09949">
        <ele>1294.0</ele>
        <time>2021-08-21T13:32:24Z</time>
      </trkpt>
      <trkpt lat="2.838292" lon="-75.099495">
        <ele>1294.1</ele>
        <time>2021-08-21T13:32:25Z</time>
      </trkpt>
      <trkpt lat="2.838277" lon="-75.0995">
        <ele>1294.3</ele>
        <time>2021-08-21T13:32:26Z</time>
      </trkpt>
      <trkpt lat="2.83826" lon="-75.09951">
        <ele>1294.4</ele>
        <time>2021-08-21T13:32:27Z</time>
      </trkpt>
      <trkpt lat="2.838244" lon="-75.09952">
        <ele>1294.5</ele>
        <time>2021-08-21T13:32:28Z</time>
      </trkpt>
      <trkpt lat="2.838228" lon="-75.099525">
        <ele>1294.6</ele>
        <time>2021-08-21T13:32:29Z</time>
      </trkpt>
      <trkpt lat="2.838212" lon="-75.09953">
        <ele>1294.7</ele>
        <time>2021-08-21T13:32:30Z</time>
      </trkpt>
      <trkpt lat="2.838196" lon="-75.09954">
        <ele>1294.7</ele>
        <time>2021-08-21T13:32:31Z</time>
      </trkpt>
      <trkpt lat="2.83818" lon="-75.09955">
        <ele>1294.8</ele>
        <time>2021-08-21T13:32:32Z</time>
      </trkpt>
      <trkpt lat="2.838162" lon="-75.099556">
        <ele>1294.9</ele>
        <time>2021-08-21T13:32:33Z</time>
      </trkpt>
      <trkpt lat="2.838145" lon="-75.09956">
        <ele>1295.0</ele>
        <time>2021-08-21T13:32:34Z</time>
      </trkpt>
      <trkpt lat="2.838127" lon="-75.09957">
        <ele>1295.2</ele>
        <time>2021-08-21T13:32:35Z</time>
      </trkpt>
      <trkpt lat="2.838111" lon="-75.09958">
        <ele>1295.2</ele>
        <time>2021-08-21T13:32:36Z</time>
      </trkpt>
      <trkpt lat="2.838094" lon="-75.09959">
        <ele>1295.3</ele>
        <time>2021-08-21T13:32:37Z</time>
      </trkpt>
      <trkpt lat="2.83806" lon="-75.0996">
        <ele>1295.5</ele>
        <time>2021-08-21T13:32:38Z</time>
      </trkpt>
      <trkpt lat="2.838077" lon="-75.099594">
        <ele>1295.4</ele>
        <time>2021-08-21T13:32:38Z</time>
      </trkpt>
      <trkpt lat="2.838043" lon="-75.09961">
        <ele>1295.6</ele>
        <time>2021-08-21T13:32:39Z</time>
      </trkpt>
      <trkpt lat="2.838026" lon="-75.09962">
        <ele>1295.8</ele>
        <time>2021-08-21T13:32:40Z</time>
      </trkpt>
      <trkpt lat="2.838009" lon="-75.099625">
        <ele>1295.9</ele>
        <time>2021-08-21T13:32:41Z</time>
      </trkpt>
      <trkpt lat="2.837991" lon="-75.099625">
        <ele>1296.0</ele>
        <time>2021-08-21T13:32:42Z</time>
      </trkpt>
      <trkpt lat="2.837974" lon="-75.09963">
        <ele>1296.1</ele>
        <time>2021-08-21T13:32:43Z</time>
      </trkpt>
      <trkpt lat="2.837956" lon="-75.09963">
        <ele>1296.2</ele>
        <time>2021-08-21T13:32:44Z</time>
      </trkpt>
      <trkpt lat="2.837939" lon="-75.09964">
        <ele>1296.3</ele>
        <time>2021-08-21T13:32:45Z</time>
      </trkpt>
      <trkpt lat="2.837921" lon="-75.09964">
        <ele>1296.4</ele>
        <time>2021-08-21T13:32:46Z</time>
      </trkpt>
      <trkpt lat="2.837902" lon="-75.09963">
        <ele>1296.5</ele>
        <time>2021-08-21T13:32:47Z</time>
      </trkpt>
      <trkpt lat="2.837884" lon="-75.09963">
        <ele>1296.7</ele>
        <time>2021-08-21T13:32:48Z</time>
      </trkpt>
      <trkpt lat="2.837866" lon="-75.09963">
        <ele>1296.8</ele>
        <time>2021-08-21T13:32:49Z</time>
      </trkpt>
      <trkpt lat="2.83785" lon="-75.099625">
        <ele>1296.9</ele>
        <time>2021-08-21T13:32:50Z</time>
      </trkpt>
      <trkpt lat="2.837833" lon="-75.09962">
        <ele>1297.0</ele>
        <time>2021-08-21T13:32:51Z</time>
      </trkpt>
      <trkpt lat="2.837817" lon="-75.09961">
        <ele>1297.1</ele>
        <time>2021-08-21T13:32:52Z</time>
      </trkpt>
      <trkpt lat="2.837802" lon="-75.0996">
        <ele>1297.2</ele>
        <time>2021-08-21T13:32:53Z</time>
      </trkpt>
      <trkpt lat="2.837788" lon="-75.09959">
        <ele>1297.3</ele>
        <time>2021-08-21T13:32:54Z</time>
      </trkpt>
      <trkpt lat="2.837774" lon="-75.09958">
        <ele>1297.4</ele>
        <time>2021-08-21T13:32:55Z</time>
      </trkpt>
      <trkpt lat="2.83776" lon="-75.09957">
        <ele>1297.5</ele>
        <time>2021-08-21T13:32:56Z</time>
      </trkpt>
      <trkpt lat="2.837748" lon="-75.099556">
        <ele>1297.6</ele>
        <time>2021-08-21T13:32:57Z</time>
      </trkpt>
      <trkpt lat="2.837736" lon="-75.09954">
        <ele>1297.7</ele>
        <time>2021-08-21T13:32:58Z</time>
      </trkpt>
      <trkpt lat="2.837724" lon="-75.09953">
        <ele>1297.8</ele>
        <time>2021-08-21T13:32:59Z</time>
      </trkpt>
      <trkpt lat="2.837711" lon="-75.09952">
        <ele>1297.9</ele>
        <time>2021-08-21T13:33:00Z</time>
      </trkpt>
      <trkpt lat="2.837698" lon="-75.0995">
        <ele>1298.0</ele>
        <time>2021-08-21T13:33:01Z</time>
      </trkpt>
      <trkpt lat="2.837684" lon="-75.09949">
        <ele>1298.1</ele>
        <time>2021-08-21T13:33:02Z</time>
      </trkpt>
      <trkpt lat="2.837671" lon="-75.09948">
        <ele>1298.1</ele>
        <time>2021-08-21T13:33:03Z</time>
      </trkpt>
      <trkpt lat="2.837655" lon="-75.099464">
        <ele>1298.3</ele>
        <time>2021-08-21T13:33:04Z</time>
      </trkpt>
      <trkpt lat="2.837639" lon="-75.09945">
        <ele>1298.3</ele>
        <time>2021-08-21T13:33:05Z</time>
      </trkpt>
      <trkpt lat="2.837624" lon="-75.099434">
        <ele>1298.4</ele>
        <time>2021-08-21T13:33:06Z</time>
      </trkpt>
      <trkpt lat="2.837607" lon="-75.09943">
        <ele>1298.5</ele>
        <time>2021-08-21T13:33:07Z</time>
      </trkpt>
      <trkpt lat="2.837591" lon="-75.09941">
        <ele>1298.6</ele>
        <time>2021-08-21T13:33:08Z</time>
      </trkpt>
      <trkpt lat="2.837575" lon="-75.0994">
        <ele>1298.8</ele>
        <time>2021-08-21T13:33:09Z</time>
      </trkpt>
      <trkpt lat="2.837562" lon="-75.09939">
        <ele>1298.9</ele>
        <time>2021-08-21T13:33:10Z</time>
      </trkpt>
      <trkpt lat="2.837549" lon="-75.09938">
        <ele>1298.9</ele>
        <time>2021-08-21T13:33:11Z</time>
      </trkpt>
      <trkpt lat="2.837537" lon="-75.099365">
        <ele>1299.0</ele>
        <time>2021-08-21T13:33:12Z</time>
      </trkpt>
      <trkpt lat="2.837526" lon="-75.09935">
        <ele>1299.1</ele>
        <time>2021-08-21T13:33:13Z</time>
      </trkpt>
      <trkpt lat="2.837514" lon="-75.09934">
        <ele>1299.2</ele>
        <time>2021-08-21T13:33:14Z</time>
      </trkpt>
      <trkpt lat="2.837501" lon="-75.09933">
        <ele>1299.4</ele>
        <time>2021-08-21T13:33:15Z</time>
      </trkpt>
      <trkpt lat="2.837487" lon="-75.09931">
        <ele>1299.5</ele>
        <time>2021-08-21T13:33:16Z</time>
      </trkpt>
      <trkpt lat="2.837473" lon="-75.099304">
        <ele>1299.6</ele>
        <time>2021-08-21T13:33:17Z</time>
      </trkpt>
      <trkpt lat="2.837458" lon="-75.09929">
        <ele>1299.7</ele>
        <time>2021-08-21T13:33:18Z</time>
      </trkpt>
      <trkpt lat="2.837443" lon="-75.09927">
        <ele>1299.8</ele>
        <time>2021-08-21T13:33:19Z</time>
      </trkpt>
      <trkpt lat="2.837427" lon="-75.09926">
        <ele>1300.0</ele>
        <time>2021-08-21T13:33:20Z</time>
      </trkpt>
      <trkpt lat="2.837409" lon="-75.09925">
        <ele>1300.1</ele>
        <time>2021-08-21T13:33:21Z</time>
      </trkpt>
      <trkpt lat="2.837393" lon="-75.099236">
        <ele>1300.2</ele>
        <time>2021-08-21T13:33:22Z</time>
      </trkpt>
      <trkpt lat="2.837376" lon="-75.09922">
        <ele>1300.4</ele>
        <time>2021-08-21T13:33:23Z</time>
      </trkpt>
      <trkpt lat="2.837361" lon="-75.099205">
        <ele>1300.5</ele>
        <time>2021-08-21T13:33:24Z</time>
      </trkpt>
      <trkpt lat="2.837347" lon="-75.09919">
        <ele>1300.6</ele>
        <time>2021-08-21T13:33:25Z</time>
      </trkpt>
      <trkpt lat="2.837332" lon="-75.099174">
        <ele>1300.7</ele>
        <time>2021-08-21T13:33:26Z</time>
      </trkpt>
      <trkpt lat="2.837317" lon="-75.09917">
        <ele>1300.8</ele>
        <time>2021-08-21T13:33:27Z</time>
      </trkpt>
      <trkpt lat="2.837301" lon="-75.09915">
        <ele>1301.0</ele>
        <time>2021-08-21T13:33:28Z</time>
      </trkpt>
      <trkpt lat="2.837285" lon="-75.099144">
        <ele>1301.1</ele>
        <time>2021-08-21T13:33:29Z</time>
      </trkpt>
      <trkpt lat="2.837267" lon="-75.09913">
        <ele>1301.2</ele>
        <time>2021-08-21T13:33:30Z</time>
      </trkpt>
      <trkpt lat="2.83725" lon="-75.09912">
        <ele>1301.3</ele>
        <time>2021-08-21T13:33:31Z</time>
      </trkpt>
      <trkpt lat="2.837232" lon="-75.09911">
        <ele>1301.5</ele>
        <time>2021-08-21T13:33:32Z</time>
      </trkpt>
      <trkpt lat="2.837215" lon="-75.0991">
        <ele>1301.6</ele>
        <time>2021-08-21T13:33:33Z</time>
      </trkpt>
      <trkpt lat="2.837198" lon="-75.09908">
        <ele>1301.7</ele>
        <time>2021-08-21T13:33:34Z</time>
      </trkpt>
      <trkpt lat="2.837181" lon="-75.099075">
        <ele>1301.9</ele>
        <time>2021-08-21T13:33:35Z</time>
      </trkpt>
      <trkpt lat="2.837165" lon="-75.09906">
        <ele>1302.0</ele>
        <time>2021-08-21T13:33:36Z</time>
      </trkpt>
      <trkpt lat="2.837149" lon="-75.09905">
        <ele>1302.1</ele>
        <time>2021-08-21T13:33:37Z</time>
      </trkpt>
      <trkpt lat="2.837135" lon="-75.09904">
        <ele>1302.3</ele>
        <time>2021-08-21T13:33:38Z</time>
      </trkpt>
      <trkpt lat="2.837121" lon="-75.09902">
        <ele>1302.4</ele>
        <time>2021-08-21T13:33:39Z</time>
      </trkpt>
      <trkpt lat="2.837107" lon="-75.09901">
        <ele>1302.5</ele>
        <time>2021-08-21T13:33:40Z</time>
      </trkpt>
      <trkpt lat="2.837095" lon="-75.09899">
        <ele>1302.6</ele>
        <time>2021-08-21T13:33:41Z</time>
      </trkpt>
      <trkpt lat="2.837083" lon="-75.098976">
        <ele>1302.8</ele>
        <time>2021-08-21T13:33:42Z</time>
      </trkpt>
      <trkpt lat="2.837071" lon="-75.09896">
        <ele>1302.9</ele>
        <time>2021-08-21T13:33:43Z</time>
      </trkpt>
      <trkpt lat="2.83706" lon="-75.098946">
        <ele>1303.0</ele>
        <time>2021-08-21T13:33:44Z</time>
      </trkpt>
      <trkpt lat="2.837047" lon="-75.09893">
        <ele>1303.2</ele>
        <time>2021-08-21T13:33:45Z</time>
      </trkpt>
      <trkpt lat="2.837034" lon="-75.09892">
        <ele>1303.3</ele>
        <time>2021-08-21T13:33:46Z</time>
      </trkpt>
      <trkpt lat="2.837019" lon="-75.0989">
        <ele>1303.4</ele>
        <time>2021-08-21T13:33:47Z</time>
      </trkpt>
      <trkpt lat="2.837005" lon="-75.098885">
        <ele>1303.6</ele>
        <time>2021-08-21T13:33:48Z</time>
      </trkpt>
      <trkpt lat="2.836992" lon="-75.09887">
        <ele>1303.7</ele>
        <time>2021-08-21T13:33:49Z</time>
      </trkpt>
      <trkpt lat="2.83698" lon="-75.09885">
        <ele>1303.9</ele>
        <time>2021-08-21T13:33:50Z</time>
      </trkpt>
      <trkpt lat="2.836968" lon="-75.09883">
        <ele>1304.0</ele>
        <time>2021-08-21T13:33:51Z</time>
      </trkpt>
      <trkpt lat="2.836956" lon="-75.09881">
        <ele>1304.2</ele>
        <time>2021-08-21T13:33:52Z</time>
      </trkpt>
      <trkpt lat="2.836945" lon="-75.09879">
        <ele>1304.3</ele>
        <time>2021-08-21T13:33:53Z</time>
      </trkpt>
      <trkpt lat="2.836933" lon="-75.09877">
        <ele>1304.5</ele>
        <time>2021-08-21T13:33:54Z</time>
      </trkpt>
      <trkpt lat="2.836921" lon="-75.098755">
        <ele>1304.6</ele>
        <time>2021-08-21T13:33:55Z</time>
      </trkpt>
      <trkpt lat="2.836908" lon="-75.09873">
        <ele>1304.8</ele>
        <time>2021-08-21T13:33:56Z</time>
      </trkpt>
      <trkpt lat="2.836896" lon="-75.09872">
        <ele>1304.9</ele>
        <time>2021-08-21T13:33:57Z</time>
      </trkpt>
      <trkpt lat="2.836885" lon="-75.098694">
        <ele>1305.1</ele>
        <time>2021-08-21T13:33:58Z</time>
      </trkpt>
      <trkpt lat="2.836873" lon="-75.09868">
        <ele>1305.2</ele>
        <time>2021-08-21T13:33:59Z</time>
      </trkpt>
      <trkpt lat="2.836861" lon="-75.098656">
        <ele>1305.4</ele>
        <time>2021-08-21T13:34:00Z</time>
      </trkpt>
      <trkpt lat="2.83685" lon="-75.09864">
        <ele>1305.5</ele>
        <time>2021-08-21T13:34:01Z</time>
      </trkpt>
      <trkpt lat="2.83684" lon="-75.098625">
        <ele>1305.7</ele>
        <time>2021-08-21T13:34:02Z</time>
      </trkpt>
      <trkpt lat="2.83683" lon="-75.0986">
        <ele>1305.8</ele>
        <time>2021-08-21T13:34:03Z</time>
      </trkpt>
      <trkpt lat="2.83682" lon="-75.09859">
        <ele>1305.9</ele>
        <time>2021-08-21T13:34:04Z</time>
      </trkpt>
      <trkpt lat="2.836809" lon="-75.098564">
        <ele>1306.1</ele>
        <time>2021-08-21T13:34:05Z</time>
      </trkpt>
      <trkpt lat="2.836799" lon="-75.09855">
        <ele>1306.2</ele>
        <time>2021-08-21T13:34:06Z</time>
      </trkpt>
      <trkpt lat="2.836788" lon="-75.09853">
        <ele>1306.3</ele>
        <time>2021-08-21T13:34:07Z</time>
      </trkpt>
      <trkpt lat="2.836776" lon="-75.09852">
        <ele>1306.5</ele>
        <time>2021-08-21T13:34:08Z</time>
      </trkpt>
      <trkpt lat="2.836764" lon="-75.0985">
        <ele>1306.6</ele>
        <time>2021-08-21T13:34:09Z</time>
      </trkpt>
      <trkpt lat="2.83675" lon="-75.09849">
        <ele>1306.7</ele>
        <time>2021-08-21T13:34:10Z</time>
      </trkpt>
      <trkpt lat="2.836735" lon="-75.09847">
        <ele>1306.8</ele>
        <time>2021-08-21T13:34:11Z</time>
      </trkpt>
      <trkpt lat="2.836719" lon="-75.09846">
        <ele>1306.9</ele>
        <time>2021-08-21T13:34:12Z</time>
      </trkpt>
      <trkpt lat="2.836701" lon="-75.09844">
        <ele>1307.0</ele>
        <time>2021-08-21T13:34:13Z</time>
      </trkpt>
      <trkpt lat="2.836683" lon="-75.098434">
        <ele>1307.2</ele>
        <time>2021-08-21T13:34:14Z</time>
      </trkpt>
      <trkpt lat="2.836665" lon="-75.09842">
        <ele>1307.3</ele>
        <time>2021-08-21T13:34:15Z</time>
      </trkpt>
      <trkpt lat="2.836648" lon="-75.098404">
        <ele>1307.4</ele>
        <time>2021-08-21T13:34:16Z</time>
      </trkpt>
      <trkpt lat="2.836631" lon="-75.09839">
        <ele>1307.5</ele>
        <time>2021-08-21T13:34:17Z</time>
      </trkpt>
      <trkpt lat="2.836615" lon="-75.09837">
        <ele>1307.6</ele>
        <time>2021-08-21T13:34:18Z</time>
      </trkpt>
      <trkpt lat="2.836599" lon="-75.09836">
        <ele>1307.7</ele>
        <time>2021-08-21T13:34:19Z</time>
      </trkpt>
      <trkpt lat="2.836584" lon="-75.09834">
        <ele>1307.8</ele>
        <time>2021-08-21T13:34:20Z</time>
      </trkpt>
      <trkpt lat="2.836569" lon="-75.09833">
        <ele>1307.9</ele>
        <time>2021-08-21T13:34:21Z</time>
      </trkpt>
      <trkpt lat="2.836555" lon="-75.098305">
        <ele>1308.0</ele>
        <time>2021-08-21T13:34:22Z</time>
      </trkpt>
      <trkpt lat="2.83654" lon="-75.09829">
        <ele>1308.1</ele>
        <time>2021-08-21T13:34:23Z</time>
      </trkpt>
      <trkpt lat="2.836525" lon="-75.098274">
        <ele>1308.2</ele>
        <time>2021-08-21T13:34:24Z</time>
      </trkpt>
      <trkpt lat="2.83651" lon="-75.09826">
        <ele>1308.2</ele>
        <time>2021-08-21T13:34:25Z</time>
      </trkpt>
      <trkpt lat="2.836497" lon="-75.09824">
        <ele>1308.3</ele>
        <time>2021-08-21T13:34:26Z</time>
      </trkpt>
      <trkpt lat="2.836485" lon="-75.09823">
        <ele>1308.4</ele>
        <time>2021-08-21T13:34:27Z</time>
      </trkpt>
      <trkpt lat="2.836471" lon="-75.098206">
        <ele>1308.5</ele>
        <time>2021-08-21T13:34:28Z</time>
      </trkpt>
      <trkpt lat="2.836458" lon="-75.09819">
        <ele>1308.6</ele>
        <time>2021-08-21T13:34:29Z</time>
      </trkpt>
      <trkpt lat="2.836445" lon="-75.098175">
        <ele>1308.7</ele>
        <time>2021-08-21T13:34:30Z</time>
      </trkpt>
      <trkpt lat="2.836433" lon="-75.09815">
        <ele>1308.8</ele>
        <time>2021-08-21T13:34:31Z</time>
      </trkpt>
      <trkpt lat="2.836421" lon="-75.09814">
        <ele>1308.9</ele>
        <time>2021-08-21T13:34:32Z</time>
      </trkpt>
      <trkpt lat="2.836408" lon="-75.09812">
        <ele>1309.0</ele>
        <time>2021-08-21T13:34:33Z</time>
      </trkpt>
      <trkpt lat="2.836396" lon="-75.09811">
        <ele>1309.1</ele>
        <time>2021-08-21T13:34:34Z</time>
      </trkpt>
      <trkpt lat="2.836383" lon="-75.09808">
        <ele>1309.2</ele>
        <time>2021-08-21T13:34:35Z</time>
      </trkpt>
      <trkpt lat="2.836369" lon="-75.09807">
        <ele>1309.3</ele>
        <time>2021-08-21T13:34:36Z</time>
      </trkpt>
      <trkpt lat="2.836357" lon="-75.09805">
        <ele>1309.4</ele>
        <time>2021-08-21T13:34:37Z</time>
      </trkpt>
      <trkpt lat="2.836344" lon="-75.09804">
        <ele>1309.4</ele>
        <time>2021-08-21T13:34:38Z</time>
      </trkpt>
      <trkpt lat="2.836331" lon="-75.09802">
        <ele>1309.6</ele>
        <time>2021-08-21T13:34:39Z</time>
      </trkpt>
      <trkpt lat="2.83632" lon="-75.098">
        <ele>1309.6</ele>
        <time>2021-08-21T13:34:40Z</time>
      </trkpt>
      <trkpt lat="2.836307" lon="-75.097984">
        <ele>1309.7</ele>
        <time>2021-08-21T13:34:41Z</time>
      </trkpt>
      <trkpt lat="2.836295" lon="-75.09796">
        <ele>1309.8</ele>
        <time>2021-08-21T13:34:42Z</time>
      </trkpt>
      <trkpt lat="2.836283" lon="-75.097946">
        <ele>1310.0</ele>
        <time>2021-08-21T13:34:43Z</time>
      </trkpt>
      <trkpt lat="2.836272" lon="-75.09792">
        <ele>1310.1</ele>
        <time>2021-08-21T13:34:44Z</time>
      </trkpt>
      <trkpt lat="2.836262" lon="-75.09791">
        <ele>1310.2</ele>
        <time>2021-08-21T13:34:45Z</time>
      </trkpt>
      <trkpt lat="2.836252" lon="-75.09789">
        <ele>1310.2</ele>
        <time>2021-08-21T13:34:46Z</time>
      </trkpt>
      <trkpt lat="2.836241" lon="-75.09787">
        <ele>1310.3</ele>
        <time>2021-08-21T13:34:47Z</time>
      </trkpt>
      <trkpt lat="2.836231" lon="-75.097855">
        <ele>1310.4</ele>
        <time>2021-08-21T13:34:48Z</time>
      </trkpt>
      <trkpt lat="2.836221" lon="-75.09783">
        <ele>1310.5</ele>
        <time>2021-08-21T13:34:49Z</time>
      </trkpt>
      <trkpt lat="2.83621" lon="-75.09782">
        <ele>1310.6</ele>
        <time>2021-08-21T13:34:50Z</time>
      </trkpt>
      <trkpt lat="2.836201" lon="-75.0978">
        <ele>1310.7</ele>
        <time>2021-08-21T13:34:51Z</time>
      </trkpt>
      <trkpt lat="2.836191" lon="-75.09778">
        <ele>1310.8</ele>
        <time>2021-08-21T13:34:52Z</time>
      </trkpt>
      <trkpt lat="2.836182" lon="-75.09776">
        <ele>1310.9</ele>
        <time>2021-08-21T13:34:53Z</time>
      </trkpt>
      <trkpt lat="2.836174" lon="-75.09774">
        <ele>1311.0</ele>
        <time>2021-08-21T13:34:54Z</time>
      </trkpt>
      <trkpt lat="2.836165" lon="-75.09772">
        <ele>1311.1</ele>
        <time>2021-08-21T13:34:55Z</time>
      </trkpt>
      <trkpt lat="2.836157" lon="-75.097694">
        <ele>1311.2</ele>
        <time>2021-08-21T13:34:56Z</time>
      </trkpt>
      <trkpt lat="2.836149" lon="-75.09768">
        <ele>1311.3</ele>
        <time>2021-08-21T13:34:57Z</time>
      </trkpt>
      <trkpt lat="2.836138" lon="-75.09766">
        <ele>1311.4</ele>
        <time>2021-08-21T13:34:58Z</time>
      </trkpt>
      <trkpt lat="2.836126" lon="-75.09764">
        <ele>1311.4</ele>
        <time>2021-08-21T13:34:59Z</time>
      </trkpt>
      <trkpt lat="2.836115" lon="-75.097626">
        <ele>1311.5</ele>
        <time>2021-08-21T13:35:00Z</time>
      </trkpt>
      <trkpt lat="2.836104" lon="-75.0976">
        <ele>1311.6</ele>
        <time>2021-08-21T13:35:01Z</time>
      </trkpt>
      <trkpt lat="2.836095" lon="-75.09759">
        <ele>1311.7</ele>
        <time>2021-08-21T13:35:02Z</time>
      </trkpt>
      <trkpt lat="2.836088" lon="-75.097565">
        <ele>1311.7</ele>
        <time>2021-08-21T13:35:03Z</time>
      </trkpt>
      <trkpt lat="2.836079" lon="-75.09754">
        <ele>1311.8</ele>
        <time>2021-08-21T13:35:04Z</time>
      </trkpt>
      <trkpt lat="2.836069" lon="-75.09753">
        <ele>1311.9</ele>
        <time>2021-08-21T13:35:05Z</time>
      </trkpt>
      <trkpt lat="2.83606" lon="-75.09751">
        <ele>1311.9</ele>
        <time>2021-08-21T13:35:06Z</time>
      </trkpt>
      <trkpt lat="2.836053" lon="-75.09749">
        <ele>1312.0</ele>
        <time>2021-08-21T13:35:07Z</time>
      </trkpt>
      <trkpt lat="2.836045" lon="-75.09747">
        <ele>1312.2</ele>
        <time>2021-08-21T13:35:08Z</time>
      </trkpt>
      <trkpt lat="2.836038" lon="-75.09745">
        <ele>1312.4</ele>
        <time>2021-08-21T13:35:09Z</time>
      </trkpt>
      <trkpt lat="2.83603" lon="-75.097435">
        <ele>1312.6</ele>
        <time>2021-08-21T13:35:10Z</time>
      </trkpt>
      <trkpt lat="2.836023" lon="-75.09742">
        <ele>1312.7</ele>
        <time>2021-08-21T13:35:11Z</time>
      </trkpt>
      <trkpt lat="2.836015" lon="-75.0974">
        <ele>1312.9</ele>
        <time>2021-08-21T13:35:12Z</time>
      </trkpt>
      <trkpt lat="2.836006" lon="-75.09738">
        <ele>1313.1</ele>
        <time>2021-08-21T13:35:13Z</time>
      </trkpt>
      <trkpt lat="2.835996" lon="-75.09737">
        <ele>1313.3</ele>
        <time>2021-08-21T13:35:14Z</time>
      </trkpt>
      <trkpt lat="2.835986" lon="-75.09734">
        <ele>1313.4</ele>
        <time>2021-08-21T13:35:15Z</time>
      </trkpt>
      <trkpt lat="2.835974" lon="-75.09733">
        <ele>1313.6</ele>
        <time>2021-08-21T13:35:16Z</time>
      </trkpt>
      <trkpt lat="2.835961" lon="-75.097305">
        <ele>1313.9</ele>
        <time>2021-08-21T13:35:17Z</time>
      </trkpt>
      <trkpt lat="2.835948" lon="-75.09729">
        <ele>1314.1</ele>
        <time>2021-08-21T13:35:18Z</time>
      </trkpt>
      <trkpt lat="2.835937" lon="-75.09727">
        <ele>1314.3</ele>
        <time>2021-08-21T13:35:19Z</time>
      </trkpt>
      <trkpt lat="2.835925" lon="-75.097244">
        <ele>1314.5</ele>
        <time>2021-08-21T13:35:20Z</time>
      </trkpt>
      <trkpt lat="2.835912" lon="-75.09723">
        <ele>1314.7</ele>
        <time>2021-08-21T13:35:21Z</time>
      </trkpt>
      <trkpt lat="2.835897" lon="-75.09721">
        <ele>1314.9</ele>
        <time>2021-08-21T13:35:22Z</time>
      </trkpt>
      <trkpt lat="2.835884" lon="-75.09719">
        <ele>1315.1</ele>
        <time>2021-08-21T13:35:23Z</time>
      </trkpt>
      <trkpt lat="2.835872" lon="-75.097176">
        <ele>1315.3</ele>
        <time>2021-08-21T13:35:24Z</time>
      </trkpt>
      <trkpt lat="2.83586" lon="-75.09716">
        <ele>1315.6</ele>
        <time>2021-08-21T13:35:25Z</time>
      </trkpt>
      <trkpt lat="2.835849" lon="-75.09714">
        <ele>1315.8</ele>
        <time>2021-08-21T13:35:26Z</time>
      </trkpt>
      <trkpt lat="2.835839" lon="-75.09712">
        <ele>1316.0</ele>
        <time>2021-08-21T13:35:27Z</time>
      </trkpt>
      <trkpt lat="2.835832" lon="-75.0971">
        <ele>1316.2</ele>
        <time>2021-08-21T13:35:28Z</time>
      </trkpt>
      <trkpt lat="2.835825" lon="-75.09708">
        <ele>1316.4</ele>
        <time>2021-08-21T13:35:29Z</time>
      </trkpt>
      <trkpt lat="2.835819" lon="-75.09706">
        <ele>1316.6</ele>
        <time>2021-08-21T13:35:30Z</time>
      </trkpt>
      <trkpt lat="2.835812" lon="-75.09704">
        <ele>1316.7</ele>
        <time>2021-08-21T13:35:31Z</time>
      </trkpt>
      <trkpt lat="2.835805" lon="-75.09702">
        <ele>1316.9</ele>
        <time>2021-08-21T13:35:32Z</time>
      </trkpt>
      <trkpt lat="2.835797" lon="-75.097">
        <ele>1317.1</ele>
        <time>2021-08-21T13:35:33Z</time>
      </trkpt>
      <trkpt lat="2.835787" lon="-75.09698">
        <ele>1317.3</ele>
        <time>2021-08-21T13:35:34Z</time>
      </trkpt>
      <trkpt lat="2.835778" lon="-75.09696">
        <ele>1317.5</ele>
        <time>2021-08-21T13:35:35Z</time>
      </trkpt>
      <trkpt lat="2.835769" lon="-75.09694">
        <ele>1317.6</ele>
        <time>2021-08-21T13:35:36Z</time>
      </trkpt>
      <trkpt lat="2.835759" lon="-75.096924">
        <ele>1317.8</ele>
        <time>2021-08-21T13:35:37Z</time>
      </trkpt>
      <trkpt lat="2.835747" lon="-75.0969">
        <ele>1318.0</ele>
        <time>2021-08-21T13:35:38Z</time>
      </trkpt>
      <trkpt lat="2.835738" lon="-75.096886">
        <ele>1318.2</ele>
        <time>2021-08-21T13:35:39Z</time>
      </trkpt>
      <trkpt lat="2.835729" lon="-75.09686">
        <ele>1318.4</ele>
        <time>2021-08-21T13:35:40Z</time>
      </trkpt>
      <trkpt lat="2.835723" lon="-75.09684">
        <ele>1318.6</ele>
        <time>2021-08-21T13:35:41Z</time>
      </trkpt>
      <trkpt lat="2.835717" lon="-75.09682">
        <ele>1318.9</ele>
        <time>2021-08-21T13:35:42Z</time>
      </trkpt>
      <trkpt lat="2.835714" lon="-75.0968">
        <ele>1319.1</ele>
        <time>2021-08-21T13:35:43Z</time>
      </trkpt>
      <trkpt lat="2.835713" lon="-75.09678">
        <ele>1319.3</ele>
        <time>2021-08-21T13:35:44Z</time>
      </trkpt>
      <trkpt lat="2.835714" lon="-75.096756">
        <ele>1319.5</ele>
        <time>2021-08-21T13:35:45Z</time>
      </trkpt>
      <trkpt lat="2.835718" lon="-75.09674">
        <ele>1319.8</ele>
        <time>2021-08-21T13:35:46Z</time>
      </trkpt>
      <trkpt lat="2.835722" lon="-75.09672">
        <ele>1320.0</ele>
        <time>2021-08-21T13:35:47Z</time>
      </trkpt>
      <trkpt lat="2.835728" lon="-75.096695">
        <ele>1320.2</ele>
        <time>2021-08-21T13:35:48Z</time>
      </trkpt>
      <trkpt lat="2.835735" lon="-75.09668">
        <ele>1320.4</ele>
        <time>2021-08-21T13:35:49Z</time>
      </trkpt>
      <trkpt lat="2.835742" lon="-75.096664">
        <ele>1320.6</ele>
        <time>2021-08-21T13:35:50Z</time>
      </trkpt>
      <trkpt lat="2.835751" lon="-75.09665">
        <ele>1320.8</ele>
        <time>2021-08-21T13:35:51Z</time>
      </trkpt>
      <trkpt lat="2.835762" lon="-75.09663">
        <ele>1321.0</ele>
        <time>2021-08-21T13:35:52Z</time>
      </trkpt>
      <trkpt lat="2.835774" lon="-75.09662">
        <ele>1321.2</ele>
        <time>2021-08-21T13:35:53Z</time>
      </trkpt>
      <trkpt lat="2.835788" lon="-75.0966">
        <ele>1321.4</ele>
        <time>2021-08-21T13:35:54Z</time>
      </trkpt>
      <trkpt lat="2.835802" lon="-75.09659">
        <ele>1321.6</ele>
        <time>2021-08-21T13:35:55Z</time>
      </trkpt>
      <trkpt lat="2.835816" lon="-75.09657">
        <ele>1321.8</ele>
        <time>2021-08-21T13:35:56Z</time>
      </trkpt>
      <trkpt lat="2.83583" lon="-75.096565">
        <ele>1322.0</ele>
        <time>2021-08-21T13:35:57Z</time>
      </trkpt>
      <trkpt lat="2.835845" lon="-75.09655">
        <ele>1322.2</ele>
        <time>2021-08-21T13:35:58Z</time>
      </trkpt>
      <trkpt lat="2.83586" lon="-75.096535">
        <ele>1322.4</ele>
        <time>2021-08-21T13:35:59Z</time>
      </trkpt>
      <trkpt lat="2.835875" lon="-75.09652">
        <ele>1322.7</ele>
        <time>2021-08-21T13:36:00Z</time>
      </trkpt>
      <trkpt lat="2.835889" lon="-75.096504">
        <ele>1322.9</ele>
        <time>2021-08-21T13:36:01Z</time>
      </trkpt>
      <trkpt lat="2.835905" lon="-75.09648">
        <ele>1323.1</ele>
        <time>2021-08-21T13:36:02Z</time>
      </trkpt>
      <trkpt lat="2.835918" lon="-75.096466">
        <ele>1323.2</ele>
        <time>2021-08-21T13:36:03Z</time>
      </trkpt>
      <trkpt lat="2.83593" lon="-75.09645">
        <ele>1323.4</ele>
        <time>2021-08-21T13:36:04Z</time>
      </trkpt>
      <trkpt lat="2.835943" lon="-75.09643">
        <ele>1323.6</ele>
        <time>2021-08-21T13:36:05Z</time>
      </trkpt>
      <trkpt lat="2.835956" lon="-75.09641">
        <ele>1323.7</ele>
        <time>2021-08-21T13:36:06Z</time>
      </trkpt>
      <trkpt lat="2.835971" lon="-75.0964">
        <ele>1323.9</ele>
        <time>2021-08-21T13:36:07Z</time>
      </trkpt>
      <trkpt lat="2.835985" lon="-75.096375">
        <ele>1324.0</ele>
        <time>2021-08-21T13:36:08Z</time>
      </trkpt>
      <trkpt lat="2.835999" lon="-75.09635">
        <ele>1324.2</ele>
        <time>2021-08-21T13:36:09Z</time>
      </trkpt>
      <trkpt lat="2.836012" lon="-75.09634">
        <ele>1324.3</ele>
        <time>2021-08-21T13:36:10Z</time>
      </trkpt>
      <trkpt lat="2.836025" lon="-75.09631">
        <ele>1324.5</ele>
        <time>2021-08-21T13:36:11Z</time>
      </trkpt>
      <trkpt lat="2.836038" lon="-75.09629">
        <ele>1324.7</ele>
        <time>2021-08-21T13:36:12Z</time>
      </trkpt>
      <trkpt lat="2.836052" lon="-75.096275">
        <ele>1324.8</ele>
        <time>2021-08-21T13:36:13Z</time>
      </trkpt>
      <trkpt lat="2.836065" lon="-75.09625">
        <ele>1325.0</ele>
        <time>2021-08-21T13:36:14Z</time>
      </trkpt>
      <trkpt lat="2.836078" lon="-75.09623">
        <ele>1325.2</ele>
        <time>2021-08-21T13:36:15Z</time>
      </trkpt>
      <trkpt lat="2.836091" lon="-75.096214">
        <ele>1325.3</ele>
        <time>2021-08-21T13:36:16Z</time>
      </trkpt>
      <trkpt lat="2.836105" lon="-75.09619">
        <ele>1325.5</ele>
        <time>2021-08-21T13:36:17Z</time>
      </trkpt>
      <trkpt lat="2.83612" lon="-75.096176">
        <ele>1325.7</ele>
        <time>2021-08-21T13:36:18Z</time>
      </trkpt>
      <trkpt lat="2.836135" lon="-75.09615">
        <ele>1325.8</ele>
        <time>2021-08-21T13:36:19Z</time>
      </trkpt>
      <trkpt lat="2.836148" lon="-75.09614">
        <ele>1326.0</ele>
        <time>2021-08-21T13:36:20Z</time>
      </trkpt>
      <trkpt lat="2.83616" lon="-75.096115">
        <ele>1326.2</ele>
        <time>2021-08-21T13:36:21Z</time>
      </trkpt>
      <trkpt lat="2.836168" lon="-75.09609">
        <ele>1326.4</ele>
        <time>2021-08-21T13:36:22Z</time>
      </trkpt>
      <trkpt lat="2.836177" lon="-75.09607">
        <ele>1326.6</ele>
        <time>2021-08-21T13:36:23Z</time>
      </trkpt>
      <trkpt lat="2.836187" lon="-75.09605">
        <ele>1326.8</ele>
        <time>2021-08-21T13:36:24Z</time>
      </trkpt>
      <trkpt lat="2.836199" lon="-75.09602">
        <ele>1327.0</ele>
        <time>2021-08-21T13:36:25Z</time>
      </trkpt>
      <trkpt lat="2.836208" lon="-75.096">
        <ele>1327.2</ele>
        <time>2021-08-21T13:36:26Z</time>
      </trkpt>
      <trkpt lat="2.836216" lon="-75.09598">
        <ele>1327.5</ele>
        <time>2021-08-21T13:36:27Z</time>
      </trkpt>
      <trkpt lat="2.836223" lon="-75.095955">
        <ele>1327.7</ele>
        <time>2021-08-21T13:36:28Z</time>
      </trkpt>
      <trkpt lat="2.836231" lon="-75.09593">
        <ele>1327.9</ele>
        <time>2021-08-21T13:36:29Z</time>
      </trkpt>
      <trkpt lat="2.836239" lon="-75.09591">
        <ele>1328.1</ele>
        <time>2021-08-21T13:36:30Z</time>
      </trkpt>
      <trkpt lat="2.836247" lon="-75.09589">
        <ele>1328.3</ele>
        <time>2021-08-21T13:36:31Z</time>
      </trkpt>
      <trkpt lat="2.836255" lon="-75.09586">
        <ele>1328.6</ele>
        <time>2021-08-21T13:36:32Z</time>
      </trkpt>
      <trkpt lat="2.836265" lon="-75.09584">
        <ele>1328.8</ele>
        <time>2021-08-21T13:36:33Z</time>
      </trkpt>
      <trkpt lat="2.836274" lon="-75.09582">
        <ele>1329.0</ele>
        <time>2021-08-21T13:36:34Z</time>
      </trkpt>
      <trkpt lat="2.836282" lon="-75.095795">
        <ele>1329.3</ele>
        <time>2021-08-21T13:36:35Z</time>
      </trkpt>
      <trkpt lat="2.836292" lon="-75.09577">
        <ele>1329.5</ele>
        <time>2021-08-21T13:36:36Z</time>
      </trkpt>
      <trkpt lat="2.836301" lon="-75.09574">
        <ele>1329.7</ele>
        <time>2021-08-21T13:36:37Z</time>
      </trkpt>
      <trkpt lat="2.83631" lon="-75.09572">
        <ele>1329.9</ele>
        <time>2021-08-21T13:36:38Z</time>
      </trkpt>
      <trkpt lat="2.836319" lon="-75.095695">
        <ele>1330.1</ele>
        <time>2021-08-21T13:36:39Z</time>
      </trkpt>
      <trkpt lat="2.836326" lon="-75.09567">
        <ele>1330.3</ele>
        <time>2021-08-21T13:36:40Z</time>
      </trkpt>
      <trkpt lat="2.836332" lon="-75.09565">
        <ele>1330.5</ele>
        <time>2021-08-21T13:36:41Z</time>
      </trkpt>
      <trkpt lat="2.836337" lon="-75.09563">
        <ele>1330.7</ele>
        <time>2021-08-21T13:36:42Z</time>
      </trkpt>
      <trkpt lat="2.836342" lon="-75.095604">
        <ele>1330.9</ele>
        <time>2021-08-21T13:36:43Z</time>
      </trkpt>
      <trkpt lat="2.836346" lon="-75.09558">
        <ele>1331.2</ele>
        <time>2021-08-21T13:36:44Z</time>
      </trkpt>
      <trkpt lat="2.836347" lon="-75.09556">
        <ele>1331.3</ele>
        <time>2021-08-21T13:36:45Z</time>
      </trkpt>
      <trkpt lat="2.836348" lon="-75.095535">
        <ele>1331.6</ele>
        <time>2021-08-21T13:36:46Z</time>
      </trkpt>
      <trkpt lat="2.836346" lon="-75.09551">
        <ele>1331.8</ele>
        <time>2021-08-21T13:36:47Z</time>
      </trkpt>
      <trkpt lat="2.836344" lon="-75.0955">
        <ele>1332.0</ele>
        <time>2021-08-21T13:36:48Z</time>
      </trkpt>
      <trkpt lat="2.836339" lon="-75.095474">
        <ele>1332.2</ele>
        <time>2021-08-21T13:36:49Z</time>
      </trkpt>
      <trkpt lat="2.836335" lon="-75.09545">
        <ele>1332.4</ele>
        <time>2021-08-21T13:36:50Z</time>
      </trkpt>
      <trkpt lat="2.836331" lon="-75.09543">
        <ele>1332.7</ele>
        <time>2021-08-21T13:36:51Z</time>
      </trkpt>
      <trkpt lat="2.836325" lon="-75.095406">
        <ele>1332.9</ele>
        <time>2021-08-21T13:36:52Z</time>
      </trkpt>
      <trkpt lat="2.836316" lon="-75.09536">
        <ele>1333.4</ele>
        <time>2021-08-21T13:36:53Z</time>
      </trkpt>
      <trkpt lat="2.83632" lon="-75.09538">
        <ele>1333.1</ele>
        <time>2021-08-21T13:36:53Z</time>
      </trkpt>
      <trkpt lat="2.836309" lon="-75.095345">
        <ele>1333.6</ele>
        <time>2021-08-21T13:36:54Z</time>
      </trkpt>
      <trkpt lat="2.836302" lon="-75.09532">
        <ele>1333.8</ele>
        <time>2021-08-21T13:36:55Z</time>
      </trkpt>
      <trkpt lat="2.836294" lon="-75.0953">
        <ele>1334.0</ele>
        <time>2021-08-21T13:36:56Z</time>
      </trkpt>
      <trkpt lat="2.836288" lon="-75.095276">
        <ele>1334.3</ele>
        <time>2021-08-21T13:36:57Z</time>
      </trkpt>
      <trkpt lat="2.836283" lon="-75.09525">
        <ele>1334.5</ele>
        <time>2021-08-21T13:36:58Z</time>
      </trkpt>
      <trkpt lat="2.83628" lon="-75.09523">
        <ele>1334.7</ele>
        <time>2021-08-21T13:36:59Z</time>
      </trkpt>
      <trkpt lat="2.836278" lon="-75.09521">
        <ele>1334.9</ele>
        <time>2021-08-21T13:37:00Z</time>
      </trkpt>
      <trkpt lat="2.836279" lon="-75.095184">
        <ele>1335.2</ele>
        <time>2021-08-21T13:37:01Z</time>
      </trkpt>
      <trkpt lat="2.83628" lon="-75.09516">
        <ele>1335.4</ele>
        <time>2021-08-21T13:37:02Z</time>
      </trkpt>
      <trkpt lat="2.836282" lon="-75.09514">
        <ele>1335.6</ele>
        <time>2021-08-21T13:37:03Z</time>
      </trkpt>
      <trkpt lat="2.836283" lon="-75.095116">
        <ele>1335.9</ele>
        <time>2021-08-21T13:37:04Z</time>
      </trkpt>
      <trkpt lat="2.836281" lon="-75.0951">
        <ele>1336.1</ele>
        <time>2021-08-21T13:37:05Z</time>
      </trkpt>
      <trkpt lat="2.836279" lon="-75.09508">
        <ele>1336.3</ele>
        <time>2021-08-21T13:37:06Z</time>
      </trkpt>
      <trkpt lat="2.836279" lon="-75.095055">
        <ele>1336.5</ele>
        <time>2021-08-21T13:37:07Z</time>
      </trkpt>
      <trkpt lat="2.836282" lon="-75.09503">
        <ele>1336.7</ele>
        <time>2021-08-21T13:37:08Z</time>
      </trkpt>
      <trkpt lat="2.836283" lon="-75.09501">
        <ele>1337.0</ele>
        <time>2021-08-21T13:37:09Z</time>
      </trkpt>
      <trkpt lat="2.836282" lon="-75.094986">
        <ele>1337.2</ele>
        <time>2021-08-21T13:37:10Z</time>
      </trkpt>
      <trkpt lat="2.836279" lon="-75.09496">
        <ele>1337.4</ele>
        <time>2021-08-21T13:37:11Z</time>
      </trkpt>
      <trkpt lat="2.836275" lon="-75.09494">
        <ele>1337.6</ele>
        <time>2021-08-21T13:37:12Z</time>
      </trkpt>
      <trkpt lat="2.83627" lon="-75.094925">
        <ele>1337.8</ele>
        <time>2021-08-21T13:37:13Z</time>
      </trkpt>
      <trkpt lat="2.836264" lon="-75.0949">
        <ele>1338.0</ele>
        <time>2021-08-21T13:37:14Z</time>
      </trkpt>
      <trkpt lat="2.836258" lon="-75.09488">
        <ele>1338.2</ele>
        <time>2021-08-21T13:37:15Z</time>
      </trkpt>
      <trkpt lat="2.836252" lon="-75.09486">
        <ele>1338.5</ele>
        <time>2021-08-21T13:37:16Z</time>
      </trkpt>
      <trkpt lat="2.836245" lon="-75.09483">
        <ele>1338.7</ele>
        <time>2021-08-21T13:37:17Z</time>
      </trkpt>
      <trkpt lat="2.836239" lon="-75.09481">
        <ele>1339.0</ele>
        <time>2021-08-21T13:37:18Z</time>
      </trkpt>
      <trkpt lat="2.836233" lon="-75.09479">
        <ele>1339.2</ele>
        <time>2021-08-21T13:37:19Z</time>
      </trkpt>
      <trkpt lat="2.836226" lon="-75.094765">
        <ele>1339.4</ele>
        <time>2021-08-21T13:37:20Z</time>
      </trkpt>
      <trkpt lat="2.83622" lon="-75.09474">
        <ele>1339.7</ele>
        <time>2021-08-21T13:37:21Z</time>
      </trkpt>
      <trkpt lat="2.836212" lon="-75.09473">
        <ele>1339.9</ele>
        <time>2021-08-21T13:37:22Z</time>
      </trkpt>
      <trkpt lat="2.836204" lon="-75.09471">
        <ele>1340.1</ele>
        <time>2021-08-21T13:37:23Z</time>
      </trkpt>
      <trkpt lat="2.836194" lon="-75.094696">
        <ele>1340.3</ele>
        <time>2021-08-21T13:37:24Z</time>
      </trkpt>
      <trkpt lat="2.836182" lon="-75.09467">
        <ele>1340.5</ele>
        <time>2021-08-21T13:37:25Z</time>
      </trkpt>
      <trkpt lat="2.836172" lon="-75.09466">
        <ele>1340.8</ele>
        <time>2021-08-21T13:37:26Z</time>
      </trkpt>
      <trkpt lat="2.836164" lon="-75.094635">
        <ele>1341.0</ele>
        <time>2021-08-21T13:37:27Z</time>
      </trkpt>
      <trkpt lat="2.836155" lon="-75.09462">
        <ele>1341.3</ele>
        <time>2021-08-21T13:37:28Z</time>
      </trkpt>
      <trkpt lat="2.836143" lon="-75.094604">
        <ele>1341.5</ele>
        <time>2021-08-21T13:37:29Z</time>
      </trkpt>
      <trkpt lat="2.836131" lon="-75.09459">
        <ele>1341.7</ele>
        <time>2021-08-21T13:37:30Z</time>
      </trkpt>
      <trkpt lat="2.836118" lon="-75.094574">
        <ele>1341.9</ele>
        <time>2021-08-21T13:37:31Z</time>
      </trkpt>
      <trkpt lat="2.836105" lon="-75.09457">
        <ele>1342.1</ele>
        <time>2021-08-21T13:37:32Z</time>
      </trkpt>
      <trkpt lat="2.836092" lon="-75.09455">
        <ele>1342.3</ele>
        <time>2021-08-21T13:37:33Z</time>
      </trkpt>
      <trkpt lat="2.836081" lon="-75.094536">
        <ele>1342.5</ele>
        <time>2021-08-21T13:37:34Z</time>
      </trkpt>
      <trkpt lat="2.836071" lon="-75.09452">
        <ele>1342.7</ele>
        <time>2021-08-21T13:37:35Z</time>
      </trkpt>
      <trkpt lat="2.83606" lon="-75.094505">
        <ele>1342.9</ele>
        <time>2021-08-21T13:37:36Z</time>
      </trkpt>
      <trkpt lat="2.83605" lon="-75.09448">
        <ele>1343.1</ele>
        <time>2021-08-21T13:37:37Z</time>
      </trkpt>
      <trkpt lat="2.83604" lon="-75.09447">
        <ele>1343.3</ele>
        <time>2021-08-21T13:37:38Z</time>
      </trkpt>
      <trkpt lat="2.83603" lon="-75.094444">
        <ele>1343.5</ele>
        <time>2021-08-21T13:37:39Z</time>
      </trkpt>
      <trkpt lat="2.836021" lon="-75.09442">
        <ele>1343.7</ele>
        <time>2021-08-21T13:37:40Z</time>
      </trkpt>
      <trkpt lat="2.836013" lon="-75.09439">
        <ele>1343.9</ele>
        <time>2021-08-21T13:37:41Z</time>
      </trkpt>
      <trkpt lat="2.836003" lon="-75.09437">
        <ele>1344.1</ele>
        <time>2021-08-21T13:37:42Z</time>
      </trkpt>
      <trkpt lat="2.835993" lon="-75.094345">
        <ele>1344.3</ele>
        <time>2021-08-21T13:37:43Z</time>
      </trkpt>
      <trkpt lat="2.835981" lon="-75.094315">
        <ele>1344.5</ele>
        <time>2021-08-21T13:37:44Z</time>
      </trkpt>
      <trkpt lat="2.835971" lon="-75.09429">
        <ele>1344.7</ele>
        <time>2021-08-21T13:37:45Z</time>
      </trkpt>
      <trkpt lat="2.835959" lon="-75.09426">
        <ele>1344.9</ele>
        <time>2021-08-21T13:37:46Z</time>
      </trkpt>
      <trkpt lat="2.835949" lon="-75.09424">
        <ele>1345.1</ele>
        <time>2021-08-21T13:37:47Z</time>
      </trkpt>
      <trkpt lat="2.835938" lon="-75.09421">
        <ele>1345.4</ele>
        <time>2021-08-21T13:37:48Z</time>
      </trkpt>
      <trkpt lat="2.835927" lon="-75.094185">
        <ele>1345.6</ele>
        <time>2021-08-21T13:37:49Z</time>
      </trkpt>
      <trkpt lat="2.835917" lon="-75.094154">
        <ele>1345.8</ele>
        <time>2021-08-21T13:37:50Z</time>
      </trkpt>
      <trkpt lat="2.835909" lon="-75.09413">
        <ele>1345.9</ele>
        <time>2021-08-21T13:37:51Z</time>
      </trkpt>
      <trkpt lat="2.835902" lon="-75.09411">
        <ele>1346.1</ele>
        <time>2021-08-21T13:37:52Z</time>
      </trkpt>
      <trkpt lat="2.835895" lon="-75.09409">
        <ele>1346.2</ele>
        <time>2021-08-21T13:37:53Z</time>
      </trkpt>
      <trkpt lat="2.835888" lon="-75.09407">
        <ele>1346.4</ele>
        <time>2021-08-21T13:37:54Z</time>
      </trkpt>
      <trkpt lat="2.835882" lon="-75.09405">
        <ele>1346.5</ele>
        <time>2021-08-21T13:37:55Z</time>
      </trkpt>
      <trkpt lat="2.835875" lon="-75.094025">
        <ele>1346.6</ele>
        <time>2021-08-21T13:37:56Z</time>
      </trkpt>
      <trkpt lat="2.835869" lon="-75.094">
        <ele>1346.7</ele>
        <time>2021-08-21T13:37:57Z</time>
      </trkpt>
      <trkpt lat="2.835863" lon="-75.09398">
        <ele>1346.8</ele>
        <time>2021-08-21T13:37:58Z</time>
      </trkpt>
      <trkpt lat="2.835856" lon="-75.093956">
        <ele>1346.9</ele>
        <time>2021-08-21T13:37:59Z</time>
      </trkpt>
      <trkpt lat="2.835848" lon="-75.093925">
        <ele>1347.1</ele>
        <time>2021-08-21T13:38:00Z</time>
      </trkpt>
      <trkpt lat="2.83584" lon="-75.093895">
        <ele>1347.2</ele>
        <time>2021-08-21T13:38:01Z</time>
      </trkpt>
      <trkpt lat="2.835832" lon="-75.093864">
        <ele>1347.4</ele>
        <time>2021-08-21T13:38:02Z</time>
      </trkpt>
      <trkpt lat="2.835824" lon="-75.09384">
        <ele>1347.6</ele>
        <time>2021-08-21T13:38:03Z</time>
      </trkpt>
      <trkpt lat="2.835816" lon="-75.09381">
        <ele>1347.7</ele>
        <time>2021-08-21T13:38:04Z</time>
      </trkpt>
      <trkpt lat="2.835811" lon="-75.09378">
        <ele>1347.9</ele>
        <time>2021-08-21T13:38:05Z</time>
      </trkpt>
      <trkpt lat="2.835808" lon="-75.09375">
        <ele>1348.1</ele>
        <time>2021-08-21T13:38:06Z</time>
      </trkpt>
      <trkpt lat="2.835806" lon="-75.09371">
        <ele>1348.3</ele>
        <time>2021-08-21T13:38:07Z</time>
      </trkpt>
      <trkpt lat="2.835808" lon="-75.09368">
        <ele>1348.5</ele>
        <time>2021-08-21T13:38:08Z</time>
      </trkpt>
      <trkpt lat="2.835812" lon="-75.09366">
        <ele>1348.7</ele>
        <time>2021-08-21T13:38:09Z</time>
      </trkpt>
      <trkpt lat="2.835822" lon="-75.09363">
        <ele>1348.9</ele>
        <time>2021-08-21T13:38:10Z</time>
      </trkpt>
      <trkpt lat="2.835835" lon="-75.0936">
        <ele>1349.1</ele>
        <time>2021-08-21T13:38:11Z</time>
      </trkpt>
      <trkpt lat="2.835852" lon="-75.093575">
        <ele>1349.3</ele>
        <time>2021-08-21T13:38:12Z</time>
      </trkpt>
      <trkpt lat="2.835868" lon="-75.09355">
        <ele>1349.6</ele>
        <time>2021-08-21T13:38:13Z</time>
      </trkpt>
      <trkpt lat="2.835884" lon="-75.09352">
        <ele>1349.8</ele>
        <time>2021-08-21T13:38:14Z</time>
      </trkpt>
      <trkpt lat="2.835898" lon="-75.0935">
        <ele>1350.0</ele>
        <time>2021-08-21T13:38:15Z</time>
      </trkpt>
      <trkpt lat="2.835912" lon="-75.093475">
        <ele>1350.2</ele>
        <time>2021-08-21T13:38:16Z</time>
      </trkpt>
      <trkpt lat="2.835926" lon="-75.09345">
        <ele>1350.4</ele>
        <time>2021-08-21T13:38:17Z</time>
      </trkpt>
      <trkpt lat="2.835939" lon="-75.09343">
        <ele>1350.7</ele>
        <time>2021-08-21T13:38:18Z</time>
      </trkpt>
      <trkpt lat="2.835954" lon="-75.093414">
        <ele>1350.9</ele>
        <time>2021-08-21T13:38:19Z</time>
      </trkpt>
      <trkpt lat="2.835967" lon="-75.09339">
        <ele>1351.1</ele>
        <time>2021-08-21T13:38:20Z</time>
      </trkpt>
      <trkpt lat="2.835978" lon="-75.09337">
        <ele>1351.3</ele>
        <time>2021-08-21T13:38:21Z</time>
      </trkpt>
      <trkpt lat="2.835989" lon="-75.093346">
        <ele>1351.5</ele>
        <time>2021-08-21T13:38:22Z</time>
      </trkpt>
      <trkpt lat="2.836002" lon="-75.09332">
        <ele>1351.8</ele>
        <time>2021-08-21T13:38:23Z</time>
      </trkpt>
      <trkpt lat="2.836015" lon="-75.0933">
        <ele>1352.0</ele>
        <time>2021-08-21T13:38:24Z</time>
      </trkpt>
      <trkpt lat="2.836028" lon="-75.09328">
        <ele>1352.2</ele>
        <time>2021-08-21T13:38:25Z</time>
      </trkpt>
      <trkpt lat="2.836039" lon="-75.09325">
        <ele>1352.4</ele>
        <time>2021-08-21T13:38:26Z</time>
      </trkpt>
      <trkpt lat="2.836049" lon="-75.09322">
        <ele>1352.6</ele>
        <time>2021-08-21T13:38:27Z</time>
      </trkpt>
      <trkpt lat="2.836059" lon="-75.0932">
        <ele>1352.9</ele>
        <time>2021-08-21T13:38:28Z</time>
      </trkpt>
      <trkpt lat="2.836069" lon="-75.09317">
        <ele>1353.1</ele>
        <time>2021-08-21T13:38:29Z</time>
      </trkpt>
      <trkpt lat="2.83608" lon="-75.09315">
        <ele>1353.3</ele>
        <time>2021-08-21T13:38:30Z</time>
      </trkpt>
      <trkpt lat="2.836091" lon="-75.09312">
        <ele>1353.6</ele>
        <time>2021-08-21T13:38:31Z</time>
      </trkpt>
      <trkpt lat="2.836101" lon="-75.09309">
        <ele>1353.9</ele>
        <time>2021-08-21T13:38:32Z</time>
      </trkpt>
      <trkpt lat="2.836113" lon="-75.09306">
        <ele>1354.1</ele>
        <time>2021-08-21T13:38:33Z</time>
      </trkpt>
      <trkpt lat="2.836125" lon="-75.09304">
        <ele>1354.4</ele>
        <time>2021-08-21T13:38:34Z</time>
      </trkpt>
      <trkpt lat="2.836136" lon="-75.09301">
        <ele>1354.7</ele>
        <time>2021-08-21T13:38:35Z</time>
      </trkpt>
      <trkpt lat="2.836143" lon="-75.09298">
        <ele>1355.0</ele>
        <time>2021-08-21T13:38:36Z</time>
      </trkpt>
      <trkpt lat="2.836148" lon="-75.09296">
        <ele>1355.2</ele>
        <time>2021-08-21T13:38:37Z</time>
      </trkpt>
      <trkpt lat="2.836151" lon="-75.09293">
        <ele>1355.4</ele>
        <time>2021-08-21T13:38:38Z</time>
      </trkpt>
      <trkpt lat="2.836152" lon="-75.09291">
        <ele>1355.6</ele>
        <time>2021-08-21T13:38:39Z</time>
      </trkpt>
      <trkpt lat="2.836151" lon="-75.09289">
        <ele>1355.8</ele>
        <time>2021-08-21T13:38:40Z</time>
      </trkpt>
      <trkpt lat="2.83615" lon="-75.092865">
        <ele>1356.0</ele>
        <time>2021-08-21T13:38:41Z</time>
      </trkpt>
      <trkpt lat="2.836146" lon="-75.09284">
        <ele>1356.2</ele>
        <time>2021-08-21T13:38:42Z</time>
      </trkpt>
      <trkpt lat="2.836144" lon="-75.09282">
        <ele>1356.4</ele>
        <time>2021-08-21T13:38:43Z</time>
      </trkpt>
      <trkpt lat="2.836139" lon="-75.0928">
        <ele>1356.6</ele>
        <time>2021-08-21T13:38:44Z</time>
      </trkpt>
      <trkpt lat="2.836132" lon="-75.09277">
        <ele>1356.8</ele>
        <time>2021-08-21T13:38:45Z</time>
      </trkpt>
      <trkpt lat="2.83612" lon="-75.09275">
        <ele>1357.1</ele>
        <time>2021-08-21T13:38:46Z</time>
      </trkpt>
      <trkpt lat="2.836107" lon="-75.09273">
        <ele>1357.3</ele>
        <time>2021-08-21T13:38:47Z</time>
      </trkpt>
      <trkpt lat="2.836092" lon="-75.092705">
        <ele>1357.6</ele>
        <time>2021-08-21T13:38:48Z</time>
      </trkpt>
      <trkpt lat="2.836077" lon="-75.09268">
        <ele>1357.8</ele>
        <time>2021-08-21T13:38:49Z</time>
      </trkpt>
      <trkpt lat="2.836062" lon="-75.09266">
        <ele>1358.1</ele>
        <time>2021-08-21T13:38:50Z</time>
      </trkpt>
      <trkpt lat="2.836046" lon="-75.09264">
        <ele>1358.3</ele>
        <time>2021-08-21T13:38:51Z</time>
      </trkpt>
      <trkpt lat="2.836031" lon="-75.09262">
        <ele>1358.5</ele>
        <time>2021-08-21T13:38:52Z</time>
      </trkpt>
      <trkpt lat="2.836017" lon="-75.0926">
        <ele>1358.8</ele>
        <time>2021-08-21T13:38:53Z</time>
      </trkpt>
      <trkpt lat="2.836003" lon="-75.09258">
        <ele>1359.0</ele>
        <time>2021-08-21T13:38:54Z</time>
      </trkpt>
      <trkpt lat="2.835989" lon="-75.09256">
        <ele>1359.3</ele>
        <time>2021-08-21T13:38:55Z</time>
      </trkpt>
      <trkpt lat="2.835975" lon="-75.09254">
        <ele>1359.5</ele>
        <time>2021-08-21T13:38:56Z</time>
      </trkpt>
      <trkpt lat="2.835961" lon="-75.09252">
        <ele>1359.7</ele>
        <time>2021-08-21T13:38:57Z</time>
      </trkpt>
      <trkpt lat="2.835949" lon="-75.0925">
        <ele>1360.0</ele>
        <time>2021-08-21T13:38:58Z</time>
      </trkpt>
      <trkpt lat="2.835939" lon="-75.092476">
        <ele>1360.2</ele>
        <time>2021-08-21T13:38:59Z</time>
      </trkpt>
      <trkpt lat="2.835931" lon="-75.09245">
        <ele>1360.4</ele>
        <time>2021-08-21T13:39:00Z</time>
      </trkpt>
      <trkpt lat="2.835925" lon="-75.09243">
        <ele>1360.6</ele>
        <time>2021-08-21T13:39:01Z</time>
      </trkpt>
      <trkpt lat="2.835923" lon="-75.09241">
        <ele>1360.9</ele>
        <time>2021-08-21T13:39:02Z</time>
      </trkpt>
      <trkpt lat="2.835924" lon="-75.092384">
        <ele>1361.1</ele>
        <time>2021-08-21T13:39:03Z</time>
      </trkpt>
      <trkpt lat="2.835927" lon="-75.092354">
        <ele>1361.3</ele>
        <time>2021-08-21T13:39:04Z</time>
      </trkpt>
      <trkpt lat="2.835931" lon="-75.09233">
        <ele>1361.6</ele>
        <time>2021-08-21T13:39:05Z</time>
      </trkpt>
      <trkpt lat="2.835937" lon="-75.09231">
        <ele>1361.8</ele>
        <time>2021-08-21T13:39:06Z</time>
      </trkpt>
      <trkpt lat="2.835943" lon="-75.092285">
        <ele>1362.0</ele>
        <time>2021-08-21T13:39:07Z</time>
      </trkpt>
      <trkpt lat="2.835951" lon="-75.09226">
        <ele>1362.3</ele>
        <time>2021-08-21T13:39:08Z</time>
      </trkpt>
      <trkpt lat="2.835961" lon="-75.09224">
        <ele>1362.6</ele>
        <time>2021-08-21T13:39:09Z</time>
      </trkpt>
      <trkpt lat="2.835974" lon="-75.09222">
        <ele>1362.9</ele>
        <time>2021-08-21T13:39:10Z</time>
      </trkpt>
      <trkpt lat="2.835983" lon="-75.09219">
        <ele>1363.2</ele>
        <time>2021-08-21T13:39:11Z</time>
      </trkpt>
      <trkpt lat="2.835991" lon="-75.09216">
        <ele>1363.5</ele>
        <time>2021-08-21T13:39:12Z</time>
      </trkpt>
      <trkpt lat="2.835995" lon="-75.09214">
        <ele>1363.8</ele>
        <time>2021-08-21T13:39:13Z</time>
      </trkpt>
      <trkpt lat="2.835999" lon="-75.09211">
        <ele>1364.1</ele>
        <time>2021-08-21T13:39:14Z</time>
      </trkpt>
      <trkpt lat="2.836003" lon="-75.09208">
        <ele>1364.4</ele>
        <time>2021-08-21T13:39:15Z</time>
      </trkpt>
      <trkpt lat="2.836006" lon="-75.09205">
        <ele>1364.7</ele>
        <time>2021-08-21T13:39:16Z</time>
      </trkpt>
      <trkpt lat="2.836004" lon="-75.092026">
        <ele>1365.0</ele>
        <time>2021-08-21T13:39:17Z</time>
      </trkpt>
      <trkpt lat="2.836002" lon="-75.092">
        <ele>1365.2</ele>
        <time>2021-08-21T13:39:18Z</time>
      </trkpt>
      <trkpt lat="2.835998" lon="-75.09198">
        <ele>1365.4</ele>
        <time>2021-08-21T13:39:19Z</time>
      </trkpt>
      <trkpt lat="2.835992" lon="-75.09195">
        <ele>1365.7</ele>
        <time>2021-08-21T13:39:20Z</time>
      </trkpt>
      <trkpt lat="2.835981" lon="-75.091934">
        <ele>1365.9</ele>
        <time>2021-08-21T13:39:21Z</time>
      </trkpt>
      <trkpt lat="2.835968" lon="-75.09191">
        <ele>1366.1</ele>
        <time>2021-08-21T13:39:22Z</time>
      </trkpt>
      <trkpt lat="2.835952" lon="-75.09189">
        <ele>1366.2</ele>
        <time>2021-08-21T13:39:23Z</time>
      </trkpt>
      <trkpt lat="2.835935" lon="-75.09187">
        <ele>1366.4</ele>
        <time>2021-08-21T13:39:24Z</time>
      </trkpt>
      <trkpt lat="2.835915" lon="-75.09186">
        <ele>1366.6</ele>
        <time>2021-08-21T13:39:25Z</time>
      </trkpt>
      <trkpt lat="2.835892" lon="-75.09185">
        <ele>1366.8</ele>
        <time>2021-08-21T13:39:26Z</time>
      </trkpt>
      <trkpt lat="2.835868" lon="-75.09184">
        <ele>1366.9</ele>
        <time>2021-08-21T13:39:27Z</time>
      </trkpt>
      <trkpt lat="2.835838" lon="-75.09184">
        <ele>1367.1</ele>
        <time>2021-08-21T13:39:28Z</time>
      </trkpt>
      <trkpt lat="2.835805" lon="-75.09184">
        <ele>1367.3</ele>
        <time>2021-08-21T13:39:29Z</time>
      </trkpt>
      <trkpt lat="2.835769" lon="-75.09185">
        <ele>1367.5</ele>
        <time>2021-08-21T13:39:30Z</time>
      </trkpt>
      <trkpt lat="2.835734" lon="-75.09186">
        <ele>1367.7</ele>
        <time>2021-08-21T13:39:31Z</time>
      </trkpt>
      <trkpt lat="2.8357" lon="-75.091866">
        <ele>1367.9</ele>
        <time>2021-08-21T13:39:32Z</time>
      </trkpt>
      <trkpt lat="2.835665" lon="-75.091866">
        <ele>1368.1</ele>
        <time>2021-08-21T13:39:33Z</time>
      </trkpt>
      <trkpt lat="2.835629" lon="-75.09187">
        <ele>1368.3</ele>
        <time>2021-08-21T13:39:34Z</time>
      </trkpt>
      <trkpt lat="2.835595" lon="-75.09188">
        <ele>1368.5</ele>
        <time>2021-08-21T13:39:35Z</time>
      </trkpt>
      <trkpt lat="2.83556" lon="-75.09189">
        <ele>1368.7</ele>
        <time>2021-08-21T13:39:36Z</time>
      </trkpt>
      <trkpt lat="2.835528" lon="-75.09189">
        <ele>1369.0</ele>
        <time>2021-08-21T13:39:37Z</time>
      </trkpt>
      <trkpt lat="2.835495" lon="-75.091896">
        <ele>1369.2</ele>
        <time>2021-08-21T13:39:38Z</time>
      </trkpt>
      <trkpt lat="2.835462" lon="-75.091896">
        <ele>1369.5</ele>
        <time>2021-08-21T13:39:39Z</time>
      </trkpt>
      <trkpt lat="2.835432" lon="-75.091896">
        <ele>1369.7</ele>
        <time>2021-08-21T13:39:40Z</time>
      </trkpt>
      <trkpt lat="2.835405" lon="-75.09189">
        <ele>1369.9</ele>
        <time>2021-08-21T13:39:41Z</time>
      </trkpt>
      <trkpt lat="2.835383" lon="-75.09188">
        <ele>1370.1</ele>
        <time>2021-08-21T13:39:42Z</time>
      </trkpt>
      <trkpt lat="2.835363" lon="-75.09187">
        <ele>1370.3</ele>
        <time>2021-08-21T13:39:43Z</time>
      </trkpt>
      <trkpt lat="2.835345" lon="-75.091866">
        <ele>1370.5</ele>
        <time>2021-08-21T13:39:44Z</time>
      </trkpt>
      <trkpt lat="2.835327" lon="-75.09184">
        <ele>1370.8</ele>
        <time>2021-08-21T13:39:45Z</time>
      </trkpt>
      <trkpt lat="2.835313" lon="-75.09183">
        <ele>1371.0</ele>
        <time>2021-08-21T13:39:46Z</time>
      </trkpt>
      <trkpt lat="2.8353" lon="-75.09181">
        <ele>1371.2</ele>
        <time>2021-08-21T13:39:47Z</time>
      </trkpt>
      <trkpt lat="2.83529" lon="-75.09179">
        <ele>1371.4</ele>
        <time>2021-08-21T13:39:48Z</time>
      </trkpt>
      <trkpt lat="2.83528" lon="-75.09176">
        <ele>1371.7</ele>
        <time>2021-08-21T13:39:49Z</time>
      </trkpt>
      <trkpt lat="2.83527" lon="-75.09174">
        <ele>1371.9</ele>
        <time>2021-08-21T13:39:50Z</time>
      </trkpt>
      <trkpt lat="2.835262" lon="-75.09172">
        <ele>1372.2</ele>
        <time>2021-08-21T13:39:51Z</time>
      </trkpt>
      <trkpt lat="2.835256" lon="-75.0917">
        <ele>1372.5</ele>
        <time>2021-08-21T13:39:52Z</time>
      </trkpt>
      <trkpt lat="2.835251" lon="-75.091675">
        <ele>1372.7</ele>
        <time>2021-08-21T13:39:53Z</time>
      </trkpt>
      <trkpt lat="2.835246" lon="-75.09165">
        <ele>1372.9</ele>
        <time>2021-08-21T13:39:54Z</time>
      </trkpt>
      <trkpt lat="2.835241" lon="-75.09163">
        <ele>1373.2</ele>
        <time>2021-08-21T13:39:55Z</time>
      </trkpt>
      <trkpt lat="2.835237" lon="-75.09161">
        <ele>1373.4</ele>
        <time>2021-08-21T13:39:56Z</time>
      </trkpt>
      <trkpt lat="2.835233" lon="-75.09159">
        <ele>1373.7</ele>
        <time>2021-08-21T13:39:57Z</time>
      </trkpt>
      <trkpt lat="2.835227" lon="-75.09157">
        <ele>1373.9</ele>
        <time>2021-08-21T13:39:58Z</time>
      </trkpt>
      <trkpt lat="2.835219" lon="-75.091545">
        <ele>1374.2</ele>
        <time>2021-08-21T13:39:59Z</time>
      </trkpt>
      <trkpt lat="2.835209" lon="-75.09152">
        <ele>1374.5</ele>
        <time>2021-08-21T13:40:00Z</time>
      </trkpt>
      <trkpt lat="2.835196" lon="-75.09151">
        <ele>1374.7</ele>
        <time>2021-08-21T13:40:01Z</time>
      </trkpt>
      <trkpt lat="2.835179" lon="-75.09149">
        <ele>1374.9</ele>
        <time>2021-08-21T13:40:02Z</time>
      </trkpt>
      <trkpt lat="2.835159" lon="-75.09148">
        <ele>1375.2</ele>
        <time>2021-08-21T13:40:03Z</time>
      </trkpt>
      <trkpt lat="2.835135" lon="-75.09146">
        <ele>1375.4</ele>
        <time>2021-08-21T13:40:04Z</time>
      </trkpt>
      <trkpt lat="2.835115" lon="-75.09146">
        <ele>1375.6</ele>
        <time>2021-08-21T13:40:05Z</time>
      </trkpt>
      <trkpt lat="2.835095" lon="-75.09145">
        <ele>1375.8</ele>
        <time>2021-08-21T13:40:06Z</time>
      </trkpt>
      <trkpt lat="2.835074" lon="-75.091446">
        <ele>1376.0</ele>
        <time>2021-08-21T13:40:07Z</time>
      </trkpt>
      <trkpt lat="2.835055" lon="-75.091446">
        <ele>1376.2</ele>
        <time>2021-08-21T13:40:08Z</time>
      </trkpt>
      <trkpt lat="2.835037" lon="-75.091446">
        <ele>1376.3</ele>
        <time>2021-08-21T13:40:09Z</time>
      </trkpt>
      <trkpt lat="2.835022" lon="-75.091446">
        <ele>1376.5</ele>
        <time>2021-08-21T13:40:10Z</time>
      </trkpt>
      <trkpt lat="2.835005" lon="-75.091446">
        <ele>1376.6</ele>
        <time>2021-08-21T13:40:11Z</time>
      </trkpt>
      <trkpt lat="2.834987" lon="-75.09145">
        <ele>1376.8</ele>
        <time>2021-08-21T13:40:12Z</time>
      </trkpt>
      <trkpt lat="2.834969" lon="-75.09145">
        <ele>1377.0</ele>
        <time>2021-08-21T13:40:13Z</time>
      </trkpt>
      <trkpt lat="2.83495" lon="-75.09146">
        <ele>1377.2</ele>
        <time>2021-08-21T13:40:14Z</time>
      </trkpt>
      <trkpt lat="2.83493" lon="-75.09147">
        <ele>1377.4</ele>
        <time>2021-08-21T13:40:15Z</time>
      </trkpt>
      <trkpt lat="2.834907" lon="-75.09148">
        <ele>1377.6</ele>
        <time>2021-08-21T13:40:16Z</time>
      </trkpt>
      <trkpt lat="2.834885" lon="-75.09149">
        <ele>1377.8</ele>
        <time>2021-08-21T13:40:17Z</time>
      </trkpt>
      <trkpt lat="2.834865" lon="-75.0915">
        <ele>1378.0</ele>
        <time>2021-08-21T13:40:18Z</time>
      </trkpt>
      <trkpt lat="2.834846" lon="-75.09151">
        <ele>1378.1</ele>
        <time>2021-08-21T13:40:19Z</time>
      </trkpt>
      <trkpt lat="2.834826" lon="-75.09152">
        <ele>1378.3</ele>
        <time>2021-08-21T13:40:20Z</time>
      </trkpt>
      <trkpt lat="2.834805" lon="-75.09153">
        <ele>1378.5</ele>
        <time>2021-08-21T13:40:21Z</time>
      </trkpt>
      <trkpt lat="2.834784" lon="-75.09154">
        <ele>1378.7</ele>
        <time>2021-08-21T13:40:22Z</time>
      </trkpt>
      <trkpt lat="2.834759" lon="-75.09155">
        <ele>1378.9</ele>
        <time>2021-08-21T13:40:23Z</time>
      </trkpt>
      <trkpt lat="2.834734" lon="-75.09155">
        <ele>1379.1</ele>
        <time>2021-08-21T13:40:24Z</time>
      </trkpt>
      <trkpt lat="2.834709" lon="-75.09156">
        <ele>1379.3</ele>
        <time>2021-08-21T13:40:25Z</time>
      </trkpt>
      <trkpt lat="2.834684" lon="-75.09156">
        <ele>1379.5</ele>
        <time>2021-08-21T13:40:26Z</time>
      </trkpt>
      <trkpt lat="2.834658" lon="-75.09155">
        <ele>1379.7</ele>
        <time>2021-08-21T13:40:27Z</time>
      </trkpt>
      <trkpt lat="2.834632" lon="-75.09155">
        <ele>1379.9</ele>
        <time>2021-08-21T13:40:28Z</time>
      </trkpt>
      <trkpt lat="2.834606" lon="-75.09154">
        <ele>1380.1</ele>
        <time>2021-08-21T13:40:29Z</time>
      </trkpt>
      <trkpt lat="2.834582" lon="-75.09152">
        <ele>1380.3</ele>
        <time>2021-08-21T13:40:30Z</time>
      </trkpt>
      <trkpt lat="2.834558" lon="-75.091515">
        <ele>1380.6</ele>
        <time>2021-08-21T13:40:31Z</time>
      </trkpt>
      <trkpt lat="2.834535" lon="-75.09149">
        <ele>1380.8</ele>
        <time>2021-08-21T13:40:32Z</time>
      </trkpt>
      <trkpt lat="2.834515" lon="-75.09148">
        <ele>1381.1</ele>
        <time>2021-08-21T13:40:33Z</time>
      </trkpt>
      <trkpt lat="2.834497" lon="-75.09146">
        <ele>1381.3</ele>
        <time>2021-08-21T13:40:34Z</time>
      </trkpt>
      <trkpt lat="2.834482" lon="-75.09144">
        <ele>1381.6</ele>
        <time>2021-08-21T13:40:35Z</time>
      </trkpt>
      <trkpt lat="2.834467" lon="-75.09142">
        <ele>1381.8</ele>
        <time>2021-08-21T13:40:36Z</time>
      </trkpt>
      <trkpt lat="2.834453" lon="-75.0914">
        <ele>1382.1</ele>
        <time>2021-08-21T13:40:37Z</time>
      </trkpt>
      <trkpt lat="2.83444" lon="-75.09138">
        <ele>1382.3</ele>
        <time>2021-08-21T13:40:38Z</time>
      </trkpt>
      <trkpt lat="2.834428" lon="-75.091354">
        <ele>1382.5</ele>
        <time>2021-08-21T13:40:39Z</time>
      </trkpt>
      <trkpt lat="2.834417" lon="-75.09133">
        <ele>1382.8</ele>
        <time>2021-08-21T13:40:40Z</time>
      </trkpt>
      <trkpt lat="2.834406" lon="-75.09131">
        <ele>1383.0</ele>
        <time>2021-08-21T13:40:41Z</time>
      </trkpt>
      <trkpt lat="2.834395" lon="-75.091286">
        <ele>1383.3</ele>
        <time>2021-08-21T13:40:42Z</time>
      </trkpt>
      <trkpt lat="2.834385" lon="-75.091255">
        <ele>1383.5</ele>
        <time>2021-08-21T13:40:43Z</time>
      </trkpt>
      <trkpt lat="2.834377" lon="-75.09123">
        <ele>1383.8</ele>
        <time>2021-08-21T13:40:44Z</time>
      </trkpt>
      <trkpt lat="2.834368" lon="-75.09121">
        <ele>1384.0</ele>
        <time>2021-08-21T13:40:45Z</time>
      </trkpt>
      <trkpt lat="2.834358" lon="-75.09119">
        <ele>1384.3</ele>
        <time>2021-08-21T13:40:46Z</time>
      </trkpt>
      <trkpt lat="2.834349" lon="-75.09116">
        <ele>1384.5</ele>
        <time>2021-08-21T13:40:47Z</time>
      </trkpt>
      <trkpt lat="2.834342" lon="-75.09114">
        <ele>1384.8</ele>
        <time>2021-08-21T13:40:48Z</time>
      </trkpt>
      <trkpt lat="2.834335" lon="-75.09112">
        <ele>1385.0</ele>
        <time>2021-08-21T13:40:49Z</time>
      </trkpt>
      <trkpt lat="2.834329" lon="-75.091095">
        <ele>1385.3</ele>
        <time>2021-08-21T13:40:50Z</time>
      </trkpt>
      <trkpt lat="2.834323" lon="-75.09107">
        <ele>1385.5</ele>
        <time>2021-08-21T13:40:51Z</time>
      </trkpt>
      <trkpt lat="2.834317" lon="-75.09105">
        <ele>1385.8</ele>
        <time>2021-08-21T13:40:52Z</time>
      </trkpt>
      <trkpt lat="2.834311" lon="-75.09103">
        <ele>1386.0</ele>
        <time>2021-08-21T13:40:53Z</time>
      </trkpt>
      <trkpt lat="2.834306" lon="-75.09101">
        <ele>1386.2</ele>
        <time>2021-08-21T13:40:54Z</time>
      </trkpt>
      <trkpt lat="2.834305" lon="-75.09099">
        <ele>1386.5</ele>
        <time>2021-08-21T13:40:55Z</time>
      </trkpt>
      <trkpt lat="2.834303" lon="-75.09096">
        <ele>1386.8</ele>
        <time>2021-08-21T13:40:56Z</time>
      </trkpt>
      <trkpt lat="2.834299" lon="-75.090935">
        <ele>1387.0</ele>
        <time>2021-08-21T13:40:57Z</time>
      </trkpt>
      <trkpt lat="2.834295" lon="-75.09091">
        <ele>1387.3</ele>
        <time>2021-08-21T13:40:58Z</time>
      </trkpt>
      <trkpt lat="2.834288" lon="-75.09089">
        <ele>1387.6</ele>
        <time>2021-08-21T13:40:59Z</time>
      </trkpt>
      <trkpt lat="2.83428" lon="-75.090866">
        <ele>1387.9</ele>
        <time>2021-08-21T13:41:00Z</time>
      </trkpt>
      <trkpt lat="2.834273" lon="-75.09084">
        <ele>1388.2</ele>
        <time>2021-08-21T13:41:01Z</time>
      </trkpt>
      <trkpt lat="2.834266" lon="-75.09082">
        <ele>1388.5</ele>
        <time>2021-08-21T13:41:02Z</time>
      </trkpt>
      <trkpt lat="2.834257" lon="-75.090805">
        <ele>1388.7</ele>
        <time>2021-08-21T13:41:03Z</time>
      </trkpt>
      <trkpt lat="2.834246" lon="-75.09078">
        <ele>1389.0</ele>
        <time>2021-08-21T13:41:04Z</time>
      </trkpt>
      <trkpt lat="2.834237" lon="-75.09076">
        <ele>1389.3</ele>
        <time>2021-08-21T13:41:05Z</time>
      </trkpt>
      <trkpt lat="2.834232" lon="-75.090744">
        <ele>1389.5</ele>
        <time>2021-08-21T13:41:06Z</time>
      </trkpt>
      <trkpt lat="2.834226" lon="-75.09072">
        <ele>1389.8</ele>
        <time>2021-08-21T13:41:07Z</time>
      </trkpt>
      <trkpt lat="2.834212" lon="-75.09069">
        <ele>1390.2</ele>
        <time>2021-08-21T13:41:08Z</time>
      </trkpt>
      <trkpt lat="2.834219" lon="-75.090706">
        <ele>1390.0</ele>
        <time>2021-08-21T13:41:08Z</time>
      </trkpt>
      <trkpt lat="2.834205" lon="-75.09067">
        <ele>1390.5</ele>
        <time>2021-08-21T13:41:09Z</time>
      </trkpt>
      <trkpt lat="2.834197" lon="-75.09065">
        <ele>1390.7</ele>
        <time>2021-08-21T13:41:10Z</time>
      </trkpt>
      <trkpt lat="2.834189" lon="-75.09064">
        <ele>1390.9</ele>
        <time>2021-08-21T13:41:11Z</time>
      </trkpt>
      <trkpt lat="2.834181" lon="-75.09062">
        <ele>1391.2</ele>
        <time>2021-08-21T13:41:12Z</time>
      </trkpt>
      <trkpt lat="2.834173" lon="-75.0906">
        <ele>1391.4</ele>
        <time>2021-08-21T13:41:13Z</time>
      </trkpt>
      <trkpt lat="2.834166" lon="-75.09058">
        <ele>1391.7</ele>
        <time>2021-08-21T13:41:14Z</time>
      </trkpt>
      <trkpt lat="2.834159" lon="-75.09056">
        <ele>1391.9</ele>
        <time>2021-08-21T13:41:15Z</time>
      </trkpt>
      <trkpt lat="2.834151" lon="-75.09054">
        <ele>1392.2</ele>
        <time>2021-08-21T13:41:16Z</time>
      </trkpt>
      <trkpt lat="2.834142" lon="-75.090515">
        <ele>1392.4</ele>
        <time>2021-08-21T13:41:17Z</time>
      </trkpt>
      <trkpt lat="2.834133" lon="-75.09049">
        <ele>1392.7</ele>
        <time>2021-08-21T13:41:18Z</time>
      </trkpt>
      <trkpt lat="2.834123" lon="-75.09047">
        <ele>1392.9</ele>
        <time>2021-08-21T13:41:19Z</time>
      </trkpt>
      <trkpt lat="2.834115" lon="-75.090454">
        <ele>1393.2</ele>
        <time>2021-08-21T13:41:20Z</time>
      </trkpt>
      <trkpt lat="2.834106" lon="-75.09043">
        <ele>1393.4</ele>
        <time>2021-08-21T13:41:21Z</time>
      </trkpt>
      <trkpt lat="2.834097" lon="-75.09041">
        <ele>1393.6</ele>
        <time>2021-08-21T13:41:22Z</time>
      </trkpt>
      <trkpt lat="2.834086" lon="-75.09039">
        <ele>1393.8</ele>
        <time>2021-08-21T13:41:23Z</time>
      </trkpt>
      <trkpt lat="2.834072" lon="-75.09037">
        <ele>1394.0</ele>
        <time>2021-08-21T13:41:24Z</time>
      </trkpt>
      <trkpt lat="2.834057" lon="-75.090355">
        <ele>1394.0</ele>
        <time>2021-08-21T13:41:25Z</time>
      </trkpt>
      <trkpt lat="2.834042" lon="-75.09034">
        <ele>1394.2</ele>
        <time>2021-08-21T13:41:26Z</time>
      </trkpt>
      <trkpt lat="2.834025" lon="-75.090324">
        <ele>1394.4</ele>
        <time>2021-08-21T13:41:27Z</time>
      </trkpt>
      <trkpt lat="2.834006" lon="-75.09031">
        <ele>1394.5</ele>
        <time>2021-08-21T13:41:28Z</time>
      </trkpt>
      <trkpt lat="2.833986" lon="-75.0903">
        <ele>1394.7</ele>
        <time>2021-08-21T13:41:29Z</time>
      </trkpt>
      <trkpt lat="2.833964" lon="-75.090294">
        <ele>1394.8</ele>
        <time>2021-08-21T13:41:30Z</time>
      </trkpt>
      <trkpt lat="2.833941" lon="-75.09029">
        <ele>1394.9</ele>
        <time>2021-08-21T13:41:31Z</time>
      </trkpt>
      <trkpt lat="2.833918" lon="-75.09028">
        <ele>1395.0</ele>
        <time>2021-08-21T13:41:32Z</time>
      </trkpt>
      <trkpt lat="2.833893" lon="-75.09028">
        <ele>1395.1</ele>
        <time>2021-08-21T13:41:33Z</time>
      </trkpt>
      <trkpt lat="2.833867" lon="-75.09027">
        <ele>1395.2</ele>
        <time>2021-08-21T13:41:34Z</time>
      </trkpt>
      <trkpt lat="2.833839" lon="-75.09027">
        <ele>1395.2</ele>
        <time>2021-08-21T13:41:35Z</time>
      </trkpt>
      <trkpt lat="2.833812" lon="-75.09027">
        <ele>1395.3</ele>
        <time>2021-08-21T13:41:36Z</time>
      </trkpt>
      <trkpt lat="2.833785" lon="-75.09026">
        <ele>1395.4</ele>
        <time>2021-08-21T13:41:37Z</time>
      </trkpt>
      <trkpt lat="2.833759" lon="-75.090256">
        <ele>1395.4</ele>
        <time>2021-08-21T13:41:38Z</time>
      </trkpt>
      <trkpt lat="2.833734" lon="-75.09025">
        <ele>1395.5</ele>
        <time>2021-08-21T13:41:39Z</time>
      </trkpt>
      <trkpt lat="2.83371" lon="-75.09024">
        <ele>1395.6</ele>
        <time>2021-08-21T13:41:40Z</time>
      </trkpt>
      <trkpt lat="2.833684" lon="-75.09023">
        <ele>1395.6</ele>
        <time>2021-08-21T13:41:41Z</time>
      </trkpt>
      <trkpt lat="2.833659" lon="-75.090225">
        <ele>1395.7</ele>
        <time>2021-08-21T13:41:42Z</time>
      </trkpt>
      <trkpt lat="2.833635" lon="-75.09022">
        <ele>1395.7</ele>
        <time>2021-08-21T13:41:43Z</time>
      </trkpt>
      <trkpt lat="2.833611" lon="-75.09021">
        <ele>1395.8</ele>
        <time>2021-08-21T13:41:44Z</time>
      </trkpt>
      <trkpt lat="2.833586" lon="-75.0902">
        <ele>1395.8</ele>
        <time>2021-08-21T13:41:45Z</time>
      </trkpt>
      <trkpt lat="2.833562" lon="-75.090195">
        <ele>1395.9</ele>
        <time>2021-08-21T13:41:46Z</time>
      </trkpt>
      <trkpt lat="2.833539" lon="-75.09018">
        <ele>1395.9</ele>
        <time>2021-08-21T13:41:47Z</time>
      </trkpt>
      <trkpt lat="2.833514" lon="-75.09017">
        <ele>1396.0</ele>
        <time>2021-08-21T13:41:48Z</time>
      </trkpt>
      <trkpt lat="2.833489" lon="-75.090164">
        <ele>1396.0</ele>
        <time>2021-08-21T13:41:49Z</time>
      </trkpt>
      <trkpt lat="2.833464" lon="-75.09016">
        <ele>1396.1</ele>
        <time>2021-08-21T13:41:50Z</time>
      </trkpt>
      <trkpt lat="2.833437" lon="-75.09015">
        <ele>1396.1</ele>
        <time>2021-08-21T13:41:51Z</time>
      </trkpt>
      <trkpt lat="2.83341" lon="-75.09014">
        <ele>1396.2</ele>
        <time>2021-08-21T13:41:52Z</time>
      </trkpt>
      <trkpt lat="2.833384" lon="-75.09013">
        <ele>1396.2</ele>
        <time>2021-08-21T13:41:53Z</time>
      </trkpt>
      <trkpt lat="2.833359" lon="-75.09012">
        <ele>1396.2</ele>
        <time>2021-08-21T13:41:54Z</time>
      </trkpt>
      <trkpt lat="2.833336" lon="-75.0901">
        <ele>1396.3</ele>
        <time>2021-08-21T13:41:55Z</time>
      </trkpt>
      <trkpt lat="2.833314" lon="-75.090096">
        <ele>1396.3</ele>
        <time>2021-08-21T13:41:56Z</time>
      </trkpt>
      <trkpt lat="2.833291" lon="-75.09008">
        <ele>1396.3</ele>
        <time>2021-08-21T13:41:57Z</time>
      </trkpt>
      <trkpt lat="2.833267" lon="-75.09007">
        <ele>1396.3</ele>
        <time>2021-08-21T13:41:58Z</time>
      </trkpt>
      <trkpt lat="2.833241" lon="-75.090065">
        <ele>1396.4</ele>
        <time>2021-08-21T13:41:59Z</time>
      </trkpt>
      <trkpt lat="2.833216" lon="-75.09005">
        <ele>1396.4</ele>
        <time>2021-08-21T13:42:00Z</time>
      </trkpt>
      <trkpt lat="2.833191" lon="-75.09004">
        <ele>1396.4</ele>
        <time>2021-08-21T13:42:01Z</time>
      </trkpt>
      <trkpt lat="2.833166" lon="-75.09003">
        <ele>1396.4</ele>
        <time>2021-08-21T13:42:02Z</time>
      </trkpt>
      <trkpt lat="2.833142" lon="-75.09002">
        <ele>1396.5</ele>
        <time>2021-08-21T13:42:03Z</time>
      </trkpt>
      <trkpt lat="2.833117" lon="-75.09002">
        <ele>1396.5</ele>
        <time>2021-08-21T13:42:04Z</time>
      </trkpt>
      <trkpt lat="2.833092" lon="-75.09001">
        <ele>1396.5</ele>
        <time>2021-08-21T13:42:05Z</time>
      </trkpt>
      <trkpt lat="2.833069" lon="-75.090004">
        <ele>1396.6</ele>
        <time>2021-08-21T13:42:06Z</time>
      </trkpt>
      <trkpt lat="2.833043" lon="-75.09">
        <ele>1396.6</ele>
        <time>2021-08-21T13:42:07Z</time>
      </trkpt>
      <trkpt lat="2.833019" lon="-75.08999">
        <ele>1396.6</ele>
        <time>2021-08-21T13:42:08Z</time>
      </trkpt>
      <trkpt lat="2.832995" lon="-75.08998">
        <ele>1396.7</ele>
        <time>2021-08-21T13:42:09Z</time>
      </trkpt>
      <trkpt lat="2.83297" lon="-75.089966">
        <ele>1396.7</ele>
        <time>2021-08-21T13:42:10Z</time>
      </trkpt>
      <trkpt lat="2.832944" lon="-75.08996">
        <ele>1396.8</ele>
        <time>2021-08-21T13:42:11Z</time>
      </trkpt>
      <trkpt lat="2.832918" lon="-75.08995">
        <ele>1396.9</ele>
        <time>2021-08-21T13:42:12Z</time>
      </trkpt>
      <trkpt lat="2.832893" lon="-75.089935">
        <ele>1397.0</ele>
        <time>2021-08-21T13:42:13Z</time>
      </trkpt>
      <trkpt lat="2.83287" lon="-75.08993">
        <ele>1397.1</ele>
        <time>2021-08-21T13:42:14Z</time>
      </trkpt>
      <trkpt lat="2.832845" lon="-75.08991">
        <ele>1397.2</ele>
        <time>2021-08-21T13:42:15Z</time>
      </trkpt>
      <trkpt lat="2.832819" lon="-75.089905">
        <ele>1397.3</ele>
        <time>2021-08-21T13:42:16Z</time>
      </trkpt>
      <trkpt lat="2.832795" lon="-75.0899">
        <ele>1397.4</ele>
        <time>2021-08-21T13:42:17Z</time>
      </trkpt>
      <trkpt lat="2.832769" lon="-75.08988">
        <ele>1397.5</ele>
        <time>2021-08-21T13:42:18Z</time>
      </trkpt>
      <trkpt lat="2.832744" lon="-75.089874">
        <ele>1397.6</ele>
        <time>2021-08-21T13:42:19Z</time>
      </trkpt>
      <trkpt lat="2.832719" lon="-75.08986">
        <ele>1397.7</ele>
        <time>2021-08-21T13:42:20Z</time>
      </trkpt>
      <trkpt lat="2.832694" lon="-75.08985">
        <ele>1397.7</ele>
        <time>2021-08-21T13:42:21Z</time>
      </trkpt>
      <trkpt lat="2.832671" lon="-75.089836">
        <ele>1397.8</ele>
        <time>2021-08-21T13:42:22Z</time>
      </trkpt>
      <trkpt lat="2.832647" lon="-75.08983">
        <ele>1397.9</ele>
        <time>2021-08-21T13:42:23Z</time>
      </trkpt>
      <trkpt lat="2.832625" lon="-75.08982">
        <ele>1398.0</ele>
        <time>2021-08-21T13:42:24Z</time>
      </trkpt>
      <trkpt lat="2.832604" lon="-75.08981">
        <ele>1398.1</ele>
        <time>2021-08-21T13:42:25Z</time>
      </trkpt>
      <trkpt lat="2.832583" lon="-75.0898">
        <ele>1398.2</ele>
        <time>2021-08-21T13:42:26Z</time>
      </trkpt>
      <trkpt lat="2.832562" lon="-75.08979">
        <ele>1398.3</ele>
        <time>2021-08-21T13:42:27Z</time>
      </trkpt>
      <trkpt lat="2.832539" lon="-75.08978">
        <ele>1398.4</ele>
        <time>2021-08-21T13:42:28Z</time>
      </trkpt>
      <trkpt lat="2.832516" lon="-75.08977">
        <ele>1398.5</ele>
        <time>2021-08-21T13:42:29Z</time>
      </trkpt>
      <trkpt lat="2.832494" lon="-75.08976">
        <ele>1398.6</ele>
        <time>2021-08-21T13:42:30Z</time>
      </trkpt>
      <trkpt lat="2.832471" lon="-75.08975">
        <ele>1398.7</ele>
        <time>2021-08-21T13:42:31Z</time>
      </trkpt>
      <trkpt lat="2.832451" lon="-75.089745">
        <ele>1398.9</ele>
        <time>2021-08-21T13:42:32Z</time>
      </trkpt>
      <trkpt lat="2.832431" lon="-75.08974">
        <ele>1399.0</ele>
        <time>2021-08-21T13:42:33Z</time>
      </trkpt>
      <trkpt lat="2.832411" lon="-75.08973">
        <ele>1399.1</ele>
        <time>2021-08-21T13:42:34Z</time>
      </trkpt>
      <trkpt lat="2.832391" lon="-75.08972">
        <ele>1399.2</ele>
        <time>2021-08-21T13:42:35Z</time>
      </trkpt>
      <trkpt lat="2.83237" lon="-75.08972">
        <ele>1399.3</ele>
        <time>2021-08-21T13:42:36Z</time>
      </trkpt>
      <trkpt lat="2.832348" lon="-75.08971">
        <ele>1399.3</ele>
        <time>2021-08-21T13:42:37Z</time>
      </trkpt>
      <trkpt lat="2.832327" lon="-75.08971">
        <ele>1399.4</ele>
        <time>2021-08-21T13:42:38Z</time>
      </trkpt>
      <trkpt lat="2.832305" lon="-75.0897">
        <ele>1399.5</ele>
        <time>2021-08-21T13:42:39Z</time>
      </trkpt>
      <trkpt lat="2.832284" lon="-75.08969">
        <ele>1399.6</ele>
        <time>2021-08-21T13:42:40Z</time>
      </trkpt>
      <trkpt lat="2.832263" lon="-75.08968">
        <ele>1399.6</ele>
        <time>2021-08-21T13:42:41Z</time>
      </trkpt>
      <trkpt lat="2.832243" lon="-75.08967">
        <ele>1399.7</ele>
        <time>2021-08-21T13:42:42Z</time>
      </trkpt>
      <trkpt lat="2.832223" lon="-75.08967">
        <ele>1399.8</ele>
        <time>2021-08-21T13:42:43Z</time>
      </trkpt>
      <trkpt lat="2.832202" lon="-75.08966">
        <ele>1399.8</ele>
        <time>2021-08-21T13:42:44Z</time>
      </trkpt>
      <trkpt lat="2.83218" lon="-75.08965">
        <ele>1399.9</ele>
        <time>2021-08-21T13:42:45Z</time>
      </trkpt>
      <trkpt lat="2.832157" lon="-75.089645">
        <ele>1399.9</ele>
        <time>2021-08-21T13:42:46Z</time>
      </trkpt>
      <trkpt lat="2.832133" lon="-75.08964">
        <ele>1400.0</ele>
        <time>2021-08-21T13:42:47Z</time>
      </trkpt>
      <trkpt lat="2.832111" lon="-75.08963">
        <ele>1400.0</ele>
        <time>2021-08-21T13:42:48Z</time>
      </trkpt>
      <trkpt lat="2.832086" lon="-75.08962">
        <ele>1400.1</ele>
        <time>2021-08-21T13:42:49Z</time>
      </trkpt>
      <trkpt lat="2.832061" lon="-75.089615">
        <ele>1400.2</ele>
        <time>2021-08-21T13:42:50Z</time>
      </trkpt>
      <trkpt lat="2.832037" lon="-75.08961">
        <ele>1400.2</ele>
        <time>2021-08-21T13:42:51Z</time>
      </trkpt>
      <trkpt lat="2.832013" lon="-75.0896">
        <ele>1400.3</ele>
        <time>2021-08-21T13:42:52Z</time>
      </trkpt>
      <trkpt lat="2.831988" lon="-75.08959">
        <ele>1400.4</ele>
        <time>2021-08-21T13:42:53Z</time>
      </trkpt>
      <trkpt lat="2.831964" lon="-75.08959">
        <ele>1400.5</ele>
        <time>2021-08-21T13:42:54Z</time>
      </trkpt>
      <trkpt lat="2.831939" lon="-75.089584">
        <ele>1400.5</ele>
        <time>2021-08-21T13:42:55Z</time>
      </trkpt>
      <trkpt lat="2.831913" lon="-75.089584">
        <ele>1400.6</ele>
        <time>2021-08-21T13:42:56Z</time>
      </trkpt>
      <trkpt lat="2.831887" lon="-75.08958">
        <ele>1400.7</ele>
        <time>2021-08-21T13:42:57Z</time>
      </trkpt>
      <trkpt lat="2.831864" lon="-75.08957">
        <ele>1400.8</ele>
        <time>2021-08-21T13:42:58Z</time>
      </trkpt>
      <trkpt lat="2.831838" lon="-75.08957">
        <ele>1400.9</ele>
        <time>2021-08-21T13:42:59Z</time>
      </trkpt>
      <trkpt lat="2.831786" lon="-75.089554">
        <ele>1401.1</ele>
        <time>2021-08-21T13:43:01Z</time>
      </trkpt>
      <trkpt lat="2.831799" lon="-75.08956">
        <ele>1401.0</ele>
        <time>2021-08-21T13:43:01Z</time>
      </trkpt>
      <trkpt lat="2.831761" lon="-75.089554">
        <ele>1401.2</ele>
        <time>2021-08-21T13:43:02Z</time>
      </trkpt>
      <trkpt lat="2.831737" lon="-75.08955">
        <ele>1401.3</ele>
        <time>2021-08-21T13:43:03Z</time>
      </trkpt>
      <trkpt lat="2.831712" lon="-75.08954">
        <ele>1401.4</ele>
        <time>2021-08-21T13:43:04Z</time>
      </trkpt>
      <trkpt lat="2.831687" lon="-75.08953">
        <ele>1401.6</ele>
        <time>2021-08-21T13:43:05Z</time>
      </trkpt>
      <trkpt lat="2.831663" lon="-75.08953">
        <ele>1401.7</ele>
        <time>2021-08-21T13:43:06Z</time>
      </trkpt>
      <trkpt lat="2.831639" lon="-75.08952">
        <ele>1401.9</ele>
        <time>2021-08-21T13:43:07Z</time>
      </trkpt>
      <trkpt lat="2.831615" lon="-75.089516">
        <ele>1402.0</ele>
        <time>2021-08-21T13:43:08Z</time>
      </trkpt>
      <trkpt lat="2.83159" lon="-75.089516">
        <ele>1402.1</ele>
        <time>2021-08-21T13:43:09Z</time>
      </trkpt>
      <trkpt lat="2.831565" lon="-75.089516">
        <ele>1402.3</ele>
        <time>2021-08-21T13:43:10Z</time>
      </trkpt>
      <trkpt lat="2.83154" lon="-75.08951">
        <ele>1402.4</ele>
        <time>2021-08-21T13:43:11Z</time>
      </trkpt>
      <trkpt lat="2.831516" lon="-75.08951">
        <ele>1402.5</ele>
        <time>2021-08-21T13:43:12Z</time>
      </trkpt>
      <trkpt lat="2.831494" lon="-75.08951">
        <ele>1402.7</ele>
        <time>2021-08-21T13:43:13Z</time>
      </trkpt>
      <trkpt lat="2.831471" lon="-75.089516">
        <ele>1402.8</ele>
        <time>2021-08-21T13:43:14Z</time>
      </trkpt>
      <trkpt lat="2.831448" lon="-75.089516">
        <ele>1402.9</ele>
        <time>2021-08-21T13:43:15Z</time>
      </trkpt>
      <trkpt lat="2.831426" lon="-75.08952">
        <ele>1403.1</ele>
        <time>2021-08-21T13:43:16Z</time>
      </trkpt>
      <trkpt lat="2.831405" lon="-75.08953">
        <ele>1403.2</ele>
        <time>2021-08-21T13:43:17Z</time>
      </trkpt>
      <trkpt lat="2.831383" lon="-75.08954">
        <ele>1403.3</ele>
        <time>2021-08-21T13:43:18Z</time>
      </trkpt>
      <trkpt lat="2.831361" lon="-75.08955">
        <ele>1403.5</ele>
        <time>2021-08-21T13:43:19Z</time>
      </trkpt>
      <trkpt lat="2.83134" lon="-75.08956">
        <ele>1403.6</ele>
        <time>2021-08-21T13:43:20Z</time>
      </trkpt>
      <trkpt lat="2.83132" lon="-75.08957">
        <ele>1403.7</ele>
        <time>2021-08-21T13:43:21Z</time>
      </trkpt>
      <trkpt lat="2.831299" lon="-75.089584">
        <ele>1403.8</ele>
        <time>2021-08-21T13:43:22Z</time>
      </trkpt>
      <trkpt lat="2.831277" lon="-75.08959">
        <ele>1403.9</ele>
        <time>2021-08-21T13:43:23Z</time>
      </trkpt>
      <trkpt lat="2.831256" lon="-75.0896">
        <ele>1404.1</ele>
        <time>2021-08-21T13:43:24Z</time>
      </trkpt>
      <trkpt lat="2.831234" lon="-75.089615">
        <ele>1404.2</ele>
        <time>2021-08-21T13:43:25Z</time>
      </trkpt>
      <trkpt lat="2.83121" lon="-75.08962">
        <ele>1404.3</ele>
        <time>2021-08-21T13:43:26Z</time>
      </trkpt>
      <trkpt lat="2.831187" lon="-75.08963">
        <ele>1404.4</ele>
        <time>2021-08-21T13:43:27Z</time>
      </trkpt>
      <trkpt lat="2.831164" lon="-75.089645">
        <ele>1404.5</ele>
        <time>2021-08-21T13:43:28Z</time>
      </trkpt>
      <trkpt lat="2.831142" lon="-75.08965">
        <ele>1404.6</ele>
        <time>2021-08-21T13:43:29Z</time>
      </trkpt>
      <trkpt lat="2.831122" lon="-75.08966">
        <ele>1404.7</ele>
        <time>2021-08-21T13:43:30Z</time>
      </trkpt>
      <trkpt lat="2.831102" lon="-75.08967">
        <ele>1404.8</ele>
        <time>2021-08-21T13:43:31Z</time>
      </trkpt>
      <trkpt lat="2.831082" lon="-75.08968">
        <ele>1404.9</ele>
        <time>2021-08-21T13:43:32Z</time>
      </trkpt>
      <trkpt lat="2.831062" lon="-75.08969">
        <ele>1405.0</ele>
        <time>2021-08-21T13:43:33Z</time>
      </trkpt>
      <trkpt lat="2.831043" lon="-75.08971">
        <ele>1405.1</ele>
        <time>2021-08-21T13:43:34Z</time>
      </trkpt>
      <trkpt lat="2.831024" lon="-75.089714">
        <ele>1405.2</ele>
        <time>2021-08-21T13:43:35Z</time>
      </trkpt>
      <trkpt lat="2.831005" lon="-75.08973">
        <ele>1405.3</ele>
        <time>2021-08-21T13:43:36Z</time>
      </trkpt>
      <trkpt lat="2.830986" lon="-75.08974">
        <ele>1405.4</ele>
        <time>2021-08-21T13:43:37Z</time>
      </trkpt>
      <trkpt lat="2.830965" lon="-75.08975">
        <ele>1405.5</ele>
        <time>2021-08-21T13:43:38Z</time>
      </trkpt>
      <trkpt lat="2.830945" lon="-75.08977">
        <ele>1405.5</ele>
        <time>2021-08-21T13:43:39Z</time>
      </trkpt>
      <trkpt lat="2.830925" lon="-75.08978">
        <ele>1405.6</ele>
        <time>2021-08-21T13:43:40Z</time>
      </trkpt>
      <trkpt lat="2.830904" lon="-75.0898">
        <ele>1405.7</ele>
        <time>2021-08-21T13:43:41Z</time>
      </trkpt>
      <trkpt lat="2.830884" lon="-75.08981">
        <ele>1405.8</ele>
        <time>2021-08-21T13:43:42Z</time>
      </trkpt>
      <trkpt lat="2.830865" lon="-75.08982">
        <ele>1405.9</ele>
        <time>2021-08-21T13:43:43Z</time>
      </trkpt>
      <trkpt lat="2.830846" lon="-75.089836">
        <ele>1406.0</ele>
        <time>2021-08-21T13:43:44Z</time>
      </trkpt>
      <trkpt lat="2.830826" lon="-75.08985">
        <ele>1406.2</ele>
        <time>2021-08-21T13:43:45Z</time>
      </trkpt>
      <trkpt lat="2.830806" lon="-75.08987">
        <ele>1406.3</ele>
        <time>2021-08-21T13:43:46Z</time>
      </trkpt>
      <trkpt lat="2.830786" lon="-75.08988">
        <ele>1406.4</ele>
        <time>2021-08-21T13:43:47Z</time>
      </trkpt>
      <trkpt lat="2.830765" lon="-75.08989">
        <ele>1406.5</ele>
        <time>2021-08-21T13:43:48Z</time>
      </trkpt>
      <trkpt lat="2.830744" lon="-75.089905">
        <ele>1406.6</ele>
        <time>2021-08-21T13:43:49Z</time>
      </trkpt>
      <trkpt lat="2.830724" lon="-75.08992">
        <ele>1406.7</ele>
        <time>2021-08-21T13:43:50Z</time>
      </trkpt>
      <trkpt lat="2.830703" lon="-75.089935">
        <ele>1406.8</ele>
        <time>2021-08-21T13:43:51Z</time>
      </trkpt>
      <trkpt lat="2.830683" lon="-75.08994">
        <ele>1406.9</ele>
        <time>2021-08-21T13:43:52Z</time>
      </trkpt>
      <trkpt lat="2.830664" lon="-75.08996">
        <ele>1407.0</ele>
        <time>2021-08-21T13:43:53Z</time>
      </trkpt>
      <trkpt lat="2.830645" lon="-75.08997">
        <ele>1407.1</ele>
        <time>2021-08-21T13:43:54Z</time>
      </trkpt>
      <trkpt lat="2.830625" lon="-75.08999">
        <ele>1407.2</ele>
        <time>2021-08-21T13:43:55Z</time>
      </trkpt>
      <trkpt lat="2.830605" lon="-75.09">
        <ele>1407.3</ele>
        <time>2021-08-21T13:43:56Z</time>
      </trkpt>
      <trkpt lat="2.830585" lon="-75.09001">
        <ele>1407.4</ele>
        <time>2021-08-21T13:43:57Z</time>
      </trkpt>
      <trkpt lat="2.830564" lon="-75.09003">
        <ele>1407.5</ele>
        <time>2021-08-21T13:43:58Z</time>
      </trkpt>
      <trkpt lat="2.830544" lon="-75.090034">
        <ele>1407.6</ele>
        <time>2021-08-21T13:43:59Z</time>
      </trkpt>
      <trkpt lat="2.830524" lon="-75.09005">
        <ele>1407.7</ele>
        <time>2021-08-21T13:44:00Z</time>
      </trkpt>
      <trkpt lat="2.830504" lon="-75.090065">
        <ele>1407.8</ele>
        <time>2021-08-21T13:44:01Z</time>
      </trkpt>
      <trkpt lat="2.830483" lon="-75.09008">
        <ele>1407.9</ele>
        <time>2021-08-21T13:44:02Z</time>
      </trkpt>
      <trkpt lat="2.830462" lon="-75.09009">
        <ele>1408.0</ele>
        <time>2021-08-21T13:44:03Z</time>
      </trkpt>
      <trkpt lat="2.830441" lon="-75.0901">
        <ele>1408.1</ele>
        <time>2021-08-21T13:44:04Z</time>
      </trkpt>
      <trkpt lat="2.830421" lon="-75.09012">
        <ele>1408.1</ele>
        <time>2021-08-21T13:44:05Z</time>
      </trkpt>
      <trkpt lat="2.830401" lon="-75.09013">
        <ele>1408.2</ele>
        <time>2021-08-21T13:44:06Z</time>
      </trkpt>
      <trkpt lat="2.830381" lon="-75.09015">
        <ele>1408.3</ele>
        <time>2021-08-21T13:44:07Z</time>
      </trkpt>
      <trkpt lat="2.830362" lon="-75.09016">
        <ele>1408.4</ele>
        <time>2021-08-21T13:44:08Z</time>
      </trkpt>
      <trkpt lat="2.830342" lon="-75.09017">
        <ele>1408.4</ele>
        <time>2021-08-21T13:44:09Z</time>
      </trkpt>
      <trkpt lat="2.830321" lon="-75.09019">
        <ele>1408.5</ele>
        <time>2021-08-21T13:44:10Z</time>
      </trkpt>
      <trkpt lat="2.830298" lon="-75.09021">
        <ele>1408.6</ele>
        <time>2021-08-21T13:44:11Z</time>
      </trkpt>
      <trkpt lat="2.830276" lon="-75.090225">
        <ele>1408.6</ele>
        <time>2021-08-21T13:44:12Z</time>
      </trkpt>
      <trkpt lat="2.830254" lon="-75.09024">
        <ele>1408.7</ele>
        <time>2021-08-21T13:44:13Z</time>
      </trkpt>
      <trkpt lat="2.83023" lon="-75.09026">
        <ele>1408.7</ele>
        <time>2021-08-21T13:44:14Z</time>
      </trkpt>
      <trkpt lat="2.830207" lon="-75.09028">
        <ele>1408.8</ele>
        <time>2021-08-21T13:44:15Z</time>
      </trkpt>
      <trkpt lat="2.830183" lon="-75.0903">
        <ele>1408.8</ele>
        <time>2021-08-21T13:44:16Z</time>
      </trkpt>
      <trkpt lat="2.830159" lon="-75.09032">
        <ele>1408.8</ele>
        <time>2021-08-21T13:44:17Z</time>
      </trkpt>
      <trkpt lat="2.830136" lon="-75.09034">
        <ele>1408.9</ele>
        <time>2021-08-21T13:44:18Z</time>
      </trkpt>
      <trkpt lat="2.830115" lon="-75.09036">
        <ele>1408.9</ele>
        <time>2021-08-21T13:44:19Z</time>
      </trkpt>
      <trkpt lat="2.830095" lon="-75.090385">
        <ele>1408.9</ele>
        <time>2021-08-21T13:44:20Z</time>
      </trkpt>
      <trkpt lat="2.830076" lon="-75.09041">
        <ele>1408.9</ele>
        <time>2021-08-21T13:44:21Z</time>
      </trkpt>
      <trkpt lat="2.830056" lon="-75.09043">
        <ele>1408.9</ele>
        <time>2021-08-21T13:44:22Z</time>
      </trkpt>
      <trkpt lat="2.830036" lon="-75.090454">
        <ele>1408.9</ele>
        <time>2021-08-21T13:44:23Z</time>
      </trkpt>
      <trkpt lat="2.830018" lon="-75.090485">
        <ele>1408.9</ele>
        <time>2021-08-21T13:44:24Z</time>
      </trkpt>
      <trkpt lat="2.830001" lon="-75.09051">
        <ele>1408.9</ele>
        <time>2021-08-21T13:44:25Z</time>
      </trkpt>
      <trkpt lat="2.829984" lon="-75.09053">
        <ele>1409.0</ele>
        <time>2021-08-21T13:44:26Z</time>
      </trkpt>
      <trkpt lat="2.829968" lon="-75.09056">
        <ele>1409.0</ele>
        <time>2021-08-21T13:44:27Z</time>
      </trkpt>
      <trkpt lat="2.829953" lon="-75.09058">
        <ele>1409.0</ele>
        <time>2021-08-21T13:44:28Z</time>
      </trkpt>
      <trkpt lat="2.829937" lon="-75.09061">
        <ele>1409.1</ele>
        <time>2021-08-21T13:44:29Z</time>
      </trkpt>
      <trkpt lat="2.82992" lon="-75.09062">
        <ele>1409.1</ele>
        <time>2021-08-21T13:44:30Z</time>
      </trkpt>
      <trkpt lat="2.829903" lon="-75.090645">
        <ele>1409.1</ele>
        <time>2021-08-21T13:44:31Z</time>
      </trkpt>
      <trkpt lat="2.829885" lon="-75.09067">
        <ele>1409.1</ele>
        <time>2021-08-21T13:44:32Z</time>
      </trkpt>
      <trkpt lat="2.829869" lon="-75.09069">
        <ele>1409.2</ele>
        <time>2021-08-21T13:44:33Z</time>
      </trkpt>
      <trkpt lat="2.829857" lon="-75.090706">
        <ele>1409.2</ele>
        <time>2021-08-21T13:44:34Z</time>
      </trkpt>
      <trkpt lat="2.829844" lon="-75.09072">
        <ele>1409.2</ele>
        <time>2021-08-21T13:44:35Z</time>
      </trkpt>
      <trkpt lat="2.82983" lon="-75.090744">
        <ele>1409.2</ele>
        <time>2021-08-21T13:44:36Z</time>
      </trkpt>
      <trkpt lat="2.829815" lon="-75.09076">
        <ele>1409.2</ele>
        <time>2021-08-21T13:44:37Z</time>
      </trkpt>
      <trkpt lat="2.829799" lon="-75.09078">
        <ele>1409.2</ele>
        <time>2021-08-21T13:44:38Z</time>
      </trkpt>
      <trkpt lat="2.829781" lon="-75.090805">
        <ele>1409.2</ele>
        <time>2021-08-21T13:44:39Z</time>
      </trkpt>
      <trkpt lat="2.829763" lon="-75.09083">
        <ele>1409.1</ele>
        <time>2021-08-21T13:44:40Z</time>
      </trkpt>
      <trkpt lat="2.829744" lon="-75.09086">
        <ele>1409.1</ele>
        <time>2021-08-21T13:44:41Z</time>
      </trkpt>
      <trkpt lat="2.829725" lon="-75.09088">
        <ele>1409.0</ele>
        <time>2021-08-21T13:44:42Z</time>
      </trkpt>
      <trkpt lat="2.829706" lon="-75.090904">
        <ele>1409.0</ele>
        <time>2021-08-21T13:44:43Z</time>
      </trkpt>
      <trkpt lat="2.829688" lon="-75.090935">
        <ele>1408.9</ele>
        <time>2021-08-21T13:44:44Z</time>
      </trkpt>
      <trkpt lat="2.829671" lon="-75.09096">
        <ele>1408.8</ele>
        <time>2021-08-21T13:44:45Z</time>
      </trkpt>
      <trkpt lat="2.829653" lon="-75.09099">
        <ele>1408.7</ele>
        <time>2021-08-21T13:44:46Z</time>
      </trkpt>
      <trkpt lat="2.829636" lon="-75.09102">
        <ele>1408.7</ele>
        <time>2021-08-21T13:44:47Z</time>
      </trkpt>
      <trkpt lat="2.829617" lon="-75.09104">
        <ele>1408.6</ele>
        <time>2021-08-21T13:44:48Z</time>
      </trkpt>
      <trkpt lat="2.829596" lon="-75.091064">
        <ele>1408.5</ele>
        <time>2021-08-21T13:44:49Z</time>
      </trkpt>
      <trkpt lat="2.829573" lon="-75.09109">
        <ele>1408.5</ele>
        <time>2021-08-21T13:44:50Z</time>
      </trkpt>
      <trkpt lat="2.829547" lon="-75.09111">
        <ele>1408.4</ele>
        <time>2021-08-21T13:44:51Z</time>
      </trkpt>
      <trkpt lat="2.829522" lon="-75.091125">
        <ele>1408.3</ele>
        <time>2021-08-21T13:44:52Z</time>
      </trkpt>
      <trkpt lat="2.829495" lon="-75.09114">
        <ele>1408.3</ele>
        <time>2021-08-21T13:44:53Z</time>
      </trkpt>
      <trkpt lat="2.829466" lon="-75.091156">
        <ele>1408.2</ele>
        <time>2021-08-21T13:44:54Z</time>
      </trkpt>
      <trkpt lat="2.829437" lon="-75.09117">
        <ele>1408.2</ele>
        <time>2021-08-21T13:44:55Z</time>
      </trkpt>
      <trkpt lat="2.829406" lon="-75.09118">
        <ele>1408.1</ele>
        <time>2021-08-21T13:44:56Z</time>
      </trkpt>
      <trkpt lat="2.829373" lon="-75.09119">
        <ele>1408.0</ele>
        <time>2021-08-21T13:44:57Z</time>
      </trkpt>
      <trkpt lat="2.829339" lon="-75.091194">
        <ele>1408.0</ele>
        <time>2021-08-21T13:44:58Z</time>
      </trkpt>
      <trkpt lat="2.829304" lon="-75.091194">
        <ele>1407.9</ele>
        <time>2021-08-21T13:44:59Z</time>
      </trkpt>
      <trkpt lat="2.829267" lon="-75.091194">
        <ele>1407.8</ele>
        <time>2021-08-21T13:45:00Z</time>
      </trkpt>
      <trkpt lat="2.829233" lon="-75.091194">
        <ele>1407.7</ele>
        <time>2021-08-21T13:45:01Z</time>
      </trkpt>
      <trkpt lat="2.829199" lon="-75.091194">
        <ele>1407.6</ele>
        <time>2021-08-21T13:45:02Z</time>
      </trkpt>
      <trkpt lat="2.829166" lon="-75.09119">
        <ele>1407.5</ele>
        <time>2021-08-21T13:45:03Z</time>
      </trkpt>
      <trkpt lat="2.829131" lon="-75.09118">
        <ele>1407.4</ele>
        <time>2021-08-21T13:45:04Z</time>
      </trkpt>
      <trkpt lat="2.8291" lon="-75.09116">
        <ele>1407.2</ele>
        <time>2021-08-21T13:45:05Z</time>
      </trkpt>
      <trkpt lat="2.829069" lon="-75.09115">
        <ele>1407.1</ele>
        <time>2021-08-21T13:45:06Z</time>
      </trkpt>
      <trkpt lat="2.829043" lon="-75.09113">
        <ele>1407.0</ele>
        <time>2021-08-21T13:45:07Z</time>
      </trkpt>
      <trkpt lat="2.829019" lon="-75.09112">
        <ele>1406.9</ele>
        <time>2021-08-21T13:45:08Z</time>
      </trkpt>
      <trkpt lat="2.828995" lon="-75.091095">
        <ele>1406.8</ele>
        <time>2021-08-21T13:45:09Z</time>
      </trkpt>
      <trkpt lat="2.828972" lon="-75.09108">
        <ele>1406.7</ele>
        <time>2021-08-21T13:45:10Z</time>
      </trkpt>
      <trkpt lat="2.82895" lon="-75.09106">
        <ele>1406.7</ele>
        <time>2021-08-21T13:45:11Z</time>
      </trkpt>
      <trkpt lat="2.828927" lon="-75.091034">
        <ele>1406.6</ele>
        <time>2021-08-21T13:45:12Z</time>
      </trkpt>
      <trkpt lat="2.828905" lon="-75.09101">
        <ele>1406.5</ele>
        <time>2021-08-21T13:45:13Z</time>
      </trkpt>
      <trkpt lat="2.82888" lon="-75.09099">
        <ele>1406.5</ele>
        <time>2021-08-21T13:45:14Z</time>
      </trkpt>
      <trkpt lat="2.828856" lon="-75.090965">
        <ele>1406.4</ele>
        <time>2021-08-21T13:45:15Z</time>
      </trkpt>
      <trkpt lat="2.82883" lon="-75.09094">
        <ele>1406.4</ele>
        <time>2021-08-21T13:45:16Z</time>
      </trkpt>
      <trkpt lat="2.828805" lon="-75.09092">
        <ele>1406.3</ele>
        <time>2021-08-21T13:45:17Z</time>
      </trkpt>
      <trkpt lat="2.82878" lon="-75.0909">
        <ele>1406.3</ele>
        <time>2021-08-21T13:45:18Z</time>
      </trkpt>
      <trkpt lat="2.828757" lon="-75.09087">
        <ele>1406.3</ele>
        <time>2021-08-21T13:45:19Z</time>
      </trkpt>
      <trkpt lat="2.828736" lon="-75.09085">
        <ele>1406.2</ele>
        <time>2021-08-21T13:45:20Z</time>
      </trkpt>
      <trkpt lat="2.828718" lon="-75.09083">
        <ele>1406.2</ele>
        <time>2021-08-21T13:45:21Z</time>
      </trkpt>
      <trkpt lat="2.828701" lon="-75.0908">
        <ele>1406.2</ele>
        <time>2021-08-21T13:45:22Z</time>
      </trkpt>
      <trkpt lat="2.828672" lon="-75.09075">
        <ele>1406.1</ele>
        <time>2021-08-21T13:45:23Z</time>
      </trkpt>
      <trkpt lat="2.828685" lon="-75.090775">
        <ele>1406.2</ele>
        <time>2021-08-21T13:45:23Z</time>
      </trkpt>
      <trkpt lat="2.828662" lon="-75.09073">
        <ele>1406.1</ele>
        <time>2021-08-21T13:45:24Z</time>
      </trkpt>
      <trkpt lat="2.828654" lon="-75.0907">
        <ele>1406.1</ele>
        <time>2021-08-21T13:45:25Z</time>
      </trkpt>
      <trkpt lat="2.828649" lon="-75.090675">
        <ele>1406.0</ele>
        <time>2021-08-21T13:45:26Z</time>
      </trkpt>
      <trkpt lat="2.828646" lon="-75.09065">
        <ele>1406.0</ele>
        <time>2021-08-21T13:45:27Z</time>
      </trkpt>
      <trkpt lat="2.828645" lon="-75.09063">
        <ele>1406.0</ele>
        <time>2021-08-21T13:45:28Z</time>
      </trkpt>
      <trkpt lat="2.828642" lon="-75.09061">
        <ele>1405.9</ele>
        <time>2021-08-21T13:45:29Z</time>
      </trkpt>
      <trkpt lat="2.828641" lon="-75.09058">
        <ele>1405.9</ele>
        <time>2021-08-21T13:45:30Z</time>
      </trkpt>
      <trkpt lat="2.828642" lon="-75.09055">
        <ele>1405.9</ele>
        <time>2021-08-21T13:45:31Z</time>
      </trkpt>
      <trkpt lat="2.828642" lon="-75.09053">
        <ele>1405.8</ele>
        <time>2021-08-21T13:45:32Z</time>
      </trkpt>
      <trkpt lat="2.828643" lon="-75.09051">
        <ele>1405.8</ele>
        <time>2021-08-21T13:45:33Z</time>
      </trkpt>
      <trkpt lat="2.828642" lon="-75.090485">
        <ele>1405.8</ele>
        <time>2021-08-21T13:45:34Z</time>
      </trkpt>
      <trkpt lat="2.828642" lon="-75.090454">
        <ele>1405.7</ele>
        <time>2021-08-21T13:45:35Z</time>
      </trkpt>
      <trkpt lat="2.828641" lon="-75.09043">
        <ele>1405.7</ele>
        <time>2021-08-21T13:45:36Z</time>
      </trkpt>
      <trkpt lat="2.828641" lon="-75.0904">
        <ele>1405.7</ele>
        <time>2021-08-21T13:45:37Z</time>
      </trkpt>
      <trkpt lat="2.828639" lon="-75.09038">
        <ele>1405.6</ele>
        <time>2021-08-21T13:45:38Z</time>
      </trkpt>
      <trkpt lat="2.828637" lon="-75.090355">
        <ele>1405.6</ele>
        <time>2021-08-21T13:45:39Z</time>
      </trkpt>
      <trkpt lat="2.828635" lon="-75.090324">
        <ele>1405.6</ele>
        <time>2021-08-21T13:45:40Z</time>
      </trkpt>
      <trkpt lat="2.828635" lon="-75.0903">
        <ele>1405.5</ele>
        <time>2021-08-21T13:45:41Z</time>
      </trkpt>
      <trkpt lat="2.828634" lon="-75.09027">
        <ele>1405.5</ele>
        <time>2021-08-21T13:45:42Z</time>
      </trkpt>
      <trkpt lat="2.828634" lon="-75.09024">
        <ele>1405.4</ele>
        <time>2021-08-21T13:45:43Z</time>
      </trkpt>
      <trkpt lat="2.828634" lon="-75.09022">
        <ele>1405.4</ele>
        <time>2021-08-21T13:45:44Z</time>
      </trkpt>
      <trkpt lat="2.828633" lon="-75.09019">
        <ele>1405.4</ele>
        <time>2021-08-21T13:45:45Z</time>
      </trkpt>
      <trkpt lat="2.828633" lon="-75.09016">
        <ele>1405.3</ele>
        <time>2021-08-21T13:45:46Z</time>
      </trkpt>
      <trkpt lat="2.828632" lon="-75.090126">
        <ele>1405.3</ele>
        <time>2021-08-21T13:45:47Z</time>
      </trkpt>
      <trkpt lat="2.828632" lon="-75.090096">
        <ele>1405.3</ele>
        <time>2021-08-21T13:45:48Z</time>
      </trkpt>
      <trkpt lat="2.828633" lon="-75.090065">
        <ele>1405.2</ele>
        <time>2021-08-21T13:45:49Z</time>
      </trkpt>
      <trkpt lat="2.828636" lon="-75.090034">
        <ele>1405.2</ele>
        <time>2021-08-21T13:45:50Z</time>
      </trkpt>
      <trkpt lat="2.828638" lon="-75.090004">
        <ele>1405.2</ele>
        <time>2021-08-21T13:45:51Z</time>
      </trkpt>
      <trkpt lat="2.828641" lon="-75.08997">
        <ele>1405.1</ele>
        <time>2021-08-21T13:45:52Z</time>
      </trkpt>
      <trkpt lat="2.828643" lon="-75.08994">
        <ele>1405.1</ele>
        <time>2021-08-21T13:45:53Z</time>
      </trkpt>
      <trkpt lat="2.828643" lon="-75.08991">
        <ele>1405.0</ele>
        <time>2021-08-21T13:45:54Z</time>
      </trkpt>
      <trkpt lat="2.828645" lon="-75.08988">
        <ele>1405.0</ele>
        <time>2021-08-21T13:45:55Z</time>
      </trkpt>
      <trkpt lat="2.828647" lon="-75.08985">
        <ele>1404.9</ele>
        <time>2021-08-21T13:45:56Z</time>
      </trkpt>
      <trkpt lat="2.82865" lon="-75.08982">
        <ele>1404.8</ele>
        <time>2021-08-21T13:45:57Z</time>
      </trkpt>
      <trkpt lat="2.828651" lon="-75.08979">
        <ele>1404.8</ele>
        <time>2021-08-21T13:45:58Z</time>
      </trkpt>
      <trkpt lat="2.828652" lon="-75.08977">
        <ele>1404.7</ele>
        <time>2021-08-21T13:45:59Z</time>
      </trkpt>
      <trkpt lat="2.828654" lon="-75.08974">
        <ele>1404.6</ele>
        <time>2021-08-21T13:46:00Z</time>
      </trkpt>
      <trkpt lat="2.828658" lon="-75.08971">
        <ele>1404.5</ele>
        <time>2021-08-21T13:46:01Z</time>
      </trkpt>
      <trkpt lat="2.828661" lon="-75.089676">
        <ele>1404.5</ele>
        <time>2021-08-21T13:46:02Z</time>
      </trkpt>
      <trkpt lat="2.828665" lon="-75.089645">
        <ele>1404.4</ele>
        <time>2021-08-21T13:46:03Z</time>
      </trkpt>
      <trkpt lat="2.82867" lon="-75.089615">
        <ele>1404.3</ele>
        <time>2021-08-21T13:46:04Z</time>
      </trkpt>
      <trkpt lat="2.828675" lon="-75.089584">
        <ele>1404.2</ele>
        <time>2021-08-21T13:46:05Z</time>
      </trkpt>
      <trkpt lat="2.82868" lon="-75.089554">
        <ele>1404.1</ele>
        <time>2021-08-21T13:46:06Z</time>
      </trkpt>
      <trkpt lat="2.828685" lon="-75.08953">
        <ele>1404.1</ele>
        <time>2021-08-21T13:46:07Z</time>
      </trkpt>
      <trkpt lat="2.828692" lon="-75.0895">
        <ele>1404.0</ele>
        <time>2021-08-21T13:46:08Z</time>
      </trkpt>
      <trkpt lat="2.828699" lon="-75.08947">
        <ele>1404.0</ele>
        <time>2021-08-21T13:46:09Z</time>
      </trkpt>
      <trkpt lat="2.828708" lon="-75.08944">
        <ele>1403.9</ele>
        <time>2021-08-21T13:46:10Z</time>
      </trkpt>
      <trkpt lat="2.828719" lon="-75.08941">
        <ele>1403.8</ele>
        <time>2021-08-21T13:46:11Z</time>
      </trkpt>
      <trkpt lat="2.828729" lon="-75.08938">
        <ele>1403.8</ele>
        <time>2021-08-21T13:46:12Z</time>
      </trkpt>
      <trkpt lat="2.828738" lon="-75.08935">
        <ele>1403.7</ele>
        <time>2021-08-21T13:46:13Z</time>
      </trkpt>
      <trkpt lat="2.828745" lon="-75.08931">
        <ele>1403.7</ele>
        <time>2021-08-21T13:46:14Z</time>
      </trkpt>
      <trkpt lat="2.828752" lon="-75.08928">
        <ele>1403.6</ele>
        <time>2021-08-21T13:46:15Z</time>
      </trkpt>
      <trkpt lat="2.828758" lon="-75.08923">
        <ele>1403.6</ele>
        <time>2021-08-21T13:46:16Z</time>
      </trkpt>
      <trkpt lat="2.82876" lon="-75.0892">
        <ele>1403.5</ele>
        <time>2021-08-21T13:46:17Z</time>
      </trkpt>
      <trkpt lat="2.82876" lon="-75.089165">
        <ele>1403.5</ele>
        <time>2021-08-21T13:46:18Z</time>
      </trkpt>
      <trkpt lat="2.828757" lon="-75.089134">
        <ele>1403.5</ele>
        <time>2021-08-21T13:46:19Z</time>
      </trkpt>
      <trkpt lat="2.828753" lon="-75.0891">
        <ele>1403.5</ele>
        <time>2021-08-21T13:46:20Z</time>
      </trkpt>
      <trkpt lat="2.828747" lon="-75.089066">
        <ele>1403.4</ele>
        <time>2021-08-21T13:46:21Z</time>
      </trkpt>
      <trkpt lat="2.828739" lon="-75.08903">
        <ele>1403.4</ele>
        <time>2021-08-21T13:46:22Z</time>
      </trkpt>
      <trkpt lat="2.828731" lon="-75.089">
        <ele>1403.4</ele>
        <time>2021-08-21T13:46:23Z</time>
      </trkpt>
      <trkpt lat="2.828721" lon="-75.08897">
        <ele>1403.4</ele>
        <time>2021-08-21T13:46:24Z</time>
      </trkpt>
      <trkpt lat="2.828709" lon="-75.088936">
        <ele>1403.4</ele>
        <time>2021-08-21T13:46:25Z</time>
      </trkpt>
      <trkpt lat="2.828697" lon="-75.088905">
        <ele>1403.4</ele>
        <time>2021-08-21T13:46:26Z</time>
      </trkpt>
      <trkpt lat="2.828683" lon="-75.08888">
        <ele>1403.4</ele>
        <time>2021-08-21T13:46:27Z</time>
      </trkpt>
      <trkpt lat="2.82867" lon="-75.08885">
        <ele>1403.4</ele>
        <time>2021-08-21T13:46:28Z</time>
      </trkpt>
      <trkpt lat="2.828654" lon="-75.08882">
        <ele>1403.5</ele>
        <time>2021-08-21T13:46:29Z</time>
      </trkpt>
      <trkpt lat="2.828637" lon="-75.0888">
        <ele>1403.5</ele>
        <time>2021-08-21T13:46:30Z</time>
      </trkpt>
      <trkpt lat="2.82862" lon="-75.08877">
        <ele>1403.6</ele>
        <time>2021-08-21T13:46:31Z</time>
      </trkpt>
      <trkpt lat="2.828604" lon="-75.088745">
        <ele>1403.6</ele>
        <time>2021-08-21T13:46:32Z</time>
      </trkpt>
      <trkpt lat="2.828587" lon="-75.088715">
        <ele>1403.7</ele>
        <time>2021-08-21T13:46:33Z</time>
      </trkpt>
      <trkpt lat="2.82857" lon="-75.08869">
        <ele>1403.7</ele>
        <time>2021-08-21T13:46:34Z</time>
      </trkpt>
      <trkpt lat="2.828553" lon="-75.08866">
        <ele>1403.8</ele>
        <time>2021-08-21T13:46:35Z</time>
      </trkpt>
      <trkpt lat="2.828536" lon="-75.08864">
        <ele>1403.8</ele>
        <time>2021-08-21T13:46:36Z</time>
      </trkpt>
      <trkpt lat="2.82852" lon="-75.088615">
        <ele>1403.9</ele>
        <time>2021-08-21T13:46:37Z</time>
      </trkpt>
      <trkpt lat="2.828501" lon="-75.088585">
        <ele>1403.9</ele>
        <time>2021-08-21T13:46:38Z</time>
      </trkpt>
      <trkpt lat="2.828481" lon="-75.08856">
        <ele>1404.0</ele>
        <time>2021-08-21T13:46:39Z</time>
      </trkpt>
      <trkpt lat="2.828461" lon="-75.08854">
        <ele>1404.0</ele>
        <time>2021-08-21T13:46:40Z</time>
      </trkpt>
      <trkpt lat="2.82844" lon="-75.08852">
        <ele>1404.0</ele>
        <time>2021-08-21T13:46:41Z</time>
      </trkpt>
      <trkpt lat="2.828417" lon="-75.08849">
        <ele>1404.0</ele>
        <time>2021-08-21T13:46:42Z</time>
      </trkpt>
      <trkpt lat="2.828394" lon="-75.08847">
        <ele>1404.0</ele>
        <time>2021-08-21T13:46:43Z</time>
      </trkpt>
      <trkpt lat="2.828371" lon="-75.088455">
        <ele>1403.8</ele>
        <time>2021-08-21T13:46:44Z</time>
      </trkpt>
      <trkpt lat="2.828347" lon="-75.08843">
        <ele>1403.7</ele>
        <time>2021-08-21T13:46:45Z</time>
      </trkpt>
      <trkpt lat="2.828321" lon="-75.08841">
        <ele>1403.5</ele>
        <time>2021-08-21T13:46:46Z</time>
      </trkpt>
      <trkpt lat="2.828294" lon="-75.08839">
        <ele>1403.3</ele>
        <time>2021-08-21T13:46:47Z</time>
      </trkpt>
      <trkpt lat="2.828265" lon="-75.08837">
        <ele>1403.1</ele>
        <time>2021-08-21T13:46:48Z</time>
      </trkpt>
      <trkpt lat="2.828235" lon="-75.08835">
        <ele>1402.9</ele>
        <time>2021-08-21T13:46:49Z</time>
      </trkpt>
      <trkpt lat="2.828204" lon="-75.08834">
        <ele>1402.7</ele>
        <time>2021-08-21T13:46:50Z</time>
      </trkpt>
      <trkpt lat="2.828173" lon="-75.088326">
        <ele>1402.5</ele>
        <time>2021-08-21T13:46:51Z</time>
      </trkpt>
      <trkpt lat="2.82814" lon="-75.08831">
        <ele>1402.3</ele>
        <time>2021-08-21T13:46:52Z</time>
      </trkpt>
      <trkpt lat="2.828107" lon="-75.0883">
        <ele>1402.0</ele>
        <time>2021-08-21T13:46:53Z</time>
      </trkpt>
      <trkpt lat="2.828073" lon="-75.088295">
        <ele>1401.8</ele>
        <time>2021-08-21T13:46:54Z</time>
      </trkpt>
      <trkpt lat="2.828037" lon="-75.08829">
        <ele>1401.6</ele>
        <time>2021-08-21T13:46:55Z</time>
      </trkpt>
      <trkpt lat="2.827999" lon="-75.08828">
        <ele>1401.3</ele>
        <time>2021-08-21T13:46:56Z</time>
      </trkpt>
      <trkpt lat="2.827959" lon="-75.08827">
        <ele>1401.0</ele>
        <time>2021-08-21T13:46:57Z</time>
      </trkpt>
      <trkpt lat="2.827917" lon="-75.08827">
        <ele>1400.7</ele>
        <time>2021-08-21T13:46:58Z</time>
      </trkpt>
      <trkpt lat="2.827874" lon="-75.08827">
        <ele>1400.4</ele>
        <time>2021-08-21T13:46:59Z</time>
      </trkpt>
      <trkpt lat="2.82783" lon="-75.08827">
        <ele>1400.0</ele>
        <time>2021-08-21T13:47:00Z</time>
      </trkpt>
      <trkpt lat="2.827787" lon="-75.088264">
        <ele>1399.7</ele>
        <time>2021-08-21T13:47:01Z</time>
      </trkpt>
      <trkpt lat="2.827742" lon="-75.08826">
        <ele>1399.3</ele>
        <time>2021-08-21T13:47:02Z</time>
      </trkpt>
      <trkpt lat="2.827701" lon="-75.08825">
        <ele>1399.0</ele>
        <time>2021-08-21T13:47:03Z</time>
      </trkpt>
      <trkpt lat="2.82766" lon="-75.08823">
        <ele>1398.5</ele>
        <time>2021-08-21T13:47:04Z</time>
      </trkpt>
      <trkpt lat="2.827624" lon="-75.08819">
        <ele>1398.0</ele>
        <time>2021-08-21T13:47:05Z</time>
      </trkpt>
      <trkpt lat="2.827595" lon="-75.08815">
        <ele>1397.5</ele>
        <time>2021-08-21T13:47:06Z</time>
      </trkpt>
      <trkpt lat="2.82757" lon="-75.088104">
        <ele>1396.9</ele>
        <time>2021-08-21T13:47:07Z</time>
      </trkpt>
      <trkpt lat="2.827549" lon="-75.08806">
        <ele>1396.3</ele>
        <time>2021-08-21T13:47:08Z</time>
      </trkpt>
      <trkpt lat="2.82753" lon="-75.088">
        <ele>1395.7</ele>
        <time>2021-08-21T13:47:09Z</time>
      </trkpt>
      <trkpt lat="2.827515" lon="-75.087944">
        <ele>1395.1</ele>
        <time>2021-08-21T13:47:10Z</time>
      </trkpt>
      <trkpt lat="2.827505" lon="-75.08789">
        <ele>1394.6</ele>
        <time>2021-08-21T13:47:11Z</time>
      </trkpt>
      <trkpt lat="2.827501" lon="-75.08783">
        <ele>1394.0</ele>
        <time>2021-08-21T13:47:12Z</time>
      </trkpt>
      <trkpt lat="2.827504" lon="-75.087776">
        <ele>1393.6</ele>
        <time>2021-08-21T13:47:13Z</time>
      </trkpt>
      <trkpt lat="2.827517" lon="-75.08772">
        <ele>1393.1</ele>
        <time>2021-08-21T13:47:14Z</time>
      </trkpt>
      <trkpt lat="2.827538" lon="-75.08766">
        <ele>1392.6</ele>
        <time>2021-08-21T13:47:15Z</time>
      </trkpt>
      <trkpt lat="2.827563" lon="-75.08761">
        <ele>1392.1</ele>
        <time>2021-08-21T13:47:16Z</time>
      </trkpt>
      <trkpt lat="2.827587" lon="-75.087555">
        <ele>1391.6</ele>
        <time>2021-08-21T13:47:17Z</time>
      </trkpt>
      <trkpt lat="2.827609" lon="-75.0875">
        <ele>1391.2</ele>
        <time>2021-08-21T13:47:18Z</time>
      </trkpt>
      <trkpt lat="2.827626" lon="-75.08745">
        <ele>1390.8</ele>
        <time>2021-08-21T13:47:19Z</time>
      </trkpt>
      <trkpt lat="2.827637" lon="-75.087395">
        <ele>1390.4</ele>
        <time>2021-08-21T13:47:20Z</time>
      </trkpt>
      <trkpt lat="2.827639" lon="-75.08734">
        <ele>1390.1</ele>
        <time>2021-08-21T13:47:21Z</time>
      </trkpt>
      <trkpt lat="2.827633" lon="-75.087296">
        <ele>1389.8</ele>
        <time>2021-08-21T13:47:22Z</time>
      </trkpt>
      <trkpt lat="2.82762" lon="-75.08726">
        <ele>1389.6</ele>
        <time>2021-08-21T13:47:23Z</time>
      </trkpt>
      <trkpt lat="2.827601" lon="-75.08722">
        <ele>1389.4</ele>
        <time>2021-08-21T13:47:24Z</time>
      </trkpt>
      <trkpt lat="2.827581" lon="-75.0872">
        <ele>1389.3</ele>
        <time>2021-08-21T13:47:25Z</time>
      </trkpt>
      <trkpt lat="2.827557" lon="-75.08717">
        <ele>1389.1</ele>
        <time>2021-08-21T13:47:26Z</time>
      </trkpt>
      <trkpt lat="2.827532" lon="-75.08716">
        <ele>1389.0</ele>
        <time>2021-08-21T13:47:27Z</time>
      </trkpt>
      <trkpt lat="2.827508" lon="-75.08714">
        <ele>1388.9</ele>
        <time>2021-08-21T13:47:28Z</time>
      </trkpt>
      <trkpt lat="2.827483" lon="-75.087135">
        <ele>1388.7</ele>
        <time>2021-08-21T13:47:29Z</time>
      </trkpt>
      <trkpt lat="2.827458" lon="-75.087135">
        <ele>1388.6</ele>
        <time>2021-08-21T13:47:30Z</time>
      </trkpt>
      <trkpt lat="2.827433" lon="-75.08713">
        <ele>1388.5</ele>
        <time>2021-08-21T13:47:31Z</time>
      </trkpt>
      <trkpt lat="2.827407" lon="-75.08713">
        <ele>1388.4</ele>
        <time>2021-08-21T13:47:32Z</time>
      </trkpt>
      <trkpt lat="2.827381" lon="-75.08713">
        <ele>1388.4</ele>
        <time>2021-08-21T13:47:33Z</time>
      </trkpt>
      <trkpt lat="2.827355" lon="-75.08714">
        <ele>1388.3</ele>
        <time>2021-08-21T13:47:34Z</time>
      </trkpt>
      <trkpt lat="2.827329" lon="-75.08715">
        <ele>1388.2</ele>
        <time>2021-08-21T13:47:35Z</time>
      </trkpt>
      <trkpt lat="2.827304" lon="-75.087166">
        <ele>1388.2</ele>
        <time>2021-08-21T13:47:36Z</time>
      </trkpt>
      <trkpt lat="2.827281" lon="-75.08718">
        <ele>1388.2</ele>
        <time>2021-08-21T13:47:37Z</time>
      </trkpt>
      <trkpt lat="2.827258" lon="-75.0872">
        <ele>1388.1</ele>
        <time>2021-08-21T13:47:38Z</time>
      </trkpt>
      <trkpt lat="2.827235" lon="-75.087204">
        <ele>1388.1</ele>
        <time>2021-08-21T13:47:39Z</time>
      </trkpt>
      <trkpt lat="2.827211" lon="-75.08722">
        <ele>1388.1</ele>
        <time>2021-08-21T13:47:40Z</time>
      </trkpt>
      <trkpt lat="2.827188" lon="-75.08723">
        <ele>1388.0</ele>
        <time>2021-08-21T13:47:41Z</time>
      </trkpt>
      <trkpt lat="2.827164" lon="-75.08724">
        <ele>1388.0</ele>
        <time>2021-08-21T13:47:42Z</time>
      </trkpt>
      <trkpt lat="2.827139" lon="-75.08725">
        <ele>1388.0</ele>
        <time>2021-08-21T13:47:43Z</time>
      </trkpt>
      <trkpt lat="2.827112" lon="-75.087265">
        <ele>1388.0</ele>
        <time>2021-08-21T13:47:44Z</time>
      </trkpt>
      <trkpt lat="2.827086" lon="-75.08727">
        <ele>1388.1</ele>
        <time>2021-08-21T13:47:45Z</time>
      </trkpt>
      <trkpt lat="2.827061" lon="-75.08728">
        <ele>1388.1</ele>
        <time>2021-08-21T13:47:46Z</time>
      </trkpt>
      <trkpt lat="2.827037" lon="-75.087296">
        <ele>1388.2</ele>
        <time>2021-08-21T13:47:47Z</time>
      </trkpt>
      <trkpt lat="2.827013" lon="-75.0873">
        <ele>1388.2</ele>
        <time>2021-08-21T13:47:48Z</time>
      </trkpt>
      <trkpt lat="2.82699" lon="-75.08732">
        <ele>1388.3</ele>
        <time>2021-08-21T13:47:49Z</time>
      </trkpt>
      <trkpt lat="2.826967" lon="-75.08733">
        <ele>1388.3</ele>
        <time>2021-08-21T13:47:50Z</time>
      </trkpt>
      <trkpt lat="2.826945" lon="-75.08735">
        <ele>1388.4</ele>
        <time>2021-08-21T13:47:51Z</time>
      </trkpt>
      <trkpt lat="2.826923" lon="-75.08736">
        <ele>1388.5</ele>
        <time>2021-08-21T13:47:52Z</time>
      </trkpt>
      <trkpt lat="2.826903" lon="-75.08737">
        <ele>1388.5</ele>
        <time>2021-08-21T13:47:53Z</time>
      </trkpt>
      <trkpt lat="2.826882" lon="-75.08739">
        <ele>1388.6</ele>
        <time>2021-08-21T13:47:54Z</time>
      </trkpt>
      <trkpt lat="2.826861" lon="-75.0874">
        <ele>1388.7</ele>
        <time>2021-08-21T13:47:55Z</time>
      </trkpt>
      <trkpt lat="2.826841" lon="-75.08742">
        <ele>1388.8</ele>
        <time>2021-08-21T13:47:56Z</time>
      </trkpt>
      <trkpt lat="2.826821" lon="-75.08743">
        <ele>1388.8</ele>
        <time>2021-08-21T13:47:57Z</time>
      </trkpt>
      <trkpt lat="2.826802" lon="-75.087456">
        <ele>1388.9</ele>
        <time>2021-08-21T13:47:58Z</time>
      </trkpt>
      <trkpt lat="2.826786" lon="-75.08747">
        <ele>1389.0</ele>
        <time>2021-08-21T13:47:59Z</time>
      </trkpt>
      <trkpt lat="2.826773" lon="-75.087494">
        <ele>1389.0</ele>
        <time>2021-08-21T13:48:00Z</time>
      </trkpt>
      <trkpt lat="2.826762" lon="-75.08752">
        <ele>1389.1</ele>
        <time>2021-08-21T13:48:01Z</time>
      </trkpt>
      <trkpt lat="2.826755" lon="-75.08754">
        <ele>1389.1</ele>
        <time>2021-08-21T13:48:02Z</time>
      </trkpt>
      <trkpt lat="2.82675" lon="-75.08756">
        <ele>1389.2</ele>
        <time>2021-08-21T13:48:03Z</time>
      </trkpt>
      <trkpt lat="2.826748" lon="-75.087585">
        <ele>1389.2</ele>
        <time>2021-08-21T13:48:04Z</time>
      </trkpt>
      <trkpt lat="2.826749" lon="-75.087616">
        <ele>1389.2</ele>
        <time>2021-08-21T13:48:05Z</time>
      </trkpt>
      <trkpt lat="2.826751" lon="-75.08764">
        <ele>1389.3</ele>
        <time>2021-08-21T13:48:06Z</time>
      </trkpt>
      <trkpt lat="2.826756" lon="-75.08766">
        <ele>1389.3</ele>
        <time>2021-08-21T13:48:07Z</time>
      </trkpt>
      <trkpt lat="2.826761" lon="-75.087685">
        <ele>1389.4</ele>
        <time>2021-08-21T13:48:08Z</time>
      </trkpt>
      <trkpt lat="2.826766" lon="-75.08771">
        <ele>1389.4</ele>
        <time>2021-08-21T13:48:09Z</time>
      </trkpt>
      <trkpt lat="2.826771" lon="-75.08773">
        <ele>1389.5</ele>
        <time>2021-08-21T13:48:10Z</time>
      </trkpt>
      <trkpt lat="2.826775" lon="-75.08776">
        <ele>1389.5</ele>
        <time>2021-08-21T13:48:11Z</time>
      </trkpt>
      <trkpt lat="2.826778" lon="-75.08778">
        <ele>1389.5</ele>
        <time>2021-08-21T13:48:12Z</time>
      </trkpt>
      <trkpt lat="2.826781" lon="-75.08781">
        <ele>1389.6</ele>
        <time>2021-08-21T13:48:13Z</time>
      </trkpt>
      <trkpt lat="2.826783" lon="-75.08783">
        <ele>1389.6</ele>
        <time>2021-08-21T13:48:14Z</time>
      </trkpt>
      <trkpt lat="2.826783" lon="-75.08785">
        <ele>1389.6</ele>
        <time>2021-08-21T13:48:15Z</time>
      </trkpt>
      <trkpt lat="2.826783" lon="-75.087875">
        <ele>1389.6</ele>
        <time>2021-08-21T13:48:16Z</time>
      </trkpt>
      <trkpt lat="2.826782" lon="-75.0879">
        <ele>1389.6</ele>
        <time>2021-08-21T13:48:17Z</time>
      </trkpt>
      <trkpt lat="2.82678" lon="-75.08791">
        <ele>1389.6</ele>
        <time>2021-08-21T13:48:18Z</time>
      </trkpt>
      <trkpt lat="2.826777" lon="-75.08794">
        <ele>1389.6</ele>
        <time>2021-08-21T13:48:19Z</time>
      </trkpt>
      <trkpt lat="2.826773" lon="-75.08796">
        <ele>1389.6</ele>
        <time>2021-08-21T13:48:20Z</time>
      </trkpt>
      <trkpt lat="2.826769" lon="-75.08798">
        <ele>1389.7</ele>
        <time>2021-08-21T13:48:21Z</time>
      </trkpt>
      <trkpt lat="2.826765" lon="-75.088005">
        <ele>1389.7</ele>
        <time>2021-08-21T13:48:22Z</time>
      </trkpt>
      <trkpt lat="2.826761" lon="-75.08802">
        <ele>1389.7</ele>
        <time>2021-08-21T13:48:23Z</time>
      </trkpt>
      <trkpt lat="2.826756" lon="-75.08804">
        <ele>1389.7</ele>
        <time>2021-08-21T13:48:24Z</time>
      </trkpt>
      <trkpt lat="2.82675" lon="-75.088066">
        <ele>1389.7</ele>
        <time>2021-08-21T13:48:25Z</time>
      </trkpt>
      <trkpt lat="2.826745" lon="-75.08808">
        <ele>1389.7</ele>
        <time>2021-08-21T13:48:26Z</time>
      </trkpt>
      <trkpt lat="2.82674" lon="-75.088104">
        <ele>1389.7</ele>
        <time>2021-08-21T13:48:27Z</time>
      </trkpt>
      <trkpt lat="2.826736" lon="-75.08812">
        <ele>1389.7</ele>
        <time>2021-08-21T13:48:28Z</time>
      </trkpt>
      <trkpt lat="2.826733" lon="-75.08814">
        <ele>1389.7</ele>
        <time>2021-08-21T13:48:29Z</time>
      </trkpt>
      <trkpt lat="2.82673" lon="-75.08816">
        <ele>1389.7</ele>
        <time>2021-08-21T13:48:30Z</time>
      </trkpt>
      <trkpt lat="2.826728" lon="-75.08818">
        <ele>1389.7</ele>
        <time>2021-08-21T13:48:31Z</time>
      </trkpt>
      <trkpt lat="2.826727" lon="-75.088196">
        <ele>1389.7</ele>
        <time>2021-08-21T13:48:32Z</time>
      </trkpt>
      <trkpt lat="2.826726" lon="-75.08822">
        <ele>1389.8</ele>
        <time>2021-08-21T13:48:33Z</time>
      </trkpt>
      <trkpt lat="2.826725" lon="-75.08824">
        <ele>1389.8</ele>
        <time>2021-08-21T13:48:34Z</time>
      </trkpt>
      <trkpt lat="2.826725" lon="-75.08826">
        <ele>1389.8</ele>
        <time>2021-08-21T13:48:35Z</time>
      </trkpt>
      <trkpt lat="2.826724" lon="-75.08828">
        <ele>1389.8</ele>
        <time>2021-08-21T13:48:36Z</time>
      </trkpt>
      <trkpt lat="2.826722" lon="-75.088295">
        <ele>1389.8</ele>
        <time>2021-08-21T13:48:37Z</time>
      </trkpt>
      <trkpt lat="2.826721" lon="-75.08832">
        <ele>1389.8</ele>
        <time>2021-08-21T13:48:38Z</time>
      </trkpt>
      <trkpt lat="2.826719" lon="-75.08834">
        <ele>1389.8</ele>
        <time>2021-08-21T13:48:39Z</time>
      </trkpt>
      <trkpt lat="2.826717" lon="-75.088356">
        <ele>1389.8</ele>
        <time>2021-08-21T13:48:40Z</time>
      </trkpt>
      <trkpt lat="2.826715" lon="-75.08838">
        <ele>1389.8</ele>
        <time>2021-08-21T13:48:41Z</time>
      </trkpt>
      <trkpt lat="2.826714" lon="-75.088394">
        <ele>1389.9</ele>
        <time>2021-08-21T13:48:42Z</time>
      </trkpt>
      <trkpt lat="2.826711" lon="-75.08842">
        <ele>1389.9</ele>
        <time>2021-08-21T13:48:43Z</time>
      </trkpt>
      <trkpt lat="2.82671" lon="-75.08844">
        <ele>1389.9</ele>
        <time>2021-08-21T13:48:44Z</time>
      </trkpt>
      <trkpt lat="2.82671" lon="-75.088455">
        <ele>1389.9</ele>
        <time>2021-08-21T13:48:45Z</time>
      </trkpt>
      <trkpt lat="2.82671" lon="-75.08848">
        <ele>1389.9</ele>
        <time>2021-08-21T13:48:46Z</time>
      </trkpt>
      <trkpt lat="2.826709" lon="-75.0885">
        <ele>1389.9</ele>
        <time>2021-08-21T13:48:47Z</time>
      </trkpt>
      <trkpt lat="2.826707" lon="-75.08852">
        <ele>1390.0</ele>
        <time>2021-08-21T13:48:48Z</time>
      </trkpt>
      <trkpt lat="2.826702" lon="-75.08854">
        <ele>1390.0</ele>
        <time>2021-08-21T13:48:49Z</time>
      </trkpt>
      <trkpt lat="2.826697" lon="-75.08856">
        <ele>1390.0</ele>
        <time>2021-08-21T13:48:50Z</time>
      </trkpt>
      <trkpt lat="2.826689" lon="-75.08858">
        <ele>1390.0</ele>
        <time>2021-08-21T13:48:51Z</time>
      </trkpt>
      <trkpt lat="2.826679" lon="-75.0886">
        <ele>1390.0</ele>
        <time>2021-08-21T13:48:52Z</time>
      </trkpt>
      <trkpt lat="2.826667" lon="-75.08862">
        <ele>1390.1</ele>
        <time>2021-08-21T13:48:53Z</time>
      </trkpt>
      <trkpt lat="2.826655" lon="-75.08864">
        <ele>1390.1</ele>
        <time>2021-08-21T13:48:54Z</time>
      </trkpt>
      <trkpt lat="2.82664" lon="-75.08865">
        <ele>1390.1</ele>
        <time>2021-08-21T13:48:55Z</time>
      </trkpt>
      <trkpt lat="2.826625" lon="-75.08868">
        <ele>1390.1</ele>
        <time>2021-08-21T13:48:56Z</time>
      </trkpt>
      <trkpt lat="2.826608" lon="-75.08869">
        <ele>1390.1</ele>
        <time>2021-08-21T13:48:57Z</time>
      </trkpt>
      <trkpt lat="2.826591" lon="-75.08871">
        <ele>1390.1</ele>
        <time>2021-08-21T13:48:58Z</time>
      </trkpt>
      <trkpt lat="2.826574" lon="-75.08872">
        <ele>1390.1</ele>
        <time>2021-08-21T13:48:59Z</time>
      </trkpt>
      <trkpt lat="2.826558" lon="-75.08874">
        <ele>1390.1</ele>
        <time>2021-08-21T13:49:00Z</time>
      </trkpt>
      <trkpt lat="2.82654" lon="-75.08875">
        <ele>1390.1</ele>
        <time>2021-08-21T13:49:01Z</time>
      </trkpt>
      <trkpt lat="2.826522" lon="-75.08877">
        <ele>1390.1</ele>
        <time>2021-08-21T13:49:02Z</time>
      </trkpt>
      <trkpt lat="2.826505" lon="-75.088776">
        <ele>1390.1</ele>
        <time>2021-08-21T13:49:03Z</time>
      </trkpt>
      <trkpt lat="2.826487" lon="-75.08879">
        <ele>1390.1</ele>
        <time>2021-08-21T13:49:04Z</time>
      </trkpt>
      <trkpt lat="2.826469" lon="-75.0888">
        <ele>1390.0</ele>
        <time>2021-08-21T13:49:05Z</time>
      </trkpt>
      <trkpt lat="2.82645" lon="-75.08881">
        <ele>1390.0</ele>
        <time>2021-08-21T13:49:06Z</time>
      </trkpt>
      <trkpt lat="2.826431" lon="-75.08882">
        <ele>1390.0</ele>
        <time>2021-08-21T13:49:07Z</time>
      </trkpt>
      <trkpt lat="2.826411" lon="-75.08882">
        <ele>1390.0</ele>
        <time>2021-08-21T13:49:08Z</time>
      </trkpt>
      <trkpt lat="2.826392" lon="-75.08883">
        <ele>1390.0</ele>
        <time>2021-08-21T13:49:09Z</time>
      </trkpt>
      <trkpt lat="2.826372" lon="-75.08883">
        <ele>1390.0</ele>
        <time>2021-08-21T13:49:10Z</time>
      </trkpt>
      <trkpt lat="2.826352" lon="-75.08884">
        <ele>1390.1</ele>
        <time>2021-08-21T13:49:11Z</time>
      </trkpt>
      <trkpt lat="2.826333" lon="-75.08884">
        <ele>1390.1</ele>
        <time>2021-08-21T13:49:12Z</time>
      </trkpt>
      <trkpt lat="2.826312" lon="-75.08883">
        <ele>1390.1</ele>
        <time>2021-08-21T13:49:13Z</time>
      </trkpt>
      <trkpt lat="2.826291" lon="-75.08883">
        <ele>1390.1</ele>
        <time>2021-08-21T13:49:14Z</time>
      </trkpt>
      <trkpt lat="2.826269" lon="-75.08882">
        <ele>1390.1</ele>
        <time>2021-08-21T13:49:15Z</time>
      </trkpt>
      <trkpt lat="2.826247" lon="-75.08881">
        <ele>1390.1</ele>
        <time>2021-08-21T13:49:16Z</time>
      </trkpt>
      <trkpt lat="2.826225" lon="-75.088806">
        <ele>1390.1</ele>
        <time>2021-08-21T13:49:17Z</time>
      </trkpt>
      <trkpt lat="2.826203" lon="-75.0888">
        <ele>1390.1</ele>
        <time>2021-08-21T13:49:18Z</time>
      </trkpt>
      <trkpt lat="2.826182" lon="-75.08879">
        <ele>1390.1</ele>
        <time>2021-08-21T13:49:19Z</time>
      </trkpt>
      <trkpt lat="2.826163" lon="-75.088776">
        <ele>1390.1</ele>
        <time>2021-08-21T13:49:20Z</time>
      </trkpt>
      <trkpt lat="2.826145" lon="-75.08876">
        <ele>1390.1</ele>
        <time>2021-08-21T13:49:21Z</time>
      </trkpt>
      <trkpt lat="2.826113" lon="-75.08873">
        <ele>1390.1</ele>
        <time>2021-08-21T13:49:23Z</time>
      </trkpt>
      <trkpt lat="2.826121" lon="-75.08874">
        <ele>1390.1</ele>
        <time>2021-08-21T13:49:23Z</time>
      </trkpt>
      <trkpt lat="2.826099" lon="-75.08871">
        <ele>1390.2</ele>
        <time>2021-08-21T13:49:24Z</time>
      </trkpt>
      <trkpt lat="2.826084" lon="-75.08869">
        <ele>1390.2</ele>
        <time>2021-08-21T13:49:25Z</time>
      </trkpt>
      <trkpt lat="2.826069" lon="-75.08867">
        <ele>1390.2</ele>
        <time>2021-08-21T13:49:26Z</time>
      </trkpt>
      <trkpt lat="2.826054" lon="-75.08865">
        <ele>1390.2</ele>
        <time>2021-08-21T13:49:27Z</time>
      </trkpt>
      <trkpt lat="2.82604" lon="-75.08863">
        <ele>1390.3</ele>
        <time>2021-08-21T13:49:28Z</time>
      </trkpt>
      <trkpt lat="2.826027" lon="-75.08861">
        <ele>1390.3</ele>
        <time>2021-08-21T13:49:29Z</time>
      </trkpt>
      <trkpt lat="2.826017" lon="-75.088585">
        <ele>1390.3</ele>
        <time>2021-08-21T13:49:30Z</time>
      </trkpt>
      <trkpt lat="2.826006" lon="-75.08856">
        <ele>1390.3</ele>
        <time>2021-08-21T13:49:31Z</time>
      </trkpt>
      <trkpt lat="2.825995" lon="-75.08855">
        <ele>1390.3</ele>
        <time>2021-08-21T13:49:32Z</time>
      </trkpt>
      <trkpt lat="2.825983" lon="-75.08852">
        <ele>1390.4</ele>
        <time>2021-08-21T13:49:33Z</time>
      </trkpt>
      <trkpt lat="2.825971" lon="-75.0885">
        <ele>1390.4</ele>
        <time>2021-08-21T13:49:34Z</time>
      </trkpt>
      <trkpt lat="2.825958" lon="-75.08848">
        <ele>1390.4</ele>
        <time>2021-08-21T13:49:35Z</time>
      </trkpt>
      <trkpt lat="2.825945" lon="-75.088455">
        <ele>1390.5</ele>
        <time>2021-08-21T13:49:36Z</time>
      </trkpt>
      <trkpt lat="2.82593" lon="-75.08843">
        <ele>1390.5</ele>
        <time>2021-08-21T13:49:37Z</time>
      </trkpt>
      <trkpt lat="2.825896" lon="-75.0884">
        <ele>1390.6</ele>
        <time>2021-08-21T13:49:38Z</time>
      </trkpt>
      <trkpt lat="2.825913" lon="-75.08842">
        <ele>1390.6</ele>
        <time>2021-08-21T13:49:38Z</time>
      </trkpt>
      <trkpt lat="2.82588" lon="-75.08839">
        <ele>1390.7</ele>
        <time>2021-08-21T13:49:39Z</time>
      </trkpt>
      <trkpt lat="2.825867" lon="-75.08837">
        <ele>1390.7</ele>
        <time>2021-08-21T13:49:40Z</time>
      </trkpt>
      <trkpt lat="2.825858" lon="-75.088356">
        <ele>1390.8</ele>
        <time>2021-08-21T13:49:41Z</time>
      </trkpt>
      <trkpt lat="2.825849" lon="-75.08834">
        <ele>1390.8</ele>
        <time>2021-08-21T13:49:42Z</time>
      </trkpt>
      <trkpt lat="2.82584" lon="-75.088326">
        <ele>1390.8</ele>
        <time>2021-08-21T13:49:43Z</time>
      </trkpt>
      <trkpt lat="2.825832" lon="-75.08831">
        <ele>1390.9</ele>
        <time>2021-08-21T13:49:44Z</time>
      </trkpt>
      <trkpt lat="2.825823" lon="-75.0883">
        <ele>1390.9</ele>
        <time>2021-08-21T13:49:45Z</time>
      </trkpt>
      <trkpt lat="2.825815" lon="-75.08829">
        <ele>1390.9</ele>
        <time>2021-08-21T13:49:46Z</time>
      </trkpt>
      <trkpt lat="2.825806" lon="-75.08827">
        <ele>1391.0</ele>
        <time>2021-08-21T13:49:47Z</time>
      </trkpt>
      <trkpt lat="2.825796" lon="-75.08826">
        <ele>1391.0</ele>
        <time>2021-08-21T13:49:48Z</time>
      </trkpt>
      <trkpt lat="2.825786" lon="-75.08824">
        <ele>1391.1</ele>
        <time>2021-08-21T13:49:49Z</time>
      </trkpt>
      <trkpt lat="2.825775" lon="-75.08822">
        <ele>1391.1</ele>
        <time>2021-08-21T13:49:50Z</time>
      </trkpt>
      <trkpt lat="2.825765" lon="-75.0882">
        <ele>1391.1</ele>
        <time>2021-08-21T13:49:51Z</time>
      </trkpt>
      <trkpt lat="2.825756" lon="-75.08819">
        <ele>1391.2</ele>
        <time>2021-08-21T13:49:52Z</time>
      </trkpt>
      <trkpt lat="2.825747" lon="-75.08817">
        <ele>1391.2</ele>
        <time>2021-08-21T13:49:53Z</time>
      </trkpt>
      <trkpt lat="2.825737" lon="-75.08816">
        <ele>1391.3</ele>
        <time>2021-08-21T13:49:54Z</time>
      </trkpt>
      <trkpt lat="2.825727" lon="-75.08814">
        <ele>1391.3</ele>
        <time>2021-08-21T13:49:55Z</time>
      </trkpt>
      <trkpt lat="2.825715" lon="-75.08813">
        <ele>1391.3</ele>
        <time>2021-08-21T13:49:56Z</time>
      </trkpt>
      <trkpt lat="2.825703" lon="-75.08811">
        <ele>1391.4</ele>
        <time>2021-08-21T13:49:57Z</time>
      </trkpt>
      <trkpt lat="2.82569" lon="-75.088104">
        <ele>1391.4</ele>
        <time>2021-08-21T13:49:58Z</time>
      </trkpt>
      <trkpt lat="2.825676" lon="-75.08809">
        <ele>1391.5</ele>
        <time>2021-08-21T13:49:59Z</time>
      </trkpt>
      <trkpt lat="2.825662" lon="-75.08807">
        <ele>1391.5</ele>
        <time>2021-08-21T13:50:00Z</time>
      </trkpt>
      <trkpt lat="2.825649" lon="-75.088066">
        <ele>1391.5</ele>
        <time>2021-08-21T13:50:01Z</time>
      </trkpt>
      <trkpt lat="2.825636" lon="-75.08805">
        <ele>1391.6</ele>
        <time>2021-08-21T13:50:02Z</time>
      </trkpt>
      <trkpt lat="2.825623" lon="-75.08804">
        <ele>1391.6</ele>
        <time>2021-08-21T13:50:03Z</time>
      </trkpt>
      <trkpt lat="2.825609" lon="-75.08803">
        <ele>1391.7</ele>
        <time>2021-08-21T13:50:04Z</time>
      </trkpt>
      <trkpt lat="2.825594" lon="-75.08801">
        <ele>1391.7</ele>
        <time>2021-08-21T13:50:05Z</time>
      </trkpt>
      <trkpt lat="2.825578" lon="-75.088005">
        <ele>1391.7</ele>
        <time>2021-08-21T13:50:06Z</time>
      </trkpt>
      <trkpt lat="2.825562" lon="-75.08799">
        <ele>1391.8</ele>
        <time>2021-08-21T13:50:07Z</time>
      </trkpt>
      <trkpt lat="2.825542" lon="-75.08798">
        <ele>1391.8</ele>
        <time>2021-08-21T13:50:08Z</time>
      </trkpt>
      <trkpt lat="2.825522" lon="-75.08797">
        <ele>1391.9</ele>
        <time>2021-08-21T13:50:09Z</time>
      </trkpt>
      <trkpt lat="2.825502" lon="-75.08796">
        <ele>1391.9</ele>
        <time>2021-08-21T13:50:10Z</time>
      </trkpt>
      <trkpt lat="2.825482" lon="-75.08795">
        <ele>1391.9</ele>
        <time>2021-08-21T13:50:11Z</time>
      </trkpt>
      <trkpt lat="2.825463" lon="-75.08794">
        <ele>1391.9</ele>
        <time>2021-08-21T13:50:12Z</time>
      </trkpt>
      <trkpt lat="2.825445" lon="-75.08793">
        <ele>1392.0</ele>
        <time>2021-08-21T13:50:13Z</time>
      </trkpt>
      <trkpt lat="2.825427" lon="-75.08792">
        <ele>1392.0</ele>
        <time>2021-08-21T13:50:14Z</time>
      </trkpt>
      <trkpt lat="2.825408" lon="-75.08791">
        <ele>1392.0</ele>
        <time>2021-08-21T13:50:15Z</time>
      </trkpt>
      <trkpt lat="2.82539" lon="-75.087906">
        <ele>1392.0</ele>
        <time>2021-08-21T13:50:16Z</time>
      </trkpt>
      <trkpt lat="2.825373" lon="-75.0879">
        <ele>1392.0</ele>
        <time>2021-08-21T13:50:17Z</time>
      </trkpt>
      <trkpt lat="2.825357" lon="-75.08789">
        <ele>1392.0</ele>
        <time>2021-08-21T13:50:18Z</time>
      </trkpt>
      <trkpt lat="2.825338" lon="-75.08788">
        <ele>1392.0</ele>
        <time>2021-08-21T13:50:19Z</time>
      </trkpt>
      <trkpt lat="2.82532" lon="-75.087875">
        <ele>1392.0</ele>
        <time>2021-08-21T13:50:20Z</time>
      </trkpt>
      <trkpt lat="2.825302" lon="-75.087875">
        <ele>1392.0</ele>
        <time>2021-08-21T13:50:21Z</time>
      </trkpt>
      <trkpt lat="2.825285" lon="-75.087875">
        <ele>1392.0</ele>
        <time>2021-08-21T13:50:22Z</time>
      </trkpt>
      <trkpt lat="2.825268" lon="-75.08787">
        <ele>1392.0</ele>
        <time>2021-08-21T13:50:23Z</time>
      </trkpt>
      <trkpt lat="2.82525" lon="-75.08787">
        <ele>1392.0</ele>
        <time>2021-08-21T13:50:24Z</time>
      </trkpt>
      <trkpt lat="2.825231" lon="-75.08787">
        <ele>1391.9</ele>
        <time>2021-08-21T13:50:25Z</time>
      </trkpt>
      <trkpt lat="2.825212" lon="-75.08786">
        <ele>1391.9</ele>
        <time>2021-08-21T13:50:26Z</time>
      </trkpt>
      <trkpt lat="2.825194" lon="-75.08785">
        <ele>1391.9</ele>
        <time>2021-08-21T13:50:27Z</time>
      </trkpt>
      <trkpt lat="2.825174" lon="-75.08785">
        <ele>1391.8</ele>
        <time>2021-08-21T13:50:28Z</time>
      </trkpt>
      <trkpt lat="2.825155" lon="-75.087845">
        <ele>1391.8</ele>
        <time>2021-08-21T13:50:29Z</time>
      </trkpt>
      <trkpt lat="2.825135" lon="-75.08784">
        <ele>1391.8</ele>
        <time>2021-08-21T13:50:30Z</time>
      </trkpt>
      <trkpt lat="2.825116" lon="-75.08784">
        <ele>1391.7</ele>
        <time>2021-08-21T13:50:31Z</time>
      </trkpt>
      <trkpt lat="2.825097" lon="-75.08783">
        <ele>1391.7</ele>
        <time>2021-08-21T13:50:32Z</time>
      </trkpt>
      <trkpt lat="2.825077" lon="-75.08783">
        <ele>1391.7</ele>
        <time>2021-08-21T13:50:33Z</time>
      </trkpt>
      <trkpt lat="2.825057" lon="-75.08782">
        <ele>1391.7</ele>
        <time>2021-08-21T13:50:34Z</time>
      </trkpt>
      <trkpt lat="2.825037" lon="-75.087814">
        <ele>1391.6</ele>
        <time>2021-08-21T13:50:35Z</time>
      </trkpt>
      <trkpt lat="2.825015" lon="-75.08781">
        <ele>1391.6</ele>
        <time>2021-08-21T13:50:36Z</time>
      </trkpt>
      <trkpt lat="2.824994" lon="-75.0878">
        <ele>1391.6</ele>
        <time>2021-08-21T13:50:37Z</time>
      </trkpt>
      <trkpt lat="2.824973" lon="-75.08778">
        <ele>1391.5</ele>
        <time>2021-08-21T13:50:38Z</time>
      </trkpt>
      <trkpt lat="2.824951" lon="-75.087776">
        <ele>1391.5</ele>
        <time>2021-08-21T13:50:39Z</time>
      </trkpt>
      <trkpt lat="2.824928" lon="-75.08777">
        <ele>1391.5</ele>
        <time>2021-08-21T13:50:40Z</time>
      </trkpt>
      <trkpt lat="2.824906" lon="-75.08776">
        <ele>1391.4</ele>
        <time>2021-08-21T13:50:41Z</time>
      </trkpt>
      <trkpt lat="2.824882" lon="-75.08776">
        <ele>1391.4</ele>
        <time>2021-08-21T13:50:42Z</time>
      </trkpt>
      <trkpt lat="2.824858" lon="-75.08775">
        <ele>1391.3</ele>
        <time>2021-08-21T13:50:43Z</time>
      </trkpt>
      <trkpt lat="2.824835" lon="-75.08775">
        <ele>1391.3</ele>
        <time>2021-08-21T13:50:44Z</time>
      </trkpt>
      <trkpt lat="2.824812" lon="-75.087746">
        <ele>1391.3</ele>
        <time>2021-08-21T13:50:45Z</time>
      </trkpt>
      <trkpt lat="2.824788" lon="-75.08775">
        <ele>1391.2</ele>
        <time>2021-08-21T13:50:46Z</time>
      </trkpt>
      <trkpt lat="2.824766" lon="-75.08775">
        <ele>1391.2</ele>
        <time>2021-08-21T13:50:47Z</time>
      </trkpt>
      <trkpt lat="2.824742" lon="-75.08775">
        <ele>1391.2</ele>
        <time>2021-08-21T13:50:48Z</time>
      </trkpt>
      <trkpt lat="2.824719" lon="-75.08776">
        <ele>1391.1</ele>
        <time>2021-08-21T13:50:49Z</time>
      </trkpt>
      <trkpt lat="2.824696" lon="-75.08777">
        <ele>1391.1</ele>
        <time>2021-08-21T13:50:50Z</time>
      </trkpt>
      <trkpt lat="2.824674" lon="-75.087776">
        <ele>1391.0</ele>
        <time>2021-08-21T13:50:51Z</time>
      </trkpt>
      <trkpt lat="2.824653" lon="-75.08778">
        <ele>1391.0</ele>
        <time>2021-08-21T13:50:52Z</time>
      </trkpt>
      <trkpt lat="2.824632" lon="-75.08779">
        <ele>1391.0</ele>
        <time>2021-08-21T13:50:53Z</time>
      </trkpt>
      <trkpt lat="2.824615" lon="-75.08781">
        <ele>1391.0</ele>
        <time>2021-08-21T13:50:54Z</time>
      </trkpt>
      <trkpt lat="2.824598" lon="-75.087814">
        <ele>1390.9</ele>
        <time>2021-08-21T13:50:55Z</time>
      </trkpt>
      <trkpt lat="2.824581" lon="-75.08783">
        <ele>1390.9</ele>
        <time>2021-08-21T13:50:56Z</time>
      </trkpt>
      <trkpt lat="2.824564" lon="-75.087845">
        <ele>1390.9</ele>
        <time>2021-08-21T13:50:57Z</time>
      </trkpt>
      <trkpt lat="2.824547" lon="-75.08786">
        <ele>1390.8</ele>
        <time>2021-08-21T13:50:58Z</time>
      </trkpt>
      <trkpt lat="2.824531" lon="-75.08788">
        <ele>1390.8</ele>
        <time>2021-08-21T13:50:59Z</time>
      </trkpt>
      <trkpt lat="2.824517" lon="-75.0879">
        <ele>1390.8</ele>
        <time>2021-08-21T13:51:00Z</time>
      </trkpt>
      <trkpt lat="2.824502" lon="-75.08791">
        <ele>1390.7</ele>
        <time>2021-08-21T13:51:01Z</time>
      </trkpt>
      <trkpt lat="2.824488" lon="-75.08794">
        <ele>1390.7</ele>
        <time>2021-08-21T13:51:02Z</time>
      </trkpt>
      <trkpt lat="2.824472" lon="-75.08795">
        <ele>1390.6</ele>
        <time>2021-08-21T13:51:03Z</time>
      </trkpt>
      <trkpt lat="2.824456" lon="-75.08797">
        <ele>1390.6</ele>
        <time>2021-08-21T13:51:04Z</time>
      </trkpt>
      <trkpt lat="2.82444" lon="-75.08798">
        <ele>1390.5</ele>
        <time>2021-08-21T13:51:05Z</time>
      </trkpt>
      <trkpt lat="2.824423" lon="-75.088">
        <ele>1390.5</ele>
        <time>2021-08-21T13:51:06Z</time>
      </trkpt>
      <trkpt lat="2.824406" lon="-75.08801">
        <ele>1390.5</ele>
        <time>2021-08-21T13:51:07Z</time>
      </trkpt>
      <trkpt lat="2.824391" lon="-75.088036">
        <ele>1390.4</ele>
        <time>2021-08-21T13:51:08Z</time>
      </trkpt>
      <trkpt lat="2.824378" lon="-75.08805">
        <ele>1390.4</ele>
        <time>2021-08-21T13:51:09Z</time>
      </trkpt>
      <trkpt lat="2.824369" lon="-75.088066">
        <ele>1390.3</ele>
        <time>2021-08-21T13:51:10Z</time>
      </trkpt>
      <trkpt lat="2.82436" lon="-75.08809">
        <ele>1390.3</ele>
        <time>2021-08-21T13:51:11Z</time>
      </trkpt>
      <trkpt lat="2.82435" lon="-75.088104">
        <ele>1390.2</ele>
        <time>2021-08-21T13:51:12Z</time>
      </trkpt>
      <trkpt lat="2.824342" lon="-75.08813">
        <ele>1390.2</ele>
        <time>2021-08-21T13:51:13Z</time>
      </trkpt>
      <trkpt lat="2.824335" lon="-75.08815">
        <ele>1390.2</ele>
        <time>2021-08-21T13:51:14Z</time>
      </trkpt>
      <trkpt lat="2.824329" lon="-75.088165">
        <ele>1390.1</ele>
        <time>2021-08-21T13:51:15Z</time>
      </trkpt>
      <trkpt lat="2.824324" lon="-75.088196">
        <ele>1390.1</ele>
        <time>2021-08-21T13:51:16Z</time>
      </trkpt>
      <trkpt lat="2.824321" lon="-75.08822">
        <ele>1390.0</ele>
        <time>2021-08-21T13:51:17Z</time>
      </trkpt>
      <trkpt lat="2.824319" lon="-75.08824">
        <ele>1390.0</ele>
        <time>2021-08-21T13:51:18Z</time>
      </trkpt>
      <trkpt lat="2.824316" lon="-75.088264">
        <ele>1390.0</ele>
        <time>2021-08-21T13:51:19Z</time>
      </trkpt>
      <trkpt lat="2.824314" lon="-75.08829">
        <ele>1389.9</ele>
        <time>2021-08-21T13:51:20Z</time>
      </trkpt>
      <trkpt lat="2.824311" lon="-75.08831">
        <ele>1389.9</ele>
        <time>2021-08-21T13:51:21Z</time>
      </trkpt>
      <trkpt lat="2.824309" lon="-75.08833">
        <ele>1389.8</ele>
        <time>2021-08-21T13:51:22Z</time>
      </trkpt>
      <trkpt lat="2.824307" lon="-75.088356">
        <ele>1389.7</ele>
        <time>2021-08-21T13:51:23Z</time>
      </trkpt>
      <trkpt lat="2.824305" lon="-75.08839">
        <ele>1389.7</ele>
        <time>2021-08-21T13:51:24Z</time>
      </trkpt>
      <trkpt lat="2.824303" lon="-75.08841">
        <ele>1389.6</ele>
        <time>2021-08-21T13:51:25Z</time>
      </trkpt>
      <trkpt lat="2.824301" lon="-75.08843">
        <ele>1389.5</ele>
        <time>2021-08-21T13:51:26Z</time>
      </trkpt>
      <trkpt lat="2.8243" lon="-75.08846">
        <ele>1389.5</ele>
        <time>2021-08-21T13:51:27Z</time>
      </trkpt>
      <trkpt lat="2.824297" lon="-75.088486">
        <ele>1389.4</ele>
        <time>2021-08-21T13:51:28Z</time>
      </trkpt>
      <trkpt lat="2.824293" lon="-75.08851">
        <ele>1389.3</ele>
        <time>2021-08-21T13:51:29Z</time>
      </trkpt>
      <trkpt lat="2.824288" lon="-75.08853">
        <ele>1389.3</ele>
        <time>2021-08-21T13:51:30Z</time>
      </trkpt>
      <trkpt lat="2.824282" lon="-75.088554">
        <ele>1389.2</ele>
        <time>2021-08-21T13:51:31Z</time>
      </trkpt>
      <trkpt lat="2.824275" lon="-75.088585">
        <ele>1389.2</ele>
        <time>2021-08-21T13:51:32Z</time>
      </trkpt>
      <trkpt lat="2.824268" lon="-75.08861">
        <ele>1389.1</ele>
        <time>2021-08-21T13:51:33Z</time>
      </trkpt>
      <trkpt lat="2.824261" lon="-75.08863">
        <ele>1389.1</ele>
        <time>2021-08-21T13:51:34Z</time>
      </trkpt>
      <trkpt lat="2.824255" lon="-75.08865">
        <ele>1389.0</ele>
        <time>2021-08-21T13:51:35Z</time>
      </trkpt>
      <trkpt lat="2.824251" lon="-75.08868">
        <ele>1389.0</ele>
        <time>2021-08-21T13:51:36Z</time>
      </trkpt>
      <trkpt lat="2.824247" lon="-75.0887">
        <ele>1388.9</ele>
        <time>2021-08-21T13:51:37Z</time>
      </trkpt>
      <trkpt lat="2.824243" lon="-75.08872">
        <ele>1388.9</ele>
        <time>2021-08-21T13:51:38Z</time>
      </trkpt>
      <trkpt lat="2.824239" lon="-75.088745">
        <ele>1388.9</ele>
        <time>2021-08-21T13:51:39Z</time>
      </trkpt>
      <trkpt lat="2.824236" lon="-75.08877">
        <ele>1388.8</ele>
        <time>2021-08-21T13:51:40Z</time>
      </trkpt>
      <trkpt lat="2.824231" lon="-75.08879">
        <ele>1388.8</ele>
        <time>2021-08-21T13:51:41Z</time>
      </trkpt>
      <trkpt lat="2.824226" lon="-75.08881">
        <ele>1388.8</ele>
        <time>2021-08-21T13:51:42Z</time>
      </trkpt>
      <trkpt lat="2.824222" lon="-75.08884">
        <ele>1388.7</ele>
        <time>2021-08-21T13:51:43Z</time>
      </trkpt>
      <trkpt lat="2.824219" lon="-75.08886">
        <ele>1388.7</ele>
        <time>2021-08-21T13:51:44Z</time>
      </trkpt>
      <trkpt lat="2.824215" lon="-75.08889">
        <ele>1388.6</ele>
        <time>2021-08-21T13:51:45Z</time>
      </trkpt>
      <trkpt lat="2.824211" lon="-75.08891">
        <ele>1388.6</ele>
        <time>2021-08-21T13:51:46Z</time>
      </trkpt>
      <trkpt lat="2.824206" lon="-75.088936">
        <ele>1388.5</ele>
        <time>2021-08-21T13:51:47Z</time>
      </trkpt>
      <trkpt lat="2.824201" lon="-75.08896">
        <ele>1388.5</ele>
        <time>2021-08-21T13:51:48Z</time>
      </trkpt>
      <trkpt lat="2.824197" lon="-75.08898">
        <ele>1388.5</ele>
        <time>2021-08-21T13:51:49Z</time>
      </trkpt>
      <trkpt lat="2.824194" lon="-75.08901">
        <ele>1388.4</ele>
        <time>2021-08-21T13:51:50Z</time>
      </trkpt>
      <trkpt lat="2.824191" lon="-75.089035">
        <ele>1388.3</ele>
        <time>2021-08-21T13:51:51Z</time>
      </trkpt>
      <trkpt lat="2.824189" lon="-75.089066">
        <ele>1388.3</ele>
        <time>2021-08-21T13:51:52Z</time>
      </trkpt>
      <trkpt lat="2.824183" lon="-75.08909">
        <ele>1388.2</ele>
        <time>2021-08-21T13:51:53Z</time>
      </trkpt>
      <trkpt lat="2.824175" lon="-75.08912">
        <ele>1388.1</ele>
        <time>2021-08-21T13:51:54Z</time>
      </trkpt>
      <trkpt lat="2.824166" lon="-75.08914">
        <ele>1388.0</ele>
        <time>2021-08-21T13:51:55Z</time>
      </trkpt>
      <trkpt lat="2.824154" lon="-75.08917">
        <ele>1388.0</ele>
        <time>2021-08-21T13:51:56Z</time>
      </trkpt>
      <trkpt lat="2.824138" lon="-75.08919">
        <ele>1388.2</ele>
        <time>2021-08-21T13:51:57Z</time>
      </trkpt>
      <trkpt lat="2.824119" lon="-75.08921">
        <ele>1388.3</ele>
        <time>2021-08-21T13:51:58Z</time>
      </trkpt>
      <trkpt lat="2.824098" lon="-75.089226">
        <ele>1388.4</ele>
        <time>2021-08-21T13:51:59Z</time>
      </trkpt>
      <trkpt lat="2.824075" lon="-75.08924">
        <ele>1388.6</ele>
        <time>2021-08-21T13:52:00Z</time>
      </trkpt>
      <trkpt lat="2.824049" lon="-75.08926">
        <ele>1388.7</ele>
        <time>2021-08-21T13:52:01Z</time>
      </trkpt>
      <trkpt lat="2.824023" lon="-75.089264">
        <ele>1388.8</ele>
        <time>2021-08-21T13:52:02Z</time>
      </trkpt>
      <trkpt lat="2.823994" lon="-75.089264">
        <ele>1388.9</ele>
        <time>2021-08-21T13:52:03Z</time>
      </trkpt>
      <trkpt lat="2.823965" lon="-75.089264">
        <ele>1388.9</ele>
        <time>2021-08-21T13:52:04Z</time>
      </trkpt>
      <trkpt lat="2.823936" lon="-75.089264">
        <ele>1389.0</ele>
        <time>2021-08-21T13:52:05Z</time>
      </trkpt>
      <trkpt lat="2.823907" lon="-75.08926">
        <ele>1389.0</ele>
        <time>2021-08-21T13:52:06Z</time>
      </trkpt>
      <trkpt lat="2.82388" lon="-75.08923">
        <ele>1389.0</ele>
        <time>2021-08-21T13:52:07Z</time>
      </trkpt>
      <trkpt lat="2.823851" lon="-75.08921">
        <ele>1389.0</ele>
        <time>2021-08-21T13:52:08Z</time>
      </trkpt>
      <trkpt lat="2.823822" lon="-75.08919">
        <ele>1388.9</ele>
        <time>2021-08-21T13:52:09Z</time>
      </trkpt>
      <trkpt lat="2.823791" lon="-75.08915">
        <ele>1388.8</ele>
        <time>2021-08-21T13:52:10Z</time>
      </trkpt>
      <trkpt lat="2.823759" lon="-75.0891">
        <ele>1388.6</ele>
        <time>2021-08-21T13:52:11Z</time>
      </trkpt>
      <trkpt lat="2.823729" lon="-75.08906">
        <ele>1388.5</ele>
        <time>2021-08-21T13:52:12Z</time>
      </trkpt>
      <trkpt lat="2.823702" lon="-75.089005">
        <ele>1388.3</ele>
        <time>2021-08-21T13:52:13Z</time>
      </trkpt>
      <trkpt lat="2.823679" lon="-75.08896">
        <ele>1388.2</ele>
        <time>2021-08-21T13:52:14Z</time>
      </trkpt>
      <trkpt lat="2.823658" lon="-75.088905">
        <ele>1388.1</ele>
        <time>2021-08-21T13:52:15Z</time>
      </trkpt>
      <trkpt lat="2.823637" lon="-75.08885">
        <ele>1388.0</ele>
        <time>2021-08-21T13:52:16Z</time>
      </trkpt>
      <trkpt lat="2.823617" lon="-75.08879">
        <ele>1387.9</ele>
        <time>2021-08-21T13:52:17Z</time>
      </trkpt>
      <trkpt lat="2.8236" lon="-75.08874">
        <ele>1387.8</ele>
        <time>2021-08-21T13:52:18Z</time>
      </trkpt>
      <trkpt lat="2.823586" lon="-75.088684">
        <ele>1387.7</ele>
        <time>2021-08-21T13:52:19Z</time>
      </trkpt>
      <trkpt lat="2.823573" lon="-75.08863">
        <ele>1387.6</ele>
        <time>2021-08-21T13:52:20Z</time>
      </trkpt>
      <trkpt lat="2.82356" lon="-75.08857">
        <ele>1387.5</ele>
        <time>2021-08-21T13:52:21Z</time>
      </trkpt>
      <trkpt lat="2.82355" lon="-75.08852">
        <ele>1387.4</ele>
        <time>2021-08-21T13:52:22Z</time>
      </trkpt>
      <trkpt lat="2.823542" lon="-75.08846">
        <ele>1387.3</ele>
        <time>2021-08-21T13:52:23Z</time>
      </trkpt>
      <trkpt lat="2.823534" lon="-75.08841">
        <ele>1387.2</ele>
        <time>2021-08-21T13:52:24Z</time>
      </trkpt>
      <trkpt lat="2.82353" lon="-75.088356">
        <ele>1387.1</ele>
        <time>2021-08-21T13:52:25Z</time>
      </trkpt>
      <trkpt lat="2.823527" lon="-75.0883">
        <ele>1387.0</ele>
        <time>2021-08-21T13:52:26Z</time>
      </trkpt>
      <trkpt lat="2.823526" lon="-75.08825">
        <ele>1387.0</ele>
        <time>2021-08-21T13:52:27Z</time>
      </trkpt>
      <trkpt lat="2.823524" lon="-75.088196">
        <ele>1386.9</ele>
        <time>2021-08-21T13:52:28Z</time>
      </trkpt>
      <trkpt lat="2.82352" lon="-75.08815">
        <ele>1386.9</ele>
        <time>2021-08-21T13:52:29Z</time>
      </trkpt>
      <trkpt lat="2.823515" lon="-75.0881">
        <ele>1386.8</ele>
        <time>2021-08-21T13:52:30Z</time>
      </trkpt>
      <trkpt lat="2.823508" lon="-75.08805">
        <ele>1386.8</ele>
        <time>2021-08-21T13:52:31Z</time>
      </trkpt>
      <trkpt lat="2.823499" lon="-75.08801">
        <ele>1386.8</ele>
        <time>2021-08-21T13:52:32Z</time>
      </trkpt>
      <trkpt lat="2.823489" lon="-75.087975">
        <ele>1386.7</ele>
        <time>2021-08-21T13:52:33Z</time>
      </trkpt>
      <trkpt lat="2.823476" lon="-75.08794">
        <ele>1386.7</ele>
        <time>2021-08-21T13:52:34Z</time>
      </trkpt>
      <trkpt lat="2.82346" lon="-75.0879">
        <ele>1386.7</ele>
        <time>2021-08-21T13:52:35Z</time>
      </trkpt>
      <trkpt lat="2.823442" lon="-75.08787">
        <ele>1386.6</ele>
        <time>2021-08-21T13:52:36Z</time>
      </trkpt>
      <trkpt lat="2.823422" lon="-75.08783">
        <ele>1386.6</ele>
        <time>2021-08-21T13:52:37Z</time>
      </trkpt>
      <trkpt lat="2.823403" lon="-75.0878">
        <ele>1386.5</ele>
        <time>2021-08-21T13:52:38Z</time>
      </trkpt>
      <trkpt lat="2.823384" lon="-75.08777">
        <ele>1386.4</ele>
        <time>2021-08-21T13:52:39Z</time>
      </trkpt>
      <trkpt lat="2.823365" lon="-75.08774">
        <ele>1386.4</ele>
        <time>2021-08-21T13:52:40Z</time>
      </trkpt>
      <trkpt lat="2.823347" lon="-75.08771">
        <ele>1386.3</ele>
        <time>2021-08-21T13:52:41Z</time>
      </trkpt>
      <trkpt lat="2.82333" lon="-75.08767">
        <ele>1386.2</ele>
        <time>2021-08-21T13:52:42Z</time>
      </trkpt>
      <trkpt lat="2.823311" lon="-75.08763">
        <ele>1386.1</ele>
        <time>2021-08-21T13:52:43Z</time>
      </trkpt>
      <trkpt lat="2.823293" lon="-75.087585">
        <ele>1386.0</ele>
        <time>2021-08-21T13:52:44Z</time>
      </trkpt>
      <trkpt lat="2.823277" lon="-75.08755">
        <ele>1385.9</ele>
        <time>2021-08-21T13:52:45Z</time>
      </trkpt>
      <trkpt lat="2.823262" lon="-75.0875">
        <ele>1385.8</ele>
        <time>2021-08-21T13:52:46Z</time>
      </trkpt>
      <trkpt lat="2.823247" lon="-75.087456">
        <ele>1385.8</ele>
        <time>2021-08-21T13:52:47Z</time>
      </trkpt>
      <trkpt lat="2.823233" lon="-75.08742">
        <ele>1385.7</ele>
        <time>2021-08-21T13:52:48Z</time>
      </trkpt>
      <trkpt lat="2.823219" lon="-75.08737">
        <ele>1385.6</ele>
        <time>2021-08-21T13:52:49Z</time>
      </trkpt>
      <trkpt lat="2.823205" lon="-75.08733">
        <ele>1385.5</ele>
        <time>2021-08-21T13:52:50Z</time>
      </trkpt>
      <trkpt lat="2.82319" lon="-75.08729">
        <ele>1385.5</ele>
        <time>2021-08-21T13:52:51Z</time>
      </trkpt>
      <trkpt lat="2.823175" lon="-75.08725">
        <ele>1385.4</ele>
        <time>2021-08-21T13:52:52Z</time>
      </trkpt>
      <trkpt lat="2.82316" lon="-75.087204">
        <ele>1385.4</ele>
        <time>2021-08-21T13:52:53Z</time>
      </trkpt>
      <trkpt lat="2.823145" lon="-75.087166">
        <ele>1385.3</ele>
        <time>2021-08-21T13:52:54Z</time>
      </trkpt>
      <trkpt lat="2.823128" lon="-75.08713">
        <ele>1385.3</ele>
        <time>2021-08-21T13:52:55Z</time>
      </trkpt>
      <trkpt lat="2.823111" lon="-75.08709">
        <ele>1385.2</ele>
        <time>2021-08-21T13:52:56Z</time>
      </trkpt>
      <trkpt lat="2.823095" lon="-75.08704">
        <ele>1385.2</ele>
        <time>2021-08-21T13:52:57Z</time>
      </trkpt>
      <trkpt lat="2.823081" lon="-75.087006">
        <ele>1385.1</ele>
        <time>2021-08-21T13:52:58Z</time>
      </trkpt>
      <trkpt lat="2.823069" lon="-75.08697">
        <ele>1385.0</ele>
        <time>2021-08-21T13:52:59Z</time>
      </trkpt>
      <trkpt lat="2.823055" lon="-75.08693">
        <ele>1385.0</ele>
        <time>2021-08-21T13:53:00Z</time>
      </trkpt>
      <trkpt lat="2.823043" lon="-75.08689">
        <ele>1384.9</ele>
        <time>2021-08-21T13:53:01Z</time>
      </trkpt>
      <trkpt lat="2.823033" lon="-75.08685">
        <ele>1384.9</ele>
        <time>2021-08-21T13:53:02Z</time>
      </trkpt>
      <trkpt lat="2.823023" lon="-75.086815">
        <ele>1384.9</ele>
        <time>2021-08-21T13:53:03Z</time>
      </trkpt>
      <trkpt lat="2.823012" lon="-75.08678">
        <ele>1384.8</ele>
        <time>2021-08-21T13:53:04Z</time>
      </trkpt>
      <trkpt lat="2.822999" lon="-75.08674">
        <ele>1384.8</ele>
        <time>2021-08-21T13:53:05Z</time>
      </trkpt>
      <trkpt lat="2.822985" lon="-75.0867">
        <ele>1384.8</ele>
        <time>2021-08-21T13:53:06Z</time>
      </trkpt>
      <trkpt lat="2.822967" lon="-75.08666">
        <ele>1384.9</ele>
        <time>2021-08-21T13:53:07Z</time>
      </trkpt>
      <trkpt lat="2.82295" lon="-75.08663">
        <ele>1384.9</ele>
        <time>2021-08-21T13:53:08Z</time>
      </trkpt>
      <trkpt lat="2.822934" lon="-75.08659">
        <ele>1385.0</ele>
        <time>2021-08-21T13:53:09Z</time>
      </trkpt>
      <trkpt lat="2.822917" lon="-75.08656">
        <ele>1385.0</ele>
        <time>2021-08-21T13:53:10Z</time>
      </trkpt>
      <trkpt lat="2.822897" lon="-75.08653">
        <ele>1385.1</ele>
        <time>2021-08-21T13:53:11Z</time>
      </trkpt>
      <trkpt lat="2.822876" lon="-75.08651">
        <ele>1385.2</ele>
        <time>2021-08-21T13:53:12Z</time>
      </trkpt>
      <trkpt lat="2.822852" lon="-75.08649">
        <ele>1385.2</ele>
        <time>2021-08-21T13:53:13Z</time>
      </trkpt>
      <trkpt lat="2.822826" lon="-75.086464">
        <ele>1385.3</ele>
        <time>2021-08-21T13:53:14Z</time>
      </trkpt>
      <trkpt lat="2.822799" lon="-75.08644">
        <ele>1385.4</ele>
        <time>2021-08-21T13:53:15Z</time>
      </trkpt>
      <trkpt lat="2.822772" lon="-75.08642">
        <ele>1385.4</ele>
        <time>2021-08-21T13:53:16Z</time>
      </trkpt>
      <trkpt lat="2.822744" lon="-75.086395">
        <ele>1385.5</ele>
        <time>2021-08-21T13:53:17Z</time>
      </trkpt>
      <trkpt lat="2.822717" lon="-75.08637">
        <ele>1385.6</ele>
        <time>2021-08-21T13:53:18Z</time>
      </trkpt>
      <trkpt lat="2.822687" lon="-75.08636">
        <ele>1385.6</ele>
        <time>2021-08-21T13:53:19Z</time>
      </trkpt>
      <trkpt lat="2.822659" lon="-75.086334">
        <ele>1385.7</ele>
        <time>2021-08-21T13:53:20Z</time>
      </trkpt>
      <trkpt lat="2.822629" lon="-75.08632">
        <ele>1385.7</ele>
        <time>2021-08-21T13:53:21Z</time>
      </trkpt>
      <trkpt lat="2.822601" lon="-75.086296">
        <ele>1385.8</ele>
        <time>2021-08-21T13:53:22Z</time>
      </trkpt>
      <trkpt lat="2.822571" lon="-75.08627">
        <ele>1385.8</ele>
        <time>2021-08-21T13:53:23Z</time>
      </trkpt>
      <trkpt lat="2.822541" lon="-75.08626">
        <ele>1385.9</ele>
        <time>2021-08-21T13:53:24Z</time>
      </trkpt>
      <trkpt lat="2.822511" lon="-75.086235">
        <ele>1386.0</ele>
        <time>2021-08-21T13:53:25Z</time>
      </trkpt>
      <trkpt lat="2.822482" lon="-75.08622">
        <ele>1386.1</ele>
        <time>2021-08-21T13:53:26Z</time>
      </trkpt>
      <trkpt lat="2.822454" lon="-75.086205">
        <ele>1386.2</ele>
        <time>2021-08-21T13:53:27Z</time>
      </trkpt>
      <trkpt lat="2.822426" lon="-75.08619">
        <ele>1386.3</ele>
        <time>2021-08-21T13:53:28Z</time>
      </trkpt>
      <trkpt lat="2.8224" lon="-75.086174">
        <ele>1386.4</ele>
        <time>2021-08-21T13:53:29Z</time>
      </trkpt>
      <trkpt lat="2.822375" lon="-75.08616">
        <ele>1386.5</ele>
        <time>2021-08-21T13:53:30Z</time>
      </trkpt>
      <trkpt lat="2.822353" lon="-75.08614">
        <ele>1386.7</ele>
        <time>2021-08-21T13:53:31Z</time>
      </trkpt>
      <trkpt lat="2.82233" lon="-75.086136">
        <ele>1386.8</ele>
        <time>2021-08-21T13:53:32Z</time>
      </trkpt>
      <trkpt lat="2.822309" lon="-75.08612">
        <ele>1387.0</ele>
        <time>2021-08-21T13:53:33Z</time>
      </trkpt>
      <trkpt lat="2.822288" lon="-75.086105">
        <ele>1387.1</ele>
        <time>2021-08-21T13:53:34Z</time>
      </trkpt>
      <trkpt lat="2.822268" lon="-75.0861">
        <ele>1387.2</ele>
        <time>2021-08-21T13:53:35Z</time>
      </trkpt>
      <trkpt lat="2.822246" lon="-75.08608">
        <ele>1387.4</ele>
        <time>2021-08-21T13:53:36Z</time>
      </trkpt>
      <trkpt lat="2.822223" lon="-75.08607">
        <ele>1387.6</ele>
        <time>2021-08-21T13:53:37Z</time>
      </trkpt>
      <trkpt lat="2.822198" lon="-75.08606">
        <ele>1387.7</ele>
        <time>2021-08-21T13:53:38Z</time>
      </trkpt>
      <trkpt lat="2.82217" lon="-75.08605">
        <ele>1387.9</ele>
        <time>2021-08-21T13:53:39Z</time>
      </trkpt>
      <trkpt lat="2.82214" lon="-75.086044">
        <ele>1388.2</ele>
        <time>2021-08-21T13:53:40Z</time>
      </trkpt>
      <trkpt lat="2.822111" lon="-75.08604">
        <ele>1388.4</ele>
        <time>2021-08-21T13:53:41Z</time>
      </trkpt>
      <trkpt lat="2.822084" lon="-75.08604">
        <ele>1388.6</ele>
        <time>2021-08-21T13:53:42Z</time>
      </trkpt>
      <trkpt lat="2.822055" lon="-75.08603">
        <ele>1388.8</ele>
        <time>2021-08-21T13:53:43Z</time>
      </trkpt>
      <trkpt lat="2.822028" lon="-75.08604">
        <ele>1389.0</ele>
        <time>2021-08-21T13:53:44Z</time>
      </trkpt>
      <trkpt lat="2.822003" lon="-75.08604">
        <ele>1389.2</ele>
        <time>2021-08-21T13:53:45Z</time>
      </trkpt>
      <trkpt lat="2.821978" lon="-75.086044">
        <ele>1389.4</ele>
        <time>2021-08-21T13:53:46Z</time>
      </trkpt>
      <trkpt lat="2.821955" lon="-75.08605">
        <ele>1389.6</ele>
        <time>2021-08-21T13:53:47Z</time>
      </trkpt>
      <trkpt lat="2.821933" lon="-75.08606">
        <ele>1389.8</ele>
        <time>2021-08-21T13:53:48Z</time>
      </trkpt>
      <trkpt lat="2.821913" lon="-75.08607">
        <ele>1389.9</ele>
        <time>2021-08-21T13:53:49Z</time>
      </trkpt>
      <trkpt lat="2.821892" lon="-75.08608">
        <ele>1390.0</ele>
        <time>2021-08-21T13:53:50Z</time>
      </trkpt>
      <trkpt lat="2.821871" lon="-75.08609">
        <ele>1390.2</ele>
        <time>2021-08-21T13:53:51Z</time>
      </trkpt>
      <trkpt lat="2.82185" lon="-75.086105">
        <ele>1390.3</ele>
        <time>2021-08-21T13:53:52Z</time>
      </trkpt>
      <trkpt lat="2.821807" lon="-75.08612">
        <ele>1390.6</ele>
        <time>2021-08-21T13:53:53Z</time>
      </trkpt>
      <trkpt lat="2.821829" lon="-75.08611">
        <ele>1390.4</ele>
        <time>2021-08-21T13:53:53Z</time>
      </trkpt>
      <trkpt lat="2.821786" lon="-75.08613">
        <ele>1390.7</ele>
        <time>2021-08-21T13:53:54Z</time>
      </trkpt>
      <trkpt lat="2.821765" lon="-75.08613">
        <ele>1390.8</ele>
        <time>2021-08-21T13:53:55Z</time>
      </trkpt>
      <trkpt lat="2.821742" lon="-75.086136">
        <ele>1390.9</ele>
        <time>2021-08-21T13:53:56Z</time>
      </trkpt>
      <trkpt lat="2.821718" lon="-75.08615">
        <ele>1391.0</ele>
        <time>2021-08-21T13:53:57Z</time>
      </trkpt>
      <trkpt lat="2.821689" lon="-75.08616">
        <ele>1391.2</ele>
        <time>2021-08-21T13:53:58Z</time>
      </trkpt>
      <trkpt lat="2.821662" lon="-75.08617">
        <ele>1391.3</ele>
        <time>2021-08-21T13:53:59Z</time>
      </trkpt>
      <trkpt lat="2.821634" lon="-75.086174">
        <ele>1391.4</ele>
        <time>2021-08-21T13:54:00Z</time>
      </trkpt>
      <trkpt lat="2.821605" lon="-75.08618">
        <ele>1391.5</ele>
        <time>2021-08-21T13:54:01Z</time>
      </trkpt>
      <trkpt lat="2.821575" lon="-75.08619">
        <ele>1391.6</ele>
        <time>2021-08-21T13:54:02Z</time>
      </trkpt>
      <trkpt lat="2.821544" lon="-75.0862">
        <ele>1391.7</ele>
        <time>2021-08-21T13:54:03Z</time>
      </trkpt>
      <trkpt lat="2.821512" lon="-75.086205">
        <ele>1391.8</ele>
        <time>2021-08-21T13:54:04Z</time>
      </trkpt>
      <trkpt lat="2.82148" lon="-75.08621">
        <ele>1391.9</ele>
        <time>2021-08-21T13:54:05Z</time>
      </trkpt>
      <trkpt lat="2.821447" lon="-75.08622">
        <ele>1391.9</ele>
        <time>2021-08-21T13:54:06Z</time>
      </trkpt>
      <trkpt lat="2.821414" lon="-75.08623">
        <ele>1392.0</ele>
        <time>2021-08-21T13:54:07Z</time>
      </trkpt>
      <trkpt lat="2.821381" lon="-75.08623">
        <ele>1392.0</ele>
        <time>2021-08-21T13:54:08Z</time>
      </trkpt>
      <trkpt lat="2.82135" lon="-75.086235">
        <ele>1392.0</ele>
        <time>2021-08-21T13:54:09Z</time>
      </trkpt>
      <trkpt lat="2.821319" lon="-75.08624">
        <ele>1392.1</ele>
        <time>2021-08-21T13:54:10Z</time>
      </trkpt>
      <trkpt lat="2.821288" lon="-75.08626">
        <ele>1392.1</ele>
        <time>2021-08-21T13:54:11Z</time>
      </trkpt>
      <trkpt lat="2.821257" lon="-75.086266">
        <ele>1392.2</ele>
        <time>2021-08-21T13:54:12Z</time>
      </trkpt>
      <trkpt lat="2.821228" lon="-75.08627">
        <ele>1392.2</ele>
        <time>2021-08-21T13:54:13Z</time>
      </trkpt>
      <trkpt lat="2.821199" lon="-75.08629">
        <ele>1392.3</ele>
        <time>2021-08-21T13:54:14Z</time>
      </trkpt>
      <trkpt lat="2.82117" lon="-75.0863">
        <ele>1392.4</ele>
        <time>2021-08-21T13:54:15Z</time>
      </trkpt>
      <trkpt lat="2.821143" lon="-75.08631">
        <ele>1392.5</ele>
        <time>2021-08-21T13:54:16Z</time>
      </trkpt>
      <trkpt lat="2.821115" lon="-75.08633">
        <ele>1392.7</ele>
        <time>2021-08-21T13:54:17Z</time>
      </trkpt>
      <trkpt lat="2.821088" lon="-75.08634">
        <ele>1392.8</ele>
        <time>2021-08-21T13:54:18Z</time>
      </trkpt>
      <trkpt lat="2.82106" lon="-75.08635">
        <ele>1392.9</ele>
        <time>2021-08-21T13:54:19Z</time>
      </trkpt>
      <trkpt lat="2.821033" lon="-75.086365">
        <ele>1393.1</ele>
        <time>2021-08-21T13:54:20Z</time>
      </trkpt>
      <trkpt lat="2.821007" lon="-75.08638">
        <ele>1393.2</ele>
        <time>2021-08-21T13:54:21Z</time>
      </trkpt>
      <trkpt lat="2.820982" lon="-75.08639">
        <ele>1393.3</ele>
        <time>2021-08-21T13:54:22Z</time>
      </trkpt>
      <trkpt lat="2.820957" lon="-75.0864">
        <ele>1393.5</ele>
        <time>2021-08-21T13:54:23Z</time>
      </trkpt>
      <trkpt lat="2.820933" lon="-75.08641">
        <ele>1393.6</ele>
        <time>2021-08-21T13:54:24Z</time>
      </trkpt>
      <trkpt lat="2.820908" lon="-75.08642">
        <ele>1393.7</ele>
        <time>2021-08-21T13:54:25Z</time>
      </trkpt>
      <trkpt lat="2.820884" lon="-75.086426">
        <ele>1393.9</ele>
        <time>2021-08-21T13:54:26Z</time>
      </trkpt>
      <trkpt lat="2.820859" lon="-75.08643">
        <ele>1394.0</ele>
        <time>2021-08-21T13:54:27Z</time>
      </trkpt>
      <trkpt lat="2.820834" lon="-75.08644">
        <ele>1394.1</ele>
        <time>2021-08-21T13:54:28Z</time>
      </trkpt>
      <trkpt lat="2.82081" lon="-75.08645">
        <ele>1394.3</ele>
        <time>2021-08-21T13:54:29Z</time>
      </trkpt>
      <trkpt lat="2.820786" lon="-75.08646">
        <ele>1394.5</ele>
        <time>2021-08-21T13:54:30Z</time>
      </trkpt>
      <trkpt lat="2.820762" lon="-75.08646">
        <ele>1394.6</ele>
        <time>2021-08-21T13:54:31Z</time>
      </trkpt>
      <trkpt lat="2.820738" lon="-75.086464">
        <ele>1394.8</ele>
        <time>2021-08-21T13:54:32Z</time>
      </trkpt>
      <trkpt lat="2.820714" lon="-75.08647">
        <ele>1394.9</ele>
        <time>2021-08-21T13:54:33Z</time>
      </trkpt>
      <trkpt lat="2.82069" lon="-75.08648">
        <ele>1395.1</ele>
        <time>2021-08-21T13:54:34Z</time>
      </trkpt>
      <trkpt lat="2.820665" lon="-75.08648">
        <ele>1395.3</ele>
        <time>2021-08-21T13:54:35Z</time>
      </trkpt>
      <trkpt lat="2.820639" lon="-75.08649">
        <ele>1395.5</ele>
        <time>2021-08-21T13:54:36Z</time>
      </trkpt>
      <trkpt lat="2.820613" lon="-75.08649">
        <ele>1395.7</ele>
        <time>2021-08-21T13:54:37Z</time>
      </trkpt>
      <trkpt lat="2.820586" lon="-75.086494">
        <ele>1395.9</ele>
        <time>2021-08-21T13:54:38Z</time>
      </trkpt>
      <trkpt lat="2.820558" lon="-75.086494">
        <ele>1396.1</ele>
        <time>2021-08-21T13:54:39Z</time>
      </trkpt>
      <trkpt lat="2.820531" lon="-75.086494">
        <ele>1396.3</ele>
        <time>2021-08-21T13:54:40Z</time>
      </trkpt>
      <trkpt lat="2.820504" lon="-75.0865">
        <ele>1396.5</ele>
        <time>2021-08-21T13:54:41Z</time>
      </trkpt>
      <trkpt lat="2.820478" lon="-75.0865">
        <ele>1396.7</ele>
        <time>2021-08-21T13:54:42Z</time>
      </trkpt>
      <trkpt lat="2.820452" lon="-75.0865">
        <ele>1396.9</ele>
        <time>2021-08-21T13:54:43Z</time>
      </trkpt>
      <trkpt lat="2.820427" lon="-75.08651">
        <ele>1397.1</ele>
        <time>2021-08-21T13:54:44Z</time>
      </trkpt>
      <trkpt lat="2.820403" lon="-75.08651">
        <ele>1397.3</ele>
        <time>2021-08-21T13:54:45Z</time>
      </trkpt>
      <trkpt lat="2.82038" lon="-75.08652">
        <ele>1397.5</ele>
        <time>2021-08-21T13:54:46Z</time>
      </trkpt>
      <trkpt lat="2.820358" lon="-75.086525">
        <ele>1397.7</ele>
        <time>2021-08-21T13:54:47Z</time>
      </trkpt>
      <trkpt lat="2.820337" lon="-75.086525">
        <ele>1397.9</ele>
        <time>2021-08-21T13:54:48Z</time>
      </trkpt>
      <trkpt lat="2.820317" lon="-75.08653">
        <ele>1398.1</ele>
        <time>2021-08-21T13:54:49Z</time>
      </trkpt>
      <trkpt lat="2.820298" lon="-75.08653">
        <ele>1398.3</ele>
        <time>2021-08-21T13:54:50Z</time>
      </trkpt>
      <trkpt lat="2.820279" lon="-75.08653">
        <ele>1398.5</ele>
        <time>2021-08-21T13:54:51Z</time>
      </trkpt>
      <trkpt lat="2.820259" lon="-75.08654">
        <ele>1398.7</ele>
        <time>2021-08-21T13:54:52Z</time>
      </trkpt>
      <trkpt lat="2.820242" lon="-75.08654">
        <ele>1398.9</ele>
        <time>2021-08-21T13:54:53Z</time>
      </trkpt>
      <trkpt lat="2.820226" lon="-75.08654">
        <ele>1399.0</ele>
        <time>2021-08-21T13:54:54Z</time>
      </trkpt>
      <trkpt lat="2.820211" lon="-75.08654">
        <ele>1399.2</ele>
        <time>2021-08-21T13:54:55Z</time>
      </trkpt>
      <trkpt lat="2.820194" lon="-75.08655">
        <ele>1399.3</ele>
        <time>2021-08-21T13:54:56Z</time>
      </trkpt>
      <trkpt lat="2.820178" lon="-75.08655">
        <ele>1399.5</ele>
        <time>2021-08-21T13:54:57Z</time>
      </trkpt>
      <trkpt lat="2.820164" lon="-75.08655">
        <ele>1399.7</ele>
        <time>2021-08-21T13:54:58Z</time>
      </trkpt>
      <trkpt lat="2.820149" lon="-75.086555">
        <ele>1399.8</ele>
        <time>2021-08-21T13:54:59Z</time>
      </trkpt>
      <trkpt lat="2.820134" lon="-75.086555">
        <ele>1400.0</ele>
        <time>2021-08-21T13:55:00Z</time>
      </trkpt>
      <trkpt lat="2.820118" lon="-75.086555">
        <ele>1400.2</ele>
        <time>2021-08-21T13:55:01Z</time>
      </trkpt>
      <trkpt lat="2.820102" lon="-75.08656">
        <ele>1400.4</ele>
        <time>2021-08-21T13:55:02Z</time>
      </trkpt>
      <trkpt lat="2.820087" lon="-75.08657">
        <ele>1400.5</ele>
        <time>2021-08-21T13:55:03Z</time>
      </trkpt>
      <trkpt lat="2.820072" lon="-75.08657">
        <ele>1400.7</ele>
        <time>2021-08-21T13:55:04Z</time>
      </trkpt>
      <trkpt lat="2.820058" lon="-75.08658">
        <ele>1400.9</ele>
        <time>2021-08-21T13:55:05Z</time>
      </trkpt>
      <trkpt lat="2.820043" lon="-75.086586">
        <ele>1401.0</ele>
        <time>2021-08-21T13:55:06Z</time>
      </trkpt>
      <trkpt lat="2.820029" lon="-75.08659">
        <ele>1401.2</ele>
        <time>2021-08-21T13:55:07Z</time>
      </trkpt>
      <trkpt lat="2.820015" lon="-75.0866">
        <ele>1401.4</ele>
        <time>2021-08-21T13:55:08Z</time>
      </trkpt>
      <trkpt lat="2.820001" lon="-75.08661">
        <ele>1401.5</ele>
        <time>2021-08-21T13:55:09Z</time>
      </trkpt>
      <trkpt lat="2.819987" lon="-75.08661">
        <ele>1401.7</ele>
        <time>2021-08-21T13:55:10Z</time>
      </trkpt>
      <trkpt lat="2.819973" lon="-75.08662">
        <ele>1401.8</ele>
        <time>2021-08-21T13:55:11Z</time>
      </trkpt>
      <trkpt lat="2.819958" lon="-75.08662">
        <ele>1402.0</ele>
        <time>2021-08-21T13:55:12Z</time>
      </trkpt>
      <trkpt lat="2.819942" lon="-75.086624">
        <ele>1402.2</ele>
        <time>2021-08-21T13:55:13Z</time>
      </trkpt>
      <trkpt lat="2.819927" lon="-75.086624">
        <ele>1402.4</ele>
        <time>2021-08-21T13:55:14Z</time>
      </trkpt>
      <trkpt lat="2.819911" lon="-75.08663">
        <ele>1402.5</ele>
        <time>2021-08-21T13:55:15Z</time>
      </trkpt>
      <trkpt lat="2.819897" lon="-75.08663">
        <ele>1402.7</ele>
        <time>2021-08-21T13:55:16Z</time>
      </trkpt>
      <trkpt lat="2.819883" lon="-75.08664">
        <ele>1402.8</ele>
        <time>2021-08-21T13:55:17Z</time>
      </trkpt>
      <trkpt lat="2.819868" lon="-75.08665">
        <ele>1403.0</ele>
        <time>2021-08-21T13:55:18Z</time>
      </trkpt>
      <trkpt lat="2.819854" lon="-75.08665">
        <ele>1403.1</ele>
        <time>2021-08-21T13:55:19Z</time>
      </trkpt>
      <trkpt lat="2.81984" lon="-75.086655">
        <ele>1403.3</ele>
        <time>2021-08-21T13:55:20Z</time>
      </trkpt>
      <trkpt lat="2.819825" lon="-75.086655">
        <ele>1403.4</ele>
        <time>2021-08-21T13:55:21Z</time>
      </trkpt>
      <trkpt lat="2.819811" lon="-75.08666">
        <ele>1403.6</ele>
        <time>2021-08-21T13:55:22Z</time>
      </trkpt>
      <trkpt lat="2.819796" lon="-75.08666">
        <ele>1403.7</ele>
        <time>2021-08-21T13:55:23Z</time>
      </trkpt>
      <trkpt lat="2.819781" lon="-75.08666">
        <ele>1403.9</ele>
        <time>2021-08-21T13:55:24Z</time>
      </trkpt>
      <trkpt lat="2.819765" lon="-75.08667">
        <ele>1404.1</ele>
        <time>2021-08-21T13:55:25Z</time>
      </trkpt>
      <trkpt lat="2.819749" lon="-75.08667">
        <ele>1404.2</ele>
        <time>2021-08-21T13:55:26Z</time>
      </trkpt>
      <trkpt lat="2.819732" lon="-75.08668">
        <ele>1404.4</ele>
        <time>2021-08-21T13:55:27Z</time>
      </trkpt>
      <trkpt lat="2.819716" lon="-75.08668">
        <ele>1404.6</ele>
        <time>2021-08-21T13:55:28Z</time>
      </trkpt>
      <trkpt lat="2.8197" lon="-75.086685">
        <ele>1404.7</ele>
        <time>2021-08-21T13:55:29Z</time>
      </trkpt>
      <trkpt lat="2.819684" lon="-75.086685">
        <ele>1404.9</ele>
        <time>2021-08-21T13:55:30Z</time>
      </trkpt>
      <trkpt lat="2.819669" lon="-75.08669">
        <ele>1405.1</ele>
        <time>2021-08-21T13:55:31Z</time>
      </trkpt>
      <trkpt lat="2.819654" lon="-75.0867">
        <ele>1405.2</ele>
        <time>2021-08-21T13:55:32Z</time>
      </trkpt>
      <trkpt lat="2.819639" lon="-75.08671">
        <ele>1405.4</ele>
        <time>2021-08-21T13:55:33Z</time>
      </trkpt>
      <trkpt lat="2.819623" lon="-75.086716">
        <ele>1405.5</ele>
        <time>2021-08-21T13:55:34Z</time>
      </trkpt>
      <trkpt lat="2.819607" lon="-75.086716">
        <ele>1405.7</ele>
        <time>2021-08-21T13:55:35Z</time>
      </trkpt>
      <trkpt lat="2.819591" lon="-75.08672">
        <ele>1405.9</ele>
        <time>2021-08-21T13:55:36Z</time>
      </trkpt>
      <trkpt lat="2.819576" lon="-75.08674">
        <ele>1406.0</ele>
        <time>2021-08-21T13:55:37Z</time>
      </trkpt>
      <trkpt lat="2.819561" lon="-75.08675">
        <ele>1406.2</ele>
        <time>2021-08-21T13:55:38Z</time>
      </trkpt>
      <trkpt lat="2.819548" lon="-75.086754">
        <ele>1406.3</ele>
        <time>2021-08-21T13:55:39Z</time>
      </trkpt>
      <trkpt lat="2.819535" lon="-75.08677">
        <ele>1406.5</ele>
        <time>2021-08-21T13:55:40Z</time>
      </trkpt>
      <trkpt lat="2.819525" lon="-75.08678">
        <ele>1406.6</ele>
        <time>2021-08-21T13:55:41Z</time>
      </trkpt>
      <trkpt lat="2.819513" lon="-75.08679">
        <ele>1406.8</ele>
        <time>2021-08-21T13:55:42Z</time>
      </trkpt>
      <trkpt lat="2.819503" lon="-75.08681">
        <ele>1406.9</ele>
        <time>2021-08-21T13:55:43Z</time>
      </trkpt>
      <trkpt lat="2.819492" lon="-75.086815">
        <ele>1407.1</ele>
        <time>2021-08-21T13:55:44Z</time>
      </trkpt>
      <trkpt lat="2.819481" lon="-75.08683">
        <ele>1407.2</ele>
        <time>2021-08-21T13:55:45Z</time>
      </trkpt>
      <trkpt lat="2.819468" lon="-75.08684">
        <ele>1407.4</ele>
        <time>2021-08-21T13:55:46Z</time>
      </trkpt>
      <trkpt lat="2.819457" lon="-75.08685">
        <ele>1407.6</ele>
        <time>2021-08-21T13:55:47Z</time>
      </trkpt>
      <trkpt lat="2.819445" lon="-75.08687">
        <ele>1407.7</ele>
        <time>2021-08-21T13:55:48Z</time>
      </trkpt>
      <trkpt lat="2.819434" lon="-75.08688">
        <ele>1407.9</ele>
        <time>2021-08-21T13:55:49Z</time>
      </trkpt>
      <trkpt lat="2.819424" lon="-75.08689">
        <ele>1408.0</ele>
        <time>2021-08-21T13:55:50Z</time>
      </trkpt>
      <trkpt lat="2.819415" lon="-75.08691">
        <ele>1408.2</ele>
        <time>2021-08-21T13:55:51Z</time>
      </trkpt>
      <trkpt lat="2.819406" lon="-75.08692">
        <ele>1408.3</ele>
        <time>2021-08-21T13:55:52Z</time>
      </trkpt>
      <trkpt lat="2.819397" lon="-75.08693">
        <ele>1408.5</ele>
        <time>2021-08-21T13:55:53Z</time>
      </trkpt>
      <trkpt lat="2.819387" lon="-75.086945">
        <ele>1408.6</ele>
        <time>2021-08-21T13:55:54Z</time>
      </trkpt>
      <trkpt lat="2.819377" lon="-75.08696">
        <ele>1408.8</ele>
        <time>2021-08-21T13:55:55Z</time>
      </trkpt>
      <trkpt lat="2.819368" lon="-75.08697">
        <ele>1408.9</ele>
        <time>2021-08-21T13:55:56Z</time>
      </trkpt>
      <trkpt lat="2.819359" lon="-75.08698">
        <ele>1409.0</ele>
        <time>2021-08-21T13:55:57Z</time>
      </trkpt>
      <trkpt lat="2.819351" lon="-75.087">
        <ele>1409.2</ele>
        <time>2021-08-21T13:55:58Z</time>
      </trkpt>
      <trkpt lat="2.819345" lon="-75.08701">
        <ele>1409.3</ele>
        <time>2021-08-21T13:55:59Z</time>
      </trkpt>
      <trkpt lat="2.819339" lon="-75.08702">
        <ele>1409.5</ele>
        <time>2021-08-21T13:56:00Z</time>
      </trkpt>
      <trkpt lat="2.819334" lon="-75.087036">
        <ele>1409.6</ele>
        <time>2021-08-21T13:56:01Z</time>
      </trkpt>
      <trkpt lat="2.819328" lon="-75.08704">
        <ele>1409.7</ele>
        <time>2021-08-21T13:56:02Z</time>
      </trkpt>
      <trkpt lat="2.819321" lon="-75.08706">
        <ele>1409.8</ele>
        <time>2021-08-21T13:56:03Z</time>
      </trkpt>
      <trkpt lat="2.819315" lon="-75.087074">
        <ele>1410.0</ele>
        <time>2021-08-21T13:56:04Z</time>
      </trkpt>
      <trkpt lat="2.819307" lon="-75.08708">
        <ele>1410.1</ele>
        <time>2021-08-21T13:56:05Z</time>
      </trkpt>
      <trkpt lat="2.819299" lon="-75.08709">
        <ele>1410.2</ele>
        <time>2021-08-21T13:56:06Z</time>
      </trkpt>
      <trkpt lat="2.819291" lon="-75.087105">
        <ele>1410.4</ele>
        <time>2021-08-21T13:56:07Z</time>
      </trkpt>
      <trkpt lat="2.819282" lon="-75.08712">
        <ele>1410.5</ele>
        <time>2021-08-21T13:56:08Z</time>
      </trkpt>
      <trkpt lat="2.819274" lon="-75.08713">
        <ele>1410.6</ele>
        <time>2021-08-21T13:56:09Z</time>
      </trkpt>
      <trkpt lat="2.819263" lon="-75.08714">
        <ele>1410.8</ele>
        <time>2021-08-21T13:56:10Z</time>
      </trkpt>
      <trkpt lat="2.819253" lon="-75.08715">
        <ele>1410.9</ele>
        <time>2021-08-21T13:56:11Z</time>
      </trkpt>
      <trkpt lat="2.819241" lon="-75.087166">
        <ele>1411.1</ele>
        <time>2021-08-21T13:56:12Z</time>
      </trkpt>
      <trkpt lat="2.819229" lon="-75.08717">
        <ele>1411.2</ele>
        <time>2021-08-21T13:56:13Z</time>
      </trkpt>
      <trkpt lat="2.819217" lon="-75.08719">
        <ele>1411.4</ele>
        <time>2021-08-21T13:56:14Z</time>
      </trkpt>
      <trkpt lat="2.819205" lon="-75.0872">
        <ele>1411.5</ele>
        <time>2021-08-21T13:56:15Z</time>
      </trkpt>
      <trkpt lat="2.81919" lon="-75.08721">
        <ele>1411.7</ele>
        <time>2021-08-21T13:56:16Z</time>
      </trkpt>
      <trkpt lat="2.819174" lon="-75.08723">
        <ele>1411.9</ele>
        <time>2021-08-21T13:56:17Z</time>
      </trkpt>
      <trkpt lat="2.819159" lon="-75.087234">
        <ele>1412.0</ele>
        <time>2021-08-21T13:56:18Z</time>
      </trkpt>
      <trkpt lat="2.819144" lon="-75.08725">
        <ele>1412.2</ele>
        <time>2021-08-21T13:56:19Z</time>
      </trkpt>
      <trkpt lat="2.81913" lon="-75.08726">
        <ele>1412.4</ele>
        <time>2021-08-21T13:56:20Z</time>
      </trkpt>
      <trkpt lat="2.819116" lon="-75.08727">
        <ele>1412.5</ele>
        <time>2021-08-21T13:56:21Z</time>
      </trkpt>
      <trkpt lat="2.819102" lon="-75.08729">
        <ele>1412.7</ele>
        <time>2021-08-21T13:56:22Z</time>
      </trkpt>
      <trkpt lat="2.819088" lon="-75.087296">
        <ele>1412.8</ele>
        <time>2021-08-21T13:56:23Z</time>
      </trkpt>
      <trkpt lat="2.819074" lon="-75.08731">
        <ele>1413.0</ele>
        <time>2021-08-21T13:56:24Z</time>
      </trkpt>
      <trkpt lat="2.819061" lon="-75.08732">
        <ele>1413.1</ele>
        <time>2021-08-21T13:56:25Z</time>
      </trkpt>
      <trkpt lat="2.819048" lon="-75.08733">
        <ele>1413.3</ele>
        <time>2021-08-21T13:56:26Z</time>
      </trkpt>
      <trkpt lat="2.819036" lon="-75.08734">
        <ele>1413.4</ele>
        <time>2021-08-21T13:56:27Z</time>
      </trkpt>
      <trkpt lat="2.819023" lon="-75.08736">
        <ele>1413.5</ele>
        <time>2021-08-21T13:56:28Z</time>
      </trkpt>
      <trkpt lat="2.81901" lon="-75.087364">
        <ele>1413.7</ele>
        <time>2021-08-21T13:56:29Z</time>
      </trkpt>
      <trkpt lat="2.818997" lon="-75.08738">
        <ele>1413.8</ele>
        <time>2021-08-21T13:56:30Z</time>
      </trkpt>
      <trkpt lat="2.818984" lon="-75.087395">
        <ele>1413.9</ele>
        <time>2021-08-21T13:56:31Z</time>
      </trkpt>
      <trkpt lat="2.81897" lon="-75.08741">
        <ele>1414.1</ele>
        <time>2021-08-21T13:56:32Z</time>
      </trkpt>
      <trkpt lat="2.818957" lon="-75.08742">
        <ele>1414.2</ele>
        <time>2021-08-21T13:56:33Z</time>
      </trkpt>
      <trkpt lat="2.818942" lon="-75.08743">
        <ele>1414.3</ele>
        <time>2021-08-21T13:56:34Z</time>
      </trkpt>
      <trkpt lat="2.818927" lon="-75.08745">
        <ele>1414.5</ele>
        <time>2021-08-21T13:56:35Z</time>
      </trkpt>
      <trkpt lat="2.818912" lon="-75.08746">
        <ele>1414.6</ele>
        <time>2021-08-21T13:56:36Z</time>
      </trkpt>
      <trkpt lat="2.818895" lon="-75.08747">
        <ele>1414.7</ele>
        <time>2021-08-21T13:56:37Z</time>
      </trkpt>
      <trkpt lat="2.818878" lon="-75.08749">
        <ele>1414.8</ele>
        <time>2021-08-21T13:56:38Z</time>
      </trkpt>
      <trkpt lat="2.818862" lon="-75.0875">
        <ele>1414.9</ele>
        <time>2021-08-21T13:56:39Z</time>
      </trkpt>
      <trkpt lat="2.818846" lon="-75.08752">
        <ele>1415.1</ele>
        <time>2021-08-21T13:56:40Z</time>
      </trkpt>
      <trkpt lat="2.81883" lon="-75.08753">
        <ele>1415.2</ele>
        <time>2021-08-21T13:56:41Z</time>
      </trkpt>
      <trkpt lat="2.818815" lon="-75.08755">
        <ele>1415.3</ele>
        <time>2021-08-21T13:56:42Z</time>
      </trkpt>
      <trkpt lat="2.818801" lon="-75.08756">
        <ele>1415.4</ele>
        <time>2021-08-21T13:56:43Z</time>
      </trkpt>
      <trkpt lat="2.818786" lon="-75.087585">
        <ele>1415.5</ele>
        <time>2021-08-21T13:56:44Z</time>
      </trkpt>
      <trkpt lat="2.818772" lon="-75.0876">
        <ele>1415.6</ele>
        <time>2021-08-21T13:56:45Z</time>
      </trkpt>
      <trkpt lat="2.818757" lon="-75.087616">
        <ele>1415.7</ele>
        <time>2021-08-21T13:56:46Z</time>
      </trkpt>
      <trkpt lat="2.818742" lon="-75.08763">
        <ele>1415.8</ele>
        <time>2021-08-21T13:56:47Z</time>
      </trkpt>
      <trkpt lat="2.818726" lon="-75.08765">
        <ele>1415.9</ele>
        <time>2021-08-21T13:56:48Z</time>
      </trkpt>
      <trkpt lat="2.81871" lon="-75.08766">
        <ele>1416.0</ele>
        <time>2021-08-21T13:56:49Z</time>
      </trkpt>
      <trkpt lat="2.818695" lon="-75.08768">
        <ele>1416.1</ele>
        <time>2021-08-21T13:56:50Z</time>
      </trkpt>
      <trkpt lat="2.81868" lon="-75.08769">
        <ele>1416.2</ele>
        <time>2021-08-21T13:56:51Z</time>
      </trkpt>
      <trkpt lat="2.818666" lon="-75.08771">
        <ele>1416.3</ele>
        <time>2021-08-21T13:56:52Z</time>
      </trkpt>
      <trkpt lat="2.818652" lon="-75.08772">
        <ele>1416.4</ele>
        <time>2021-08-21T13:56:53Z</time>
      </trkpt>
      <trkpt lat="2.818637" lon="-75.08774">
        <ele>1416.5</ele>
        <time>2021-08-21T13:56:54Z</time>
      </trkpt>
      <trkpt lat="2.818623" lon="-75.08775">
        <ele>1416.6</ele>
        <time>2021-08-21T13:56:55Z</time>
      </trkpt>
      <trkpt lat="2.818608" lon="-75.08777">
        <ele>1416.7</ele>
        <time>2021-08-21T13:56:56Z</time>
      </trkpt>
      <trkpt lat="2.818593" lon="-75.08778">
        <ele>1416.8</ele>
        <time>2021-08-21T13:56:57Z</time>
      </trkpt>
      <trkpt lat="2.818578" lon="-75.0878">
        <ele>1416.9</ele>
        <time>2021-08-21T13:56:58Z</time>
      </trkpt>
      <trkpt lat="2.818563" lon="-75.087814">
        <ele>1417.0</ele>
        <time>2021-08-21T13:56:59Z</time>
      </trkpt>
      <trkpt lat="2.818549" lon="-75.08783">
        <ele>1417.1</ele>
        <time>2021-08-21T13:57:00Z</time>
      </trkpt>
      <trkpt lat="2.818536" lon="-75.087845">
        <ele>1417.2</ele>
        <time>2021-08-21T13:57:01Z</time>
      </trkpt>
      <trkpt lat="2.818522" lon="-75.08786">
        <ele>1417.3</ele>
        <time>2021-08-21T13:57:02Z</time>
      </trkpt>
      <trkpt lat="2.818507" lon="-75.087875">
        <ele>1417.4</ele>
        <time>2021-08-21T13:57:03Z</time>
      </trkpt>
      <trkpt lat="2.818491" lon="-75.08789">
        <ele>1417.6</ele>
        <time>2021-08-21T13:57:04Z</time>
      </trkpt>
      <trkpt lat="2.818475" lon="-75.087906">
        <ele>1417.7</ele>
        <time>2021-08-21T13:57:05Z</time>
      </trkpt>
      <trkpt lat="2.818458" lon="-75.08792">
        <ele>1417.8</ele>
        <time>2021-08-21T13:57:06Z</time>
      </trkpt>
      <trkpt lat="2.818442" lon="-75.08793">
        <ele>1418.0</ele>
        <time>2021-08-21T13:57:07Z</time>
      </trkpt>
      <trkpt lat="2.818425" lon="-75.087944">
        <ele>1418.1</ele>
        <time>2021-08-21T13:57:08Z</time>
      </trkpt>
      <trkpt lat="2.818409" lon="-75.08795">
        <ele>1418.2</ele>
        <time>2021-08-21T13:57:09Z</time>
      </trkpt>
      <trkpt lat="2.818393" lon="-75.08797">
        <ele>1418.3</ele>
        <time>2021-08-21T13:57:10Z</time>
      </trkpt>
      <trkpt lat="2.818376" lon="-75.087975">
        <ele>1418.4</ele>
        <time>2021-08-21T13:57:11Z</time>
      </trkpt>
      <trkpt lat="2.818359" lon="-75.08798">
        <ele>1418.6</ele>
        <time>2021-08-21T13:57:12Z</time>
      </trkpt>
      <trkpt lat="2.818341" lon="-75.08799">
        <ele>1418.7</ele>
        <time>2021-08-21T13:57:13Z</time>
      </trkpt>
      <trkpt lat="2.818323" lon="-75.088">
        <ele>1418.8</ele>
        <time>2021-08-21T13:57:14Z</time>
      </trkpt>
      <trkpt lat="2.818305" lon="-75.088005">
        <ele>1419.0</ele>
        <time>2021-08-21T13:57:15Z</time>
      </trkpt>
      <trkpt lat="2.818286" lon="-75.08801">
        <ele>1419.1</ele>
        <time>2021-08-21T13:57:16Z</time>
      </trkpt>
      <trkpt lat="2.818267" lon="-75.08802">
        <ele>1419.2</ele>
        <time>2021-08-21T13:57:17Z</time>
      </trkpt>
      <trkpt lat="2.818248" lon="-75.08803">
        <ele>1419.3</ele>
        <time>2021-08-21T13:57:18Z</time>
      </trkpt>
      <trkpt lat="2.81823" lon="-75.088036">
        <ele>1419.5</ele>
        <time>2021-08-21T13:57:19Z</time>
      </trkpt>
      <trkpt lat="2.818212" lon="-75.08804">
        <ele>1419.6</ele>
        <time>2021-08-21T13:57:20Z</time>
      </trkpt>
      <trkpt lat="2.818194" lon="-75.08806">
        <ele>1419.7</ele>
        <time>2021-08-21T13:57:21Z</time>
      </trkpt>
      <trkpt lat="2.818174" lon="-75.088066">
        <ele>1419.8</ele>
        <time>2021-08-21T13:57:22Z</time>
      </trkpt>
      <trkpt lat="2.818155" lon="-75.08807">
        <ele>1420.0</ele>
        <time>2021-08-21T13:57:23Z</time>
      </trkpt>
      <trkpt lat="2.818135" lon="-75.08808">
        <ele>1420.1</ele>
        <time>2021-08-21T13:57:24Z</time>
      </trkpt>
      <trkpt lat="2.818117" lon="-75.0881">
        <ele>1420.2</ele>
        <time>2021-08-21T13:57:25Z</time>
      </trkpt>
      <trkpt lat="2.818098" lon="-75.088104">
        <ele>1420.3</ele>
        <time>2021-08-21T13:57:26Z</time>
      </trkpt>
      <trkpt lat="2.81808" lon="-75.08811">
        <ele>1420.4</ele>
        <time>2021-08-21T13:57:27Z</time>
      </trkpt>
      <trkpt lat="2.81806" lon="-75.08813">
        <ele>1420.5</ele>
        <time>2021-08-21T13:57:28Z</time>
      </trkpt>
      <trkpt lat="2.818041" lon="-75.08814">
        <ele>1420.7</ele>
        <time>2021-08-21T13:57:29Z</time>
      </trkpt>
      <trkpt lat="2.818023" lon="-75.08815">
        <ele>1420.8</ele>
        <time>2021-08-21T13:57:30Z</time>
      </trkpt>
      <trkpt lat="2.818004" lon="-75.088165">
        <ele>1420.9</ele>
        <time>2021-08-21T13:57:31Z</time>
      </trkpt>
      <trkpt lat="2.817985" lon="-75.08818">
        <ele>1421.0</ele>
        <time>2021-08-21T13:57:32Z</time>
      </trkpt>
      <trkpt lat="2.817967" lon="-75.088196">
        <ele>1421.1</ele>
        <time>2021-08-21T13:57:33Z</time>
      </trkpt>
      <trkpt lat="2.817951" lon="-75.08821">
        <ele>1421.2</ele>
        <time>2021-08-21T13:57:34Z</time>
      </trkpt>
      <trkpt lat="2.817934" lon="-75.08823">
        <ele>1421.3</ele>
        <time>2021-08-21T13:57:35Z</time>
      </trkpt>
      <trkpt lat="2.817915" lon="-75.08824">
        <ele>1421.4</ele>
        <time>2021-08-21T13:57:36Z</time>
      </trkpt>
      <trkpt lat="2.817897" lon="-75.08825">
        <ele>1421.5</ele>
        <time>2021-08-21T13:57:37Z</time>
      </trkpt>
      <trkpt lat="2.817878" lon="-75.088264">
        <ele>1421.6</ele>
        <time>2021-08-21T13:57:38Z</time>
      </trkpt>
      <trkpt lat="2.817858" lon="-75.08828">
        <ele>1421.7</ele>
        <time>2021-08-21T13:57:39Z</time>
      </trkpt>
      <trkpt lat="2.81784" lon="-75.088295">
        <ele>1421.8</ele>
        <time>2021-08-21T13:57:40Z</time>
      </trkpt>
      <trkpt lat="2.817821" lon="-75.08831">
        <ele>1422.0</ele>
        <time>2021-08-21T13:57:41Z</time>
      </trkpt>
      <trkpt lat="2.8178" lon="-75.08832">
        <ele>1422.1</ele>
        <time>2021-08-21T13:57:42Z</time>
      </trkpt>
      <trkpt lat="2.817781" lon="-75.08833">
        <ele>1422.2</ele>
        <time>2021-08-21T13:57:43Z</time>
      </trkpt>
      <trkpt lat="2.817761" lon="-75.08835">
        <ele>1422.3</ele>
        <time>2021-08-21T13:57:44Z</time>
      </trkpt>
      <trkpt lat="2.817742" lon="-75.088356">
        <ele>1422.4</ele>
        <time>2021-08-21T13:57:45Z</time>
      </trkpt>
      <trkpt lat="2.817724" lon="-75.08837">
        <ele>1422.5</ele>
        <time>2021-08-21T13:57:46Z</time>
      </trkpt>
      <trkpt lat="2.817706" lon="-75.08839">
        <ele>1422.6</ele>
        <time>2021-08-21T13:57:47Z</time>
      </trkpt>
      <trkpt lat="2.817687" lon="-75.0884">
        <ele>1422.7</ele>
        <time>2021-08-21T13:57:48Z</time>
      </trkpt>
      <trkpt lat="2.817668" lon="-75.08841">
        <ele>1422.8</ele>
        <time>2021-08-21T13:57:49Z</time>
      </trkpt>
      <trkpt lat="2.817651" lon="-75.088425">
        <ele>1423.0</ele>
        <time>2021-08-21T13:57:50Z</time>
      </trkpt>
      <trkpt lat="2.817633" lon="-75.08845">
        <ele>1423.1</ele>
        <time>2021-08-21T13:57:51Z</time>
      </trkpt>
      <trkpt lat="2.817617" lon="-75.08846">
        <ele>1423.2</ele>
        <time>2021-08-21T13:57:52Z</time>
      </trkpt>
      <trkpt lat="2.8176" lon="-75.08848">
        <ele>1423.3</ele>
        <time>2021-08-21T13:57:53Z</time>
      </trkpt>
      <trkpt lat="2.817585" lon="-75.08849">
        <ele>1423.4</ele>
        <time>2021-08-21T13:57:54Z</time>
      </trkpt>
      <trkpt lat="2.817571" lon="-75.08852">
        <ele>1423.6</ele>
        <time>2021-08-21T13:57:55Z</time>
      </trkpt>
      <trkpt lat="2.817556" lon="-75.08853">
        <ele>1423.7</ele>
        <time>2021-08-21T13:57:56Z</time>
      </trkpt>
      <trkpt lat="2.817542" lon="-75.08855">
        <ele>1423.8</ele>
        <time>2021-08-21T13:57:57Z</time>
      </trkpt>
      <trkpt lat="2.817518" lon="-75.088585">
        <ele>1424.0</ele>
        <time>2021-08-21T13:57:59Z</time>
      </trkpt>
      <trkpt lat="2.817524" lon="-75.08858">
        <ele>1423.9</ele>
        <time>2021-08-21T13:57:59Z</time>
      </trkpt>
      <trkpt lat="2.817507" lon="-75.0886">
        <ele>1424.1</ele>
        <time>2021-08-21T13:58:00Z</time>
      </trkpt>
      <trkpt lat="2.817498" lon="-75.088615">
        <ele>1424.2</ele>
        <time>2021-08-21T13:58:01Z</time>
      </trkpt>
      <trkpt lat="2.81749" lon="-75.08864">
        <ele>1424.3</ele>
        <time>2021-08-21T13:58:02Z</time>
      </trkpt>
      <trkpt lat="2.817483" lon="-75.08865">
        <ele>1424.4</ele>
        <time>2021-08-21T13:58:03Z</time>
      </trkpt>
      <trkpt lat="2.817477" lon="-75.08868">
        <ele>1424.5</ele>
        <time>2021-08-21T13:58:04Z</time>
      </trkpt>
      <trkpt lat="2.81747" lon="-75.08869">
        <ele>1424.6</ele>
        <time>2021-08-21T13:58:05Z</time>
      </trkpt>
      <trkpt lat="2.817464" lon="-75.088715">
        <ele>1424.8</ele>
        <time>2021-08-21T13:58:06Z</time>
      </trkpt>
      <trkpt lat="2.817458" lon="-75.08873">
        <ele>1424.9</ele>
        <time>2021-08-21T13:58:07Z</time>
      </trkpt>
      <trkpt lat="2.817443" lon="-75.08877">
        <ele>1425.1</ele>
        <time>2021-08-21T13:58:08Z</time>
      </trkpt>
      <trkpt lat="2.817451" lon="-75.08875">
        <ele>1425.0</ele>
        <time>2021-08-21T13:58:08Z</time>
      </trkpt>
      <trkpt lat="2.817433" lon="-75.08878">
        <ele>1425.2</ele>
        <time>2021-08-21T13:58:09Z</time>
      </trkpt>
      <trkpt lat="2.817409" lon="-75.08882">
        <ele>1425.5</ele>
        <time>2021-08-21T13:58:11Z</time>
      </trkpt>
      <trkpt lat="2.817415" lon="-75.08881">
        <ele>1425.4</ele>
        <time>2021-08-21T13:58:11Z</time>
      </trkpt>
      <trkpt lat="2.817397" lon="-75.08884">
        <ele>1425.6</ele>
        <time>2021-08-21T13:58:12Z</time>
      </trkpt>
      <trkpt lat="2.817386" lon="-75.08886">
        <ele>1425.7</ele>
        <time>2021-08-21T13:58:13Z</time>
      </trkpt>
      <trkpt lat="2.817374" lon="-75.088875">
        <ele>1425.8</ele>
        <time>2021-08-21T13:58:14Z</time>
      </trkpt>
      <trkpt lat="2.817362" lon="-75.0889">
        <ele>1426.0</ele>
        <time>2021-08-21T13:58:15Z</time>
      </trkpt>
      <trkpt lat="2.81735" lon="-75.08891">
        <ele>1426.1</ele>
        <time>2021-08-21T13:58:16Z</time>
      </trkpt>
      <trkpt lat="2.817337" lon="-75.08893">
        <ele>1426.2</ele>
        <time>2021-08-21T13:58:17Z</time>
      </trkpt>
      <trkpt lat="2.817323" lon="-75.08895">
        <ele>1426.3</ele>
        <time>2021-08-21T13:58:18Z</time>
      </trkpt>
      <trkpt lat="2.817308" lon="-75.08897">
        <ele>1426.4</ele>
        <time>2021-08-21T13:58:19Z</time>
      </trkpt>
      <trkpt lat="2.817294" lon="-75.08899">
        <ele>1426.6</ele>
        <time>2021-08-21T13:58:20Z</time>
      </trkpt>
      <trkpt lat="2.817279" lon="-75.089005">
        <ele>1426.7</ele>
        <time>2021-08-21T13:58:21Z</time>
      </trkpt>
      <trkpt lat="2.817263" lon="-75.08903">
        <ele>1426.8</ele>
        <time>2021-08-21T13:58:22Z</time>
      </trkpt>
      <trkpt lat="2.817246" lon="-75.08904">
        <ele>1427.0</ele>
        <time>2021-08-21T13:58:23Z</time>
      </trkpt>
      <trkpt lat="2.81723" lon="-75.08906">
        <ele>1427.1</ele>
        <time>2021-08-21T13:58:24Z</time>
      </trkpt>
      <trkpt lat="2.817214" lon="-75.08908">
        <ele>1427.2</ele>
        <time>2021-08-21T13:58:25Z</time>
      </trkpt>
      <trkpt lat="2.8172" lon="-75.089096">
        <ele>1427.4</ele>
        <time>2021-08-21T13:58:26Z</time>
      </trkpt>
      <trkpt lat="2.817185" lon="-75.08912">
        <ele>1427.5</ele>
        <time>2021-08-21T13:58:27Z</time>
      </trkpt>
      <trkpt lat="2.817171" lon="-75.089134">
        <ele>1427.6</ele>
        <time>2021-08-21T13:58:28Z</time>
      </trkpt>
      <trkpt lat="2.817156" lon="-75.08915">
        <ele>1427.7</ele>
        <time>2021-08-21T13:58:29Z</time>
      </trkpt>
      <trkpt lat="2.817141" lon="-75.08917">
        <ele>1427.8</ele>
        <time>2021-08-21T13:58:30Z</time>
      </trkpt>
      <trkpt lat="2.817126" lon="-75.08919">
        <ele>1428.0</ele>
        <time>2021-08-21T13:58:31Z</time>
      </trkpt>
      <trkpt lat="2.817111" lon="-75.0892">
        <ele>1428.1</ele>
        <time>2021-08-21T13:58:32Z</time>
      </trkpt>
      <trkpt lat="2.817095" lon="-75.089226">
        <ele>1428.2</ele>
        <time>2021-08-21T13:58:33Z</time>
      </trkpt>
      <trkpt lat="2.817078" lon="-75.08924">
        <ele>1428.3</ele>
        <time>2021-08-21T13:58:34Z</time>
      </trkpt>
      <trkpt lat="2.817062" lon="-75.08926">
        <ele>1428.4</ele>
        <time>2021-08-21T13:58:35Z</time>
      </trkpt>
      <trkpt lat="2.817045" lon="-75.08927">
        <ele>1428.5</ele>
        <time>2021-08-21T13:58:36Z</time>
      </trkpt>
      <trkpt lat="2.817029" lon="-75.08929">
        <ele>1428.6</ele>
        <time>2021-08-21T13:58:37Z</time>
      </trkpt>
      <trkpt lat="2.817012" lon="-75.08931">
        <ele>1428.7</ele>
        <time>2021-08-21T13:58:38Z</time>
      </trkpt>
      <trkpt lat="2.816995" lon="-75.089325">
        <ele>1428.8</ele>
        <time>2021-08-21T13:58:39Z</time>
      </trkpt>
      <trkpt lat="2.816979" lon="-75.08934">
        <ele>1428.9</ele>
        <time>2021-08-21T13:58:40Z</time>
      </trkpt>
      <trkpt lat="2.816962" lon="-75.089355">
        <ele>1429.0</ele>
        <time>2021-08-21T13:58:41Z</time>
      </trkpt>
      <trkpt lat="2.816944" lon="-75.08937">
        <ele>1429.1</ele>
        <time>2021-08-21T13:58:42Z</time>
      </trkpt>
      <trkpt lat="2.816926" lon="-75.089386">
        <ele>1429.2</ele>
        <time>2021-08-21T13:58:43Z</time>
      </trkpt>
      <trkpt lat="2.816908" lon="-75.0894">
        <ele>1429.3</ele>
        <time>2021-08-21T13:58:44Z</time>
      </trkpt>
      <trkpt lat="2.81689" lon="-75.08942">
        <ele>1429.4</ele>
        <time>2021-08-21T13:58:45Z</time>
      </trkpt>
      <trkpt lat="2.816873" lon="-75.08943">
        <ele>1429.5</ele>
        <time>2021-08-21T13:58:46Z</time>
      </trkpt>
      <trkpt lat="2.816855" lon="-75.08945">
        <ele>1429.6</ele>
        <time>2021-08-21T13:58:47Z</time>
      </trkpt>
      <trkpt lat="2.816837" lon="-75.08946">
        <ele>1429.7</ele>
        <time>2021-08-21T13:58:48Z</time>
      </trkpt>
      <trkpt lat="2.816819" lon="-75.08948">
        <ele>1429.8</ele>
        <time>2021-08-21T13:58:49Z</time>
      </trkpt>
      <trkpt lat="2.8168" lon="-75.08949">
        <ele>1429.9</ele>
        <time>2021-08-21T13:58:50Z</time>
      </trkpt>
      <trkpt lat="2.816782" lon="-75.08951">
        <ele>1430.0</ele>
        <time>2021-08-21T13:58:51Z</time>
      </trkpt>
      <trkpt lat="2.816762" lon="-75.089516">
        <ele>1430.1</ele>
        <time>2021-08-21T13:58:52Z</time>
      </trkpt>
      <trkpt lat="2.816743" lon="-75.08953">
        <ele>1430.2</ele>
        <time>2021-08-21T13:58:53Z</time>
      </trkpt>
      <trkpt lat="2.816723" lon="-75.08954">
        <ele>1430.3</ele>
        <time>2021-08-21T13:58:54Z</time>
      </trkpt>
      <trkpt lat="2.816704" lon="-75.089554">
        <ele>1430.5</ele>
        <time>2021-08-21T13:58:55Z</time>
      </trkpt>
      <trkpt lat="2.816684" lon="-75.08957">
        <ele>1430.6</ele>
        <time>2021-08-21T13:58:56Z</time>
      </trkpt>
      <trkpt lat="2.816665" lon="-75.08958">
        <ele>1430.7</ele>
        <time>2021-08-21T13:58:57Z</time>
      </trkpt>
      <trkpt lat="2.816645" lon="-75.08959">
        <ele>1430.8</ele>
        <time>2021-08-21T13:58:58Z</time>
      </trkpt>
      <trkpt lat="2.816623" lon="-75.0896">
        <ele>1431.0</ele>
        <time>2021-08-21T13:58:59Z</time>
      </trkpt>
      <trkpt lat="2.816601" lon="-75.08961">
        <ele>1431.1</ele>
        <time>2021-08-21T13:59:00Z</time>
      </trkpt>
      <trkpt lat="2.81658" lon="-75.08962">
        <ele>1431.3</ele>
        <time>2021-08-21T13:59:01Z</time>
      </trkpt>
      <trkpt lat="2.816559" lon="-75.08963">
        <ele>1431.4</ele>
        <time>2021-08-21T13:59:02Z</time>
      </trkpt>
      <trkpt lat="2.816537" lon="-75.08964">
        <ele>1431.6</ele>
        <time>2021-08-21T13:59:03Z</time>
      </trkpt>
      <trkpt lat="2.816515" lon="-75.089645">
        <ele>1431.7</ele>
        <time>2021-08-21T13:59:04Z</time>
      </trkpt>
      <trkpt lat="2.816492" lon="-75.08965">
        <ele>1431.8</ele>
        <time>2021-08-21T13:59:05Z</time>
      </trkpt>
      <trkpt lat="2.816472" lon="-75.08966">
        <ele>1432.0</ele>
        <time>2021-08-21T13:59:06Z</time>
      </trkpt>
      <trkpt lat="2.816449" lon="-75.08967">
        <ele>1432.1</ele>
        <time>2021-08-21T13:59:07Z</time>
      </trkpt>
      <trkpt lat="2.816429" lon="-75.089676">
        <ele>1432.3</ele>
        <time>2021-08-21T13:59:08Z</time>
      </trkpt>
      <trkpt lat="2.816408" lon="-75.08968">
        <ele>1432.4</ele>
        <time>2021-08-21T13:59:09Z</time>
      </trkpt>
      <trkpt lat="2.816388" lon="-75.08969">
        <ele>1432.5</ele>
        <time>2021-08-21T13:59:10Z</time>
      </trkpt>
      <trkpt lat="2.816368" lon="-75.0897">
        <ele>1432.7</ele>
        <time>2021-08-21T13:59:11Z</time>
      </trkpt>
      <trkpt lat="2.816345" lon="-75.08971">
        <ele>1432.8</ele>
        <time>2021-08-21T13:59:12Z</time>
      </trkpt>
      <trkpt lat="2.816324" lon="-75.089714">
        <ele>1433.0</ele>
        <time>2021-08-21T13:59:13Z</time>
      </trkpt>
      <trkpt lat="2.816305" lon="-75.08973">
        <ele>1433.1</ele>
        <time>2021-08-21T13:59:14Z</time>
      </trkpt>
      <trkpt lat="2.816286" lon="-75.08974">
        <ele>1433.3</ele>
        <time>2021-08-21T13:59:15Z</time>
      </trkpt>
      <trkpt lat="2.816267" lon="-75.089745">
        <ele>1433.4</ele>
        <time>2021-08-21T13:59:16Z</time>
      </trkpt>
      <trkpt lat="2.816249" lon="-75.08975">
        <ele>1433.6</ele>
        <time>2021-08-21T13:59:17Z</time>
      </trkpt>
      <trkpt lat="2.816231" lon="-75.08976">
        <ele>1433.7</ele>
        <time>2021-08-21T13:59:18Z</time>
      </trkpt>
      <trkpt lat="2.816212" lon="-75.08977">
        <ele>1433.9</ele>
        <time>2021-08-21T13:59:19Z</time>
      </trkpt>
      <trkpt lat="2.816195" lon="-75.089775">
        <ele>1434.1</ele>
        <time>2021-08-21T13:59:20Z</time>
      </trkpt>
      <trkpt lat="2.816178" lon="-75.08978">
        <ele>1434.2</ele>
        <time>2021-08-21T13:59:21Z</time>
      </trkpt>
      <trkpt lat="2.81616" lon="-75.08979">
        <ele>1434.4</ele>
        <time>2021-08-21T13:59:22Z</time>
      </trkpt>
      <trkpt lat="2.816142" lon="-75.0898">
        <ele>1434.5</ele>
        <time>2021-08-21T13:59:23Z</time>
      </trkpt>
      <trkpt lat="2.816125" lon="-75.089806">
        <ele>1434.7</ele>
        <time>2021-08-21T13:59:24Z</time>
      </trkpt>
      <trkpt lat="2.816107" lon="-75.08981">
        <ele>1434.8</ele>
        <time>2021-08-21T13:59:25Z</time>
      </trkpt>
      <trkpt lat="2.816089" lon="-75.08982">
        <ele>1435.0</ele>
        <time>2021-08-21T13:59:26Z</time>
      </trkpt>
      <trkpt lat="2.816071" lon="-75.08983">
        <ele>1435.2</ele>
        <time>2021-08-21T13:59:27Z</time>
      </trkpt>
      <trkpt lat="2.816051" lon="-75.089836">
        <ele>1435.4</ele>
        <time>2021-08-21T13:59:28Z</time>
      </trkpt>
      <trkpt lat="2.816033" lon="-75.08984">
        <ele>1435.5</ele>
        <time>2021-08-21T13:59:29Z</time>
      </trkpt>
      <trkpt lat="2.816015" lon="-75.08985">
        <ele>1435.7</ele>
        <time>2021-08-21T13:59:30Z</time>
      </trkpt>
      <trkpt lat="2.815997" lon="-75.08987">
        <ele>1435.9</ele>
        <time>2021-08-21T13:59:31Z</time>
      </trkpt>
      <trkpt lat="2.815978" lon="-75.089874">
        <ele>1436.0</ele>
        <time>2021-08-21T13:59:32Z</time>
      </trkpt>
      <trkpt lat="2.815961" lon="-75.08988">
        <ele>1436.2</ele>
        <time>2021-08-21T13:59:33Z</time>
      </trkpt>
      <trkpt lat="2.815944" lon="-75.08989">
        <ele>1436.3</ele>
        <time>2021-08-21T13:59:34Z</time>
      </trkpt>
      <trkpt lat="2.815927" lon="-75.0899">
        <ele>1436.5</ele>
        <time>2021-08-21T13:59:35Z</time>
      </trkpt>
      <trkpt lat="2.81591" lon="-75.089905">
        <ele>1436.7</ele>
        <time>2021-08-21T13:59:36Z</time>
      </trkpt>
      <trkpt lat="2.815893" lon="-75.08991">
        <ele>1436.8</ele>
        <time>2021-08-21T13:59:37Z</time>
      </trkpt>
      <trkpt lat="2.815876" lon="-75.08993">
        <ele>1437.0</ele>
        <time>2021-08-21T13:59:38Z</time>
      </trkpt>
      <trkpt lat="2.815859" lon="-75.089935">
        <ele>1437.2</ele>
        <time>2021-08-21T13:59:39Z</time>
      </trkpt>
      <trkpt lat="2.815842" lon="-75.08994">
        <ele>1437.4</ele>
        <time>2021-08-21T13:59:40Z</time>
      </trkpt>
      <trkpt lat="2.815825" lon="-75.08995">
        <ele>1437.5</ele>
        <time>2021-08-21T13:59:41Z</time>
      </trkpt>
      <trkpt lat="2.815809" lon="-75.08996">
        <ele>1437.7</ele>
        <time>2021-08-21T13:59:42Z</time>
      </trkpt>
      <trkpt lat="2.815792" lon="-75.089966">
        <ele>1437.9</ele>
        <time>2021-08-21T13:59:43Z</time>
      </trkpt>
      <trkpt lat="2.815775" lon="-75.08997">
        <ele>1438.1</ele>
        <time>2021-08-21T13:59:44Z</time>
      </trkpt>
      <trkpt lat="2.815758" lon="-75.08998">
        <ele>1438.2</ele>
        <time>2021-08-21T13:59:45Z</time>
      </trkpt>
      <trkpt lat="2.81574" lon="-75.08999">
        <ele>1438.4</ele>
        <time>2021-08-21T13:59:46Z</time>
      </trkpt>
      <trkpt lat="2.815722" lon="-75.09">
        <ele>1438.6</ele>
        <time>2021-08-21T13:59:47Z</time>
      </trkpt>
      <trkpt lat="2.815704" lon="-75.090004">
        <ele>1438.8</ele>
        <time>2021-08-21T13:59:48Z</time>
      </trkpt>
      <trkpt lat="2.815686" lon="-75.09001">
        <ele>1439.0</ele>
        <time>2021-08-21T13:59:49Z</time>
      </trkpt>
      <trkpt lat="2.815669" lon="-75.09002">
        <ele>1439.1</ele>
        <time>2021-08-21T13:59:50Z</time>
      </trkpt>
      <trkpt lat="2.815652" lon="-75.09003">
        <ele>1439.3</ele>
        <time>2021-08-21T13:59:51Z</time>
      </trkpt>
      <trkpt lat="2.815634" lon="-75.090034">
        <ele>1439.5</ele>
        <time>2021-08-21T13:59:52Z</time>
      </trkpt>
      <trkpt lat="2.815616" lon="-75.090034">
        <ele>1439.6</ele>
        <time>2021-08-21T13:59:53Z</time>
      </trkpt>
      <trkpt lat="2.815599" lon="-75.09004">
        <ele>1439.8</ele>
        <time>2021-08-21T13:59:54Z</time>
      </trkpt>
      <trkpt lat="2.815582" lon="-75.09005">
        <ele>1439.9</ele>
        <time>2021-08-21T13:59:55Z</time>
      </trkpt>
      <trkpt lat="2.815565" lon="-75.09005">
        <ele>1440.1</ele>
        <time>2021-08-21T13:59:56Z</time>
      </trkpt>
      <trkpt lat="2.815548" lon="-75.09006">
        <ele>1440.2</ele>
        <time>2021-08-21T13:59:57Z</time>
      </trkpt>
      <trkpt lat="2.815531" lon="-75.09006">
        <ele>1440.4</ele>
        <time>2021-08-21T13:59:58Z</time>
      </trkpt>
      <trkpt lat="2.815513" lon="-75.090065">
        <ele>1440.5</ele>
        <time>2021-08-21T13:59:59Z</time>
      </trkpt>
      <trkpt lat="2.815496" lon="-75.09007">
        <ele>1440.7</ele>
        <time>2021-08-21T14:00:00Z</time>
      </trkpt>
      <trkpt lat="2.815479" lon="-75.09008">
        <ele>1440.8</ele>
        <time>2021-08-21T14:00:01Z</time>
      </trkpt>
      <trkpt lat="2.815462" lon="-75.09008">
        <ele>1441.0</ele>
        <time>2021-08-21T14:00:02Z</time>
      </trkpt>
      <trkpt lat="2.815445" lon="-75.09009">
        <ele>1441.1</ele>
        <time>2021-08-21T14:00:03Z</time>
      </trkpt>
      <trkpt lat="2.815427" lon="-75.090096">
        <ele>1441.3</ele>
        <time>2021-08-21T14:00:04Z</time>
      </trkpt>
      <trkpt lat="2.81541" lon="-75.0901">
        <ele>1441.4</ele>
        <time>2021-08-21T14:00:05Z</time>
      </trkpt>
      <trkpt lat="2.815391" lon="-75.09011">
        <ele>1441.6</ele>
        <time>2021-08-21T14:00:06Z</time>
      </trkpt>
      <trkpt lat="2.815373" lon="-75.09012">
        <ele>1441.7</ele>
        <time>2021-08-21T14:00:07Z</time>
      </trkpt>
      <trkpt lat="2.815353" lon="-75.090126">
        <ele>1441.9</ele>
        <time>2021-08-21T14:00:08Z</time>
      </trkpt>
      <trkpt lat="2.815334" lon="-75.09013">
        <ele>1442.1</ele>
        <time>2021-08-21T14:00:09Z</time>
      </trkpt>
      <trkpt lat="2.815313" lon="-75.09014">
        <ele>1442.2</ele>
        <time>2021-08-21T14:00:10Z</time>
      </trkpt>
      <trkpt lat="2.815293" lon="-75.09014">
        <ele>1442.4</ele>
        <time>2021-08-21T14:00:11Z</time>
      </trkpt>
      <trkpt lat="2.815272" lon="-75.09015">
        <ele>1442.6</ele>
        <time>2021-08-21T14:00:12Z</time>
      </trkpt>
      <trkpt lat="2.815251" lon="-75.09016">
        <ele>1442.7</ele>
        <time>2021-08-21T14:00:13Z</time>
      </trkpt>
      <trkpt lat="2.81523" lon="-75.09016">
        <ele>1442.9</ele>
        <time>2021-08-21T14:00:14Z</time>
      </trkpt>
      <trkpt lat="2.815209" lon="-75.09016">
        <ele>1443.1</ele>
        <time>2021-08-21T14:00:15Z</time>
      </trkpt>
      <trkpt lat="2.815187" lon="-75.090164">
        <ele>1443.2</ele>
        <time>2021-08-21T14:00:16Z</time>
      </trkpt>
      <trkpt lat="2.815166" lon="-75.090164">
        <ele>1443.4</ele>
        <time>2021-08-21T14:00:17Z</time>
      </trkpt>
      <trkpt lat="2.815145" lon="-75.090164">
        <ele>1443.5</ele>
        <time>2021-08-21T14:00:18Z</time>
      </trkpt>
      <trkpt lat="2.815124" lon="-75.09016">
        <ele>1443.7</ele>
        <time>2021-08-21T14:00:19Z</time>
      </trkpt>
      <trkpt lat="2.815102" lon="-75.09016">
        <ele>1443.9</ele>
        <time>2021-08-21T14:00:20Z</time>
      </trkpt>
      <trkpt lat="2.815081" lon="-75.09015">
        <ele>1444.0</ele>
        <time>2021-08-21T14:00:21Z</time>
      </trkpt>
      <trkpt lat="2.815061" lon="-75.09014">
        <ele>1444.2</ele>
        <time>2021-08-21T14:00:22Z</time>
      </trkpt>
      <trkpt lat="2.81504" lon="-75.09013">
        <ele>1444.3</ele>
        <time>2021-08-21T14:00:23Z</time>
      </trkpt>
      <trkpt lat="2.815019" lon="-75.09013">
        <ele>1444.5</ele>
        <time>2021-08-21T14:00:24Z</time>
      </trkpt>
      <trkpt lat="2.814997" lon="-75.090126">
        <ele>1444.7</ele>
        <time>2021-08-21T14:00:25Z</time>
      </trkpt>
      <trkpt lat="2.814975" lon="-75.09012">
        <ele>1444.8</ele>
        <time>2021-08-21T14:00:26Z</time>
      </trkpt>
      <trkpt lat="2.814953" lon="-75.09011">
        <ele>1445.0</ele>
        <time>2021-08-21T14:00:27Z</time>
      </trkpt>
      <trkpt lat="2.81493" lon="-75.09011">
        <ele>1445.1</ele>
        <time>2021-08-21T14:00:28Z</time>
      </trkpt>
      <trkpt lat="2.814908" lon="-75.09011">
        <ele>1445.3</ele>
        <time>2021-08-21T14:00:29Z</time>
      </trkpt>
      <trkpt lat="2.814866" lon="-75.09011">
        <ele>1445.6</ele>
        <time>2021-08-21T14:00:31Z</time>
      </trkpt>
      <trkpt lat="2.814877" lon="-75.0901">
        <ele>1445.5</ele>
        <time>2021-08-21T14:00:31Z</time>
      </trkpt>
      <trkpt lat="2.814845" lon="-75.09011">
        <ele>1445.7</ele>
        <time>2021-08-21T14:00:32Z</time>
      </trkpt>
      <trkpt lat="2.814824" lon="-75.09011">
        <ele>1445.8</ele>
        <time>2021-08-21T14:00:33Z</time>
      </trkpt>
      <trkpt lat="2.814802" lon="-75.09011">
        <ele>1446.0</ele>
        <time>2021-08-21T14:00:34Z</time>
      </trkpt>
      <trkpt lat="2.814781" lon="-75.09012">
        <ele>1446.1</ele>
        <time>2021-08-21T14:00:35Z</time>
      </trkpt>
      <trkpt lat="2.814761" lon="-75.09012">
        <ele>1446.2</ele>
        <time>2021-08-21T14:00:36Z</time>
      </trkpt>
      <trkpt lat="2.814742" lon="-75.090126">
        <ele>1446.3</ele>
        <time>2021-08-21T14:00:37Z</time>
      </trkpt>
      <trkpt lat="2.814723" lon="-75.090126">
        <ele>1446.4</ele>
        <time>2021-08-21T14:00:38Z</time>
      </trkpt>
      <trkpt lat="2.814703" lon="-75.09013">
        <ele>1446.5</ele>
        <time>2021-08-21T14:00:39Z</time>
      </trkpt>
      <trkpt lat="2.814684" lon="-75.09014">
        <ele>1446.6</ele>
        <time>2021-08-21T14:00:40Z</time>
      </trkpt>
      <trkpt lat="2.814667" lon="-75.09015">
        <ele>1446.7</ele>
        <time>2021-08-21T14:00:41Z</time>
      </trkpt>
      <trkpt lat="2.814649" lon="-75.09016">
        <ele>1446.9</ele>
        <time>2021-08-21T14:00:42Z</time>
      </trkpt>
      <trkpt lat="2.81463" lon="-75.090164">
        <ele>1447.0</ele>
        <time>2021-08-21T14:00:43Z</time>
      </trkpt>
      <trkpt lat="2.814611" lon="-75.09017">
        <ele>1447.1</ele>
        <time>2021-08-21T14:00:44Z</time>
      </trkpt>
      <trkpt lat="2.814592" lon="-75.09018">
        <ele>1447.2</ele>
        <time>2021-08-21T14:00:45Z</time>
      </trkpt>
      <trkpt lat="2.814572" lon="-75.09019">
        <ele>1447.3</ele>
        <time>2021-08-21T14:00:46Z</time>
      </trkpt>
      <trkpt lat="2.814552" lon="-75.090195">
        <ele>1447.4</ele>
        <time>2021-08-21T14:00:47Z</time>
      </trkpt>
      <trkpt lat="2.81453" lon="-75.09021">
        <ele>1447.6</ele>
        <time>2021-08-21T14:00:48Z</time>
      </trkpt>
      <trkpt lat="2.814507" lon="-75.09022">
        <ele>1447.7</ele>
        <time>2021-08-21T14:00:49Z</time>
      </trkpt>
      <trkpt lat="2.814484" lon="-75.090225">
        <ele>1447.8</ele>
        <time>2021-08-21T14:00:50Z</time>
      </trkpt>
      <trkpt lat="2.814461" lon="-75.09023">
        <ele>1447.9</ele>
        <time>2021-08-21T14:00:51Z</time>
      </trkpt>
      <trkpt lat="2.814438" lon="-75.09025">
        <ele>1448.1</ele>
        <time>2021-08-21T14:00:52Z</time>
      </trkpt>
      <trkpt lat="2.814415" lon="-75.090256">
        <ele>1448.2</ele>
        <time>2021-08-21T14:00:53Z</time>
      </trkpt>
      <trkpt lat="2.814391" lon="-75.09027">
        <ele>1448.3</ele>
        <time>2021-08-21T14:00:54Z</time>
      </trkpt>
      <trkpt lat="2.814368" lon="-75.09028">
        <ele>1448.5</ele>
        <time>2021-08-21T14:00:55Z</time>
      </trkpt>
      <trkpt lat="2.814344" lon="-75.090294">
        <ele>1448.6</ele>
        <time>2021-08-21T14:00:56Z</time>
      </trkpt>
      <trkpt lat="2.814321" lon="-75.09031">
        <ele>1448.7</ele>
        <time>2021-08-21T14:00:57Z</time>
      </trkpt>
      <trkpt lat="2.8143" lon="-75.09032">
        <ele>1448.8</ele>
        <time>2021-08-21T14:00:58Z</time>
      </trkpt>
      <trkpt lat="2.814276" lon="-75.09033">
        <ele>1449.0</ele>
        <time>2021-08-21T14:00:59Z</time>
      </trkpt>
      <trkpt lat="2.814252" lon="-75.09035">
        <ele>1449.1</ele>
        <time>2021-08-21T14:01:00Z</time>
      </trkpt>
      <trkpt lat="2.814227" lon="-75.090355">
        <ele>1449.2</ele>
        <time>2021-08-21T14:01:01Z</time>
      </trkpt>
      <trkpt lat="2.814201" lon="-75.09036">
        <ele>1449.3</ele>
        <time>2021-08-21T14:01:02Z</time>
      </trkpt>
      <trkpt lat="2.814175" lon="-75.09038">
        <ele>1449.5</ele>
        <time>2021-08-21T14:01:03Z</time>
      </trkpt>
      <trkpt lat="2.814149" lon="-75.090385">
        <ele>1449.6</ele>
        <time>2021-08-21T14:01:04Z</time>
      </trkpt>
      <trkpt lat="2.814125" lon="-75.0904">
        <ele>1449.7</ele>
        <time>2021-08-21T14:01:05Z</time>
      </trkpt>
      <trkpt lat="2.8141" lon="-75.09041">
        <ele>1449.9</ele>
        <time>2021-08-21T14:01:06Z</time>
      </trkpt>
      <trkpt lat="2.814076" lon="-75.09042">
        <ele>1450.0</ele>
        <time>2021-08-21T14:01:07Z</time>
      </trkpt>
      <trkpt lat="2.814053" lon="-75.09043">
        <ele>1450.1</ele>
        <time>2021-08-21T14:01:08Z</time>
      </trkpt>
      <trkpt lat="2.814029" lon="-75.09044">
        <ele>1450.3</ele>
        <time>2021-08-21T14:01:09Z</time>
      </trkpt>
      <trkpt lat="2.814005" lon="-75.090454">
        <ele>1450.4</ele>
        <time>2021-08-21T14:01:10Z</time>
      </trkpt>
      <trkpt lat="2.813982" lon="-75.09046">
        <ele>1450.6</ele>
        <time>2021-08-21T14:01:11Z</time>
      </trkpt>
      <trkpt lat="2.813958" lon="-75.09047">
        <ele>1450.7</ele>
        <time>2021-08-21T14:01:12Z</time>
      </trkpt>
      <trkpt lat="2.813935" lon="-75.09048">
        <ele>1450.8</ele>
        <time>2021-08-21T14:01:13Z</time>
      </trkpt>
      <trkpt lat="2.813911" lon="-75.090485">
        <ele>1451.0</ele>
        <time>2021-08-21T14:01:14Z</time>
      </trkpt>
      <trkpt lat="2.813886" lon="-75.09049">
        <ele>1451.1</ele>
        <time>2021-08-21T14:01:15Z</time>
      </trkpt>
      <trkpt lat="2.813861" lon="-75.0905">
        <ele>1451.3</ele>
        <time>2021-08-21T14:01:16Z</time>
      </trkpt>
      <trkpt lat="2.813835" lon="-75.09051">
        <ele>1451.4</ele>
        <time>2021-08-21T14:01:17Z</time>
      </trkpt>
      <trkpt lat="2.81381" lon="-75.09051">
        <ele>1451.5</ele>
        <time>2021-08-21T14:01:18Z</time>
      </trkpt>
      <trkpt lat="2.813784" lon="-75.090515">
        <ele>1451.7</ele>
        <time>2021-08-21T14:01:19Z</time>
      </trkpt>
      <trkpt lat="2.813757" lon="-75.090515">
        <ele>1451.8</ele>
        <time>2021-08-21T14:01:20Z</time>
      </trkpt>
      <trkpt lat="2.813731" lon="-75.090515">
        <ele>1451.9</ele>
        <time>2021-08-21T14:01:21Z</time>
      </trkpt>
      <trkpt lat="2.813705" lon="-75.090515">
        <ele>1452.0</ele>
        <time>2021-08-21T14:01:22Z</time>
      </trkpt>
      <trkpt lat="2.813678" lon="-75.09051">
        <ele>1452.1</ele>
        <time>2021-08-21T14:01:23Z</time>
      </trkpt>
      <trkpt lat="2.813652" lon="-75.09051">
        <ele>1452.3</ele>
        <time>2021-08-21T14:01:24Z</time>
      </trkpt>
      <trkpt lat="2.813627" lon="-75.0905">
        <ele>1452.4</ele>
        <time>2021-08-21T14:01:25Z</time>
      </trkpt>
      <trkpt lat="2.8136" lon="-75.09049">
        <ele>1452.5</ele>
        <time>2021-08-21T14:01:26Z</time>
      </trkpt>
      <trkpt lat="2.813573" lon="-75.09049">
        <ele>1452.6</ele>
        <time>2021-08-21T14:01:27Z</time>
      </trkpt>
      <trkpt lat="2.813548" lon="-75.090485">
        <ele>1452.8</ele>
        <time>2021-08-21T14:01:28Z</time>
      </trkpt>
      <trkpt lat="2.813524" lon="-75.09048">
        <ele>1452.9</ele>
        <time>2021-08-21T14:01:29Z</time>
      </trkpt>
      <trkpt lat="2.813501" lon="-75.09047">
        <ele>1453.1</ele>
        <time>2021-08-21T14:01:30Z</time>
      </trkpt>
      <trkpt lat="2.813481" lon="-75.090454">
        <ele>1453.2</ele>
        <time>2021-08-21T14:01:31Z</time>
      </trkpt>
      <trkpt lat="2.813462" lon="-75.09045">
        <ele>1453.3</ele>
        <time>2021-08-21T14:01:32Z</time>
      </trkpt>
      <trkpt lat="2.813443" lon="-75.09043">
        <ele>1453.4</ele>
        <time>2021-08-21T14:01:33Z</time>
      </trkpt>
      <trkpt lat="2.813422" lon="-75.090416">
        <ele>1453.6</ele>
        <time>2021-08-21T14:01:34Z</time>
      </trkpt>
      <trkpt lat="2.8134" lon="-75.0904">
        <ele>1453.7</ele>
        <time>2021-08-21T14:01:35Z</time>
      </trkpt>
      <trkpt lat="2.813377" lon="-75.09038">
        <ele>1453.9</ele>
        <time>2021-08-21T14:01:36Z</time>
      </trkpt>
      <trkpt lat="2.813354" lon="-75.09036">
        <ele>1454.0</ele>
        <time>2021-08-21T14:01:37Z</time>
      </trkpt>
      <trkpt lat="2.813334" lon="-75.09035">
        <ele>1454.2</ele>
        <time>2021-08-21T14:01:38Z</time>
      </trkpt>
      <trkpt lat="2.813315" lon="-75.090324">
        <ele>1454.3</ele>
        <time>2021-08-21T14:01:39Z</time>
      </trkpt>
      <trkpt lat="2.813297" lon="-75.09031">
        <ele>1454.4</ele>
        <time>2021-08-21T14:01:40Z</time>
      </trkpt>
      <trkpt lat="2.813283" lon="-75.090294">
        <ele>1454.6</ele>
        <time>2021-08-21T14:01:41Z</time>
      </trkpt>
      <trkpt lat="2.813269" lon="-75.09027">
        <ele>1454.7</ele>
        <time>2021-08-21T14:01:42Z</time>
      </trkpt>
      <trkpt lat="2.813258" lon="-75.09026">
        <ele>1454.8</ele>
        <time>2021-08-21T14:01:43Z</time>
      </trkpt>
      <trkpt lat="2.813239" lon="-75.09023">
        <ele>1455.0</ele>
        <time>2021-08-21T14:01:44Z</time>
      </trkpt>
      <trkpt lat="2.813231" lon="-75.090225">
        <ele>1455.1</ele>
        <time>2021-08-21T14:01:45Z</time>
      </trkpt>
      <trkpt lat="2.813222" lon="-75.09021">
        <ele>1455.2</ele>
        <time>2021-08-21T14:01:46Z</time>
      </trkpt>
      <trkpt lat="2.813214" lon="-75.0902">
        <ele>1455.3</ele>
        <time>2021-08-21T14:01:47Z</time>
      </trkpt>
      <trkpt lat="2.813205" lon="-75.09019">
        <ele>1455.3</ele>
        <time>2021-08-21T14:01:48Z</time>
      </trkpt>
      <trkpt lat="2.813196" lon="-75.09017">
        <ele>1455.4</ele>
        <time>2021-08-21T14:01:49Z</time>
      </trkpt>
      <trkpt lat="2.813188" lon="-75.090164">
        <ele>1455.5</ele>
        <time>2021-08-21T14:01:50Z</time>
      </trkpt>
      <trkpt lat="2.813179" lon="-75.09015">
        <ele>1455.6</ele>
        <time>2021-08-21T14:01:51Z</time>
      </trkpt>
      <trkpt lat="2.813171" lon="-75.09014">
        <ele>1455.7</ele>
        <time>2021-08-21T14:01:52Z</time>
      </trkpt>
      <trkpt lat="2.813162" lon="-75.090126">
        <ele>1455.8</ele>
        <time>2021-08-21T14:01:53Z</time>
      </trkpt>
      <trkpt lat="2.813154" lon="-75.09011">
        <ele>1455.9</ele>
        <time>2021-08-21T14:01:54Z</time>
      </trkpt>
      <trkpt lat="2.813145" lon="-75.0901">
        <ele>1456.0</ele>
        <time>2021-08-21T14:01:55Z</time>
      </trkpt>
      <trkpt lat="2.813136" lon="-75.09009">
        <ele>1456.1</ele>
        <time>2021-08-21T14:01:56Z</time>
      </trkpt>
      <trkpt lat="2.813128" lon="-75.09008">
        <ele>1456.3</ele>
        <time>2021-08-21T14:01:57Z</time>
      </trkpt>
      <trkpt lat="2.813119" lon="-75.090065">
        <ele>1456.4</ele>
        <time>2021-08-21T14:01:58Z</time>
      </trkpt>
      <trkpt lat="2.813111" lon="-75.09005">
        <ele>1456.5</ele>
        <time>2021-08-21T14:01:59Z</time>
      </trkpt>
      <trkpt lat="2.813102" lon="-75.09004">
        <ele>1456.6</ele>
        <time>2021-08-21T14:02:00Z</time>
      </trkpt>
      <trkpt lat="2.813093" lon="-75.09003">
        <ele>1456.7</ele>
        <time>2021-08-21T14:02:01Z</time>
      </trkpt>
      <trkpt lat="2.813085" lon="-75.09002">
        <ele>1456.9</ele>
        <time>2021-08-21T14:02:02Z</time>
      </trkpt>
      <trkpt lat="2.813076" lon="-75.090004">
        <ele>1457.0</ele>
        <time>2021-08-21T14:02:03Z</time>
      </trkpt>
      <trkpt lat="2.813068" lon="-75.09">
        <ele>1457.1</ele>
        <time>2021-08-21T14:02:04Z</time>
      </trkpt>
      <trkpt lat="2.813059" lon="-75.08998">
        <ele>1457.3</ele>
        <time>2021-08-21T14:02:05Z</time>
      </trkpt>
      <trkpt lat="2.813051" lon="-75.089966">
        <ele>1457.4</ele>
        <time>2021-08-21T14:02:06Z</time>
      </trkpt>
      <trkpt lat="2.813042" lon="-75.08996">
        <ele>1457.5</ele>
        <time>2021-08-21T14:02:07Z</time>
      </trkpt>
      <trkpt lat="2.813033" lon="-75.08994">
        <ele>1457.7</ele>
        <time>2021-08-21T14:02:08Z</time>
      </trkpt>
      <trkpt lat="2.813025" lon="-75.089935">
        <ele>1457.8</ele>
        <time>2021-08-21T14:02:09Z</time>
      </trkpt>
      <trkpt lat="2.813016" lon="-75.08992">
        <ele>1458.0</ele>
        <time>2021-08-21T14:02:10Z</time>
      </trkpt>
      <trkpt lat="2.813008" lon="-75.089905">
        <ele>1458.1</ele>
        <time>2021-08-21T14:02:11Z</time>
      </trkpt>
      <trkpt lat="2.812999" lon="-75.0899">
        <ele>1458.2</ele>
        <time>2021-08-21T14:02:12Z</time>
      </trkpt>
      <trkpt lat="2.81299" lon="-75.08988">
        <ele>1458.4</ele>
        <time>2021-08-21T14:02:13Z</time>
      </trkpt>
      <trkpt lat="2.812982" lon="-75.089874">
        <ele>1458.5</ele>
        <time>2021-08-21T14:02:14Z</time>
      </trkpt>
      <trkpt lat="2.812973" lon="-75.08986">
        <ele>1458.7</ele>
        <time>2021-08-21T14:02:15Z</time>
      </trkpt>
      <trkpt lat="2.812965" lon="-75.08985">
        <ele>1458.8</ele>
        <time>2021-08-21T14:02:16Z</time>
      </trkpt>
      <trkpt lat="2.812956" lon="-75.089836">
        <ele>1459.0</ele>
        <time>2021-08-21T14:02:17Z</time>
      </trkpt>
      <trkpt lat="2.812948" lon="-75.08982">
        <ele>1459.1</ele>
        <time>2021-08-21T14:02:18Z</time>
      </trkpt>
      <trkpt lat="2.812939" lon="-75.08981">
        <ele>1459.3</ele>
        <time>2021-08-21T14:02:19Z</time>
      </trkpt>
      <trkpt lat="2.81293" lon="-75.0898">
        <ele>1459.4</ele>
        <time>2021-08-21T14:02:20Z</time>
      </trkpt>
      <trkpt lat="2.812922" lon="-75.08979">
        <ele>1459.6</ele>
        <time>2021-08-21T14:02:21Z</time>
      </trkpt>
      <trkpt lat="2.812913" lon="-75.089775">
        <ele>1459.7</ele>
        <time>2021-08-21T14:02:22Z</time>
      </trkpt>
      <trkpt lat="2.812896" lon="-75.08975">
        <ele>1460.0</ele>
        <time>2021-08-21T14:02:23Z</time>
      </trkpt>
      <trkpt lat="2.812905" lon="-75.08976">
        <ele>1459.9</ele>
        <time>2021-08-21T14:02:23Z</time>
      </trkpt>
      <trkpt lat="2.81289" lon="-75.08974">
        <ele>1460.2</ele>
        <time>2021-08-21T14:02:24Z</time>
      </trkpt>
      <trkpt lat="2.812884" lon="-75.08972">
        <ele>1460.4</ele>
        <time>2021-08-21T14:02:25Z</time>
      </trkpt>
      <trkpt lat="2.812878" lon="-75.08971">
        <ele>1460.5</ele>
        <time>2021-08-21T14:02:26Z</time>
      </trkpt>
      <trkpt lat="2.812873" lon="-75.08968">
        <ele>1460.7</ele>
        <time>2021-08-21T14:02:27Z</time>
      </trkpt>
      <trkpt lat="2.812869" lon="-75.08967">
        <ele>1460.9</ele>
        <time>2021-08-21T14:02:28Z</time>
      </trkpt>
      <trkpt lat="2.812866" lon="-75.08965">
        <ele>1461.1</ele>
        <time>2021-08-21T14:02:29Z</time>
      </trkpt>
      <trkpt lat="2.812863" lon="-75.08964">
        <ele>1461.3</ele>
        <time>2021-08-21T14:02:30Z</time>
      </trkpt>
      <trkpt lat="2.812859" lon="-75.089615">
        <ele>1461.5</ele>
        <time>2021-08-21T14:02:31Z</time>
      </trkpt>
      <trkpt lat="2.812856" lon="-75.0896">
        <ele>1461.7</ele>
        <time>2021-08-21T14:02:32Z</time>
      </trkpt>
      <trkpt lat="2.812854" lon="-75.08958">
        <ele>1461.9</ele>
        <time>2021-08-21T14:02:33Z</time>
      </trkpt>
      <trkpt lat="2.81285" lon="-75.089554">
        <ele>1462.1</ele>
        <time>2021-08-21T14:02:34Z</time>
      </trkpt>
      <trkpt lat="2.812848" lon="-75.08954">
        <ele>1462.3</ele>
        <time>2021-08-21T14:02:35Z</time>
      </trkpt>
      <trkpt lat="2.812847" lon="-75.089516">
        <ele>1462.5</ele>
        <time>2021-08-21T14:02:36Z</time>
      </trkpt>
      <trkpt lat="2.812846" lon="-75.0895">
        <ele>1462.7</ele>
        <time>2021-08-21T14:02:37Z</time>
      </trkpt>
      <trkpt lat="2.812845" lon="-75.08948">
        <ele>1462.9</ele>
        <time>2021-08-21T14:02:38Z</time>
      </trkpt>
      <trkpt lat="2.812845" lon="-75.08946">
        <ele>1463.1</ele>
        <time>2021-08-21T14:02:39Z</time>
      </trkpt>
      <trkpt lat="2.812844" lon="-75.08945">
        <ele>1463.2</ele>
        <time>2021-08-21T14:02:40Z</time>
      </trkpt>
      <trkpt lat="2.812844" lon="-75.089424">
        <ele>1463.4</ele>
        <time>2021-08-21T14:02:41Z</time>
      </trkpt>
      <trkpt lat="2.812844" lon="-75.08941">
        <ele>1463.6</ele>
        <time>2021-08-21T14:02:42Z</time>
      </trkpt>
      <trkpt lat="2.812844" lon="-75.08939">
        <ele>1463.7</ele>
        <time>2021-08-21T14:02:43Z</time>
      </trkpt>
      <trkpt lat="2.812846" lon="-75.08938">
        <ele>1463.9</ele>
        <time>2021-08-21T14:02:44Z</time>
      </trkpt>
      <trkpt lat="2.812848" lon="-75.08936">
        <ele>1464.0</ele>
        <time>2021-08-21T14:02:45Z</time>
      </trkpt>
      <trkpt lat="2.812851" lon="-75.08935">
        <ele>1464.2</ele>
        <time>2021-08-21T14:02:46Z</time>
      </trkpt>
      <trkpt lat="2.812855" lon="-75.08933">
        <ele>1464.3</ele>
        <time>2021-08-21T14:02:47Z</time>
      </trkpt>
      <trkpt lat="2.812857" lon="-75.08932">
        <ele>1464.5</ele>
        <time>2021-08-21T14:02:48Z</time>
      </trkpt>
      <trkpt lat="2.812858" lon="-75.0893">
        <ele>1464.6</ele>
        <time>2021-08-21T14:02:49Z</time>
      </trkpt>
      <trkpt lat="2.812858" lon="-75.08929">
        <ele>1464.7</ele>
        <time>2021-08-21T14:02:50Z</time>
      </trkpt>
      <trkpt lat="2.812855" lon="-75.08927">
        <ele>1464.9</ele>
        <time>2021-08-21T14:02:51Z</time>
      </trkpt>
      <trkpt lat="2.812851" lon="-75.08925">
        <ele>1465.0</ele>
        <time>2021-08-21T14:02:52Z</time>
      </trkpt>
      <trkpt lat="2.812846" lon="-75.08923">
        <ele>1465.1</ele>
        <time>2021-08-21T14:02:53Z</time>
      </trkpt>
      <trkpt lat="2.81284" lon="-75.08922">
        <ele>1465.3</ele>
        <time>2021-08-21T14:02:54Z</time>
      </trkpt>
      <trkpt lat="2.812833" lon="-75.0892">
        <ele>1465.4</ele>
        <time>2021-08-21T14:02:55Z</time>
      </trkpt>
      <trkpt lat="2.812825" lon="-75.08919">
        <ele>1465.5</ele>
        <time>2021-08-21T14:02:56Z</time>
      </trkpt>
      <trkpt lat="2.812818" lon="-75.08917">
        <ele>1465.7</ele>
        <time>2021-08-21T14:02:57Z</time>
      </trkpt>
      <trkpt lat="2.812811" lon="-75.08916">
        <ele>1465.8</ele>
        <time>2021-08-21T14:02:58Z</time>
      </trkpt>
      <trkpt lat="2.812805" lon="-75.08914">
        <ele>1465.9</ele>
        <time>2021-08-21T14:02:59Z</time>
      </trkpt>
      <trkpt lat="2.812801" lon="-75.089134">
        <ele>1466.0</ele>
        <time>2021-08-21T14:03:00Z</time>
      </trkpt>
      <trkpt lat="2.812798" lon="-75.08913">
        <ele>1466.0</ele>
        <time>2021-08-21T14:03:01Z</time>
      </trkpt>
      <trkpt lat="2.812628" lon="-75.08915">
        <ele>1465.8</ele>
        <time>2021-08-21T14:07:56Z</time>
      </trkpt>
      <trkpt lat="2.812634" lon="-75.08914">
        <ele>1465.9</ele>
        <time>2021-08-21T14:07:57Z</time>
      </trkpt>
      <trkpt lat="2.812635" lon="-75.08914">
        <ele>1465.9</ele>
        <time>2021-08-21T14:07:58Z</time>
      </trkpt>
      <trkpt lat="2.812642" lon="-75.089134">
        <ele>1466.0</ele>
        <time>2021-08-21T14:07:59Z</time>
      </trkpt>
      <trkpt lat="2.812647" lon="-75.089134">
        <ele>1466.0</ele>
        <time>2021-08-21T14:08:00Z</time>
      </trkpt>
      <trkpt lat="2.812659" lon="-75.08914">
        <ele>1466.1</ele>
        <time>2021-08-21T14:08:01Z</time>
      </trkpt>
      <trkpt lat="2.812666" lon="-75.08914">
        <ele>1466.2</ele>
        <time>2021-08-21T14:08:02Z</time>
      </trkpt>
      <trkpt lat="2.81267" lon="-75.08915">
        <ele>1466.2</ele>
        <time>2021-08-21T14:08:03Z</time>
      </trkpt>
      <trkpt lat="2.812678" lon="-75.08916">
        <ele>1466.3</ele>
        <time>2021-08-21T14:08:04Z</time>
      </trkpt>
      <trkpt lat="2.812687" lon="-75.089165">
        <ele>1466.3</ele>
        <time>2021-08-21T14:08:05Z</time>
      </trkpt>
      <trkpt lat="2.812697" lon="-75.089165">
        <ele>1466.4</ele>
        <time>2021-08-21T14:08:06Z</time>
      </trkpt>
      <trkpt lat="2.812709" lon="-75.08917">
        <ele>1466.5</ele>
        <time>2021-08-21T14:08:07Z</time>
      </trkpt>
      <trkpt lat="2.81272" lon="-75.08917">
        <ele>1466.5</ele>
        <time>2021-08-21T14:08:08Z</time>
      </trkpt>
      <trkpt lat="2.812727" lon="-75.089165">
        <ele>1466.6</ele>
        <time>2021-08-21T14:08:09Z</time>
      </trkpt>
      <trkpt lat="2.81272" lon="-75.089165">
        <ele>1466.6</ele>
        <time>2021-08-21T14:08:11Z</time>
      </trkpt>
      <trkpt lat="2.812719" lon="-75.08916">
        <ele>1466.6</ele>
        <time>2021-08-21T14:08:12Z</time>
      </trkpt>
      <trkpt lat="2.812716" lon="-75.08916">
        <ele>1466.7</ele>
        <time>2021-08-21T14:08:13Z</time>
      </trkpt>
      <trkpt lat="2.812715" lon="-75.08915">
        <ele>1466.7</ele>
        <time>2021-08-21T14:08:14Z</time>
      </trkpt>
      <trkpt lat="2.812717" lon="-75.08914">
        <ele>1466.7</ele>
        <time>2021-08-21T14:08:15Z</time>
      </trkpt>
      <trkpt lat="2.812718" lon="-75.08913">
        <ele>1466.8</ele>
        <time>2021-08-21T14:08:16Z</time>
      </trkpt>
      <trkpt lat="2.812718" lon="-75.08911">
        <ele>1466.9</ele>
        <time>2021-08-21T14:08:17Z</time>
      </trkpt>
      <trkpt lat="2.812718" lon="-75.0891">
        <ele>1466.9</ele>
        <time>2021-08-21T14:08:18Z</time>
      </trkpt>
      <trkpt lat="2.812717" lon="-75.08909">
        <ele>1467.0</ele>
        <time>2021-08-21T14:08:19Z</time>
      </trkpt>
      <trkpt lat="2.812717" lon="-75.08907">
        <ele>1467.0</ele>
        <time>2021-08-21T14:08:20Z</time>
      </trkpt>
      <trkpt lat="2.812712" lon="-75.08906">
        <ele>1467.1</ele>
        <time>2021-08-21T14:08:21Z</time>
      </trkpt>
      <trkpt lat="2.812704" lon="-75.08904">
        <ele>1467.2</ele>
        <time>2021-08-21T14:08:22Z</time>
      </trkpt>
      <trkpt lat="2.812698" lon="-75.08903">
        <ele>1467.2</ele>
        <time>2021-08-21T14:08:23Z</time>
      </trkpt>
      <trkpt lat="2.81269" lon="-75.08901">
        <ele>1467.3</ele>
        <time>2021-08-21T14:08:24Z</time>
      </trkpt>
      <trkpt lat="2.812633" lon="-75.088936">
        <ele>1467.6</ele>
        <time>2021-08-21T14:08:26Z</time>
      </trkpt>
      <trkpt lat="2.812631" lon="-75.088936">
        <ele>1467.7</ele>
        <time>2021-08-21T14:08:27Z</time>
      </trkpt>
      <trkpt lat="2.812628" lon="-75.08893">
        <ele>1467.7</ele>
        <time>2021-08-21T14:08:28Z</time>
      </trkpt>
      <trkpt lat="2.812623" lon="-75.08891">
        <ele>1467.8</ele>
        <time>2021-08-21T14:08:29Z</time>
      </trkpt>
      <trkpt lat="2.812617" lon="-75.0889">
        <ele>1467.8</ele>
        <time>2021-08-21T14:08:30Z</time>
      </trkpt>
      <trkpt lat="2.81261" lon="-75.08888">
        <ele>1467.9</ele>
        <time>2021-08-21T14:08:31Z</time>
      </trkpt>
      <trkpt lat="2.812601" lon="-75.08887">
        <ele>1467.9</ele>
        <time>2021-08-21T14:08:32Z</time>
      </trkpt>
      <trkpt lat="2.812593" lon="-75.08885">
        <ele>1468.0</ele>
        <time>2021-08-21T14:08:33Z</time>
      </trkpt>
      <trkpt lat="2.812581" lon="-75.088844">
        <ele>1468.1</ele>
        <time>2021-08-21T14:08:34Z</time>
      </trkpt>
      <trkpt lat="2.81256" lon="-75.08884">
        <ele>1468.2</ele>
        <time>2021-08-21T14:08:35Z</time>
      </trkpt>
      <trkpt lat="2.81254" lon="-75.08882">
        <ele>1468.2</ele>
        <time>2021-08-21T14:08:36Z</time>
      </trkpt>
      <trkpt lat="2.812522" lon="-75.08881">
        <ele>1468.3</ele>
        <time>2021-08-21T14:08:37Z</time>
      </trkpt>
      <trkpt lat="2.812503" lon="-75.0888">
        <ele>1468.4</ele>
        <time>2021-08-21T14:08:38Z</time>
      </trkpt>
      <trkpt lat="2.812485" lon="-75.08878">
        <ele>1468.5</ele>
        <time>2021-08-21T14:08:39Z</time>
      </trkpt>
      <trkpt lat="2.812467" lon="-75.088776">
        <ele>1468.6</ele>
        <time>2021-08-21T14:08:40Z</time>
      </trkpt>
      <trkpt lat="2.81245" lon="-75.08876">
        <ele>1468.7</ele>
        <time>2021-08-21T14:08:41Z</time>
      </trkpt>
      <trkpt lat="2.812432" lon="-75.088745">
        <ele>1468.8</ele>
        <time>2021-08-21T14:08:42Z</time>
      </trkpt>
      <trkpt lat="2.812415" lon="-75.08874">
        <ele>1469.0</ele>
        <time>2021-08-21T14:08:43Z</time>
      </trkpt>
      <trkpt lat="2.812403" lon="-75.08873">
        <ele>1469.0</ele>
        <time>2021-08-21T14:08:44Z</time>
      </trkpt>
      <trkpt lat="2.812394" lon="-75.08872">
        <ele>1469.1</ele>
        <time>2021-08-21T14:08:45Z</time>
      </trkpt>
      <trkpt lat="2.812382" lon="-75.088715">
        <ele>1469.2</ele>
        <time>2021-08-21T14:08:46Z</time>
      </trkpt>
      <trkpt lat="2.812369" lon="-75.0887">
        <ele>1469.3</ele>
        <time>2021-08-21T14:08:47Z</time>
      </trkpt>
      <trkpt lat="2.812357" lon="-75.088684">
        <ele>1469.4</ele>
        <time>2021-08-21T14:08:48Z</time>
      </trkpt>
      <trkpt lat="2.812344" lon="-75.08868">
        <ele>1469.5</ele>
        <time>2021-08-21T14:08:49Z</time>
      </trkpt>
      <trkpt lat="2.812333" lon="-75.08866">
        <ele>1469.6</ele>
        <time>2021-08-21T14:08:50Z</time>
      </trkpt>
      <trkpt lat="2.812325" lon="-75.08865">
        <ele>1469.7</ele>
        <time>2021-08-21T14:08:51Z</time>
      </trkpt>
      <trkpt lat="2.812314" lon="-75.08864">
        <ele>1469.8</ele>
        <time>2021-08-21T14:08:52Z</time>
      </trkpt>
      <trkpt lat="2.812303" lon="-75.08862">
        <ele>1470.0</ele>
        <time>2021-08-21T14:08:53Z</time>
      </trkpt>
      <trkpt lat="2.812288" lon="-75.088615">
        <ele>1470.1</ele>
        <time>2021-08-21T14:08:54Z</time>
      </trkpt>
      <trkpt lat="2.812271" lon="-75.0886">
        <ele>1470.3</ele>
        <time>2021-08-21T14:08:55Z</time>
      </trkpt>
      <trkpt lat="2.812255" lon="-75.088585">
        <ele>1470.4</ele>
        <time>2021-08-21T14:08:56Z</time>
      </trkpt>
      <trkpt lat="2.812237" lon="-75.08858">
        <ele>1470.6</ele>
        <time>2021-08-21T14:08:57Z</time>
      </trkpt>
      <trkpt lat="2.812221" lon="-75.08856">
        <ele>1470.8</ele>
        <time>2021-08-21T14:08:58Z</time>
      </trkpt>
      <trkpt lat="2.812205" lon="-75.088554">
        <ele>1470.9</ele>
        <time>2021-08-21T14:08:59Z</time>
      </trkpt>
      <trkpt lat="2.812192" lon="-75.08854">
        <ele>1471.1</ele>
        <time>2021-08-21T14:09:00Z</time>
      </trkpt>
      <trkpt lat="2.812178" lon="-75.08853">
        <ele>1471.3</ele>
        <time>2021-08-21T14:09:01Z</time>
      </trkpt>
      <trkpt lat="2.812164" lon="-75.088524">
        <ele>1471.4</ele>
        <time>2021-08-21T14:09:02Z</time>
      </trkpt>
      <trkpt lat="2.812153" lon="-75.08852">
        <ele>1471.5</ele>
        <time>2021-08-21T14:09:03Z</time>
      </trkpt>
      <trkpt lat="2.812142" lon="-75.0885">
        <ele>1471.7</ele>
        <time>2021-08-21T14:09:04Z</time>
      </trkpt>
      <trkpt lat="2.812133" lon="-75.088486">
        <ele>1471.8</ele>
        <time>2021-08-21T14:09:05Z</time>
      </trkpt>
      <trkpt lat="2.812123" lon="-75.08847">
        <ele>1472.0</ele>
        <time>2021-08-21T14:09:06Z</time>
      </trkpt>
      <trkpt lat="2.812104" lon="-75.08845">
        <ele>1472.3</ele>
        <time>2021-08-21T14:09:08Z</time>
      </trkpt>
      <trkpt lat="2.812109" lon="-75.08845">
        <ele>1472.2</ele>
        <time>2021-08-21T14:09:08Z</time>
      </trkpt>
      <trkpt lat="2.812092" lon="-75.08843">
        <ele>1472.4</ele>
        <time>2021-08-21T14:09:09Z</time>
      </trkpt>
      <trkpt lat="2.812079" lon="-75.088425">
        <ele>1472.6</ele>
        <time>2021-08-21T14:09:10Z</time>
      </trkpt>
      <trkpt lat="2.812067" lon="-75.08841">
        <ele>1472.7</ele>
        <time>2021-08-21T14:09:11Z</time>
      </trkpt>
      <trkpt lat="2.812056" lon="-75.088394">
        <ele>1472.9</ele>
        <time>2021-08-21T14:09:12Z</time>
      </trkpt>
      <trkpt lat="2.812044" lon="-75.08838">
        <ele>1473.0</ele>
        <time>2021-08-21T14:09:13Z</time>
      </trkpt>
      <trkpt lat="2.812032" lon="-75.08836">
        <ele>1473.2</ele>
        <time>2021-08-21T14:09:14Z</time>
      </trkpt>
      <trkpt lat="2.81202" lon="-75.08835">
        <ele>1473.4</ele>
        <time>2021-08-21T14:09:15Z</time>
      </trkpt>
      <trkpt lat="2.812008" lon="-75.08833">
        <ele>1473.5</ele>
        <time>2021-08-21T14:09:16Z</time>
      </trkpt>
      <trkpt lat="2.811995" lon="-75.08832">
        <ele>1473.7</ele>
        <time>2021-08-21T14:09:17Z</time>
      </trkpt>
      <trkpt lat="2.811981" lon="-75.08831">
        <ele>1473.9</ele>
        <time>2021-08-21T14:09:18Z</time>
      </trkpt>
      <trkpt lat="2.811967" lon="-75.088295">
        <ele>1474.0</ele>
        <time>2021-08-21T14:09:19Z</time>
      </trkpt>
      <trkpt lat="2.811951" lon="-75.08829">
        <ele>1474.1</ele>
        <time>2021-08-21T14:09:20Z</time>
      </trkpt>
      <trkpt lat="2.811936" lon="-75.08828">
        <ele>1474.2</ele>
        <time>2021-08-21T14:09:21Z</time>
      </trkpt>
      <trkpt lat="2.811922" lon="-75.088264">
        <ele>1474.3</ele>
        <time>2021-08-21T14:09:22Z</time>
      </trkpt>
      <trkpt lat="2.811908" lon="-75.088264">
        <ele>1474.3</ele>
        <time>2021-08-21T14:09:23Z</time>
      </trkpt>
      <trkpt lat="2.811898" lon="-75.08825">
        <ele>1474.4</ele>
        <time>2021-08-21T14:09:24Z</time>
      </trkpt>
      <trkpt lat="2.811886" lon="-75.08825">
        <ele>1474.5</ele>
        <time>2021-08-21T14:09:25Z</time>
      </trkpt>
      <trkpt lat="2.811874" lon="-75.08824">
        <ele>1474.6</ele>
        <time>2021-08-21T14:09:26Z</time>
      </trkpt>
      <trkpt lat="2.81186" lon="-75.08824">
        <ele>1474.6</ele>
        <time>2021-08-21T14:09:27Z</time>
      </trkpt>
      <trkpt lat="2.811845" lon="-75.088234">
        <ele>1474.7</ele>
        <time>2021-08-21T14:09:28Z</time>
      </trkpt>
      <trkpt lat="2.811827" lon="-75.088234">
        <ele>1474.8</ele>
        <time>2021-08-21T14:09:29Z</time>
      </trkpt>
      <trkpt lat="2.811809" lon="-75.088234">
        <ele>1474.9</ele>
        <time>2021-08-21T14:09:30Z</time>
      </trkpt>
      <trkpt lat="2.811791" lon="-75.08823">
        <ele>1475.0</ele>
        <time>2021-08-21T14:09:31Z</time>
      </trkpt>
      <trkpt lat="2.811775" lon="-75.08822">
        <ele>1475.1</ele>
        <time>2021-08-21T14:09:32Z</time>
      </trkpt>
      <trkpt lat="2.811758" lon="-75.08821">
        <ele>1475.2</ele>
        <time>2021-08-21T14:09:33Z</time>
      </trkpt>
      <trkpt lat="2.811742" lon="-75.0882">
        <ele>1475.3</ele>
        <time>2021-08-21T14:09:34Z</time>
      </trkpt>
      <trkpt lat="2.811725" lon="-75.088196">
        <ele>1475.4</ele>
        <time>2021-08-21T14:09:35Z</time>
      </trkpt>
      <trkpt lat="2.811708" lon="-75.08819">
        <ele>1475.4</ele>
        <time>2021-08-21T14:09:36Z</time>
      </trkpt>
      <trkpt lat="2.811691" lon="-75.08818">
        <ele>1475.5</ele>
        <time>2021-08-21T14:09:37Z</time>
      </trkpt>
      <trkpt lat="2.811676" lon="-75.08817">
        <ele>1475.6</ele>
        <time>2021-08-21T14:09:38Z</time>
      </trkpt>
      <trkpt lat="2.81166" lon="-75.08817">
        <ele>1475.7</ele>
        <time>2021-08-21T14:09:39Z</time>
      </trkpt>
      <trkpt lat="2.811641" lon="-75.08817">
        <ele>1475.8</ele>
        <time>2021-08-21T14:09:40Z</time>
      </trkpt>
      <trkpt lat="2.811622" lon="-75.08817">
        <ele>1475.9</ele>
        <time>2021-08-21T14:09:41Z</time>
      </trkpt>
      <trkpt lat="2.8116" lon="-75.08818">
        <ele>1476.0</ele>
        <time>2021-08-21T14:09:42Z</time>
      </trkpt>
      <trkpt lat="2.811577" lon="-75.08818">
        <ele>1476.1</ele>
        <time>2021-08-21T14:09:43Z</time>
      </trkpt>
      <trkpt lat="2.811557" lon="-75.08818">
        <ele>1476.2</ele>
        <time>2021-08-21T14:09:44Z</time>
      </trkpt>
      <trkpt lat="2.811538" lon="-75.08818">
        <ele>1476.3</ele>
        <time>2021-08-21T14:09:45Z</time>
      </trkpt>
      <trkpt lat="2.811521" lon="-75.08817">
        <ele>1476.3</ele>
        <time>2021-08-21T14:09:46Z</time>
      </trkpt>
      <trkpt lat="2.811504" lon="-75.08817">
        <ele>1476.4</ele>
        <time>2021-08-21T14:09:47Z</time>
      </trkpt>
      <trkpt lat="2.811486" lon="-75.088165">
        <ele>1476.5</ele>
        <time>2021-08-21T14:09:48Z</time>
      </trkpt>
      <trkpt lat="2.811465" lon="-75.088165">
        <ele>1476.6</ele>
        <time>2021-08-21T14:09:49Z</time>
      </trkpt>
      <trkpt lat="2.811445" lon="-75.088165">
        <ele>1476.7</ele>
        <time>2021-08-21T14:09:50Z</time>
      </trkpt>
      <trkpt lat="2.811427" lon="-75.08816">
        <ele>1476.8</ele>
        <time>2021-08-21T14:09:51Z</time>
      </trkpt>
      <trkpt lat="2.81141" lon="-75.08816">
        <ele>1476.9</ele>
        <time>2021-08-21T14:09:52Z</time>
      </trkpt>
      <trkpt lat="2.811394" lon="-75.08815">
        <ele>1477.1</ele>
        <time>2021-08-21T14:09:53Z</time>
      </trkpt>
      <trkpt lat="2.811377" lon="-75.08814">
        <ele>1477.2</ele>
        <time>2021-08-21T14:09:54Z</time>
      </trkpt>
      <trkpt lat="2.811359" lon="-75.088135">
        <ele>1477.3</ele>
        <time>2021-08-21T14:09:55Z</time>
      </trkpt>
      <trkpt lat="2.81134" lon="-75.08812">
        <ele>1477.5</ele>
        <time>2021-08-21T14:09:56Z</time>
      </trkpt>
      <trkpt lat="2.811322" lon="-75.08811">
        <ele>1477.7</ele>
        <time>2021-08-21T14:09:57Z</time>
      </trkpt>
      <trkpt lat="2.811304" lon="-75.088104">
        <ele>1477.8</ele>
        <time>2021-08-21T14:09:58Z</time>
      </trkpt>
      <trkpt lat="2.811286" lon="-75.0881">
        <ele>1478.0</ele>
        <time>2021-08-21T14:09:59Z</time>
      </trkpt>
      <trkpt lat="2.811268" lon="-75.08809">
        <ele>1478.2</ele>
        <time>2021-08-21T14:10:00Z</time>
      </trkpt>
      <trkpt lat="2.811251" lon="-75.08808">
        <ele>1478.4</ele>
        <time>2021-08-21T14:10:01Z</time>
      </trkpt>
      <trkpt lat="2.811236" lon="-75.08807">
        <ele>1478.6</ele>
        <time>2021-08-21T14:10:02Z</time>
      </trkpt>
      <trkpt lat="2.811222" lon="-75.08806">
        <ele>1478.8</ele>
        <time>2021-08-21T14:10:03Z</time>
      </trkpt>
      <trkpt lat="2.811208" lon="-75.08805">
        <ele>1479.0</ele>
        <time>2021-08-21T14:10:04Z</time>
      </trkpt>
      <trkpt lat="2.811195" lon="-75.08804">
        <ele>1479.2</ele>
        <time>2021-08-21T14:10:05Z</time>
      </trkpt>
      <trkpt lat="2.811184" lon="-75.08803">
        <ele>1479.3</ele>
        <time>2021-08-21T14:10:06Z</time>
      </trkpt>
      <trkpt lat="2.811174" lon="-75.08801">
        <ele>1479.5</ele>
        <time>2021-08-21T14:10:07Z</time>
      </trkpt>
      <trkpt lat="2.811165" lon="-75.088005">
        <ele>1479.7</ele>
        <time>2021-08-21T14:10:08Z</time>
      </trkpt>
      <trkpt lat="2.811157" lon="-75.08799">
        <ele>1479.8</ele>
        <time>2021-08-21T14:10:09Z</time>
      </trkpt>
      <trkpt lat="2.811148" lon="-75.087975">
        <ele>1480.0</ele>
        <time>2021-08-21T14:10:10Z</time>
      </trkpt>
      <trkpt lat="2.811139" lon="-75.08796">
        <ele>1480.1</ele>
        <time>2021-08-21T14:10:11Z</time>
      </trkpt>
      <trkpt lat="2.81113" lon="-75.08795">
        <ele>1480.2</ele>
        <time>2021-08-21T14:10:12Z</time>
      </trkpt>
      <trkpt lat="2.811122" lon="-75.08794">
        <ele>1480.4</ele>
        <time>2021-08-21T14:10:13Z</time>
      </trkpt>
      <trkpt lat="2.811116" lon="-75.08793">
        <ele>1480.5</ele>
        <time>2021-08-21T14:10:14Z</time>
      </trkpt>
      <trkpt lat="2.811111" lon="-75.08791">
        <ele>1480.6</ele>
        <time>2021-08-21T14:10:15Z</time>
      </trkpt>
      <trkpt lat="2.811105" lon="-75.087906">
        <ele>1480.7</ele>
        <time>2021-08-21T14:10:16Z</time>
      </trkpt>
      <trkpt lat="2.811099" lon="-75.08789">
        <ele>1480.8</ele>
        <time>2021-08-21T14:10:17Z</time>
      </trkpt>
      <trkpt lat="2.811093" lon="-75.08788">
        <ele>1481.0</ele>
        <time>2021-08-21T14:10:18Z</time>
      </trkpt>
      <trkpt lat="2.811087" lon="-75.08787">
        <ele>1481.1</ele>
        <time>2021-08-21T14:10:19Z</time>
      </trkpt>
      <trkpt lat="2.81108" lon="-75.08785">
        <ele>1481.2</ele>
        <time>2021-08-21T14:10:20Z</time>
      </trkpt>
      <trkpt lat="2.811074" lon="-75.087845">
        <ele>1481.3</ele>
        <time>2021-08-21T14:10:21Z</time>
      </trkpt>
      <trkpt lat="2.811068" lon="-75.08783">
        <ele>1481.5</ele>
        <time>2021-08-21T14:10:22Z</time>
      </trkpt>
      <trkpt lat="2.811062" lon="-75.087814">
        <ele>1481.6</ele>
        <time>2021-08-21T14:10:23Z</time>
      </trkpt>
      <trkpt lat="2.811056" lon="-75.08781">
        <ele>1481.8</ele>
        <time>2021-08-21T14:10:24Z</time>
      </trkpt>
      <trkpt lat="2.81105" lon="-75.08779">
        <ele>1481.9</ele>
        <time>2021-08-21T14:10:25Z</time>
      </trkpt>
      <trkpt lat="2.811044" lon="-75.087776">
        <ele>1482.0</ele>
        <time>2021-08-21T14:10:26Z</time>
      </trkpt>
      <trkpt lat="2.811037" lon="-75.08776">
        <ele>1482.2</ele>
        <time>2021-08-21T14:10:27Z</time>
      </trkpt>
      <trkpt lat="2.811031" lon="-75.087746">
        <ele>1482.3</ele>
        <time>2021-08-21T14:10:28Z</time>
      </trkpt>
      <trkpt lat="2.811025" lon="-75.08773">
        <ele>1482.5</ele>
        <time>2021-08-21T14:10:29Z</time>
      </trkpt>
      <trkpt lat="2.811019" lon="-75.08772">
        <ele>1482.6</ele>
        <time>2021-08-21T14:10:30Z</time>
      </trkpt>
      <trkpt lat="2.811014" lon="-75.08771">
        <ele>1482.8</ele>
        <time>2021-08-21T14:10:31Z</time>
      </trkpt>
      <trkpt lat="2.81101" lon="-75.08769">
        <ele>1482.9</ele>
        <time>2021-08-21T14:10:32Z</time>
      </trkpt>
      <trkpt lat="2.811004" lon="-75.087685">
        <ele>1483.0</ele>
        <time>2021-08-21T14:10:33Z</time>
      </trkpt>
      <trkpt lat="2.810996" lon="-75.08767">
        <ele>1483.2</ele>
        <time>2021-08-21T14:10:34Z</time>
      </trkpt>
      <trkpt lat="2.810988" lon="-75.08766">
        <ele>1483.3</ele>
        <time>2021-08-21T14:10:35Z</time>
      </trkpt>
      <trkpt lat="2.810979" lon="-75.08765">
        <ele>1483.4</ele>
        <time>2021-08-21T14:10:36Z</time>
      </trkpt>
      <trkpt lat="2.810969" lon="-75.08764">
        <ele>1483.6</ele>
        <time>2021-08-21T14:10:37Z</time>
      </trkpt>
      <trkpt lat="2.81096" lon="-75.08762">
        <ele>1483.7</ele>
        <time>2021-08-21T14:10:38Z</time>
      </trkpt>
      <trkpt lat="2.810951" lon="-75.087616">
        <ele>1483.9</ele>
        <time>2021-08-21T14:10:39Z</time>
      </trkpt>
      <trkpt lat="2.810944" lon="-75.0876">
        <ele>1484.0</ele>
        <time>2021-08-21T14:10:40Z</time>
      </trkpt>
      <trkpt lat="2.810938" lon="-75.087585">
        <ele>1484.2</ele>
        <time>2021-08-21T14:10:41Z</time>
      </trkpt>
      <trkpt lat="2.81093" lon="-75.08758">
        <ele>1484.3</ele>
        <time>2021-08-21T14:10:42Z</time>
      </trkpt>
      <trkpt lat="2.810922" lon="-75.08756">
        <ele>1484.4</ele>
        <time>2021-08-21T14:10:43Z</time>
      </trkpt>
      <trkpt lat="2.810915" lon="-75.087555">
        <ele>1484.6</ele>
        <time>2021-08-21T14:10:44Z</time>
      </trkpt>
      <trkpt lat="2.810908" lon="-75.08754">
        <ele>1484.7</ele>
        <time>2021-08-21T14:10:45Z</time>
      </trkpt>
      <trkpt lat="2.810902" lon="-75.087524">
        <ele>1484.9</ele>
        <time>2021-08-21T14:10:46Z</time>
      </trkpt>
      <trkpt lat="2.810895" lon="-75.08752">
        <ele>1485.0</ele>
        <time>2021-08-21T14:10:47Z</time>
      </trkpt>
      <trkpt lat="2.810889" lon="-75.0875">
        <ele>1485.1</ele>
        <time>2021-08-21T14:10:48Z</time>
      </trkpt>
      <trkpt lat="2.810883" lon="-75.087494">
        <ele>1485.3</ele>
        <time>2021-08-21T14:10:49Z</time>
      </trkpt>
      <trkpt lat="2.810879" lon="-75.08748">
        <ele>1485.4</ele>
        <time>2021-08-21T14:10:50Z</time>
      </trkpt>
      <trkpt lat="2.810874" lon="-75.08747">
        <ele>1485.5</ele>
        <time>2021-08-21T14:10:51Z</time>
      </trkpt>
      <trkpt lat="2.810871" lon="-75.087456">
        <ele>1485.6</ele>
        <time>2021-08-21T14:10:52Z</time>
      </trkpt>
      <trkpt lat="2.810869" lon="-75.08744">
        <ele>1485.8</ele>
        <time>2021-08-21T14:10:53Z</time>
      </trkpt>
      <trkpt lat="2.810867" lon="-75.087425">
        <ele>1485.9</ele>
        <time>2021-08-21T14:10:54Z</time>
      </trkpt>
      <trkpt lat="2.810863" lon="-75.08742">
        <ele>1486.0</ele>
        <time>2021-08-21T14:10:55Z</time>
      </trkpt>
      <trkpt lat="2.810858" lon="-75.0874">
        <ele>1486.2</ele>
        <time>2021-08-21T14:10:56Z</time>
      </trkpt>
      <trkpt lat="2.810853" lon="-75.087395">
        <ele>1486.3</ele>
        <time>2021-08-21T14:10:57Z</time>
      </trkpt>
      <trkpt lat="2.810848" lon="-75.08738">
        <ele>1486.4</ele>
        <time>2021-08-21T14:10:58Z</time>
      </trkpt>
      <trkpt lat="2.810843" lon="-75.087364">
        <ele>1486.6</ele>
        <time>2021-08-21T14:10:59Z</time>
      </trkpt>
      <trkpt lat="2.810839" lon="-75.08736">
        <ele>1486.7</ele>
        <time>2021-08-21T14:11:00Z</time>
      </trkpt>
      <trkpt lat="2.810836" lon="-75.08734">
        <ele>1486.8</ele>
        <time>2021-08-21T14:11:01Z</time>
      </trkpt>
      <trkpt lat="2.810831" lon="-75.08733">
        <ele>1486.9</ele>
        <time>2021-08-21T14:11:02Z</time>
      </trkpt>
      <trkpt lat="2.810826" lon="-75.08732">
        <ele>1487.1</ele>
        <time>2021-08-21T14:11:03Z</time>
      </trkpt>
      <trkpt lat="2.810819" lon="-75.0873">
        <ele>1487.2</ele>
        <time>2021-08-21T14:11:04Z</time>
      </trkpt>
      <trkpt lat="2.810811" lon="-75.087296">
        <ele>1487.3</ele>
        <time>2021-08-21T14:11:05Z</time>
      </trkpt>
      <trkpt lat="2.810803" lon="-75.08728">
        <ele>1487.5</ele>
        <time>2021-08-21T14:11:06Z</time>
      </trkpt>
      <trkpt lat="2.810795" lon="-75.08727">
        <ele>1487.6</ele>
        <time>2021-08-21T14:11:07Z</time>
      </trkpt>
      <trkpt lat="2.810786" lon="-75.08726">
        <ele>1487.8</ele>
        <time>2021-08-21T14:11:08Z</time>
      </trkpt>
      <trkpt lat="2.810778" lon="-75.08725">
        <ele>1487.9</ele>
        <time>2021-08-21T14:11:09Z</time>
      </trkpt>
      <trkpt lat="2.810772" lon="-75.08724">
        <ele>1488.0</ele>
        <time>2021-08-21T14:11:10Z</time>
      </trkpt>
      <trkpt lat="2.810765" lon="-75.08723">
        <ele>1488.1</ele>
        <time>2021-08-21T14:11:11Z</time>
      </trkpt>
      <trkpt lat="2.810761" lon="-75.08722">
        <ele>1488.2</ele>
        <time>2021-08-21T14:11:12Z</time>
      </trkpt>
      <trkpt lat="2.810756" lon="-75.087204">
        <ele>1488.4</ele>
        <time>2021-08-21T14:11:13Z</time>
      </trkpt>
      <trkpt lat="2.810752" lon="-75.0872">
        <ele>1488.5</ele>
        <time>2021-08-21T14:11:14Z</time>
      </trkpt>
      <trkpt lat="2.810747" lon="-75.08718">
        <ele>1488.6</ele>
        <time>2021-08-21T14:11:15Z</time>
      </trkpt>
      <trkpt lat="2.810741" lon="-75.08717">
        <ele>1488.7</ele>
        <time>2021-08-21T14:11:16Z</time>
      </trkpt>
      <trkpt lat="2.810736" lon="-75.08716">
        <ele>1488.9</ele>
        <time>2021-08-21T14:11:17Z</time>
      </trkpt>
      <trkpt lat="2.810731" lon="-75.08714">
        <ele>1489.0</ele>
        <time>2021-08-21T14:11:18Z</time>
      </trkpt>
      <trkpt lat="2.810726" lon="-75.087135">
        <ele>1489.1</ele>
        <time>2021-08-21T14:11:19Z</time>
      </trkpt>
      <trkpt lat="2.81072" lon="-75.08712">
        <ele>1489.3</ele>
        <time>2021-08-21T14:11:20Z</time>
      </trkpt>
      <trkpt lat="2.810713" lon="-75.08711">
        <ele>1489.4</ele>
        <time>2021-08-21T14:11:21Z</time>
      </trkpt>
      <trkpt lat="2.810706" lon="-75.0871">
        <ele>1489.5</ele>
        <time>2021-08-21T14:11:22Z</time>
      </trkpt>
      <trkpt lat="2.810699" lon="-75.08708">
        <ele>1489.6</ele>
        <time>2021-08-21T14:11:23Z</time>
      </trkpt>
      <trkpt lat="2.81069" lon="-75.087074">
        <ele>1489.8</ele>
        <time>2021-08-21T14:11:24Z</time>
      </trkpt>
      <trkpt lat="2.810682" lon="-75.08706">
        <ele>1489.9</ele>
        <time>2021-08-21T14:11:25Z</time>
      </trkpt>
      <trkpt lat="2.810674" lon="-75.08705">
        <ele>1490.0</ele>
        <time>2021-08-21T14:11:26Z</time>
      </trkpt>
      <trkpt lat="2.810666" lon="-75.087036">
        <ele>1490.1</ele>
        <time>2021-08-21T14:11:27Z</time>
      </trkpt>
      <trkpt lat="2.810657" lon="-75.08703">
        <ele>1490.2</ele>
        <time>2021-08-21T14:11:28Z</time>
      </trkpt>
      <trkpt lat="2.810649" lon="-75.08701">
        <ele>1490.4</ele>
        <time>2021-08-21T14:11:29Z</time>
      </trkpt>
      <trkpt lat="2.810642" lon="-75.087006">
        <ele>1490.5</ele>
        <time>2021-08-21T14:11:30Z</time>
      </trkpt>
      <trkpt lat="2.810633" lon="-75.087">
        <ele>1490.6</ele>
        <time>2021-08-21T14:11:31Z</time>
      </trkpt>
      <trkpt lat="2.810624" lon="-75.08698">
        <ele>1490.7</ele>
        <time>2021-08-21T14:11:32Z</time>
      </trkpt>
      <trkpt lat="2.810614" lon="-75.086975">
        <ele>1490.8</ele>
        <time>2021-08-21T14:11:33Z</time>
      </trkpt>
      <trkpt lat="2.810603" lon="-75.08696">
        <ele>1490.9</ele>
        <time>2021-08-21T14:11:34Z</time>
      </trkpt>
      <trkpt lat="2.810592" lon="-75.08695">
        <ele>1491.0</ele>
        <time>2021-08-21T14:11:35Z</time>
      </trkpt>
      <trkpt lat="2.81058" lon="-75.08694">
        <ele>1491.1</ele>
        <time>2021-08-21T14:11:36Z</time>
      </trkpt>
      <trkpt lat="2.810569" lon="-75.08693">
        <ele>1491.2</ele>
        <time>2021-08-21T14:11:37Z</time>
      </trkpt>
      <trkpt lat="2.810558" lon="-75.086914">
        <ele>1491.3</ele>
        <time>2021-08-21T14:11:38Z</time>
      </trkpt>
      <trkpt lat="2.810547" lon="-75.08691">
        <ele>1491.4</ele>
        <time>2021-08-21T14:11:39Z</time>
      </trkpt>
      <trkpt lat="2.810537" lon="-75.08689">
        <ele>1491.5</ele>
        <time>2021-08-21T14:11:40Z</time>
      </trkpt>
      <trkpt lat="2.810526" lon="-75.08688">
        <ele>1491.6</ele>
        <time>2021-08-21T14:11:41Z</time>
      </trkpt>
      <trkpt lat="2.810514" lon="-75.08687">
        <ele>1491.7</ele>
        <time>2021-08-21T14:11:42Z</time>
      </trkpt>
      <trkpt lat="2.810501" lon="-75.08686">
        <ele>1491.8</ele>
        <time>2021-08-21T14:11:43Z</time>
      </trkpt>
      <trkpt lat="2.810489" lon="-75.08685">
        <ele>1491.9</ele>
        <time>2021-08-21T14:11:44Z</time>
      </trkpt>
      <trkpt lat="2.810476" lon="-75.086845">
        <ele>1491.9</ele>
        <time>2021-08-21T14:11:45Z</time>
      </trkpt>
      <trkpt lat="2.810463" lon="-75.08684">
        <ele>1492.0</ele>
        <time>2021-08-21T14:11:46Z</time>
      </trkpt>
      <trkpt lat="2.810453" lon="-75.08682">
        <ele>1492.1</ele>
        <time>2021-08-21T14:11:47Z</time>
      </trkpt>
      <trkpt lat="2.810442" lon="-75.086815">
        <ele>1492.2</ele>
        <time>2021-08-21T14:11:48Z</time>
      </trkpt>
      <trkpt lat="2.810432" lon="-75.0868">
        <ele>1492.2</ele>
        <time>2021-08-21T14:11:49Z</time>
      </trkpt>
      <trkpt lat="2.810421" lon="-75.086784">
        <ele>1492.3</ele>
        <time>2021-08-21T14:11:50Z</time>
      </trkpt>
      <trkpt lat="2.810411" lon="-75.08678">
        <ele>1492.4</ele>
        <time>2021-08-21T14:11:51Z</time>
      </trkpt>
      <trkpt lat="2.810392" lon="-75.08675">
        <ele>1492.5</ele>
        <time>2021-08-21T14:11:52Z</time>
      </trkpt>
      <trkpt lat="2.8104" lon="-75.08676">
        <ele>1492.5</ele>
        <time>2021-08-21T14:11:52Z</time>
      </trkpt>
      <trkpt lat="2.810382" lon="-75.08673">
        <ele>1492.6</ele>
        <time>2021-08-21T14:11:53Z</time>
      </trkpt>
      <trkpt lat="2.810373" lon="-75.086716">
        <ele>1492.7</ele>
        <time>2021-08-21T14:11:54Z</time>
      </trkpt>
      <trkpt lat="2.810364" lon="-75.0867">
        <ele>1492.7</ele>
        <time>2021-08-21T14:11:55Z</time>
      </trkpt>
      <trkpt lat="2.810352" lon="-75.086685">
        <ele>1492.8</ele>
        <time>2021-08-21T14:11:56Z</time>
      </trkpt>
      <trkpt lat="2.810338" lon="-75.08668">
        <ele>1492.9</ele>
        <time>2021-08-21T14:11:57Z</time>
      </trkpt>
      <trkpt lat="2.810324" lon="-75.08666">
        <ele>1492.9</ele>
        <time>2021-08-21T14:11:58Z</time>
      </trkpt>
      <trkpt lat="2.810313" lon="-75.08664">
        <ele>1493.0</ele>
        <time>2021-08-21T14:11:59Z</time>
      </trkpt>
      <trkpt lat="2.810301" lon="-75.08663">
        <ele>1493.0</ele>
        <time>2021-08-21T14:12:00Z</time>
      </trkpt>
      <trkpt lat="2.810289" lon="-75.08661">
        <ele>1493.1</ele>
        <time>2021-08-21T14:12:01Z</time>
      </trkpt>
      <trkpt lat="2.810277" lon="-75.08659">
        <ele>1493.2</ele>
        <time>2021-08-21T14:12:02Z</time>
      </trkpt>
      <trkpt lat="2.810265" lon="-75.08658">
        <ele>1493.2</ele>
        <time>2021-08-21T14:12:03Z</time>
      </trkpt>
      <trkpt lat="2.810252" lon="-75.08657">
        <ele>1493.3</ele>
        <time>2021-08-21T14:12:04Z</time>
      </trkpt>
      <trkpt lat="2.810238" lon="-75.086555">
        <ele>1493.3</ele>
        <time>2021-08-21T14:12:05Z</time>
      </trkpt>
      <trkpt lat="2.810226" lon="-75.08654">
        <ele>1493.4</ele>
        <time>2021-08-21T14:12:06Z</time>
      </trkpt>
      <trkpt lat="2.810214" lon="-75.086525">
        <ele>1493.4</ele>
        <time>2021-08-21T14:12:07Z</time>
      </trkpt>
      <trkpt lat="2.810205" lon="-75.08651">
        <ele>1493.4</ele>
        <time>2021-08-21T14:12:08Z</time>
      </trkpt>
      <trkpt lat="2.810196" lon="-75.086494">
        <ele>1493.5</ele>
        <time>2021-08-21T14:12:09Z</time>
      </trkpt>
      <trkpt lat="2.810195" lon="-75.08648">
        <ele>1493.5</ele>
        <time>2021-08-21T14:12:10Z</time>
      </trkpt>
      <trkpt lat="2.810194" lon="-75.08646">
        <ele>1493.6</ele>
        <time>2021-08-21T14:12:11Z</time>
      </trkpt>
      <trkpt lat="2.810187" lon="-75.086426">
        <ele>1493.6</ele>
        <time>2021-08-21T14:12:12Z</time>
      </trkpt>
      <trkpt lat="2.810183" lon="-75.08642">
        <ele>1493.7</ele>
        <time>2021-08-21T14:12:13Z</time>
      </trkpt>
      <trkpt lat="2.810178" lon="-75.0864">
        <ele>1493.7</ele>
        <time>2021-08-21T14:12:14Z</time>
      </trkpt>
      <trkpt lat="2.810173" lon="-75.08639">
        <ele>1493.7</ele>
        <time>2021-08-21T14:12:15Z</time>
      </trkpt>
      <trkpt lat="2.810164" lon="-75.086365">
        <ele>1493.8</ele>
        <time>2021-08-21T14:12:17Z</time>
      </trkpt>
      <trkpt lat="2.810169" lon="-75.08637">
        <ele>1493.8</ele>
        <time>2021-08-21T14:12:17Z</time>
      </trkpt>
      <trkpt lat="2.810156" lon="-75.08635">
        <ele>1493.8</ele>
        <time>2021-08-21T14:12:18Z</time>
      </trkpt>
      <trkpt lat="2.810149" lon="-75.086334">
        <ele>1493.9</ele>
        <time>2021-08-21T14:12:19Z</time>
      </trkpt>
      <trkpt lat="2.81014" lon="-75.08632">
        <ele>1493.9</ele>
        <time>2021-08-21T14:12:20Z</time>
      </trkpt>
      <trkpt lat="2.810129" lon="-75.0863">
        <ele>1494.0</ele>
        <time>2021-08-21T14:12:21Z</time>
      </trkpt>
      <trkpt lat="2.810118" lon="-75.08629">
        <ele>1494.0</ele>
        <time>2021-08-21T14:12:22Z</time>
      </trkpt>
      <trkpt lat="2.810107" lon="-75.08627">
        <ele>1494.1</ele>
        <time>2021-08-21T14:12:23Z</time>
      </trkpt>
      <trkpt lat="2.810096" lon="-75.08626">
        <ele>1494.1</ele>
        <time>2021-08-21T14:12:24Z</time>
      </trkpt>
      <trkpt lat="2.810084" lon="-75.08624">
        <ele>1494.1</ele>
        <time>2021-08-21T14:12:25Z</time>
      </trkpt>
      <trkpt lat="2.810071" lon="-75.08623">
        <ele>1494.2</ele>
        <time>2021-08-21T14:12:26Z</time>
      </trkpt>
      <trkpt lat="2.810059" lon="-75.08622">
        <ele>1494.2</ele>
        <time>2021-08-21T14:12:27Z</time>
      </trkpt>
      <trkpt lat="2.810046" lon="-75.086205">
        <ele>1494.3</ele>
        <time>2021-08-21T14:12:28Z</time>
      </trkpt>
      <trkpt lat="2.810032" lon="-75.08619">
        <ele>1494.3</ele>
        <time>2021-08-21T14:12:29Z</time>
      </trkpt>
      <trkpt lat="2.810018" lon="-75.08618">
        <ele>1494.3</ele>
        <time>2021-08-21T14:12:30Z</time>
      </trkpt>
      <trkpt lat="2.810002" lon="-75.086174">
        <ele>1494.4</ele>
        <time>2021-08-21T14:12:31Z</time>
      </trkpt>
      <trkpt lat="2.809985" lon="-75.08617">
        <ele>1494.4</ele>
        <time>2021-08-21T14:12:32Z</time>
      </trkpt>
      <trkpt lat="2.809967" lon="-75.08616">
        <ele>1494.4</ele>
        <time>2021-08-21T14:12:33Z</time>
      </trkpt>
      <trkpt lat="2.809948" lon="-75.08615">
        <ele>1494.5</ele>
        <time>2021-08-21T14:12:34Z</time>
      </trkpt>
      <trkpt lat="2.809929" lon="-75.08614">
        <ele>1494.5</ele>
        <time>2021-08-21T14:12:35Z</time>
      </trkpt>
      <trkpt lat="2.809909" lon="-75.08614">
        <ele>1494.5</ele>
        <time>2021-08-21T14:12:36Z</time>
      </trkpt>
      <trkpt lat="2.809888" lon="-75.086136">
        <ele>1494.5</ele>
        <time>2021-08-21T14:12:37Z</time>
      </trkpt>
      <trkpt lat="2.809867" lon="-75.086136">
        <ele>1494.6</ele>
        <time>2021-08-21T14:12:38Z</time>
      </trkpt>
      <trkpt lat="2.809845" lon="-75.08613">
        <ele>1494.6</ele>
        <time>2021-08-21T14:12:39Z</time>
      </trkpt>
      <trkpt lat="2.809822" lon="-75.08613">
        <ele>1494.6</ele>
        <time>2021-08-21T14:12:40Z</time>
      </trkpt>
      <trkpt lat="2.809798" lon="-75.08613">
        <ele>1494.6</ele>
        <time>2021-08-21T14:12:41Z</time>
      </trkpt>
      <trkpt lat="2.809773" lon="-75.086136">
        <ele>1494.6</ele>
        <time>2021-08-21T14:12:42Z</time>
      </trkpt>
      <trkpt lat="2.809748" lon="-75.08614">
        <ele>1494.7</ele>
        <time>2021-08-21T14:12:43Z</time>
      </trkpt>
      <trkpt lat="2.809722" lon="-75.08616">
        <ele>1494.7</ele>
        <time>2021-08-21T14:12:44Z</time>
      </trkpt>
      <trkpt lat="2.809696" lon="-75.086174">
        <ele>1494.7</ele>
        <time>2021-08-21T14:12:45Z</time>
      </trkpt>
      <trkpt lat="2.809671" lon="-75.08619">
        <ele>1494.7</ele>
        <time>2021-08-21T14:12:46Z</time>
      </trkpt>
      <trkpt lat="2.809647" lon="-75.086205">
        <ele>1494.7</ele>
        <time>2021-08-21T14:12:47Z</time>
      </trkpt>
      <trkpt lat="2.809622" lon="-75.08622">
        <ele>1494.7</ele>
        <time>2021-08-21T14:12:48Z</time>
      </trkpt>
      <trkpt lat="2.809597" lon="-75.08623">
        <ele>1494.7</ele>
        <time>2021-08-21T14:12:49Z</time>
      </trkpt>
      <trkpt lat="2.809572" lon="-75.086235">
        <ele>1494.7</ele>
        <time>2021-08-21T14:12:50Z</time>
      </trkpt>
      <trkpt lat="2.809545" lon="-75.08624">
        <ele>1494.7</ele>
        <time>2021-08-21T14:12:51Z</time>
      </trkpt>
      <trkpt lat="2.809519" lon="-75.08625">
        <ele>1494.8</ele>
        <time>2021-08-21T14:12:52Z</time>
      </trkpt>
      <trkpt lat="2.809492" lon="-75.086266">
        <ele>1494.8</ele>
        <time>2021-08-21T14:12:53Z</time>
      </trkpt>
      <trkpt lat="2.809466" lon="-75.08627">
        <ele>1494.8</ele>
        <time>2021-08-21T14:12:54Z</time>
      </trkpt>
      <trkpt lat="2.809438" lon="-75.08628">
        <ele>1494.8</ele>
        <time>2021-08-21T14:12:55Z</time>
      </trkpt>
      <trkpt lat="2.809411" lon="-75.086296">
        <ele>1494.8</ele>
        <time>2021-08-21T14:12:56Z</time>
      </trkpt>
      <trkpt lat="2.809385" lon="-75.0863">
        <ele>1494.8</ele>
        <time>2021-08-21T14:12:57Z</time>
      </trkpt>
      <trkpt lat="2.80936" lon="-75.08632">
        <ele>1494.8</ele>
        <time>2021-08-21T14:12:58Z</time>
      </trkpt>
      <trkpt lat="2.809335" lon="-75.086334">
        <ele>1494.9</ele>
        <time>2021-08-21T14:12:59Z</time>
      </trkpt>
      <trkpt lat="2.809311" lon="-75.08634">
        <ele>1494.9</ele>
        <time>2021-08-21T14:13:00Z</time>
      </trkpt>
      <trkpt lat="2.809288" lon="-75.08636">
        <ele>1494.9</ele>
        <time>2021-08-21T14:13:01Z</time>
      </trkpt>
      <trkpt lat="2.809265" lon="-75.086365">
        <ele>1495.0</ele>
        <time>2021-08-21T14:13:02Z</time>
      </trkpt>
      <trkpt lat="2.809241" lon="-75.08638">
        <ele>1495.0</ele>
        <time>2021-08-21T14:13:03Z</time>
      </trkpt>
      <trkpt lat="2.809217" lon="-75.08639">
        <ele>1495.0</ele>
        <time>2021-08-21T14:13:04Z</time>
      </trkpt>
      <trkpt lat="2.809193" lon="-75.0864">
        <ele>1495.1</ele>
        <time>2021-08-21T14:13:05Z</time>
      </trkpt>
      <trkpt lat="2.809171" lon="-75.08642">
        <ele>1495.1</ele>
        <time>2021-08-21T14:13:06Z</time>
      </trkpt>
      <trkpt lat="2.809147" lon="-75.08643">
        <ele>1495.2</ele>
        <time>2021-08-21T14:13:07Z</time>
      </trkpt>
      <trkpt lat="2.809123" lon="-75.08644">
        <ele>1495.2</ele>
        <time>2021-08-21T14:13:08Z</time>
      </trkpt>
      <trkpt lat="2.809101" lon="-75.08646">
        <ele>1495.2</ele>
        <time>2021-08-21T14:13:09Z</time>
      </trkpt>
      <trkpt lat="2.809077" lon="-75.08647">
        <ele>1495.3</ele>
        <time>2021-08-21T14:13:10Z</time>
      </trkpt>
      <trkpt lat="2.809053" lon="-75.08648">
        <ele>1495.3</ele>
        <time>2021-08-21T14:13:11Z</time>
      </trkpt>
      <trkpt lat="2.809029" lon="-75.086494">
        <ele>1495.4</ele>
        <time>2021-08-21T14:13:12Z</time>
      </trkpt>
      <trkpt lat="2.809003" lon="-75.0865">
        <ele>1495.4</ele>
        <time>2021-08-21T14:13:13Z</time>
      </trkpt>
      <trkpt lat="2.808978" lon="-75.08651">
        <ele>1495.5</ele>
        <time>2021-08-21T14:13:14Z</time>
      </trkpt>
      <trkpt lat="2.808951" lon="-75.08651">
        <ele>1495.5</ele>
        <time>2021-08-21T14:13:15Z</time>
      </trkpt>
      <trkpt lat="2.808925" lon="-75.08652">
        <ele>1495.6</ele>
        <time>2021-08-21T14:13:16Z</time>
      </trkpt>
      <trkpt lat="2.808897" lon="-75.08652">
        <ele>1495.6</ele>
        <time>2021-08-21T14:13:17Z</time>
      </trkpt>
      <trkpt lat="2.80887" lon="-75.08652">
        <ele>1495.7</ele>
        <time>2021-08-21T14:13:18Z</time>
      </trkpt>
      <trkpt lat="2.808843" lon="-75.08652">
        <ele>1495.7</ele>
        <time>2021-08-21T14:13:19Z</time>
      </trkpt>
      <trkpt lat="2.808816" lon="-75.08652">
        <ele>1495.8</ele>
        <time>2021-08-21T14:13:20Z</time>
      </trkpt>
      <trkpt lat="2.808789" lon="-75.08651">
        <ele>1495.8</ele>
        <time>2021-08-21T14:13:21Z</time>
      </trkpt>
      <trkpt lat="2.808762" lon="-75.0865">
        <ele>1495.8</ele>
        <time>2021-08-21T14:13:22Z</time>
      </trkpt>
      <trkpt lat="2.808737" lon="-75.086494">
        <ele>1495.9</ele>
        <time>2021-08-21T14:13:23Z</time>
      </trkpt>
      <trkpt lat="2.808712" lon="-75.08648">
        <ele>1495.9</ele>
        <time>2021-08-21T14:13:24Z</time>
      </trkpt>
      <trkpt lat="2.808688" lon="-75.08647">
        <ele>1496.0</ele>
        <time>2021-08-21T14:13:25Z</time>
      </trkpt>
      <trkpt lat="2.808665" lon="-75.08646">
        <ele>1496.0</ele>
        <time>2021-08-21T14:13:26Z</time>
      </trkpt>
      <trkpt lat="2.808643" lon="-75.08644">
        <ele>1496.1</ele>
        <time>2021-08-21T14:13:27Z</time>
      </trkpt>
      <trkpt lat="2.808621" lon="-75.086426">
        <ele>1496.1</ele>
        <time>2021-08-21T14:13:28Z</time>
      </trkpt>
      <trkpt lat="2.8086" lon="-75.0864">
        <ele>1496.1</ele>
        <time>2021-08-21T14:13:29Z</time>
      </trkpt>
      <trkpt lat="2.808579" lon="-75.08639">
        <ele>1496.2</ele>
        <time>2021-08-21T14:13:30Z</time>
      </trkpt>
      <trkpt lat="2.808558" lon="-75.086365">
        <ele>1496.2</ele>
        <time>2021-08-21T14:13:31Z</time>
      </trkpt>
      <trkpt lat="2.808538" lon="-75.08635">
        <ele>1496.2</ele>
        <time>2021-08-21T14:13:32Z</time>
      </trkpt>
      <trkpt lat="2.808518" lon="-75.08633">
        <ele>1496.3</ele>
        <time>2021-08-21T14:13:33Z</time>
      </trkpt>
      <trkpt lat="2.808501" lon="-75.0863">
        <ele>1496.3</ele>
        <time>2021-08-21T14:13:34Z</time>
      </trkpt>
      <trkpt lat="2.808483" lon="-75.08629">
        <ele>1496.4</ele>
        <time>2021-08-21T14:13:35Z</time>
      </trkpt>
      <trkpt lat="2.808464" lon="-75.086266">
        <ele>1496.4</ele>
        <time>2021-08-21T14:13:36Z</time>
      </trkpt>
      <trkpt lat="2.808447" lon="-75.08624">
        <ele>1496.4</ele>
        <time>2021-08-21T14:13:37Z</time>
      </trkpt>
      <trkpt lat="2.808429" lon="-75.08623">
        <ele>1496.5</ele>
        <time>2021-08-21T14:13:38Z</time>
      </trkpt>
      <trkpt lat="2.80841" lon="-75.086205">
        <ele>1496.5</ele>
        <time>2021-08-21T14:13:39Z</time>
      </trkpt>
      <trkpt lat="2.808391" lon="-75.08618">
        <ele>1496.6</ele>
        <time>2021-08-21T14:13:40Z</time>
      </trkpt>
      <trkpt lat="2.808373" lon="-75.08616">
        <ele>1496.6</ele>
        <time>2021-08-21T14:13:41Z</time>
      </trkpt>
      <trkpt lat="2.808356" lon="-75.08614">
        <ele>1496.7</ele>
        <time>2021-08-21T14:13:42Z</time>
      </trkpt>
      <trkpt lat="2.808338" lon="-75.08612">
        <ele>1496.7</ele>
        <time>2021-08-21T14:13:43Z</time>
      </trkpt>
      <trkpt lat="2.808321" lon="-75.0861">
        <ele>1496.7</ele>
        <time>2021-08-21T14:13:44Z</time>
      </trkpt>
      <trkpt lat="2.808304" lon="-75.08608">
        <ele>1496.8</ele>
        <time>2021-08-21T14:13:45Z</time>
      </trkpt>
      <trkpt lat="2.808288" lon="-75.08606">
        <ele>1496.8</ele>
        <time>2021-08-21T14:13:46Z</time>
      </trkpt>
      <trkpt lat="2.808272" lon="-75.08604">
        <ele>1496.9</ele>
        <time>2021-08-21T14:13:47Z</time>
      </trkpt>
      <trkpt lat="2.808257" lon="-75.08602">
        <ele>1496.9</ele>
        <time>2021-08-21T14:13:48Z</time>
      </trkpt>
      <trkpt lat="2.808241" lon="-75.086">
        <ele>1497.0</ele>
        <time>2021-08-21T14:13:49Z</time>
      </trkpt>
      <trkpt lat="2.808224" lon="-75.08598">
        <ele>1497.0</ele>
        <time>2021-08-21T14:13:50Z</time>
      </trkpt>
      <trkpt lat="2.808207" lon="-75.08597">
        <ele>1497.1</ele>
        <time>2021-08-21T14:13:51Z</time>
      </trkpt>
      <trkpt lat="2.808189" lon="-75.085945">
        <ele>1497.1</ele>
        <time>2021-08-21T14:13:52Z</time>
      </trkpt>
      <trkpt lat="2.808168" lon="-75.08593">
        <ele>1497.2</ele>
        <time>2021-08-21T14:13:53Z</time>
      </trkpt>
      <trkpt lat="2.808148" lon="-75.085915">
        <ele>1497.3</ele>
        <time>2021-08-21T14:13:54Z</time>
      </trkpt>
      <trkpt lat="2.808127" lon="-75.0859">
        <ele>1497.3</ele>
        <time>2021-08-21T14:13:55Z</time>
      </trkpt>
      <trkpt lat="2.808108" lon="-75.085884">
        <ele>1497.4</ele>
        <time>2021-08-21T14:13:56Z</time>
      </trkpt>
      <trkpt lat="2.808089" lon="-75.08587">
        <ele>1497.5</ele>
        <time>2021-08-21T14:13:57Z</time>
      </trkpt>
      <trkpt lat="2.808069" lon="-75.08585">
        <ele>1497.6</ele>
        <time>2021-08-21T14:13:58Z</time>
      </trkpt>
      <trkpt lat="2.808051" lon="-75.08584">
        <ele>1497.6</ele>
        <time>2021-08-21T14:13:59Z</time>
      </trkpt>
      <trkpt lat="2.808031" lon="-75.08582">
        <ele>1497.7</ele>
        <time>2021-08-21T14:14:00Z</time>
      </trkpt>
      <trkpt lat="2.808011" lon="-75.08581">
        <ele>1497.8</ele>
        <time>2021-08-21T14:14:01Z</time>
      </trkpt>
      <trkpt lat="2.807991" lon="-75.08579">
        <ele>1497.9</ele>
        <time>2021-08-21T14:14:02Z</time>
      </trkpt>
      <trkpt lat="2.807971" lon="-75.08578">
        <ele>1498.0</ele>
        <time>2021-08-21T14:14:03Z</time>
      </trkpt>
      <trkpt lat="2.80795" lon="-75.08577">
        <ele>1498.1</ele>
        <time>2021-08-21T14:14:04Z</time>
      </trkpt>
      <trkpt lat="2.807928" lon="-75.08576">
        <ele>1498.2</ele>
        <time>2021-08-21T14:14:05Z</time>
      </trkpt>
      <trkpt lat="2.807906" lon="-75.085754">
        <ele>1498.2</ele>
        <time>2021-08-21T14:14:06Z</time>
      </trkpt>
      <trkpt lat="2.807885" lon="-75.08575">
        <ele>1498.3</ele>
        <time>2021-08-21T14:14:07Z</time>
      </trkpt>
      <trkpt lat="2.807864" lon="-75.08574">
        <ele>1498.4</ele>
        <time>2021-08-21T14:14:08Z</time>
      </trkpt>
      <trkpt lat="2.807842" lon="-75.08573">
        <ele>1498.5</ele>
        <time>2021-08-21T14:14:09Z</time>
      </trkpt>
      <trkpt lat="2.807821" lon="-75.08573">
        <ele>1498.6</ele>
        <time>2021-08-21T14:14:10Z</time>
      </trkpt>
      <trkpt lat="2.8078" lon="-75.085724">
        <ele>1498.6</ele>
        <time>2021-08-21T14:14:11Z</time>
      </trkpt>
      <trkpt lat="2.807779" lon="-75.08572">
        <ele>1498.7</ele>
        <time>2021-08-21T14:14:12Z</time>
      </trkpt>
      <trkpt lat="2.807759" lon="-75.08571">
        <ele>1498.8</ele>
        <time>2021-08-21T14:14:13Z</time>
      </trkpt>
      <trkpt lat="2.80774" lon="-75.0857">
        <ele>1498.9</ele>
        <time>2021-08-21T14:14:14Z</time>
      </trkpt>
      <trkpt lat="2.80772" lon="-75.08569">
        <ele>1498.9</ele>
        <time>2021-08-21T14:14:15Z</time>
      </trkpt>
      <trkpt lat="2.8077" lon="-75.085686">
        <ele>1499.0</ele>
        <time>2021-08-21T14:14:16Z</time>
      </trkpt>
      <trkpt lat="2.80768" lon="-75.08568">
        <ele>1499.1</ele>
        <time>2021-08-21T14:14:17Z</time>
      </trkpt>
      <trkpt lat="2.807659" lon="-75.08567">
        <ele>1499.2</ele>
        <time>2021-08-21T14:14:18Z</time>
      </trkpt>
      <trkpt lat="2.807637" lon="-75.08566">
        <ele>1499.2</ele>
        <time>2021-08-21T14:14:19Z</time>
      </trkpt>
      <trkpt lat="2.807615" lon="-75.08565">
        <ele>1499.3</ele>
        <time>2021-08-21T14:14:20Z</time>
      </trkpt>
      <trkpt lat="2.807592" lon="-75.08564">
        <ele>1499.4</ele>
        <time>2021-08-21T14:14:21Z</time>
      </trkpt>
      <trkpt lat="2.807568" lon="-75.085625">
        <ele>1499.5</ele>
        <time>2021-08-21T14:14:22Z</time>
      </trkpt>
      <trkpt lat="2.807545" lon="-75.08562">
        <ele>1499.6</ele>
        <time>2021-08-21T14:14:23Z</time>
      </trkpt>
      <trkpt lat="2.807521" lon="-75.0856">
        <ele>1499.7</ele>
        <time>2021-08-21T14:14:24Z</time>
      </trkpt>
      <trkpt lat="2.807498" lon="-75.085594">
        <ele>1499.7</ele>
        <time>2021-08-21T14:14:25Z</time>
      </trkpt>
      <trkpt lat="2.807477" lon="-75.08558">
        <ele>1499.8</ele>
        <time>2021-08-21T14:14:26Z</time>
      </trkpt>
      <trkpt lat="2.807454" lon="-75.08556">
        <ele>1499.9</ele>
        <time>2021-08-21T14:14:27Z</time>
      </trkpt>
      <trkpt lat="2.807432" lon="-75.085556">
        <ele>1499.9</ele>
        <time>2021-08-21T14:14:28Z</time>
      </trkpt>
      <trkpt lat="2.807412" lon="-75.08554">
        <ele>1500.0</ele>
        <time>2021-08-21T14:14:29Z</time>
      </trkpt>
      <trkpt lat="2.807391" lon="-75.08553">
        <ele>1500.0</ele>
        <time>2021-08-21T14:14:30Z</time>
      </trkpt>
      <trkpt lat="2.807372" lon="-75.08552">
        <ele>1500.0</ele>
        <time>2021-08-21T14:14:31Z</time>
      </trkpt>
      <trkpt lat="2.807353" lon="-75.0855">
        <ele>1500.1</ele>
        <time>2021-08-21T14:14:32Z</time>
      </trkpt>
      <trkpt lat="2.807331" lon="-75.08549">
        <ele>1500.1</ele>
        <time>2021-08-21T14:14:33Z</time>
      </trkpt>
      <trkpt lat="2.807309" lon="-75.08547">
        <ele>1500.1</ele>
        <time>2021-08-21T14:14:34Z</time>
      </trkpt>
      <trkpt lat="2.807286" lon="-75.08546">
        <ele>1500.1</ele>
        <time>2021-08-21T14:14:35Z</time>
      </trkpt>
      <trkpt lat="2.807263" lon="-75.08544">
        <ele>1500.1</ele>
        <time>2021-08-21T14:14:36Z</time>
      </trkpt>
      <trkpt lat="2.807239" lon="-75.08543">
        <ele>1500.0</ele>
        <time>2021-08-21T14:14:37Z</time>
      </trkpt>
      <trkpt lat="2.807214" lon="-75.08541">
        <ele>1500.0</ele>
        <time>2021-08-21T14:14:38Z</time>
      </trkpt>
      <trkpt lat="2.807189" lon="-75.085396">
        <ele>1499.9</ele>
        <time>2021-08-21T14:14:39Z</time>
      </trkpt>
      <trkpt lat="2.807161" lon="-75.08538">
        <ele>1499.9</ele>
        <time>2021-08-21T14:14:40Z</time>
      </trkpt>
      <trkpt lat="2.807133" lon="-75.08536">
        <ele>1499.7</ele>
        <time>2021-08-21T14:14:41Z</time>
      </trkpt>
      <trkpt lat="2.807102" lon="-75.085335">
        <ele>1499.6</ele>
        <time>2021-08-21T14:14:42Z</time>
      </trkpt>
      <trkpt lat="2.807071" lon="-75.08531">
        <ele>1499.4</ele>
        <time>2021-08-21T14:14:43Z</time>
      </trkpt>
      <trkpt lat="2.807038" lon="-75.08528">
        <ele>1499.2</ele>
        <time>2021-08-21T14:14:44Z</time>
      </trkpt>
      <trkpt lat="2.807005" lon="-75.08525">
        <ele>1499.0</ele>
        <time>2021-08-21T14:14:45Z</time>
      </trkpt>
      <trkpt lat="2.806971" lon="-75.08522">
        <ele>1498.8</ele>
        <time>2021-08-21T14:14:46Z</time>
      </trkpt>
      <trkpt lat="2.806939" lon="-75.08519">
        <ele>1498.6</ele>
        <time>2021-08-21T14:14:47Z</time>
      </trkpt>
      <trkpt lat="2.806906" lon="-75.08515">
        <ele>1498.4</ele>
        <time>2021-08-21T14:14:48Z</time>
      </trkpt>
      <trkpt lat="2.806876" lon="-75.08512">
        <ele>1498.3</ele>
        <time>2021-08-21T14:14:49Z</time>
      </trkpt>
      <trkpt lat="2.806844" lon="-75.08508">
        <ele>1498.2</ele>
        <time>2021-08-21T14:14:50Z</time>
      </trkpt>
      <trkpt lat="2.80681" lon="-75.08505">
        <ele>1498.1</ele>
        <time>2021-08-21T14:14:51Z</time>
      </trkpt>
      <trkpt lat="2.806773" lon="-75.08503">
        <ele>1498.0</ele>
        <time>2021-08-21T14:14:52Z</time>
      </trkpt>
      <trkpt lat="2.806736" lon="-75.08502">
        <ele>1497.9</ele>
        <time>2021-08-21T14:14:53Z</time>
      </trkpt>
      <trkpt lat="2.8067" lon="-75.085014">
        <ele>1497.9</ele>
        <time>2021-08-21T14:14:54Z</time>
      </trkpt>
      <trkpt lat="2.806667" lon="-75.08501">
        <ele>1497.9</ele>
        <time>2021-08-21T14:14:55Z</time>
      </trkpt>
      <trkpt lat="2.806636" lon="-75.08501">
        <ele>1497.8</ele>
        <time>2021-08-21T14:14:56Z</time>
      </trkpt>
      <trkpt lat="2.806607" lon="-75.08501">
        <ele>1497.8</ele>
        <time>2021-08-21T14:14:57Z</time>
      </trkpt>
      <trkpt lat="2.80658" lon="-75.085">
        <ele>1497.8</ele>
        <time>2021-08-21T14:14:58Z</time>
      </trkpt>
      <trkpt lat="2.806553" lon="-75.085">
        <ele>1497.8</ele>
        <time>2021-08-21T14:14:59Z</time>
      </trkpt>
      <trkpt lat="2.806528" lon="-75.085">
        <ele>1497.8</ele>
        <time>2021-08-21T14:15:00Z</time>
      </trkpt>
      <trkpt lat="2.8065" lon="-75.08499">
        <ele>1497.8</ele>
        <time>2021-08-21T14:15:01Z</time>
      </trkpt>
      <trkpt lat="2.806472" lon="-75.08499">
        <ele>1497.8</ele>
        <time>2021-08-21T14:15:02Z</time>
      </trkpt>
      <trkpt lat="2.806446" lon="-75.084984">
        <ele>1497.8</ele>
        <time>2021-08-21T14:15:03Z</time>
      </trkpt>
      <trkpt lat="2.80642" lon="-75.08498">
        <ele>1497.8</ele>
        <time>2021-08-21T14:15:04Z</time>
      </trkpt>
      <trkpt lat="2.806395" lon="-75.08498">
        <ele>1497.8</ele>
        <time>2021-08-21T14:15:05Z</time>
      </trkpt>
      <trkpt lat="2.806371" lon="-75.08497">
        <ele>1497.8</ele>
        <time>2021-08-21T14:15:06Z</time>
      </trkpt>
      <trkpt lat="2.806349" lon="-75.08496">
        <ele>1497.8</ele>
        <time>2021-08-21T14:15:07Z</time>
      </trkpt>
      <trkpt lat="2.806326" lon="-75.08495">
        <ele>1497.8</ele>
        <time>2021-08-21T14:15:08Z</time>
      </trkpt>
      <trkpt lat="2.806303" lon="-75.084946">
        <ele>1497.8</ele>
        <time>2021-08-21T14:15:09Z</time>
      </trkpt>
      <trkpt lat="2.80628" lon="-75.08494">
        <ele>1497.8</ele>
        <time>2021-08-21T14:15:10Z</time>
      </trkpt>
      <trkpt lat="2.806257" lon="-75.08493">
        <ele>1497.9</ele>
        <time>2021-08-21T14:15:11Z</time>
      </trkpt>
      <trkpt lat="2.806236" lon="-75.08492">
        <ele>1497.9</ele>
        <time>2021-08-21T14:15:12Z</time>
      </trkpt>
      <trkpt lat="2.806214" lon="-75.084915">
        <ele>1498.0</ele>
        <time>2021-08-21T14:15:13Z</time>
      </trkpt>
      <trkpt lat="2.806192" lon="-75.08491">
        <ele>1498.0</ele>
        <time>2021-08-21T14:15:14Z</time>
      </trkpt>
      <trkpt lat="2.806171" lon="-75.08489">
        <ele>1498.0</ele>
        <time>2021-08-21T14:15:15Z</time>
      </trkpt>
      <trkpt lat="2.80615" lon="-75.084885">
        <ele>1498.1</ele>
        <time>2021-08-21T14:15:16Z</time>
      </trkpt>
      <trkpt lat="2.806127" lon="-75.08488">
        <ele>1498.1</ele>
        <time>2021-08-21T14:15:17Z</time>
      </trkpt>
      <trkpt lat="2.806105" lon="-75.08487">
        <ele>1498.2</ele>
        <time>2021-08-21T14:15:18Z</time>
      </trkpt>
      <trkpt lat="2.806083" lon="-75.084854">
        <ele>1498.2</ele>
        <time>2021-08-21T14:15:19Z</time>
      </trkpt>
      <trkpt lat="2.806061" lon="-75.08485">
        <ele>1498.3</ele>
        <time>2021-08-21T14:15:20Z</time>
      </trkpt>
      <trkpt lat="2.806039" lon="-75.08483">
        <ele>1498.3</ele>
        <time>2021-08-21T14:15:21Z</time>
      </trkpt>
      <trkpt lat="2.806017" lon="-75.084816">
        <ele>1498.4</ele>
        <time>2021-08-21T14:15:22Z</time>
      </trkpt>
      <trkpt lat="2.805995" lon="-75.0848">
        <ele>1498.4</ele>
        <time>2021-08-21T14:15:23Z</time>
      </trkpt>
      <trkpt lat="2.805973" lon="-75.084785">
        <ele>1498.5</ele>
        <time>2021-08-21T14:15:24Z</time>
      </trkpt>
      <trkpt lat="2.80595" lon="-75.08478">
        <ele>1498.6</ele>
        <time>2021-08-21T14:15:25Z</time>
      </trkpt>
      <trkpt lat="2.805926" lon="-75.08476">
        <ele>1498.6</ele>
        <time>2021-08-21T14:15:26Z</time>
      </trkpt>
      <trkpt lat="2.805902" lon="-75.08475">
        <ele>1498.7</ele>
        <time>2021-08-21T14:15:27Z</time>
      </trkpt>
      <trkpt lat="2.805879" lon="-75.08474">
        <ele>1498.7</ele>
        <time>2021-08-21T14:15:28Z</time>
      </trkpt>
      <trkpt lat="2.805855" lon="-75.084724">
        <ele>1498.8</ele>
        <time>2021-08-21T14:15:29Z</time>
      </trkpt>
      <trkpt lat="2.805832" lon="-75.08471">
        <ele>1498.8</ele>
        <time>2021-08-21T14:15:30Z</time>
      </trkpt>
      <trkpt lat="2.805808" lon="-75.0847">
        <ele>1498.9</ele>
        <time>2021-08-21T14:15:31Z</time>
      </trkpt>
      <trkpt lat="2.805784" lon="-75.08469">
        <ele>1498.9</ele>
        <time>2021-08-21T14:15:32Z</time>
      </trkpt>
      <trkpt lat="2.805759" lon="-75.08468">
        <ele>1499.0</ele>
        <time>2021-08-21T14:15:33Z</time>
      </trkpt>
      <trkpt lat="2.805734" lon="-75.08466">
        <ele>1499.0</ele>
        <time>2021-08-21T14:15:34Z</time>
      </trkpt>
      <trkpt lat="2.805709" lon="-75.084656">
        <ele>1499.0</ele>
        <time>2021-08-21T14:15:35Z</time>
      </trkpt>
      <trkpt lat="2.805684" lon="-75.08464">
        <ele>1499.1</ele>
        <time>2021-08-21T14:15:36Z</time>
      </trkpt>
      <trkpt lat="2.80566" lon="-75.08463">
        <ele>1499.1</ele>
        <time>2021-08-21T14:15:37Z</time>
      </trkpt>
      <trkpt lat="2.805637" lon="-75.08462">
        <ele>1499.1</ele>
        <time>2021-08-21T14:15:38Z</time>
      </trkpt>
      <trkpt lat="2.805614" lon="-75.08461">
        <ele>1499.2</ele>
        <time>2021-08-21T14:15:39Z</time>
      </trkpt>
      <trkpt lat="2.805592" lon="-75.084595">
        <ele>1499.2</ele>
        <time>2021-08-21T14:15:40Z</time>
      </trkpt>
      <trkpt lat="2.80557" lon="-75.08458">
        <ele>1499.2</ele>
        <time>2021-08-21T14:15:41Z</time>
      </trkpt>
      <trkpt lat="2.805548" lon="-75.08457">
        <ele>1499.2</ele>
        <time>2021-08-21T14:15:42Z</time>
      </trkpt>
      <trkpt lat="2.805525" lon="-75.08456">
        <ele>1499.2</ele>
        <time>2021-08-21T14:15:43Z</time>
      </trkpt>
      <trkpt lat="2.805502" lon="-75.08455">
        <ele>1499.3</ele>
        <time>2021-08-21T14:15:44Z</time>
      </trkpt>
      <trkpt lat="2.805479" lon="-75.08454">
        <ele>1499.3</ele>
        <time>2021-08-21T14:15:45Z</time>
      </trkpt>
      <trkpt lat="2.805455" lon="-75.08453">
        <ele>1499.3</ele>
        <time>2021-08-21T14:15:46Z</time>
      </trkpt>
      <trkpt lat="2.80543" lon="-75.08452">
        <ele>1499.3</ele>
        <time>2021-08-21T14:15:47Z</time>
      </trkpt>
      <trkpt lat="2.805404" lon="-75.08451">
        <ele>1499.3</ele>
        <time>2021-08-21T14:15:48Z</time>
      </trkpt>
      <trkpt lat="2.805377" lon="-75.0845">
        <ele>1499.3</ele>
        <time>2021-08-21T14:15:49Z</time>
      </trkpt>
      <trkpt lat="2.805349" lon="-75.084496">
        <ele>1499.3</ele>
        <time>2021-08-21T14:15:50Z</time>
      </trkpt>
      <trkpt lat="2.80532" lon="-75.08449">
        <ele>1499.3</ele>
        <time>2021-08-21T14:15:51Z</time>
      </trkpt>
      <trkpt lat="2.805289" lon="-75.08448">
        <ele>1499.3</ele>
        <time>2021-08-21T14:15:52Z</time>
      </trkpt>
      <trkpt lat="2.805258" lon="-75.08448">
        <ele>1499.3</ele>
        <time>2021-08-21T14:15:53Z</time>
      </trkpt>
      <trkpt lat="2.805228" lon="-75.08447">
        <ele>1499.2</ele>
        <time>2021-08-21T14:15:54Z</time>
      </trkpt>
      <trkpt lat="2.805198" lon="-75.08447">
        <ele>1499.2</ele>
        <time>2021-08-21T14:15:55Z</time>
      </trkpt>
      <trkpt lat="2.805168" lon="-75.08447">
        <ele>1499.2</ele>
        <time>2021-08-21T14:15:56Z</time>
      </trkpt>
      <trkpt lat="2.80514" lon="-75.08447">
        <ele>1499.2</ele>
        <time>2021-08-21T14:15:57Z</time>
      </trkpt>
      <trkpt lat="2.805113" lon="-75.084465">
        <ele>1499.1</ele>
        <time>2021-08-21T14:15:58Z</time>
      </trkpt>
      <trkpt lat="2.805086" lon="-75.08446">
        <ele>1499.1</ele>
        <time>2021-08-21T14:15:59Z</time>
      </trkpt>
      <trkpt lat="2.805058" lon="-75.08445">
        <ele>1499.1</ele>
        <time>2021-08-21T14:16:00Z</time>
      </trkpt>
      <trkpt lat="2.805031" lon="-75.08445">
        <ele>1499.0</ele>
        <time>2021-08-21T14:16:01Z</time>
      </trkpt>
      <trkpt lat="2.805002" lon="-75.08444">
        <ele>1499.0</ele>
        <time>2021-08-21T14:16:02Z</time>
      </trkpt>
      <trkpt lat="2.804973" lon="-75.084435">
        <ele>1499.0</ele>
        <time>2021-08-21T14:16:03Z</time>
      </trkpt>
      <trkpt lat="2.804944" lon="-75.08443">
        <ele>1499.0</ele>
        <time>2021-08-21T14:16:04Z</time>
      </trkpt>
      <trkpt lat="2.804915" lon="-75.08442">
        <ele>1499.0</ele>
        <time>2021-08-21T14:16:05Z</time>
      </trkpt>
      <trkpt lat="2.804886" lon="-75.08441">
        <ele>1499.0</ele>
        <time>2021-08-21T14:16:06Z</time>
      </trkpt>
      <trkpt lat="2.804828" lon="-75.0844">
        <ele>1499.0</ele>
        <time>2021-08-21T14:16:07Z</time>
      </trkpt>
      <trkpt lat="2.804857" lon="-75.084404">
        <ele>1499.0</ele>
        <time>2021-08-21T14:16:07Z</time>
      </trkpt>
      <trkpt lat="2.804797" lon="-75.08439">
        <ele>1499.0</ele>
        <time>2021-08-21T14:16:08Z</time>
      </trkpt>
      <trkpt lat="2.804767" lon="-75.08438">
        <ele>1499.0</ele>
        <time>2021-08-21T14:16:09Z</time>
      </trkpt>
      <trkpt lat="2.804736" lon="-75.08438">
        <ele>1499.0</ele>
        <time>2021-08-21T14:16:10Z</time>
      </trkpt>
      <trkpt lat="2.804705" lon="-75.08438">
        <ele>1499.0</ele>
        <time>2021-08-21T14:16:11Z</time>
      </trkpt>
      <trkpt lat="2.804676" lon="-75.08437">
        <ele>1499.0</ele>
        <time>2021-08-21T14:16:12Z</time>
      </trkpt>
      <trkpt lat="2.804648" lon="-75.08437">
        <ele>1499.1</ele>
        <time>2021-08-21T14:16:13Z</time>
      </trkpt>
      <trkpt lat="2.804621" lon="-75.08437">
        <ele>1499.1</ele>
        <time>2021-08-21T14:16:14Z</time>
      </trkpt>
      <trkpt lat="2.804595" lon="-75.084366">
        <ele>1499.1</ele>
        <time>2021-08-21T14:16:15Z</time>
      </trkpt>
      <trkpt lat="2.804569" lon="-75.084366">
        <ele>1499.1</ele>
        <time>2021-08-21T14:16:16Z</time>
      </trkpt>
      <trkpt lat="2.804544" lon="-75.084366">
        <ele>1499.1</ele>
        <time>2021-08-21T14:16:17Z</time>
      </trkpt>
      <trkpt lat="2.804518" lon="-75.08436">
        <ele>1499.2</ele>
        <time>2021-08-21T14:16:18Z</time>
      </trkpt>
      <trkpt lat="2.804493" lon="-75.08436">
        <ele>1499.2</ele>
        <time>2021-08-21T14:16:19Z</time>
      </trkpt>
      <trkpt lat="2.804468" lon="-75.08436">
        <ele>1499.2</ele>
        <time>2021-08-21T14:16:20Z</time>
      </trkpt>
      <trkpt lat="2.804444" lon="-75.08436">
        <ele>1499.3</ele>
        <time>2021-08-21T14:16:21Z</time>
      </trkpt>
      <trkpt lat="2.804422" lon="-75.08436">
        <ele>1499.3</ele>
        <time>2021-08-21T14:16:22Z</time>
      </trkpt>
      <trkpt lat="2.804399" lon="-75.08436">
        <ele>1499.4</ele>
        <time>2021-08-21T14:16:23Z</time>
      </trkpt>
      <trkpt lat="2.804374" lon="-75.08435">
        <ele>1499.4</ele>
        <time>2021-08-21T14:16:24Z</time>
      </trkpt>
      <trkpt lat="2.80435" lon="-75.08435">
        <ele>1499.5</ele>
        <time>2021-08-21T14:16:25Z</time>
      </trkpt>
      <trkpt lat="2.804326" lon="-75.08434">
        <ele>1499.5</ele>
        <time>2021-08-21T14:16:26Z</time>
      </trkpt>
      <trkpt lat="2.804305" lon="-75.084335">
        <ele>1499.6</ele>
        <time>2021-08-21T14:16:27Z</time>
      </trkpt>
      <trkpt lat="2.804285" lon="-75.08433">
        <ele>1499.6</ele>
        <time>2021-08-21T14:16:28Z</time>
      </trkpt>
      <trkpt lat="2.804263" lon="-75.08432">
        <ele>1499.7</ele>
        <time>2021-08-21T14:16:29Z</time>
      </trkpt>
      <trkpt lat="2.804241" lon="-75.084305">
        <ele>1499.8</ele>
        <time>2021-08-21T14:16:30Z</time>
      </trkpt>
      <trkpt lat="2.80422" lon="-75.0843">
        <ele>1499.8</ele>
        <time>2021-08-21T14:16:31Z</time>
      </trkpt>
      <trkpt lat="2.804202" lon="-75.08428">
        <ele>1499.9</ele>
        <time>2021-08-21T14:16:32Z</time>
      </trkpt>
      <trkpt lat="2.804181" lon="-75.084274">
        <ele>1500.0</ele>
        <time>2021-08-21T14:16:33Z</time>
      </trkpt>
      <trkpt lat="2.80416" lon="-75.08426">
        <ele>1500.1</ele>
        <time>2021-08-21T14:16:34Z</time>
      </trkpt>
      <trkpt lat="2.80414" lon="-75.08424">
        <ele>1500.2</ele>
        <time>2021-08-21T14:16:35Z</time>
      </trkpt>
      <trkpt lat="2.804122" lon="-75.084236">
        <ele>1500.3</ele>
        <time>2021-08-21T14:16:36Z</time>
      </trkpt>
      <trkpt lat="2.804103" lon="-75.08422">
        <ele>1500.3</ele>
        <time>2021-08-21T14:16:37Z</time>
      </trkpt>
      <trkpt lat="2.804086" lon="-75.084206">
        <ele>1500.4</ele>
        <time>2021-08-21T14:16:38Z</time>
      </trkpt>
      <trkpt lat="2.804069" lon="-75.0842">
        <ele>1500.5</ele>
        <time>2021-08-21T14:16:39Z</time>
      </trkpt>
      <trkpt lat="2.804052" lon="-75.08418">
        <ele>1500.6</ele>
        <time>2021-08-21T14:16:40Z</time>
      </trkpt>
      <trkpt lat="2.804037" lon="-75.08417">
        <ele>1500.7</ele>
        <time>2021-08-21T14:16:41Z</time>
      </trkpt>
      <trkpt lat="2.804021" lon="-75.08415">
        <ele>1500.8</ele>
        <time>2021-08-21T14:16:42Z</time>
      </trkpt>
      <trkpt lat="2.804004" lon="-75.08414">
        <ele>1500.8</ele>
        <time>2021-08-21T14:16:43Z</time>
      </trkpt>
      <trkpt lat="2.803987" lon="-75.08412">
        <ele>1500.9</ele>
        <time>2021-08-21T14:16:44Z</time>
      </trkpt>
      <trkpt lat="2.80397" lon="-75.084114">
        <ele>1501.0</ele>
        <time>2021-08-21T14:16:45Z</time>
      </trkpt>
      <trkpt lat="2.803953" lon="-75.0841">
        <ele>1501.1</ele>
        <time>2021-08-21T14:16:46Z</time>
      </trkpt>
      <trkpt lat="2.803938" lon="-75.08409">
        <ele>1501.1</ele>
        <time>2021-08-21T14:16:47Z</time>
      </trkpt>
      <trkpt lat="2.803922" lon="-75.08408">
        <ele>1501.2</ele>
        <time>2021-08-21T14:16:48Z</time>
      </trkpt>
      <trkpt lat="2.803906" lon="-75.08407">
        <ele>1501.3</ele>
        <time>2021-08-21T14:16:49Z</time>
      </trkpt>
      <trkpt lat="2.803888" lon="-75.08406">
        <ele>1501.4</ele>
        <time>2021-08-21T14:16:50Z</time>
      </trkpt>
      <trkpt lat="2.803871" lon="-75.08405">
        <ele>1501.4</ele>
        <time>2021-08-21T14:16:51Z</time>
      </trkpt>
      <trkpt lat="2.803851" lon="-75.084045">
        <ele>1501.5</ele>
        <time>2021-08-21T14:16:52Z</time>
      </trkpt>
      <trkpt lat="2.803832" lon="-75.08404">
        <ele>1501.6</ele>
        <time>2021-08-21T14:16:53Z</time>
      </trkpt>
      <trkpt lat="2.803814" lon="-75.08403">
        <ele>1501.7</ele>
        <time>2021-08-21T14:16:54Z</time>
      </trkpt>
      <trkpt lat="2.803796" lon="-75.08402">
        <ele>1501.8</ele>
        <time>2021-08-21T14:16:55Z</time>
      </trkpt>
      <trkpt lat="2.803775" lon="-75.084015">
        <ele>1501.9</ele>
        <time>2021-08-21T14:16:56Z</time>
      </trkpt>
      <trkpt lat="2.803754" lon="-75.08401">
        <ele>1502.0</ele>
        <time>2021-08-21T14:16:57Z</time>
      </trkpt>
      <trkpt lat="2.803734" lon="-75.084">
        <ele>1502.1</ele>
        <time>2021-08-21T14:16:58Z</time>
      </trkpt>
      <trkpt lat="2.803714" lon="-75.08399">
        <ele>1502.1</ele>
        <time>2021-08-21T14:16:59Z</time>
      </trkpt>
      <trkpt lat="2.803693" lon="-75.083984">
        <ele>1502.2</ele>
        <time>2021-08-21T14:17:00Z</time>
      </trkpt>
      <trkpt lat="2.803671" lon="-75.08398">
        <ele>1502.3</ele>
        <time>2021-08-21T14:17:01Z</time>
      </trkpt>
      <trkpt lat="2.80365" lon="-75.08397">
        <ele>1502.4</ele>
        <time>2021-08-21T14:17:02Z</time>
      </trkpt>
      <trkpt lat="2.803628" lon="-75.08396">
        <ele>1502.5</ele>
        <time>2021-08-21T14:17:03Z</time>
      </trkpt>
      <trkpt lat="2.803607" lon="-75.083954">
        <ele>1502.6</ele>
        <time>2021-08-21T14:17:04Z</time>
      </trkpt>
      <trkpt lat="2.803586" lon="-75.08395">
        <ele>1502.7</ele>
        <time>2021-08-21T14:17:05Z</time>
      </trkpt>
      <trkpt lat="2.803566" lon="-75.08395">
        <ele>1502.8</ele>
        <time>2021-08-21T14:17:06Z</time>
      </trkpt>
      <trkpt lat="2.803546" lon="-75.08394">
        <ele>1502.9</ele>
        <time>2021-08-21T14:17:07Z</time>
      </trkpt>
      <trkpt lat="2.803526" lon="-75.08394">
        <ele>1502.9</ele>
        <time>2021-08-21T14:17:08Z</time>
      </trkpt>
      <trkpt lat="2.803507" lon="-75.08394">
        <ele>1503.0</ele>
        <time>2021-08-21T14:17:09Z</time>
      </trkpt>
      <trkpt lat="2.803488" lon="-75.08393">
        <ele>1503.1</ele>
        <time>2021-08-21T14:17:10Z</time>
      </trkpt>
      <trkpt lat="2.803471" lon="-75.08393">
        <ele>1503.1</ele>
        <time>2021-08-21T14:17:11Z</time>
      </trkpt>
      <trkpt lat="2.803458" lon="-75.08393">
        <ele>1503.2</ele>
        <time>2021-08-21T14:17:13Z</time>
      </trkpt>
      <trkpt lat="2.803429" lon="-75.08392">
        <ele>1503.3</ele>
        <time>2021-08-21T14:17:16Z</time>
      </trkpt>
      <trkpt lat="2.803494" lon="-75.08395">
        <ele>1503.5</ele>
        <time>2021-08-21T14:18:14Z</time>
      </trkpt>
      <trkpt lat="2.803496" lon="-75.08395">
        <ele>1503.5</ele>
        <time>2021-08-21T14:18:15Z</time>
      </trkpt>
      <trkpt lat="2.803495" lon="-75.08395">
        <ele>1503.5</ele>
        <time>2021-08-21T14:18:16Z</time>
      </trkpt>
      <trkpt lat="2.803492" lon="-75.08395">
        <ele>1503.5</ele>
        <time>2021-08-21T14:18:17Z</time>
      </trkpt>
      <trkpt lat="2.803488" lon="-75.08395">
        <ele>1503.5</ele>
        <time>2021-08-21T14:18:18Z</time>
      </trkpt>
      <trkpt lat="2.803485" lon="-75.08394">
        <ele>1503.5</ele>
        <time>2021-08-21T14:18:19Z</time>
      </trkpt>
      <trkpt lat="2.803482" lon="-75.08394">
        <ele>1503.6</ele>
        <time>2021-08-21T14:18:20Z</time>
      </trkpt>
      <trkpt lat="2.803479" lon="-75.083824">
        <ele>1503.9</ele>
        <time>2021-08-21T14:18:36Z</time>
      </trkpt>
      <trkpt lat="2.803481" lon="-75.08382">
        <ele>1503.9</ele>
        <time>2021-08-21T14:18:37Z</time>
      </trkpt>
      <trkpt lat="2.803484" lon="-75.08382">
        <ele>1503.9</ele>
        <time>2021-08-21T14:18:38Z</time>
      </trkpt>
      <trkpt lat="2.803487" lon="-75.08382">
        <ele>1503.9</ele>
        <time>2021-08-21T14:18:39Z</time>
      </trkpt>
      <trkpt lat="2.803489" lon="-75.08381">
        <ele>1503.9</ele>
        <time>2021-08-21T14:18:40Z</time>
      </trkpt>
      <trkpt lat="2.80349" lon="-75.08382">
        <ele>1503.9</ele>
        <time>2021-08-21T14:18:41Z</time>
      </trkpt>
      <trkpt lat="2.80349" lon="-75.083824">
        <ele>1504.0</ele>
        <time>2021-08-21T14:18:42Z</time>
      </trkpt>
      <trkpt lat="2.803485" lon="-75.08383">
        <ele>1504.0</ele>
        <time>2021-08-21T14:18:43Z</time>
      </trkpt>
      <trkpt lat="2.803486" lon="-75.08383">
        <ele>1504.0</ele>
        <time>2021-08-21T14:18:44Z</time>
      </trkpt>
      <trkpt lat="2.803486" lon="-75.08383">
        <ele>1504.0</ele>
        <time>2021-08-21T14:18:45Z</time>
      </trkpt>
      <trkpt lat="2.803479" lon="-75.083824">
        <ele>1504.0</ele>
        <time>2021-08-21T14:18:46Z</time>
      </trkpt>
      <trkpt lat="2.803477" lon="-75.083824">
        <ele>1504.0</ele>
        <time>2021-08-21T14:18:47Z</time>
      </trkpt>
      <trkpt lat="2.803476" lon="-75.083824">
        <ele>1504.0</ele>
        <time>2021-08-21T14:18:48Z</time>
      </trkpt>
      <trkpt lat="2.803468" lon="-75.08384">
        <ele>1504.1</ele>
        <time>2021-08-21T14:19:02Z</time>
      </trkpt>
      <trkpt lat="2.80347" lon="-75.08384">
        <ele>1504.1</ele>
        <time>2021-08-21T14:19:03Z</time>
      </trkpt>
      <trkpt lat="2.803475" lon="-75.08385">
        <ele>1504.1</ele>
        <time>2021-08-21T14:19:04Z</time>
      </trkpt>
      <trkpt lat="2.80348" lon="-75.083855">
        <ele>1504.1</ele>
        <time>2021-08-21T14:19:05Z</time>
      </trkpt>
      <trkpt lat="2.803485" lon="-75.08387">
        <ele>1504.2</ele>
        <time>2021-08-21T14:19:06Z</time>
      </trkpt>
      <trkpt lat="2.803491" lon="-75.08388">
        <ele>1504.2</ele>
        <time>2021-08-21T14:19:07Z</time>
      </trkpt>
      <trkpt lat="2.803503" lon="-75.083885">
        <ele>1504.2</ele>
        <time>2021-08-21T14:19:08Z</time>
      </trkpt>
      <trkpt lat="2.803523" lon="-75.08389">
        <ele>1504.3</ele>
        <time>2021-08-21T14:19:09Z</time>
      </trkpt>
      <trkpt lat="2.803528" lon="-75.08389">
        <ele>1504.3</ele>
        <time>2021-08-21T14:19:10Z</time>
      </trkpt>
      <trkpt lat="2.80353" lon="-75.083885">
        <ele>1504.3</ele>
        <time>2021-08-21T14:19:11Z</time>
      </trkpt>
      <trkpt lat="2.803521" lon="-75.08388">
        <ele>1504.3</ele>
        <time>2021-08-21T14:19:12Z</time>
      </trkpt>
      <trkpt lat="2.80351" lon="-75.08388">
        <ele>1504.4</ele>
        <time>2021-08-21T14:19:13Z</time>
      </trkpt>
      <trkpt lat="2.803498" lon="-75.08388">
        <ele>1504.4</ele>
        <time>2021-08-21T14:19:14Z</time>
      </trkpt>
      <trkpt lat="2.803489" lon="-75.08388">
        <ele>1504.4</ele>
        <time>2021-08-21T14:19:15Z</time>
      </trkpt>
      <trkpt lat="2.803482" lon="-75.08388">
        <ele>1504.4</ele>
        <time>2021-08-21T14:19:16Z</time>
      </trkpt>
      <trkpt lat="2.803479" lon="-75.08388">
        <ele>1504.4</ele>
        <time>2021-08-21T14:19:17Z</time>
      </trkpt>
      <trkpt lat="2.803478" lon="-75.08387">
        <ele>1504.4</ele>
        <time>2021-08-21T14:19:18Z</time>
      </trkpt>
      <trkpt lat="2.803489" lon="-75.08378">
        <ele>1504.7</ele>
        <time>2021-08-21T14:24:43Z</time>
      </trkpt>
      <trkpt lat="2.803489" lon="-75.08378">
        <ele>1504.7</ele>
        <time>2021-08-21T14:24:44Z</time>
      </trkpt>
      <trkpt lat="2.803489" lon="-75.08378">
        <ele>1504.7</ele>
        <time>2021-08-21T14:24:45Z</time>
      </trkpt>
      <trkpt lat="2.803486" lon="-75.08378">
        <ele>1504.7</ele>
        <time>2021-08-21T14:24:47Z</time>
      </trkpt>
      <trkpt lat="2.803485" lon="-75.08378">
        <ele>1504.7</ele>
        <time>2021-08-21T14:24:48Z</time>
      </trkpt>
      <trkpt lat="2.803489" lon="-75.08378">
        <ele>1504.7</ele>
        <time>2021-08-21T14:24:51Z</time>
      </trkpt>
      <trkpt lat="2.80349" lon="-75.08378">
        <ele>1504.7</ele>
        <time>2021-08-21T14:24:52Z</time>
      </trkpt>
      <trkpt lat="2.803436" lon="-75.08378">
        <ele>1504.9</ele>
        <time>2021-08-21T14:26:21Z</time>
      </trkpt>
      <trkpt lat="2.803435" lon="-75.08378">
        <ele>1504.9</ele>
        <time>2021-08-21T14:26:22Z</time>
      </trkpt>
      <trkpt lat="2.803444" lon="-75.08378">
        <ele>1504.9</ele>
        <time>2021-08-21T14:26:24Z</time>
      </trkpt>
      <trkpt lat="2.803446" lon="-75.08378">
        <ele>1505.0</ele>
        <time>2021-08-21T14:26:25Z</time>
      </trkpt>
      <trkpt lat="2.803443" lon="-75.08378">
        <ele>1505.0</ele>
        <time>2021-08-21T14:26:26Z</time>
      </trkpt>
      <trkpt lat="2.803441" lon="-75.08378">
        <ele>1505.0</ele>
        <time>2021-08-21T14:26:27Z</time>
      </trkpt>
      <trkpt lat="2.803439" lon="-75.08377">
        <ele>1505.0</ele>
        <time>2021-08-21T14:26:28Z</time>
      </trkpt>
      <trkpt lat="2.803431" lon="-75.08377">
        <ele>1505.0</ele>
        <time>2021-08-21T14:26:31Z</time>
      </trkpt>
      <trkpt lat="2.803354" lon="-75.083786">
        <ele>1505.3</ele>
        <time>2021-08-21T14:28:27Z</time>
      </trkpt>
      <trkpt lat="2.803348" lon="-75.083786">
        <ele>1505.3</ele>
        <time>2021-08-21T14:28:28Z</time>
      </trkpt>
      <trkpt lat="2.803332" lon="-75.083786">
        <ele>1505.4</ele>
        <time>2021-08-21T14:28:29Z</time>
      </trkpt>
      <trkpt lat="2.803313" lon="-75.08378">
        <ele>1505.5</ele>
        <time>2021-08-21T14:28:30Z</time>
      </trkpt>
      <trkpt lat="2.80329" lon="-75.08377">
        <ele>1505.6</ele>
        <time>2021-08-21T14:28:31Z</time>
      </trkpt>
      <trkpt lat="2.803267" lon="-75.08376">
        <ele>1505.7</ele>
        <time>2021-08-21T14:28:32Z</time>
      </trkpt>
      <trkpt lat="2.803243" lon="-75.083755">
        <ele>1505.9</ele>
        <time>2021-08-21T14:28:33Z</time>
      </trkpt>
      <trkpt lat="2.803219" lon="-75.08375">
        <ele>1506.0</ele>
        <time>2021-08-21T14:28:34Z</time>
      </trkpt>
      <trkpt lat="2.803194" lon="-75.08374">
        <ele>1506.1</ele>
        <time>2021-08-21T14:28:35Z</time>
      </trkpt>
      <trkpt lat="2.80317" lon="-75.08373">
        <ele>1506.2</ele>
        <time>2021-08-21T14:28:36Z</time>
      </trkpt>
      <trkpt lat="2.803145" lon="-75.083725">
        <ele>1506.4</ele>
        <time>2021-08-21T14:28:37Z</time>
      </trkpt>
      <trkpt lat="2.803123" lon="-75.08372">
        <ele>1506.5</ele>
        <time>2021-08-21T14:28:38Z</time>
      </trkpt>
      <trkpt lat="2.803102" lon="-75.08371">
        <ele>1506.6</ele>
        <time>2021-08-21T14:28:39Z</time>
      </trkpt>
      <trkpt lat="2.80308" lon="-75.0837">
        <ele>1506.7</ele>
        <time>2021-08-21T14:28:40Z</time>
      </trkpt>
      <trkpt lat="2.803058" lon="-75.08369">
        <ele>1506.8</ele>
        <time>2021-08-21T14:28:41Z</time>
      </trkpt>
      <trkpt lat="2.803036" lon="-75.08368">
        <ele>1507.0</ele>
        <time>2021-08-21T14:28:42Z</time>
      </trkpt>
      <trkpt lat="2.803014" lon="-75.08367">
        <ele>1507.1</ele>
        <time>2021-08-21T14:28:43Z</time>
      </trkpt>
      <trkpt lat="2.802993" lon="-75.083664">
        <ele>1507.2</ele>
        <time>2021-08-21T14:28:44Z</time>
      </trkpt>
      <trkpt lat="2.802972" lon="-75.08366">
        <ele>1507.4</ele>
        <time>2021-08-21T14:28:45Z</time>
      </trkpt>
      <trkpt lat="2.802951" lon="-75.08365">
        <ele>1507.5</ele>
        <time>2021-08-21T14:28:46Z</time>
      </trkpt>
      <trkpt lat="2.802911" lon="-75.083626">
        <ele>1507.7</ele>
        <time>2021-08-21T14:28:48Z</time>
      </trkpt>
      <trkpt lat="2.802921" lon="-75.08363">
        <ele>1507.7</ele>
        <time>2021-08-21T14:28:48Z</time>
      </trkpt>
      <trkpt lat="2.802892" lon="-75.08362">
        <ele>1507.9</ele>
        <time>2021-08-21T14:28:49Z</time>
      </trkpt>
      <trkpt lat="2.802876" lon="-75.0836">
        <ele>1508.0</ele>
        <time>2021-08-21T14:28:50Z</time>
      </trkpt>
      <trkpt lat="2.802859" lon="-75.083595">
        <ele>1508.1</ele>
        <time>2021-08-21T14:28:51Z</time>
      </trkpt>
      <trkpt lat="2.802826" lon="-75.08357">
        <ele>1508.3</ele>
        <time>2021-08-21T14:28:52Z</time>
      </trkpt>
      <trkpt lat="2.802843" lon="-75.08358">
        <ele>1508.2</ele>
        <time>2021-08-21T14:28:52Z</time>
      </trkpt>
      <trkpt lat="2.80281" lon="-75.08356">
        <ele>1508.4</ele>
        <time>2021-08-21T14:28:53Z</time>
      </trkpt>
      <trkpt lat="2.802794" lon="-75.08354">
        <ele>1508.5</ele>
        <time>2021-08-21T14:28:54Z</time>
      </trkpt>
      <trkpt lat="2.802779" lon="-75.083534">
        <ele>1508.6</ele>
        <time>2021-08-21T14:28:55Z</time>
      </trkpt>
      <trkpt lat="2.802764" lon="-75.08351">
        <ele>1508.7</ele>
        <time>2021-08-21T14:28:56Z</time>
      </trkpt>
      <trkpt lat="2.802749" lon="-75.083496">
        <ele>1508.8</ele>
        <time>2021-08-21T14:28:57Z</time>
      </trkpt>
      <trkpt lat="2.802736" lon="-75.08348">
        <ele>1508.9</ele>
        <time>2021-08-21T14:28:58Z</time>
      </trkpt>
      <trkpt lat="2.802722" lon="-75.083466">
        <ele>1509.0</ele>
        <time>2021-08-21T14:28:59Z</time>
      </trkpt>
      <trkpt lat="2.802708" lon="-75.08345">
        <ele>1509.1</ele>
        <time>2021-08-21T14:29:00Z</time>
      </trkpt>
      <trkpt lat="2.802694" lon="-75.083435">
        <ele>1509.2</ele>
        <time>2021-08-21T14:29:01Z</time>
      </trkpt>
      <trkpt lat="2.80268" lon="-75.08342">
        <ele>1509.3</ele>
        <time>2021-08-21T14:29:02Z</time>
      </trkpt>
      <trkpt lat="2.802666" lon="-75.083405">
        <ele>1509.4</ele>
        <time>2021-08-21T14:29:03Z</time>
      </trkpt>
      <trkpt lat="2.802652" lon="-75.08339">
        <ele>1509.5</ele>
        <time>2021-08-21T14:29:04Z</time>
      </trkpt>
      <trkpt lat="2.802639" lon="-75.083374">
        <ele>1509.6</ele>
        <time>2021-08-21T14:29:05Z</time>
      </trkpt>
      <trkpt lat="2.802627" lon="-75.08336">
        <ele>1509.7</ele>
        <time>2021-08-21T14:29:06Z</time>
      </trkpt>
      <trkpt lat="2.802615" lon="-75.083336">
        <ele>1509.7</ele>
        <time>2021-08-21T14:29:07Z</time>
      </trkpt>
      <trkpt lat="2.802603" lon="-75.08332">
        <ele>1509.8</ele>
        <time>2021-08-21T14:29:08Z</time>
      </trkpt>
      <trkpt lat="2.80259" lon="-75.083305">
        <ele>1509.9</ele>
        <time>2021-08-21T14:29:09Z</time>
      </trkpt>
      <trkpt lat="2.802577" lon="-75.08329">
        <ele>1510.0</ele>
        <time>2021-08-21T14:29:10Z</time>
      </trkpt>
      <trkpt lat="2.802563" lon="-75.083275">
        <ele>1510.1</ele>
        <time>2021-08-21T14:29:11Z</time>
      </trkpt>
      <trkpt lat="2.802501" lon="-75.08321">
        <ele>1510.5</ele>
        <time>2021-08-21T14:29:13Z</time>
      </trkpt>
      <trkpt lat="2.802497" lon="-75.08321">
        <ele>1510.6</ele>
        <time>2021-08-21T14:29:14Z</time>
      </trkpt>
      <trkpt lat="2.802488" lon="-75.083206">
        <ele>1510.6</ele>
        <time>2021-08-21T14:29:15Z</time>
      </trkpt>
      <trkpt lat="2.802477" lon="-75.0832">
        <ele>1510.7</ele>
        <time>2021-08-21T14:29:16Z</time>
      </trkpt>
      <trkpt lat="2.802465" lon="-75.08319">
        <ele>1510.8</ele>
        <time>2021-08-21T14:29:17Z</time>
      </trkpt>
      <trkpt lat="2.802452" lon="-75.083176">
        <ele>1510.8</ele>
        <time>2021-08-21T14:29:18Z</time>
      </trkpt>
      <trkpt lat="2.802438" lon="-75.08317">
        <ele>1510.9</ele>
        <time>2021-08-21T14:29:19Z</time>
      </trkpt>
      <trkpt lat="2.802423" lon="-75.08316">
        <ele>1511.0</ele>
        <time>2021-08-21T14:29:20Z</time>
      </trkpt>
      <trkpt lat="2.802407" lon="-75.083145">
        <ele>1511.1</ele>
        <time>2021-08-21T14:29:21Z</time>
      </trkpt>
      <trkpt lat="2.802391" lon="-75.08314">
        <ele>1511.2</ele>
        <time>2021-08-21T14:29:22Z</time>
      </trkpt>
      <trkpt lat="2.802376" lon="-75.08312">
        <ele>1511.3</ele>
        <time>2021-08-21T14:29:23Z</time>
      </trkpt>
      <trkpt lat="2.80236" lon="-75.083115">
        <ele>1511.4</ele>
        <time>2021-08-21T14:29:24Z</time>
      </trkpt>
      <trkpt lat="2.802346" lon="-75.0831">
        <ele>1511.5</ele>
        <time>2021-08-21T14:29:25Z</time>
      </trkpt>
      <trkpt lat="2.802332" lon="-75.083084">
        <ele>1511.6</ele>
        <time>2021-08-21T14:29:26Z</time>
      </trkpt>
      <trkpt lat="2.802316" lon="-75.08308">
        <ele>1511.7</ele>
        <time>2021-08-21T14:29:27Z</time>
      </trkpt>
      <trkpt lat="2.802299" lon="-75.08306">
        <ele>1511.8</ele>
        <time>2021-08-21T14:29:28Z</time>
      </trkpt>
      <trkpt lat="2.802283" lon="-75.083046">
        <ele>1511.9</ele>
        <time>2021-08-21T14:29:29Z</time>
      </trkpt>
      <trkpt lat="2.802267" lon="-75.08304">
        <ele>1512.0</ele>
        <time>2021-08-21T14:29:30Z</time>
      </trkpt>
      <trkpt lat="2.802251" lon="-75.08303">
        <ele>1512.1</ele>
        <time>2021-08-21T14:29:31Z</time>
      </trkpt>
      <trkpt lat="2.802234" lon="-75.083015">
        <ele>1512.2</ele>
        <time>2021-08-21T14:29:32Z</time>
      </trkpt>
      <trkpt lat="2.802218" lon="-75.08301">
        <ele>1512.3</ele>
        <time>2021-08-21T14:29:33Z</time>
      </trkpt>
      <trkpt lat="2.802203" lon="-75.083">
        <ele>1512.4</ele>
        <time>2021-08-21T14:29:34Z</time>
      </trkpt>
      <trkpt lat="2.80219" lon="-75.082985">
        <ele>1512.5</ele>
        <time>2021-08-21T14:29:35Z</time>
      </trkpt>
      <trkpt lat="2.802177" lon="-75.08298">
        <ele>1512.6</ele>
        <time>2021-08-21T14:29:36Z</time>
      </trkpt>
      <trkpt lat="2.802163" lon="-75.08296">
        <ele>1512.7</ele>
        <time>2021-08-21T14:29:37Z</time>
      </trkpt>
      <trkpt lat="2.802149" lon="-75.082954">
        <ele>1512.8</ele>
        <time>2021-08-21T14:29:38Z</time>
      </trkpt>
      <trkpt lat="2.802137" lon="-75.08294">
        <ele>1512.9</ele>
        <time>2021-08-21T14:29:39Z</time>
      </trkpt>
      <trkpt lat="2.802122" lon="-75.082924">
        <ele>1513.0</ele>
        <time>2021-08-21T14:29:40Z</time>
      </trkpt>
      <trkpt lat="2.802107" lon="-75.08292">
        <ele>1513.1</ele>
        <time>2021-08-21T14:29:41Z</time>
      </trkpt>
      <trkpt lat="2.80209" lon="-75.0829">
        <ele>1513.2</ele>
        <time>2021-08-21T14:29:42Z</time>
      </trkpt>
      <trkpt lat="2.802072" lon="-75.082886">
        <ele>1513.3</ele>
        <time>2021-08-21T14:29:43Z</time>
      </trkpt>
      <trkpt lat="2.802055" lon="-75.08288">
        <ele>1513.4</ele>
        <time>2021-08-21T14:29:44Z</time>
      </trkpt>
      <trkpt lat="2.802038" lon="-75.08286">
        <ele>1513.5</ele>
        <time>2021-08-21T14:29:45Z</time>
      </trkpt>
      <trkpt lat="2.802021" lon="-75.08285">
        <ele>1513.6</ele>
        <time>2021-08-21T14:29:46Z</time>
      </trkpt>
      <trkpt lat="2.802005" lon="-75.08284">
        <ele>1513.7</ele>
        <time>2021-08-21T14:29:47Z</time>
      </trkpt>
      <trkpt lat="2.801988" lon="-75.082825">
        <ele>1513.8</ele>
        <time>2021-08-21T14:29:48Z</time>
      </trkpt>
      <trkpt lat="2.801972" lon="-75.08281">
        <ele>1514.0</ele>
        <time>2021-08-21T14:29:49Z</time>
      </trkpt>
      <trkpt lat="2.801954" lon="-75.0828">
        <ele>1514.1</ele>
        <time>2021-08-21T14:29:50Z</time>
      </trkpt>
      <trkpt lat="2.801937" lon="-75.08279">
        <ele>1514.2</ele>
        <time>2021-08-21T14:29:51Z</time>
      </trkpt>
      <trkpt lat="2.80192" lon="-75.08278">
        <ele>1514.3</ele>
        <time>2021-08-21T14:29:52Z</time>
      </trkpt>
      <trkpt lat="2.801904" lon="-75.08277">
        <ele>1514.4</ele>
        <time>2021-08-21T14:29:53Z</time>
      </trkpt>
      <trkpt lat="2.801887" lon="-75.082756">
        <ele>1514.5</ele>
        <time>2021-08-21T14:29:54Z</time>
      </trkpt>
      <trkpt lat="2.801871" lon="-75.08275">
        <ele>1514.7</ele>
        <time>2021-08-21T14:29:55Z</time>
      </trkpt>
      <trkpt lat="2.801855" lon="-75.08274">
        <ele>1514.8</ele>
        <time>2021-08-21T14:29:56Z</time>
      </trkpt>
      <trkpt lat="2.801838" lon="-75.082726">
        <ele>1514.9</ele>
        <time>2021-08-21T14:29:57Z</time>
      </trkpt>
      <trkpt lat="2.801821" lon="-75.082726">
        <ele>1515.0</ele>
        <time>2021-08-21T14:29:58Z</time>
      </trkpt>
      <trkpt lat="2.801803" lon="-75.08271">
        <ele>1515.1</ele>
        <time>2021-08-21T14:29:59Z</time>
      </trkpt>
      <trkpt lat="2.801787" lon="-75.0827">
        <ele>1515.3</ele>
        <time>2021-08-21T14:30:00Z</time>
      </trkpt>
      <trkpt lat="2.801773" lon="-75.082695">
        <ele>1515.4</ele>
        <time>2021-08-21T14:30:01Z</time>
      </trkpt>
      <trkpt lat="2.80176" lon="-75.08269">
        <ele>1515.5</ele>
        <time>2021-08-21T14:30:02Z</time>
      </trkpt>
      <trkpt lat="2.801748" lon="-75.08267">
        <ele>1515.6</ele>
        <time>2021-08-21T14:30:03Z</time>
      </trkpt>
      <trkpt lat="2.801736" lon="-75.08266">
        <ele>1515.8</ele>
        <time>2021-08-21T14:30:04Z</time>
      </trkpt>
      <trkpt lat="2.801724" lon="-75.08264">
        <ele>1515.9</ele>
        <time>2021-08-21T14:30:05Z</time>
      </trkpt>
      <trkpt lat="2.801713" lon="-75.08263">
        <ele>1516.1</ele>
        <time>2021-08-21T14:30:06Z</time>
      </trkpt>
      <trkpt lat="2.801702" lon="-75.0826">
        <ele>1516.2</ele>
        <time>2021-08-21T14:30:07Z</time>
      </trkpt>
      <trkpt lat="2.80169" lon="-75.08259">
        <ele>1516.4</ele>
        <time>2021-08-21T14:30:08Z</time>
      </trkpt>
      <trkpt lat="2.801677" lon="-75.082565">
        <ele>1516.5</ele>
        <time>2021-08-21T14:30:09Z</time>
      </trkpt>
      <trkpt lat="2.801665" lon="-75.08255">
        <ele>1516.7</ele>
        <time>2021-08-21T14:30:10Z</time>
      </trkpt>
      <trkpt lat="2.801653" lon="-75.082535">
        <ele>1516.8</ele>
        <time>2021-08-21T14:30:11Z</time>
      </trkpt>
      <trkpt lat="2.801641" lon="-75.08252">
        <ele>1517.0</ele>
        <time>2021-08-21T14:30:12Z</time>
      </trkpt>
      <trkpt lat="2.801629" lon="-75.082504">
        <ele>1517.1</ele>
        <time>2021-08-21T14:30:13Z</time>
      </trkpt>
      <trkpt lat="2.801618" lon="-75.08249">
        <ele>1517.2</ele>
        <time>2021-08-21T14:30:14Z</time>
      </trkpt>
      <trkpt lat="2.801609" lon="-75.08247">
        <ele>1517.3</ele>
        <time>2021-08-21T14:30:15Z</time>
      </trkpt>
      <trkpt lat="2.8016" lon="-75.08246">
        <ele>1517.4</ele>
        <time>2021-08-21T14:30:16Z</time>
      </trkpt>
      <trkpt lat="2.801591" lon="-75.08244">
        <ele>1517.5</ele>
        <time>2021-08-21T14:30:17Z</time>
      </trkpt>
      <trkpt lat="2.801582" lon="-75.08243">
        <ele>1517.6</ele>
        <time>2021-08-21T14:30:18Z</time>
      </trkpt>
      <trkpt lat="2.801574" lon="-75.08241">
        <ele>1517.7</ele>
        <time>2021-08-21T14:30:19Z</time>
      </trkpt>
      <trkpt lat="2.801566" lon="-75.0824">
        <ele>1517.9</ele>
        <time>2021-08-21T14:30:20Z</time>
      </trkpt>
      <trkpt lat="2.801557" lon="-75.08238">
        <ele>1518.0</ele>
        <time>2021-08-21T14:30:21Z</time>
      </trkpt>
      <trkpt lat="2.801547" lon="-75.08237">
        <ele>1518.1</ele>
        <time>2021-08-21T14:30:22Z</time>
      </trkpt>
      <trkpt lat="2.801538" lon="-75.082344">
        <ele>1518.2</ele>
        <time>2021-08-21T14:30:23Z</time>
      </trkpt>
      <trkpt lat="2.801527" lon="-75.08233">
        <ele>1518.3</ele>
        <time>2021-08-21T14:30:24Z</time>
      </trkpt>
      <trkpt lat="2.801516" lon="-75.08231">
        <ele>1518.5</ele>
        <time>2021-08-21T14:30:25Z</time>
      </trkpt>
      <trkpt lat="2.801506" lon="-75.0823">
        <ele>1518.6</ele>
        <time>2021-08-21T14:30:26Z</time>
      </trkpt>
      <trkpt lat="2.801496" lon="-75.08229">
        <ele>1518.7</ele>
        <time>2021-08-21T14:30:27Z</time>
      </trkpt>
      <trkpt lat="2.801486" lon="-75.082275">
        <ele>1518.8</ele>
        <time>2021-08-21T14:30:28Z</time>
      </trkpt>
      <trkpt lat="2.801476" lon="-75.08226">
        <ele>1518.9</ele>
        <time>2021-08-21T14:30:29Z</time>
      </trkpt>
      <trkpt lat="2.801465" lon="-75.082245">
        <ele>1519.0</ele>
        <time>2021-08-21T14:30:30Z</time>
      </trkpt>
      <trkpt lat="2.801455" lon="-75.08223">
        <ele>1519.1</ele>
        <time>2021-08-21T14:30:31Z</time>
      </trkpt>
      <trkpt lat="2.801444" lon="-75.082214">
        <ele>1519.2</ele>
        <time>2021-08-21T14:30:32Z</time>
      </trkpt>
      <trkpt lat="2.801434" lon="-75.08221">
        <ele>1519.3</ele>
        <time>2021-08-21T14:30:33Z</time>
      </trkpt>
      <trkpt lat="2.801423" lon="-75.08219">
        <ele>1519.5</ele>
        <time>2021-08-21T14:30:34Z</time>
      </trkpt>
      <trkpt lat="2.801413" lon="-75.08218">
        <ele>1519.6</ele>
        <time>2021-08-21T14:30:35Z</time>
      </trkpt>
      <trkpt lat="2.801402" lon="-75.08216">
        <ele>1519.7</ele>
        <time>2021-08-21T14:30:36Z</time>
      </trkpt>
      <trkpt lat="2.801391" lon="-75.082146">
        <ele>1519.8</ele>
        <time>2021-08-21T14:30:37Z</time>
      </trkpt>
      <trkpt lat="2.80138" lon="-75.08214">
        <ele>1519.9</ele>
        <time>2021-08-21T14:30:38Z</time>
      </trkpt>
      <trkpt lat="2.801368" lon="-75.08212">
        <ele>1520.1</ele>
        <time>2021-08-21T14:30:39Z</time>
      </trkpt>
      <trkpt lat="2.801358" lon="-75.08211">
        <ele>1520.2</ele>
        <time>2021-08-21T14:30:40Z</time>
      </trkpt>
      <trkpt lat="2.801349" lon="-75.08209">
        <ele>1520.3</ele>
        <time>2021-08-21T14:30:41Z</time>
      </trkpt>
      <trkpt lat="2.80134" lon="-75.08208">
        <ele>1520.4</ele>
        <time>2021-08-21T14:30:42Z</time>
      </trkpt>
      <trkpt lat="2.80133" lon="-75.08206">
        <ele>1520.6</ele>
        <time>2021-08-21T14:30:43Z</time>
      </trkpt>
      <trkpt lat="2.801322" lon="-75.08205">
        <ele>1520.7</ele>
        <time>2021-08-21T14:30:44Z</time>
      </trkpt>
      <trkpt lat="2.801314" lon="-75.08203">
        <ele>1520.8</ele>
        <time>2021-08-21T14:30:45Z</time>
      </trkpt>
      <trkpt lat="2.801307" lon="-75.08201">
        <ele>1520.9</ele>
        <time>2021-08-21T14:30:46Z</time>
      </trkpt>
      <trkpt lat="2.8013" lon="-75.08199">
        <ele>1521.0</ele>
        <time>2021-08-21T14:30:47Z</time>
      </trkpt>
      <trkpt lat="2.801292" lon="-75.08198">
        <ele>1521.1</ele>
        <time>2021-08-21T14:30:48Z</time>
      </trkpt>
      <trkpt lat="2.801283" lon="-75.081955">
        <ele>1521.3</ele>
        <time>2021-08-21T14:30:49Z</time>
      </trkpt>
      <trkpt lat="2.801274" lon="-75.08194">
        <ele>1521.4</ele>
        <time>2021-08-21T14:30:50Z</time>
      </trkpt>
      <trkpt lat="2.801266" lon="-75.081924">
        <ele>1521.5</ele>
        <time>2021-08-21T14:30:51Z</time>
      </trkpt>
      <trkpt lat="2.801261" lon="-75.0819">
        <ele>1521.7</ele>
        <time>2021-08-21T14:30:52Z</time>
      </trkpt>
      <trkpt lat="2.801257" lon="-75.08189">
        <ele>1521.8</ele>
        <time>2021-08-21T14:30:53Z</time>
      </trkpt>
      <trkpt lat="2.801253" lon="-75.08187">
        <ele>1521.9</ele>
        <time>2021-08-21T14:30:54Z</time>
      </trkpt>
      <trkpt lat="2.80125" lon="-75.081856">
        <ele>1522.0</ele>
        <time>2021-08-21T14:30:55Z</time>
      </trkpt>
      <trkpt lat="2.801248" lon="-75.08184">
        <ele>1522.1</ele>
        <time>2021-08-21T14:30:56Z</time>
      </trkpt>
      <trkpt lat="2.801245" lon="-75.081825">
        <ele>1522.2</ele>
        <time>2021-08-21T14:30:57Z</time>
      </trkpt>
      <trkpt lat="2.801242" lon="-75.08181">
        <ele>1522.3</ele>
        <time>2021-08-21T14:30:58Z</time>
      </trkpt>
      <trkpt lat="2.801237" lon="-75.081795">
        <ele>1522.4</ele>
        <time>2021-08-21T14:30:59Z</time>
      </trkpt>
      <trkpt lat="2.801231" lon="-75.08177">
        <ele>1522.5</ele>
        <time>2021-08-21T14:31:00Z</time>
      </trkpt>
      <trkpt lat="2.801225" lon="-75.08176">
        <ele>1522.6</ele>
        <time>2021-08-21T14:31:01Z</time>
      </trkpt>
      <trkpt lat="2.801217" lon="-75.08174">
        <ele>1522.6</ele>
        <time>2021-08-21T14:31:02Z</time>
      </trkpt>
      <trkpt lat="2.801209" lon="-75.08173">
        <ele>1522.7</ele>
        <time>2021-08-21T14:31:03Z</time>
      </trkpt>
      <trkpt lat="2.801202" lon="-75.08172">
        <ele>1522.8</ele>
        <time>2021-08-21T14:31:04Z</time>
      </trkpt>
      <trkpt lat="2.801196" lon="-75.0817">
        <ele>1522.9</ele>
        <time>2021-08-21T14:31:05Z</time>
      </trkpt>
      <trkpt lat="2.801189" lon="-75.08169">
        <ele>1523.0</ele>
        <time>2021-08-21T14:31:06Z</time>
      </trkpt>
      <trkpt lat="2.801182" lon="-75.08167">
        <ele>1523.0</ele>
        <time>2021-08-21T14:31:07Z</time>
      </trkpt>
      <trkpt lat="2.801176" lon="-75.08166">
        <ele>1523.1</ele>
        <time>2021-08-21T14:31:08Z</time>
      </trkpt>
      <trkpt lat="2.80117" lon="-75.08165">
        <ele>1523.2</ele>
        <time>2021-08-21T14:31:09Z</time>
      </trkpt>
      <trkpt lat="2.801165" lon="-75.081635">
        <ele>1523.3</ele>
        <time>2021-08-21T14:31:10Z</time>
      </trkpt>
      <trkpt lat="2.801158" lon="-75.08162">
        <ele>1523.3</ele>
        <time>2021-08-21T14:31:11Z</time>
      </trkpt>
      <trkpt lat="2.801152" lon="-75.081604">
        <ele>1523.4</ele>
        <time>2021-08-21T14:31:12Z</time>
      </trkpt>
      <trkpt lat="2.801146" lon="-75.08159">
        <ele>1523.5</ele>
        <time>2021-08-21T14:31:13Z</time>
      </trkpt>
      <trkpt lat="2.801141" lon="-75.08157">
        <ele>1523.6</ele>
        <time>2021-08-21T14:31:14Z</time>
      </trkpt>
      <trkpt lat="2.801138" lon="-75.08156">
        <ele>1523.6</ele>
        <time>2021-08-21T14:31:15Z</time>
      </trkpt>
      <trkpt lat="2.801134" lon="-75.08154">
        <ele>1523.7</ele>
        <time>2021-08-21T14:31:16Z</time>
      </trkpt>
      <trkpt lat="2.80113" lon="-75.08153">
        <ele>1523.8</ele>
        <time>2021-08-21T14:31:17Z</time>
      </trkpt>
      <trkpt lat="2.801127" lon="-75.08151">
        <ele>1523.9</ele>
        <time>2021-08-21T14:31:18Z</time>
      </trkpt>
      <trkpt lat="2.801124" lon="-75.08149">
        <ele>1523.9</ele>
        <time>2021-08-21T14:31:19Z</time>
      </trkpt>
      <trkpt lat="2.801121" lon="-75.081474">
        <ele>1524.0</ele>
        <time>2021-08-21T14:31:20Z</time>
      </trkpt>
      <trkpt lat="2.801117" lon="-75.08145">
        <ele>1524.1</ele>
        <time>2021-08-21T14:31:21Z</time>
      </trkpt>
      <trkpt lat="2.801113" lon="-75.081436">
        <ele>1524.2</ele>
        <time>2021-08-21T14:31:22Z</time>
      </trkpt>
      <trkpt lat="2.80111" lon="-75.08141">
        <ele>1524.3</ele>
        <time>2021-08-21T14:31:23Z</time>
      </trkpt>
      <trkpt lat="2.801107" lon="-75.0814">
        <ele>1524.4</ele>
        <time>2021-08-21T14:31:24Z</time>
      </trkpt>
      <trkpt lat="2.801104" lon="-75.081375">
        <ele>1524.5</ele>
        <time>2021-08-21T14:31:25Z</time>
      </trkpt>
      <trkpt lat="2.801102" lon="-75.08136">
        <ele>1524.6</ele>
        <time>2021-08-21T14:31:26Z</time>
      </trkpt>
      <trkpt lat="2.801101" lon="-75.08134">
        <ele>1524.6</ele>
        <time>2021-08-21T14:31:27Z</time>
      </trkpt>
      <trkpt lat="2.8011" lon="-75.08132">
        <ele>1524.7</ele>
        <time>2021-08-21T14:31:28Z</time>
      </trkpt>
      <trkpt lat="2.8011" lon="-75.0813">
        <ele>1524.8</ele>
        <time>2021-08-21T14:31:29Z</time>
      </trkpt>
      <trkpt lat="2.8011" lon="-75.08128">
        <ele>1524.9</ele>
        <time>2021-08-21T14:31:30Z</time>
      </trkpt>
      <trkpt lat="2.8011" lon="-75.08126">
        <ele>1525.0</ele>
        <time>2021-08-21T14:31:31Z</time>
      </trkpt>
      <trkpt lat="2.801099" lon="-75.081245">
        <ele>1525.1</ele>
        <time>2021-08-21T14:31:32Z</time>
      </trkpt>
      <trkpt lat="2.801098" lon="-75.08122">
        <ele>1525.2</ele>
        <time>2021-08-21T14:31:33Z</time>
      </trkpt>
      <trkpt lat="2.801096" lon="-75.08121">
        <ele>1525.3</ele>
        <time>2021-08-21T14:31:34Z</time>
      </trkpt>
      <trkpt lat="2.801096" lon="-75.081184">
        <ele>1525.4</ele>
        <time>2021-08-21T14:31:35Z</time>
      </trkpt>
      <trkpt lat="2.801095" lon="-75.08116">
        <ele>1525.5</ele>
        <time>2021-08-21T14:31:36Z</time>
      </trkpt>
      <trkpt lat="2.801094" lon="-75.08115">
        <ele>1525.7</ele>
        <time>2021-08-21T14:31:37Z</time>
      </trkpt>
      <trkpt lat="2.801093" lon="-75.08112">
        <ele>1525.8</ele>
        <time>2021-08-21T14:31:38Z</time>
      </trkpt>
      <trkpt lat="2.801092" lon="-75.08111">
        <ele>1525.9</ele>
        <time>2021-08-21T14:31:39Z</time>
      </trkpt>
      <trkpt lat="2.801091" lon="-75.08109">
        <ele>1526.0</ele>
        <time>2021-08-21T14:31:40Z</time>
      </trkpt>
      <trkpt lat="2.80109" lon="-75.08107">
        <ele>1526.1</ele>
        <time>2021-08-21T14:31:41Z</time>
      </trkpt>
      <trkpt lat="2.801089" lon="-75.081055">
        <ele>1526.3</ele>
        <time>2021-08-21T14:31:42Z</time>
      </trkpt>
      <trkpt lat="2.801088" lon="-75.08103">
        <ele>1526.4</ele>
        <time>2021-08-21T14:31:43Z</time>
      </trkpt>
      <trkpt lat="2.801088" lon="-75.08101">
        <ele>1526.5</ele>
        <time>2021-08-21T14:31:44Z</time>
      </trkpt>
      <trkpt lat="2.801088" lon="-75.08099">
        <ele>1526.7</ele>
        <time>2021-08-21T14:31:45Z</time>
      </trkpt>
      <trkpt lat="2.801088" lon="-75.08097">
        <ele>1526.8</ele>
        <time>2021-08-21T14:31:46Z</time>
      </trkpt>
      <trkpt lat="2.801088" lon="-75.080956">
        <ele>1526.9</ele>
        <time>2021-08-21T14:31:47Z</time>
      </trkpt>
      <trkpt lat="2.801088" lon="-75.08093">
        <ele>1527.1</ele>
        <time>2021-08-21T14:31:48Z</time>
      </trkpt>
      <trkpt lat="2.801088" lon="-75.08092">
        <ele>1527.2</ele>
        <time>2021-08-21T14:31:49Z</time>
      </trkpt>
      <trkpt lat="2.801089" lon="-75.0809">
        <ele>1527.3</ele>
        <time>2021-08-21T14:31:50Z</time>
      </trkpt>
      <trkpt lat="2.801092" lon="-75.08088">
        <ele>1527.5</ele>
        <time>2021-08-21T14:31:51Z</time>
      </trkpt>
      <trkpt lat="2.801096" lon="-75.080864">
        <ele>1527.6</ele>
        <time>2021-08-21T14:31:52Z</time>
      </trkpt>
      <trkpt lat="2.8011" lon="-75.08085">
        <ele>1527.7</ele>
        <time>2021-08-21T14:31:53Z</time>
      </trkpt>
      <trkpt lat="2.801105" lon="-75.08083">
        <ele>1527.9</ele>
        <time>2021-08-21T14:31:54Z</time>
      </trkpt>
      <trkpt lat="2.801109" lon="-75.08081">
        <ele>1528.0</ele>
        <time>2021-08-21T14:31:55Z</time>
      </trkpt>
      <trkpt lat="2.801116" lon="-75.08078">
        <ele>1528.2</ele>
        <time>2021-08-21T14:31:56Z</time>
      </trkpt>
      <trkpt lat="2.801121" lon="-75.080765">
        <ele>1528.3</ele>
        <time>2021-08-21T14:31:57Z</time>
      </trkpt>
      <trkpt lat="2.801125" lon="-75.08075">
        <ele>1528.4</ele>
        <time>2021-08-21T14:31:58Z</time>
      </trkpt>
      <trkpt lat="2.80113" lon="-75.08074">
        <ele>1528.5</ele>
        <time>2021-08-21T14:31:59Z</time>
      </trkpt>
      <trkpt lat="2.801134" lon="-75.08073">
        <ele>1528.7</ele>
        <time>2021-08-21T14:32:00Z</time>
      </trkpt>
      <trkpt lat="2.801139" lon="-75.08071">
        <ele>1528.8</ele>
        <time>2021-08-21T14:32:01Z</time>
      </trkpt>
      <trkpt lat="2.801143" lon="-75.080696">
        <ele>1528.9</ele>
        <time>2021-08-21T14:32:02Z</time>
      </trkpt>
      <trkpt lat="2.801148" lon="-75.08068">
        <ele>1529.0</ele>
        <time>2021-08-21T14:32:03Z</time>
      </trkpt>
      <trkpt lat="2.801152" lon="-75.080666">
        <ele>1529.1</ele>
        <time>2021-08-21T14:32:04Z</time>
      </trkpt>
      <trkpt lat="2.801156" lon="-75.08065">
        <ele>1529.1</ele>
        <time>2021-08-21T14:32:05Z</time>
      </trkpt>
      <trkpt lat="2.801161" lon="-75.08064">
        <ele>1529.2</ele>
        <time>2021-08-21T14:32:06Z</time>
      </trkpt>
      <trkpt lat="2.801165" lon="-75.08063">
        <ele>1529.3</ele>
        <time>2021-08-21T14:32:07Z</time>
      </trkpt>
      <trkpt lat="2.80117" lon="-75.08061">
        <ele>1529.4</ele>
        <time>2021-08-21T14:32:08Z</time>
      </trkpt>
      <trkpt lat="2.801174" lon="-75.0806">
        <ele>1529.5</ele>
        <time>2021-08-21T14:32:09Z</time>
      </trkpt>
      <trkpt lat="2.801179" lon="-75.08058">
        <ele>1529.6</ele>
        <time>2021-08-21T14:32:11Z</time>
      </trkpt>
      <trkpt lat="2.801183" lon="-75.08057">
        <ele>1529.7</ele>
        <time>2021-08-21T14:32:11Z</time>
      </trkpt>
      <trkpt lat="2.801187" lon="-75.08055">
        <ele>1529.8</ele>
        <time>2021-08-21T14:32:12Z</time>
      </trkpt>
      <trkpt lat="2.80119" lon="-75.080536">
        <ele>1529.9</ele>
        <time>2021-08-21T14:32:13Z</time>
      </trkpt>
      <trkpt lat="2.801191" lon="-75.08052">
        <ele>1530.0</ele>
        <time>2021-08-21T14:32:14Z</time>
      </trkpt>
      <trkpt lat="2.801192" lon="-75.080505">
        <ele>1530.1</ele>
        <time>2021-08-21T14:32:15Z</time>
      </trkpt>
      <trkpt lat="2.801194" lon="-75.08049">
        <ele>1530.2</ele>
        <time>2021-08-21T14:32:16Z</time>
      </trkpt>
      <trkpt lat="2.801195" lon="-75.080475">
        <ele>1530.3</ele>
        <time>2021-08-21T14:32:17Z</time>
      </trkpt>
      <trkpt lat="2.801197" lon="-75.08046">
        <ele>1530.4</ele>
        <time>2021-08-21T14:32:18Z</time>
      </trkpt>
      <trkpt lat="2.801198" lon="-75.080444">
        <ele>1530.5</ele>
        <time>2021-08-21T14:32:19Z</time>
      </trkpt>
      <trkpt lat="2.801198" lon="-75.08042">
        <ele>1530.6</ele>
        <time>2021-08-21T14:32:20Z</time>
      </trkpt>
      <trkpt lat="2.801196" lon="-75.08041">
        <ele>1530.7</ele>
        <time>2021-08-21T14:32:21Z</time>
      </trkpt>
      <trkpt lat="2.801194" lon="-75.08039">
        <ele>1530.8</ele>
        <time>2021-08-21T14:32:22Z</time>
      </trkpt>
      <trkpt lat="2.801191" lon="-75.080376">
        <ele>1530.9</ele>
        <time>2021-08-21T14:32:23Z</time>
      </trkpt>
      <trkpt lat="2.801187" lon="-75.08035">
        <ele>1531.0</ele>
        <time>2021-08-21T14:32:24Z</time>
      </trkpt>
      <trkpt lat="2.801182" lon="-75.08034">
        <ele>1531.2</ele>
        <time>2021-08-21T14:32:25Z</time>
      </trkpt>
      <trkpt lat="2.801179" lon="-75.08032">
        <ele>1531.3</ele>
        <time>2021-08-21T14:32:26Z</time>
      </trkpt>
      <trkpt lat="2.801175" lon="-75.0803">
        <ele>1531.4</ele>
        <time>2021-08-21T14:32:27Z</time>
      </trkpt>
      <trkpt lat="2.801171" lon="-75.080284">
        <ele>1531.5</ele>
        <time>2021-08-21T14:32:28Z</time>
      </trkpt>
      <trkpt lat="2.801166" lon="-75.08026">
        <ele>1531.7</ele>
        <time>2021-08-21T14:32:29Z</time>
      </trkpt>
      <trkpt lat="2.80116" lon="-75.080246">
        <ele>1531.8</ele>
        <time>2021-08-21T14:32:30Z</time>
      </trkpt>
      <trkpt lat="2.801152" lon="-75.08023">
        <ele>1531.9</ele>
        <time>2021-08-21T14:32:31Z</time>
      </trkpt>
      <trkpt lat="2.801143" lon="-75.080215">
        <ele>1532.0</ele>
        <time>2021-08-21T14:32:32Z</time>
      </trkpt>
      <trkpt lat="2.801134" lon="-75.08019">
        <ele>1532.1</ele>
        <time>2021-08-21T14:32:33Z</time>
      </trkpt>
      <trkpt lat="2.801127" lon="-75.08018">
        <ele>1532.2</ele>
        <time>2021-08-21T14:32:34Z</time>
      </trkpt>
      <trkpt lat="2.801116" lon="-75.08016">
        <ele>1532.3</ele>
        <time>2021-08-21T14:32:35Z</time>
      </trkpt>
      <trkpt lat="2.801102" lon="-75.08015">
        <ele>1532.5</ele>
        <time>2021-08-21T14:32:36Z</time>
      </trkpt>
      <trkpt lat="2.80109" lon="-75.08014">
        <ele>1532.6</ele>
        <time>2021-08-21T14:32:37Z</time>
      </trkpt>
      <trkpt lat="2.801079" lon="-75.080124">
        <ele>1532.7</ele>
        <time>2021-08-21T14:32:38Z</time>
      </trkpt>
      <trkpt lat="2.801069" lon="-75.0801">
        <ele>1532.8</ele>
        <time>2021-08-21T14:32:39Z</time>
      </trkpt>
      <trkpt lat="2.80106" lon="-75.080086">
        <ele>1532.9</ele>
        <time>2021-08-21T14:32:40Z</time>
      </trkpt>
      <trkpt lat="2.801051" lon="-75.08007">
        <ele>1533.1</ele>
        <time>2021-08-21T14:32:41Z</time>
      </trkpt>
      <trkpt lat="2.801042" lon="-75.08005">
        <ele>1533.2</ele>
        <time>2021-08-21T14:32:42Z</time>
      </trkpt>
      <trkpt lat="2.801033" lon="-75.08003">
        <ele>1533.3</ele>
        <time>2021-08-21T14:32:43Z</time>
      </trkpt>
      <trkpt lat="2.801023" lon="-75.08002">
        <ele>1533.4</ele>
        <time>2021-08-21T14:32:44Z</time>
      </trkpt>
      <trkpt lat="2.801013" lon="-75.08">
        <ele>1533.6</ele>
        <time>2021-08-21T14:32:45Z</time>
      </trkpt>
      <trkpt lat="2.801004" lon="-75.07999">
        <ele>1533.7</ele>
        <time>2021-08-21T14:32:46Z</time>
      </trkpt>
      <trkpt lat="2.800994" lon="-75.07996">
        <ele>1533.8</ele>
        <time>2021-08-21T14:32:47Z</time>
      </trkpt>
      <trkpt lat="2.800986" lon="-75.07995">
        <ele>1534.0</ele>
        <time>2021-08-21T14:32:48Z</time>
      </trkpt>
      <trkpt lat="2.800979" lon="-75.07993">
        <ele>1534.1</ele>
        <time>2021-08-21T14:32:49Z</time>
      </trkpt>
      <trkpt lat="2.800972" lon="-75.07991">
        <ele>1534.3</ele>
        <time>2021-08-21T14:32:50Z</time>
      </trkpt>
      <trkpt lat="2.800966" lon="-75.079895">
        <ele>1534.4</ele>
        <time>2021-08-21T14:32:51Z</time>
      </trkpt>
      <trkpt lat="2.800961" lon="-75.07988">
        <ele>1534.6</ele>
        <time>2021-08-21T14:32:52Z</time>
      </trkpt>
      <trkpt lat="2.800957" lon="-75.079865">
        <ele>1534.7</ele>
        <time>2021-08-21T14:32:53Z</time>
      </trkpt>
      <trkpt lat="2.800954" lon="-75.07984">
        <ele>1534.8</ele>
        <time>2021-08-21T14:32:54Z</time>
      </trkpt>
      <trkpt lat="2.800955" lon="-75.07983">
        <ele>1535.0</ele>
        <time>2021-08-21T14:32:55Z</time>
      </trkpt>
      <trkpt lat="2.800953" lon="-75.0798">
        <ele>1535.1</ele>
        <time>2021-08-21T14:32:56Z</time>
      </trkpt>
      <trkpt lat="2.800948" lon="-75.07977">
        <ele>1535.4</ele>
        <time>2021-08-21T14:32:57Z</time>
      </trkpt>
      <trkpt lat="2.800944" lon="-75.079765">
        <ele>1535.5</ele>
        <time>2021-08-21T14:32:58Z</time>
      </trkpt>
      <trkpt lat="2.80094" lon="-75.07975">
        <ele>1535.6</ele>
        <time>2021-08-21T14:32:59Z</time>
      </trkpt>
      <trkpt lat="2.800936" lon="-75.079735">
        <ele>1535.7</ele>
        <time>2021-08-21T14:33:00Z</time>
      </trkpt>
      <trkpt lat="2.800932" lon="-75.07973">
        <ele>1535.8</ele>
        <time>2021-08-21T14:33:01Z</time>
      </trkpt>
      <trkpt lat="2.800929" lon="-75.07971">
        <ele>1535.9</ele>
        <time>2021-08-21T14:33:02Z</time>
      </trkpt>
      <trkpt lat="2.800925" lon="-75.079704">
        <ele>1536.1</ele>
        <time>2021-08-21T14:33:03Z</time>
      </trkpt>
      <trkpt lat="2.800921" lon="-75.07969">
        <ele>1536.2</ele>
        <time>2021-08-21T14:33:04Z</time>
      </trkpt>
      <trkpt lat="2.800917" lon="-75.07967">
        <ele>1536.3</ele>
        <time>2021-08-21T14:33:05Z</time>
      </trkpt>
      <trkpt lat="2.800913" lon="-75.079666">
        <ele>1536.4</ele>
        <time>2021-08-21T14:33:06Z</time>
      </trkpt>
      <trkpt lat="2.800905" lon="-75.079636">
        <ele>1536.6</ele>
        <time>2021-08-21T14:33:07Z</time>
      </trkpt>
      <trkpt lat="2.800909" lon="-75.07965">
        <ele>1536.5</ele>
        <time>2021-08-21T14:33:07Z</time>
      </trkpt>
      <trkpt lat="2.800901" lon="-75.07963">
        <ele>1536.8</ele>
        <time>2021-08-21T14:33:08Z</time>
      </trkpt>
      <trkpt lat="2.800898" lon="-75.07961">
        <ele>1536.9</ele>
        <time>2021-08-21T14:33:09Z</time>
      </trkpt>
      <trkpt lat="2.800892" lon="-75.0796">
        <ele>1537.0</ele>
        <time>2021-08-21T14:33:10Z</time>
      </trkpt>
      <trkpt lat="2.800886" lon="-75.07958">
        <ele>1537.2</ele>
        <time>2021-08-21T14:33:11Z</time>
      </trkpt>
      <trkpt lat="2.80088" lon="-75.079575">
        <ele>1537.3</ele>
        <time>2021-08-21T14:33:12Z</time>
      </trkpt>
      <trkpt lat="2.800873" lon="-75.07956">
        <ele>1537.4</ele>
        <time>2021-08-21T14:33:13Z</time>
      </trkpt>
      <trkpt lat="2.800868" lon="-75.07955">
        <ele>1537.5</ele>
        <time>2021-08-21T14:33:14Z</time>
      </trkpt>
      <trkpt lat="2.800863" lon="-75.07954">
        <ele>1537.6</ele>
        <time>2021-08-21T14:33:15Z</time>
      </trkpt>
      <trkpt lat="2.800857" lon="-75.07953">
        <ele>1537.8</ele>
        <time>2021-08-21T14:33:16Z</time>
      </trkpt>
      <trkpt lat="2.800851" lon="-75.07951">
        <ele>1537.9</ele>
        <time>2021-08-21T14:33:17Z</time>
      </trkpt>
      <trkpt lat="2.800845" lon="-75.079506">
        <ele>1538.0</ele>
        <time>2021-08-21T14:33:18Z</time>
      </trkpt>
      <trkpt lat="2.80084" lon="-75.07949">
        <ele>1538.1</ele>
        <time>2021-08-21T14:33:19Z</time>
      </trkpt>
      <trkpt lat="2.800835" lon="-75.07948">
        <ele>1538.2</ele>
        <time>2021-08-21T14:33:20Z</time>
      </trkpt>
      <trkpt lat="2.800831" lon="-75.07947">
        <ele>1538.3</ele>
        <time>2021-08-21T14:33:21Z</time>
      </trkpt>
      <trkpt lat="2.800828" lon="-75.07946">
        <ele>1538.4</ele>
        <time>2021-08-21T14:33:22Z</time>
      </trkpt>
      <trkpt lat="2.800824" lon="-75.079445">
        <ele>1538.5</ele>
        <time>2021-08-21T14:33:23Z</time>
      </trkpt>
      <trkpt lat="2.800819" lon="-75.07944">
        <ele>1538.6</ele>
        <time>2021-08-21T14:33:24Z</time>
      </trkpt>
      <trkpt lat="2.800812" lon="-75.07943">
        <ele>1538.7</ele>
        <time>2021-08-21T14:33:25Z</time>
      </trkpt>
      <trkpt lat="2.800806" lon="-75.07942">
        <ele>1538.8</ele>
        <time>2021-08-21T14:33:26Z</time>
      </trkpt>
      <trkpt lat="2.800797" lon="-75.079414">
        <ele>1538.9</ele>
        <time>2021-08-21T14:33:27Z</time>
      </trkpt>
      <trkpt lat="2.800787" lon="-75.07941">
        <ele>1539.0</ele>
        <time>2021-08-21T14:33:28Z</time>
      </trkpt>
      <trkpt lat="2.800777" lon="-75.0794">
        <ele>1539.1</ele>
        <time>2021-08-21T14:33:29Z</time>
      </trkpt>
      <trkpt lat="2.800765" lon="-75.07939">
        <ele>1539.2</ele>
        <time>2021-08-21T14:33:30Z</time>
      </trkpt>
      <trkpt lat="2.800753" lon="-75.07938">
        <ele>1539.3</ele>
        <time>2021-08-21T14:33:31Z</time>
      </trkpt>
      <trkpt lat="2.800739" lon="-75.07937">
        <ele>1539.5</ele>
        <time>2021-08-21T14:33:32Z</time>
      </trkpt>
      <trkpt lat="2.800727" lon="-75.07935">
        <ele>1539.6</ele>
        <time>2021-08-21T14:33:33Z</time>
      </trkpt>
      <trkpt lat="2.800716" lon="-75.079346">
        <ele>1539.7</ele>
        <time>2021-08-21T14:33:34Z</time>
      </trkpt>
      <trkpt lat="2.800705" lon="-75.07933">
        <ele>1539.8</ele>
        <time>2021-08-21T14:33:35Z</time>
      </trkpt>
      <trkpt lat="2.800693" lon="-75.07932">
        <ele>1540.0</ele>
        <time>2021-08-21T14:33:36Z</time>
      </trkpt>
      <trkpt lat="2.800682" lon="-75.07931">
        <ele>1540.1</ele>
        <time>2021-08-21T14:33:37Z</time>
      </trkpt>
      <trkpt lat="2.800672" lon="-75.0793">
        <ele>1540.2</ele>
        <time>2021-08-21T14:33:38Z</time>
      </trkpt>
      <trkpt lat="2.800662" lon="-75.07929">
        <ele>1540.2</ele>
        <time>2021-08-21T14:33:39Z</time>
      </trkpt>
      <trkpt lat="2.800653" lon="-75.079285">
        <ele>1540.3</ele>
        <time>2021-08-21T14:33:40Z</time>
      </trkpt>
      <trkpt lat="2.800643" lon="-75.07928">
        <ele>1540.4</ele>
        <time>2021-08-21T14:33:41Z</time>
      </trkpt>
      <trkpt lat="2.800633" lon="-75.07927">
        <ele>1540.5</ele>
        <time>2021-08-21T14:33:42Z</time>
      </trkpt>
      <trkpt lat="2.800624" lon="-75.07926">
        <ele>1540.6</ele>
        <time>2021-08-21T14:33:43Z</time>
      </trkpt>
      <trkpt lat="2.800616" lon="-75.079254">
        <ele>1540.6</ele>
        <time>2021-08-21T14:33:44Z</time>
      </trkpt>
      <trkpt lat="2.800606" lon="-75.07925">
        <ele>1540.7</ele>
        <time>2021-08-21T14:33:45Z</time>
      </trkpt>
      <trkpt lat="2.800594" lon="-75.07925">
        <ele>1540.8</ele>
        <time>2021-08-21T14:33:46Z</time>
      </trkpt>
      <trkpt lat="2.800582" lon="-75.07924">
        <ele>1540.9</ele>
        <time>2021-08-21T14:33:47Z</time>
      </trkpt>
      <trkpt lat="2.800571" lon="-75.07924">
        <ele>1541.0</ele>
        <time>2021-08-21T14:33:48Z</time>
      </trkpt>
      <trkpt lat="2.800558" lon="-75.07923">
        <ele>1541.1</ele>
        <time>2021-08-21T14:33:49Z</time>
      </trkpt>
      <trkpt lat="2.800544" lon="-75.07923">
        <ele>1541.2</ele>
        <time>2021-08-21T14:33:50Z</time>
      </trkpt>
      <trkpt lat="2.80053" lon="-75.07922">
        <ele>1541.3</ele>
        <time>2021-08-21T14:33:51Z</time>
      </trkpt>
      <trkpt lat="2.800514" lon="-75.07922">
        <ele>1541.4</ele>
        <time>2021-08-21T14:33:52Z</time>
      </trkpt>
      <trkpt lat="2.800499" lon="-75.079216">
        <ele>1541.5</ele>
        <time>2021-08-21T14:33:53Z</time>
      </trkpt>
      <trkpt lat="2.800483" lon="-75.079216">
        <ele>1541.6</ele>
        <time>2021-08-21T14:33:54Z</time>
      </trkpt>
      <trkpt lat="2.800467" lon="-75.079216">
        <ele>1541.7</ele>
        <time>2021-08-21T14:33:55Z</time>
      </trkpt>
      <trkpt lat="2.800453" lon="-75.079216">
        <ele>1541.8</ele>
        <time>2021-08-21T14:33:56Z</time>
      </trkpt>
      <trkpt lat="2.800439" lon="-75.07921">
        <ele>1541.9</ele>
        <time>2021-08-21T14:33:57Z</time>
      </trkpt>
      <trkpt lat="2.800424" lon="-75.07921">
        <ele>1542.0</ele>
        <time>2021-08-21T14:33:58Z</time>
      </trkpt>
      <trkpt lat="2.800409" lon="-75.07921">
        <ele>1542.1</ele>
        <time>2021-08-21T14:33:59Z</time>
      </trkpt>
      <trkpt lat="2.800396" lon="-75.07921">
        <ele>1542.2</ele>
        <time>2021-08-21T14:34:00Z</time>
      </trkpt>
      <trkpt lat="2.800384" lon="-75.07921">
        <ele>1542.3</ele>
        <time>2021-08-21T14:34:01Z</time>
      </trkpt>
      <trkpt lat="2.800372" lon="-75.07921">
        <ele>1542.4</ele>
        <time>2021-08-21T14:34:02Z</time>
      </trkpt>
      <trkpt lat="2.800358" lon="-75.0792">
        <ele>1542.5</ele>
        <time>2021-08-21T14:34:03Z</time>
      </trkpt>
      <trkpt lat="2.800344" lon="-75.0792">
        <ele>1542.6</ele>
        <time>2021-08-21T14:34:04Z</time>
      </trkpt>
      <trkpt lat="2.80033" lon="-75.0792">
        <ele>1542.7</ele>
        <time>2021-08-21T14:34:05Z</time>
      </trkpt>
      <trkpt lat="2.800316" lon="-75.07919">
        <ele>1542.8</ele>
        <time>2021-08-21T14:34:06Z</time>
      </trkpt>
      <trkpt lat="2.800302" lon="-75.07919">
        <ele>1542.9</ele>
        <time>2021-08-21T14:34:07Z</time>
      </trkpt>
      <trkpt lat="2.800288" lon="-75.07919">
        <ele>1543.0</ele>
        <time>2021-08-21T14:34:08Z</time>
      </trkpt>
      <trkpt lat="2.800273" lon="-75.079185">
        <ele>1543.1</ele>
        <time>2021-08-21T14:34:09Z</time>
      </trkpt>
      <trkpt lat="2.800257" lon="-75.079185">
        <ele>1543.2</ele>
        <time>2021-08-21T14:34:10Z</time>
      </trkpt>
      <trkpt lat="2.800241" lon="-75.07918">
        <ele>1543.3</ele>
        <time>2021-08-21T14:34:11Z</time>
      </trkpt>
      <trkpt lat="2.800225" lon="-75.07918">
        <ele>1543.4</ele>
        <time>2021-08-21T14:34:12Z</time>
      </trkpt>
      <trkpt lat="2.800209" lon="-75.07918">
        <ele>1543.5</ele>
        <time>2021-08-21T14:34:13Z</time>
      </trkpt>
      <trkpt lat="2.800194" lon="-75.07918">
        <ele>1543.6</ele>
        <time>2021-08-21T14:34:14Z</time>
      </trkpt>
      <trkpt lat="2.800179" lon="-75.07918">
        <ele>1543.7</ele>
        <time>2021-08-21T14:34:15Z</time>
      </trkpt>
      <trkpt lat="2.800165" lon="-75.07918">
        <ele>1543.8</ele>
        <time>2021-08-21T14:34:16Z</time>
      </trkpt>
      <trkpt lat="2.800152" lon="-75.079185">
        <ele>1543.9</ele>
        <time>2021-08-21T14:34:17Z</time>
      </trkpt>
      <trkpt lat="2.800141" lon="-75.07919">
        <ele>1544.0</ele>
        <time>2021-08-21T14:34:18Z</time>
      </trkpt>
      <trkpt lat="2.800128" lon="-75.07921">
        <ele>1544.1</ele>
        <time>2021-08-21T14:34:19Z</time>
      </trkpt>
      <trkpt lat="2.800116" lon="-75.079216">
        <ele>1544.2</ele>
        <time>2021-08-21T14:34:20Z</time>
      </trkpt>
      <trkpt lat="2.800102" lon="-75.079216">
        <ele>1544.3</ele>
        <time>2021-08-21T14:34:21Z</time>
      </trkpt>
      <trkpt lat="2.800088" lon="-75.07922">
        <ele>1544.4</ele>
        <time>2021-08-21T14:34:22Z</time>
      </trkpt>
      <trkpt lat="2.800075" lon="-75.07922">
        <ele>1544.4</ele>
        <time>2021-08-21T14:34:23Z</time>
      </trkpt>
      <trkpt lat="2.80006" lon="-75.07922">
        <ele>1544.5</ele>
        <time>2021-08-21T14:34:24Z</time>
      </trkpt>
      <trkpt lat="2.800044" lon="-75.07923">
        <ele>1544.6</ele>
        <time>2021-08-21T14:34:25Z</time>
      </trkpt>
      <trkpt lat="2.800029" lon="-75.07924">
        <ele>1544.7</ele>
        <time>2021-08-21T14:34:26Z</time>
      </trkpt>
      <trkpt lat="2.800013" lon="-75.07925">
        <ele>1544.8</ele>
        <time>2021-08-21T14:34:27Z</time>
      </trkpt>
      <trkpt lat="2.799998" lon="-75.07925">
        <ele>1544.9</ele>
        <time>2021-08-21T14:34:28Z</time>
      </trkpt>
      <trkpt lat="2.799982" lon="-75.07925">
        <ele>1545.0</ele>
        <time>2021-08-21T14:34:29Z</time>
      </trkpt>
      <trkpt lat="2.799966" lon="-75.07925">
        <ele>1545.1</ele>
        <time>2021-08-21T14:34:30Z</time>
      </trkpt>
      <trkpt lat="2.79995" lon="-75.07925">
        <ele>1545.2</ele>
        <time>2021-08-21T14:34:31Z</time>
      </trkpt>
      <trkpt lat="2.799934" lon="-75.07924">
        <ele>1545.2</ele>
        <time>2021-08-21T14:34:32Z</time>
      </trkpt>
      <trkpt lat="2.799917" lon="-75.07924">
        <ele>1545.3</ele>
        <time>2021-08-21T14:34:33Z</time>
      </trkpt>
      <trkpt lat="2.799899" lon="-75.07924">
        <ele>1545.4</ele>
        <time>2021-08-21T14:34:34Z</time>
      </trkpt>
      <trkpt lat="2.799881" lon="-75.07924">
        <ele>1545.5</ele>
        <time>2021-08-21T14:34:35Z</time>
      </trkpt>
      <trkpt lat="2.799864" lon="-75.07923">
        <ele>1545.6</ele>
        <time>2021-08-21T14:34:36Z</time>
      </trkpt>
      <trkpt lat="2.799847" lon="-75.07923">
        <ele>1545.7</ele>
        <time>2021-08-21T14:34:37Z</time>
      </trkpt>
      <trkpt lat="2.799828" lon="-75.07923">
        <ele>1545.9</ele>
        <time>2021-08-21T14:34:38Z</time>
      </trkpt>
      <trkpt lat="2.799811" lon="-75.07922">
        <ele>1546.0</ele>
        <time>2021-08-21T14:34:39Z</time>
      </trkpt>
      <trkpt lat="2.799793" lon="-75.07922">
        <ele>1546.1</ele>
        <time>2021-08-21T14:34:40Z</time>
      </trkpt>
      <trkpt lat="2.799775" lon="-75.079216">
        <ele>1546.2</ele>
        <time>2021-08-21T14:34:41Z</time>
      </trkpt>
      <trkpt lat="2.799755" lon="-75.07921">
        <ele>1546.3</ele>
        <time>2021-08-21T14:34:42Z</time>
      </trkpt>
      <trkpt lat="2.799736" lon="-75.0792">
        <ele>1546.5</ele>
        <time>2021-08-21T14:34:43Z</time>
      </trkpt>
      <trkpt lat="2.799718" lon="-75.07919">
        <ele>1546.6</ele>
        <time>2021-08-21T14:34:44Z</time>
      </trkpt>
      <trkpt lat="2.799702" lon="-75.079185">
        <ele>1546.7</ele>
        <time>2021-08-21T14:34:45Z</time>
      </trkpt>
      <trkpt lat="2.799684" lon="-75.07918">
        <ele>1546.8</ele>
        <time>2021-08-21T14:34:46Z</time>
      </trkpt>
      <trkpt lat="2.799666" lon="-75.07917">
        <ele>1546.9</ele>
        <time>2021-08-21T14:34:47Z</time>
      </trkpt>
      <trkpt lat="2.799648" lon="-75.07916">
        <ele>1547.1</ele>
        <time>2021-08-21T14:34:48Z</time>
      </trkpt>
      <trkpt lat="2.799633" lon="-75.079155">
        <ele>1547.2</ele>
        <time>2021-08-21T14:34:49Z</time>
      </trkpt>
      <trkpt lat="2.799618" lon="-75.07915">
        <ele>1547.3</ele>
        <time>2021-08-21T14:34:50Z</time>
      </trkpt>
      <trkpt lat="2.799604" lon="-75.07914">
        <ele>1547.4</ele>
        <time>2021-08-21T14:34:51Z</time>
      </trkpt>
      <trkpt lat="2.79959" lon="-75.07913">
        <ele>1547.5</ele>
        <time>2021-08-21T14:34:52Z</time>
      </trkpt>
      <trkpt lat="2.799575" lon="-75.079124">
        <ele>1547.6</ele>
        <time>2021-08-21T14:34:53Z</time>
      </trkpt>
      <trkpt lat="2.799563" lon="-75.07912">
        <ele>1547.7</ele>
        <time>2021-08-21T14:34:54Z</time>
      </trkpt>
      <trkpt lat="2.79955" lon="-75.0791">
        <ele>1547.8</ele>
        <time>2021-08-21T14:34:55Z</time>
      </trkpt>
      <trkpt lat="2.799539" lon="-75.079094">
        <ele>1547.9</ele>
        <time>2021-08-21T14:34:56Z</time>
      </trkpt>
      <trkpt lat="2.799528" lon="-75.07909">
        <ele>1548.0</ele>
        <time>2021-08-21T14:34:57Z</time>
      </trkpt>
      <trkpt lat="2.799518" lon="-75.07907">
        <ele>1548.0</ele>
        <time>2021-08-21T14:34:58Z</time>
      </trkpt>
      <trkpt lat="2.799509" lon="-75.07906">
        <ele>1548.1</ele>
        <time>2021-08-21T14:34:59Z</time>
      </trkpt>
      <trkpt lat="2.7995" lon="-75.07905">
        <ele>1548.2</ele>
        <time>2021-08-21T14:35:00Z</time>
      </trkpt>
      <trkpt lat="2.799492" lon="-75.07903">
        <ele>1548.3</ele>
        <time>2021-08-21T14:35:01Z</time>
      </trkpt>
      <trkpt lat="2.799485" lon="-75.07902">
        <ele>1548.4</ele>
        <time>2021-08-21T14:35:02Z</time>
      </trkpt>
      <trkpt lat="2.799477" lon="-75.07901">
        <ele>1548.5</ele>
        <time>2021-08-21T14:35:03Z</time>
      </trkpt>
      <trkpt lat="2.79947" lon="-75.078995">
        <ele>1548.7</ele>
        <time>2021-08-21T14:35:04Z</time>
      </trkpt>
      <trkpt lat="2.799462" lon="-75.07898">
        <ele>1548.8</ele>
        <time>2021-08-21T14:35:05Z</time>
      </trkpt>
      <trkpt lat="2.799455" lon="-75.07896">
        <ele>1548.9</ele>
        <time>2021-08-21T14:35:06Z</time>
      </trkpt>
      <trkpt lat="2.799447" lon="-75.07894">
        <ele>1549.0</ele>
        <time>2021-08-21T14:35:07Z</time>
      </trkpt>
      <trkpt lat="2.799441" lon="-75.07893">
        <ele>1549.0</ele>
        <time>2021-08-21T14:35:08Z</time>
      </trkpt>
      <trkpt lat="2.799436" lon="-75.07891">
        <ele>1549.2</ele>
        <time>2021-08-21T14:35:09Z</time>
      </trkpt>
      <trkpt lat="2.79943" lon="-75.078896">
        <ele>1549.4</ele>
        <time>2021-08-21T14:35:10Z</time>
      </trkpt>
      <trkpt lat="2.799424" lon="-75.07888">
        <ele>1549.5</ele>
        <time>2021-08-21T14:35:11Z</time>
      </trkpt>
      <trkpt lat="2.799419" lon="-75.078865">
        <ele>1549.7</ele>
        <time>2021-08-21T14:35:12Z</time>
      </trkpt>
      <trkpt lat="2.799413" lon="-75.07886">
        <ele>1549.8</ele>
        <time>2021-08-21T14:35:13Z</time>
      </trkpt>
      <trkpt lat="2.799408" lon="-75.07884">
        <ele>1549.9</ele>
        <time>2021-08-21T14:35:14Z</time>
      </trkpt>
      <trkpt lat="2.799402" lon="-75.07883">
        <ele>1550.1</ele>
        <time>2021-08-21T14:35:15Z</time>
      </trkpt>
      <trkpt lat="2.799397" lon="-75.07882">
        <ele>1550.2</ele>
        <time>2021-08-21T14:35:16Z</time>
      </trkpt>
      <trkpt lat="2.799392" lon="-75.078804">
        <ele>1550.3</ele>
        <time>2021-08-21T14:35:17Z</time>
      </trkpt>
      <trkpt lat="2.799385" lon="-75.07879">
        <ele>1550.5</ele>
        <time>2021-08-21T14:35:18Z</time>
      </trkpt>
      <trkpt lat="2.799378" lon="-75.07878">
        <ele>1550.6</ele>
        <time>2021-08-21T14:35:19Z</time>
      </trkpt>
      <trkpt lat="2.799371" lon="-75.078766">
        <ele>1550.8</ele>
        <time>2021-08-21T14:35:20Z</time>
      </trkpt>
      <trkpt lat="2.799364" lon="-75.07875">
        <ele>1550.9</ele>
        <time>2021-08-21T14:35:21Z</time>
      </trkpt>
      <trkpt lat="2.79936" lon="-75.078735">
        <ele>1551.1</ele>
        <time>2021-08-21T14:35:22Z</time>
      </trkpt>
      <trkpt lat="2.799355" lon="-75.07872">
        <ele>1551.2</ele>
        <time>2021-08-21T14:35:23Z</time>
      </trkpt>
      <trkpt lat="2.799349" lon="-75.078705">
        <ele>1551.4</ele>
        <time>2021-08-21T14:35:24Z</time>
      </trkpt>
      <trkpt lat="2.799344" lon="-75.07869">
        <ele>1551.6</ele>
        <time>2021-08-21T14:35:25Z</time>
      </trkpt>
      <trkpt lat="2.799338" lon="-75.078674">
        <ele>1551.8</ele>
        <time>2021-08-21T14:35:26Z</time>
      </trkpt>
      <trkpt lat="2.799333" lon="-75.07866">
        <ele>1551.9</ele>
        <time>2021-08-21T14:35:27Z</time>
      </trkpt>
      <trkpt lat="2.799327" lon="-75.07864">
        <ele>1552.1</ele>
        <time>2021-08-21T14:35:28Z</time>
      </trkpt>
      <trkpt lat="2.799319" lon="-75.07863">
        <ele>1552.3</ele>
        <time>2021-08-21T14:35:29Z</time>
      </trkpt>
      <trkpt lat="2.799314" lon="-75.07861">
        <ele>1552.5</ele>
        <time>2021-08-21T14:35:30Z</time>
      </trkpt>
      <trkpt lat="2.799311" lon="-75.0786">
        <ele>1552.7</ele>
        <time>2021-08-21T14:35:31Z</time>
      </trkpt>
      <trkpt lat="2.799308" lon="-75.07858">
        <ele>1552.9</ele>
        <time>2021-08-21T14:35:32Z</time>
      </trkpt>
      <trkpt lat="2.799303" lon="-75.07857">
        <ele>1553.0</ele>
        <time>2021-08-21T14:35:33Z</time>
      </trkpt>
      <trkpt lat="2.799299" lon="-75.07855">
        <ele>1553.2</ele>
        <time>2021-08-21T14:35:34Z</time>
      </trkpt>
      <trkpt lat="2.799296" lon="-75.078545">
        <ele>1553.3</ele>
        <time>2021-08-21T14:35:35Z</time>
      </trkpt>
      <trkpt lat="2.799293" lon="-75.07853">
        <ele>1553.5</ele>
        <time>2021-08-21T14:35:36Z</time>
      </trkpt>
      <trkpt lat="2.799291" lon="-75.078514">
        <ele>1553.6</ele>
        <time>2021-08-21T14:35:37Z</time>
      </trkpt>
      <trkpt lat="2.799288" lon="-75.0785">
        <ele>1553.8</ele>
        <time>2021-08-21T14:35:38Z</time>
      </trkpt>
      <trkpt lat="2.799286" lon="-75.07849">
        <ele>1553.9</ele>
        <time>2021-08-21T14:35:39Z</time>
      </trkpt>
      <trkpt lat="2.799284" lon="-75.078476">
        <ele>1554.0</ele>
        <time>2021-08-21T14:35:40Z</time>
      </trkpt>
      <trkpt lat="2.799281" lon="-75.07846">
        <ele>1554.2</ele>
        <time>2021-08-21T14:35:41Z</time>
      </trkpt>
      <trkpt lat="2.799277" lon="-75.07845">
        <ele>1554.3</ele>
        <time>2021-08-21T14:35:42Z</time>
      </trkpt>
      <trkpt lat="2.799272" lon="-75.07844">
        <ele>1554.5</ele>
        <time>2021-08-21T14:35:43Z</time>
      </trkpt>
      <trkpt lat="2.799268" lon="-75.07842">
        <ele>1554.6</ele>
        <time>2021-08-21T14:35:44Z</time>
      </trkpt>
      <trkpt lat="2.799263" lon="-75.07841">
        <ele>1554.8</ele>
        <time>2021-08-21T14:35:45Z</time>
      </trkpt>
      <trkpt lat="2.799257" lon="-75.07839">
        <ele>1554.9</ele>
        <time>2021-08-21T14:35:46Z</time>
      </trkpt>
      <trkpt lat="2.799249" lon="-75.07837">
        <ele>1555.1</ele>
        <time>2021-08-21T14:35:47Z</time>
      </trkpt>
      <trkpt lat="2.799242" lon="-75.078354">
        <ele>1555.3</ele>
        <time>2021-08-21T14:35:48Z</time>
      </trkpt>
      <trkpt lat="2.799235" lon="-75.07833">
        <ele>1555.5</ele>
        <time>2021-08-21T14:35:49Z</time>
      </trkpt>
      <trkpt lat="2.799229" lon="-75.07831">
        <ele>1555.7</ele>
        <time>2021-08-21T14:35:50Z</time>
      </trkpt>
      <trkpt lat="2.799222" lon="-75.078285">
        <ele>1555.9</ele>
        <time>2021-08-21T14:35:51Z</time>
      </trkpt>
      <trkpt lat="2.799217" lon="-75.07826">
        <ele>1556.1</ele>
        <time>2021-08-21T14:35:52Z</time>
      </trkpt>
      <trkpt lat="2.799211" lon="-75.07825">
        <ele>1556.2</ele>
        <time>2021-08-21T14:35:53Z</time>
      </trkpt>
      <trkpt lat="2.799205" lon="-75.078224">
        <ele>1556.4</ele>
        <time>2021-08-21T14:35:54Z</time>
      </trkpt>
      <trkpt lat="2.799198" lon="-75.07821">
        <ele>1556.6</ele>
        <time>2021-08-21T14:35:55Z</time>
      </trkpt>
      <trkpt lat="2.799189" lon="-75.078186">
        <ele>1556.7</ele>
        <time>2021-08-21T14:35:56Z</time>
      </trkpt>
      <trkpt lat="2.799178" lon="-75.07817">
        <ele>1556.8</ele>
        <time>2021-08-21T14:35:57Z</time>
      </trkpt>
      <trkpt lat="2.799167" lon="-75.07815">
        <ele>1557.0</ele>
        <time>2021-08-21T14:35:58Z</time>
      </trkpt>
      <trkpt lat="2.799155" lon="-75.07813">
        <ele>1557.1</ele>
        <time>2021-08-21T14:35:59Z</time>
      </trkpt>
      <trkpt lat="2.799145" lon="-75.07811">
        <ele>1557.3</ele>
        <time>2021-08-21T14:36:00Z</time>
      </trkpt>
      <trkpt lat="2.799135" lon="-75.07809">
        <ele>1557.4</ele>
        <time>2021-08-21T14:36:01Z</time>
      </trkpt>
      <trkpt lat="2.799126" lon="-75.07807">
        <ele>1557.6</ele>
        <time>2021-08-21T14:36:02Z</time>
      </trkpt>
      <trkpt lat="2.799116" lon="-75.07805">
        <ele>1557.7</ele>
        <time>2021-08-21T14:36:03Z</time>
      </trkpt>
      <trkpt lat="2.799104" lon="-75.078026">
        <ele>1557.9</ele>
        <time>2021-08-21T14:36:04Z</time>
      </trkpt>
      <trkpt lat="2.799093" lon="-75.078">
        <ele>1558.0</ele>
        <time>2021-08-21T14:36:05Z</time>
      </trkpt>
      <trkpt lat="2.799083" lon="-75.07799">
        <ele>1558.2</ele>
        <time>2021-08-21T14:36:06Z</time>
      </trkpt>
      <trkpt lat="2.799073" lon="-75.077965">
        <ele>1558.3</ele>
        <time>2021-08-21T14:36:07Z</time>
      </trkpt>
      <trkpt lat="2.799062" lon="-75.07794">
        <ele>1558.5</ele>
        <time>2021-08-21T14:36:08Z</time>
      </trkpt>
      <trkpt lat="2.79905" lon="-75.07792">
        <ele>1558.7</ele>
        <time>2021-08-21T14:36:09Z</time>
      </trkpt>
      <trkpt lat="2.799038" lon="-75.077896">
        <ele>1558.8</ele>
        <time>2021-08-21T14:36:10Z</time>
      </trkpt>
      <trkpt lat="2.799027" lon="-75.07787">
        <ele>1559.0</ele>
        <time>2021-08-21T14:36:11Z</time>
      </trkpt>
      <trkpt lat="2.799016" lon="-75.07786">
        <ele>1559.1</ele>
        <time>2021-08-21T14:36:12Z</time>
      </trkpt>
      <trkpt lat="2.799006" lon="-75.07784">
        <ele>1559.2</ele>
        <time>2021-08-21T14:36:13Z</time>
      </trkpt>
      <trkpt lat="2.798997" lon="-75.07782">
        <ele>1559.3</ele>
        <time>2021-08-21T14:36:14Z</time>
      </trkpt>
      <trkpt lat="2.798987" lon="-75.077805">
        <ele>1559.4</ele>
        <time>2021-08-21T14:36:15Z</time>
      </trkpt>
      <trkpt lat="2.798979" lon="-75.07779">
        <ele>1559.5</ele>
        <time>2021-08-21T14:36:16Z</time>
      </trkpt>
      <trkpt lat="2.79897" lon="-75.077774">
        <ele>1559.6</ele>
        <time>2021-08-21T14:36:17Z</time>
      </trkpt>
      <trkpt lat="2.79896" lon="-75.07776">
        <ele>1559.7</ele>
        <time>2021-08-21T14:36:18Z</time>
      </trkpt>
      <trkpt lat="2.798949" lon="-75.07774">
        <ele>1559.8</ele>
        <time>2021-08-21T14:36:19Z</time>
      </trkpt>
      <trkpt lat="2.798939" lon="-75.07772">
        <ele>1559.9</ele>
        <time>2021-08-21T14:36:20Z</time>
      </trkpt>
      <trkpt lat="2.798928" lon="-75.077705">
        <ele>1560.0</ele>
        <time>2021-08-21T14:36:21Z</time>
      </trkpt>
      <trkpt lat="2.798918" lon="-75.07769">
        <ele>1560.1</ele>
        <time>2021-08-21T14:36:22Z</time>
      </trkpt>
      <trkpt lat="2.798907" lon="-75.07767">
        <ele>1560.2</ele>
        <time>2021-08-21T14:36:23Z</time>
      </trkpt>
      <trkpt lat="2.798896" lon="-75.07765">
        <ele>1560.3</ele>
        <time>2021-08-21T14:36:24Z</time>
      </trkpt>
      <trkpt lat="2.798883" lon="-75.07764">
        <ele>1560.4</ele>
        <time>2021-08-21T14:36:25Z</time>
      </trkpt>
      <trkpt lat="2.798871" lon="-75.077614">
        <ele>1560.5</ele>
        <time>2021-08-21T14:36:26Z</time>
      </trkpt>
      <trkpt lat="2.798859" lon="-75.0776">
        <ele>1560.6</ele>
        <time>2021-08-21T14:36:27Z</time>
      </trkpt>
      <trkpt lat="2.798847" lon="-75.077576">
        <ele>1560.8</ele>
        <time>2021-08-21T14:36:28Z</time>
      </trkpt>
      <trkpt lat="2.798835" lon="-75.07756">
        <ele>1560.9</ele>
        <time>2021-08-21T14:36:29Z</time>
      </trkpt>
      <trkpt lat="2.798823" lon="-75.07754">
        <ele>1561.0</ele>
        <time>2021-08-21T14:36:30Z</time>
      </trkpt>
      <trkpt lat="2.798811" lon="-75.07752">
        <ele>1561.1</ele>
        <time>2021-08-21T14:36:31Z</time>
      </trkpt>
      <trkpt lat="2.798798" lon="-75.0775">
        <ele>1561.3</ele>
        <time>2021-08-21T14:36:32Z</time>
      </trkpt>
      <trkpt lat="2.798786" lon="-75.07748">
        <ele>1561.4</ele>
        <time>2021-08-21T14:36:33Z</time>
      </trkpt>
      <trkpt lat="2.798773" lon="-75.07746">
        <ele>1561.5</ele>
        <time>2021-08-21T14:36:34Z</time>
      </trkpt>
      <trkpt lat="2.798761" lon="-75.07744">
        <ele>1561.6</ele>
        <time>2021-08-21T14:36:35Z</time>
      </trkpt>
      <trkpt lat="2.79875" lon="-75.07742">
        <ele>1561.7</ele>
        <time>2021-08-21T14:36:36Z</time>
      </trkpt>
      <trkpt lat="2.798739" lon="-75.07741">
        <ele>1561.8</ele>
        <time>2021-08-21T14:36:37Z</time>
      </trkpt>
      <trkpt lat="2.798729" lon="-75.07739">
        <ele>1561.9</ele>
        <time>2021-08-21T14:36:38Z</time>
      </trkpt>
      <trkpt lat="2.798719" lon="-75.07737">
        <ele>1562.0</ele>
        <time>2021-08-21T14:36:39Z</time>
      </trkpt>
      <trkpt lat="2.798708" lon="-75.077354">
        <ele>1562.1</ele>
        <time>2021-08-21T14:36:40Z</time>
      </trkpt>
      <trkpt lat="2.798695" lon="-75.07734">
        <ele>1562.2</ele>
        <time>2021-08-21T14:36:41Z</time>
      </trkpt>
      <trkpt lat="2.798681" lon="-75.077324">
        <ele>1562.3</ele>
        <time>2021-08-21T14:36:42Z</time>
      </trkpt>
      <trkpt lat="2.798667" lon="-75.0773">
        <ele>1562.5</ele>
        <time>2021-08-21T14:36:43Z</time>
      </trkpt>
      <trkpt lat="2.798657" lon="-75.077286">
        <ele>1562.6</ele>
        <time>2021-08-21T14:36:44Z</time>
      </trkpt>
      <trkpt lat="2.798649" lon="-75.07727">
        <ele>1562.7</ele>
        <time>2021-08-21T14:36:45Z</time>
      </trkpt>
      <trkpt lat="2.798641" lon="-75.077255">
        <ele>1562.8</ele>
        <time>2021-08-21T14:36:46Z</time>
      </trkpt>
      <trkpt lat="2.798632" lon="-75.07723">
        <ele>1563.0</ele>
        <time>2021-08-21T14:36:47Z</time>
      </trkpt>
      <trkpt lat="2.798621" lon="-75.07722">
        <ele>1563.1</ele>
        <time>2021-08-21T14:36:48Z</time>
      </trkpt>
      <trkpt lat="2.79861" lon="-75.077194">
        <ele>1563.3</ele>
        <time>2021-08-21T14:36:49Z</time>
      </trkpt>
      <trkpt lat="2.7986" lon="-75.07718">
        <ele>1563.5</ele>
        <time>2021-08-21T14:36:50Z</time>
      </trkpt>
      <trkpt lat="2.798588" lon="-75.07716">
        <ele>1563.6</ele>
        <time>2021-08-21T14:36:51Z</time>
      </trkpt>
      <trkpt lat="2.798579" lon="-75.07715">
        <ele>1563.8</ele>
        <time>2021-08-21T14:36:52Z</time>
      </trkpt>
      <trkpt lat="2.79857" lon="-75.07713">
        <ele>1563.9</ele>
        <time>2021-08-21T14:36:53Z</time>
      </trkpt>
      <trkpt lat="2.798561" lon="-75.07712">
        <ele>1564.1</ele>
        <time>2021-08-21T14:36:54Z</time>
      </trkpt>
      <trkpt lat="2.798551" lon="-75.0771">
        <ele>1564.2</ele>
        <time>2021-08-21T14:36:55Z</time>
      </trkpt>
      <trkpt lat="2.798542" lon="-75.07709">
        <ele>1564.4</ele>
        <time>2021-08-21T14:36:56Z</time>
      </trkpt>
      <trkpt lat="2.798532" lon="-75.077065">
        <ele>1564.5</ele>
        <time>2021-08-21T14:36:57Z</time>
      </trkpt>
      <trkpt lat="2.79852" lon="-75.07705">
        <ele>1564.7</ele>
        <time>2021-08-21T14:36:58Z</time>
      </trkpt>
      <trkpt lat="2.798508" lon="-75.07704">
        <ele>1564.8</ele>
        <time>2021-08-21T14:36:59Z</time>
      </trkpt>
      <trkpt lat="2.798495" lon="-75.07703">
        <ele>1565.0</ele>
        <time>2021-08-21T14:37:00Z</time>
      </trkpt>
      <trkpt lat="2.798481" lon="-75.07701">
        <ele>1565.1</ele>
        <time>2021-08-21T14:37:01Z</time>
      </trkpt>
      <trkpt lat="2.798468" lon="-75.077">
        <ele>1565.3</ele>
        <time>2021-08-21T14:37:02Z</time>
      </trkpt>
      <trkpt lat="2.798455" lon="-75.07699">
        <ele>1565.4</ele>
        <time>2021-08-21T14:37:03Z</time>
      </trkpt>
      <trkpt lat="2.798442" lon="-75.07698">
        <ele>1565.6</ele>
        <time>2021-08-21T14:37:04Z</time>
      </trkpt>
      <trkpt lat="2.798431" lon="-75.07697">
        <ele>1565.7</ele>
        <time>2021-08-21T14:37:05Z</time>
      </trkpt>
      <trkpt lat="2.798421" lon="-75.07696">
        <ele>1565.9</ele>
        <time>2021-08-21T14:37:06Z</time>
      </trkpt>
      <trkpt lat="2.798409" lon="-75.07694">
        <ele>1566.0</ele>
        <time>2021-08-21T14:37:07Z</time>
      </trkpt>
      <trkpt lat="2.798397" lon="-75.076935">
        <ele>1566.2</ele>
        <time>2021-08-21T14:37:08Z</time>
      </trkpt>
      <trkpt lat="2.798386" lon="-75.07692">
        <ele>1566.3</ele>
        <time>2021-08-21T14:37:09Z</time>
      </trkpt>
      <trkpt lat="2.798374" lon="-75.07691">
        <ele>1566.4</ele>
        <time>2021-08-21T14:37:10Z</time>
      </trkpt>
      <trkpt lat="2.798362" lon="-75.076904">
        <ele>1566.6</ele>
        <time>2021-08-21T14:37:11Z</time>
      </trkpt>
      <trkpt lat="2.79835" lon="-75.0769">
        <ele>1566.7</ele>
        <time>2021-08-21T14:37:12Z</time>
      </trkpt>
      <trkpt lat="2.798341" lon="-75.07688">
        <ele>1566.8</ele>
        <time>2021-08-21T14:37:13Z</time>
      </trkpt>
      <trkpt lat="2.798333" lon="-75.076866">
        <ele>1567.0</ele>
        <time>2021-08-21T14:37:14Z</time>
      </trkpt>
      <trkpt lat="2.798325" lon="-75.07685">
        <ele>1567.2</ele>
        <time>2021-08-21T14:37:15Z</time>
      </trkpt>
      <trkpt lat="2.798316" lon="-75.07683">
        <ele>1567.4</ele>
        <time>2021-08-21T14:37:16Z</time>
      </trkpt>
      <trkpt lat="2.798309" lon="-75.07681">
        <ele>1567.5</ele>
        <time>2021-08-21T14:37:17Z</time>
      </trkpt>
      <trkpt lat="2.798304" lon="-75.07679">
        <ele>1567.7</ele>
        <time>2021-08-21T14:37:18Z</time>
      </trkpt>
      <trkpt lat="2.798299" lon="-75.07677">
        <ele>1567.9</ele>
        <time>2021-08-21T14:37:19Z</time>
      </trkpt>
      <trkpt lat="2.798295" lon="-75.07675">
        <ele>1568.1</ele>
        <time>2021-08-21T14:37:20Z</time>
      </trkpt>
      <trkpt lat="2.798293" lon="-75.07673">
        <ele>1568.3</ele>
        <time>2021-08-21T14:37:21Z</time>
      </trkpt>
      <trkpt lat="2.798284" lon="-75.07668">
        <ele>1568.7</ele>
        <time>2021-08-21T14:37:22Z</time>
      </trkpt>
      <trkpt lat="2.798289" lon="-75.076706">
        <ele>1568.5</ele>
        <time>2021-08-21T14:37:22Z</time>
      </trkpt>
      <trkpt lat="2.798278" lon="-75.07667">
        <ele>1568.9</ele>
        <time>2021-08-21T14:37:23Z</time>
      </trkpt>
      <trkpt lat="2.798272" lon="-75.076645">
        <ele>1569.1</ele>
        <time>2021-08-21T14:37:24Z</time>
      </trkpt>
      <trkpt lat="2.798266" lon="-75.07662">
        <ele>1569.2</ele>
        <time>2021-08-21T14:37:25Z</time>
      </trkpt>
      <trkpt lat="2.798261" lon="-75.07661">
        <ele>1569.4</ele>
        <time>2021-08-21T14:37:26Z</time>
      </trkpt>
      <trkpt lat="2.798257" lon="-75.07659">
        <ele>1569.6</ele>
        <time>2021-08-21T14:37:27Z</time>
      </trkpt>
      <trkpt lat="2.798252" lon="-75.07657">
        <ele>1569.7</ele>
        <time>2021-08-21T14:37:28Z</time>
      </trkpt>
      <trkpt lat="2.798245" lon="-75.07655">
        <ele>1569.9</ele>
        <time>2021-08-21T14:37:29Z</time>
      </trkpt>
      <trkpt lat="2.798237" lon="-75.07654">
        <ele>1570.0</ele>
        <time>2021-08-21T14:37:30Z</time>
      </trkpt>
      <trkpt lat="2.798226" lon="-75.07652">
        <ele>1570.1</ele>
        <time>2021-08-21T14:37:31Z</time>
      </trkpt>
      <trkpt lat="2.798213" lon="-75.07651">
        <ele>1570.3</ele>
        <time>2021-08-21T14:37:32Z</time>
      </trkpt>
      <trkpt lat="2.798199" lon="-75.07649">
        <ele>1570.4</ele>
        <time>2021-08-21T14:37:33Z</time>
      </trkpt>
      <trkpt lat="2.798185" lon="-75.07648">
        <ele>1570.6</ele>
        <time>2021-08-21T14:37:34Z</time>
      </trkpt>
      <trkpt lat="2.798171" lon="-75.07646">
        <ele>1570.8</ele>
        <time>2021-08-21T14:37:35Z</time>
      </trkpt>
      <trkpt lat="2.798157" lon="-75.076454">
        <ele>1570.9</ele>
        <time>2021-08-21T14:37:36Z</time>
      </trkpt>
      <trkpt lat="2.798142" lon="-75.07644">
        <ele>1571.0</ele>
        <time>2021-08-21T14:37:37Z</time>
      </trkpt>
      <trkpt lat="2.798127" lon="-75.07643">
        <ele>1571.2</ele>
        <time>2021-08-21T14:37:38Z</time>
      </trkpt>
      <trkpt lat="2.798112" lon="-75.076416">
        <ele>1571.4</ele>
        <time>2021-08-21T14:37:39Z</time>
      </trkpt>
      <trkpt lat="2.798097" lon="-75.07641">
        <ele>1571.5</ele>
        <time>2021-08-21T14:37:40Z</time>
      </trkpt>
      <trkpt lat="2.798079" lon="-75.07639">
        <ele>1571.7</ele>
        <time>2021-08-21T14:37:41Z</time>
      </trkpt>
      <trkpt lat="2.798062" lon="-75.07638">
        <ele>1571.9</ele>
        <time>2021-08-21T14:37:42Z</time>
      </trkpt>
      <trkpt lat="2.798047" lon="-75.07636">
        <ele>1572.0</ele>
        <time>2021-08-21T14:37:43Z</time>
      </trkpt>
      <trkpt lat="2.798031" lon="-75.076355">
        <ele>1572.2</ele>
        <time>2021-08-21T14:37:44Z</time>
      </trkpt>
      <trkpt lat="2.798017" lon="-75.07634">
        <ele>1572.4</ele>
        <time>2021-08-21T14:37:45Z</time>
      </trkpt>
      <trkpt lat="2.798003" lon="-75.07633">
        <ele>1572.5</ele>
        <time>2021-08-21T14:37:46Z</time>
      </trkpt>
      <trkpt lat="2.797988" lon="-75.07632">
        <ele>1572.7</ele>
        <time>2021-08-21T14:37:47Z</time>
      </trkpt>
      <trkpt lat="2.797974" lon="-75.0763">
        <ele>1572.8</ele>
        <time>2021-08-21T14:37:48Z</time>
      </trkpt>
      <trkpt lat="2.797961" lon="-75.076294">
        <ele>1573.0</ele>
        <time>2021-08-21T14:37:49Z</time>
      </trkpt>
      <trkpt lat="2.797948" lon="-75.07628">
        <ele>1573.1</ele>
        <time>2021-08-21T14:37:50Z</time>
      </trkpt>
      <trkpt lat="2.797936" lon="-75.07626">
        <ele>1573.3</ele>
        <time>2021-08-21T14:37:51Z</time>
      </trkpt>
      <trkpt lat="2.797925" lon="-75.076256">
        <ele>1573.4</ele>
        <time>2021-08-21T14:37:52Z</time>
      </trkpt>
      <trkpt lat="2.797912" lon="-75.07624">
        <ele>1573.6</ele>
        <time>2021-08-21T14:37:53Z</time>
      </trkpt>
      <trkpt lat="2.797901" lon="-75.076225">
        <ele>1573.7</ele>
        <time>2021-08-21T14:37:54Z</time>
      </trkpt>
      <trkpt lat="2.797889" lon="-75.07622">
        <ele>1573.8</ele>
        <time>2021-08-21T14:37:55Z</time>
      </trkpt>
      <trkpt lat="2.797877" lon="-75.0762">
        <ele>1574.0</ele>
        <time>2021-08-21T14:37:56Z</time>
      </trkpt>
      <trkpt lat="2.797866" lon="-75.076195">
        <ele>1574.1</ele>
        <time>2021-08-21T14:37:57Z</time>
      </trkpt>
      <trkpt lat="2.797853" lon="-75.07618">
        <ele>1574.3</ele>
        <time>2021-08-21T14:37:58Z</time>
      </trkpt>
      <trkpt lat="2.797841" lon="-75.076164">
        <ele>1574.4</ele>
        <time>2021-08-21T14:37:59Z</time>
      </trkpt>
      <trkpt lat="2.797828" lon="-75.07616">
        <ele>1574.6</ele>
        <time>2021-08-21T14:38:00Z</time>
      </trkpt>
      <trkpt lat="2.797814" lon="-75.07615">
        <ele>1574.7</ele>
        <time>2021-08-21T14:38:01Z</time>
      </trkpt>
      <trkpt lat="2.7978" lon="-75.07613">
        <ele>1574.9</ele>
        <time>2021-08-21T14:38:02Z</time>
      </trkpt>
      <trkpt lat="2.797785" lon="-75.076126">
        <ele>1575.0</ele>
        <time>2021-08-21T14:38:03Z</time>
      </trkpt>
      <trkpt lat="2.797771" lon="-75.07612">
        <ele>1575.2</ele>
        <time>2021-08-21T14:38:04Z</time>
      </trkpt>
      <trkpt lat="2.797755" lon="-75.0761">
        <ele>1575.3</ele>
        <time>2021-08-21T14:38:05Z</time>
      </trkpt>
      <trkpt lat="2.79774" lon="-75.076096">
        <ele>1575.4</ele>
        <time>2021-08-21T14:38:06Z</time>
      </trkpt>
      <trkpt lat="2.797725" lon="-75.07609">
        <ele>1575.6</ele>
        <time>2021-08-21T14:38:07Z</time>
      </trkpt>
      <trkpt lat="2.797712" lon="-75.07607">
        <ele>1575.7</ele>
        <time>2021-08-21T14:38:08Z</time>
      </trkpt>
      <trkpt lat="2.797701" lon="-75.076065">
        <ele>1575.8</ele>
        <time>2021-08-21T14:38:09Z</time>
      </trkpt>
      <trkpt lat="2.79769" lon="-75.07606">
        <ele>1576.0</ele>
        <time>2021-08-21T14:38:10Z</time>
      </trkpt>
      <trkpt lat="2.797677" lon="-75.07604">
        <ele>1576.1</ele>
        <time>2021-08-21T14:38:11Z</time>
      </trkpt>
      <trkpt lat="2.797663" lon="-75.07603">
        <ele>1576.2</ele>
        <time>2021-08-21T14:38:12Z</time>
      </trkpt>
      <trkpt lat="2.79765" lon="-75.07602">
        <ele>1576.4</ele>
        <time>2021-08-21T14:38:13Z</time>
      </trkpt>
      <trkpt lat="2.797637" lon="-75.076004">
        <ele>1576.5</ele>
        <time>2021-08-21T14:38:14Z</time>
      </trkpt>
      <trkpt lat="2.797625" lon="-75.07599">
        <ele>1576.6</ele>
        <time>2021-08-21T14:38:15Z</time>
      </trkpt>
      <trkpt lat="2.797611" lon="-75.07598">
        <ele>1576.8</ele>
        <time>2021-08-21T14:38:16Z</time>
      </trkpt>
      <trkpt lat="2.797597" lon="-75.075966">
        <ele>1576.9</ele>
        <time>2021-08-21T14:38:17Z</time>
      </trkpt>
      <trkpt lat="2.797584" lon="-75.07595">
        <ele>1577.1</ele>
        <time>2021-08-21T14:38:18Z</time>
      </trkpt>
      <trkpt lat="2.797572" lon="-75.075935">
        <ele>1577.2</ele>
        <time>2021-08-21T14:38:19Z</time>
      </trkpt>
      <trkpt lat="2.797559" lon="-75.07592">
        <ele>1577.4</ele>
        <time>2021-08-21T14:38:20Z</time>
      </trkpt>
      <trkpt lat="2.797547" lon="-75.075905">
        <ele>1577.5</ele>
        <time>2021-08-21T14:38:21Z</time>
      </trkpt>
      <trkpt lat="2.797535" lon="-75.07589">
        <ele>1577.7</ele>
        <time>2021-08-21T14:38:22Z</time>
      </trkpt>
      <trkpt lat="2.797523" lon="-75.075874">
        <ele>1577.9</ele>
        <time>2021-08-21T14:38:23Z</time>
      </trkpt>
      <trkpt lat="2.797513" lon="-75.07586">
        <ele>1578.0</ele>
        <time>2021-08-21T14:38:24Z</time>
      </trkpt>
      <trkpt lat="2.797502" lon="-75.07584">
        <ele>1578.2</ele>
        <time>2021-08-21T14:38:25Z</time>
      </trkpt>
      <trkpt lat="2.79749" lon="-75.07583">
        <ele>1578.3</ele>
        <time>2021-08-21T14:38:26Z</time>
      </trkpt>
      <trkpt lat="2.79748" lon="-75.07581">
        <ele>1578.5</ele>
        <time>2021-08-21T14:38:27Z</time>
      </trkpt>
      <trkpt lat="2.79747" lon="-75.0758">
        <ele>1578.6</ele>
        <time>2021-08-21T14:38:28Z</time>
      </trkpt>
      <trkpt lat="2.79746" lon="-75.07578">
        <ele>1578.8</ele>
        <time>2021-08-21T14:38:29Z</time>
      </trkpt>
      <trkpt lat="2.797449" lon="-75.075775">
        <ele>1578.9</ele>
        <time>2021-08-21T14:38:30Z</time>
      </trkpt>
      <trkpt lat="2.797437" lon="-75.07576">
        <ele>1579.0</ele>
        <time>2021-08-21T14:38:31Z</time>
      </trkpt>
      <trkpt lat="2.797426" lon="-75.075745">
        <ele>1579.2</ele>
        <time>2021-08-21T14:38:32Z</time>
      </trkpt>
      <trkpt lat="2.797414" lon="-75.07573">
        <ele>1579.3</ele>
        <time>2021-08-21T14:38:33Z</time>
      </trkpt>
      <trkpt lat="2.797402" lon="-75.075714">
        <ele>1579.5</ele>
        <time>2021-08-21T14:38:34Z</time>
      </trkpt>
      <trkpt lat="2.79739" lon="-75.0757">
        <ele>1579.7</ele>
        <time>2021-08-21T14:38:35Z</time>
      </trkpt>
      <trkpt lat="2.797378" lon="-75.07568">
        <ele>1579.8</ele>
        <time>2021-08-21T14:38:36Z</time>
      </trkpt>
      <trkpt lat="2.797366" lon="-75.07567">
        <ele>1580.0</ele>
        <time>2021-08-21T14:38:37Z</time>
      </trkpt>
      <trkpt lat="2.797343" lon="-75.07564">
        <ele>1580.3</ele>
        <time>2021-08-21T14:38:39Z</time>
      </trkpt>
      <trkpt lat="2.797349" lon="-75.075645">
        <ele>1580.2</ele>
        <time>2021-08-21T14:38:39Z</time>
      </trkpt>
      <trkpt lat="2.797332" lon="-75.07562">
        <ele>1580.4</ele>
        <time>2021-08-21T14:38:40Z</time>
      </trkpt>
      <trkpt lat="2.797321" lon="-75.07561">
        <ele>1580.6</ele>
        <time>2021-08-21T14:38:41Z</time>
      </trkpt>
      <trkpt lat="2.797309" lon="-75.07559">
        <ele>1580.7</ele>
        <time>2021-08-21T14:38:42Z</time>
      </trkpt>
      <trkpt lat="2.797299" lon="-75.075584">
        <ele>1580.8</ele>
        <time>2021-08-21T14:38:43Z</time>
      </trkpt>
      <trkpt lat="2.797289" lon="-75.07557">
        <ele>1581.0</ele>
        <time>2021-08-21T14:38:44Z</time>
      </trkpt>
      <trkpt lat="2.79728" lon="-75.075554">
        <ele>1581.1</ele>
        <time>2021-08-21T14:38:45Z</time>
      </trkpt>
      <trkpt lat="2.797271" lon="-75.07554">
        <ele>1581.3</ele>
        <time>2021-08-21T14:38:46Z</time>
      </trkpt>
      <trkpt lat="2.797262" lon="-75.07552">
        <ele>1581.4</ele>
        <time>2021-08-21T14:38:47Z</time>
      </trkpt>
      <trkpt lat="2.797252" lon="-75.07551">
        <ele>1581.6</ele>
        <time>2021-08-21T14:38:48Z</time>
      </trkpt>
      <trkpt lat="2.797242" lon="-75.07549">
        <ele>1581.8</ele>
        <time>2021-08-21T14:38:49Z</time>
      </trkpt>
      <trkpt lat="2.797233" lon="-75.075485">
        <ele>1581.9</ele>
        <time>2021-08-21T14:38:50Z</time>
      </trkpt>
      <trkpt lat="2.797224" lon="-75.07548">
        <ele>1582.0</ele>
        <time>2021-08-21T14:38:51Z</time>
      </trkpt>
      <trkpt lat="2.797217" lon="-75.07546">
        <ele>1582.1</ele>
        <time>2021-08-21T14:38:52Z</time>
      </trkpt>
      <trkpt lat="2.797211" lon="-75.07545">
        <ele>1582.3</ele>
        <time>2021-08-21T14:38:53Z</time>
      </trkpt>
      <trkpt lat="2.797205" lon="-75.07543">
        <ele>1582.4</ele>
        <time>2021-08-21T14:38:54Z</time>
      </trkpt>
      <trkpt lat="2.797199" lon="-75.075424">
        <ele>1582.6</ele>
        <time>2021-08-21T14:38:55Z</time>
      </trkpt>
      <trkpt lat="2.797192" lon="-75.07541">
        <ele>1582.8</ele>
        <time>2021-08-21T14:38:56Z</time>
      </trkpt>
      <trkpt lat="2.797186" lon="-75.07539">
        <ele>1582.9</ele>
        <time>2021-08-21T14:38:57Z</time>
      </trkpt>
      <trkpt lat="2.797181" lon="-75.07538">
        <ele>1583.1</ele>
        <time>2021-08-21T14:38:58Z</time>
      </trkpt>
      <trkpt lat="2.797176" lon="-75.07536">
        <ele>1583.3</ele>
        <time>2021-08-21T14:38:59Z</time>
      </trkpt>
      <trkpt lat="2.797172" lon="-75.07535">
        <ele>1583.5</ele>
        <time>2021-08-21T14:39:00Z</time>
      </trkpt>
      <trkpt lat="2.797168" lon="-75.07533">
        <ele>1583.7</ele>
        <time>2021-08-21T14:39:01Z</time>
      </trkpt>
      <trkpt lat="2.797163" lon="-75.07532">
        <ele>1583.8</ele>
        <time>2021-08-21T14:39:02Z</time>
      </trkpt>
      <trkpt lat="2.797158" lon="-75.0753">
        <ele>1584.0</ele>
        <time>2021-08-21T14:39:03Z</time>
      </trkpt>
      <trkpt lat="2.797155" lon="-75.07529">
        <ele>1584.2</ele>
        <time>2021-08-21T14:39:04Z</time>
      </trkpt>
      <trkpt lat="2.797152" lon="-75.07527">
        <ele>1584.4</ele>
        <time>2021-08-21T14:39:05Z</time>
      </trkpt>
      <trkpt lat="2.797148" lon="-75.07526">
        <ele>1584.6</ele>
        <time>2021-08-21T14:39:06Z</time>
      </trkpt>
      <trkpt lat="2.797145" lon="-75.07525">
        <ele>1584.7</ele>
        <time>2021-08-21T14:39:07Z</time>
      </trkpt>
      <trkpt lat="2.797141" lon="-75.07523">
        <ele>1584.8</ele>
        <time>2021-08-21T14:39:08Z</time>
      </trkpt>
      <trkpt lat="2.797136" lon="-75.07522">
        <ele>1585.0</ele>
        <time>2021-08-21T14:39:09Z</time>
      </trkpt>
      <trkpt lat="2.79713" lon="-75.07521">
        <ele>1585.2</ele>
        <time>2021-08-21T14:39:10Z</time>
      </trkpt>
      <trkpt lat="2.797125" lon="-75.075195">
        <ele>1585.3</ele>
        <time>2021-08-21T14:39:11Z</time>
      </trkpt>
      <trkpt lat="2.79712" lon="-75.07518">
        <ele>1585.5</ele>
        <time>2021-08-21T14:39:12Z</time>
      </trkpt>
      <trkpt lat="2.797114" lon="-75.07517">
        <ele>1585.7</ele>
        <time>2021-08-21T14:39:13Z</time>
      </trkpt>
      <trkpt lat="2.797108" lon="-75.075165">
        <ele>1585.8</ele>
        <time>2021-08-21T14:39:14Z</time>
      </trkpt>
      <trkpt lat="2.797102" lon="-75.07515">
        <ele>1586.0</ele>
        <time>2021-08-21T14:39:15Z</time>
      </trkpt>
      <trkpt lat="2.797095" lon="-75.075134">
        <ele>1586.1</ele>
        <time>2021-08-21T14:39:16Z</time>
      </trkpt>
      <trkpt lat="2.797087" lon="-75.07513">
        <ele>1586.3</ele>
        <time>2021-08-21T14:39:17Z</time>
      </trkpt>
      <trkpt lat="2.797078" lon="-75.07511">
        <ele>1586.5</ele>
        <time>2021-08-21T14:39:18Z</time>
      </trkpt>
      <trkpt lat="2.797069" lon="-75.0751">
        <ele>1586.6</ele>
        <time>2021-08-21T14:39:19Z</time>
      </trkpt>
      <trkpt lat="2.79706" lon="-75.07509">
        <ele>1586.8</ele>
        <time>2021-08-21T14:39:20Z</time>
      </trkpt>
      <trkpt lat="2.797051" lon="-75.07508">
        <ele>1586.9</ele>
        <time>2021-08-21T14:39:21Z</time>
      </trkpt>
      <trkpt lat="2.797039" lon="-75.075066">
        <ele>1587.1</ele>
        <time>2021-08-21T14:39:22Z</time>
      </trkpt>
      <trkpt lat="2.797027" lon="-75.075066">
        <ele>1587.3</ele>
        <time>2021-08-21T14:39:23Z</time>
      </trkpt>
      <trkpt lat="2.797015" lon="-75.07506">
        <ele>1587.4</ele>
        <time>2021-08-21T14:39:24Z</time>
      </trkpt>
      <trkpt lat="2.797004" lon="-75.07505">
        <ele>1587.5</ele>
        <time>2021-08-21T14:39:25Z</time>
      </trkpt>
      <trkpt lat="2.796993" lon="-75.07504">
        <ele>1587.6</ele>
        <time>2021-08-21T14:39:26Z</time>
      </trkpt>
      <trkpt lat="2.796984" lon="-75.075035">
        <ele>1587.8</ele>
        <time>2021-08-21T14:39:27Z</time>
      </trkpt>
      <trkpt lat="2.796976" lon="-75.07503">
        <ele>1587.9</ele>
        <time>2021-08-21T14:39:28Z</time>
      </trkpt>
      <trkpt lat="2.796969" lon="-75.07502">
        <ele>1587.9</ele>
        <time>2021-08-21T14:39:29Z</time>
      </trkpt>
      <trkpt lat="2.796963" lon="-75.07501">
        <ele>1588.0</ele>
        <time>2021-08-21T14:39:30Z</time>
      </trkpt>
      <trkpt lat="2.796956" lon="-75.075005">
        <ele>1588.1</ele>
        <time>2021-08-21T14:39:31Z</time>
      </trkpt>
      <trkpt lat="2.796948" lon="-75.075">
        <ele>1588.2</ele>
        <time>2021-08-21T14:39:32Z</time>
      </trkpt>
      <trkpt lat="2.796938" lon="-75.07499">
        <ele>1588.4</ele>
        <time>2021-08-21T14:39:33Z</time>
      </trkpt>
      <trkpt lat="2.796929" lon="-75.07498">
        <ele>1588.4</ele>
        <time>2021-08-21T14:39:34Z</time>
      </trkpt>
      <trkpt lat="2.796919" lon="-75.074974">
        <ele>1588.5</ele>
        <time>2021-08-21T14:39:35Z</time>
      </trkpt>
      <trkpt lat="2.796908" lon="-75.07496">
        <ele>1588.6</ele>
        <time>2021-08-21T14:39:36Z</time>
      </trkpt>
      <trkpt lat="2.796894" lon="-75.07495">
        <ele>1588.8</ele>
        <time>2021-08-21T14:39:37Z</time>
      </trkpt>
      <trkpt lat="2.796881" lon="-75.07494">
        <ele>1588.9</ele>
        <time>2021-08-21T14:39:38Z</time>
      </trkpt>
      <trkpt lat="2.796866" lon="-75.07493">
        <ele>1589.0</ele>
        <time>2021-08-21T14:39:39Z</time>
      </trkpt>
      <trkpt lat="2.79685" lon="-75.07492">
        <ele>1589.1</ele>
        <time>2021-08-21T14:39:40Z</time>
      </trkpt>
      <trkpt lat="2.796833" lon="-75.07492">
        <ele>1589.2</ele>
        <time>2021-08-21T14:39:41Z</time>
      </trkpt>
      <trkpt lat="2.796816" lon="-75.07491">
        <ele>1589.3</ele>
        <time>2021-08-21T14:39:42Z</time>
      </trkpt>
      <trkpt lat="2.7968" lon="-75.07491">
        <ele>1589.4</ele>
        <time>2021-08-21T14:39:43Z</time>
      </trkpt>
      <trkpt lat="2.796781" lon="-75.07491">
        <ele>1589.5</ele>
        <time>2021-08-21T14:39:44Z</time>
      </trkpt>
      <trkpt lat="2.796761" lon="-75.07491">
        <ele>1589.6</ele>
        <time>2021-08-21T14:39:45Z</time>
      </trkpt>
      <trkpt lat="2.796742" lon="-75.07491">
        <ele>1589.7</ele>
        <time>2021-08-21T14:39:46Z</time>
      </trkpt>
      <trkpt lat="2.796724" lon="-75.07491">
        <ele>1589.8</ele>
        <time>2021-08-21T14:39:47Z</time>
      </trkpt>
      <trkpt lat="2.796707" lon="-75.07491">
        <ele>1589.9</ele>
        <time>2021-08-21T14:39:48Z</time>
      </trkpt>
      <trkpt lat="2.796691" lon="-75.07491">
        <ele>1590.0</ele>
        <time>2021-08-21T14:39:49Z</time>
      </trkpt>
      <trkpt lat="2.796676" lon="-75.07491">
        <ele>1590.0</ele>
        <time>2021-08-21T14:39:50Z</time>
      </trkpt>
      <trkpt lat="2.796663" lon="-75.07491">
        <ele>1590.1</ele>
        <time>2021-08-21T14:39:51Z</time>
      </trkpt>
      <trkpt lat="2.796651" lon="-75.074905">
        <ele>1590.1</ele>
        <time>2021-08-21T14:39:52Z</time>
      </trkpt>
      <trkpt lat="2.796641" lon="-75.074905">
        <ele>1590.2</ele>
        <time>2021-08-21T14:39:53Z</time>
      </trkpt>
      <trkpt lat="2.79663" lon="-75.074905">
        <ele>1590.2</ele>
        <time>2021-08-21T14:39:54Z</time>
      </trkpt>
      <trkpt lat="2.796618" lon="-75.074905">
        <ele>1590.3</ele>
        <time>2021-08-21T14:39:55Z</time>
      </trkpt>
      <trkpt lat="2.796606" lon="-75.07491">
        <ele>1590.4</ele>
        <time>2021-08-21T14:39:56Z</time>
      </trkpt>
      <trkpt lat="2.796595" lon="-75.07491">
        <ele>1590.4</ele>
        <time>2021-08-21T14:39:57Z</time>
      </trkpt>
      <trkpt lat="2.796584" lon="-75.07491">
        <ele>1590.5</ele>
        <time>2021-08-21T14:39:58Z</time>
      </trkpt>
      <trkpt lat="2.796572" lon="-75.07491">
        <ele>1590.5</ele>
        <time>2021-08-21T14:39:59Z</time>
      </trkpt>
      <trkpt lat="2.796561" lon="-75.07491">
        <ele>1590.6</ele>
        <time>2021-08-21T14:40:00Z</time>
      </trkpt>
      <trkpt lat="2.79655" lon="-75.07491">
        <ele>1590.7</ele>
        <time>2021-08-21T14:40:01Z</time>
      </trkpt>
      <trkpt lat="2.796541" lon="-75.07491">
        <ele>1590.7</ele>
        <time>2021-08-21T14:40:02Z</time>
      </trkpt>
      <trkpt lat="2.796531" lon="-75.07491">
        <ele>1590.8</ele>
        <time>2021-08-21T14:40:03Z</time>
      </trkpt>
      <trkpt lat="2.796522" lon="-75.07491">
        <ele>1590.8</ele>
        <time>2021-08-21T14:40:04Z</time>
      </trkpt>
      <trkpt lat="2.79651" lon="-75.07491">
        <ele>1590.9</ele>
        <time>2021-08-21T14:40:05Z</time>
      </trkpt>
      <trkpt lat="2.796497" lon="-75.07492">
        <ele>1591.0</ele>
        <time>2021-08-21T14:40:06Z</time>
      </trkpt>
      <trkpt lat="2.796484" lon="-75.07492">
        <ele>1591.1</ele>
        <time>2021-08-21T14:40:07Z</time>
      </trkpt>
      <trkpt lat="2.796471" lon="-75.07493">
        <ele>1591.2</ele>
        <time>2021-08-21T14:40:08Z</time>
      </trkpt>
      <trkpt lat="2.796458" lon="-75.074936">
        <ele>1591.3</ele>
        <time>2021-08-21T14:40:09Z</time>
      </trkpt>
      <trkpt lat="2.796447" lon="-75.074936">
        <ele>1591.4</ele>
        <time>2021-08-21T14:40:10Z</time>
      </trkpt>
      <trkpt lat="2.796438" lon="-75.07494">
        <ele>1591.5</ele>
        <time>2021-08-21T14:40:11Z</time>
      </trkpt>
      <trkpt lat="2.796428" lon="-75.07495">
        <ele>1591.6</ele>
        <time>2021-08-21T14:40:12Z</time>
      </trkpt>
      <trkpt lat="2.796418" lon="-75.07495">
        <ele>1591.7</ele>
        <time>2021-08-21T14:40:13Z</time>
      </trkpt>
      <trkpt lat="2.796408" lon="-75.07496">
        <ele>1591.8</ele>
        <time>2021-08-21T14:40:14Z</time>
      </trkpt>
      <trkpt lat="2.796398" lon="-75.07497">
        <ele>1591.9</ele>
        <time>2021-08-21T14:40:15Z</time>
      </trkpt>
      <trkpt lat="2.796387" lon="-75.074974">
        <ele>1592.1</ele>
        <time>2021-08-21T14:40:16Z</time>
      </trkpt>
      <trkpt lat="2.796376" lon="-75.07498">
        <ele>1592.2</ele>
        <time>2021-08-21T14:40:17Z</time>
      </trkpt>
      <trkpt lat="2.796364" lon="-75.07499">
        <ele>1592.4</ele>
        <time>2021-08-21T14:40:18Z</time>
      </trkpt>
      <trkpt lat="2.796352" lon="-75.075">
        <ele>1592.5</ele>
        <time>2021-08-21T14:40:19Z</time>
      </trkpt>
      <trkpt lat="2.79634" lon="-75.075005">
        <ele>1592.7</ele>
        <time>2021-08-21T14:40:20Z</time>
      </trkpt>
      <trkpt lat="2.796328" lon="-75.07501">
        <ele>1592.8</ele>
        <time>2021-08-21T14:40:21Z</time>
      </trkpt>
      <trkpt lat="2.796317" lon="-75.07502">
        <ele>1593.0</ele>
        <time>2021-08-21T14:40:22Z</time>
      </trkpt>
      <trkpt lat="2.796305" lon="-75.07503">
        <ele>1593.1</ele>
        <time>2021-08-21T14:40:23Z</time>
      </trkpt>
      <trkpt lat="2.796296" lon="-75.075035">
        <ele>1593.3</ele>
        <time>2021-08-21T14:40:24Z</time>
      </trkpt>
      <trkpt lat="2.796286" lon="-75.07504">
        <ele>1593.4</ele>
        <time>2021-08-21T14:40:25Z</time>
      </trkpt>
      <trkpt lat="2.796277" lon="-75.07504">
        <ele>1593.5</ele>
        <time>2021-08-21T14:40:26Z</time>
      </trkpt>
      <trkpt lat="2.796268" lon="-75.07505">
        <ele>1593.6</ele>
        <time>2021-08-21T14:40:27Z</time>
      </trkpt>
      <trkpt lat="2.79626" lon="-75.07505">
        <ele>1593.7</ele>
        <time>2021-08-21T14:40:28Z</time>
      </trkpt>
      <trkpt lat="2.796252" lon="-75.07506">
        <ele>1593.8</ele>
        <time>2021-08-21T14:40:29Z</time>
      </trkpt>
      <trkpt lat="2.796245" lon="-75.075066">
        <ele>1593.9</ele>
        <time>2021-08-21T14:40:30Z</time>
      </trkpt>
      <trkpt lat="2.796239" lon="-75.07507">
        <ele>1594.0</ele>
        <time>2021-08-21T14:40:31Z</time>
      </trkpt>
      <trkpt lat="2.796233" lon="-75.07508">
        <ele>1594.1</ele>
        <time>2021-08-21T14:40:32Z</time>
      </trkpt>
      <trkpt lat="2.796227" lon="-75.07509">
        <ele>1594.2</ele>
        <time>2021-08-21T14:40:33Z</time>
      </trkpt>
      <trkpt lat="2.79622" lon="-75.075096">
        <ele>1594.3</ele>
        <time>2021-08-21T14:40:34Z</time>
      </trkpt>
      <trkpt lat="2.796215" lon="-75.0751">
        <ele>1594.5</ele>
        <time>2021-08-21T14:40:35Z</time>
      </trkpt>
      <trkpt lat="2.796209" lon="-75.07511">
        <ele>1594.6</ele>
        <time>2021-08-21T14:40:36Z</time>
      </trkpt>
      <trkpt lat="2.796203" lon="-75.07512">
        <ele>1594.7</ele>
        <time>2021-08-21T14:40:37Z</time>
      </trkpt>
      <trkpt lat="2.796196" lon="-75.07513">
        <ele>1594.8</ele>
        <time>2021-08-21T14:40:38Z</time>
      </trkpt>
      <trkpt lat="2.79619" lon="-75.075134">
        <ele>1595.0</ele>
        <time>2021-08-21T14:40:39Z</time>
      </trkpt>
      <trkpt lat="2.796187" lon="-75.07515">
        <ele>1595.1</ele>
        <time>2021-08-21T14:40:40Z</time>
      </trkpt>
      <trkpt lat="2.796184" lon="-75.07516">
        <ele>1595.2</ele>
        <time>2021-08-21T14:40:41Z</time>
      </trkpt>
      <trkpt lat="2.796178" lon="-75.075165">
        <ele>1595.4</ele>
        <time>2021-08-21T14:40:42Z</time>
      </trkpt>
      <trkpt lat="2.796173" lon="-75.07517">
        <ele>1595.5</ele>
        <time>2021-08-21T14:40:43Z</time>
      </trkpt>
      <trkpt lat="2.796167" lon="-75.07519">
        <ele>1595.6</ele>
        <time>2021-08-21T14:40:44Z</time>
      </trkpt>
      <trkpt lat="2.796162" lon="-75.075195">
        <ele>1595.8</ele>
        <time>2021-08-21T14:40:45Z</time>
      </trkpt>
      <trkpt lat="2.796158" lon="-75.07521">
        <ele>1595.9</ele>
        <time>2021-08-21T14:40:46Z</time>
      </trkpt>
      <trkpt lat="2.796156" lon="-75.07522">
        <ele>1596.1</ele>
        <time>2021-08-21T14:40:47Z</time>
      </trkpt>
      <trkpt lat="2.796155" lon="-75.07523">
        <ele>1596.2</ele>
        <time>2021-08-21T14:40:48Z</time>
      </trkpt>
      <trkpt lat="2.796155" lon="-75.07524">
        <ele>1596.4</ele>
        <time>2021-08-21T14:40:49Z</time>
      </trkpt>
      <trkpt lat="2.796155" lon="-75.07526">
        <ele>1596.5</ele>
        <time>2021-08-21T14:40:50Z</time>
      </trkpt>
      <trkpt lat="2.796154" lon="-75.075264">
        <ele>1596.7</ele>
        <time>2021-08-21T14:40:51Z</time>
      </trkpt>
      <trkpt lat="2.796154" lon="-75.07528">
        <ele>1596.8</ele>
        <time>2021-08-21T14:40:52Z</time>
      </trkpt>
      <trkpt lat="2.796153" lon="-75.075294">
        <ele>1597.0</ele>
        <time>2021-08-21T14:40:53Z</time>
      </trkpt>
      <trkpt lat="2.796152" lon="-75.0753">
        <ele>1597.1</ele>
        <time>2021-08-21T14:40:54Z</time>
      </trkpt>
      <trkpt lat="2.79615" lon="-75.07531">
        <ele>1597.2</ele>
        <time>2021-08-21T14:40:55Z</time>
      </trkpt>
      <trkpt lat="2.796147" lon="-75.075325">
        <ele>1597.4</ele>
        <time>2021-08-21T14:40:56Z</time>
      </trkpt>
      <trkpt lat="2.796146" lon="-75.07533">
        <ele>1597.5</ele>
        <time>2021-08-21T14:40:57Z</time>
      </trkpt>
      <trkpt lat="2.796145" lon="-75.07534">
        <ele>1597.6</ele>
        <time>2021-08-21T14:40:58Z</time>
      </trkpt>
      <trkpt lat="2.796145" lon="-75.075356">
        <ele>1597.7</ele>
        <time>2021-08-21T14:40:59Z</time>
      </trkpt>
      <trkpt lat="2.796147" lon="-75.07536">
        <ele>1597.9</ele>
        <time>2021-08-21T14:41:00Z</time>
      </trkpt>
      <trkpt lat="2.796149" lon="-75.07538">
        <ele>1598.0</ele>
        <time>2021-08-21T14:41:01Z</time>
      </trkpt>
      <trkpt lat="2.796151" lon="-75.075386">
        <ele>1598.1</ele>
        <time>2021-08-21T14:41:02Z</time>
      </trkpt>
      <trkpt lat="2.796153" lon="-75.0754">
        <ele>1598.3</ele>
        <time>2021-08-21T14:41:03Z</time>
      </trkpt>
      <trkpt lat="2.796155" lon="-75.07541">
        <ele>1598.4</ele>
        <time>2021-08-21T14:41:04Z</time>
      </trkpt>
      <trkpt lat="2.796156" lon="-75.075424">
        <ele>1598.5</ele>
        <time>2021-08-21T14:41:05Z</time>
      </trkpt>
      <trkpt lat="2.796156" lon="-75.07543">
        <ele>1598.7</ele>
        <time>2021-08-21T14:41:06Z</time>
      </trkpt>
      <trkpt lat="2.796155" lon="-75.07545">
        <ele>1598.8</ele>
        <time>2021-08-21T14:41:07Z</time>
      </trkpt>
      <trkpt lat="2.796158" lon="-75.075455">
        <ele>1598.9</ele>
        <time>2021-08-21T14:41:08Z</time>
      </trkpt>
      <trkpt lat="2.796163" lon="-75.07546">
        <ele>1599.1</ele>
        <time>2021-08-21T14:41:09Z</time>
      </trkpt>
      <trkpt lat="2.796169" lon="-75.07548">
        <ele>1599.2</ele>
        <time>2021-08-21T14:41:10Z</time>
      </trkpt>
      <trkpt lat="2.796176" lon="-75.075485">
        <ele>1599.4</ele>
        <time>2021-08-21T14:41:11Z</time>
      </trkpt>
      <trkpt lat="2.796183" lon="-75.0755">
        <ele>1599.5</ele>
        <time>2021-08-21T14:41:12Z</time>
      </trkpt>
      <trkpt lat="2.796193" lon="-75.075516">
        <ele>1599.7</ele>
        <time>2021-08-21T14:41:13Z</time>
      </trkpt>
      <trkpt lat="2.796203" lon="-75.07552">
        <ele>1599.9</ele>
        <time>2021-08-21T14:41:14Z</time>
      </trkpt>
      <trkpt lat="2.796213" lon="-75.07554">
        <ele>1600.1</ele>
        <time>2021-08-21T14:41:15Z</time>
      </trkpt>
      <trkpt lat="2.796223" lon="-75.07555">
        <ele>1600.3</ele>
        <time>2021-08-21T14:41:16Z</time>
      </trkpt>
      <trkpt lat="2.796231" lon="-75.07556">
        <ele>1600.5</ele>
        <time>2021-08-21T14:41:17Z</time>
      </trkpt>
      <trkpt lat="2.796237" lon="-75.07558">
        <ele>1600.6</ele>
        <time>2021-08-21T14:41:18Z</time>
      </trkpt>
      <trkpt lat="2.796244" lon="-75.075584">
        <ele>1600.8</ele>
        <time>2021-08-21T14:41:19Z</time>
      </trkpt>
      <trkpt lat="2.79625" lon="-75.0756">
        <ele>1600.9</ele>
        <time>2021-08-21T14:41:20Z</time>
      </trkpt>
      <trkpt lat="2.796256" lon="-75.07561">
        <ele>1601.1</ele>
        <time>2021-08-21T14:41:21Z</time>
      </trkpt>
      <trkpt lat="2.796263" lon="-75.07562">
        <ele>1601.2</ele>
        <time>2021-08-21T14:41:22Z</time>
      </trkpt>
      <trkpt lat="2.796272" lon="-75.07563">
        <ele>1601.4</ele>
        <time>2021-08-21T14:41:23Z</time>
      </trkpt>
      <trkpt lat="2.79628" lon="-75.075645">
        <ele>1601.6</ele>
        <time>2021-08-21T14:41:24Z</time>
      </trkpt>
      <trkpt lat="2.796287" lon="-75.07565">
        <ele>1601.8</ele>
        <time>2021-08-21T14:41:25Z</time>
      </trkpt>
      <trkpt lat="2.796295" lon="-75.07567">
        <ele>1602.0</ele>
        <time>2021-08-21T14:41:26Z</time>
      </trkpt>
      <trkpt lat="2.796303" lon="-75.07568">
        <ele>1602.2</ele>
        <time>2021-08-21T14:41:27Z</time>
      </trkpt>
      <trkpt lat="2.796312" lon="-75.0757">
        <ele>1602.4</ele>
        <time>2021-08-21T14:41:28Z</time>
      </trkpt>
      <trkpt lat="2.796321" lon="-75.07571">
        <ele>1602.6</ele>
        <time>2021-08-21T14:41:29Z</time>
      </trkpt>
      <trkpt lat="2.796327" lon="-75.07572">
        <ele>1602.8</ele>
        <time>2021-08-21T14:41:30Z</time>
      </trkpt>
      <trkpt lat="2.796333" lon="-75.07574">
        <ele>1603.0</ele>
        <time>2021-08-21T14:41:31Z</time>
      </trkpt>
      <trkpt lat="2.79634" lon="-75.07575">
        <ele>1603.2</ele>
        <time>2021-08-21T14:41:32Z</time>
      </trkpt>
      <trkpt lat="2.796348" lon="-75.07577">
        <ele>1603.4</ele>
        <time>2021-08-21T14:41:33Z</time>
      </trkpt>
      <trkpt lat="2.796359" lon="-75.07578">
        <ele>1603.6</ele>
        <time>2021-08-21T14:41:34Z</time>
      </trkpt>
      <trkpt lat="2.79637" lon="-75.0758">
        <ele>1603.8</ele>
        <time>2021-08-21T14:41:35Z</time>
      </trkpt>
      <trkpt lat="2.796383" lon="-75.07582">
        <ele>1604.2</ele>
        <time>2021-08-21T14:41:36Z</time>
      </trkpt>
      <trkpt lat="2.796387" lon="-75.07583">
        <ele>1604.3</ele>
        <time>2021-08-21T14:41:37Z</time>
      </trkpt>
      <trkpt lat="2.796392" lon="-75.075836">
        <ele>1604.4</ele>
        <time>2021-08-21T14:41:37Z</time>
      </trkpt>
      <trkpt lat="2.796397" lon="-75.07585">
        <ele>1604.6</ele>
        <time>2021-08-21T14:41:38Z</time>
      </trkpt>
      <trkpt lat="2.796402" lon="-75.07587">
        <ele>1604.7</ele>
        <time>2021-08-21T14:41:39Z</time>
      </trkpt>
      <trkpt lat="2.796407" lon="-75.07588">
        <ele>1604.9</ele>
        <time>2021-08-21T14:41:40Z</time>
      </trkpt>
      <trkpt lat="2.796411" lon="-75.0759">
        <ele>1605.0</ele>
        <time>2021-08-21T14:41:41Z</time>
      </trkpt>
      <trkpt lat="2.796414" lon="-75.07591">
        <ele>1605.2</ele>
        <time>2021-08-21T14:41:42Z</time>
      </trkpt>
      <trkpt lat="2.796416" lon="-75.07593">
        <ele>1605.4</ele>
        <time>2021-08-21T14:41:43Z</time>
      </trkpt>
      <trkpt lat="2.796419" lon="-75.07594">
        <ele>1605.5</ele>
        <time>2021-08-21T14:41:44Z</time>
      </trkpt>
      <trkpt lat="2.796421" lon="-75.07596">
        <ele>1605.7</ele>
        <time>2021-08-21T14:41:45Z</time>
      </trkpt>
      <trkpt lat="2.796421" lon="-75.07597">
        <ele>1605.9</ele>
        <time>2021-08-21T14:41:46Z</time>
      </trkpt>
      <trkpt lat="2.79642" lon="-75.07599">
        <ele>1606.0</ele>
        <time>2021-08-21T14:41:47Z</time>
      </trkpt>
      <trkpt lat="2.796418" lon="-75.076004">
        <ele>1606.2</ele>
        <time>2021-08-21T14:41:48Z</time>
      </trkpt>
      <trkpt lat="2.796416" lon="-75.07602">
        <ele>1606.4</ele>
        <time>2021-08-21T14:41:49Z</time>
      </trkpt>
      <trkpt lat="2.796412" lon="-75.076035">
        <ele>1606.5</ele>
        <time>2021-08-21T14:41:50Z</time>
      </trkpt>
      <trkpt lat="2.796409" lon="-75.07605">
        <ele>1606.7</ele>
        <time>2021-08-21T14:41:51Z</time>
      </trkpt>
      <trkpt lat="2.796405" lon="-75.076065">
        <ele>1606.9</ele>
        <time>2021-08-21T14:41:52Z</time>
      </trkpt>
      <trkpt lat="2.7964" lon="-75.07608">
        <ele>1607.0</ele>
        <time>2021-08-21T14:41:53Z</time>
      </trkpt>
      <trkpt lat="2.796393" lon="-75.076096">
        <ele>1607.2</ele>
        <time>2021-08-21T14:41:54Z</time>
      </trkpt>
      <trkpt lat="2.796385" lon="-75.0761">
        <ele>1607.4</ele>
        <time>2021-08-21T14:41:55Z</time>
      </trkpt>
      <trkpt lat="2.796376" lon="-75.07612">
        <ele>1607.5</ele>
        <time>2021-08-21T14:41:56Z</time>
      </trkpt>
      <trkpt lat="2.796366" lon="-75.076126">
        <ele>1607.7</ele>
        <time>2021-08-21T14:41:57Z</time>
      </trkpt>
      <trkpt lat="2.796356" lon="-75.07614">
        <ele>1607.8</ele>
        <time>2021-08-21T14:41:58Z</time>
      </trkpt>
      <trkpt lat="2.796344" lon="-75.07615">
        <ele>1608.0</ele>
        <time>2021-08-21T14:41:59Z</time>
      </trkpt>
      <trkpt lat="2.796331" lon="-75.07616">
        <ele>1608.2</ele>
        <time>2021-08-21T14:42:00Z</time>
      </trkpt>
      <trkpt lat="2.796318" lon="-75.076164">
        <ele>1608.3</ele>
        <time>2021-08-21T14:42:01Z</time>
      </trkpt>
      <trkpt lat="2.796306" lon="-75.07617">
        <ele>1608.5</ele>
        <time>2021-08-21T14:42:02Z</time>
      </trkpt>
      <trkpt lat="2.796293" lon="-75.07618">
        <ele>1608.6</ele>
        <time>2021-08-21T14:42:03Z</time>
      </trkpt>
      <trkpt lat="2.79628" lon="-75.07618">
        <ele>1608.8</ele>
        <time>2021-08-21T14:42:04Z</time>
      </trkpt>
      <trkpt lat="2.796268" lon="-75.07619">
        <ele>1608.9</ele>
        <time>2021-08-21T14:42:05Z</time>
      </trkpt>
      <trkpt lat="2.796255" lon="-75.076195">
        <ele>1609.1</ele>
        <time>2021-08-21T14:42:06Z</time>
      </trkpt>
      <trkpt lat="2.796242" lon="-75.0762">
        <ele>1609.2</ele>
        <time>2021-08-21T14:42:07Z</time>
      </trkpt>
      <trkpt lat="2.796231" lon="-75.07621">
        <ele>1609.4</ele>
        <time>2021-08-21T14:42:08Z</time>
      </trkpt>
      <trkpt lat="2.796221" lon="-75.07622">
        <ele>1609.5</ele>
        <time>2021-08-21T14:42:09Z</time>
      </trkpt>
      <trkpt lat="2.796212" lon="-75.076225">
        <ele>1609.6</ele>
        <time>2021-08-21T14:42:10Z</time>
      </trkpt>
      <trkpt lat="2.796202" lon="-75.076225">
        <ele>1609.7</ele>
        <time>2021-08-21T14:42:11Z</time>
      </trkpt>
      <trkpt lat="2.796192" lon="-75.076225">
        <ele>1609.9</ele>
        <time>2021-08-21T14:42:12Z</time>
      </trkpt>
      <trkpt lat="2.796183" lon="-75.076225">
        <ele>1610.0</ele>
        <time>2021-08-21T14:42:13Z</time>
      </trkpt>
      <trkpt lat="2.796175" lon="-75.07623">
        <ele>1610.1</ele>
        <time>2021-08-21T14:42:14Z</time>
      </trkpt>
      <trkpt lat="2.796168" lon="-75.07624">
        <ele>1610.2</ele>
        <time>2021-08-21T14:42:15Z</time>
      </trkpt>
      <trkpt lat="2.796161" lon="-75.07625">
        <ele>1610.3</ele>
        <time>2021-08-21T14:42:16Z</time>
      </trkpt>
      <trkpt lat="2.796153" lon="-75.076256">
        <ele>1610.4</ele>
        <time>2021-08-21T14:42:17Z</time>
      </trkpt>
      <trkpt lat="2.796145" lon="-75.07626">
        <ele>1610.5</ele>
        <time>2021-08-21T14:42:18Z</time>
      </trkpt>
      <trkpt lat="2.796137" lon="-75.07627">
        <ele>1610.6</ele>
        <time>2021-08-21T14:42:19Z</time>
      </trkpt>
      <trkpt lat="2.796128" lon="-75.07628">
        <ele>1610.8</ele>
        <time>2021-08-21T14:42:20Z</time>
      </trkpt>
      <trkpt lat="2.796118" lon="-75.076294">
        <ele>1610.9</ele>
        <time>2021-08-21T14:42:21Z</time>
      </trkpt>
      <trkpt lat="2.796107" lon="-75.0763">
        <ele>1611.1</ele>
        <time>2021-08-21T14:42:22Z</time>
      </trkpt>
      <trkpt lat="2.796096" lon="-75.07631">
        <ele>1611.3</ele>
        <time>2021-08-21T14:42:23Z</time>
      </trkpt>
      <trkpt lat="2.796084" lon="-75.07632">
        <ele>1611.5</ele>
        <time>2021-08-21T14:42:24Z</time>
      </trkpt>
      <trkpt lat="2.796071" lon="-75.076324">
        <ele>1611.7</ele>
        <time>2021-08-21T14:42:25Z</time>
      </trkpt>
      <trkpt lat="2.796057" lon="-75.07634">
        <ele>1611.9</ele>
        <time>2021-08-21T14:42:26Z</time>
      </trkpt>
      <trkpt lat="2.796043" lon="-75.07635">
        <ele>1612.1</ele>
        <time>2021-08-21T14:42:27Z</time>
      </trkpt>
      <trkpt lat="2.796029" lon="-75.076355">
        <ele>1612.3</ele>
        <time>2021-08-21T14:42:28Z</time>
      </trkpt>
      <trkpt lat="2.796018" lon="-75.07636">
        <ele>1612.5</ele>
        <time>2021-08-21T14:42:29Z</time>
      </trkpt>
      <trkpt lat="2.796008" lon="-75.07637">
        <ele>1612.7</ele>
        <time>2021-08-21T14:42:30Z</time>
      </trkpt>
      <trkpt lat="2.795999" lon="-75.07638">
        <ele>1612.8</ele>
        <time>2021-08-21T14:42:31Z</time>
      </trkpt>
      <trkpt lat="2.795991" lon="-75.076385">
        <ele>1613.0</ele>
        <time>2021-08-21T14:42:32Z</time>
      </trkpt>
      <trkpt lat="2.795985" lon="-75.0764">
        <ele>1613.1</ele>
        <time>2021-08-21T14:42:33Z</time>
      </trkpt>
      <trkpt lat="2.795977" lon="-75.07641">
        <ele>1613.3</ele>
        <time>2021-08-21T14:42:34Z</time>
      </trkpt>
      <trkpt lat="2.795969" lon="-75.076416">
        <ele>1613.4</ele>
        <time>2021-08-21T14:42:35Z</time>
      </trkpt>
      <trkpt lat="2.79596" lon="-75.07642">
        <ele>1613.6</ele>
        <time>2021-08-21T14:42:36Z</time>
      </trkpt>
      <trkpt lat="2.795952" lon="-75.07643">
        <ele>1613.8</ele>
        <time>2021-08-21T14:42:37Z</time>
      </trkpt>
      <trkpt lat="2.795943" lon="-75.07645">
        <ele>1613.9</ele>
        <time>2021-08-21T14:42:38Z</time>
      </trkpt>
      <trkpt lat="2.795931" lon="-75.076454">
        <ele>1614.1</ele>
        <time>2021-08-21T14:42:39Z</time>
      </trkpt>
      <trkpt lat="2.795919" lon="-75.07646">
        <ele>1614.3</ele>
        <time>2021-08-21T14:42:40Z</time>
      </trkpt>
      <trkpt lat="2.795905" lon="-75.07646">
        <ele>1614.6</ele>
        <time>2021-08-21T14:42:41Z</time>
      </trkpt>
      <trkpt lat="2.795879" lon="-75.07647">
        <ele>1615.0</ele>
        <time>2021-08-21T14:42:42Z</time>
      </trkpt>
      <trkpt lat="2.795867" lon="-75.07648">
        <ele>1615.2</ele>
        <time>2021-08-21T14:42:43Z</time>
      </trkpt>
      <trkpt lat="2.795856" lon="-75.076485">
        <ele>1615.3</ele>
        <time>2021-08-21T14:42:44Z</time>
      </trkpt>
      <trkpt lat="2.795845" lon="-75.076485">
        <ele>1615.5</ele>
        <time>2021-08-21T14:42:45Z</time>
      </trkpt>
      <trkpt lat="2.795833" lon="-75.07649">
        <ele>1615.7</ele>
        <time>2021-08-21T14:42:46Z</time>
      </trkpt>
      <trkpt lat="2.795822" lon="-75.07649">
        <ele>1615.9</ele>
        <time>2021-08-21T14:42:47Z</time>
      </trkpt>
      <trkpt lat="2.795811" lon="-75.0765">
        <ele>1616.1</ele>
        <time>2021-08-21T14:42:48Z</time>
      </trkpt>
      <trkpt lat="2.795799" lon="-75.07651">
        <ele>1616.3</ele>
        <time>2021-08-21T14:42:49Z</time>
      </trkpt>
      <trkpt lat="2.795788" lon="-75.07651">
        <ele>1616.5</ele>
        <time>2021-08-21T14:42:50Z</time>
      </trkpt>
      <trkpt lat="2.795777" lon="-75.076515">
        <ele>1616.7</ele>
        <time>2021-08-21T14:42:51Z</time>
      </trkpt>
      <trkpt lat="2.795765" lon="-75.076515">
        <ele>1616.8</ele>
        <time>2021-08-21T14:42:52Z</time>
      </trkpt>
      <trkpt lat="2.795754" lon="-75.07652">
        <ele>1617.0</ele>
        <time>2021-08-21T14:42:53Z</time>
      </trkpt>
      <trkpt lat="2.795742" lon="-75.07652">
        <ele>1617.2</ele>
        <time>2021-08-21T14:42:54Z</time>
      </trkpt>
      <trkpt lat="2.795731" lon="-75.07653">
        <ele>1617.4</ele>
        <time>2021-08-21T14:42:55Z</time>
      </trkpt>
      <trkpt lat="2.79572" lon="-75.07654">
        <ele>1617.6</ele>
        <time>2021-08-21T14:42:56Z</time>
      </trkpt>
      <trkpt lat="2.795708" lon="-75.07654">
        <ele>1617.8</ele>
        <time>2021-08-21T14:42:57Z</time>
      </trkpt>
      <trkpt lat="2.795697" lon="-75.076546">
        <ele>1618.0</ele>
        <time>2021-08-21T14:42:58Z</time>
      </trkpt>
      <trkpt lat="2.795686" lon="-75.076546">
        <ele>1618.2</ele>
        <time>2021-08-21T14:42:59Z</time>
      </trkpt>
      <trkpt lat="2.795674" lon="-75.07655">
        <ele>1618.5</ele>
        <time>2021-08-21T14:43:00Z</time>
      </trkpt>
      <trkpt lat="2.795663" lon="-75.07656">
        <ele>1618.7</ele>
        <time>2021-08-21T14:43:01Z</time>
      </trkpt>
      <trkpt lat="2.795652" lon="-75.07656">
        <ele>1618.9</ele>
        <time>2021-08-21T14:43:02Z</time>
      </trkpt>
      <trkpt lat="2.795629" lon="-75.07657">
        <ele>1619.3</ele>
        <time>2021-08-21T14:43:04Z</time>
      </trkpt>
      <trkpt lat="2.79564" lon="-75.07657">
        <ele>1619.1</ele>
        <time>2021-08-21T14:43:04Z</time>
      </trkpt>
      <trkpt lat="2.795616" lon="-75.07658">
        <ele>1619.5</ele>
        <time>2021-08-21T14:43:05Z</time>
      </trkpt>
      <trkpt lat="2.795602" lon="-75.07658">
        <ele>1619.7</ele>
        <time>2021-08-21T14:43:06Z</time>
      </trkpt>
      <trkpt lat="2.795589" lon="-75.07658">
        <ele>1620.0</ele>
        <time>2021-08-21T14:43:07Z</time>
      </trkpt>
      <trkpt lat="2.795575" lon="-75.07658">
        <ele>1620.2</ele>
        <time>2021-08-21T14:43:08Z</time>
      </trkpt>
      <trkpt lat="2.795562" lon="-75.07658">
        <ele>1620.4</ele>
        <time>2021-08-21T14:43:09Z</time>
      </trkpt>
      <trkpt lat="2.795548" lon="-75.07658">
        <ele>1620.6</ele>
        <time>2021-08-21T14:43:10Z</time>
      </trkpt>
      <trkpt lat="2.795535" lon="-75.07658">
        <ele>1620.8</ele>
        <time>2021-08-21T14:43:11Z</time>
      </trkpt>
      <trkpt lat="2.795524" lon="-75.07657">
        <ele>1621.0</ele>
        <time>2021-08-21T14:43:12Z</time>
      </trkpt>
      <trkpt lat="2.795513" lon="-75.07657">
        <ele>1621.2</ele>
        <time>2021-08-21T14:43:13Z</time>
      </trkpt>
      <trkpt lat="2.795502" lon="-75.07657">
        <ele>1621.4</ele>
        <time>2021-08-21T14:43:14Z</time>
      </trkpt>
      <trkpt lat="2.79549" lon="-75.07657">
        <ele>1621.5</ele>
        <time>2021-08-21T14:43:15Z</time>
      </trkpt>
      <trkpt lat="2.795478" lon="-75.07657">
        <ele>1621.7</ele>
        <time>2021-08-21T14:43:16Z</time>
      </trkpt>
      <trkpt lat="2.795465" lon="-75.07657">
        <ele>1621.9</ele>
        <time>2021-08-21T14:43:17Z</time>
      </trkpt>
      <trkpt lat="2.795452" lon="-75.07657">
        <ele>1622.1</ele>
        <time>2021-08-21T14:43:18Z</time>
      </trkpt>
      <trkpt lat="2.795439" lon="-75.07657">
        <ele>1622.3</ele>
        <time>2021-08-21T14:43:19Z</time>
      </trkpt>
      <trkpt lat="2.795426" lon="-75.07657">
        <ele>1622.5</ele>
        <time>2021-08-21T14:43:20Z</time>
      </trkpt>
      <trkpt lat="2.795413" lon="-75.07657">
        <ele>1622.6</ele>
        <time>2021-08-21T14:43:21Z</time>
      </trkpt>
      <trkpt lat="2.795398" lon="-75.07657">
        <ele>1622.8</ele>
        <time>2021-08-21T14:43:22Z</time>
      </trkpt>
      <trkpt lat="2.795383" lon="-75.07657">
        <ele>1623.0</ele>
        <time>2021-08-21T14:43:23Z</time>
      </trkpt>
      <trkpt lat="2.795367" lon="-75.07657">
        <ele>1623.2</ele>
        <time>2021-08-21T14:43:24Z</time>
      </trkpt>
      <trkpt lat="2.795352" lon="-75.07658">
        <ele>1623.4</ele>
        <time>2021-08-21T14:43:25Z</time>
      </trkpt>
      <trkpt lat="2.795335" lon="-75.07658">
        <ele>1623.6</ele>
        <time>2021-08-21T14:43:26Z</time>
      </trkpt>
      <trkpt lat="2.795319" lon="-75.07658">
        <ele>1623.8</ele>
        <time>2021-08-21T14:43:27Z</time>
      </trkpt>
      <trkpt lat="2.795304" lon="-75.07658">
        <ele>1624.0</ele>
        <time>2021-08-21T14:43:28Z</time>
      </trkpt>
      <trkpt lat="2.795288" lon="-75.076584">
        <ele>1624.2</ele>
        <time>2021-08-21T14:43:29Z</time>
      </trkpt>
      <trkpt lat="2.795271" lon="-75.076584">
        <ele>1624.4</ele>
        <time>2021-08-21T14:43:30Z</time>
      </trkpt>
      <trkpt lat="2.795255" lon="-75.076584">
        <ele>1624.6</ele>
        <time>2021-08-21T14:43:31Z</time>
      </trkpt>
      <trkpt lat="2.795238" lon="-75.07659">
        <ele>1624.8</ele>
        <time>2021-08-21T14:43:32Z</time>
      </trkpt>
      <trkpt lat="2.795221" lon="-75.07659">
        <ele>1625.0</ele>
        <time>2021-08-21T14:43:33Z</time>
      </trkpt>
      <trkpt lat="2.795203" lon="-75.07659">
        <ele>1625.2</ele>
        <time>2021-08-21T14:43:34Z</time>
      </trkpt>
      <trkpt lat="2.795184" lon="-75.07659">
        <ele>1625.3</ele>
        <time>2021-08-21T14:43:35Z</time>
      </trkpt>
      <trkpt lat="2.795165" lon="-75.07659">
        <ele>1625.5</ele>
        <time>2021-08-21T14:43:36Z</time>
      </trkpt>
      <trkpt lat="2.795145" lon="-75.07659">
        <ele>1625.7</ele>
        <time>2021-08-21T14:43:37Z</time>
      </trkpt>
      <trkpt lat="2.795126" lon="-75.07659">
        <ele>1625.8</ele>
        <time>2021-08-21T14:43:38Z</time>
      </trkpt>
      <trkpt lat="2.795107" lon="-75.07659">
        <ele>1626.0</ele>
        <time>2021-08-21T14:43:39Z</time>
      </trkpt>
      <trkpt lat="2.795087" lon="-75.07659">
        <ele>1626.2</ele>
        <time>2021-08-21T14:43:40Z</time>
      </trkpt>
      <trkpt lat="2.795066" lon="-75.07659">
        <ele>1626.3</ele>
        <time>2021-08-21T14:43:41Z</time>
      </trkpt>
      <trkpt lat="2.795044" lon="-75.076584">
        <ele>1626.5</ele>
        <time>2021-08-21T14:43:42Z</time>
      </trkpt>
      <trkpt lat="2.795022" lon="-75.076584">
        <ele>1626.7</ele>
        <time>2021-08-21T14:43:43Z</time>
      </trkpt>
      <trkpt lat="2.794998" lon="-75.07658">
        <ele>1626.9</ele>
        <time>2021-08-21T14:43:44Z</time>
      </trkpt>
      <trkpt lat="2.794975" lon="-75.07658">
        <ele>1627.0</ele>
        <time>2021-08-21T14:43:45Z</time>
      </trkpt>
      <trkpt lat="2.794953" lon="-75.07657">
        <ele>1627.2</ele>
        <time>2021-08-21T14:43:46Z</time>
      </trkpt>
      <trkpt lat="2.794932" lon="-75.07657">
        <ele>1627.3</ele>
        <time>2021-08-21T14:43:47Z</time>
      </trkpt>
      <trkpt lat="2.794911" lon="-75.07656">
        <ele>1627.5</ele>
        <time>2021-08-21T14:43:48Z</time>
      </trkpt>
      <trkpt lat="2.79489" lon="-75.07655">
        <ele>1627.6</ele>
        <time>2021-08-21T14:43:49Z</time>
      </trkpt>
      <trkpt lat="2.79487" lon="-75.07655">
        <ele>1627.7</ele>
        <time>2021-08-21T14:43:50Z</time>
      </trkpt>
      <trkpt lat="2.794848" lon="-75.076546">
        <ele>1627.8</ele>
        <time>2021-08-21T14:43:51Z</time>
      </trkpt>
      <trkpt lat="2.794827" lon="-75.076546">
        <ele>1627.9</ele>
        <time>2021-08-21T14:43:52Z</time>
      </trkpt>
      <trkpt lat="2.794807" lon="-75.07654">
        <ele>1628.1</ele>
        <time>2021-08-21T14:43:53Z</time>
      </trkpt>
      <trkpt lat="2.794792" lon="-75.07652">
        <ele>1628.2</ele>
        <time>2021-08-21T14:43:54Z</time>
      </trkpt>
      <trkpt lat="2.794781" lon="-75.076515">
        <ele>1628.2</ele>
        <time>2021-08-21T14:43:55Z</time>
      </trkpt>
      <trkpt lat="2.794772" lon="-75.0765">
        <ele>1628.3</ele>
        <time>2021-08-21T14:43:56Z</time>
      </trkpt>
      <trkpt lat="2.794764" lon="-75.07649">
        <ele>1628.4</ele>
        <time>2021-08-21T14:43:57Z</time>
      </trkpt>
      <trkpt lat="2.794756" lon="-75.07648">
        <ele>1628.5</ele>
        <time>2021-08-21T14:43:58Z</time>
      </trkpt>
      <trkpt lat="2.794748" lon="-75.07647">
        <ele>1628.5</ele>
        <time>2021-08-21T14:43:59Z</time>
      </trkpt>
      <trkpt lat="2.79474" lon="-75.076454">
        <ele>1628.6</ele>
        <time>2021-08-21T14:44:00Z</time>
      </trkpt>
      <trkpt lat="2.794732" lon="-75.07645">
        <ele>1628.7</ele>
        <time>2021-08-21T14:44:01Z</time>
      </trkpt>
      <trkpt lat="2.794724" lon="-75.07643">
        <ele>1628.8</ele>
        <time>2021-08-21T14:44:02Z</time>
      </trkpt>
      <trkpt lat="2.794717" lon="-75.07642">
        <ele>1628.8</ele>
        <time>2021-08-21T14:44:03Z</time>
      </trkpt>
      <trkpt lat="2.794711" lon="-75.076416">
        <ele>1628.9</ele>
        <time>2021-08-21T14:44:04Z</time>
      </trkpt>
      <trkpt lat="2.794703" lon="-75.0764">
        <ele>1629.0</ele>
        <time>2021-08-21T14:44:05Z</time>
      </trkpt>
      <trkpt lat="2.794695" lon="-75.07639">
        <ele>1629.1</ele>
        <time>2021-08-21T14:44:06Z</time>
      </trkpt>
      <trkpt lat="2.794687" lon="-75.076385">
        <ele>1629.2</ele>
        <time>2021-08-21T14:44:07Z</time>
      </trkpt>
      <trkpt lat="2.794679" lon="-75.07637">
        <ele>1629.3</ele>
        <time>2021-08-21T14:44:08Z</time>
      </trkpt>
      <trkpt lat="2.794671" lon="-75.07636">
        <ele>1629.3</ele>
        <time>2021-08-21T14:44:09Z</time>
      </trkpt>
      <trkpt lat="2.794662" lon="-75.076355">
        <ele>1629.4</ele>
        <time>2021-08-21T14:44:10Z</time>
      </trkpt>
      <trkpt lat="2.794655" lon="-75.07634">
        <ele>1629.5</ele>
        <time>2021-08-21T14:44:11Z</time>
      </trkpt>
      <trkpt lat="2.794648" lon="-75.07633">
        <ele>1629.7</ele>
        <time>2021-08-21T14:44:12Z</time>
      </trkpt>
      <trkpt lat="2.794642" lon="-75.07632">
        <ele>1629.8</ele>
        <time>2021-08-21T14:44:13Z</time>
      </trkpt>
      <trkpt lat="2.794637" lon="-75.07631">
        <ele>1629.9</ele>
        <time>2021-08-21T14:44:14Z</time>
      </trkpt>
      <trkpt lat="2.794632" lon="-75.076294">
        <ele>1630.0</ele>
        <time>2021-08-21T14:44:15Z</time>
      </trkpt>
      <trkpt lat="2.794627" lon="-75.07628">
        <ele>1630.1</ele>
        <time>2021-08-21T14:44:16Z</time>
      </trkpt>
      <trkpt lat="2.794621" lon="-75.07627">
        <ele>1630.2</ele>
        <time>2021-08-21T14:44:17Z</time>
      </trkpt>
      <trkpt lat="2.794614" lon="-75.076256">
        <ele>1630.4</ele>
        <time>2021-08-21T14:44:18Z</time>
      </trkpt>
      <trkpt lat="2.794604" lon="-75.07624">
        <ele>1630.5</ele>
        <time>2021-08-21T14:44:19Z</time>
      </trkpt>
      <trkpt lat="2.794593" lon="-75.07623">
        <ele>1630.7</ele>
        <time>2021-08-21T14:44:20Z</time>
      </trkpt>
      <trkpt lat="2.794581" lon="-75.07622">
        <ele>1630.9</ele>
        <time>2021-08-21T14:44:21Z</time>
      </trkpt>
      <trkpt lat="2.794568" lon="-75.07621">
        <ele>1631.1</ele>
        <time>2021-08-21T14:44:22Z</time>
      </trkpt>
      <trkpt lat="2.794552" lon="-75.076195">
        <ele>1631.3</ele>
        <time>2021-08-21T14:44:23Z</time>
      </trkpt>
      <trkpt lat="2.794535" lon="-75.07619">
        <ele>1631.5</ele>
        <time>2021-08-21T14:44:24Z</time>
      </trkpt>
      <trkpt lat="2.794512" lon="-75.07617">
        <ele>1632.2</ele>
        <time>2021-08-21T14:44:25Z</time>
      </trkpt>
      <trkpt lat="2.794488" lon="-75.07616">
        <ele>1632.4</ele>
        <time>2021-08-21T14:44:26Z</time>
      </trkpt>
      <trkpt lat="2.794466" lon="-75.07615">
        <ele>1632.6</ele>
        <time>2021-08-21T14:44:27Z</time>
      </trkpt>
      <trkpt lat="2.794447" lon="-75.07613">
        <ele>1632.7</ele>
        <time>2021-08-21T14:44:28Z</time>
      </trkpt>
      <trkpt lat="2.794428" lon="-75.076126">
        <ele>1632.9</ele>
        <time>2021-08-21T14:44:29Z</time>
      </trkpt>
      <trkpt lat="2.79441" lon="-75.07612">
        <ele>1633.0</ele>
        <time>2021-08-21T14:44:30Z</time>
      </trkpt>
      <trkpt lat="2.794394" lon="-75.0761">
        <ele>1633.1</ele>
        <time>2021-08-21T14:44:31Z</time>
      </trkpt>
      <trkpt lat="2.794377" lon="-75.076096">
        <ele>1633.2</ele>
        <time>2021-08-21T14:44:32Z</time>
      </trkpt>
      <trkpt lat="2.794361" lon="-75.076096">
        <ele>1633.3</ele>
        <time>2021-08-21T14:44:33Z</time>
      </trkpt>
      <trkpt lat="2.794345" lon="-75.07609">
        <ele>1633.4</ele>
        <time>2021-08-21T14:44:34Z</time>
      </trkpt>
      <trkpt lat="2.794328" lon="-75.07609">
        <ele>1633.5</ele>
        <time>2021-08-21T14:44:35Z</time>
      </trkpt>
      <trkpt lat="2.79431" lon="-75.07608">
        <ele>1633.6</ele>
        <time>2021-08-21T14:44:36Z</time>
      </trkpt>
      <trkpt lat="2.794293" lon="-75.07608">
        <ele>1633.6</ele>
        <time>2021-08-21T14:44:37Z</time>
      </trkpt>
      <trkpt lat="2.794277" lon="-75.07607">
        <ele>1633.7</ele>
        <time>2021-08-21T14:44:38Z</time>
      </trkpt>
      <trkpt lat="2.794261" lon="-75.076065">
        <ele>1633.8</ele>
        <time>2021-08-21T14:44:39Z</time>
      </trkpt>
      <trkpt lat="2.794245" lon="-75.07606">
        <ele>1633.8</ele>
        <time>2021-08-21T14:44:40Z</time>
      </trkpt>
      <trkpt lat="2.794229" lon="-75.07605">
        <ele>1633.9</ele>
        <time>2021-08-21T14:44:41Z</time>
      </trkpt>
      <trkpt lat="2.794217" lon="-75.07604">
        <ele>1634.0</ele>
        <time>2021-08-21T14:44:42Z</time>
      </trkpt>
      <trkpt lat="2.794204" lon="-75.07603">
        <ele>1634.1</ele>
        <time>2021-08-21T14:44:43Z</time>
      </trkpt>
      <trkpt lat="2.794192" lon="-75.07602">
        <ele>1634.1</ele>
        <time>2021-08-21T14:44:44Z</time>
      </trkpt>
      <trkpt lat="2.794181" lon="-75.076004">
        <ele>1634.2</ele>
        <time>2021-08-21T14:44:45Z</time>
      </trkpt>
      <trkpt lat="2.794169" lon="-75.076">
        <ele>1634.3</ele>
        <time>2021-08-21T14:44:46Z</time>
      </trkpt>
      <trkpt lat="2.794158" lon="-75.07599">
        <ele>1634.3</ele>
        <time>2021-08-21T14:44:47Z</time>
      </trkpt>
      <trkpt lat="2.794147" lon="-75.07598">
        <ele>1634.4</ele>
        <time>2021-08-21T14:44:48Z</time>
      </trkpt>
      <trkpt lat="2.794137" lon="-75.07597">
        <ele>1634.5</ele>
        <time>2021-08-21T14:44:49Z</time>
      </trkpt>
      <trkpt lat="2.794129" lon="-75.07596">
        <ele>1634.5</ele>
        <time>2021-08-21T14:44:50Z</time>
      </trkpt>
      <trkpt lat="2.794122" lon="-75.07595">
        <ele>1634.6</ele>
        <time>2021-08-21T14:44:51Z</time>
      </trkpt>
      <trkpt lat="2.794117" lon="-75.07594">
        <ele>1634.7</ele>
        <time>2021-08-21T14:44:52Z</time>
      </trkpt>
      <trkpt lat="2.794113" lon="-75.075935">
        <ele>1634.7</ele>
        <time>2021-08-21T14:44:53Z</time>
      </trkpt>
      <trkpt lat="2.794107" lon="-75.07593">
        <ele>1634.8</ele>
        <time>2021-08-21T14:44:54Z</time>
      </trkpt>
      <trkpt lat="2.794102" lon="-75.07592">
        <ele>1634.8</ele>
        <time>2021-08-21T14:44:55Z</time>
      </trkpt>
      <trkpt lat="2.794095" lon="-75.07591">
        <ele>1634.9</ele>
        <time>2021-08-21T14:44:56Z</time>
      </trkpt>
      <trkpt lat="2.794089" lon="-75.0759">
        <ele>1634.9</ele>
        <time>2021-08-21T14:44:57Z</time>
      </trkpt>
      <trkpt lat="2.794082" lon="-75.07589">
        <ele>1635.0</ele>
        <time>2021-08-21T14:44:58Z</time>
      </trkpt>
      <trkpt lat="2.794074" lon="-75.07588">
        <ele>1635.1</ele>
        <time>2021-08-21T14:44:59Z</time>
      </trkpt>
      <trkpt lat="2.794066" lon="-75.075874">
        <ele>1635.2</ele>
        <time>2021-08-21T14:45:00Z</time>
      </trkpt>
      <trkpt lat="2.794057" lon="-75.07587">
        <ele>1635.2</ele>
        <time>2021-08-21T14:45:01Z</time>
      </trkpt>
      <trkpt lat="2.794049" lon="-75.07586">
        <ele>1635.3</ele>
        <time>2021-08-21T14:45:02Z</time>
      </trkpt>
      <trkpt lat="2.794041" lon="-75.07585">
        <ele>1635.4</ele>
        <time>2021-08-21T14:45:03Z</time>
      </trkpt>
      <trkpt lat="2.794031" lon="-75.07584">
        <ele>1635.5</ele>
        <time>2021-08-21T14:45:04Z</time>
      </trkpt>
      <trkpt lat="2.79402" lon="-75.075836">
        <ele>1635.6</ele>
        <time>2021-08-21T14:45:05Z</time>
      </trkpt>
      <trkpt lat="2.794009" lon="-75.07583">
        <ele>1635.7</ele>
        <time>2021-08-21T14:45:06Z</time>
      </trkpt>
      <trkpt lat="2.793997" lon="-75.07582">
        <ele>1635.9</ele>
        <time>2021-08-21T14:45:07Z</time>
      </trkpt>
      <trkpt lat="2.793986" lon="-75.07581">
        <ele>1636.0</ele>
        <time>2021-08-21T14:45:08Z</time>
      </trkpt>
      <trkpt lat="2.793977" lon="-75.075806">
        <ele>1636.1</ele>
        <time>2021-08-21T14:45:09Z</time>
      </trkpt>
      <trkpt lat="2.79397" lon="-75.0758">
        <ele>1636.2</ele>
        <time>2021-08-21T14:45:10Z</time>
      </trkpt>
      <trkpt lat="2.793964" lon="-75.07579">
        <ele>1636.2</ele>
        <time>2021-08-21T14:45:11Z</time>
      </trkpt>
      <trkpt lat="2.793957" lon="-75.07578">
        <ele>1636.3</ele>
        <time>2021-08-21T14:45:12Z</time>
      </trkpt>
      <trkpt lat="2.793952" lon="-75.07577">
        <ele>1636.4</ele>
        <time>2021-08-21T14:45:13Z</time>
      </trkpt>
      <trkpt lat="2.793942" lon="-75.07576">
        <ele>1636.5</ele>
        <time>2021-08-21T14:45:14Z</time>
      </trkpt>
      <trkpt lat="2.793932" lon="-75.07575">
        <ele>1636.7</ele>
        <time>2021-08-21T14:45:15Z</time>
      </trkpt>
      <trkpt lat="2.793923" lon="-75.07574">
        <ele>1636.8</ele>
        <time>2021-08-21T14:45:16Z</time>
      </trkpt>
      <trkpt lat="2.793915" lon="-75.07573">
        <ele>1636.9</ele>
        <time>2021-08-21T14:45:17Z</time>
      </trkpt>
      <trkpt lat="2.793909" lon="-75.07572">
        <ele>1637.0</ele>
        <time>2021-08-21T14:45:18Z</time>
      </trkpt>
      <trkpt lat="2.793903" lon="-75.075714">
        <ele>1637.1</ele>
        <time>2021-08-21T14:45:19Z</time>
      </trkpt>
      <trkpt lat="2.793894" lon="-75.0757">
        <ele>1637.2</ele>
        <time>2021-08-21T14:45:20Z</time>
      </trkpt>
      <trkpt lat="2.793884" lon="-75.07569">
        <ele>1637.3</ele>
        <time>2021-08-21T14:45:21Z</time>
      </trkpt>
      <trkpt lat="2.793875" lon="-75.07568">
        <ele>1637.5</ele>
        <time>2021-08-21T14:45:22Z</time>
      </trkpt>
      <trkpt lat="2.793868" lon="-75.075676">
        <ele>1637.6</ele>
        <time>2021-08-21T14:45:23Z</time>
      </trkpt>
      <trkpt lat="2.793862" lon="-75.07567">
        <ele>1637.7</ele>
        <time>2021-08-21T14:45:24Z</time>
      </trkpt>
      <trkpt lat="2.793856" lon="-75.07566">
        <ele>1637.8</ele>
        <time>2021-08-21T14:45:25Z</time>
      </trkpt>
      <trkpt lat="2.79385" lon="-75.075645">
        <ele>1637.9</ele>
        <time>2021-08-21T14:45:26Z</time>
      </trkpt>
      <trkpt lat="2.793844" lon="-75.07564">
        <ele>1638.0</ele>
        <time>2021-08-21T14:45:27Z</time>
      </trkpt>
      <trkpt lat="2.793839" lon="-75.07563">
        <ele>1638.1</ele>
        <time>2021-08-21T14:45:28Z</time>
      </trkpt>
      <trkpt lat="2.793835" lon="-75.075615">
        <ele>1638.2</ele>
        <time>2021-08-21T14:45:29Z</time>
      </trkpt>
      <trkpt lat="2.793831" lon="-75.07561">
        <ele>1638.3</ele>
        <time>2021-08-21T14:45:30Z</time>
      </trkpt>
      <trkpt lat="2.793825" lon="-75.0756">
        <ele>1638.4</ele>
        <time>2021-08-21T14:45:31Z</time>
      </trkpt>
      <trkpt lat="2.793819" lon="-75.075584">
        <ele>1638.5</ele>
        <time>2021-08-21T14:45:32Z</time>
      </trkpt>
      <trkpt lat="2.793812" lon="-75.07558">
        <ele>1638.6</ele>
        <time>2021-08-21T14:45:33Z</time>
      </trkpt>
      <trkpt lat="2.793804" lon="-75.07556">
        <ele>1638.7</ele>
        <time>2021-08-21T14:45:34Z</time>
      </trkpt>
      <trkpt lat="2.793796" lon="-75.075554">
        <ele>1638.9</ele>
        <time>2021-08-21T14:45:35Z</time>
      </trkpt>
      <trkpt lat="2.793789" lon="-75.07554">
        <ele>1639.0</ele>
        <time>2021-08-21T14:45:36Z</time>
      </trkpt>
      <trkpt lat="2.793782" lon="-75.07553">
        <ele>1639.1</ele>
        <time>2021-08-21T14:45:37Z</time>
      </trkpt>
      <trkpt lat="2.793775" lon="-75.075516">
        <ele>1639.2</ele>
        <time>2021-08-21T14:45:38Z</time>
      </trkpt>
      <trkpt lat="2.79377" lon="-75.0755">
        <ele>1639.4</ele>
        <time>2021-08-21T14:45:39Z</time>
      </trkpt>
      <trkpt lat="2.793764" lon="-75.075485">
        <ele>1639.5</ele>
        <time>2021-08-21T14:45:40Z</time>
      </trkpt>
      <trkpt lat="2.793758" lon="-75.07547">
        <ele>1639.6</ele>
        <time>2021-08-21T14:45:41Z</time>
      </trkpt>
      <trkpt lat="2.793746" lon="-75.07545">
        <ele>1639.9</ele>
        <time>2021-08-21T14:45:42Z</time>
      </trkpt>
      <trkpt lat="2.793741" lon="-75.07544">
        <ele>1640.0</ele>
        <time>2021-08-21T14:45:43Z</time>
      </trkpt>
      <trkpt lat="2.793735" lon="-75.075424">
        <ele>1640.1</ele>
        <time>2021-08-21T14:45:44Z</time>
      </trkpt>
      <trkpt lat="2.793729" lon="-75.07541">
        <ele>1640.2</ele>
        <time>2021-08-21T14:45:45Z</time>
      </trkpt>
      <trkpt lat="2.793723" lon="-75.0754">
        <ele>1640.3</ele>
        <time>2021-08-21T14:45:46Z</time>
      </trkpt>
      <trkpt lat="2.793718" lon="-75.075386">
        <ele>1640.4</ele>
        <time>2021-08-21T14:45:47Z</time>
      </trkpt>
      <trkpt lat="2.793712" lon="-75.07538">
        <ele>1640.6</ele>
        <time>2021-08-21T14:45:48Z</time>
      </trkpt>
      <trkpt lat="2.793706" lon="-75.07536">
        <ele>1640.7</ele>
        <time>2021-08-21T14:45:49Z</time>
      </trkpt>
      <trkpt lat="2.7937" lon="-75.075356">
        <ele>1640.8</ele>
        <time>2021-08-21T14:45:50Z</time>
      </trkpt>
      <trkpt lat="2.793695" lon="-75.07534">
        <ele>1640.9</ele>
        <time>2021-08-21T14:45:51Z</time>
      </trkpt>
      <trkpt lat="2.793683" lon="-75.07532">
        <ele>1641.1</ele>
        <time>2021-08-21T14:45:52Z</time>
      </trkpt>
      <trkpt lat="2.793689" lon="-75.075325">
        <ele>1641.0</ele>
        <time>2021-08-21T14:45:52Z</time>
      </trkpt>
      <trkpt lat="2.793678" lon="-75.0753">
        <ele>1641.2</ele>
        <time>2021-08-21T14:45:53Z</time>
      </trkpt>
      <trkpt lat="2.793673" lon="-75.075294">
        <ele>1641.3</ele>
        <time>2021-08-21T14:45:54Z</time>
      </trkpt>
      <trkpt lat="2.793669" lon="-75.07528">
        <ele>1641.4</ele>
        <time>2021-08-21T14:45:55Z</time>
      </trkpt>
      <trkpt lat="2.793664" lon="-75.075264">
        <ele>1641.5</ele>
        <time>2021-08-21T14:45:56Z</time>
      </trkpt>
      <trkpt lat="2.793659" lon="-75.07526">
        <ele>1641.6</ele>
        <time>2021-08-21T14:45:57Z</time>
      </trkpt>
      <trkpt lat="2.793653" lon="-75.07524">
        <ele>1641.7</ele>
        <time>2021-08-21T14:45:58Z</time>
      </trkpt>
      <trkpt lat="2.793648" lon="-75.07523">
        <ele>1641.8</ele>
        <time>2021-08-21T14:45:59Z</time>
      </trkpt>
      <trkpt lat="2.793643" lon="-75.07522">
        <ele>1641.9</ele>
        <time>2021-08-21T14:46:00Z</time>
      </trkpt>
      <trkpt lat="2.793639" lon="-75.0752">
        <ele>1642.0</ele>
        <time>2021-08-21T14:46:01Z</time>
      </trkpt>
      <trkpt lat="2.793634" lon="-75.07519">
        <ele>1642.1</ele>
        <time>2021-08-21T14:46:02Z</time>
      </trkpt>
      <trkpt lat="2.793627" lon="-75.07518">
        <ele>1642.2</ele>
        <time>2021-08-21T14:46:03Z</time>
      </trkpt>
      <trkpt lat="2.793619" lon="-75.075165">
        <ele>1642.3</ele>
        <time>2021-08-21T14:46:04Z</time>
      </trkpt>
      <trkpt lat="2.793611" lon="-75.07516">
        <ele>1642.4</ele>
        <time>2021-08-21T14:46:05Z</time>
      </trkpt>
      <trkpt lat="2.793602" lon="-75.07514">
        <ele>1642.5</ele>
        <time>2021-08-21T14:46:06Z</time>
      </trkpt>
      <trkpt lat="2.793594" lon="-75.075134">
        <ele>1642.6</ele>
        <time>2021-08-21T14:46:07Z</time>
      </trkpt>
      <trkpt lat="2.793585" lon="-75.07513">
        <ele>1642.7</ele>
        <time>2021-08-21T14:46:08Z</time>
      </trkpt>
      <trkpt lat="2.793577" lon="-75.07511">
        <ele>1642.8</ele>
        <time>2021-08-21T14:46:09Z</time>
      </trkpt>
      <trkpt lat="2.793569" lon="-75.0751">
        <ele>1642.9</ele>
        <time>2021-08-21T14:46:10Z</time>
      </trkpt>
      <trkpt lat="2.793562" lon="-75.07509">
        <ele>1643.0</ele>
        <time>2021-08-21T14:46:11Z</time>
      </trkpt>
      <trkpt lat="2.793554" lon="-75.07507">
        <ele>1643.1</ele>
        <time>2021-08-21T14:46:12Z</time>
      </trkpt>
      <trkpt lat="2.793544" lon="-75.075066">
        <ele>1643.2</ele>
        <time>2021-08-21T14:46:13Z</time>
      </trkpt>
      <trkpt lat="2.793535" lon="-75.07505">
        <ele>1643.4</ele>
        <time>2021-08-21T14:46:14Z</time>
      </trkpt>
      <trkpt lat="2.793528" lon="-75.075035">
        <ele>1643.5</ele>
        <time>2021-08-21T14:46:15Z</time>
      </trkpt>
      <trkpt lat="2.793519" lon="-75.07501">
        <ele>1643.6</ele>
        <time>2021-08-21T14:46:16Z</time>
      </trkpt>
      <trkpt lat="2.79351" lon="-75.075">
        <ele>1643.7</ele>
        <time>2021-08-21T14:46:17Z</time>
      </trkpt>
      <trkpt lat="2.7935" lon="-75.074974">
        <ele>1643.8</ele>
        <time>2021-08-21T14:46:18Z</time>
      </trkpt>
      <trkpt lat="2.793491" lon="-75.07496">
        <ele>1643.9</ele>
        <time>2021-08-21T14:46:19Z</time>
      </trkpt>
      <trkpt lat="2.793483" lon="-75.074936">
        <ele>1644.0</ele>
        <time>2021-08-21T14:46:20Z</time>
      </trkpt>
      <trkpt lat="2.793475" lon="-75.07492">
        <ele>1644.1</ele>
        <time>2021-08-21T14:46:21Z</time>
      </trkpt>
      <trkpt lat="2.793468" lon="-75.074905">
        <ele>1644.1</ele>
        <time>2021-08-21T14:46:22Z</time>
      </trkpt>
      <trkpt lat="2.793462" lon="-75.07489">
        <ele>1644.2</ele>
        <time>2021-08-21T14:46:23Z</time>
      </trkpt>
      <trkpt lat="2.793458" lon="-75.07487">
        <ele>1644.3</ele>
        <time>2021-08-21T14:46:24Z</time>
      </trkpt>
      <trkpt lat="2.793454" lon="-75.07485">
        <ele>1644.4</ele>
        <time>2021-08-21T14:46:25Z</time>
      </trkpt>
      <trkpt lat="2.793451" lon="-75.07484">
        <ele>1644.4</ele>
        <time>2021-08-21T14:46:26Z</time>
      </trkpt>
      <trkpt lat="2.793448" lon="-75.074814">
        <ele>1644.5</ele>
        <time>2021-08-21T14:46:27Z</time>
      </trkpt>
      <trkpt lat="2.793445" lon="-75.0748">
        <ele>1644.6</ele>
        <time>2021-08-21T14:46:28Z</time>
      </trkpt>
      <trkpt lat="2.793443" lon="-75.07478">
        <ele>1644.7</ele>
        <time>2021-08-21T14:46:29Z</time>
      </trkpt>
      <trkpt lat="2.793441" lon="-75.07476">
        <ele>1644.8</ele>
        <time>2021-08-21T14:46:30Z</time>
      </trkpt>
      <trkpt lat="2.79344" lon="-75.074745">
        <ele>1644.8</ele>
        <time>2021-08-21T14:46:31Z</time>
      </trkpt>
      <trkpt lat="2.793438" lon="-75.07472">
        <ele>1644.9</ele>
        <time>2021-08-21T14:46:32Z</time>
      </trkpt>
      <trkpt lat="2.793437" lon="-75.07471">
        <ele>1645.0</ele>
        <time>2021-08-21T14:46:33Z</time>
      </trkpt>
      <trkpt lat="2.793434" lon="-75.07469">
        <ele>1645.0</ele>
        <time>2021-08-21T14:46:34Z</time>
      </trkpt>
      <trkpt lat="2.793431" lon="-75.07468">
        <ele>1645.1</ele>
        <time>2021-08-21T14:46:35Z</time>
      </trkpt>
      <trkpt lat="2.793427" lon="-75.07466">
        <ele>1645.2</ele>
        <time>2021-08-21T14:46:36Z</time>
      </trkpt>
      <trkpt lat="2.793424" lon="-75.07464">
        <ele>1645.3</ele>
        <time>2021-08-21T14:46:37Z</time>
      </trkpt>
      <trkpt lat="2.79342" lon="-75.07462">
        <ele>1645.3</ele>
        <time>2021-08-21T14:46:38Z</time>
      </trkpt>
      <trkpt lat="2.793418" lon="-75.07461">
        <ele>1645.4</ele>
        <time>2021-08-21T14:46:39Z</time>
      </trkpt>
      <trkpt lat="2.793416" lon="-75.07459">
        <ele>1645.4</ele>
        <time>2021-08-21T14:46:40Z</time>
      </trkpt>
      <trkpt lat="2.793415" lon="-75.07458">
        <ele>1645.5</ele>
        <time>2021-08-21T14:46:41Z</time>
      </trkpt>
      <trkpt lat="2.793413" lon="-75.07456">
        <ele>1645.6</ele>
        <time>2021-08-21T14:46:42Z</time>
      </trkpt>
      <trkpt lat="2.793412" lon="-75.07455">
        <ele>1645.6</ele>
        <time>2021-08-21T14:46:43Z</time>
      </trkpt>
      <trkpt lat="2.793412" lon="-75.07453">
        <ele>1645.7</ele>
        <time>2021-08-21T14:46:44Z</time>
      </trkpt>
      <trkpt lat="2.793411" lon="-75.07451">
        <ele>1645.8</ele>
        <time>2021-08-21T14:46:45Z</time>
      </trkpt>
      <trkpt lat="2.793409" lon="-75.07449">
        <ele>1645.9</ele>
        <time>2021-08-21T14:46:46Z</time>
      </trkpt>
      <trkpt lat="2.793408" lon="-75.07448">
        <ele>1645.9</ele>
        <time>2021-08-21T14:46:47Z</time>
      </trkpt>
      <trkpt lat="2.793406" lon="-75.074455">
        <ele>1646.0</ele>
        <time>2021-08-21T14:46:48Z</time>
      </trkpt>
      <trkpt lat="2.793404" lon="-75.07444">
        <ele>1646.1</ele>
        <time>2021-08-21T14:46:49Z</time>
      </trkpt>
      <trkpt lat="2.793401" lon="-75.074425">
        <ele>1646.1</ele>
        <time>2021-08-21T14:46:50Z</time>
      </trkpt>
      <trkpt lat="2.793401" lon="-75.0744">
        <ele>1646.2</ele>
        <time>2021-08-21T14:46:51Z</time>
      </trkpt>
      <trkpt lat="2.793401" lon="-75.07439">
        <ele>1646.3</ele>
        <time>2021-08-21T14:46:52Z</time>
      </trkpt>
      <trkpt lat="2.793403" lon="-75.07436">
        <ele>1646.3</ele>
        <time>2021-08-21T14:46:53Z</time>
      </trkpt>
      <trkpt lat="2.793403" lon="-75.07435">
        <ele>1646.4</ele>
        <time>2021-08-21T14:46:54Z</time>
      </trkpt>
      <trkpt lat="2.793403" lon="-75.074326">
        <ele>1646.4</ele>
        <time>2021-08-21T14:46:55Z</time>
      </trkpt>
      <trkpt lat="2.793402" lon="-75.07431">
        <ele>1646.5</ele>
        <time>2021-08-21T14:46:56Z</time>
      </trkpt>
      <trkpt lat="2.7934" lon="-75.074295">
        <ele>1646.5</ele>
        <time>2021-08-21T14:46:57Z</time>
      </trkpt>
      <trkpt lat="2.793397" lon="-75.07427">
        <ele>1646.6</ele>
        <time>2021-08-21T14:46:58Z</time>
      </trkpt>
      <trkpt lat="2.793392" lon="-75.07426">
        <ele>1646.6</ele>
        <time>2021-08-21T14:46:59Z</time>
      </trkpt>
      <trkpt lat="2.793386" lon="-75.074234">
        <ele>1646.6</ele>
        <time>2021-08-21T14:47:00Z</time>
      </trkpt>
      <trkpt lat="2.793382" lon="-75.07421">
        <ele>1646.7</ele>
        <time>2021-08-21T14:47:01Z</time>
      </trkpt>
      <trkpt lat="2.793378" lon="-75.074196">
        <ele>1646.7</ele>
        <time>2021-08-21T14:47:02Z</time>
      </trkpt>
      <trkpt lat="2.793375" lon="-75.07417">
        <ele>1646.7</ele>
        <time>2021-08-21T14:47:03Z</time>
      </trkpt>
      <trkpt lat="2.79337" lon="-75.07415">
        <ele>1646.7</ele>
        <time>2021-08-21T14:47:04Z</time>
      </trkpt>
      <trkpt lat="2.793368" lon="-75.074135">
        <ele>1646.7</ele>
        <time>2021-08-21T14:47:05Z</time>
      </trkpt>
      <trkpt lat="2.793367" lon="-75.07413">
        <ele>1646.7</ele>
        <time>2021-08-21T14:47:06Z</time>
      </trkpt>
      <trkpt lat="2.793363" lon="-75.074104">
        <ele>1646.7</ele>
        <time>2021-08-21T14:47:08Z</time>
      </trkpt>
      <trkpt lat="2.793365" lon="-75.07411">
        <ele>1646.7</ele>
        <time>2021-08-21T14:47:08Z</time>
      </trkpt>
      <trkpt lat="2.793361" lon="-75.07408">
        <ele>1646.7</ele>
        <time>2021-08-21T14:47:09Z</time>
      </trkpt>
      <trkpt lat="2.793358" lon="-75.074066">
        <ele>1646.7</ele>
        <time>2021-08-21T14:47:10Z</time>
      </trkpt>
      <trkpt lat="2.793353" lon="-75.07404">
        <ele>1646.7</ele>
        <time>2021-08-21T14:47:11Z</time>
      </trkpt>
      <trkpt lat="2.793347" lon="-75.07401">
        <ele>1646.6</ele>
        <time>2021-08-21T14:47:12Z</time>
      </trkpt>
      <trkpt lat="2.79334" lon="-75.07399">
        <ele>1646.6</ele>
        <time>2021-08-21T14:47:13Z</time>
      </trkpt>
      <trkpt lat="2.793334" lon="-75.07397">
        <ele>1646.5</ele>
        <time>2021-08-21T14:47:14Z</time>
      </trkpt>
      <trkpt lat="2.793329" lon="-75.073944">
        <ele>1646.4</ele>
        <time>2021-08-21T14:47:15Z</time>
      </trkpt>
      <trkpt lat="2.793324" lon="-75.07392">
        <ele>1646.3</ele>
        <time>2021-08-21T14:47:16Z</time>
      </trkpt>
      <trkpt lat="2.79332" lon="-75.0739">
        <ele>1646.3</ele>
        <time>2021-08-21T14:47:17Z</time>
      </trkpt>
      <trkpt lat="2.793315" lon="-75.073875">
        <ele>1646.2</ele>
        <time>2021-08-21T14:47:18Z</time>
      </trkpt>
      <trkpt lat="2.79331" lon="-75.07385">
        <ele>1646.1</ele>
        <time>2021-08-21T14:47:19Z</time>
      </trkpt>
      <trkpt lat="2.793305" lon="-75.07383">
        <ele>1646.0</ele>
        <time>2021-08-21T14:47:20Z</time>
      </trkpt>
      <trkpt lat="2.793298" lon="-75.07381">
        <ele>1646.0</ele>
        <time>2021-08-21T14:47:21Z</time>
      </trkpt>
      <trkpt lat="2.793289" lon="-75.073784">
        <ele>1645.9</ele>
        <time>2021-08-21T14:47:22Z</time>
      </trkpt>
      <trkpt lat="2.793279" lon="-75.07376">
        <ele>1645.8</ele>
        <time>2021-08-21T14:47:23Z</time>
      </trkpt>
      <trkpt lat="2.793267" lon="-75.07374">
        <ele>1645.8</ele>
        <time>2021-08-21T14:47:24Z</time>
      </trkpt>
      <trkpt lat="2.793255" lon="-75.073715">
        <ele>1645.7</ele>
        <time>2021-08-21T14:47:25Z</time>
      </trkpt>
      <trkpt lat="2.793242" lon="-75.0737">
        <ele>1645.7</ele>
        <time>2021-08-21T14:47:26Z</time>
      </trkpt>
      <trkpt lat="2.793229" lon="-75.07368">
        <ele>1645.7</ele>
        <time>2021-08-21T14:47:27Z</time>
      </trkpt>
      <trkpt lat="2.793218" lon="-75.073654">
        <ele>1645.6</ele>
        <time>2021-08-21T14:47:28Z</time>
      </trkpt>
      <trkpt lat="2.793206" lon="-75.07363">
        <ele>1645.6</ele>
        <time>2021-08-21T14:47:29Z</time>
      </trkpt>
      <trkpt lat="2.793194" lon="-75.073616">
        <ele>1645.6</ele>
        <time>2021-08-21T14:47:30Z</time>
      </trkpt>
      <trkpt lat="2.79318" lon="-75.07359">
        <ele>1645.5</ele>
        <time>2021-08-21T14:47:31Z</time>
      </trkpt>
      <trkpt lat="2.793168" lon="-75.07358">
        <ele>1645.5</ele>
        <time>2021-08-21T14:47:32Z</time>
      </trkpt>
      <trkpt lat="2.793155" lon="-75.073555">
        <ele>1645.5</ele>
        <time>2021-08-21T14:47:33Z</time>
      </trkpt>
      <trkpt lat="2.79314" lon="-75.07354">
        <ele>1645.5</ele>
        <time>2021-08-21T14:47:34Z</time>
      </trkpt>
      <trkpt lat="2.793127" lon="-75.07352">
        <ele>1645.5</ele>
        <time>2021-08-21T14:47:35Z</time>
      </trkpt>
      <trkpt lat="2.793115" lon="-75.0735">
        <ele>1645.5</ele>
        <time>2021-08-21T14:47:36Z</time>
      </trkpt>
      <trkpt lat="2.793102" lon="-75.07349">
        <ele>1645.5</ele>
        <time>2021-08-21T14:47:37Z</time>
      </trkpt>
      <trkpt lat="2.793088" lon="-75.07346">
        <ele>1645.6</ele>
        <time>2021-08-21T14:47:38Z</time>
      </trkpt>
      <trkpt lat="2.793074" lon="-75.07345">
        <ele>1645.6</ele>
        <time>2021-08-21T14:47:39Z</time>
      </trkpt>
      <trkpt lat="2.793058" lon="-75.07343">
        <ele>1645.6</ele>
        <time>2021-08-21T14:47:40Z</time>
      </trkpt>
      <trkpt lat="2.793042" lon="-75.07342">
        <ele>1645.7</ele>
        <time>2021-08-21T14:47:41Z</time>
      </trkpt>
      <trkpt lat="2.793028" lon="-75.0734">
        <ele>1645.7</ele>
        <time>2021-08-21T14:47:42Z</time>
      </trkpt>
      <trkpt lat="2.793011" lon="-75.073395">
        <ele>1645.7</ele>
        <time>2021-08-21T14:47:43Z</time>
      </trkpt>
      <trkpt lat="2.792996" lon="-75.07338">
        <ele>1645.7</ele>
        <time>2021-08-21T14:47:44Z</time>
      </trkpt>
      <trkpt lat="2.79298" lon="-75.07337">
        <ele>1645.8</ele>
        <time>2021-08-21T14:47:45Z</time>
      </trkpt>
      <trkpt lat="2.792963" lon="-75.073364">
        <ele>1645.8</ele>
        <time>2021-08-21T14:47:46Z</time>
      </trkpt>
      <trkpt lat="2.792947" lon="-75.07336">
        <ele>1645.8</ele>
        <time>2021-08-21T14:47:47Z</time>
      </trkpt>
      <trkpt lat="2.792933" lon="-75.07334">
        <ele>1645.9</ele>
        <time>2021-08-21T14:47:48Z</time>
      </trkpt>
      <trkpt lat="2.79292" lon="-75.07333">
        <ele>1645.9</ele>
        <time>2021-08-21T14:47:49Z</time>
      </trkpt>
      <trkpt lat="2.792907" lon="-75.073326">
        <ele>1645.9</ele>
        <time>2021-08-21T14:47:50Z</time>
      </trkpt>
      <trkpt lat="2.792892" lon="-75.07332">
        <ele>1645.9</ele>
        <time>2021-08-21T14:47:51Z</time>
      </trkpt>
      <trkpt lat="2.792875" lon="-75.0733">
        <ele>1646.0</ele>
        <time>2021-08-21T14:47:52Z</time>
      </trkpt>
      <trkpt lat="2.792858" lon="-75.073296">
        <ele>1646.0</ele>
        <time>2021-08-21T14:47:53Z</time>
      </trkpt>
      <trkpt lat="2.792841" lon="-75.07329">
        <ele>1646.1</ele>
        <time>2021-08-21T14:47:54Z</time>
      </trkpt>
      <trkpt lat="2.792824" lon="-75.07327">
        <ele>1646.1</ele>
        <time>2021-08-21T14:47:55Z</time>
      </trkpt>
      <trkpt lat="2.792806" lon="-75.073265">
        <ele>1646.1</ele>
        <time>2021-08-21T14:47:56Z</time>
      </trkpt>
      <trkpt lat="2.792789" lon="-75.07326">
        <ele>1646.2</ele>
        <time>2021-08-21T14:47:57Z</time>
      </trkpt>
      <trkpt lat="2.792773" lon="-75.07325">
        <ele>1646.2</ele>
        <time>2021-08-21T14:47:58Z</time>
      </trkpt>
      <trkpt lat="2.792755" lon="-75.07324">
        <ele>1646.2</ele>
        <time>2021-08-21T14:47:59Z</time>
      </trkpt>
      <trkpt lat="2.792737" lon="-75.073235">
        <ele>1646.3</ele>
        <time>2021-08-21T14:48:00Z</time>
      </trkpt>
      <trkpt lat="2.79272" lon="-75.07322">
        <ele>1646.3</ele>
        <time>2021-08-21T14:48:01Z</time>
      </trkpt>
      <trkpt lat="2.792704" lon="-75.07321">
        <ele>1646.4</ele>
        <time>2021-08-21T14:48:02Z</time>
      </trkpt>
      <trkpt lat="2.792687" lon="-75.073204">
        <ele>1646.4</ele>
        <time>2021-08-21T14:48:03Z</time>
      </trkpt>
      <trkpt lat="2.792673" lon="-75.0732">
        <ele>1646.4</ele>
        <time>2021-08-21T14:48:04Z</time>
      </trkpt>
      <trkpt lat="2.792659" lon="-75.07319">
        <ele>1646.5</ele>
        <time>2021-08-21T14:48:05Z</time>
      </trkpt>
      <trkpt lat="2.792644" lon="-75.07318">
        <ele>1646.5</ele>
        <time>2021-08-21T14:48:06Z</time>
      </trkpt>
      <trkpt lat="2.79263" lon="-75.07317">
        <ele>1646.6</ele>
        <time>2021-08-21T14:48:07Z</time>
      </trkpt>
      <trkpt lat="2.792617" lon="-75.073166">
        <ele>1646.6</ele>
        <time>2021-08-21T14:48:08Z</time>
      </trkpt>
      <trkpt lat="2.792604" lon="-75.07316">
        <ele>1646.7</ele>
        <time>2021-08-21T14:48:09Z</time>
      </trkpt>
      <trkpt lat="2.792588" lon="-75.07315">
        <ele>1646.8</ele>
        <time>2021-08-21T14:48:10Z</time>
      </trkpt>
      <trkpt lat="2.792571" lon="-75.07315">
        <ele>1646.9</ele>
        <time>2021-08-21T14:48:11Z</time>
      </trkpt>
      <trkpt lat="2.792556" lon="-75.07314">
        <ele>1646.9</ele>
        <time>2021-08-21T14:48:12Z</time>
      </trkpt>
      <trkpt lat="2.79254" lon="-75.073135">
        <ele>1647.0</ele>
        <time>2021-08-21T14:48:13Z</time>
      </trkpt>
      <trkpt lat="2.792524" lon="-75.073135">
        <ele>1647.1</ele>
        <time>2021-08-21T14:48:14Z</time>
      </trkpt>
      <trkpt lat="2.792508" lon="-75.07313">
        <ele>1647.2</ele>
        <time>2021-08-21T14:48:15Z</time>
      </trkpt>
      <trkpt lat="2.792494" lon="-75.07313">
        <ele>1647.3</ele>
        <time>2021-08-21T14:48:16Z</time>
      </trkpt>
      <trkpt lat="2.792481" lon="-75.07312">
        <ele>1647.4</ele>
        <time>2021-08-21T14:48:17Z</time>
      </trkpt>
      <trkpt lat="2.792472" lon="-75.07311">
        <ele>1647.5</ele>
        <time>2021-08-21T14:48:18Z</time>
      </trkpt>
      <trkpt lat="2.792458" lon="-75.0731">
        <ele>1647.6</ele>
        <time>2021-08-21T14:48:19Z</time>
      </trkpt>
      <trkpt lat="2.792442" lon="-75.07309">
        <ele>1647.7</ele>
        <time>2021-08-21T14:48:20Z</time>
      </trkpt>
      <trkpt lat="2.792427" lon="-75.07309">
        <ele>1647.8</ele>
        <time>2021-08-21T14:48:21Z</time>
      </trkpt>
      <trkpt lat="2.792411" lon="-75.07308">
        <ele>1647.9</ele>
        <time>2021-08-21T14:48:22Z</time>
      </trkpt>
      <trkpt lat="2.792396" lon="-75.073074">
        <ele>1648.1</ele>
        <time>2021-08-21T14:48:23Z</time>
      </trkpt>
      <trkpt lat="2.792383" lon="-75.073074">
        <ele>1648.2</ele>
        <time>2021-08-21T14:48:24Z</time>
      </trkpt>
      <trkpt lat="2.792369" lon="-75.073074">
        <ele>1648.3</ele>
        <time>2021-08-21T14:48:25Z</time>
      </trkpt>
      <trkpt lat="2.792353" lon="-75.07307">
        <ele>1648.4</ele>
        <time>2021-08-21T14:48:26Z</time>
      </trkpt>
      <trkpt lat="2.792337" lon="-75.07307">
        <ele>1648.6</ele>
        <time>2021-08-21T14:48:27Z</time>
      </trkpt>
      <trkpt lat="2.79232" lon="-75.07307">
        <ele>1648.7</ele>
        <time>2021-08-21T14:48:28Z</time>
      </trkpt>
      <trkpt lat="2.792304" lon="-75.07306">
        <ele>1648.9</ele>
        <time>2021-08-21T14:48:29Z</time>
      </trkpt>
      <trkpt lat="2.792285" lon="-75.07306">
        <ele>1649.0</ele>
        <time>2021-08-21T14:48:30Z</time>
      </trkpt>
      <trkpt lat="2.792265" lon="-75.07305">
        <ele>1649.2</ele>
        <time>2021-08-21T14:48:31Z</time>
      </trkpt>
      <trkpt lat="2.792245" lon="-75.07305">
        <ele>1649.4</ele>
        <time>2021-08-21T14:48:32Z</time>
      </trkpt>
      <trkpt lat="2.792225" lon="-75.07305">
        <ele>1649.6</ele>
        <time>2021-08-21T14:48:33Z</time>
      </trkpt>
      <trkpt lat="2.792209" lon="-75.073044">
        <ele>1649.7</ele>
        <time>2021-08-21T14:48:34Z</time>
      </trkpt>
      <trkpt lat="2.792193" lon="-75.073044">
        <ele>1649.9</ele>
        <time>2021-08-21T14:48:35Z</time>
      </trkpt>
      <trkpt lat="2.792178" lon="-75.07304">
        <ele>1650.0</ele>
        <time>2021-08-21T14:48:36Z</time>
      </trkpt>
      <trkpt lat="2.792164" lon="-75.07303">
        <ele>1650.2</ele>
        <time>2021-08-21T14:48:37Z</time>
      </trkpt>
      <trkpt lat="2.792151" lon="-75.07303">
        <ele>1650.3</ele>
        <time>2021-08-21T14:48:38Z</time>
      </trkpt>
      <trkpt lat="2.792137" lon="-75.07302">
        <ele>1650.4</ele>
        <time>2021-08-21T14:48:39Z</time>
      </trkpt>
      <trkpt lat="2.792125" lon="-75.073006">
        <ele>1650.6</ele>
        <time>2021-08-21T14:48:40Z</time>
      </trkpt>
      <trkpt lat="2.792114" lon="-75.073">
        <ele>1650.7</ele>
        <time>2021-08-21T14:48:41Z</time>
      </trkpt>
      <trkpt lat="2.792105" lon="-75.07299">
        <ele>1650.8</ele>
        <time>2021-08-21T14:48:42Z</time>
      </trkpt>
      <trkpt lat="2.792099" lon="-75.07298">
        <ele>1651.0</ele>
        <time>2021-08-21T14:48:43Z</time>
      </trkpt>
      <trkpt lat="2.792097" lon="-75.07297">
        <ele>1651.1</ele>
        <time>2021-08-21T14:48:44Z</time>
      </trkpt>
      <trkpt lat="2.792097" lon="-75.07295">
        <ele>1651.2</ele>
        <time>2021-08-21T14:48:45Z</time>
      </trkpt>
      <trkpt lat="2.792095" lon="-75.072945">
        <ele>1651.3</ele>
        <time>2021-08-21T14:48:46Z</time>
      </trkpt>
      <trkpt lat="2.792091" lon="-75.07293">
        <ele>1651.4</ele>
        <time>2021-08-21T14:48:47Z</time>
      </trkpt>
      <trkpt lat="2.792089" lon="-75.07292">
        <ele>1651.6</ele>
        <time>2021-08-21T14:48:48Z</time>
      </trkpt>
      <trkpt lat="2.792089" lon="-75.07291">
        <ele>1651.7</ele>
        <time>2021-08-21T14:48:49Z</time>
      </trkpt>
      <trkpt lat="2.792087" lon="-75.07289">
        <ele>1651.8</ele>
        <time>2021-08-21T14:48:50Z</time>
      </trkpt>
      <trkpt lat="2.792085" lon="-75.07288">
        <ele>1651.9</ele>
        <time>2021-08-21T14:48:51Z</time>
      </trkpt>
      <trkpt lat="2.792084" lon="-75.07287">
        <ele>1652.0</ele>
        <time>2021-08-21T14:48:52Z</time>
      </trkpt>
      <trkpt lat="2.792086" lon="-75.07286">
        <ele>1652.1</ele>
        <time>2021-08-21T14:48:53Z</time>
      </trkpt>
      <trkpt lat="2.792087" lon="-75.072845">
        <ele>1652.3</ele>
        <time>2021-08-21T14:48:54Z</time>
      </trkpt>
      <trkpt lat="2.792088" lon="-75.07284">
        <ele>1652.4</ele>
        <time>2021-08-21T14:48:55Z</time>
      </trkpt>
      <trkpt lat="2.792087" lon="-75.07283">
        <ele>1652.5</ele>
        <time>2021-08-21T14:48:56Z</time>
      </trkpt>
      <trkpt lat="2.792085" lon="-75.07282">
        <ele>1652.6</ele>
        <time>2021-08-21T14:48:57Z</time>
      </trkpt>
      <trkpt lat="2.792083" lon="-75.07281">
        <ele>1652.7</ele>
        <time>2021-08-21T14:48:58Z</time>
      </trkpt>
      <trkpt lat="2.792078" lon="-75.0728">
        <ele>1652.8</ele>
        <time>2021-08-21T14:48:59Z</time>
      </trkpt>
      <trkpt lat="2.792074" lon="-75.072784">
        <ele>1652.9</ele>
        <time>2021-08-21T14:49:00Z</time>
      </trkpt>
      <trkpt lat="2.792071" lon="-75.07278">
        <ele>1653.0</ele>
        <time>2021-08-21T14:49:01Z</time>
      </trkpt>
      <trkpt lat="2.792072" lon="-75.07277">
        <ele>1653.1</ele>
        <time>2021-08-21T14:49:02Z</time>
      </trkpt>
      <trkpt lat="2.792073" lon="-75.072754">
        <ele>1653.3</ele>
        <time>2021-08-21T14:49:03Z</time>
      </trkpt>
      <trkpt lat="2.792075" lon="-75.07274">
        <ele>1653.4</ele>
        <time>2021-08-21T14:49:04Z</time>
      </trkpt>
      <trkpt lat="2.792076" lon="-75.07273">
        <ele>1653.5</ele>
        <time>2021-08-21T14:49:05Z</time>
      </trkpt>
      <trkpt lat="2.792076" lon="-75.072716">
        <ele>1653.6</ele>
        <time>2021-08-21T14:49:06Z</time>
      </trkpt>
      <trkpt lat="2.792072" lon="-75.07271">
        <ele>1653.8</ele>
        <time>2021-08-21T14:49:07Z</time>
      </trkpt>
      <trkpt lat="2.792069" lon="-75.0727">
        <ele>1653.9</ele>
        <time>2021-08-21T14:49:08Z</time>
      </trkpt>
      <trkpt lat="2.792064" lon="-75.07269">
        <ele>1654.0</ele>
        <time>2021-08-21T14:49:09Z</time>
      </trkpt>
      <trkpt lat="2.792059" lon="-75.07268">
        <ele>1654.1</ele>
        <time>2021-08-21T14:49:10Z</time>
      </trkpt>
      <trkpt lat="2.79205" lon="-75.07267">
        <ele>1654.2</ele>
        <time>2021-08-21T14:49:11Z</time>
      </trkpt>
      <trkpt lat="2.792041" lon="-75.07266">
        <ele>1654.4</ele>
        <time>2021-08-21T14:49:12Z</time>
      </trkpt>
      <trkpt lat="2.792036" lon="-75.07265">
        <ele>1654.5</ele>
        <time>2021-08-21T14:49:13Z</time>
      </trkpt>
      <trkpt lat="2.792032" lon="-75.07264">
        <ele>1654.7</ele>
        <time>2021-08-21T14:49:14Z</time>
      </trkpt>
      <trkpt lat="2.792024" lon="-75.072624">
        <ele>1654.8</ele>
        <time>2021-08-21T14:49:15Z</time>
      </trkpt>
      <trkpt lat="2.792015" lon="-75.07262">
        <ele>1654.9</ele>
        <time>2021-08-21T14:49:16Z</time>
      </trkpt>
      <trkpt lat="2.792005" lon="-75.07261">
        <ele>1655.1</ele>
        <time>2021-08-21T14:49:17Z</time>
      </trkpt>
      <trkpt lat="2.791994" lon="-75.0726">
        <ele>1655.2</ele>
        <time>2021-08-21T14:49:18Z</time>
      </trkpt>
      <trkpt lat="2.791984" lon="-75.07259">
        <ele>1655.4</ele>
        <time>2021-08-21T14:49:19Z</time>
      </trkpt>
      <trkpt lat="2.791974" lon="-75.072586">
        <ele>1655.5</ele>
        <time>2021-08-21T14:49:20Z</time>
      </trkpt>
      <trkpt lat="2.791963" lon="-75.07258">
        <ele>1655.7</ele>
        <time>2021-08-21T14:49:21Z</time>
      </trkpt>
      <trkpt lat="2.791954" lon="-75.07257">
        <ele>1655.8</ele>
        <time>2021-08-21T14:49:22Z</time>
      </trkpt>
      <trkpt lat="2.791947" lon="-75.072556">
        <ele>1655.9</ele>
        <time>2021-08-21T14:49:23Z</time>
      </trkpt>
      <trkpt lat="2.791938" lon="-75.07255">
        <ele>1656.1</ele>
        <time>2021-08-21T14:49:24Z</time>
      </trkpt>
      <trkpt lat="2.79193" lon="-75.07253">
        <ele>1656.2</ele>
        <time>2021-08-21T14:49:25Z</time>
      </trkpt>
      <trkpt lat="2.791925" lon="-75.072525">
        <ele>1656.3</ele>
        <time>2021-08-21T14:49:26Z</time>
      </trkpt>
      <trkpt lat="2.791921" lon="-75.07251">
        <ele>1656.5</ele>
        <time>2021-08-21T14:49:27Z</time>
      </trkpt>
      <trkpt lat="2.791918" lon="-75.0725">
        <ele>1656.6</ele>
        <time>2021-08-21T14:49:28Z</time>
      </trkpt>
      <trkpt lat="2.791913" lon="-75.07249">
        <ele>1656.7</ele>
        <time>2021-08-21T14:49:29Z</time>
      </trkpt>
      <trkpt lat="2.79191" lon="-75.07247">
        <ele>1656.8</ele>
        <time>2021-08-21T14:49:30Z</time>
      </trkpt>
      <trkpt lat="2.791906" lon="-75.072464">
        <ele>1656.9</ele>
        <time>2021-08-21T14:49:31Z</time>
      </trkpt>
      <trkpt lat="2.791902" lon="-75.07245">
        <ele>1657.0</ele>
        <time>2021-08-21T14:49:32Z</time>
      </trkpt>
      <trkpt lat="2.791898" lon="-75.07244">
        <ele>1657.2</ele>
        <time>2021-08-21T14:49:33Z</time>
      </trkpt>
      <trkpt lat="2.791895" lon="-75.072426">
        <ele>1657.3</ele>
        <time>2021-08-21T14:49:34Z</time>
      </trkpt>
      <trkpt lat="2.791893" lon="-75.07241">
        <ele>1657.4</ele>
        <time>2021-08-21T14:49:35Z</time>
      </trkpt>
      <trkpt lat="2.79189" lon="-75.0724">
        <ele>1657.5</ele>
        <time>2021-08-21T14:49:36Z</time>
      </trkpt>
      <trkpt lat="2.791885" lon="-75.07239">
        <ele>1657.6</ele>
        <time>2021-08-21T14:49:37Z</time>
      </trkpt>
      <trkpt lat="2.79187" lon="-75.07237">
        <ele>1657.8</ele>
        <time>2021-08-21T14:49:38Z</time>
      </trkpt>
      <trkpt lat="2.79186" lon="-75.072365">
        <ele>1657.9</ele>
        <time>2021-08-21T14:49:39Z</time>
      </trkpt>
      <trkpt lat="2.791849" lon="-75.07236">
        <ele>1658.0</ele>
        <time>2021-08-21T14:49:40Z</time>
      </trkpt>
      <trkpt lat="2.791839" lon="-75.07235">
        <ele>1658.1</ele>
        <time>2021-08-21T14:49:41Z</time>
      </trkpt>
      <trkpt lat="2.791829" lon="-75.07234">
        <ele>1658.2</ele>
        <time>2021-08-21T14:49:42Z</time>
      </trkpt>
      <trkpt lat="2.791819" lon="-75.072334">
        <ele>1658.3</ele>
        <time>2021-08-21T14:49:43Z</time>
      </trkpt>
      <trkpt lat="2.791809" lon="-75.07233">
        <ele>1658.4</ele>
        <time>2021-08-21T14:49:44Z</time>
      </trkpt>
      <trkpt lat="2.791798" lon="-75.07233">
        <ele>1658.6</ele>
        <time>2021-08-21T14:49:45Z</time>
      </trkpt>
      <trkpt lat="2.791788" lon="-75.07232">
        <ele>1658.7</ele>
        <time>2021-08-21T14:49:46Z</time>
      </trkpt>
      <trkpt lat="2.791778" lon="-75.07231">
        <ele>1658.8</ele>
        <time>2021-08-21T14:49:47Z</time>
      </trkpt>
      <trkpt lat="2.791768" lon="-75.0723">
        <ele>1658.9</ele>
        <time>2021-08-21T14:49:48Z</time>
      </trkpt>
      <trkpt lat="2.791758" lon="-75.072296">
        <ele>1659.0</ele>
        <time>2021-08-21T14:49:49Z</time>
      </trkpt>
      <trkpt lat="2.791747" lon="-75.07229">
        <ele>1659.1</ele>
        <time>2021-08-21T14:49:50Z</time>
      </trkpt>
      <trkpt lat="2.791737" lon="-75.07228">
        <ele>1659.2</ele>
        <time>2021-08-21T14:49:51Z</time>
      </trkpt>
      <trkpt lat="2.791727" lon="-75.07227">
        <ele>1659.3</ele>
        <time>2021-08-21T14:49:52Z</time>
      </trkpt>
      <trkpt lat="2.791717" lon="-75.07227">
        <ele>1659.4</ele>
        <time>2021-08-21T14:49:53Z</time>
      </trkpt>
      <trkpt lat="2.791707" lon="-75.072266">
        <ele>1659.5</ele>
        <time>2021-08-21T14:49:54Z</time>
      </trkpt>
      <trkpt lat="2.791697" lon="-75.07226">
        <ele>1659.6</ele>
        <time>2021-08-21T14:49:55Z</time>
      </trkpt>
      <trkpt lat="2.791686" lon="-75.07225">
        <ele>1659.7</ele>
        <time>2021-08-21T14:49:56Z</time>
      </trkpt>
      <trkpt lat="2.791676" lon="-75.07224">
        <ele>1659.8</ele>
        <time>2021-08-21T14:49:57Z</time>
      </trkpt>
      <trkpt lat="2.791666" lon="-75.072235">
        <ele>1659.9</ele>
        <time>2021-08-21T14:49:58Z</time>
      </trkpt>
      <trkpt lat="2.791656" lon="-75.07223">
        <ele>1660.0</ele>
        <time>2021-08-21T14:49:59Z</time>
      </trkpt>
      <trkpt lat="2.791646" lon="-75.07222">
        <ele>1660.1</ele>
        <time>2021-08-21T14:50:00Z</time>
      </trkpt>
      <trkpt lat="2.791635" lon="-75.07221">
        <ele>1660.2</ele>
        <time>2021-08-21T14:50:01Z</time>
      </trkpt>
      <trkpt lat="2.791625" lon="-75.07221">
        <ele>1660.3</ele>
        <time>2021-08-21T14:50:02Z</time>
      </trkpt>
      <trkpt lat="2.791615" lon="-75.072205">
        <ele>1660.4</ele>
        <time>2021-08-21T14:50:03Z</time>
      </trkpt>
      <trkpt lat="2.791605" lon="-75.0722">
        <ele>1660.5</ele>
        <time>2021-08-21T14:50:04Z</time>
      </trkpt>
      <trkpt lat="2.791595" lon="-75.07219">
        <ele>1660.6</ele>
        <time>2021-08-21T14:50:05Z</time>
      </trkpt>
      <trkpt lat="2.791584" lon="-75.07218">
        <ele>1660.7</ele>
        <time>2021-08-21T14:50:06Z</time>
      </trkpt>
      <trkpt lat="2.791564" lon="-75.07217">
        <ele>1660.9</ele>
        <time>2021-08-21T14:50:07Z</time>
      </trkpt>
      <trkpt lat="2.791574" lon="-75.072174">
        <ele>1660.8</ele>
        <time>2021-08-21T14:50:07Z</time>
      </trkpt>
      <trkpt lat="2.79155" lon="-75.07217">
        <ele>1661.0</ele>
        <time>2021-08-21T14:50:08Z</time>
      </trkpt>
      <trkpt lat="2.791537" lon="-75.07217">
        <ele>1661.1</ele>
        <time>2021-08-21T14:50:09Z</time>
      </trkpt>
      <trkpt lat="2.791524" lon="-75.07217">
        <ele>1661.2</ele>
        <time>2021-08-21T14:50:10Z</time>
      </trkpt>
      <trkpt lat="2.79151" lon="-75.07217">
        <ele>1661.3</ele>
        <time>2021-08-21T14:50:11Z</time>
      </trkpt>
      <trkpt lat="2.791497" lon="-75.07217">
        <ele>1661.4</ele>
        <time>2021-08-21T14:50:12Z</time>
      </trkpt>
      <trkpt lat="2.791483" lon="-75.07217">
        <ele>1661.5</ele>
        <time>2021-08-21T14:50:13Z</time>
      </trkpt>
      <trkpt lat="2.791469" lon="-75.07217">
        <ele>1661.6</ele>
        <time>2021-08-21T14:50:14Z</time>
      </trkpt>
      <trkpt lat="2.791456" lon="-75.07216">
        <ele>1661.7</ele>
        <time>2021-08-21T14:50:15Z</time>
      </trkpt>
      <trkpt lat="2.791443" lon="-75.07216">
        <ele>1661.8</ele>
        <time>2021-08-21T14:50:16Z</time>
      </trkpt>
      <trkpt lat="2.79143" lon="-75.07216">
        <ele>1661.9</ele>
        <time>2021-08-21T14:50:17Z</time>
      </trkpt>
      <trkpt lat="2.791417" lon="-75.07215">
        <ele>1662.0</ele>
        <time>2021-08-21T14:50:18Z</time>
      </trkpt>
      <trkpt lat="2.791404" lon="-75.07215">
        <ele>1662.2</ele>
        <time>2021-08-21T14:50:19Z</time>
      </trkpt>
      <trkpt lat="2.791391" lon="-75.07215">
        <ele>1662.3</ele>
        <time>2021-08-21T14:50:20Z</time>
      </trkpt>
      <trkpt lat="2.791379" lon="-75.07214">
        <ele>1662.4</ele>
        <time>2021-08-21T14:50:21Z</time>
      </trkpt>
      <trkpt lat="2.791366" lon="-75.07214">
        <ele>1662.5</ele>
        <time>2021-08-21T14:50:22Z</time>
      </trkpt>
      <trkpt lat="2.791354" lon="-75.072136">
        <ele>1662.6</ele>
        <time>2021-08-21T14:50:23Z</time>
      </trkpt>
      <trkpt lat="2.791343" lon="-75.07213">
        <ele>1662.6</ele>
        <time>2021-08-21T14:50:24Z</time>
      </trkpt>
      <trkpt lat="2.791332" lon="-75.07212">
        <ele>1662.7</ele>
        <time>2021-08-21T14:50:25Z</time>
      </trkpt>
      <trkpt lat="2.791322" lon="-75.07211">
        <ele>1662.8</ele>
        <time>2021-08-21T14:50:26Z</time>
      </trkpt>
      <trkpt lat="2.79131" lon="-75.072105">
        <ele>1662.9</ele>
        <time>2021-08-21T14:50:27Z</time>
      </trkpt>
      <trkpt lat="2.7913" lon="-75.07209">
        <ele>1663.0</ele>
        <time>2021-08-21T14:50:28Z</time>
      </trkpt>
      <trkpt lat="2.791289" lon="-75.07208">
        <ele>1663.1</ele>
        <time>2021-08-21T14:50:29Z</time>
      </trkpt>
      <trkpt lat="2.791279" lon="-75.07207">
        <ele>1663.1</ele>
        <time>2021-08-21T14:50:30Z</time>
      </trkpt>
      <trkpt lat="2.791268" lon="-75.07206">
        <ele>1663.2</ele>
        <time>2021-08-21T14:50:31Z</time>
      </trkpt>
      <trkpt lat="2.791257" lon="-75.072044">
        <ele>1663.3</ele>
        <time>2021-08-21T14:50:32Z</time>
      </trkpt>
      <trkpt lat="2.791245" lon="-75.07203">
        <ele>1663.3</ele>
        <time>2021-08-21T14:50:33Z</time>
      </trkpt>
      <trkpt lat="2.791231" lon="-75.07202">
        <ele>1663.4</ele>
        <time>2021-08-21T14:50:34Z</time>
      </trkpt>
      <trkpt lat="2.791216" lon="-75.07201">
        <ele>1663.5</ele>
        <time>2021-08-21T14:50:35Z</time>
      </trkpt>
      <trkpt lat="2.791202" lon="-75.07199">
        <ele>1663.5</ele>
        <time>2021-08-21T14:50:36Z</time>
      </trkpt>
      <trkpt lat="2.791187" lon="-75.07198">
        <ele>1663.6</ele>
        <time>2021-08-21T14:50:37Z</time>
      </trkpt>
      <trkpt lat="2.791171" lon="-75.071976">
        <ele>1663.6</ele>
        <time>2021-08-21T14:50:38Z</time>
      </trkpt>
      <trkpt lat="2.791156" lon="-75.07197">
        <ele>1663.6</ele>
        <time>2021-08-21T14:50:39Z</time>
      </trkpt>
      <trkpt lat="2.791141" lon="-75.07195">
        <ele>1663.7</ele>
        <time>2021-08-21T14:50:40Z</time>
      </trkpt>
      <trkpt lat="2.791126" lon="-75.071945">
        <ele>1663.7</ele>
        <time>2021-08-21T14:50:41Z</time>
      </trkpt>
      <trkpt lat="2.791113" lon="-75.07194">
        <ele>1663.8</ele>
        <time>2021-08-21T14:50:42Z</time>
      </trkpt>
      <trkpt lat="2.7911" lon="-75.07192">
        <ele>1663.8</ele>
        <time>2021-08-21T14:50:43Z</time>
      </trkpt>
      <trkpt lat="2.791087" lon="-75.071915">
        <ele>1663.9</ele>
        <time>2021-08-21T14:50:44Z</time>
      </trkpt>
      <trkpt lat="2.791073" lon="-75.07191">
        <ele>1663.9</ele>
        <time>2021-08-21T14:50:45Z</time>
      </trkpt>
      <trkpt lat="2.79106" lon="-75.0719">
        <ele>1663.9</ele>
        <time>2021-08-21T14:50:46Z</time>
      </trkpt>
      <trkpt lat="2.791048" lon="-75.07189">
        <ele>1664.0</ele>
        <time>2021-08-21T14:50:47Z</time>
      </trkpt>
      <trkpt lat="2.791035" lon="-75.07189">
        <ele>1664.0</ele>
        <time>2021-08-21T14:50:48Z</time>
      </trkpt>
      <trkpt lat="2.791023" lon="-75.071884">
        <ele>1664.0</ele>
        <time>2021-08-21T14:50:49Z</time>
      </trkpt>
      <trkpt lat="2.791012" lon="-75.07188">
        <ele>1664.1</ele>
        <time>2021-08-21T14:50:50Z</time>
      </trkpt>
      <trkpt lat="2.791002" lon="-75.07188">
        <ele>1664.1</ele>
        <time>2021-08-21T14:50:51Z</time>
      </trkpt>
      <trkpt lat="2.790991" lon="-75.07187">
        <ele>1664.1</ele>
        <time>2021-08-21T14:50:52Z</time>
      </trkpt>
      <trkpt lat="2.790981" lon="-75.07186">
        <ele>1664.2</ele>
        <time>2021-08-21T14:50:53Z</time>
      </trkpt>
      <trkpt lat="2.79097" lon="-75.07186">
        <ele>1664.2</ele>
        <time>2021-08-21T14:50:54Z</time>
      </trkpt>
      <trkpt lat="2.790957" lon="-75.07185">
        <ele>1664.3</ele>
        <time>2021-08-21T14:50:55Z</time>
      </trkpt>
      <trkpt lat="2.790942" lon="-75.07185">
        <ele>1664.3</ele>
        <time>2021-08-21T14:50:56Z</time>
      </trkpt>
      <trkpt lat="2.790928" lon="-75.071846">
        <ele>1664.4</ele>
        <time>2021-08-21T14:50:57Z</time>
      </trkpt>
      <trkpt lat="2.790913" lon="-75.071846">
        <ele>1664.4</ele>
        <time>2021-08-21T14:50:58Z</time>
      </trkpt>
      <trkpt lat="2.790898" lon="-75.071846">
        <ele>1664.5</ele>
        <time>2021-08-21T14:50:59Z</time>
      </trkpt>
      <trkpt lat="2.790882" lon="-75.071846">
        <ele>1664.6</ele>
        <time>2021-08-21T14:51:00Z</time>
      </trkpt>
      <trkpt lat="2.790867" lon="-75.07185">
        <ele>1664.6</ele>
        <time>2021-08-21T14:51:01Z</time>
      </trkpt>
      <trkpt lat="2.790854" lon="-75.07185">
        <ele>1664.7</ele>
        <time>2021-08-21T14:51:02Z</time>
      </trkpt>
      <trkpt lat="2.790841" lon="-75.07185">
        <ele>1664.7</ele>
        <time>2021-08-21T14:51:03Z</time>
      </trkpt>
      <trkpt lat="2.790827" lon="-75.07186">
        <ele>1664.8</ele>
        <time>2021-08-21T14:51:04Z</time>
      </trkpt>
      <trkpt lat="2.790813" lon="-75.07187">
        <ele>1664.9</ele>
        <time>2021-08-21T14:51:05Z</time>
      </trkpt>
      <trkpt lat="2.790798" lon="-75.07188">
        <ele>1665.0</ele>
        <time>2021-08-21T14:51:06Z</time>
      </trkpt>
      <trkpt lat="2.790783" lon="-75.071884">
        <ele>1665.1</ele>
        <time>2021-08-21T14:51:07Z</time>
      </trkpt>
      <trkpt lat="2.790768" lon="-75.07189">
        <ele>1665.2</ele>
        <time>2021-08-21T14:51:08Z</time>
      </trkpt>
      <trkpt lat="2.790753" lon="-75.07189">
        <ele>1665.3</ele>
        <time>2021-08-21T14:51:09Z</time>
      </trkpt>
      <trkpt lat="2.790739" lon="-75.0719">
        <ele>1665.4</ele>
        <time>2021-08-21T14:51:10Z</time>
      </trkpt>
      <trkpt lat="2.790727" lon="-75.0719">
        <ele>1665.5</ele>
        <time>2021-08-21T14:51:11Z</time>
      </trkpt>
      <trkpt lat="2.790714" lon="-75.0719">
        <ele>1665.6</ele>
        <time>2021-08-21T14:51:12Z</time>
      </trkpt>
      <trkpt lat="2.790702" lon="-75.0719">
        <ele>1665.7</ele>
        <time>2021-08-21T14:51:13Z</time>
      </trkpt>
      <trkpt lat="2.790691" lon="-75.07191">
        <ele>1665.8</ele>
        <time>2021-08-21T14:51:14Z</time>
      </trkpt>
      <trkpt lat="2.790679" lon="-75.07191">
        <ele>1665.9</ele>
        <time>2021-08-21T14:51:15Z</time>
      </trkpt>
      <trkpt lat="2.790666" lon="-75.071915">
        <ele>1666.0</ele>
        <time>2021-08-21T14:51:16Z</time>
      </trkpt>
      <trkpt lat="2.790654" lon="-75.071915">
        <ele>1666.1</ele>
        <time>2021-08-21T14:51:17Z</time>
      </trkpt>
      <trkpt lat="2.790642" lon="-75.07192">
        <ele>1666.3</ele>
        <time>2021-08-21T14:51:18Z</time>
      </trkpt>
      <trkpt lat="2.790631" lon="-75.07192">
        <ele>1666.4</ele>
        <time>2021-08-21T14:51:19Z</time>
      </trkpt>
      <trkpt lat="2.790619" lon="-75.07193">
        <ele>1666.5</ele>
        <time>2021-08-21T14:51:20Z</time>
      </trkpt>
      <trkpt lat="2.790607" lon="-75.07193">
        <ele>1666.6</ele>
        <time>2021-08-21T14:51:21Z</time>
      </trkpt>
      <trkpt lat="2.790596" lon="-75.07193">
        <ele>1666.7</ele>
        <time>2021-08-21T14:51:22Z</time>
      </trkpt>
      <trkpt lat="2.790584" lon="-75.07194">
        <ele>1666.8</ele>
        <time>2021-08-21T14:51:23Z</time>
      </trkpt>
      <trkpt lat="2.790572" lon="-75.07194">
        <ele>1667.0</ele>
        <time>2021-08-21T14:51:24Z</time>
      </trkpt>
      <trkpt lat="2.79056" lon="-75.071945">
        <ele>1667.1</ele>
        <time>2021-08-21T14:51:25Z</time>
      </trkpt>
      <trkpt lat="2.790548" lon="-75.071945">
        <ele>1667.2</ele>
        <time>2021-08-21T14:51:26Z</time>
      </trkpt>
      <trkpt lat="2.790536" lon="-75.071945">
        <ele>1667.4</ele>
        <time>2021-08-21T14:51:27Z</time>
      </trkpt>
      <trkpt lat="2.790523" lon="-75.07195">
        <ele>1667.5</ele>
        <time>2021-08-21T14:51:28Z</time>
      </trkpt>
      <trkpt lat="2.790511" lon="-75.07195">
        <ele>1667.6</ele>
        <time>2021-08-21T14:51:29Z</time>
      </trkpt>
      <trkpt lat="2.7905" lon="-75.07195">
        <ele>1667.8</ele>
        <time>2021-08-21T14:51:30Z</time>
      </trkpt>
      <trkpt lat="2.790488" lon="-75.07195">
        <ele>1667.9</ele>
        <time>2021-08-21T14:51:31Z</time>
      </trkpt>
      <trkpt lat="2.790475" lon="-75.07195">
        <ele>1668.1</ele>
        <time>2021-08-21T14:51:32Z</time>
      </trkpt>
      <trkpt lat="2.790462" lon="-75.071945">
        <ele>1668.2</ele>
        <time>2021-08-21T14:51:33Z</time>
      </trkpt>
      <trkpt lat="2.790449" lon="-75.071945">
        <ele>1668.4</ele>
        <time>2021-08-21T14:51:34Z</time>
      </trkpt>
      <trkpt lat="2.790436" lon="-75.071945">
        <ele>1668.5</ele>
        <time>2021-08-21T14:51:35Z</time>
      </trkpt>
      <trkpt lat="2.790424" lon="-75.07195">
        <ele>1668.6</ele>
        <time>2021-08-21T14:51:36Z</time>
      </trkpt>
      <trkpt lat="2.790412" lon="-75.07195">
        <ele>1668.8</ele>
        <time>2021-08-21T14:51:37Z</time>
      </trkpt>
      <trkpt lat="2.790402" lon="-75.07195">
        <ele>1668.9</ele>
        <time>2021-08-21T14:51:38Z</time>
      </trkpt>
      <trkpt lat="2.790391" lon="-75.07195">
        <ele>1669.0</ele>
        <time>2021-08-21T14:51:39Z</time>
      </trkpt>
      <trkpt lat="2.790381" lon="-75.07196">
        <ele>1669.2</ele>
        <time>2021-08-21T14:51:40Z</time>
      </trkpt>
      <trkpt lat="2.790372" lon="-75.07196">
        <ele>1669.3</ele>
        <time>2021-08-21T14:51:41Z</time>
      </trkpt>
      <trkpt lat="2.790362" lon="-75.07196">
        <ele>1669.4</ele>
        <time>2021-08-21T14:51:42Z</time>
      </trkpt>
      <trkpt lat="2.790351" lon="-75.07197">
        <ele>1669.6</ele>
        <time>2021-08-21T14:51:43Z</time>
      </trkpt>
      <trkpt lat="2.79034" lon="-75.07197">
        <ele>1669.7</ele>
        <time>2021-08-21T14:51:44Z</time>
      </trkpt>
      <trkpt lat="2.790329" lon="-75.07197">
        <ele>1669.8</ele>
        <time>2021-08-21T14:51:45Z</time>
      </trkpt>
      <trkpt lat="2.79032" lon="-75.07197">
        <ele>1669.9</ele>
        <time>2021-08-21T14:51:46Z</time>
      </trkpt>
      <trkpt lat="2.79031" lon="-75.071976">
        <ele>1670.1</ele>
        <time>2021-08-21T14:51:47Z</time>
      </trkpt>
      <trkpt lat="2.7903" lon="-75.071976">
        <ele>1670.2</ele>
        <time>2021-08-21T14:51:48Z</time>
      </trkpt>
      <trkpt lat="2.79029" lon="-75.071976">
        <ele>1670.3</ele>
        <time>2021-08-21T14:51:49Z</time>
      </trkpt>
      <trkpt lat="2.790281" lon="-75.071976">
        <ele>1670.4</ele>
        <time>2021-08-21T14:51:50Z</time>
      </trkpt>
      <trkpt lat="2.790271" lon="-75.071976">
        <ele>1670.6</ele>
        <time>2021-08-21T14:51:51Z</time>
      </trkpt>
      <trkpt lat="2.790262" lon="-75.071976">
        <ele>1670.7</ele>
        <time>2021-08-21T14:51:52Z</time>
      </trkpt>
      <trkpt lat="2.790251" lon="-75.071976">
        <ele>1670.8</ele>
        <time>2021-08-21T14:51:53Z</time>
      </trkpt>
      <trkpt lat="2.790241" lon="-75.071976">
        <ele>1670.9</ele>
        <time>2021-08-21T14:51:54Z</time>
      </trkpt>
      <trkpt lat="2.79023" lon="-75.071976">
        <ele>1671.1</ele>
        <time>2021-08-21T14:51:55Z</time>
      </trkpt>
      <trkpt lat="2.790218" lon="-75.071976">
        <ele>1671.2</ele>
        <time>2021-08-21T14:51:56Z</time>
      </trkpt>
      <trkpt lat="2.790206" lon="-75.07197">
        <ele>1671.3</ele>
        <time>2021-08-21T14:51:57Z</time>
      </trkpt>
      <trkpt lat="2.790195" lon="-75.07197">
        <ele>1671.5</ele>
        <time>2021-08-21T14:51:58Z</time>
      </trkpt>
      <trkpt lat="2.790184" lon="-75.07197">
        <ele>1671.6</ele>
        <time>2021-08-21T14:51:59Z</time>
      </trkpt>
      <trkpt lat="2.790174" lon="-75.07196">
        <ele>1671.7</ele>
        <time>2021-08-21T14:52:00Z</time>
      </trkpt>
      <trkpt lat="2.790163" lon="-75.07196">
        <ele>1671.8</ele>
        <time>2021-08-21T14:52:01Z</time>
      </trkpt>
      <trkpt lat="2.790153" lon="-75.07195">
        <ele>1672.0</ele>
        <time>2021-08-21T14:52:02Z</time>
      </trkpt>
      <trkpt lat="2.790142" lon="-75.07195">
        <ele>1672.1</ele>
        <time>2021-08-21T14:52:03Z</time>
      </trkpt>
      <trkpt lat="2.790131" lon="-75.07195">
        <ele>1672.2</ele>
        <time>2021-08-21T14:52:04Z</time>
      </trkpt>
      <trkpt lat="2.79012" lon="-75.07195">
        <ele>1672.3</ele>
        <time>2021-08-21T14:52:05Z</time>
      </trkpt>
      <trkpt lat="2.790111" lon="-75.07195">
        <ele>1672.4</ele>
        <time>2021-08-21T14:52:06Z</time>
      </trkpt>
      <trkpt lat="2.790101" lon="-75.07195">
        <ele>1672.5</ele>
        <time>2021-08-21T14:52:07Z</time>
      </trkpt>
      <trkpt lat="2.790092" lon="-75.07195">
        <ele>1672.6</ele>
        <time>2021-08-21T14:52:08Z</time>
      </trkpt>
      <trkpt lat="2.790083" lon="-75.07195">
        <ele>1672.6</ele>
        <time>2021-08-21T14:52:09Z</time>
      </trkpt>
      <trkpt lat="2.790074" lon="-75.07195">
        <ele>1672.7</ele>
        <time>2021-08-21T14:52:10Z</time>
      </trkpt>
      <trkpt lat="2.790064" lon="-75.07195">
        <ele>1672.8</ele>
        <time>2021-08-21T14:52:11Z</time>
      </trkpt>
      <trkpt lat="2.790055" lon="-75.07195">
        <ele>1672.9</ele>
        <time>2021-08-21T14:52:12Z</time>
      </trkpt>
      <trkpt lat="2.790045" lon="-75.07195">
        <ele>1673.0</ele>
        <time>2021-08-21T14:52:13Z</time>
      </trkpt>
      <trkpt lat="2.790034" lon="-75.07195">
        <ele>1673.1</ele>
        <time>2021-08-21T14:52:14Z</time>
      </trkpt>
      <trkpt lat="2.790024" lon="-75.07195">
        <ele>1673.2</ele>
        <time>2021-08-21T14:52:15Z</time>
      </trkpt>
      <trkpt lat="2.790013" lon="-75.07195">
        <ele>1673.2</ele>
        <time>2021-08-21T14:52:16Z</time>
      </trkpt>
      <trkpt lat="2.790002" lon="-75.07195">
        <ele>1673.3</ele>
        <time>2021-08-21T14:52:17Z</time>
      </trkpt>
      <trkpt lat="2.789989" lon="-75.07195">
        <ele>1673.4</ele>
        <time>2021-08-21T14:52:18Z</time>
      </trkpt>
      <trkpt lat="2.789977" lon="-75.07195">
        <ele>1673.5</ele>
        <time>2021-08-21T14:52:19Z</time>
      </trkpt>
      <trkpt lat="2.789964" lon="-75.07195">
        <ele>1673.6</ele>
        <time>2021-08-21T14:52:20Z</time>
      </trkpt>
      <trkpt lat="2.78995" lon="-75.07195">
        <ele>1673.7</ele>
        <time>2021-08-21T14:52:21Z</time>
      </trkpt>
      <trkpt lat="2.789936" lon="-75.071945">
        <ele>1673.8</ele>
        <time>2021-08-21T14:52:22Z</time>
      </trkpt>
      <trkpt lat="2.789922" lon="-75.071945">
        <ele>1673.9</ele>
        <time>2021-08-21T14:52:23Z</time>
      </trkpt>
      <trkpt lat="2.789908" lon="-75.071945">
        <ele>1674.0</ele>
        <time>2021-08-21T14:52:24Z</time>
      </trkpt>
      <trkpt lat="2.789894" lon="-75.07194">
        <ele>1674.1</ele>
        <time>2021-08-21T14:52:25Z</time>
      </trkpt>
      <trkpt lat="2.78988" lon="-75.07193">
        <ele>1674.2</ele>
        <time>2021-08-21T14:52:26Z</time>
      </trkpt>
      <trkpt lat="2.789866" lon="-75.07192">
        <ele>1674.3</ele>
        <time>2021-08-21T14:52:27Z</time>
      </trkpt>
      <trkpt lat="2.789852" lon="-75.07192">
        <ele>1674.4</ele>
        <time>2021-08-21T14:52:28Z</time>
      </trkpt>
      <trkpt lat="2.789838" lon="-75.071915">
        <ele>1674.5</ele>
        <time>2021-08-21T14:52:29Z</time>
      </trkpt>
      <trkpt lat="2.789825" lon="-75.071915">
        <ele>1674.6</ele>
        <time>2021-08-21T14:52:30Z</time>
      </trkpt>
      <trkpt lat="2.789812" lon="-75.071915">
        <ele>1674.7</ele>
        <time>2021-08-21T14:52:31Z</time>
      </trkpt>
      <trkpt lat="2.7898" lon="-75.071915">
        <ele>1674.8</ele>
        <time>2021-08-21T14:52:32Z</time>
      </trkpt>
      <trkpt lat="2.789789" lon="-75.071915">
        <ele>1674.9</ele>
        <time>2021-08-21T14:52:33Z</time>
      </trkpt>
      <trkpt lat="2.789777" lon="-75.071915">
        <ele>1675.0</ele>
        <time>2021-08-21T14:52:34Z</time>
      </trkpt>
      <trkpt lat="2.789766" lon="-75.071915">
        <ele>1675.1</ele>
        <time>2021-08-21T14:52:35Z</time>
      </trkpt>
      <trkpt lat="2.789755" lon="-75.071915">
        <ele>1675.2</ele>
        <time>2021-08-21T14:52:36Z</time>
      </trkpt>
      <trkpt lat="2.789744" lon="-75.071915">
        <ele>1675.3</ele>
        <time>2021-08-21T14:52:37Z</time>
      </trkpt>
      <trkpt lat="2.789733" lon="-75.071915">
        <ele>1675.4</ele>
        <time>2021-08-21T14:52:38Z</time>
      </trkpt>
      <trkpt lat="2.789722" lon="-75.071915">
        <ele>1675.5</ele>
        <time>2021-08-21T14:52:39Z</time>
      </trkpt>
      <trkpt lat="2.789712" lon="-75.071915">
        <ele>1675.6</ele>
        <time>2021-08-21T14:52:40Z</time>
      </trkpt>
      <trkpt lat="2.789701" lon="-75.071915">
        <ele>1675.7</ele>
        <time>2021-08-21T14:52:41Z</time>
      </trkpt>
      <trkpt lat="2.78969" lon="-75.071915">
        <ele>1675.8</ele>
        <time>2021-08-21T14:52:42Z</time>
      </trkpt>
      <trkpt lat="2.789679" lon="-75.071915">
        <ele>1675.8</ele>
        <time>2021-08-21T14:52:43Z</time>
      </trkpt>
      <trkpt lat="2.789669" lon="-75.07191">
        <ele>1675.9</ele>
        <time>2021-08-21T14:52:44Z</time>
      </trkpt>
      <trkpt lat="2.789658" lon="-75.07191">
        <ele>1676.0</ele>
        <time>2021-08-21T14:52:45Z</time>
      </trkpt>
      <trkpt lat="2.789638" lon="-75.07191">
        <ele>1676.2</ele>
        <time>2021-08-21T14:52:46Z</time>
      </trkpt>
      <trkpt lat="2.789627" lon="-75.071915">
        <ele>1676.3</ele>
        <time>2021-08-21T14:52:47Z</time>
      </trkpt>
      <trkpt lat="2.789617" lon="-75.071915">
        <ele>1676.4</ele>
        <time>2021-08-21T14:52:48Z</time>
      </trkpt>
      <trkpt lat="2.789606" lon="-75.071915">
        <ele>1676.5</ele>
        <time>2021-08-21T14:52:49Z</time>
      </trkpt>
      <trkpt lat="2.789596" lon="-75.071915">
        <ele>1676.6</ele>
        <time>2021-08-21T14:52:50Z</time>
      </trkpt>
      <trkpt lat="2.789585" lon="-75.071915">
        <ele>1676.7</ele>
        <time>2021-08-21T14:52:51Z</time>
      </trkpt>
      <trkpt lat="2.789575" lon="-75.07192">
        <ele>1676.8</ele>
        <time>2021-08-21T14:52:52Z</time>
      </trkpt>
      <trkpt lat="2.789564" lon="-75.07192">
        <ele>1676.9</ele>
        <time>2021-08-21T14:52:53Z</time>
      </trkpt>
      <trkpt lat="2.789554" lon="-75.07192">
        <ele>1677.0</ele>
        <time>2021-08-21T14:52:54Z</time>
      </trkpt>
      <trkpt lat="2.789543" lon="-75.07192">
        <ele>1677.1</ele>
        <time>2021-08-21T14:52:55Z</time>
      </trkpt>
      <trkpt lat="2.789533" lon="-75.07192">
        <ele>1677.1</ele>
        <time>2021-08-21T14:52:56Z</time>
      </trkpt>
      <trkpt lat="2.789522" lon="-75.07193">
        <ele>1677.2</ele>
        <time>2021-08-21T14:52:57Z</time>
      </trkpt>
      <trkpt lat="2.789512" lon="-75.07193">
        <ele>1677.3</ele>
        <time>2021-08-21T14:52:58Z</time>
      </trkpt>
      <trkpt lat="2.789501" lon="-75.07193">
        <ele>1677.4</ele>
        <time>2021-08-21T14:52:59Z</time>
      </trkpt>
      <trkpt lat="2.789491" lon="-75.07193">
        <ele>1677.5</ele>
        <time>2021-08-21T14:53:00Z</time>
      </trkpt>
      <trkpt lat="2.78948" lon="-75.07194">
        <ele>1677.6</ele>
        <time>2021-08-21T14:53:01Z</time>
      </trkpt>
      <trkpt lat="2.78947" lon="-75.07194">
        <ele>1677.7</ele>
        <time>2021-08-21T14:53:02Z</time>
      </trkpt>
      <trkpt lat="2.78946" lon="-75.07194">
        <ele>1677.7</ele>
        <time>2021-08-21T14:53:03Z</time>
      </trkpt>
      <trkpt lat="2.789449" lon="-75.07194">
        <ele>1677.8</ele>
        <time>2021-08-21T14:53:04Z</time>
      </trkpt>
      <trkpt lat="2.789439" lon="-75.07194">
        <ele>1677.9</ele>
        <time>2021-08-21T14:53:05Z</time>
      </trkpt>
      <trkpt lat="2.789428" lon="-75.071945">
        <ele>1678.0</ele>
        <time>2021-08-21T14:53:06Z</time>
      </trkpt>
      <trkpt lat="2.789418" lon="-75.071945">
        <ele>1678.1</ele>
        <time>2021-08-21T14:53:07Z</time>
      </trkpt>
      <trkpt lat="2.789407" lon="-75.071945">
        <ele>1678.2</ele>
        <time>2021-08-21T14:53:08Z</time>
      </trkpt>
      <trkpt lat="2.789397" lon="-75.071945">
        <ele>1678.3</ele>
        <time>2021-08-21T14:53:09Z</time>
      </trkpt>
      <trkpt lat="2.789386" lon="-75.07195">
        <ele>1678.4</ele>
        <time>2021-08-21T14:53:10Z</time>
      </trkpt>
      <trkpt lat="2.789376" lon="-75.07195">
        <ele>1678.5</ele>
        <time>2021-08-21T14:53:11Z</time>
      </trkpt>
      <trkpt lat="2.789365" lon="-75.07195">
        <ele>1678.6</ele>
        <time>2021-08-21T14:53:12Z</time>
      </trkpt>
      <trkpt lat="2.789355" lon="-75.07195">
        <ele>1678.7</ele>
        <time>2021-08-21T14:53:13Z</time>
      </trkpt>
      <trkpt lat="2.789344" lon="-75.07196">
        <ele>1678.8</ele>
        <time>2021-08-21T14:53:14Z</time>
      </trkpt>
      <trkpt lat="2.789334" lon="-75.07196">
        <ele>1678.9</ele>
        <time>2021-08-21T14:53:15Z</time>
      </trkpt>
      <trkpt lat="2.789323" lon="-75.07196">
        <ele>1679.0</ele>
        <time>2021-08-21T14:53:16Z</time>
      </trkpt>
      <trkpt lat="2.789313" lon="-75.07196">
        <ele>1679.1</ele>
        <time>2021-08-21T14:53:17Z</time>
      </trkpt>
      <trkpt lat="2.789303" lon="-75.07196">
        <ele>1679.2</ele>
        <time>2021-08-21T14:53:18Z</time>
      </trkpt>
      <trkpt lat="2.789292" lon="-75.07197">
        <ele>1679.3</ele>
        <time>2021-08-21T14:53:19Z</time>
      </trkpt>
      <trkpt lat="2.789282" lon="-75.07197">
        <ele>1679.4</ele>
        <time>2021-08-21T14:53:20Z</time>
      </trkpt>
      <trkpt lat="2.789271" lon="-75.07197">
        <ele>1679.5</ele>
        <time>2021-08-21T14:53:21Z</time>
      </trkpt>
      <trkpt lat="2.789261" lon="-75.07197">
        <ele>1679.6</ele>
        <time>2021-08-21T14:53:22Z</time>
      </trkpt>
      <trkpt lat="2.78925" lon="-75.071976">
        <ele>1679.7</ele>
        <time>2021-08-21T14:53:23Z</time>
      </trkpt>
      <trkpt lat="2.78924" lon="-75.071976">
        <ele>1679.8</ele>
        <time>2021-08-21T14:53:24Z</time>
      </trkpt>
      <trkpt lat="2.789229" lon="-75.071976">
        <ele>1679.9</ele>
        <time>2021-08-21T14:53:25Z</time>
      </trkpt>
      <trkpt lat="2.789219" lon="-75.071976">
        <ele>1680.0</ele>
        <time>2021-08-21T14:53:26Z</time>
      </trkpt>
      <trkpt lat="2.789208" lon="-75.071976">
        <ele>1680.1</ele>
        <time>2021-08-21T14:53:27Z</time>
      </trkpt>
      <trkpt lat="2.789198" lon="-75.07198">
        <ele>1680.2</ele>
        <time>2021-08-21T14:53:28Z</time>
      </trkpt>
      <trkpt lat="2.789187" lon="-75.07198">
        <ele>1680.3</ele>
        <time>2021-08-21T14:53:29Z</time>
      </trkpt>
      <trkpt lat="2.789177" lon="-75.07198">
        <ele>1680.4</ele>
        <time>2021-08-21T14:53:30Z</time>
      </trkpt>
      <trkpt lat="2.789166" lon="-75.07198">
        <ele>1680.5</ele>
        <time>2021-08-21T14:53:31Z</time>
      </trkpt>
      <trkpt lat="2.789156" lon="-75.07198">
        <ele>1680.6</ele>
        <time>2021-08-21T14:53:32Z</time>
      </trkpt>
      <trkpt lat="2.789135" lon="-75.07199">
        <ele>1680.8</ele>
        <time>2021-08-21T14:53:34Z</time>
      </trkpt>
      <trkpt lat="2.789145" lon="-75.07199">
        <ele>1680.7</ele>
        <time>2021-08-21T14:53:34Z</time>
      </trkpt>
      <trkpt lat="2.789115" lon="-75.072">
        <ele>1681.0</ele>
        <time>2021-08-21T14:53:35Z</time>
      </trkpt>
      <trkpt lat="2.789106" lon="-75.072">
        <ele>1681.1</ele>
        <time>2021-08-21T14:53:36Z</time>
      </trkpt>
      <trkpt lat="2.789096" lon="-75.07201">
        <ele>1681.2</ele>
        <time>2021-08-21T14:53:37Z</time>
      </trkpt>
      <trkpt lat="2.789086" lon="-75.072014">
        <ele>1681.4</ele>
        <time>2021-08-21T14:53:38Z</time>
      </trkpt>
      <trkpt lat="2.789077" lon="-75.072014">
        <ele>1681.4</ele>
        <time>2021-08-21T14:53:39Z</time>
      </trkpt>
      <trkpt lat="2.789067" lon="-75.07202">
        <ele>1681.5</ele>
        <time>2021-08-21T14:53:40Z</time>
      </trkpt>
      <trkpt lat="2.789057" lon="-75.07202">
        <ele>1681.7</ele>
        <time>2021-08-21T14:53:41Z</time>
      </trkpt>
      <trkpt lat="2.789047" lon="-75.07203">
        <ele>1681.8</ele>
        <time>2021-08-21T14:53:42Z</time>
      </trkpt>
      <trkpt lat="2.789038" lon="-75.07203">
        <ele>1681.9</ele>
        <time>2021-08-21T14:53:43Z</time>
      </trkpt>
      <trkpt lat="2.789028" lon="-75.07204">
        <ele>1682.0</ele>
        <time>2021-08-21T14:53:44Z</time>
      </trkpt>
      <trkpt lat="2.789018" lon="-75.07204">
        <ele>1682.1</ele>
        <time>2021-08-21T14:53:45Z</time>
      </trkpt>
      <trkpt lat="2.789009" lon="-75.072044">
        <ele>1682.2</ele>
        <time>2021-08-21T14:53:46Z</time>
      </trkpt>
      <trkpt lat="2.788999" lon="-75.07205">
        <ele>1682.3</ele>
        <time>2021-08-21T14:53:47Z</time>
      </trkpt>
      <trkpt lat="2.788989" lon="-75.07205">
        <ele>1682.4</ele>
        <time>2021-08-21T14:53:48Z</time>
      </trkpt>
      <trkpt lat="2.78898" lon="-75.07206">
        <ele>1682.5</ele>
        <time>2021-08-21T14:53:49Z</time>
      </trkpt>
      <trkpt lat="2.78897" lon="-75.07206">
        <ele>1682.6</ele>
        <time>2021-08-21T14:53:50Z</time>
      </trkpt>
      <trkpt lat="2.78896" lon="-75.07207">
        <ele>1682.7</ele>
        <time>2021-08-21T14:53:51Z</time>
      </trkpt>
      <trkpt lat="2.788951" lon="-75.07207">
        <ele>1682.8</ele>
        <time>2021-08-21T14:53:52Z</time>
      </trkpt>
      <trkpt lat="2.788941" lon="-75.072075">
        <ele>1682.9</ele>
        <time>2021-08-21T14:53:53Z</time>
      </trkpt>
      <trkpt lat="2.788931" lon="-75.072075">
        <ele>1683.0</ele>
        <time>2021-08-21T14:53:54Z</time>
      </trkpt>
      <trkpt lat="2.788921" lon="-75.07208">
        <ele>1683.1</ele>
        <time>2021-08-21T14:53:55Z</time>
      </trkpt>
      <trkpt lat="2.788912" lon="-75.07209">
        <ele>1683.2</ele>
        <time>2021-08-21T14:53:56Z</time>
      </trkpt>
      <trkpt lat="2.788902" lon="-75.07209">
        <ele>1683.3</ele>
        <time>2021-08-21T14:53:57Z</time>
      </trkpt>
      <trkpt lat="2.788892" lon="-75.0721">
        <ele>1683.4</ele>
        <time>2021-08-21T14:53:58Z</time>
      </trkpt>
      <trkpt lat="2.788883" lon="-75.0721">
        <ele>1683.5</ele>
        <time>2021-08-21T14:53:59Z</time>
      </trkpt>
      <trkpt lat="2.788873" lon="-75.072105">
        <ele>1683.6</ele>
        <time>2021-08-21T14:54:00Z</time>
      </trkpt>
      <trkpt lat="2.788863" lon="-75.072105">
        <ele>1683.7</ele>
        <time>2021-08-21T14:54:01Z</time>
      </trkpt>
      <trkpt lat="2.788854" lon="-75.07211">
        <ele>1683.8</ele>
        <time>2021-08-21T14:54:02Z</time>
      </trkpt>
      <trkpt lat="2.788844" lon="-75.07212">
        <ele>1683.9</ele>
        <time>2021-08-21T14:54:03Z</time>
      </trkpt>
      <trkpt lat="2.788834" lon="-75.07212">
        <ele>1684.0</ele>
        <time>2021-08-21T14:54:04Z</time>
      </trkpt>
      <trkpt lat="2.788824" lon="-75.07213">
        <ele>1684.1</ele>
        <time>2021-08-21T14:54:05Z</time>
      </trkpt>
      <trkpt lat="2.788815" lon="-75.07213">
        <ele>1684.2</ele>
        <time>2021-08-21T14:54:06Z</time>
      </trkpt>
      <trkpt lat="2.788805" lon="-75.072136">
        <ele>1684.3</ele>
        <time>2021-08-21T14:54:07Z</time>
      </trkpt>
      <trkpt lat="2.788795" lon="-75.072136">
        <ele>1684.4</ele>
        <time>2021-08-21T14:54:08Z</time>
      </trkpt>
      <trkpt lat="2.788786" lon="-75.07214">
        <ele>1684.5</ele>
        <time>2021-08-21T14:54:09Z</time>
      </trkpt>
      <trkpt lat="2.788776" lon="-75.07214">
        <ele>1684.6</ele>
        <time>2021-08-21T14:54:10Z</time>
      </trkpt>
      <trkpt lat="2.788766" lon="-75.07215">
        <ele>1684.7</ele>
        <time>2021-08-21T14:54:11Z</time>
      </trkpt>
      <trkpt lat="2.788757" lon="-75.07216">
        <ele>1684.8</ele>
        <time>2021-08-21T14:54:12Z</time>
      </trkpt>
      <trkpt lat="2.788747" lon="-75.07216">
        <ele>1684.9</ele>
        <time>2021-08-21T14:54:13Z</time>
      </trkpt>
      <trkpt lat="2.788737" lon="-75.07217">
        <ele>1685.0</ele>
        <time>2021-08-21T14:54:14Z</time>
      </trkpt>
      <trkpt lat="2.788728" lon="-75.07217">
        <ele>1685.1</ele>
        <time>2021-08-21T14:54:15Z</time>
      </trkpt>
      <trkpt lat="2.788718" lon="-75.072174">
        <ele>1685.3</ele>
        <time>2021-08-21T14:54:16Z</time>
      </trkpt>
      <trkpt lat="2.788708" lon="-75.072174">
        <ele>1685.4</ele>
        <time>2021-08-21T14:54:17Z</time>
      </trkpt>
      <trkpt lat="2.788698" lon="-75.07218">
        <ele>1685.5</ele>
        <time>2021-08-21T14:54:18Z</time>
      </trkpt>
      <trkpt lat="2.788689" lon="-75.07218">
        <ele>1685.6</ele>
        <time>2021-08-21T14:54:19Z</time>
      </trkpt>
      <trkpt lat="2.788679" lon="-75.07219">
        <ele>1685.7</ele>
        <time>2021-08-21T14:54:20Z</time>
      </trkpt>
      <trkpt lat="2.788669" lon="-75.07219">
        <ele>1685.8</ele>
        <time>2021-08-21T14:54:21Z</time>
      </trkpt>
      <trkpt lat="2.78865" lon="-75.072205">
        <ele>1686.3</ele>
        <time>2021-08-21T14:54:22Z</time>
      </trkpt>
      <trkpt lat="2.78866" lon="-75.0722">
        <ele>1686.1</ele>
        <time>2021-08-21T14:54:22Z</time>
      </trkpt>
      <trkpt lat="2.788639" lon="-75.072205">
        <ele>1686.4</ele>
        <time>2021-08-21T14:54:23Z</time>
      </trkpt>
      <trkpt lat="2.788629" lon="-75.072205">
        <ele>1686.6</ele>
        <time>2021-08-21T14:54:24Z</time>
      </trkpt>
      <trkpt lat="2.788618" lon="-75.072205">
        <ele>1686.7</ele>
        <time>2021-08-21T14:54:25Z</time>
      </trkpt>
      <trkpt lat="2.788607" lon="-75.07221">
        <ele>1686.9</ele>
        <time>2021-08-21T14:54:26Z</time>
      </trkpt>
      <trkpt lat="2.788595" lon="-75.07221">
        <ele>1687.0</ele>
        <time>2021-08-21T14:54:27Z</time>
      </trkpt>
      <trkpt lat="2.788584" lon="-75.07221">
        <ele>1687.2</ele>
        <time>2021-08-21T14:54:28Z</time>
      </trkpt>
      <trkpt lat="2.788572" lon="-75.07221">
        <ele>1687.4</ele>
        <time>2021-08-21T14:54:29Z</time>
      </trkpt>
      <trkpt lat="2.788562" lon="-75.07222">
        <ele>1687.5</ele>
        <time>2021-08-21T14:54:30Z</time>
      </trkpt>
      <trkpt lat="2.788552" lon="-75.07222">
        <ele>1687.6</ele>
        <time>2021-08-21T14:54:31Z</time>
      </trkpt>
      <trkpt lat="2.788542" lon="-75.07223">
        <ele>1687.8</ele>
        <time>2021-08-21T14:54:32Z</time>
      </trkpt>
      <trkpt lat="2.788532" lon="-75.07223">
        <ele>1687.9</ele>
        <time>2021-08-21T14:54:33Z</time>
      </trkpt>
      <trkpt lat="2.788523" lon="-75.07223">
        <ele>1688.0</ele>
        <time>2021-08-21T14:54:34Z</time>
      </trkpt>
      <trkpt lat="2.788513" lon="-75.07223">
        <ele>1688.1</ele>
        <time>2021-08-21T14:54:35Z</time>
      </trkpt>
      <trkpt lat="2.788502" lon="-75.07223">
        <ele>1688.2</ele>
        <time>2021-08-21T14:54:36Z</time>
      </trkpt>
      <trkpt lat="2.788492" lon="-75.07223">
        <ele>1688.4</ele>
        <time>2021-08-21T14:54:37Z</time>
      </trkpt>
      <trkpt lat="2.788481" lon="-75.072235">
        <ele>1688.5</ele>
        <time>2021-08-21T14:54:38Z</time>
      </trkpt>
      <trkpt lat="2.788471" lon="-75.072235">
        <ele>1688.6</ele>
        <time>2021-08-21T14:54:39Z</time>
      </trkpt>
      <trkpt lat="2.78846" lon="-75.07224">
        <ele>1688.8</ele>
        <time>2021-08-21T14:54:40Z</time>
      </trkpt>
      <trkpt lat="2.788449" lon="-75.07225">
        <ele>1688.9</ele>
        <time>2021-08-21T14:54:41Z</time>
      </trkpt>
      <trkpt lat="2.788438" lon="-75.07226">
        <ele>1689.1</ele>
        <time>2021-08-21T14:54:42Z</time>
      </trkpt>
      <trkpt lat="2.788428" lon="-75.07226">
        <ele>1689.2</ele>
        <time>2021-08-21T14:54:43Z</time>
      </trkpt>
      <trkpt lat="2.788418" lon="-75.072266">
        <ele>1689.3</ele>
        <time>2021-08-21T14:54:44Z</time>
      </trkpt>
      <trkpt lat="2.788408" lon="-75.072266">
        <ele>1689.4</ele>
        <time>2021-08-21T14:54:45Z</time>
      </trkpt>
      <trkpt lat="2.788398" lon="-75.07226">
        <ele>1689.5</ele>
        <time>2021-08-21T14:54:46Z</time>
      </trkpt>
      <trkpt lat="2.788387" lon="-75.07226">
        <ele>1689.7</ele>
        <time>2021-08-21T14:54:47Z</time>
      </trkpt>
      <trkpt lat="2.788375" lon="-75.07226">
        <ele>1689.8</ele>
        <time>2021-08-21T14:54:48Z</time>
      </trkpt>
      <trkpt lat="2.788364" lon="-75.07226">
        <ele>1690.0</ele>
        <time>2021-08-21T14:54:49Z</time>
      </trkpt>
      <trkpt lat="2.788353" lon="-75.072266">
        <ele>1690.1</ele>
        <time>2021-08-21T14:54:50Z</time>
      </trkpt>
      <trkpt lat="2.788342" lon="-75.072266">
        <ele>1690.2</ele>
        <time>2021-08-21T14:54:51Z</time>
      </trkpt>
      <trkpt lat="2.788331" lon="-75.072266">
        <ele>1690.4</ele>
        <time>2021-08-21T14:54:52Z</time>
      </trkpt>
      <trkpt lat="2.788321" lon="-75.072266">
        <ele>1690.5</ele>
        <time>2021-08-21T14:54:53Z</time>
      </trkpt>
      <trkpt lat="2.78831" lon="-75.07227">
        <ele>1690.7</ele>
        <time>2021-08-21T14:54:54Z</time>
      </trkpt>
      <trkpt lat="2.7883" lon="-75.07227">
        <ele>1690.8</ele>
        <time>2021-08-21T14:54:55Z</time>
      </trkpt>
      <trkpt lat="2.788289" lon="-75.07227">
        <ele>1690.9</ele>
        <time>2021-08-21T14:54:56Z</time>
      </trkpt>
      <trkpt lat="2.78828" lon="-75.07228">
        <ele>1691.1</ele>
        <time>2021-08-21T14:54:57Z</time>
      </trkpt>
      <trkpt lat="2.788271" lon="-75.07229">
        <ele>1691.2</ele>
        <time>2021-08-21T14:54:58Z</time>
      </trkpt>
      <trkpt lat="2.788262" lon="-75.07229">
        <ele>1691.3</ele>
        <time>2021-08-21T14:54:59Z</time>
      </trkpt>
      <trkpt lat="2.788253" lon="-75.072296">
        <ele>1691.5</ele>
        <time>2021-08-21T14:55:00Z</time>
      </trkpt>
      <trkpt lat="2.788246" lon="-75.0723">
        <ele>1691.6</ele>
        <time>2021-08-21T14:55:01Z</time>
      </trkpt>
      <trkpt lat="2.788238" lon="-75.0723">
        <ele>1691.7</ele>
        <time>2021-08-21T14:55:02Z</time>
      </trkpt>
      <trkpt lat="2.788229" lon="-75.07231">
        <ele>1691.8</ele>
        <time>2021-08-21T14:55:03Z</time>
      </trkpt>
      <trkpt lat="2.78822" lon="-75.07232">
        <ele>1692.0</ele>
        <time>2021-08-21T14:55:04Z</time>
      </trkpt>
      <trkpt lat="2.788211" lon="-75.07233">
        <ele>1692.1</ele>
        <time>2021-08-21T14:55:05Z</time>
      </trkpt>
      <trkpt lat="2.788202" lon="-75.07233">
        <ele>1692.3</ele>
        <time>2021-08-21T14:55:06Z</time>
      </trkpt>
      <trkpt lat="2.788194" lon="-75.072334">
        <ele>1692.4</ele>
        <time>2021-08-21T14:55:07Z</time>
      </trkpt>
      <trkpt lat="2.788185" lon="-75.07234">
        <ele>1692.5</ele>
        <time>2021-08-21T14:55:08Z</time>
      </trkpt>
      <trkpt lat="2.788176" lon="-75.07234">
        <ele>1692.6</ele>
        <time>2021-08-21T14:55:09Z</time>
      </trkpt>
      <trkpt lat="2.788167" lon="-75.07235">
        <ele>1692.8</ele>
        <time>2021-08-21T14:55:10Z</time>
      </trkpt>
      <trkpt lat="2.788157" lon="-75.07235">
        <ele>1692.9</ele>
        <time>2021-08-21T14:55:11Z</time>
      </trkpt>
      <trkpt lat="2.788147" lon="-75.07236">
        <ele>1693.0</ele>
        <time>2021-08-21T14:55:12Z</time>
      </trkpt>
      <trkpt lat="2.788139" lon="-75.072365">
        <ele>1693.1</ele>
        <time>2021-08-21T14:55:13Z</time>
      </trkpt>
      <trkpt lat="2.78813" lon="-75.07237">
        <ele>1693.3</ele>
        <time>2021-08-21T14:55:14Z</time>
      </trkpt>
      <trkpt lat="2.788122" lon="-75.07237">
        <ele>1693.4</ele>
        <time>2021-08-21T14:55:15Z</time>
      </trkpt>
      <trkpt lat="2.788113" lon="-75.07238">
        <ele>1693.5</ele>
        <time>2021-08-21T14:55:16Z</time>
      </trkpt>
      <trkpt lat="2.788103" lon="-75.07239">
        <ele>1693.6</ele>
        <time>2021-08-21T14:55:17Z</time>
      </trkpt>
      <trkpt lat="2.788094" lon="-75.07239">
        <ele>1693.7</ele>
        <time>2021-08-21T14:55:18Z</time>
      </trkpt>
      <trkpt lat="2.788084" lon="-75.072395">
        <ele>1693.8</ele>
        <time>2021-08-21T14:55:19Z</time>
      </trkpt>
      <trkpt lat="2.788073" lon="-75.0724">
        <ele>1693.9</ele>
        <time>2021-08-21T14:55:20Z</time>
      </trkpt>
      <trkpt lat="2.788063" lon="-75.0724">
        <ele>1694.0</ele>
        <time>2021-08-21T14:55:21Z</time>
      </trkpt>
      <trkpt lat="2.788052" lon="-75.07241">
        <ele>1694.2</ele>
        <time>2021-08-21T14:55:22Z</time>
      </trkpt>
      <trkpt lat="2.788042" lon="-75.07241">
        <ele>1694.3</ele>
        <time>2021-08-21T14:55:23Z</time>
      </trkpt>
      <trkpt lat="2.788032" lon="-75.07242">
        <ele>1694.4</ele>
        <time>2021-08-21T14:55:24Z</time>
      </trkpt>
      <trkpt lat="2.788021" lon="-75.07242">
        <ele>1694.5</ele>
        <time>2021-08-21T14:55:25Z</time>
      </trkpt>
      <trkpt lat="2.788011" lon="-75.07242">
        <ele>1694.6</ele>
        <time>2021-08-21T14:55:26Z</time>
      </trkpt>
      <trkpt lat="2.788" lon="-75.07242">
        <ele>1694.7</ele>
        <time>2021-08-21T14:55:27Z</time>
      </trkpt>
      <trkpt lat="2.787989" lon="-75.072426">
        <ele>1694.8</ele>
        <time>2021-08-21T14:55:28Z</time>
      </trkpt>
      <trkpt lat="2.787978" lon="-75.072426">
        <ele>1694.9</ele>
        <time>2021-08-21T14:55:29Z</time>
      </trkpt>
      <trkpt lat="2.787966" lon="-75.07243">
        <ele>1695.0</ele>
        <time>2021-08-21T14:55:30Z</time>
      </trkpt>
      <trkpt lat="2.787956" lon="-75.07243">
        <ele>1695.1</ele>
        <time>2021-08-21T14:55:31Z</time>
      </trkpt>
      <trkpt lat="2.787945" lon="-75.07244">
        <ele>1695.2</ele>
        <time>2021-08-21T14:55:32Z</time>
      </trkpt>
      <trkpt lat="2.787935" lon="-75.07244">
        <ele>1695.3</ele>
        <time>2021-08-21T14:55:33Z</time>
      </trkpt>
      <trkpt lat="2.787926" lon="-75.07245">
        <ele>1695.4</ele>
        <time>2021-08-21T14:55:34Z</time>
      </trkpt>
      <trkpt lat="2.787917" lon="-75.07245">
        <ele>1695.5</ele>
        <time>2021-08-21T14:55:35Z</time>
      </trkpt>
      <trkpt lat="2.787907" lon="-75.07246">
        <ele>1695.6</ele>
        <time>2021-08-21T14:55:36Z</time>
      </trkpt>
      <trkpt lat="2.787898" lon="-75.07246">
        <ele>1695.7</ele>
        <time>2021-08-21T14:55:37Z</time>
      </trkpt>
      <trkpt lat="2.787889" lon="-75.072464">
        <ele>1695.8</ele>
        <time>2021-08-21T14:55:38Z</time>
      </trkpt>
      <trkpt lat="2.78788" lon="-75.07247">
        <ele>1695.9</ele>
        <time>2021-08-21T14:55:39Z</time>
      </trkpt>
      <trkpt lat="2.787871" lon="-75.07248">
        <ele>1696.0</ele>
        <time>2021-08-21T14:55:40Z</time>
      </trkpt>
      <trkpt lat="2.787864" lon="-75.07249">
        <ele>1696.2</ele>
        <time>2021-08-21T14:55:41Z</time>
      </trkpt>
      <trkpt lat="2.787857" lon="-75.0725">
        <ele>1696.3</ele>
        <time>2021-08-21T14:55:42Z</time>
      </trkpt>
      <trkpt lat="2.787849" lon="-75.07251">
        <ele>1696.4</ele>
        <time>2021-08-21T14:55:43Z</time>
      </trkpt>
      <trkpt lat="2.78784" lon="-75.072525">
        <ele>1696.6</ele>
        <time>2021-08-21T14:55:44Z</time>
      </trkpt>
      <trkpt lat="2.787832" lon="-75.07254">
        <ele>1696.8</ele>
        <time>2021-08-21T14:55:45Z</time>
      </trkpt>
      <trkpt lat="2.787824" lon="-75.07255">
        <ele>1696.9</ele>
        <time>2021-08-21T14:55:46Z</time>
      </trkpt>
      <trkpt lat="2.787816" lon="-75.072556">
        <ele>1697.0</ele>
        <time>2021-08-21T14:55:47Z</time>
      </trkpt>
      <trkpt lat="2.787807" lon="-75.07256">
        <ele>1697.1</ele>
        <time>2021-08-21T14:55:48Z</time>
      </trkpt>
      <trkpt lat="2.787797" lon="-75.07257">
        <ele>1697.2</ele>
        <time>2021-08-21T14:55:49Z</time>
      </trkpt>
      <trkpt lat="2.787789" lon="-75.07258">
        <ele>1697.4</ele>
        <time>2021-08-21T14:55:50Z</time>
      </trkpt>
      <trkpt lat="2.787779" lon="-75.072586">
        <ele>1697.5</ele>
        <time>2021-08-21T14:55:51Z</time>
      </trkpt>
      <trkpt lat="2.78777" lon="-75.07259">
        <ele>1697.6</ele>
        <time>2021-08-21T14:55:52Z</time>
      </trkpt>
      <trkpt lat="2.78776" lon="-75.0726">
        <ele>1697.7</ele>
        <time>2021-08-21T14:55:53Z</time>
      </trkpt>
      <trkpt lat="2.787725" lon="-75.072624">
        <ele>1698.1</ele>
        <time>2021-08-21T14:55:55Z</time>
      </trkpt>
      <trkpt lat="2.787722" lon="-75.072624">
        <ele>1698.2</ele>
        <time>2021-08-21T14:55:56Z</time>
      </trkpt>
      <trkpt lat="2.787715" lon="-75.072624">
        <ele>1698.2</ele>
        <time>2021-08-21T14:55:57Z</time>
      </trkpt>
      <trkpt lat="2.787705" lon="-75.07262">
        <ele>1698.4</ele>
        <time>2021-08-21T14:55:58Z</time>
      </trkpt>
      <trkpt lat="2.787692" lon="-75.07262">
        <ele>1698.5</ele>
        <time>2021-08-21T14:55:59Z</time>
      </trkpt>
      <trkpt lat="2.78768" lon="-75.07262">
        <ele>1698.6</ele>
        <time>2021-08-21T14:56:00Z</time>
      </trkpt>
      <trkpt lat="2.787669" lon="-75.07262">
        <ele>1698.7</ele>
        <time>2021-08-21T14:56:01Z</time>
      </trkpt>
      <trkpt lat="2.787657" lon="-75.072624">
        <ele>1698.9</ele>
        <time>2021-08-21T14:56:02Z</time>
      </trkpt>
      <trkpt lat="2.787647" lon="-75.072624">
        <ele>1699.0</ele>
        <time>2021-08-21T14:56:03Z</time>
      </trkpt>
      <trkpt lat="2.787638" lon="-75.07263">
        <ele>1699.1</ele>
        <time>2021-08-21T14:56:04Z</time>
      </trkpt>
      <trkpt lat="2.78763" lon="-75.07264">
        <ele>1699.3</ele>
        <time>2021-08-21T14:56:05Z</time>
      </trkpt>
      <trkpt lat="2.78762" lon="-75.07265">
        <ele>1699.4</ele>
        <time>2021-08-21T14:56:06Z</time>
      </trkpt>
      <trkpt lat="2.78761" lon="-75.072655">
        <ele>1699.5</ele>
        <time>2021-08-21T14:56:07Z</time>
      </trkpt>
      <trkpt lat="2.787601" lon="-75.072655">
        <ele>1699.6</ele>
        <time>2021-08-21T14:56:08Z</time>
      </trkpt>
      <trkpt lat="2.787592" lon="-75.07266">
        <ele>1699.7</ele>
        <time>2021-08-21T14:56:09Z</time>
      </trkpt>
      <trkpt lat="2.787583" lon="-75.07266">
        <ele>1699.9</ele>
        <time>2021-08-21T14:56:10Z</time>
      </trkpt>
      <trkpt lat="2.787574" lon="-75.07267">
        <ele>1700.0</ele>
        <time>2021-08-21T14:56:11Z</time>
      </trkpt>
      <trkpt lat="2.787565" lon="-75.07268">
        <ele>1700.1</ele>
        <time>2021-08-21T14:56:12Z</time>
      </trkpt>
      <trkpt lat="2.787556" lon="-75.072685">
        <ele>1700.2</ele>
        <time>2021-08-21T14:56:13Z</time>
      </trkpt>
      <trkpt lat="2.787547" lon="-75.072685">
        <ele>1700.4</ele>
        <time>2021-08-21T14:56:14Z</time>
      </trkpt>
      <trkpt lat="2.787536" lon="-75.072685">
        <ele>1700.5</ele>
        <time>2021-08-21T14:56:15Z</time>
      </trkpt>
      <trkpt lat="2.787524" lon="-75.072685">
        <ele>1700.6</ele>
        <time>2021-08-21T14:56:16Z</time>
      </trkpt>
      <trkpt lat="2.787513" lon="-75.07269">
        <ele>1700.7</ele>
        <time>2021-08-21T14:56:17Z</time>
      </trkpt>
      <trkpt lat="2.787503" lon="-75.07269">
        <ele>1700.9</ele>
        <time>2021-08-21T14:56:18Z</time>
      </trkpt>
      <trkpt lat="2.787494" lon="-75.0727">
        <ele>1701.0</ele>
        <time>2021-08-21T14:56:19Z</time>
      </trkpt>
      <trkpt lat="2.787485" lon="-75.0727">
        <ele>1701.1</ele>
        <time>2021-08-21T14:56:20Z</time>
      </trkpt>
      <trkpt lat="2.787475" lon="-75.07271">
        <ele>1701.2</ele>
        <time>2021-08-21T14:56:21Z</time>
      </trkpt>
      <trkpt lat="2.787464" lon="-75.07271">
        <ele>1701.4</ele>
        <time>2021-08-21T14:56:22Z</time>
      </trkpt>
      <trkpt lat="2.787454" lon="-75.07271">
        <ele>1701.5</ele>
        <time>2021-08-21T14:56:23Z</time>
      </trkpt>
      <trkpt lat="2.787444" lon="-75.072716">
        <ele>1701.6</ele>
        <time>2021-08-21T14:56:24Z</time>
      </trkpt>
      <trkpt lat="2.787435" lon="-75.072716">
        <ele>1701.7</ele>
        <time>2021-08-21T14:56:25Z</time>
      </trkpt>
      <trkpt lat="2.787425" lon="-75.072716">
        <ele>1701.9</ele>
        <time>2021-08-21T14:56:26Z</time>
      </trkpt>
      <trkpt lat="2.787415" lon="-75.072716">
        <ele>1702.0</ele>
        <time>2021-08-21T14:56:27Z</time>
      </trkpt>
      <trkpt lat="2.787406" lon="-75.07272">
        <ele>1702.1</ele>
        <time>2021-08-21T14:56:28Z</time>
      </trkpt>
      <trkpt lat="2.787397" lon="-75.07272">
        <ele>1702.3</ele>
        <time>2021-08-21T14:56:29Z</time>
      </trkpt>
      <trkpt lat="2.787387" lon="-75.07272">
        <ele>1702.4</ele>
        <time>2021-08-21T14:56:30Z</time>
      </trkpt>
      <trkpt lat="2.787376" lon="-75.07273">
        <ele>1702.6</ele>
        <time>2021-08-21T14:56:31Z</time>
      </trkpt>
      <trkpt lat="2.787364" lon="-75.07273">
        <ele>1702.8</ele>
        <time>2021-08-21T14:56:32Z</time>
      </trkpt>
      <trkpt lat="2.787351" lon="-75.07274">
        <ele>1702.9</ele>
        <time>2021-08-21T14:56:33Z</time>
      </trkpt>
      <trkpt lat="2.787338" lon="-75.07274">
        <ele>1703.1</ele>
        <time>2021-08-21T14:56:34Z</time>
      </trkpt>
      <trkpt lat="2.787327" lon="-75.07275">
        <ele>1703.3</ele>
        <time>2021-08-21T14:56:35Z</time>
      </trkpt>
      <trkpt lat="2.787316" lon="-75.072754">
        <ele>1703.5</ele>
        <time>2021-08-21T14:56:36Z</time>
      </trkpt>
      <trkpt lat="2.787306" lon="-75.072754">
        <ele>1703.6</ele>
        <time>2021-08-21T14:56:37Z</time>
      </trkpt>
      <trkpt lat="2.787297" lon="-75.07276">
        <ele>1703.8</ele>
        <time>2021-08-21T14:56:38Z</time>
      </trkpt>
      <trkpt lat="2.787286" lon="-75.07276">
        <ele>1703.9</ele>
        <time>2021-08-21T14:56:39Z</time>
      </trkpt>
      <trkpt lat="2.787275" lon="-75.07277">
        <ele>1704.1</ele>
        <time>2021-08-21T14:56:40Z</time>
      </trkpt>
      <trkpt lat="2.787264" lon="-75.07277">
        <ele>1704.2</ele>
        <time>2021-08-21T14:56:41Z</time>
      </trkpt>
      <trkpt lat="2.787253" lon="-75.07278">
        <ele>1704.4</ele>
        <time>2021-08-21T14:56:42Z</time>
      </trkpt>
      <trkpt lat="2.787241" lon="-75.072784">
        <ele>1704.5</ele>
        <time>2021-08-21T14:56:43Z</time>
      </trkpt>
      <trkpt lat="2.787229" lon="-75.072784">
        <ele>1704.7</ele>
        <time>2021-08-21T14:56:44Z</time>
      </trkpt>
      <trkpt lat="2.787218" lon="-75.07279">
        <ele>1704.9</ele>
        <time>2021-08-21T14:56:45Z</time>
      </trkpt>
      <trkpt lat="2.787205" lon="-75.0728">
        <ele>1705.1</ele>
        <time>2021-08-21T14:56:46Z</time>
      </trkpt>
      <trkpt lat="2.787191" lon="-75.0728">
        <ele>1705.3</ele>
        <time>2021-08-21T14:56:47Z</time>
      </trkpt>
      <trkpt lat="2.787178" lon="-75.0728">
        <ele>1705.4</ele>
        <time>2021-08-21T14:56:48Z</time>
      </trkpt>
      <trkpt lat="2.787165" lon="-75.0728">
        <ele>1705.6</ele>
        <time>2021-08-21T14:56:49Z</time>
      </trkpt>
      <trkpt lat="2.787152" lon="-75.07281">
        <ele>1705.8</ele>
        <time>2021-08-21T14:56:50Z</time>
      </trkpt>
      <trkpt lat="2.787141" lon="-75.07281">
        <ele>1706.0</ele>
        <time>2021-08-21T14:56:51Z</time>
      </trkpt>
      <trkpt lat="2.787131" lon="-75.07281">
        <ele>1706.2</ele>
        <time>2021-08-21T14:56:52Z</time>
      </trkpt>
      <trkpt lat="2.78712" lon="-75.07281">
        <ele>1706.3</ele>
        <time>2021-08-21T14:56:53Z</time>
      </trkpt>
      <trkpt lat="2.787109" lon="-75.072815">
        <ele>1706.5</ele>
        <time>2021-08-21T14:56:54Z</time>
      </trkpt>
      <trkpt lat="2.7871" lon="-75.07282">
        <ele>1706.7</ele>
        <time>2021-08-21T14:56:55Z</time>
      </trkpt>
      <trkpt lat="2.787091" lon="-75.07283">
        <ele>1706.9</ele>
        <time>2021-08-21T14:56:56Z</time>
      </trkpt>
      <trkpt lat="2.787084" lon="-75.07284">
        <ele>1707.0</ele>
        <time>2021-08-21T14:56:57Z</time>
      </trkpt>
      <trkpt lat="2.787077" lon="-75.072845">
        <ele>1707.2</ele>
        <time>2021-08-21T14:56:58Z</time>
      </trkpt>
      <trkpt lat="2.787068" lon="-75.072845">
        <ele>1707.3</ele>
        <time>2021-08-21T14:56:59Z</time>
      </trkpt>
      <trkpt lat="2.787058" lon="-75.07285">
        <ele>1707.5</ele>
        <time>2021-08-21T14:57:00Z</time>
      </trkpt>
      <trkpt lat="2.787047" lon="-75.07286">
        <ele>1707.6</ele>
        <time>2021-08-21T14:57:01Z</time>
      </trkpt>
      <trkpt lat="2.787034" lon="-75.07287">
        <ele>1707.8</ele>
        <time>2021-08-21T14:57:02Z</time>
      </trkpt>
      <trkpt lat="2.787023" lon="-75.07287">
        <ele>1708.0</ele>
        <time>2021-08-21T14:57:03Z</time>
      </trkpt>
      <trkpt lat="2.787011" lon="-75.072876">
        <ele>1708.1</ele>
        <time>2021-08-21T14:57:04Z</time>
      </trkpt>
      <trkpt lat="2.786999" lon="-75.07288">
        <ele>1708.3</ele>
        <time>2021-08-21T14:57:05Z</time>
      </trkpt>
      <trkpt lat="2.786987" lon="-75.07289">
        <ele>1708.4</ele>
        <time>2021-08-21T14:57:06Z</time>
      </trkpt>
      <trkpt lat="2.786975" lon="-75.0729">
        <ele>1708.5</ele>
        <time>2021-08-21T14:57:07Z</time>
      </trkpt>
      <trkpt lat="2.786963" lon="-75.07291">
        <ele>1708.6</ele>
        <time>2021-08-21T14:57:08Z</time>
      </trkpt>
      <trkpt lat="2.78695" lon="-75.072914">
        <ele>1708.7</ele>
        <time>2021-08-21T14:57:09Z</time>
      </trkpt>
      <trkpt lat="2.786936" lon="-75.07292">
        <ele>1708.8</ele>
        <time>2021-08-21T14:57:10Z</time>
      </trkpt>
      <trkpt lat="2.786923" lon="-75.07292">
        <ele>1708.9</ele>
        <time>2021-08-21T14:57:11Z</time>
      </trkpt>
      <trkpt lat="2.78691" lon="-75.07293">
        <ele>1709.0</ele>
        <time>2021-08-21T14:57:12Z</time>
      </trkpt>
      <trkpt lat="2.786898" lon="-75.07294">
        <ele>1709.1</ele>
        <time>2021-08-21T14:57:13Z</time>
      </trkpt>
      <trkpt lat="2.786887" lon="-75.07294">
        <ele>1709.2</ele>
        <time>2021-08-21T14:57:14Z</time>
      </trkpt>
      <trkpt lat="2.786877" lon="-75.072945">
        <ele>1709.3</ele>
        <time>2021-08-21T14:57:15Z</time>
      </trkpt>
      <trkpt lat="2.786868" lon="-75.07295">
        <ele>1709.4</ele>
        <time>2021-08-21T14:57:16Z</time>
      </trkpt>
      <trkpt lat="2.786861" lon="-75.07297">
        <ele>1709.5</ele>
        <time>2021-08-21T14:57:17Z</time>
      </trkpt>
      <trkpt lat="2.786855" lon="-75.072975">
        <ele>1709.6</ele>
        <time>2021-08-21T14:57:18Z</time>
      </trkpt>
      <trkpt lat="2.786849" lon="-75.07298">
        <ele>1709.7</ele>
        <time>2021-08-21T14:57:19Z</time>
      </trkpt>
      <trkpt lat="2.786844" lon="-75.073">
        <ele>1709.8</ele>
        <time>2021-08-21T14:57:20Z</time>
      </trkpt>
      <trkpt lat="2.786839" lon="-75.073006">
        <ele>1709.9</ele>
        <time>2021-08-21T14:57:21Z</time>
      </trkpt>
      <trkpt lat="2.786833" lon="-75.07302">
        <ele>1710.0</ele>
        <time>2021-08-21T14:57:22Z</time>
      </trkpt>
      <trkpt lat="2.786825" lon="-75.07303">
        <ele>1710.1</ele>
        <time>2021-08-21T14:57:23Z</time>
      </trkpt>
      <trkpt lat="2.786818" lon="-75.073044">
        <ele>1710.3</ele>
        <time>2021-08-21T14:57:24Z</time>
      </trkpt>
      <trkpt lat="2.78681" lon="-75.07305">
        <ele>1710.4</ele>
        <time>2021-08-21T14:57:25Z</time>
      </trkpt>
      <trkpt lat="2.786804" lon="-75.07306">
        <ele>1710.5</ele>
        <time>2021-08-21T14:57:26Z</time>
      </trkpt>
      <trkpt lat="2.786798" lon="-75.073074">
        <ele>1710.6</ele>
        <time>2021-08-21T14:57:27Z</time>
      </trkpt>
      <trkpt lat="2.786793" lon="-75.07308">
        <ele>1710.7</ele>
        <time>2021-08-21T14:57:28Z</time>
      </trkpt>
      <trkpt lat="2.786787" lon="-75.07309">
        <ele>1710.8</ele>
        <time>2021-08-21T14:57:29Z</time>
      </trkpt>
      <trkpt lat="2.786781" lon="-75.073105">
        <ele>1711.0</ele>
        <time>2021-08-21T14:57:30Z</time>
      </trkpt>
      <trkpt lat="2.786776" lon="-75.07312">
        <ele>1711.1</ele>
        <time>2021-08-21T14:57:31Z</time>
      </trkpt>
      <trkpt lat="2.786771" lon="-75.07313">
        <ele>1711.2</ele>
        <time>2021-08-21T14:57:32Z</time>
      </trkpt>
      <trkpt lat="2.786766" lon="-75.07314">
        <ele>1711.3</ele>
        <time>2021-08-21T14:57:33Z</time>
      </trkpt>
      <trkpt lat="2.786759" lon="-75.07315">
        <ele>1711.4</ele>
        <time>2021-08-21T14:57:34Z</time>
      </trkpt>
      <trkpt lat="2.786753" lon="-75.07316">
        <ele>1711.5</ele>
        <time>2021-08-21T14:57:35Z</time>
      </trkpt>
      <trkpt lat="2.786747" lon="-75.07317">
        <ele>1711.6</ele>
        <time>2021-08-21T14:57:36Z</time>
      </trkpt>
      <trkpt lat="2.786741" lon="-75.07318">
        <ele>1711.8</ele>
        <time>2021-08-21T14:57:37Z</time>
      </trkpt>
      <trkpt lat="2.786734" lon="-75.0732">
        <ele>1711.9</ele>
        <time>2021-08-21T14:57:38Z</time>
      </trkpt>
      <trkpt lat="2.786729" lon="-75.073204">
        <ele>1712.0</ele>
        <time>2021-08-21T14:57:39Z</time>
      </trkpt>
      <trkpt lat="2.786723" lon="-75.07322">
        <ele>1712.1</ele>
        <time>2021-08-21T14:57:40Z</time>
      </trkpt>
      <trkpt lat="2.786718" lon="-75.07323">
        <ele>1712.2</ele>
        <time>2021-08-21T14:57:41Z</time>
      </trkpt>
      <trkpt lat="2.786712" lon="-75.07324">
        <ele>1712.3</ele>
        <time>2021-08-21T14:57:42Z</time>
      </trkpt>
      <trkpt lat="2.786706" lon="-75.07325">
        <ele>1712.4</ele>
        <time>2021-08-21T14:57:43Z</time>
      </trkpt>
      <trkpt lat="2.786698" lon="-75.07326">
        <ele>1712.5</ele>
        <time>2021-08-21T14:57:44Z</time>
      </trkpt>
      <trkpt lat="2.78669" lon="-75.07327">
        <ele>1712.6</ele>
        <time>2021-08-21T14:57:45Z</time>
      </trkpt>
      <trkpt lat="2.786681" lon="-75.07328">
        <ele>1712.7</ele>
        <time>2021-08-21T14:57:46Z</time>
      </trkpt>
      <trkpt lat="2.786671" lon="-75.07329">
        <ele>1712.8</ele>
        <time>2021-08-21T14:57:47Z</time>
      </trkpt>
      <trkpt lat="2.786662" lon="-75.073296">
        <ele>1712.9</ele>
        <time>2021-08-21T14:57:48Z</time>
      </trkpt>
      <trkpt lat="2.786653" lon="-75.07331">
        <ele>1713.0</ele>
        <time>2021-08-21T14:57:49Z</time>
      </trkpt>
      <trkpt lat="2.786643" lon="-75.07332">
        <ele>1713.1</ele>
        <time>2021-08-21T14:57:50Z</time>
      </trkpt>
      <trkpt lat="2.786633" lon="-75.07333">
        <ele>1713.2</ele>
        <time>2021-08-21T14:57:51Z</time>
      </trkpt>
      <trkpt lat="2.786623" lon="-75.07334">
        <ele>1713.3</ele>
        <time>2021-08-21T14:57:52Z</time>
      </trkpt>
      <trkpt lat="2.786613" lon="-75.07335">
        <ele>1713.4</ele>
        <time>2021-08-21T14:57:53Z</time>
      </trkpt>
      <trkpt lat="2.786601" lon="-75.07336">
        <ele>1713.5</ele>
        <time>2021-08-21T14:57:54Z</time>
      </trkpt>
      <trkpt lat="2.78659" lon="-75.073364">
        <ele>1713.6</ele>
        <time>2021-08-21T14:57:55Z</time>
      </trkpt>
      <trkpt lat="2.786577" lon="-75.073364">
        <ele>1713.8</ele>
        <time>2021-08-21T14:57:56Z</time>
      </trkpt>
      <trkpt lat="2.786564" lon="-75.07337">
        <ele>1713.9</ele>
        <time>2021-08-21T14:57:57Z</time>
      </trkpt>
      <trkpt lat="2.786552" lon="-75.07338">
        <ele>1714.0</ele>
        <time>2021-08-21T14:57:58Z</time>
      </trkpt>
      <trkpt lat="2.786539" lon="-75.07338">
        <ele>1714.1</ele>
        <time>2021-08-21T14:57:59Z</time>
      </trkpt>
      <trkpt lat="2.786527" lon="-75.07339">
        <ele>1714.2</ele>
        <time>2021-08-21T14:58:00Z</time>
      </trkpt>
      <trkpt lat="2.786515" lon="-75.073395">
        <ele>1714.3</ele>
        <time>2021-08-21T14:58:01Z</time>
      </trkpt>
      <trkpt lat="2.786492" lon="-75.07341">
        <ele>1714.5</ele>
        <time>2021-08-21T14:58:02Z</time>
      </trkpt>
      <trkpt lat="2.78648" lon="-75.07342">
        <ele>1714.6</ele>
        <time>2021-08-21T14:58:03Z</time>
      </trkpt>
      <trkpt lat="2.786468" lon="-75.07342">
        <ele>1714.7</ele>
        <time>2021-08-21T14:58:04Z</time>
      </trkpt>
      <trkpt lat="2.786457" lon="-75.073425">
        <ele>1714.8</ele>
        <time>2021-08-21T14:58:05Z</time>
      </trkpt>
      <trkpt lat="2.786445" lon="-75.07343">
        <ele>1714.9</ele>
        <time>2021-08-21T14:58:06Z</time>
      </trkpt>
      <trkpt lat="2.786433" lon="-75.07343">
        <ele>1715.0</ele>
        <time>2021-08-21T14:58:07Z</time>
      </trkpt>
      <trkpt lat="2.786421" lon="-75.07344">
        <ele>1715.1</ele>
        <time>2021-08-21T14:58:08Z</time>
      </trkpt>
      <trkpt lat="2.786409" lon="-75.07345">
        <ele>1715.2</ele>
        <time>2021-08-21T14:58:09Z</time>
      </trkpt>
      <trkpt lat="2.786397" lon="-75.073456">
        <ele>1715.3</ele>
        <time>2021-08-21T14:58:10Z</time>
      </trkpt>
      <trkpt lat="2.786385" lon="-75.073456">
        <ele>1715.4</ele>
        <time>2021-08-21T14:58:11Z</time>
      </trkpt>
      <trkpt lat="2.786373" lon="-75.07346">
        <ele>1715.5</ele>
        <time>2021-08-21T14:58:12Z</time>
      </trkpt>
      <trkpt lat="2.786362" lon="-75.07347">
        <ele>1715.7</ele>
        <time>2021-08-21T14:58:13Z</time>
      </trkpt>
      <trkpt lat="2.78635" lon="-75.07347">
        <ele>1715.8</ele>
        <time>2021-08-21T14:58:14Z</time>
      </trkpt>
      <trkpt lat="2.786338" lon="-75.07348">
        <ele>1715.9</ele>
        <time>2021-08-21T14:58:15Z</time>
      </trkpt>
      <trkpt lat="2.786326" lon="-75.07349">
        <ele>1716.0</ele>
        <time>2021-08-21T14:58:16Z</time>
      </trkpt>
      <trkpt lat="2.786314" lon="-75.07349">
        <ele>1716.1</ele>
        <time>2021-08-21T14:58:17Z</time>
      </trkpt>
      <trkpt lat="2.786302" lon="-75.073494">
        <ele>1716.2</ele>
        <time>2021-08-21T14:58:18Z</time>
      </trkpt>
      <trkpt lat="2.78629" lon="-75.0735">
        <ele>1716.4</ele>
        <time>2021-08-21T14:58:19Z</time>
      </trkpt>
      <trkpt lat="2.786279" lon="-75.07351">
        <ele>1716.5</ele>
        <time>2021-08-21T14:58:20Z</time>
      </trkpt>
      <trkpt lat="2.786267" lon="-75.07351">
        <ele>1716.6</ele>
        <time>2021-08-21T14:58:21Z</time>
      </trkpt>
      <trkpt lat="2.786255" lon="-75.07352">
        <ele>1716.7</ele>
        <time>2021-08-21T14:58:22Z</time>
      </trkpt>
      <trkpt lat="2.786243" lon="-75.073524">
        <ele>1716.9</ele>
        <time>2021-08-21T14:58:23Z</time>
      </trkpt>
      <trkpt lat="2.786231" lon="-75.073524">
        <ele>1717.0</ele>
        <time>2021-08-21T14:58:24Z</time>
      </trkpt>
      <trkpt lat="2.786219" lon="-75.07353">
        <ele>1717.2</ele>
        <time>2021-08-21T14:58:25Z</time>
      </trkpt>
      <trkpt lat="2.786207" lon="-75.07354">
        <ele>1717.3</ele>
        <time>2021-08-21T14:58:26Z</time>
      </trkpt>
      <trkpt lat="2.786196" lon="-75.07355">
        <ele>1717.4</ele>
        <time>2021-08-21T14:58:27Z</time>
      </trkpt>
      <trkpt lat="2.786184" lon="-75.07355">
        <ele>1717.6</ele>
        <time>2021-08-21T14:58:28Z</time>
      </trkpt>
      <trkpt lat="2.786172" lon="-75.073555">
        <ele>1717.7</ele>
        <time>2021-08-21T14:58:29Z</time>
      </trkpt>
      <trkpt lat="2.78616" lon="-75.07356">
        <ele>1717.9</ele>
        <time>2021-08-21T14:58:30Z</time>
      </trkpt>
      <trkpt lat="2.786148" lon="-75.07356">
        <ele>1718.0</ele>
        <time>2021-08-21T14:58:31Z</time>
      </trkpt>
      <trkpt lat="2.786136" lon="-75.07357">
        <ele>1718.2</ele>
        <time>2021-08-21T14:58:32Z</time>
      </trkpt>
      <trkpt lat="2.786124" lon="-75.07358">
        <ele>1718.3</ele>
        <time>2021-08-21T14:58:33Z</time>
      </trkpt>
      <trkpt lat="2.786112" lon="-75.073586">
        <ele>1718.5</ele>
        <time>2021-08-21T14:58:34Z</time>
      </trkpt>
      <trkpt lat="2.786101" lon="-75.073586">
        <ele>1718.6</ele>
        <time>2021-08-21T14:58:35Z</time>
      </trkpt>
      <trkpt lat="2.786089" lon="-75.07359">
        <ele>1718.8</ele>
        <time>2021-08-21T14:58:36Z</time>
      </trkpt>
      <trkpt lat="2.786065" lon="-75.0736">
        <ele>1719.1</ele>
        <time>2021-08-21T14:58:37Z</time>
      </trkpt>
      <trkpt lat="2.786077" lon="-75.0736">
        <ele>1718.9</ele>
        <time>2021-08-21T14:58:37Z</time>
      </trkpt>
      <trkpt lat="2.786053" lon="-75.07361">
        <ele>1719.3</ele>
        <time>2021-08-21T14:58:38Z</time>
      </trkpt>
      <trkpt lat="2.786041" lon="-75.073616">
        <ele>1719.4</ele>
        <time>2021-08-21T14:58:39Z</time>
      </trkpt>
      <trkpt lat="2.786028" lon="-75.07362">
        <ele>1719.6</ele>
        <time>2021-08-21T14:58:40Z</time>
      </trkpt>
      <trkpt lat="2.786015" lon="-75.07362">
        <ele>1719.8</ele>
        <time>2021-08-21T14:58:41Z</time>
      </trkpt>
      <trkpt lat="2.786002" lon="-75.07362">
        <ele>1719.9</ele>
        <time>2021-08-21T14:58:42Z</time>
      </trkpt>
      <trkpt lat="2.785989" lon="-75.07362">
        <ele>1720.1</ele>
        <time>2021-08-21T14:58:43Z</time>
      </trkpt>
      <trkpt lat="2.785976" lon="-75.07363">
        <ele>1720.2</ele>
        <time>2021-08-21T14:58:44Z</time>
      </trkpt>
      <trkpt lat="2.785963" lon="-75.07363">
        <ele>1720.4</ele>
        <time>2021-08-21T14:58:45Z</time>
      </trkpt>
      <trkpt lat="2.785952" lon="-75.07364">
        <ele>1720.6</ele>
        <time>2021-08-21T14:58:46Z</time>
      </trkpt>
      <trkpt lat="2.78594" lon="-75.07364">
        <ele>1720.7</ele>
        <time>2021-08-21T14:58:47Z</time>
      </trkpt>
      <trkpt lat="2.785927" lon="-75.07365">
        <ele>1720.9</ele>
        <time>2021-08-21T14:58:48Z</time>
      </trkpt>
      <trkpt lat="2.785915" lon="-75.07365">
        <ele>1721.0</ele>
        <time>2021-08-21T14:58:49Z</time>
      </trkpt>
      <trkpt lat="2.785903" lon="-75.07365">
        <ele>1721.2</ele>
        <time>2021-08-21T14:58:50Z</time>
      </trkpt>
      <trkpt lat="2.785891" lon="-75.07365">
        <ele>1721.3</ele>
        <time>2021-08-21T14:58:51Z</time>
      </trkpt>
      <trkpt lat="2.78588" lon="-75.07365">
        <ele>1721.5</ele>
        <time>2021-08-21T14:58:52Z</time>
      </trkpt>
      <trkpt lat="2.785868" lon="-75.07365">
        <ele>1721.6</ele>
        <time>2021-08-21T14:58:53Z</time>
      </trkpt>
      <trkpt lat="2.785856" lon="-75.07365">
        <ele>1721.8</ele>
        <time>2021-08-21T14:58:54Z</time>
      </trkpt>
      <trkpt lat="2.785845" lon="-75.07365">
        <ele>1721.9</ele>
        <time>2021-08-21T14:58:55Z</time>
      </trkpt>
      <trkpt lat="2.785833" lon="-75.07365">
        <ele>1722.1</ele>
        <time>2021-08-21T14:58:56Z</time>
      </trkpt>
      <trkpt lat="2.785821" lon="-75.07364">
        <ele>1722.2</ele>
        <time>2021-08-21T14:58:57Z</time>
      </trkpt>
      <trkpt lat="2.785809" lon="-75.07364">
        <ele>1722.4</ele>
        <time>2021-08-21T14:58:58Z</time>
      </trkpt>
      <trkpt lat="2.785796" lon="-75.07364">
        <ele>1722.6</ele>
        <time>2021-08-21T14:58:59Z</time>
      </trkpt>
      <trkpt lat="2.785784" lon="-75.07364">
        <ele>1722.7</ele>
        <time>2021-08-21T14:59:00Z</time>
      </trkpt>
      <trkpt lat="2.785771" lon="-75.07364">
        <ele>1722.9</ele>
        <time>2021-08-21T14:59:01Z</time>
      </trkpt>
      <trkpt lat="2.785757" lon="-75.07363">
        <ele>1723.1</ele>
        <time>2021-08-21T14:59:02Z</time>
      </trkpt>
      <trkpt lat="2.785743" lon="-75.07363">
        <ele>1723.3</ele>
        <time>2021-08-21T14:59:03Z</time>
      </trkpt>
      <trkpt lat="2.78573" lon="-75.07363">
        <ele>1723.5</ele>
        <time>2021-08-21T14:59:04Z</time>
      </trkpt>
      <trkpt lat="2.785716" lon="-75.07364">
        <ele>1723.7</ele>
        <time>2021-08-21T14:59:05Z</time>
      </trkpt>
      <trkpt lat="2.785702" lon="-75.07364">
        <ele>1723.9</ele>
        <time>2021-08-21T14:59:06Z</time>
      </trkpt>
      <trkpt lat="2.785688" lon="-75.07364">
        <ele>1724.1</ele>
        <time>2021-08-21T14:59:07Z</time>
      </trkpt>
      <trkpt lat="2.785674" lon="-75.07364">
        <ele>1724.2</ele>
        <time>2021-08-21T14:59:08Z</time>
      </trkpt>
      <trkpt lat="2.785662" lon="-75.07365">
        <ele>1724.4</ele>
        <time>2021-08-21T14:59:09Z</time>
      </trkpt>
      <trkpt lat="2.785649" lon="-75.07365">
        <ele>1724.6</ele>
        <time>2021-08-21T14:59:10Z</time>
      </trkpt>
      <trkpt lat="2.785637" lon="-75.073654">
        <ele>1724.8</ele>
        <time>2021-08-21T14:59:11Z</time>
      </trkpt>
      <trkpt lat="2.785625" lon="-75.07366">
        <ele>1725.0</ele>
        <time>2021-08-21T14:59:12Z</time>
      </trkpt>
      <trkpt lat="2.785614" lon="-75.07366">
        <ele>1725.1</ele>
        <time>2021-08-21T14:59:13Z</time>
      </trkpt>
      <trkpt lat="2.785603" lon="-75.07367">
        <ele>1725.3</ele>
        <time>2021-08-21T14:59:14Z</time>
      </trkpt>
      <trkpt lat="2.785592" lon="-75.07368">
        <ele>1725.4</ele>
        <time>2021-08-21T14:59:15Z</time>
      </trkpt>
      <trkpt lat="2.785581" lon="-75.07368">
        <ele>1725.6</ele>
        <time>2021-08-21T14:59:16Z</time>
      </trkpt>
      <trkpt lat="2.785569" lon="-75.073685">
        <ele>1725.8</ele>
        <time>2021-08-21T14:59:17Z</time>
      </trkpt>
      <trkpt lat="2.785557" lon="-75.07369">
        <ele>1725.9</ele>
        <time>2021-08-21T14:59:18Z</time>
      </trkpt>
      <trkpt lat="2.785544" lon="-75.0737">
        <ele>1726.1</ele>
        <time>2021-08-21T14:59:19Z</time>
      </trkpt>
      <trkpt lat="2.785531" lon="-75.0737">
        <ele>1726.3</ele>
        <time>2021-08-21T14:59:20Z</time>
      </trkpt>
      <trkpt lat="2.785518" lon="-75.07371">
        <ele>1726.4</ele>
        <time>2021-08-21T14:59:21Z</time>
      </trkpt>
      <trkpt lat="2.785505" lon="-75.07371">
        <ele>1726.6</ele>
        <time>2021-08-21T14:59:22Z</time>
      </trkpt>
      <trkpt lat="2.785492" lon="-75.073715">
        <ele>1726.7</ele>
        <time>2021-08-21T14:59:23Z</time>
      </trkpt>
      <trkpt lat="2.785479" lon="-75.07372">
        <ele>1726.9</ele>
        <time>2021-08-21T14:59:24Z</time>
      </trkpt>
      <trkpt lat="2.785467" lon="-75.07372">
        <ele>1727.0</ele>
        <time>2021-08-21T14:59:25Z</time>
      </trkpt>
      <trkpt lat="2.785455" lon="-75.07373">
        <ele>1727.1</ele>
        <time>2021-08-21T14:59:26Z</time>
      </trkpt>
      <trkpt lat="2.785443" lon="-75.07374">
        <ele>1727.2</ele>
        <time>2021-08-21T14:59:27Z</time>
      </trkpt>
      <trkpt lat="2.78543" lon="-75.073746">
        <ele>1727.4</ele>
        <time>2021-08-21T14:59:28Z</time>
      </trkpt>
      <trkpt lat="2.785417" lon="-75.073746">
        <ele>1727.5</ele>
        <time>2021-08-21T14:59:29Z</time>
      </trkpt>
      <trkpt lat="2.785404" lon="-75.07375">
        <ele>1727.6</ele>
        <time>2021-08-21T14:59:30Z</time>
      </trkpt>
      <trkpt lat="2.78539" lon="-75.07376">
        <ele>1727.7</ele>
        <time>2021-08-21T14:59:31Z</time>
      </trkpt>
      <trkpt lat="2.785376" lon="-75.07376">
        <ele>1727.9</ele>
        <time>2021-08-21T14:59:32Z</time>
      </trkpt>
      <trkpt lat="2.785362" lon="-75.07377">
        <ele>1728.0</ele>
        <time>2021-08-21T14:59:33Z</time>
      </trkpt>
      <trkpt lat="2.785349" lon="-75.07377">
        <ele>1728.1</ele>
        <time>2021-08-21T14:59:34Z</time>
      </trkpt>
      <trkpt lat="2.785337" lon="-75.07378">
        <ele>1728.2</ele>
        <time>2021-08-21T14:59:35Z</time>
      </trkpt>
      <trkpt lat="2.785324" lon="-75.073784">
        <ele>1728.3</ele>
        <time>2021-08-21T14:59:36Z</time>
      </trkpt>
      <trkpt lat="2.785312" lon="-75.07379">
        <ele>1728.4</ele>
        <time>2021-08-21T14:59:37Z</time>
      </trkpt>
      <trkpt lat="2.785299" lon="-75.0738">
        <ele>1728.5</ele>
        <time>2021-08-21T14:59:38Z</time>
      </trkpt>
      <trkpt lat="2.785286" lon="-75.07381">
        <ele>1728.6</ele>
        <time>2021-08-21T14:59:39Z</time>
      </trkpt>
      <trkpt lat="2.785275" lon="-75.073814">
        <ele>1728.7</ele>
        <time>2021-08-21T14:59:40Z</time>
      </trkpt>
      <trkpt lat="2.785264" lon="-75.07382">
        <ele>1728.8</ele>
        <time>2021-08-21T14:59:41Z</time>
      </trkpt>
      <trkpt lat="2.785252" lon="-75.07383">
        <ele>1728.9</ele>
        <time>2021-08-21T14:59:42Z</time>
      </trkpt>
      <trkpt lat="2.785242" lon="-75.07384">
        <ele>1729.0</ele>
        <time>2021-08-21T14:59:43Z</time>
      </trkpt>
      <trkpt lat="2.785232" lon="-75.073845">
        <ele>1729.1</ele>
        <time>2021-08-21T14:59:44Z</time>
      </trkpt>
      <trkpt lat="2.785223" lon="-75.07386">
        <ele>1729.2</ele>
        <time>2021-08-21T14:59:45Z</time>
      </trkpt>
      <trkpt lat="2.785212" lon="-75.07387">
        <ele>1729.3</ele>
        <time>2021-08-21T14:59:46Z</time>
      </trkpt>
      <trkpt lat="2.785203" lon="-75.07388">
        <ele>1729.4</ele>
        <time>2021-08-21T14:59:47Z</time>
      </trkpt>
      <trkpt lat="2.785194" lon="-75.07389">
        <ele>1729.5</ele>
        <time>2021-08-21T14:59:48Z</time>
      </trkpt>
      <trkpt lat="2.785185" lon="-75.073906">
        <ele>1729.6</ele>
        <time>2021-08-21T14:59:49Z</time>
      </trkpt>
      <trkpt lat="2.785174" lon="-75.07391">
        <ele>1729.6</ele>
        <time>2021-08-21T14:59:50Z</time>
      </trkpt>
      <trkpt lat="2.785164" lon="-75.07392">
        <ele>1729.7</ele>
        <time>2021-08-21T14:59:51Z</time>
      </trkpt>
      <trkpt lat="2.785153" lon="-75.07394">
        <ele>1729.8</ele>
        <time>2021-08-21T14:59:52Z</time>
      </trkpt>
      <trkpt lat="2.785142" lon="-75.07395">
        <ele>1729.9</ele>
        <time>2021-08-21T14:59:53Z</time>
      </trkpt>
      <trkpt lat="2.785132" lon="-75.07396">
        <ele>1730.0</ele>
        <time>2021-08-21T14:59:54Z</time>
      </trkpt>
      <trkpt lat="2.785122" lon="-75.073975">
        <ele>1730.1</ele>
        <time>2021-08-21T14:59:55Z</time>
      </trkpt>
      <trkpt lat="2.785112" lon="-75.07398">
        <ele>1730.2</ele>
        <time>2021-08-21T14:59:56Z</time>
      </trkpt>
      <trkpt lat="2.785104" lon="-75.074">
        <ele>1730.3</ele>
        <time>2021-08-21T14:59:57Z</time>
      </trkpt>
      <trkpt lat="2.785097" lon="-75.074005">
        <ele>1730.4</ele>
        <time>2021-08-21T14:59:58Z</time>
      </trkpt>
      <trkpt lat="2.78509" lon="-75.07402">
        <ele>1730.4</ele>
        <time>2021-08-21T14:59:59Z</time>
      </trkpt>
      <trkpt lat="2.785082" lon="-75.07403">
        <ele>1730.5</ele>
        <time>2021-08-21T15:00:00Z</time>
      </trkpt>
      <trkpt lat="2.785075" lon="-75.07404">
        <ele>1730.6</ele>
        <time>2021-08-21T15:00:01Z</time>
      </trkpt>
      <trkpt lat="2.785067" lon="-75.07405">
        <ele>1730.7</ele>
        <time>2021-08-21T15:00:02Z</time>
      </trkpt>
      <trkpt lat="2.785061" lon="-75.074066">
        <ele>1730.8</ele>
        <time>2021-08-21T15:00:03Z</time>
      </trkpt>
      <trkpt lat="2.785053" lon="-75.07408">
        <ele>1730.9</ele>
        <time>2021-08-21T15:00:04Z</time>
      </trkpt>
      <trkpt lat="2.785045" lon="-75.0741">
        <ele>1731.0</ele>
        <time>2021-08-21T15:00:05Z</time>
      </trkpt>
      <trkpt lat="2.785037" lon="-75.07411">
        <ele>1731.1</ele>
        <time>2021-08-21T15:00:06Z</time>
      </trkpt>
      <trkpt lat="2.785029" lon="-75.07412">
        <ele>1731.2</ele>
        <time>2021-08-21T15:00:07Z</time>
      </trkpt>
      <trkpt lat="2.785021" lon="-75.074135">
        <ele>1731.4</ele>
        <time>2021-08-21T15:00:08Z</time>
      </trkpt>
      <trkpt lat="2.785013" lon="-75.07415">
        <ele>1731.5</ele>
        <time>2021-08-21T15:00:09Z</time>
      </trkpt>
      <trkpt lat="2.785007" lon="-75.074165">
        <ele>1731.6</ele>
        <time>2021-08-21T15:00:10Z</time>
      </trkpt>
      <trkpt lat="2.784999" lon="-75.07418">
        <ele>1731.7</ele>
        <time>2021-08-21T15:00:11Z</time>
      </trkpt>
      <trkpt lat="2.784992" lon="-75.0742">
        <ele>1731.8</ele>
        <time>2021-08-21T15:00:12Z</time>
      </trkpt>
      <trkpt lat="2.784982" lon="-75.07422">
        <ele>1732.0</ele>
        <time>2021-08-21T15:00:13Z</time>
      </trkpt>
      <trkpt lat="2.784972" lon="-75.07423">
        <ele>1732.1</ele>
        <time>2021-08-21T15:00:14Z</time>
      </trkpt>
      <trkpt lat="2.784962" lon="-75.07424">
        <ele>1732.2</ele>
        <time>2021-08-21T15:00:15Z</time>
      </trkpt>
      <trkpt lat="2.784954" lon="-75.07426">
        <ele>1732.3</ele>
        <time>2021-08-21T15:00:16Z</time>
      </trkpt>
      <trkpt lat="2.784948" lon="-75.07427">
        <ele>1732.4</ele>
        <time>2021-08-21T15:00:17Z</time>
      </trkpt>
      <trkpt lat="2.784941" lon="-75.07429">
        <ele>1732.5</ele>
        <time>2021-08-21T15:00:18Z</time>
      </trkpt>
      <trkpt lat="2.784935" lon="-75.0743">
        <ele>1732.6</ele>
        <time>2021-08-21T15:00:19Z</time>
      </trkpt>
      <trkpt lat="2.784929" lon="-75.07432">
        <ele>1732.8</ele>
        <time>2021-08-21T15:00:20Z</time>
      </trkpt>
      <trkpt lat="2.784922" lon="-75.07433">
        <ele>1732.9</ele>
        <time>2021-08-21T15:00:21Z</time>
      </trkpt>
      <trkpt lat="2.784915" lon="-75.07435">
        <ele>1733.0</ele>
        <time>2021-08-21T15:00:22Z</time>
      </trkpt>
      <trkpt lat="2.784909" lon="-75.07436">
        <ele>1733.1</ele>
        <time>2021-08-21T15:00:23Z</time>
      </trkpt>
      <trkpt lat="2.784904" lon="-75.07439">
        <ele>1733.2</ele>
        <time>2021-08-21T15:00:24Z</time>
      </trkpt>
      <trkpt lat="2.784898" lon="-75.0744">
        <ele>1733.3</ele>
        <time>2021-08-21T15:00:25Z</time>
      </trkpt>
      <trkpt lat="2.784892" lon="-75.07442">
        <ele>1733.4</ele>
        <time>2021-08-21T15:00:26Z</time>
      </trkpt>
      <trkpt lat="2.784885" lon="-75.07443">
        <ele>1733.5</ele>
        <time>2021-08-21T15:00:27Z</time>
      </trkpt>
      <trkpt lat="2.784877" lon="-75.07445">
        <ele>1733.6</ele>
        <time>2021-08-21T15:00:28Z</time>
      </trkpt>
      <trkpt lat="2.78487" lon="-75.074455">
        <ele>1733.7</ele>
        <time>2021-08-21T15:00:29Z</time>
      </trkpt>
      <trkpt lat="2.784864" lon="-75.07447">
        <ele>1733.8</ele>
        <time>2021-08-21T15:00:30Z</time>
      </trkpt>
      <trkpt lat="2.784855" lon="-75.074486">
        <ele>1733.9</ele>
        <time>2021-08-21T15:00:31Z</time>
      </trkpt>
      <trkpt lat="2.784847" lon="-75.07449">
        <ele>1734.0</ele>
        <time>2021-08-21T15:00:32Z</time>
      </trkpt>
      <trkpt lat="2.78484" lon="-75.07451">
        <ele>1734.1</ele>
        <time>2021-08-21T15:00:33Z</time>
      </trkpt>
      <trkpt lat="2.784834" lon="-75.07452">
        <ele>1734.3</ele>
        <time>2021-08-21T15:00:34Z</time>
      </trkpt>
      <trkpt lat="2.784829" lon="-75.07453">
        <ele>1734.4</ele>
        <time>2021-08-21T15:00:35Z</time>
      </trkpt>
      <trkpt lat="2.784824" lon="-75.07455">
        <ele>1734.5</ele>
        <time>2021-08-21T15:00:36Z</time>
      </trkpt>
      <trkpt lat="2.784818" lon="-75.074554">
        <ele>1734.6</ele>
        <time>2021-08-21T15:00:37Z</time>
      </trkpt>
      <trkpt lat="2.784812" lon="-75.07457">
        <ele>1734.7</ele>
        <time>2021-08-21T15:00:38Z</time>
      </trkpt>
      <trkpt lat="2.784805" lon="-75.07458">
        <ele>1734.8</ele>
        <time>2021-08-21T15:00:39Z</time>
      </trkpt>
      <trkpt lat="2.784799" lon="-75.07459">
        <ele>1735.0</ele>
        <time>2021-08-21T15:00:40Z</time>
      </trkpt>
      <trkpt lat="2.784793" lon="-75.0746">
        <ele>1735.1</ele>
        <time>2021-08-21T15:00:41Z</time>
      </trkpt>
      <trkpt lat="2.784786" lon="-75.074615">
        <ele>1735.3</ele>
        <time>2021-08-21T15:00:42Z</time>
      </trkpt>
      <trkpt lat="2.78478" lon="-75.07463">
        <ele>1735.5</ele>
        <time>2021-08-21T15:00:43Z</time>
      </trkpt>
      <trkpt lat="2.784774" lon="-75.074646">
        <ele>1735.6</ele>
        <time>2021-08-21T15:00:44Z</time>
      </trkpt>
      <trkpt lat="2.784767" lon="-75.07465">
        <ele>1735.8</ele>
        <time>2021-08-21T15:00:45Z</time>
      </trkpt>
      <trkpt lat="2.784759" lon="-75.07467">
        <ele>1736.0</ele>
        <time>2021-08-21T15:00:46Z</time>
      </trkpt>
      <trkpt lat="2.784751" lon="-75.07468">
        <ele>1736.1</ele>
        <time>2021-08-21T15:00:47Z</time>
      </trkpt>
      <trkpt lat="2.784741" lon="-75.07469">
        <ele>1736.3</ele>
        <time>2021-08-21T15:00:48Z</time>
      </trkpt>
      <trkpt lat="2.784731" lon="-75.0747">
        <ele>1736.5</ele>
        <time>2021-08-21T15:00:49Z</time>
      </trkpt>
      <trkpt lat="2.784721" lon="-75.07471">
        <ele>1736.6</ele>
        <time>2021-08-21T15:00:50Z</time>
      </trkpt>
      <trkpt lat="2.78471" lon="-75.074715">
        <ele>1736.8</ele>
        <time>2021-08-21T15:00:51Z</time>
      </trkpt>
      <trkpt lat="2.784699" lon="-75.07472">
        <ele>1737.0</ele>
        <time>2021-08-21T15:00:52Z</time>
      </trkpt>
      <trkpt lat="2.784688" lon="-75.07473">
        <ele>1737.1</ele>
        <time>2021-08-21T15:00:53Z</time>
      </trkpt>
      <trkpt lat="2.784678" lon="-75.07473">
        <ele>1737.3</ele>
        <time>2021-08-21T15:00:54Z</time>
      </trkpt>
      <trkpt lat="2.784668" lon="-75.07474">
        <ele>1737.4</ele>
        <time>2021-08-21T15:00:55Z</time>
      </trkpt>
      <trkpt lat="2.784658" lon="-75.074745">
        <ele>1737.6</ele>
        <time>2021-08-21T15:00:56Z</time>
      </trkpt>
      <trkpt lat="2.784648" lon="-75.07475">
        <ele>1737.8</ele>
        <time>2021-08-21T15:00:57Z</time>
      </trkpt>
      <trkpt lat="2.784637" lon="-75.07476">
        <ele>1737.9</ele>
        <time>2021-08-21T15:00:58Z</time>
      </trkpt>
      <trkpt lat="2.784624" lon="-75.07477">
        <ele>1738.1</ele>
        <time>2021-08-21T15:00:59Z</time>
      </trkpt>
      <trkpt lat="2.78461" lon="-75.074776">
        <ele>1738.3</ele>
        <time>2021-08-21T15:01:00Z</time>
      </trkpt>
      <trkpt lat="2.784595" lon="-75.07478">
        <ele>1738.5</ele>
        <time>2021-08-21T15:01:01Z</time>
      </trkpt>
      <trkpt lat="2.78458" lon="-75.07479">
        <ele>1738.7</ele>
        <time>2021-08-21T15:01:02Z</time>
      </trkpt>
      <trkpt lat="2.784566" lon="-75.07479">
        <ele>1738.9</ele>
        <time>2021-08-21T15:01:03Z</time>
      </trkpt>
      <trkpt lat="2.784551" lon="-75.0748">
        <ele>1739.0</ele>
        <time>2021-08-21T15:01:04Z</time>
      </trkpt>
      <trkpt lat="2.784537" lon="-75.0748">
        <ele>1739.2</ele>
        <time>2021-08-21T15:01:05Z</time>
      </trkpt>
      <trkpt lat="2.784522" lon="-75.07481">
        <ele>1739.4</ele>
        <time>2021-08-21T15:01:06Z</time>
      </trkpt>
      <trkpt lat="2.784509" lon="-75.07481">
        <ele>1739.6</ele>
        <time>2021-08-21T15:01:07Z</time>
      </trkpt>
      <trkpt lat="2.784497" lon="-75.07481">
        <ele>1739.7</ele>
        <time>2021-08-21T15:01:08Z</time>
      </trkpt>
      <trkpt lat="2.784485" lon="-75.07481">
        <ele>1739.9</ele>
        <time>2021-08-21T15:01:09Z</time>
      </trkpt>
      <trkpt lat="2.784474" lon="-75.07481">
        <ele>1740.0</ele>
        <time>2021-08-21T15:01:10Z</time>
      </trkpt>
      <trkpt lat="2.784463" lon="-75.07481">
        <ele>1740.2</ele>
        <time>2021-08-21T15:01:11Z</time>
      </trkpt>
      <trkpt lat="2.784451" lon="-75.07481">
        <ele>1740.3</ele>
        <time>2021-08-21T15:01:12Z</time>
      </trkpt>
      <trkpt lat="2.78444" lon="-75.0748">
        <ele>1740.5</ele>
        <time>2021-08-21T15:01:13Z</time>
      </trkpt>
      <trkpt lat="2.784429" lon="-75.0748">
        <ele>1740.6</ele>
        <time>2021-08-21T15:01:14Z</time>
      </trkpt>
      <trkpt lat="2.784418" lon="-75.07479">
        <ele>1740.8</ele>
        <time>2021-08-21T15:01:15Z</time>
      </trkpt>
      <trkpt lat="2.784406" lon="-75.07479">
        <ele>1740.9</ele>
        <time>2021-08-21T15:01:16Z</time>
      </trkpt>
      <trkpt lat="2.784395" lon="-75.07478">
        <ele>1741.1</ele>
        <time>2021-08-21T15:01:17Z</time>
      </trkpt>
      <trkpt lat="2.784384" lon="-75.07478">
        <ele>1741.2</ele>
        <time>2021-08-21T15:01:18Z</time>
      </trkpt>
      <trkpt lat="2.784373" lon="-75.074776">
        <ele>1741.4</ele>
        <time>2021-08-21T15:01:19Z</time>
      </trkpt>
      <trkpt lat="2.784363" lon="-75.07477">
        <ele>1741.5</ele>
        <time>2021-08-21T15:01:20Z</time>
      </trkpt>
      <trkpt lat="2.784352" lon="-75.07475">
        <ele>1741.7</ele>
        <time>2021-08-21T15:01:21Z</time>
      </trkpt>
      <trkpt lat="2.78434" lon="-75.074745">
        <ele>1741.9</ele>
        <time>2021-08-21T15:01:22Z</time>
      </trkpt>
      <trkpt lat="2.78433" lon="-75.07474">
        <ele>1742.1</ele>
        <time>2021-08-21T15:01:23Z</time>
      </trkpt>
      <trkpt lat="2.78432" lon="-75.07473">
        <ele>1742.2</ele>
        <time>2021-08-21T15:01:24Z</time>
      </trkpt>
      <trkpt lat="2.784311" lon="-75.07473">
        <ele>1742.3</ele>
        <time>2021-08-21T15:01:25Z</time>
      </trkpt>
      <trkpt lat="2.784302" lon="-75.07472">
        <ele>1742.5</ele>
        <time>2021-08-21T15:01:26Z</time>
      </trkpt>
      <trkpt lat="2.784293" lon="-75.074715">
        <ele>1742.6</ele>
        <time>2021-08-21T15:01:27Z</time>
      </trkpt>
      <trkpt lat="2.784284" lon="-75.07471">
        <ele>1742.7</ele>
        <time>2021-08-21T15:01:28Z</time>
      </trkpt>
      <trkpt lat="2.784277" lon="-75.0747">
        <ele>1742.9</ele>
        <time>2021-08-21T15:01:29Z</time>
      </trkpt>
      <trkpt lat="2.78427" lon="-75.07469">
        <ele>1743.0</ele>
        <time>2021-08-21T15:01:30Z</time>
      </trkpt>
      <trkpt lat="2.784262" lon="-75.07469">
        <ele>1743.1</ele>
        <time>2021-08-21T15:01:31Z</time>
      </trkpt>
      <trkpt lat="2.784253" lon="-75.074684">
        <ele>1743.2</ele>
        <time>2021-08-21T15:01:32Z</time>
      </trkpt>
      <trkpt lat="2.784244" lon="-75.07468">
        <ele>1743.4</ele>
        <time>2021-08-21T15:01:33Z</time>
      </trkpt>
      <trkpt lat="2.784235" lon="-75.07467">
        <ele>1743.5</ele>
        <time>2021-08-21T15:01:34Z</time>
      </trkpt>
      <trkpt lat="2.784227" lon="-75.07467">
        <ele>1743.7</ele>
        <time>2021-08-21T15:01:35Z</time>
      </trkpt>
      <trkpt lat="2.784209" lon="-75.07466">
        <ele>1743.9</ele>
        <time>2021-08-21T15:01:36Z</time>
      </trkpt>
      <trkpt lat="2.784199" lon="-75.07465">
        <ele>1744.0</ele>
        <time>2021-08-21T15:01:37Z</time>
      </trkpt>
      <trkpt lat="2.78419" lon="-75.07465">
        <ele>1744.2</ele>
        <time>2021-08-21T15:01:38Z</time>
      </trkpt>
      <trkpt lat="2.784181" lon="-75.074646">
        <ele>1744.3</ele>
        <time>2021-08-21T15:01:39Z</time>
      </trkpt>
      <trkpt lat="2.784171" lon="-75.074646">
        <ele>1744.4</ele>
        <time>2021-08-21T15:01:40Z</time>
      </trkpt>
      <trkpt lat="2.784162" lon="-75.07464">
        <ele>1744.6</ele>
        <time>2021-08-21T15:01:41Z</time>
      </trkpt>
      <trkpt lat="2.784153" lon="-75.07464">
        <ele>1744.7</ele>
        <time>2021-08-21T15:01:42Z</time>
      </trkpt>
      <trkpt lat="2.784143" lon="-75.07463">
        <ele>1744.8</ele>
        <time>2021-08-21T15:01:43Z</time>
      </trkpt>
      <trkpt lat="2.784134" lon="-75.07463">
        <ele>1744.9</ele>
        <time>2021-08-21T15:01:44Z</time>
      </trkpt>
      <trkpt lat="2.784124" lon="-75.07463">
        <ele>1745.1</ele>
        <time>2021-08-21T15:01:45Z</time>
      </trkpt>
      <trkpt lat="2.784115" lon="-75.07462">
        <ele>1745.2</ele>
        <time>2021-08-21T15:01:46Z</time>
      </trkpt>
      <trkpt lat="2.784106" lon="-75.07462">
        <ele>1745.3</ele>
        <time>2021-08-21T15:01:47Z</time>
      </trkpt>
      <trkpt lat="2.784096" lon="-75.074615">
        <ele>1745.5</ele>
        <time>2021-08-21T15:01:48Z</time>
      </trkpt>
      <trkpt lat="2.784087" lon="-75.074615">
        <ele>1745.6</ele>
        <time>2021-08-21T15:01:49Z</time>
      </trkpt>
      <trkpt lat="2.784078" lon="-75.07461">
        <ele>1745.7</ele>
        <time>2021-08-21T15:01:50Z</time>
      </trkpt>
      <trkpt lat="2.784068" lon="-75.07461">
        <ele>1745.8</ele>
        <time>2021-08-21T15:01:51Z</time>
      </trkpt>
      <trkpt lat="2.784059" lon="-75.0746">
        <ele>1746.0</ele>
        <time>2021-08-21T15:01:52Z</time>
      </trkpt>
      <trkpt lat="2.78405" lon="-75.0746">
        <ele>1746.1</ele>
        <time>2021-08-21T15:01:53Z</time>
      </trkpt>
      <trkpt lat="2.78404" lon="-75.07459">
        <ele>1746.2</ele>
        <time>2021-08-21T15:01:54Z</time>
      </trkpt>
      <trkpt lat="2.784031" lon="-75.07459">
        <ele>1746.3</ele>
        <time>2021-08-21T15:01:55Z</time>
      </trkpt>
      <trkpt lat="2.784022" lon="-75.074585">
        <ele>1746.5</ele>
        <time>2021-08-21T15:01:56Z</time>
      </trkpt>
      <trkpt lat="2.784012" lon="-75.074585">
        <ele>1746.6</ele>
        <time>2021-08-21T15:01:57Z</time>
      </trkpt>
      <trkpt lat="2.784003" lon="-75.07458">
        <ele>1746.7</ele>
        <time>2021-08-21T15:01:58Z</time>
      </trkpt>
      <trkpt lat="2.783993" lon="-75.07458">
        <ele>1746.9</ele>
        <time>2021-08-21T15:01:59Z</time>
      </trkpt>
      <trkpt lat="2.783984" lon="-75.07458">
        <ele>1747.0</ele>
        <time>2021-08-21T15:02:00Z</time>
      </trkpt>
      <trkpt lat="2.783975" lon="-75.07457">
        <ele>1747.1</ele>
        <time>2021-08-21T15:02:01Z</time>
      </trkpt>
      <trkpt lat="2.783965" lon="-75.07457">
        <ele>1747.3</ele>
        <time>2021-08-21T15:02:02Z</time>
      </trkpt>
      <trkpt lat="2.783956" lon="-75.07456">
        <ele>1747.4</ele>
        <time>2021-08-21T15:02:03Z</time>
      </trkpt>
      <trkpt lat="2.783947" lon="-75.07456">
        <ele>1747.5</ele>
        <time>2021-08-21T15:02:04Z</time>
      </trkpt>
      <trkpt lat="2.783928" lon="-75.074554">
        <ele>1747.9</ele>
        <time>2021-08-21T15:02:06Z</time>
      </trkpt>
      <trkpt lat="2.783937" lon="-75.074554">
        <ele>1747.7</ele>
        <time>2021-08-21T15:02:06Z</time>
      </trkpt>
      <trkpt lat="2.78391" lon="-75.074554">
        <ele>1748.1</ele>
        <time>2021-08-21T15:02:07Z</time>
      </trkpt>
      <trkpt lat="2.7839" lon="-75.074554">
        <ele>1748.3</ele>
        <time>2021-08-21T15:02:08Z</time>
      </trkpt>
      <trkpt lat="2.783891" lon="-75.074554">
        <ele>1748.4</ele>
        <time>2021-08-21T15:02:09Z</time>
      </trkpt>
      <trkpt lat="2.783881" lon="-75.074554">
        <ele>1748.6</ele>
        <time>2021-08-21T15:02:10Z</time>
      </trkpt>
      <trkpt lat="2.783872" lon="-75.074554">
        <ele>1748.7</ele>
        <time>2021-08-21T15:02:11Z</time>
      </trkpt>
      <trkpt lat="2.783862" lon="-75.07455">
        <ele>1748.9</ele>
        <time>2021-08-21T15:02:12Z</time>
      </trkpt>
      <trkpt lat="2.783853" lon="-75.07455">
        <ele>1749.1</ele>
        <time>2021-08-21T15:02:13Z</time>
      </trkpt>
      <trkpt lat="2.783843" lon="-75.07455">
        <ele>1749.2</ele>
        <time>2021-08-21T15:02:14Z</time>
      </trkpt>
      <trkpt lat="2.783834" lon="-75.07455">
        <ele>1749.4</ele>
        <time>2021-08-21T15:02:15Z</time>
      </trkpt>
      <trkpt lat="2.783825" lon="-75.07455">
        <ele>1749.5</ele>
        <time>2021-08-21T15:02:16Z</time>
      </trkpt>
      <trkpt lat="2.783815" lon="-75.07455">
        <ele>1749.7</ele>
        <time>2021-08-21T15:02:17Z</time>
      </trkpt>
      <trkpt lat="2.783806" lon="-75.07455">
        <ele>1749.8</ele>
        <time>2021-08-21T15:02:18Z</time>
      </trkpt>
      <trkpt lat="2.783796" lon="-75.07455">
        <ele>1750.0</ele>
        <time>2021-08-21T15:02:19Z</time>
      </trkpt>
      <trkpt lat="2.783787" lon="-75.07455">
        <ele>1750.1</ele>
        <time>2021-08-21T15:02:20Z</time>
      </trkpt>
      <trkpt lat="2.783777" lon="-75.07455">
        <ele>1750.3</ele>
        <time>2021-08-21T15:02:21Z</time>
      </trkpt>
      <trkpt lat="2.783768" lon="-75.07455">
        <ele>1750.4</ele>
        <time>2021-08-21T15:02:22Z</time>
      </trkpt>
      <trkpt lat="2.783758" lon="-75.07455">
        <ele>1750.6</ele>
        <time>2021-08-21T15:02:23Z</time>
      </trkpt>
      <trkpt lat="2.783749" lon="-75.07455">
        <ele>1750.7</ele>
        <time>2021-08-21T15:02:24Z</time>
      </trkpt>
      <trkpt lat="2.78374" lon="-75.07455">
        <ele>1750.9</ele>
        <time>2021-08-21T15:02:25Z</time>
      </trkpt>
      <trkpt lat="2.78373" lon="-75.07455">
        <ele>1751.0</ele>
        <time>2021-08-21T15:02:26Z</time>
      </trkpt>
      <trkpt lat="2.783721" lon="-75.07455">
        <ele>1751.2</ele>
        <time>2021-08-21T15:02:27Z</time>
      </trkpt>
      <trkpt lat="2.783711" lon="-75.07455">
        <ele>1751.3</ele>
        <time>2021-08-21T15:02:28Z</time>
      </trkpt>
      <trkpt lat="2.783702" lon="-75.07454">
        <ele>1751.5</ele>
        <time>2021-08-21T15:02:29Z</time>
      </trkpt>
      <trkpt lat="2.783692" lon="-75.07454">
        <ele>1751.6</ele>
        <time>2021-08-21T15:02:30Z</time>
      </trkpt>
      <trkpt lat="2.783683" lon="-75.07454">
        <ele>1751.7</ele>
        <time>2021-08-21T15:02:31Z</time>
      </trkpt>
      <trkpt lat="2.783673" lon="-75.07454">
        <ele>1751.9</ele>
        <time>2021-08-21T15:02:32Z</time>
      </trkpt>
      <trkpt lat="2.783664" lon="-75.07454">
        <ele>1752.0</ele>
        <time>2021-08-21T15:02:33Z</time>
      </trkpt>
      <trkpt lat="2.783654" lon="-75.07454">
        <ele>1752.2</ele>
        <time>2021-08-21T15:02:34Z</time>
      </trkpt>
      <trkpt lat="2.783645" lon="-75.07454">
        <ele>1752.3</ele>
        <time>2021-08-21T15:02:35Z</time>
      </trkpt>
      <trkpt lat="2.783636" lon="-75.07454">
        <ele>1752.4</ele>
        <time>2021-08-21T15:02:36Z</time>
      </trkpt>
      <trkpt lat="2.783626" lon="-75.07454">
        <ele>1752.5</ele>
        <time>2021-08-21T15:02:37Z</time>
      </trkpt>
      <trkpt lat="2.783617" lon="-75.07454">
        <ele>1752.7</ele>
        <time>2021-08-21T15:02:38Z</time>
      </trkpt>
      <trkpt lat="2.783607" lon="-75.07454">
        <ele>1752.8</ele>
        <time>2021-08-21T15:02:39Z</time>
      </trkpt>
      <trkpt lat="2.783598" lon="-75.07454">
        <ele>1752.9</ele>
        <time>2021-08-21T15:02:40Z</time>
      </trkpt>
      <trkpt lat="2.783588" lon="-75.07454">
        <ele>1753.0</ele>
        <time>2021-08-21T15:02:41Z</time>
      </trkpt>
      <trkpt lat="2.783579" lon="-75.07454">
        <ele>1753.2</ele>
        <time>2021-08-21T15:02:42Z</time>
      </trkpt>
      <trkpt lat="2.783569" lon="-75.07454">
        <ele>1753.3</ele>
        <time>2021-08-21T15:02:43Z</time>
      </trkpt>
      <trkpt lat="2.78356" lon="-75.07453">
        <ele>1753.4</ele>
        <time>2021-08-21T15:02:44Z</time>
      </trkpt>
      <trkpt lat="2.783551" lon="-75.07453">
        <ele>1753.5</ele>
        <time>2021-08-21T15:02:45Z</time>
      </trkpt>
      <trkpt lat="2.783541" lon="-75.07453">
        <ele>1753.7</ele>
        <time>2021-08-21T15:02:46Z</time>
      </trkpt>
      <trkpt lat="2.783532" lon="-75.07453">
        <ele>1753.8</ele>
        <time>2021-08-21T15:02:47Z</time>
      </trkpt>
      <trkpt lat="2.783522" lon="-75.07453">
        <ele>1753.9</ele>
        <time>2021-08-21T15:02:48Z</time>
      </trkpt>
      <trkpt lat="2.783513" lon="-75.07453">
        <ele>1754.0</ele>
        <time>2021-08-21T15:02:49Z</time>
      </trkpt>
      <trkpt lat="2.783503" lon="-75.07453">
        <ele>1754.2</ele>
        <time>2021-08-21T15:02:50Z</time>
      </trkpt>
      <trkpt lat="2.783494" lon="-75.07453">
        <ele>1754.3</ele>
        <time>2021-08-21T15:02:51Z</time>
      </trkpt>
      <trkpt lat="2.783475" lon="-75.07453">
        <ele>1754.5</ele>
        <time>2021-08-21T15:02:52Z</time>
      </trkpt>
      <trkpt lat="2.783484" lon="-75.07453">
        <ele>1754.4</ele>
        <time>2021-08-21T15:02:52Z</time>
      </trkpt>
      <trkpt lat="2.783465" lon="-75.074524">
        <ele>1754.7</ele>
        <time>2021-08-21T15:02:53Z</time>
      </trkpt>
      <trkpt lat="2.783452" lon="-75.07452">
        <ele>1754.8</ele>
        <time>2021-08-21T15:02:54Z</time>
      </trkpt>
      <trkpt lat="2.783438" lon="-75.07452">
        <ele>1755.0</ele>
        <time>2021-08-21T15:02:55Z</time>
      </trkpt>
      <trkpt lat="2.783424" lon="-75.07452">
        <ele>1755.2</ele>
        <time>2021-08-21T15:02:56Z</time>
      </trkpt>
      <trkpt lat="2.783411" lon="-75.07451">
        <ele>1755.4</ele>
        <time>2021-08-21T15:02:57Z</time>
      </trkpt>
      <trkpt lat="2.783398" lon="-75.07451">
        <ele>1755.5</ele>
        <time>2021-08-21T15:02:58Z</time>
      </trkpt>
      <trkpt lat="2.783387" lon="-75.07451">
        <ele>1755.7</ele>
        <time>2021-08-21T15:02:59Z</time>
      </trkpt>
      <trkpt lat="2.783375" lon="-75.0745">
        <ele>1755.8</ele>
        <time>2021-08-21T15:03:00Z</time>
      </trkpt>
      <trkpt lat="2.783362" lon="-75.0745">
        <ele>1756.0</ele>
        <time>2021-08-21T15:03:01Z</time>
      </trkpt>
      <trkpt lat="2.783349" lon="-75.0745">
        <ele>1756.1</ele>
        <time>2021-08-21T15:03:02Z</time>
      </trkpt>
      <trkpt lat="2.783336" lon="-75.07449">
        <ele>1756.3</ele>
        <time>2021-08-21T15:03:03Z</time>
      </trkpt>
      <trkpt lat="2.783325" lon="-75.07449">
        <ele>1756.4</ele>
        <time>2021-08-21T15:03:04Z</time>
      </trkpt>
      <trkpt lat="2.783314" lon="-75.07449">
        <ele>1756.6</ele>
        <time>2021-08-21T15:03:05Z</time>
      </trkpt>
      <trkpt lat="2.783304" lon="-75.07449">
        <ele>1756.7</ele>
        <time>2021-08-21T15:03:06Z</time>
      </trkpt>
      <trkpt lat="2.783294" lon="-75.0745">
        <ele>1756.8</ele>
        <time>2021-08-21T15:03:07Z</time>
      </trkpt>
      <trkpt lat="2.783285" lon="-75.0745">
        <ele>1756.9</ele>
        <time>2021-08-21T15:03:08Z</time>
      </trkpt>
      <trkpt lat="2.783276" lon="-75.0745">
        <ele>1757.0</ele>
        <time>2021-08-21T15:03:09Z</time>
      </trkpt>
      <trkpt lat="2.783267" lon="-75.0745">
        <ele>1757.1</ele>
        <time>2021-08-21T15:03:10Z</time>
      </trkpt>
      <trkpt lat="2.783259" lon="-75.0745">
        <ele>1757.2</ele>
        <time>2021-08-21T15:03:11Z</time>
      </trkpt>
      <trkpt lat="2.783251" lon="-75.0745">
        <ele>1757.3</ele>
        <time>2021-08-21T15:03:12Z</time>
      </trkpt>
      <trkpt lat="2.783243" lon="-75.0745">
        <ele>1757.4</ele>
        <time>2021-08-21T15:03:13Z</time>
      </trkpt>
      <trkpt lat="2.783235" lon="-75.07451">
        <ele>1757.5</ele>
        <time>2021-08-21T15:03:14Z</time>
      </trkpt>
      <trkpt lat="2.783227" lon="-75.07451">
        <ele>1757.6</ele>
        <time>2021-08-21T15:03:15Z</time>
      </trkpt>
      <trkpt lat="2.783218" lon="-75.07451">
        <ele>1757.7</ele>
        <time>2021-08-21T15:03:16Z</time>
      </trkpt>
      <trkpt lat="2.78321" lon="-75.07451">
        <ele>1757.8</ele>
        <time>2021-08-21T15:03:17Z</time>
      </trkpt>
      <trkpt lat="2.7832" lon="-75.07452">
        <ele>1757.9</ele>
        <time>2021-08-21T15:03:18Z</time>
      </trkpt>
      <trkpt lat="2.783192" lon="-75.07452">
        <ele>1758.0</ele>
        <time>2021-08-21T15:03:19Z</time>
      </trkpt>
      <trkpt lat="2.783185" lon="-75.07452">
        <ele>1758.1</ele>
        <time>2021-08-21T15:03:20Z</time>
      </trkpt>
      <trkpt lat="2.783177" lon="-75.074524">
        <ele>1758.2</ele>
        <time>2021-08-21T15:03:21Z</time>
      </trkpt>
      <trkpt lat="2.783169" lon="-75.074524">
        <ele>1758.3</ele>
        <time>2021-08-21T15:03:22Z</time>
      </trkpt>
      <trkpt lat="2.783159" lon="-75.074524">
        <ele>1758.5</ele>
        <time>2021-08-21T15:03:23Z</time>
      </trkpt>
      <trkpt lat="2.78315" lon="-75.07453">
        <ele>1758.6</ele>
        <time>2021-08-21T15:03:24Z</time>
      </trkpt>
      <trkpt lat="2.78314" lon="-75.07453">
        <ele>1758.7</ele>
        <time>2021-08-21T15:03:25Z</time>
      </trkpt>
      <trkpt lat="2.783129" lon="-75.07453">
        <ele>1758.9</ele>
        <time>2021-08-21T15:03:26Z</time>
      </trkpt>
      <trkpt lat="2.783118" lon="-75.07453">
        <ele>1759.0</ele>
        <time>2021-08-21T15:03:27Z</time>
      </trkpt>
      <trkpt lat="2.783106" lon="-75.07454">
        <ele>1759.2</ele>
        <time>2021-08-21T15:03:28Z</time>
      </trkpt>
      <trkpt lat="2.783094" lon="-75.07454">
        <ele>1759.4</ele>
        <time>2021-08-21T15:03:29Z</time>
      </trkpt>
      <trkpt lat="2.783083" lon="-75.07455">
        <ele>1759.5</ele>
        <time>2021-08-21T15:03:30Z</time>
      </trkpt>
      <trkpt lat="2.783072" lon="-75.07455">
        <ele>1759.7</ele>
        <time>2021-08-21T15:03:31Z</time>
      </trkpt>
      <trkpt lat="2.783062" lon="-75.074554">
        <ele>1759.9</ele>
        <time>2021-08-21T15:03:32Z</time>
      </trkpt>
      <trkpt lat="2.783052" lon="-75.07456">
        <ele>1760.0</ele>
        <time>2021-08-21T15:03:33Z</time>
      </trkpt>
      <trkpt lat="2.783041" lon="-75.07456">
        <ele>1760.2</ele>
        <time>2021-08-21T15:03:34Z</time>
      </trkpt>
      <trkpt lat="2.78303" lon="-75.07457">
        <ele>1760.3</ele>
        <time>2021-08-21T15:03:35Z</time>
      </trkpt>
      <trkpt lat="2.783019" lon="-75.07457">
        <ele>1760.5</ele>
        <time>2021-08-21T15:03:36Z</time>
      </trkpt>
      <trkpt lat="2.783007" lon="-75.07457">
        <ele>1760.7</ele>
        <time>2021-08-21T15:03:37Z</time>
      </trkpt>
      <trkpt lat="2.782996" lon="-75.07458">
        <ele>1760.8</ele>
        <time>2021-08-21T15:03:38Z</time>
      </trkpt>
      <trkpt lat="2.782985" lon="-75.07458">
        <ele>1761.0</ele>
        <time>2021-08-21T15:03:39Z</time>
      </trkpt>
      <trkpt lat="2.782973" lon="-75.07458">
        <ele>1761.1</ele>
        <time>2021-08-21T15:03:40Z</time>
      </trkpt>
      <trkpt lat="2.782962" lon="-75.074585">
        <ele>1761.3</ele>
        <time>2021-08-21T15:03:41Z</time>
      </trkpt>
      <trkpt lat="2.782951" lon="-75.074585">
        <ele>1761.5</ele>
        <time>2021-08-21T15:03:42Z</time>
      </trkpt>
      <trkpt lat="2.782939" lon="-75.07459">
        <ele>1761.6</ele>
        <time>2021-08-21T15:03:43Z</time>
      </trkpt>
      <trkpt lat="2.782928" lon="-75.07459">
        <ele>1761.8</ele>
        <time>2021-08-21T15:03:44Z</time>
      </trkpt>
      <trkpt lat="2.782916" lon="-75.07459">
        <ele>1761.9</ele>
        <time>2021-08-21T15:03:45Z</time>
      </trkpt>
      <trkpt lat="2.782904" lon="-75.07459">
        <ele>1762.1</ele>
        <time>2021-08-21T15:03:46Z</time>
      </trkpt>
      <trkpt lat="2.782891" lon="-75.07459">
        <ele>1762.2</ele>
        <time>2021-08-21T15:03:47Z</time>
      </trkpt>
      <trkpt lat="2.782879" lon="-75.07459">
        <ele>1762.4</ele>
        <time>2021-08-21T15:03:48Z</time>
      </trkpt>
      <trkpt lat="2.782867" lon="-75.07459">
        <ele>1762.5</ele>
        <time>2021-08-21T15:03:49Z</time>
      </trkpt>
      <trkpt lat="2.782856" lon="-75.0746">
        <ele>1762.7</ele>
        <time>2021-08-21T15:03:50Z</time>
      </trkpt>
      <trkpt lat="2.782844" lon="-75.0746">
        <ele>1762.8</ele>
        <time>2021-08-21T15:03:51Z</time>
      </trkpt>
      <trkpt lat="2.782833" lon="-75.0746">
        <ele>1763.0</ele>
        <time>2021-08-21T15:03:52Z</time>
      </trkpt>
      <trkpt lat="2.782822" lon="-75.07461">
        <ele>1763.1</ele>
        <time>2021-08-21T15:03:53Z</time>
      </trkpt>
      <trkpt lat="2.782811" lon="-75.074615">
        <ele>1763.3</ele>
        <time>2021-08-21T15:03:54Z</time>
      </trkpt>
      <trkpt lat="2.7828" lon="-75.074615">
        <ele>1763.4</ele>
        <time>2021-08-21T15:03:55Z</time>
      </trkpt>
      <trkpt lat="2.782787" lon="-75.07462">
        <ele>1763.6</ele>
        <time>2021-08-21T15:03:56Z</time>
      </trkpt>
      <trkpt lat="2.782775" lon="-75.07463">
        <ele>1763.7</ele>
        <time>2021-08-21T15:03:57Z</time>
      </trkpt>
      <trkpt lat="2.782763" lon="-75.07463">
        <ele>1763.9</ele>
        <time>2021-08-21T15:03:58Z</time>
      </trkpt>
      <trkpt lat="2.782752" lon="-75.07464">
        <ele>1764.0</ele>
        <time>2021-08-21T15:03:59Z</time>
      </trkpt>
      <trkpt lat="2.782742" lon="-75.07464">
        <ele>1764.1</ele>
        <time>2021-08-21T15:04:00Z</time>
      </trkpt>
      <trkpt lat="2.782732" lon="-75.07464">
        <ele>1764.3</ele>
        <time>2021-08-21T15:04:01Z</time>
      </trkpt>
      <trkpt lat="2.782722" lon="-75.074646">
        <ele>1764.4</ele>
        <time>2021-08-21T15:04:02Z</time>
      </trkpt>
      <trkpt lat="2.782712" lon="-75.074646">
        <ele>1764.5</ele>
        <time>2021-08-21T15:04:03Z</time>
      </trkpt>
      <trkpt lat="2.782701" lon="-75.07465">
        <ele>1764.6</ele>
        <time>2021-08-21T15:04:04Z</time>
      </trkpt>
      <trkpt lat="2.782691" lon="-75.07465">
        <ele>1764.8</ele>
        <time>2021-08-21T15:04:05Z</time>
      </trkpt>
      <trkpt lat="2.78268" lon="-75.07466">
        <ele>1764.9</ele>
        <time>2021-08-21T15:04:06Z</time>
      </trkpt>
      <trkpt lat="2.78267" lon="-75.07467">
        <ele>1765.0</ele>
        <time>2021-08-21T15:04:07Z</time>
      </trkpt>
      <trkpt lat="2.782662" lon="-75.07468">
        <ele>1765.2</ele>
        <time>2021-08-21T15:04:08Z</time>
      </trkpt>
      <trkpt lat="2.782656" lon="-75.074684">
        <ele>1765.3</ele>
        <time>2021-08-21T15:04:09Z</time>
      </trkpt>
      <trkpt lat="2.78265" lon="-75.07469">
        <ele>1765.4</ele>
        <time>2021-08-21T15:04:10Z</time>
      </trkpt>
      <trkpt lat="2.782646" lon="-75.07471">
        <ele>1765.6</ele>
        <time>2021-08-21T15:04:11Z</time>
      </trkpt>
      <trkpt lat="2.782643" lon="-75.074715">
        <ele>1765.7</ele>
        <time>2021-08-21T15:04:12Z</time>
      </trkpt>
      <trkpt lat="2.78264" lon="-75.07472">
        <ele>1765.8</ele>
        <time>2021-08-21T15:04:13Z</time>
      </trkpt>
      <trkpt lat="2.782634" lon="-75.07473">
        <ele>1766.0</ele>
        <time>2021-08-21T15:04:14Z</time>
      </trkpt>
      <trkpt lat="2.782628" lon="-75.07474">
        <ele>1766.1</ele>
        <time>2021-08-21T15:04:15Z</time>
      </trkpt>
      <trkpt lat="2.782623" lon="-75.074745">
        <ele>1766.2</ele>
        <time>2021-08-21T15:04:16Z</time>
      </trkpt>
      <trkpt lat="2.782618" lon="-75.07475">
        <ele>1766.3</ele>
        <time>2021-08-21T15:04:17Z</time>
      </trkpt>
      <trkpt lat="2.782612" lon="-75.07476">
        <ele>1766.4</ele>
        <time>2021-08-21T15:04:18Z</time>
      </trkpt>
      <trkpt lat="2.782605" lon="-75.07477">
        <ele>1766.6</ele>
        <time>2021-08-21T15:04:19Z</time>
      </trkpt>
      <trkpt lat="2.782598" lon="-75.074776">
        <ele>1766.7</ele>
        <time>2021-08-21T15:04:20Z</time>
      </trkpt>
      <trkpt lat="2.78259" lon="-75.07478">
        <ele>1766.8</ele>
        <time>2021-08-21T15:04:21Z</time>
      </trkpt>
      <trkpt lat="2.782583" lon="-75.07478">
        <ele>1766.9</ele>
        <time>2021-08-21T15:04:22Z</time>
      </trkpt>
      <trkpt lat="2.782576" lon="-75.07479">
        <ele>1767.0</ele>
        <time>2021-08-21T15:04:23Z</time>
      </trkpt>
      <trkpt lat="2.782567" lon="-75.07479">
        <ele>1767.1</ele>
        <time>2021-08-21T15:04:24Z</time>
      </trkpt>
      <trkpt lat="2.782559" lon="-75.0748">
        <ele>1767.2</ele>
        <time>2021-08-21T15:04:25Z</time>
      </trkpt>
      <trkpt lat="2.78255" lon="-75.0748">
        <ele>1767.3</ele>
        <time>2021-08-21T15:04:26Z</time>
      </trkpt>
      <trkpt lat="2.782542" lon="-75.07481">
        <ele>1767.4</ele>
        <time>2021-08-21T15:04:27Z</time>
      </trkpt>
      <trkpt lat="2.782534" lon="-75.074814">
        <ele>1767.5</ele>
        <time>2021-08-21T15:04:28Z</time>
      </trkpt>
      <trkpt lat="2.782526" lon="-75.07482">
        <ele>1767.6</ele>
        <time>2021-08-21T15:04:29Z</time>
      </trkpt>
      <trkpt lat="2.782517" lon="-75.07482">
        <ele>1767.7</ele>
        <time>2021-08-21T15:04:30Z</time>
      </trkpt>
      <trkpt lat="2.782508" lon="-75.07483">
        <ele>1767.9</ele>
        <time>2021-08-21T15:04:31Z</time>
      </trkpt>
      <trkpt lat="2.7825" lon="-75.07484">
        <ele>1768.0</ele>
        <time>2021-08-21T15:04:32Z</time>
      </trkpt>
      <trkpt lat="2.782491" lon="-75.074844">
        <ele>1768.1</ele>
        <time>2021-08-21T15:04:33Z</time>
      </trkpt>
      <trkpt lat="2.782482" lon="-75.074844">
        <ele>1768.2</ele>
        <time>2021-08-21T15:04:34Z</time>
      </trkpt>
      <trkpt lat="2.782474" lon="-75.07485">
        <ele>1768.3</ele>
        <time>2021-08-21T15:04:35Z</time>
      </trkpt>
      <trkpt lat="2.782465" lon="-75.07486">
        <ele>1768.4</ele>
        <time>2021-08-21T15:04:36Z</time>
      </trkpt>
      <trkpt lat="2.782456" lon="-75.07487">
        <ele>1768.6</ele>
        <time>2021-08-21T15:04:37Z</time>
      </trkpt>
      <trkpt lat="2.782446" lon="-75.07487">
        <ele>1768.7</ele>
        <time>2021-08-21T15:04:38Z</time>
      </trkpt>
      <trkpt lat="2.782436" lon="-75.074875">
        <ele>1768.8</ele>
        <time>2021-08-21T15:04:39Z</time>
      </trkpt>
      <trkpt lat="2.782426" lon="-75.074875">
        <ele>1768.9</ele>
        <time>2021-08-21T15:04:40Z</time>
      </trkpt>
      <trkpt lat="2.782416" lon="-75.07488">
        <ele>1769.1</ele>
        <time>2021-08-21T15:04:41Z</time>
      </trkpt>
      <trkpt lat="2.782407" lon="-75.07488">
        <ele>1769.2</ele>
        <time>2021-08-21T15:04:42Z</time>
      </trkpt>
      <trkpt lat="2.782399" lon="-75.07489">
        <ele>1769.3</ele>
        <time>2021-08-21T15:04:43Z</time>
      </trkpt>
      <trkpt lat="2.782391" lon="-75.0749">
        <ele>1769.4</ele>
        <time>2021-08-21T15:04:44Z</time>
      </trkpt>
      <trkpt lat="2.782384" lon="-75.074905">
        <ele>1769.5</ele>
        <time>2021-08-21T15:04:45Z</time>
      </trkpt>
      <trkpt lat="2.782376" lon="-75.074905">
        <ele>1769.6</ele>
        <time>2021-08-21T15:04:46Z</time>
      </trkpt>
      <trkpt lat="2.782368" lon="-75.07491">
        <ele>1769.8</ele>
        <time>2021-08-21T15:04:47Z</time>
      </trkpt>
      <trkpt lat="2.782361" lon="-75.07492">
        <ele>1769.9</ele>
        <time>2021-08-21T15:04:48Z</time>
      </trkpt>
      <trkpt lat="2.782354" lon="-75.07493">
        <ele>1770.0</ele>
        <time>2021-08-21T15:04:49Z</time>
      </trkpt>
      <trkpt lat="2.782347" lon="-75.074936">
        <ele>1770.1</ele>
        <time>2021-08-21T15:04:50Z</time>
      </trkpt>
      <trkpt lat="2.782339" lon="-75.07494">
        <ele>1770.3</ele>
        <time>2021-08-21T15:04:51Z</time>
      </trkpt>
      <trkpt lat="2.782333" lon="-75.07495">
        <ele>1770.4</ele>
        <time>2021-08-21T15:04:52Z</time>
      </trkpt>
      <trkpt lat="2.782327" lon="-75.07496">
        <ele>1770.5</ele>
        <time>2021-08-21T15:04:53Z</time>
      </trkpt>
      <trkpt lat="2.782319" lon="-75.07497">
        <ele>1770.6</ele>
        <time>2021-08-21T15:04:54Z</time>
      </trkpt>
      <trkpt lat="2.782311" lon="-75.074974">
        <ele>1770.7</ele>
        <time>2021-08-21T15:04:55Z</time>
      </trkpt>
      <trkpt lat="2.782303" lon="-75.07498">
        <ele>1770.9</ele>
        <time>2021-08-21T15:04:56Z</time>
      </trkpt>
      <trkpt lat="2.782295" lon="-75.07499">
        <ele>1771.0</ele>
        <time>2021-08-21T15:04:57Z</time>
      </trkpt>
      <trkpt lat="2.782287" lon="-75.075">
        <ele>1771.1</ele>
        <time>2021-08-21T15:04:58Z</time>
      </trkpt>
      <trkpt lat="2.782281" lon="-75.075005">
        <ele>1771.2</ele>
        <time>2021-08-21T15:04:59Z</time>
      </trkpt>
      <trkpt lat="2.782274" lon="-75.07501">
        <ele>1771.3</ele>
        <time>2021-08-21T15:05:00Z</time>
      </trkpt>
      <trkpt lat="2.782268" lon="-75.07502">
        <ele>1771.5</ele>
        <time>2021-08-21T15:05:01Z</time>
      </trkpt>
      <trkpt lat="2.782261" lon="-75.07503">
        <ele>1771.6</ele>
        <time>2021-08-21T15:05:02Z</time>
      </trkpt>
      <trkpt lat="2.782254" lon="-75.075035">
        <ele>1771.7</ele>
        <time>2021-08-21T15:05:03Z</time>
      </trkpt>
      <trkpt lat="2.782248" lon="-75.07504">
        <ele>1771.8</ele>
        <time>2021-08-21T15:05:04Z</time>
      </trkpt>
      <trkpt lat="2.78224" lon="-75.07505">
        <ele>1771.9</ele>
        <time>2021-08-21T15:05:05Z</time>
      </trkpt>
      <trkpt lat="2.782233" lon="-75.07506">
        <ele>1772.1</ele>
        <time>2021-08-21T15:05:06Z</time>
      </trkpt>
      <trkpt lat="2.782225" lon="-75.075066">
        <ele>1772.2</ele>
        <time>2021-08-21T15:05:07Z</time>
      </trkpt>
      <trkpt lat="2.782217" lon="-75.07507">
        <ele>1772.3</ele>
        <time>2021-08-21T15:05:08Z</time>
      </trkpt>
      <trkpt lat="2.78221" lon="-75.07508">
        <ele>1772.4</ele>
        <time>2021-08-21T15:05:09Z</time>
      </trkpt>
      <trkpt lat="2.782202" lon="-75.07509">
        <ele>1772.5</ele>
        <time>2021-08-21T15:05:10Z</time>
      </trkpt>
      <trkpt lat="2.782193" lon="-75.075096">
        <ele>1772.6</ele>
        <time>2021-08-21T15:05:11Z</time>
      </trkpt>
      <trkpt lat="2.782184" lon="-75.0751">
        <ele>1772.8</ele>
        <time>2021-08-21T15:05:12Z</time>
      </trkpt>
      <trkpt lat="2.782175" lon="-75.0751">
        <ele>1772.9</ele>
        <time>2021-08-21T15:05:13Z</time>
      </trkpt>
      <trkpt lat="2.782165" lon="-75.07511">
        <ele>1773.0</ele>
        <time>2021-08-21T15:05:14Z</time>
      </trkpt>
      <trkpt lat="2.782154" lon="-75.07512">
        <ele>1773.1</ele>
        <time>2021-08-21T15:05:15Z</time>
      </trkpt>
      <trkpt lat="2.782143" lon="-75.07513">
        <ele>1773.2</ele>
        <time>2021-08-21T15:05:16Z</time>
      </trkpt>
      <trkpt lat="2.782132" lon="-75.07513">
        <ele>1773.4</ele>
        <time>2021-08-21T15:05:17Z</time>
      </trkpt>
      <trkpt lat="2.782121" lon="-75.075134">
        <ele>1773.5</ele>
        <time>2021-08-21T15:05:18Z</time>
      </trkpt>
      <trkpt lat="2.78211" lon="-75.07514">
        <ele>1773.6</ele>
        <time>2021-08-21T15:05:19Z</time>
      </trkpt>
      <trkpt lat="2.782099" lon="-75.07515">
        <ele>1773.8</ele>
        <time>2021-08-21T15:05:20Z</time>
      </trkpt>
      <trkpt lat="2.782089" lon="-75.07516">
        <ele>1773.9</ele>
        <time>2021-08-21T15:05:21Z</time>
      </trkpt>
      <trkpt lat="2.782079" lon="-75.075165">
        <ele>1774.0</ele>
        <time>2021-08-21T15:05:22Z</time>
      </trkpt>
      <trkpt lat="2.78207" lon="-75.075165">
        <ele>1774.1</ele>
        <time>2021-08-21T15:05:23Z</time>
      </trkpt>
      <trkpt lat="2.78206" lon="-75.07517">
        <ele>1774.2</ele>
        <time>2021-08-21T15:05:24Z</time>
      </trkpt>
      <trkpt lat="2.782051" lon="-75.07517">
        <ele>1774.3</ele>
        <time>2021-08-21T15:05:25Z</time>
      </trkpt>
      <trkpt lat="2.78204" lon="-75.07518">
        <ele>1774.5</ele>
        <time>2021-08-21T15:05:26Z</time>
      </trkpt>
      <trkpt lat="2.782031" lon="-75.07519">
        <ele>1774.6</ele>
        <time>2021-08-21T15:05:27Z</time>
      </trkpt>
      <trkpt lat="2.782022" lon="-75.075195">
        <ele>1774.7</ele>
        <time>2021-08-21T15:05:28Z</time>
      </trkpt>
      <trkpt lat="2.782012" lon="-75.0752">
        <ele>1774.9</ele>
        <time>2021-08-21T15:05:29Z</time>
      </trkpt>
      <trkpt lat="2.782002" lon="-75.07521">
        <ele>1775.0</ele>
        <time>2021-08-21T15:05:30Z</time>
      </trkpt>
      <trkpt lat="2.781992" lon="-75.07522">
        <ele>1775.1</ele>
        <time>2021-08-21T15:05:31Z</time>
      </trkpt>
      <trkpt lat="2.781981" lon="-75.07522">
        <ele>1775.3</ele>
        <time>2021-08-21T15:05:32Z</time>
      </trkpt>
      <trkpt lat="2.781971" lon="-75.075226">
        <ele>1775.4</ele>
        <time>2021-08-21T15:05:33Z</time>
      </trkpt>
      <trkpt lat="2.781961" lon="-75.07523">
        <ele>1775.6</ele>
        <time>2021-08-21T15:05:34Z</time>
      </trkpt>
      <trkpt lat="2.781952" lon="-75.07524">
        <ele>1775.7</ele>
        <time>2021-08-21T15:05:35Z</time>
      </trkpt>
      <trkpt lat="2.781942" lon="-75.07525">
        <ele>1775.9</ele>
        <time>2021-08-21T15:05:36Z</time>
      </trkpt>
      <trkpt lat="2.781933" lon="-75.07526">
        <ele>1776.0</ele>
        <time>2021-08-21T15:05:37Z</time>
      </trkpt>
      <trkpt lat="2.781924" lon="-75.075264">
        <ele>1776.2</ele>
        <time>2021-08-21T15:05:38Z</time>
      </trkpt>
      <trkpt lat="2.781915" lon="-75.07527">
        <ele>1776.3</ele>
        <time>2021-08-21T15:05:39Z</time>
      </trkpt>
      <trkpt lat="2.781907" lon="-75.07528">
        <ele>1776.5</ele>
        <time>2021-08-21T15:05:40Z</time>
      </trkpt>
      <trkpt lat="2.781898" lon="-75.07529">
        <ele>1776.6</ele>
        <time>2021-08-21T15:05:41Z</time>
      </trkpt>
      <trkpt lat="2.781889" lon="-75.075294">
        <ele>1776.8</ele>
        <time>2021-08-21T15:05:42Z</time>
      </trkpt>
      <trkpt lat="2.781881" lon="-75.0753">
        <ele>1776.9</ele>
        <time>2021-08-21T15:05:43Z</time>
      </trkpt>
      <trkpt lat="2.781872" lon="-75.07531">
        <ele>1777.1</ele>
        <time>2021-08-21T15:05:44Z</time>
      </trkpt>
      <trkpt lat="2.781864" lon="-75.07532">
        <ele>1777.2</ele>
        <time>2021-08-21T15:05:45Z</time>
      </trkpt>
      <trkpt lat="2.781855" lon="-75.07532">
        <ele>1777.4</ele>
        <time>2021-08-21T15:05:46Z</time>
      </trkpt>
      <trkpt lat="2.781847" lon="-75.075325">
        <ele>1777.5</ele>
        <time>2021-08-21T15:05:47Z</time>
      </trkpt>
      <trkpt lat="2.78184" lon="-75.07533">
        <ele>1777.6</ele>
        <time>2021-08-21T15:05:48Z</time>
      </trkpt>
      <trkpt lat="2.781832" lon="-75.07533">
        <ele>1777.7</ele>
        <time>2021-08-21T15:05:49Z</time>
      </trkpt>
      <trkpt lat="2.781823" lon="-75.07534">
        <ele>1777.8</ele>
        <time>2021-08-21T15:05:50Z</time>
      </trkpt>
      <trkpt lat="2.781814" lon="-75.07535">
        <ele>1778.0</ele>
        <time>2021-08-21T15:05:51Z</time>
      </trkpt>
      <trkpt lat="2.781805" lon="-75.07535">
        <ele>1778.1</ele>
        <time>2021-08-21T15:05:52Z</time>
      </trkpt>
      <trkpt lat="2.781796" lon="-75.075356">
        <ele>1778.3</ele>
        <time>2021-08-21T15:05:53Z</time>
      </trkpt>
      <trkpt lat="2.781786" lon="-75.07536">
        <ele>1778.4</ele>
        <time>2021-08-21T15:05:54Z</time>
      </trkpt>
      <trkpt lat="2.781776" lon="-75.07537">
        <ele>1778.6</ele>
        <time>2021-08-21T15:05:55Z</time>
      </trkpt>
      <trkpt lat="2.781766" lon="-75.07538">
        <ele>1778.7</ele>
        <time>2021-08-21T15:05:56Z</time>
      </trkpt>
      <trkpt lat="2.781756" lon="-75.07538">
        <ele>1778.9</ele>
        <time>2021-08-21T15:05:57Z</time>
      </trkpt>
      <trkpt lat="2.781747" lon="-75.07538">
        <ele>1779.0</ele>
        <time>2021-08-21T15:05:58Z</time>
      </trkpt>
      <trkpt lat="2.781736" lon="-75.07537">
        <ele>1779.2</ele>
        <time>2021-08-21T15:05:59Z</time>
      </trkpt>
      <trkpt lat="2.781726" lon="-75.07537">
        <ele>1779.3</ele>
        <time>2021-08-21T15:06:00Z</time>
      </trkpt>
      <trkpt lat="2.781715" lon="-75.07537">
        <ele>1779.4</ele>
        <time>2021-08-21T15:06:01Z</time>
      </trkpt>
      <trkpt lat="2.781702" lon="-75.07537">
        <ele>1779.6</ele>
        <time>2021-08-21T15:06:02Z</time>
      </trkpt>
      <trkpt lat="2.781691" lon="-75.07536">
        <ele>1779.8</ele>
        <time>2021-08-21T15:06:03Z</time>
      </trkpt>
      <trkpt lat="2.781678" lon="-75.07536">
        <ele>1780.0</ele>
        <time>2021-08-21T15:06:04Z</time>
      </trkpt>
      <trkpt lat="2.781666" lon="-75.07536">
        <ele>1780.2</ele>
        <time>2021-08-21T15:06:05Z</time>
      </trkpt>
      <trkpt lat="2.781654" lon="-75.075356">
        <ele>1780.3</ele>
        <time>2021-08-21T15:06:06Z</time>
      </trkpt>
      <trkpt lat="2.781643" lon="-75.075356">
        <ele>1780.5</ele>
        <time>2021-08-21T15:06:07Z</time>
      </trkpt>
      <trkpt lat="2.781634" lon="-75.07535">
        <ele>1780.7</ele>
        <time>2021-08-21T15:06:08Z</time>
      </trkpt>
      <trkpt lat="2.781625" lon="-75.07535">
        <ele>1780.8</ele>
        <time>2021-08-21T15:06:09Z</time>
      </trkpt>
      <trkpt lat="2.781615" lon="-75.07534">
        <ele>1780.9</ele>
        <time>2021-08-21T15:06:10Z</time>
      </trkpt>
      <trkpt lat="2.781605" lon="-75.07534">
        <ele>1781.1</ele>
        <time>2021-08-21T15:06:11Z</time>
      </trkpt>
      <trkpt lat="2.781595" lon="-75.07534">
        <ele>1781.2</ele>
        <time>2021-08-21T15:06:12Z</time>
      </trkpt>
      <trkpt lat="2.781584" lon="-75.07534">
        <ele>1781.4</ele>
        <time>2021-08-21T15:06:13Z</time>
      </trkpt>
      <trkpt lat="2.781573" lon="-75.07534">
        <ele>1781.6</ele>
        <time>2021-08-21T15:06:14Z</time>
      </trkpt>
      <trkpt lat="2.781563" lon="-75.07534">
        <ele>1781.7</ele>
        <time>2021-08-21T15:06:15Z</time>
      </trkpt>
      <trkpt lat="2.781551" lon="-75.07534">
        <ele>1781.9</ele>
        <time>2021-08-21T15:06:16Z</time>
      </trkpt>
      <trkpt lat="2.78154" lon="-75.07534">
        <ele>1782.0</ele>
        <time>2021-08-21T15:06:17Z</time>
      </trkpt>
      <trkpt lat="2.781529" lon="-75.07534">
        <ele>1782.2</ele>
        <time>2021-08-21T15:06:18Z</time>
      </trkpt>
      <trkpt lat="2.781519" lon="-75.07535">
        <ele>1782.4</ele>
        <time>2021-08-21T15:06:19Z</time>
      </trkpt>
      <trkpt lat="2.781509" lon="-75.07535">
        <ele>1782.5</ele>
        <time>2021-08-21T15:06:20Z</time>
      </trkpt>
      <trkpt lat="2.7815" lon="-75.075356">
        <ele>1783.2</ele>
        <time>2021-08-21T15:06:21Z</time>
      </trkpt>
      <trkpt lat="2.781483" lon="-75.07537">
        <ele>1783.4</ele>
        <time>2021-08-21T15:06:22Z</time>
      </trkpt>
      <trkpt lat="2.781476" lon="-75.07538">
        <ele>1783.4</ele>
        <time>2021-08-21T15:06:23Z</time>
      </trkpt>
      <trkpt lat="2.781469" lon="-75.075386">
        <ele>1783.5</ele>
        <time>2021-08-21T15:06:24Z</time>
      </trkpt>
      <trkpt lat="2.781462" lon="-75.07539">
        <ele>1783.6</ele>
        <time>2021-08-21T15:06:25Z</time>
      </trkpt>
      <trkpt lat="2.781454" lon="-75.0754">
        <ele>1783.7</ele>
        <time>2021-08-21T15:06:26Z</time>
      </trkpt>
      <trkpt lat="2.781447" lon="-75.0754">
        <ele>1783.8</ele>
        <time>2021-08-21T15:06:27Z</time>
      </trkpt>
      <trkpt lat="2.78144" lon="-75.07541">
        <ele>1783.9</ele>
        <time>2021-08-21T15:06:28Z</time>
      </trkpt>
      <trkpt lat="2.781433" lon="-75.07542">
        <ele>1783.9</ele>
        <time>2021-08-21T15:06:29Z</time>
      </trkpt>
      <trkpt lat="2.781426" lon="-75.075424">
        <ele>1784.0</ele>
        <time>2021-08-21T15:06:30Z</time>
      </trkpt>
      <trkpt lat="2.781419" lon="-75.07543">
        <ele>1784.1</ele>
        <time>2021-08-21T15:06:31Z</time>
      </trkpt>
      <trkpt lat="2.781412" lon="-75.07544">
        <ele>1784.2</ele>
        <time>2021-08-21T15:06:32Z</time>
      </trkpt>
      <trkpt lat="2.781405" lon="-75.07545">
        <ele>1784.3</ele>
        <time>2021-08-21T15:06:33Z</time>
      </trkpt>
      <trkpt lat="2.781398" lon="-75.075455">
        <ele>1784.4</ele>
        <time>2021-08-21T15:06:34Z</time>
      </trkpt>
      <trkpt lat="2.781391" lon="-75.07546">
        <ele>1784.4</ele>
        <time>2021-08-21T15:06:35Z</time>
      </trkpt>
      <trkpt lat="2.781383" lon="-75.07547">
        <ele>1784.5</ele>
        <time>2021-08-21T15:06:36Z</time>
      </trkpt>
      <trkpt lat="2.781376" lon="-75.07548">
        <ele>1784.6</ele>
        <time>2021-08-21T15:06:37Z</time>
      </trkpt>
      <trkpt lat="2.781369" lon="-75.07548">
        <ele>1784.7</ele>
        <time>2021-08-21T15:06:38Z</time>
      </trkpt>
      <trkpt lat="2.781362" lon="-75.075485">
        <ele>1784.8</ele>
        <time>2021-08-21T15:06:39Z</time>
      </trkpt>
      <trkpt lat="2.781355" lon="-75.07549">
        <ele>1784.9</ele>
        <time>2021-08-21T15:06:40Z</time>
      </trkpt>
      <trkpt lat="2.781348" lon="-75.0755">
        <ele>1784.9</ele>
        <time>2021-08-21T15:06:41Z</time>
      </trkpt>
      <trkpt lat="2.781341" lon="-75.07551">
        <ele>1785.0</ele>
        <time>2021-08-21T15:06:42Z</time>
      </trkpt>
      <trkpt lat="2.781334" lon="-75.075516">
        <ele>1785.1</ele>
        <time>2021-08-21T15:06:43Z</time>
      </trkpt>
      <trkpt lat="2.781327" lon="-75.07552">
        <ele>1785.2</ele>
        <time>2021-08-21T15:06:44Z</time>
      </trkpt>
      <trkpt lat="2.781319" lon="-75.07553">
        <ele>1785.3</ele>
        <time>2021-08-21T15:06:45Z</time>
      </trkpt>
      <trkpt lat="2.781312" lon="-75.07554">
        <ele>1785.4</ele>
        <time>2021-08-21T15:06:46Z</time>
      </trkpt>
      <trkpt lat="2.781305" lon="-75.07555">
        <ele>1785.5</ele>
        <time>2021-08-21T15:06:47Z</time>
      </trkpt>
      <trkpt lat="2.781298" lon="-75.075554">
        <ele>1785.5</ele>
        <time>2021-08-21T15:06:48Z</time>
      </trkpt>
      <trkpt lat="2.781291" lon="-75.07556">
        <ele>1785.6</ele>
        <time>2021-08-21T15:06:49Z</time>
      </trkpt>
      <trkpt lat="2.781284" lon="-75.07556">
        <ele>1785.7</ele>
        <time>2021-08-21T15:06:50Z</time>
      </trkpt>
      <trkpt lat="2.781277" lon="-75.07557">
        <ele>1785.8</ele>
        <time>2021-08-21T15:06:51Z</time>
      </trkpt>
      <trkpt lat="2.78127" lon="-75.07558">
        <ele>1785.9</ele>
        <time>2021-08-21T15:06:52Z</time>
      </trkpt>
      <trkpt lat="2.781263" lon="-75.075584">
        <ele>1786.0</ele>
        <time>2021-08-21T15:06:53Z</time>
      </trkpt>
      <trkpt lat="2.781255" lon="-75.07559">
        <ele>1786.0</ele>
        <time>2021-08-21T15:06:54Z</time>
      </trkpt>
      <trkpt lat="2.781248" lon="-75.0756">
        <ele>1786.1</ele>
        <time>2021-08-21T15:06:55Z</time>
      </trkpt>
      <trkpt lat="2.781241" lon="-75.07561">
        <ele>1786.2</ele>
        <time>2021-08-21T15:06:56Z</time>
      </trkpt>
      <trkpt lat="2.781234" lon="-75.075615">
        <ele>1786.3</ele>
        <time>2021-08-21T15:06:57Z</time>
      </trkpt>
      <trkpt lat="2.781227" lon="-75.07562">
        <ele>1786.4</ele>
        <time>2021-08-21T15:06:58Z</time>
      </trkpt>
      <trkpt lat="2.78122" lon="-75.07563">
        <ele>1786.5</ele>
        <time>2021-08-21T15:06:59Z</time>
      </trkpt>
      <trkpt lat="2.781213" lon="-75.07563">
        <ele>1786.5</ele>
        <time>2021-08-21T15:07:00Z</time>
      </trkpt>
      <trkpt lat="2.781206" lon="-75.07564">
        <ele>1786.6</ele>
        <time>2021-08-21T15:07:01Z</time>
      </trkpt>
      <trkpt lat="2.781199" lon="-75.075645">
        <ele>1786.7</ele>
        <time>2021-08-21T15:07:02Z</time>
      </trkpt>
      <trkpt lat="2.781192" lon="-75.07565">
        <ele>1786.8</ele>
        <time>2021-08-21T15:07:03Z</time>
      </trkpt>
      <trkpt lat="2.781184" lon="-75.07566">
        <ele>1786.9</ele>
        <time>2021-08-21T15:07:04Z</time>
      </trkpt>
      <trkpt lat="2.781177" lon="-75.07567">
        <ele>1787.0</ele>
        <time>2021-08-21T15:07:05Z</time>
      </trkpt>
      <trkpt lat="2.78117" lon="-75.075676">
        <ele>1787.0</ele>
        <time>2021-08-21T15:07:06Z</time>
      </trkpt>
      <trkpt lat="2.781156" lon="-75.07569">
        <ele>1787.2</ele>
        <time>2021-08-21T15:07:07Z</time>
      </trkpt>
      <trkpt lat="2.781163" lon="-75.07568">
        <ele>1787.1</ele>
        <time>2021-08-21T15:07:07Z</time>
      </trkpt>
      <trkpt lat="2.781149" lon="-75.0757">
        <ele>1787.3</ele>
        <time>2021-08-21T15:07:08Z</time>
      </trkpt>
      <trkpt lat="2.781142" lon="-75.07571">
        <ele>1787.4</ele>
        <time>2021-08-21T15:07:09Z</time>
      </trkpt>
      <trkpt lat="2.781135" lon="-75.07571">
        <ele>1787.4</ele>
        <time>2021-08-21T15:07:10Z</time>
      </trkpt>
      <trkpt lat="2.781128" lon="-75.075714">
        <ele>1787.5</ele>
        <time>2021-08-21T15:07:11Z</time>
      </trkpt>
      <trkpt lat="2.781122" lon="-75.07572">
        <ele>1787.6</ele>
        <time>2021-08-21T15:07:12Z</time>
      </trkpt>
      <trkpt lat="2.781115" lon="-75.07573">
        <ele>1787.7</ele>
        <time>2021-08-21T15:07:13Z</time>
      </trkpt>
      <trkpt lat="2.781108" lon="-75.07574">
        <ele>1787.8</ele>
        <time>2021-08-21T15:07:14Z</time>
      </trkpt>
      <trkpt lat="2.781101" lon="-75.075745">
        <ele>1787.8</ele>
        <time>2021-08-21T15:07:15Z</time>
      </trkpt>
      <trkpt lat="2.781093" lon="-75.075745">
        <ele>1787.9</ele>
        <time>2021-08-21T15:07:16Z</time>
      </trkpt>
      <trkpt lat="2.781085" lon="-75.07575">
        <ele>1788.0</ele>
        <time>2021-08-21T15:07:17Z</time>
      </trkpt>
      <trkpt lat="2.781077" lon="-75.07576">
        <ele>1788.1</ele>
        <time>2021-08-21T15:07:18Z</time>
      </trkpt>
      <trkpt lat="2.78107" lon="-75.07577">
        <ele>1788.2</ele>
        <time>2021-08-21T15:07:19Z</time>
      </trkpt>
      <trkpt lat="2.781063" lon="-75.075775">
        <ele>1788.3</ele>
        <time>2021-08-21T15:07:20Z</time>
      </trkpt>
      <trkpt lat="2.781056" lon="-75.07578">
        <ele>1788.3</ele>
        <time>2021-08-21T15:07:21Z</time>
      </trkpt>
      <trkpt lat="2.781048" lon="-75.07578">
        <ele>1788.4</ele>
        <time>2021-08-21T15:07:22Z</time>
      </trkpt>
      <trkpt lat="2.78104" lon="-75.07579">
        <ele>1788.5</ele>
        <time>2021-08-21T15:07:23Z</time>
      </trkpt>
      <trkpt lat="2.781033" lon="-75.0758">
        <ele>1788.6</ele>
        <time>2021-08-21T15:07:24Z</time>
      </trkpt>
      <trkpt lat="2.781024" lon="-75.075806">
        <ele>1788.7</ele>
        <time>2021-08-21T15:07:25Z</time>
      </trkpt>
      <trkpt lat="2.781016" lon="-75.07581">
        <ele>1788.8</ele>
        <time>2021-08-21T15:07:26Z</time>
      </trkpt>
      <trkpt lat="2.781007" lon="-75.07582">
        <ele>1788.9</ele>
        <time>2021-08-21T15:07:27Z</time>
      </trkpt>
      <trkpt lat="2.780997" lon="-75.07583">
        <ele>1789.0</ele>
        <time>2021-08-21T15:07:28Z</time>
      </trkpt>
      <trkpt lat="2.780986" lon="-75.075836">
        <ele>1789.1</ele>
        <time>2021-08-21T15:07:29Z</time>
      </trkpt>
      <trkpt lat="2.780976" lon="-75.07584">
        <ele>1789.2</ele>
        <time>2021-08-21T15:07:30Z</time>
      </trkpt>
      <trkpt lat="2.780966" lon="-75.07585">
        <ele>1789.3</ele>
        <time>2021-08-21T15:07:31Z</time>
      </trkpt>
      <trkpt lat="2.780956" lon="-75.07586">
        <ele>1789.4</ele>
        <time>2021-08-21T15:07:32Z</time>
      </trkpt>
      <trkpt lat="2.780945" lon="-75.07587">
        <ele>1789.5</ele>
        <time>2021-08-21T15:07:33Z</time>
      </trkpt>
      <trkpt lat="2.780934" lon="-75.075874">
        <ele>1789.6</ele>
        <time>2021-08-21T15:07:34Z</time>
      </trkpt>
      <trkpt lat="2.780924" lon="-75.07588">
        <ele>1789.7</ele>
        <time>2021-08-21T15:07:35Z</time>
      </trkpt>
      <trkpt lat="2.780914" lon="-75.07589">
        <ele>1789.9</ele>
        <time>2021-08-21T15:07:36Z</time>
      </trkpt>
      <trkpt lat="2.780904" lon="-75.0759">
        <ele>1790.0</ele>
        <time>2021-08-21T15:07:37Z</time>
      </trkpt>
      <trkpt lat="2.780894" lon="-75.075905">
        <ele>1790.1</ele>
        <time>2021-08-21T15:07:38Z</time>
      </trkpt>
      <trkpt lat="2.780884" lon="-75.07591">
        <ele>1790.2</ele>
        <time>2021-08-21T15:07:39Z</time>
      </trkpt>
      <trkpt lat="2.780875" lon="-75.07592">
        <ele>1790.3</ele>
        <time>2021-08-21T15:07:40Z</time>
      </trkpt>
      <trkpt lat="2.780866" lon="-75.07593">
        <ele>1790.4</ele>
        <time>2021-08-21T15:07:41Z</time>
      </trkpt>
      <trkpt lat="2.780858" lon="-75.075935">
        <ele>1790.5</ele>
        <time>2021-08-21T15:07:42Z</time>
      </trkpt>
      <trkpt lat="2.78085" lon="-75.07594">
        <ele>1790.6</ele>
        <time>2021-08-21T15:07:43Z</time>
      </trkpt>
      <trkpt lat="2.780841" lon="-75.07595">
        <ele>1790.7</ele>
        <time>2021-08-21T15:07:44Z</time>
      </trkpt>
      <trkpt lat="2.780831" lon="-75.07595">
        <ele>1790.7</ele>
        <time>2021-08-21T15:07:45Z</time>
      </trkpt>
      <trkpt lat="2.780823" lon="-75.07596">
        <ele>1790.8</ele>
        <time>2021-08-21T15:07:46Z</time>
      </trkpt>
      <trkpt lat="2.780815" lon="-75.075966">
        <ele>1790.9</ele>
        <time>2021-08-21T15:07:47Z</time>
      </trkpt>
      <trkpt lat="2.780807" lon="-75.075966">
        <ele>1791.0</ele>
        <time>2021-08-21T15:07:48Z</time>
      </trkpt>
      <trkpt lat="2.780799" lon="-75.07597">
        <ele>1791.1</ele>
        <time>2021-08-21T15:07:49Z</time>
      </trkpt>
      <trkpt lat="2.78079" lon="-75.07597">
        <ele>1791.1</ele>
        <time>2021-08-21T15:07:50Z</time>
      </trkpt>
      <trkpt lat="2.780779" lon="-75.07598">
        <ele>1791.2</ele>
        <time>2021-08-21T15:07:51Z</time>
      </trkpt>
      <trkpt lat="2.780767" lon="-75.07599">
        <ele>1791.4</ele>
        <time>2021-08-21T15:07:52Z</time>
      </trkpt>
      <trkpt lat="2.780757" lon="-75.076">
        <ele>1791.5</ele>
        <time>2021-08-21T15:07:53Z</time>
      </trkpt>
      <trkpt lat="2.780745" lon="-75.076004">
        <ele>1791.6</ele>
        <time>2021-08-21T15:07:54Z</time>
      </trkpt>
      <trkpt lat="2.780735" lon="-75.07601">
        <ele>1791.7</ele>
        <time>2021-08-21T15:07:55Z</time>
      </trkpt>
      <trkpt lat="2.780725" lon="-75.07602">
        <ele>1791.8</ele>
        <time>2021-08-21T15:07:56Z</time>
      </trkpt>
      <trkpt lat="2.780714" lon="-75.07603">
        <ele>1791.9</ele>
        <time>2021-08-21T15:07:57Z</time>
      </trkpt>
      <trkpt lat="2.780705" lon="-75.076035">
        <ele>1792.0</ele>
        <time>2021-08-21T15:07:58Z</time>
      </trkpt>
      <trkpt lat="2.780697" lon="-75.07604">
        <ele>1792.1</ele>
        <time>2021-08-21T15:07:59Z</time>
      </trkpt>
      <trkpt lat="2.780687" lon="-75.07605">
        <ele>1792.2</ele>
        <time>2021-08-21T15:08:00Z</time>
      </trkpt>
      <trkpt lat="2.780678" lon="-75.07606">
        <ele>1792.3</ele>
        <time>2021-08-21T15:08:01Z</time>
      </trkpt>
      <trkpt lat="2.780667" lon="-75.07606">
        <ele>1792.4</ele>
        <time>2021-08-21T15:08:02Z</time>
      </trkpt>
      <trkpt lat="2.780657" lon="-75.076065">
        <ele>1792.5</ele>
        <time>2021-08-21T15:08:03Z</time>
      </trkpt>
      <trkpt lat="2.780647" lon="-75.07607">
        <ele>1792.6</ele>
        <time>2021-08-21T15:08:04Z</time>
      </trkpt>
      <trkpt lat="2.780638" lon="-75.07607">
        <ele>1792.7</ele>
        <time>2021-08-21T15:08:05Z</time>
      </trkpt>
      <trkpt lat="2.780629" lon="-75.07608">
        <ele>1792.8</ele>
        <time>2021-08-21T15:08:06Z</time>
      </trkpt>
      <trkpt lat="2.780621" lon="-75.07609">
        <ele>1792.9</ele>
        <time>2021-08-21T15:08:07Z</time>
      </trkpt>
      <trkpt lat="2.780612" lon="-75.076096">
        <ele>1793.0</ele>
        <time>2021-08-21T15:08:08Z</time>
      </trkpt>
      <trkpt lat="2.780604" lon="-75.0761">
        <ele>1793.0</ele>
        <time>2021-08-21T15:08:09Z</time>
      </trkpt>
      <trkpt lat="2.780596" lon="-75.07611">
        <ele>1793.1</ele>
        <time>2021-08-21T15:08:10Z</time>
      </trkpt>
      <trkpt lat="2.780587" lon="-75.07612">
        <ele>1793.2</ele>
        <time>2021-08-21T15:08:11Z</time>
      </trkpt>
      <trkpt lat="2.780578" lon="-75.076126">
        <ele>1793.3</ele>
        <time>2021-08-21T15:08:12Z</time>
      </trkpt>
      <trkpt lat="2.78057" lon="-75.07613">
        <ele>1793.4</ele>
        <time>2021-08-21T15:08:13Z</time>
      </trkpt>
      <trkpt lat="2.78056" lon="-75.07614">
        <ele>1793.5</ele>
        <time>2021-08-21T15:08:14Z</time>
      </trkpt>
      <trkpt lat="2.780551" lon="-75.07615">
        <ele>1793.6</ele>
        <time>2021-08-21T15:08:15Z</time>
      </trkpt>
      <trkpt lat="2.780541" lon="-75.07616">
        <ele>1793.8</ele>
        <time>2021-08-21T15:08:16Z</time>
      </trkpt>
      <trkpt lat="2.780532" lon="-75.076164">
        <ele>1793.9</ele>
        <time>2021-08-21T15:08:17Z</time>
      </trkpt>
      <trkpt lat="2.780522" lon="-75.07617">
        <ele>1794.0</ele>
        <time>2021-08-21T15:08:18Z</time>
      </trkpt>
      <trkpt lat="2.780511" lon="-75.07618">
        <ele>1794.1</ele>
        <time>2021-08-21T15:08:19Z</time>
      </trkpt>
      <trkpt lat="2.780502" lon="-75.07619">
        <ele>1794.2</ele>
        <time>2021-08-21T15:08:20Z</time>
      </trkpt>
      <trkpt lat="2.780491" lon="-75.076195">
        <ele>1794.3</ele>
        <time>2021-08-21T15:08:21Z</time>
      </trkpt>
      <trkpt lat="2.780481" lon="-75.0762">
        <ele>1794.4</ele>
        <time>2021-08-21T15:08:22Z</time>
      </trkpt>
      <trkpt lat="2.78047" lon="-75.07621">
        <ele>1794.5</ele>
        <time>2021-08-21T15:08:23Z</time>
      </trkpt>
      <trkpt lat="2.780459" lon="-75.07622">
        <ele>1794.6</ele>
        <time>2021-08-21T15:08:24Z</time>
      </trkpt>
      <trkpt lat="2.780447" lon="-75.076225">
        <ele>1794.7</ele>
        <time>2021-08-21T15:08:25Z</time>
      </trkpt>
      <trkpt lat="2.780435" lon="-75.076225">
        <ele>1794.8</ele>
        <time>2021-08-21T15:08:26Z</time>
      </trkpt>
      <trkpt lat="2.780423" lon="-75.07623">
        <ele>1794.9</ele>
        <time>2021-08-21T15:08:27Z</time>
      </trkpt>
      <trkpt lat="2.780413" lon="-75.07624">
        <ele>1795.0</ele>
        <time>2021-08-21T15:08:28Z</time>
      </trkpt>
      <trkpt lat="2.780404" lon="-75.07625">
        <ele>1795.1</ele>
        <time>2021-08-21T15:08:29Z</time>
      </trkpt>
      <trkpt lat="2.780396" lon="-75.076256">
        <ele>1795.2</ele>
        <time>2021-08-21T15:08:30Z</time>
      </trkpt>
      <trkpt lat="2.780389" lon="-75.07626">
        <ele>1795.3</ele>
        <time>2021-08-21T15:08:31Z</time>
      </trkpt>
      <trkpt lat="2.780382" lon="-75.07627">
        <ele>1795.4</ele>
        <time>2021-08-21T15:08:32Z</time>
      </trkpt>
      <trkpt lat="2.780374" lon="-75.07627">
        <ele>1795.5</ele>
        <time>2021-08-21T15:08:33Z</time>
      </trkpt>
      <trkpt lat="2.780365" lon="-75.07628">
        <ele>1795.6</ele>
        <time>2021-08-21T15:08:34Z</time>
      </trkpt>
      <trkpt lat="2.780357" lon="-75.07628">
        <ele>1795.6</ele>
        <time>2021-08-21T15:08:35Z</time>
      </trkpt>
      <trkpt lat="2.780349" lon="-75.07629">
        <ele>1795.7</ele>
        <time>2021-08-21T15:08:36Z</time>
      </trkpt>
      <trkpt lat="2.78034" lon="-75.07629">
        <ele>1795.8</ele>
        <time>2021-08-21T15:08:37Z</time>
      </trkpt>
      <trkpt lat="2.780333" lon="-75.076294">
        <ele>1795.9</ele>
        <time>2021-08-21T15:08:38Z</time>
      </trkpt>
      <trkpt lat="2.780325" lon="-75.0763">
        <ele>1796.0</ele>
        <time>2021-08-21T15:08:39Z</time>
      </trkpt>
      <trkpt lat="2.780318" lon="-75.07631">
        <ele>1796.0</ele>
        <time>2021-08-21T15:08:40Z</time>
      </trkpt>
      <trkpt lat="2.780311" lon="-75.07631">
        <ele>1796.1</ele>
        <time>2021-08-21T15:08:41Z</time>
      </trkpt>
      <trkpt lat="2.780303" lon="-75.07632">
        <ele>1796.2</ele>
        <time>2021-08-21T15:08:42Z</time>
      </trkpt>
      <trkpt lat="2.780293" lon="-75.076324">
        <ele>1796.3</ele>
        <time>2021-08-21T15:08:43Z</time>
      </trkpt>
      <trkpt lat="2.780284" lon="-75.07633">
        <ele>1796.4</ele>
        <time>2021-08-21T15:08:44Z</time>
      </trkpt>
      <trkpt lat="2.780273" lon="-75.07634">
        <ele>1796.5</ele>
        <time>2021-08-21T15:08:45Z</time>
      </trkpt>
      <trkpt lat="2.780263" lon="-75.07634">
        <ele>1796.6</ele>
        <time>2021-08-21T15:08:46Z</time>
      </trkpt>
      <trkpt lat="2.780251" lon="-75.07635">
        <ele>1796.7</ele>
        <time>2021-08-21T15:08:47Z</time>
      </trkpt>
      <trkpt lat="2.780242" lon="-75.07635">
        <ele>1796.8</ele>
        <time>2021-08-21T15:08:48Z</time>
      </trkpt>
      <trkpt lat="2.780232" lon="-75.076355">
        <ele>1796.9</ele>
        <time>2021-08-21T15:08:49Z</time>
      </trkpt>
      <trkpt lat="2.780222" lon="-75.07636">
        <ele>1797.0</ele>
        <time>2021-08-21T15:08:50Z</time>
      </trkpt>
      <trkpt lat="2.780212" lon="-75.07636">
        <ele>1797.0</ele>
        <time>2021-08-21T15:08:51Z</time>
      </trkpt>
      <trkpt lat="2.780201" lon="-75.07637">
        <ele>1797.2</ele>
        <time>2021-08-21T15:08:52Z</time>
      </trkpt>
      <trkpt lat="2.78019" lon="-75.07637">
        <ele>1797.3</ele>
        <time>2021-08-21T15:08:53Z</time>
      </trkpt>
      <trkpt lat="2.780179" lon="-75.07638">
        <ele>1797.4</ele>
        <time>2021-08-21T15:08:54Z</time>
      </trkpt>
      <trkpt lat="2.780168" lon="-75.076385">
        <ele>1797.5</ele>
        <time>2021-08-21T15:08:55Z</time>
      </trkpt>
      <trkpt lat="2.780157" lon="-75.07639">
        <ele>1797.6</ele>
        <time>2021-08-21T15:08:56Z</time>
      </trkpt>
      <trkpt lat="2.780147" lon="-75.0764">
        <ele>1797.7</ele>
        <time>2021-08-21T15:08:57Z</time>
      </trkpt>
      <trkpt lat="2.780136" lon="-75.07641">
        <ele>1797.8</ele>
        <time>2021-08-21T15:08:58Z</time>
      </trkpt>
      <trkpt lat="2.780126" lon="-75.076416">
        <ele>1797.9</ele>
        <time>2021-08-21T15:08:59Z</time>
      </trkpt>
      <trkpt lat="2.780116" lon="-75.07642">
        <ele>1798.0</ele>
        <time>2021-08-21T15:09:00Z</time>
      </trkpt>
      <trkpt lat="2.780107" lon="-75.07642">
        <ele>1798.1</ele>
        <time>2021-08-21T15:09:01Z</time>
      </trkpt>
      <trkpt lat="2.780069" lon="-75.076454">
        <ele>1798.5</ele>
        <time>2021-08-21T15:09:03Z</time>
      </trkpt>
      <trkpt lat="2.780066" lon="-75.076454">
        <ele>1798.5</ele>
        <time>2021-08-21T15:09:04Z</time>
      </trkpt>
      <trkpt lat="2.780061" lon="-75.07646">
        <ele>1798.6</ele>
        <time>2021-08-21T15:09:05Z</time>
      </trkpt>
      <trkpt lat="2.780054" lon="-75.07646">
        <ele>1798.6</ele>
        <time>2021-08-21T15:09:06Z</time>
      </trkpt>
      <trkpt lat="2.780047" lon="-75.07647">
        <ele>1798.7</ele>
        <time>2021-08-21T15:09:07Z</time>
      </trkpt>
      <trkpt lat="2.780037" lon="-75.07647">
        <ele>1798.8</ele>
        <time>2021-08-21T15:09:08Z</time>
      </trkpt>
      <trkpt lat="2.780028" lon="-75.07648">
        <ele>1798.9</ele>
        <time>2021-08-21T15:09:09Z</time>
      </trkpt>
      <trkpt lat="2.780019" lon="-75.076485">
        <ele>1799.0</ele>
        <time>2021-08-21T15:09:10Z</time>
      </trkpt>
      <trkpt lat="2.78001" lon="-75.07649">
        <ele>1799.1</ele>
        <time>2021-08-21T15:09:11Z</time>
      </trkpt>
      <trkpt lat="2.780001" lon="-75.07649">
        <ele>1799.1</ele>
        <time>2021-08-21T15:09:12Z</time>
      </trkpt>
      <trkpt lat="2.779991" lon="-75.0765">
        <ele>1799.2</ele>
        <time>2021-08-21T15:09:13Z</time>
      </trkpt>
      <trkpt lat="2.779982" lon="-75.07651">
        <ele>1799.3</ele>
        <time>2021-08-21T15:09:14Z</time>
      </trkpt>
      <trkpt lat="2.779972" lon="-75.07651">
        <ele>1799.4</ele>
        <time>2021-08-21T15:09:15Z</time>
      </trkpt>
      <trkpt lat="2.779962" lon="-75.076515">
        <ele>1799.5</ele>
        <time>2021-08-21T15:09:16Z</time>
      </trkpt>
      <trkpt lat="2.779952" lon="-75.07652">
        <ele>1799.6</ele>
        <time>2021-08-21T15:09:17Z</time>
      </trkpt>
      <trkpt lat="2.779941" lon="-75.07652">
        <ele>1799.7</ele>
        <time>2021-08-21T15:09:18Z</time>
      </trkpt>
      <trkpt lat="2.779929" lon="-75.07653">
        <ele>1799.8</ele>
        <time>2021-08-21T15:09:19Z</time>
      </trkpt>
      <trkpt lat="2.779917" lon="-75.07653">
        <ele>1799.9</ele>
        <time>2021-08-21T15:09:20Z</time>
      </trkpt>
      <trkpt lat="2.779905" lon="-75.07654">
        <ele>1800.0</ele>
        <time>2021-08-21T15:09:21Z</time>
      </trkpt>
      <trkpt lat="2.779892" lon="-75.07654">
        <ele>1800.1</ele>
        <time>2021-08-21T15:09:22Z</time>
      </trkpt>
      <trkpt lat="2.77988" lon="-75.076546">
        <ele>1800.3</ele>
        <time>2021-08-21T15:09:23Z</time>
      </trkpt>
      <trkpt lat="2.779868" lon="-75.07655">
        <ele>1800.4</ele>
        <time>2021-08-21T15:09:24Z</time>
      </trkpt>
      <trkpt lat="2.779856" lon="-75.07655">
        <ele>1800.5</ele>
        <time>2021-08-21T15:09:25Z</time>
      </trkpt>
      <trkpt lat="2.779844" lon="-75.07655">
        <ele>1800.6</ele>
        <time>2021-08-21T15:09:26Z</time>
      </trkpt>
      <trkpt lat="2.779833" lon="-75.07656">
        <ele>1800.7</ele>
        <time>2021-08-21T15:09:27Z</time>
      </trkpt>
      <trkpt lat="2.779787" lon="-75.07658">
        <ele>1801.1</ele>
        <time>2021-08-21T15:09:29Z</time>
      </trkpt>
      <trkpt lat="2.779785" lon="-75.07658">
        <ele>1801.1</ele>
        <time>2021-08-21T15:09:30Z</time>
      </trkpt>
      <trkpt lat="2.779781" lon="-75.07658">
        <ele>1801.1</ele>
        <time>2021-08-21T15:09:31Z</time>
      </trkpt>
      <trkpt lat="2.779775" lon="-75.07658">
        <ele>1801.2</ele>
        <time>2021-08-21T15:09:32Z</time>
      </trkpt>
      <trkpt lat="2.779767" lon="-75.07658">
        <ele>1801.3</ele>
        <time>2021-08-21T15:09:33Z</time>
      </trkpt>
      <trkpt lat="2.77976" lon="-75.076584">
        <ele>1801.3</ele>
        <time>2021-08-21T15:09:34Z</time>
      </trkpt>
      <trkpt lat="2.779751" lon="-75.076584">
        <ele>1801.4</ele>
        <time>2021-08-21T15:09:35Z</time>
      </trkpt>
      <trkpt lat="2.779743" lon="-75.07659">
        <ele>1801.5</ele>
        <time>2021-08-21T15:09:36Z</time>
      </trkpt>
      <trkpt lat="2.779734" lon="-75.07659">
        <ele>1801.6</ele>
        <time>2021-08-21T15:09:37Z</time>
      </trkpt>
      <trkpt lat="2.779725" lon="-75.0766">
        <ele>1801.6</ele>
        <time>2021-08-21T15:09:38Z</time>
      </trkpt>
      <trkpt lat="2.779715" lon="-75.0766">
        <ele>1801.7</ele>
        <time>2021-08-21T15:09:39Z</time>
      </trkpt>
      <trkpt lat="2.779706" lon="-75.07661">
        <ele>1801.8</ele>
        <time>2021-08-21T15:09:40Z</time>
      </trkpt>
      <trkpt lat="2.779696" lon="-75.07661">
        <ele>1801.9</ele>
        <time>2021-08-21T15:09:41Z</time>
      </trkpt>
      <trkpt lat="2.779687" lon="-75.076614">
        <ele>1802.0</ele>
        <time>2021-08-21T15:09:42Z</time>
      </trkpt>
      <trkpt lat="2.779678" lon="-75.076614">
        <ele>1802.1</ele>
        <time>2021-08-21T15:09:43Z</time>
      </trkpt>
      <trkpt lat="2.779668" lon="-75.07662">
        <ele>1802.2</ele>
        <time>2021-08-21T15:09:44Z</time>
      </trkpt>
      <trkpt lat="2.779657" lon="-75.07662">
        <ele>1802.2</ele>
        <time>2021-08-21T15:09:45Z</time>
      </trkpt>
      <trkpt lat="2.779646" lon="-75.07663">
        <ele>1802.3</ele>
        <time>2021-08-21T15:09:46Z</time>
      </trkpt>
      <trkpt lat="2.779634" lon="-75.07663">
        <ele>1802.5</ele>
        <time>2021-08-21T15:09:47Z</time>
      </trkpt>
      <trkpt lat="2.779624" lon="-75.07664">
        <ele>1802.5</ele>
        <time>2021-08-21T15:09:48Z</time>
      </trkpt>
      <trkpt lat="2.779613" lon="-75.07664">
        <ele>1802.6</ele>
        <time>2021-08-21T15:09:49Z</time>
      </trkpt>
      <trkpt lat="2.779602" lon="-75.07664">
        <ele>1802.7</ele>
        <time>2021-08-21T15:09:50Z</time>
      </trkpt>
      <trkpt lat="2.779592" lon="-75.076645">
        <ele>1802.8</ele>
        <time>2021-08-21T15:09:51Z</time>
      </trkpt>
      <trkpt lat="2.779584" lon="-75.076645">
        <ele>1802.9</ele>
        <time>2021-08-21T15:09:52Z</time>
      </trkpt>
      <trkpt lat="2.779576" lon="-75.076645">
        <ele>1803.0</ele>
        <time>2021-08-21T15:09:53Z</time>
      </trkpt>
      <trkpt lat="2.779461" lon="-75.07665">
        <ele>1803.9</ele>
        <time>2021-08-21T15:17:06Z</time>
      </trkpt>
      <trkpt lat="2.779457" lon="-75.07665">
        <ele>1804.0</ele>
        <time>2021-08-21T15:17:07Z</time>
      </trkpt>
      <trkpt lat="2.779448" lon="-75.07665">
        <ele>1804.0</ele>
        <time>2021-08-21T15:17:08Z</time>
      </trkpt>
      <trkpt lat="2.779435" lon="-75.07665">
        <ele>1804.1</ele>
        <time>2021-08-21T15:17:09Z</time>
      </trkpt>
      <trkpt lat="2.779422" lon="-75.07666">
        <ele>1804.3</ele>
        <time>2021-08-21T15:17:10Z</time>
      </trkpt>
      <trkpt lat="2.779408" lon="-75.07666">
        <ele>1804.4</ele>
        <time>2021-08-21T15:17:11Z</time>
      </trkpt>
      <trkpt lat="2.779395" lon="-75.07667">
        <ele>1804.5</ele>
        <time>2021-08-21T15:17:12Z</time>
      </trkpt>
      <trkpt lat="2.779382" lon="-75.07667">
        <ele>1804.6</ele>
        <time>2021-08-21T15:17:13Z</time>
      </trkpt>
      <trkpt lat="2.779369" lon="-75.076675">
        <ele>1804.7</ele>
        <time>2021-08-21T15:17:14Z</time>
      </trkpt>
      <trkpt lat="2.779356" lon="-75.076675">
        <ele>1804.8</ele>
        <time>2021-08-21T15:17:15Z</time>
      </trkpt>
      <trkpt lat="2.779342" lon="-75.07668">
        <ele>1805.0</ele>
        <time>2021-08-21T15:17:16Z</time>
      </trkpt>
      <trkpt lat="2.779329" lon="-75.07668">
        <ele>1805.1</ele>
        <time>2021-08-21T15:17:17Z</time>
      </trkpt>
      <trkpt lat="2.779316" lon="-75.07669">
        <ele>1805.2</ele>
        <time>2021-08-21T15:17:18Z</time>
      </trkpt>
      <trkpt lat="2.779303" lon="-75.0767">
        <ele>1805.3</ele>
        <time>2021-08-21T15:17:19Z</time>
      </trkpt>
      <trkpt lat="2.779289" lon="-75.0767">
        <ele>1805.4</ele>
        <time>2021-08-21T15:17:20Z</time>
      </trkpt>
      <trkpt lat="2.779276" lon="-75.076706">
        <ele>1805.6</ele>
        <time>2021-08-21T15:17:21Z</time>
      </trkpt>
      <trkpt lat="2.779262" lon="-75.076706">
        <ele>1805.7</ele>
        <time>2021-08-21T15:17:22Z</time>
      </trkpt>
      <trkpt lat="2.77925" lon="-75.07671">
        <ele>1805.8</ele>
        <time>2021-08-21T15:17:23Z</time>
      </trkpt>
      <trkpt lat="2.779237" lon="-75.07671">
        <ele>1805.9</ele>
        <time>2021-08-21T15:17:24Z</time>
      </trkpt>
      <trkpt lat="2.779223" lon="-75.07672">
        <ele>1806.0</ele>
        <time>2021-08-21T15:17:25Z</time>
      </trkpt>
      <trkpt lat="2.77921" lon="-75.07672">
        <ele>1806.1</ele>
        <time>2021-08-21T15:17:26Z</time>
      </trkpt>
      <trkpt lat="2.779196" lon="-75.07673">
        <ele>1806.2</ele>
        <time>2021-08-21T15:17:27Z</time>
      </trkpt>
      <trkpt lat="2.779182" lon="-75.07673">
        <ele>1806.4</ele>
        <time>2021-08-21T15:17:28Z</time>
      </trkpt>
      <trkpt lat="2.779169" lon="-75.07674">
        <ele>1806.5</ele>
        <time>2021-08-21T15:17:29Z</time>
      </trkpt>
      <trkpt lat="2.779157" lon="-75.07674">
        <ele>1806.6</ele>
        <time>2021-08-21T15:17:30Z</time>
      </trkpt>
      <trkpt lat="2.779145" lon="-75.076744">
        <ele>1806.7</ele>
        <time>2021-08-21T15:17:31Z</time>
      </trkpt>
      <trkpt lat="2.779132" lon="-75.07675">
        <ele>1806.8</ele>
        <time>2021-08-21T15:17:32Z</time>
      </trkpt>
      <trkpt lat="2.779119" lon="-75.07675">
        <ele>1806.9</ele>
        <time>2021-08-21T15:17:33Z</time>
      </trkpt>
      <trkpt lat="2.779107" lon="-75.07676">
        <ele>1807.0</ele>
        <time>2021-08-21T15:17:34Z</time>
      </trkpt>
      <trkpt lat="2.779096" lon="-75.07677">
        <ele>1807.2</ele>
        <time>2021-08-21T15:17:35Z</time>
      </trkpt>
      <trkpt lat="2.779085" lon="-75.07677">
        <ele>1807.3</ele>
        <time>2021-08-21T15:17:36Z</time>
      </trkpt>
      <trkpt lat="2.779072" lon="-75.076775">
        <ele>1807.4</ele>
        <time>2021-08-21T15:17:37Z</time>
      </trkpt>
      <trkpt lat="2.77906" lon="-75.076775">
        <ele>1807.5</ele>
        <time>2021-08-21T15:17:38Z</time>
      </trkpt>
      <trkpt lat="2.779049" lon="-75.07678">
        <ele>1807.6</ele>
        <time>2021-08-21T15:17:39Z</time>
      </trkpt>
      <trkpt lat="2.779038" lon="-75.07678">
        <ele>1807.7</ele>
        <time>2021-08-21T15:17:40Z</time>
      </trkpt>
      <trkpt lat="2.779026" lon="-75.07679">
        <ele>1807.8</ele>
        <time>2021-08-21T15:17:41Z</time>
      </trkpt>
      <trkpt lat="2.779014" lon="-75.0768">
        <ele>1807.9</ele>
        <time>2021-08-21T15:17:42Z</time>
      </trkpt>
      <trkpt lat="2.779002" lon="-75.0768">
        <ele>1808.0</ele>
        <time>2021-08-21T15:17:43Z</time>
      </trkpt>
      <trkpt lat="2.778989" lon="-75.0768">
        <ele>1808.1</ele>
        <time>2021-08-21T15:17:44Z</time>
      </trkpt>
      <trkpt lat="2.778978" lon="-75.076805">
        <ele>1808.2</ele>
        <time>2021-08-21T15:17:45Z</time>
      </trkpt>
      <trkpt lat="2.778967" lon="-75.076805">
        <ele>1808.3</ele>
        <time>2021-08-21T15:17:46Z</time>
      </trkpt>
      <trkpt lat="2.778956" lon="-75.07681">
        <ele>1808.4</ele>
        <time>2021-08-21T15:17:47Z</time>
      </trkpt>
      <trkpt lat="2.778946" lon="-75.07682">
        <ele>1808.5</ele>
        <time>2021-08-21T15:17:48Z</time>
      </trkpt>
      <trkpt lat="2.778936" lon="-75.07682">
        <ele>1808.6</ele>
        <time>2021-08-21T15:17:49Z</time>
      </trkpt>
      <trkpt lat="2.778926" lon="-75.07683">
        <ele>1808.7</ele>
        <time>2021-08-21T15:17:50Z</time>
      </trkpt>
      <trkpt lat="2.778916" lon="-75.07683">
        <ele>1808.8</ele>
        <time>2021-08-21T15:17:51Z</time>
      </trkpt>
      <trkpt lat="2.778905" lon="-75.076836">
        <ele>1808.9</ele>
        <time>2021-08-21T15:17:52Z</time>
      </trkpt>
      <trkpt lat="2.778895" lon="-75.07684">
        <ele>1809.0</ele>
        <time>2021-08-21T15:17:53Z</time>
      </trkpt>
      <trkpt lat="2.778885" lon="-75.07684">
        <ele>1809.1</ele>
        <time>2021-08-21T15:17:54Z</time>
      </trkpt>
      <trkpt lat="2.778874" lon="-75.07685">
        <ele>1809.2</ele>
        <time>2021-08-21T15:17:55Z</time>
      </trkpt>
      <trkpt lat="2.778864" lon="-75.07686">
        <ele>1809.3</ele>
        <time>2021-08-21T15:17:56Z</time>
      </trkpt>
      <trkpt lat="2.778854" lon="-75.07686">
        <ele>1809.4</ele>
        <time>2021-08-21T15:17:57Z</time>
      </trkpt>
      <trkpt lat="2.778844" lon="-75.076866">
        <ele>1809.4</ele>
        <time>2021-08-21T15:17:58Z</time>
      </trkpt>
      <trkpt lat="2.778834" lon="-75.07687">
        <ele>1809.5</ele>
        <time>2021-08-21T15:17:59Z</time>
      </trkpt>
      <trkpt lat="2.778824" lon="-75.07687">
        <ele>1809.6</ele>
        <time>2021-08-21T15:18:00Z</time>
      </trkpt>
      <trkpt lat="2.778815" lon="-75.07688">
        <ele>1809.7</ele>
        <time>2021-08-21T15:18:01Z</time>
      </trkpt>
      <trkpt lat="2.778804" lon="-75.07689">
        <ele>1809.8</ele>
        <time>2021-08-21T15:18:02Z</time>
      </trkpt>
      <trkpt lat="2.778795" lon="-75.07689">
        <ele>1809.9</ele>
        <time>2021-08-21T15:18:03Z</time>
      </trkpt>
      <trkpt lat="2.778784" lon="-75.0769">
        <ele>1810.0</ele>
        <time>2021-08-21T15:18:04Z</time>
      </trkpt>
      <trkpt lat="2.778774" lon="-75.0769">
        <ele>1810.1</ele>
        <time>2021-08-21T15:18:05Z</time>
      </trkpt>
      <trkpt lat="2.778763" lon="-75.076904">
        <ele>1810.2</ele>
        <time>2021-08-21T15:18:06Z</time>
      </trkpt>
      <trkpt lat="2.778752" lon="-75.07691">
        <ele>1810.3</ele>
        <time>2021-08-21T15:18:07Z</time>
      </trkpt>
      <trkpt lat="2.778741" lon="-75.07692">
        <ele>1810.4</ele>
        <time>2021-08-21T15:18:08Z</time>
      </trkpt>
      <trkpt lat="2.77873" lon="-75.07692">
        <ele>1810.5</ele>
        <time>2021-08-21T15:18:09Z</time>
      </trkpt>
      <trkpt lat="2.778719" lon="-75.07692">
        <ele>1810.6</ele>
        <time>2021-08-21T15:18:10Z</time>
      </trkpt>
      <trkpt lat="2.778709" lon="-75.07692">
        <ele>1810.7</ele>
        <time>2021-08-21T15:18:11Z</time>
      </trkpt>
      <trkpt lat="2.778698" lon="-75.07692">
        <ele>1810.8</ele>
        <time>2021-08-21T15:18:12Z</time>
      </trkpt>
      <trkpt lat="2.778687" lon="-75.07692">
        <ele>1810.9</ele>
        <time>2021-08-21T15:18:13Z</time>
      </trkpt>
      <trkpt lat="2.778676" lon="-75.07693">
        <ele>1811.0</ele>
        <time>2021-08-21T15:18:14Z</time>
      </trkpt>
      <trkpt lat="2.778664" lon="-75.07693">
        <ele>1811.1</ele>
        <time>2021-08-21T15:18:15Z</time>
      </trkpt>
      <trkpt lat="2.778653" lon="-75.07693">
        <ele>1811.2</ele>
        <time>2021-08-21T15:18:16Z</time>
      </trkpt>
      <trkpt lat="2.778641" lon="-75.076935">
        <ele>1811.3</ele>
        <time>2021-08-21T15:18:17Z</time>
      </trkpt>
      <trkpt lat="2.778629" lon="-75.076935">
        <ele>1811.4</ele>
        <time>2021-08-21T15:18:18Z</time>
      </trkpt>
      <trkpt lat="2.778617" lon="-75.076935">
        <ele>1811.5</ele>
        <time>2021-08-21T15:18:19Z</time>
      </trkpt>
      <trkpt lat="2.778606" lon="-75.07694">
        <ele>1811.6</ele>
        <time>2021-08-21T15:18:20Z</time>
      </trkpt>
      <trkpt lat="2.778594" lon="-75.07694">
        <ele>1811.7</ele>
        <time>2021-08-21T15:18:21Z</time>
      </trkpt>
      <trkpt lat="2.778582" lon="-75.07695">
        <ele>1811.8</ele>
        <time>2021-08-21T15:18:22Z</time>
      </trkpt>
      <trkpt lat="2.77857" lon="-75.07695">
        <ele>1811.9</ele>
        <time>2021-08-21T15:18:23Z</time>
      </trkpt>
      <trkpt lat="2.778558" lon="-75.07695">
        <ele>1812.0</ele>
        <time>2021-08-21T15:18:24Z</time>
      </trkpt>
      <trkpt lat="2.778547" lon="-75.07696">
        <ele>1812.1</ele>
        <time>2021-08-21T15:18:25Z</time>
      </trkpt>
      <trkpt lat="2.778536" lon="-75.07696">
        <ele>1812.2</ele>
        <time>2021-08-21T15:18:26Z</time>
      </trkpt>
      <trkpt lat="2.778524" lon="-75.07696">
        <ele>1812.3</ele>
        <time>2021-08-21T15:18:27Z</time>
      </trkpt>
      <trkpt lat="2.778512" lon="-75.07696">
        <ele>1812.4</ele>
        <time>2021-08-21T15:18:28Z</time>
      </trkpt>
      <trkpt lat="2.7785" lon="-75.07696">
        <ele>1812.5</ele>
        <time>2021-08-21T15:18:29Z</time>
      </trkpt>
      <trkpt lat="2.778488" lon="-75.07696">
        <ele>1812.6</ele>
        <time>2021-08-21T15:18:30Z</time>
      </trkpt>
      <trkpt lat="2.778476" lon="-75.07696">
        <ele>1812.7</ele>
        <time>2021-08-21T15:18:31Z</time>
      </trkpt>
      <trkpt lat="2.778465" lon="-75.07696">
        <ele>1812.8</ele>
        <time>2021-08-21T15:18:32Z</time>
      </trkpt>
      <trkpt lat="2.778454" lon="-75.07696">
        <ele>1812.9</ele>
        <time>2021-08-21T15:18:33Z</time>
      </trkpt>
      <trkpt lat="2.778443" lon="-75.07696">
        <ele>1813.0</ele>
        <time>2021-08-21T15:18:34Z</time>
      </trkpt>
      <trkpt lat="2.778431" lon="-75.07696">
        <ele>1813.1</ele>
        <time>2021-08-21T15:18:35Z</time>
      </trkpt>
      <trkpt lat="2.778419" lon="-75.07696">
        <ele>1813.2</ele>
        <time>2021-08-21T15:18:36Z</time>
      </trkpt>
      <trkpt lat="2.778408" lon="-75.07695">
        <ele>1813.3</ele>
        <time>2021-08-21T15:18:37Z</time>
      </trkpt>
      <trkpt lat="2.778396" lon="-75.07695">
        <ele>1813.4</ele>
        <time>2021-08-21T15:18:38Z</time>
      </trkpt>
      <trkpt lat="2.778385" lon="-75.07694">
        <ele>1813.5</ele>
        <time>2021-08-21T15:18:39Z</time>
      </trkpt>
      <trkpt lat="2.778374" lon="-75.07694">
        <ele>1813.6</ele>
        <time>2021-08-21T15:18:40Z</time>
      </trkpt>
      <trkpt lat="2.778364" lon="-75.076935">
        <ele>1813.7</ele>
        <time>2021-08-21T15:18:41Z</time>
      </trkpt>
      <trkpt lat="2.778354" lon="-75.07693">
        <ele>1813.8</ele>
        <time>2021-08-21T15:18:42Z</time>
      </trkpt>
      <trkpt lat="2.778345" lon="-75.07692">
        <ele>1813.9</ele>
        <time>2021-08-21T15:18:43Z</time>
      </trkpt>
      <trkpt lat="2.778337" lon="-75.07691">
        <ele>1814.0</ele>
        <time>2021-08-21T15:18:44Z</time>
      </trkpt>
      <trkpt lat="2.77833" lon="-75.076904">
        <ele>1814.0</ele>
        <time>2021-08-21T15:18:45Z</time>
      </trkpt>
      <trkpt lat="2.778325" lon="-75.0769">
        <ele>1814.1</ele>
        <time>2021-08-21T15:18:46Z</time>
      </trkpt>
      <trkpt lat="2.778319" lon="-75.07689">
        <ele>1814.2</ele>
        <time>2021-08-21T15:18:47Z</time>
      </trkpt>
      <trkpt lat="2.778313" lon="-75.07688">
        <ele>1814.3</ele>
        <time>2021-08-21T15:18:48Z</time>
      </trkpt>
      <trkpt lat="2.778307" lon="-75.07687">
        <ele>1814.4</ele>
        <time>2021-08-21T15:18:49Z</time>
      </trkpt>
      <trkpt lat="2.778302" lon="-75.07686">
        <ele>1814.5</ele>
        <time>2021-08-21T15:18:50Z</time>
      </trkpt>
      <trkpt lat="2.778276" lon="-75.07682">
        <ele>1814.9</ele>
        <time>2021-08-21T15:18:52Z</time>
      </trkpt>
      <trkpt lat="2.778266" lon="-75.07682">
        <ele>1815.0</ele>
        <time>2021-08-21T15:18:53Z</time>
      </trkpt>
      <trkpt lat="2.778257" lon="-75.07682">
        <ele>1815.0</ele>
        <time>2021-08-21T15:18:54Z</time>
      </trkpt>
      <trkpt lat="2.778248" lon="-75.07682">
        <ele>1815.1</ele>
        <time>2021-08-21T15:18:55Z</time>
      </trkpt>
      <trkpt lat="2.778239" lon="-75.07682">
        <ele>1815.2</ele>
        <time>2021-08-21T15:18:56Z</time>
      </trkpt>
      <trkpt lat="2.77823" lon="-75.07682">
        <ele>1815.3</ele>
        <time>2021-08-21T15:18:57Z</time>
      </trkpt>
      <trkpt lat="2.778221" lon="-75.07681">
        <ele>1815.4</ele>
        <time>2021-08-21T15:18:58Z</time>
      </trkpt>
      <trkpt lat="2.778212" lon="-75.07681">
        <ele>1815.4</ele>
        <time>2021-08-21T15:18:59Z</time>
      </trkpt>
      <trkpt lat="2.778203" lon="-75.07681">
        <ele>1815.5</ele>
        <time>2021-08-21T15:19:00Z</time>
      </trkpt>
      <trkpt lat="2.778194" lon="-75.07681">
        <ele>1815.6</ele>
        <time>2021-08-21T15:19:01Z</time>
      </trkpt>
      <trkpt lat="2.778185" lon="-75.07681">
        <ele>1815.7</ele>
        <time>2021-08-21T15:19:02Z</time>
      </trkpt>
      <trkpt lat="2.778175" lon="-75.07681">
        <ele>1815.7</ele>
        <time>2021-08-21T15:19:03Z</time>
      </trkpt>
      <trkpt lat="2.778166" lon="-75.07681">
        <ele>1815.8</ele>
        <time>2021-08-21T15:19:04Z</time>
      </trkpt>
      <trkpt lat="2.778157" lon="-75.07681">
        <ele>1815.9</ele>
        <time>2021-08-21T15:19:05Z</time>
      </trkpt>
      <trkpt lat="2.778148" lon="-75.07681">
        <ele>1816.0</ele>
        <time>2021-08-21T15:19:06Z</time>
      </trkpt>
      <trkpt lat="2.778139" lon="-75.07681">
        <ele>1816.0</ele>
        <time>2021-08-21T15:19:07Z</time>
      </trkpt>
      <trkpt lat="2.77813" lon="-75.076805">
        <ele>1816.1</ele>
        <time>2021-08-21T15:19:08Z</time>
      </trkpt>
      <trkpt lat="2.778121" lon="-75.076805">
        <ele>1816.2</ele>
        <time>2021-08-21T15:19:09Z</time>
      </trkpt>
      <trkpt lat="2.778112" lon="-75.076805">
        <ele>1816.3</ele>
        <time>2021-08-21T15:19:10Z</time>
      </trkpt>
      <trkpt lat="2.778103" lon="-75.076805">
        <ele>1816.3</ele>
        <time>2021-08-21T15:19:11Z</time>
      </trkpt>
      <trkpt lat="2.778094" lon="-75.076805">
        <ele>1816.4</ele>
        <time>2021-08-21T15:19:12Z</time>
      </trkpt>
      <trkpt lat="2.778085" lon="-75.076805">
        <ele>1816.5</ele>
        <time>2021-08-21T15:19:13Z</time>
      </trkpt>
      <trkpt lat="2.778076" lon="-75.076805">
        <ele>1816.6</ele>
        <time>2021-08-21T15:19:14Z</time>
      </trkpt>
      <trkpt lat="2.778067" lon="-75.076805">
        <ele>1816.7</ele>
        <time>2021-08-21T15:19:15Z</time>
      </trkpt>
      <trkpt lat="2.778058" lon="-75.076805">
        <ele>1816.7</ele>
        <time>2021-08-21T15:19:16Z</time>
      </trkpt>
      <trkpt lat="2.778049" lon="-75.0768">
        <ele>1816.8</ele>
        <time>2021-08-21T15:19:17Z</time>
      </trkpt>
      <trkpt lat="2.77804" lon="-75.0768">
        <ele>1816.9</ele>
        <time>2021-08-21T15:19:18Z</time>
      </trkpt>
      <trkpt lat="2.778031" lon="-75.0768">
        <ele>1817.0</ele>
        <time>2021-08-21T15:19:19Z</time>
      </trkpt>
      <trkpt lat="2.778022" lon="-75.0768">
        <ele>1817.0</ele>
        <time>2021-08-21T15:19:20Z</time>
      </trkpt>
      <trkpt lat="2.778013" lon="-75.0768">
        <ele>1817.1</ele>
        <time>2021-08-21T15:19:21Z</time>
      </trkpt>
      <trkpt lat="2.778004" lon="-75.0768">
        <ele>1817.2</ele>
        <time>2021-08-21T15:19:22Z</time>
      </trkpt>
      <trkpt lat="2.777994" lon="-75.0768">
        <ele>1817.3</ele>
        <time>2021-08-21T15:19:23Z</time>
      </trkpt>
      <trkpt lat="2.777985" lon="-75.0768">
        <ele>1817.3</ele>
        <time>2021-08-21T15:19:24Z</time>
      </trkpt>
      <trkpt lat="2.777976" lon="-75.0768">
        <ele>1817.4</ele>
        <time>2021-08-21T15:19:25Z</time>
      </trkpt>
      <trkpt lat="2.777967" lon="-75.0768">
        <ele>1817.5</ele>
        <time>2021-08-21T15:19:26Z</time>
      </trkpt>
      <trkpt lat="2.777958" lon="-75.07679">
        <ele>1817.6</ele>
        <time>2021-08-21T15:19:27Z</time>
      </trkpt>
      <trkpt lat="2.777949" lon="-75.07679">
        <ele>1817.7</ele>
        <time>2021-08-21T15:19:28Z</time>
      </trkpt>
      <trkpt lat="2.77794" lon="-75.07679">
        <ele>1817.7</ele>
        <time>2021-08-21T15:19:29Z</time>
      </trkpt>
      <trkpt lat="2.777931" lon="-75.07679">
        <ele>1817.8</ele>
        <time>2021-08-21T15:19:30Z</time>
      </trkpt>
      <trkpt lat="2.777922" lon="-75.07679">
        <ele>1817.9</ele>
        <time>2021-08-21T15:19:31Z</time>
      </trkpt>
      <trkpt lat="2.777913" lon="-75.07679">
        <ele>1818.0</ele>
        <time>2021-08-21T15:19:32Z</time>
      </trkpt>
      <trkpt lat="2.777904" lon="-75.07679">
        <ele>1818.0</ele>
        <time>2021-08-21T15:19:33Z</time>
      </trkpt>
      <trkpt lat="2.777895" lon="-75.07679">
        <ele>1818.1</ele>
        <time>2021-08-21T15:19:34Z</time>
      </trkpt>
      <trkpt lat="2.777886" lon="-75.07678">
        <ele>1818.2</ele>
        <time>2021-08-21T15:19:35Z</time>
      </trkpt>
      <trkpt lat="2.777877" lon="-75.07678">
        <ele>1818.3</ele>
        <time>2021-08-21T15:19:36Z</time>
      </trkpt>
      <trkpt lat="2.777868" lon="-75.07678">
        <ele>1818.3</ele>
        <time>2021-08-21T15:19:37Z</time>
      </trkpt>
      <trkpt lat="2.777859" lon="-75.07678">
        <ele>1818.4</ele>
        <time>2021-08-21T15:19:38Z</time>
      </trkpt>
      <trkpt lat="2.77785" lon="-75.07678">
        <ele>1818.5</ele>
        <time>2021-08-21T15:19:39Z</time>
      </trkpt>
      <trkpt lat="2.777841" lon="-75.07678">
        <ele>1818.6</ele>
        <time>2021-08-21T15:19:40Z</time>
      </trkpt>
      <trkpt lat="2.777832" lon="-75.07678">
        <ele>1818.6</ele>
        <time>2021-08-21T15:19:41Z</time>
      </trkpt>
      <trkpt lat="2.777823" lon="-75.07678">
        <ele>1818.7</ele>
        <time>2021-08-21T15:19:42Z</time>
      </trkpt>
      <trkpt lat="2.777813" lon="-75.07678">
        <ele>1818.8</ele>
        <time>2021-08-21T15:19:43Z</time>
      </trkpt>
      <trkpt lat="2.777804" lon="-75.07678">
        <ele>1818.9</ele>
        <time>2021-08-21T15:19:44Z</time>
      </trkpt>
      <trkpt lat="2.777795" lon="-75.076775">
        <ele>1819.0</ele>
        <time>2021-08-21T15:19:45Z</time>
      </trkpt>
      <trkpt lat="2.777786" lon="-75.076775">
        <ele>1819.0</ele>
        <time>2021-08-21T15:19:46Z</time>
      </trkpt>
      <trkpt lat="2.777777" lon="-75.076775">
        <ele>1819.1</ele>
        <time>2021-08-21T15:19:47Z</time>
      </trkpt>
      <trkpt lat="2.777768" lon="-75.076775">
        <ele>1819.2</ele>
        <time>2021-08-21T15:19:48Z</time>
      </trkpt>
      <trkpt lat="2.777759" lon="-75.076775">
        <ele>1819.3</ele>
        <time>2021-08-21T15:19:49Z</time>
      </trkpt>
      <trkpt lat="2.77775" lon="-75.076775">
        <ele>1819.3</ele>
        <time>2021-08-21T15:19:50Z</time>
      </trkpt>
      <trkpt lat="2.777741" lon="-75.076775">
        <ele>1819.4</ele>
        <time>2021-08-21T15:19:51Z</time>
      </trkpt>
      <trkpt lat="2.777723" lon="-75.076775">
        <ele>1819.6</ele>
        <time>2021-08-21T15:19:52Z</time>
      </trkpt>
      <trkpt lat="2.777732" lon="-75.076775">
        <ele>1819.5</ele>
        <time>2021-08-21T15:19:52Z</time>
      </trkpt>
      <trkpt lat="2.777713" lon="-75.076775">
        <ele>1819.7</ele>
        <time>2021-08-21T15:19:53Z</time>
      </trkpt>
      <trkpt lat="2.777703" lon="-75.076775">
        <ele>1819.7</ele>
        <time>2021-08-21T15:19:54Z</time>
      </trkpt>
      <trkpt lat="2.777693" lon="-75.07678">
        <ele>1819.8</ele>
        <time>2021-08-21T15:19:55Z</time>
      </trkpt>
      <trkpt lat="2.777683" lon="-75.07679">
        <ele>1819.9</ele>
        <time>2021-08-21T15:19:56Z</time>
      </trkpt>
      <trkpt lat="2.777673" lon="-75.07679">
        <ele>1820.0</ele>
        <time>2021-08-21T15:19:57Z</time>
      </trkpt>
      <trkpt lat="2.777663" lon="-75.0768">
        <ele>1820.1</ele>
        <time>2021-08-21T15:19:58Z</time>
      </trkpt>
      <trkpt lat="2.777652" lon="-75.0768">
        <ele>1820.2</ele>
        <time>2021-08-21T15:19:59Z</time>
      </trkpt>
      <trkpt lat="2.777641" lon="-75.076805">
        <ele>1820.3</ele>
        <time>2021-08-21T15:20:00Z</time>
      </trkpt>
      <trkpt lat="2.777631" lon="-75.076805">
        <ele>1820.4</ele>
        <time>2021-08-21T15:20:01Z</time>
      </trkpt>
      <trkpt lat="2.777621" lon="-75.07681">
        <ele>1820.5</ele>
        <time>2021-08-21T15:20:02Z</time>
      </trkpt>
      <trkpt lat="2.777611" lon="-75.07681">
        <ele>1820.6</ele>
        <time>2021-08-21T15:20:03Z</time>
      </trkpt>
      <trkpt lat="2.7776" lon="-75.07681">
        <ele>1820.7</ele>
        <time>2021-08-21T15:20:04Z</time>
      </trkpt>
      <trkpt lat="2.777589" lon="-75.07682">
        <ele>1820.8</ele>
        <time>2021-08-21T15:20:05Z</time>
      </trkpt>
      <trkpt lat="2.777578" lon="-75.07682">
        <ele>1820.9</ele>
        <time>2021-08-21T15:20:06Z</time>
      </trkpt>
      <trkpt lat="2.777567" lon="-75.07682">
        <ele>1821.0</ele>
        <time>2021-08-21T15:20:07Z</time>
      </trkpt>
      <trkpt lat="2.777556" lon="-75.07682">
        <ele>1821.0</ele>
        <time>2021-08-21T15:20:08Z</time>
      </trkpt>
      <trkpt lat="2.777545" lon="-75.07682">
        <ele>1821.1</ele>
        <time>2021-08-21T15:20:09Z</time>
      </trkpt>
      <trkpt lat="2.777534" lon="-75.07682">
        <ele>1821.2</ele>
        <time>2021-08-21T15:20:10Z</time>
      </trkpt>
      <trkpt lat="2.777523" lon="-75.07682">
        <ele>1821.3</ele>
        <time>2021-08-21T15:20:11Z</time>
      </trkpt>
      <trkpt lat="2.777512" lon="-75.07682">
        <ele>1821.4</ele>
        <time>2021-08-21T15:20:12Z</time>
      </trkpt>
      <trkpt lat="2.777501" lon="-75.07682">
        <ele>1821.5</ele>
        <time>2021-08-21T15:20:13Z</time>
      </trkpt>
      <trkpt lat="2.77749" lon="-75.07682">
        <ele>1821.6</ele>
        <time>2021-08-21T15:20:14Z</time>
      </trkpt>
      <trkpt lat="2.777478" lon="-75.07683">
        <ele>1821.7</ele>
        <time>2021-08-21T15:20:15Z</time>
      </trkpt>
      <trkpt lat="2.777466" lon="-75.07683">
        <ele>1821.8</ele>
        <time>2021-08-21T15:20:16Z</time>
      </trkpt>
      <trkpt lat="2.777454" lon="-75.07683">
        <ele>1821.9</ele>
        <time>2021-08-21T15:20:17Z</time>
      </trkpt>
      <trkpt lat="2.777443" lon="-75.07683">
        <ele>1822.0</ele>
        <time>2021-08-21T15:20:18Z</time>
      </trkpt>
      <trkpt lat="2.777431" lon="-75.07683">
        <ele>1822.1</ele>
        <time>2021-08-21T15:20:19Z</time>
      </trkpt>
      <trkpt lat="2.777419" lon="-75.07683">
        <ele>1822.2</ele>
        <time>2021-08-21T15:20:20Z</time>
      </trkpt>
      <trkpt lat="2.777407" lon="-75.07683">
        <ele>1822.3</ele>
        <time>2021-08-21T15:20:21Z</time>
      </trkpt>
      <trkpt lat="2.777396" lon="-75.07683">
        <ele>1822.4</ele>
        <time>2021-08-21T15:20:22Z</time>
      </trkpt>
      <trkpt lat="2.777385" lon="-75.07682">
        <ele>1822.5</ele>
        <time>2021-08-21T15:20:23Z</time>
      </trkpt>
      <trkpt lat="2.777373" lon="-75.07682">
        <ele>1822.6</ele>
        <time>2021-08-21T15:20:24Z</time>
      </trkpt>
      <trkpt lat="2.777362" lon="-75.07682">
        <ele>1822.7</ele>
        <time>2021-08-21T15:20:25Z</time>
      </trkpt>
      <trkpt lat="2.777351" lon="-75.07682">
        <ele>1822.8</ele>
        <time>2021-08-21T15:20:26Z</time>
      </trkpt>
      <trkpt lat="2.777339" lon="-75.07682">
        <ele>1822.9</ele>
        <time>2021-08-21T15:20:27Z</time>
      </trkpt>
      <trkpt lat="2.777328" lon="-75.07682">
        <ele>1823.0</ele>
        <time>2021-08-21T15:20:28Z</time>
      </trkpt>
      <trkpt lat="2.777317" lon="-75.07682">
        <ele>1823.1</ele>
        <time>2021-08-21T15:20:29Z</time>
      </trkpt>
      <trkpt lat="2.777305" lon="-75.07681">
        <ele>1823.2</ele>
        <time>2021-08-21T15:20:30Z</time>
      </trkpt>
      <trkpt lat="2.777294" lon="-75.07681">
        <ele>1823.3</ele>
        <time>2021-08-21T15:20:31Z</time>
      </trkpt>
      <trkpt lat="2.777283" lon="-75.07681">
        <ele>1823.4</ele>
        <time>2021-08-21T15:20:32Z</time>
      </trkpt>
      <trkpt lat="2.777271" lon="-75.07681">
        <ele>1823.5</ele>
        <time>2021-08-21T15:20:33Z</time>
      </trkpt>
      <trkpt lat="2.777259" lon="-75.07681">
        <ele>1823.6</ele>
        <time>2021-08-21T15:20:34Z</time>
      </trkpt>
      <trkpt lat="2.777248" lon="-75.07682">
        <ele>1823.7</ele>
        <time>2021-08-21T15:20:35Z</time>
      </trkpt>
      <trkpt lat="2.777236" lon="-75.07681">
        <ele>1823.8</ele>
        <time>2021-08-21T15:20:36Z</time>
      </trkpt>
      <trkpt lat="2.777224" lon="-75.07681">
        <ele>1823.9</ele>
        <time>2021-08-21T15:20:37Z</time>
      </trkpt>
      <trkpt lat="2.777212" lon="-75.07682">
        <ele>1824.0</ele>
        <time>2021-08-21T15:20:38Z</time>
      </trkpt>
      <trkpt lat="2.777201" lon="-75.07682">
        <ele>1824.1</ele>
        <time>2021-08-21T15:20:39Z</time>
      </trkpt>
      <trkpt lat="2.777189" lon="-75.07682">
        <ele>1824.2</ele>
        <time>2021-08-21T15:20:40Z</time>
      </trkpt>
      <trkpt lat="2.777179" lon="-75.07682">
        <ele>1824.2</ele>
        <time>2021-08-21T15:20:41Z</time>
      </trkpt>
      <trkpt lat="2.777169" lon="-75.07683">
        <ele>1824.3</ele>
        <time>2021-08-21T15:20:42Z</time>
      </trkpt>
      <trkpt lat="2.777158" lon="-75.07683">
        <ele>1824.4</ele>
        <time>2021-08-21T15:20:43Z</time>
      </trkpt>
      <trkpt lat="2.777148" lon="-75.076836">
        <ele>1824.5</ele>
        <time>2021-08-21T15:20:44Z</time>
      </trkpt>
      <trkpt lat="2.777139" lon="-75.076836">
        <ele>1824.6</ele>
        <time>2021-08-21T15:20:45Z</time>
      </trkpt>
      <trkpt lat="2.777131" lon="-75.07684">
        <ele>1824.7</ele>
        <time>2021-08-21T15:20:46Z</time>
      </trkpt>
      <trkpt lat="2.777122" lon="-75.07685">
        <ele>1824.8</ele>
        <time>2021-08-21T15:20:47Z</time>
      </trkpt>
      <trkpt lat="2.777112" lon="-75.07685">
        <ele>1824.9</ele>
        <time>2021-08-21T15:20:48Z</time>
      </trkpt>
      <trkpt lat="2.777102" lon="-75.07686">
        <ele>1825.0</ele>
        <time>2021-08-21T15:20:49Z</time>
      </trkpt>
      <trkpt lat="2.777093" lon="-75.076866">
        <ele>1825.1</ele>
        <time>2021-08-21T15:20:50Z</time>
      </trkpt>
      <trkpt lat="2.777084" lon="-75.07687">
        <ele>1825.1</ele>
        <time>2021-08-21T15:20:51Z</time>
      </trkpt>
      <trkpt lat="2.777074" lon="-75.07687">
        <ele>1825.2</ele>
        <time>2021-08-21T15:20:52Z</time>
      </trkpt>
      <trkpt lat="2.777065" lon="-75.07688">
        <ele>1825.3</ele>
        <time>2021-08-21T15:20:53Z</time>
      </trkpt>
      <trkpt lat="2.777056" lon="-75.07689">
        <ele>1825.4</ele>
        <time>2021-08-21T15:20:54Z</time>
      </trkpt>
      <trkpt lat="2.777048" lon="-75.0769">
        <ele>1825.5</ele>
        <time>2021-08-21T15:20:55Z</time>
      </trkpt>
      <trkpt lat="2.777039" lon="-75.0769">
        <ele>1825.6</ele>
        <time>2021-08-21T15:20:56Z</time>
      </trkpt>
      <trkpt lat="2.77703" lon="-75.076904">
        <ele>1825.7</ele>
        <time>2021-08-21T15:20:57Z</time>
      </trkpt>
      <trkpt lat="2.777021" lon="-75.07691">
        <ele>1825.8</ele>
        <time>2021-08-21T15:20:58Z</time>
      </trkpt>
      <trkpt lat="2.777012" lon="-75.07692">
        <ele>1825.9</ele>
        <time>2021-08-21T15:20:59Z</time>
      </trkpt>
      <trkpt lat="2.777003" lon="-75.07692">
        <ele>1826.0</ele>
        <time>2021-08-21T15:21:00Z</time>
      </trkpt>
      <trkpt lat="2.776995" lon="-75.07693">
        <ele>1826.0</ele>
        <time>2021-08-21T15:21:01Z</time>
      </trkpt>
      <trkpt lat="2.776988" lon="-75.076935">
        <ele>1826.1</ele>
        <time>2021-08-21T15:21:02Z</time>
      </trkpt>
      <trkpt lat="2.776982" lon="-75.07694">
        <ele>1826.2</ele>
        <time>2021-08-21T15:21:03Z</time>
      </trkpt>
      <trkpt lat="2.776975" lon="-75.07695">
        <ele>1826.3</ele>
        <time>2021-08-21T15:21:04Z</time>
      </trkpt>
      <trkpt lat="2.776968" lon="-75.07696">
        <ele>1826.4</ele>
        <time>2021-08-21T15:21:05Z</time>
      </trkpt>
      <trkpt lat="2.776961" lon="-75.076965">
        <ele>1826.5</ele>
        <time>2021-08-21T15:21:06Z</time>
      </trkpt>
      <trkpt lat="2.776954" lon="-75.07697">
        <ele>1826.6</ele>
        <time>2021-08-21T15:21:07Z</time>
      </trkpt>
      <trkpt lat="2.776946" lon="-75.07698">
        <ele>1826.6</ele>
        <time>2021-08-21T15:21:08Z</time>
      </trkpt>
      <trkpt lat="2.776936" lon="-75.07699">
        <ele>1826.8</ele>
        <time>2021-08-21T15:21:09Z</time>
      </trkpt>
      <trkpt lat="2.776926" lon="-75.076996">
        <ele>1826.9</ele>
        <time>2021-08-21T15:21:10Z</time>
      </trkpt>
      <trkpt lat="2.776914" lon="-75.077">
        <ele>1827.0</ele>
        <time>2021-08-21T15:21:11Z</time>
      </trkpt>
      <trkpt lat="2.776903" lon="-75.077">
        <ele>1827.1</ele>
        <time>2021-08-21T15:21:12Z</time>
      </trkpt>
      <trkpt lat="2.776893" lon="-75.07701">
        <ele>1827.2</ele>
        <time>2021-08-21T15:21:13Z</time>
      </trkpt>
      <trkpt lat="2.776882" lon="-75.07702">
        <ele>1827.3</ele>
        <time>2021-08-21T15:21:14Z</time>
      </trkpt>
      <trkpt lat="2.776871" lon="-75.07703">
        <ele>1827.4</ele>
        <time>2021-08-21T15:21:15Z</time>
      </trkpt>
      <trkpt lat="2.77686" lon="-75.07703">
        <ele>1827.5</ele>
        <time>2021-08-21T15:21:16Z</time>
      </trkpt>
      <trkpt lat="2.776849" lon="-75.077034">
        <ele>1827.6</ele>
        <time>2021-08-21T15:21:17Z</time>
      </trkpt>
      <trkpt lat="2.776839" lon="-75.077034">
        <ele>1827.7</ele>
        <time>2021-08-21T15:21:18Z</time>
      </trkpt>
      <trkpt lat="2.776828" lon="-75.07704">
        <ele>1827.8</ele>
        <time>2021-08-21T15:21:19Z</time>
      </trkpt>
      <trkpt lat="2.776816" lon="-75.07705">
        <ele>1827.9</ele>
        <time>2021-08-21T15:21:20Z</time>
      </trkpt>
      <trkpt lat="2.776804" lon="-75.07705">
        <ele>1828.0</ele>
        <time>2021-08-21T15:21:21Z</time>
      </trkpt>
      <trkpt lat="2.776794" lon="-75.07706">
        <ele>1828.1</ele>
        <time>2021-08-21T15:21:22Z</time>
      </trkpt>
      <trkpt lat="2.776782" lon="-75.07706">
        <ele>1828.2</ele>
        <time>2021-08-21T15:21:23Z</time>
      </trkpt>
      <trkpt lat="2.77677" lon="-75.077065">
        <ele>1828.3</ele>
        <time>2021-08-21T15:21:24Z</time>
      </trkpt>
      <trkpt lat="2.776757" lon="-75.077065">
        <ele>1828.4</ele>
        <time>2021-08-21T15:21:25Z</time>
      </trkpt>
      <trkpt lat="2.776744" lon="-75.07707">
        <ele>1828.5</ele>
        <time>2021-08-21T15:21:26Z</time>
      </trkpt>
      <trkpt lat="2.776732" lon="-75.07708">
        <ele>1828.6</ele>
        <time>2021-08-21T15:21:27Z</time>
      </trkpt>
      <trkpt lat="2.776721" lon="-75.07708">
        <ele>1828.7</ele>
        <time>2021-08-21T15:21:28Z</time>
      </trkpt>
      <trkpt lat="2.776712" lon="-75.07709">
        <ele>1828.8</ele>
        <time>2021-08-21T15:21:29Z</time>
      </trkpt>
      <trkpt lat="2.776703" lon="-75.077095">
        <ele>1828.9</ele>
        <time>2021-08-21T15:21:30Z</time>
      </trkpt>
      <trkpt lat="2.776694" lon="-75.0771">
        <ele>1829.0</ele>
        <time>2021-08-21T15:21:31Z</time>
      </trkpt>
      <trkpt lat="2.776683" lon="-75.07711">
        <ele>1829.1</ele>
        <time>2021-08-21T15:21:32Z</time>
      </trkpt>
      <trkpt lat="2.776673" lon="-75.07711">
        <ele>1829.2</ele>
        <time>2021-08-21T15:21:33Z</time>
      </trkpt>
      <trkpt lat="2.776662" lon="-75.07712">
        <ele>1829.3</ele>
        <time>2021-08-21T15:21:34Z</time>
      </trkpt>
      <trkpt lat="2.776651" lon="-75.077126">
        <ele>1829.4</ele>
        <time>2021-08-21T15:21:35Z</time>
      </trkpt>
      <trkpt lat="2.776639" lon="-75.077126">
        <ele>1829.5</ele>
        <time>2021-08-21T15:21:36Z</time>
      </trkpt>
      <trkpt lat="2.776628" lon="-75.07713">
        <ele>1829.6</ele>
        <time>2021-08-21T15:21:37Z</time>
      </trkpt>
      <trkpt lat="2.776617" lon="-75.07713">
        <ele>1829.7</ele>
        <time>2021-08-21T15:21:38Z</time>
      </trkpt>
      <trkpt lat="2.776605" lon="-75.07714">
        <ele>1829.8</ele>
        <time>2021-08-21T15:21:39Z</time>
      </trkpt>
      <trkpt lat="2.776592" lon="-75.07714">
        <ele>1829.9</ele>
        <time>2021-08-21T15:21:40Z</time>
      </trkpt>
      <trkpt lat="2.77658" lon="-75.07715">
        <ele>1830.1</ele>
        <time>2021-08-21T15:21:41Z</time>
      </trkpt>
      <trkpt lat="2.776567" lon="-75.07715">
        <ele>1830.2</ele>
        <time>2021-08-21T15:21:42Z</time>
      </trkpt>
      <trkpt lat="2.776555" lon="-75.077156">
        <ele>1830.3</ele>
        <time>2021-08-21T15:21:43Z</time>
      </trkpt>
      <trkpt lat="2.776543" lon="-75.07716">
        <ele>1830.4</ele>
        <time>2021-08-21T15:21:44Z</time>
      </trkpt>
      <trkpt lat="2.776532" lon="-75.07716">
        <ele>1830.5</ele>
        <time>2021-08-21T15:21:45Z</time>
      </trkpt>
      <trkpt lat="2.776521" lon="-75.07717">
        <ele>1830.6</ele>
        <time>2021-08-21T15:21:46Z</time>
      </trkpt>
      <trkpt lat="2.77651" lon="-75.07717">
        <ele>1830.7</ele>
        <time>2021-08-21T15:21:47Z</time>
      </trkpt>
      <trkpt lat="2.776498" lon="-75.07718">
        <ele>1830.8</ele>
        <time>2021-08-21T15:21:48Z</time>
      </trkpt>
      <trkpt lat="2.776487" lon="-75.07718">
        <ele>1830.9</ele>
        <time>2021-08-21T15:21:49Z</time>
      </trkpt>
      <trkpt lat="2.776473" lon="-75.07718">
        <ele>1831.0</ele>
        <time>2021-08-21T15:21:50Z</time>
      </trkpt>
      <trkpt lat="2.776459" lon="-75.07718">
        <ele>1831.1</ele>
        <time>2021-08-21T15:21:51Z</time>
      </trkpt>
      <trkpt lat="2.776447" lon="-75.07718">
        <ele>1831.2</ele>
        <time>2021-08-21T15:21:52Z</time>
      </trkpt>
      <trkpt lat="2.776436" lon="-75.07719">
        <ele>1831.3</ele>
        <time>2021-08-21T15:21:53Z</time>
      </trkpt>
      <trkpt lat="2.776425" lon="-75.07719">
        <ele>1831.4</ele>
        <time>2021-08-21T15:21:54Z</time>
      </trkpt>
      <trkpt lat="2.776413" lon="-75.07719">
        <ele>1831.5</ele>
        <time>2021-08-21T15:21:55Z</time>
      </trkpt>
      <trkpt lat="2.776402" lon="-75.077194">
        <ele>1831.6</ele>
        <time>2021-08-21T15:21:56Z</time>
      </trkpt>
      <trkpt lat="2.776391" lon="-75.077194">
        <ele>1831.7</ele>
        <time>2021-08-21T15:21:57Z</time>
      </trkpt>
      <trkpt lat="2.77638" lon="-75.077194">
        <ele>1831.8</ele>
        <time>2021-08-21T15:21:58Z</time>
      </trkpt>
      <trkpt lat="2.77637" lon="-75.077194">
        <ele>1831.9</ele>
        <time>2021-08-21T15:21:59Z</time>
      </trkpt>
      <trkpt lat="2.776359" lon="-75.0772">
        <ele>1832.0</ele>
        <time>2021-08-21T15:22:00Z</time>
      </trkpt>
      <trkpt lat="2.77635" lon="-75.0772">
        <ele>1832.1</ele>
        <time>2021-08-21T15:22:01Z</time>
      </trkpt>
      <trkpt lat="2.77634" lon="-75.0772">
        <ele>1832.1</ele>
        <time>2021-08-21T15:22:02Z</time>
      </trkpt>
      <trkpt lat="2.776329" lon="-75.0772">
        <ele>1832.2</ele>
        <time>2021-08-21T15:22:03Z</time>
      </trkpt>
      <trkpt lat="2.776318" lon="-75.07721">
        <ele>1832.3</ele>
        <time>2021-08-21T15:22:04Z</time>
      </trkpt>
      <trkpt lat="2.776308" lon="-75.07721">
        <ele>1832.4</ele>
        <time>2021-08-21T15:22:05Z</time>
      </trkpt>
      <trkpt lat="2.776297" lon="-75.07721">
        <ele>1832.5</ele>
        <time>2021-08-21T15:22:06Z</time>
      </trkpt>
      <trkpt lat="2.776287" lon="-75.07721">
        <ele>1832.6</ele>
        <time>2021-08-21T15:22:07Z</time>
      </trkpt>
      <trkpt lat="2.776277" lon="-75.07722">
        <ele>1832.7</ele>
        <time>2021-08-21T15:22:08Z</time>
      </trkpt>
      <trkpt lat="2.776267" lon="-75.07722">
        <ele>1832.8</ele>
        <time>2021-08-21T15:22:09Z</time>
      </trkpt>
      <trkpt lat="2.776257" lon="-75.07722">
        <ele>1832.9</ele>
        <time>2021-08-21T15:22:10Z</time>
      </trkpt>
      <trkpt lat="2.776247" lon="-75.07722">
        <ele>1832.9</ele>
        <time>2021-08-21T15:22:11Z</time>
      </trkpt>
      <trkpt lat="2.776237" lon="-75.07722">
        <ele>1833.0</ele>
        <time>2021-08-21T15:22:12Z</time>
      </trkpt>
      <trkpt lat="2.776226" lon="-75.07722">
        <ele>1833.1</ele>
        <time>2021-08-21T15:22:13Z</time>
      </trkpt>
      <trkpt lat="2.776215" lon="-75.077225">
        <ele>1833.2</ele>
        <time>2021-08-21T15:22:14Z</time>
      </trkpt>
      <trkpt lat="2.776203" lon="-75.077225">
        <ele>1833.3</ele>
        <time>2021-08-21T15:22:15Z</time>
      </trkpt>
      <trkpt lat="2.776193" lon="-75.077225">
        <ele>1833.4</ele>
        <time>2021-08-21T15:22:16Z</time>
      </trkpt>
      <trkpt lat="2.776183" lon="-75.077225">
        <ele>1833.5</ele>
        <time>2021-08-21T15:22:17Z</time>
      </trkpt>
      <trkpt lat="2.776173" lon="-75.077225">
        <ele>1833.6</ele>
        <time>2021-08-21T15:22:18Z</time>
      </trkpt>
      <trkpt lat="2.776163" lon="-75.077225">
        <ele>1833.6</ele>
        <time>2021-08-21T15:22:19Z</time>
      </trkpt>
      <trkpt lat="2.776153" lon="-75.077225">
        <ele>1833.7</ele>
        <time>2021-08-21T15:22:20Z</time>
      </trkpt>
      <trkpt lat="2.776142" lon="-75.077225">
        <ele>1833.8</ele>
        <time>2021-08-21T15:22:21Z</time>
      </trkpt>
      <trkpt lat="2.776132" lon="-75.077225">
        <ele>1833.9</ele>
        <time>2021-08-21T15:22:22Z</time>
      </trkpt>
      <trkpt lat="2.776121" lon="-75.077225">
        <ele>1834.0</ele>
        <time>2021-08-21T15:22:23Z</time>
      </trkpt>
      <trkpt lat="2.776111" lon="-75.07722">
        <ele>1834.1</ele>
        <time>2021-08-21T15:22:24Z</time>
      </trkpt>
      <trkpt lat="2.776101" lon="-75.07722">
        <ele>1834.2</ele>
        <time>2021-08-21T15:22:25Z</time>
      </trkpt>
      <trkpt lat="2.776091" lon="-75.07722">
        <ele>1834.3</ele>
        <time>2021-08-21T15:22:26Z</time>
      </trkpt>
      <trkpt lat="2.776081" lon="-75.07722">
        <ele>1834.3</ele>
        <time>2021-08-21T15:22:27Z</time>
      </trkpt>
      <trkpt lat="2.776071" lon="-75.07722">
        <ele>1834.4</ele>
        <time>2021-08-21T15:22:28Z</time>
      </trkpt>
      <trkpt lat="2.77606" lon="-75.07722">
        <ele>1834.5</ele>
        <time>2021-08-21T15:22:29Z</time>
      </trkpt>
      <trkpt lat="2.776049" lon="-75.07722">
        <ele>1834.6</ele>
        <time>2021-08-21T15:22:30Z</time>
      </trkpt>
      <trkpt lat="2.776037" lon="-75.07722">
        <ele>1834.7</ele>
        <time>2021-08-21T15:22:31Z</time>
      </trkpt>
      <trkpt lat="2.776027" lon="-75.07722">
        <ele>1834.8</ele>
        <time>2021-08-21T15:22:32Z</time>
      </trkpt>
      <trkpt lat="2.776017" lon="-75.07721">
        <ele>1834.9</ele>
        <time>2021-08-21T15:22:33Z</time>
      </trkpt>
      <trkpt lat="2.776009" lon="-75.07721">
        <ele>1835.0</ele>
        <time>2021-08-21T15:22:34Z</time>
      </trkpt>
      <trkpt lat="2.776" lon="-75.0772">
        <ele>1835.1</ele>
        <time>2021-08-21T15:22:35Z</time>
      </trkpt>
      <trkpt lat="2.775991" lon="-75.077194">
        <ele>1835.1</ele>
        <time>2021-08-21T15:22:36Z</time>
      </trkpt>
      <trkpt lat="2.775982" lon="-75.07719">
        <ele>1835.2</ele>
        <time>2021-08-21T15:22:37Z</time>
      </trkpt>
      <trkpt lat="2.775973" lon="-75.07719">
        <ele>1835.3</ele>
        <time>2021-08-21T15:22:38Z</time>
      </trkpt>
      <trkpt lat="2.775963" lon="-75.07718">
        <ele>1835.4</ele>
        <time>2021-08-21T15:22:39Z</time>
      </trkpt>
      <trkpt lat="2.775952" lon="-75.07717">
        <ele>1835.5</ele>
        <time>2021-08-21T15:22:40Z</time>
      </trkpt>
      <trkpt lat="2.775942" lon="-75.07717">
        <ele>1835.6</ele>
        <time>2021-08-21T15:22:41Z</time>
      </trkpt>
      <trkpt lat="2.775932" lon="-75.07716">
        <ele>1835.7</ele>
        <time>2021-08-21T15:22:42Z</time>
      </trkpt>
      <trkpt lat="2.775922" lon="-75.07716">
        <ele>1835.8</ele>
        <time>2021-08-21T15:22:43Z</time>
      </trkpt>
      <trkpt lat="2.775912" lon="-75.07716">
        <ele>1835.9</ele>
        <time>2021-08-21T15:22:44Z</time>
      </trkpt>
      <trkpt lat="2.775902" lon="-75.07716">
        <ele>1836.0</ele>
        <time>2021-08-21T15:22:45Z</time>
      </trkpt>
      <trkpt lat="2.775892" lon="-75.07716">
        <ele>1836.0</ele>
        <time>2021-08-21T15:22:46Z</time>
      </trkpt>
      <trkpt lat="2.775882" lon="-75.07716">
        <ele>1836.1</ele>
        <time>2021-08-21T15:22:47Z</time>
      </trkpt>
      <trkpt lat="2.775873" lon="-75.07716">
        <ele>1836.2</ele>
        <time>2021-08-21T15:22:48Z</time>
      </trkpt>
      <trkpt lat="2.775864" lon="-75.07717">
        <ele>1836.3</ele>
        <time>2021-08-21T15:22:49Z</time>
      </trkpt>
      <trkpt lat="2.775855" lon="-75.07717">
        <ele>1836.4</ele>
        <time>2021-08-21T15:22:50Z</time>
      </trkpt>
      <trkpt lat="2.775845" lon="-75.07717">
        <ele>1836.4</ele>
        <time>2021-08-21T15:22:51Z</time>
      </trkpt>
      <trkpt lat="2.775836" lon="-75.07717">
        <ele>1836.5</ele>
        <time>2021-08-21T15:22:52Z</time>
      </trkpt>
      <trkpt lat="2.775826" lon="-75.07718">
        <ele>1836.6</ele>
        <time>2021-08-21T15:22:53Z</time>
      </trkpt>
      <trkpt lat="2.775817" lon="-75.07718">
        <ele>1836.7</ele>
        <time>2021-08-21T15:22:54Z</time>
      </trkpt>
      <trkpt lat="2.77581" lon="-75.07719">
        <ele>1836.8</ele>
        <time>2021-08-21T15:22:55Z</time>
      </trkpt>
      <trkpt lat="2.775802" lon="-75.07719">
        <ele>1836.8</ele>
        <time>2021-08-21T15:22:56Z</time>
      </trkpt>
      <trkpt lat="2.775795" lon="-75.077194">
        <ele>1836.9</ele>
        <time>2021-08-21T15:22:57Z</time>
      </trkpt>
      <trkpt lat="2.775788" lon="-75.077194">
        <ele>1837.0</ele>
        <time>2021-08-21T15:22:58Z</time>
      </trkpt>
      <trkpt lat="2.775782" lon="-75.0772">
        <ele>1837.0</ele>
        <time>2021-08-21T15:22:59Z</time>
      </trkpt>
      <trkpt lat="2.775775" lon="-75.07721">
        <ele>1837.1</ele>
        <time>2021-08-21T15:23:00Z</time>
      </trkpt>
      <trkpt lat="2.775769" lon="-75.07722">
        <ele>1837.2</ele>
        <time>2021-08-21T15:23:01Z</time>
      </trkpt>
      <trkpt lat="2.775762" lon="-75.077225">
        <ele>1837.3</ele>
        <time>2021-08-21T15:23:02Z</time>
      </trkpt>
      <trkpt lat="2.775757" lon="-75.07723">
        <ele>1837.4</ele>
        <time>2021-08-21T15:23:03Z</time>
      </trkpt>
      <trkpt lat="2.775754" lon="-75.07724">
        <ele>1837.4</ele>
        <time>2021-08-21T15:23:04Z</time>
      </trkpt>
      <trkpt lat="2.775749" lon="-75.07725">
        <ele>1837.5</ele>
        <time>2021-08-21T15:23:05Z</time>
      </trkpt>
      <trkpt lat="2.775745" lon="-75.077255">
        <ele>1837.6</ele>
        <time>2021-08-21T15:23:06Z</time>
      </trkpt>
      <trkpt lat="2.775741" lon="-75.077255">
        <ele>1837.6</ele>
        <time>2021-08-21T15:23:07Z</time>
      </trkpt>
      <trkpt lat="2.775738" lon="-75.07726">
        <ele>1837.7</ele>
        <time>2021-08-21T15:23:08Z</time>
      </trkpt>
      <trkpt lat="2.775735" lon="-75.07727">
        <ele>1837.8</ele>
        <time>2021-08-21T15:23:09Z</time>
      </trkpt>
      <trkpt lat="2.775734" lon="-75.07728">
        <ele>1837.8</ele>
        <time>2021-08-21T15:23:10Z</time>
      </trkpt>
      <trkpt lat="2.775734" lon="-75.077286">
        <ele>1837.9</ele>
        <time>2021-08-21T15:23:11Z</time>
      </trkpt>
      <trkpt lat="2.775732" lon="-75.07729">
        <ele>1838.0</ele>
        <time>2021-08-21T15:23:12Z</time>
      </trkpt>
      <trkpt lat="2.77573" lon="-75.0773">
        <ele>1838.0</ele>
        <time>2021-08-21T15:23:13Z</time>
      </trkpt>
      <trkpt lat="2.775726" lon="-75.07731">
        <ele>1838.1</ele>
        <time>2021-08-21T15:23:14Z</time>
      </trkpt>
      <trkpt lat="2.775721" lon="-75.07732">
        <ele>1838.2</ele>
        <time>2021-08-21T15:23:15Z</time>
      </trkpt>
      <trkpt lat="2.775716" lon="-75.077324">
        <ele>1838.2</ele>
        <time>2021-08-21T15:23:16Z</time>
      </trkpt>
      <trkpt lat="2.775712" lon="-75.077324">
        <ele>1838.3</ele>
        <time>2021-08-21T15:23:17Z</time>
      </trkpt>
      <trkpt lat="2.775707" lon="-75.07733">
        <ele>1838.3</ele>
        <time>2021-08-21T15:23:18Z</time>
      </trkpt>
      <trkpt lat="2.7757" lon="-75.07733">
        <ele>1838.4</ele>
        <time>2021-08-21T15:23:19Z</time>
      </trkpt>
      <trkpt lat="2.775692" lon="-75.07733">
        <ele>1838.5</ele>
        <time>2021-08-21T15:23:20Z</time>
      </trkpt>
      <trkpt lat="2.775683" lon="-75.07734">
        <ele>1838.5</ele>
        <time>2021-08-21T15:23:21Z</time>
      </trkpt>
      <trkpt lat="2.775672" lon="-75.07734">
        <ele>1838.6</ele>
        <time>2021-08-21T15:23:22Z</time>
      </trkpt>
      <trkpt lat="2.775662" lon="-75.07735">
        <ele>1838.7</ele>
        <time>2021-08-21T15:23:23Z</time>
      </trkpt>
      <trkpt lat="2.775652" lon="-75.077354">
        <ele>1838.8</ele>
        <time>2021-08-21T15:23:24Z</time>
      </trkpt>
      <trkpt lat="2.775641" lon="-75.07736">
        <ele>1839.0</ele>
        <time>2021-08-21T15:23:25Z</time>
      </trkpt>
      <trkpt lat="2.775632" lon="-75.07737">
        <ele>1839.1</ele>
        <time>2021-08-21T15:23:26Z</time>
      </trkpt>
      <trkpt lat="2.775623" lon="-75.07738">
        <ele>1839.2</ele>
        <time>2021-08-21T15:23:27Z</time>
      </trkpt>
      <trkpt lat="2.775614" lon="-75.077385">
        <ele>1839.3</ele>
        <time>2021-08-21T15:23:28Z</time>
      </trkpt>
      <trkpt lat="2.775595" lon="-75.0774">
        <ele>1839.4</ele>
        <time>2021-08-21T15:23:29Z</time>
      </trkpt>
      <trkpt lat="2.775585" lon="-75.0774">
        <ele>1839.5</ele>
        <time>2021-08-21T15:23:30Z</time>
      </trkpt>
      <trkpt lat="2.775576" lon="-75.07741">
        <ele>1839.6</ele>
        <time>2021-08-21T15:23:31Z</time>
      </trkpt>
      <trkpt lat="2.775566" lon="-75.077415">
        <ele>1839.7</ele>
        <time>2021-08-21T15:23:32Z</time>
      </trkpt>
      <trkpt lat="2.775557" lon="-75.077415">
        <ele>1839.8</ele>
        <time>2021-08-21T15:23:33Z</time>
      </trkpt>
      <trkpt lat="2.775547" lon="-75.07742">
        <ele>1839.9</ele>
        <time>2021-08-21T15:23:34Z</time>
      </trkpt>
      <trkpt lat="2.775538" lon="-75.07742">
        <ele>1840.0</ele>
        <time>2021-08-21T15:23:35Z</time>
      </trkpt>
      <trkpt lat="2.775528" lon="-75.07743">
        <ele>1840.1</ele>
        <time>2021-08-21T15:23:36Z</time>
      </trkpt>
      <trkpt lat="2.775519" lon="-75.07744">
        <ele>1840.2</ele>
        <time>2021-08-21T15:23:37Z</time>
      </trkpt>
      <trkpt lat="2.77551" lon="-75.07744">
        <ele>1840.2</ele>
        <time>2021-08-21T15:23:38Z</time>
      </trkpt>
      <trkpt lat="2.7755" lon="-75.077446">
        <ele>1840.3</ele>
        <time>2021-08-21T15:23:39Z</time>
      </trkpt>
      <trkpt lat="2.775491" lon="-75.077446">
        <ele>1840.4</ele>
        <time>2021-08-21T15:23:40Z</time>
      </trkpt>
      <trkpt lat="2.775481" lon="-75.07745">
        <ele>1840.5</ele>
        <time>2021-08-21T15:23:41Z</time>
      </trkpt>
      <trkpt lat="2.775472" lon="-75.07746">
        <ele>1840.6</ele>
        <time>2021-08-21T15:23:42Z</time>
      </trkpt>
      <trkpt lat="2.775462" lon="-75.07746">
        <ele>1840.7</ele>
        <time>2021-08-21T15:23:43Z</time>
      </trkpt>
      <trkpt lat="2.775453" lon="-75.07747">
        <ele>1840.8</ele>
        <time>2021-08-21T15:23:44Z</time>
      </trkpt>
      <trkpt lat="2.775443" lon="-75.07747">
        <ele>1840.9</ele>
        <time>2021-08-21T15:23:45Z</time>
      </trkpt>
      <trkpt lat="2.775434" lon="-75.07748">
        <ele>1841.0</ele>
        <time>2021-08-21T15:23:46Z</time>
      </trkpt>
      <trkpt lat="2.775424" lon="-75.07748">
        <ele>1841.0</ele>
        <time>2021-08-21T15:23:47Z</time>
      </trkpt>
      <trkpt lat="2.775415" lon="-75.077484">
        <ele>1841.1</ele>
        <time>2021-08-21T15:23:48Z</time>
      </trkpt>
      <trkpt lat="2.775406" lon="-75.07749">
        <ele>1841.2</ele>
        <time>2021-08-21T15:23:49Z</time>
      </trkpt>
      <trkpt lat="2.775396" lon="-75.07749">
        <ele>1841.3</ele>
        <time>2021-08-21T15:23:50Z</time>
      </trkpt>
      <trkpt lat="2.775387" lon="-75.0775">
        <ele>1841.4</ele>
        <time>2021-08-21T15:23:51Z</time>
      </trkpt>
      <trkpt lat="2.775377" lon="-75.0775">
        <ele>1841.5</ele>
        <time>2021-08-21T15:23:52Z</time>
      </trkpt>
      <trkpt lat="2.775368" lon="-75.07751">
        <ele>1841.6</ele>
        <time>2021-08-21T15:23:53Z</time>
      </trkpt>
      <trkpt lat="2.775358" lon="-75.077515">
        <ele>1841.7</ele>
        <time>2021-08-21T15:23:54Z</time>
      </trkpt>
      <trkpt lat="2.775349" lon="-75.077515">
        <ele>1841.7</ele>
        <time>2021-08-21T15:23:55Z</time>
      </trkpt>
      <trkpt lat="2.775339" lon="-75.07752">
        <ele>1841.8</ele>
        <time>2021-08-21T15:23:56Z</time>
      </trkpt>
      <trkpt lat="2.77533" lon="-75.07752">
        <ele>1841.9</ele>
        <time>2021-08-21T15:23:57Z</time>
      </trkpt>
      <trkpt lat="2.775321" lon="-75.07753">
        <ele>1842.0</ele>
        <time>2021-08-21T15:23:58Z</time>
      </trkpt>
      <trkpt lat="2.775311" lon="-75.07754">
        <ele>1842.1</ele>
        <time>2021-08-21T15:23:59Z</time>
      </trkpt>
      <trkpt lat="2.775302" lon="-75.07754">
        <ele>1842.2</ele>
        <time>2021-08-21T15:24:00Z</time>
      </trkpt>
      <trkpt lat="2.775292" lon="-75.077545">
        <ele>1842.3</ele>
        <time>2021-08-21T15:24:01Z</time>
      </trkpt>
      <trkpt lat="2.775283" lon="-75.077545">
        <ele>1842.4</ele>
        <time>2021-08-21T15:24:02Z</time>
      </trkpt>
      <trkpt lat="2.775273" lon="-75.07755">
        <ele>1842.5</ele>
        <time>2021-08-21T15:24:03Z</time>
      </trkpt>
      <trkpt lat="2.775264" lon="-75.07755">
        <ele>1842.5</ele>
        <time>2021-08-21T15:24:04Z</time>
      </trkpt>
      <trkpt lat="2.775254" lon="-75.07756">
        <ele>1842.6</ele>
        <time>2021-08-21T15:24:05Z</time>
      </trkpt>
      <trkpt lat="2.775245" lon="-75.07757">
        <ele>1842.7</ele>
        <time>2021-08-21T15:24:06Z</time>
      </trkpt>
      <trkpt lat="2.775226" lon="-75.077576">
        <ele>1842.9</ele>
        <time>2021-08-21T15:24:07Z</time>
      </trkpt>
      <trkpt lat="2.775235" lon="-75.07757">
        <ele>1842.8</ele>
        <time>2021-08-21T15:24:07Z</time>
      </trkpt>
      <trkpt lat="2.775216" lon="-75.077576">
        <ele>1843.0</ele>
        <time>2021-08-21T15:24:08Z</time>
      </trkpt>
      <trkpt lat="2.775206" lon="-75.07758">
        <ele>1843.1</ele>
        <time>2021-08-21T15:24:09Z</time>
      </trkpt>
      <trkpt lat="2.775196" lon="-75.07758">
        <ele>1843.2</ele>
        <time>2021-08-21T15:24:10Z</time>
      </trkpt>
      <trkpt lat="2.775187" lon="-75.07759">
        <ele>1843.2</ele>
        <time>2021-08-21T15:24:11Z</time>
      </trkpt>
      <trkpt lat="2.775177" lon="-75.07759">
        <ele>1843.3</ele>
        <time>2021-08-21T15:24:12Z</time>
      </trkpt>
      <trkpt lat="2.775167" lon="-75.0776">
        <ele>1843.4</ele>
        <time>2021-08-21T15:24:13Z</time>
      </trkpt>
      <trkpt lat="2.775156" lon="-75.0776">
        <ele>1843.5</ele>
        <time>2021-08-21T15:24:14Z</time>
      </trkpt>
      <trkpt lat="2.775145" lon="-75.07761">
        <ele>1843.6</ele>
        <time>2021-08-21T15:24:15Z</time>
      </trkpt>
      <trkpt lat="2.775136" lon="-75.07761">
        <ele>1843.7</ele>
        <time>2021-08-21T15:24:16Z</time>
      </trkpt>
      <trkpt lat="2.775127" lon="-75.077614">
        <ele>1843.8</ele>
        <time>2021-08-21T15:24:17Z</time>
      </trkpt>
      <trkpt lat="2.775118" lon="-75.077614">
        <ele>1843.9</ele>
        <time>2021-08-21T15:24:18Z</time>
      </trkpt>
      <trkpt lat="2.775108" lon="-75.07762">
        <ele>1844.0</ele>
        <time>2021-08-21T15:24:19Z</time>
      </trkpt>
      <trkpt lat="2.775098" lon="-75.07763">
        <ele>1844.1</ele>
        <time>2021-08-21T15:24:20Z</time>
      </trkpt>
      <trkpt lat="2.775089" lon="-75.07763">
        <ele>1844.1</ele>
        <time>2021-08-21T15:24:21Z</time>
      </trkpt>
      <trkpt lat="2.77508" lon="-75.07764">
        <ele>1844.2</ele>
        <time>2021-08-21T15:24:22Z</time>
      </trkpt>
      <trkpt lat="2.775072" lon="-75.07764">
        <ele>1844.3</ele>
        <time>2021-08-21T15:24:23Z</time>
      </trkpt>
      <trkpt lat="2.775064" lon="-75.077644">
        <ele>1844.4</ele>
        <time>2021-08-21T15:24:24Z</time>
      </trkpt>
      <trkpt lat="2.775057" lon="-75.077644">
        <ele>1844.4</ele>
        <time>2021-08-21T15:24:25Z</time>
      </trkpt>
      <trkpt lat="2.775049" lon="-75.07765">
        <ele>1844.5</ele>
        <time>2021-08-21T15:24:26Z</time>
      </trkpt>
      <trkpt lat="2.775041" lon="-75.07766">
        <ele>1844.6</ele>
        <time>2021-08-21T15:24:27Z</time>
      </trkpt>
      <trkpt lat="2.775031" lon="-75.07766">
        <ele>1844.7</ele>
        <time>2021-08-21T15:24:28Z</time>
      </trkpt>
      <trkpt lat="2.775022" lon="-75.07767">
        <ele>1844.8</ele>
        <time>2021-08-21T15:24:29Z</time>
      </trkpt>
      <trkpt lat="2.775014" lon="-75.07767">
        <ele>1844.9</ele>
        <time>2021-08-21T15:24:30Z</time>
      </trkpt>
      <trkpt lat="2.775005" lon="-75.077675">
        <ele>1844.9</ele>
        <time>2021-08-21T15:24:31Z</time>
      </trkpt>
      <trkpt lat="2.774995" lon="-75.07768">
        <ele>1845.0</ele>
        <time>2021-08-21T15:24:32Z</time>
      </trkpt>
      <trkpt lat="2.774985" lon="-75.07768">
        <ele>1845.1</ele>
        <time>2021-08-21T15:24:33Z</time>
      </trkpt>
      <trkpt lat="2.774976" lon="-75.07769">
        <ele>1845.2</ele>
        <time>2021-08-21T15:24:34Z</time>
      </trkpt>
      <trkpt lat="2.774966" lon="-75.0777">
        <ele>1845.3</ele>
        <time>2021-08-21T15:24:35Z</time>
      </trkpt>
      <trkpt lat="2.774956" lon="-75.077705">
        <ele>1845.4</ele>
        <time>2021-08-21T15:24:36Z</time>
      </trkpt>
      <trkpt lat="2.774948" lon="-75.07771">
        <ele>1845.5</ele>
        <time>2021-08-21T15:24:37Z</time>
      </trkpt>
      <trkpt lat="2.77494" lon="-75.07772">
        <ele>1845.6</ele>
        <time>2021-08-21T15:24:38Z</time>
      </trkpt>
      <trkpt lat="2.774932" lon="-75.07773">
        <ele>1845.7</ele>
        <time>2021-08-21T15:24:39Z</time>
      </trkpt>
      <trkpt lat="2.774924" lon="-75.077736">
        <ele>1845.8</ele>
        <time>2021-08-21T15:24:40Z</time>
      </trkpt>
      <trkpt lat="2.774915" lon="-75.07774">
        <ele>1845.9</ele>
        <time>2021-08-21T15:24:41Z</time>
      </trkpt>
      <trkpt lat="2.774907" lon="-75.07776">
        <ele>1846.0</ele>
        <time>2021-08-21T15:24:42Z</time>
      </trkpt>
      <trkpt lat="2.774899" lon="-75.07777">
        <ele>1846.1</ele>
        <time>2021-08-21T15:24:43Z</time>
      </trkpt>
      <trkpt lat="2.774891" lon="-75.077774">
        <ele>1846.2</ele>
        <time>2021-08-21T15:24:44Z</time>
      </trkpt>
      <trkpt lat="2.774884" lon="-75.07778">
        <ele>1846.3</ele>
        <time>2021-08-21T15:24:45Z</time>
      </trkpt>
      <trkpt lat="2.774877" lon="-75.0778">
        <ele>1846.4</ele>
        <time>2021-08-21T15:24:46Z</time>
      </trkpt>
      <trkpt lat="2.774871" lon="-75.077805">
        <ele>1846.5</ele>
        <time>2021-08-21T15:24:47Z</time>
      </trkpt>
      <trkpt lat="2.774867" lon="-75.07781">
        <ele>1846.6</ele>
        <time>2021-08-21T15:24:48Z</time>
      </trkpt>
      <trkpt lat="2.774862" lon="-75.07783">
        <ele>1846.7</ele>
        <time>2021-08-21T15:24:49Z</time>
      </trkpt>
      <trkpt lat="2.774858" lon="-75.077835">
        <ele>1846.8</ele>
        <time>2021-08-21T15:24:50Z</time>
      </trkpt>
      <trkpt lat="2.774852" lon="-75.07785">
        <ele>1846.9</ele>
        <time>2021-08-21T15:24:51Z</time>
      </trkpt>
      <trkpt lat="2.774846" lon="-75.07786">
        <ele>1847.0</ele>
        <time>2021-08-21T15:24:52Z</time>
      </trkpt>
      <trkpt lat="2.77484" lon="-75.077866">
        <ele>1847.1</ele>
        <time>2021-08-21T15:24:53Z</time>
      </trkpt>
      <trkpt lat="2.774835" lon="-75.07787">
        <ele>1847.2</ele>
        <time>2021-08-21T15:24:54Z</time>
      </trkpt>
      <trkpt lat="2.774831" lon="-75.07789">
        <ele>1847.3</ele>
        <time>2021-08-21T15:24:55Z</time>
      </trkpt>
      <trkpt lat="2.774827" lon="-75.077896">
        <ele>1847.4</ele>
        <time>2021-08-21T15:24:56Z</time>
      </trkpt>
      <trkpt lat="2.774824" lon="-75.0779">
        <ele>1847.5</ele>
        <time>2021-08-21T15:24:57Z</time>
      </trkpt>
      <trkpt lat="2.774821" lon="-75.07791">
        <ele>1847.5</ele>
        <time>2021-08-21T15:24:58Z</time>
      </trkpt>
      <trkpt lat="2.774816" lon="-75.07792">
        <ele>1847.6</ele>
        <time>2021-08-21T15:24:59Z</time>
      </trkpt>
      <trkpt lat="2.77481" lon="-75.07793">
        <ele>1847.7</ele>
        <time>2021-08-21T15:25:00Z</time>
      </trkpt>
      <trkpt lat="2.774803" lon="-75.077934">
        <ele>1847.8</ele>
        <time>2021-08-21T15:25:01Z</time>
      </trkpt>
      <trkpt lat="2.774798" lon="-75.07794">
        <ele>1847.9</ele>
        <time>2021-08-21T15:25:02Z</time>
      </trkpt>
      <trkpt lat="2.774793" lon="-75.07795">
        <ele>1848.0</ele>
        <time>2021-08-21T15:25:03Z</time>
      </trkpt>
      <trkpt lat="2.77479" lon="-75.077965">
        <ele>1848.0</ele>
        <time>2021-08-21T15:25:04Z</time>
      </trkpt>
      <trkpt lat="2.774785" lon="-75.07797">
        <ele>1848.1</ele>
        <time>2021-08-21T15:25:05Z</time>
      </trkpt>
      <trkpt lat="2.774779" lon="-75.07797">
        <ele>1848.2</ele>
        <time>2021-08-21T15:25:06Z</time>
      </trkpt>
      <trkpt lat="2.774772" lon="-75.07798">
        <ele>1848.3</ele>
        <time>2021-08-21T15:25:07Z</time>
      </trkpt>
      <trkpt lat="2.774767" lon="-75.077995">
        <ele>1848.4</ele>
        <time>2021-08-21T15:25:08Z</time>
      </trkpt>
      <trkpt lat="2.774764" lon="-75.078">
        <ele>1848.4</ele>
        <time>2021-08-21T15:25:09Z</time>
      </trkpt>
      <trkpt lat="2.774761" lon="-75.07801">
        <ele>1848.5</ele>
        <time>2021-08-21T15:25:10Z</time>
      </trkpt>
      <trkpt lat="2.774756" lon="-75.07802">
        <ele>1848.6</ele>
        <time>2021-08-21T15:25:11Z</time>
      </trkpt>
      <trkpt lat="2.774751" lon="-75.078026">
        <ele>1848.7</ele>
        <time>2021-08-21T15:25:12Z</time>
      </trkpt>
      <trkpt lat="2.774748" lon="-75.07803">
        <ele>1848.8</ele>
        <time>2021-08-21T15:25:13Z</time>
      </trkpt>
      <trkpt lat="2.774744" lon="-75.07804">
        <ele>1848.8</ele>
        <time>2021-08-21T15:25:14Z</time>
      </trkpt>
      <trkpt lat="2.774742" lon="-75.07805">
        <ele>1848.9</ele>
        <time>2021-08-21T15:25:15Z</time>
      </trkpt>
      <trkpt lat="2.774738" lon="-75.078064">
        <ele>1849.0</ele>
        <time>2021-08-21T15:25:16Z</time>
      </trkpt>
      <trkpt lat="2.774734" lon="-75.07807">
        <ele>1849.1</ele>
        <time>2021-08-21T15:25:17Z</time>
      </trkpt>
      <trkpt lat="2.774729" lon="-75.07808">
        <ele>1849.1</ele>
        <time>2021-08-21T15:25:18Z</time>
      </trkpt>
      <trkpt lat="2.774724" lon="-75.07808">
        <ele>1849.2</ele>
        <time>2021-08-21T15:25:19Z</time>
      </trkpt>
      <trkpt lat="2.77472" lon="-75.07809">
        <ele>1849.3</ele>
        <time>2021-08-21T15:25:20Z</time>
      </trkpt>
      <trkpt lat="2.774715" lon="-75.078094">
        <ele>1849.4</ele>
        <time>2021-08-21T15:25:21Z</time>
      </trkpt>
      <trkpt lat="2.774709" lon="-75.0781">
        <ele>1849.4</ele>
        <time>2021-08-21T15:25:22Z</time>
      </trkpt>
      <trkpt lat="2.774703" lon="-75.07811">
        <ele>1849.5</ele>
        <time>2021-08-21T15:25:23Z</time>
      </trkpt>
      <trkpt lat="2.774697" lon="-75.07812">
        <ele>1849.6</ele>
        <time>2021-08-21T15:25:24Z</time>
      </trkpt>
      <trkpt lat="2.77469" lon="-75.078125">
        <ele>1849.7</ele>
        <time>2021-08-21T15:25:25Z</time>
      </trkpt>
      <trkpt lat="2.774685" lon="-75.07813">
        <ele>1849.8</ele>
        <time>2021-08-21T15:25:26Z</time>
      </trkpt>
      <trkpt lat="2.77468" lon="-75.07814">
        <ele>1849.8</ele>
        <time>2021-08-21T15:25:27Z</time>
      </trkpt>
      <trkpt lat="2.774675" lon="-75.07815">
        <ele>1849.9</ele>
        <time>2021-08-21T15:25:28Z</time>
      </trkpt>
      <trkpt lat="2.77467" lon="-75.078156">
        <ele>1850.0</ele>
        <time>2021-08-21T15:25:29Z</time>
      </trkpt>
      <trkpt lat="2.774664" lon="-75.07816">
        <ele>1850.1</ele>
        <time>2021-08-21T15:25:30Z</time>
      </trkpt>
      <trkpt lat="2.774658" lon="-75.07817">
        <ele>1850.1</ele>
        <time>2021-08-21T15:25:31Z</time>
      </trkpt>
      <trkpt lat="2.774651" lon="-75.07818">
        <ele>1850.2</ele>
        <time>2021-08-21T15:25:32Z</time>
      </trkpt>
      <trkpt lat="2.774646" lon="-75.078186">
        <ele>1850.3</ele>
        <time>2021-08-21T15:25:33Z</time>
      </trkpt>
      <trkpt lat="2.774642" lon="-75.07819">
        <ele>1850.4</ele>
        <time>2021-08-21T15:25:34Z</time>
      </trkpt>
      <trkpt lat="2.774637" lon="-75.0782">
        <ele>1850.4</ele>
        <time>2021-08-21T15:25:35Z</time>
      </trkpt>
      <trkpt lat="2.774633" lon="-75.07821">
        <ele>1850.5</ele>
        <time>2021-08-21T15:25:36Z</time>
      </trkpt>
      <trkpt lat="2.774628" lon="-75.07822">
        <ele>1850.6</ele>
        <time>2021-08-21T15:25:37Z</time>
      </trkpt>
      <trkpt lat="2.774623" lon="-75.078224">
        <ele>1850.7</ele>
        <time>2021-08-21T15:25:38Z</time>
      </trkpt>
      <trkpt lat="2.774617" lon="-75.078224">
        <ele>1850.7</ele>
        <time>2021-08-21T15:25:39Z</time>
      </trkpt>
      <trkpt lat="2.77461" lon="-75.07823">
        <ele>1850.8</ele>
        <time>2021-08-21T15:25:40Z</time>
      </trkpt>
      <trkpt lat="2.774603" lon="-75.07824">
        <ele>1850.9</ele>
        <time>2021-08-21T15:25:41Z</time>
      </trkpt>
      <trkpt lat="2.774597" lon="-75.07825">
        <ele>1851.0</ele>
        <time>2021-08-21T15:25:42Z</time>
      </trkpt>
      <trkpt lat="2.77459" lon="-75.078255">
        <ele>1851.1</ele>
        <time>2021-08-21T15:25:43Z</time>
      </trkpt>
      <trkpt lat="2.774584" lon="-75.07826">
        <ele>1851.1</ele>
        <time>2021-08-21T15:25:44Z</time>
      </trkpt>
      <trkpt lat="2.77458" lon="-75.07827">
        <ele>1851.2</ele>
        <time>2021-08-21T15:25:45Z</time>
      </trkpt>
      <trkpt lat="2.774575" lon="-75.07828">
        <ele>1851.3</ele>
        <time>2021-08-21T15:25:46Z</time>
      </trkpt>
      <trkpt lat="2.774571" lon="-75.078285">
        <ele>1851.4</ele>
        <time>2021-08-21T15:25:47Z</time>
      </trkpt>
      <trkpt lat="2.774566" lon="-75.07829">
        <ele>1851.4</ele>
        <time>2021-08-21T15:25:48Z</time>
      </trkpt>
      <trkpt lat="2.774561" lon="-75.0783">
        <ele>1851.5</ele>
        <time>2021-08-21T15:25:49Z</time>
      </trkpt>
      <trkpt lat="2.774555" lon="-75.07831">
        <ele>1851.6</ele>
        <time>2021-08-21T15:25:50Z</time>
      </trkpt>
      <trkpt lat="2.774549" lon="-75.078316">
        <ele>1851.7</ele>
        <time>2021-08-21T15:25:51Z</time>
      </trkpt>
      <trkpt lat="2.774542" lon="-75.07832">
        <ele>1851.8</ele>
        <time>2021-08-21T15:25:52Z</time>
      </trkpt>
      <trkpt lat="2.774536" lon="-75.07833">
        <ele>1851.9</ele>
        <time>2021-08-21T15:25:53Z</time>
      </trkpt>
      <trkpt lat="2.774529" lon="-75.07834">
        <ele>1851.9</ele>
        <time>2021-08-21T15:25:54Z</time>
      </trkpt>
      <trkpt lat="2.774523" lon="-75.07835">
        <ele>1852.0</ele>
        <time>2021-08-21T15:25:55Z</time>
      </trkpt>
      <trkpt lat="2.774517" lon="-75.078354">
        <ele>1852.1</ele>
        <time>2021-08-21T15:25:56Z</time>
      </trkpt>
      <trkpt lat="2.774512" lon="-75.07836">
        <ele>1852.2</ele>
        <time>2021-08-21T15:25:57Z</time>
      </trkpt>
      <trkpt lat="2.774506" lon="-75.07838">
        <ele>1852.3</ele>
        <time>2021-08-21T15:25:58Z</time>
      </trkpt>
      <trkpt lat="2.7745" lon="-75.078384">
        <ele>1852.4</ele>
        <time>2021-08-21T15:25:59Z</time>
      </trkpt>
      <trkpt lat="2.774493" lon="-75.07839">
        <ele>1852.5</ele>
        <time>2021-08-21T15:26:00Z</time>
      </trkpt>
      <trkpt lat="2.774487" lon="-75.0784">
        <ele>1852.5</ele>
        <time>2021-08-21T15:26:01Z</time>
      </trkpt>
      <trkpt lat="2.774482" lon="-75.07841">
        <ele>1852.6</ele>
        <time>2021-08-21T15:26:02Z</time>
      </trkpt>
      <trkpt lat="2.774476" lon="-75.078415">
        <ele>1852.7</ele>
        <time>2021-08-21T15:26:03Z</time>
      </trkpt>
      <trkpt lat="2.774472" lon="-75.07842">
        <ele>1852.8</ele>
        <time>2021-08-21T15:26:04Z</time>
      </trkpt>
      <trkpt lat="2.774467" lon="-75.07843">
        <ele>1852.9</ele>
        <time>2021-08-21T15:26:05Z</time>
      </trkpt>
      <trkpt lat="2.774463" lon="-75.07844">
        <ele>1853.0</ele>
        <time>2021-08-21T15:26:06Z</time>
      </trkpt>
      <trkpt lat="2.774458" lon="-75.07845">
        <ele>1853.0</ele>
        <time>2021-08-21T15:26:07Z</time>
      </trkpt>
      <trkpt lat="2.774453" lon="-75.07846">
        <ele>1853.1</ele>
        <time>2021-08-21T15:26:08Z</time>
      </trkpt>
      <trkpt lat="2.774448" lon="-75.07847">
        <ele>1853.2</ele>
        <time>2021-08-21T15:26:09Z</time>
      </trkpt>
      <trkpt lat="2.774443" lon="-75.078476">
        <ele>1853.3</ele>
        <time>2021-08-21T15:26:10Z</time>
      </trkpt>
      <trkpt lat="2.774437" lon="-75.07848">
        <ele>1853.4</ele>
        <time>2021-08-21T15:26:11Z</time>
      </trkpt>
      <trkpt lat="2.774433" lon="-75.07849">
        <ele>1853.5</ele>
        <time>2021-08-21T15:26:12Z</time>
      </trkpt>
      <trkpt lat="2.774428" lon="-75.0785">
        <ele>1853.6</ele>
        <time>2021-08-21T15:26:13Z</time>
      </trkpt>
      <trkpt lat="2.774422" lon="-75.07851">
        <ele>1853.6</ele>
        <time>2021-08-21T15:26:14Z</time>
      </trkpt>
      <trkpt lat="2.774416" lon="-75.078514">
        <ele>1853.7</ele>
        <time>2021-08-21T15:26:15Z</time>
      </trkpt>
      <trkpt lat="2.774411" lon="-75.07852">
        <ele>1853.8</ele>
        <time>2021-08-21T15:26:16Z</time>
      </trkpt>
      <trkpt lat="2.774403" lon="-75.07853">
        <ele>1853.9</ele>
        <time>2021-08-21T15:26:17Z</time>
      </trkpt>
      <trkpt lat="2.774395" lon="-75.07854">
        <ele>1854.0</ele>
        <time>2021-08-21T15:26:18Z</time>
      </trkpt>
      <trkpt lat="2.774388" lon="-75.078545">
        <ele>1854.1</ele>
        <time>2021-08-21T15:26:19Z</time>
      </trkpt>
      <trkpt lat="2.774381" lon="-75.07855">
        <ele>1854.2</ele>
        <time>2021-08-21T15:26:20Z</time>
      </trkpt>
      <trkpt lat="2.774373" lon="-75.07856">
        <ele>1854.2</ele>
        <time>2021-08-21T15:26:21Z</time>
      </trkpt>
      <trkpt lat="2.774367" lon="-75.078575">
        <ele>1854.3</ele>
        <time>2021-08-21T15:26:22Z</time>
      </trkpt>
      <trkpt lat="2.774361" lon="-75.07858">
        <ele>1854.4</ele>
        <time>2021-08-21T15:26:23Z</time>
      </trkpt>
      <trkpt lat="2.774355" lon="-75.07859">
        <ele>1854.5</ele>
        <time>2021-08-21T15:26:24Z</time>
      </trkpt>
      <trkpt lat="2.77435" lon="-75.0786">
        <ele>1854.6</ele>
        <time>2021-08-21T15:26:25Z</time>
      </trkpt>
      <trkpt lat="2.774344" lon="-75.078606">
        <ele>1854.7</ele>
        <time>2021-08-21T15:26:26Z</time>
      </trkpt>
      <trkpt lat="2.774337" lon="-75.07861">
        <ele>1854.7</ele>
        <time>2021-08-21T15:26:27Z</time>
      </trkpt>
      <trkpt lat="2.77433" lon="-75.07861">
        <ele>1854.8</ele>
        <time>2021-08-21T15:26:28Z</time>
      </trkpt>
      <trkpt lat="2.774323" lon="-75.07862">
        <ele>1854.9</ele>
        <time>2021-08-21T15:26:29Z</time>
      </trkpt>
      <trkpt lat="2.774316" lon="-75.07863">
        <ele>1855.0</ele>
        <time>2021-08-21T15:26:30Z</time>
      </trkpt>
      <trkpt lat="2.774309" lon="-75.078636">
        <ele>1855.1</ele>
        <time>2021-08-21T15:26:31Z</time>
      </trkpt>
      <trkpt lat="2.774302" lon="-75.07864">
        <ele>1855.2</ele>
        <time>2021-08-21T15:26:32Z</time>
      </trkpt>
      <trkpt lat="2.774294" lon="-75.07865">
        <ele>1855.2</ele>
        <time>2021-08-21T15:26:33Z</time>
      </trkpt>
      <trkpt lat="2.774286" lon="-75.07866">
        <ele>1855.3</ele>
        <time>2021-08-21T15:26:34Z</time>
      </trkpt>
      <trkpt lat="2.774278" lon="-75.07867">
        <ele>1855.4</ele>
        <time>2021-08-21T15:26:35Z</time>
      </trkpt>
      <trkpt lat="2.77427" lon="-75.078674">
        <ele>1855.5</ele>
        <time>2021-08-21T15:26:36Z</time>
      </trkpt>
      <trkpt lat="2.774261" lon="-75.07868">
        <ele>1855.6</ele>
        <time>2021-08-21T15:26:37Z</time>
      </trkpt>
      <trkpt lat="2.774252" lon="-75.07869">
        <ele>1855.7</ele>
        <time>2021-08-21T15:26:38Z</time>
      </trkpt>
      <trkpt lat="2.774243" lon="-75.07869">
        <ele>1855.8</ele>
        <time>2021-08-21T15:26:39Z</time>
      </trkpt>
      <trkpt lat="2.774233" lon="-75.0787">
        <ele>1855.9</ele>
        <time>2021-08-21T15:26:40Z</time>
      </trkpt>
      <trkpt lat="2.774223" lon="-75.078705">
        <ele>1856.0</ele>
        <time>2021-08-21T15:26:41Z</time>
      </trkpt>
      <trkpt lat="2.774213" lon="-75.078705">
        <ele>1856.1</ele>
        <time>2021-08-21T15:26:42Z</time>
      </trkpt>
      <trkpt lat="2.774202" lon="-75.07871">
        <ele>1856.2</ele>
        <time>2021-08-21T15:26:43Z</time>
      </trkpt>
      <trkpt lat="2.774191" lon="-75.07871">
        <ele>1856.3</ele>
        <time>2021-08-21T15:26:44Z</time>
      </trkpt>
      <trkpt lat="2.77418" lon="-75.07872">
        <ele>1856.4</ele>
        <time>2021-08-21T15:26:45Z</time>
      </trkpt>
      <trkpt lat="2.77417" lon="-75.07872">
        <ele>1856.5</ele>
        <time>2021-08-21T15:26:46Z</time>
      </trkpt>
      <trkpt lat="2.774161" lon="-75.07872">
        <ele>1856.5</ele>
        <time>2021-08-21T15:26:47Z</time>
      </trkpt>
      <trkpt lat="2.774152" lon="-75.07873">
        <ele>1856.6</ele>
        <time>2021-08-21T15:26:48Z</time>
      </trkpt>
      <trkpt lat="2.774142" lon="-75.07873">
        <ele>1856.7</ele>
        <time>2021-08-21T15:26:49Z</time>
      </trkpt>
      <trkpt lat="2.774133" lon="-75.07873">
        <ele>1856.8</ele>
        <time>2021-08-21T15:26:50Z</time>
      </trkpt>
      <trkpt lat="2.774122" lon="-75.07873">
        <ele>1856.9</ele>
        <time>2021-08-21T15:26:51Z</time>
      </trkpt>
      <trkpt lat="2.774111" lon="-75.07873">
        <ele>1857.0</ele>
        <time>2021-08-21T15:26:52Z</time>
      </trkpt>
      <trkpt lat="2.774101" lon="-75.07872">
        <ele>1857.1</ele>
        <time>2021-08-21T15:26:53Z</time>
      </trkpt>
      <trkpt lat="2.77409" lon="-75.07872">
        <ele>1857.1</ele>
        <time>2021-08-21T15:26:54Z</time>
      </trkpt>
      <trkpt lat="2.774079" lon="-75.07871">
        <ele>1857.2</ele>
        <time>2021-08-21T15:26:55Z</time>
      </trkpt>
      <trkpt lat="2.774069" lon="-75.07871">
        <ele>1857.3</ele>
        <time>2021-08-21T15:26:56Z</time>
      </trkpt>
      <trkpt lat="2.774058" lon="-75.07871">
        <ele>1857.4</ele>
        <time>2021-08-21T15:26:57Z</time>
      </trkpt>
      <trkpt lat="2.774049" lon="-75.078705">
        <ele>1857.5</ele>
        <time>2021-08-21T15:26:58Z</time>
      </trkpt>
      <trkpt lat="2.774039" lon="-75.0787">
        <ele>1857.6</ele>
        <time>2021-08-21T15:26:59Z</time>
      </trkpt>
      <trkpt lat="2.77403" lon="-75.0787">
        <ele>1857.7</ele>
        <time>2021-08-21T15:27:00Z</time>
      </trkpt>
      <trkpt lat="2.774021" lon="-75.07869">
        <ele>1857.8</ele>
        <time>2021-08-21T15:27:01Z</time>
      </trkpt>
      <trkpt lat="2.774012" lon="-75.07868">
        <ele>1857.9</ele>
        <time>2021-08-21T15:27:02Z</time>
      </trkpt>
      <trkpt lat="2.774003" lon="-75.07868">
        <ele>1858.0</ele>
        <time>2021-08-21T15:27:03Z</time>
      </trkpt>
      <trkpt lat="2.773994" lon="-75.078674">
        <ele>1858.0</ele>
        <time>2021-08-21T15:27:04Z</time>
      </trkpt>
      <trkpt lat="2.773986" lon="-75.07867">
        <ele>1858.1</ele>
        <time>2021-08-21T15:27:05Z</time>
      </trkpt>
      <trkpt lat="2.773978" lon="-75.07867">
        <ele>1858.2</ele>
        <time>2021-08-21T15:27:06Z</time>
      </trkpt>
      <trkpt lat="2.773971" lon="-75.07866">
        <ele>1858.3</ele>
        <time>2021-08-21T15:27:07Z</time>
      </trkpt>
      <trkpt lat="2.773963" lon="-75.07865">
        <ele>1858.4</ele>
        <time>2021-08-21T15:27:08Z</time>
      </trkpt>
      <trkpt lat="2.773956" lon="-75.07864">
        <ele>1858.5</ele>
        <time>2021-08-21T15:27:09Z</time>
      </trkpt>
      <trkpt lat="2.77395" lon="-75.078636">
        <ele>1858.5</ele>
        <time>2021-08-21T15:27:10Z</time>
      </trkpt>
      <trkpt lat="2.773945" lon="-75.07863">
        <ele>1858.6</ele>
        <time>2021-08-21T15:27:11Z</time>
      </trkpt>
      <trkpt lat="2.773941" lon="-75.07862">
        <ele>1858.7</ele>
        <time>2021-08-21T15:27:12Z</time>
      </trkpt>
      <trkpt lat="2.773938" lon="-75.07861">
        <ele>1858.8</ele>
        <time>2021-08-21T15:27:13Z</time>
      </trkpt>
      <trkpt lat="2.773934" lon="-75.078606">
        <ele>1858.8</ele>
        <time>2021-08-21T15:27:14Z</time>
      </trkpt>
      <trkpt lat="2.773931" lon="-75.0786">
        <ele>1858.9</ele>
        <time>2021-08-21T15:27:15Z</time>
      </trkpt>
      <trkpt lat="2.773928" lon="-75.07858">
        <ele>1859.0</ele>
        <time>2021-08-21T15:27:16Z</time>
      </trkpt>
      <trkpt lat="2.773927" lon="-75.078575">
        <ele>1859.0</ele>
        <time>2021-08-21T15:27:17Z</time>
      </trkpt>
      <trkpt lat="2.773926" lon="-75.07857">
        <ele>1859.1</ele>
        <time>2021-08-21T15:27:18Z</time>
      </trkpt>
      <trkpt lat="2.773925" lon="-75.07855">
        <ele>1859.3</ele>
        <time>2021-08-21T15:27:19Z</time>
      </trkpt>
      <trkpt lat="2.773924" lon="-75.078545">
        <ele>1859.4</ele>
        <time>2021-08-21T15:27:20Z</time>
      </trkpt>
      <trkpt lat="2.773923" lon="-75.07854">
        <ele>1859.5</ele>
        <time>2021-08-21T15:27:21Z</time>
      </trkpt>
      <trkpt lat="2.773922" lon="-75.07852">
        <ele>1859.6</ele>
        <time>2021-08-21T15:27:22Z</time>
      </trkpt>
      <trkpt lat="2.773921" lon="-75.078514">
        <ele>1859.8</ele>
        <time>2021-08-21T15:27:23Z</time>
      </trkpt>
      <trkpt lat="2.77392" lon="-75.07851">
        <ele>1859.9</ele>
        <time>2021-08-21T15:27:24Z</time>
      </trkpt>
      <trkpt lat="2.773919" lon="-75.0785">
        <ele>1860.0</ele>
        <time>2021-08-21T15:27:25Z</time>
      </trkpt>
      <trkpt lat="2.77392" lon="-75.07849">
        <ele>1860.1</ele>
        <time>2021-08-21T15:27:26Z</time>
      </trkpt>
      <trkpt lat="2.77392" lon="-75.078476">
        <ele>1860.2</ele>
        <time>2021-08-21T15:27:27Z</time>
      </trkpt>
      <trkpt lat="2.77392" lon="-75.07847">
        <ele>1860.3</ele>
        <time>2021-08-21T15:27:28Z</time>
      </trkpt>
      <trkpt lat="2.77392" lon="-75.07846">
        <ele>1860.5</ele>
        <time>2021-08-21T15:27:29Z</time>
      </trkpt>
      <trkpt lat="2.77392" lon="-75.078445">
        <ele>1860.6</ele>
        <time>2021-08-21T15:27:30Z</time>
      </trkpt>
      <trkpt lat="2.773919" lon="-75.07844">
        <ele>1860.7</ele>
        <time>2021-08-21T15:27:31Z</time>
      </trkpt>
      <trkpt lat="2.773918" lon="-75.07843">
        <ele>1860.8</ele>
        <time>2021-08-21T15:27:32Z</time>
      </trkpt>
      <trkpt lat="2.773918" lon="-75.07842">
        <ele>1860.9</ele>
        <time>2021-08-21T15:27:33Z</time>
      </trkpt>
      <trkpt lat="2.773917" lon="-75.07841">
        <ele>1861.1</ele>
        <time>2021-08-21T15:27:34Z</time>
      </trkpt>
      <trkpt lat="2.773916" lon="-75.0784">
        <ele>1861.2</ele>
        <time>2021-08-21T15:27:35Z</time>
      </trkpt>
      <trkpt lat="2.773915" lon="-75.07839">
        <ele>1861.3</ele>
        <time>2021-08-21T15:27:36Z</time>
      </trkpt>
      <trkpt lat="2.773915" lon="-75.07838">
        <ele>1861.4</ele>
        <time>2021-08-21T15:27:37Z</time>
      </trkpt>
      <trkpt lat="2.773915" lon="-75.07837">
        <ele>1861.6</ele>
        <time>2021-08-21T15:27:38Z</time>
      </trkpt>
      <trkpt lat="2.773915" lon="-75.07836">
        <ele>1861.7</ele>
        <time>2021-08-21T15:27:39Z</time>
      </trkpt>
      <trkpt lat="2.773915" lon="-75.078354">
        <ele>1861.8</ele>
        <time>2021-08-21T15:27:40Z</time>
      </trkpt>
      <trkpt lat="2.773915" lon="-75.07835">
        <ele>1861.9</ele>
        <time>2021-08-21T15:27:41Z</time>
      </trkpt>
      <trkpt lat="2.773914" lon="-75.07833">
        <ele>1862.1</ele>
        <time>2021-08-21T15:27:42Z</time>
      </trkpt>
      <trkpt lat="2.773914" lon="-75.07832">
        <ele>1862.2</ele>
        <time>2021-08-21T15:27:43Z</time>
      </trkpt>
      <trkpt lat="2.773914" lon="-75.07831">
        <ele>1862.3</ele>
        <time>2021-08-21T15:27:44Z</time>
      </trkpt>
      <trkpt lat="2.773914" lon="-75.0783">
        <ele>1862.5</ele>
        <time>2021-08-21T15:27:45Z</time>
      </trkpt>
      <trkpt lat="2.773914" lon="-75.078285">
        <ele>1862.6</ele>
        <time>2021-08-21T15:27:46Z</time>
      </trkpt>
      <trkpt lat="2.773913" lon="-75.07828">
        <ele>1862.8</ele>
        <time>2021-08-21T15:27:47Z</time>
      </trkpt>
      <trkpt lat="2.773913" lon="-75.07826">
        <ele>1862.9</ele>
        <time>2021-08-21T15:27:48Z</time>
      </trkpt>
      <trkpt lat="2.773912" lon="-75.078255">
        <ele>1863.0</ele>
        <time>2021-08-21T15:27:49Z</time>
      </trkpt>
      <trkpt lat="2.773911" lon="-75.07825">
        <ele>1863.2</ele>
        <time>2021-08-21T15:27:50Z</time>
      </trkpt>
      <trkpt lat="2.77391" lon="-75.07823">
        <ele>1863.3</ele>
        <time>2021-08-21T15:27:51Z</time>
      </trkpt>
      <trkpt lat="2.773908" lon="-75.078224">
        <ele>1863.4</ele>
        <time>2021-08-21T15:27:52Z</time>
      </trkpt>
      <trkpt lat="2.773907" lon="-75.07822">
        <ele>1863.5</ele>
        <time>2021-08-21T15:27:53Z</time>
      </trkpt>
      <trkpt lat="2.773906" lon="-75.07821">
        <ele>1863.6</ele>
        <time>2021-08-21T15:27:54Z</time>
      </trkpt>
      <trkpt lat="2.773905" lon="-75.0782">
        <ele>1863.7</ele>
        <time>2021-08-21T15:27:55Z</time>
      </trkpt>
      <trkpt lat="2.773903" lon="-75.078186">
        <ele>1863.8</ele>
        <time>2021-08-21T15:27:56Z</time>
      </trkpt>
      <trkpt lat="2.773901" lon="-75.07818">
        <ele>1864.0</ele>
        <time>2021-08-21T15:27:57Z</time>
      </trkpt>
      <trkpt lat="2.773896" lon="-75.07817">
        <ele>1864.1</ele>
        <time>2021-08-21T15:27:58Z</time>
      </trkpt>
      <trkpt lat="2.773892" lon="-75.07816">
        <ele>1864.2</ele>
        <time>2021-08-21T15:27:59Z</time>
      </trkpt>
      <trkpt lat="2.773889" lon="-75.078156">
        <ele>1864.3</ele>
        <time>2021-08-21T15:28:00Z</time>
      </trkpt>
      <trkpt lat="2.773885" lon="-75.07815">
        <ele>1864.4</ele>
        <time>2021-08-21T15:28:01Z</time>
      </trkpt>
      <trkpt lat="2.773883" lon="-75.07814">
        <ele>1864.5</ele>
        <time>2021-08-21T15:28:02Z</time>
      </trkpt>
      <trkpt lat="2.773879" lon="-75.07813">
        <ele>1864.6</ele>
        <time>2021-08-21T15:28:03Z</time>
      </trkpt>
      <trkpt lat="2.773875" lon="-75.078125">
        <ele>1864.7</ele>
        <time>2021-08-21T15:28:04Z</time>
      </trkpt>
      <trkpt lat="2.77387" lon="-75.07812">
        <ele>1864.8</ele>
        <time>2021-08-21T15:28:05Z</time>
      </trkpt>
      <trkpt lat="2.773865" lon="-75.07811">
        <ele>1865.0</ele>
        <time>2021-08-21T15:28:06Z</time>
      </trkpt>
      <trkpt lat="2.773858" lon="-75.0781">
        <ele>1865.1</ele>
        <time>2021-08-21T15:28:07Z</time>
      </trkpt>
      <trkpt lat="2.773852" lon="-75.078094">
        <ele>1865.2</ele>
        <time>2021-08-21T15:28:08Z</time>
      </trkpt>
      <trkpt lat="2.773845" lon="-75.07809">
        <ele>1865.3</ele>
        <time>2021-08-21T15:28:09Z</time>
      </trkpt>
      <trkpt lat="2.773833" lon="-75.07807">
        <ele>1865.6</ele>
        <time>2021-08-21T15:28:10Z</time>
      </trkpt>
      <trkpt lat="2.773827" lon="-75.078064">
        <ele>1865.7</ele>
        <time>2021-08-21T15:28:11Z</time>
      </trkpt>
      <trkpt lat="2.773822" lon="-75.07806">
        <ele>1865.8</ele>
        <time>2021-08-21T15:28:12Z</time>
      </trkpt>
      <trkpt lat="2.773816" lon="-75.07806">
        <ele>1865.9</ele>
        <time>2021-08-21T15:28:13Z</time>
      </trkpt>
      <trkpt lat="2.77381" lon="-75.07805">
        <ele>1866.0</ele>
        <time>2021-08-21T15:28:14Z</time>
      </trkpt>
      <trkpt lat="2.773804" lon="-75.07804">
        <ele>1866.1</ele>
        <time>2021-08-21T15:28:15Z</time>
      </trkpt>
      <trkpt lat="2.773799" lon="-75.07803">
        <ele>1866.2</ele>
        <time>2021-08-21T15:28:16Z</time>
      </trkpt>
      <trkpt lat="2.773793" lon="-75.078026">
        <ele>1866.3</ele>
        <time>2021-08-21T15:28:17Z</time>
      </trkpt>
      <trkpt lat="2.773787" lon="-75.07802">
        <ele>1866.5</ele>
        <time>2021-08-21T15:28:18Z</time>
      </trkpt>
      <trkpt lat="2.773781" lon="-75.07802">
        <ele>1866.6</ele>
        <time>2021-08-21T15:28:19Z</time>
      </trkpt>
      <trkpt lat="2.773775" lon="-75.07801">
        <ele>1866.7</ele>
        <time>2021-08-21T15:28:20Z</time>
      </trkpt>
      <trkpt lat="2.77377" lon="-75.078">
        <ele>1866.8</ele>
        <time>2021-08-21T15:28:21Z</time>
      </trkpt>
      <trkpt lat="2.773758" lon="-75.07799">
        <ele>1867.0</ele>
        <time>2021-08-21T15:28:22Z</time>
      </trkpt>
      <trkpt lat="2.773764" lon="-75.077995">
        <ele>1866.9</ele>
        <time>2021-08-21T15:28:22Z</time>
      </trkpt>
      <trkpt lat="2.773752" lon="-75.07799">
        <ele>1867.1</ele>
        <time>2021-08-21T15:28:23Z</time>
      </trkpt>
      <trkpt lat="2.773744" lon="-75.07798">
        <ele>1867.2</ele>
        <time>2021-08-21T15:28:24Z</time>
      </trkpt>
      <trkpt lat="2.773736" lon="-75.07797">
        <ele>1867.3</ele>
        <time>2021-08-21T15:28:25Z</time>
      </trkpt>
      <trkpt lat="2.773727" lon="-75.07797">
        <ele>1867.4</ele>
        <time>2021-08-21T15:28:26Z</time>
      </trkpt>
      <trkpt lat="2.773719" lon="-75.077965">
        <ele>1867.6</ele>
        <time>2021-08-21T15:28:27Z</time>
      </trkpt>
      <trkpt lat="2.773711" lon="-75.07796">
        <ele>1867.7</ele>
        <time>2021-08-21T15:28:28Z</time>
      </trkpt>
      <trkpt lat="2.773703" lon="-75.07795">
        <ele>1867.8</ele>
        <time>2021-08-21T15:28:29Z</time>
      </trkpt>
      <trkpt lat="2.773695" lon="-75.07795">
        <ele>1867.9</ele>
        <time>2021-08-21T15:28:30Z</time>
      </trkpt>
      <trkpt lat="2.773688" lon="-75.07794">
        <ele>1868.1</ele>
        <time>2021-08-21T15:28:31Z</time>
      </trkpt>
      <trkpt lat="2.77368" lon="-75.077934">
        <ele>1868.2</ele>
        <time>2021-08-21T15:28:32Z</time>
      </trkpt>
      <trkpt lat="2.773673" lon="-75.077934">
        <ele>1868.3</ele>
        <time>2021-08-21T15:28:33Z</time>
      </trkpt>
      <trkpt lat="2.773665" lon="-75.07793">
        <ele>1868.4</ele>
        <time>2021-08-21T15:28:34Z</time>
      </trkpt>
      <trkpt lat="2.773659" lon="-75.07792">
        <ele>1868.5</ele>
        <time>2021-08-21T15:28:35Z</time>
      </trkpt>
      <trkpt lat="2.773653" lon="-75.07791">
        <ele>1868.7</ele>
        <time>2021-08-21T15:28:36Z</time>
      </trkpt>
      <trkpt lat="2.773647" lon="-75.0779">
        <ele>1868.8</ele>
        <time>2021-08-21T15:28:37Z</time>
      </trkpt>
      <trkpt lat="2.773639" lon="-75.077896">
        <ele>1868.9</ele>
        <time>2021-08-21T15:28:38Z</time>
      </trkpt>
      <trkpt lat="2.773632" lon="-75.077896">
        <ele>1869.0</ele>
        <time>2021-08-21T15:28:39Z</time>
      </trkpt>
      <trkpt lat="2.773624" lon="-75.077896">
        <ele>1869.1</ele>
        <time>2021-08-21T15:28:40Z</time>
      </trkpt>
      <trkpt lat="2.773617" lon="-75.07789">
        <ele>1869.2</ele>
        <time>2021-08-21T15:28:41Z</time>
      </trkpt>
      <trkpt lat="2.773609" lon="-75.07789">
        <ele>1869.3</ele>
        <time>2021-08-21T15:28:42Z</time>
      </trkpt>
      <trkpt lat="2.7736" lon="-75.07788">
        <ele>1869.4</ele>
        <time>2021-08-21T15:28:43Z</time>
      </trkpt>
      <trkpt lat="2.773592" lon="-75.07787">
        <ele>1869.5</ele>
        <time>2021-08-21T15:28:44Z</time>
      </trkpt>
      <trkpt lat="2.773584" lon="-75.07787">
        <ele>1869.7</ele>
        <time>2021-08-21T15:28:45Z</time>
      </trkpt>
      <trkpt lat="2.773577" lon="-75.077866">
        <ele>1869.8</ele>
        <time>2021-08-21T15:28:46Z</time>
      </trkpt>
      <trkpt lat="2.773571" lon="-75.07786">
        <ele>1869.9</ele>
        <time>2021-08-21T15:28:47Z</time>
      </trkpt>
      <trkpt lat="2.773565" lon="-75.07786">
        <ele>1870.0</ele>
        <time>2021-08-21T15:28:48Z</time>
      </trkpt>
      <trkpt lat="2.773557" lon="-75.07785">
        <ele>1870.1</ele>
        <time>2021-08-21T15:28:49Z</time>
      </trkpt>
      <trkpt lat="2.773549" lon="-75.07784">
        <ele>1870.2</ele>
        <time>2021-08-21T15:28:50Z</time>
      </trkpt>
      <trkpt lat="2.773542" lon="-75.077835">
        <ele>1870.3</ele>
        <time>2021-08-21T15:28:51Z</time>
      </trkpt>
      <trkpt lat="2.773535" lon="-75.07783">
        <ele>1870.5</ele>
        <time>2021-08-21T15:28:52Z</time>
      </trkpt>
      <trkpt lat="2.77353" lon="-75.07783">
        <ele>1870.6</ele>
        <time>2021-08-21T15:28:53Z</time>
      </trkpt>
      <trkpt lat="2.773523" lon="-75.07782">
        <ele>1870.7</ele>
        <time>2021-08-21T15:28:54Z</time>
      </trkpt>
      <trkpt lat="2.773518" lon="-75.07781">
        <ele>1870.8</ele>
        <time>2021-08-21T15:28:55Z</time>
      </trkpt>
      <trkpt lat="2.773512" lon="-75.077805">
        <ele>1870.9</ele>
        <time>2021-08-21T15:28:56Z</time>
      </trkpt>
      <trkpt lat="2.773505" lon="-75.0778">
        <ele>1871.0</ele>
        <time>2021-08-21T15:28:57Z</time>
      </trkpt>
      <trkpt lat="2.773499" lon="-75.07779">
        <ele>1871.1</ele>
        <time>2021-08-21T15:28:58Z</time>
      </trkpt>
      <trkpt lat="2.773492" lon="-75.07779">
        <ele>1871.2</ele>
        <time>2021-08-21T15:28:59Z</time>
      </trkpt>
      <trkpt lat="2.773485" lon="-75.07778">
        <ele>1871.3</ele>
        <time>2021-08-21T15:29:00Z</time>
      </trkpt>
      <trkpt lat="2.773478" lon="-75.077774">
        <ele>1871.4</ele>
        <time>2021-08-21T15:29:01Z</time>
      </trkpt>
      <trkpt lat="2.77347" lon="-75.07777">
        <ele>1871.6</ele>
        <time>2021-08-21T15:29:02Z</time>
      </trkpt>
      <trkpt lat="2.773463" lon="-75.07777">
        <ele>1871.7</ele>
        <time>2021-08-21T15:29:03Z</time>
      </trkpt>
      <trkpt lat="2.773455" lon="-75.07776">
        <ele>1871.8</ele>
        <time>2021-08-21T15:29:04Z</time>
      </trkpt>
      <trkpt lat="2.773448" lon="-75.07776">
        <ele>1871.9</ele>
        <time>2021-08-21T15:29:05Z</time>
      </trkpt>
      <trkpt lat="2.773441" lon="-75.07775">
        <ele>1872.0</ele>
        <time>2021-08-21T15:29:06Z</time>
      </trkpt>
      <trkpt lat="2.773434" lon="-75.07774">
        <ele>1872.1</ele>
        <time>2021-08-21T15:29:07Z</time>
      </trkpt>
      <trkpt lat="2.773427" lon="-75.077736">
        <ele>1872.2</ele>
        <time>2021-08-21T15:29:08Z</time>
      </trkpt>
      <trkpt lat="2.773419" lon="-75.077736">
        <ele>1872.4</ele>
        <time>2021-08-21T15:29:09Z</time>
      </trkpt>
      <trkpt lat="2.773412" lon="-75.07773">
        <ele>1872.5</ele>
        <time>2021-08-21T15:29:10Z</time>
      </trkpt>
      <trkpt lat="2.773403" lon="-75.07773">
        <ele>1872.6</ele>
        <time>2021-08-21T15:29:11Z</time>
      </trkpt>
      <trkpt lat="2.773394" lon="-75.07772">
        <ele>1872.7</ele>
        <time>2021-08-21T15:29:12Z</time>
      </trkpt>
      <trkpt lat="2.773386" lon="-75.07771">
        <ele>1872.8</ele>
        <time>2021-08-21T15:29:13Z</time>
      </trkpt>
      <trkpt lat="2.773378" lon="-75.077705">
        <ele>1873.0</ele>
        <time>2021-08-21T15:29:14Z</time>
      </trkpt>
      <trkpt lat="2.77337" lon="-75.077705">
        <ele>1873.1</ele>
        <time>2021-08-21T15:29:15Z</time>
      </trkpt>
      <trkpt lat="2.773362" lon="-75.0777">
        <ele>1873.2</ele>
        <time>2021-08-21T15:29:16Z</time>
      </trkpt>
      <trkpt lat="2.773354" lon="-75.07769">
        <ele>1873.3</ele>
        <time>2021-08-21T15:29:17Z</time>
      </trkpt>
      <trkpt lat="2.773347" lon="-75.07768">
        <ele>1873.5</ele>
        <time>2021-08-21T15:29:18Z</time>
      </trkpt>
      <trkpt lat="2.77334" lon="-75.077675">
        <ele>1873.6</ele>
        <time>2021-08-21T15:29:19Z</time>
      </trkpt>
      <trkpt lat="2.773333" lon="-75.07767">
        <ele>1873.7</ele>
        <time>2021-08-21T15:29:20Z</time>
      </trkpt>
      <trkpt lat="2.773327" lon="-75.07767">
        <ele>1873.8</ele>
        <time>2021-08-21T15:29:21Z</time>
      </trkpt>
      <trkpt lat="2.773319" lon="-75.07766">
        <ele>1874.0</ele>
        <time>2021-08-21T15:29:22Z</time>
      </trkpt>
      <trkpt lat="2.773311" lon="-75.07765">
        <ele>1874.1</ele>
        <time>2021-08-21T15:29:23Z</time>
      </trkpt>
      <trkpt lat="2.773303" lon="-75.077644">
        <ele>1874.2</ele>
        <time>2021-08-21T15:29:24Z</time>
      </trkpt>
      <trkpt lat="2.773295" lon="-75.077644">
        <ele>1874.3</ele>
        <time>2021-08-21T15:29:25Z</time>
      </trkpt>
      <trkpt lat="2.773287" lon="-75.07764">
        <ele>1874.4</ele>
        <time>2021-08-21T15:29:26Z</time>
      </trkpt>
      <trkpt lat="2.773279" lon="-75.07763">
        <ele>1874.5</ele>
        <time>2021-08-21T15:29:27Z</time>
      </trkpt>
      <trkpt lat="2.773272" lon="-75.07763">
        <ele>1874.7</ele>
        <time>2021-08-21T15:29:28Z</time>
      </trkpt>
      <trkpt lat="2.773264" lon="-75.07762">
        <ele>1874.8</ele>
        <time>2021-08-21T15:29:29Z</time>
      </trkpt>
      <trkpt lat="2.773255" lon="-75.07762">
        <ele>1874.9</ele>
        <time>2021-08-21T15:29:30Z</time>
      </trkpt>
      <trkpt lat="2.773246" lon="-75.077614">
        <ele>1875.0</ele>
        <time>2021-08-21T15:29:31Z</time>
      </trkpt>
      <trkpt lat="2.773237" lon="-75.07761">
        <ele>1875.1</ele>
        <time>2021-08-21T15:29:32Z</time>
      </trkpt>
      <trkpt lat="2.773227" lon="-75.07761">
        <ele>1875.3</ele>
        <time>2021-08-21T15:29:33Z</time>
      </trkpt>
      <trkpt lat="2.773218" lon="-75.07761">
        <ele>1875.4</ele>
        <time>2021-08-21T15:29:34Z</time>
      </trkpt>
      <trkpt lat="2.773208" lon="-75.0776">
        <ele>1875.5</ele>
        <time>2021-08-21T15:29:35Z</time>
      </trkpt>
      <trkpt lat="2.773199" lon="-75.0776">
        <ele>1875.6</ele>
        <time>2021-08-21T15:29:36Z</time>
      </trkpt>
      <trkpt lat="2.773189" lon="-75.07759">
        <ele>1875.8</ele>
        <time>2021-08-21T15:29:37Z</time>
      </trkpt>
      <trkpt lat="2.773178" lon="-75.07759">
        <ele>1875.9</ele>
        <time>2021-08-21T15:29:38Z</time>
      </trkpt>
      <trkpt lat="2.773168" lon="-75.07759">
        <ele>1876.0</ele>
        <time>2021-08-21T15:29:39Z</time>
      </trkpt>
      <trkpt lat="2.773158" lon="-75.07759">
        <ele>1876.2</ele>
        <time>2021-08-21T15:29:40Z</time>
      </trkpt>
      <trkpt lat="2.773147" lon="-75.07759">
        <ele>1876.3</ele>
        <time>2021-08-21T15:29:41Z</time>
      </trkpt>
      <trkpt lat="2.773137" lon="-75.07759">
        <ele>1876.4</ele>
        <time>2021-08-21T15:29:42Z</time>
      </trkpt>
      <trkpt lat="2.773127" lon="-75.07759">
        <ele>1876.6</ele>
        <time>2021-08-21T15:29:43Z</time>
      </trkpt>
      <trkpt lat="2.773117" lon="-75.07759">
        <ele>1876.7</ele>
        <time>2021-08-21T15:29:44Z</time>
      </trkpt>
      <trkpt lat="2.773107" lon="-75.07759">
        <ele>1876.8</ele>
        <time>2021-08-21T15:29:45Z</time>
      </trkpt>
      <trkpt lat="2.773096" lon="-75.07759">
        <ele>1876.9</ele>
        <time>2021-08-21T15:29:46Z</time>
      </trkpt>
      <trkpt lat="2.773086" lon="-75.07759">
        <ele>1877.1</ele>
        <time>2021-08-21T15:29:47Z</time>
      </trkpt>
      <trkpt lat="2.773076" lon="-75.07759">
        <ele>1877.2</ele>
        <time>2021-08-21T15:29:48Z</time>
      </trkpt>
      <trkpt lat="2.773067" lon="-75.07759">
        <ele>1877.3</ele>
        <time>2021-08-21T15:29:49Z</time>
      </trkpt>
      <trkpt lat="2.773057" lon="-75.07759">
        <ele>1877.4</ele>
        <time>2021-08-21T15:29:50Z</time>
      </trkpt>
      <trkpt lat="2.773048" lon="-75.07759">
        <ele>1877.6</ele>
        <time>2021-08-21T15:29:51Z</time>
      </trkpt>
      <trkpt lat="2.77304" lon="-75.07758">
        <ele>1877.7</ele>
        <time>2021-08-21T15:29:52Z</time>
      </trkpt>
      <trkpt lat="2.773031" lon="-75.07758">
        <ele>1877.8</ele>
        <time>2021-08-21T15:29:53Z</time>
      </trkpt>
      <trkpt lat="2.773022" lon="-75.07758">
        <ele>1877.9</ele>
        <time>2021-08-21T15:29:54Z</time>
      </trkpt>
      <trkpt lat="2.773013" lon="-75.077576">
        <ele>1878.0</ele>
        <time>2021-08-21T15:29:55Z</time>
      </trkpt>
      <trkpt lat="2.773004" lon="-75.077576">
        <ele>1878.1</ele>
        <time>2021-08-21T15:29:56Z</time>
      </trkpt>
      <trkpt lat="2.772996" lon="-75.077576">
        <ele>1878.2</ele>
        <time>2021-08-21T15:29:57Z</time>
      </trkpt>
      <trkpt lat="2.772988" lon="-75.077576">
        <ele>1878.3</ele>
        <time>2021-08-21T15:29:58Z</time>
      </trkpt>
      <trkpt lat="2.77298" lon="-75.07757">
        <ele>1878.4</ele>
        <time>2021-08-21T15:29:59Z</time>
      </trkpt>
      <trkpt lat="2.772973" lon="-75.07757">
        <ele>1878.5</ele>
        <time>2021-08-21T15:30:00Z</time>
      </trkpt>
      <trkpt lat="2.772966" lon="-75.07757">
        <ele>1878.6</ele>
        <time>2021-08-21T15:30:01Z</time>
      </trkpt>
      <trkpt lat="2.77296" lon="-75.07756">
        <ele>1878.7</ele>
        <time>2021-08-21T15:30:02Z</time>
      </trkpt>
      <trkpt lat="2.772953" lon="-75.07756">
        <ele>1878.8</ele>
        <time>2021-08-21T15:30:03Z</time>
      </trkpt>
      <trkpt lat="2.772945" lon="-75.07756">
        <ele>1878.9</ele>
        <time>2021-08-21T15:30:04Z</time>
      </trkpt>
      <trkpt lat="2.772938" lon="-75.07755">
        <ele>1879.0</ele>
        <time>2021-08-21T15:30:05Z</time>
      </trkpt>
      <trkpt lat="2.772931" lon="-75.07755">
        <ele>1879.1</ele>
        <time>2021-08-21T15:30:06Z</time>
      </trkpt>
      <trkpt lat="2.772924" lon="-75.077545">
        <ele>1879.2</ele>
        <time>2021-08-21T15:30:07Z</time>
      </trkpt>
      <trkpt lat="2.772916" lon="-75.077545">
        <ele>1879.3</ele>
        <time>2021-08-21T15:30:08Z</time>
      </trkpt>
      <trkpt lat="2.772909" lon="-75.07754">
        <ele>1879.4</ele>
        <time>2021-08-21T15:30:09Z</time>
      </trkpt>
      <trkpt lat="2.772902" lon="-75.07753">
        <ele>1879.5</ele>
        <time>2021-08-21T15:30:10Z</time>
      </trkpt>
      <trkpt lat="2.772894" lon="-75.07752">
        <ele>1879.7</ele>
        <time>2021-08-21T15:30:11Z</time>
      </trkpt>
      <trkpt lat="2.772887" lon="-75.07752">
        <ele>1879.8</ele>
        <time>2021-08-21T15:30:12Z</time>
      </trkpt>
      <trkpt lat="2.77288" lon="-75.077515">
        <ele>1879.9</ele>
        <time>2021-08-21T15:30:13Z</time>
      </trkpt>
      <trkpt lat="2.772874" lon="-75.07751">
        <ele>1880.0</ele>
        <time>2021-08-21T15:30:14Z</time>
      </trkpt>
      <trkpt lat="2.772869" lon="-75.0775">
        <ele>1880.1</ele>
        <time>2021-08-21T15:30:15Z</time>
      </trkpt>
      <trkpt lat="2.772865" lon="-75.07749">
        <ele>1880.3</ele>
        <time>2021-08-21T15:30:16Z</time>
      </trkpt>
      <trkpt lat="2.772861" lon="-75.07748">
        <ele>1880.4</ele>
        <time>2021-08-21T15:30:17Z</time>
      </trkpt>
      <trkpt lat="2.772858" lon="-75.07747">
        <ele>1880.5</ele>
        <time>2021-08-21T15:30:18Z</time>
      </trkpt>
      <trkpt lat="2.772855" lon="-75.07746">
        <ele>1880.6</ele>
        <time>2021-08-21T15:30:19Z</time>
      </trkpt>
      <trkpt lat="2.772853" lon="-75.07745">
        <ele>1880.8</ele>
        <time>2021-08-21T15:30:20Z</time>
      </trkpt>
      <trkpt lat="2.772852" lon="-75.07744">
        <ele>1880.9</ele>
        <time>2021-08-21T15:30:21Z</time>
      </trkpt>
      <trkpt lat="2.77285" lon="-75.07743">
        <ele>1881.0</ele>
        <time>2021-08-21T15:30:22Z</time>
      </trkpt>
      <trkpt lat="2.772848" lon="-75.07742">
        <ele>1881.1</ele>
        <time>2021-08-21T15:30:23Z</time>
      </trkpt>
      <trkpt lat="2.772847" lon="-75.077415">
        <ele>1881.2</ele>
        <time>2021-08-21T15:30:24Z</time>
      </trkpt>
      <trkpt lat="2.772847" lon="-75.0774">
        <ele>1881.4</ele>
        <time>2021-08-21T15:30:25Z</time>
      </trkpt>
      <trkpt lat="2.772846" lon="-75.07739">
        <ele>1881.5</ele>
        <time>2021-08-21T15:30:26Z</time>
      </trkpt>
      <trkpt lat="2.772845" lon="-75.077385">
        <ele>1881.6</ele>
        <time>2021-08-21T15:30:27Z</time>
      </trkpt>
      <trkpt lat="2.772844" lon="-75.07738">
        <ele>1881.7</ele>
        <time>2021-08-21T15:30:28Z</time>
      </trkpt>
      <trkpt lat="2.772843" lon="-75.07736">
        <ele>1881.9</ele>
        <time>2021-08-21T15:30:29Z</time>
      </trkpt>
      <trkpt lat="2.772842" lon="-75.077354">
        <ele>1882.0</ele>
        <time>2021-08-21T15:30:30Z</time>
      </trkpt>
      <trkpt lat="2.77284" lon="-75.07735">
        <ele>1882.1</ele>
        <time>2021-08-21T15:30:31Z</time>
      </trkpt>
      <trkpt lat="2.772838" lon="-75.07733">
        <ele>1882.3</ele>
        <time>2021-08-21T15:30:32Z</time>
      </trkpt>
      <trkpt lat="2.772837" lon="-75.077324">
        <ele>1882.4</ele>
        <time>2021-08-21T15:30:33Z</time>
      </trkpt>
      <trkpt lat="2.772835" lon="-75.07731">
        <ele>1882.5</ele>
        <time>2021-08-21T15:30:34Z</time>
      </trkpt>
      <trkpt lat="2.772835" lon="-75.0773">
        <ele>1882.7</ele>
        <time>2021-08-21T15:30:35Z</time>
      </trkpt>
      <trkpt lat="2.772836" lon="-75.07729">
        <ele>1882.8</ele>
        <time>2021-08-21T15:30:36Z</time>
      </trkpt>
      <trkpt lat="2.772836" lon="-75.07728">
        <ele>1882.9</ele>
        <time>2021-08-21T15:30:37Z</time>
      </trkpt>
      <trkpt lat="2.772836" lon="-75.07727">
        <ele>1883.0</ele>
        <time>2021-08-21T15:30:38Z</time>
      </trkpt>
      <trkpt lat="2.772836" lon="-75.07726">
        <ele>1883.2</ele>
        <time>2021-08-21T15:30:39Z</time>
      </trkpt>
      <trkpt lat="2.772835" lon="-75.07725">
        <ele>1883.3</ele>
        <time>2021-08-21T15:30:40Z</time>
      </trkpt>
      <trkpt lat="2.772835" lon="-75.07724">
        <ele>1883.4</ele>
        <time>2021-08-21T15:30:41Z</time>
      </trkpt>
      <trkpt lat="2.772835" lon="-75.07723">
        <ele>1883.5</ele>
        <time>2021-08-21T15:30:42Z</time>
      </trkpt>
      <trkpt lat="2.772834" lon="-75.077225">
        <ele>1883.7</ele>
        <time>2021-08-21T15:30:43Z</time>
      </trkpt>
      <trkpt lat="2.772833" lon="-75.07721">
        <ele>1883.8</ele>
        <time>2021-08-21T15:30:44Z</time>
      </trkpt>
      <trkpt lat="2.772834" lon="-75.0772">
        <ele>1883.9</ele>
        <time>2021-08-21T15:30:45Z</time>
      </trkpt>
      <trkpt lat="2.772833" lon="-75.077194">
        <ele>1884.0</ele>
        <time>2021-08-21T15:30:46Z</time>
      </trkpt>
      <trkpt lat="2.772834" lon="-75.07719">
        <ele>1884.1</ele>
        <time>2021-08-21T15:30:47Z</time>
      </trkpt>
      <trkpt lat="2.772834" lon="-75.07718">
        <ele>1884.2</ele>
        <time>2021-08-21T15:30:48Z</time>
      </trkpt>
      <trkpt lat="2.772832" lon="-75.07717">
        <ele>1884.3</ele>
        <time>2021-08-21T15:30:49Z</time>
      </trkpt>
      <trkpt lat="2.772831" lon="-75.07716">
        <ele>1884.4</ele>
        <time>2021-08-21T15:30:50Z</time>
      </trkpt>
      <trkpt lat="2.772829" lon="-75.077156">
        <ele>1884.5</ele>
        <time>2021-08-21T15:30:51Z</time>
      </trkpt>
      <trkpt lat="2.772826" lon="-75.07715">
        <ele>1884.6</ele>
        <time>2021-08-21T15:30:52Z</time>
      </trkpt>
      <trkpt lat="2.772822" lon="-75.07714">
        <ele>1884.7</ele>
        <time>2021-08-21T15:30:53Z</time>
      </trkpt>
      <trkpt lat="2.772817" lon="-75.07713">
        <ele>1884.8</ele>
        <time>2021-08-21T15:30:54Z</time>
      </trkpt>
      <trkpt lat="2.772812" lon="-75.077126">
        <ele>1885.0</ele>
        <time>2021-08-21T15:30:55Z</time>
      </trkpt>
      <trkpt lat="2.772806" lon="-75.07712">
        <ele>1885.1</ele>
        <time>2021-08-21T15:30:56Z</time>
      </trkpt>
      <trkpt lat="2.772799" lon="-75.07711">
        <ele>1885.2</ele>
        <time>2021-08-21T15:30:57Z</time>
      </trkpt>
      <trkpt lat="2.772793" lon="-75.0771">
        <ele>1885.3</ele>
        <time>2021-08-21T15:30:58Z</time>
      </trkpt>
      <trkpt lat="2.772787" lon="-75.077095">
        <ele>1885.4</ele>
        <time>2021-08-21T15:30:59Z</time>
      </trkpt>
      <trkpt lat="2.77278" lon="-75.07709">
        <ele>1885.6</ele>
        <time>2021-08-21T15:31:00Z</time>
      </trkpt>
      <trkpt lat="2.772773" lon="-75.07708">
        <ele>1885.7</ele>
        <time>2021-08-21T15:31:01Z</time>
      </trkpt>
      <trkpt lat="2.772766" lon="-75.07707">
        <ele>1885.8</ele>
        <time>2021-08-21T15:31:02Z</time>
      </trkpt>
      <trkpt lat="2.77276" lon="-75.077065">
        <ele>1885.9</ele>
        <time>2021-08-21T15:31:03Z</time>
      </trkpt>
      <trkpt lat="2.772755" lon="-75.07706">
        <ele>1886.0</ele>
        <time>2021-08-21T15:31:04Z</time>
      </trkpt>
      <trkpt lat="2.772749" lon="-75.07705">
        <ele>1886.2</ele>
        <time>2021-08-21T15:31:05Z</time>
      </trkpt>
      <trkpt lat="2.772744" lon="-75.07704">
        <ele>1886.3</ele>
        <time>2021-08-21T15:31:06Z</time>
      </trkpt>
      <trkpt lat="2.772737" lon="-75.077034">
        <ele>1886.4</ele>
        <time>2021-08-21T15:31:07Z</time>
      </trkpt>
      <trkpt lat="2.772731" lon="-75.077034">
        <ele>1886.5</ele>
        <time>2021-08-21T15:31:08Z</time>
      </trkpt>
      <trkpt lat="2.772725" lon="-75.07703">
        <ele>1886.6</ele>
        <time>2021-08-21T15:31:09Z</time>
      </trkpt>
      <trkpt lat="2.772719" lon="-75.07702">
        <ele>1886.7</ele>
        <time>2021-08-21T15:31:10Z</time>
      </trkpt>
      <trkpt lat="2.772713" lon="-75.07701">
        <ele>1886.8</ele>
        <time>2021-08-21T15:31:11Z</time>
      </trkpt>
      <trkpt lat="2.772707" lon="-75.07701">
        <ele>1886.9</ele>
        <time>2021-08-21T15:31:12Z</time>
      </trkpt>
      <trkpt lat="2.7727" lon="-75.077">
        <ele>1887.0</ele>
        <time>2021-08-21T15:31:13Z</time>
      </trkpt>
      <trkpt lat="2.772693" lon="-75.076996">
        <ele>1887.1</ele>
        <time>2021-08-21T15:31:14Z</time>
      </trkpt>
      <trkpt lat="2.772687" lon="-75.07699">
        <ele>1887.3</ele>
        <time>2021-08-21T15:31:15Z</time>
      </trkpt>
      <trkpt lat="2.77268" lon="-75.07698">
        <ele>1887.4</ele>
        <time>2021-08-21T15:31:16Z</time>
      </trkpt>
      <trkpt lat="2.772673" lon="-75.07697">
        <ele>1887.5</ele>
        <time>2021-08-21T15:31:17Z</time>
      </trkpt>
      <trkpt lat="2.772668" lon="-75.076965">
        <ele>1887.6</ele>
        <time>2021-08-21T15:31:18Z</time>
      </trkpt>
      <trkpt lat="2.772663" lon="-75.076965">
        <ele>1887.7</ele>
        <time>2021-08-21T15:31:19Z</time>
      </trkpt>
      <trkpt lat="2.772656" lon="-75.07696">
        <ele>1887.8</ele>
        <time>2021-08-21T15:31:20Z</time>
      </trkpt>
      <trkpt lat="2.77265" lon="-75.07695">
        <ele>1888.0</ele>
        <time>2021-08-21T15:31:21Z</time>
      </trkpt>
      <trkpt lat="2.772645" lon="-75.07694">
        <ele>1888.1</ele>
        <time>2021-08-21T15:31:22Z</time>
      </trkpt>
      <trkpt lat="2.772642" lon="-75.076935">
        <ele>1888.2</ele>
        <time>2021-08-21T15:31:23Z</time>
      </trkpt>
      <trkpt lat="2.772638" lon="-75.07692">
        <ele>1888.3</ele>
        <time>2021-08-21T15:31:24Z</time>
      </trkpt>
      <trkpt lat="2.772634" lon="-75.07691">
        <ele>1888.4</ele>
        <time>2021-08-21T15:31:25Z</time>
      </trkpt>
      <trkpt lat="2.772631" lon="-75.076904">
        <ele>1888.5</ele>
        <time>2021-08-21T15:31:26Z</time>
      </trkpt>
      <trkpt lat="2.772627" lon="-75.0769">
        <ele>1888.7</ele>
        <time>2021-08-21T15:31:27Z</time>
      </trkpt>
      <trkpt lat="2.772623" lon="-75.07689">
        <ele>1888.8</ele>
        <time>2021-08-21T15:31:28Z</time>
      </trkpt>
      <trkpt lat="2.772619" lon="-75.07688">
        <ele>1888.9</ele>
        <time>2021-08-21T15:31:29Z</time>
      </trkpt>
      <trkpt lat="2.772615" lon="-75.07687">
        <ele>1889.0</ele>
        <time>2021-08-21T15:31:30Z</time>
      </trkpt>
      <trkpt lat="2.772611" lon="-75.07686">
        <ele>1889.1</ele>
        <time>2021-08-21T15:31:31Z</time>
      </trkpt>
      <trkpt lat="2.772606" lon="-75.07686">
        <ele>1889.3</ele>
        <time>2021-08-21T15:31:32Z</time>
      </trkpt>
      <trkpt lat="2.772601" lon="-75.07685">
        <ele>1889.4</ele>
        <time>2021-08-21T15:31:33Z</time>
      </trkpt>
      <trkpt lat="2.772597" lon="-75.07684">
        <ele>1889.5</ele>
        <time>2021-08-21T15:31:34Z</time>
      </trkpt>
      <trkpt lat="2.772593" lon="-75.076836">
        <ele>1889.6</ele>
        <time>2021-08-21T15:31:35Z</time>
      </trkpt>
      <trkpt lat="2.772589" lon="-75.07682">
        <ele>1889.7</ele>
        <time>2021-08-21T15:31:36Z</time>
      </trkpt>
      <trkpt lat="2.772584" lon="-75.07681">
        <ele>1889.8</ele>
        <time>2021-08-21T15:31:37Z</time>
      </trkpt>
      <trkpt lat="2.772579" lon="-75.076805">
        <ele>1890.0</ele>
        <time>2021-08-21T15:31:38Z</time>
      </trkpt>
      <trkpt lat="2.772574" lon="-75.0768">
        <ele>1890.1</ele>
        <time>2021-08-21T15:31:39Z</time>
      </trkpt>
      <trkpt lat="2.772568" lon="-75.07679">
        <ele>1890.2</ele>
        <time>2021-08-21T15:31:40Z</time>
      </trkpt>
      <trkpt lat="2.772562" lon="-75.07678">
        <ele>1890.3</ele>
        <time>2021-08-21T15:31:41Z</time>
      </trkpt>
      <trkpt lat="2.772557" lon="-75.076775">
        <ele>1890.4</ele>
        <time>2021-08-21T15:31:42Z</time>
      </trkpt>
      <trkpt lat="2.772552" lon="-75.07677">
        <ele>1890.5</ele>
        <time>2021-08-21T15:31:43Z</time>
      </trkpt>
      <trkpt lat="2.772547" lon="-75.07676">
        <ele>1890.6</ele>
        <time>2021-08-21T15:31:44Z</time>
      </trkpt>
      <trkpt lat="2.772541" lon="-75.07676">
        <ele>1890.7</ele>
        <time>2021-08-21T15:31:45Z</time>
      </trkpt>
      <trkpt lat="2.772534" lon="-75.07675">
        <ele>1890.9</ele>
        <time>2021-08-21T15:31:46Z</time>
      </trkpt>
      <trkpt lat="2.772529" lon="-75.076744">
        <ele>1891.0</ele>
        <time>2021-08-21T15:31:47Z</time>
      </trkpt>
      <trkpt lat="2.772523" lon="-75.07674">
        <ele>1891.1</ele>
        <time>2021-08-21T15:31:48Z</time>
      </trkpt>
      <trkpt lat="2.772517" lon="-75.07673">
        <ele>1891.2</ele>
        <time>2021-08-21T15:31:49Z</time>
      </trkpt>
      <trkpt lat="2.772511" lon="-75.07672">
        <ele>1891.3</ele>
        <time>2021-08-21T15:31:50Z</time>
      </trkpt>
      <trkpt lat="2.772506" lon="-75.07671">
        <ele>1891.4</ele>
        <time>2021-08-21T15:31:51Z</time>
      </trkpt>
      <trkpt lat="2.772501" lon="-75.076706">
        <ele>1891.5</ele>
        <time>2021-08-21T15:31:52Z</time>
      </trkpt>
      <trkpt lat="2.772495" lon="-75.0767">
        <ele>1891.7</ele>
        <time>2021-08-21T15:31:53Z</time>
      </trkpt>
      <trkpt lat="2.772488" lon="-75.07669">
        <ele>1891.8</ele>
        <time>2021-08-21T15:31:54Z</time>
      </trkpt>
      <trkpt lat="2.77248" lon="-75.07668">
        <ele>1891.9</ele>
        <time>2021-08-21T15:31:55Z</time>
      </trkpt>
      <trkpt lat="2.772472" lon="-75.07668">
        <ele>1892.0</ele>
        <time>2021-08-21T15:31:56Z</time>
      </trkpt>
      <trkpt lat="2.772466" lon="-75.076675">
        <ele>1892.2</ele>
        <time>2021-08-21T15:31:57Z</time>
      </trkpt>
      <trkpt lat="2.77246" lon="-75.07667">
        <ele>1892.3</ele>
        <time>2021-08-21T15:31:58Z</time>
      </trkpt>
      <trkpt lat="2.772454" lon="-75.07666">
        <ele>1892.4</ele>
        <time>2021-08-21T15:31:59Z</time>
      </trkpt>
      <trkpt lat="2.772446" lon="-75.07665">
        <ele>1892.5</ele>
        <time>2021-08-21T15:32:00Z</time>
      </trkpt>
      <trkpt lat="2.772439" lon="-75.076645">
        <ele>1892.6</ele>
        <time>2021-08-21T15:32:01Z</time>
      </trkpt>
      <trkpt lat="2.772433" lon="-75.07664">
        <ele>1892.8</ele>
        <time>2021-08-21T15:32:02Z</time>
      </trkpt>
      <trkpt lat="2.772428" lon="-75.07663">
        <ele>1892.9</ele>
        <time>2021-08-21T15:32:03Z</time>
      </trkpt>
      <trkpt lat="2.772423" lon="-75.07662">
        <ele>1893.0</ele>
        <time>2021-08-21T15:32:04Z</time>
      </trkpt>
      <trkpt lat="2.772417" lon="-75.076614">
        <ele>1893.1</ele>
        <time>2021-08-21T15:32:05Z</time>
      </trkpt>
      <trkpt lat="2.77241" lon="-75.07661">
        <ele>1893.3</ele>
        <time>2021-08-21T15:32:06Z</time>
      </trkpt>
      <trkpt lat="2.772403" lon="-75.0766">
        <ele>1893.4</ele>
        <time>2021-08-21T15:32:07Z</time>
      </trkpt>
      <trkpt lat="2.772396" lon="-75.07659">
        <ele>1893.5</ele>
        <time>2021-08-21T15:32:08Z</time>
      </trkpt>
      <trkpt lat="2.772388" lon="-75.076584">
        <ele>1893.7</ele>
        <time>2021-08-21T15:32:09Z</time>
      </trkpt>
      <trkpt lat="2.772381" lon="-75.07658">
        <ele>1893.8</ele>
        <time>2021-08-21T15:32:10Z</time>
      </trkpt>
      <trkpt lat="2.772373" lon="-75.07657">
        <ele>1894.0</ele>
        <time>2021-08-21T15:32:11Z</time>
      </trkpt>
      <trkpt lat="2.772365" lon="-75.07656">
        <ele>1894.1</ele>
        <time>2021-08-21T15:32:12Z</time>
      </trkpt>
      <trkpt lat="2.772357" lon="-75.07655">
        <ele>1894.2</ele>
        <time>2021-08-21T15:32:13Z</time>
      </trkpt>
      <trkpt lat="2.772348" lon="-75.076546">
        <ele>1894.3</ele>
        <time>2021-08-21T15:32:14Z</time>
      </trkpt>
      <trkpt lat="2.772339" lon="-75.076546">
        <ele>1894.5</ele>
        <time>2021-08-21T15:32:15Z</time>
      </trkpt>
      <trkpt lat="2.772329" lon="-75.07654">
        <ele>1894.6</ele>
        <time>2021-08-21T15:32:16Z</time>
      </trkpt>
      <trkpt lat="2.77232" lon="-75.07653">
        <ele>1894.7</ele>
        <time>2021-08-21T15:32:17Z</time>
      </trkpt>
      <trkpt lat="2.772312" lon="-75.07653">
        <ele>1894.8</ele>
        <time>2021-08-21T15:32:18Z</time>
      </trkpt>
      <trkpt lat="2.772302" lon="-75.07652">
        <ele>1895.0</ele>
        <time>2021-08-21T15:32:19Z</time>
      </trkpt>
      <trkpt lat="2.772291" lon="-75.07652">
        <ele>1895.1</ele>
        <time>2021-08-21T15:32:20Z</time>
      </trkpt>
      <trkpt lat="2.77228" lon="-75.076515">
        <ele>1895.3</ele>
        <time>2021-08-21T15:32:21Z</time>
      </trkpt>
      <trkpt lat="2.772268" lon="-75.076515">
        <ele>1895.4</ele>
        <time>2021-08-21T15:32:22Z</time>
      </trkpt>
      <trkpt lat="2.772256" lon="-75.076515">
        <ele>1895.6</ele>
        <time>2021-08-21T15:32:23Z</time>
      </trkpt>
      <trkpt lat="2.772244" lon="-75.076515">
        <ele>1895.7</ele>
        <time>2021-08-21T15:32:24Z</time>
      </trkpt>
      <trkpt lat="2.772234" lon="-75.07651">
        <ele>1895.9</ele>
        <time>2021-08-21T15:32:25Z</time>
      </trkpt>
      <trkpt lat="2.772222" lon="-75.07651">
        <ele>1896.0</ele>
        <time>2021-08-21T15:32:26Z</time>
      </trkpt>
      <trkpt lat="2.77221" lon="-75.0765">
        <ele>1896.2</ele>
        <time>2021-08-21T15:32:27Z</time>
      </trkpt>
      <trkpt lat="2.772199" lon="-75.0765">
        <ele>1896.3</ele>
        <time>2021-08-21T15:32:28Z</time>
      </trkpt>
      <trkpt lat="2.772189" lon="-75.07649">
        <ele>1896.5</ele>
        <time>2021-08-21T15:32:29Z</time>
      </trkpt>
      <trkpt lat="2.77217" lon="-75.076485">
        <ele>1896.7</ele>
        <time>2021-08-21T15:32:30Z</time>
      </trkpt>
      <trkpt lat="2.772161" lon="-75.076485">
        <ele>1896.8</ele>
        <time>2021-08-21T15:32:31Z</time>
      </trkpt>
      <trkpt lat="2.772152" lon="-75.07648">
        <ele>1897.0</ele>
        <time>2021-08-21T15:32:32Z</time>
      </trkpt>
      <trkpt lat="2.772143" lon="-75.07648">
        <ele>1897.1</ele>
        <time>2021-08-21T15:32:33Z</time>
      </trkpt>
      <trkpt lat="2.772134" lon="-75.07648">
        <ele>1897.2</ele>
        <time>2021-08-21T15:32:34Z</time>
      </trkpt>
      <trkpt lat="2.772125" lon="-75.07647">
        <ele>1897.3</ele>
        <time>2021-08-21T15:32:35Z</time>
      </trkpt>
      <trkpt lat="2.772116" lon="-75.07647">
        <ele>1897.4</ele>
        <time>2021-08-21T15:32:36Z</time>
      </trkpt>
      <trkpt lat="2.772098" lon="-75.07646">
        <ele>1897.7</ele>
        <time>2021-08-21T15:32:37Z</time>
      </trkpt>
      <trkpt lat="2.772107" lon="-75.07647">
        <ele>1897.5</ele>
        <time>2021-08-21T15:32:37Z</time>
      </trkpt>
      <trkpt lat="2.772087" lon="-75.07646">
        <ele>1897.8</ele>
        <time>2021-08-21T15:32:38Z</time>
      </trkpt>
      <trkpt lat="2.772077" lon="-75.07646">
        <ele>1897.9</ele>
        <time>2021-08-21T15:32:39Z</time>
      </trkpt>
      <trkpt lat="2.772067" lon="-75.076454">
        <ele>1898.1</ele>
        <time>2021-08-21T15:32:40Z</time>
      </trkpt>
      <trkpt lat="2.772056" lon="-75.076454">
        <ele>1898.2</ele>
        <time>2021-08-21T15:32:41Z</time>
      </trkpt>
      <trkpt lat="2.772045" lon="-75.07645">
        <ele>1898.4</ele>
        <time>2021-08-21T15:32:42Z</time>
      </trkpt>
      <trkpt lat="2.772034" lon="-75.07645">
        <ele>1898.5</ele>
        <time>2021-08-21T15:32:43Z</time>
      </trkpt>
      <trkpt lat="2.772023" lon="-75.07644">
        <ele>1898.7</ele>
        <time>2021-08-21T15:32:44Z</time>
      </trkpt>
      <trkpt lat="2.772012" lon="-75.07643">
        <ele>1898.8</ele>
        <time>2021-08-21T15:32:45Z</time>
      </trkpt>
      <trkpt lat="2.772" lon="-75.07643">
        <ele>1899.0</ele>
        <time>2021-08-21T15:32:46Z</time>
      </trkpt>
      <trkpt lat="2.771988" lon="-75.07642">
        <ele>1899.1</ele>
        <time>2021-08-21T15:32:47Z</time>
      </trkpt>
      <trkpt lat="2.771976" lon="-75.076416">
        <ele>1899.3</ele>
        <time>2021-08-21T15:32:48Z</time>
      </trkpt>
      <trkpt lat="2.771964" lon="-75.076416">
        <ele>1899.5</ele>
        <time>2021-08-21T15:32:49Z</time>
      </trkpt>
      <trkpt lat="2.771951" lon="-75.07641">
        <ele>1899.6</ele>
        <time>2021-08-21T15:32:50Z</time>
      </trkpt>
      <trkpt lat="2.771939" lon="-75.0764">
        <ele>1899.8</ele>
        <time>2021-08-21T15:32:51Z</time>
      </trkpt>
      <trkpt lat="2.771927" lon="-75.0764">
        <ele>1900.0</ele>
        <time>2021-08-21T15:32:52Z</time>
      </trkpt>
      <trkpt lat="2.771914" lon="-75.07639">
        <ele>1900.1</ele>
        <time>2021-08-21T15:32:53Z</time>
      </trkpt>
      <trkpt lat="2.771901" lon="-75.07639">
        <ele>1900.3</ele>
        <time>2021-08-21T15:32:54Z</time>
      </trkpt>
      <trkpt lat="2.771889" lon="-75.076385">
        <ele>1900.5</ele>
        <time>2021-08-21T15:32:55Z</time>
      </trkpt>
      <trkpt lat="2.771876" lon="-75.07638">
        <ele>1900.6</ele>
        <time>2021-08-21T15:32:56Z</time>
      </trkpt>
      <trkpt lat="2.771864" lon="-75.07638">
        <ele>1900.8</ele>
        <time>2021-08-21T15:32:57Z</time>
      </trkpt>
      <trkpt lat="2.771852" lon="-75.07637">
        <ele>1901.0</ele>
        <time>2021-08-21T15:32:58Z</time>
      </trkpt>
      <trkpt lat="2.771841" lon="-75.07637">
        <ele>1901.1</ele>
        <time>2021-08-21T15:32:59Z</time>
      </trkpt>
      <trkpt lat="2.77183" lon="-75.07636">
        <ele>1901.3</ele>
        <time>2021-08-21T15:33:00Z</time>
      </trkpt>
      <trkpt lat="2.771819" lon="-75.07636">
        <ele>1901.4</ele>
        <time>2021-08-21T15:33:01Z</time>
      </trkpt>
      <trkpt lat="2.771809" lon="-75.076355">
        <ele>1901.5</ele>
        <time>2021-08-21T15:33:02Z</time>
      </trkpt>
      <trkpt lat="2.771797" lon="-75.076355">
        <ele>1901.7</ele>
        <time>2021-08-21T15:33:03Z</time>
      </trkpt>
      <trkpt lat="2.771784" lon="-75.07635">
        <ele>1901.9</ele>
        <time>2021-08-21T15:33:04Z</time>
      </trkpt>
      <trkpt lat="2.771772" lon="-75.07635">
        <ele>1902.0</ele>
        <time>2021-08-21T15:33:05Z</time>
      </trkpt>
      <trkpt lat="2.77176" lon="-75.07635">
        <ele>1902.2</ele>
        <time>2021-08-21T15:33:06Z</time>
      </trkpt>
      <trkpt lat="2.771748" lon="-75.07634">
        <ele>1902.3</ele>
        <time>2021-08-21T15:33:07Z</time>
      </trkpt>
      <trkpt lat="2.771736" lon="-75.07634">
        <ele>1902.5</ele>
        <time>2021-08-21T15:33:08Z</time>
      </trkpt>
      <trkpt lat="2.771725" lon="-75.07633">
        <ele>1902.6</ele>
        <time>2021-08-21T15:33:09Z</time>
      </trkpt>
      <trkpt lat="2.771714" lon="-75.076324">
        <ele>1902.8</ele>
        <time>2021-08-21T15:33:10Z</time>
      </trkpt>
      <trkpt lat="2.771703" lon="-75.076324">
        <ele>1902.9</ele>
        <time>2021-08-21T15:33:11Z</time>
      </trkpt>
      <trkpt lat="2.771693" lon="-75.07632">
        <ele>1903.1</ele>
        <time>2021-08-21T15:33:12Z</time>
      </trkpt>
      <trkpt lat="2.771682" lon="-75.07632">
        <ele>1903.2</ele>
        <time>2021-08-21T15:33:13Z</time>
      </trkpt>
      <trkpt lat="2.771671" lon="-75.07631">
        <ele>1903.4</ele>
        <time>2021-08-21T15:33:14Z</time>
      </trkpt>
      <trkpt lat="2.77166" lon="-75.07631">
        <ele>1903.5</ele>
        <time>2021-08-21T15:33:15Z</time>
      </trkpt>
      <trkpt lat="2.771649" lon="-75.0763">
        <ele>1903.7</ele>
        <time>2021-08-21T15:33:16Z</time>
      </trkpt>
      <trkpt lat="2.77164" lon="-75.0763">
        <ele>1903.8</ele>
        <time>2021-08-21T15:33:17Z</time>
      </trkpt>
      <trkpt lat="2.771628" lon="-75.076294">
        <ele>1903.9</ele>
        <time>2021-08-21T15:33:18Z</time>
      </trkpt>
      <trkpt lat="2.771618" lon="-75.076294">
        <ele>1904.1</ele>
        <time>2021-08-21T15:33:19Z</time>
      </trkpt>
      <trkpt lat="2.771606" lon="-75.07629">
        <ele>1904.2</ele>
        <time>2021-08-21T15:33:20Z</time>
      </trkpt>
      <trkpt lat="2.771594" lon="-75.07629">
        <ele>1904.4</ele>
        <time>2021-08-21T15:33:21Z</time>
      </trkpt>
      <trkpt lat="2.771581" lon="-75.07628">
        <ele>1904.6</ele>
        <time>2021-08-21T15:33:22Z</time>
      </trkpt>
      <trkpt lat="2.771568" lon="-75.07628">
        <ele>1904.7</ele>
        <time>2021-08-21T15:33:23Z</time>
      </trkpt>
      <trkpt lat="2.771554" lon="-75.07628">
        <ele>1904.9</ele>
        <time>2021-08-21T15:33:24Z</time>
      </trkpt>
      <trkpt lat="2.771541" lon="-75.07627">
        <ele>1905.1</ele>
        <time>2021-08-21T15:33:25Z</time>
      </trkpt>
      <trkpt lat="2.771528" lon="-75.07627">
        <ele>1905.2</ele>
        <time>2021-08-21T15:33:26Z</time>
      </trkpt>
      <trkpt lat="2.771515" lon="-75.07626">
        <ele>1905.4</ele>
        <time>2021-08-21T15:33:27Z</time>
      </trkpt>
      <trkpt lat="2.771501" lon="-75.07626">
        <ele>1905.6</ele>
        <time>2021-08-21T15:33:28Z</time>
      </trkpt>
      <trkpt lat="2.771488" lon="-75.076256">
        <ele>1905.8</ele>
        <time>2021-08-21T15:33:29Z</time>
      </trkpt>
      <trkpt lat="2.771475" lon="-75.076256">
        <ele>1905.9</ele>
        <time>2021-08-21T15:33:30Z</time>
      </trkpt>
      <trkpt lat="2.771463" lon="-75.076256">
        <ele>1906.1</ele>
        <time>2021-08-21T15:33:31Z</time>
      </trkpt>
      <trkpt lat="2.771449" lon="-75.07625">
        <ele>1906.3</ele>
        <time>2021-08-21T15:33:32Z</time>
      </trkpt>
      <trkpt lat="2.771436" lon="-75.07625">
        <ele>1906.4</ele>
        <time>2021-08-21T15:33:33Z</time>
      </trkpt>
      <trkpt lat="2.771423" lon="-75.07625">
        <ele>1906.6</ele>
        <time>2021-08-21T15:33:34Z</time>
      </trkpt>
      <trkpt lat="2.771409" lon="-75.07624">
        <ele>1906.8</ele>
        <time>2021-08-21T15:33:35Z</time>
      </trkpt>
      <trkpt lat="2.771397" lon="-75.07624">
        <ele>1906.9</ele>
        <time>2021-08-21T15:33:36Z</time>
      </trkpt>
      <trkpt lat="2.771385" lon="-75.07623">
        <ele>1907.1</ele>
        <time>2021-08-21T15:33:37Z</time>
      </trkpt>
      <trkpt lat="2.771371" lon="-75.07623">
        <ele>1907.3</ele>
        <time>2021-08-21T15:33:38Z</time>
      </trkpt>
      <trkpt lat="2.771358" lon="-75.07623">
        <ele>1907.4</ele>
        <time>2021-08-21T15:33:39Z</time>
      </trkpt>
      <trkpt lat="2.771344" lon="-75.07623">
        <ele>1907.6</ele>
        <time>2021-08-21T15:33:40Z</time>
      </trkpt>
      <trkpt lat="2.771331" lon="-75.076225">
        <ele>1907.8</ele>
        <time>2021-08-21T15:33:41Z</time>
      </trkpt>
      <trkpt lat="2.771316" lon="-75.076225">
        <ele>1908.0</ele>
        <time>2021-08-21T15:33:42Z</time>
      </trkpt>
      <trkpt lat="2.771303" lon="-75.076225">
        <ele>1908.1</ele>
        <time>2021-08-21T15:33:43Z</time>
      </trkpt>
      <trkpt lat="2.771288" lon="-75.076225">
        <ele>1908.3</ele>
        <time>2021-08-21T15:33:44Z</time>
      </trkpt>
      <trkpt lat="2.771273" lon="-75.076225">
        <ele>1908.5</ele>
        <time>2021-08-21T15:33:45Z</time>
      </trkpt>
      <trkpt lat="2.771259" lon="-75.07622">
        <ele>1908.7</ele>
        <time>2021-08-21T15:33:46Z</time>
      </trkpt>
      <trkpt lat="2.771245" lon="-75.07622">
        <ele>1908.9</ele>
        <time>2021-08-21T15:33:47Z</time>
      </trkpt>
      <trkpt lat="2.771231" lon="-75.07622">
        <ele>1909.0</ele>
        <time>2021-08-21T15:33:48Z</time>
      </trkpt>
      <trkpt lat="2.771217" lon="-75.07621">
        <ele>1909.2</ele>
        <time>2021-08-21T15:33:49Z</time>
      </trkpt>
      <trkpt lat="2.771204" lon="-75.0762">
        <ele>1909.4</ele>
        <time>2021-08-21T15:33:50Z</time>
      </trkpt>
      <trkpt lat="2.77119" lon="-75.0762">
        <ele>1909.6</ele>
        <time>2021-08-21T15:33:51Z</time>
      </trkpt>
      <trkpt lat="2.771177" lon="-75.07619">
        <ele>1909.8</ele>
        <time>2021-08-21T15:33:52Z</time>
      </trkpt>
      <trkpt lat="2.771166" lon="-75.07618">
        <ele>1910.0</ele>
        <time>2021-08-21T15:33:53Z</time>
      </trkpt>
      <trkpt lat="2.771155" lon="-75.07617">
        <ele>1910.2</ele>
        <time>2021-08-21T15:33:54Z</time>
      </trkpt>
      <trkpt lat="2.771144" lon="-75.07616">
        <ele>1910.3</ele>
        <time>2021-08-21T15:33:55Z</time>
      </trkpt>
      <trkpt lat="2.771133" lon="-75.07615">
        <ele>1910.5</ele>
        <time>2021-08-21T15:33:56Z</time>
      </trkpt>
      <trkpt lat="2.771122" lon="-75.07614">
        <ele>1910.7</ele>
        <time>2021-08-21T15:33:57Z</time>
      </trkpt>
      <trkpt lat="2.77111" lon="-75.076126">
        <ele>1910.9</ele>
        <time>2021-08-21T15:33:58Z</time>
      </trkpt>
      <trkpt lat="2.771098" lon="-75.07612">
        <ele>1911.1</ele>
        <time>2021-08-21T15:33:59Z</time>
      </trkpt>
      <trkpt lat="2.771087" lon="-75.0761">
        <ele>1911.3</ele>
        <time>2021-08-21T15:34:00Z</time>
      </trkpt>
      <trkpt lat="2.771076" lon="-75.076096">
        <ele>1911.5</ele>
        <time>2021-08-21T15:34:01Z</time>
      </trkpt>
      <trkpt lat="2.771066" lon="-75.07608">
        <ele>1911.7</ele>
        <time>2021-08-21T15:34:02Z</time>
      </trkpt>
      <trkpt lat="2.771056" lon="-75.07607">
        <ele>1911.9</ele>
        <time>2021-08-21T15:34:03Z</time>
      </trkpt>
      <trkpt lat="2.771047" lon="-75.07606">
        <ele>1912.1</ele>
        <time>2021-08-21T15:34:04Z</time>
      </trkpt>
      <trkpt lat="2.771038" lon="-75.07605">
        <ele>1912.3</ele>
        <time>2021-08-21T15:34:05Z</time>
      </trkpt>
      <trkpt lat="2.771029" lon="-75.076035">
        <ele>1912.5</ele>
        <time>2021-08-21T15:34:06Z</time>
      </trkpt>
      <trkpt lat="2.77102" lon="-75.07602">
        <ele>1912.7</ele>
        <time>2021-08-21T15:34:07Z</time>
      </trkpt>
      <trkpt lat="2.771011" lon="-75.076004">
        <ele>1912.9</ele>
        <time>2021-08-21T15:34:08Z</time>
      </trkpt>
      <trkpt lat="2.771003" lon="-75.07599">
        <ele>1913.1</ele>
        <time>2021-08-21T15:34:09Z</time>
      </trkpt>
      <trkpt lat="2.770994" lon="-75.07597">
        <ele>1913.3</ele>
        <time>2021-08-21T15:34:10Z</time>
      </trkpt>
      <trkpt lat="2.770987" lon="-75.07596">
        <ele>1913.5</ele>
        <time>2021-08-21T15:34:11Z</time>
      </trkpt>
      <trkpt lat="2.77098" lon="-75.07595">
        <ele>1913.7</ele>
        <time>2021-08-21T15:34:12Z</time>
      </trkpt>
      <trkpt lat="2.770973" lon="-75.075935">
        <ele>1913.9</ele>
        <time>2021-08-21T15:34:13Z</time>
      </trkpt>
      <trkpt lat="2.770967" lon="-75.07592">
        <ele>1914.1</ele>
        <time>2021-08-21T15:34:14Z</time>
      </trkpt>
      <trkpt lat="2.770962" lon="-75.07591">
        <ele>1914.2</ele>
        <time>2021-08-21T15:34:15Z</time>
      </trkpt>
      <trkpt lat="2.770956" lon="-75.0759">
        <ele>1914.4</ele>
        <time>2021-08-21T15:34:16Z</time>
      </trkpt>
      <trkpt lat="2.77095" lon="-75.07589">
        <ele>1914.6</ele>
        <time>2021-08-21T15:34:17Z</time>
      </trkpt>
      <trkpt lat="2.770945" lon="-75.075874">
        <ele>1914.7</ele>
        <time>2021-08-21T15:34:18Z</time>
      </trkpt>
      <trkpt lat="2.77094" lon="-75.07587">
        <ele>1914.9</ele>
        <time>2021-08-21T15:34:19Z</time>
      </trkpt>
      <trkpt lat="2.770935" lon="-75.07585">
        <ele>1915.0</ele>
        <time>2021-08-21T15:34:20Z</time>
      </trkpt>
      <trkpt lat="2.770931" lon="-75.07584">
        <ele>1915.2</ele>
        <time>2021-08-21T15:34:21Z</time>
      </trkpt>
      <trkpt lat="2.770928" lon="-75.07583">
        <ele>1915.3</ele>
        <time>2021-08-21T15:34:22Z</time>
      </trkpt>
      <trkpt lat="2.770925" lon="-75.07582">
        <ele>1915.5</ele>
        <time>2021-08-21T15:34:23Z</time>
      </trkpt>
      <trkpt lat="2.770921" lon="-75.07581">
        <ele>1915.6</ele>
        <time>2021-08-21T15:34:24Z</time>
      </trkpt>
      <trkpt lat="2.770916" lon="-75.0758">
        <ele>1915.8</ele>
        <time>2021-08-21T15:34:25Z</time>
      </trkpt>
      <trkpt lat="2.770911" lon="-75.07579">
        <ele>1915.9</ele>
        <time>2021-08-21T15:34:26Z</time>
      </trkpt>
      <trkpt lat="2.770905" lon="-75.075775">
        <ele>1916.1</ele>
        <time>2021-08-21T15:34:27Z</time>
      </trkpt>
      <trkpt lat="2.770899" lon="-75.07576">
        <ele>1916.3</ele>
        <time>2021-08-21T15:34:28Z</time>
      </trkpt>
      <trkpt lat="2.770893" lon="-75.07575">
        <ele>1916.4</ele>
        <time>2021-08-21T15:34:29Z</time>
      </trkpt>
      <trkpt lat="2.770887" lon="-75.07574">
        <ele>1916.6</ele>
        <time>2021-08-21T15:34:30Z</time>
      </trkpt>
      <trkpt lat="2.770882" lon="-75.07573">
        <ele>1916.8</ele>
        <time>2021-08-21T15:34:31Z</time>
      </trkpt>
      <trkpt lat="2.770877" lon="-75.075714">
        <ele>1916.9</ele>
        <time>2021-08-21T15:34:32Z</time>
      </trkpt>
      <trkpt lat="2.770873" lon="-75.0757">
        <ele>1917.1</ele>
        <time>2021-08-21T15:34:33Z</time>
      </trkpt>
      <trkpt lat="2.770868" lon="-75.07569">
        <ele>1917.3</ele>
        <time>2021-08-21T15:34:34Z</time>
      </trkpt>
      <trkpt lat="2.770864" lon="-75.075676">
        <ele>1917.4</ele>
        <time>2021-08-21T15:34:35Z</time>
      </trkpt>
      <trkpt lat="2.770859" lon="-75.07567">
        <ele>1917.6</ele>
        <time>2021-08-21T15:34:36Z</time>
      </trkpt>
      <trkpt lat="2.770856" lon="-75.07565">
        <ele>1917.7</ele>
        <time>2021-08-21T15:34:37Z</time>
      </trkpt>
      <trkpt lat="2.770852" lon="-75.075645">
        <ele>1917.9</ele>
        <time>2021-08-21T15:34:38Z</time>
      </trkpt>
      <trkpt lat="2.770847" lon="-75.07563">
        <ele>1918.0</ele>
        <time>2021-08-21T15:34:39Z</time>
      </trkpt>
      <trkpt lat="2.770841" lon="-75.07562">
        <ele>1918.2</ele>
        <time>2021-08-21T15:34:40Z</time>
      </trkpt>
      <trkpt lat="2.770834" lon="-75.075615">
        <ele>1918.3</ele>
        <time>2021-08-21T15:34:41Z</time>
      </trkpt>
      <trkpt lat="2.770827" lon="-75.0756">
        <ele>1918.5</ele>
        <time>2021-08-21T15:34:42Z</time>
      </trkpt>
      <trkpt lat="2.770821" lon="-75.07559">
        <ele>1918.6</ele>
        <time>2021-08-21T15:34:43Z</time>
      </trkpt>
      <trkpt lat="2.770817" lon="-75.075584">
        <ele>1918.7</ele>
        <time>2021-08-21T15:34:44Z</time>
      </trkpt>
      <trkpt lat="2.770813" lon="-75.07558">
        <ele>1918.9</ele>
        <time>2021-08-21T15:34:45Z</time>
      </trkpt>
      <trkpt lat="2.77081" lon="-75.07556">
        <ele>1919.0</ele>
        <time>2021-08-21T15:34:46Z</time>
      </trkpt>
      <trkpt lat="2.770806" lon="-75.075554">
        <ele>1919.2</ele>
        <time>2021-08-21T15:34:47Z</time>
      </trkpt>
      <trkpt lat="2.770803" lon="-75.07554">
        <ele>1919.3</ele>
        <time>2021-08-21T15:34:48Z</time>
      </trkpt>
      <trkpt lat="2.770799" lon="-75.07553">
        <ele>1919.4</ele>
        <time>2021-08-21T15:34:49Z</time>
      </trkpt>
      <trkpt lat="2.770795" lon="-75.07552">
        <ele>1919.6</ele>
        <time>2021-08-21T15:34:50Z</time>
      </trkpt>
      <trkpt lat="2.77079" lon="-75.075516">
        <ele>1919.7</ele>
        <time>2021-08-21T15:34:51Z</time>
      </trkpt>
      <trkpt lat="2.770786" lon="-75.0755">
        <ele>1919.8</ele>
        <time>2021-08-21T15:34:52Z</time>
      </trkpt>
      <trkpt lat="2.770782" lon="-75.07549">
        <ele>1920.0</ele>
        <time>2021-08-21T15:34:53Z</time>
      </trkpt>
      <trkpt lat="2.770778" lon="-75.07548">
        <ele>1920.1</ele>
        <time>2021-08-21T15:34:54Z</time>
      </trkpt>
      <trkpt lat="2.770775" lon="-75.07547">
        <ele>1920.3</ele>
        <time>2021-08-21T15:34:55Z</time>
      </trkpt>
      <trkpt lat="2.770772" lon="-75.075455">
        <ele>1920.4</ele>
        <time>2021-08-21T15:34:56Z</time>
      </trkpt>
      <trkpt lat="2.770769" lon="-75.07545">
        <ele>1920.6</ele>
        <time>2021-08-21T15:34:57Z</time>
      </trkpt>
      <trkpt lat="2.770765" lon="-75.07544">
        <ele>1920.7</ele>
        <time>2021-08-21T15:34:58Z</time>
      </trkpt>
      <trkpt lat="2.770762" lon="-75.075424">
        <ele>1920.9</ele>
        <time>2021-08-21T15:34:59Z</time>
      </trkpt>
      <trkpt lat="2.770758" lon="-75.07542">
        <ele>1921.0</ele>
        <time>2021-08-21T15:35:00Z</time>
      </trkpt>
      <trkpt lat="2.770754" lon="-75.0754">
        <ele>1921.2</ele>
        <time>2021-08-21T15:35:01Z</time>
      </trkpt>
      <trkpt lat="2.77075" lon="-75.07539">
        <ele>1921.3</ele>
        <time>2021-08-21T15:35:02Z</time>
      </trkpt>
      <trkpt lat="2.770744" lon="-75.07538">
        <ele>1921.5</ele>
        <time>2021-08-21T15:35:03Z</time>
      </trkpt>
      <trkpt lat="2.770738" lon="-75.07537">
        <ele>1921.6</ele>
        <time>2021-08-21T15:35:04Z</time>
      </trkpt>
      <trkpt lat="2.77073" lon="-75.07536">
        <ele>1921.7</ele>
        <time>2021-08-21T15:35:05Z</time>
      </trkpt>
      <trkpt lat="2.770721" lon="-75.075356">
        <ele>1921.9</ele>
        <time>2021-08-21T15:35:06Z</time>
      </trkpt>
      <trkpt lat="2.770713" lon="-75.075356">
        <ele>1922.0</ele>
        <time>2021-08-21T15:35:07Z</time>
      </trkpt>
      <trkpt lat="2.770706" lon="-75.07535">
        <ele>1922.1</ele>
        <time>2021-08-21T15:35:08Z</time>
      </trkpt>
      <trkpt lat="2.770699" lon="-75.07534">
        <ele>1922.2</ele>
        <time>2021-08-21T15:35:09Z</time>
      </trkpt>
      <trkpt lat="2.770694" lon="-75.07533">
        <ele>1922.4</ele>
        <time>2021-08-21T15:35:10Z</time>
      </trkpt>
      <trkpt lat="2.77069" lon="-75.075325">
        <ele>1922.5</ele>
        <time>2021-08-21T15:35:11Z</time>
      </trkpt>
      <trkpt lat="2.770687" lon="-75.07532">
        <ele>1922.6</ele>
        <time>2021-08-21T15:35:12Z</time>
      </trkpt>
      <trkpt lat="2.770683" lon="-75.0753">
        <ele>1922.7</ele>
        <time>2021-08-21T15:35:13Z</time>
      </trkpt>
      <trkpt lat="2.770678" lon="-75.075294">
        <ele>1922.8</ele>
        <time>2021-08-21T15:35:14Z</time>
      </trkpt>
      <trkpt lat="2.770672" lon="-75.07529">
        <ele>1922.9</ele>
        <time>2021-08-21T15:35:15Z</time>
      </trkpt>
      <trkpt lat="2.770665" lon="-75.07528">
        <ele>1923.1</ele>
        <time>2021-08-21T15:35:16Z</time>
      </trkpt>
      <trkpt lat="2.770658" lon="-75.07527">
        <ele>1923.2</ele>
        <time>2021-08-21T15:35:17Z</time>
      </trkpt>
      <trkpt lat="2.77065" lon="-75.075264">
        <ele>1923.3</ele>
        <time>2021-08-21T15:35:18Z</time>
      </trkpt>
      <trkpt lat="2.770643" lon="-75.07526">
        <ele>1923.5</ele>
        <time>2021-08-21T15:35:19Z</time>
      </trkpt>
      <trkpt lat="2.770636" lon="-75.07525">
        <ele>1923.6</ele>
        <time>2021-08-21T15:35:20Z</time>
      </trkpt>
      <trkpt lat="2.770629" lon="-75.07524">
        <ele>1923.8</ele>
        <time>2021-08-21T15:35:21Z</time>
      </trkpt>
      <trkpt lat="2.770621" lon="-75.07523">
        <ele>1923.9</ele>
        <time>2021-08-21T15:35:22Z</time>
      </trkpt>
      <trkpt lat="2.770613" lon="-75.075226">
        <ele>1924.0</ele>
        <time>2021-08-21T15:35:23Z</time>
      </trkpt>
      <trkpt lat="2.770605" lon="-75.07522">
        <ele>1924.1</ele>
        <time>2021-08-21T15:35:24Z</time>
      </trkpt>
      <trkpt lat="2.770597" lon="-75.07522">
        <ele>1924.3</ele>
        <time>2021-08-21T15:35:25Z</time>
      </trkpt>
      <trkpt lat="2.77059" lon="-75.07521">
        <ele>1924.4</ele>
        <time>2021-08-21T15:35:26Z</time>
      </trkpt>
      <trkpt lat="2.770584" lon="-75.0752">
        <ele>1924.5</ele>
        <time>2021-08-21T15:35:27Z</time>
      </trkpt>
      <trkpt lat="2.770577" lon="-75.075195">
        <ele>1924.6</ele>
        <time>2021-08-21T15:35:28Z</time>
      </trkpt>
      <trkpt lat="2.770569" lon="-75.075195">
        <ele>1924.7</ele>
        <time>2021-08-21T15:35:29Z</time>
      </trkpt>
      <trkpt lat="2.770563" lon="-75.07519">
        <ele>1924.8</ele>
        <time>2021-08-21T15:35:30Z</time>
      </trkpt>
      <trkpt lat="2.770557" lon="-75.07518">
        <ele>1925.0</ele>
        <time>2021-08-21T15:35:31Z</time>
      </trkpt>
      <trkpt lat="2.770551" lon="-75.07517">
        <ele>1925.1</ele>
        <time>2021-08-21T15:35:32Z</time>
      </trkpt>
      <trkpt lat="2.770545" lon="-75.075165">
        <ele>1925.2</ele>
        <time>2021-08-21T15:35:33Z</time>
      </trkpt>
      <trkpt lat="2.770537" lon="-75.075165">
        <ele>1925.3</ele>
        <time>2021-08-21T15:35:34Z</time>
      </trkpt>
      <trkpt lat="2.770532" lon="-75.07515">
        <ele>1925.4</ele>
        <time>2021-08-21T15:35:35Z</time>
      </trkpt>
      <trkpt lat="2.770527" lon="-75.07514">
        <ele>1925.5</ele>
        <time>2021-08-21T15:35:36Z</time>
      </trkpt>
      <trkpt lat="2.770521" lon="-75.075134">
        <ele>1925.6</ele>
        <time>2021-08-21T15:35:37Z</time>
      </trkpt>
      <trkpt lat="2.770514" lon="-75.075134">
        <ele>1925.8</ele>
        <time>2021-08-21T15:35:38Z</time>
      </trkpt>
      <trkpt lat="2.770507" lon="-75.07513">
        <ele>1925.9</ele>
        <time>2021-08-21T15:35:39Z</time>
      </trkpt>
      <trkpt lat="2.770498" lon="-75.07512">
        <ele>1926.0</ele>
        <time>2021-08-21T15:35:40Z</time>
      </trkpt>
      <trkpt lat="2.770489" lon="-75.07511">
        <ele>1926.2</ele>
        <time>2021-08-21T15:35:41Z</time>
      </trkpt>
      <trkpt lat="2.770479" lon="-75.0751">
        <ele>1926.3</ele>
        <time>2021-08-21T15:35:42Z</time>
      </trkpt>
      <trkpt lat="2.770469" lon="-75.0751">
        <ele>1926.5</ele>
        <time>2021-08-21T15:35:43Z</time>
      </trkpt>
      <trkpt lat="2.770461" lon="-75.075096">
        <ele>1926.6</ele>
        <time>2021-08-21T15:35:44Z</time>
      </trkpt>
      <trkpt lat="2.770452" lon="-75.07509">
        <ele>1926.7</ele>
        <time>2021-08-21T15:35:45Z</time>
      </trkpt>
      <trkpt lat="2.770445" lon="-75.07509">
        <ele>1926.8</ele>
        <time>2021-08-21T15:35:46Z</time>
      </trkpt>
      <trkpt lat="2.770439" lon="-75.07508">
        <ele>1926.9</ele>
        <time>2021-08-21T15:35:47Z</time>
      </trkpt>
      <trkpt lat="2.770431" lon="-75.07507">
        <ele>1927.0</ele>
        <time>2021-08-21T15:35:48Z</time>
      </trkpt>
      <trkpt lat="2.770424" lon="-75.07507">
        <ele>1927.1</ele>
        <time>2021-08-21T15:35:49Z</time>
      </trkpt>
      <trkpt lat="2.770417" lon="-75.075066">
        <ele>1927.2</ele>
        <time>2021-08-21T15:35:50Z</time>
      </trkpt>
      <trkpt lat="2.770411" lon="-75.075066">
        <ele>1927.3</ele>
        <time>2021-08-21T15:35:51Z</time>
      </trkpt>
      <trkpt lat="2.770405" lon="-75.075066">
        <ele>1927.4</ele>
        <time>2021-08-21T15:35:52Z</time>
      </trkpt>
      <trkpt lat="2.770399" lon="-75.07506">
        <ele>1927.5</ele>
        <time>2021-08-21T15:35:53Z</time>
      </trkpt>
      <trkpt lat="2.770393" lon="-75.07506">
        <ele>1927.6</ele>
        <time>2021-08-21T15:35:54Z</time>
      </trkpt>
      <trkpt lat="2.770386" lon="-75.07505">
        <ele>1927.7</ele>
        <time>2021-08-21T15:35:55Z</time>
      </trkpt>
      <trkpt lat="2.77038" lon="-75.07505">
        <ele>1927.8</ele>
        <time>2021-08-21T15:35:56Z</time>
      </trkpt>
      <trkpt lat="2.770373" lon="-75.07504">
        <ele>1927.9</ele>
        <time>2021-08-21T15:35:57Z</time>
      </trkpt>
      <trkpt lat="2.770366" lon="-75.075035">
        <ele>1928.0</ele>
        <time>2021-08-21T15:35:58Z</time>
      </trkpt>
      <trkpt lat="2.770359" lon="-75.07503">
        <ele>1928.1</ele>
        <time>2021-08-21T15:35:59Z</time>
      </trkpt>
      <trkpt lat="2.770351" lon="-75.07503">
        <ele>1928.2</ele>
        <time>2021-08-21T15:36:00Z</time>
      </trkpt>
      <trkpt lat="2.770344" lon="-75.07502">
        <ele>1928.3</ele>
        <time>2021-08-21T15:36:01Z</time>
      </trkpt>
      <trkpt lat="2.770335" lon="-75.07501">
        <ele>1928.5</ele>
        <time>2021-08-21T15:36:02Z</time>
      </trkpt>
      <trkpt lat="2.770327" lon="-75.07501">
        <ele>1928.6</ele>
        <time>2021-08-21T15:36:03Z</time>
      </trkpt>
      <trkpt lat="2.770319" lon="-75.075005">
        <ele>1928.7</ele>
        <time>2021-08-21T15:36:04Z</time>
      </trkpt>
      <trkpt lat="2.770312" lon="-75.075">
        <ele>1928.8</ele>
        <time>2021-08-21T15:36:05Z</time>
      </trkpt>
      <trkpt lat="2.770305" lon="-75.075">
        <ele>1928.9</ele>
        <time>2021-08-21T15:36:06Z</time>
      </trkpt>
      <trkpt lat="2.770298" lon="-75.07499">
        <ele>1929.0</ele>
        <time>2021-08-21T15:36:07Z</time>
      </trkpt>
      <trkpt lat="2.77029" lon="-75.07498">
        <ele>1929.2</ele>
        <time>2021-08-21T15:36:08Z</time>
      </trkpt>
      <trkpt lat="2.770284" lon="-75.074974">
        <ele>1929.3</ele>
        <time>2021-08-21T15:36:09Z</time>
      </trkpt>
      <trkpt lat="2.770277" lon="-75.07497">
        <ele>1929.4</ele>
        <time>2021-08-21T15:36:10Z</time>
      </trkpt>
      <trkpt lat="2.770271" lon="-75.07496">
        <ele>1929.5</ele>
        <time>2021-08-21T15:36:11Z</time>
      </trkpt>
      <trkpt lat="2.770263" lon="-75.07496">
        <ele>1929.6</ele>
        <time>2021-08-21T15:36:12Z</time>
      </trkpt>
      <trkpt lat="2.770257" lon="-75.07495">
        <ele>1929.8</ele>
        <time>2021-08-21T15:36:13Z</time>
      </trkpt>
      <trkpt lat="2.770249" lon="-75.07494">
        <ele>1929.9</ele>
        <time>2021-08-21T15:36:14Z</time>
      </trkpt>
      <trkpt lat="2.770242" lon="-75.074936">
        <ele>1930.0</ele>
        <time>2021-08-21T15:36:15Z</time>
      </trkpt>
      <trkpt lat="2.770234" lon="-75.07493">
        <ele>1930.1</ele>
        <time>2021-08-21T15:36:16Z</time>
      </trkpt>
      <trkpt lat="2.770227" lon="-75.07492">
        <ele>1930.3</ele>
        <time>2021-08-21T15:36:17Z</time>
      </trkpt>
      <trkpt lat="2.770219" lon="-75.07491">
        <ele>1930.4</ele>
        <time>2021-08-21T15:36:18Z</time>
      </trkpt>
      <trkpt lat="2.770211" lon="-75.074905">
        <ele>1930.5</ele>
        <time>2021-08-21T15:36:19Z</time>
      </trkpt>
      <trkpt lat="2.770204" lon="-75.0749">
        <ele>1930.7</ele>
        <time>2021-08-21T15:36:20Z</time>
      </trkpt>
      <trkpt lat="2.770196" lon="-75.07489">
        <ele>1930.8</ele>
        <time>2021-08-21T15:36:21Z</time>
      </trkpt>
      <trkpt lat="2.770188" lon="-75.07488">
        <ele>1930.9</ele>
        <time>2021-08-21T15:36:22Z</time>
      </trkpt>
      <trkpt lat="2.770181" lon="-75.074875">
        <ele>1931.1</ele>
        <time>2021-08-21T15:36:23Z</time>
      </trkpt>
      <trkpt lat="2.770173" lon="-75.07487">
        <ele>1931.2</ele>
        <time>2021-08-21T15:36:24Z</time>
      </trkpt>
      <trkpt lat="2.770166" lon="-75.07486">
        <ele>1931.3</ele>
        <time>2021-08-21T15:36:25Z</time>
      </trkpt>
      <trkpt lat="2.77016" lon="-75.07485">
        <ele>1931.4</ele>
        <time>2021-08-21T15:36:26Z</time>
      </trkpt>
      <trkpt lat="2.770153" lon="-75.074844">
        <ele>1931.6</ele>
        <time>2021-08-21T15:36:27Z</time>
      </trkpt>
      <trkpt lat="2.770136" lon="-75.074844">
        <ele>1931.8</ele>
        <time>2021-08-21T15:36:28Z</time>
      </trkpt>
      <trkpt lat="2.770127" lon="-75.074844">
        <ele>1931.9</ele>
        <time>2021-08-21T15:36:29Z</time>
      </trkpt>
      <trkpt lat="2.770117" lon="-75.074844">
        <ele>1932.0</ele>
        <time>2021-08-21T15:36:30Z</time>
      </trkpt>
      <trkpt lat="2.770107" lon="-75.074844">
        <ele>1932.2</ele>
        <time>2021-08-21T15:36:31Z</time>
      </trkpt>
      <trkpt lat="2.770097" lon="-75.074844">
        <ele>1932.3</ele>
        <time>2021-08-21T15:36:32Z</time>
      </trkpt>
      <trkpt lat="2.770088" lon="-75.074844">
        <ele>1932.4</ele>
        <time>2021-08-21T15:36:33Z</time>
      </trkpt>
      <trkpt lat="2.770078" lon="-75.074844">
        <ele>1932.5</ele>
        <time>2021-08-21T15:36:34Z</time>
      </trkpt>
      <trkpt lat="2.770068" lon="-75.074844">
        <ele>1932.7</ele>
        <time>2021-08-21T15:36:35Z</time>
      </trkpt>
      <trkpt lat="2.770058" lon="-75.074844">
        <ele>1932.8</ele>
        <time>2021-08-21T15:36:36Z</time>
      </trkpt>
      <trkpt lat="2.770049" lon="-75.074844">
        <ele>1932.9</ele>
        <time>2021-08-21T15:36:37Z</time>
      </trkpt>
      <trkpt lat="2.770039" lon="-75.07485">
        <ele>1933.0</ele>
        <time>2021-08-21T15:36:38Z</time>
      </trkpt>
      <trkpt lat="2.770029" lon="-75.07485">
        <ele>1933.1</ele>
        <time>2021-08-21T15:36:39Z</time>
      </trkpt>
      <trkpt lat="2.77002" lon="-75.07485">
        <ele>1933.3</ele>
        <time>2021-08-21T15:36:40Z</time>
      </trkpt>
      <trkpt lat="2.77001" lon="-75.07485">
        <ele>1933.4</ele>
        <time>2021-08-21T15:36:41Z</time>
      </trkpt>
      <trkpt lat="2.77" lon="-75.07485">
        <ele>1933.5</ele>
        <time>2021-08-21T15:36:42Z</time>
      </trkpt>
      <trkpt lat="2.76999" lon="-75.07485">
        <ele>1933.6</ele>
        <time>2021-08-21T15:36:43Z</time>
      </trkpt>
      <trkpt lat="2.769981" lon="-75.07485">
        <ele>1933.7</ele>
        <time>2021-08-21T15:36:44Z</time>
      </trkpt>
      <trkpt lat="2.769971" lon="-75.07485">
        <ele>1933.9</ele>
        <time>2021-08-21T15:36:45Z</time>
      </trkpt>
      <trkpt lat="2.769961" lon="-75.07485">
        <ele>1934.0</ele>
        <time>2021-08-21T15:36:46Z</time>
      </trkpt>
      <trkpt lat="2.769951" lon="-75.07486">
        <ele>1934.1</ele>
        <time>2021-08-21T15:36:47Z</time>
      </trkpt>
      <trkpt lat="2.769942" lon="-75.07486">
        <ele>1934.2</ele>
        <time>2021-08-21T15:36:48Z</time>
      </trkpt>
      <trkpt lat="2.769932" lon="-75.07486">
        <ele>1934.4</ele>
        <time>2021-08-21T15:36:49Z</time>
      </trkpt>
      <trkpt lat="2.769922" lon="-75.07486">
        <ele>1934.5</ele>
        <time>2021-08-21T15:36:50Z</time>
      </trkpt>
      <trkpt lat="2.769912" lon="-75.07486">
        <ele>1934.6</ele>
        <time>2021-08-21T15:36:51Z</time>
      </trkpt>
      <trkpt lat="2.769893" lon="-75.07486">
        <ele>1934.9</ele>
        <time>2021-08-21T15:36:52Z</time>
      </trkpt>
      <trkpt lat="2.769903" lon="-75.07486">
        <ele>1934.7</ele>
        <time>2021-08-21T15:36:52Z</time>
      </trkpt>
      <trkpt lat="2.769883" lon="-75.07486">
        <ele>1935.0</ele>
        <time>2021-08-21T15:36:53Z</time>
      </trkpt>
      <trkpt lat="2.769875" lon="-75.07487">
        <ele>1935.1</ele>
        <time>2021-08-21T15:36:54Z</time>
      </trkpt>
      <trkpt lat="2.769866" lon="-75.07487">
        <ele>1935.2</ele>
        <time>2021-08-21T15:36:55Z</time>
      </trkpt>
      <trkpt lat="2.769857" lon="-75.074875">
        <ele>1935.3</ele>
        <time>2021-08-21T15:36:56Z</time>
      </trkpt>
      <trkpt lat="2.769847" lon="-75.074875">
        <ele>1935.5</ele>
        <time>2021-08-21T15:36:57Z</time>
      </trkpt>
      <trkpt lat="2.769839" lon="-75.07488">
        <ele>1935.6</ele>
        <time>2021-08-21T15:36:58Z</time>
      </trkpt>
      <trkpt lat="2.769832" lon="-75.07488">
        <ele>1935.7</ele>
        <time>2021-08-21T15:36:59Z</time>
      </trkpt>
      <trkpt lat="2.769824" lon="-75.07489">
        <ele>1935.8</ele>
        <time>2021-08-21T15:37:00Z</time>
      </trkpt>
      <trkpt lat="2.769817" lon="-75.07489">
        <ele>1935.9</ele>
        <time>2021-08-21T15:37:01Z</time>
      </trkpt>
      <trkpt lat="2.769811" lon="-75.0749">
        <ele>1936.0</ele>
        <time>2021-08-21T15:37:02Z</time>
      </trkpt>
      <trkpt lat="2.769804" lon="-75.0749">
        <ele>1936.1</ele>
        <time>2021-08-21T15:37:03Z</time>
      </trkpt>
      <trkpt lat="2.769798" lon="-75.074905">
        <ele>1936.2</ele>
        <time>2021-08-21T15:37:04Z</time>
      </trkpt>
      <trkpt lat="2.769792" lon="-75.074905">
        <ele>1936.3</ele>
        <time>2021-08-21T15:37:05Z</time>
      </trkpt>
      <trkpt lat="2.769784" lon="-75.07491">
        <ele>1936.4</ele>
        <time>2021-08-21T15:37:06Z</time>
      </trkpt>
      <trkpt lat="2.769776" lon="-75.07491">
        <ele>1936.5</ele>
        <time>2021-08-21T15:37:07Z</time>
      </trkpt>
      <trkpt lat="2.769767" lon="-75.07492">
        <ele>1936.6</ele>
        <time>2021-08-21T15:37:08Z</time>
      </trkpt>
      <trkpt lat="2.769756" lon="-75.07492">
        <ele>1936.8</ele>
        <time>2021-08-21T15:37:09Z</time>
      </trkpt>
      <trkpt lat="2.769745" lon="-75.07492">
        <ele>1936.9</ele>
        <time>2021-08-21T15:37:10Z</time>
      </trkpt>
      <trkpt lat="2.769733" lon="-75.07492">
        <ele>1937.0</ele>
        <time>2021-08-21T15:37:11Z</time>
      </trkpt>
      <trkpt lat="2.769719" lon="-75.07492">
        <ele>1937.2</ele>
        <time>2021-08-21T15:37:12Z</time>
      </trkpt>
      <trkpt lat="2.769705" lon="-75.07492">
        <ele>1937.4</ele>
        <time>2021-08-21T15:37:13Z</time>
      </trkpt>
      <trkpt lat="2.769692" lon="-75.07493">
        <ele>1937.6</ele>
        <time>2021-08-21T15:37:14Z</time>
      </trkpt>
      <trkpt lat="2.769679" lon="-75.07493">
        <ele>1937.7</ele>
        <time>2021-08-21T15:37:15Z</time>
      </trkpt>
      <trkpt lat="2.769671" lon="-75.074936">
        <ele>1937.9</ele>
        <time>2021-08-21T15:37:16Z</time>
      </trkpt>
      <trkpt lat="2.769664" lon="-75.07495">
        <ele>1938.0</ele>
        <time>2021-08-21T15:37:17Z</time>
      </trkpt>
      <trkpt lat="2.769659" lon="-75.07496">
        <ele>1938.2</ele>
        <time>2021-08-21T15:37:18Z</time>
      </trkpt>
      <trkpt lat="2.769654" lon="-75.07497">
        <ele>1938.3</ele>
        <time>2021-08-21T15:37:19Z</time>
      </trkpt>
      <trkpt lat="2.769649" lon="-75.07498">
        <ele>1938.5</ele>
        <time>2021-08-21T15:37:20Z</time>
      </trkpt>
      <trkpt lat="2.769642" lon="-75.075">
        <ele>1938.7</ele>
        <time>2021-08-21T15:37:21Z</time>
      </trkpt>
      <trkpt lat="2.769633" lon="-75.075005">
        <ele>1938.9</ele>
        <time>2021-08-21T15:37:22Z</time>
      </trkpt>
      <trkpt lat="2.769623" lon="-75.07502">
        <ele>1939.0</ele>
        <time>2021-08-21T15:37:23Z</time>
      </trkpt>
      <trkpt lat="2.769613" lon="-75.07503">
        <ele>1939.2</ele>
        <time>2021-08-21T15:37:24Z</time>
      </trkpt>
      <trkpt lat="2.769603" lon="-75.075035">
        <ele>1939.4</ele>
        <time>2021-08-21T15:37:25Z</time>
      </trkpt>
      <trkpt lat="2.769594" lon="-75.07505">
        <ele>1939.6</ele>
        <time>2021-08-21T15:37:26Z</time>
      </trkpt>
      <trkpt lat="2.769585" lon="-75.07506">
        <ele>1939.7</ele>
        <time>2021-08-21T15:37:27Z</time>
      </trkpt>
      <trkpt lat="2.769577" lon="-75.075066">
        <ele>1939.9</ele>
        <time>2021-08-21T15:37:28Z</time>
      </trkpt>
      <trkpt lat="2.769572" lon="-75.07507">
        <ele>1940.0</ele>
        <time>2021-08-21T15:37:29Z</time>
      </trkpt>
      <trkpt lat="2.769565" lon="-75.07508">
        <ele>1940.1</ele>
        <time>2021-08-21T15:37:30Z</time>
      </trkpt>
      <trkpt lat="2.769553" lon="-75.07509">
        <ele>1940.3</ele>
        <time>2021-08-21T15:37:31Z</time>
      </trkpt>
      <trkpt lat="2.769541" lon="-75.075096">
        <ele>1940.5</ele>
        <time>2021-08-21T15:37:32Z</time>
      </trkpt>
      <trkpt lat="2.769532" lon="-75.0751">
        <ele>1940.6</ele>
        <time>2021-08-21T15:37:33Z</time>
      </trkpt>
      <trkpt lat="2.769521" lon="-75.07511">
        <ele>1940.8</ele>
        <time>2021-08-21T15:37:34Z</time>
      </trkpt>
      <trkpt lat="2.769505" lon="-75.07511">
        <ele>1941.0</ele>
        <time>2021-08-21T15:37:35Z</time>
      </trkpt>
      <trkpt lat="2.769488" lon="-75.07512">
        <ele>1941.2</ele>
        <time>2021-08-21T15:37:36Z</time>
      </trkpt>
      <trkpt lat="2.769471" lon="-75.07512">
        <ele>1941.4</ele>
        <time>2021-08-21T15:37:37Z</time>
      </trkpt>
      <trkpt lat="2.769456" lon="-75.07512">
        <ele>1941.6</ele>
        <time>2021-08-21T15:37:38Z</time>
      </trkpt>
      <trkpt lat="2.769444" lon="-75.07513">
        <ele>1941.8</ele>
        <time>2021-08-21T15:37:39Z</time>
      </trkpt>
      <trkpt lat="2.769432" lon="-75.07513">
        <ele>1941.9</ele>
        <time>2021-08-21T15:37:40Z</time>
      </trkpt>
      <trkpt lat="2.769422" lon="-75.075134">
        <ele>1942.1</ele>
        <time>2021-08-21T15:37:41Z</time>
      </trkpt>
      <trkpt lat="2.769411" lon="-75.075134">
        <ele>1942.2</ele>
        <time>2021-08-21T15:37:42Z</time>
      </trkpt>
      <trkpt lat="2.769399" lon="-75.075134">
        <ele>1942.4</ele>
        <time>2021-08-21T15:37:43Z</time>
      </trkpt>
      <trkpt lat="2.769388" lon="-75.07514">
        <ele>1942.5</ele>
        <time>2021-08-21T15:37:44Z</time>
      </trkpt>
      <trkpt lat="2.769378" lon="-75.07514">
        <ele>1942.6</ele>
        <time>2021-08-21T15:37:45Z</time>
      </trkpt>
      <trkpt lat="2.769368" lon="-75.07515">
        <ele>1942.8</ele>
        <time>2021-08-21T15:37:46Z</time>
      </trkpt>
      <trkpt lat="2.76936" lon="-75.07515">
        <ele>1942.9</ele>
        <time>2021-08-21T15:37:47Z</time>
      </trkpt>
      <trkpt lat="2.769351" lon="-75.07516">
        <ele>1943.0</ele>
        <time>2021-08-21T15:37:48Z</time>
      </trkpt>
      <trkpt lat="2.769344" lon="-75.07516">
        <ele>1943.1</ele>
        <time>2021-08-21T15:37:49Z</time>
      </trkpt>
      <trkpt lat="2.769338" lon="-75.075165">
        <ele>1943.2</ele>
        <time>2021-08-21T15:37:50Z</time>
      </trkpt>
      <trkpt lat="2.769329" lon="-75.075165">
        <ele>1943.3</ele>
        <time>2021-08-21T15:37:52Z</time>
      </trkpt>
      <trkpt lat="2.769209" lon="-75.07522">
        <ele>1945.0</ele>
        <time>2021-08-21T15:41:41Z</time>
      </trkpt>
      <trkpt lat="2.769204" lon="-75.07522">
        <ele>1945.0</ele>
        <time>2021-08-21T15:41:42Z</time>
      </trkpt>
      <trkpt lat="2.769195" lon="-75.075226">
        <ele>1945.2</ele>
        <time>2021-08-21T15:41:43Z</time>
      </trkpt>
      <trkpt lat="2.769182" lon="-75.075226">
        <ele>1945.3</ele>
        <time>2021-08-21T15:41:44Z</time>
      </trkpt>
      <trkpt lat="2.769168" lon="-75.07523">
        <ele>1945.5</ele>
        <time>2021-08-21T15:41:45Z</time>
      </trkpt>
      <trkpt lat="2.769151" lon="-75.07524">
        <ele>1945.7</ele>
        <time>2021-08-21T15:41:46Z</time>
      </trkpt>
      <trkpt lat="2.769135" lon="-75.07525">
        <ele>1946.0</ele>
        <time>2021-08-21T15:41:47Z</time>
      </trkpt>
      <trkpt lat="2.769119" lon="-75.07525">
        <ele>1946.2</ele>
        <time>2021-08-21T15:41:48Z</time>
      </trkpt>
      <trkpt lat="2.769104" lon="-75.07526">
        <ele>1946.4</ele>
        <time>2021-08-21T15:41:49Z</time>
      </trkpt>
      <trkpt lat="2.769088" lon="-75.07526">
        <ele>1946.6</ele>
        <time>2021-08-21T15:41:50Z</time>
      </trkpt>
      <trkpt lat="2.769074" lon="-75.07526">
        <ele>1946.7</ele>
        <time>2021-08-21T15:41:51Z</time>
      </trkpt>
      <trkpt lat="2.769058" lon="-75.075264">
        <ele>1946.9</ele>
        <time>2021-08-21T15:41:52Z</time>
      </trkpt>
      <trkpt lat="2.769044" lon="-75.075264">
        <ele>1947.1</ele>
        <time>2021-08-21T15:41:53Z</time>
      </trkpt>
      <trkpt lat="2.769029" lon="-75.075264">
        <ele>1947.3</ele>
        <time>2021-08-21T15:41:54Z</time>
      </trkpt>
      <trkpt lat="2.769014" lon="-75.075264">
        <ele>1947.5</ele>
        <time>2021-08-21T15:41:55Z</time>
      </trkpt>
      <trkpt lat="2.769" lon="-75.075264">
        <ele>1947.7</ele>
        <time>2021-08-21T15:41:56Z</time>
      </trkpt>
      <trkpt lat="2.768986" lon="-75.075264">
        <ele>1947.8</ele>
        <time>2021-08-21T15:41:57Z</time>
      </trkpt>
      <trkpt lat="2.768975" lon="-75.075264">
        <ele>1948.0</ele>
        <time>2021-08-21T15:41:58Z</time>
      </trkpt>
      <trkpt lat="2.768963" lon="-75.075264">
        <ele>1948.1</ele>
        <time>2021-08-21T15:41:59Z</time>
      </trkpt>
      <trkpt lat="2.768951" lon="-75.075264">
        <ele>1948.3</ele>
        <time>2021-08-21T15:42:00Z</time>
      </trkpt>
      <trkpt lat="2.768939" lon="-75.075264">
        <ele>1948.4</ele>
        <time>2021-08-21T15:42:01Z</time>
      </trkpt>
      <trkpt lat="2.768927" lon="-75.075264">
        <ele>1948.6</ele>
        <time>2021-08-21T15:42:02Z</time>
      </trkpt>
      <trkpt lat="2.768916" lon="-75.07526">
        <ele>1948.7</ele>
        <time>2021-08-21T15:42:03Z</time>
      </trkpt>
      <trkpt lat="2.768905" lon="-75.07526">
        <ele>1948.9</ele>
        <time>2021-08-21T15:42:04Z</time>
      </trkpt>
      <trkpt lat="2.768893" lon="-75.07526">
        <ele>1949.0</ele>
        <time>2021-08-21T15:42:05Z</time>
      </trkpt>
      <trkpt lat="2.768882" lon="-75.07526">
        <ele>1949.2</ele>
        <time>2021-08-21T15:42:06Z</time>
      </trkpt>
      <trkpt lat="2.768871" lon="-75.07525">
        <ele>1949.3</ele>
        <time>2021-08-21T15:42:07Z</time>
      </trkpt>
      <trkpt lat="2.76886" lon="-75.07525">
        <ele>1949.5</ele>
        <time>2021-08-21T15:42:08Z</time>
      </trkpt>
      <trkpt lat="2.76885" lon="-75.07525">
        <ele>1949.6</ele>
        <time>2021-08-21T15:42:09Z</time>
      </trkpt>
      <trkpt lat="2.768839" lon="-75.07524">
        <ele>1949.7</ele>
        <time>2021-08-21T15:42:10Z</time>
      </trkpt>
      <trkpt lat="2.768829" lon="-75.07524">
        <ele>1949.9</ele>
        <time>2021-08-21T15:42:11Z</time>
      </trkpt>
      <trkpt lat="2.768818" lon="-75.07523">
        <ele>1950.0</ele>
        <time>2021-08-21T15:42:12Z</time>
      </trkpt>
      <trkpt lat="2.768807" lon="-75.07523">
        <ele>1950.1</ele>
        <time>2021-08-21T15:42:13Z</time>
      </trkpt>
      <trkpt lat="2.768796" lon="-75.07523">
        <ele>1950.3</ele>
        <time>2021-08-21T15:42:14Z</time>
      </trkpt>
      <trkpt lat="2.768784" lon="-75.07523">
        <ele>1950.4</ele>
        <time>2021-08-21T15:42:15Z</time>
      </trkpt>
      <trkpt lat="2.768772" lon="-75.075226">
        <ele>1950.6</ele>
        <time>2021-08-21T15:42:16Z</time>
      </trkpt>
      <trkpt lat="2.768761" lon="-75.075226">
        <ele>1950.7</ele>
        <time>2021-08-21T15:42:17Z</time>
      </trkpt>
      <trkpt lat="2.76875" lon="-75.07522">
        <ele>1950.9</ele>
        <time>2021-08-21T15:42:18Z</time>
      </trkpt>
      <trkpt lat="2.768738" lon="-75.07522">
        <ele>1951.0</ele>
        <time>2021-08-21T15:42:19Z</time>
      </trkpt>
      <trkpt lat="2.768725" lon="-75.07522">
        <ele>1951.2</ele>
        <time>2021-08-21T15:42:20Z</time>
      </trkpt>
      <trkpt lat="2.768713" lon="-75.07522">
        <ele>1951.3</ele>
        <time>2021-08-21T15:42:21Z</time>
      </trkpt>
      <trkpt lat="2.768701" lon="-75.07521">
        <ele>1951.5</ele>
        <time>2021-08-21T15:42:22Z</time>
      </trkpt>
      <trkpt lat="2.768689" lon="-75.07521">
        <ele>1951.6</ele>
        <time>2021-08-21T15:42:23Z</time>
      </trkpt>
      <trkpt lat="2.768676" lon="-75.07521">
        <ele>1951.8</ele>
        <time>2021-08-21T15:42:24Z</time>
      </trkpt>
      <trkpt lat="2.768662" lon="-75.07521">
        <ele>1952.0</ele>
        <time>2021-08-21T15:42:25Z</time>
      </trkpt>
      <trkpt lat="2.768648" lon="-75.07521">
        <ele>1952.2</ele>
        <time>2021-08-21T15:42:26Z</time>
      </trkpt>
      <trkpt lat="2.768634" lon="-75.07521">
        <ele>1952.3</ele>
        <time>2021-08-21T15:42:27Z</time>
      </trkpt>
      <trkpt lat="2.76862" lon="-75.07521">
        <ele>1952.5</ele>
        <time>2021-08-21T15:42:28Z</time>
      </trkpt>
      <trkpt lat="2.768605" lon="-75.07521">
        <ele>1952.7</ele>
        <time>2021-08-21T15:42:29Z</time>
      </trkpt>
      <trkpt lat="2.768589" lon="-75.07521">
        <ele>1952.9</ele>
        <time>2021-08-21T15:42:30Z</time>
      </trkpt>
      <trkpt lat="2.768572" lon="-75.07521">
        <ele>1953.1</ele>
        <time>2021-08-21T15:42:31Z</time>
      </trkpt>
      <trkpt lat="2.768557" lon="-75.07521">
        <ele>1953.3</ele>
        <time>2021-08-21T15:42:32Z</time>
      </trkpt>
      <trkpt lat="2.768542" lon="-75.07522">
        <ele>1953.5</ele>
        <time>2021-08-21T15:42:33Z</time>
      </trkpt>
      <trkpt lat="2.768526" lon="-75.07522">
        <ele>1953.7</ele>
        <time>2021-08-21T15:42:34Z</time>
      </trkpt>
      <trkpt lat="2.76851" lon="-75.07522">
        <ele>1953.9</ele>
        <time>2021-08-21T15:42:35Z</time>
      </trkpt>
      <trkpt lat="2.768494" lon="-75.075226">
        <ele>1954.1</ele>
        <time>2021-08-21T15:42:36Z</time>
      </trkpt>
      <trkpt lat="2.768478" lon="-75.07523">
        <ele>1954.3</ele>
        <time>2021-08-21T15:42:37Z</time>
      </trkpt>
      <trkpt lat="2.768464" lon="-75.07523">
        <ele>1954.5</ele>
        <time>2021-08-21T15:42:38Z</time>
      </trkpt>
      <trkpt lat="2.768451" lon="-75.07523">
        <ele>1954.7</ele>
        <time>2021-08-21T15:42:39Z</time>
      </trkpt>
      <trkpt lat="2.768438" lon="-75.07524">
        <ele>1954.8</ele>
        <time>2021-08-21T15:42:40Z</time>
      </trkpt>
      <trkpt lat="2.768423" lon="-75.07525">
        <ele>1955.0</ele>
        <time>2021-08-21T15:42:41Z</time>
      </trkpt>
      <trkpt lat="2.768409" lon="-75.07525">
        <ele>1955.2</ele>
        <time>2021-08-21T15:42:42Z</time>
      </trkpt>
      <trkpt lat="2.768396" lon="-75.07525">
        <ele>1955.4</ele>
        <time>2021-08-21T15:42:43Z</time>
      </trkpt>
      <trkpt lat="2.768384" lon="-75.07525">
        <ele>1955.5</ele>
        <time>2021-08-21T15:42:44Z</time>
      </trkpt>
      <trkpt lat="2.768371" lon="-75.07526">
        <ele>1955.7</ele>
        <time>2021-08-21T15:42:45Z</time>
      </trkpt>
      <trkpt lat="2.768356" lon="-75.07526">
        <ele>1955.9</ele>
        <time>2021-08-21T15:42:46Z</time>
      </trkpt>
      <trkpt lat="2.768342" lon="-75.07526">
        <ele>1956.1</ele>
        <time>2021-08-21T15:42:47Z</time>
      </trkpt>
      <trkpt lat="2.768327" lon="-75.075264">
        <ele>1956.3</ele>
        <time>2021-08-21T15:42:48Z</time>
      </trkpt>
      <trkpt lat="2.768312" lon="-75.07527">
        <ele>1956.5</ele>
        <time>2021-08-21T15:42:49Z</time>
      </trkpt>
      <trkpt lat="2.768298" lon="-75.07527">
        <ele>1956.6</ele>
        <time>2021-08-21T15:42:50Z</time>
      </trkpt>
      <trkpt lat="2.768284" lon="-75.07528">
        <ele>1956.8</ele>
        <time>2021-08-21T15:42:51Z</time>
      </trkpt>
      <trkpt lat="2.76827" lon="-75.07528">
        <ele>1957.0</ele>
        <time>2021-08-21T15:42:52Z</time>
      </trkpt>
      <trkpt lat="2.768258" lon="-75.07528">
        <ele>1957.2</ele>
        <time>2021-08-21T15:42:53Z</time>
      </trkpt>
      <trkpt lat="2.768244" lon="-75.07529">
        <ele>1957.3</ele>
        <time>2021-08-21T15:42:54Z</time>
      </trkpt>
      <trkpt lat="2.76823" lon="-75.07529">
        <ele>1957.5</ele>
        <time>2021-08-21T15:42:55Z</time>
      </trkpt>
      <trkpt lat="2.768216" lon="-75.07529">
        <ele>1957.7</ele>
        <time>2021-08-21T15:42:56Z</time>
      </trkpt>
      <trkpt lat="2.768202" lon="-75.07529">
        <ele>1957.9</ele>
        <time>2021-08-21T15:42:57Z</time>
      </trkpt>
      <trkpt lat="2.768189" lon="-75.075294">
        <ele>1958.0</ele>
        <time>2021-08-21T15:42:58Z</time>
      </trkpt>
      <trkpt lat="2.768175" lon="-75.075294">
        <ele>1958.2</ele>
        <time>2021-08-21T15:42:59Z</time>
      </trkpt>
      <trkpt lat="2.768161" lon="-75.075294">
        <ele>1958.4</ele>
        <time>2021-08-21T15:43:00Z</time>
      </trkpt>
      <trkpt lat="2.768147" lon="-75.075294">
        <ele>1958.6</ele>
        <time>2021-08-21T15:43:01Z</time>
      </trkpt>
      <trkpt lat="2.768135" lon="-75.075294">
        <ele>1958.7</ele>
        <time>2021-08-21T15:43:02Z</time>
      </trkpt>
      <trkpt lat="2.768121" lon="-75.075294">
        <ele>1958.9</ele>
        <time>2021-08-21T15:43:03Z</time>
      </trkpt>
      <trkpt lat="2.768106" lon="-75.0753">
        <ele>1959.1</ele>
        <time>2021-08-21T15:43:04Z</time>
      </trkpt>
      <trkpt lat="2.768092" lon="-75.0753">
        <ele>1959.3</ele>
        <time>2021-08-21T15:43:05Z</time>
      </trkpt>
      <trkpt lat="2.768079" lon="-75.0753">
        <ele>1959.4</ele>
        <time>2021-08-21T15:43:06Z</time>
      </trkpt>
      <trkpt lat="2.768068" lon="-75.0753">
        <ele>1959.6</ele>
        <time>2021-08-21T15:43:07Z</time>
      </trkpt>
      <trkpt lat="2.768056" lon="-75.0753">
        <ele>1959.7</ele>
        <time>2021-08-21T15:43:08Z</time>
      </trkpt>
      <trkpt lat="2.768043" lon="-75.0753">
        <ele>1959.9</ele>
        <time>2021-08-21T15:43:09Z</time>
      </trkpt>
      <trkpt lat="2.768031" lon="-75.0753">
        <ele>1960.0</ele>
        <time>2021-08-21T15:43:10Z</time>
      </trkpt>
      <trkpt lat="2.768018" lon="-75.0753">
        <ele>1960.2</ele>
        <time>2021-08-21T15:43:11Z</time>
      </trkpt>
      <trkpt lat="2.768008" lon="-75.0753">
        <ele>1960.3</ele>
        <time>2021-08-21T15:43:12Z</time>
      </trkpt>
      <trkpt lat="2.767997" lon="-75.0753">
        <ele>1960.4</ele>
        <time>2021-08-21T15:43:13Z</time>
      </trkpt>
      <trkpt lat="2.767986" lon="-75.07531">
        <ele>1960.6</ele>
        <time>2021-08-21T15:43:14Z</time>
      </trkpt>
      <trkpt lat="2.767975" lon="-75.0753">
        <ele>1960.7</ele>
        <time>2021-08-21T15:43:15Z</time>
      </trkpt>
      <trkpt lat="2.767963" lon="-75.0753">
        <ele>1960.9</ele>
        <time>2021-08-21T15:43:16Z</time>
      </trkpt>
      <trkpt lat="2.767952" lon="-75.0753">
        <ele>1961.0</ele>
        <time>2021-08-21T15:43:17Z</time>
      </trkpt>
      <trkpt lat="2.767942" lon="-75.0753">
        <ele>1961.1</ele>
        <time>2021-08-21T15:43:18Z</time>
      </trkpt>
      <trkpt lat="2.767929" lon="-75.0753">
        <ele>1961.3</ele>
        <time>2021-08-21T15:43:19Z</time>
      </trkpt>
      <trkpt lat="2.767918" lon="-75.0753">
        <ele>1961.4</ele>
        <time>2021-08-21T15:43:20Z</time>
      </trkpt>
      <trkpt lat="2.767906" lon="-75.0753">
        <ele>1961.6</ele>
        <time>2021-08-21T15:43:21Z</time>
      </trkpt>
      <trkpt lat="2.767896" lon="-75.075294">
        <ele>1961.7</ele>
        <time>2021-08-21T15:43:22Z</time>
      </trkpt>
      <trkpt lat="2.767885" lon="-75.075294">
        <ele>1961.9</ele>
        <time>2021-08-21T15:43:23Z</time>
      </trkpt>
      <trkpt lat="2.767873" lon="-75.075294">
        <ele>1962.0</ele>
        <time>2021-08-21T15:43:24Z</time>
      </trkpt>
      <trkpt lat="2.767862" lon="-75.07529">
        <ele>1962.2</ele>
        <time>2021-08-21T15:43:25Z</time>
      </trkpt>
      <trkpt lat="2.767851" lon="-75.07529">
        <ele>1962.3</ele>
        <time>2021-08-21T15:43:26Z</time>
      </trkpt>
      <trkpt lat="2.76784" lon="-75.07528">
        <ele>1962.4</ele>
        <time>2021-08-21T15:43:27Z</time>
      </trkpt>
      <trkpt lat="2.76783" lon="-75.07528">
        <ele>1962.6</ele>
        <time>2021-08-21T15:43:28Z</time>
      </trkpt>
      <trkpt lat="2.767819" lon="-75.07528">
        <ele>1962.7</ele>
        <time>2021-08-21T15:43:29Z</time>
      </trkpt>
      <trkpt lat="2.767807" lon="-75.07527">
        <ele>1962.9</ele>
        <time>2021-08-21T15:43:30Z</time>
      </trkpt>
      <trkpt lat="2.767797" lon="-75.07527">
        <ele>1963.0</ele>
        <time>2021-08-21T15:43:31Z</time>
      </trkpt>
      <trkpt lat="2.767786" lon="-75.07527">
        <ele>1963.1</ele>
        <time>2021-08-21T15:43:32Z</time>
      </trkpt>
      <trkpt lat="2.767776" lon="-75.07527">
        <ele>1963.3</ele>
        <time>2021-08-21T15:43:33Z</time>
      </trkpt>
      <trkpt lat="2.767766" lon="-75.075264">
        <ele>1963.4</ele>
        <time>2021-08-21T15:43:34Z</time>
      </trkpt>
      <trkpt lat="2.767754" lon="-75.075264">
        <ele>1963.6</ele>
        <time>2021-08-21T15:43:35Z</time>
      </trkpt>
      <trkpt lat="2.767742" lon="-75.075264">
        <ele>1963.7</ele>
        <time>2021-08-21T15:43:36Z</time>
      </trkpt>
      <trkpt lat="2.76773" lon="-75.075264">
        <ele>1963.9</ele>
        <time>2021-08-21T15:43:37Z</time>
      </trkpt>
      <trkpt lat="2.767718" lon="-75.075264">
        <ele>1964.0</ele>
        <time>2021-08-21T15:43:38Z</time>
      </trkpt>
      <trkpt lat="2.767706" lon="-75.07526">
        <ele>1964.2</ele>
        <time>2021-08-21T15:43:39Z</time>
      </trkpt>
      <trkpt lat="2.767694" lon="-75.07526">
        <ele>1964.3</ele>
        <time>2021-08-21T15:43:40Z</time>
      </trkpt>
      <trkpt lat="2.767683" lon="-75.07525">
        <ele>1964.5</ele>
        <time>2021-08-21T15:43:41Z</time>
      </trkpt>
      <trkpt lat="2.767673" lon="-75.07525">
        <ele>1964.6</ele>
        <time>2021-08-21T15:43:42Z</time>
      </trkpt>
      <trkpt lat="2.767662" lon="-75.07525">
        <ele>1964.7</ele>
        <time>2021-08-21T15:43:43Z</time>
      </trkpt>
      <trkpt lat="2.767651" lon="-75.07524">
        <ele>1964.9</ele>
        <time>2021-08-21T15:43:44Z</time>
      </trkpt>
      <trkpt lat="2.76764" lon="-75.07524">
        <ele>1965.0</ele>
        <time>2021-08-21T15:43:45Z</time>
      </trkpt>
      <trkpt lat="2.767629" lon="-75.07523">
        <ele>1965.2</ele>
        <time>2021-08-21T15:43:46Z</time>
      </trkpt>
      <trkpt lat="2.767618" lon="-75.07523">
        <ele>1965.3</ele>
        <time>2021-08-21T15:43:47Z</time>
      </trkpt>
      <trkpt lat="2.767606" lon="-75.07523">
        <ele>1965.5</ele>
        <time>2021-08-21T15:43:48Z</time>
      </trkpt>
      <trkpt lat="2.767595" lon="-75.075226">
        <ele>1965.6</ele>
        <time>2021-08-21T15:43:49Z</time>
      </trkpt>
      <trkpt lat="2.767584" lon="-75.075226">
        <ele>1965.7</ele>
        <time>2021-08-21T15:43:50Z</time>
      </trkpt>
      <trkpt lat="2.767573" lon="-75.075226">
        <ele>1965.9</ele>
        <time>2021-08-21T15:43:51Z</time>
      </trkpt>
      <trkpt lat="2.767563" lon="-75.07522">
        <ele>1966.0</ele>
        <time>2021-08-21T15:43:52Z</time>
      </trkpt>
      <trkpt lat="2.767552" lon="-75.07522">
        <ele>1966.2</ele>
        <time>2021-08-21T15:43:53Z</time>
      </trkpt>
      <trkpt lat="2.767541" lon="-75.07522">
        <ele>1966.3</ele>
        <time>2021-08-21T15:43:54Z</time>
      </trkpt>
      <trkpt lat="2.76753" lon="-75.07521">
        <ele>1966.4</ele>
        <time>2021-08-21T15:43:55Z</time>
      </trkpt>
      <trkpt lat="2.76752" lon="-75.07521">
        <ele>1966.6</ele>
        <time>2021-08-21T15:43:56Z</time>
      </trkpt>
      <trkpt lat="2.767511" lon="-75.07521">
        <ele>1966.7</ele>
        <time>2021-08-21T15:43:57Z</time>
      </trkpt>
      <trkpt lat="2.767502" lon="-75.0752">
        <ele>1966.8</ele>
        <time>2021-08-21T15:43:58Z</time>
      </trkpt>
      <trkpt lat="2.767493" lon="-75.0752">
        <ele>1966.9</ele>
        <time>2021-08-21T15:43:59Z</time>
      </trkpt>
      <trkpt lat="2.767485" lon="-75.0752">
        <ele>1967.0</ele>
        <time>2021-08-21T15:44:00Z</time>
      </trkpt>
      <trkpt lat="2.767475" lon="-75.0752">
        <ele>1967.2</ele>
        <time>2021-08-21T15:44:01Z</time>
      </trkpt>
      <trkpt lat="2.767465" lon="-75.075195">
        <ele>1967.3</ele>
        <time>2021-08-21T15:44:02Z</time>
      </trkpt>
      <trkpt lat="2.767454" lon="-75.075195">
        <ele>1967.4</ele>
        <time>2021-08-21T15:44:03Z</time>
      </trkpt>
      <trkpt lat="2.767444" lon="-75.075195">
        <ele>1967.6</ele>
        <time>2021-08-21T15:44:04Z</time>
      </trkpt>
      <trkpt lat="2.767436" lon="-75.07519">
        <ele>1967.7</ele>
        <time>2021-08-21T15:44:05Z</time>
      </trkpt>
      <trkpt lat="2.767427" lon="-75.075195">
        <ele>1967.8</ele>
        <time>2021-08-21T15:44:06Z</time>
      </trkpt>
      <trkpt lat="2.767417" lon="-75.075195">
        <ele>1967.9</ele>
        <time>2021-08-21T15:44:07Z</time>
      </trkpt>
      <trkpt lat="2.767408" lon="-75.075195">
        <ele>1968.0</ele>
        <time>2021-08-21T15:44:08Z</time>
      </trkpt>
      <trkpt lat="2.767399" lon="-75.07519">
        <ele>1968.1</ele>
        <time>2021-08-21T15:44:09Z</time>
      </trkpt>
      <trkpt lat="2.767389" lon="-75.07519">
        <ele>1968.3</ele>
        <time>2021-08-21T15:44:10Z</time>
      </trkpt>
      <trkpt lat="2.767378" lon="-75.07518">
        <ele>1968.4</ele>
        <time>2021-08-21T15:44:11Z</time>
      </trkpt>
      <trkpt lat="2.767367" lon="-75.07518">
        <ele>1968.5</ele>
        <time>2021-08-21T15:44:12Z</time>
      </trkpt>
      <trkpt lat="2.767356" lon="-75.07518">
        <ele>1968.7</ele>
        <time>2021-08-21T15:44:13Z</time>
      </trkpt>
      <trkpt lat="2.767345" lon="-75.07518">
        <ele>1968.8</ele>
        <time>2021-08-21T15:44:14Z</time>
      </trkpt>
      <trkpt lat="2.767334" lon="-75.07517">
        <ele>1969.0</ele>
        <time>2021-08-21T15:44:15Z</time>
      </trkpt>
      <trkpt lat="2.767323" lon="-75.07517">
        <ele>1969.1</ele>
        <time>2021-08-21T15:44:16Z</time>
      </trkpt>
      <trkpt lat="2.767314" lon="-75.07517">
        <ele>1969.2</ele>
        <time>2021-08-21T15:44:17Z</time>
      </trkpt>
      <trkpt lat="2.767307" lon="-75.075165">
        <ele>1969.3</ele>
        <time>2021-08-21T15:44:18Z</time>
      </trkpt>
      <trkpt lat="2.767298" lon="-75.07516">
        <ele>1969.5</ele>
        <time>2021-08-21T15:44:19Z</time>
      </trkpt>
      <trkpt lat="2.767287" lon="-75.07516">
        <ele>1969.6</ele>
        <time>2021-08-21T15:44:20Z</time>
      </trkpt>
      <trkpt lat="2.767275" lon="-75.07515">
        <ele>1969.8</ele>
        <time>2021-08-21T15:44:21Z</time>
      </trkpt>
      <trkpt lat="2.767263" lon="-75.07515">
        <ele>1969.9</ele>
        <time>2021-08-21T15:44:22Z</time>
      </trkpt>
      <trkpt lat="2.767252" lon="-75.07515">
        <ele>1970.1</ele>
        <time>2021-08-21T15:44:23Z</time>
      </trkpt>
      <trkpt lat="2.767239" lon="-75.07514">
        <ele>1970.2</ele>
        <time>2021-08-21T15:44:24Z</time>
      </trkpt>
      <trkpt lat="2.767228" lon="-75.07514">
        <ele>1970.4</ele>
        <time>2021-08-21T15:44:25Z</time>
      </trkpt>
      <trkpt lat="2.767216" lon="-75.075134">
        <ele>1970.5</ele>
        <time>2021-08-21T15:44:26Z</time>
      </trkpt>
      <trkpt lat="2.767205" lon="-75.075134">
        <ele>1970.7</ele>
        <time>2021-08-21T15:44:27Z</time>
      </trkpt>
      <trkpt lat="2.767192" lon="-75.07513">
        <ele>1970.8</ele>
        <time>2021-08-21T15:44:28Z</time>
      </trkpt>
      <trkpt lat="2.767181" lon="-75.07513">
        <ele>1971.0</ele>
        <time>2021-08-21T15:44:29Z</time>
      </trkpt>
      <trkpt lat="2.767169" lon="-75.07513">
        <ele>1971.1</ele>
        <time>2021-08-21T15:44:30Z</time>
      </trkpt>
      <trkpt lat="2.767158" lon="-75.07513">
        <ele>1971.3</ele>
        <time>2021-08-21T15:44:31Z</time>
      </trkpt>
      <trkpt lat="2.767148" lon="-75.07513">
        <ele>1971.4</ele>
        <time>2021-08-21T15:44:32Z</time>
      </trkpt>
      <trkpt lat="2.767139" lon="-75.07513">
        <ele>1971.5</ele>
        <time>2021-08-21T15:44:33Z</time>
      </trkpt>
      <trkpt lat="2.767128" lon="-75.07513">
        <ele>1971.7</ele>
        <time>2021-08-21T15:44:34Z</time>
      </trkpt>
      <trkpt lat="2.767117" lon="-75.07513">
        <ele>1971.8</ele>
        <time>2021-08-21T15:44:35Z</time>
      </trkpt>
      <trkpt lat="2.767107" lon="-75.07512">
        <ele>1971.9</ele>
        <time>2021-08-21T15:44:36Z</time>
      </trkpt>
      <trkpt lat="2.767097" lon="-75.07512">
        <ele>1972.1</ele>
        <time>2021-08-21T15:44:37Z</time>
      </trkpt>
      <trkpt lat="2.767088" lon="-75.07511">
        <ele>1972.2</ele>
        <time>2021-08-21T15:44:38Z</time>
      </trkpt>
      <trkpt lat="2.76708" lon="-75.07511">
        <ele>1972.3</ele>
        <time>2021-08-21T15:44:39Z</time>
      </trkpt>
      <trkpt lat="2.767072" lon="-75.0751">
        <ele>1972.4</ele>
        <time>2021-08-21T15:44:40Z</time>
      </trkpt>
      <trkpt lat="2.767063" lon="-75.075096">
        <ele>1972.6</ele>
        <time>2021-08-21T15:44:41Z</time>
      </trkpt>
      <trkpt lat="2.767055" lon="-75.07509">
        <ele>1972.7</ele>
        <time>2021-08-21T15:44:42Z</time>
      </trkpt>
      <trkpt lat="2.767047" lon="-75.07509">
        <ele>1972.8</ele>
        <time>2021-08-21T15:44:43Z</time>
      </trkpt>
      <trkpt lat="2.767039" lon="-75.07508">
        <ele>1973.0</ele>
        <time>2021-08-21T15:44:44Z</time>
      </trkpt>
      <trkpt lat="2.767031" lon="-75.07507">
        <ele>1973.2</ele>
        <time>2021-08-21T15:44:45Z</time>
      </trkpt>
      <trkpt lat="2.767024" lon="-75.075066">
        <ele>1973.3</ele>
        <time>2021-08-21T15:44:46Z</time>
      </trkpt>
      <trkpt lat="2.767016" lon="-75.07506">
        <ele>1973.4</ele>
        <time>2021-08-21T15:44:47Z</time>
      </trkpt>
      <trkpt lat="2.767009" lon="-75.07505">
        <ele>1973.6</ele>
        <time>2021-08-21T15:44:48Z</time>
      </trkpt>
      <trkpt lat="2.767002" lon="-75.075035">
        <ele>1973.7</ele>
        <time>2021-08-21T15:44:49Z</time>
      </trkpt>
      <trkpt lat="2.766998" lon="-75.07503">
        <ele>1973.9</ele>
        <time>2021-08-21T15:44:50Z</time>
      </trkpt>
      <trkpt lat="2.766995" lon="-75.07501">
        <ele>1974.0</ele>
        <time>2021-08-21T15:44:51Z</time>
      </trkpt>
      <trkpt lat="2.766993" lon="-75.075005">
        <ele>1974.2</ele>
        <time>2021-08-21T15:44:52Z</time>
      </trkpt>
      <trkpt lat="2.766991" lon="-75.07499">
        <ele>1974.3</ele>
        <time>2021-08-21T15:44:53Z</time>
      </trkpt>
      <trkpt lat="2.766988" lon="-75.07498">
        <ele>1974.4</ele>
        <time>2021-08-21T15:44:54Z</time>
      </trkpt>
      <trkpt lat="2.766986" lon="-75.07496">
        <ele>1974.7</ele>
        <time>2021-08-21T15:44:55Z</time>
      </trkpt>
      <trkpt lat="2.766987" lon="-75.07495">
        <ele>1974.8</ele>
        <time>2021-08-21T15:44:56Z</time>
      </trkpt>
      <trkpt lat="2.766987" lon="-75.07494">
        <ele>1974.9</ele>
        <time>2021-08-21T15:44:57Z</time>
      </trkpt>
      <trkpt lat="2.766988" lon="-75.07493">
        <ele>1975.0</ele>
        <time>2021-08-21T15:44:58Z</time>
      </trkpt>
      <trkpt lat="2.766989" lon="-75.07492">
        <ele>1975.1</ele>
        <time>2021-08-21T15:44:59Z</time>
      </trkpt>
      <trkpt lat="2.76699" lon="-75.074905">
        <ele>1975.3</ele>
        <time>2021-08-21T15:45:00Z</time>
      </trkpt>
      <trkpt lat="2.76699" lon="-75.0749">
        <ele>1975.4</ele>
        <time>2021-08-21T15:45:01Z</time>
      </trkpt>
      <trkpt lat="2.766991" lon="-75.07489">
        <ele>1975.5</ele>
        <time>2021-08-21T15:45:02Z</time>
      </trkpt>
      <trkpt lat="2.766992" lon="-75.07488">
        <ele>1975.6</ele>
        <time>2021-08-21T15:45:03Z</time>
      </trkpt>
      <trkpt lat="2.766993" lon="-75.07487">
        <ele>1975.7</ele>
        <time>2021-08-21T15:45:04Z</time>
      </trkpt>
      <trkpt lat="2.766993" lon="-75.07486">
        <ele>1975.8</ele>
        <time>2021-08-21T15:45:05Z</time>
      </trkpt>
      <trkpt lat="2.766994" lon="-75.074844">
        <ele>1975.9</ele>
        <time>2021-08-21T15:45:06Z</time>
      </trkpt>
      <trkpt lat="2.766995" lon="-75.07484">
        <ele>1976.0</ele>
        <time>2021-08-21T15:45:07Z</time>
      </trkpt>
      <trkpt lat="2.766996" lon="-75.07483">
        <ele>1976.1</ele>
        <time>2021-08-21T15:45:08Z</time>
      </trkpt>
      <trkpt lat="2.766996" lon="-75.07482">
        <ele>1976.2</ele>
        <time>2021-08-21T15:45:09Z</time>
      </trkpt>
      <trkpt lat="2.766997" lon="-75.07481">
        <ele>1976.3</ele>
        <time>2021-08-21T15:45:10Z</time>
      </trkpt>
      <trkpt lat="2.766998" lon="-75.0748">
        <ele>1976.4</ele>
        <time>2021-08-21T15:45:11Z</time>
      </trkpt>
      <trkpt lat="2.766999" lon="-75.07479">
        <ele>1976.5</ele>
        <time>2021-08-21T15:45:12Z</time>
      </trkpt>
      <trkpt lat="2.766999" lon="-75.074776">
        <ele>1976.6</ele>
        <time>2021-08-21T15:45:13Z</time>
      </trkpt>
      <trkpt lat="2.767" lon="-75.07477">
        <ele>1976.7</ele>
        <time>2021-08-21T15:45:14Z</time>
      </trkpt>
      <trkpt lat="2.767001" lon="-75.07476">
        <ele>1976.8</ele>
        <time>2021-08-21T15:45:15Z</time>
      </trkpt>
      <trkpt lat="2.767002" lon="-75.074745">
        <ele>1976.9</ele>
        <time>2021-08-21T15:45:16Z</time>
      </trkpt>
      <trkpt lat="2.767002" lon="-75.07474">
        <ele>1977.0</ele>
        <time>2021-08-21T15:45:17Z</time>
      </trkpt>
      <trkpt lat="2.767003" lon="-75.07473">
        <ele>1977.1</ele>
        <time>2021-08-21T15:45:18Z</time>
      </trkpt>
      <trkpt lat="2.767004" lon="-75.074715">
        <ele>1977.2</ele>
        <time>2021-08-21T15:45:19Z</time>
      </trkpt>
      <trkpt lat="2.767005" lon="-75.07471">
        <ele>1977.4</ele>
        <time>2021-08-21T15:45:20Z</time>
      </trkpt>
      <trkpt lat="2.767005" lon="-75.0747">
        <ele>1977.5</ele>
        <time>2021-08-21T15:45:21Z</time>
      </trkpt>
      <trkpt lat="2.767006" lon="-75.074684">
        <ele>1977.6</ele>
        <time>2021-08-21T15:45:22Z</time>
      </trkpt>
      <trkpt lat="2.767007" lon="-75.07468">
        <ele>1977.7</ele>
        <time>2021-08-21T15:45:22Z</time>
      </trkpt>
      <trkpt lat="2.767009" lon="-75.07467">
        <ele>1977.8</ele>
        <time>2021-08-21T15:45:23Z</time>
      </trkpt>
      <trkpt lat="2.767012" lon="-75.07466">
        <ele>1977.9</ele>
        <time>2021-08-21T15:45:24Z</time>
      </trkpt>
      <trkpt lat="2.767014" lon="-75.07465">
        <ele>1978.0</ele>
        <time>2021-08-21T15:45:25Z</time>
      </trkpt>
      <trkpt lat="2.767016" lon="-75.07464">
        <ele>1978.1</ele>
        <time>2021-08-21T15:45:26Z</time>
      </trkpt>
      <trkpt lat="2.767019" lon="-75.07463">
        <ele>1978.2</ele>
        <time>2021-08-21T15:45:27Z</time>
      </trkpt>
      <trkpt lat="2.767022" lon="-75.07462">
        <ele>1978.3</ele>
        <time>2021-08-21T15:45:28Z</time>
      </trkpt>
      <trkpt lat="2.767025" lon="-75.074615">
        <ele>1978.5</ele>
        <time>2021-08-21T15:45:29Z</time>
      </trkpt>
      <trkpt lat="2.767028" lon="-75.07461">
        <ele>1978.6</ele>
        <time>2021-08-21T15:45:30Z</time>
      </trkpt>
      <trkpt lat="2.76703" lon="-75.07459">
        <ele>1978.7</ele>
        <time>2021-08-21T15:45:31Z</time>
      </trkpt>
      <trkpt lat="2.767031" lon="-75.07459">
        <ele>1978.8</ele>
        <time>2021-08-21T15:45:32Z</time>
      </trkpt>
      <trkpt lat="2.76703" lon="-75.07458">
        <ele>1978.8</ele>
        <time>2021-08-21T15:45:33Z</time>
      </trkpt>
      <trkpt lat="2.767029" lon="-75.07457">
        <ele>1978.9</ele>
        <time>2021-08-21T15:45:34Z</time>
      </trkpt>
      <trkpt lat="2.767028" lon="-75.07456">
        <ele>1979.0</ele>
        <time>2021-08-21T15:45:35Z</time>
      </trkpt>
      <trkpt lat="2.767028" lon="-75.074554">
        <ele>1979.1</ele>
        <time>2021-08-21T15:45:36Z</time>
      </trkpt>
      <trkpt lat="2.767027" lon="-75.07455">
        <ele>1979.3</ele>
        <time>2021-08-21T15:45:37Z</time>
      </trkpt>
      <trkpt lat="2.767028" lon="-75.07454">
        <ele>1979.4</ele>
        <time>2021-08-21T15:45:38Z</time>
      </trkpt>
      <trkpt lat="2.767028" lon="-75.07453">
        <ele>1979.5</ele>
        <time>2021-08-21T15:45:39Z</time>
      </trkpt>
      <trkpt lat="2.767029" lon="-75.07452">
        <ele>1979.6</ele>
        <time>2021-08-21T15:45:40Z</time>
      </trkpt>
      <trkpt lat="2.767029" lon="-75.07451">
        <ele>1979.7</ele>
        <time>2021-08-21T15:45:41Z</time>
      </trkpt>
      <trkpt lat="2.76703" lon="-75.0745">
        <ele>1979.8</ele>
        <time>2021-08-21T15:45:42Z</time>
      </trkpt>
      <trkpt lat="2.76703" lon="-75.07449">
        <ele>1979.9</ele>
        <time>2021-08-21T15:45:43Z</time>
      </trkpt>
      <trkpt lat="2.76703" lon="-75.074486">
        <ele>1980.0</ele>
        <time>2021-08-21T15:45:44Z</time>
      </trkpt>
      <trkpt lat="2.76703" lon="-75.07448">
        <ele>1980.1</ele>
        <time>2021-08-21T15:45:45Z</time>
      </trkpt>
      <trkpt lat="2.767029" lon="-75.07447">
        <ele>1980.2</ele>
        <time>2021-08-21T15:45:46Z</time>
      </trkpt>
      <trkpt lat="2.767028" lon="-75.07446">
        <ele>1980.3</ele>
        <time>2021-08-21T15:45:47Z</time>
      </trkpt>
      <trkpt lat="2.767029" lon="-75.074455">
        <ele>1980.4</ele>
        <time>2021-08-21T15:45:48Z</time>
      </trkpt>
      <trkpt lat="2.76703" lon="-75.07445">
        <ele>1980.6</ele>
        <time>2021-08-21T15:45:49Z</time>
      </trkpt>
      <trkpt lat="2.76703" lon="-75.07443">
        <ele>1980.7</ele>
        <time>2021-08-21T15:45:50Z</time>
      </trkpt>
      <trkpt lat="2.767031" lon="-75.074425">
        <ele>1980.8</ele>
        <time>2021-08-21T15:45:51Z</time>
      </trkpt>
      <trkpt lat="2.767031" lon="-75.07442">
        <ele>1980.9</ele>
        <time>2021-08-21T15:45:52Z</time>
      </trkpt>
      <trkpt lat="2.767031" lon="-75.07441">
        <ele>1981.0</ele>
        <time>2021-08-21T15:45:53Z</time>
      </trkpt>
      <trkpt lat="2.767031" lon="-75.0744">
        <ele>1981.1</ele>
        <time>2021-08-21T15:45:54Z</time>
      </trkpt>
      <trkpt lat="2.767032" lon="-75.074394">
        <ele>1981.2</ele>
        <time>2021-08-21T15:45:55Z</time>
      </trkpt>
      <trkpt lat="2.767032" lon="-75.07439">
        <ele>1981.3</ele>
        <time>2021-08-21T15:45:56Z</time>
      </trkpt>
      <trkpt lat="2.767031" lon="-75.07438">
        <ele>1981.4</ele>
        <time>2021-08-21T15:45:57Z</time>
      </trkpt>
      <trkpt lat="2.767028" lon="-75.07437">
        <ele>1981.4</ele>
        <time>2021-08-21T15:45:58Z</time>
      </trkpt>
      <trkpt lat="2.767025" lon="-75.07436">
        <ele>1981.5</ele>
        <time>2021-08-21T15:45:59Z</time>
      </trkpt>
      <trkpt lat="2.767022" lon="-75.07436">
        <ele>1981.6</ele>
        <time>2021-08-21T15:46:00Z</time>
      </trkpt>
      <trkpt lat="2.76702" lon="-75.07435">
        <ele>1981.7</ele>
        <time>2021-08-21T15:46:01Z</time>
      </trkpt>
      <trkpt lat="2.767017" lon="-75.07435">
        <ele>1981.8</ele>
        <time>2021-08-21T15:46:02Z</time>
      </trkpt>
      <trkpt lat="2.767016" lon="-75.07433">
        <ele>1981.9</ele>
        <time>2021-08-21T15:46:03Z</time>
      </trkpt>
      <trkpt lat="2.767015" lon="-75.074326">
        <ele>1982.0</ele>
        <time>2021-08-21T15:46:04Z</time>
      </trkpt>
      <trkpt lat="2.767015" lon="-75.07432">
        <ele>1982.1</ele>
        <time>2021-08-21T15:46:05Z</time>
      </trkpt>
      <trkpt lat="2.767015" lon="-75.07431">
        <ele>1982.2</ele>
        <time>2021-08-21T15:46:06Z</time>
      </trkpt>
      <trkpt lat="2.767017" lon="-75.0743">
        <ele>1982.3</ele>
        <time>2021-08-21T15:46:07Z</time>
      </trkpt>
      <trkpt lat="2.767018" lon="-75.07429">
        <ele>1982.4</ele>
        <time>2021-08-21T15:46:08Z</time>
      </trkpt>
      <trkpt lat="2.767019" lon="-75.07428">
        <ele>1982.6</ele>
        <time>2021-08-21T15:46:09Z</time>
      </trkpt>
      <trkpt lat="2.767019" lon="-75.07427">
        <ele>1982.7</ele>
        <time>2021-08-21T15:46:10Z</time>
      </trkpt>
      <trkpt lat="2.767019" lon="-75.074265">
        <ele>1982.8</ele>
        <time>2021-08-21T15:46:11Z</time>
      </trkpt>
      <trkpt lat="2.767019" lon="-75.07425">
        <ele>1982.9</ele>
        <time>2021-08-21T15:46:12Z</time>
      </trkpt>
      <trkpt lat="2.767018" lon="-75.07424">
        <ele>1983.0</ele>
        <time>2021-08-21T15:46:13Z</time>
      </trkpt>
      <trkpt lat="2.767017" lon="-75.074234">
        <ele>1983.1</ele>
        <time>2021-08-21T15:46:14Z</time>
      </trkpt>
      <trkpt lat="2.767016" lon="-75.07422">
        <ele>1983.2</ele>
        <time>2021-08-21T15:46:15Z</time>
      </trkpt>
      <trkpt lat="2.767016" lon="-75.07421">
        <ele>1983.4</ele>
        <time>2021-08-21T15:46:16Z</time>
      </trkpt>
      <trkpt lat="2.767017" lon="-75.0742">
        <ele>1983.5</ele>
        <time>2021-08-21T15:46:17Z</time>
      </trkpt>
      <trkpt lat="2.767017" lon="-75.07419">
        <ele>1983.6</ele>
        <time>2021-08-21T15:46:18Z</time>
      </trkpt>
      <trkpt lat="2.767018" lon="-75.07418">
        <ele>1983.7</ele>
        <time>2021-08-21T15:46:19Z</time>
      </trkpt>
      <trkpt lat="2.767019" lon="-75.07417">
        <ele>1983.8</ele>
        <time>2021-08-21T15:46:20Z</time>
      </trkpt>
      <trkpt lat="2.767022" lon="-75.07416">
        <ele>1983.9</ele>
        <time>2021-08-21T15:46:21Z</time>
      </trkpt>
      <trkpt lat="2.767026" lon="-75.07415">
        <ele>1984.1</ele>
        <time>2021-08-21T15:46:22Z</time>
      </trkpt>
      <trkpt lat="2.767029" lon="-75.07414">
        <ele>1984.2</ele>
        <time>2021-08-21T15:46:23Z</time>
      </trkpt>
      <trkpt lat="2.767033" lon="-75.07413">
        <ele>1984.3</ele>
        <time>2021-08-21T15:46:24Z</time>
      </trkpt>
      <trkpt lat="2.767036" lon="-75.07412">
        <ele>1984.4</ele>
        <time>2021-08-21T15:46:25Z</time>
      </trkpt>
      <trkpt lat="2.767039" lon="-75.074104">
        <ele>1984.6</ele>
        <time>2021-08-21T15:46:26Z</time>
      </trkpt>
      <trkpt lat="2.767042" lon="-75.0741">
        <ele>1984.7</ele>
        <time>2021-08-21T15:46:27Z</time>
      </trkpt>
      <trkpt lat="2.767045" lon="-75.07408">
        <ele>1984.8</ele>
        <time>2021-08-21T15:46:28Z</time>
      </trkpt>
      <trkpt lat="2.767046" lon="-75.07407">
        <ele>1985.0</ele>
        <time>2021-08-21T15:46:29Z</time>
      </trkpt>
      <trkpt lat="2.767049" lon="-75.07406">
        <ele>1985.1</ele>
        <time>2021-08-21T15:46:30Z</time>
      </trkpt>
      <trkpt lat="2.767052" lon="-75.07405">
        <ele>1985.2</ele>
        <time>2021-08-21T15:46:31Z</time>
      </trkpt>
      <trkpt lat="2.767056" lon="-75.07404">
        <ele>1985.3</ele>
        <time>2021-08-21T15:46:32Z</time>
      </trkpt>
      <trkpt lat="2.767059" lon="-75.07403">
        <ele>1985.4</ele>
        <time>2021-08-21T15:46:33Z</time>
      </trkpt>
      <trkpt lat="2.767062" lon="-75.07402">
        <ele>1985.5</ele>
        <time>2021-08-21T15:46:34Z</time>
      </trkpt>
      <trkpt lat="2.767065" lon="-75.07401">
        <ele>1985.7</ele>
        <time>2021-08-21T15:46:35Z</time>
      </trkpt>
      <trkpt lat="2.767068" lon="-75.074">
        <ele>1986.2</ele>
        <time>2021-08-21T15:46:36Z</time>
      </trkpt>
      <trkpt lat="2.767071" lon="-75.07399">
        <ele>1986.5</ele>
        <time>2021-08-21T15:46:37Z</time>
      </trkpt>
      <trkpt lat="2.767074" lon="-75.073975">
        <ele>1986.7</ele>
        <time>2021-08-21T15:46:38Z</time>
      </trkpt>
      <trkpt lat="2.767079" lon="-75.07397">
        <ele>1986.9</ele>
        <time>2021-08-21T15:46:39Z</time>
      </trkpt>
      <trkpt lat="2.767083" lon="-75.07396">
        <ele>1987.1</ele>
        <time>2021-08-21T15:46:40Z</time>
      </trkpt>
      <trkpt lat="2.767085" lon="-75.07395">
        <ele>1987.4</ele>
        <time>2021-08-21T15:46:41Z</time>
      </trkpt>
      <trkpt lat="2.767084" lon="-75.073944">
        <ele>1987.7</ele>
        <time>2021-08-21T15:46:42Z</time>
      </trkpt>
      <trkpt lat="2.76708" lon="-75.073944">
        <ele>1987.9</ele>
        <time>2021-08-21T15:46:43Z</time>
      </trkpt>
      <trkpt lat="2.767076" lon="-75.073944">
        <ele>1988.1</ele>
        <time>2021-08-21T15:46:44Z</time>
      </trkpt>
      <trkpt lat="2.767073" lon="-75.07395">
        <ele>1988.3</ele>
        <time>2021-08-21T15:46:45Z</time>
      </trkpt>
      <trkpt lat="2.767069" lon="-75.07395">
        <ele>1988.5</ele>
        <time>2021-08-21T15:46:46Z</time>
      </trkpt>
      <trkpt lat="2.767065" lon="-75.07395">
        <ele>1988.7</ele>
        <time>2021-08-21T15:46:47Z</time>
      </trkpt>
      <trkpt lat="2.767061" lon="-75.07396">
        <ele>1988.9</ele>
        <time>2021-08-21T15:46:48Z</time>
      </trkpt>
      <trkpt lat="2.767057" lon="-75.07396">
        <ele>1989.0</ele>
        <time>2021-08-21T15:46:49Z</time>
      </trkpt>
      <trkpt lat="2.767053" lon="-75.07396">
        <ele>1989.2</ele>
        <time>2021-08-21T15:46:50Z</time>
      </trkpt>
      <trkpt lat="2.767049" lon="-75.07397">
        <ele>1988.5</ele>
        <time>2021-08-21T15:46:51Z</time>
      </trkpt>
      <trkpt lat="2.767046" lon="-75.07397">
        <ele>1988.7</ele>
        <time>2021-08-21T15:46:52Z</time>
      </trkpt>
      <trkpt lat="2.767042" lon="-75.07397">
        <ele>1988.9</ele>
        <time>2021-08-21T15:46:53Z</time>
      </trkpt>
      <trkpt lat="2.767038" lon="-75.073975">
        <ele>1989.1</ele>
        <time>2021-08-21T15:46:54Z</time>
      </trkpt>
      <trkpt lat="2.767034" lon="-75.073975">
        <ele>1989.3</ele>
        <time>2021-08-21T15:46:55Z</time>
      </trkpt>
      <trkpt lat="2.76703" lon="-75.073975">
        <ele>1989.5</ele>
        <time>2021-08-21T15:46:56Z</time>
      </trkpt>
      <trkpt lat="2.767026" lon="-75.07398">
        <ele>1989.8</ele>
        <time>2021-08-21T15:46:57Z</time>
      </trkpt>
      <trkpt lat="2.767023" lon="-75.07398">
        <ele>1990.0</ele>
        <time>2021-08-21T15:46:58Z</time>
      </trkpt>
      <trkpt lat="2.767019" lon="-75.07398">
        <ele>1990.2</ele>
        <time>2021-08-21T15:46:59Z</time>
      </trkpt>
      <trkpt lat="2.767015" lon="-75.07399">
        <ele>1990.4</ele>
        <time>2021-08-21T15:47:00Z</time>
      </trkpt>
      <trkpt lat="2.767011" lon="-75.07399">
        <ele>1990.6</ele>
        <time>2021-08-21T15:47:01Z</time>
      </trkpt>
      <trkpt lat="2.767007" lon="-75.07399">
        <ele>1990.8</ele>
        <time>2021-08-21T15:47:02Z</time>
      </trkpt>
      <trkpt lat="2.767003" lon="-75.074">
        <ele>1990.5</ele>
        <time>2021-08-21T15:47:03Z</time>
      </trkpt>
      <trkpt lat="2.766999" lon="-75.074">
        <ele>1990.7</ele>
        <time>2021-08-21T15:47:04Z</time>
      </trkpt>
      <trkpt lat="2.766996" lon="-75.074">
        <ele>1990.9</ele>
        <time>2021-08-21T15:47:05Z</time>
      </trkpt>
      <trkpt lat="2.766992" lon="-75.074005">
        <ele>1990.7</ele>
        <time>2021-08-21T15:47:06Z</time>
      </trkpt>
      <trkpt lat="2.766988" lon="-75.074005">
        <ele>1990.9</ele>
        <time>2021-08-21T15:47:07Z</time>
      </trkpt>
      <trkpt lat="2.766984" lon="-75.074005">
        <ele>1991.1</ele>
        <time>2021-08-21T15:47:08Z</time>
      </trkpt>
      <trkpt lat="2.76698" lon="-75.07401">
        <ele>1991.3</ele>
        <time>2021-08-21T15:47:09Z</time>
      </trkpt>
      <trkpt lat="2.766976" lon="-75.07401">
        <ele>1991.5</ele>
        <time>2021-08-21T15:47:10Z</time>
      </trkpt>
      <trkpt lat="2.766972" lon="-75.07401">
        <ele>1991.7</ele>
        <time>2021-08-21T15:47:11Z</time>
      </trkpt>
      <trkpt lat="2.766969" lon="-75.07402">
        <ele>1991.9</ele>
        <time>2021-08-21T15:47:12Z</time>
      </trkpt>
      <trkpt lat="2.766965" lon="-75.07402">
        <ele>1992.1</ele>
        <time>2021-08-21T15:47:13Z</time>
      </trkpt>
      <trkpt lat="2.766961" lon="-75.07402">
        <ele>1992.1</ele>
        <time>2021-08-21T15:47:14Z</time>
      </trkpt>
      <trkpt lat="2.766957" lon="-75.07402">
        <ele>1992.3</ele>
        <time>2021-08-21T15:47:15Z</time>
      </trkpt>
      <trkpt lat="2.766953" lon="-75.07403">
        <ele>1992.5</ele>
        <time>2021-08-21T15:47:16Z</time>
      </trkpt>
      <trkpt lat="2.766949" lon="-75.07403">
        <ele>1992.7</ele>
        <time>2021-08-21T15:47:17Z</time>
      </trkpt>
      <trkpt lat="2.766946" lon="-75.074036">
        <ele>1992.9</ele>
        <time>2021-08-21T15:47:18Z</time>
      </trkpt>
      <trkpt lat="2.766942" lon="-75.074036">
        <ele>1993.1</ele>
        <time>2021-08-21T15:47:19Z</time>
      </trkpt>
      <trkpt lat="2.766938" lon="-75.074036">
        <ele>1993.3</ele>
        <time>2021-08-21T15:47:20Z</time>
      </trkpt>
      <trkpt lat="2.766934" lon="-75.074036">
        <ele>1993.6</ele>
        <time>2021-08-21T15:47:21Z</time>
      </trkpt>
      <trkpt lat="2.76693" lon="-75.07404">
        <ele>1993.8</ele>
        <time>2021-08-21T15:47:22Z</time>
      </trkpt>
      <trkpt lat="2.766926" lon="-75.07404">
        <ele>1993.1</ele>
        <time>2021-08-21T15:47:23Z</time>
      </trkpt>
      <trkpt lat="2.766922" lon="-75.07404">
        <ele>1993.3</ele>
        <time>2021-08-21T15:47:24Z</time>
      </trkpt>
      <trkpt lat="2.766919" lon="-75.07405">
        <ele>1993.4</ele>
        <time>2021-08-21T15:47:25Z</time>
      </trkpt>
      <trkpt lat="2.766915" lon="-75.07405">
        <ele>1993.6</ele>
        <time>2021-08-21T15:47:26Z</time>
      </trkpt>
      <trkpt lat="2.766911" lon="-75.07405">
        <ele>1993.9</ele>
        <time>2021-08-21T15:47:27Z</time>
      </trkpt>
      <trkpt lat="2.766907" lon="-75.07406">
        <ele>1994.1</ele>
        <time>2021-08-21T15:47:28Z</time>
      </trkpt>
      <trkpt lat="2.766903" lon="-75.07406">
        <ele>1994.3</ele>
        <time>2021-08-21T15:47:29Z</time>
      </trkpt>
      <trkpt lat="2.766899" lon="-75.07406">
        <ele>1994.5</ele>
        <time>2021-08-21T15:47:30Z</time>
      </trkpt>
      <trkpt lat="2.766895" lon="-75.074066">
        <ele>1994.7</ele>
        <time>2021-08-21T15:47:31Z</time>
      </trkpt>
      <trkpt lat="2.766892" lon="-75.074066">
        <ele>1994.7</ele>
        <time>2021-08-21T15:47:32Z</time>
      </trkpt>
      <trkpt lat="2.766888" lon="-75.07407">
        <ele>1994.7</ele>
        <time>2021-08-21T15:47:33Z</time>
      </trkpt>
      <trkpt lat="2.766884" lon="-75.07407">
        <ele>1994.7</ele>
        <time>2021-08-21T15:47:34Z</time>
      </trkpt>
      <trkpt lat="2.76688" lon="-75.07407">
        <ele>1994.8</ele>
        <time>2021-08-21T15:47:35Z</time>
      </trkpt>
      <trkpt lat="2.766876" lon="-75.07407">
        <ele>1994.8</ele>
        <time>2021-08-21T15:47:36Z</time>
      </trkpt>
      <trkpt lat="2.766872" lon="-75.07408">
        <ele>1994.8</ele>
        <time>2021-08-21T15:47:37Z</time>
      </trkpt>
      <trkpt lat="2.766868" lon="-75.07408">
        <ele>1994.8</ele>
        <time>2021-08-21T15:47:38Z</time>
      </trkpt>
      <trkpt lat="2.766865" lon="-75.07408">
        <ele>1994.9</ele>
        <time>2021-08-21T15:47:39Z</time>
      </trkpt>
      <trkpt lat="2.766861" lon="-75.07409">
        <ele>1994.9</ele>
        <time>2021-08-21T15:47:40Z</time>
      </trkpt>
      <trkpt lat="2.766857" lon="-75.07409">
        <ele>1994.9</ele>
        <time>2021-08-21T15:47:41Z</time>
      </trkpt>
      <trkpt lat="2.766853" lon="-75.07409">
        <ele>1994.9</ele>
        <time>2021-08-21T15:47:42Z</time>
      </trkpt>
      <trkpt lat="2.766849" lon="-75.0741">
        <ele>1995.0</ele>
        <time>2021-08-21T15:47:43Z</time>
      </trkpt>
      <trkpt lat="2.766845" lon="-75.0741">
        <ele>1995.0</ele>
        <time>2021-08-21T15:47:44Z</time>
      </trkpt>
      <trkpt lat="2.766842" lon="-75.0741">
        <ele>1995.0</ele>
        <time>2021-08-21T15:47:45Z</time>
      </trkpt>
      <trkpt lat="2.766838" lon="-75.074104">
        <ele>1995.0</ele>
        <time>2021-08-21T15:47:46Z</time>
      </trkpt>
      <trkpt lat="2.766834" lon="-75.074104">
        <ele>1995.1</ele>
        <time>2021-08-21T15:47:47Z</time>
      </trkpt>
      <trkpt lat="2.76683" lon="-75.074104">
        <ele>1995.1</ele>
        <time>2021-08-21T15:47:48Z</time>
      </trkpt>
      <trkpt lat="2.766826" lon="-75.07411">
        <ele>1995.1</ele>
        <time>2021-08-21T15:47:49Z</time>
      </trkpt>
      <trkpt lat="2.766822" lon="-75.07411">
        <ele>1995.1</ele>
        <time>2021-08-21T15:47:50Z</time>
      </trkpt>
      <trkpt lat="2.766818" lon="-75.07411">
        <ele>1995.2</ele>
        <time>2021-08-21T15:47:51Z</time>
      </trkpt>
      <trkpt lat="2.766815" lon="-75.07412">
        <ele>1995.2</ele>
        <time>2021-08-21T15:47:52Z</time>
      </trkpt>
      <trkpt lat="2.766811" lon="-75.07412">
        <ele>1995.2</ele>
        <time>2021-08-21T15:47:53Z</time>
      </trkpt>
      <trkpt lat="2.766807" lon="-75.07412">
        <ele>1995.2</ele>
        <time>2021-08-21T15:47:54Z</time>
      </trkpt>
      <trkpt lat="2.766803" lon="-75.07413">
        <ele>1995.3</ele>
        <time>2021-08-21T15:47:55Z</time>
      </trkpt>
      <trkpt lat="2.766799" lon="-75.07413">
        <ele>1995.3</ele>
        <time>2021-08-21T15:47:56Z</time>
      </trkpt>
      <trkpt lat="2.766795" lon="-75.07413">
        <ele>1995.3</ele>
        <time>2021-08-21T15:47:57Z</time>
      </trkpt>
      <trkpt lat="2.766791" lon="-75.074135">
        <ele>1995.3</ele>
        <time>2021-08-21T15:47:58Z</time>
      </trkpt>
      <trkpt lat="2.766788" lon="-75.074135">
        <ele>1995.4</ele>
        <time>2021-08-21T15:47:59Z</time>
      </trkpt>
      <trkpt lat="2.766784" lon="-75.074135">
        <ele>1995.4</ele>
        <time>2021-08-21T15:48:00Z</time>
      </trkpt>
      <trkpt lat="2.76678" lon="-75.07414">
        <ele>1995.4</ele>
        <time>2021-08-21T15:48:01Z</time>
      </trkpt>
      <trkpt lat="2.766776" lon="-75.07414">
        <ele>1995.4</ele>
        <time>2021-08-21T15:48:02Z</time>
      </trkpt>
      <trkpt lat="2.766772" lon="-75.07414">
        <ele>1995.5</ele>
        <time>2021-08-21T15:48:03Z</time>
      </trkpt>
      <trkpt lat="2.766768" lon="-75.07415">
        <ele>1995.5</ele>
        <time>2021-08-21T15:48:04Z</time>
      </trkpt>
      <trkpt lat="2.766765" lon="-75.07415">
        <ele>1995.5</ele>
        <time>2021-08-21T15:48:05Z</time>
      </trkpt>
      <trkpt lat="2.766761" lon="-75.07415">
        <ele>1995.5</ele>
        <time>2021-08-21T15:48:06Z</time>
      </trkpt>
      <trkpt lat="2.766757" lon="-75.07416">
        <ele>1995.5</ele>
        <time>2021-08-21T15:48:07Z</time>
      </trkpt>
      <trkpt lat="2.766753" lon="-75.07416">
        <ele>1995.6</ele>
        <time>2021-08-21T15:48:08Z</time>
      </trkpt>
      <trkpt lat="2.766749" lon="-75.07416">
        <ele>1995.6</ele>
        <time>2021-08-21T15:48:09Z</time>
      </trkpt>
      <trkpt lat="2.766745" lon="-75.074165">
        <ele>1995.6</ele>
        <time>2021-08-21T15:48:10Z</time>
      </trkpt>
      <trkpt lat="2.766741" lon="-75.074165">
        <ele>1995.6</ele>
        <time>2021-08-21T15:48:11Z</time>
      </trkpt>
      <trkpt lat="2.766738" lon="-75.074165">
        <ele>1995.6</ele>
        <time>2021-08-21T15:48:12Z</time>
      </trkpt>
      <trkpt lat="2.766734" lon="-75.07417">
        <ele>1995.7</ele>
        <time>2021-08-21T15:48:13Z</time>
      </trkpt>
      <trkpt lat="2.76673" lon="-75.07417">
        <ele>1995.7</ele>
        <time>2021-08-21T15:48:14Z</time>
      </trkpt>
      <trkpt lat="2.766726" lon="-75.07417">
        <ele>1995.7</ele>
        <time>2021-08-21T15:48:15Z</time>
      </trkpt>
      <trkpt lat="2.766722" lon="-75.07418">
        <ele>1995.7</ele>
        <time>2021-08-21T15:48:16Z</time>
      </trkpt>
      <trkpt lat="2.766718" lon="-75.07418">
        <ele>1995.7</ele>
        <time>2021-08-21T15:48:17Z</time>
      </trkpt>
      <trkpt lat="2.766714" lon="-75.07418">
        <ele>1995.7</ele>
        <time>2021-08-21T15:48:18Z</time>
      </trkpt>
      <trkpt lat="2.766711" lon="-75.07419">
        <ele>1995.8</ele>
        <time>2021-08-21T15:48:19Z</time>
      </trkpt>
      <trkpt lat="2.766707" lon="-75.07419">
        <ele>1995.8</ele>
        <time>2021-08-21T15:48:20Z</time>
      </trkpt>
      <trkpt lat="2.766703" lon="-75.07419">
        <ele>1995.8</ele>
        <time>2021-08-21T15:48:21Z</time>
      </trkpt>
      <trkpt lat="2.766699" lon="-75.074196">
        <ele>1995.8</ele>
        <time>2021-08-21T15:48:22Z</time>
      </trkpt>
      <trkpt lat="2.766695" lon="-75.074196">
        <ele>1995.8</ele>
        <time>2021-08-21T15:48:23Z</time>
      </trkpt>
      <trkpt lat="2.766691" lon="-75.074196">
        <ele>1995.8</ele>
        <time>2021-08-21T15:48:24Z</time>
      </trkpt>
      <trkpt lat="2.766687" lon="-75.0742">
        <ele>1995.8</ele>
        <time>2021-08-21T15:48:25Z</time>
      </trkpt>
      <trkpt lat="2.766684" lon="-75.0742">
        <ele>1995.9</ele>
        <time>2021-08-21T15:48:26Z</time>
      </trkpt>
      <trkpt lat="2.76668" lon="-75.0742">
        <ele>1995.9</ele>
        <time>2021-08-21T15:48:27Z</time>
      </trkpt>
      <trkpt lat="2.766676" lon="-75.07421">
        <ele>1995.9</ele>
        <time>2021-08-21T15:48:28Z</time>
      </trkpt>
      <trkpt lat="2.766672" lon="-75.07421">
        <ele>1995.9</ele>
        <time>2021-08-21T15:48:29Z</time>
      </trkpt>
      <trkpt lat="2.766668" lon="-75.07421">
        <ele>1995.9</ele>
        <time>2021-08-21T15:48:30Z</time>
      </trkpt>
      <trkpt lat="2.766664" lon="-75.07422">
        <ele>1995.9</ele>
        <time>2021-08-21T15:48:31Z</time>
      </trkpt>
      <trkpt lat="2.766661" lon="-75.07422">
        <ele>1995.9</ele>
        <time>2021-08-21T15:48:32Z</time>
      </trkpt>
      <trkpt lat="2.766657" lon="-75.07422">
        <ele>1996.0</ele>
        <time>2021-08-21T15:48:33Z</time>
      </trkpt>
      <trkpt lat="2.766653" lon="-75.07423">
        <ele>1996.0</ele>
        <time>2021-08-21T15:48:34Z</time>
      </trkpt>
      <trkpt lat="2.766649" lon="-75.07423">
        <ele>1996.0</ele>
        <time>2021-08-21T15:48:35Z</time>
      </trkpt>
      <trkpt lat="2.766645" lon="-75.07423">
        <ele>1996.0</ele>
        <time>2021-08-21T15:48:36Z</time>
      </trkpt>
      <trkpt lat="2.766641" lon="-75.07423">
        <ele>1996.0</ele>
        <time>2021-08-21T15:48:37Z</time>
      </trkpt>
      <trkpt lat="2.766637" lon="-75.074234">
        <ele>1996.0</ele>
        <time>2021-08-21T15:48:38Z</time>
      </trkpt>
      <trkpt lat="2.766634" lon="-75.074234">
        <ele>1996.0</ele>
        <time>2021-08-21T15:48:39Z</time>
      </trkpt>
      <trkpt lat="2.76663" lon="-75.07424">
        <ele>1996.1</ele>
        <time>2021-08-21T15:48:40Z</time>
      </trkpt>
      <trkpt lat="2.766626" lon="-75.07424">
        <ele>1996.1</ele>
        <time>2021-08-21T15:48:41Z</time>
      </trkpt>
      <trkpt lat="2.766622" lon="-75.07424">
        <ele>1996.1</ele>
        <time>2021-08-21T15:48:42Z</time>
      </trkpt>
      <trkpt lat="2.766618" lon="-75.07424">
        <ele>1996.1</ele>
        <time>2021-08-21T15:48:43Z</time>
      </trkpt>
      <trkpt lat="2.766614" lon="-75.07425">
        <ele>1996.1</ele>
        <time>2021-08-21T15:48:44Z</time>
      </trkpt>
      <trkpt lat="2.76661" lon="-75.07425">
        <ele>1996.1</ele>
        <time>2021-08-21T15:48:45Z</time>
      </trkpt>
      <trkpt lat="2.766607" lon="-75.07425">
        <ele>1996.1</ele>
        <time>2021-08-21T15:48:46Z</time>
      </trkpt>
      <trkpt lat="2.766603" lon="-75.07426">
        <ele>1996.1</ele>
        <time>2021-08-21T15:48:47Z</time>
      </trkpt>
      <trkpt lat="2.766599" lon="-75.07426">
        <ele>1996.1</ele>
        <time>2021-08-21T15:48:48Z</time>
      </trkpt>
      <trkpt lat="2.766595" lon="-75.07426">
        <ele>1996.2</ele>
        <time>2021-08-21T15:48:49Z</time>
      </trkpt>
      <trkpt lat="2.766591" lon="-75.074265">
        <ele>1996.2</ele>
        <time>2021-08-21T15:48:50Z</time>
      </trkpt>
      <trkpt lat="2.766587" lon="-75.074265">
        <ele>1996.2</ele>
        <time>2021-08-21T15:48:51Z</time>
      </trkpt>
      <trkpt lat="2.766584" lon="-75.074265">
        <ele>1996.2</ele>
        <time>2021-08-21T15:48:52Z</time>
      </trkpt>
      <trkpt lat="2.76658" lon="-75.07427">
        <ele>1996.2</ele>
        <time>2021-08-21T15:48:53Z</time>
      </trkpt>
      <trkpt lat="2.766576" lon="-75.07427">
        <ele>1996.2</ele>
        <time>2021-08-21T15:48:54Z</time>
      </trkpt>
      <trkpt lat="2.766572" lon="-75.07427">
        <ele>1996.2</ele>
        <time>2021-08-21T15:48:55Z</time>
      </trkpt>
      <trkpt lat="2.766568" lon="-75.07428">
        <ele>1996.2</ele>
        <time>2021-08-21T15:48:56Z</time>
      </trkpt>
      <trkpt lat="2.766564" lon="-75.07428">
        <ele>1996.3</ele>
        <time>2021-08-21T15:48:57Z</time>
      </trkpt>
      <trkpt lat="2.76656" lon="-75.07428">
        <ele>1996.3</ele>
        <time>2021-08-21T15:48:58Z</time>
      </trkpt>
      <trkpt lat="2.766557" lon="-75.07429">
        <ele>1996.3</ele>
        <time>2021-08-21T15:48:59Z</time>
      </trkpt>
      <trkpt lat="2.766553" lon="-75.07429">
        <ele>1996.3</ele>
        <time>2021-08-21T15:49:00Z</time>
      </trkpt>
      <trkpt lat="2.766545" lon="-75.074295">
        <ele>1996.3</ele>
        <time>2021-08-21T15:49:02Z</time>
      </trkpt>
      <trkpt lat="2.766549" lon="-75.07429">
        <ele>1996.3</ele>
        <time>2021-08-21T15:49:02Z</time>
      </trkpt>
      <trkpt lat="2.766522" lon="-75.07431">
        <ele>1996.4</ele>
        <time>2021-08-21T15:49:03Z</time>
      </trkpt>
      <trkpt lat="2.766511" lon="-75.07432">
        <ele>1996.4</ele>
        <time>2021-08-21T15:49:04Z</time>
      </trkpt>
      <trkpt lat="2.7665" lon="-75.07432">
        <ele>1996.5</ele>
        <time>2021-08-21T15:49:05Z</time>
      </trkpt>
      <trkpt lat="2.766489" lon="-75.074326">
        <ele>1996.5</ele>
        <time>2021-08-21T15:49:06Z</time>
      </trkpt>
      <trkpt lat="2.766479" lon="-75.07433">
        <ele>1996.5</ele>
        <time>2021-08-21T15:49:07Z</time>
      </trkpt>
      <trkpt lat="2.766468" lon="-75.07434">
        <ele>1996.6</ele>
        <time>2021-08-21T15:49:08Z</time>
      </trkpt>
      <trkpt lat="2.766457" lon="-75.07435">
        <ele>1996.6</ele>
        <time>2021-08-21T15:49:09Z</time>
      </trkpt>
      <trkpt lat="2.766446" lon="-75.074356">
        <ele>1996.7</ele>
        <time>2021-08-21T15:49:10Z</time>
      </trkpt>
      <trkpt lat="2.766435" lon="-75.07436">
        <ele>1996.7</ele>
        <time>2021-08-21T15:49:11Z</time>
      </trkpt>
      <trkpt lat="2.766424" lon="-75.07437">
        <ele>1996.8</ele>
        <time>2021-08-21T15:49:12Z</time>
      </trkpt>
      <trkpt lat="2.766413" lon="-75.07438">
        <ele>1996.8</ele>
        <time>2021-08-21T15:49:13Z</time>
      </trkpt>
      <trkpt lat="2.766402" lon="-75.07438">
        <ele>1996.9</ele>
        <time>2021-08-21T15:49:14Z</time>
      </trkpt>
      <trkpt lat="2.766391" lon="-75.07439">
        <ele>1996.9</ele>
        <time>2021-08-21T15:49:15Z</time>
      </trkpt>
      <trkpt lat="2.766381" lon="-75.074394">
        <ele>1997.0</ele>
        <time>2021-08-21T15:49:16Z</time>
      </trkpt>
      <trkpt lat="2.76637" lon="-75.0744">
        <ele>1997.0</ele>
        <time>2021-08-21T15:49:17Z</time>
      </trkpt>
      <trkpt lat="2.766359" lon="-75.07441">
        <ele>1997.1</ele>
        <time>2021-08-21T15:49:18Z</time>
      </trkpt>
      <trkpt lat="2.766348" lon="-75.07442">
        <ele>1997.2</ele>
        <time>2021-08-21T15:49:19Z</time>
      </trkpt>
      <trkpt lat="2.766337" lon="-75.074425">
        <ele>1997.2</ele>
        <time>2021-08-21T15:49:20Z</time>
      </trkpt>
      <trkpt lat="2.766326" lon="-75.07443">
        <ele>1997.3</ele>
        <time>2021-08-21T15:49:21Z</time>
      </trkpt>
      <trkpt lat="2.766315" lon="-75.07444">
        <ele>1997.3</ele>
        <time>2021-08-21T15:49:22Z</time>
      </trkpt>
      <trkpt lat="2.766304" lon="-75.07444">
        <ele>1997.4</ele>
        <time>2021-08-21T15:49:23Z</time>
      </trkpt>
      <trkpt lat="2.766293" lon="-75.07445">
        <ele>1997.5</ele>
        <time>2021-08-21T15:49:24Z</time>
      </trkpt>
      <trkpt lat="2.766283" lon="-75.074455">
        <ele>1997.5</ele>
        <time>2021-08-21T15:49:25Z</time>
      </trkpt>
      <trkpt lat="2.766272" lon="-75.07446">
        <ele>1997.6</ele>
        <time>2021-08-21T15:49:26Z</time>
      </trkpt>
      <trkpt lat="2.766261" lon="-75.07447">
        <ele>1997.7</ele>
        <time>2021-08-21T15:49:27Z</time>
      </trkpt>
      <trkpt lat="2.76625" lon="-75.07448">
        <ele>1997.8</ele>
        <time>2021-08-21T15:49:28Z</time>
      </trkpt>
      <trkpt lat="2.766239" lon="-75.074486">
        <ele>1997.8</ele>
        <time>2021-08-21T15:49:29Z</time>
      </trkpt>
      <trkpt lat="2.766228" lon="-75.07449">
        <ele>1997.9</ele>
        <time>2021-08-21T15:49:30Z</time>
      </trkpt>
      <trkpt lat="2.766217" lon="-75.0745">
        <ele>1997.9</ele>
        <time>2021-08-21T15:49:31Z</time>
      </trkpt>
      <trkpt lat="2.766206" lon="-75.0745">
        <ele>1998.0</ele>
        <time>2021-08-21T15:49:32Z</time>
      </trkpt>
      <trkpt lat="2.766195" lon="-75.07451">
        <ele>1998.1</ele>
        <time>2021-08-21T15:49:33Z</time>
      </trkpt>
      <trkpt lat="2.766185" lon="-75.07452">
        <ele>1998.1</ele>
        <time>2021-08-21T15:49:34Z</time>
      </trkpt>
      <trkpt lat="2.766174" lon="-75.074524">
        <ele>1998.2</ele>
        <time>2021-08-21T15:49:35Z</time>
      </trkpt>
      <trkpt lat="2.766163" lon="-75.07453">
        <ele>1998.2</ele>
        <time>2021-08-21T15:49:36Z</time>
      </trkpt>
      <trkpt lat="2.766141" lon="-75.07455">
        <ele>1998.3</ele>
        <time>2021-08-21T15:49:37Z</time>
      </trkpt>
      <trkpt lat="2.766152" lon="-75.07454">
        <ele>1998.3</ele>
        <time>2021-08-21T15:49:37Z</time>
      </trkpt>
      <trkpt lat="2.766134" lon="-75.074554">
        <ele>1998.4</ele>
        <time>2021-08-21T15:49:38Z</time>
      </trkpt>
      <trkpt lat="2.766126" lon="-75.07457">
        <ele>1998.5</ele>
        <time>2021-08-21T15:49:39Z</time>
      </trkpt>
      <trkpt lat="2.766119" lon="-75.07458">
        <ele>1998.5</ele>
        <time>2021-08-21T15:49:40Z</time>
      </trkpt>
      <trkpt lat="2.766112" lon="-75.07459">
        <ele>1998.6</ele>
        <time>2021-08-21T15:49:41Z</time>
      </trkpt>
      <trkpt lat="2.766105" lon="-75.0746">
        <ele>1998.7</ele>
        <time>2021-08-21T15:49:42Z</time>
      </trkpt>
      <trkpt lat="2.766099" lon="-75.074615">
        <ele>1998.8</ele>
        <time>2021-08-21T15:49:43Z</time>
      </trkpt>
      <trkpt lat="2.766095" lon="-75.07463">
        <ele>1998.9</ele>
        <time>2021-08-21T15:49:44Z</time>
      </trkpt>
      <trkpt lat="2.76609" lon="-75.07464">
        <ele>1999.0</ele>
        <time>2021-08-21T15:49:45Z</time>
      </trkpt>
      <trkpt lat="2.766085" lon="-75.07465">
        <ele>1999.1</ele>
        <time>2021-08-21T15:49:46Z</time>
      </trkpt>
      <trkpt lat="2.766079" lon="-75.07467">
        <ele>1999.2</ele>
        <time>2021-08-21T15:49:47Z</time>
      </trkpt>
      <trkpt lat="2.766074" lon="-75.074684">
        <ele>1999.3</ele>
        <time>2021-08-21T15:49:48Z</time>
      </trkpt>
      <trkpt lat="2.766068" lon="-75.0747">
        <ele>1999.4</ele>
        <time>2021-08-21T15:49:49Z</time>
      </trkpt>
      <trkpt lat="2.766062" lon="-75.074715">
        <ele>1999.5</ele>
        <time>2021-08-21T15:49:50Z</time>
      </trkpt>
      <trkpt lat="2.766056" lon="-75.07472">
        <ele>1999.5</ele>
        <time>2021-08-21T15:49:51Z</time>
      </trkpt>
      <trkpt lat="2.76605" lon="-75.07474">
        <ele>1999.6</ele>
        <time>2021-08-21T15:49:52Z</time>
      </trkpt>
      <trkpt lat="2.766044" lon="-75.07475">
        <ele>1999.7</ele>
        <time>2021-08-21T15:49:53Z</time>
      </trkpt>
      <trkpt lat="2.766037" lon="-75.07477">
        <ele>1999.8</ele>
        <time>2021-08-21T15:49:54Z</time>
      </trkpt>
      <trkpt lat="2.766033" lon="-75.07478">
        <ele>1999.9</ele>
        <time>2021-08-21T15:49:55Z</time>
      </trkpt>
      <trkpt lat="2.766029" lon="-75.07479">
        <ele>2000.0</ele>
        <time>2021-08-21T15:49:56Z</time>
      </trkpt>
      <trkpt lat="2.766028" lon="-75.07481">
        <ele>2000.0</ele>
        <time>2021-08-21T15:49:57Z</time>
      </trkpt>
      <trkpt lat="2.766025" lon="-75.07482">
        <ele>2000.1</ele>
        <time>2021-08-21T15:49:58Z</time>
      </trkpt>
      <trkpt lat="2.766021" lon="-75.07484">
        <ele>2000.2</ele>
        <time>2021-08-21T15:49:59Z</time>
      </trkpt>
      <trkpt lat="2.766017" lon="-75.07485">
        <ele>2000.3</ele>
        <time>2021-08-21T15:50:00Z</time>
      </trkpt>
      <trkpt lat="2.766013" lon="-75.07487">
        <ele>2000.4</ele>
        <time>2021-08-21T15:50:01Z</time>
      </trkpt>
      <trkpt lat="2.766011" lon="-75.07488">
        <ele>2000.5</ele>
        <time>2021-08-21T15:50:02Z</time>
      </trkpt>
      <trkpt lat="2.766007" lon="-75.0749">
        <ele>2000.5</ele>
        <time>2021-08-21T15:50:03Z</time>
      </trkpt>
      <trkpt lat="2.766002" lon="-75.074905">
        <ele>2000.6</ele>
        <time>2021-08-21T15:50:04Z</time>
      </trkpt>
      <trkpt lat="2.765994" lon="-75.07492">
        <ele>2000.7</ele>
        <time>2021-08-21T15:50:05Z</time>
      </trkpt>
      <trkpt lat="2.765987" lon="-75.074936">
        <ele>2000.8</ele>
        <time>2021-08-21T15:50:06Z</time>
      </trkpt>
      <trkpt lat="2.765978" lon="-75.07494">
        <ele>2000.9</ele>
        <time>2021-08-21T15:50:07Z</time>
      </trkpt>
      <trkpt lat="2.765969" lon="-75.07495">
        <ele>2001.0</ele>
        <time>2021-08-21T15:50:08Z</time>
      </trkpt>
      <trkpt lat="2.76596" lon="-75.07497">
        <ele>2001.1</ele>
        <time>2021-08-21T15:50:09Z</time>
      </trkpt>
      <trkpt lat="2.765949" lon="-75.074974">
        <ele>2001.2</ele>
        <time>2021-08-21T15:50:10Z</time>
      </trkpt>
      <trkpt lat="2.765938" lon="-75.07498">
        <ele>2001.3</ele>
        <time>2021-08-21T15:50:11Z</time>
      </trkpt>
      <trkpt lat="2.765925" lon="-75.07499">
        <ele>2001.4</ele>
        <time>2021-08-21T15:50:12Z</time>
      </trkpt>
      <trkpt lat="2.765913" lon="-75.075">
        <ele>2001.5</ele>
        <time>2021-08-21T15:50:13Z</time>
      </trkpt>
      <trkpt lat="2.765902" lon="-75.075005">
        <ele>2001.6</ele>
        <time>2021-08-21T15:50:14Z</time>
      </trkpt>
      <trkpt lat="2.765891" lon="-75.07501">
        <ele>2001.8</ele>
        <time>2021-08-21T15:50:15Z</time>
      </trkpt>
      <trkpt lat="2.765879" lon="-75.07502">
        <ele>2001.9</ele>
        <time>2021-08-21T15:50:16Z</time>
      </trkpt>
      <trkpt lat="2.765867" lon="-75.07503">
        <ele>2002.0</ele>
        <time>2021-08-21T15:50:17Z</time>
      </trkpt>
      <trkpt lat="2.765857" lon="-75.075035">
        <ele>2002.1</ele>
        <time>2021-08-21T15:50:18Z</time>
      </trkpt>
      <trkpt lat="2.765847" lon="-75.07504">
        <ele>2002.2</ele>
        <time>2021-08-21T15:50:19Z</time>
      </trkpt>
      <trkpt lat="2.765837" lon="-75.07504">
        <ele>2002.3</ele>
        <time>2021-08-21T15:50:20Z</time>
      </trkpt>
      <trkpt lat="2.765825" lon="-75.07505">
        <ele>2002.4</ele>
        <time>2021-08-21T15:50:21Z</time>
      </trkpt>
      <trkpt lat="2.765813" lon="-75.07505">
        <ele>2002.6</ele>
        <time>2021-08-21T15:50:22Z</time>
      </trkpt>
      <trkpt lat="2.765802" lon="-75.07506">
        <ele>2002.7</ele>
        <time>2021-08-21T15:50:23Z</time>
      </trkpt>
      <trkpt lat="2.765791" lon="-75.07506">
        <ele>2002.8</ele>
        <time>2021-08-21T15:50:24Z</time>
      </trkpt>
      <trkpt lat="2.76578" lon="-75.075066">
        <ele>2002.9</ele>
        <time>2021-08-21T15:50:25Z</time>
      </trkpt>
      <trkpt lat="2.765769" lon="-75.075066">
        <ele>2003.1</ele>
        <time>2021-08-21T15:50:26Z</time>
      </trkpt>
      <trkpt lat="2.765759" lon="-75.075066">
        <ele>2003.2</ele>
        <time>2021-08-21T15:50:27Z</time>
      </trkpt>
      <trkpt lat="2.765747" lon="-75.075066">
        <ele>2003.3</ele>
        <time>2021-08-21T15:50:28Z</time>
      </trkpt>
      <trkpt lat="2.765733" lon="-75.075066">
        <ele>2003.5</ele>
        <time>2021-08-21T15:50:29Z</time>
      </trkpt>
      <trkpt lat="2.765717" lon="-75.075066">
        <ele>2003.7</ele>
        <time>2021-08-21T15:50:30Z</time>
      </trkpt>
      <trkpt lat="2.7657" lon="-75.07506">
        <ele>2003.9</ele>
        <time>2021-08-21T15:50:31Z</time>
      </trkpt>
      <trkpt lat="2.765684" lon="-75.07505">
        <ele>2004.1</ele>
        <time>2021-08-21T15:50:32Z</time>
      </trkpt>
      <trkpt lat="2.765669" lon="-75.07504">
        <ele>2004.3</ele>
        <time>2021-08-21T15:50:33Z</time>
      </trkpt>
      <trkpt lat="2.765653" lon="-75.075035">
        <ele>2004.5</ele>
        <time>2021-08-21T15:50:34Z</time>
      </trkpt>
      <trkpt lat="2.765594" lon="-75.07502">
        <ele>2005.3</ele>
        <time>2021-08-21T15:50:36Z</time>
      </trkpt>
      <trkpt lat="2.765591" lon="-75.07502">
        <ele>2005.3</ele>
        <time>2021-08-21T15:50:37Z</time>
      </trkpt>
      <trkpt lat="2.765585" lon="-75.07502">
        <ele>2005.4</ele>
        <time>2021-08-21T15:50:38Z</time>
      </trkpt>
      <trkpt lat="2.765578" lon="-75.07502">
        <ele>2005.4</ele>
        <time>2021-08-21T15:50:39Z</time>
      </trkpt>
      <trkpt lat="2.765569" lon="-75.07502">
        <ele>2005.6</ele>
        <time>2021-08-21T15:50:40Z</time>
      </trkpt>
      <trkpt lat="2.76556" lon="-75.07501">
        <ele>2005.7</ele>
        <time>2021-08-21T15:50:41Z</time>
      </trkpt>
      <trkpt lat="2.765551" lon="-75.07501">
        <ele>2005.8</ele>
        <time>2021-08-21T15:50:42Z</time>
      </trkpt>
      <trkpt lat="2.765541" lon="-75.075005">
        <ele>2005.9</ele>
        <time>2021-08-21T15:50:43Z</time>
      </trkpt>
      <trkpt lat="2.765532" lon="-75.075005">
        <ele>2006.0</ele>
        <time>2021-08-21T15:50:44Z</time>
      </trkpt>
      <trkpt lat="2.765522" lon="-75.075005">
        <ele>2006.1</ele>
        <time>2021-08-21T15:50:45Z</time>
      </trkpt>
      <trkpt lat="2.765513" lon="-75.075">
        <ele>2006.3</ele>
        <time>2021-08-21T15:50:46Z</time>
      </trkpt>
      <trkpt lat="2.765503" lon="-75.075">
        <ele>2006.4</ele>
        <time>2021-08-21T15:50:47Z</time>
      </trkpt>
      <trkpt lat="2.765491" lon="-75.07499">
        <ele>2006.5</ele>
        <time>2021-08-21T15:50:48Z</time>
      </trkpt>
      <trkpt lat="2.765479" lon="-75.07499">
        <ele>2006.7</ele>
        <time>2021-08-21T15:50:49Z</time>
      </trkpt>
      <trkpt lat="2.765466" lon="-75.07499">
        <ele>2006.8</ele>
        <time>2021-08-21T15:50:50Z</time>
      </trkpt>
      <trkpt lat="2.765454" lon="-75.07498">
        <ele>2007.0</ele>
        <time>2021-08-21T15:50:51Z</time>
      </trkpt>
      <trkpt lat="2.765442" lon="-75.07498">
        <ele>2007.1</ele>
        <time>2021-08-21T15:50:52Z</time>
      </trkpt>
      <trkpt lat="2.765431" lon="-75.07498">
        <ele>2007.2</ele>
        <time>2021-08-21T15:50:53Z</time>
      </trkpt>
      <trkpt lat="2.76542" lon="-75.074974">
        <ele>2007.4</ele>
        <time>2021-08-21T15:50:54Z</time>
      </trkpt>
      <trkpt lat="2.765409" lon="-75.074974">
        <ele>2007.5</ele>
        <time>2021-08-21T15:50:55Z</time>
      </trkpt>
      <trkpt lat="2.765397" lon="-75.07497">
        <ele>2007.7</ele>
        <time>2021-08-21T15:50:56Z</time>
      </trkpt>
      <trkpt lat="2.765386" lon="-75.07496">
        <ele>2007.8</ele>
        <time>2021-08-21T15:50:57Z</time>
      </trkpt>
      <trkpt lat="2.765376" lon="-75.07496">
        <ele>2008.0</ele>
        <time>2021-08-21T15:50:58Z</time>
      </trkpt>
      <trkpt lat="2.765366" lon="-75.07495">
        <ele>2008.1</ele>
        <time>2021-08-21T15:50:59Z</time>
      </trkpt>
      <trkpt lat="2.765356" lon="-75.07494">
        <ele>2008.3</ele>
        <time>2021-08-21T15:51:00Z</time>
      </trkpt>
      <trkpt lat="2.765345" lon="-75.07494">
        <ele>2008.4</ele>
        <time>2021-08-21T15:51:01Z</time>
      </trkpt>
      <trkpt lat="2.765334" lon="-75.074936">
        <ele>2008.6</ele>
        <time>2021-08-21T15:51:02Z</time>
      </trkpt>
      <trkpt lat="2.765325" lon="-75.074936">
        <ele>2008.7</ele>
        <time>2021-08-21T15:51:03Z</time>
      </trkpt>
      <trkpt lat="2.765315" lon="-75.07493">
        <ele>2008.9</ele>
        <time>2021-08-21T15:51:04Z</time>
      </trkpt>
      <trkpt lat="2.765307" lon="-75.07492">
        <ele>2009.0</ele>
        <time>2021-08-21T15:51:05Z</time>
      </trkpt>
      <trkpt lat="2.765299" lon="-75.07491">
        <ele>2009.1</ele>
        <time>2021-08-21T15:51:06Z</time>
      </trkpt>
      <trkpt lat="2.765292" lon="-75.074905">
        <ele>2009.3</ele>
        <time>2021-08-21T15:51:07Z</time>
      </trkpt>
      <trkpt lat="2.765284" lon="-75.0749">
        <ele>2009.5</ele>
        <time>2021-08-21T15:51:08Z</time>
      </trkpt>
      <trkpt lat="2.765276" lon="-75.07489">
        <ele>2009.6</ele>
        <time>2021-08-21T15:51:09Z</time>
      </trkpt>
      <trkpt lat="2.765267" lon="-75.07488">
        <ele>2009.8</ele>
        <time>2021-08-21T15:51:10Z</time>
      </trkpt>
      <trkpt lat="2.765258" lon="-75.074875">
        <ele>2009.9</ele>
        <time>2021-08-21T15:51:11Z</time>
      </trkpt>
      <trkpt lat="2.76525" lon="-75.07487">
        <ele>2010.1</ele>
        <time>2021-08-21T15:51:12Z</time>
      </trkpt>
      <trkpt lat="2.765242" lon="-75.07486">
        <ele>2010.2</ele>
        <time>2021-08-21T15:51:13Z</time>
      </trkpt>
      <trkpt lat="2.765232" lon="-75.07485">
        <ele>2010.4</ele>
        <time>2021-08-21T15:51:14Z</time>
      </trkpt>
      <trkpt lat="2.765222" lon="-75.074844">
        <ele>2010.6</ele>
        <time>2021-08-21T15:51:15Z</time>
      </trkpt>
      <trkpt lat="2.765211" lon="-75.074844">
        <ele>2010.7</ele>
        <time>2021-08-21T15:51:16Z</time>
      </trkpt>
      <trkpt lat="2.7652" lon="-75.07484">
        <ele>2010.9</ele>
        <time>2021-08-21T15:51:17Z</time>
      </trkpt>
      <trkpt lat="2.765189" lon="-75.07484">
        <ele>2011.0</ele>
        <time>2021-08-21T15:51:18Z</time>
      </trkpt>
      <trkpt lat="2.765177" lon="-75.07483">
        <ele>2011.2</ele>
        <time>2021-08-21T15:51:19Z</time>
      </trkpt>
      <trkpt lat="2.765168" lon="-75.07483">
        <ele>2011.3</ele>
        <time>2021-08-21T15:51:20Z</time>
      </trkpt>
      <trkpt lat="2.765158" lon="-75.07482">
        <ele>2011.5</ele>
        <time>2021-08-21T15:51:21Z</time>
      </trkpt>
      <trkpt lat="2.765147" lon="-75.07482">
        <ele>2011.6</ele>
        <time>2021-08-21T15:51:22Z</time>
      </trkpt>
      <trkpt lat="2.765137" lon="-75.074814">
        <ele>2011.8</ele>
        <time>2021-08-21T15:51:23Z</time>
      </trkpt>
      <trkpt lat="2.765128" lon="-75.07481">
        <ele>2011.9</ele>
        <time>2021-08-21T15:51:24Z</time>
      </trkpt>
      <trkpt lat="2.76512" lon="-75.0748">
        <ele>2012.0</ele>
        <time>2021-08-21T15:51:25Z</time>
      </trkpt>
      <trkpt lat="2.765111" lon="-75.0748">
        <ele>2012.2</ele>
        <time>2021-08-21T15:51:26Z</time>
      </trkpt>
      <trkpt lat="2.765102" lon="-75.07479">
        <ele>2012.3</ele>
        <time>2021-08-21T15:51:27Z</time>
      </trkpt>
      <trkpt lat="2.765093" lon="-75.07478">
        <ele>2012.4</ele>
        <time>2021-08-21T15:51:28Z</time>
      </trkpt>
      <trkpt lat="2.765085" lon="-75.074776">
        <ele>2012.6</ele>
        <time>2021-08-21T15:51:29Z</time>
      </trkpt>
      <trkpt lat="2.765075" lon="-75.074776">
        <ele>2012.7</ele>
        <time>2021-08-21T15:51:30Z</time>
      </trkpt>
      <trkpt lat="2.765064" lon="-75.07477">
        <ele>2012.9</ele>
        <time>2021-08-21T15:51:31Z</time>
      </trkpt>
      <trkpt lat="2.765052" lon="-75.07476">
        <ele>2013.0</ele>
        <time>2021-08-21T15:51:32Z</time>
      </trkpt>
      <trkpt lat="2.76504" lon="-75.07476">
        <ele>2013.2</ele>
        <time>2021-08-21T15:51:33Z</time>
      </trkpt>
      <trkpt lat="2.765028" lon="-75.07476">
        <ele>2013.3</ele>
        <time>2021-08-21T15:51:34Z</time>
      </trkpt>
      <trkpt lat="2.765016" lon="-75.07475">
        <ele>2013.5</ele>
        <time>2021-08-21T15:51:35Z</time>
      </trkpt>
      <trkpt lat="2.765004" lon="-75.07475">
        <ele>2013.6</ele>
        <time>2021-08-21T15:51:36Z</time>
      </trkpt>
      <trkpt lat="2.764993" lon="-75.07475">
        <ele>2013.8</ele>
        <time>2021-08-21T15:51:37Z</time>
      </trkpt>
      <trkpt lat="2.764983" lon="-75.074745">
        <ele>2013.9</ele>
        <time>2021-08-21T15:51:38Z</time>
      </trkpt>
      <trkpt lat="2.764973" lon="-75.07474">
        <ele>2014.0</ele>
        <time>2021-08-21T15:51:39Z</time>
      </trkpt>
      <trkpt lat="2.764964" lon="-75.07474">
        <ele>2014.1</ele>
        <time>2021-08-21T15:51:40Z</time>
      </trkpt>
      <trkpt lat="2.764953" lon="-75.07474">
        <ele>2014.3</ele>
        <time>2021-08-21T15:51:41Z</time>
      </trkpt>
      <trkpt lat="2.764941" lon="-75.07473">
        <ele>2014.4</ele>
        <time>2021-08-21T15:51:42Z</time>
      </trkpt>
      <trkpt lat="2.76493" lon="-75.07473">
        <ele>2014.6</ele>
        <time>2021-08-21T15:51:43Z</time>
      </trkpt>
      <trkpt lat="2.764918" lon="-75.07473">
        <ele>2014.7</ele>
        <time>2021-08-21T15:51:44Z</time>
      </trkpt>
      <trkpt lat="2.764905" lon="-75.07472">
        <ele>2014.9</ele>
        <time>2021-08-21T15:51:45Z</time>
      </trkpt>
      <trkpt lat="2.764894" lon="-75.07472">
        <ele>2015.0</ele>
        <time>2021-08-21T15:51:46Z</time>
      </trkpt>
      <trkpt lat="2.764886" lon="-75.07472">
        <ele>2015.1</ele>
        <time>2021-08-21T15:51:47Z</time>
      </trkpt>
      <trkpt lat="2.764879" lon="-75.074715">
        <ele>2015.2</ele>
        <time>2021-08-21T15:51:48Z</time>
      </trkpt>
      <trkpt lat="2.764872" lon="-75.07471">
        <ele>2015.3</ele>
        <time>2021-08-21T15:51:49Z</time>
      </trkpt>
      <trkpt lat="2.764865" lon="-75.0747">
        <ele>2015.4</ele>
        <time>2021-08-21T15:51:50Z</time>
      </trkpt>
      <trkpt lat="2.764858" lon="-75.0747">
        <ele>2015.5</ele>
        <time>2021-08-21T15:51:51Z</time>
      </trkpt>
      <trkpt lat="2.764851" lon="-75.07469">
        <ele>2015.6</ele>
        <time>2021-08-21T15:51:52Z</time>
      </trkpt>
      <trkpt lat="2.764844" lon="-75.074684">
        <ele>2015.7</ele>
        <time>2021-08-21T15:51:53Z</time>
      </trkpt>
      <trkpt lat="2.764838" lon="-75.07468">
        <ele>2015.8</ele>
        <time>2021-08-21T15:51:54Z</time>
      </trkpt>
      <trkpt lat="2.764832" lon="-75.07467">
        <ele>2015.9</ele>
        <time>2021-08-21T15:51:55Z</time>
      </trkpt>
      <trkpt lat="2.764825" lon="-75.07466">
        <ele>2016.0</ele>
        <time>2021-08-21T15:51:56Z</time>
      </trkpt>
      <trkpt lat="2.764819" lon="-75.07466">
        <ele>2016.1</ele>
        <time>2021-08-21T15:51:57Z</time>
      </trkpt>
      <trkpt lat="2.764812" lon="-75.07465">
        <ele>2016.2</ele>
        <time>2021-08-21T15:51:58Z</time>
      </trkpt>
      <trkpt lat="2.764805" lon="-75.074646">
        <ele>2016.3</ele>
        <time>2021-08-21T15:51:59Z</time>
      </trkpt>
      <trkpt lat="2.764798" lon="-75.07464">
        <ele>2016.4</ele>
        <time>2021-08-21T15:52:00Z</time>
      </trkpt>
      <trkpt lat="2.764792" lon="-75.07464">
        <ele>2016.4</ele>
        <time>2021-08-21T15:52:01Z</time>
      </trkpt>
      <trkpt lat="2.764785" lon="-75.07463">
        <ele>2016.5</ele>
        <time>2021-08-21T15:52:02Z</time>
      </trkpt>
      <trkpt lat="2.76478" lon="-75.07462">
        <ele>2016.6</ele>
        <time>2021-08-21T15:52:03Z</time>
      </trkpt>
      <trkpt lat="2.764777" lon="-75.074615">
        <ele>2016.7</ele>
        <time>2021-08-21T15:52:04Z</time>
      </trkpt>
      <trkpt lat="2.764774" lon="-75.07461">
        <ele>2016.7</ele>
        <time>2021-08-21T15:52:05Z</time>
      </trkpt>
      <trkpt lat="2.76477" lon="-75.0746">
        <ele>2016.8</ele>
        <time>2021-08-21T15:52:06Z</time>
      </trkpt>
      <trkpt lat="2.764766" lon="-75.0746">
        <ele>2016.9</ele>
        <time>2021-08-21T15:52:07Z</time>
      </trkpt>
      <trkpt lat="2.76476" lon="-75.07459">
        <ele>2017.0</ele>
        <time>2021-08-21T15:52:08Z</time>
      </trkpt>
      <trkpt lat="2.764755" lon="-75.074585">
        <ele>2017.1</ele>
        <time>2021-08-21T15:52:09Z</time>
      </trkpt>
      <trkpt lat="2.76475" lon="-75.07458">
        <ele>2017.1</ele>
        <time>2021-08-21T15:52:10Z</time>
      </trkpt>
      <trkpt lat="2.764744" lon="-75.07458">
        <ele>2017.2</ele>
        <time>2021-08-21T15:52:11Z</time>
      </trkpt>
      <trkpt lat="2.764737" lon="-75.07457">
        <ele>2017.3</ele>
        <time>2021-08-21T15:52:12Z</time>
      </trkpt>
      <trkpt lat="2.764731" lon="-75.07456">
        <ele>2017.4</ele>
        <time>2021-08-21T15:52:13Z</time>
      </trkpt>
      <trkpt lat="2.764724" lon="-75.07456">
        <ele>2017.5</ele>
        <time>2021-08-21T15:52:14Z</time>
      </trkpt>
      <trkpt lat="2.764715" lon="-75.07456">
        <ele>2017.6</ele>
        <time>2021-08-21T15:52:15Z</time>
      </trkpt>
      <trkpt lat="2.764707" lon="-75.074554">
        <ele>2017.6</ele>
        <time>2021-08-21T15:52:16Z</time>
      </trkpt>
      <trkpt lat="2.764698" lon="-75.074554">
        <ele>2017.7</ele>
        <time>2021-08-21T15:52:17Z</time>
      </trkpt>
      <trkpt lat="2.764689" lon="-75.074554">
        <ele>2017.8</ele>
        <time>2021-08-21T15:52:18Z</time>
      </trkpt>
      <trkpt lat="2.76468" lon="-75.074554">
        <ele>2017.9</ele>
        <time>2021-08-21T15:52:19Z</time>
      </trkpt>
      <trkpt lat="2.764672" lon="-75.074554">
        <ele>2018.0</ele>
        <time>2021-08-21T15:52:20Z</time>
      </trkpt>
      <trkpt lat="2.764664" lon="-75.07455">
        <ele>2018.1</ele>
        <time>2021-08-21T15:52:21Z</time>
      </trkpt>
      <trkpt lat="2.764656" lon="-75.07455">
        <ele>2018.2</ele>
        <time>2021-08-21T15:52:22Z</time>
      </trkpt>
      <trkpt lat="2.764648" lon="-75.07455">
        <ele>2018.3</ele>
        <time>2021-08-21T15:52:23Z</time>
      </trkpt>
      <trkpt lat="2.764639" lon="-75.07455">
        <ele>2018.4</ele>
        <time>2021-08-21T15:52:24Z</time>
      </trkpt>
      <trkpt lat="2.764631" lon="-75.07454">
        <ele>2018.5</ele>
        <time>2021-08-21T15:52:25Z</time>
      </trkpt>
      <trkpt lat="2.764622" lon="-75.07454">
        <ele>2018.6</ele>
        <time>2021-08-21T15:52:26Z</time>
      </trkpt>
      <trkpt lat="2.764613" lon="-75.07454">
        <ele>2018.8</ele>
        <time>2021-08-21T15:52:27Z</time>
      </trkpt>
      <trkpt lat="2.764604" lon="-75.07453">
        <ele>2018.9</ele>
        <time>2021-08-21T15:52:28Z</time>
      </trkpt>
      <trkpt lat="2.764597" lon="-75.07453">
        <ele>2019.0</ele>
        <time>2021-08-21T15:52:29Z</time>
      </trkpt>
      <trkpt lat="2.764589" lon="-75.07453">
        <ele>2019.1</ele>
        <time>2021-08-21T15:52:30Z</time>
      </trkpt>
      <trkpt lat="2.764582" lon="-75.07453">
        <ele>2019.2</ele>
        <time>2021-08-21T15:52:31Z</time>
      </trkpt>
      <trkpt lat="2.764574" lon="-75.07453">
        <ele>2019.3</ele>
        <time>2021-08-21T15:52:32Z</time>
      </trkpt>
      <trkpt lat="2.764568" lon="-75.07453">
        <ele>2019.4</ele>
        <time>2021-08-21T15:52:33Z</time>
      </trkpt>
      <trkpt lat="2.764561" lon="-75.074524">
        <ele>2019.4</ele>
        <time>2021-08-21T15:52:34Z</time>
      </trkpt>
      <trkpt lat="2.764554" lon="-75.074524">
        <ele>2019.5</ele>
        <time>2021-08-21T15:52:35Z</time>
      </trkpt>
      <trkpt lat="2.764546" lon="-75.074524">
        <ele>2019.6</ele>
        <time>2021-08-21T15:52:36Z</time>
      </trkpt>
      <trkpt lat="2.764538" lon="-75.07452">
        <ele>2019.8</ele>
        <time>2021-08-21T15:52:37Z</time>
      </trkpt>
      <trkpt lat="2.764529" lon="-75.07452">
        <ele>2019.9</ele>
        <time>2021-08-21T15:52:38Z</time>
      </trkpt>
      <trkpt lat="2.764522" lon="-75.07452">
        <ele>2020.0</ele>
        <time>2021-08-21T15:52:39Z</time>
      </trkpt>
      <trkpt lat="2.764514" lon="-75.07451">
        <ele>2020.1</ele>
        <time>2021-08-21T15:52:40Z</time>
      </trkpt>
      <trkpt lat="2.764507" lon="-75.07451">
        <ele>2020.2</ele>
        <time>2021-08-21T15:52:41Z</time>
      </trkpt>
      <trkpt lat="2.7645" lon="-75.07451">
        <ele>2020.3</ele>
        <time>2021-08-21T15:52:42Z</time>
      </trkpt>
      <trkpt lat="2.764493" lon="-75.07451">
        <ele>2020.3</ele>
        <time>2021-08-21T15:52:43Z</time>
      </trkpt>
      <trkpt lat="2.764486" lon="-75.0745">
        <ele>2020.4</ele>
        <time>2021-08-21T15:52:44Z</time>
      </trkpt>
      <trkpt lat="2.764479" lon="-75.0745">
        <ele>2020.5</ele>
        <time>2021-08-21T15:52:45Z</time>
      </trkpt>
      <trkpt lat="2.764471" lon="-75.0745">
        <ele>2020.6</ele>
        <time>2021-08-21T15:52:46Z</time>
      </trkpt>
      <trkpt lat="2.764463" lon="-75.0745">
        <ele>2020.7</ele>
        <time>2021-08-21T15:52:47Z</time>
      </trkpt>
      <trkpt lat="2.764453" lon="-75.0745">
        <ele>2020.9</ele>
        <time>2021-08-21T15:52:48Z</time>
      </trkpt>
      <trkpt lat="2.764444" lon="-75.0745">
        <ele>2021.0</ele>
        <time>2021-08-21T15:52:49Z</time>
      </trkpt>
      <trkpt lat="2.764434" lon="-75.0745">
        <ele>2021.1</ele>
        <time>2021-08-21T15:52:50Z</time>
      </trkpt>
      <trkpt lat="2.764425" lon="-75.0745">
        <ele>2021.2</ele>
        <time>2021-08-21T15:52:51Z</time>
      </trkpt>
      <trkpt lat="2.764415" lon="-75.0745">
        <ele>2021.3</ele>
        <time>2021-08-21T15:52:52Z</time>
      </trkpt>
      <trkpt lat="2.764405" lon="-75.0745">
        <ele>2021.5</ele>
        <time>2021-08-21T15:52:53Z</time>
      </trkpt>
      <trkpt lat="2.764395" lon="-75.07449">
        <ele>2021.6</ele>
        <time>2021-08-21T15:52:54Z</time>
      </trkpt>
      <trkpt lat="2.764385" lon="-75.07449">
        <ele>2021.7</ele>
        <time>2021-08-21T15:52:55Z</time>
      </trkpt>
      <trkpt lat="2.764376" lon="-75.07449">
        <ele>2021.8</ele>
        <time>2021-08-21T15:52:56Z</time>
      </trkpt>
      <trkpt lat="2.764366" lon="-75.07449">
        <ele>2021.9</ele>
        <time>2021-08-21T15:52:57Z</time>
      </trkpt>
      <trkpt lat="2.764357" lon="-75.07449">
        <ele>2022.1</ele>
        <time>2021-08-21T15:52:58Z</time>
      </trkpt>
      <trkpt lat="2.764348" lon="-75.07449">
        <ele>2022.2</ele>
        <time>2021-08-21T15:52:59Z</time>
      </trkpt>
      <trkpt lat="2.76434" lon="-75.074486">
        <ele>2022.3</ele>
        <time>2021-08-21T15:53:00Z</time>
      </trkpt>
      <trkpt lat="2.764332" lon="-75.074486">
        <ele>2022.4</ele>
        <time>2021-08-21T15:53:01Z</time>
      </trkpt>
      <trkpt lat="2.764323" lon="-75.07448">
        <ele>2022.5</ele>
        <time>2021-08-21T15:53:02Z</time>
      </trkpt>
      <trkpt lat="2.764315" lon="-75.07447">
        <ele>2022.6</ele>
        <time>2021-08-21T15:53:03Z</time>
      </trkpt>
      <trkpt lat="2.764306" lon="-75.07446">
        <ele>2022.8</ele>
        <time>2021-08-21T15:53:04Z</time>
      </trkpt>
      <trkpt lat="2.764297" lon="-75.07446">
        <ele>2022.9</ele>
        <time>2021-08-21T15:53:05Z</time>
      </trkpt>
      <trkpt lat="2.764287" lon="-75.074455">
        <ele>2023.0</ele>
        <time>2021-08-21T15:53:06Z</time>
      </trkpt>
      <trkpt lat="2.764277" lon="-75.074455">
        <ele>2023.1</ele>
        <time>2021-08-21T15:53:07Z</time>
      </trkpt>
      <trkpt lat="2.764268" lon="-75.07445">
        <ele>2023.2</ele>
        <time>2021-08-21T15:53:08Z</time>
      </trkpt>
      <trkpt lat="2.764258" lon="-75.07444">
        <ele>2023.4</ele>
        <time>2021-08-21T15:53:09Z</time>
      </trkpt>
      <trkpt lat="2.764248" lon="-75.07444">
        <ele>2023.5</ele>
        <time>2021-08-21T15:53:10Z</time>
      </trkpt>
      <trkpt lat="2.764239" lon="-75.07443">
        <ele>2023.6</ele>
        <time>2021-08-21T15:53:11Z</time>
      </trkpt>
      <trkpt lat="2.764229" lon="-75.07443">
        <ele>2023.7</ele>
        <time>2021-08-21T15:53:12Z</time>
      </trkpt>
      <trkpt lat="2.76422" lon="-75.074425">
        <ele>2023.8</ele>
        <time>2021-08-21T15:53:13Z</time>
      </trkpt>
      <trkpt lat="2.764211" lon="-75.07442">
        <ele>2023.9</ele>
        <time>2021-08-21T15:53:14Z</time>
      </trkpt>
      <trkpt lat="2.764203" lon="-75.07441">
        <ele>2024.0</ele>
        <time>2021-08-21T15:53:15Z</time>
      </trkpt>
      <trkpt lat="2.764196" lon="-75.0744">
        <ele>2024.1</ele>
        <time>2021-08-21T15:53:16Z</time>
      </trkpt>
      <trkpt lat="2.764188" lon="-75.074394">
        <ele>2024.2</ele>
        <time>2021-08-21T15:53:17Z</time>
      </trkpt>
      <trkpt lat="2.764181" lon="-75.07439">
        <ele>2024.3</ele>
        <time>2021-08-21T15:53:18Z</time>
      </trkpt>
      <trkpt lat="2.764174" lon="-75.07438">
        <ele>2024.4</ele>
        <time>2021-08-21T15:53:19Z</time>
      </trkpt>
      <trkpt lat="2.764166" lon="-75.07438">
        <ele>2024.5</ele>
        <time>2021-08-21T15:53:20Z</time>
      </trkpt>
      <trkpt lat="2.764159" lon="-75.07437">
        <ele>2024.6</ele>
        <time>2021-08-21T15:53:21Z</time>
      </trkpt>
      <trkpt lat="2.764152" lon="-75.07436">
        <ele>2024.6</ele>
        <time>2021-08-21T15:53:22Z</time>
      </trkpt>
      <trkpt lat="2.764145" lon="-75.07436">
        <ele>2024.7</ele>
        <time>2021-08-21T15:53:23Z</time>
      </trkpt>
      <trkpt lat="2.764137" lon="-75.074356">
        <ele>2024.8</ele>
        <time>2021-08-21T15:53:24Z</time>
      </trkpt>
      <trkpt lat="2.76413" lon="-75.07435">
        <ele>2024.9</ele>
        <time>2021-08-21T15:53:25Z</time>
      </trkpt>
      <trkpt lat="2.764123" lon="-75.07435">
        <ele>2025.0</ele>
        <time>2021-08-21T15:53:26Z</time>
      </trkpt>
      <trkpt lat="2.764114" lon="-75.07434">
        <ele>2025.1</ele>
        <time>2021-08-21T15:53:27Z</time>
      </trkpt>
      <trkpt lat="2.764106" lon="-75.07433">
        <ele>2025.2</ele>
        <time>2021-08-21T15:53:28Z</time>
      </trkpt>
      <trkpt lat="2.764097" lon="-75.074326">
        <ele>2025.3</ele>
        <time>2021-08-21T15:53:29Z</time>
      </trkpt>
      <trkpt lat="2.764088" lon="-75.074326">
        <ele>2025.4</ele>
        <time>2021-08-21T15:53:30Z</time>
      </trkpt>
      <trkpt lat="2.76408" lon="-75.07432">
        <ele>2025.5</ele>
        <time>2021-08-21T15:53:31Z</time>
      </trkpt>
      <trkpt lat="2.764072" lon="-75.07431">
        <ele>2025.6</ele>
        <time>2021-08-21T15:53:32Z</time>
      </trkpt>
      <trkpt lat="2.764064" lon="-75.0743">
        <ele>2025.7</ele>
        <time>2021-08-21T15:53:33Z</time>
      </trkpt>
      <trkpt lat="2.764056" lon="-75.074295">
        <ele>2025.8</ele>
        <time>2021-08-21T15:53:34Z</time>
      </trkpt>
      <trkpt lat="2.76403" lon="-75.07425">
        <ele>2026.3</ele>
        <time>2021-08-21T15:53:36Z</time>
      </trkpt>
      <trkpt lat="2.764017" lon="-75.07424">
        <ele>2026.5</ele>
        <time>2021-08-21T15:53:37Z</time>
      </trkpt>
      <trkpt lat="2.764007" lon="-75.07424">
        <ele>2026.6</ele>
        <time>2021-08-21T15:53:38Z</time>
      </trkpt>
      <trkpt lat="2.763996" lon="-75.074234">
        <ele>2026.7</ele>
        <time>2021-08-21T15:53:39Z</time>
      </trkpt>
      <trkpt lat="2.763986" lon="-75.07423">
        <ele>2026.8</ele>
        <time>2021-08-21T15:53:40Z</time>
      </trkpt>
      <trkpt lat="2.763976" lon="-75.07423">
        <ele>2026.9</ele>
        <time>2021-08-21T15:53:41Z</time>
      </trkpt>
      <trkpt lat="2.763966" lon="-75.07422">
        <ele>2027.0</ele>
        <time>2021-08-21T15:53:42Z</time>
      </trkpt>
      <trkpt lat="2.763956" lon="-75.07422">
        <ele>2027.1</ele>
        <time>2021-08-21T15:53:43Z</time>
      </trkpt>
      <trkpt lat="2.763946" lon="-75.07421">
        <ele>2027.2</ele>
        <time>2021-08-21T15:53:44Z</time>
      </trkpt>
      <trkpt lat="2.763935" lon="-75.0742">
        <ele>2027.3</ele>
        <time>2021-08-21T15:53:45Z</time>
      </trkpt>
      <trkpt lat="2.763925" lon="-75.0742">
        <ele>2027.4</ele>
        <time>2021-08-21T15:53:46Z</time>
      </trkpt>
      <trkpt lat="2.763915" lon="-75.074196">
        <ele>2027.5</ele>
        <time>2021-08-21T15:53:47Z</time>
      </trkpt>
      <trkpt lat="2.763905" lon="-75.07419">
        <ele>2027.6</ele>
        <time>2021-08-21T15:53:48Z</time>
      </trkpt>
      <trkpt lat="2.763895" lon="-75.07419">
        <ele>2027.8</ele>
        <time>2021-08-21T15:53:49Z</time>
      </trkpt>
      <trkpt lat="2.763885" lon="-75.07418">
        <ele>2027.9</ele>
        <time>2021-08-21T15:53:50Z</time>
      </trkpt>
      <trkpt lat="2.763874" lon="-75.07417">
        <ele>2028.0</ele>
        <time>2021-08-21T15:53:51Z</time>
      </trkpt>
      <trkpt lat="2.763854" lon="-75.074165">
        <ele>2028.2</ele>
        <time>2021-08-21T15:53:52Z</time>
      </trkpt>
      <trkpt lat="2.763864" lon="-75.07417">
        <ele>2028.1</ele>
        <time>2021-08-21T15:53:52Z</time>
      </trkpt>
      <trkpt lat="2.763847" lon="-75.07416">
        <ele>2028.3</ele>
        <time>2021-08-21T15:53:53Z</time>
      </trkpt>
      <trkpt lat="2.76384" lon="-75.07415">
        <ele>2028.4</ele>
        <time>2021-08-21T15:53:54Z</time>
      </trkpt>
      <trkpt lat="2.763831" lon="-75.07414">
        <ele>2028.5</ele>
        <time>2021-08-21T15:53:55Z</time>
      </trkpt>
      <trkpt lat="2.763822" lon="-75.074135">
        <ele>2028.7</ele>
        <time>2021-08-21T15:53:56Z</time>
      </trkpt>
      <trkpt lat="2.763813" lon="-75.07413">
        <ele>2028.8</ele>
        <time>2021-08-21T15:53:57Z</time>
      </trkpt>
      <trkpt lat="2.763803" lon="-75.07413">
        <ele>2028.9</ele>
        <time>2021-08-21T15:53:58Z</time>
      </trkpt>
      <trkpt lat="2.763795" lon="-75.07412">
        <ele>2029.0</ele>
        <time>2021-08-21T15:53:59Z</time>
      </trkpt>
      <trkpt lat="2.763786" lon="-75.07411">
        <ele>2029.1</ele>
        <time>2021-08-21T15:54:00Z</time>
      </trkpt>
      <trkpt lat="2.763778" lon="-75.07411">
        <ele>2029.2</ele>
        <time>2021-08-21T15:54:01Z</time>
      </trkpt>
      <trkpt lat="2.76377" lon="-75.074104">
        <ele>2029.3</ele>
        <time>2021-08-21T15:54:02Z</time>
      </trkpt>
      <trkpt lat="2.763762" lon="-75.074104">
        <ele>2029.4</ele>
        <time>2021-08-21T15:54:03Z</time>
      </trkpt>
      <trkpt lat="2.763753" lon="-75.0741">
        <ele>2029.5</ele>
        <time>2021-08-21T15:54:04Z</time>
      </trkpt>
      <trkpt lat="2.763744" lon="-75.0741">
        <ele>2029.6</ele>
        <time>2021-08-21T15:54:05Z</time>
      </trkpt>
      <trkpt lat="2.763736" lon="-75.0741">
        <ele>2029.6</ele>
        <time>2021-08-21T15:54:06Z</time>
      </trkpt>
      <trkpt lat="2.763728" lon="-75.0741">
        <ele>2029.7</ele>
        <time>2021-08-21T15:54:07Z</time>
      </trkpt>
      <trkpt lat="2.763719" lon="-75.0741">
        <ele>2029.8</ele>
        <time>2021-08-21T15:54:08Z</time>
      </trkpt>
      <trkpt lat="2.76371" lon="-75.0741">
        <ele>2029.9</ele>
        <time>2021-08-21T15:54:09Z</time>
      </trkpt>
      <trkpt lat="2.763701" lon="-75.0741">
        <ele>2030.0</ele>
        <time>2021-08-21T15:54:10Z</time>
      </trkpt>
      <trkpt lat="2.763692" lon="-75.07409">
        <ele>2030.1</ele>
        <time>2021-08-21T15:54:11Z</time>
      </trkpt>
      <trkpt lat="2.763683" lon="-75.0741">
        <ele>2030.2</ele>
        <time>2021-08-21T15:54:12Z</time>
      </trkpt>
      <trkpt lat="2.763674" lon="-75.0741">
        <ele>2030.3</ele>
        <time>2021-08-21T15:54:13Z</time>
      </trkpt>
      <trkpt lat="2.763665" lon="-75.0741">
        <ele>2030.4</ele>
        <time>2021-08-21T15:54:14Z</time>
      </trkpt>
      <trkpt lat="2.763657" lon="-75.0741">
        <ele>2030.5</ele>
        <time>2021-08-21T15:54:15Z</time>
      </trkpt>
      <trkpt lat="2.763649" lon="-75.074104">
        <ele>2030.6</ele>
        <time>2021-08-21T15:54:16Z</time>
      </trkpt>
      <trkpt lat="2.763641" lon="-75.074104">
        <ele>2030.6</ele>
        <time>2021-08-21T15:54:17Z</time>
      </trkpt>
      <trkpt lat="2.763633" lon="-75.07411">
        <ele>2030.7</ele>
        <time>2021-08-21T15:54:18Z</time>
      </trkpt>
      <trkpt lat="2.763627" lon="-75.074104">
        <ele>2030.8</ele>
        <time>2021-08-21T15:54:19Z</time>
      </trkpt>
      <trkpt lat="2.76362" lon="-75.074104">
        <ele>2030.9</ele>
        <time>2021-08-21T15:54:20Z</time>
      </trkpt>
      <trkpt lat="2.763612" lon="-75.074104">
        <ele>2031.0</ele>
        <time>2021-08-21T15:54:21Z</time>
      </trkpt>
      <trkpt lat="2.763604" lon="-75.074104">
        <ele>2031.0</ele>
        <time>2021-08-21T15:54:22Z</time>
      </trkpt>
      <trkpt lat="2.763594" lon="-75.074104">
        <ele>2031.2</ele>
        <time>2021-08-21T15:54:23Z</time>
      </trkpt>
      <trkpt lat="2.763586" lon="-75.074104">
        <ele>2031.2</ele>
        <time>2021-08-21T15:54:24Z</time>
      </trkpt>
      <trkpt lat="2.763577" lon="-75.074104">
        <ele>2031.3</ele>
        <time>2021-08-21T15:54:25Z</time>
      </trkpt>
      <trkpt lat="2.763568" lon="-75.074104">
        <ele>2031.4</ele>
        <time>2021-08-21T15:54:26Z</time>
      </trkpt>
      <trkpt lat="2.763559" lon="-75.07411">
        <ele>2031.5</ele>
        <time>2021-08-21T15:54:27Z</time>
      </trkpt>
      <trkpt lat="2.76355" lon="-75.07411">
        <ele>2031.6</ele>
        <time>2021-08-21T15:54:28Z</time>
      </trkpt>
      <trkpt lat="2.763542" lon="-75.07411">
        <ele>2031.7</ele>
        <time>2021-08-21T15:54:29Z</time>
      </trkpt>
      <trkpt lat="2.763533" lon="-75.07411">
        <ele>2031.8</ele>
        <time>2021-08-21T15:54:30Z</time>
      </trkpt>
      <trkpt lat="2.763524" lon="-75.07411">
        <ele>2031.9</ele>
        <time>2021-08-21T15:54:31Z</time>
      </trkpt>
      <trkpt lat="2.763514" lon="-75.07412">
        <ele>2032.0</ele>
        <time>2021-08-21T15:54:32Z</time>
      </trkpt>
      <trkpt lat="2.763504" lon="-75.07412">
        <ele>2032.1</ele>
        <time>2021-08-21T15:54:33Z</time>
      </trkpt>
      <trkpt lat="2.763493" lon="-75.07412">
        <ele>2032.3</ele>
        <time>2021-08-21T15:54:34Z</time>
      </trkpt>
      <trkpt lat="2.763482" lon="-75.07412">
        <ele>2032.4</ele>
        <time>2021-08-21T15:54:35Z</time>
      </trkpt>
      <trkpt lat="2.763471" lon="-75.07412">
        <ele>2032.5</ele>
        <time>2021-08-21T15:54:36Z</time>
      </trkpt>
      <trkpt lat="2.76346" lon="-75.07413">
        <ele>2032.6</ele>
        <time>2021-08-21T15:54:37Z</time>
      </trkpt>
      <trkpt lat="2.76345" lon="-75.07413">
        <ele>2032.7</ele>
        <time>2021-08-21T15:54:38Z</time>
      </trkpt>
      <trkpt lat="2.763441" lon="-75.07413">
        <ele>2032.9</ele>
        <time>2021-08-21T15:54:39Z</time>
      </trkpt>
      <trkpt lat="2.76343" lon="-75.074135">
        <ele>2033.0</ele>
        <time>2021-08-21T15:54:40Z</time>
      </trkpt>
      <trkpt lat="2.76342" lon="-75.074135">
        <ele>2033.1</ele>
        <time>2021-08-21T15:54:41Z</time>
      </trkpt>
      <trkpt lat="2.763408" lon="-75.074135">
        <ele>2033.2</ele>
        <time>2021-08-21T15:54:42Z</time>
      </trkpt>
      <trkpt lat="2.763397" lon="-75.074135">
        <ele>2033.3</ele>
        <time>2021-08-21T15:54:43Z</time>
      </trkpt>
      <trkpt lat="2.763386" lon="-75.074135">
        <ele>2033.4</ele>
        <time>2021-08-21T15:54:44Z</time>
      </trkpt>
      <trkpt lat="2.763375" lon="-75.074135">
        <ele>2033.5</ele>
        <time>2021-08-21T15:54:45Z</time>
      </trkpt>
      <trkpt lat="2.763363" lon="-75.074135">
        <ele>2033.7</ele>
        <time>2021-08-21T15:54:46Z</time>
      </trkpt>
      <trkpt lat="2.763351" lon="-75.074135">
        <ele>2033.8</ele>
        <time>2021-08-21T15:54:47Z</time>
      </trkpt>
      <trkpt lat="2.76334" lon="-75.074135">
        <ele>2033.9</ele>
        <time>2021-08-21T15:54:48Z</time>
      </trkpt>
      <trkpt lat="2.763328" lon="-75.07413">
        <ele>2034.0</ele>
        <time>2021-08-21T15:54:49Z</time>
      </trkpt>
      <trkpt lat="2.763317" lon="-75.07413">
        <ele>2034.1</ele>
        <time>2021-08-21T15:54:50Z</time>
      </trkpt>
      <trkpt lat="2.763307" lon="-75.07413">
        <ele>2034.2</ele>
        <time>2021-08-21T15:54:51Z</time>
      </trkpt>
      <trkpt lat="2.763297" lon="-75.07413">
        <ele>2034.3</ele>
        <time>2021-08-21T15:54:52Z</time>
      </trkpt>
      <trkpt lat="2.763288" lon="-75.07412">
        <ele>2034.4</ele>
        <time>2021-08-21T15:54:53Z</time>
      </trkpt>
      <trkpt lat="2.763277" lon="-75.07412">
        <ele>2034.5</ele>
        <time>2021-08-21T15:54:54Z</time>
      </trkpt>
      <trkpt lat="2.763266" lon="-75.07412">
        <ele>2034.6</ele>
        <time>2021-08-21T15:54:55Z</time>
      </trkpt>
      <trkpt lat="2.763255" lon="-75.07411">
        <ele>2034.8</ele>
        <time>2021-08-21T15:54:56Z</time>
      </trkpt>
      <trkpt lat="2.763244" lon="-75.07411">
        <ele>2034.9</ele>
        <time>2021-08-21T15:54:57Z</time>
      </trkpt>
      <trkpt lat="2.763232" lon="-75.074104">
        <ele>2035.0</ele>
        <time>2021-08-21T15:54:58Z</time>
      </trkpt>
      <trkpt lat="2.763219" lon="-75.074104">
        <ele>2035.1</ele>
        <time>2021-08-21T15:54:59Z</time>
      </trkpt>
      <trkpt lat="2.763208" lon="-75.074104">
        <ele>2035.2</ele>
        <time>2021-08-21T15:55:00Z</time>
      </trkpt>
      <trkpt lat="2.763196" lon="-75.0741">
        <ele>2035.4</ele>
        <time>2021-08-21T15:55:01Z</time>
      </trkpt>
      <trkpt lat="2.763184" lon="-75.0741">
        <ele>2035.5</ele>
        <time>2021-08-21T15:55:02Z</time>
      </trkpt>
      <trkpt lat="2.763173" lon="-75.07409">
        <ele>2035.6</ele>
        <time>2021-08-21T15:55:03Z</time>
      </trkpt>
      <trkpt lat="2.763163" lon="-75.07409">
        <ele>2035.7</ele>
        <time>2021-08-21T15:55:04Z</time>
      </trkpt>
      <trkpt lat="2.763152" lon="-75.07408">
        <ele>2035.8</ele>
        <time>2021-08-21T15:55:05Z</time>
      </trkpt>
      <trkpt lat="2.763141" lon="-75.07408">
        <ele>2035.9</ele>
        <time>2021-08-21T15:55:06Z</time>
      </trkpt>
      <trkpt lat="2.763131" lon="-75.07408">
        <ele>2036.0</ele>
        <time>2021-08-21T15:55:07Z</time>
      </trkpt>
      <trkpt lat="2.763119" lon="-75.07407">
        <ele>2036.1</ele>
        <time>2021-08-21T15:55:08Z</time>
      </trkpt>
      <trkpt lat="2.763108" lon="-75.07407">
        <ele>2036.2</ele>
        <time>2021-08-21T15:55:09Z</time>
      </trkpt>
      <trkpt lat="2.763096" lon="-75.07407">
        <ele>2036.4</ele>
        <time>2021-08-21T15:55:10Z</time>
      </trkpt>
      <trkpt lat="2.763084" lon="-75.07407">
        <ele>2036.5</ele>
        <time>2021-08-21T15:55:11Z</time>
      </trkpt>
      <trkpt lat="2.763074" lon="-75.074066">
        <ele>2036.6</ele>
        <time>2021-08-21T15:55:12Z</time>
      </trkpt>
      <trkpt lat="2.763065" lon="-75.07406">
        <ele>2036.7</ele>
        <time>2021-08-21T15:55:13Z</time>
      </trkpt>
      <trkpt lat="2.763056" lon="-75.07406">
        <ele>2036.8</ele>
        <time>2021-08-21T15:55:14Z</time>
      </trkpt>
      <trkpt lat="2.763044" lon="-75.07405">
        <ele>2036.9</ele>
        <time>2021-08-21T15:55:15Z</time>
      </trkpt>
      <trkpt lat="2.763032" lon="-75.07404">
        <ele>2037.0</ele>
        <time>2021-08-21T15:55:16Z</time>
      </trkpt>
      <trkpt lat="2.763021" lon="-75.07404">
        <ele>2037.1</ele>
        <time>2021-08-21T15:55:17Z</time>
      </trkpt>
      <trkpt lat="2.763009" lon="-75.07404">
        <ele>2037.2</ele>
        <time>2021-08-21T15:55:18Z</time>
      </trkpt>
      <trkpt lat="2.762996" lon="-75.074036">
        <ele>2037.4</ele>
        <time>2021-08-21T15:55:19Z</time>
      </trkpt>
      <trkpt lat="2.762984" lon="-75.074036">
        <ele>2037.5</ele>
        <time>2021-08-21T15:55:20Z</time>
      </trkpt>
      <trkpt lat="2.762972" lon="-75.074036">
        <ele>2037.6</ele>
        <time>2021-08-21T15:55:21Z</time>
      </trkpt>
      <trkpt lat="2.762961" lon="-75.074036">
        <ele>2037.6</ele>
        <time>2021-08-21T15:55:22Z</time>
      </trkpt>
      <trkpt lat="2.762949" lon="-75.07403">
        <ele>2037.7</ele>
        <time>2021-08-21T15:55:23Z</time>
      </trkpt>
      <trkpt lat="2.762937" lon="-75.07403">
        <ele>2037.8</ele>
        <time>2021-08-21T15:55:24Z</time>
      </trkpt>
      <trkpt lat="2.762926" lon="-75.07402">
        <ele>2037.9</ele>
        <time>2021-08-21T15:55:25Z</time>
      </trkpt>
      <trkpt lat="2.762914" lon="-75.07402">
        <ele>2038.0</ele>
        <time>2021-08-21T15:55:26Z</time>
      </trkpt>
      <trkpt lat="2.762903" lon="-75.07402">
        <ele>2038.1</ele>
        <time>2021-08-21T15:55:27Z</time>
      </trkpt>
      <trkpt lat="2.762892" lon="-75.07401">
        <ele>2038.2</ele>
        <time>2021-08-21T15:55:28Z</time>
      </trkpt>
      <trkpt lat="2.762881" lon="-75.07401">
        <ele>2038.3</ele>
        <time>2021-08-21T15:55:29Z</time>
      </trkpt>
      <trkpt lat="2.76287" lon="-75.07401">
        <ele>2038.4</ele>
        <time>2021-08-21T15:55:30Z</time>
      </trkpt>
      <trkpt lat="2.76286" lon="-75.074005">
        <ele>2038.5</ele>
        <time>2021-08-21T15:55:31Z</time>
      </trkpt>
      <trkpt lat="2.762848" lon="-75.074005">
        <ele>2038.6</ele>
        <time>2021-08-21T15:55:32Z</time>
      </trkpt>
      <trkpt lat="2.762837" lon="-75.074005">
        <ele>2038.7</ele>
        <time>2021-08-21T15:55:33Z</time>
      </trkpt>
      <trkpt lat="2.762826" lon="-75.074005">
        <ele>2038.8</ele>
        <time>2021-08-21T15:55:34Z</time>
      </trkpt>
      <trkpt lat="2.762813" lon="-75.074">
        <ele>2038.9</ele>
        <time>2021-08-21T15:55:35Z</time>
      </trkpt>
      <trkpt lat="2.762802" lon="-75.074">
        <ele>2039.0</ele>
        <time>2021-08-21T15:55:36Z</time>
      </trkpt>
      <trkpt lat="2.76279" lon="-75.074">
        <ele>2039.1</ele>
        <time>2021-08-21T15:55:37Z</time>
      </trkpt>
      <trkpt lat="2.762777" lon="-75.074">
        <ele>2039.2</ele>
        <time>2021-08-21T15:55:38Z</time>
      </trkpt>
      <trkpt lat="2.762766" lon="-75.074">
        <ele>2039.3</ele>
        <time>2021-08-21T15:55:39Z</time>
      </trkpt>
      <trkpt lat="2.762754" lon="-75.074">
        <ele>2039.4</ele>
        <time>2021-08-21T15:55:40Z</time>
      </trkpt>
      <trkpt lat="2.762742" lon="-75.074">
        <ele>2039.5</ele>
        <time>2021-08-21T15:55:41Z</time>
      </trkpt>
      <trkpt lat="2.76273" lon="-75.074">
        <ele>2039.6</ele>
        <time>2021-08-21T15:55:42Z</time>
      </trkpt>
      <trkpt lat="2.762717" lon="-75.074">
        <ele>2039.7</ele>
        <time>2021-08-21T15:55:43Z</time>
      </trkpt>
      <trkpt lat="2.762705" lon="-75.074005">
        <ele>2039.8</ele>
        <time>2021-08-21T15:55:44Z</time>
      </trkpt>
      <trkpt lat="2.762693" lon="-75.074005">
        <ele>2039.9</ele>
        <time>2021-08-21T15:55:45Z</time>
      </trkpt>
      <trkpt lat="2.762683" lon="-75.074005">
        <ele>2040.0</ele>
        <time>2021-08-21T15:55:46Z</time>
      </trkpt>
      <trkpt lat="2.762671" lon="-75.07401">
        <ele>2040.1</ele>
        <time>2021-08-21T15:55:47Z</time>
      </trkpt>
      <trkpt lat="2.762659" lon="-75.07401">
        <ele>2040.3</ele>
        <time>2021-08-21T15:55:48Z</time>
      </trkpt>
      <trkpt lat="2.762648" lon="-75.07402">
        <ele>2040.4</ele>
        <time>2021-08-21T15:55:49Z</time>
      </trkpt>
      <trkpt lat="2.762637" lon="-75.07402">
        <ele>2040.5</ele>
        <time>2021-08-21T15:55:50Z</time>
      </trkpt>
      <trkpt lat="2.762626" lon="-75.07402">
        <ele>2040.6</ele>
        <time>2021-08-21T15:55:51Z</time>
      </trkpt>
      <trkpt lat="2.762615" lon="-75.07403">
        <ele>2040.7</ele>
        <time>2021-08-21T15:55:52Z</time>
      </trkpt>
      <trkpt lat="2.762605" lon="-75.07403">
        <ele>2040.8</ele>
        <time>2021-08-21T15:55:53Z</time>
      </trkpt>
      <trkpt lat="2.762593" lon="-75.074036">
        <ele>2040.9</ele>
        <time>2021-08-21T15:55:54Z</time>
      </trkpt>
      <trkpt lat="2.762584" lon="-75.074036">
        <ele>2041.0</ele>
        <time>2021-08-21T15:55:55Z</time>
      </trkpt>
      <trkpt lat="2.762573" lon="-75.074036">
        <ele>2041.1</ele>
        <time>2021-08-21T15:55:56Z</time>
      </trkpt>
      <trkpt lat="2.762562" lon="-75.07404">
        <ele>2041.2</ele>
        <time>2021-08-21T15:55:57Z</time>
      </trkpt>
      <trkpt lat="2.762551" lon="-75.07404">
        <ele>2041.3</ele>
        <time>2021-08-21T15:55:58Z</time>
      </trkpt>
      <trkpt lat="2.76254" lon="-75.07405">
        <ele>2041.4</ele>
        <time>2021-08-21T15:55:59Z</time>
      </trkpt>
      <trkpt lat="2.76253" lon="-75.07405">
        <ele>2041.5</ele>
        <time>2021-08-21T15:56:00Z</time>
      </trkpt>
      <trkpt lat="2.762519" lon="-75.07406">
        <ele>2041.6</ele>
        <time>2021-08-21T15:56:01Z</time>
      </trkpt>
      <trkpt lat="2.762509" lon="-75.07406">
        <ele>2041.8</ele>
        <time>2021-08-21T15:56:02Z</time>
      </trkpt>
      <trkpt lat="2.762499" lon="-75.074066">
        <ele>2041.9</ele>
        <time>2021-08-21T15:56:03Z</time>
      </trkpt>
      <trkpt lat="2.762489" lon="-75.074066">
        <ele>2042.0</ele>
        <time>2021-08-21T15:56:04Z</time>
      </trkpt>
      <trkpt lat="2.762479" lon="-75.07407">
        <ele>2042.1</ele>
        <time>2021-08-21T15:56:05Z</time>
      </trkpt>
      <trkpt lat="2.76247" lon="-75.07408">
        <ele>2042.2</ele>
        <time>2021-08-21T15:56:06Z</time>
      </trkpt>
      <trkpt lat="2.76246" lon="-75.07408">
        <ele>2042.3</ele>
        <time>2021-08-21T15:56:07Z</time>
      </trkpt>
      <trkpt lat="2.762449" lon="-75.07409">
        <ele>2042.4</ele>
        <time>2021-08-21T15:56:08Z</time>
      </trkpt>
      <trkpt lat="2.762438" lon="-75.07409">
        <ele>2042.5</ele>
        <time>2021-08-21T15:56:09Z</time>
      </trkpt>
      <trkpt lat="2.762429" lon="-75.0741">
        <ele>2042.6</ele>
        <time>2021-08-21T15:56:10Z</time>
      </trkpt>
      <trkpt lat="2.76242" lon="-75.074104">
        <ele>2042.7</ele>
        <time>2021-08-21T15:56:11Z</time>
      </trkpt>
      <trkpt lat="2.76241" lon="-75.074104">
        <ele>2042.9</ele>
        <time>2021-08-21T15:56:12Z</time>
      </trkpt>
      <trkpt lat="2.762401" lon="-75.07411">
        <ele>2043.0</ele>
        <time>2021-08-21T15:56:13Z</time>
      </trkpt>
      <trkpt lat="2.762392" lon="-75.07412">
        <ele>2043.1</ele>
        <time>2021-08-21T15:56:14Z</time>
      </trkpt>
      <trkpt lat="2.762382" lon="-75.07412">
        <ele>2043.2</ele>
        <time>2021-08-21T15:56:15Z</time>
      </trkpt>
      <trkpt lat="2.762372" lon="-75.07413">
        <ele>2043.3</ele>
        <time>2021-08-21T15:56:16Z</time>
      </trkpt>
      <trkpt lat="2.762362" lon="-75.074135">
        <ele>2043.4</ele>
        <time>2021-08-21T15:56:17Z</time>
      </trkpt>
      <trkpt lat="2.762351" lon="-75.074135">
        <ele>2043.5</ele>
        <time>2021-08-21T15:56:18Z</time>
      </trkpt>
      <trkpt lat="2.76234" lon="-75.07414">
        <ele>2043.6</ele>
        <time>2021-08-21T15:56:19Z</time>
      </trkpt>
      <trkpt lat="2.76233" lon="-75.07414">
        <ele>2043.7</ele>
        <time>2021-08-21T15:56:20Z</time>
      </trkpt>
      <trkpt lat="2.76232" lon="-75.07415">
        <ele>2043.8</ele>
        <time>2021-08-21T15:56:21Z</time>
      </trkpt>
      <trkpt lat="2.762309" lon="-75.07416">
        <ele>2043.9</ele>
        <time>2021-08-21T15:56:22Z</time>
      </trkpt>
      <trkpt lat="2.762298" lon="-75.07416">
        <ele>2044.0</ele>
        <time>2021-08-21T15:56:23Z</time>
      </trkpt>
      <trkpt lat="2.762287" lon="-75.074165">
        <ele>2044.1</ele>
        <time>2021-08-21T15:56:24Z</time>
      </trkpt>
      <trkpt lat="2.762277" lon="-75.074165">
        <ele>2044.2</ele>
        <time>2021-08-21T15:56:25Z</time>
      </trkpt>
      <trkpt lat="2.762266" lon="-75.07417">
        <ele>2044.3</ele>
        <time>2021-08-21T15:56:26Z</time>
      </trkpt>
      <trkpt lat="2.762256" lon="-75.07418">
        <ele>2044.4</ele>
        <time>2021-08-21T15:56:27Z</time>
      </trkpt>
      <trkpt lat="2.762245" lon="-75.07418">
        <ele>2044.5</ele>
        <time>2021-08-21T15:56:28Z</time>
      </trkpt>
      <trkpt lat="2.762234" lon="-75.07418">
        <ele>2044.6</ele>
        <time>2021-08-21T15:56:29Z</time>
      </trkpt>
      <trkpt lat="2.762222" lon="-75.07419">
        <ele>2044.7</ele>
        <time>2021-08-21T15:56:30Z</time>
      </trkpt>
      <trkpt lat="2.762211" lon="-75.07419">
        <ele>2044.8</ele>
        <time>2021-08-21T15:56:31Z</time>
      </trkpt>
      <trkpt lat="2.7622" lon="-75.074196">
        <ele>2044.9</ele>
        <time>2021-08-21T15:56:32Z</time>
      </trkpt>
      <trkpt lat="2.762188" lon="-75.0742">
        <ele>2045.0</ele>
        <time>2021-08-21T15:56:33Z</time>
      </trkpt>
      <trkpt lat="2.762176" lon="-75.0742">
        <ele>2045.1</ele>
        <time>2021-08-21T15:56:34Z</time>
      </trkpt>
      <trkpt lat="2.762164" lon="-75.0742">
        <ele>2045.2</ele>
        <time>2021-08-21T15:56:35Z</time>
      </trkpt>
      <trkpt lat="2.762151" lon="-75.0742">
        <ele>2045.3</ele>
        <time>2021-08-21T15:56:36Z</time>
      </trkpt>
      <trkpt lat="2.76214" lon="-75.07421">
        <ele>2045.4</ele>
        <time>2021-08-21T15:56:37Z</time>
      </trkpt>
      <trkpt lat="2.762129" lon="-75.07421">
        <ele>2045.5</ele>
        <time>2021-08-21T15:56:38Z</time>
      </trkpt>
      <trkpt lat="2.762119" lon="-75.07421">
        <ele>2045.6</ele>
        <time>2021-08-21T15:56:39Z</time>
      </trkpt>
      <trkpt lat="2.762108" lon="-75.07422">
        <ele>2045.7</ele>
        <time>2021-08-21T15:56:40Z</time>
      </trkpt>
      <trkpt lat="2.762097" lon="-75.07423">
        <ele>2045.8</ele>
        <time>2021-08-21T15:56:41Z</time>
      </trkpt>
      <trkpt lat="2.762086" lon="-75.07423">
        <ele>2045.9</ele>
        <time>2021-08-21T15:56:42Z</time>
      </trkpt>
      <trkpt lat="2.762074" lon="-75.074234">
        <ele>2046.0</ele>
        <time>2021-08-21T15:56:43Z</time>
      </trkpt>
      <trkpt lat="2.762064" lon="-75.074234">
        <ele>2046.1</ele>
        <time>2021-08-21T15:56:44Z</time>
      </trkpt>
      <trkpt lat="2.762053" lon="-75.07424">
        <ele>2046.2</ele>
        <time>2021-08-21T15:56:45Z</time>
      </trkpt>
      <trkpt lat="2.762043" lon="-75.07424">
        <ele>2046.3</ele>
        <time>2021-08-21T15:56:46Z</time>
      </trkpt>
      <trkpt lat="2.762033" lon="-75.07425">
        <ele>2046.4</ele>
        <time>2021-08-21T15:56:47Z</time>
      </trkpt>
      <trkpt lat="2.762023" lon="-75.07425">
        <ele>2046.5</ele>
        <time>2021-08-21T15:56:48Z</time>
      </trkpt>
      <trkpt lat="2.762013" lon="-75.07426">
        <ele>2046.6</ele>
        <time>2021-08-21T15:56:49Z</time>
      </trkpt>
      <trkpt lat="2.762003" lon="-75.07426">
        <ele>2046.6</ele>
        <time>2021-08-21T15:56:50Z</time>
      </trkpt>
      <trkpt lat="2.761991" lon="-75.074265">
        <ele>2046.7</ele>
        <time>2021-08-21T15:56:51Z</time>
      </trkpt>
      <trkpt lat="2.76198" lon="-75.07427">
        <ele>2046.8</ele>
        <time>2021-08-21T15:56:52Z</time>
      </trkpt>
      <trkpt lat="2.761969" lon="-75.07427">
        <ele>2046.9</ele>
        <time>2021-08-21T15:56:53Z</time>
      </trkpt>
      <trkpt lat="2.761958" lon="-75.07428">
        <ele>2047.0</ele>
        <time>2021-08-21T15:56:54Z</time>
      </trkpt>
      <trkpt lat="2.761947" lon="-75.07428">
        <ele>2047.1</ele>
        <time>2021-08-21T15:56:55Z</time>
      </trkpt>
      <trkpt lat="2.761936" lon="-75.07429">
        <ele>2047.1</ele>
        <time>2021-08-21T15:56:56Z</time>
      </trkpt>
      <trkpt lat="2.761924" lon="-75.074295">
        <ele>2047.2</ele>
        <time>2021-08-21T15:56:57Z</time>
      </trkpt>
      <trkpt lat="2.761913" lon="-75.074295">
        <ele>2047.3</ele>
        <time>2021-08-21T15:56:58Z</time>
      </trkpt>
      <trkpt lat="2.761902" lon="-75.0743">
        <ele>2047.4</ele>
        <time>2021-08-21T15:56:59Z</time>
      </trkpt>
      <trkpt lat="2.76189" lon="-75.0743">
        <ele>2047.5</ele>
        <time>2021-08-21T15:57:00Z</time>
      </trkpt>
      <trkpt lat="2.761878" lon="-75.07431">
        <ele>2047.6</ele>
        <time>2021-08-21T15:57:01Z</time>
      </trkpt>
      <trkpt lat="2.761865" lon="-75.07431">
        <ele>2047.6</ele>
        <time>2021-08-21T15:57:02Z</time>
      </trkpt>
      <trkpt lat="2.761853" lon="-75.07432">
        <ele>2047.7</ele>
        <time>2021-08-21T15:57:03Z</time>
      </trkpt>
      <trkpt lat="2.761842" lon="-75.07432">
        <ele>2047.8</ele>
        <time>2021-08-21T15:57:04Z</time>
      </trkpt>
      <trkpt lat="2.76183" lon="-75.074326">
        <ele>2047.9</ele>
        <time>2021-08-21T15:57:05Z</time>
      </trkpt>
      <trkpt lat="2.761818" lon="-75.074326">
        <ele>2048.0</ele>
        <time>2021-08-21T15:57:06Z</time>
      </trkpt>
      <trkpt lat="2.761806" lon="-75.07433">
        <ele>2048.1</ele>
        <time>2021-08-21T15:57:07Z</time>
      </trkpt>
      <trkpt lat="2.761794" lon="-75.07433">
        <ele>2048.2</ele>
        <time>2021-08-21T15:57:08Z</time>
      </trkpt>
      <trkpt lat="2.761783" lon="-75.07434">
        <ele>2048.3</ele>
        <time>2021-08-21T15:57:09Z</time>
      </trkpt>
      <trkpt lat="2.76177" lon="-75.07434">
        <ele>2048.4</ele>
        <time>2021-08-21T15:57:10Z</time>
      </trkpt>
      <trkpt lat="2.761758" lon="-75.07435">
        <ele>2048.5</ele>
        <time>2021-08-21T15:57:11Z</time>
      </trkpt>
      <trkpt lat="2.761747" lon="-75.07435">
        <ele>2048.6</ele>
        <time>2021-08-21T15:57:12Z</time>
      </trkpt>
      <trkpt lat="2.761736" lon="-75.074356">
        <ele>2048.7</ele>
        <time>2021-08-21T15:57:13Z</time>
      </trkpt>
      <trkpt lat="2.761725" lon="-75.074356">
        <ele>2048.8</ele>
        <time>2021-08-21T15:57:14Z</time>
      </trkpt>
      <trkpt lat="2.761714" lon="-75.07436">
        <ele>2048.9</ele>
        <time>2021-08-21T15:57:15Z</time>
      </trkpt>
      <trkpt lat="2.761703" lon="-75.07437">
        <ele>2049.0</ele>
        <time>2021-08-21T15:57:16Z</time>
      </trkpt>
      <trkpt lat="2.76168" lon="-75.07438">
        <ele>2049.2</ele>
        <time>2021-08-21T15:57:17Z</time>
      </trkpt>
      <trkpt lat="2.761669" lon="-75.07438">
        <ele>2049.3</ele>
        <time>2021-08-21T15:57:18Z</time>
      </trkpt>
      <trkpt lat="2.761658" lon="-75.07439">
        <ele>2049.4</ele>
        <time>2021-08-21T15:57:19Z</time>
      </trkpt>
      <trkpt lat="2.761647" lon="-75.074394">
        <ele>2049.5</ele>
        <time>2021-08-21T15:57:20Z</time>
      </trkpt>
      <trkpt lat="2.761635" lon="-75.074394">
        <ele>2049.6</ele>
        <time>2021-08-21T15:57:21Z</time>
      </trkpt>
      <trkpt lat="2.761624" lon="-75.0744">
        <ele>2049.7</ele>
        <time>2021-08-21T15:57:22Z</time>
      </trkpt>
      <trkpt lat="2.761613" lon="-75.07441">
        <ele>2049.8</ele>
        <time>2021-08-21T15:57:23Z</time>
      </trkpt>
      <trkpt lat="2.761602" lon="-75.07441">
        <ele>2049.9</ele>
        <time>2021-08-21T15:57:24Z</time>
      </trkpt>
      <trkpt lat="2.761591" lon="-75.07442">
        <ele>2050.0</ele>
        <time>2021-08-21T15:57:25Z</time>
      </trkpt>
      <trkpt lat="2.76158" lon="-75.07442">
        <ele>2050.1</ele>
        <time>2021-08-21T15:57:26Z</time>
      </trkpt>
      <trkpt lat="2.761569" lon="-75.074425">
        <ele>2050.2</ele>
        <time>2021-08-21T15:57:27Z</time>
      </trkpt>
      <trkpt lat="2.761558" lon="-75.07443">
        <ele>2050.3</ele>
        <time>2021-08-21T15:57:28Z</time>
      </trkpt>
      <trkpt lat="2.761547" lon="-75.07443">
        <ele>2050.3</ele>
        <time>2021-08-21T15:57:29Z</time>
      </trkpt>
      <trkpt lat="2.761535" lon="-75.07444">
        <ele>2050.4</ele>
        <time>2021-08-21T15:57:30Z</time>
      </trkpt>
      <trkpt lat="2.761524" lon="-75.07445">
        <ele>2050.5</ele>
        <time>2021-08-21T15:57:31Z</time>
      </trkpt>
      <trkpt lat="2.761513" lon="-75.07445">
        <ele>2050.6</ele>
        <time>2021-08-21T15:57:32Z</time>
      </trkpt>
      <trkpt lat="2.761502" lon="-75.074455">
        <ele>2050.7</ele>
        <time>2021-08-21T15:57:33Z</time>
      </trkpt>
      <trkpt lat="2.761491" lon="-75.074455">
        <ele>2050.8</ele>
        <time>2021-08-21T15:57:34Z</time>
      </trkpt>
      <trkpt lat="2.76148" lon="-75.07446">
        <ele>2050.9</ele>
        <time>2021-08-21T15:57:35Z</time>
      </trkpt>
      <trkpt lat="2.761469" lon="-75.07447">
        <ele>2050.9</ele>
        <time>2021-08-21T15:57:36Z</time>
      </trkpt>
      <trkpt lat="2.761458" lon="-75.07447">
        <ele>2051.0</ele>
        <time>2021-08-21T15:57:37Z</time>
      </trkpt>
      <trkpt lat="2.761446" lon="-75.07448">
        <ele>2051.1</ele>
        <time>2021-08-21T15:57:38Z</time>
      </trkpt>
      <trkpt lat="2.761435" lon="-75.074486">
        <ele>2051.2</ele>
        <time>2021-08-21T15:57:39Z</time>
      </trkpt>
      <trkpt lat="2.761424" lon="-75.074486">
        <ele>2051.3</ele>
        <time>2021-08-21T15:57:40Z</time>
      </trkpt>
      <trkpt lat="2.761413" lon="-75.07449">
        <ele>2051.3</ele>
        <time>2021-08-21T15:57:41Z</time>
      </trkpt>
      <trkpt lat="2.761402" lon="-75.07449">
        <ele>2051.4</ele>
        <time>2021-08-21T15:57:42Z</time>
      </trkpt>
      <trkpt lat="2.761391" lon="-75.0745">
        <ele>2051.5</ele>
        <time>2021-08-21T15:57:43Z</time>
      </trkpt>
      <trkpt lat="2.76138" lon="-75.07451">
        <ele>2051.5</ele>
        <time>2021-08-21T15:57:44Z</time>
      </trkpt>
      <trkpt lat="2.761369" lon="-75.07451">
        <ele>2051.6</ele>
        <time>2021-08-21T15:57:45Z</time>
      </trkpt>
      <trkpt lat="2.761358" lon="-75.07452">
        <ele>2051.7</ele>
        <time>2021-08-21T15:57:46Z</time>
      </trkpt>
      <trkpt lat="2.761346" lon="-75.07452">
        <ele>2051.8</ele>
        <time>2021-08-21T15:57:47Z</time>
      </trkpt>
      <trkpt lat="2.761335" lon="-75.074524">
        <ele>2051.8</ele>
        <time>2021-08-21T15:57:48Z</time>
      </trkpt>
      <trkpt lat="2.761324" lon="-75.07453">
        <ele>2051.9</ele>
        <time>2021-08-21T15:57:49Z</time>
      </trkpt>
      <trkpt lat="2.761313" lon="-75.07453">
        <ele>2052.0</ele>
        <time>2021-08-21T15:57:50Z</time>
      </trkpt>
      <trkpt lat="2.761302" lon="-75.07454">
        <ele>2052.1</ele>
        <time>2021-08-21T15:57:51Z</time>
      </trkpt>
      <trkpt lat="2.761291" lon="-75.07455">
        <ele>2052.2</ele>
        <time>2021-08-21T15:57:52Z</time>
      </trkpt>
      <trkpt lat="2.76128" lon="-75.07455">
        <ele>2052.3</ele>
        <time>2021-08-21T15:57:53Z</time>
      </trkpt>
      <trkpt lat="2.761269" lon="-75.074554">
        <ele>2052.4</ele>
        <time>2021-08-21T15:57:54Z</time>
      </trkpt>
      <trkpt lat="2.761258" lon="-75.074554">
        <ele>2052.6</ele>
        <time>2021-08-21T15:57:55Z</time>
      </trkpt>
      <trkpt lat="2.761246" lon="-75.07456">
        <ele>2052.7</ele>
        <time>2021-08-21T15:57:56Z</time>
      </trkpt>
      <trkpt lat="2.761235" lon="-75.07457">
        <ele>2052.8</ele>
        <time>2021-08-21T15:57:57Z</time>
      </trkpt>
      <trkpt lat="2.761224" lon="-75.07457">
        <ele>2052.9</ele>
        <time>2021-08-21T15:57:58Z</time>
      </trkpt>
      <trkpt lat="2.761213" lon="-75.07458">
        <ele>2053.0</ele>
        <time>2021-08-21T15:57:59Z</time>
      </trkpt>
      <trkpt lat="2.761202" lon="-75.07458">
        <ele>2053.1</ele>
        <time>2021-08-21T15:58:00Z</time>
      </trkpt>
      <trkpt lat="2.761191" lon="-75.074585">
        <ele>2053.2</ele>
        <time>2021-08-21T15:58:01Z</time>
      </trkpt>
      <trkpt lat="2.76118" lon="-75.07459">
        <ele>2053.3</ele>
        <time>2021-08-21T15:58:02Z</time>
      </trkpt>
      <trkpt lat="2.761169" lon="-75.07459">
        <ele>2053.4</ele>
        <time>2021-08-21T15:58:03Z</time>
      </trkpt>
      <trkpt lat="2.761157" lon="-75.0746">
        <ele>2053.5</ele>
        <time>2021-08-21T15:58:04Z</time>
      </trkpt>
      <trkpt lat="2.761146" lon="-75.07461">
        <ele>2053.6</ele>
        <time>2021-08-21T15:58:05Z</time>
      </trkpt>
      <trkpt lat="2.761135" lon="-75.07461">
        <ele>2053.7</ele>
        <time>2021-08-21T15:58:06Z</time>
      </trkpt>
      <trkpt lat="2.761113" lon="-75.074615">
        <ele>2053.9</ele>
        <time>2021-08-21T15:58:07Z</time>
      </trkpt>
      <trkpt lat="2.761124" lon="-75.074615">
        <ele>2053.8</ele>
        <time>2021-08-21T15:58:07Z</time>
      </trkpt>
      <trkpt lat="2.761098" lon="-75.07462">
        <ele>2054.0</ele>
        <time>2021-08-21T15:58:08Z</time>
      </trkpt>
      <trkpt lat="2.761082" lon="-75.07462">
        <ele>2054.1</ele>
        <time>2021-08-21T15:58:09Z</time>
      </trkpt>
      <trkpt lat="2.761066" lon="-75.07463">
        <ele>2054.2</ele>
        <time>2021-08-21T15:58:10Z</time>
      </trkpt>
      <trkpt lat="2.76105" lon="-75.07463">
        <ele>2054.3</ele>
        <time>2021-08-21T15:58:11Z</time>
      </trkpt>
      <trkpt lat="2.761034" lon="-75.07463">
        <ele>2054.4</ele>
        <time>2021-08-21T15:58:12Z</time>
      </trkpt>
      <trkpt lat="2.761017" lon="-75.07464">
        <ele>2054.6</ele>
        <time>2021-08-21T15:58:13Z</time>
      </trkpt>
      <trkpt lat="2.761002" lon="-75.07464">
        <ele>2054.6</ele>
        <time>2021-08-21T15:58:14Z</time>
      </trkpt>
      <trkpt lat="2.760988" lon="-75.074646">
        <ele>2054.7</ele>
        <time>2021-08-21T15:58:15Z</time>
      </trkpt>
      <trkpt lat="2.760972" lon="-75.074646">
        <ele>2054.8</ele>
        <time>2021-08-21T15:58:16Z</time>
      </trkpt>
      <trkpt lat="2.760956" lon="-75.07465">
        <ele>2054.9</ele>
        <time>2021-08-21T15:58:17Z</time>
      </trkpt>
      <trkpt lat="2.760942" lon="-75.07465">
        <ele>2055.0</ele>
        <time>2021-08-21T15:58:18Z</time>
      </trkpt>
      <trkpt lat="2.760928" lon="-75.07466">
        <ele>2055.1</ele>
        <time>2021-08-21T15:58:19Z</time>
      </trkpt>
      <trkpt lat="2.760914" lon="-75.07466">
        <ele>2055.2</ele>
        <time>2021-08-21T15:58:20Z</time>
      </trkpt>
      <trkpt lat="2.760899" lon="-75.07467">
        <ele>2055.3</ele>
        <time>2021-08-21T15:58:21Z</time>
      </trkpt>
      <trkpt lat="2.760883" lon="-75.07467">
        <ele>2055.4</ele>
        <time>2021-08-21T15:58:22Z</time>
      </trkpt>
      <trkpt lat="2.760868" lon="-75.07468">
        <ele>2055.4</ele>
        <time>2021-08-21T15:58:23Z</time>
      </trkpt>
      <trkpt lat="2.760854" lon="-75.074684">
        <ele>2055.5</ele>
        <time>2021-08-21T15:58:24Z</time>
      </trkpt>
      <trkpt lat="2.760839" lon="-75.07469">
        <ele>2055.6</ele>
        <time>2021-08-21T15:58:25Z</time>
      </trkpt>
      <trkpt lat="2.760824" lon="-75.07469">
        <ele>2055.7</ele>
        <time>2021-08-21T15:58:26Z</time>
      </trkpt>
      <trkpt lat="2.760808" lon="-75.0747">
        <ele>2055.8</ele>
        <time>2021-08-21T15:58:27Z</time>
      </trkpt>
      <trkpt lat="2.760793" lon="-75.07471">
        <ele>2055.9</ele>
        <time>2021-08-21T15:58:28Z</time>
      </trkpt>
      <trkpt lat="2.760778" lon="-75.074715">
        <ele>2056.0</ele>
        <time>2021-08-21T15:58:29Z</time>
      </trkpt>
      <trkpt lat="2.760763" lon="-75.074715">
        <ele>2056.1</ele>
        <time>2021-08-21T15:58:30Z</time>
      </trkpt>
      <trkpt lat="2.760748" lon="-75.07472">
        <ele>2056.2</ele>
        <time>2021-08-21T15:58:31Z</time>
      </trkpt>
      <trkpt lat="2.760731" lon="-75.07473">
        <ele>2056.3</ele>
        <time>2021-08-21T15:58:32Z</time>
      </trkpt>
      <trkpt lat="2.760654" lon="-75.07477">
        <ele>2056.7</ele>
        <time>2021-08-21T15:58:34Z</time>
      </trkpt>
      <trkpt lat="2.76065" lon="-75.07477">
        <ele>2056.8</ele>
        <time>2021-08-21T15:58:35Z</time>
      </trkpt>
      <trkpt lat="2.760641" lon="-75.074776">
        <ele>2056.8</ele>
        <time>2021-08-21T15:58:36Z</time>
      </trkpt>
      <trkpt lat="2.76063" lon="-75.074776">
        <ele>2056.9</ele>
        <time>2021-08-21T15:58:37Z</time>
      </trkpt>
      <trkpt lat="2.760617" lon="-75.07478">
        <ele>2057.0</ele>
        <time>2021-08-21T15:58:38Z</time>
      </trkpt>
      <trkpt lat="2.760603" lon="-75.07479">
        <ele>2057.0</ele>
        <time>2021-08-21T15:58:39Z</time>
      </trkpt>
      <trkpt lat="2.76059" lon="-75.07479">
        <ele>2057.1</ele>
        <time>2021-08-21T15:58:40Z</time>
      </trkpt>
      <trkpt lat="2.760577" lon="-75.07479">
        <ele>2057.2</ele>
        <time>2021-08-21T15:58:41Z</time>
      </trkpt>
      <trkpt lat="2.760563" lon="-75.0748">
        <ele>2057.3</ele>
        <time>2021-08-21T15:58:42Z</time>
      </trkpt>
      <trkpt lat="2.760548" lon="-75.0748">
        <ele>2057.4</ele>
        <time>2021-08-21T15:58:43Z</time>
      </trkpt>
      <trkpt lat="2.760535" lon="-75.07481">
        <ele>2057.4</ele>
        <time>2021-08-21T15:58:44Z</time>
      </trkpt>
      <trkpt lat="2.76052" lon="-75.07481">
        <ele>2057.5</ele>
        <time>2021-08-21T15:58:45Z</time>
      </trkpt>
      <trkpt lat="2.760507" lon="-75.074814">
        <ele>2057.6</ele>
        <time>2021-08-21T15:58:46Z</time>
      </trkpt>
      <trkpt lat="2.760493" lon="-75.07482">
        <ele>2057.7</ele>
        <time>2021-08-21T15:58:47Z</time>
      </trkpt>
      <trkpt lat="2.76048" lon="-75.07483">
        <ele>2057.8</ele>
        <time>2021-08-21T15:58:48Z</time>
      </trkpt>
      <trkpt lat="2.760468" lon="-75.07483">
        <ele>2057.8</ele>
        <time>2021-08-21T15:58:49Z</time>
      </trkpt>
      <trkpt lat="2.760456" lon="-75.07484">
        <ele>2057.9</ele>
        <time>2021-08-21T15:58:50Z</time>
      </trkpt>
      <trkpt lat="2.760444" lon="-75.074844">
        <ele>2058.0</ele>
        <time>2021-08-21T15:58:51Z</time>
      </trkpt>
      <trkpt lat="2.760432" lon="-75.07485">
        <ele>2058.1</ele>
        <time>2021-08-21T15:58:52Z</time>
      </trkpt>
      <trkpt lat="2.760419" lon="-75.07486">
        <ele>2058.2</ele>
        <time>2021-08-21T15:58:53Z</time>
      </trkpt>
      <trkpt lat="2.760405" lon="-75.07487">
        <ele>2058.3</ele>
        <time>2021-08-21T15:58:54Z</time>
      </trkpt>
      <trkpt lat="2.760392" lon="-75.07487">
        <ele>2058.3</ele>
        <time>2021-08-21T15:58:55Z</time>
      </trkpt>
      <trkpt lat="2.760378" lon="-75.074875">
        <ele>2058.4</ele>
        <time>2021-08-21T15:58:56Z</time>
      </trkpt>
      <trkpt lat="2.760364" lon="-75.07488">
        <ele>2058.5</ele>
        <time>2021-08-21T15:58:57Z</time>
      </trkpt>
      <trkpt lat="2.76035" lon="-75.07488">
        <ele>2058.6</ele>
        <time>2021-08-21T15:58:58Z</time>
      </trkpt>
      <trkpt lat="2.760338" lon="-75.07489">
        <ele>2058.7</ele>
        <time>2021-08-21T15:58:59Z</time>
      </trkpt>
      <trkpt lat="2.760326" lon="-75.07489">
        <ele>2058.8</ele>
        <time>2021-08-21T15:59:00Z</time>
      </trkpt>
      <trkpt lat="2.760314" lon="-75.0749">
        <ele>2058.8</ele>
        <time>2021-08-21T15:59:01Z</time>
      </trkpt>
      <trkpt lat="2.760302" lon="-75.0749">
        <ele>2058.9</ele>
        <time>2021-08-21T15:59:02Z</time>
      </trkpt>
      <trkpt lat="2.76029" lon="-75.074905">
        <ele>2059.0</ele>
        <time>2021-08-21T15:59:03Z</time>
      </trkpt>
      <trkpt lat="2.760277" lon="-75.074905">
        <ele>2059.1</ele>
        <time>2021-08-21T15:59:04Z</time>
      </trkpt>
      <trkpt lat="2.760264" lon="-75.07491">
        <ele>2059.2</ele>
        <time>2021-08-21T15:59:05Z</time>
      </trkpt>
      <trkpt lat="2.760252" lon="-75.07492">
        <ele>2059.2</ele>
        <time>2021-08-21T15:59:06Z</time>
      </trkpt>
      <trkpt lat="2.760239" lon="-75.07493">
        <ele>2059.3</ele>
        <time>2021-08-21T15:59:07Z</time>
      </trkpt>
      <trkpt lat="2.760226" lon="-75.07493">
        <ele>2059.4</ele>
        <time>2021-08-21T15:59:08Z</time>
      </trkpt>
      <trkpt lat="2.760213" lon="-75.074936">
        <ele>2059.5</ele>
        <time>2021-08-21T15:59:09Z</time>
      </trkpt>
      <trkpt lat="2.760199" lon="-75.07494">
        <ele>2059.6</ele>
        <time>2021-08-21T15:59:10Z</time>
      </trkpt>
      <trkpt lat="2.760186" lon="-75.07495">
        <ele>2059.7</ele>
        <time>2021-08-21T15:59:11Z</time>
      </trkpt>
      <trkpt lat="2.760172" lon="-75.07496">
        <ele>2059.8</ele>
        <time>2021-08-21T15:59:12Z</time>
      </trkpt>
      <trkpt lat="2.760158" lon="-75.07497">
        <ele>2059.9</ele>
        <time>2021-08-21T15:59:13Z</time>
      </trkpt>
      <trkpt lat="2.760147" lon="-75.07497">
        <ele>2060.0</ele>
        <time>2021-08-21T15:59:14Z</time>
      </trkpt>
      <trkpt lat="2.760135" lon="-75.074974">
        <ele>2060.1</ele>
        <time>2021-08-21T15:59:15Z</time>
      </trkpt>
      <trkpt lat="2.760124" lon="-75.07498">
        <ele>2060.1</ele>
        <time>2021-08-21T15:59:16Z</time>
      </trkpt>
      <trkpt lat="2.760111" lon="-75.07499">
        <ele>2060.2</ele>
        <time>2021-08-21T15:59:17Z</time>
      </trkpt>
      <trkpt lat="2.7601" lon="-75.075">
        <ele>2060.3</ele>
        <time>2021-08-21T15:59:18Z</time>
      </trkpt>
      <trkpt lat="2.760088" lon="-75.075">
        <ele>2060.4</ele>
        <time>2021-08-21T15:59:19Z</time>
      </trkpt>
      <trkpt lat="2.760075" lon="-75.075005">
        <ele>2060.5</ele>
        <time>2021-08-21T15:59:20Z</time>
      </trkpt>
      <trkpt lat="2.760062" lon="-75.07501">
        <ele>2060.6</ele>
        <time>2021-08-21T15:59:21Z</time>
      </trkpt>
      <trkpt lat="2.760049" lon="-75.07501">
        <ele>2060.7</ele>
        <time>2021-08-21T15:59:22Z</time>
      </trkpt>
      <trkpt lat="2.760035" lon="-75.07502">
        <ele>2060.8</ele>
        <time>2021-08-21T15:59:23Z</time>
      </trkpt>
      <trkpt lat="2.760022" lon="-75.07503">
        <ele>2060.9</ele>
        <time>2021-08-21T15:59:24Z</time>
      </trkpt>
      <trkpt lat="2.760008" lon="-75.07503">
        <ele>2061.0</ele>
        <time>2021-08-21T15:59:25Z</time>
      </trkpt>
      <trkpt lat="2.759995" lon="-75.075035">
        <ele>2061.0</ele>
        <time>2021-08-21T15:59:26Z</time>
      </trkpt>
      <trkpt lat="2.759982" lon="-75.07504">
        <ele>2061.1</ele>
        <time>2021-08-21T15:59:27Z</time>
      </trkpt>
      <trkpt lat="2.759968" lon="-75.07504">
        <ele>2061.2</ele>
        <time>2021-08-21T15:59:28Z</time>
      </trkpt>
      <trkpt lat="2.759954" lon="-75.07505">
        <ele>2061.3</ele>
        <time>2021-08-21T15:59:29Z</time>
      </trkpt>
      <trkpt lat="2.759941" lon="-75.07505">
        <ele>2061.4</ele>
        <time>2021-08-21T15:59:30Z</time>
      </trkpt>
      <trkpt lat="2.759927" lon="-75.07506">
        <ele>2061.5</ele>
        <time>2021-08-21T15:59:31Z</time>
      </trkpt>
      <trkpt lat="2.759913" lon="-75.075066">
        <ele>2061.6</ele>
        <time>2021-08-21T15:59:32Z</time>
      </trkpt>
      <trkpt lat="2.7599" lon="-75.07507">
        <ele>2061.7</ele>
        <time>2021-08-21T15:59:33Z</time>
      </trkpt>
      <trkpt lat="2.759887" lon="-75.07507">
        <ele>2061.8</ele>
        <time>2021-08-21T15:59:34Z</time>
      </trkpt>
      <trkpt lat="2.759873" lon="-75.07508">
        <ele>2061.9</ele>
        <time>2021-08-21T15:59:35Z</time>
      </trkpt>
      <trkpt lat="2.759859" lon="-75.07509">
        <ele>2062.0</ele>
        <time>2021-08-21T15:59:36Z</time>
      </trkpt>
      <trkpt lat="2.759846" lon="-75.075096">
        <ele>2062.0</ele>
        <time>2021-08-21T15:59:37Z</time>
      </trkpt>
      <trkpt lat="2.759833" lon="-75.075096">
        <ele>2062.1</ele>
        <time>2021-08-21T15:59:38Z</time>
      </trkpt>
      <trkpt lat="2.75982" lon="-75.0751">
        <ele>2062.2</ele>
        <time>2021-08-21T15:59:39Z</time>
      </trkpt>
      <trkpt lat="2.759807" lon="-75.07511">
        <ele>2062.3</ele>
        <time>2021-08-21T15:59:40Z</time>
      </trkpt>
      <trkpt lat="2.759793" lon="-75.07511">
        <ele>2062.4</ele>
        <time>2021-08-21T15:59:41Z</time>
      </trkpt>
      <trkpt lat="2.759778" lon="-75.07512">
        <ele>2062.5</ele>
        <time>2021-08-21T15:59:42Z</time>
      </trkpt>
      <trkpt lat="2.759764" lon="-75.07513">
        <ele>2062.6</ele>
        <time>2021-08-21T15:59:43Z</time>
      </trkpt>
      <trkpt lat="2.75975" lon="-75.075134">
        <ele>2062.7</ele>
        <time>2021-08-21T15:59:44Z</time>
      </trkpt>
      <trkpt lat="2.759736" lon="-75.075134">
        <ele>2062.8</ele>
        <time>2021-08-21T15:59:45Z</time>
      </trkpt>
      <trkpt lat="2.759721" lon="-75.07514">
        <ele>2062.9</ele>
        <time>2021-08-21T15:59:46Z</time>
      </trkpt>
      <trkpt lat="2.759706" lon="-75.07515">
        <ele>2063.0</ele>
        <time>2021-08-21T15:59:47Z</time>
      </trkpt>
      <trkpt lat="2.759692" lon="-75.07516">
        <ele>2063.1</ele>
        <time>2021-08-21T15:59:48Z</time>
      </trkpt>
      <trkpt lat="2.759677" lon="-75.075165">
        <ele>2063.1</ele>
        <time>2021-08-21T15:59:49Z</time>
      </trkpt>
      <trkpt lat="2.759663" lon="-75.075165">
        <ele>2063.2</ele>
        <time>2021-08-21T15:59:50Z</time>
      </trkpt>
      <trkpt lat="2.759648" lon="-75.07517">
        <ele>2063.3</ele>
        <time>2021-08-21T15:59:51Z</time>
      </trkpt>
      <trkpt lat="2.759634" lon="-75.07518">
        <ele>2063.4</ele>
        <time>2021-08-21T15:59:52Z</time>
      </trkpt>
      <trkpt lat="2.759618" lon="-75.07518">
        <ele>2063.5</ele>
        <time>2021-08-21T15:59:53Z</time>
      </trkpt>
      <trkpt lat="2.759602" lon="-75.07519">
        <ele>2063.6</ele>
        <time>2021-08-21T15:59:54Z</time>
      </trkpt>
      <trkpt lat="2.759586" lon="-75.075195">
        <ele>2063.7</ele>
        <time>2021-08-21T15:59:55Z</time>
      </trkpt>
      <trkpt lat="2.759569" lon="-75.0752">
        <ele>2063.8</ele>
        <time>2021-08-21T15:59:56Z</time>
      </trkpt>
      <trkpt lat="2.759552" lon="-75.07521">
        <ele>2063.9</ele>
        <time>2021-08-21T15:59:57Z</time>
      </trkpt>
      <trkpt lat="2.759536" lon="-75.07522">
        <ele>2063.9</ele>
        <time>2021-08-21T15:59:58Z</time>
      </trkpt>
      <trkpt lat="2.759518" lon="-75.07522">
        <ele>2064.0</ele>
        <time>2021-08-21T15:59:59Z</time>
      </trkpt>
      <trkpt lat="2.759501" lon="-75.075226">
        <ele>2064.1</ele>
        <time>2021-08-21T16:00:00Z</time>
      </trkpt>
      <trkpt lat="2.759481" lon="-75.07523">
        <ele>2064.3</ele>
        <time>2021-08-21T16:00:01Z</time>
      </trkpt>
      <trkpt lat="2.759464" lon="-75.07524">
        <ele>2064.4</ele>
        <time>2021-08-21T16:00:02Z</time>
      </trkpt>
      <trkpt lat="2.759446" lon="-75.07525">
        <ele>2064.5</ele>
        <time>2021-08-21T16:00:03Z</time>
      </trkpt>
      <trkpt lat="2.759427" lon="-75.07526">
        <ele>2064.6</ele>
        <time>2021-08-21T16:00:04Z</time>
      </trkpt>
      <trkpt lat="2.759409" lon="-75.07526">
        <ele>2064.7</ele>
        <time>2021-08-21T16:00:05Z</time>
      </trkpt>
      <trkpt lat="2.759392" lon="-75.075264">
        <ele>2064.8</ele>
        <time>2021-08-21T16:00:06Z</time>
      </trkpt>
      <trkpt lat="2.759376" lon="-75.07527">
        <ele>2064.9</ele>
        <time>2021-08-21T16:00:07Z</time>
      </trkpt>
      <trkpt lat="2.75936" lon="-75.07528">
        <ele>2065.0</ele>
        <time>2021-08-21T16:00:08Z</time>
      </trkpt>
      <trkpt lat="2.759345" lon="-75.07529">
        <ele>2065.1</ele>
        <time>2021-08-21T16:00:09Z</time>
      </trkpt>
      <trkpt lat="2.75933" lon="-75.075294">
        <ele>2065.2</ele>
        <time>2021-08-21T16:00:10Z</time>
      </trkpt>
      <trkpt lat="2.759314" lon="-75.0753">
        <ele>2065.3</ele>
        <time>2021-08-21T16:00:11Z</time>
      </trkpt>
      <trkpt lat="2.759299" lon="-75.07531">
        <ele>2065.4</ele>
        <time>2021-08-21T16:00:12Z</time>
      </trkpt>
      <trkpt lat="2.759283" lon="-75.07531">
        <ele>2065.5</ele>
        <time>2021-08-21T16:00:13Z</time>
      </trkpt>
      <trkpt lat="2.759267" lon="-75.07532">
        <ele>2065.6</ele>
        <time>2021-08-21T16:00:14Z</time>
      </trkpt>
      <trkpt lat="2.75925" lon="-75.075325">
        <ele>2065.7</ele>
        <time>2021-08-21T16:00:15Z</time>
      </trkpt>
      <trkpt lat="2.759233" lon="-75.07533">
        <ele>2065.8</ele>
        <time>2021-08-21T16:00:16Z</time>
      </trkpt>
      <trkpt lat="2.759215" lon="-75.07534">
        <ele>2065.9</ele>
        <time>2021-08-21T16:00:17Z</time>
      </trkpt>
      <trkpt lat="2.759198" lon="-75.07534">
        <ele>2066.0</ele>
        <time>2021-08-21T16:00:18Z</time>
      </trkpt>
      <trkpt lat="2.759181" lon="-75.07535">
        <ele>2066.1</ele>
        <time>2021-08-21T16:00:19Z</time>
      </trkpt>
      <trkpt lat="2.759164" lon="-75.075356">
        <ele>2066.2</ele>
        <time>2021-08-21T16:00:20Z</time>
      </trkpt>
      <trkpt lat="2.759148" lon="-75.075356">
        <ele>2066.3</ele>
        <time>2021-08-21T16:00:21Z</time>
      </trkpt>
      <trkpt lat="2.759132" lon="-75.07536">
        <ele>2066.4</ele>
        <time>2021-08-21T16:00:22Z</time>
      </trkpt>
      <trkpt lat="2.759115" lon="-75.07537">
        <ele>2066.5</ele>
        <time>2021-08-21T16:00:23Z</time>
      </trkpt>
      <trkpt lat="2.759098" lon="-75.07538">
        <ele>2066.6</ele>
        <time>2021-08-21T16:00:24Z</time>
      </trkpt>
      <trkpt lat="2.759081" lon="-75.075386">
        <ele>2066.7</ele>
        <time>2021-08-21T16:00:25Z</time>
      </trkpt>
      <trkpt lat="2.759064" lon="-75.075386">
        <ele>2066.8</ele>
        <time>2021-08-21T16:00:26Z</time>
      </trkpt>
      <trkpt lat="2.759046" lon="-75.07539">
        <ele>2066.9</ele>
        <time>2021-08-21T16:00:27Z</time>
      </trkpt>
      <trkpt lat="2.759029" lon="-75.07539">
        <ele>2066.9</ele>
        <time>2021-08-21T16:00:28Z</time>
      </trkpt>
      <trkpt lat="2.759011" lon="-75.0754">
        <ele>2067.0</ele>
        <time>2021-08-21T16:00:29Z</time>
      </trkpt>
      <trkpt lat="2.758994" lon="-75.0754">
        <ele>2067.1</ele>
        <time>2021-08-21T16:00:30Z</time>
      </trkpt>
      <trkpt lat="2.758976" lon="-75.0754">
        <ele>2067.2</ele>
        <time>2021-08-21T16:00:31Z</time>
      </trkpt>
      <trkpt lat="2.758958" lon="-75.07541">
        <ele>2067.2</ele>
        <time>2021-08-21T16:00:32Z</time>
      </trkpt>
      <trkpt lat="2.758939" lon="-75.07541">
        <ele>2067.3</ele>
        <time>2021-08-21T16:00:33Z</time>
      </trkpt>
      <trkpt lat="2.758921" lon="-75.07541">
        <ele>2067.4</ele>
        <time>2021-08-21T16:00:34Z</time>
      </trkpt>
      <trkpt lat="2.758902" lon="-75.07541">
        <ele>2067.4</ele>
        <time>2021-08-21T16:00:35Z</time>
      </trkpt>
      <trkpt lat="2.758883" lon="-75.07542">
        <ele>2067.5</ele>
        <time>2021-08-21T16:00:36Z</time>
      </trkpt>
      <trkpt lat="2.758864" lon="-75.07542">
        <ele>2067.5</ele>
        <time>2021-08-21T16:00:37Z</time>
      </trkpt>
      <trkpt lat="2.758845" lon="-75.07542">
        <ele>2067.6</ele>
        <time>2021-08-21T16:00:38Z</time>
      </trkpt>
      <trkpt lat="2.758825" lon="-75.075424">
        <ele>2067.7</ele>
        <time>2021-08-21T16:00:39Z</time>
      </trkpt>
      <trkpt lat="2.758806" lon="-75.075424">
        <ele>2067.7</ele>
        <time>2021-08-21T16:00:40Z</time>
      </trkpt>
      <trkpt lat="2.758787" lon="-75.075424">
        <ele>2067.8</ele>
        <time>2021-08-21T16:00:41Z</time>
      </trkpt>
      <trkpt lat="2.75877" lon="-75.075424">
        <ele>2067.8</ele>
        <time>2021-08-21T16:00:42Z</time>
      </trkpt>
      <trkpt lat="2.758752" lon="-75.075424">
        <ele>2067.9</ele>
        <time>2021-08-21T16:00:43Z</time>
      </trkpt>
      <trkpt lat="2.758736" lon="-75.075424">
        <ele>2067.9</ele>
        <time>2021-08-21T16:00:44Z</time>
      </trkpt>
      <trkpt lat="2.758719" lon="-75.075424">
        <ele>2068.0</ele>
        <time>2021-08-21T16:00:45Z</time>
      </trkpt>
      <trkpt lat="2.758702" lon="-75.075424">
        <ele>2068.0</ele>
        <time>2021-08-21T16:00:46Z</time>
      </trkpt>
      <trkpt lat="2.758684" lon="-75.075424">
        <ele>2068.1</ele>
        <time>2021-08-21T16:00:47Z</time>
      </trkpt>
      <trkpt lat="2.758666" lon="-75.075424">
        <ele>2068.2</ele>
        <time>2021-08-21T16:00:48Z</time>
      </trkpt>
      <trkpt lat="2.758648" lon="-75.075424">
        <ele>2068.2</ele>
        <time>2021-08-21T16:00:49Z</time>
      </trkpt>
      <trkpt lat="2.758631" lon="-75.075424">
        <ele>2068.3</ele>
        <time>2021-08-21T16:00:50Z</time>
      </trkpt>
      <trkpt lat="2.758612" lon="-75.075424">
        <ele>2068.4</ele>
        <time>2021-08-21T16:00:51Z</time>
      </trkpt>
      <trkpt lat="2.758594" lon="-75.075424">
        <ele>2068.4</ele>
        <time>2021-08-21T16:00:52Z</time>
      </trkpt>
      <trkpt lat="2.758577" lon="-75.075424">
        <ele>2068.5</ele>
        <time>2021-08-21T16:00:53Z</time>
      </trkpt>
      <trkpt lat="2.75856" lon="-75.075424">
        <ele>2068.5</ele>
        <time>2021-08-21T16:00:54Z</time>
      </trkpt>
      <trkpt lat="2.758544" lon="-75.075424">
        <ele>2068.6</ele>
        <time>2021-08-21T16:00:55Z</time>
      </trkpt>
      <trkpt lat="2.758528" lon="-75.07543">
        <ele>2068.7</ele>
        <time>2021-08-21T16:00:56Z</time>
      </trkpt>
      <trkpt lat="2.758512" lon="-75.07543">
        <ele>2068.7</ele>
        <time>2021-08-21T16:00:57Z</time>
      </trkpt>
      <trkpt lat="2.758495" lon="-75.07543">
        <ele>2068.8</ele>
        <time>2021-08-21T16:00:58Z</time>
      </trkpt>
      <trkpt lat="2.758479" lon="-75.07544">
        <ele>2068.8</ele>
        <time>2021-08-21T16:00:59Z</time>
      </trkpt>
      <trkpt lat="2.758463" lon="-75.07544">
        <ele>2068.9</ele>
        <time>2021-08-21T16:01:00Z</time>
      </trkpt>
      <trkpt lat="2.758446" lon="-75.07544">
        <ele>2069.0</ele>
        <time>2021-08-21T16:01:01Z</time>
      </trkpt>
      <trkpt lat="2.758429" lon="-75.07545">
        <ele>2069.0</ele>
        <time>2021-08-21T16:01:02Z</time>
      </trkpt>
      <trkpt lat="2.758411" lon="-75.07545">
        <ele>2069.1</ele>
        <time>2021-08-21T16:01:03Z</time>
      </trkpt>
      <trkpt lat="2.758394" lon="-75.07545">
        <ele>2069.2</ele>
        <time>2021-08-21T16:01:04Z</time>
      </trkpt>
      <trkpt lat="2.758376" lon="-75.075455">
        <ele>2069.2</ele>
        <time>2021-08-21T16:01:05Z</time>
      </trkpt>
      <trkpt lat="2.758357" lon="-75.075455">
        <ele>2069.3</ele>
        <time>2021-08-21T16:01:06Z</time>
      </trkpt>
      <trkpt lat="2.758338" lon="-75.075455">
        <ele>2069.4</ele>
        <time>2021-08-21T16:01:07Z</time>
      </trkpt>
      <trkpt lat="2.758319" lon="-75.075455">
        <ele>2069.5</ele>
        <time>2021-08-21T16:01:08Z</time>
      </trkpt>
      <trkpt lat="2.758301" lon="-75.075455">
        <ele>2069.6</ele>
        <time>2021-08-21T16:01:09Z</time>
      </trkpt>
      <trkpt lat="2.758283" lon="-75.075455">
        <ele>2069.6</ele>
        <time>2021-08-21T16:01:10Z</time>
      </trkpt>
      <trkpt lat="2.758266" lon="-75.075455">
        <ele>2069.7</ele>
        <time>2021-08-21T16:01:11Z</time>
      </trkpt>
      <trkpt lat="2.758248" lon="-75.075455">
        <ele>2069.8</ele>
        <time>2021-08-21T16:01:12Z</time>
      </trkpt>
      <trkpt lat="2.758231" lon="-75.075455">
        <ele>2069.9</ele>
        <time>2021-08-21T16:01:13Z</time>
      </trkpt>
      <trkpt lat="2.758214" lon="-75.075455">
        <ele>2069.9</ele>
        <time>2021-08-21T16:01:14Z</time>
      </trkpt>
      <trkpt lat="2.758197" lon="-75.075455">
        <ele>2070.0</ele>
        <time>2021-08-21T16:01:15Z</time>
      </trkpt>
      <trkpt lat="2.75818" lon="-75.075455">
        <ele>2070.0</ele>
        <time>2021-08-21T16:01:16Z</time>
      </trkpt>
      <trkpt lat="2.758163" lon="-75.075455">
        <ele>2070.1</ele>
        <time>2021-08-21T16:01:17Z</time>
      </trkpt>
      <trkpt lat="2.758146" lon="-75.075455">
        <ele>2070.1</ele>
        <time>2021-08-21T16:01:18Z</time>
      </trkpt>
      <trkpt lat="2.758129" lon="-75.075455">
        <ele>2070.2</ele>
        <time>2021-08-21T16:01:19Z</time>
      </trkpt>
      <trkpt lat="2.758112" lon="-75.075455">
        <ele>2070.2</ele>
        <time>2021-08-21T16:01:20Z</time>
      </trkpt>
      <trkpt lat="2.758095" lon="-75.075455">
        <ele>2070.3</ele>
        <time>2021-08-21T16:01:21Z</time>
      </trkpt>
      <trkpt lat="2.758078" lon="-75.075455">
        <ele>2070.3</ele>
        <time>2021-08-21T16:01:22Z</time>
      </trkpt>
      <trkpt lat="2.758062" lon="-75.075455">
        <ele>2070.4</ele>
        <time>2021-08-21T16:01:23Z</time>
      </trkpt>
      <trkpt lat="2.758045" lon="-75.075455">
        <ele>2070.4</ele>
        <time>2021-08-21T16:01:24Z</time>
      </trkpt>
      <trkpt lat="2.758028" lon="-75.075455">
        <ele>2070.5</ele>
        <time>2021-08-21T16:01:25Z</time>
      </trkpt>
      <trkpt lat="2.758011" lon="-75.075455">
        <ele>2070.5</ele>
        <time>2021-08-21T16:01:26Z</time>
      </trkpt>
      <trkpt lat="2.757995" lon="-75.075455">
        <ele>2070.6</ele>
        <time>2021-08-21T16:01:27Z</time>
      </trkpt>
      <trkpt lat="2.757978" lon="-75.075455">
        <ele>2070.6</ele>
        <time>2021-08-21T16:01:28Z</time>
      </trkpt>
      <trkpt lat="2.757961" lon="-75.075455">
        <ele>2070.7</ele>
        <time>2021-08-21T16:01:29Z</time>
      </trkpt>
      <trkpt lat="2.757944" lon="-75.075455">
        <ele>2070.7</ele>
        <time>2021-08-21T16:01:30Z</time>
      </trkpt>
      <trkpt lat="2.757927" lon="-75.075455">
        <ele>2070.7</ele>
        <time>2021-08-21T16:01:31Z</time>
      </trkpt>
      <trkpt lat="2.75791" lon="-75.075455">
        <ele>2070.8</ele>
        <time>2021-08-21T16:01:32Z</time>
      </trkpt>
      <trkpt lat="2.757895" lon="-75.075455">
        <ele>2070.8</ele>
        <time>2021-08-21T16:01:33Z</time>
      </trkpt>
      <trkpt lat="2.757879" lon="-75.07546">
        <ele>2070.9</ele>
        <time>2021-08-21T16:01:34Z</time>
      </trkpt>
      <trkpt lat="2.757864" lon="-75.07546">
        <ele>2070.9</ele>
        <time>2021-08-21T16:01:35Z</time>
      </trkpt>
      <trkpt lat="2.757848" lon="-75.07547">
        <ele>2071.0</ele>
        <time>2021-08-21T16:01:36Z</time>
      </trkpt>
      <trkpt lat="2.757833" lon="-75.07547">
        <ele>2071.0</ele>
        <time>2021-08-21T16:01:37Z</time>
      </trkpt>
      <trkpt lat="2.757816" lon="-75.07548">
        <ele>2071.1</ele>
        <time>2021-08-21T16:01:38Z</time>
      </trkpt>
      <trkpt lat="2.757801" lon="-75.075485">
        <ele>2071.2</ele>
        <time>2021-08-21T16:01:39Z</time>
      </trkpt>
      <trkpt lat="2.757785" lon="-75.075485">
        <ele>2071.2</ele>
        <time>2021-08-21T16:01:40Z</time>
      </trkpt>
      <trkpt lat="2.757769" lon="-75.07549">
        <ele>2071.3</ele>
        <time>2021-08-21T16:01:41Z</time>
      </trkpt>
      <trkpt lat="2.757754" lon="-75.0755">
        <ele>2071.3</ele>
        <time>2021-08-21T16:01:42Z</time>
      </trkpt>
      <trkpt lat="2.757739" lon="-75.07551">
        <ele>2071.4</ele>
        <time>2021-08-21T16:01:43Z</time>
      </trkpt>
      <trkpt lat="2.757724" lon="-75.07551">
        <ele>2071.5</ele>
        <time>2021-08-21T16:01:44Z</time>
      </trkpt>
      <trkpt lat="2.75771" lon="-75.075516">
        <ele>2071.5</ele>
        <time>2021-08-21T16:01:45Z</time>
      </trkpt>
      <trkpt lat="2.757697" lon="-75.07552">
        <ele>2071.6</ele>
        <time>2021-08-21T16:01:46Z</time>
      </trkpt>
      <trkpt lat="2.757684" lon="-75.07552">
        <ele>2071.6</ele>
        <time>2021-08-21T16:01:47Z</time>
      </trkpt>
      <trkpt lat="2.75767" lon="-75.07553">
        <ele>2071.7</ele>
        <time>2021-08-21T16:01:48Z</time>
      </trkpt>
      <trkpt lat="2.757654" lon="-75.07554">
        <ele>2071.7</ele>
        <time>2021-08-21T16:01:49Z</time>
      </trkpt>
      <trkpt lat="2.757639" lon="-75.07555">
        <ele>2071.7</ele>
        <time>2021-08-21T16:01:50Z</time>
      </trkpt>
      <trkpt lat="2.757622" lon="-75.075554">
        <ele>2071.8</ele>
        <time>2021-08-21T16:01:51Z</time>
      </trkpt>
      <trkpt lat="2.757606" lon="-75.07556">
        <ele>2071.9</ele>
        <time>2021-08-21T16:01:52Z</time>
      </trkpt>
      <trkpt lat="2.75759" lon="-75.07557">
        <ele>2071.9</ele>
        <time>2021-08-21T16:01:53Z</time>
      </trkpt>
      <trkpt lat="2.757573" lon="-75.07558">
        <ele>2072.0</ele>
        <time>2021-08-21T16:01:54Z</time>
      </trkpt>
      <trkpt lat="2.757556" lon="-75.075584">
        <ele>2072.0</ele>
        <time>2021-08-21T16:01:55Z</time>
      </trkpt>
      <trkpt lat="2.75754" lon="-75.075584">
        <ele>2072.0</ele>
        <time>2021-08-21T16:01:56Z</time>
      </trkpt>
      <trkpt lat="2.757524" lon="-75.07559">
        <ele>2072.1</ele>
        <time>2021-08-21T16:01:57Z</time>
      </trkpt>
      <trkpt lat="2.757507" lon="-75.0756">
        <ele>2072.1</ele>
        <time>2021-08-21T16:01:58Z</time>
      </trkpt>
      <trkpt lat="2.757491" lon="-75.07561">
        <ele>2072.2</ele>
        <time>2021-08-21T16:01:59Z</time>
      </trkpt>
      <trkpt lat="2.757474" lon="-75.075615">
        <ele>2072.2</ele>
        <time>2021-08-21T16:02:00Z</time>
      </trkpt>
      <trkpt lat="2.757459" lon="-75.07562">
        <ele>2072.3</ele>
        <time>2021-08-21T16:02:01Z</time>
      </trkpt>
      <trkpt lat="2.757442" lon="-75.07563">
        <ele>2072.3</ele>
        <time>2021-08-21T16:02:02Z</time>
      </trkpt>
      <trkpt lat="2.757424" lon="-75.075645">
        <ele>2072.4</ele>
        <time>2021-08-21T16:02:03Z</time>
      </trkpt>
      <trkpt lat="2.757406" lon="-75.07565">
        <ele>2072.5</ele>
        <time>2021-08-21T16:02:04Z</time>
      </trkpt>
      <trkpt lat="2.757387" lon="-75.07566">
        <ele>2072.5</ele>
        <time>2021-08-21T16:02:05Z</time>
      </trkpt>
      <trkpt lat="2.75737" lon="-75.07567">
        <ele>2072.6</ele>
        <time>2021-08-21T16:02:06Z</time>
      </trkpt>
      <trkpt lat="2.757353" lon="-75.075676">
        <ele>2072.7</ele>
        <time>2021-08-21T16:02:07Z</time>
      </trkpt>
      <trkpt lat="2.757336" lon="-75.07569">
        <ele>2072.8</ele>
        <time>2021-08-21T16:02:08Z</time>
      </trkpt>
      <trkpt lat="2.757317" lon="-75.0757">
        <ele>2072.8</ele>
        <time>2021-08-21T16:02:09Z</time>
      </trkpt>
      <trkpt lat="2.757299" lon="-75.07571">
        <ele>2072.9</ele>
        <time>2021-08-21T16:02:10Z</time>
      </trkpt>
      <trkpt lat="2.757281" lon="-75.075714">
        <ele>2073.0</ele>
        <time>2021-08-21T16:02:11Z</time>
      </trkpt>
      <trkpt lat="2.757262" lon="-75.07572">
        <ele>2073.1</ele>
        <time>2021-08-21T16:02:12Z</time>
      </trkpt>
      <trkpt lat="2.757243" lon="-75.07573">
        <ele>2073.2</ele>
        <time>2021-08-21T16:02:13Z</time>
      </trkpt>
      <trkpt lat="2.757225" lon="-75.075745">
        <ele>2073.3</ele>
        <time>2021-08-21T16:02:14Z</time>
      </trkpt>
      <trkpt lat="2.757207" lon="-75.07575">
        <ele>2073.5</ele>
        <time>2021-08-21T16:02:15Z</time>
      </trkpt>
      <trkpt lat="2.757189" lon="-75.07577">
        <ele>2073.6</ele>
        <time>2021-08-21T16:02:16Z</time>
      </trkpt>
      <trkpt lat="2.757171" lon="-75.075775">
        <ele>2073.7</ele>
        <time>2021-08-21T16:02:17Z</time>
      </trkpt>
      <trkpt lat="2.757153" lon="-75.07578">
        <ele>2073.8</ele>
        <time>2021-08-21T16:02:18Z</time>
      </trkpt>
      <trkpt lat="2.757135" lon="-75.0758">
        <ele>2074.0</ele>
        <time>2021-08-21T16:02:19Z</time>
      </trkpt>
      <trkpt lat="2.757116" lon="-75.075806">
        <ele>2074.1</ele>
        <time>2021-08-21T16:02:20Z</time>
      </trkpt>
      <trkpt lat="2.757098" lon="-75.07581">
        <ele>2074.2</ele>
        <time>2021-08-21T16:02:21Z</time>
      </trkpt>
      <trkpt lat="2.757061" lon="-75.075836">
        <ele>2074.4</ele>
        <time>2021-08-21T16:02:22Z</time>
      </trkpt>
      <trkpt lat="2.75708" lon="-75.07583">
        <ele>2074.3</ele>
        <time>2021-08-21T16:02:22Z</time>
      </trkpt>
      <trkpt lat="2.757042" lon="-75.07584">
        <ele>2074.4</ele>
        <time>2021-08-21T16:02:23Z</time>
      </trkpt>
      <trkpt lat="2.757024" lon="-75.07586">
        <ele>2074.5</ele>
        <time>2021-08-21T16:02:24Z</time>
      </trkpt>
      <trkpt lat="2.757005" lon="-75.07587">
        <ele>2074.5</ele>
        <time>2021-08-21T16:02:25Z</time>
      </trkpt>
      <trkpt lat="2.756985" lon="-75.075874">
        <ele>2074.6</ele>
        <time>2021-08-21T16:02:26Z</time>
      </trkpt>
      <trkpt lat="2.756965" lon="-75.07589">
        <ele>2074.7</ele>
        <time>2021-08-21T16:02:27Z</time>
      </trkpt>
      <trkpt lat="2.756944" lon="-75.0759">
        <ele>2074.7</ele>
        <time>2021-08-21T16:02:28Z</time>
      </trkpt>
      <trkpt lat="2.756924" lon="-75.07591">
        <ele>2074.8</ele>
        <time>2021-08-21T16:02:29Z</time>
      </trkpt>
      <trkpt lat="2.756904" lon="-75.07592">
        <ele>2074.9</ele>
        <time>2021-08-21T16:02:30Z</time>
      </trkpt>
      <trkpt lat="2.756883" lon="-75.075935">
        <ele>2074.9</ele>
        <time>2021-08-21T16:02:31Z</time>
      </trkpt>
      <trkpt lat="2.756862" lon="-75.07594">
        <ele>2075.0</ele>
        <time>2021-08-21T16:02:32Z</time>
      </trkpt>
      <trkpt lat="2.756841" lon="-75.07596">
        <ele>2075.0</ele>
        <time>2021-08-21T16:02:33Z</time>
      </trkpt>
      <trkpt lat="2.75682" lon="-75.075966">
        <ele>2075.1</ele>
        <time>2021-08-21T16:02:34Z</time>
      </trkpt>
      <trkpt lat="2.756797" lon="-75.07598">
        <ele>2075.1</ele>
        <time>2021-08-21T16:02:35Z</time>
      </trkpt>
      <trkpt lat="2.756774" lon="-75.076">
        <ele>2075.2</ele>
        <time>2021-08-21T16:02:36Z</time>
      </trkpt>
      <trkpt lat="2.756751" lon="-75.076004">
        <ele>2075.2</ele>
        <time>2021-08-21T16:02:37Z</time>
      </trkpt>
      <trkpt lat="2.756728" lon="-75.07602">
        <ele>2075.3</ele>
        <time>2021-08-21T16:02:38Z</time>
      </trkpt>
      <trkpt lat="2.756706" lon="-75.076035">
        <ele>2075.3</ele>
        <time>2021-08-21T16:02:39Z</time>
      </trkpt>
      <trkpt lat="2.756685" lon="-75.07605">
        <ele>2075.3</ele>
        <time>2021-08-21T16:02:40Z</time>
      </trkpt>
      <trkpt lat="2.756664" lon="-75.076065">
        <ele>2075.3</ele>
        <time>2021-08-21T16:02:41Z</time>
      </trkpt>
      <trkpt lat="2.756645" lon="-75.07607">
        <ele>2075.3</ele>
        <time>2021-08-21T16:02:42Z</time>
      </trkpt>
      <trkpt lat="2.756627" lon="-75.07609">
        <ele>2075.4</ele>
        <time>2021-08-21T16:02:43Z</time>
      </trkpt>
      <trkpt lat="2.756609" lon="-75.076096">
        <ele>2075.4</ele>
        <time>2021-08-21T16:02:44Z</time>
      </trkpt>
      <trkpt lat="2.756591" lon="-75.0761">
        <ele>2075.4</ele>
        <time>2021-08-21T16:02:45Z</time>
      </trkpt>
      <trkpt lat="2.756573" lon="-75.07612">
        <ele>2075.4</ele>
        <time>2021-08-21T16:02:46Z</time>
      </trkpt>
      <trkpt lat="2.756554" lon="-75.076126">
        <ele>2075.4</ele>
        <time>2021-08-21T16:02:47Z</time>
      </trkpt>
      <trkpt lat="2.756518" lon="-75.07615">
        <ele>2075.4</ele>
        <time>2021-08-21T16:02:49Z</time>
      </trkpt>
      <trkpt lat="2.756527" lon="-75.07614">
        <ele>2075.4</ele>
        <time>2021-08-21T16:02:49Z</time>
      </trkpt>
      <trkpt lat="2.7565" lon="-75.076164">
        <ele>2075.5</ele>
        <time>2021-08-21T16:02:50Z</time>
      </trkpt>
      <trkpt lat="2.756482" lon="-75.07617">
        <ele>2075.5</ele>
        <time>2021-08-21T16:02:51Z</time>
      </trkpt>
      <trkpt lat="2.756464" lon="-75.07619">
        <ele>2075.5</ele>
        <time>2021-08-21T16:02:52Z</time>
      </trkpt>
      <trkpt lat="2.756445" lon="-75.0762">
        <ele>2075.5</ele>
        <time>2021-08-21T16:02:53Z</time>
      </trkpt>
      <trkpt lat="2.756425" lon="-75.07621">
        <ele>2075.4</ele>
        <time>2021-08-21T16:02:54Z</time>
      </trkpt>
      <trkpt lat="2.756405" lon="-75.076225">
        <ele>2075.4</ele>
        <time>2021-08-21T16:02:55Z</time>
      </trkpt>
      <trkpt lat="2.756384" lon="-75.07624">
        <ele>2075.4</ele>
        <time>2021-08-21T16:02:56Z</time>
      </trkpt>
      <trkpt lat="2.756363" lon="-75.076256">
        <ele>2075.4</ele>
        <time>2021-08-21T16:02:57Z</time>
      </trkpt>
      <trkpt lat="2.75634" lon="-75.07626">
        <ele>2075.4</ele>
        <time>2021-08-21T16:02:58Z</time>
      </trkpt>
      <trkpt lat="2.756317" lon="-75.07628">
        <ele>2075.4</ele>
        <time>2021-08-21T16:02:59Z</time>
      </trkpt>
      <trkpt lat="2.756294" lon="-75.07629">
        <ele>2075.4</ele>
        <time>2021-08-21T16:03:00Z</time>
      </trkpt>
      <trkpt lat="2.756269" lon="-75.0763">
        <ele>2075.4</ele>
        <time>2021-08-21T16:03:01Z</time>
      </trkpt>
      <trkpt lat="2.756243" lon="-75.07632">
        <ele>2075.4</ele>
        <time>2021-08-21T16:03:02Z</time>
      </trkpt>
      <trkpt lat="2.756216" lon="-75.07633">
        <ele>2075.4</ele>
        <time>2021-08-21T16:03:03Z</time>
      </trkpt>
      <trkpt lat="2.756188" lon="-75.07635">
        <ele>2075.5</ele>
        <time>2021-08-21T16:03:04Z</time>
      </trkpt>
      <trkpt lat="2.75616" lon="-75.07637">
        <ele>2075.5</ele>
        <time>2021-08-21T16:03:05Z</time>
      </trkpt>
      <trkpt lat="2.756133" lon="-75.076385">
        <ele>2075.5</ele>
        <time>2021-08-21T16:03:06Z</time>
      </trkpt>
      <trkpt lat="2.756106" lon="-75.0764">
        <ele>2075.5</ele>
        <time>2021-08-21T16:03:07Z</time>
      </trkpt>
      <trkpt lat="2.756078" lon="-75.07642">
        <ele>2075.5</ele>
        <time>2021-08-21T16:03:08Z</time>
      </trkpt>
      <trkpt lat="2.756051" lon="-75.07644">
        <ele>2075.5</ele>
        <time>2021-08-21T16:03:09Z</time>
      </trkpt>
      <trkpt lat="2.756023" lon="-75.076454">
        <ele>2075.5</ele>
        <time>2021-08-21T16:03:10Z</time>
      </trkpt>
      <trkpt lat="2.755997" lon="-75.07647">
        <ele>2075.6</ele>
        <time>2021-08-21T16:03:11Z</time>
      </trkpt>
      <trkpt lat="2.755969" lon="-75.07649">
        <ele>2075.6</ele>
        <time>2021-08-21T16:03:12Z</time>
      </trkpt>
      <trkpt lat="2.75594" lon="-75.07651">
        <ele>2075.7</ele>
        <time>2021-08-21T16:03:13Z</time>
      </trkpt>
      <trkpt lat="2.755911" lon="-75.07653">
        <ele>2075.7</ele>
        <time>2021-08-21T16:03:14Z</time>
      </trkpt>
      <trkpt lat="2.755882" lon="-75.076546">
        <ele>2075.8</ele>
        <time>2021-08-21T16:03:15Z</time>
      </trkpt>
      <trkpt lat="2.755851" lon="-75.07656">
        <ele>2075.9</ele>
        <time>2021-08-21T16:03:16Z</time>
      </trkpt>
      <trkpt lat="2.755821" lon="-75.07658">
        <ele>2076.0</ele>
        <time>2021-08-21T16:03:17Z</time>
      </trkpt>
      <trkpt lat="2.755791" lon="-75.07659">
        <ele>2076.2</ele>
        <time>2021-08-21T16:03:18Z</time>
      </trkpt>
      <trkpt lat="2.755762" lon="-75.07661">
        <ele>2076.3</ele>
        <time>2021-08-21T16:03:19Z</time>
      </trkpt>
      <trkpt lat="2.755733" lon="-75.076614">
        <ele>2076.4</ele>
        <time>2021-08-21T16:03:20Z</time>
      </trkpt>
      <trkpt lat="2.755706" lon="-75.07663">
        <ele>2076.5</ele>
        <time>2021-08-21T16:03:21Z</time>
      </trkpt>
      <trkpt lat="2.75568" lon="-75.07664">
        <ele>2076.6</ele>
        <time>2021-08-21T16:03:22Z</time>
      </trkpt>
      <trkpt lat="2.755654" lon="-75.076645">
        <ele>2076.8</ele>
        <time>2021-08-21T16:03:23Z</time>
      </trkpt>
      <trkpt lat="2.75563" lon="-75.07665">
        <ele>2076.9</ele>
        <time>2021-08-21T16:03:24Z</time>
      </trkpt>
      <trkpt lat="2.755604" lon="-75.07666">
        <ele>2077.0</ele>
        <time>2021-08-21T16:03:25Z</time>
      </trkpt>
      <trkpt lat="2.755578" lon="-75.07667">
        <ele>2077.1</ele>
        <time>2021-08-21T16:03:26Z</time>
      </trkpt>
      <trkpt lat="2.755553" lon="-75.076675">
        <ele>2077.3</ele>
        <time>2021-08-21T16:03:27Z</time>
      </trkpt>
      <trkpt lat="2.755527" lon="-75.07668">
        <ele>2077.4</ele>
        <time>2021-08-21T16:03:28Z</time>
      </trkpt>
      <trkpt lat="2.755501" lon="-75.07669">
        <ele>2077.6</ele>
        <time>2021-08-21T16:03:29Z</time>
      </trkpt>
      <trkpt lat="2.755478" lon="-75.0767">
        <ele>2077.7</ele>
        <time>2021-08-21T16:03:30Z</time>
      </trkpt>
      <trkpt lat="2.755455" lon="-75.076706">
        <ele>2077.9</ele>
        <time>2021-08-21T16:03:31Z</time>
      </trkpt>
      <trkpt lat="2.755368" lon="-75.07675">
        <ele>2078.6</ele>
        <time>2021-08-21T16:03:33Z</time>
      </trkpt>
      <trkpt lat="2.755354" lon="-75.07675">
        <ele>2078.7</ele>
        <time>2021-08-21T16:03:34Z</time>
      </trkpt>
      <trkpt lat="2.755345" lon="-75.07676">
        <ele>2078.7</ele>
        <time>2021-08-21T16:03:35Z</time>
      </trkpt>
      <trkpt lat="2.755327" lon="-75.07677">
        <ele>2078.8</ele>
        <time>2021-08-21T16:03:37Z</time>
      </trkpt>
      <trkpt lat="2.755336" lon="-75.07677">
        <ele>2078.8</ele>
        <time>2021-08-21T16:03:37Z</time>
      </trkpt>
      <trkpt lat="2.75531" lon="-75.076775">
        <ele>2079.0</ele>
        <time>2021-08-21T16:03:38Z</time>
      </trkpt>
      <trkpt lat="2.755292" lon="-75.07678">
        <ele>2079.1</ele>
        <time>2021-08-21T16:03:39Z</time>
      </trkpt>
      <trkpt lat="2.755273" lon="-75.07678">
        <ele>2079.2</ele>
        <time>2021-08-21T16:03:40Z</time>
      </trkpt>
      <trkpt lat="2.755256" lon="-75.07679">
        <ele>2079.3</ele>
        <time>2021-08-21T16:03:41Z</time>
      </trkpt>
      <trkpt lat="2.75524" lon="-75.0768">
        <ele>2079.4</ele>
        <time>2021-08-21T16:03:42Z</time>
      </trkpt>
      <trkpt lat="2.755224" lon="-75.076805">
        <ele>2079.5</ele>
        <time>2021-08-21T16:03:43Z</time>
      </trkpt>
      <trkpt lat="2.755207" lon="-75.07681">
        <ele>2079.6</ele>
        <time>2021-08-21T16:03:44Z</time>
      </trkpt>
      <trkpt lat="2.755189" lon="-75.07681">
        <ele>2079.7</ele>
        <time>2021-08-21T16:03:45Z</time>
      </trkpt>
      <trkpt lat="2.755172" lon="-75.07682">
        <ele>2079.8</ele>
        <time>2021-08-21T16:03:46Z</time>
      </trkpt>
      <trkpt lat="2.755154" lon="-75.07683">
        <ele>2079.9</ele>
        <time>2021-08-21T16:03:47Z</time>
      </trkpt>
      <trkpt lat="2.755138" lon="-75.076836">
        <ele>2080.0</ele>
        <time>2021-08-21T16:03:48Z</time>
      </trkpt>
      <trkpt lat="2.75512" lon="-75.07684">
        <ele>2080.1</ele>
        <time>2021-08-21T16:03:49Z</time>
      </trkpt>
      <trkpt lat="2.755101" lon="-75.07685">
        <ele>2080.2</ele>
        <time>2021-08-21T16:03:50Z</time>
      </trkpt>
      <trkpt lat="2.755083" lon="-75.07686">
        <ele>2080.2</ele>
        <time>2021-08-21T16:03:51Z</time>
      </trkpt>
      <trkpt lat="2.755065" lon="-75.076866">
        <ele>2080.3</ele>
        <time>2021-08-21T16:03:52Z</time>
      </trkpt>
      <trkpt lat="2.755047" lon="-75.07687">
        <ele>2080.4</ele>
        <time>2021-08-21T16:03:53Z</time>
      </trkpt>
      <trkpt lat="2.755028" lon="-75.07688">
        <ele>2080.5</ele>
        <time>2021-08-21T16:03:54Z</time>
      </trkpt>
      <trkpt lat="2.755009" lon="-75.07689">
        <ele>2080.6</ele>
        <time>2021-08-21T16:03:55Z</time>
      </trkpt>
      <trkpt lat="2.754991" lon="-75.0769">
        <ele>2080.7</ele>
        <time>2021-08-21T16:03:56Z</time>
      </trkpt>
      <trkpt lat="2.754973" lon="-75.076904">
        <ele>2080.7</ele>
        <time>2021-08-21T16:03:57Z</time>
      </trkpt>
      <trkpt lat="2.754955" lon="-75.07691">
        <ele>2080.8</ele>
        <time>2021-08-21T16:03:58Z</time>
      </trkpt>
      <trkpt lat="2.754937" lon="-75.07692">
        <ele>2080.9</ele>
        <time>2021-08-21T16:03:59Z</time>
      </trkpt>
      <trkpt lat="2.754918" lon="-75.076935">
        <ele>2081.0</ele>
        <time>2021-08-21T16:04:00Z</time>
      </trkpt>
      <trkpt lat="2.754833" lon="-75.076965">
        <ele>2081.4</ele>
        <time>2021-08-21T16:04:02Z</time>
      </trkpt>
      <trkpt lat="2.754828" lon="-75.076965">
        <ele>2081.4</ele>
        <time>2021-08-21T16:04:03Z</time>
      </trkpt>
      <trkpt lat="2.754819" lon="-75.07697">
        <ele>2081.4</ele>
        <time>2021-08-21T16:04:04Z</time>
      </trkpt>
      <trkpt lat="2.754806" lon="-75.07698">
        <ele>2081.5</ele>
        <time>2021-08-21T16:04:05Z</time>
      </trkpt>
      <trkpt lat="2.754789" lon="-75.07698">
        <ele>2081.6</ele>
        <time>2021-08-21T16:04:06Z</time>
      </trkpt>
      <trkpt lat="2.754771" lon="-75.07699">
        <ele>2081.7</ele>
        <time>2021-08-21T16:04:07Z</time>
      </trkpt>
      <trkpt lat="2.754752" lon="-75.076996">
        <ele>2081.8</ele>
        <time>2021-08-21T16:04:08Z</time>
      </trkpt>
      <trkpt lat="2.754733" lon="-75.077">
        <ele>2081.9</ele>
        <time>2021-08-21T16:04:09Z</time>
      </trkpt>
      <trkpt lat="2.754714" lon="-75.07701">
        <ele>2082.0</ele>
        <time>2021-08-21T16:04:10Z</time>
      </trkpt>
      <trkpt lat="2.754695" lon="-75.07701">
        <ele>2082.1</ele>
        <time>2021-08-21T16:04:11Z</time>
      </trkpt>
      <trkpt lat="2.754678" lon="-75.07702">
        <ele>2082.2</ele>
        <time>2021-08-21T16:04:12Z</time>
      </trkpt>
      <trkpt lat="2.754611" lon="-75.07704">
        <ele>2082.6</ele>
        <time>2021-08-21T16:04:14Z</time>
      </trkpt>
      <trkpt lat="2.754607" lon="-75.07704">
        <ele>2082.6</ele>
        <time>2021-08-21T16:04:15Z</time>
      </trkpt>
      <trkpt lat="2.754599" lon="-75.07705">
        <ele>2082.7</ele>
        <time>2021-08-21T16:04:16Z</time>
      </trkpt>
      <trkpt lat="2.754587" lon="-75.07705">
        <ele>2082.7</ele>
        <time>2021-08-21T16:04:17Z</time>
      </trkpt>
      <trkpt lat="2.754573" lon="-75.07706">
        <ele>2082.8</ele>
        <time>2021-08-21T16:04:18Z</time>
      </trkpt>
      <trkpt lat="2.754556" lon="-75.077065">
        <ele>2082.9</ele>
        <time>2021-08-21T16:04:19Z</time>
      </trkpt>
      <trkpt lat="2.754539" lon="-75.077065">
        <ele>2083.0</ele>
        <time>2021-08-21T16:04:20Z</time>
      </trkpt>
      <trkpt lat="2.75452" lon="-75.07707">
        <ele>2083.1</ele>
        <time>2021-08-21T16:04:21Z</time>
      </trkpt>
      <trkpt lat="2.754501" lon="-75.07708">
        <ele>2083.2</ele>
        <time>2021-08-21T16:04:22Z</time>
      </trkpt>
      <trkpt lat="2.754482" lon="-75.07709">
        <ele>2083.3</ele>
        <time>2021-08-21T16:04:23Z</time>
      </trkpt>
      <trkpt lat="2.754464" lon="-75.077095">
        <ele>2083.4</ele>
        <time>2021-08-21T16:04:24Z</time>
      </trkpt>
      <trkpt lat="2.754446" lon="-75.0771">
        <ele>2083.5</ele>
        <time>2021-08-21T16:04:25Z</time>
      </trkpt>
      <trkpt lat="2.754428" lon="-75.07711">
        <ele>2083.5</ele>
        <time>2021-08-21T16:04:26Z</time>
      </trkpt>
      <trkpt lat="2.754409" lon="-75.07712">
        <ele>2083.6</ele>
        <time>2021-08-21T16:04:27Z</time>
      </trkpt>
      <trkpt lat="2.75439" lon="-75.077126">
        <ele>2083.7</ele>
        <time>2021-08-21T16:04:28Z</time>
      </trkpt>
      <trkpt lat="2.754371" lon="-75.07713">
        <ele>2083.8</ele>
        <time>2021-08-21T16:04:29Z</time>
      </trkpt>
      <trkpt lat="2.75435" lon="-75.07714">
        <ele>2083.9</ele>
        <time>2021-08-21T16:04:30Z</time>
      </trkpt>
      <trkpt lat="2.75433" lon="-75.07715">
        <ele>2083.9</ele>
        <time>2021-08-21T16:04:31Z</time>
      </trkpt>
      <trkpt lat="2.754309" lon="-75.077156">
        <ele>2084.0</ele>
        <time>2021-08-21T16:04:32Z</time>
      </trkpt>
      <trkpt lat="2.754287" lon="-75.07716">
        <ele>2084.1</ele>
        <time>2021-08-21T16:04:33Z</time>
      </trkpt>
      <trkpt lat="2.754265" lon="-75.07717">
        <ele>2084.2</ele>
        <time>2021-08-21T16:04:34Z</time>
      </trkpt>
      <trkpt lat="2.754244" lon="-75.07718">
        <ele>2084.2</ele>
        <time>2021-08-21T16:04:35Z</time>
      </trkpt>
      <trkpt lat="2.754222" lon="-75.07719">
        <ele>2084.3</ele>
        <time>2021-08-21T16:04:36Z</time>
      </trkpt>
      <trkpt lat="2.754199" lon="-75.077194">
        <ele>2084.4</ele>
        <time>2021-08-21T16:04:37Z</time>
      </trkpt>
      <trkpt lat="2.754177" lon="-75.07721">
        <ele>2084.5</ele>
        <time>2021-08-21T16:04:38Z</time>
      </trkpt>
      <trkpt lat="2.754154" lon="-75.07722">
        <ele>2084.6</ele>
        <time>2021-08-21T16:04:39Z</time>
      </trkpt>
      <trkpt lat="2.754131" lon="-75.077225">
        <ele>2084.6</ele>
        <time>2021-08-21T16:04:40Z</time>
      </trkpt>
      <trkpt lat="2.754109" lon="-75.07723">
        <ele>2084.7</ele>
        <time>2021-08-21T16:04:41Z</time>
      </trkpt>
      <trkpt lat="2.754086" lon="-75.07724">
        <ele>2084.8</ele>
        <time>2021-08-21T16:04:42Z</time>
      </trkpt>
      <trkpt lat="2.754064" lon="-75.07725">
        <ele>2084.9</ele>
        <time>2021-08-21T16:04:43Z</time>
      </trkpt>
      <trkpt lat="2.754042" lon="-75.077255">
        <ele>2084.9</ele>
        <time>2021-08-21T16:04:44Z</time>
      </trkpt>
      <trkpt lat="2.754021" lon="-75.07726">
        <ele>2085.0</ele>
        <time>2021-08-21T16:04:45Z</time>
      </trkpt>
      <trkpt lat="2.754001" lon="-75.07727">
        <ele>2085.0</ele>
        <time>2021-08-21T16:04:46Z</time>
      </trkpt>
      <trkpt lat="2.753981" lon="-75.07728">
        <ele>2085.1</ele>
        <time>2021-08-21T16:04:47Z</time>
      </trkpt>
      <trkpt lat="2.75396" lon="-75.077286">
        <ele>2085.1</ele>
        <time>2021-08-21T16:04:48Z</time>
      </trkpt>
      <trkpt lat="2.75394" lon="-75.07729">
        <ele>2085.2</ele>
        <time>2021-08-21T16:04:49Z</time>
      </trkpt>
      <trkpt lat="2.753919" lon="-75.0773">
        <ele>2085.2</ele>
        <time>2021-08-21T16:04:50Z</time>
      </trkpt>
      <trkpt lat="2.753899" lon="-75.07731">
        <ele>2085.3</ele>
        <time>2021-08-21T16:04:51Z</time>
      </trkpt>
      <trkpt lat="2.753879" lon="-75.07732">
        <ele>2085.3</ele>
        <time>2021-08-21T16:04:52Z</time>
      </trkpt>
      <trkpt lat="2.753858" lon="-75.07733">
        <ele>2085.4</ele>
        <time>2021-08-21T16:04:53Z</time>
      </trkpt>
      <trkpt lat="2.753837" lon="-75.07734">
        <ele>2085.4</ele>
        <time>2021-08-21T16:04:54Z</time>
      </trkpt>
      <trkpt lat="2.753816" lon="-75.07735">
        <ele>2085.4</ele>
        <time>2021-08-21T16:04:55Z</time>
      </trkpt>
      <trkpt lat="2.753797" lon="-75.077354">
        <ele>2085.4</ele>
        <time>2021-08-21T16:04:56Z</time>
      </trkpt>
      <trkpt lat="2.753779" lon="-75.07736">
        <ele>2085.5</ele>
        <time>2021-08-21T16:04:57Z</time>
      </trkpt>
      <trkpt lat="2.753762" lon="-75.07737">
        <ele>2085.5</ele>
        <time>2021-08-21T16:04:58Z</time>
      </trkpt>
      <trkpt lat="2.753747" lon="-75.07738">
        <ele>2085.5</ele>
        <time>2021-08-21T16:04:59Z</time>
      </trkpt>
      <trkpt lat="2.753732" lon="-75.07738">
        <ele>2085.5</ele>
        <time>2021-08-21T16:05:00Z</time>
      </trkpt>
      <trkpt lat="2.753718" lon="-75.077385">
        <ele>2085.6</ele>
        <time>2021-08-21T16:05:01Z</time>
      </trkpt>
      <trkpt lat="2.753706" lon="-75.07739">
        <ele>2085.6</ele>
        <time>2021-08-21T16:05:02Z</time>
      </trkpt>
      <trkpt lat="2.753696" lon="-75.0774">
        <ele>2085.6</ele>
        <time>2021-08-21T16:05:03Z</time>
      </trkpt>
      <trkpt lat="2.753688" lon="-75.0774">
        <ele>2085.6</ele>
        <time>2021-08-21T16:05:04Z</time>
      </trkpt>
      <trkpt lat="2.753548" lon="-75.07745">
        <ele>2085.9</ele>
        <time>2021-08-21T16:08:19Z</time>
      </trkpt>
      <trkpt lat="2.753541" lon="-75.07746">
        <ele>2085.9</ele>
        <time>2021-08-21T16:08:20Z</time>
      </trkpt>
      <trkpt lat="2.753527" lon="-75.07746">
        <ele>2085.9</ele>
        <time>2021-08-21T16:08:21Z</time>
      </trkpt>
      <trkpt lat="2.753508" lon="-75.07747">
        <ele>2085.9</ele>
        <time>2021-08-21T16:08:22Z</time>
      </trkpt>
      <trkpt lat="2.753487" lon="-75.07748">
        <ele>2085.9</ele>
        <time>2021-08-21T16:08:23Z</time>
      </trkpt>
      <trkpt lat="2.753464" lon="-75.077484">
        <ele>2086.0</ele>
        <time>2021-08-21T16:08:24Z</time>
      </trkpt>
      <trkpt lat="2.753442" lon="-75.07749">
        <ele>2086.0</ele>
        <time>2021-08-21T16:08:25Z</time>
      </trkpt>
      <trkpt lat="2.75342" lon="-75.0775">
        <ele>2086.0</ele>
        <time>2021-08-21T16:08:26Z</time>
      </trkpt>
      <trkpt lat="2.753398" lon="-75.0775">
        <ele>2086.1</ele>
        <time>2021-08-21T16:08:27Z</time>
      </trkpt>
      <trkpt lat="2.753375" lon="-75.0775">
        <ele>2086.1</ele>
        <time>2021-08-21T16:08:28Z</time>
      </trkpt>
      <trkpt lat="2.753352" lon="-75.07751">
        <ele>2086.2</ele>
        <time>2021-08-21T16:08:29Z</time>
      </trkpt>
      <trkpt lat="2.753328" lon="-75.07751">
        <ele>2086.2</ele>
        <time>2021-08-21T16:08:30Z</time>
      </trkpt>
      <trkpt lat="2.753305" lon="-75.07751">
        <ele>2086.3</ele>
        <time>2021-08-21T16:08:31Z</time>
      </trkpt>
      <trkpt lat="2.753282" lon="-75.07751">
        <ele>2086.3</ele>
        <time>2021-08-21T16:08:32Z</time>
      </trkpt>
      <trkpt lat="2.753259" lon="-75.07751">
        <ele>2086.4</ele>
        <time>2021-08-21T16:08:33Z</time>
      </trkpt>
      <trkpt lat="2.753235" lon="-75.07751">
        <ele>2086.4</ele>
        <time>2021-08-21T16:08:34Z</time>
      </trkpt>
      <trkpt lat="2.753211" lon="-75.07751">
        <ele>2086.5</ele>
        <time>2021-08-21T16:08:35Z</time>
      </trkpt>
      <trkpt lat="2.753187" lon="-75.0775">
        <ele>2086.5</ele>
        <time>2021-08-21T16:08:36Z</time>
      </trkpt>
      <trkpt lat="2.753163" lon="-75.07749">
        <ele>2086.5</ele>
        <time>2021-08-21T16:08:37Z</time>
      </trkpt>
      <trkpt lat="2.753138" lon="-75.077484">
        <ele>2086.6</ele>
        <time>2021-08-21T16:08:38Z</time>
      </trkpt>
      <trkpt lat="2.753113" lon="-75.07748">
        <ele>2086.6</ele>
        <time>2021-08-21T16:08:39Z</time>
      </trkpt>
      <trkpt lat="2.75309" lon="-75.07747">
        <ele>2086.7</ele>
        <time>2021-08-21T16:08:40Z</time>
      </trkpt>
      <trkpt lat="2.753067" lon="-75.07746">
        <ele>2086.7</ele>
        <time>2021-08-21T16:08:41Z</time>
      </trkpt>
      <trkpt lat="2.753044" lon="-75.07745">
        <ele>2086.8</ele>
        <time>2021-08-21T16:08:42Z</time>
      </trkpt>
      <trkpt lat="2.753021" lon="-75.07744">
        <ele>2086.8</ele>
        <time>2021-08-21T16:08:43Z</time>
      </trkpt>
      <trkpt lat="2.752999" lon="-75.07743">
        <ele>2086.8</ele>
        <time>2021-08-21T16:08:44Z</time>
      </trkpt>
      <trkpt lat="2.752978" lon="-75.07742">
        <ele>2086.9</ele>
        <time>2021-08-21T16:08:45Z</time>
      </trkpt>
      <trkpt lat="2.752957" lon="-75.077415">
        <ele>2086.9</ele>
        <time>2021-08-21T16:08:46Z</time>
      </trkpt>
      <trkpt lat="2.752935" lon="-75.07741">
        <ele>2086.9</ele>
        <time>2021-08-21T16:08:47Z</time>
      </trkpt>
      <trkpt lat="2.752913" lon="-75.07739">
        <ele>2087.0</ele>
        <time>2021-08-21T16:08:48Z</time>
      </trkpt>
      <trkpt lat="2.752891" lon="-75.077385">
        <ele>2087.0</ele>
        <time>2021-08-21T16:08:49Z</time>
      </trkpt>
      <trkpt lat="2.752868" lon="-75.07737">
        <ele>2087.0</ele>
        <time>2021-08-21T16:08:50Z</time>
      </trkpt>
      <trkpt lat="2.752845" lon="-75.077354">
        <ele>2087.0</ele>
        <time>2021-08-21T16:08:51Z</time>
      </trkpt>
      <trkpt lat="2.75282" lon="-75.07735">
        <ele>2087.0</ele>
        <time>2021-08-21T16:08:52Z</time>
      </trkpt>
      <trkpt lat="2.752793" lon="-75.07733">
        <ele>2087.0</ele>
        <time>2021-08-21T16:08:53Z</time>
      </trkpt>
      <trkpt lat="2.752764" lon="-75.07732">
        <ele>2087.0</ele>
        <time>2021-08-21T16:08:54Z</time>
      </trkpt>
      <trkpt lat="2.752733" lon="-75.07731">
        <ele>2087.0</ele>
        <time>2021-08-21T16:08:55Z</time>
      </trkpt>
      <trkpt lat="2.7527" lon="-75.0773">
        <ele>2087.0</ele>
        <time>2021-08-21T16:08:56Z</time>
      </trkpt>
      <trkpt lat="2.752666" lon="-75.07729">
        <ele>2087.0</ele>
        <time>2021-08-21T16:08:57Z</time>
      </trkpt>
      <trkpt lat="2.75263" lon="-75.077286">
        <ele>2087.0</ele>
        <time>2021-08-21T16:08:58Z</time>
      </trkpt>
      <trkpt lat="2.752593" lon="-75.077286">
        <ele>2087.0</ele>
        <time>2021-08-21T16:08:59Z</time>
      </trkpt>
      <trkpt lat="2.752558" lon="-75.077286">
        <ele>2087.0</ele>
        <time>2021-08-21T16:09:00Z</time>
      </trkpt>
      <trkpt lat="2.752521" lon="-75.077286">
        <ele>2087.1</ele>
        <time>2021-08-21T16:09:01Z</time>
      </trkpt>
      <trkpt lat="2.752487" lon="-75.077286">
        <ele>2087.1</ele>
        <time>2021-08-21T16:09:02Z</time>
      </trkpt>
      <trkpt lat="2.752452" lon="-75.07729">
        <ele>2087.1</ele>
        <time>2021-08-21T16:09:03Z</time>
      </trkpt>
      <trkpt lat="2.752418" lon="-75.07729">
        <ele>2087.2</ele>
        <time>2021-08-21T16:09:04Z</time>
      </trkpt>
      <trkpt lat="2.752386" lon="-75.0773">
        <ele>2087.3</ele>
        <time>2021-08-21T16:09:05Z</time>
      </trkpt>
      <trkpt lat="2.752356" lon="-75.07731">
        <ele>2087.3</ele>
        <time>2021-08-21T16:09:06Z</time>
      </trkpt>
      <trkpt lat="2.752328" lon="-75.07732">
        <ele>2087.4</ele>
        <time>2021-08-21T16:09:07Z</time>
      </trkpt>
      <trkpt lat="2.752299" lon="-75.077324">
        <ele>2087.4</ele>
        <time>2021-08-21T16:09:08Z</time>
      </trkpt>
      <trkpt lat="2.752271" lon="-75.07734">
        <ele>2087.5</ele>
        <time>2021-08-21T16:09:09Z</time>
      </trkpt>
      <trkpt lat="2.752243" lon="-75.07735">
        <ele>2087.5</ele>
        <time>2021-08-21T16:09:10Z</time>
      </trkpt>
      <trkpt lat="2.752216" lon="-75.07736">
        <ele>2087.6</ele>
        <time>2021-08-21T16:09:11Z</time>
      </trkpt>
      <trkpt lat="2.752187" lon="-75.07737">
        <ele>2087.6</ele>
        <time>2021-08-21T16:09:12Z</time>
      </trkpt>
      <trkpt lat="2.752161" lon="-75.07738">
        <ele>2087.7</ele>
        <time>2021-08-21T16:09:13Z</time>
      </trkpt>
      <trkpt lat="2.752134" lon="-75.07739">
        <ele>2087.8</ele>
        <time>2021-08-21T16:09:14Z</time>
      </trkpt>
      <trkpt lat="2.752106" lon="-75.0774">
        <ele>2087.8</ele>
        <time>2021-08-21T16:09:15Z</time>
      </trkpt>
      <trkpt lat="2.752078" lon="-75.077415">
        <ele>2087.9</ele>
        <time>2021-08-21T16:09:16Z</time>
      </trkpt>
      <trkpt lat="2.752052" lon="-75.07743">
        <ele>2087.9</ele>
        <time>2021-08-21T16:09:17Z</time>
      </trkpt>
      <trkpt lat="2.752026" lon="-75.077446">
        <ele>2087.9</ele>
        <time>2021-08-21T16:09:18Z</time>
      </trkpt>
      <trkpt lat="2.752001" lon="-75.07746">
        <ele>2088.0</ele>
        <time>2021-08-21T16:09:19Z</time>
      </trkpt>
      <trkpt lat="2.751977" lon="-75.07748">
        <ele>2088.0</ele>
        <time>2021-08-21T16:09:20Z</time>
      </trkpt>
      <trkpt lat="2.751954" lon="-75.0775">
        <ele>2088.1</ele>
        <time>2021-08-21T16:09:21Z</time>
      </trkpt>
      <trkpt lat="2.751932" lon="-75.07752">
        <ele>2088.1</ele>
        <time>2021-08-21T16:09:22Z</time>
      </trkpt>
      <trkpt lat="2.75191" lon="-75.077545">
        <ele>2088.2</ele>
        <time>2021-08-21T16:09:23Z</time>
      </trkpt>
      <trkpt lat="2.751889" lon="-75.07756">
        <ele>2088.2</ele>
        <time>2021-08-21T16:09:24Z</time>
      </trkpt>
      <trkpt lat="2.751868" lon="-75.07758">
        <ele>2088.3</ele>
        <time>2021-08-21T16:09:25Z</time>
      </trkpt>
      <trkpt lat="2.751848" lon="-75.07761">
        <ele>2088.3</ele>
        <time>2021-08-21T16:09:26Z</time>
      </trkpt>
      <trkpt lat="2.751829" lon="-75.07763">
        <ele>2088.4</ele>
        <time>2021-08-21T16:09:27Z</time>
      </trkpt>
      <trkpt lat="2.751813" lon="-75.07765">
        <ele>2088.4</ele>
        <time>2021-08-21T16:09:28Z</time>
      </trkpt>
      <trkpt lat="2.751795" lon="-75.07767">
        <ele>2088.5</ele>
        <time>2021-08-21T16:09:29Z</time>
      </trkpt>
      <trkpt lat="2.751779" lon="-75.07768">
        <ele>2088.6</ele>
        <time>2021-08-21T16:09:30Z</time>
      </trkpt>
      <trkpt lat="2.751764" lon="-75.0777">
        <ele>2088.6</ele>
        <time>2021-08-21T16:09:31Z</time>
      </trkpt>
      <trkpt lat="2.751749" lon="-75.07771">
        <ele>2088.7</ele>
        <time>2021-08-21T16:09:32Z</time>
      </trkpt>
      <trkpt lat="2.751734" lon="-75.07773">
        <ele>2088.7</ele>
        <time>2021-08-21T16:09:33Z</time>
      </trkpt>
      <trkpt lat="2.751719" lon="-75.07775">
        <ele>2088.8</ele>
        <time>2021-08-21T16:09:34Z</time>
      </trkpt>
      <trkpt lat="2.751704" lon="-75.07777">
        <ele>2088.8</ele>
        <time>2021-08-21T16:09:35Z</time>
      </trkpt>
      <trkpt lat="2.751689" lon="-75.07778">
        <ele>2088.9</ele>
        <time>2021-08-21T16:09:36Z</time>
      </trkpt>
      <trkpt lat="2.751673" lon="-75.0778">
        <ele>2089.0</ele>
        <time>2021-08-21T16:09:37Z</time>
      </trkpt>
      <trkpt lat="2.751657" lon="-75.07781">
        <ele>2089.0</ele>
        <time>2021-08-21T16:09:38Z</time>
      </trkpt>
      <trkpt lat="2.75164" lon="-75.07783">
        <ele>2089.0</ele>
        <time>2021-08-21T16:09:39Z</time>
      </trkpt>
      <trkpt lat="2.751623" lon="-75.07784">
        <ele>2089.1</ele>
        <time>2021-08-21T16:09:40Z</time>
      </trkpt>
      <trkpt lat="2.751605" lon="-75.07785">
        <ele>2089.1</ele>
        <time>2021-08-21T16:09:41Z</time>
      </trkpt>
      <trkpt lat="2.751587" lon="-75.077866">
        <ele>2089.2</ele>
        <time>2021-08-21T16:09:42Z</time>
      </trkpt>
      <trkpt lat="2.751568" lon="-75.07788">
        <ele>2089.2</ele>
        <time>2021-08-21T16:09:43Z</time>
      </trkpt>
      <trkpt lat="2.751552" lon="-75.077896">
        <ele>2089.3</ele>
        <time>2021-08-21T16:09:44Z</time>
      </trkpt>
      <trkpt lat="2.751537" lon="-75.07791">
        <ele>2089.3</ele>
        <time>2021-08-21T16:09:45Z</time>
      </trkpt>
      <trkpt lat="2.751524" lon="-75.07793">
        <ele>2089.3</ele>
        <time>2021-08-21T16:09:46Z</time>
      </trkpt>
      <trkpt lat="2.751511" lon="-75.07794">
        <ele>2089.4</ele>
        <time>2021-08-21T16:09:47Z</time>
      </trkpt>
      <trkpt lat="2.751498" lon="-75.07796">
        <ele>2089.4</ele>
        <time>2021-08-21T16:09:48Z</time>
      </trkpt>
      <trkpt lat="2.751484" lon="-75.07797">
        <ele>2089.5</ele>
        <time>2021-08-21T16:09:49Z</time>
      </trkpt>
      <trkpt lat="2.75147" lon="-75.077995">
        <ele>2089.6</ele>
        <time>2021-08-21T16:09:50Z</time>
      </trkpt>
      <trkpt lat="2.751456" lon="-75.07801">
        <ele>2089.6</ele>
        <time>2021-08-21T16:09:51Z</time>
      </trkpt>
      <trkpt lat="2.751441" lon="-75.078026">
        <ele>2089.7</ele>
        <time>2021-08-21T16:09:52Z</time>
      </trkpt>
      <trkpt lat="2.751427" lon="-75.07804">
        <ele>2089.7</ele>
        <time>2021-08-21T16:09:53Z</time>
      </trkpt>
      <trkpt lat="2.751411" lon="-75.07806">
        <ele>2089.8</ele>
        <time>2021-08-21T16:09:54Z</time>
      </trkpt>
      <trkpt lat="2.751396" lon="-75.07808">
        <ele>2089.8</ele>
        <time>2021-08-21T16:09:55Z</time>
      </trkpt>
      <trkpt lat="2.751381" lon="-75.078094">
        <ele>2089.9</ele>
        <time>2021-08-21T16:09:56Z</time>
      </trkpt>
      <trkpt lat="2.751366" lon="-75.07811">
        <ele>2090.0</ele>
        <time>2021-08-21T16:09:57Z</time>
      </trkpt>
      <trkpt lat="2.751351" lon="-75.078125">
        <ele>2090.0</ele>
        <time>2021-08-21T16:09:58Z</time>
      </trkpt>
      <trkpt lat="2.751336" lon="-75.07815">
        <ele>2090.1</ele>
        <time>2021-08-21T16:09:59Z</time>
      </trkpt>
      <trkpt lat="2.751322" lon="-75.07816">
        <ele>2090.1</ele>
        <time>2021-08-21T16:10:00Z</time>
      </trkpt>
      <trkpt lat="2.751307" lon="-75.07818">
        <ele>2090.2</ele>
        <time>2021-08-21T16:10:01Z</time>
      </trkpt>
      <trkpt lat="2.751292" lon="-75.07819">
        <ele>2090.2</ele>
        <time>2021-08-21T16:10:02Z</time>
      </trkpt>
      <trkpt lat="2.751278" lon="-75.07821">
        <ele>2090.3</ele>
        <time>2021-08-21T16:10:03Z</time>
      </trkpt>
      <trkpt lat="2.751263" lon="-75.078224">
        <ele>2090.3</ele>
        <time>2021-08-21T16:10:04Z</time>
      </trkpt>
      <trkpt lat="2.751249" lon="-75.07824">
        <ele>2090.4</ele>
        <time>2021-08-21T16:10:05Z</time>
      </trkpt>
      <trkpt lat="2.751235" lon="-75.07826">
        <ele>2090.5</ele>
        <time>2021-08-21T16:10:06Z</time>
      </trkpt>
      <trkpt lat="2.751221" lon="-75.07828">
        <ele>2090.5</ele>
        <time>2021-08-21T16:10:07Z</time>
      </trkpt>
      <trkpt lat="2.751208" lon="-75.0783">
        <ele>2090.6</ele>
        <time>2021-08-21T16:10:08Z</time>
      </trkpt>
      <trkpt lat="2.751194" lon="-75.07832">
        <ele>2090.6</ele>
        <time>2021-08-21T16:10:09Z</time>
      </trkpt>
      <trkpt lat="2.751181" lon="-75.07834">
        <ele>2090.7</ele>
        <time>2021-08-21T16:10:10Z</time>
      </trkpt>
      <trkpt lat="2.751167" lon="-75.07836">
        <ele>2090.8</ele>
        <time>2021-08-21T16:10:11Z</time>
      </trkpt>
      <trkpt lat="2.751152" lon="-75.078384">
        <ele>2090.8</ele>
        <time>2021-08-21T16:10:12Z</time>
      </trkpt>
      <trkpt lat="2.751137" lon="-75.07841">
        <ele>2090.9</ele>
        <time>2021-08-21T16:10:13Z</time>
      </trkpt>
      <trkpt lat="2.751123" lon="-75.07843">
        <ele>2091.0</ele>
        <time>2021-08-21T16:10:14Z</time>
      </trkpt>
      <trkpt lat="2.751108" lon="-75.07845">
        <ele>2091.0</ele>
        <time>2021-08-21T16:10:15Z</time>
      </trkpt>
      <trkpt lat="2.751095" lon="-75.078476">
        <ele>2091.1</ele>
        <time>2021-08-21T16:10:16Z</time>
      </trkpt>
      <trkpt lat="2.751082" lon="-75.07849">
        <ele>2091.1</ele>
        <time>2021-08-21T16:10:17Z</time>
      </trkpt>
      <trkpt lat="2.751066" lon="-75.078514">
        <ele>2091.2</ele>
        <time>2021-08-21T16:10:18Z</time>
      </trkpt>
      <trkpt lat="2.751052" lon="-75.07854">
        <ele>2091.2</ele>
        <time>2021-08-21T16:10:19Z</time>
      </trkpt>
      <trkpt lat="2.75104" lon="-75.07856">
        <ele>2091.3</ele>
        <time>2021-08-21T16:10:20Z</time>
      </trkpt>
      <trkpt lat="2.751028" lon="-75.07858">
        <ele>2091.4</ele>
        <time>2021-08-21T16:10:21Z</time>
      </trkpt>
      <trkpt lat="2.751015" lon="-75.078606">
        <ele>2091.4</ele>
        <time>2021-08-21T16:10:22Z</time>
      </trkpt>
      <trkpt lat="2.751002" lon="-75.07863">
        <ele>2091.5</ele>
        <time>2021-08-21T16:10:23Z</time>
      </trkpt>
      <trkpt lat="2.750988" lon="-75.07865">
        <ele>2091.6</ele>
        <time>2021-08-21T16:10:24Z</time>
      </trkpt>
      <trkpt lat="2.750976" lon="-75.078674">
        <ele>2091.6</ele>
        <time>2021-08-21T16:10:25Z</time>
      </trkpt>
      <trkpt lat="2.750964" lon="-75.0787">
        <ele>2091.7</ele>
        <time>2021-08-21T16:10:26Z</time>
      </trkpt>
      <trkpt lat="2.750952" lon="-75.07872">
        <ele>2091.8</ele>
        <time>2021-08-21T16:10:27Z</time>
      </trkpt>
      <trkpt lat="2.750939" lon="-75.07874">
        <ele>2091.9</ele>
        <time>2021-08-21T16:10:28Z</time>
      </trkpt>
      <trkpt lat="2.750927" lon="-75.078766">
        <ele>2092.0</ele>
        <time>2021-08-21T16:10:29Z</time>
      </trkpt>
      <trkpt lat="2.750914" lon="-75.07879">
        <ele>2092.1</ele>
        <time>2021-08-21T16:10:30Z</time>
      </trkpt>
      <trkpt lat="2.750902" lon="-75.07881">
        <ele>2092.2</ele>
        <time>2021-08-21T16:10:31Z</time>
      </trkpt>
      <trkpt lat="2.75089" lon="-75.078835">
        <ele>2092.3</ele>
        <time>2021-08-21T16:10:32Z</time>
      </trkpt>
      <trkpt lat="2.750878" lon="-75.07886">
        <ele>2092.4</ele>
        <time>2021-08-21T16:10:33Z</time>
      </trkpt>
      <trkpt lat="2.750864" lon="-75.07888">
        <ele>2092.5</ele>
        <time>2021-08-21T16:10:34Z</time>
      </trkpt>
      <trkpt lat="2.750851" lon="-75.078896">
        <ele>2092.6</ele>
        <time>2021-08-21T16:10:35Z</time>
      </trkpt>
      <trkpt lat="2.750838" lon="-75.07892">
        <ele>2092.6</ele>
        <time>2021-08-21T16:10:36Z</time>
      </trkpt>
      <trkpt lat="2.750825" lon="-75.07894">
        <ele>2092.7</ele>
        <time>2021-08-21T16:10:37Z</time>
      </trkpt>
      <trkpt lat="2.750813" lon="-75.078964">
        <ele>2092.8</ele>
        <time>2021-08-21T16:10:38Z</time>
      </trkpt>
      <trkpt lat="2.750801" lon="-75.07898">
        <ele>2092.9</ele>
        <time>2021-08-21T16:10:39Z</time>
      </trkpt>
      <trkpt lat="2.750788" lon="-75.079">
        <ele>2093.0</ele>
        <time>2021-08-21T16:10:40Z</time>
      </trkpt>
      <trkpt lat="2.750775" lon="-75.079025">
        <ele>2093.1</ele>
        <time>2021-08-21T16:10:41Z</time>
      </trkpt>
      <trkpt lat="2.750763" lon="-75.07904">
        <ele>2093.2</ele>
        <time>2021-08-21T16:10:42Z</time>
      </trkpt>
      <trkpt lat="2.750751" lon="-75.07906">
        <ele>2093.3</ele>
        <time>2021-08-21T16:10:43Z</time>
      </trkpt>
      <trkpt lat="2.750739" lon="-75.07908">
        <ele>2093.3</ele>
        <time>2021-08-21T16:10:44Z</time>
      </trkpt>
      <trkpt lat="2.750725" lon="-75.0791">
        <ele>2093.4</ele>
        <time>2021-08-21T16:10:45Z</time>
      </trkpt>
      <trkpt lat="2.750711" lon="-75.07912">
        <ele>2093.5</ele>
        <time>2021-08-21T16:10:46Z</time>
      </trkpt>
      <trkpt lat="2.750696" lon="-75.07914">
        <ele>2093.6</ele>
        <time>2021-08-21T16:10:47Z</time>
      </trkpt>
      <trkpt lat="2.75068" lon="-75.079155">
        <ele>2093.7</ele>
        <time>2021-08-21T16:10:48Z</time>
      </trkpt>
      <trkpt lat="2.750664" lon="-75.07917">
        <ele>2093.8</ele>
        <time>2021-08-21T16:10:49Z</time>
      </trkpt>
      <trkpt lat="2.750648" lon="-75.07919">
        <ele>2093.9</ele>
        <time>2021-08-21T16:10:50Z</time>
      </trkpt>
      <trkpt lat="2.750632" lon="-75.07921">
        <ele>2094.0</ele>
        <time>2021-08-21T16:10:51Z</time>
      </trkpt>
      <trkpt lat="2.750598" lon="-75.07924">
        <ele>2094.1</ele>
        <time>2021-08-21T16:10:52Z</time>
      </trkpt>
      <trkpt lat="2.750615" lon="-75.07922">
        <ele>2094.0</ele>
        <time>2021-08-21T16:10:52Z</time>
      </trkpt>
      <trkpt lat="2.75058" lon="-75.07925">
        <ele>2094.2</ele>
        <time>2021-08-21T16:10:53Z</time>
      </trkpt>
      <trkpt lat="2.750561" lon="-75.07927">
        <ele>2094.2</ele>
        <time>2021-08-21T16:10:54Z</time>
      </trkpt>
      <trkpt lat="2.750541" lon="-75.079285">
        <ele>2094.3</ele>
        <time>2021-08-21T16:10:55Z</time>
      </trkpt>
      <trkpt lat="2.75052" lon="-75.07929">
        <ele>2094.4</ele>
        <time>2021-08-21T16:10:56Z</time>
      </trkpt>
      <trkpt lat="2.750498" lon="-75.07931">
        <ele>2094.5</ele>
        <time>2021-08-21T16:10:57Z</time>
      </trkpt>
      <trkpt lat="2.750476" lon="-75.07932">
        <ele>2094.5</ele>
        <time>2021-08-21T16:10:58Z</time>
      </trkpt>
      <trkpt lat="2.750455" lon="-75.07934">
        <ele>2094.6</ele>
        <time>2021-08-21T16:10:59Z</time>
      </trkpt>
      <trkpt lat="2.750433" lon="-75.07935">
        <ele>2094.7</ele>
        <time>2021-08-21T16:11:00Z</time>
      </trkpt>
      <trkpt lat="2.750411" lon="-75.07937">
        <ele>2094.8</ele>
        <time>2021-08-21T16:11:01Z</time>
      </trkpt>
      <trkpt lat="2.75039" lon="-75.07938">
        <ele>2094.9</ele>
        <time>2021-08-21T16:11:02Z</time>
      </trkpt>
      <trkpt lat="2.750368" lon="-75.07939">
        <ele>2094.9</ele>
        <time>2021-08-21T16:11:03Z</time>
      </trkpt>
      <trkpt lat="2.750346" lon="-75.07941">
        <ele>2095.0</ele>
        <time>2021-08-21T16:11:04Z</time>
      </trkpt>
      <trkpt lat="2.750325" lon="-75.079414">
        <ele>2095.1</ele>
        <time>2021-08-21T16:11:05Z</time>
      </trkpt>
      <trkpt lat="2.750304" lon="-75.07943">
        <ele>2095.2</ele>
        <time>2021-08-21T16:11:06Z</time>
      </trkpt>
      <trkpt lat="2.750284" lon="-75.07944">
        <ele>2095.2</ele>
        <time>2021-08-21T16:11:07Z</time>
      </trkpt>
      <trkpt lat="2.750264" lon="-75.07945">
        <ele>2095.3</ele>
        <time>2021-08-21T16:11:08Z</time>
      </trkpt>
      <trkpt lat="2.750244" lon="-75.07946">
        <ele>2095.4</ele>
        <time>2021-08-21T16:11:09Z</time>
      </trkpt>
      <trkpt lat="2.750224" lon="-75.07947">
        <ele>2095.4</ele>
        <time>2021-08-21T16:11:10Z</time>
      </trkpt>
      <trkpt lat="2.750204" lon="-75.07948">
        <ele>2095.5</ele>
        <time>2021-08-21T16:11:11Z</time>
      </trkpt>
      <trkpt lat="2.750183" lon="-75.07949">
        <ele>2095.6</ele>
        <time>2021-08-21T16:11:12Z</time>
      </trkpt>
      <trkpt lat="2.750161" lon="-75.079506">
        <ele>2095.6</ele>
        <time>2021-08-21T16:11:13Z</time>
      </trkpt>
      <trkpt lat="2.750139" lon="-75.07951">
        <ele>2095.7</ele>
        <time>2021-08-21T16:11:14Z</time>
      </trkpt>
      <trkpt lat="2.750117" lon="-75.07953">
        <ele>2095.8</ele>
        <time>2021-08-21T16:11:15Z</time>
      </trkpt>
      <trkpt lat="2.750093" lon="-75.07954">
        <ele>2095.9</ele>
        <time>2021-08-21T16:11:16Z</time>
      </trkpt>
      <trkpt lat="2.750069" lon="-75.07955">
        <ele>2095.9</ele>
        <time>2021-08-21T16:11:17Z</time>
      </trkpt>
      <trkpt lat="2.750045" lon="-75.07957">
        <ele>2096.0</ele>
        <time>2021-08-21T16:11:18Z</time>
      </trkpt>
      <trkpt lat="2.750021" lon="-75.079575">
        <ele>2096.1</ele>
        <time>2021-08-21T16:11:19Z</time>
      </trkpt>
      <trkpt lat="2.749999" lon="-75.07959">
        <ele>2096.2</ele>
        <time>2021-08-21T16:11:20Z</time>
      </trkpt>
      <trkpt lat="2.749976" lon="-75.079605">
        <ele>2096.3</ele>
        <time>2021-08-21T16:11:21Z</time>
      </trkpt>
      <trkpt lat="2.749954" lon="-75.07962">
        <ele>2096.4</ele>
        <time>2021-08-21T16:11:22Z</time>
      </trkpt>
      <trkpt lat="2.749932" lon="-75.079636">
        <ele>2096.4</ele>
        <time>2021-08-21T16:11:23Z</time>
      </trkpt>
      <trkpt lat="2.749909" lon="-75.07965">
        <ele>2096.5</ele>
        <time>2021-08-21T16:11:24Z</time>
      </trkpt>
      <trkpt lat="2.749887" lon="-75.079666">
        <ele>2096.6</ele>
        <time>2021-08-21T16:11:25Z</time>
      </trkpt>
      <trkpt lat="2.749865" lon="-75.07968">
        <ele>2096.7</ele>
        <time>2021-08-21T16:11:26Z</time>
      </trkpt>
      <trkpt lat="2.749843" lon="-75.0797">
        <ele>2096.8</ele>
        <time>2021-08-21T16:11:27Z</time>
      </trkpt>
      <trkpt lat="2.749821" lon="-75.07971">
        <ele>2096.9</ele>
        <time>2021-08-21T16:11:28Z</time>
      </trkpt>
      <trkpt lat="2.749799" lon="-75.07973">
        <ele>2096.9</ele>
        <time>2021-08-21T16:11:29Z</time>
      </trkpt>
      <trkpt lat="2.749778" lon="-75.07975">
        <ele>2097.0</ele>
        <time>2021-08-21T16:11:30Z</time>
      </trkpt>
      <trkpt lat="2.749757" lon="-75.079765">
        <ele>2097.1</ele>
        <time>2021-08-21T16:11:31Z</time>
      </trkpt>
      <trkpt lat="2.749736" lon="-75.07979">
        <ele>2097.2</ele>
        <time>2021-08-21T16:11:32Z</time>
      </trkpt>
      <trkpt lat="2.749716" lon="-75.07981">
        <ele>2097.3</ele>
        <time>2021-08-21T16:11:33Z</time>
      </trkpt>
      <trkpt lat="2.749697" lon="-75.07983">
        <ele>2097.4</ele>
        <time>2021-08-21T16:11:34Z</time>
      </trkpt>
      <trkpt lat="2.749678" lon="-75.07985">
        <ele>2097.5</ele>
        <time>2021-08-21T16:11:35Z</time>
      </trkpt>
      <trkpt lat="2.749661" lon="-75.07987">
        <ele>2097.6</ele>
        <time>2021-08-21T16:11:36Z</time>
      </trkpt>
      <trkpt lat="2.749643" lon="-75.07989">
        <ele>2097.7</ele>
        <time>2021-08-21T16:11:37Z</time>
      </trkpt>
      <trkpt lat="2.749626" lon="-75.07991">
        <ele>2097.8</ele>
        <time>2021-08-21T16:11:38Z</time>
      </trkpt>
      <trkpt lat="2.74961" lon="-75.079926">
        <ele>2097.9</ele>
        <time>2021-08-21T16:11:39Z</time>
      </trkpt>
      <trkpt lat="2.749595" lon="-75.07995">
        <ele>2098.0</ele>
        <time>2021-08-21T16:11:40Z</time>
      </trkpt>
      <trkpt lat="2.74958" lon="-75.07997">
        <ele>2098.1</ele>
        <time>2021-08-21T16:11:41Z</time>
      </trkpt>
      <trkpt lat="2.749564" lon="-75.07999">
        <ele>2098.2</ele>
        <time>2021-08-21T16:11:42Z</time>
      </trkpt>
      <trkpt lat="2.749548" lon="-75.08001">
        <ele>2098.3</ele>
        <time>2021-08-21T16:11:43Z</time>
      </trkpt>
      <trkpt lat="2.749533" lon="-75.08003">
        <ele>2098.4</ele>
        <time>2021-08-21T16:11:44Z</time>
      </trkpt>
      <trkpt lat="2.749516" lon="-75.080055">
        <ele>2098.5</ele>
        <time>2021-08-21T16:11:45Z</time>
      </trkpt>
      <trkpt lat="2.749498" lon="-75.08008">
        <ele>2098.6</ele>
        <time>2021-08-21T16:11:46Z</time>
      </trkpt>
      <trkpt lat="2.749479" lon="-75.0801">
        <ele>2098.7</ele>
        <time>2021-08-21T16:11:47Z</time>
      </trkpt>
      <trkpt lat="2.749459" lon="-75.080124">
        <ele>2098.8</ele>
        <time>2021-08-21T16:11:48Z</time>
      </trkpt>
      <trkpt lat="2.749441" lon="-75.08014">
        <ele>2098.9</ele>
        <time>2021-08-21T16:11:49Z</time>
      </trkpt>
      <trkpt lat="2.749424" lon="-75.08016">
        <ele>2098.9</ele>
        <time>2021-08-21T16:11:50Z</time>
      </trkpt>
      <trkpt lat="2.749408" lon="-75.08019">
        <ele>2099.0</ele>
        <time>2021-08-21T16:11:51Z</time>
      </trkpt>
      <trkpt lat="2.749392" lon="-75.080215">
        <ele>2099.1</ele>
        <time>2021-08-21T16:11:52Z</time>
      </trkpt>
      <trkpt lat="2.749376" lon="-75.08024">
        <ele>2099.2</ele>
        <time>2021-08-21T16:11:53Z</time>
      </trkpt>
      <trkpt lat="2.74936" lon="-75.08026">
        <ele>2099.2</ele>
        <time>2021-08-21T16:11:54Z</time>
      </trkpt>
      <trkpt lat="2.749343" lon="-75.080284">
        <ele>2099.3</ele>
        <time>2021-08-21T16:11:55Z</time>
      </trkpt>
      <trkpt lat="2.749326" lon="-75.08031">
        <ele>2099.4</ele>
        <time>2021-08-21T16:11:56Z</time>
      </trkpt>
      <trkpt lat="2.749307" lon="-75.08033">
        <ele>2099.5</ele>
        <time>2021-08-21T16:11:57Z</time>
      </trkpt>
      <trkpt lat="2.749286" lon="-75.08035">
        <ele>2099.6</ele>
        <time>2021-08-21T16:11:58Z</time>
      </trkpt>
      <trkpt lat="2.749265" lon="-75.08037">
        <ele>2099.7</ele>
        <time>2021-08-21T16:11:59Z</time>
      </trkpt>
      <trkpt lat="2.749243" lon="-75.08038">
        <ele>2099.8</ele>
        <time>2021-08-21T16:12:00Z</time>
      </trkpt>
      <trkpt lat="2.74922" lon="-75.0804">
        <ele>2099.9</ele>
        <time>2021-08-21T16:12:01Z</time>
      </trkpt>
      <trkpt lat="2.749197" lon="-75.080414">
        <ele>2100.0</ele>
        <time>2021-08-21T16:12:02Z</time>
      </trkpt>
      <trkpt lat="2.749172" lon="-75.08042">
        <ele>2100.2</ele>
        <time>2021-08-21T16:12:03Z</time>
      </trkpt>
      <trkpt lat="2.749147" lon="-75.08044">
        <ele>2100.3</ele>
        <time>2021-08-21T16:12:04Z</time>
      </trkpt>
      <trkpt lat="2.749121" lon="-75.080444">
        <ele>2100.4</ele>
        <time>2021-08-21T16:12:05Z</time>
      </trkpt>
      <trkpt lat="2.749094" lon="-75.08045">
        <ele>2100.5</ele>
        <time>2021-08-21T16:12:06Z</time>
      </trkpt>
      <trkpt lat="2.749067" lon="-75.08046">
        <ele>2100.6</ele>
        <time>2021-08-21T16:12:07Z</time>
      </trkpt>
      <trkpt lat="2.749039" lon="-75.08046">
        <ele>2100.7</ele>
        <time>2021-08-21T16:12:08Z</time>
      </trkpt>
      <trkpt lat="2.749011" lon="-75.08047">
        <ele>2100.8</ele>
        <time>2021-08-21T16:12:09Z</time>
      </trkpt>
      <trkpt lat="2.748983" lon="-75.08047">
        <ele>2100.9</ele>
        <time>2021-08-21T16:12:10Z</time>
      </trkpt>
      <trkpt lat="2.748955" lon="-75.08047">
        <ele>2101.0</ele>
        <time>2021-08-21T16:12:11Z</time>
      </trkpt>
      <trkpt lat="2.748926" lon="-75.08047">
        <ele>2101.1</ele>
        <time>2021-08-21T16:12:12Z</time>
      </trkpt>
      <trkpt lat="2.748895" lon="-75.08047">
        <ele>2101.1</ele>
        <time>2021-08-21T16:12:13Z</time>
      </trkpt>
      <trkpt lat="2.748866" lon="-75.08047">
        <ele>2101.2</ele>
        <time>2021-08-21T16:12:14Z</time>
      </trkpt>
      <trkpt lat="2.748836" lon="-75.08046">
        <ele>2101.3</ele>
        <time>2021-08-21T16:12:15Z</time>
      </trkpt>
      <trkpt lat="2.748808" lon="-75.08046">
        <ele>2101.4</ele>
        <time>2021-08-21T16:12:16Z</time>
      </trkpt>
      <trkpt lat="2.74878" lon="-75.08046">
        <ele>2101.5</ele>
        <time>2021-08-21T16:12:17Z</time>
      </trkpt>
      <trkpt lat="2.748752" lon="-75.08046">
        <ele>2101.6</ele>
        <time>2021-08-21T16:12:18Z</time>
      </trkpt>
      <trkpt lat="2.748726" lon="-75.08046">
        <ele>2101.7</ele>
        <time>2021-08-21T16:12:19Z</time>
      </trkpt>
      <trkpt lat="2.748699" lon="-75.08047">
        <ele>2101.8</ele>
        <time>2021-08-21T16:12:20Z</time>
      </trkpt>
      <trkpt lat="2.748674" lon="-75.08048">
        <ele>2101.9</ele>
        <time>2021-08-21T16:12:21Z</time>
      </trkpt>
      <trkpt lat="2.748649" lon="-75.08049">
        <ele>2102.0</ele>
        <time>2021-08-21T16:12:22Z</time>
      </trkpt>
      <trkpt lat="2.748624" lon="-75.0805">
        <ele>2102.1</ele>
        <time>2021-08-21T16:12:23Z</time>
      </trkpt>
      <trkpt lat="2.748601" lon="-75.08051">
        <ele>2102.1</ele>
        <time>2021-08-21T16:12:24Z</time>
      </trkpt>
      <trkpt lat="2.748579" lon="-75.08053">
        <ele>2102.2</ele>
        <time>2021-08-21T16:12:25Z</time>
      </trkpt>
      <trkpt lat="2.748559" lon="-75.08054">
        <ele>2102.3</ele>
        <time>2021-08-21T16:12:26Z</time>
      </trkpt>
      <trkpt lat="2.748539" lon="-75.08056">
        <ele>2102.4</ele>
        <time>2021-08-21T16:12:27Z</time>
      </trkpt>
      <trkpt lat="2.748519" lon="-75.080574">
        <ele>2102.5</ele>
        <time>2021-08-21T16:12:28Z</time>
      </trkpt>
      <trkpt lat="2.748501" lon="-75.08059">
        <ele>2102.6</ele>
        <time>2021-08-21T16:12:29Z</time>
      </trkpt>
      <trkpt lat="2.748483" lon="-75.080605">
        <ele>2102.7</ele>
        <time>2021-08-21T16:12:30Z</time>
      </trkpt>
      <trkpt lat="2.748466" lon="-75.08062">
        <ele>2102.8</ele>
        <time>2021-08-21T16:12:31Z</time>
      </trkpt>
      <trkpt lat="2.748451" lon="-75.08064">
        <ele>2102.8</ele>
        <time>2021-08-21T16:12:32Z</time>
      </trkpt>
      <trkpt lat="2.748437" lon="-75.08066">
        <ele>2102.9</ele>
        <time>2021-08-21T16:12:33Z</time>
      </trkpt>
      <trkpt lat="2.748424" lon="-75.08067">
        <ele>2103.0</ele>
        <time>2021-08-21T16:12:34Z</time>
      </trkpt>
      <trkpt lat="2.748412" lon="-75.080696">
        <ele>2103.1</ele>
        <time>2021-08-21T16:12:35Z</time>
      </trkpt>
      <trkpt lat="2.748399" lon="-75.08072">
        <ele>2103.1</ele>
        <time>2021-08-21T16:12:36Z</time>
      </trkpt>
      <trkpt lat="2.748388" lon="-75.08074">
        <ele>2103.2</ele>
        <time>2021-08-21T16:12:37Z</time>
      </trkpt>
      <trkpt lat="2.748375" lon="-75.080765">
        <ele>2103.3</ele>
        <time>2021-08-21T16:12:38Z</time>
      </trkpt>
      <trkpt lat="2.748362" lon="-75.08078">
        <ele>2103.4</ele>
        <time>2021-08-21T16:12:39Z</time>
      </trkpt>
      <trkpt lat="2.74835" lon="-75.0808">
        <ele>2103.4</ele>
        <time>2021-08-21T16:12:40Z</time>
      </trkpt>
      <trkpt lat="2.748339" lon="-75.080826">
        <ele>2103.5</ele>
        <time>2021-08-21T16:12:41Z</time>
      </trkpt>
      <trkpt lat="2.748326" lon="-75.08085">
        <ele>2103.5</ele>
        <time>2021-08-21T16:12:42Z</time>
      </trkpt>
      <trkpt lat="2.748312" lon="-75.08087">
        <ele>2103.6</ele>
        <time>2021-08-21T16:12:43Z</time>
      </trkpt>
      <trkpt lat="2.748297" lon="-75.080894">
        <ele>2103.6</ele>
        <time>2021-08-21T16:12:44Z</time>
      </trkpt>
      <trkpt lat="2.748281" lon="-75.08092">
        <ele>2103.7</ele>
        <time>2021-08-21T16:12:45Z</time>
      </trkpt>
      <trkpt lat="2.748265" lon="-75.08094">
        <ele>2103.8</ele>
        <time>2021-08-21T16:12:46Z</time>
      </trkpt>
      <trkpt lat="2.748249" lon="-75.08096">
        <ele>2103.8</ele>
        <time>2021-08-21T16:12:47Z</time>
      </trkpt>
      <trkpt lat="2.748232" lon="-75.08098">
        <ele>2103.9</ele>
        <time>2021-08-21T16:12:48Z</time>
      </trkpt>
      <trkpt lat="2.748214" lon="-75.081">
        <ele>2103.9</ele>
        <time>2021-08-21T16:12:49Z</time>
      </trkpt>
      <trkpt lat="2.748196" lon="-75.08102">
        <ele>2104.0</ele>
        <time>2021-08-21T16:12:50Z</time>
      </trkpt>
      <trkpt lat="2.748177" lon="-75.08103">
        <ele>2104.0</ele>
        <time>2021-08-21T16:12:51Z</time>
      </trkpt>
      <trkpt lat="2.748158" lon="-75.08105">
        <ele>2104.1</ele>
        <time>2021-08-21T16:12:52Z</time>
      </trkpt>
      <trkpt lat="2.748137" lon="-75.08106">
        <ele>2104.1</ele>
        <time>2021-08-21T16:12:53Z</time>
      </trkpt>
      <trkpt lat="2.748115" lon="-75.081085">
        <ele>2104.1</ele>
        <time>2021-08-21T16:12:54Z</time>
      </trkpt>
      <trkpt lat="2.748091" lon="-75.0811">
        <ele>2104.2</ele>
        <time>2021-08-21T16:12:55Z</time>
      </trkpt>
      <trkpt lat="2.748066" lon="-75.081116">
        <ele>2104.2</ele>
        <time>2021-08-21T16:12:56Z</time>
      </trkpt>
      <trkpt lat="2.748041" lon="-75.08113">
        <ele>2104.2</ele>
        <time>2021-08-21T16:12:57Z</time>
      </trkpt>
      <trkpt lat="2.748016" lon="-75.08115">
        <ele>2104.3</ele>
        <time>2021-08-21T16:12:58Z</time>
      </trkpt>
      <trkpt lat="2.747993" lon="-75.081154">
        <ele>2104.3</ele>
        <time>2021-08-21T16:12:59Z</time>
      </trkpt>
      <trkpt lat="2.74797" lon="-75.08117">
        <ele>2104.3</ele>
        <time>2021-08-21T16:13:00Z</time>
      </trkpt>
      <trkpt lat="2.747947" lon="-75.08118">
        <ele>2104.4</ele>
        <time>2021-08-21T16:13:01Z</time>
      </trkpt>
      <trkpt lat="2.747922" lon="-75.08119">
        <ele>2104.4</ele>
        <time>2021-08-21T16:13:02Z</time>
      </trkpt>
      <trkpt lat="2.747897" lon="-75.08121">
        <ele>2104.4</ele>
        <time>2021-08-21T16:13:03Z</time>
      </trkpt>
      <trkpt lat="2.74787" lon="-75.08122">
        <ele>2104.4</ele>
        <time>2021-08-21T16:13:04Z</time>
      </trkpt>
      <trkpt lat="2.747843" lon="-75.08124">
        <ele>2104.5</ele>
        <time>2021-08-21T16:13:05Z</time>
      </trkpt>
      <trkpt lat="2.747816" lon="-75.08125">
        <ele>2104.5</ele>
        <time>2021-08-21T16:13:06Z</time>
      </trkpt>
      <trkpt lat="2.747789" lon="-75.08127">
        <ele>2104.5</ele>
        <time>2021-08-21T16:13:07Z</time>
      </trkpt>
      <trkpt lat="2.747763" lon="-75.08128">
        <ele>2104.6</ele>
        <time>2021-08-21T16:13:08Z</time>
      </trkpt>
      <trkpt lat="2.747737" lon="-75.08131">
        <ele>2104.6</ele>
        <time>2021-08-21T16:13:09Z</time>
      </trkpt>
      <trkpt lat="2.74771" lon="-75.08132">
        <ele>2104.6</ele>
        <time>2021-08-21T16:13:10Z</time>
      </trkpt>
      <trkpt lat="2.747684" lon="-75.08134">
        <ele>2104.7</ele>
        <time>2021-08-21T16:13:11Z</time>
      </trkpt>
      <trkpt lat="2.747658" lon="-75.08135">
        <ele>2104.7</ele>
        <time>2021-08-21T16:13:12Z</time>
      </trkpt>
      <trkpt lat="2.747633" lon="-75.08137">
        <ele>2104.7</ele>
        <time>2021-08-21T16:13:13Z</time>
      </trkpt>
      <trkpt lat="2.747609" lon="-75.08138">
        <ele>2104.7</ele>
        <time>2021-08-21T16:13:14Z</time>
      </trkpt>
      <trkpt lat="2.747585" lon="-75.08139">
        <ele>2104.8</ele>
        <time>2021-08-21T16:13:15Z</time>
      </trkpt>
      <trkpt lat="2.747561" lon="-75.081406">
        <ele>2104.8</ele>
        <time>2021-08-21T16:13:16Z</time>
      </trkpt>
      <trkpt lat="2.747537" lon="-75.08142">
        <ele>2104.9</ele>
        <time>2021-08-21T16:13:17Z</time>
      </trkpt>
      <trkpt lat="2.747514" lon="-75.08143">
        <ele>2104.9</ele>
        <time>2021-08-21T16:13:18Z</time>
      </trkpt>
      <trkpt lat="2.74749" lon="-75.08144">
        <ele>2104.9</ele>
        <time>2021-08-21T16:13:19Z</time>
      </trkpt>
      <trkpt lat="2.747466" lon="-75.08146">
        <ele>2105.0</ele>
        <time>2021-08-21T16:13:20Z</time>
      </trkpt>
      <trkpt lat="2.747441" lon="-75.081474">
        <ele>2105.0</ele>
        <time>2021-08-21T16:13:21Z</time>
      </trkpt>
      <trkpt lat="2.747416" lon="-75.08149">
        <ele>2105.0</ele>
        <time>2021-08-21T16:13:22Z</time>
      </trkpt>
      <trkpt lat="2.747392" lon="-75.0815">
        <ele>2105.1</ele>
        <time>2021-08-21T16:13:23Z</time>
      </trkpt>
      <trkpt lat="2.747367" lon="-75.08151">
        <ele>2105.1</ele>
        <time>2021-08-21T16:13:24Z</time>
      </trkpt>
      <trkpt lat="2.747341" lon="-75.08152">
        <ele>2105.1</ele>
        <time>2021-08-21T16:13:25Z</time>
      </trkpt>
      <trkpt lat="2.747315" lon="-75.08153">
        <ele>2105.1</ele>
        <time>2021-08-21T16:13:26Z</time>
      </trkpt>
      <trkpt lat="2.747288" lon="-75.08154">
        <ele>2105.1</ele>
        <time>2021-08-21T16:13:27Z</time>
      </trkpt>
      <trkpt lat="2.747262" lon="-75.08155">
        <ele>2105.1</ele>
        <time>2021-08-21T16:13:28Z</time>
      </trkpt>
      <trkpt lat="2.747232" lon="-75.08156">
        <ele>2105.1</ele>
        <time>2021-08-21T16:13:29Z</time>
      </trkpt>
      <trkpt lat="2.747201" lon="-75.08157">
        <ele>2105.1</ele>
        <time>2021-08-21T16:13:30Z</time>
      </trkpt>
      <trkpt lat="2.747172" lon="-75.08159">
        <ele>2105.1</ele>
        <time>2021-08-21T16:13:31Z</time>
      </trkpt>
      <trkpt lat="2.74714" lon="-75.0816">
        <ele>2105.2</ele>
        <time>2021-08-21T16:13:32Z</time>
      </trkpt>
      <trkpt lat="2.74711" lon="-75.08161">
        <ele>2105.2</ele>
        <time>2021-08-21T16:13:33Z</time>
      </trkpt>
      <trkpt lat="2.747078" lon="-75.08162">
        <ele>2105.2</ele>
        <time>2021-08-21T16:13:34Z</time>
      </trkpt>
      <trkpt lat="2.747047" lon="-75.081635">
        <ele>2105.3</ele>
        <time>2021-08-21T16:13:35Z</time>
      </trkpt>
      <trkpt lat="2.747016" lon="-75.08165">
        <ele>2105.3</ele>
        <time>2021-08-21T16:13:36Z</time>
      </trkpt>
      <trkpt lat="2.746987" lon="-75.08166">
        <ele>2105.4</ele>
        <time>2021-08-21T16:13:37Z</time>
      </trkpt>
      <trkpt lat="2.746957" lon="-75.08167">
        <ele>2105.4</ele>
        <time>2021-08-21T16:13:38Z</time>
      </trkpt>
      <trkpt lat="2.746927" lon="-75.08168">
        <ele>2105.4</ele>
        <time>2021-08-21T16:13:39Z</time>
      </trkpt>
      <trkpt lat="2.746898" lon="-75.08169">
        <ele>2105.5</ele>
        <time>2021-08-21T16:13:40Z</time>
      </trkpt>
      <trkpt lat="2.74687" lon="-75.081696">
        <ele>2105.5</ele>
        <time>2021-08-21T16:13:41Z</time>
      </trkpt>
      <trkpt lat="2.746844" lon="-75.08171">
        <ele>2105.6</ele>
        <time>2021-08-21T16:13:42Z</time>
      </trkpt>
      <trkpt lat="2.746818" lon="-75.08172">
        <ele>2105.6</ele>
        <time>2021-08-21T16:13:43Z</time>
      </trkpt>
      <trkpt lat="2.74679" lon="-75.081726">
        <ele>2105.7</ele>
        <time>2021-08-21T16:13:44Z</time>
      </trkpt>
      <trkpt lat="2.746762" lon="-75.08173">
        <ele>2105.7</ele>
        <time>2021-08-21T16:13:45Z</time>
      </trkpt>
      <trkpt lat="2.746734" lon="-75.08174">
        <ele>2105.8</ele>
        <time>2021-08-21T16:13:46Z</time>
      </trkpt>
      <trkpt lat="2.746708" lon="-75.08175">
        <ele>2105.8</ele>
        <time>2021-08-21T16:13:47Z</time>
      </trkpt>
      <trkpt lat="2.746678" lon="-75.08176">
        <ele>2105.9</ele>
        <time>2021-08-21T16:13:48Z</time>
      </trkpt>
      <trkpt lat="2.74665" lon="-75.081764">
        <ele>2106.0</ele>
        <time>2021-08-21T16:13:49Z</time>
      </trkpt>
      <trkpt lat="2.746619" lon="-75.081764">
        <ele>2106.1</ele>
        <time>2021-08-21T16:13:50Z</time>
      </trkpt>
      <trkpt lat="2.746587" lon="-75.08177">
        <ele>2106.2</ele>
        <time>2021-08-21T16:13:51Z</time>
      </trkpt>
      <trkpt lat="2.746555" lon="-75.08177">
        <ele>2106.3</ele>
        <time>2021-08-21T16:13:52Z</time>
      </trkpt>
      <trkpt lat="2.746525" lon="-75.08177">
        <ele>2106.5</ele>
        <time>2021-08-21T16:13:53Z</time>
      </trkpt>
      <trkpt lat="2.746496" lon="-75.081764">
        <ele>2106.6</ele>
        <time>2021-08-21T16:13:54Z</time>
      </trkpt>
      <trkpt lat="2.746466" lon="-75.08176">
        <ele>2106.7</ele>
        <time>2021-08-21T16:13:55Z</time>
      </trkpt>
      <trkpt lat="2.746437" lon="-75.08175">
        <ele>2106.8</ele>
        <time>2021-08-21T16:13:56Z</time>
      </trkpt>
      <trkpt lat="2.746409" lon="-75.08174">
        <ele>2106.8</ele>
        <time>2021-08-21T16:13:57Z</time>
      </trkpt>
      <trkpt lat="2.746381" lon="-75.08173">
        <ele>2106.9</ele>
        <time>2021-08-21T16:13:58Z</time>
      </trkpt>
      <trkpt lat="2.746352" lon="-75.08172">
        <ele>2107.0</ele>
        <time>2021-08-21T16:13:59Z</time>
      </trkpt>
      <trkpt lat="2.746325" lon="-75.0817">
        <ele>2107.1</ele>
        <time>2021-08-21T16:14:00Z</time>
      </trkpt>
      <trkpt lat="2.746299" lon="-75.08169">
        <ele>2107.2</ele>
        <time>2021-08-21T16:14:01Z</time>
      </trkpt>
      <trkpt lat="2.746274" lon="-75.08167">
        <ele>2107.3</ele>
        <time>2021-08-21T16:14:02Z</time>
      </trkpt>
      <trkpt lat="2.74625" lon="-75.08166">
        <ele>2107.4</ele>
        <time>2021-08-21T16:14:03Z</time>
      </trkpt>
      <trkpt lat="2.746226" lon="-75.08164">
        <ele>2107.5</ele>
        <time>2021-08-21T16:14:04Z</time>
      </trkpt>
      <trkpt lat="2.746201" lon="-75.08163">
        <ele>2107.6</ele>
        <time>2021-08-21T16:14:05Z</time>
      </trkpt>
      <trkpt lat="2.746177" lon="-75.08161">
        <ele>2107.7</ele>
        <time>2021-08-21T16:14:06Z</time>
      </trkpt>
      <trkpt lat="2.746153" lon="-75.0816">
        <ele>2107.8</ele>
        <time>2021-08-21T16:14:07Z</time>
      </trkpt>
      <trkpt lat="2.746127" lon="-75.08158">
        <ele>2107.9</ele>
        <time>2021-08-21T16:14:08Z</time>
      </trkpt>
      <trkpt lat="2.746101" lon="-75.081566">
        <ele>2108.0</ele>
        <time>2021-08-21T16:14:09Z</time>
      </trkpt>
      <trkpt lat="2.746075" lon="-75.08156">
        <ele>2108.1</ele>
        <time>2021-08-21T16:14:10Z</time>
      </trkpt>
      <trkpt lat="2.746049" lon="-75.08154">
        <ele>2108.2</ele>
        <time>2021-08-21T16:14:11Z</time>
      </trkpt>
      <trkpt lat="2.746022" lon="-75.081535">
        <ele>2108.3</ele>
        <time>2021-08-21T16:14:12Z</time>
      </trkpt>
      <trkpt lat="2.745996" lon="-75.081535">
        <ele>2108.4</ele>
        <time>2021-08-21T16:14:13Z</time>
      </trkpt>
      <trkpt lat="2.745969" lon="-75.081535">
        <ele>2108.5</ele>
        <time>2021-08-21T16:14:14Z</time>
      </trkpt>
      <trkpt lat="2.745942" lon="-75.081535">
        <ele>2108.6</ele>
        <time>2021-08-21T16:14:15Z</time>
      </trkpt>
      <trkpt lat="2.745915" lon="-75.081535">
        <ele>2108.7</ele>
        <time>2021-08-21T16:14:16Z</time>
      </trkpt>
      <trkpt lat="2.745889" lon="-75.08154">
        <ele>2108.8</ele>
        <time>2021-08-21T16:14:17Z</time>
      </trkpt>
      <trkpt lat="2.745863" lon="-75.08156">
        <ele>2108.9</ele>
        <time>2021-08-21T16:14:18Z</time>
      </trkpt>
      <trkpt lat="2.745838" lon="-75.081566">
        <ele>2109.0</ele>
        <time>2021-08-21T16:14:19Z</time>
      </trkpt>
      <trkpt lat="2.745814" lon="-75.08158">
        <ele>2109.1</ele>
        <time>2021-08-21T16:14:20Z</time>
      </trkpt>
      <trkpt lat="2.745791" lon="-75.0816">
        <ele>2109.3</ele>
        <time>2021-08-21T16:14:21Z</time>
      </trkpt>
      <trkpt lat="2.745769" lon="-75.08161">
        <ele>2109.4</ele>
        <time>2021-08-21T16:14:22Z</time>
      </trkpt>
      <trkpt lat="2.745747" lon="-75.08162">
        <ele>2109.5</ele>
        <time>2021-08-21T16:14:23Z</time>
      </trkpt>
      <trkpt lat="2.745726" lon="-75.081635">
        <ele>2109.6</ele>
        <time>2021-08-21T16:14:24Z</time>
      </trkpt>
      <trkpt lat="2.745706" lon="-75.08165">
        <ele>2109.8</ele>
        <time>2021-08-21T16:14:25Z</time>
      </trkpt>
      <trkpt lat="2.745686" lon="-75.081665">
        <ele>2109.9</ele>
        <time>2021-08-21T16:14:26Z</time>
      </trkpt>
      <trkpt lat="2.745664" lon="-75.08168">
        <ele>2110.0</ele>
        <time>2021-08-21T16:14:27Z</time>
      </trkpt>
      <trkpt lat="2.745639" lon="-75.081696">
        <ele>2110.2</ele>
        <time>2021-08-21T16:14:28Z</time>
      </trkpt>
      <trkpt lat="2.745533" lon="-75.08174">
        <ele>2110.7</ele>
        <time>2021-08-21T16:14:30Z</time>
      </trkpt>
      <trkpt lat="2.745525" lon="-75.08174">
        <ele>2110.7</ele>
        <time>2021-08-21T16:14:31Z</time>
      </trkpt>
      <trkpt lat="2.745509" lon="-75.08174">
        <ele>2110.8</ele>
        <time>2021-08-21T16:14:32Z</time>
      </trkpt>
      <trkpt lat="2.745489" lon="-75.08174">
        <ele>2110.9</ele>
        <time>2021-08-21T16:14:33Z</time>
      </trkpt>
      <trkpt lat="2.745465" lon="-75.08174">
        <ele>2111.0</ele>
        <time>2021-08-21T16:14:34Z</time>
      </trkpt>
      <trkpt lat="2.745442" lon="-75.08174">
        <ele>2111.1</ele>
        <time>2021-08-21T16:14:35Z</time>
      </trkpt>
      <trkpt lat="2.745418" lon="-75.08174">
        <ele>2111.2</ele>
        <time>2021-08-21T16:14:36Z</time>
      </trkpt>
      <trkpt lat="2.745392" lon="-75.08173">
        <ele>2111.3</ele>
        <time>2021-08-21T16:14:37Z</time>
      </trkpt>
      <trkpt lat="2.745367" lon="-75.08173">
        <ele>2111.4</ele>
        <time>2021-08-21T16:14:38Z</time>
      </trkpt>
      <trkpt lat="2.745339" lon="-75.081726">
        <ele>2111.5</ele>
        <time>2021-08-21T16:14:39Z</time>
      </trkpt>
      <trkpt lat="2.745312" lon="-75.08172">
        <ele>2111.6</ele>
        <time>2021-08-21T16:14:40Z</time>
      </trkpt>
      <trkpt lat="2.745286" lon="-75.08171">
        <ele>2111.7</ele>
        <time>2021-08-21T16:14:41Z</time>
      </trkpt>
      <trkpt lat="2.745257" lon="-75.0817">
        <ele>2111.8</ele>
        <time>2021-08-21T16:14:42Z</time>
      </trkpt>
      <trkpt lat="2.745229" lon="-75.081696">
        <ele>2111.9</ele>
        <time>2021-08-21T16:14:43Z</time>
      </trkpt>
      <trkpt lat="2.745201" lon="-75.08169">
        <ele>2112.0</ele>
        <time>2021-08-21T16:14:44Z</time>
      </trkpt>
      <trkpt lat="2.745173" lon="-75.08168">
        <ele>2112.2</ele>
        <time>2021-08-21T16:14:45Z</time>
      </trkpt>
      <trkpt lat="2.745145" lon="-75.08167">
        <ele>2112.3</ele>
        <time>2021-08-21T16:14:46Z</time>
      </trkpt>
      <trkpt lat="2.745116" lon="-75.081665">
        <ele>2112.4</ele>
        <time>2021-08-21T16:14:47Z</time>
      </trkpt>
      <trkpt lat="2.745087" lon="-75.08166">
        <ele>2112.5</ele>
        <time>2021-08-21T16:14:48Z</time>
      </trkpt>
      <trkpt lat="2.745061" lon="-75.08166">
        <ele>2112.6</ele>
        <time>2021-08-21T16:14:49Z</time>
      </trkpt>
      <trkpt lat="2.745034" lon="-75.08165">
        <ele>2112.8</ele>
        <time>2021-08-21T16:14:50Z</time>
      </trkpt>
      <trkpt lat="2.745004" lon="-75.08165">
        <ele>2112.9</ele>
        <time>2021-08-21T16:14:51Z</time>
      </trkpt>
      <trkpt lat="2.744977" lon="-75.08165">
        <ele>2113.0</ele>
        <time>2021-08-21T16:14:52Z</time>
      </trkpt>
      <trkpt lat="2.744949" lon="-75.08165">
        <ele>2113.1</ele>
        <time>2021-08-21T16:14:53Z</time>
      </trkpt>
      <trkpt lat="2.744922" lon="-75.08166">
        <ele>2113.3</ele>
        <time>2021-08-21T16:14:54Z</time>
      </trkpt>
      <trkpt lat="2.744893" lon="-75.08166">
        <ele>2113.4</ele>
        <time>2021-08-21T16:14:55Z</time>
      </trkpt>
      <trkpt lat="2.744864" lon="-75.081665">
        <ele>2113.5</ele>
        <time>2021-08-21T16:14:56Z</time>
      </trkpt>
      <trkpt lat="2.744836" lon="-75.08167">
        <ele>2113.6</ele>
        <time>2021-08-21T16:14:57Z</time>
      </trkpt>
      <trkpt lat="2.744808" lon="-75.08168">
        <ele>2113.7</ele>
        <time>2021-08-21T16:14:58Z</time>
      </trkpt>
      <trkpt lat="2.74478" lon="-75.08169">
        <ele>2113.9</ele>
        <time>2021-08-21T16:14:59Z</time>
      </trkpt>
      <trkpt lat="2.744753" lon="-75.0817">
        <ele>2114.0</ele>
        <time>2021-08-21T16:15:00Z</time>
      </trkpt>
      <trkpt lat="2.744725" lon="-75.08171">
        <ele>2114.1</ele>
        <time>2021-08-21T16:15:01Z</time>
      </trkpt>
      <trkpt lat="2.744697" lon="-75.081726">
        <ele>2114.2</ele>
        <time>2021-08-21T16:15:02Z</time>
      </trkpt>
      <trkpt lat="2.744669" lon="-75.08174">
        <ele>2114.3</ele>
        <time>2021-08-21T16:15:03Z</time>
      </trkpt>
      <trkpt lat="2.744641" lon="-75.08175">
        <ele>2114.4</ele>
        <time>2021-08-21T16:15:04Z</time>
      </trkpt>
      <trkpt lat="2.744612" lon="-75.081764">
        <ele>2114.6</ele>
        <time>2021-08-21T16:15:05Z</time>
      </trkpt>
      <trkpt lat="2.744585" lon="-75.08178">
        <ele>2114.7</ele>
        <time>2021-08-21T16:15:06Z</time>
      </trkpt>
      <trkpt lat="2.744534" lon="-75.0818">
        <ele>2114.9</ele>
        <time>2021-08-21T16:15:07Z</time>
      </trkpt>
      <trkpt lat="2.744558" lon="-75.08179">
        <ele>2114.8</ele>
        <time>2021-08-21T16:15:07Z</time>
      </trkpt>
      <trkpt lat="2.744512" lon="-75.08182">
        <ele>2115.0</ele>
        <time>2021-08-21T16:15:08Z</time>
      </trkpt>
      <trkpt lat="2.74449" lon="-75.081825">
        <ele>2115.1</ele>
        <time>2021-08-21T16:15:09Z</time>
      </trkpt>
      <trkpt lat="2.744468" lon="-75.08184">
        <ele>2115.2</ele>
        <time>2021-08-21T16:15:10Z</time>
      </trkpt>
      <trkpt lat="2.744446" lon="-75.081856">
        <ele>2115.3</ele>
        <time>2021-08-21T16:15:11Z</time>
      </trkpt>
      <trkpt lat="2.744424" lon="-75.08186">
        <ele>2115.4</ele>
        <time>2021-08-21T16:15:12Z</time>
      </trkpt>
      <trkpt lat="2.744402" lon="-75.08188">
        <ele>2115.5</ele>
        <time>2021-08-21T16:15:13Z</time>
      </trkpt>
      <trkpt lat="2.74438" lon="-75.081894">
        <ele>2115.7</ele>
        <time>2021-08-21T16:15:14Z</time>
      </trkpt>
      <trkpt lat="2.744356" lon="-75.08191">
        <ele>2115.8</ele>
        <time>2021-08-21T16:15:15Z</time>
      </trkpt>
      <trkpt lat="2.744333" lon="-75.081924">
        <ele>2115.9</ele>
        <time>2021-08-21T16:15:16Z</time>
      </trkpt>
      <trkpt lat="2.744309" lon="-75.08194">
        <ele>2116.0</ele>
        <time>2021-08-21T16:15:17Z</time>
      </trkpt>
      <trkpt lat="2.744285" lon="-75.081955">
        <ele>2116.2</ele>
        <time>2021-08-21T16:15:18Z</time>
      </trkpt>
      <trkpt lat="2.744259" lon="-75.08197">
        <ele>2116.3</ele>
        <time>2021-08-21T16:15:19Z</time>
      </trkpt>
      <trkpt lat="2.744231" lon="-75.081985">
        <ele>2116.4</ele>
        <time>2021-08-21T16:15:20Z</time>
      </trkpt>
      <trkpt lat="2.744204" lon="-75.082">
        <ele>2116.5</ele>
        <time>2021-08-21T16:15:21Z</time>
      </trkpt>
      <trkpt lat="2.744177" lon="-75.082016">
        <ele>2116.6</ele>
        <time>2021-08-21T16:15:22Z</time>
      </trkpt>
      <trkpt lat="2.74415" lon="-75.08203">
        <ele>2116.8</ele>
        <time>2021-08-21T16:15:23Z</time>
      </trkpt>
      <trkpt lat="2.744122" lon="-75.08205">
        <ele>2116.9</ele>
        <time>2021-08-21T16:15:24Z</time>
      </trkpt>
      <trkpt lat="2.744095" lon="-75.08206">
        <ele>2117.0</ele>
        <time>2021-08-21T16:15:25Z</time>
      </trkpt>
      <trkpt lat="2.744066" lon="-75.08208">
        <ele>2117.1</ele>
        <time>2021-08-21T16:15:26Z</time>
      </trkpt>
      <trkpt lat="2.744039" lon="-75.08209">
        <ele>2117.1</ele>
        <time>2021-08-21T16:15:27Z</time>
      </trkpt>
      <trkpt lat="2.744011" lon="-75.08211">
        <ele>2117.2</ele>
        <time>2021-08-21T16:15:28Z</time>
      </trkpt>
      <trkpt lat="2.743983" lon="-75.082115">
        <ele>2117.3</ele>
        <time>2021-08-21T16:15:29Z</time>
      </trkpt>
      <trkpt lat="2.743954" lon="-75.08213">
        <ele>2117.4</ele>
        <time>2021-08-21T16:15:30Z</time>
      </trkpt>
      <trkpt lat="2.743924" lon="-75.082146">
        <ele>2117.5</ele>
        <time>2021-08-21T16:15:31Z</time>
      </trkpt>
      <trkpt lat="2.743896" lon="-75.08216">
        <ele>2117.6</ele>
        <time>2021-08-21T16:15:32Z</time>
      </trkpt>
      <trkpt lat="2.743869" lon="-75.08218">
        <ele>2117.7</ele>
        <time>2021-08-21T16:15:33Z</time>
      </trkpt>
      <trkpt lat="2.74384" lon="-75.08219">
        <ele>2117.7</ele>
        <time>2021-08-21T16:15:34Z</time>
      </trkpt>
      <trkpt lat="2.743814" lon="-75.0822">
        <ele>2117.8</ele>
        <time>2021-08-21T16:15:35Z</time>
      </trkpt>
      <trkpt lat="2.743786" lon="-75.082214">
        <ele>2117.8</ele>
        <time>2021-08-21T16:15:36Z</time>
      </trkpt>
      <trkpt lat="2.743759" lon="-75.08223">
        <ele>2117.9</ele>
        <time>2021-08-21T16:15:37Z</time>
      </trkpt>
      <trkpt lat="2.743732" lon="-75.082245">
        <ele>2118.0</ele>
        <time>2021-08-21T16:15:38Z</time>
      </trkpt>
      <trkpt lat="2.743703" lon="-75.08226">
        <ele>2118.0</ele>
        <time>2021-08-21T16:15:39Z</time>
      </trkpt>
      <trkpt lat="2.743673" lon="-75.082275">
        <ele>2118.1</ele>
        <time>2021-08-21T16:15:40Z</time>
      </trkpt>
      <trkpt lat="2.743641" lon="-75.08229">
        <ele>2118.1</ele>
        <time>2021-08-21T16:15:41Z</time>
      </trkpt>
      <trkpt lat="2.743609" lon="-75.082306">
        <ele>2118.1</ele>
        <time>2021-08-21T16:15:42Z</time>
      </trkpt>
      <trkpt lat="2.743577" lon="-75.08232">
        <ele>2118.2</ele>
        <time>2021-08-21T16:15:43Z</time>
      </trkpt>
      <trkpt lat="2.743545" lon="-75.08234">
        <ele>2118.2</ele>
        <time>2021-08-21T16:15:44Z</time>
      </trkpt>
      <trkpt lat="2.743514" lon="-75.08235">
        <ele>2118.3</ele>
        <time>2021-08-21T16:15:45Z</time>
      </trkpt>
      <trkpt lat="2.743484" lon="-75.08237">
        <ele>2118.4</ele>
        <time>2021-08-21T16:15:46Z</time>
      </trkpt>
      <trkpt lat="2.743458" lon="-75.08238">
        <ele>2118.4</ele>
        <time>2021-08-21T16:15:47Z</time>
      </trkpt>
      <trkpt lat="2.743431" lon="-75.0824">
        <ele>2118.5</ele>
        <time>2021-08-21T16:15:48Z</time>
      </trkpt>
      <trkpt lat="2.743403" lon="-75.08241">
        <ele>2118.5</ele>
        <time>2021-08-21T16:15:49Z</time>
      </trkpt>
      <trkpt lat="2.743377" lon="-75.08243">
        <ele>2118.6</ele>
        <time>2021-08-21T16:15:50Z</time>
      </trkpt>
      <trkpt lat="2.743351" lon="-75.082436">
        <ele>2118.7</ele>
        <time>2021-08-21T16:15:51Z</time>
      </trkpt>
      <trkpt lat="2.743326" lon="-75.08245">
        <ele>2118.8</ele>
        <time>2021-08-21T16:15:52Z</time>
      </trkpt>
      <trkpt lat="2.743302" lon="-75.082466">
        <ele>2118.9</ele>
        <time>2021-08-21T16:15:53Z</time>
      </trkpt>
      <trkpt lat="2.743278" lon="-75.08248">
        <ele>2119.0</ele>
        <time>2021-08-21T16:15:54Z</time>
      </trkpt>
      <trkpt lat="2.743253" lon="-75.08249">
        <ele>2119.0</ele>
        <time>2021-08-21T16:15:55Z</time>
      </trkpt>
      <trkpt lat="2.743228" lon="-75.082504">
        <ele>2119.1</ele>
        <time>2021-08-21T16:15:56Z</time>
      </trkpt>
      <trkpt lat="2.743203" lon="-75.08251">
        <ele>2119.2</ele>
        <time>2021-08-21T16:15:57Z</time>
      </trkpt>
      <trkpt lat="2.743178" lon="-75.08253">
        <ele>2119.3</ele>
        <time>2021-08-21T16:15:58Z</time>
      </trkpt>
      <trkpt lat="2.743155" lon="-75.082535">
        <ele>2119.4</ele>
        <time>2021-08-21T16:15:59Z</time>
      </trkpt>
      <trkpt lat="2.743132" lon="-75.08255">
        <ele>2119.5</ele>
        <time>2021-08-21T16:16:00Z</time>
      </trkpt>
      <trkpt lat="2.74311" lon="-75.08256">
        <ele>2119.6</ele>
        <time>2021-08-21T16:16:01Z</time>
      </trkpt>
      <trkpt lat="2.743088" lon="-75.08257">
        <ele>2119.7</ele>
        <time>2021-08-21T16:16:02Z</time>
      </trkpt>
      <trkpt lat="2.743067" lon="-75.08258">
        <ele>2119.9</ele>
        <time>2021-08-21T16:16:03Z</time>
      </trkpt>
      <trkpt lat="2.743047" lon="-75.08259">
        <ele>2120.0</ele>
        <time>2021-08-21T16:16:04Z</time>
      </trkpt>
      <trkpt lat="2.743027" lon="-75.0826">
        <ele>2120.1</ele>
        <time>2021-08-21T16:16:05Z</time>
      </trkpt>
      <trkpt lat="2.743008" lon="-75.08261">
        <ele>2120.2</ele>
        <time>2021-08-21T16:16:06Z</time>
      </trkpt>
      <trkpt lat="2.742988" lon="-75.08263">
        <ele>2120.3</ele>
        <time>2021-08-21T16:16:07Z</time>
      </trkpt>
      <trkpt lat="2.742968" lon="-75.082634">
        <ele>2120.4</ele>
        <time>2021-08-21T16:16:08Z</time>
      </trkpt>
      <trkpt lat="2.742947" lon="-75.08264">
        <ele>2120.6</ele>
        <time>2021-08-21T16:16:09Z</time>
      </trkpt>
      <trkpt lat="2.742925" lon="-75.08265">
        <ele>2120.7</ele>
        <time>2021-08-21T16:16:10Z</time>
      </trkpt>
      <trkpt lat="2.742903" lon="-75.08265">
        <ele>2120.8</ele>
        <time>2021-08-21T16:16:11Z</time>
      </trkpt>
      <trkpt lat="2.74288" lon="-75.08266">
        <ele>2121.0</ele>
        <time>2021-08-21T16:16:12Z</time>
      </trkpt>
      <trkpt lat="2.742857" lon="-75.08266">
        <ele>2121.1</ele>
        <time>2021-08-21T16:16:13Z</time>
      </trkpt>
      <trkpt lat="2.742834" lon="-75.08265">
        <ele>2121.2</ele>
        <time>2021-08-21T16:16:14Z</time>
      </trkpt>
      <trkpt lat="2.742809" lon="-75.08264">
        <ele>2121.4</ele>
        <time>2021-08-21T16:16:15Z</time>
      </trkpt>
      <trkpt lat="2.742786" lon="-75.082634">
        <ele>2121.5</ele>
        <time>2021-08-21T16:16:16Z</time>
      </trkpt>
      <trkpt lat="2.742761" lon="-75.08263">
        <ele>2121.6</ele>
        <time>2021-08-21T16:16:17Z</time>
      </trkpt>
      <trkpt lat="2.742739" lon="-75.08262">
        <ele>2121.8</ele>
        <time>2021-08-21T16:16:18Z</time>
      </trkpt>
      <trkpt lat="2.742714" lon="-75.08261">
        <ele>2121.9</ele>
        <time>2021-08-21T16:16:19Z</time>
      </trkpt>
      <trkpt lat="2.74269" lon="-75.082596">
        <ele>2122.0</ele>
        <time>2021-08-21T16:16:20Z</time>
      </trkpt>
      <trkpt lat="2.742667" lon="-75.08258">
        <ele>2122.2</ele>
        <time>2021-08-21T16:16:21Z</time>
      </trkpt>
      <trkpt lat="2.742646" lon="-75.08257">
        <ele>2122.3</ele>
        <time>2021-08-21T16:16:22Z</time>
      </trkpt>
      <trkpt lat="2.742622" lon="-75.08256">
        <ele>2122.4</ele>
        <time>2021-08-21T16:16:23Z</time>
      </trkpt>
      <trkpt lat="2.742597" lon="-75.08254">
        <ele>2122.5</ele>
        <time>2021-08-21T16:16:24Z</time>
      </trkpt>
      <trkpt lat="2.742574" lon="-75.08253">
        <ele>2122.6</ele>
        <time>2021-08-21T16:16:25Z</time>
      </trkpt>
      <trkpt lat="2.742551" lon="-75.08251">
        <ele>2122.7</ele>
        <time>2021-08-21T16:16:26Z</time>
      </trkpt>
      <trkpt lat="2.742529" lon="-75.0825">
        <ele>2122.7</ele>
        <time>2021-08-21T16:16:27Z</time>
      </trkpt>
      <trkpt lat="2.742507" lon="-75.08248">
        <ele>2122.8</ele>
        <time>2021-08-21T16:16:28Z</time>
      </trkpt>
      <trkpt lat="2.742484" lon="-75.082466">
        <ele>2122.9</ele>
        <time>2021-08-21T16:16:29Z</time>
      </trkpt>
      <trkpt lat="2.742462" lon="-75.08245">
        <ele>2123.0</ele>
        <time>2021-08-21T16:16:30Z</time>
      </trkpt>
      <trkpt lat="2.742438" lon="-75.082436">
        <ele>2123.1</ele>
        <time>2021-08-21T16:16:31Z</time>
      </trkpt>
      <trkpt lat="2.742414" lon="-75.08242">
        <ele>2123.2</ele>
        <time>2021-08-21T16:16:32Z</time>
      </trkpt>
      <trkpt lat="2.742392" lon="-75.082405">
        <ele>2123.3</ele>
        <time>2021-08-21T16:16:33Z</time>
      </trkpt>
      <trkpt lat="2.742368" lon="-75.08239">
        <ele>2123.4</ele>
        <time>2021-08-21T16:16:34Z</time>
      </trkpt>
      <trkpt lat="2.742344" lon="-75.082375">
        <ele>2123.5</ele>
        <time>2021-08-21T16:16:35Z</time>
      </trkpt>
      <trkpt lat="2.74232" lon="-75.08236">
        <ele>2123.6</ele>
        <time>2021-08-21T16:16:36Z</time>
      </trkpt>
      <trkpt lat="2.742294" lon="-75.08234">
        <ele>2123.7</ele>
        <time>2021-08-21T16:16:37Z</time>
      </trkpt>
      <trkpt lat="2.74227" lon="-75.08233">
        <ele>2123.8</ele>
        <time>2021-08-21T16:16:38Z</time>
      </trkpt>
      <trkpt lat="2.742246" lon="-75.08231">
        <ele>2123.9</ele>
        <time>2021-08-21T16:16:39Z</time>
      </trkpt>
      <trkpt lat="2.742221" lon="-75.08229">
        <ele>2124.0</ele>
        <time>2021-08-21T16:16:40Z</time>
      </trkpt>
      <trkpt lat="2.742197" lon="-75.082275">
        <ele>2124.1</ele>
        <time>2021-08-21T16:16:41Z</time>
      </trkpt>
      <trkpt lat="2.742173" lon="-75.08226">
        <ele>2124.2</ele>
        <time>2021-08-21T16:16:42Z</time>
      </trkpt>
      <trkpt lat="2.742148" lon="-75.08224">
        <ele>2124.3</ele>
        <time>2021-08-21T16:16:43Z</time>
      </trkpt>
      <trkpt lat="2.742123" lon="-75.08222">
        <ele>2124.4</ele>
        <time>2021-08-21T16:16:44Z</time>
      </trkpt>
      <trkpt lat="2.742094" lon="-75.08221">
        <ele>2124.5</ele>
        <time>2021-08-21T16:16:45Z</time>
      </trkpt>
      <trkpt lat="2.742066" lon="-75.082184">
        <ele>2124.6</ele>
        <time>2021-08-21T16:16:46Z</time>
      </trkpt>
      <trkpt lat="2.742039" lon="-75.08217">
        <ele>2124.7</ele>
        <time>2021-08-21T16:16:47Z</time>
      </trkpt>
      <trkpt lat="2.742011" lon="-75.082146">
        <ele>2124.8</ele>
        <time>2021-08-21T16:16:48Z</time>
      </trkpt>
      <trkpt lat="2.741984" lon="-75.08213">
        <ele>2124.9</ele>
        <time>2021-08-21T16:16:49Z</time>
      </trkpt>
      <trkpt lat="2.741957" lon="-75.08211">
        <ele>2125.0</ele>
        <time>2021-08-21T16:16:50Z</time>
      </trkpt>
      <trkpt lat="2.741929" lon="-75.08209">
        <ele>2125.1</ele>
        <time>2021-08-21T16:16:51Z</time>
      </trkpt>
      <trkpt lat="2.741903" lon="-75.08208">
        <ele>2125.2</ele>
        <time>2021-08-21T16:16:52Z</time>
      </trkpt>
      <trkpt lat="2.741874" lon="-75.08206">
        <ele>2125.3</ele>
        <time>2021-08-21T16:16:53Z</time>
      </trkpt>
      <trkpt lat="2.741847" lon="-75.08205">
        <ele>2125.4</ele>
        <time>2021-08-21T16:16:54Z</time>
      </trkpt>
      <trkpt lat="2.741818" lon="-75.08203">
        <ele>2125.5</ele>
        <time>2021-08-21T16:16:55Z</time>
      </trkpt>
      <trkpt lat="2.741789" lon="-75.08202">
        <ele>2125.6</ele>
        <time>2021-08-21T16:16:56Z</time>
      </trkpt>
      <trkpt lat="2.741759" lon="-75.08201">
        <ele>2125.7</ele>
        <time>2021-08-21T16:16:57Z</time>
      </trkpt>
      <trkpt lat="2.74173" lon="-75.082">
        <ele>2125.8</ele>
        <time>2021-08-21T16:16:58Z</time>
      </trkpt>
      <trkpt lat="2.741698" lon="-75.08199">
        <ele>2125.9</ele>
        <time>2021-08-21T16:16:59Z</time>
      </trkpt>
      <trkpt lat="2.74167" lon="-75.081985">
        <ele>2126.0</ele>
        <time>2021-08-21T16:17:00Z</time>
      </trkpt>
      <trkpt lat="2.741641" lon="-75.08198">
        <ele>2126.1</ele>
        <time>2021-08-21T16:17:01Z</time>
      </trkpt>
      <trkpt lat="2.741614" lon="-75.08196">
        <ele>2126.2</ele>
        <time>2021-08-21T16:17:02Z</time>
      </trkpt>
      <trkpt lat="2.741587" lon="-75.08195">
        <ele>2126.3</ele>
        <time>2021-08-21T16:17:03Z</time>
      </trkpt>
      <trkpt lat="2.741559" lon="-75.08193">
        <ele>2126.3</ele>
        <time>2021-08-21T16:17:04Z</time>
      </trkpt>
      <trkpt lat="2.741531" lon="-75.08191">
        <ele>2126.4</ele>
        <time>2021-08-21T16:17:05Z</time>
      </trkpt>
      <trkpt lat="2.741506" lon="-75.081894">
        <ele>2126.5</ele>
        <time>2021-08-21T16:17:06Z</time>
      </trkpt>
      <trkpt lat="2.741482" lon="-75.08187">
        <ele>2126.6</ele>
        <time>2021-08-21T16:17:07Z</time>
      </trkpt>
      <trkpt lat="2.741459" lon="-75.08185">
        <ele>2126.7</ele>
        <time>2021-08-21T16:17:08Z</time>
      </trkpt>
      <trkpt lat="2.741436" lon="-75.081825">
        <ele>2126.8</ele>
        <time>2021-08-21T16:17:09Z</time>
      </trkpt>
      <trkpt lat="2.741411" lon="-75.0818">
        <ele>2126.9</ele>
        <time>2021-08-21T16:17:10Z</time>
      </trkpt>
      <trkpt lat="2.741386" lon="-75.08178">
        <ele>2127.0</ele>
        <time>2021-08-21T16:17:11Z</time>
      </trkpt>
      <trkpt lat="2.741359" lon="-75.08176">
        <ele>2127.1</ele>
        <time>2021-08-21T16:17:12Z</time>
      </trkpt>
      <trkpt lat="2.741331" lon="-75.08173">
        <ele>2127.2</ele>
        <time>2021-08-21T16:17:13Z</time>
      </trkpt>
      <trkpt lat="2.741303" lon="-75.08172">
        <ele>2127.2</ele>
        <time>2021-08-21T16:17:14Z</time>
      </trkpt>
      <trkpt lat="2.741277" lon="-75.081696">
        <ele>2127.3</ele>
        <time>2021-08-21T16:17:15Z</time>
      </trkpt>
      <trkpt lat="2.741251" lon="-75.08168">
        <ele>2127.4</ele>
        <time>2021-08-21T16:17:16Z</time>
      </trkpt>
      <trkpt lat="2.741225" lon="-75.08166">
        <ele>2127.5</ele>
        <time>2021-08-21T16:17:17Z</time>
      </trkpt>
      <trkpt lat="2.7412" lon="-75.08164">
        <ele>2127.5</ele>
        <time>2021-08-21T16:17:18Z</time>
      </trkpt>
      <trkpt lat="2.741174" lon="-75.08163">
        <ele>2127.6</ele>
        <time>2021-08-21T16:17:19Z</time>
      </trkpt>
      <trkpt lat="2.741149" lon="-75.081604">
        <ele>2127.6</ele>
        <time>2021-08-21T16:17:20Z</time>
      </trkpt>
      <trkpt lat="2.741122" lon="-75.08159">
        <ele>2127.7</ele>
        <time>2021-08-21T16:17:21Z</time>
      </trkpt>
      <trkpt lat="2.741096" lon="-75.08157">
        <ele>2127.8</ele>
        <time>2021-08-21T16:17:22Z</time>
      </trkpt>
      <trkpt lat="2.741069" lon="-75.08156">
        <ele>2127.9</ele>
        <time>2021-08-21T16:17:23Z</time>
      </trkpt>
      <trkpt lat="2.741041" lon="-75.081535">
        <ele>2128.0</ele>
        <time>2021-08-21T16:17:24Z</time>
      </trkpt>
      <trkpt lat="2.741013" lon="-75.08151">
        <ele>2128.1</ele>
        <time>2021-08-21T16:17:25Z</time>
      </trkpt>
      <trkpt lat="2.740989" lon="-75.08149">
        <ele>2128.1</ele>
        <time>2021-08-21T16:17:26Z</time>
      </trkpt>
      <trkpt lat="2.740964" lon="-75.08147">
        <ele>2128.2</ele>
        <time>2021-08-21T16:17:27Z</time>
      </trkpt>
      <trkpt lat="2.740941" lon="-75.08144">
        <ele>2128.3</ele>
        <time>2021-08-21T16:17:28Z</time>
      </trkpt>
      <trkpt lat="2.740919" lon="-75.08142">
        <ele>2128.4</ele>
        <time>2021-08-21T16:17:29Z</time>
      </trkpt>
      <trkpt lat="2.740898" lon="-75.08139">
        <ele>2128.5</ele>
        <time>2021-08-21T16:17:30Z</time>
      </trkpt>
      <trkpt lat="2.740877" lon="-75.08137">
        <ele>2128.6</ele>
        <time>2021-08-21T16:17:31Z</time>
      </trkpt>
      <trkpt lat="2.740856" lon="-75.081345">
        <ele>2128.7</ele>
        <time>2021-08-21T16:17:32Z</time>
      </trkpt>
      <trkpt lat="2.740833" lon="-75.08132">
        <ele>2128.8</ele>
        <time>2021-08-21T16:17:33Z</time>
      </trkpt>
      <trkpt lat="2.74081" lon="-75.08129">
        <ele>2128.9</ele>
        <time>2021-08-21T16:17:34Z</time>
      </trkpt>
      <trkpt lat="2.740787" lon="-75.08127">
        <ele>2129.0</ele>
        <time>2021-08-21T16:17:35Z</time>
      </trkpt>
      <trkpt lat="2.740766" lon="-75.081245">
        <ele>2129.1</ele>
        <time>2021-08-21T16:17:36Z</time>
      </trkpt>
      <trkpt lat="2.740742" lon="-75.08122">
        <ele>2129.2</ele>
        <time>2021-08-21T16:17:37Z</time>
      </trkpt>
      <trkpt lat="2.74072" lon="-75.08121">
        <ele>2129.3</ele>
        <time>2021-08-21T16:17:38Z</time>
      </trkpt>
      <trkpt lat="2.740698" lon="-75.08119">
        <ele>2129.4</ele>
        <time>2021-08-21T16:17:39Z</time>
      </trkpt>
      <trkpt lat="2.740675" lon="-75.08118">
        <ele>2129.5</ele>
        <time>2021-08-21T16:17:40Z</time>
      </trkpt>
      <trkpt lat="2.740651" lon="-75.08117">
        <ele>2129.6</ele>
        <time>2021-08-21T16:17:41Z</time>
      </trkpt>
      <trkpt lat="2.740627" lon="-75.08116">
        <ele>2129.7</ele>
        <time>2021-08-21T16:17:42Z</time>
      </trkpt>
      <trkpt lat="2.740603" lon="-75.08115">
        <ele>2129.8</ele>
        <time>2021-08-21T16:17:43Z</time>
      </trkpt>
      <trkpt lat="2.740582" lon="-75.08114">
        <ele>2129.9</ele>
        <time>2021-08-21T16:17:44Z</time>
      </trkpt>
      <trkpt lat="2.740561" lon="-75.08114">
        <ele>2130.0</ele>
        <time>2021-08-21T16:17:45Z</time>
      </trkpt>
      <trkpt lat="2.740539" lon="-75.08113">
        <ele>2130.1</ele>
        <time>2021-08-21T16:17:46Z</time>
      </trkpt>
      <trkpt lat="2.740516" lon="-75.08112">
        <ele>2130.2</ele>
        <time>2021-08-21T16:17:47Z</time>
      </trkpt>
      <trkpt lat="2.740491" lon="-75.081116">
        <ele>2130.3</ele>
        <time>2021-08-21T16:17:48Z</time>
      </trkpt>
      <trkpt lat="2.740468" lon="-75.081116">
        <ele>2130.3</ele>
        <time>2021-08-21T16:17:49Z</time>
      </trkpt>
      <trkpt lat="2.740444" lon="-75.08111">
        <ele>2130.4</ele>
        <time>2021-08-21T16:17:50Z</time>
      </trkpt>
      <trkpt lat="2.74042" lon="-75.0811">
        <ele>2130.5</ele>
        <time>2021-08-21T16:17:51Z</time>
      </trkpt>
      <trkpt lat="2.740396" lon="-75.08109">
        <ele>2130.6</ele>
        <time>2021-08-21T16:17:52Z</time>
      </trkpt>
      <trkpt lat="2.74037" lon="-75.081085">
        <ele>2130.7</ele>
        <time>2021-08-21T16:17:53Z</time>
      </trkpt>
      <trkpt lat="2.740342" lon="-75.081085">
        <ele>2130.8</ele>
        <time>2021-08-21T16:17:54Z</time>
      </trkpt>
      <trkpt lat="2.740314" lon="-75.08108">
        <ele>2130.9</ele>
        <time>2021-08-21T16:17:55Z</time>
      </trkpt>
      <trkpt lat="2.740286" lon="-75.08107">
        <ele>2131.0</ele>
        <time>2021-08-21T16:17:56Z</time>
      </trkpt>
      <trkpt lat="2.740257" lon="-75.08106">
        <ele>2131.1</ele>
        <time>2021-08-21T16:17:57Z</time>
      </trkpt>
      <trkpt lat="2.740228" lon="-75.08106">
        <ele>2131.2</ele>
        <time>2021-08-21T16:17:58Z</time>
      </trkpt>
      <trkpt lat="2.740199" lon="-75.081055">
        <ele>2131.3</ele>
        <time>2021-08-21T16:17:59Z</time>
      </trkpt>
      <trkpt lat="2.740169" lon="-75.08105">
        <ele>2131.4</ele>
        <time>2021-08-21T16:18:00Z</time>
      </trkpt>
      <trkpt lat="2.740138" lon="-75.08104">
        <ele>2131.5</ele>
        <time>2021-08-21T16:18:01Z</time>
      </trkpt>
      <trkpt lat="2.740107" lon="-75.08103">
        <ele>2131.6</ele>
        <time>2021-08-21T16:18:02Z</time>
      </trkpt>
      <trkpt lat="2.740077" lon="-75.081024">
        <ele>2131.7</ele>
        <time>2021-08-21T16:18:03Z</time>
      </trkpt>
      <trkpt lat="2.740048" lon="-75.08102">
        <ele>2131.8</ele>
        <time>2021-08-21T16:18:04Z</time>
      </trkpt>
      <trkpt lat="2.740022" lon="-75.081">
        <ele>2131.9</ele>
        <time>2021-08-21T16:18:05Z</time>
      </trkpt>
      <trkpt lat="2.739996" lon="-75.08098">
        <ele>2132.0</ele>
        <time>2021-08-21T16:18:06Z</time>
      </trkpt>
      <trkpt lat="2.739973" lon="-75.08096">
        <ele>2132.1</ele>
        <time>2021-08-21T16:18:07Z</time>
      </trkpt>
      <trkpt lat="2.739951" lon="-75.08093">
        <ele>2132.2</ele>
        <time>2021-08-21T16:18:08Z</time>
      </trkpt>
      <trkpt lat="2.739933" lon="-75.0809">
        <ele>2132.3</ele>
        <time>2021-08-21T16:18:09Z</time>
      </trkpt>
      <trkpt lat="2.739919" lon="-75.08087">
        <ele>2132.4</ele>
        <time>2021-08-21T16:18:10Z</time>
      </trkpt>
      <trkpt lat="2.739908" lon="-75.08084">
        <ele>2132.5</ele>
        <time>2021-08-21T16:18:11Z</time>
      </trkpt>
      <trkpt lat="2.7399" lon="-75.08081">
        <ele>2132.6</ele>
        <time>2021-08-21T16:18:12Z</time>
      </trkpt>
      <trkpt lat="2.739893" lon="-75.08077">
        <ele>2132.7</ele>
        <time>2021-08-21T16:18:13Z</time>
      </trkpt>
      <trkpt lat="2.739888" lon="-75.080734">
        <ele>2132.8</ele>
        <time>2021-08-21T16:18:14Z</time>
      </trkpt>
      <trkpt lat="2.739884" lon="-75.080696">
        <ele>2132.9</ele>
        <time>2021-08-21T16:18:15Z</time>
      </trkpt>
      <trkpt lat="2.739882" lon="-75.08066">
        <ele>2133.0</ele>
        <time>2021-08-21T16:18:16Z</time>
      </trkpt>
      <trkpt lat="2.739882" lon="-75.08062">
        <ele>2133.1</ele>
        <time>2021-08-21T16:18:17Z</time>
      </trkpt>
      <trkpt lat="2.739884" lon="-75.08058">
        <ele>2133.2</ele>
        <time>2021-08-21T16:18:18Z</time>
      </trkpt>
      <trkpt lat="2.739887" lon="-75.08054">
        <ele>2133.3</ele>
        <time>2021-08-21T16:18:19Z</time>
      </trkpt>
      <trkpt lat="2.73989" lon="-75.080505">
        <ele>2133.4</ele>
        <time>2021-08-21T16:18:20Z</time>
      </trkpt>
      <trkpt lat="2.739893" lon="-75.080475">
        <ele>2133.5</ele>
        <time>2021-08-21T16:18:21Z</time>
      </trkpt>
      <trkpt lat="2.739895" lon="-75.080444">
        <ele>2133.6</ele>
        <time>2021-08-21T16:18:22Z</time>
      </trkpt>
      <trkpt lat="2.739898" lon="-75.08041">
        <ele>2133.7</ele>
        <time>2021-08-21T16:18:23Z</time>
      </trkpt>
      <trkpt lat="2.7399" lon="-75.080376">
        <ele>2133.8</ele>
        <time>2021-08-21T16:18:24Z</time>
      </trkpt>
      <trkpt lat="2.739904" lon="-75.08035">
        <ele>2133.8</ele>
        <time>2021-08-21T16:18:25Z</time>
      </trkpt>
      <trkpt lat="2.739907" lon="-75.08032">
        <ele>2133.9</ele>
        <time>2021-08-21T16:18:26Z</time>
      </trkpt>
      <trkpt lat="2.739909" lon="-75.0803">
        <ele>2134.0</ele>
        <time>2021-08-21T16:18:27Z</time>
      </trkpt>
      <trkpt lat="2.739912" lon="-75.08028">
        <ele>2134.0</ele>
        <time>2021-08-21T16:18:28Z</time>
      </trkpt>
      <trkpt lat="2.739914" lon="-75.08025">
        <ele>2134.1</ele>
        <time>2021-08-21T16:18:29Z</time>
      </trkpt>
      <trkpt lat="2.739917" lon="-75.08023">
        <ele>2134.2</ele>
        <time>2021-08-21T16:18:30Z</time>
      </trkpt>
      <trkpt lat="2.73992" lon="-75.0802">
        <ele>2134.2</ele>
        <time>2021-08-21T16:18:31Z</time>
      </trkpt>
      <trkpt lat="2.739922" lon="-75.08018">
        <ele>2134.3</ele>
        <time>2021-08-21T16:18:32Z</time>
      </trkpt>
      <trkpt lat="2.739923" lon="-75.080154">
        <ele>2134.3</ele>
        <time>2021-08-21T16:18:33Z</time>
      </trkpt>
      <trkpt lat="2.739924" lon="-75.08013">
        <ele>2134.4</ele>
        <time>2021-08-21T16:18:34Z</time>
      </trkpt>
      <trkpt lat="2.739924" lon="-75.08011">
        <ele>2134.4</ele>
        <time>2021-08-21T16:18:35Z</time>
      </trkpt>
      <trkpt lat="2.739924" lon="-75.08008">
        <ele>2134.5</ele>
        <time>2021-08-21T16:18:36Z</time>
      </trkpt>
      <trkpt lat="2.739924" lon="-75.080055">
        <ele>2134.6</ele>
        <time>2021-08-21T16:18:37Z</time>
      </trkpt>
      <trkpt lat="2.739924" lon="-75.08003">
        <ele>2134.6</ele>
        <time>2021-08-21T16:18:38Z</time>
      </trkpt>
      <trkpt lat="2.739925" lon="-75.08">
        <ele>2134.7</ele>
        <time>2021-08-21T16:18:39Z</time>
      </trkpt>
      <trkpt lat="2.739926" lon="-75.07998">
        <ele>2134.7</ele>
        <time>2021-08-21T16:18:40Z</time>
      </trkpt>
      <trkpt lat="2.739926" lon="-75.079956">
        <ele>2134.8</ele>
        <time>2021-08-21T16:18:41Z</time>
      </trkpt>
      <trkpt lat="2.739926" lon="-75.07993">
        <ele>2134.8</ele>
        <time>2021-08-21T16:18:42Z</time>
      </trkpt>
      <trkpt lat="2.739924" lon="-75.0799">
        <ele>2134.9</ele>
        <time>2021-08-21T16:18:43Z</time>
      </trkpt>
      <trkpt lat="2.73992" lon="-75.07988">
        <ele>2134.9</ele>
        <time>2021-08-21T16:18:44Z</time>
      </trkpt>
      <trkpt lat="2.739915" lon="-75.07986">
        <ele>2135.0</ele>
        <time>2021-08-21T16:18:45Z</time>
      </trkpt>
      <trkpt lat="2.739909" lon="-75.079834">
        <ele>2135.0</ele>
        <time>2021-08-21T16:18:46Z</time>
      </trkpt>
      <trkpt lat="2.739903" lon="-75.0798">
        <ele>2135.1</ele>
        <time>2021-08-21T16:18:47Z</time>
      </trkpt>
      <trkpt lat="2.739898" lon="-75.07978">
        <ele>2135.1</ele>
        <time>2021-08-21T16:18:48Z</time>
      </trkpt>
      <trkpt lat="2.739894" lon="-75.07976">
        <ele>2135.1</ele>
        <time>2021-08-21T16:18:49Z</time>
      </trkpt>
      <trkpt lat="2.739889" lon="-75.079735">
        <ele>2135.2</ele>
        <time>2021-08-21T16:18:50Z</time>
      </trkpt>
      <trkpt lat="2.739883" lon="-75.07971">
        <ele>2135.3</ele>
        <time>2021-08-21T16:18:51Z</time>
      </trkpt>
      <trkpt lat="2.739866" lon="-75.07966">
        <ele>2135.4</ele>
        <time>2021-08-21T16:18:53Z</time>
      </trkpt>
      <trkpt lat="2.739871" lon="-75.07967">
        <ele>2135.4</ele>
        <time>2021-08-21T16:18:53Z</time>
      </trkpt>
      <trkpt lat="2.739855" lon="-75.07963">
        <ele>2135.5</ele>
        <time>2021-08-21T16:18:54Z</time>
      </trkpt>
      <trkpt lat="2.739845" lon="-75.0796">
        <ele>2135.5</ele>
        <time>2021-08-21T16:18:55Z</time>
      </trkpt>
      <trkpt lat="2.739835" lon="-75.079575">
        <ele>2135.6</ele>
        <time>2021-08-21T16:18:56Z</time>
      </trkpt>
      <trkpt lat="2.739825" lon="-75.079544">
        <ele>2135.7</ele>
        <time>2021-08-21T16:18:57Z</time>
      </trkpt>
      <trkpt lat="2.739813" lon="-75.07952">
        <ele>2135.8</ele>
        <time>2021-08-21T16:18:58Z</time>
      </trkpt>
      <trkpt lat="2.739801" lon="-75.07949">
        <ele>2135.8</ele>
        <time>2021-08-21T16:18:59Z</time>
      </trkpt>
      <trkpt lat="2.739788" lon="-75.07947">
        <ele>2135.9</ele>
        <time>2021-08-21T16:19:00Z</time>
      </trkpt>
      <trkpt lat="2.739775" lon="-75.079445">
        <ele>2136.0</ele>
        <time>2021-08-21T16:19:01Z</time>
      </trkpt>
      <trkpt lat="2.739761" lon="-75.079414">
        <ele>2136.1</ele>
        <time>2021-08-21T16:19:02Z</time>
      </trkpt>
      <trkpt lat="2.739748" lon="-75.07939">
        <ele>2136.1</ele>
        <time>2021-08-21T16:19:03Z</time>
      </trkpt>
      <trkpt lat="2.739734" lon="-75.07936">
        <ele>2136.2</ele>
        <time>2021-08-21T16:19:04Z</time>
      </trkpt>
      <trkpt lat="2.73972" lon="-75.07934">
        <ele>2136.4</ele>
        <time>2021-08-21T16:19:05Z</time>
      </trkpt>
      <trkpt lat="2.739707" lon="-75.079315">
        <ele>2136.5</ele>
        <time>2021-08-21T16:19:06Z</time>
      </trkpt>
      <trkpt lat="2.739694" lon="-75.079285">
        <ele>2136.6</ele>
        <time>2021-08-21T16:19:07Z</time>
      </trkpt>
      <trkpt lat="2.739682" lon="-75.07926">
        <ele>2136.7</ele>
        <time>2021-08-21T16:19:08Z</time>
      </trkpt>
      <trkpt lat="2.739669" lon="-75.07923">
        <ele>2136.8</ele>
        <time>2021-08-21T16:19:09Z</time>
      </trkpt>
      <trkpt lat="2.739656" lon="-75.07921">
        <ele>2137.0</ele>
        <time>2021-08-21T16:19:10Z</time>
      </trkpt>
      <trkpt lat="2.739644" lon="-75.07918">
        <ele>2137.1</ele>
        <time>2021-08-21T16:19:11Z</time>
      </trkpt>
      <trkpt lat="2.739633" lon="-75.079155">
        <ele>2137.2</ele>
        <time>2021-08-21T16:19:12Z</time>
      </trkpt>
      <trkpt lat="2.739621" lon="-75.079124">
        <ele>2137.3</ele>
        <time>2021-08-21T16:19:13Z</time>
      </trkpt>
      <trkpt lat="2.739608" lon="-75.0791">
        <ele>2137.5</ele>
        <time>2021-08-21T16:19:14Z</time>
      </trkpt>
      <trkpt lat="2.739595" lon="-75.07907">
        <ele>2137.6</ele>
        <time>2021-08-21T16:19:15Z</time>
      </trkpt>
      <trkpt lat="2.739581" lon="-75.07905">
        <ele>2137.7</ele>
        <time>2021-08-21T16:19:16Z</time>
      </trkpt>
      <trkpt lat="2.739568" lon="-75.07902">
        <ele>2137.8</ele>
        <time>2021-08-21T16:19:17Z</time>
      </trkpt>
      <trkpt lat="2.739555" lon="-75.078995">
        <ele>2137.9</ele>
        <time>2021-08-21T16:19:18Z</time>
      </trkpt>
      <trkpt lat="2.739542" lon="-75.07897">
        <ele>2138.0</ele>
        <time>2021-08-21T16:19:19Z</time>
      </trkpt>
      <trkpt lat="2.73953" lon="-75.07895">
        <ele>2138.1</ele>
        <time>2021-08-21T16:19:20Z</time>
      </trkpt>
      <trkpt lat="2.739517" lon="-75.078926">
        <ele>2138.2</ele>
        <time>2021-08-21T16:19:21Z</time>
      </trkpt>
      <trkpt lat="2.739491" lon="-75.07888">
        <ele>2138.4</ele>
        <time>2021-08-21T16:19:22Z</time>
      </trkpt>
      <trkpt lat="2.739504" lon="-75.0789">
        <ele>2138.3</ele>
        <time>2021-08-21T16:19:22Z</time>
      </trkpt>
      <trkpt lat="2.73948" lon="-75.07886">
        <ele>2138.5</ele>
        <time>2021-08-21T16:19:23Z</time>
      </trkpt>
      <trkpt lat="2.73947" lon="-75.07884">
        <ele>2138.6</ele>
        <time>2021-08-21T16:19:24Z</time>
      </trkpt>
      <trkpt lat="2.73946" lon="-75.07882">
        <ele>2138.7</ele>
        <time>2021-08-21T16:19:25Z</time>
      </trkpt>
      <trkpt lat="2.739451" lon="-75.0788">
        <ele>2138.7</ele>
        <time>2021-08-21T16:19:26Z</time>
      </trkpt>
      <trkpt lat="2.739441" lon="-75.07878">
        <ele>2138.8</ele>
        <time>2021-08-21T16:19:27Z</time>
      </trkpt>
      <trkpt lat="2.739432" lon="-75.07876">
        <ele>2138.9</ele>
        <time>2021-08-21T16:19:28Z</time>
      </trkpt>
      <trkpt lat="2.739423" lon="-75.078735">
        <ele>2139.0</ele>
        <time>2021-08-21T16:19:29Z</time>
      </trkpt>
      <trkpt lat="2.739413" lon="-75.07871">
        <ele>2139.1</ele>
        <time>2021-08-21T16:19:30Z</time>
      </trkpt>
      <trkpt lat="2.739401" lon="-75.07869">
        <ele>2139.1</ele>
        <time>2021-08-21T16:19:31Z</time>
      </trkpt>
      <trkpt lat="2.73939" lon="-75.07867">
        <ele>2139.2</ele>
        <time>2021-08-21T16:19:32Z</time>
      </trkpt>
      <trkpt lat="2.739377" lon="-75.07864">
        <ele>2139.3</ele>
        <time>2021-08-21T16:19:33Z</time>
      </trkpt>
      <trkpt lat="2.739365" lon="-75.07861">
        <ele>2139.4</ele>
        <time>2021-08-21T16:19:34Z</time>
      </trkpt>
      <trkpt lat="2.739352" lon="-75.07859">
        <ele>2139.5</ele>
        <time>2021-08-21T16:19:35Z</time>
      </trkpt>
      <trkpt lat="2.73934" lon="-75.07857">
        <ele>2139.6</ele>
        <time>2021-08-21T16:19:36Z</time>
      </trkpt>
      <trkpt lat="2.739327" lon="-75.078545">
        <ele>2139.6</ele>
        <time>2021-08-21T16:19:37Z</time>
      </trkpt>
      <trkpt lat="2.739315" lon="-75.078514">
        <ele>2139.7</ele>
        <time>2021-08-21T16:19:38Z</time>
      </trkpt>
      <trkpt lat="2.739304" lon="-75.07849">
        <ele>2139.8</ele>
        <time>2021-08-21T16:19:39Z</time>
      </trkpt>
      <trkpt lat="2.739292" lon="-75.07847">
        <ele>2139.9</ele>
        <time>2021-08-21T16:19:40Z</time>
      </trkpt>
      <trkpt lat="2.739279" lon="-75.07844">
        <ele>2140.0</ele>
        <time>2021-08-21T16:19:41Z</time>
      </trkpt>
      <trkpt lat="2.739266" lon="-75.078415">
        <ele>2140.1</ele>
        <time>2021-08-21T16:19:42Z</time>
      </trkpt>
      <trkpt lat="2.739251" lon="-75.078384">
        <ele>2140.2</ele>
        <time>2021-08-21T16:19:43Z</time>
      </trkpt>
      <trkpt lat="2.739236" lon="-75.07836">
        <ele>2140.3</ele>
        <time>2021-08-21T16:19:44Z</time>
      </trkpt>
      <trkpt lat="2.73922" lon="-75.07834">
        <ele>2140.5</ele>
        <time>2021-08-21T16:19:45Z</time>
      </trkpt>
      <trkpt lat="2.739203" lon="-75.07831">
        <ele>2140.6</ele>
        <time>2021-08-21T16:19:46Z</time>
      </trkpt>
      <trkpt lat="2.739185" lon="-75.078285">
        <ele>2140.7</ele>
        <time>2021-08-21T16:19:47Z</time>
      </trkpt>
      <trkpt lat="2.739165" lon="-75.078255">
        <ele>2140.9</ele>
        <time>2021-08-21T16:19:48Z</time>
      </trkpt>
      <trkpt lat="2.739143" lon="-75.07823">
        <ele>2141.1</ele>
        <time>2021-08-21T16:19:49Z</time>
      </trkpt>
      <trkpt lat="2.73912" lon="-75.07821">
        <ele>2141.2</ele>
        <time>2021-08-21T16:19:50Z</time>
      </trkpt>
      <trkpt lat="2.739097" lon="-75.078186">
        <ele>2141.4</ele>
        <time>2021-08-21T16:19:51Z</time>
      </trkpt>
      <trkpt lat="2.739074" lon="-75.07817">
        <ele>2141.6</ele>
        <time>2021-08-21T16:19:52Z</time>
      </trkpt>
      <trkpt lat="2.739051" lon="-75.07815">
        <ele>2141.7</ele>
        <time>2021-08-21T16:19:53Z</time>
      </trkpt>
      <trkpt lat="2.739028" lon="-75.07813">
        <ele>2141.9</ele>
        <time>2021-08-21T16:19:54Z</time>
      </trkpt>
      <trkpt lat="2.739004" lon="-75.07812">
        <ele>2142.0</ele>
        <time>2021-08-21T16:19:55Z</time>
      </trkpt>
      <trkpt lat="2.738979" lon="-75.0781">
        <ele>2142.2</ele>
        <time>2021-08-21T16:19:56Z</time>
      </trkpt>
      <trkpt lat="2.738955" lon="-75.07809">
        <ele>2142.3</ele>
        <time>2021-08-21T16:19:57Z</time>
      </trkpt>
      <trkpt lat="2.738933" lon="-75.07807">
        <ele>2142.5</ele>
        <time>2021-08-21T16:19:58Z</time>
      </trkpt>
      <trkpt lat="2.73891" lon="-75.07806">
        <ele>2142.6</ele>
        <time>2021-08-21T16:19:59Z</time>
      </trkpt>
      <trkpt lat="2.738888" lon="-75.07804">
        <ele>2142.8</ele>
        <time>2021-08-21T16:20:00Z</time>
      </trkpt>
      <trkpt lat="2.738868" lon="-75.07803">
        <ele>2142.9</ele>
        <time>2021-08-21T16:20:01Z</time>
      </trkpt>
      <trkpt lat="2.738848" lon="-75.07802">
        <ele>2143.0</ele>
        <time>2021-08-21T16:20:02Z</time>
      </trkpt>
      <trkpt lat="2.73883" lon="-75.07801">
        <ele>2143.1</ele>
        <time>2021-08-21T16:20:03Z</time>
      </trkpt>
      <trkpt lat="2.738813" lon="-75.077995">
        <ele>2143.2</ele>
        <time>2021-08-21T16:20:04Z</time>
      </trkpt>
      <trkpt lat="2.738796" lon="-75.07798">
        <ele>2143.2</ele>
        <time>2021-08-21T16:20:05Z</time>
      </trkpt>
      <trkpt lat="2.738778" lon="-75.077965">
        <ele>2143.3</ele>
        <time>2021-08-21T16:20:06Z</time>
      </trkpt>
      <trkpt lat="2.738758" lon="-75.07796">
        <ele>2143.4</ele>
        <time>2021-08-21T16:20:07Z</time>
      </trkpt>
      <trkpt lat="2.73874" lon="-75.07794">
        <ele>2143.5</ele>
        <time>2021-08-21T16:20:08Z</time>
      </trkpt>
      <trkpt lat="2.738722" lon="-75.077934">
        <ele>2143.6</ele>
        <time>2021-08-21T16:20:09Z</time>
      </trkpt>
      <trkpt lat="2.738704" lon="-75.07792">
        <ele>2143.7</ele>
        <time>2021-08-21T16:20:10Z</time>
      </trkpt>
      <trkpt lat="2.738684" lon="-75.07791">
        <ele>2143.8</ele>
        <time>2021-08-21T16:20:11Z</time>
      </trkpt>
      <trkpt lat="2.738664" lon="-75.077896">
        <ele>2143.9</ele>
        <time>2021-08-21T16:20:12Z</time>
      </trkpt>
      <trkpt lat="2.738645" lon="-75.07789">
        <ele>2144.0</ele>
        <time>2021-08-21T16:20:13Z</time>
      </trkpt>
      <trkpt lat="2.738628" lon="-75.07787">
        <ele>2144.0</ele>
        <time>2021-08-21T16:20:14Z</time>
      </trkpt>
      <trkpt lat="2.738613" lon="-75.077866">
        <ele>2144.1</ele>
        <time>2021-08-21T16:20:15Z</time>
      </trkpt>
      <trkpt lat="2.738596" lon="-75.07785">
        <ele>2144.2</ele>
        <time>2021-08-21T16:20:16Z</time>
      </trkpt>
      <trkpt lat="2.738579" lon="-75.077835">
        <ele>2144.3</ele>
        <time>2021-08-21T16:20:17Z</time>
      </trkpt>
      <trkpt lat="2.738562" lon="-75.07783">
        <ele>2144.3</ele>
        <time>2021-08-21T16:20:18Z</time>
      </trkpt>
      <trkpt lat="2.738544" lon="-75.07781">
        <ele>2144.4</ele>
        <time>2021-08-21T16:20:19Z</time>
      </trkpt>
      <trkpt lat="2.738526" lon="-75.077805">
        <ele>2144.5</ele>
        <time>2021-08-21T16:20:20Z</time>
      </trkpt>
      <trkpt lat="2.738507" lon="-75.0778">
        <ele>2144.6</ele>
        <time>2021-08-21T16:20:21Z</time>
      </trkpt>
      <trkpt lat="2.738485" lon="-75.07778">
        <ele>2144.7</ele>
        <time>2021-08-21T16:20:22Z</time>
      </trkpt>
      <trkpt lat="2.738463" lon="-75.077774">
        <ele>2144.7</ele>
        <time>2021-08-21T16:20:23Z</time>
      </trkpt>
      <trkpt lat="2.738441" lon="-75.07777">
        <ele>2144.8</ele>
        <time>2021-08-21T16:20:24Z</time>
      </trkpt>
      <trkpt lat="2.738418" lon="-75.07777">
        <ele>2144.9</ele>
        <time>2021-08-21T16:20:25Z</time>
      </trkpt>
      <trkpt lat="2.738394" lon="-75.07776">
        <ele>2145.0</ele>
        <time>2021-08-21T16:20:26Z</time>
      </trkpt>
      <trkpt lat="2.73837" lon="-75.07775">
        <ele>2145.0</ele>
        <time>2021-08-21T16:20:27Z</time>
      </trkpt>
      <trkpt lat="2.738342" lon="-75.07774">
        <ele>2145.1</ele>
        <time>2021-08-21T16:20:28Z</time>
      </trkpt>
      <trkpt lat="2.738315" lon="-75.077736">
        <ele>2145.2</ele>
        <time>2021-08-21T16:20:29Z</time>
      </trkpt>
      <trkpt lat="2.738288" lon="-75.077736">
        <ele>2145.3</ele>
        <time>2021-08-21T16:20:30Z</time>
      </trkpt>
      <trkpt lat="2.738258" lon="-75.07773">
        <ele>2145.4</ele>
        <time>2021-08-21T16:20:31Z</time>
      </trkpt>
      <trkpt lat="2.738228" lon="-75.07773">
        <ele>2145.5</ele>
        <time>2021-08-21T16:20:32Z</time>
      </trkpt>
      <trkpt lat="2.738198" lon="-75.07772">
        <ele>2145.6</ele>
        <time>2021-08-21T16:20:33Z</time>
      </trkpt>
      <trkpt lat="2.738168" lon="-75.07772">
        <ele>2145.7</ele>
        <time>2021-08-21T16:20:34Z</time>
      </trkpt>
      <trkpt lat="2.73814" lon="-75.07771">
        <ele>2145.7</ele>
        <time>2021-08-21T16:20:35Z</time>
      </trkpt>
      <trkpt lat="2.738112" lon="-75.07771">
        <ele>2145.8</ele>
        <time>2021-08-21T16:20:36Z</time>
      </trkpt>
      <trkpt lat="2.738081" lon="-75.077705">
        <ele>2145.9</ele>
        <time>2021-08-21T16:20:37Z</time>
      </trkpt>
      <trkpt lat="2.738051" lon="-75.077705">
        <ele>2146.0</ele>
        <time>2021-08-21T16:20:38Z</time>
      </trkpt>
      <trkpt lat="2.738024" lon="-75.077705">
        <ele>2146.1</ele>
        <time>2021-08-21T16:20:39Z</time>
      </trkpt>
      <trkpt lat="2.737997" lon="-75.0777">
        <ele>2146.3</ele>
        <time>2021-08-21T16:20:40Z</time>
      </trkpt>
      <trkpt lat="2.737971" lon="-75.0777">
        <ele>2146.4</ele>
        <time>2021-08-21T16:20:41Z</time>
      </trkpt>
      <trkpt lat="2.737944" lon="-75.07769">
        <ele>2146.5</ele>
        <time>2021-08-21T16:20:42Z</time>
      </trkpt>
      <trkpt lat="2.737919" lon="-75.07768">
        <ele>2146.7</ele>
        <time>2021-08-21T16:20:43Z</time>
      </trkpt>
      <trkpt lat="2.737893" lon="-75.07767">
        <ele>2146.8</ele>
        <time>2021-08-21T16:20:44Z</time>
      </trkpt>
      <trkpt lat="2.737867" lon="-75.07766">
        <ele>2147.0</ele>
        <time>2021-08-21T16:20:45Z</time>
      </trkpt>
      <trkpt lat="2.73782" lon="-75.07764">
        <ele>2147.3</ele>
        <time>2021-08-21T16:20:47Z</time>
      </trkpt>
      <trkpt lat="2.737832" lon="-75.07764">
        <ele>2147.2</ele>
        <time>2021-08-21T16:20:47Z</time>
      </trkpt>
      <trkpt lat="2.737796" lon="-75.077614">
        <ele>2147.4</ele>
        <time>2021-08-21T16:20:48Z</time>
      </trkpt>
      <trkpt lat="2.737774" lon="-75.0776">
        <ele>2147.6</ele>
        <time>2021-08-21T16:20:49Z</time>
      </trkpt>
      <trkpt lat="2.737755" lon="-75.077576">
        <ele>2147.7</ele>
        <time>2021-08-21T16:20:50Z</time>
      </trkpt>
      <trkpt lat="2.73774" lon="-75.07755">
        <ele>2147.9</ele>
        <time>2021-08-21T16:20:51Z</time>
      </trkpt>
      <trkpt lat="2.737727" lon="-75.07753">
        <ele>2148.0</ele>
        <time>2021-08-21T16:20:52Z</time>
      </trkpt>
      <trkpt lat="2.737717" lon="-75.0775">
        <ele>2148.2</ele>
        <time>2021-08-21T16:20:53Z</time>
      </trkpt>
      <trkpt lat="2.737711" lon="-75.07748">
        <ele>2148.3</ele>
        <time>2021-08-21T16:20:54Z</time>
      </trkpt>
      <trkpt lat="2.737709" lon="-75.077446">
        <ele>2148.4</ele>
        <time>2021-08-21T16:20:55Z</time>
      </trkpt>
      <trkpt lat="2.73771" lon="-75.07742">
        <ele>2148.6</ele>
        <time>2021-08-21T16:20:56Z</time>
      </trkpt>
      <trkpt lat="2.737715" lon="-75.07739">
        <ele>2148.7</ele>
        <time>2021-08-21T16:20:57Z</time>
      </trkpt>
      <trkpt lat="2.737724" lon="-75.07737">
        <ele>2148.8</ele>
        <time>2021-08-21T16:20:58Z</time>
      </trkpt>
      <trkpt lat="2.737736" lon="-75.07735">
        <ele>2148.9</ele>
        <time>2021-08-21T16:20:59Z</time>
      </trkpt>
      <trkpt lat="2.73775" lon="-75.077324">
        <ele>2149.0</ele>
        <time>2021-08-21T16:21:00Z</time>
      </trkpt>
      <trkpt lat="2.737766" lon="-75.0773">
        <ele>2149.2</ele>
        <time>2021-08-21T16:21:01Z</time>
      </trkpt>
      <trkpt lat="2.737781" lon="-75.07728">
        <ele>2149.3</ele>
        <time>2021-08-21T16:21:02Z</time>
      </trkpt>
      <trkpt lat="2.737797" lon="-75.077255">
        <ele>2149.4</ele>
        <time>2021-08-21T16:21:03Z</time>
      </trkpt>
      <trkpt lat="2.737813" lon="-75.07723">
        <ele>2149.5</ele>
        <time>2021-08-21T16:21:04Z</time>
      </trkpt>
      <trkpt lat="2.737829" lon="-75.07722">
        <ele>2149.6</ele>
        <time>2021-08-21T16:21:05Z</time>
      </trkpt>
      <trkpt lat="2.737846" lon="-75.077194">
        <ele>2149.7</ele>
        <time>2021-08-21T16:21:06Z</time>
      </trkpt>
      <trkpt lat="2.737865" lon="-75.07717">
        <ele>2149.9</ele>
        <time>2021-08-21T16:21:07Z</time>
      </trkpt>
      <trkpt lat="2.737883" lon="-75.077156">
        <ele>2150.0</ele>
        <time>2021-08-21T16:21:08Z</time>
      </trkpt>
      <trkpt lat="2.737903" lon="-75.07713">
        <ele>2150.1</ele>
        <time>2021-08-21T16:21:09Z</time>
      </trkpt>
      <trkpt lat="2.737922" lon="-75.07711">
        <ele>2150.3</ele>
        <time>2021-08-21T16:21:10Z</time>
      </trkpt>
      <trkpt lat="2.737942" lon="-75.07709">
        <ele>2150.4</ele>
        <time>2021-08-21T16:21:11Z</time>
      </trkpt>
      <trkpt lat="2.737962" lon="-75.07707">
        <ele>2150.6</ele>
        <time>2021-08-21T16:21:12Z</time>
      </trkpt>
      <trkpt lat="2.737981" lon="-75.07705">
        <ele>2150.7</ele>
        <time>2021-08-21T16:21:13Z</time>
      </trkpt>
      <trkpt lat="2.738001" lon="-75.077034">
        <ele>2150.8</ele>
        <time>2021-08-21T16:21:14Z</time>
      </trkpt>
      <trkpt lat="2.73802" lon="-75.07701">
        <ele>2151.0</ele>
        <time>2021-08-21T16:21:15Z</time>
      </trkpt>
      <trkpt lat="2.738039" lon="-75.076996">
        <ele>2151.1</ele>
        <time>2021-08-21T16:21:16Z</time>
      </trkpt>
      <trkpt lat="2.738057" lon="-75.07698">
        <ele>2151.2</ele>
        <time>2021-08-21T16:21:17Z</time>
      </trkpt>
      <trkpt lat="2.738074" lon="-75.07696">
        <ele>2151.3</ele>
        <time>2021-08-21T16:21:18Z</time>
      </trkpt>
      <trkpt lat="2.73809" lon="-75.07694">
        <ele>2151.4</ele>
        <time>2021-08-21T16:21:19Z</time>
      </trkpt>
      <trkpt lat="2.738105" lon="-75.07692">
        <ele>2151.5</ele>
        <time>2021-08-21T16:21:20Z</time>
      </trkpt>
      <trkpt lat="2.738121" lon="-75.0769">
        <ele>2151.7</ele>
        <time>2021-08-21T16:21:21Z</time>
      </trkpt>
      <trkpt lat="2.738137" lon="-75.07688">
        <ele>2151.8</ele>
        <time>2021-08-21T16:21:22Z</time>
      </trkpt>
      <trkpt lat="2.738154" lon="-75.07686">
        <ele>2151.9</ele>
        <time>2021-08-21T16:21:23Z</time>
      </trkpt>
      <trkpt lat="2.738172" lon="-75.076836">
        <ele>2152.1</ele>
        <time>2021-08-21T16:21:24Z</time>
      </trkpt>
      <trkpt lat="2.738189" lon="-75.07681">
        <ele>2152.2</ele>
        <time>2021-08-21T16:21:25Z</time>
      </trkpt>
      <trkpt lat="2.738208" lon="-75.0768">
        <ele>2152.4</ele>
        <time>2021-08-21T16:21:26Z</time>
      </trkpt>
      <trkpt lat="2.738226" lon="-75.076775">
        <ele>2152.5</ele>
        <time>2021-08-21T16:21:27Z</time>
      </trkpt>
      <trkpt lat="2.738244" lon="-75.07675">
        <ele>2152.7</ele>
        <time>2021-08-21T16:21:28Z</time>
      </trkpt>
      <trkpt lat="2.738263" lon="-75.07674">
        <ele>2152.9</ele>
        <time>2021-08-21T16:21:29Z</time>
      </trkpt>
      <trkpt lat="2.73828" lon="-75.07671">
        <ele>2153.0</ele>
        <time>2021-08-21T16:21:30Z</time>
      </trkpt>
      <trkpt lat="2.738299" lon="-75.07669">
        <ele>2153.2</ele>
        <time>2021-08-21T16:21:31Z</time>
      </trkpt>
      <trkpt lat="2.738316" lon="-75.076675">
        <ele>2153.4</ele>
        <time>2021-08-21T16:21:32Z</time>
      </trkpt>
      <trkpt lat="2.738335" lon="-75.07665">
        <ele>2153.6</ele>
        <time>2021-08-21T16:21:33Z</time>
      </trkpt>
      <trkpt lat="2.738354" lon="-75.07663">
        <ele>2153.7</ele>
        <time>2021-08-21T16:21:34Z</time>
      </trkpt>
      <trkpt lat="2.738373" lon="-75.076614">
        <ele>2153.9</ele>
        <time>2021-08-21T16:21:35Z</time>
      </trkpt>
      <trkpt lat="2.738393" lon="-75.07659">
        <ele>2154.0</ele>
        <time>2021-08-21T16:21:36Z</time>
      </trkpt>
      <trkpt lat="2.738414" lon="-75.07657">
        <ele>2154.2</ele>
        <time>2021-08-21T16:21:37Z</time>
      </trkpt>
      <trkpt lat="2.738434" lon="-75.076546">
        <ele>2154.3</ele>
        <time>2021-08-21T16:21:38Z</time>
      </trkpt>
      <trkpt lat="2.738456" lon="-75.07652">
        <ele>2154.5</ele>
        <time>2021-08-21T16:21:39Z</time>
      </trkpt>
      <trkpt lat="2.738478" lon="-75.0765">
        <ele>2154.6</ele>
        <time>2021-08-21T16:21:40Z</time>
      </trkpt>
      <trkpt lat="2.7385" lon="-75.07648">
        <ele>2154.8</ele>
        <time>2021-08-21T16:21:41Z</time>
      </trkpt>
      <trkpt lat="2.738523" lon="-75.076454">
        <ele>2154.9</ele>
        <time>2021-08-21T16:21:42Z</time>
      </trkpt>
      <trkpt lat="2.738547" lon="-75.07643">
        <ele>2155.1</ele>
        <time>2021-08-21T16:21:43Z</time>
      </trkpt>
      <trkpt lat="2.738572" lon="-75.07641">
        <ele>2155.2</ele>
        <time>2021-08-21T16:21:44Z</time>
      </trkpt>
      <trkpt lat="2.738598" lon="-75.076385">
        <ele>2155.3</ele>
        <time>2021-08-21T16:21:45Z</time>
      </trkpt>
      <trkpt lat="2.738626" lon="-75.07636">
        <ele>2155.5</ele>
        <time>2021-08-21T16:21:46Z</time>
      </trkpt>
      <trkpt lat="2.738655" lon="-75.07633">
        <ele>2155.6</ele>
        <time>2021-08-21T16:21:47Z</time>
      </trkpt>
      <trkpt lat="2.738685" lon="-75.0763">
        <ele>2155.7</ele>
        <time>2021-08-21T16:21:48Z</time>
      </trkpt>
      <trkpt lat="2.738717" lon="-75.07627">
        <ele>2155.8</ele>
        <time>2021-08-21T16:21:49Z</time>
      </trkpt>
      <trkpt lat="2.738749" lon="-75.07624">
        <ele>2156.0</ele>
        <time>2021-08-21T16:21:50Z</time>
      </trkpt>
      <trkpt lat="2.738778" lon="-75.07622">
        <ele>2156.1</ele>
        <time>2021-08-21T16:21:51Z</time>
      </trkpt>
      <trkpt lat="2.738805" lon="-75.07619">
        <ele>2156.3</ele>
        <time>2021-08-21T16:21:52Z</time>
      </trkpt>
      <trkpt lat="2.73883" lon="-75.076164">
        <ele>2156.4</ele>
        <time>2021-08-21T16:21:53Z</time>
      </trkpt>
      <trkpt lat="2.738855" lon="-75.07614">
        <ele>2156.5</ele>
        <time>2021-08-21T16:21:54Z</time>
      </trkpt>
      <trkpt lat="2.738879" lon="-75.07612">
        <ele>2156.6</ele>
        <time>2021-08-21T16:21:55Z</time>
      </trkpt>
      <trkpt lat="2.738901" lon="-75.0761">
        <ele>2156.8</ele>
        <time>2021-08-21T16:21:56Z</time>
      </trkpt>
      <trkpt lat="2.738923" lon="-75.07608">
        <ele>2156.9</ele>
        <time>2021-08-21T16:21:57Z</time>
      </trkpt>
      <trkpt lat="2.738945" lon="-75.076065">
        <ele>2157.0</ele>
        <time>2021-08-21T16:21:58Z</time>
      </trkpt>
      <trkpt lat="2.738966" lon="-75.07604">
        <ele>2157.1</ele>
        <time>2021-08-21T16:21:59Z</time>
      </trkpt>
      <trkpt lat="2.738987" lon="-75.07603">
        <ele>2157.2</ele>
        <time>2021-08-21T16:22:00Z</time>
      </trkpt>
      <trkpt lat="2.739007" lon="-75.07601">
        <ele>2157.3</ele>
        <time>2021-08-21T16:22:01Z</time>
      </trkpt>
      <trkpt lat="2.739027" lon="-75.07599">
        <ele>2157.4</ele>
        <time>2021-08-21T16:22:02Z</time>
      </trkpt>
      <trkpt lat="2.739047" lon="-75.07597">
        <ele>2157.5</ele>
        <time>2021-08-21T16:22:03Z</time>
      </trkpt>
      <trkpt lat="2.739066" lon="-75.07595">
        <ele>2157.6</ele>
        <time>2021-08-21T16:22:04Z</time>
      </trkpt>
      <trkpt lat="2.739085" lon="-75.07593">
        <ele>2157.7</ele>
        <time>2021-08-21T16:22:05Z</time>
      </trkpt>
      <trkpt lat="2.739104" lon="-75.07591">
        <ele>2157.8</ele>
        <time>2021-08-21T16:22:06Z</time>
      </trkpt>
      <trkpt lat="2.739125" lon="-75.07589">
        <ele>2157.9</ele>
        <time>2021-08-21T16:22:07Z</time>
      </trkpt>
      <trkpt lat="2.739146" lon="-75.07587">
        <ele>2158.0</ele>
        <time>2021-08-21T16:22:08Z</time>
      </trkpt>
      <trkpt lat="2.739167" lon="-75.07585">
        <ele>2158.1</ele>
        <time>2021-08-21T16:22:09Z</time>
      </trkpt>
      <trkpt lat="2.73919" lon="-75.07583">
        <ele>2158.2</ele>
        <time>2021-08-21T16:22:10Z</time>
      </trkpt>
      <trkpt lat="2.739214" lon="-75.07581">
        <ele>2158.3</ele>
        <time>2021-08-21T16:22:11Z</time>
      </trkpt>
      <trkpt lat="2.739237" lon="-75.07579">
        <ele>2158.4</ele>
        <time>2021-08-21T16:22:12Z</time>
      </trkpt>
      <trkpt lat="2.73926" lon="-75.075775">
        <ele>2158.5</ele>
        <time>2021-08-21T16:22:13Z</time>
      </trkpt>
      <trkpt lat="2.739285" lon="-75.07576">
        <ele>2158.6</ele>
        <time>2021-08-21T16:22:14Z</time>
      </trkpt>
      <trkpt lat="2.739309" lon="-75.07574">
        <ele>2158.7</ele>
        <time>2021-08-21T16:22:15Z</time>
      </trkpt>
      <trkpt lat="2.739333" lon="-75.075714">
        <ele>2158.8</ele>
        <time>2021-08-21T16:22:16Z</time>
      </trkpt>
      <trkpt lat="2.739357" lon="-75.0757">
        <ele>2159.0</ele>
        <time>2021-08-21T16:22:17Z</time>
      </trkpt>
      <trkpt lat="2.739379" lon="-75.075676">
        <ele>2159.0</ele>
        <time>2021-08-21T16:22:18Z</time>
      </trkpt>
      <trkpt lat="2.739401" lon="-75.07566">
        <ele>2159.2</ele>
        <time>2021-08-21T16:22:19Z</time>
      </trkpt>
      <trkpt lat="2.739423" lon="-75.07564">
        <ele>2159.3</ele>
        <time>2021-08-21T16:22:20Z</time>
      </trkpt>
      <trkpt lat="2.739444" lon="-75.07562">
        <ele>2159.4</ele>
        <time>2021-08-21T16:22:21Z</time>
      </trkpt>
      <trkpt lat="2.739463" lon="-75.0756">
        <ele>2159.5</ele>
        <time>2021-08-21T16:22:22Z</time>
      </trkpt>
      <trkpt lat="2.739482" lon="-75.075584">
        <ele>2159.6</ele>
        <time>2021-08-21T16:22:23Z</time>
      </trkpt>
      <trkpt lat="2.739501" lon="-75.07556">
        <ele>2159.7</ele>
        <time>2021-08-21T16:22:24Z</time>
      </trkpt>
      <trkpt lat="2.73952" lon="-75.07555">
        <ele>2159.8</ele>
        <time>2021-08-21T16:22:25Z</time>
      </trkpt>
      <trkpt lat="2.739539" lon="-75.07553">
        <ele>2159.9</ele>
        <time>2021-08-21T16:22:26Z</time>
      </trkpt>
      <trkpt lat="2.739555" lon="-75.075516">
        <ele>2160.0</ele>
        <time>2021-08-21T16:22:27Z</time>
      </trkpt>
      <trkpt lat="2.739569" lon="-75.0755">
        <ele>2160.1</ele>
        <time>2021-08-21T16:22:28Z</time>
      </trkpt>
      <trkpt lat="2.73958" lon="-75.07549">
        <ele>2160.2</ele>
        <time>2021-08-21T16:22:29Z</time>
      </trkpt>
      <trkpt lat="2.739589" lon="-75.07548">
        <ele>2160.3</ele>
        <time>2021-08-21T16:22:30Z</time>
      </trkpt>
      <trkpt lat="2.739596" lon="-75.07546">
        <ele>2160.4</ele>
        <time>2021-08-21T16:22:31Z</time>
      </trkpt>
      <trkpt lat="2.7396" lon="-75.075455">
        <ele>2160.4</ele>
        <time>2021-08-21T16:22:32Z</time>
      </trkpt>
      <trkpt lat="2.739603" lon="-75.07545">
        <ele>2160.5</ele>
        <time>2021-08-21T16:22:33Z</time>
      </trkpt>
      <trkpt lat="2.739466" lon="-75.07531">
        <ele>2161.3</ele>
        <time>2021-08-21T16:30:00Z</time>
      </trkpt>
      <trkpt lat="2.73946" lon="-75.07531">
        <ele>2161.3</ele>
        <time>2021-08-21T16:30:01Z</time>
      </trkpt>
      <trkpt lat="2.739447" lon="-75.07531">
        <ele>2161.3</ele>
        <time>2021-08-21T16:30:02Z</time>
      </trkpt>
      <trkpt lat="2.739431" lon="-75.07531">
        <ele>2161.3</ele>
        <time>2021-08-21T16:30:03Z</time>
      </trkpt>
      <trkpt lat="2.739412" lon="-75.0753">
        <ele>2161.4</ele>
        <time>2021-08-21T16:30:04Z</time>
      </trkpt>
      <trkpt lat="2.739393" lon="-75.07531">
        <ele>2161.4</ele>
        <time>2021-08-21T16:30:05Z</time>
      </trkpt>
      <trkpt lat="2.739375" lon="-75.07531">
        <ele>2161.5</ele>
        <time>2021-08-21T16:30:06Z</time>
      </trkpt>
      <trkpt lat="2.739357" lon="-75.07531">
        <ele>2161.5</ele>
        <time>2021-08-21T16:30:07Z</time>
      </trkpt>
      <trkpt lat="2.73934" lon="-75.07532">
        <ele>2161.6</ele>
        <time>2021-08-21T16:30:08Z</time>
      </trkpt>
      <trkpt lat="2.739322" lon="-75.075325">
        <ele>2161.6</ele>
        <time>2021-08-21T16:30:09Z</time>
      </trkpt>
      <trkpt lat="2.739305" lon="-75.07533">
        <ele>2161.7</ele>
        <time>2021-08-21T16:30:10Z</time>
      </trkpt>
      <trkpt lat="2.739288" lon="-75.07534">
        <ele>2161.7</ele>
        <time>2021-08-21T16:30:11Z</time>
      </trkpt>
      <trkpt lat="2.739271" lon="-75.07535">
        <ele>2161.8</ele>
        <time>2021-08-21T16:30:12Z</time>
      </trkpt>
      <trkpt lat="2.739254" lon="-75.075356">
        <ele>2161.8</ele>
        <time>2021-08-21T16:30:13Z</time>
      </trkpt>
      <trkpt lat="2.739236" lon="-75.07536">
        <ele>2161.9</ele>
        <time>2021-08-21T16:30:14Z</time>
      </trkpt>
      <trkpt lat="2.739219" lon="-75.07537">
        <ele>2161.9</ele>
        <time>2021-08-21T16:30:15Z</time>
      </trkpt>
      <trkpt lat="2.739202" lon="-75.07538">
        <ele>2162.0</ele>
        <time>2021-08-21T16:30:16Z</time>
      </trkpt>
      <trkpt lat="2.739185" lon="-75.075386">
        <ele>2162.0</ele>
        <time>2021-08-21T16:30:17Z</time>
      </trkpt>
      <trkpt lat="2.739167" lon="-75.07539">
        <ele>2162.1</ele>
        <time>2021-08-21T16:30:18Z</time>
      </trkpt>
      <trkpt lat="2.739148" lon="-75.0754">
        <ele>2162.1</ele>
        <time>2021-08-21T16:30:19Z</time>
      </trkpt>
      <trkpt lat="2.73913" lon="-75.07542">
        <ele>2162.2</ele>
        <time>2021-08-21T16:30:20Z</time>
      </trkpt>
      <trkpt lat="2.739112" lon="-75.075424">
        <ele>2162.2</ele>
        <time>2021-08-21T16:30:21Z</time>
      </trkpt>
      <trkpt lat="2.739094" lon="-75.07543">
        <ele>2162.3</ele>
        <time>2021-08-21T16:30:22Z</time>
      </trkpt>
      <trkpt lat="2.739076" lon="-75.07544">
        <ele>2162.3</ele>
        <time>2021-08-21T16:30:23Z</time>
      </trkpt>
      <trkpt lat="2.739058" lon="-75.075455">
        <ele>2162.4</ele>
        <time>2021-08-21T16:30:24Z</time>
      </trkpt>
      <trkpt lat="2.739039" lon="-75.07546">
        <ele>2162.4</ele>
        <time>2021-08-21T16:30:25Z</time>
      </trkpt>
      <trkpt lat="2.739021" lon="-75.07548">
        <ele>2162.4</ele>
        <time>2021-08-21T16:30:26Z</time>
      </trkpt>
      <trkpt lat="2.739001" lon="-75.075485">
        <ele>2162.5</ele>
        <time>2021-08-21T16:30:27Z</time>
      </trkpt>
      <trkpt lat="2.738981" lon="-75.0755">
        <ele>2162.5</ele>
        <time>2021-08-21T16:30:28Z</time>
      </trkpt>
      <trkpt lat="2.738962" lon="-75.075516">
        <ele>2162.6</ele>
        <time>2021-08-21T16:30:29Z</time>
      </trkpt>
      <trkpt lat="2.738942" lon="-75.07552">
        <ele>2162.6</ele>
        <time>2021-08-21T16:30:30Z</time>
      </trkpt>
      <trkpt lat="2.738922" lon="-75.07554">
        <ele>2162.7</ele>
        <time>2021-08-21T16:30:31Z</time>
      </trkpt>
      <trkpt lat="2.738902" lon="-75.075554">
        <ele>2162.7</ele>
        <time>2021-08-21T16:30:32Z</time>
      </trkpt>
      <trkpt lat="2.738881" lon="-75.07556">
        <ele>2162.8</ele>
        <time>2021-08-21T16:30:33Z</time>
      </trkpt>
      <trkpt lat="2.73886" lon="-75.07558">
        <ele>2162.8</ele>
        <time>2021-08-21T16:30:34Z</time>
      </trkpt>
      <trkpt lat="2.738839" lon="-75.07559">
        <ele>2162.8</ele>
        <time>2021-08-21T16:30:35Z</time>
      </trkpt>
      <trkpt lat="2.738817" lon="-75.07561">
        <ele>2162.9</ele>
        <time>2021-08-21T16:30:36Z</time>
      </trkpt>
      <trkpt lat="2.738795" lon="-75.075615">
        <ele>2162.9</ele>
        <time>2021-08-21T16:30:37Z</time>
      </trkpt>
      <trkpt lat="2.738773" lon="-75.07563">
        <ele>2162.9</ele>
        <time>2021-08-21T16:30:38Z</time>
      </trkpt>
      <trkpt lat="2.738751" lon="-75.075645">
        <ele>2163.0</ele>
        <time>2021-08-21T16:30:39Z</time>
      </trkpt>
      <trkpt lat="2.73873" lon="-75.07565">
        <ele>2163.0</ele>
        <time>2021-08-21T16:30:40Z</time>
      </trkpt>
      <trkpt lat="2.73871" lon="-75.07567">
        <ele>2163.0</ele>
        <time>2021-08-21T16:30:41Z</time>
      </trkpt>
      <trkpt lat="2.738691" lon="-75.075676">
        <ele>2163.1</ele>
        <time>2021-08-21T16:30:42Z</time>
      </trkpt>
      <trkpt lat="2.738671" lon="-75.07569">
        <ele>2163.1</ele>
        <time>2021-08-21T16:30:43Z</time>
      </trkpt>
      <trkpt lat="2.73865" lon="-75.07571">
        <ele>2163.1</ele>
        <time>2021-08-21T16:30:44Z</time>
      </trkpt>
      <trkpt lat="2.738629" lon="-75.075714">
        <ele>2163.2</ele>
        <time>2021-08-21T16:30:45Z</time>
      </trkpt>
      <trkpt lat="2.738607" lon="-75.07573">
        <ele>2163.2</ele>
        <time>2021-08-21T16:30:46Z</time>
      </trkpt>
      <trkpt lat="2.738587" lon="-75.075745">
        <ele>2163.2</ele>
        <time>2021-08-21T16:30:47Z</time>
      </trkpt>
      <trkpt lat="2.738566" lon="-75.07576">
        <ele>2163.3</ele>
        <time>2021-08-21T16:30:48Z</time>
      </trkpt>
      <trkpt lat="2.738547" lon="-75.075775">
        <ele>2163.3</ele>
        <time>2021-08-21T16:30:49Z</time>
      </trkpt>
      <trkpt lat="2.738528" lon="-75.07578">
        <ele>2163.3</ele>
        <time>2021-08-21T16:30:50Z</time>
      </trkpt>
      <trkpt lat="2.738508" lon="-75.0758">
        <ele>2163.3</ele>
        <time>2021-08-21T16:30:51Z</time>
      </trkpt>
      <trkpt lat="2.738488" lon="-75.07581">
        <ele>2163.3</ele>
        <time>2021-08-21T16:30:52Z</time>
      </trkpt>
      <trkpt lat="2.738467" lon="-75.07582">
        <ele>2163.4</ele>
        <time>2021-08-21T16:30:53Z</time>
      </trkpt>
      <trkpt lat="2.738446" lon="-75.07583">
        <ele>2163.4</ele>
        <time>2021-08-21T16:30:54Z</time>
      </trkpt>
      <trkpt lat="2.738424" lon="-75.07584">
        <ele>2163.4</ele>
        <time>2021-08-21T16:30:55Z</time>
      </trkpt>
      <trkpt lat="2.738404" lon="-75.07585">
        <ele>2163.4</ele>
        <time>2021-08-21T16:30:56Z</time>
      </trkpt>
      <trkpt lat="2.738382" lon="-75.07587">
        <ele>2163.4</ele>
        <time>2021-08-21T16:30:57Z</time>
      </trkpt>
      <trkpt lat="2.738356" lon="-75.075874">
        <ele>2163.5</ele>
        <time>2021-08-21T16:30:58Z</time>
      </trkpt>
      <trkpt lat="2.738331" lon="-75.07588">
        <ele>2163.5</ele>
        <time>2021-08-21T16:30:59Z</time>
      </trkpt>
      <trkpt lat="2.738305" lon="-75.0759">
        <ele>2163.5</ele>
        <time>2021-08-21T16:31:00Z</time>
      </trkpt>
      <trkpt lat="2.738278" lon="-75.075905">
        <ele>2163.5</ele>
        <time>2021-08-21T16:31:01Z</time>
      </trkpt>
      <trkpt lat="2.738251" lon="-75.07591">
        <ele>2163.6</ele>
        <time>2021-08-21T16:31:02Z</time>
      </trkpt>
      <trkpt lat="2.738224" lon="-75.07592">
        <ele>2163.6</ele>
        <time>2021-08-21T16:31:03Z</time>
      </trkpt>
      <trkpt lat="2.738198" lon="-75.07593">
        <ele>2163.6</ele>
        <time>2021-08-21T16:31:04Z</time>
      </trkpt>
      <trkpt lat="2.738171" lon="-75.075935">
        <ele>2163.7</ele>
        <time>2021-08-21T16:31:05Z</time>
      </trkpt>
      <trkpt lat="2.738145" lon="-75.07594">
        <ele>2163.7</ele>
        <time>2021-08-21T16:31:06Z</time>
      </trkpt>
      <trkpt lat="2.73812" lon="-75.07594">
        <ele>2163.7</ele>
        <time>2021-08-21T16:31:07Z</time>
      </trkpt>
      <trkpt lat="2.738094" lon="-75.07595">
        <ele>2163.7</ele>
        <time>2021-08-21T16:31:08Z</time>
      </trkpt>
      <trkpt lat="2.738067" lon="-75.07596">
        <ele>2163.8</ele>
        <time>2021-08-21T16:31:09Z</time>
      </trkpt>
      <trkpt lat="2.73804" lon="-75.075966">
        <ele>2163.8</ele>
        <time>2021-08-21T16:31:10Z</time>
      </trkpt>
      <trkpt lat="2.738013" lon="-75.07597">
        <ele>2163.8</ele>
        <time>2021-08-21T16:31:11Z</time>
      </trkpt>
      <trkpt lat="2.737986" lon="-75.07598">
        <ele>2163.8</ele>
        <time>2021-08-21T16:31:12Z</time>
      </trkpt>
      <trkpt lat="2.737961" lon="-75.07599">
        <ele>2163.8</ele>
        <time>2021-08-21T16:31:13Z</time>
      </trkpt>
      <trkpt lat="2.737934" lon="-75.076">
        <ele>2163.9</ele>
        <time>2021-08-21T16:31:14Z</time>
      </trkpt>
      <trkpt lat="2.737908" lon="-75.076004">
        <ele>2163.9</ele>
        <time>2021-08-21T16:31:15Z</time>
      </trkpt>
      <trkpt lat="2.737881" lon="-75.07601">
        <ele>2163.9</ele>
        <time>2021-08-21T16:31:16Z</time>
      </trkpt>
      <trkpt lat="2.737854" lon="-75.07602">
        <ele>2164.0</ele>
        <time>2021-08-21T16:31:17Z</time>
      </trkpt>
      <trkpt lat="2.737828" lon="-75.07603">
        <ele>2164.0</ele>
        <time>2021-08-21T16:31:18Z</time>
      </trkpt>
      <trkpt lat="2.737801" lon="-75.076035">
        <ele>2164.0</ele>
        <time>2021-08-21T16:31:19Z</time>
      </trkpt>
      <trkpt lat="2.737774" lon="-75.07604">
        <ele>2164.0</ele>
        <time>2021-08-21T16:31:20Z</time>
      </trkpt>
      <trkpt lat="2.737748" lon="-75.07605">
        <ele>2164.0</ele>
        <time>2021-08-21T16:31:21Z</time>
      </trkpt>
      <trkpt lat="2.737721" lon="-75.07605">
        <ele>2164.1</ele>
        <time>2021-08-21T16:31:22Z</time>
      </trkpt>
      <trkpt lat="2.737696" lon="-75.076065">
        <ele>2164.1</ele>
        <time>2021-08-21T16:31:23Z</time>
      </trkpt>
      <trkpt lat="2.737672" lon="-75.07607">
        <ele>2164.1</ele>
        <time>2021-08-21T16:31:24Z</time>
      </trkpt>
      <trkpt lat="2.737647" lon="-75.07608">
        <ele>2164.0</ele>
        <time>2021-08-21T16:31:25Z</time>
      </trkpt>
      <trkpt lat="2.737623" lon="-75.076096">
        <ele>2164.0</ele>
        <time>2021-08-21T16:31:26Z</time>
      </trkpt>
      <trkpt lat="2.737599" lon="-75.0761">
        <ele>2164.0</ele>
        <time>2021-08-21T16:31:27Z</time>
      </trkpt>
      <trkpt lat="2.737576" lon="-75.07612">
        <ele>2164.0</ele>
        <time>2021-08-21T16:31:28Z</time>
      </trkpt>
      <trkpt lat="2.737553" lon="-75.07613">
        <ele>2164.0</ele>
        <time>2021-08-21T16:31:29Z</time>
      </trkpt>
      <trkpt lat="2.73753" lon="-75.07615">
        <ele>2163.9</ele>
        <time>2021-08-21T16:31:30Z</time>
      </trkpt>
      <trkpt lat="2.737509" lon="-75.076164">
        <ele>2163.9</ele>
        <time>2021-08-21T16:31:31Z</time>
      </trkpt>
      <trkpt lat="2.737488" lon="-75.07618">
        <ele>2163.8</ele>
        <time>2021-08-21T16:31:32Z</time>
      </trkpt>
      <trkpt lat="2.737468" lon="-75.076195">
        <ele>2163.8</ele>
        <time>2021-08-21T16:31:33Z</time>
      </trkpt>
      <trkpt lat="2.737447" lon="-75.07621">
        <ele>2163.7</ele>
        <time>2021-08-21T16:31:34Z</time>
      </trkpt>
      <trkpt lat="2.737427" lon="-75.07623">
        <ele>2163.6</ele>
        <time>2021-08-21T16:31:35Z</time>
      </trkpt>
      <trkpt lat="2.737407" lon="-75.07625">
        <ele>2163.6</ele>
        <time>2021-08-21T16:31:36Z</time>
      </trkpt>
      <trkpt lat="2.737389" lon="-75.07626">
        <ele>2163.5</ele>
        <time>2021-08-21T16:31:37Z</time>
      </trkpt>
      <trkpt lat="2.737372" lon="-75.07629">
        <ele>2163.4</ele>
        <time>2021-08-21T16:31:38Z</time>
      </trkpt>
      <trkpt lat="2.737355" lon="-75.0763">
        <ele>2163.4</ele>
        <time>2021-08-21T16:31:39Z</time>
      </trkpt>
      <trkpt lat="2.737338" lon="-75.076324">
        <ele>2163.3</ele>
        <time>2021-08-21T16:31:40Z</time>
      </trkpt>
      <trkpt lat="2.737321" lon="-75.07634">
        <ele>2163.3</ele>
        <time>2021-08-21T16:31:41Z</time>
      </trkpt>
      <trkpt lat="2.737302" lon="-75.07636">
        <ele>2163.2</ele>
        <time>2021-08-21T16:31:42Z</time>
      </trkpt>
      <trkpt lat="2.737282" lon="-75.07638">
        <ele>2163.2</ele>
        <time>2021-08-21T16:31:43Z</time>
      </trkpt>
      <trkpt lat="2.737262" lon="-75.07639">
        <ele>2163.2</ele>
        <time>2021-08-21T16:31:44Z</time>
      </trkpt>
      <trkpt lat="2.737242" lon="-75.07641">
        <ele>2163.1</ele>
        <time>2021-08-21T16:31:45Z</time>
      </trkpt>
      <trkpt lat="2.737221" lon="-75.07642">
        <ele>2163.1</ele>
        <time>2021-08-21T16:31:46Z</time>
      </trkpt>
      <trkpt lat="2.737199" lon="-75.07644">
        <ele>2163.0</ele>
        <time>2021-08-21T16:31:47Z</time>
      </trkpt>
      <trkpt lat="2.737175" lon="-75.076454">
        <ele>2163.0</ele>
        <time>2021-08-21T16:31:48Z</time>
      </trkpt>
      <trkpt lat="2.73715" lon="-75.07646">
        <ele>2163.0</ele>
        <time>2021-08-21T16:31:49Z</time>
      </trkpt>
      <trkpt lat="2.737123" lon="-75.07646">
        <ele>2162.9</ele>
        <time>2021-08-21T16:31:50Z</time>
      </trkpt>
      <trkpt lat="2.737096" lon="-75.07647">
        <ele>2162.9</ele>
        <time>2021-08-21T16:31:51Z</time>
      </trkpt>
      <trkpt lat="2.73707" lon="-75.07646">
        <ele>2162.9</ele>
        <time>2021-08-21T16:31:52Z</time>
      </trkpt>
      <trkpt lat="2.737043" lon="-75.07646">
        <ele>2162.8</ele>
        <time>2021-08-21T16:31:53Z</time>
      </trkpt>
      <trkpt lat="2.737017" lon="-75.076454">
        <ele>2162.8</ele>
        <time>2021-08-21T16:31:54Z</time>
      </trkpt>
      <trkpt lat="2.736992" lon="-75.07645">
        <ele>2162.7</ele>
        <time>2021-08-21T16:31:55Z</time>
      </trkpt>
      <trkpt lat="2.736967" lon="-75.07644">
        <ele>2162.7</ele>
        <time>2021-08-21T16:31:56Z</time>
      </trkpt>
      <trkpt lat="2.736922" lon="-75.07641">
        <ele>2162.5</ele>
        <time>2021-08-21T16:31:58Z</time>
      </trkpt>
      <trkpt lat="2.736933" lon="-75.076416">
        <ele>2162.6</ele>
        <time>2021-08-21T16:31:58Z</time>
      </trkpt>
      <trkpt lat="2.736904" lon="-75.07639">
        <ele>2162.4</ele>
        <time>2021-08-21T16:31:59Z</time>
      </trkpt>
      <trkpt lat="2.736889" lon="-75.07637">
        <ele>2162.3</ele>
        <time>2021-08-21T16:32:00Z</time>
      </trkpt>
      <trkpt lat="2.736876" lon="-75.076355">
        <ele>2162.3</ele>
        <time>2021-08-21T16:32:01Z</time>
      </trkpt>
      <trkpt lat="2.736866" lon="-75.07633">
        <ele>2162.2</ele>
        <time>2021-08-21T16:32:02Z</time>
      </trkpt>
      <trkpt lat="2.736859" lon="-75.07631">
        <ele>2162.1</ele>
        <time>2021-08-21T16:32:03Z</time>
      </trkpt>
      <trkpt lat="2.736857" lon="-75.07628">
        <ele>2162.0</ele>
        <time>2021-08-21T16:32:04Z</time>
      </trkpt>
      <trkpt lat="2.736859" lon="-75.076256">
        <ele>2161.9</ele>
        <time>2021-08-21T16:32:05Z</time>
      </trkpt>
      <trkpt lat="2.736863" lon="-75.076225">
        <ele>2161.7</ele>
        <time>2021-08-21T16:32:06Z</time>
      </trkpt>
      <trkpt lat="2.736871" lon="-75.0762">
        <ele>2161.6</ele>
        <time>2021-08-21T16:32:07Z</time>
      </trkpt>
      <trkpt lat="2.736883" lon="-75.07617">
        <ele>2161.5</ele>
        <time>2021-08-21T16:32:07Z</time>
      </trkpt>
      <trkpt lat="2.736895" lon="-75.07615">
        <ele>2161.4</ele>
        <time>2021-08-21T16:32:08Z</time>
      </trkpt>
      <trkpt lat="2.736908" lon="-75.07612">
        <ele>2161.3</ele>
        <time>2021-08-21T16:32:09Z</time>
      </trkpt>
      <trkpt lat="2.736921" lon="-75.07609">
        <ele>2161.2</ele>
        <time>2021-08-21T16:32:10Z</time>
      </trkpt>
      <trkpt lat="2.736932" lon="-75.07606">
        <ele>2161.1</ele>
        <time>2021-08-21T16:32:11Z</time>
      </trkpt>
      <trkpt lat="2.73694" lon="-75.07603">
        <ele>2161.0</ele>
        <time>2021-08-21T16:32:12Z</time>
      </trkpt>
      <trkpt lat="2.736944" lon="-75.076">
        <ele>2160.9</ele>
        <time>2021-08-21T16:32:13Z</time>
      </trkpt>
      <trkpt lat="2.736946" lon="-75.07597">
        <ele>2160.8</ele>
        <time>2021-08-21T16:32:14Z</time>
      </trkpt>
      <trkpt lat="2.736945" lon="-75.07594">
        <ele>2160.7</ele>
        <time>2021-08-21T16:32:15Z</time>
      </trkpt>
      <trkpt lat="2.73694" lon="-75.07592">
        <ele>2160.6</ele>
        <time>2021-08-21T16:32:16Z</time>
      </trkpt>
      <trkpt lat="2.736934" lon="-75.0759">
        <ele>2160.5</ele>
        <time>2021-08-21T16:32:17Z</time>
      </trkpt>
      <trkpt lat="2.736927" lon="-75.075874">
        <ele>2160.4</ele>
        <time>2021-08-21T16:32:18Z</time>
      </trkpt>
      <trkpt lat="2.736917" lon="-75.07585">
        <ele>2160.3</ele>
        <time>2021-08-21T16:32:19Z</time>
      </trkpt>
      <trkpt lat="2.736906" lon="-75.07583">
        <ele>2160.2</ele>
        <time>2021-08-21T16:32:20Z</time>
      </trkpt>
      <trkpt lat="2.736893" lon="-75.075806">
        <ele>2160.2</ele>
        <time>2021-08-21T16:32:21Z</time>
      </trkpt>
      <trkpt lat="2.73688" lon="-75.07578">
        <ele>2160.1</ele>
        <time>2021-08-21T16:32:22Z</time>
      </trkpt>
      <trkpt lat="2.736865" lon="-75.07576">
        <ele>2160.0</ele>
        <time>2021-08-21T16:32:23Z</time>
      </trkpt>
      <trkpt lat="2.736849" lon="-75.07574">
        <ele>2160.0</ele>
        <time>2021-08-21T16:32:24Z</time>
      </trkpt>
      <trkpt lat="2.736833" lon="-75.075714">
        <ele>2159.9</ele>
        <time>2021-08-21T16:32:25Z</time>
      </trkpt>
      <trkpt lat="2.736814" lon="-75.0757">
        <ele>2159.8</ele>
        <time>2021-08-21T16:32:26Z</time>
      </trkpt>
      <trkpt lat="2.736796" lon="-75.075676">
        <ele>2159.8</ele>
        <time>2021-08-21T16:32:27Z</time>
      </trkpt>
      <trkpt lat="2.736781" lon="-75.07565">
        <ele>2159.7</ele>
        <time>2021-08-21T16:32:28Z</time>
      </trkpt>
      <trkpt lat="2.736768" lon="-75.07563">
        <ele>2159.6</ele>
        <time>2021-08-21T16:32:29Z</time>
      </trkpt>
      <trkpt lat="2.736761" lon="-75.0756">
        <ele>2159.5</ele>
        <time>2021-08-21T16:32:30Z</time>
      </trkpt>
      <trkpt lat="2.736759" lon="-75.07558">
        <ele>2159.4</ele>
        <time>2021-08-21T16:32:31Z</time>
      </trkpt>
      <trkpt lat="2.736761" lon="-75.07555">
        <ele>2159.3</ele>
        <time>2021-08-21T16:32:32Z</time>
      </trkpt>
      <trkpt lat="2.736765" lon="-75.07552">
        <ele>2159.2</ele>
        <time>2021-08-21T16:32:33Z</time>
      </trkpt>
      <trkpt lat="2.736771" lon="-75.07549">
        <ele>2159.1</ele>
        <time>2021-08-21T16:32:34Z</time>
      </trkpt>
      <trkpt lat="2.73678" lon="-75.07546">
        <ele>2159.0</ele>
        <time>2021-08-21T16:32:35Z</time>
      </trkpt>
      <trkpt lat="2.736789" lon="-75.07544">
        <ele>2158.8</ele>
        <time>2021-08-21T16:32:36Z</time>
      </trkpt>
      <trkpt lat="2.736797" lon="-75.0754">
        <ele>2158.7</ele>
        <time>2021-08-21T16:32:37Z</time>
      </trkpt>
      <trkpt lat="2.736804" lon="-75.07538">
        <ele>2158.5</ele>
        <time>2021-08-21T16:32:38Z</time>
      </trkpt>
      <trkpt lat="2.736812" lon="-75.07534">
        <ele>2158.4</ele>
        <time>2021-08-21T16:32:39Z</time>
      </trkpt>
      <trkpt lat="2.736819" lon="-75.07531">
        <ele>2158.3</ele>
        <time>2021-08-21T16:32:40Z</time>
      </trkpt>
      <trkpt lat="2.736826" lon="-75.07528">
        <ele>2158.1</ele>
        <time>2021-08-21T16:32:41Z</time>
      </trkpt>
      <trkpt lat="2.736833" lon="-75.07525">
        <ele>2158.0</ele>
        <time>2021-08-21T16:32:42Z</time>
      </trkpt>
      <trkpt lat="2.73684" lon="-75.07522">
        <ele>2157.9</ele>
        <time>2021-08-21T16:32:43Z</time>
      </trkpt>
      <trkpt lat="2.736848" lon="-75.07518">
        <ele>2157.7</ele>
        <time>2021-08-21T16:32:44Z</time>
      </trkpt>
      <trkpt lat="2.736854" lon="-75.07515">
        <ele>2157.6</ele>
        <time>2021-08-21T16:32:45Z</time>
      </trkpt>
      <trkpt lat="2.73686" lon="-75.07512">
        <ele>2157.5</ele>
        <time>2021-08-21T16:32:46Z</time>
      </trkpt>
      <trkpt lat="2.736867" lon="-75.07508">
        <ele>2157.4</ele>
        <time>2021-08-21T16:32:47Z</time>
      </trkpt>
      <trkpt lat="2.736872" lon="-75.07504">
        <ele>2157.3</ele>
        <time>2021-08-21T16:32:48Z</time>
      </trkpt>
      <trkpt lat="2.736876" lon="-75.07501">
        <ele>2157.2</ele>
        <time>2021-08-21T16:32:49Z</time>
      </trkpt>
      <trkpt lat="2.736879" lon="-75.074974">
        <ele>2157.1</ele>
        <time>2021-08-21T16:32:50Z</time>
      </trkpt>
      <trkpt lat="2.736882" lon="-75.07494">
        <ele>2156.9</ele>
        <time>2021-08-21T16:32:51Z</time>
      </trkpt>
      <trkpt lat="2.736882" lon="-75.074905">
        <ele>2156.8</ele>
        <time>2021-08-21T16:32:52Z</time>
      </trkpt>
      <trkpt lat="2.736881" lon="-75.074875">
        <ele>2156.7</ele>
        <time>2021-08-21T16:32:53Z</time>
      </trkpt>
      <trkpt lat="2.736878" lon="-75.074844">
        <ele>2156.5</ele>
        <time>2021-08-21T16:32:54Z</time>
      </trkpt>
      <trkpt lat="2.736872" lon="-75.074814">
        <ele>2156.4</ele>
        <time>2021-08-21T16:32:55Z</time>
      </trkpt>
      <trkpt lat="2.736862" lon="-75.07478">
        <ele>2156.3</ele>
        <time>2021-08-21T16:32:56Z</time>
      </trkpt>
      <trkpt lat="2.736849" lon="-75.07476">
        <ele>2156.2</ele>
        <time>2021-08-21T16:32:57Z</time>
      </trkpt>
      <trkpt lat="2.736834" lon="-75.07474">
        <ele>2156.0</ele>
        <time>2021-08-21T16:32:58Z</time>
      </trkpt>
      <trkpt lat="2.736817" lon="-75.074715">
        <ele>2155.9</ele>
        <time>2021-08-21T16:32:59Z</time>
      </trkpt>
      <trkpt lat="2.736799" lon="-75.0747">
        <ele>2155.9</ele>
        <time>2021-08-21T16:33:00Z</time>
      </trkpt>
      <trkpt lat="2.736779" lon="-75.074684">
        <ele>2155.8</ele>
        <time>2021-08-21T16:33:01Z</time>
      </trkpt>
      <trkpt lat="2.736758" lon="-75.07467">
        <ele>2155.8</ele>
        <time>2021-08-21T16:33:02Z</time>
      </trkpt>
      <trkpt lat="2.736735" lon="-75.07465">
        <ele>2155.7</ele>
        <time>2021-08-21T16:33:03Z</time>
      </trkpt>
      <trkpt lat="2.73671" lon="-75.074646">
        <ele>2155.6</ele>
        <time>2021-08-21T16:33:04Z</time>
      </trkpt>
      <trkpt lat="2.736683" lon="-75.07464">
        <ele>2155.6</ele>
        <time>2021-08-21T16:33:06Z</time>
      </trkpt>
      <trkpt lat="2.736643" lon="-75.07462">
        <ele>2155.5</ele>
        <time>2021-08-21T16:33:07Z</time>
      </trkpt>
      <trkpt lat="2.736604" lon="-75.07461">
        <ele>2155.3</ele>
        <time>2021-08-21T16:33:08Z</time>
      </trkpt>
      <trkpt lat="2.736567" lon="-75.0746">
        <ele>2155.2</ele>
        <time>2021-08-21T16:33:09Z</time>
      </trkpt>
      <trkpt lat="2.736531" lon="-75.07459">
        <ele>2155.0</ele>
        <time>2021-08-21T16:33:10Z</time>
      </trkpt>
      <trkpt lat="2.736495" lon="-75.07459">
        <ele>2154.8</ele>
        <time>2021-08-21T16:33:11Z</time>
      </trkpt>
      <trkpt lat="2.736459" lon="-75.07459">
        <ele>2154.6</ele>
        <time>2021-08-21T16:33:12Z</time>
      </trkpt>
      <trkpt lat="2.736423" lon="-75.07459">
        <ele>2154.5</ele>
        <time>2021-08-21T16:33:13Z</time>
      </trkpt>
      <trkpt lat="2.736386" lon="-75.07459">
        <ele>2154.4</ele>
        <time>2021-08-21T16:33:14Z</time>
      </trkpt>
      <trkpt lat="2.736349" lon="-75.07459">
        <ele>2154.3</ele>
        <time>2021-08-21T16:33:15Z</time>
      </trkpt>
      <trkpt lat="2.736315" lon="-75.07459">
        <ele>2154.2</ele>
        <time>2021-08-21T16:33:16Z</time>
      </trkpt>
      <trkpt lat="2.736282" lon="-75.07459">
        <ele>2154.1</ele>
        <time>2021-08-21T16:33:17Z</time>
      </trkpt>
      <trkpt lat="2.736251" lon="-75.07459">
        <ele>2154.1</ele>
        <time>2021-08-21T16:33:18Z</time>
      </trkpt>
      <trkpt lat="2.736221" lon="-75.07459">
        <ele>2154.0</ele>
        <time>2021-08-21T16:33:19Z</time>
      </trkpt>
      <trkpt lat="2.736192" lon="-75.07459">
        <ele>2154.0</ele>
        <time>2021-08-21T16:33:20Z</time>
      </trkpt>
      <trkpt lat="2.736164" lon="-75.074585">
        <ele>2154.0</ele>
        <time>2021-08-21T16:33:21Z</time>
      </trkpt>
      <trkpt lat="2.736138" lon="-75.07458">
        <ele>2154.0</ele>
        <time>2021-08-21T16:33:22Z</time>
      </trkpt>
      <trkpt lat="2.736112" lon="-75.07456">
        <ele>2153.9</ele>
        <time>2021-08-21T16:33:23Z</time>
      </trkpt>
      <trkpt lat="2.736087" lon="-75.074554">
        <ele>2153.9</ele>
        <time>2021-08-21T16:33:24Z</time>
      </trkpt>
      <trkpt lat="2.736065" lon="-75.07453">
        <ele>2153.9</ele>
        <time>2021-08-21T16:33:25Z</time>
      </trkpt>
      <trkpt lat="2.736043" lon="-75.07452">
        <ele>2153.8</ele>
        <time>2021-08-21T16:33:26Z</time>
      </trkpt>
      <trkpt lat="2.736023" lon="-75.07449">
        <ele>2153.8</ele>
        <time>2021-08-21T16:33:27Z</time>
      </trkpt>
      <trkpt lat="2.736008" lon="-75.07447">
        <ele>2153.7</ele>
        <time>2021-08-21T16:33:28Z</time>
      </trkpt>
      <trkpt lat="2.735994" lon="-75.07445">
        <ele>2153.6</ele>
        <time>2021-08-21T16:33:29Z</time>
      </trkpt>
      <trkpt lat="2.735979" lon="-75.07442">
        <ele>2153.5</ele>
        <time>2021-08-21T16:33:30Z</time>
      </trkpt>
      <trkpt lat="2.735964" lon="-75.07439">
        <ele>2153.4</ele>
        <time>2021-08-21T16:33:31Z</time>
      </trkpt>
      <trkpt lat="2.735949" lon="-75.074356">
        <ele>2153.3</ele>
        <time>2021-08-21T16:33:32Z</time>
      </trkpt>
      <trkpt lat="2.735933" lon="-75.074326">
        <ele>2153.2</ele>
        <time>2021-08-21T16:33:33Z</time>
      </trkpt>
      <trkpt lat="2.735916" lon="-75.074295">
        <ele>2153.1</ele>
        <time>2021-08-21T16:33:34Z</time>
      </trkpt>
      <trkpt lat="2.735898" lon="-75.074265">
        <ele>2153.0</ele>
        <time>2021-08-21T16:33:35Z</time>
      </trkpt>
      <trkpt lat="2.73588" lon="-75.074234">
        <ele>2152.9</ele>
        <time>2021-08-21T16:33:36Z</time>
      </trkpt>
      <trkpt lat="2.735863" lon="-75.0742">
        <ele>2152.8</ele>
        <time>2021-08-21T16:33:37Z</time>
      </trkpt>
      <trkpt lat="2.735847" lon="-75.07417">
        <ele>2152.7</ele>
        <time>2021-08-21T16:33:38Z</time>
      </trkpt>
      <trkpt lat="2.735832" lon="-75.07414">
        <ele>2152.6</ele>
        <time>2021-08-21T16:33:39Z</time>
      </trkpt>
      <trkpt lat="2.735816" lon="-75.07411">
        <ele>2152.6</ele>
        <time>2021-08-21T16:33:40Z</time>
      </trkpt>
      <trkpt lat="2.735801" lon="-75.07408">
        <ele>2152.5</ele>
        <time>2021-08-21T16:33:41Z</time>
      </trkpt>
      <trkpt lat="2.735785" lon="-75.07406">
        <ele>2152.4</ele>
        <time>2021-08-21T16:33:42Z</time>
      </trkpt>
      <trkpt lat="2.735769" lon="-75.07403">
        <ele>2152.4</ele>
        <time>2021-08-21T16:33:43Z</time>
      </trkpt>
      <trkpt lat="2.735751" lon="-75.074005">
        <ele>2152.3</ele>
        <time>2021-08-21T16:33:44Z</time>
      </trkpt>
      <trkpt lat="2.735731" lon="-75.073975">
        <ele>2152.2</ele>
        <time>2021-08-21T16:33:45Z</time>
      </trkpt>
      <trkpt lat="2.73571" lon="-75.07396">
        <ele>2152.1</ele>
        <time>2021-08-21T16:33:46Z</time>
      </trkpt>
      <trkpt lat="2.735688" lon="-75.07394">
        <ele>2152.1</ele>
        <time>2021-08-21T16:33:47Z</time>
      </trkpt>
      <trkpt lat="2.735664" lon="-75.07392">
        <ele>2152.0</ele>
        <time>2021-08-21T16:33:48Z</time>
      </trkpt>
      <trkpt lat="2.73564" lon="-75.073906">
        <ele>2151.9</ele>
        <time>2021-08-21T16:33:49Z</time>
      </trkpt>
      <trkpt lat="2.735616" lon="-75.07389">
        <ele>2151.9</ele>
        <time>2021-08-21T16:33:50Z</time>
      </trkpt>
      <trkpt lat="2.735591" lon="-75.073875">
        <ele>2151.8</ele>
        <time>2021-08-21T16:33:51Z</time>
      </trkpt>
      <trkpt lat="2.735567" lon="-75.07386">
        <ele>2151.7</ele>
        <time>2021-08-21T16:33:52Z</time>
      </trkpt>
      <trkpt lat="2.735543" lon="-75.07384">
        <ele>2151.6</ele>
        <time>2021-08-21T16:33:53Z</time>
      </trkpt>
      <trkpt lat="2.73552" lon="-75.07382">
        <ele>2151.6</ele>
        <time>2021-08-21T16:33:54Z</time>
      </trkpt>
      <trkpt lat="2.7355" lon="-75.0738">
        <ele>2151.5</ele>
        <time>2021-08-21T16:33:55Z</time>
      </trkpt>
      <trkpt lat="2.735483" lon="-75.07378">
        <ele>2151.4</ele>
        <time>2021-08-21T16:33:56Z</time>
      </trkpt>
      <trkpt lat="2.73547" lon="-75.073746">
        <ele>2151.3</ele>
        <time>2021-08-21T16:33:57Z</time>
      </trkpt>
      <trkpt lat="2.73546" lon="-75.073715">
        <ele>2151.2</ele>
        <time>2021-08-21T16:33:58Z</time>
      </trkpt>
      <trkpt lat="2.735454" lon="-75.07369">
        <ele>2151.1</ele>
        <time>2021-08-21T16:33:59Z</time>
      </trkpt>
      <trkpt lat="2.735452" lon="-75.07366">
        <ele>2151.0</ele>
        <time>2021-08-21T16:34:00Z</time>
      </trkpt>
      <trkpt lat="2.735454" lon="-75.07363">
        <ele>2151.0</ele>
        <time>2021-08-21T16:34:01Z</time>
      </trkpt>
      <trkpt lat="2.73546" lon="-75.0736">
        <ele>2150.9</ele>
        <time>2021-08-21T16:34:02Z</time>
      </trkpt>
      <trkpt lat="2.735469" lon="-75.07358">
        <ele>2150.8</ele>
        <time>2021-08-21T16:34:03Z</time>
      </trkpt>
      <trkpt lat="2.73548" lon="-75.07355">
        <ele>2150.7</ele>
        <time>2021-08-21T16:34:04Z</time>
      </trkpt>
      <trkpt lat="2.735493" lon="-75.07352">
        <ele>2150.6</ele>
        <time>2021-08-21T16:34:05Z</time>
      </trkpt>
      <trkpt lat="2.735507" lon="-75.07349">
        <ele>2150.5</ele>
        <time>2021-08-21T16:34:06Z</time>
      </trkpt>
      <trkpt lat="2.735522" lon="-75.073456">
        <ele>2150.4</ele>
        <time>2021-08-21T16:34:07Z</time>
      </trkpt>
      <trkpt lat="2.735534" lon="-75.073425">
        <ele>2150.3</ele>
        <time>2021-08-21T16:34:08Z</time>
      </trkpt>
      <trkpt lat="2.735544" lon="-75.073395">
        <ele>2150.2</ele>
        <time>2021-08-21T16:34:09Z</time>
      </trkpt>
      <trkpt lat="2.735552" lon="-75.073364">
        <ele>2150.1</ele>
        <time>2021-08-21T16:34:10Z</time>
      </trkpt>
      <trkpt lat="2.735556" lon="-75.07333">
        <ele>2150.0</ele>
        <time>2021-08-21T16:34:11Z</time>
      </trkpt>
      <trkpt lat="2.735557" lon="-75.0733">
        <ele>2149.9</ele>
        <time>2021-08-21T16:34:12Z</time>
      </trkpt>
      <trkpt lat="2.735552" lon="-75.07328">
        <ele>2149.9</ele>
        <time>2021-08-21T16:34:13Z</time>
      </trkpt>
      <trkpt lat="2.735543" lon="-75.07325">
        <ele>2149.8</ele>
        <time>2021-08-21T16:34:14Z</time>
      </trkpt>
      <trkpt lat="2.735533" lon="-75.07323">
        <ele>2149.8</ele>
        <time>2021-08-21T16:34:15Z</time>
      </trkpt>
      <trkpt lat="2.735522" lon="-75.0732">
        <ele>2149.7</ele>
        <time>2021-08-21T16:34:16Z</time>
      </trkpt>
      <trkpt lat="2.735511" lon="-75.07317">
        <ele>2149.7</ele>
        <time>2021-08-21T16:34:17Z</time>
      </trkpt>
      <trkpt lat="2.735499" lon="-75.07314">
        <ele>2149.7</ele>
        <time>2021-08-21T16:34:18Z</time>
      </trkpt>
      <trkpt lat="2.73549" lon="-75.07311">
        <ele>2149.6</ele>
        <time>2021-08-21T16:34:19Z</time>
      </trkpt>
      <trkpt lat="2.735481" lon="-75.07309">
        <ele>2149.6</ele>
        <time>2021-08-21T16:34:20Z</time>
      </trkpt>
      <trkpt lat="2.735471" lon="-75.07306">
        <ele>2149.5</ele>
        <time>2021-08-21T16:34:21Z</time>
      </trkpt>
      <trkpt lat="2.735463" lon="-75.07304">
        <ele>2149.5</ele>
        <time>2021-08-21T16:34:22Z</time>
      </trkpt>
      <trkpt lat="2.735456" lon="-75.073006">
        <ele>2149.4</ele>
        <time>2021-08-21T16:34:23Z</time>
      </trkpt>
      <trkpt lat="2.735454" lon="-75.072975">
        <ele>2149.4</ele>
        <time>2021-08-21T16:34:24Z</time>
      </trkpt>
      <trkpt lat="2.735456" lon="-75.072945">
        <ele>2149.3</ele>
        <time>2021-08-21T16:34:25Z</time>
      </trkpt>
      <trkpt lat="2.735462" lon="-75.072914">
        <ele>2149.2</ele>
        <time>2021-08-21T16:34:26Z</time>
      </trkpt>
      <trkpt lat="2.735472" lon="-75.07288">
        <ele>2149.1</ele>
        <time>2021-08-21T16:34:27Z</time>
      </trkpt>
      <trkpt lat="2.735484" lon="-75.07286">
        <ele>2148.9</ele>
        <time>2021-08-21T16:34:28Z</time>
      </trkpt>
      <trkpt lat="2.735498" lon="-75.07283">
        <ele>2148.8</ele>
        <time>2021-08-21T16:34:29Z</time>
      </trkpt>
      <trkpt lat="2.735514" lon="-75.0728">
        <ele>2148.7</ele>
        <time>2021-08-21T16:34:30Z</time>
      </trkpt>
      <trkpt lat="2.73553" lon="-75.07277">
        <ele>2148.6</ele>
        <time>2021-08-21T16:34:31Z</time>
      </trkpt>
      <trkpt lat="2.735549" lon="-75.07274">
        <ele>2148.4</ele>
        <time>2021-08-21T16:34:32Z</time>
      </trkpt>
      <trkpt lat="2.735568" lon="-75.072716">
        <ele>2148.3</ele>
        <time>2021-08-21T16:34:33Z</time>
      </trkpt>
      <trkpt lat="2.735588" lon="-75.072685">
        <ele>2148.2</ele>
        <time>2021-08-21T16:34:34Z</time>
      </trkpt>
      <trkpt lat="2.735609" lon="-75.072655">
        <ele>2148.1</ele>
        <time>2021-08-21T16:34:35Z</time>
      </trkpt>
      <trkpt lat="2.73563" lon="-75.07263">
        <ele>2148.0</ele>
        <time>2021-08-21T16:34:36Z</time>
      </trkpt>
      <trkpt lat="2.735651" lon="-75.0726">
        <ele>2147.9</ele>
        <time>2021-08-21T16:34:37Z</time>
      </trkpt>
      <trkpt lat="2.735673" lon="-75.07258">
        <ele>2147.8</ele>
        <time>2021-08-21T16:34:38Z</time>
      </trkpt>
      <trkpt lat="2.735696" lon="-75.07255">
        <ele>2147.7</ele>
        <time>2021-08-21T16:34:39Z</time>
      </trkpt>
      <trkpt lat="2.735719" lon="-75.072525">
        <ele>2147.6</ele>
        <time>2021-08-21T16:34:40Z</time>
      </trkpt>
      <trkpt lat="2.735743" lon="-75.0725">
        <ele>2147.5</ele>
        <time>2021-08-21T16:34:41Z</time>
      </trkpt>
      <trkpt lat="2.735767" lon="-75.07248">
        <ele>2147.4</ele>
        <time>2021-08-21T16:34:42Z</time>
      </trkpt>
      <trkpt lat="2.735792" lon="-75.07246">
        <ele>2147.3</ele>
        <time>2021-08-21T16:34:43Z</time>
      </trkpt>
      <trkpt lat="2.735817" lon="-75.07243">
        <ele>2147.2</ele>
        <time>2021-08-21T16:34:44Z</time>
      </trkpt>
      <trkpt lat="2.735843" lon="-75.07242">
        <ele>2147.1</ele>
        <time>2021-08-21T16:34:45Z</time>
      </trkpt>
      <trkpt lat="2.73587" lon="-75.072395">
        <ele>2147.0</ele>
        <time>2021-08-21T16:34:46Z</time>
      </trkpt>
      <trkpt lat="2.735898" lon="-75.07237">
        <ele>2146.9</ele>
        <time>2021-08-21T16:34:47Z</time>
      </trkpt>
      <trkpt lat="2.735926" lon="-75.07236">
        <ele>2146.9</ele>
        <time>2021-08-21T16:34:48Z</time>
      </trkpt>
      <trkpt lat="2.735953" lon="-75.072334">
        <ele>2146.8</ele>
        <time>2021-08-21T16:34:49Z</time>
      </trkpt>
      <trkpt lat="2.735981" lon="-75.07232">
        <ele>2146.7</ele>
        <time>2021-08-21T16:34:50Z</time>
      </trkpt>
      <trkpt lat="2.736007" lon="-75.072296">
        <ele>2146.7</ele>
        <time>2021-08-21T16:34:51Z</time>
      </trkpt>
      <trkpt lat="2.736032" lon="-75.07227">
        <ele>2146.6</ele>
        <time>2021-08-21T16:34:52Z</time>
      </trkpt>
      <trkpt lat="2.736056" lon="-75.07226">
        <ele>2146.6</ele>
        <time>2021-08-21T16:34:53Z</time>
      </trkpt>
      <trkpt lat="2.736078" lon="-75.072235">
        <ele>2146.5</ele>
        <time>2021-08-21T16:34:54Z</time>
      </trkpt>
      <trkpt lat="2.7361" lon="-75.07221">
        <ele>2146.5</ele>
        <time>2021-08-21T16:34:55Z</time>
      </trkpt>
      <trkpt lat="2.736122" lon="-75.07218">
        <ele>2146.4</ele>
        <time>2021-08-21T16:34:56Z</time>
      </trkpt>
      <trkpt lat="2.736142" lon="-75.07216">
        <ele>2146.4</ele>
        <time>2021-08-21T16:34:57Z</time>
      </trkpt>
      <trkpt lat="2.73616" lon="-75.07213">
        <ele>2146.3</ele>
        <time>2021-08-21T16:34:58Z</time>
      </trkpt>
      <trkpt lat="2.736176" lon="-75.072105">
        <ele>2146.3</ele>
        <time>2021-08-21T16:34:59Z</time>
      </trkpt>
      <trkpt lat="2.736189" lon="-75.072075">
        <ele>2146.3</ele>
        <time>2021-08-21T16:35:00Z</time>
      </trkpt>
      <trkpt lat="2.736198" lon="-75.072044">
        <ele>2146.3</ele>
        <time>2021-08-21T16:35:01Z</time>
      </trkpt>
      <trkpt lat="2.736205" lon="-75.07201">
        <ele>2146.2</ele>
        <time>2021-08-21T16:35:02Z</time>
      </trkpt>
      <trkpt lat="2.736209" lon="-75.07198">
        <ele>2146.1</ele>
        <time>2021-08-21T16:35:03Z</time>
      </trkpt>
      <trkpt lat="2.736209" lon="-75.07195">
        <ele>2146.1</ele>
        <time>2021-08-21T16:35:04Z</time>
      </trkpt>
      <trkpt lat="2.736203" lon="-75.07192">
        <ele>2146.0</ele>
        <time>2021-08-21T16:35:05Z</time>
      </trkpt>
      <trkpt lat="2.736191" lon="-75.07189">
        <ele>2145.9</ele>
        <time>2021-08-21T16:35:06Z</time>
      </trkpt>
      <trkpt lat="2.736176" lon="-75.07187">
        <ele>2145.8</ele>
        <time>2021-08-21T16:35:07Z</time>
      </trkpt>
      <trkpt lat="2.736155" lon="-75.071846">
        <ele>2145.8</ele>
        <time>2021-08-21T16:35:08Z</time>
      </trkpt>
      <trkpt lat="2.736131" lon="-75.07182">
        <ele>2145.7</ele>
        <time>2021-08-21T16:35:09Z</time>
      </trkpt>
      <trkpt lat="2.736107" lon="-75.07181">
        <ele>2145.6</ele>
        <time>2021-08-21T16:35:10Z</time>
      </trkpt>
      <trkpt lat="2.736079" lon="-75.0718">
        <ele>2145.6</ele>
        <time>2021-08-21T16:35:11Z</time>
      </trkpt>
      <trkpt lat="2.736051" lon="-75.07179">
        <ele>2145.5</ele>
        <time>2021-08-21T16:35:12Z</time>
      </trkpt>
      <trkpt lat="2.736022" lon="-75.071785">
        <ele>2145.5</ele>
        <time>2021-08-21T16:35:13Z</time>
      </trkpt>
      <trkpt lat="2.735992" lon="-75.071785">
        <ele>2145.4</ele>
        <time>2021-08-21T16:35:14Z</time>
      </trkpt>
      <trkpt lat="2.735961" lon="-75.07179">
        <ele>2145.3</ele>
        <time>2021-08-21T16:35:15Z</time>
      </trkpt>
      <trkpt lat="2.73593" lon="-75.07179">
        <ele>2145.2</ele>
        <time>2021-08-21T16:35:16Z</time>
      </trkpt>
      <trkpt lat="2.735897" lon="-75.0718">
        <ele>2145.1</ele>
        <time>2021-08-21T16:35:17Z</time>
      </trkpt>
      <trkpt lat="2.735866" lon="-75.07181">
        <ele>2145.0</ele>
        <time>2021-08-21T16:35:18Z</time>
      </trkpt>
      <trkpt lat="2.735831" lon="-75.07182">
        <ele>2144.9</ele>
        <time>2021-08-21T16:35:19Z</time>
      </trkpt>
      <trkpt lat="2.735798" lon="-75.07183">
        <ele>2144.8</ele>
        <time>2021-08-21T16:35:20Z</time>
      </trkpt>
      <trkpt lat="2.735766" lon="-75.071846">
        <ele>2144.7</ele>
        <time>2021-08-21T16:35:21Z</time>
      </trkpt>
      <trkpt lat="2.735736" lon="-75.07185">
        <ele>2144.6</ele>
        <time>2021-08-21T16:35:22Z</time>
      </trkpt>
      <trkpt lat="2.735709" lon="-75.07187">
        <ele>2144.5</ele>
        <time>2021-08-21T16:35:23Z</time>
      </trkpt>
      <trkpt lat="2.735679" lon="-75.071884">
        <ele>2144.4</ele>
        <time>2021-08-21T16:35:24Z</time>
      </trkpt>
      <trkpt lat="2.735647" lon="-75.07189">
        <ele>2144.3</ele>
        <time>2021-08-21T16:35:25Z</time>
      </trkpt>
      <trkpt lat="2.735615" lon="-75.07191">
        <ele>2144.3</ele>
        <time>2021-08-21T16:35:26Z</time>
      </trkpt>
      <trkpt lat="2.735581" lon="-75.07192">
        <ele>2144.2</ele>
        <time>2021-08-21T16:35:27Z</time>
      </trkpt>
      <trkpt lat="2.735547" lon="-75.07193">
        <ele>2144.2</ele>
        <time>2021-08-21T16:35:28Z</time>
      </trkpt>
      <trkpt lat="2.735512" lon="-75.071945">
        <ele>2144.1</ele>
        <time>2021-08-21T16:35:29Z</time>
      </trkpt>
      <trkpt lat="2.735476" lon="-75.07196">
        <ele>2144.0</ele>
        <time>2021-08-21T16:35:30Z</time>
      </trkpt>
      <trkpt lat="2.735441" lon="-75.071976">
        <ele>2144.0</ele>
        <time>2021-08-21T16:35:31Z</time>
      </trkpt>
      <trkpt lat="2.735407" lon="-75.07199">
        <ele>2143.9</ele>
        <time>2021-08-21T16:35:32Z</time>
      </trkpt>
      <trkpt lat="2.735374" lon="-75.072014">
        <ele>2143.8</ele>
        <time>2021-08-21T16:35:33Z</time>
      </trkpt>
      <trkpt lat="2.735345" lon="-75.07203">
        <ele>2143.7</ele>
        <time>2021-08-21T16:35:34Z</time>
      </trkpt>
      <trkpt lat="2.735314" lon="-75.07205">
        <ele>2143.6</ele>
        <time>2021-08-21T16:35:35Z</time>
      </trkpt>
      <trkpt lat="2.735284" lon="-75.07207">
        <ele>2143.5</ele>
        <time>2021-08-21T16:35:36Z</time>
      </trkpt>
      <trkpt lat="2.735257" lon="-75.07208">
        <ele>2143.5</ele>
        <time>2021-08-21T16:35:37Z</time>
      </trkpt>
      <trkpt lat="2.73523" lon="-75.0721">
        <ele>2143.4</ele>
        <time>2021-08-21T16:35:38Z</time>
      </trkpt>
      <trkpt lat="2.735203" lon="-75.07212">
        <ele>2143.3</ele>
        <time>2021-08-21T16:35:39Z</time>
      </trkpt>
      <trkpt lat="2.735174" lon="-75.072136">
        <ele>2143.3</ele>
        <time>2021-08-21T16:35:40Z</time>
      </trkpt>
      <trkpt lat="2.735146" lon="-75.07216">
        <ele>2143.2</ele>
        <time>2021-08-21T16:35:41Z</time>
      </trkpt>
      <trkpt lat="2.735117" lon="-75.072174">
        <ele>2143.1</ele>
        <time>2021-08-21T16:35:42Z</time>
      </trkpt>
      <trkpt lat="2.735088" lon="-75.07219">
        <ele>2143.1</ele>
        <time>2021-08-21T16:35:43Z</time>
      </trkpt>
      <trkpt lat="2.735061" lon="-75.072205">
        <ele>2143.0</ele>
        <time>2021-08-21T16:35:44Z</time>
      </trkpt>
      <trkpt lat="2.735033" lon="-75.07222">
        <ele>2142.9</ele>
        <time>2021-08-21T16:35:45Z</time>
      </trkpt>
      <trkpt lat="2.735004" lon="-75.072235">
        <ele>2142.9</ele>
        <time>2021-08-21T16:35:46Z</time>
      </trkpt>
      <trkpt lat="2.734975" lon="-75.07225">
        <ele>2142.9</ele>
        <time>2021-08-21T16:35:47Z</time>
      </trkpt>
      <trkpt lat="2.734949" lon="-75.072266">
        <ele>2142.8</ele>
        <time>2021-08-21T16:35:48Z</time>
      </trkpt>
      <trkpt lat="2.734922" lon="-75.07227">
        <ele>2142.8</ele>
        <time>2021-08-21T16:35:49Z</time>
      </trkpt>
      <trkpt lat="2.734895" lon="-75.07228">
        <ele>2142.8</ele>
        <time>2021-08-21T16:35:50Z</time>
      </trkpt>
      <trkpt lat="2.734868" lon="-75.07228">
        <ele>2142.8</ele>
        <time>2021-08-21T16:35:51Z</time>
      </trkpt>
      <trkpt lat="2.734843" lon="-75.07229">
        <ele>2142.8</ele>
        <time>2021-08-21T16:35:52Z</time>
      </trkpt>
      <trkpt lat="2.734818" lon="-75.07229">
        <ele>2142.7</ele>
        <time>2021-08-21T16:35:53Z</time>
      </trkpt>
      <trkpt lat="2.734795" lon="-75.07228">
        <ele>2142.7</ele>
        <time>2021-08-21T16:35:54Z</time>
      </trkpt>
      <trkpt lat="2.734774" lon="-75.07227">
        <ele>2142.7</ele>
        <time>2021-08-21T16:35:55Z</time>
      </trkpt>
      <trkpt lat="2.734754" lon="-75.072266">
        <ele>2142.7</ele>
        <time>2021-08-21T16:35:56Z</time>
      </trkpt>
      <trkpt lat="2.734734" lon="-75.07225">
        <ele>2142.6</ele>
        <time>2021-08-21T16:35:57Z</time>
      </trkpt>
      <trkpt lat="2.734717" lon="-75.07224">
        <ele>2142.6</ele>
        <time>2021-08-21T16:35:58Z</time>
      </trkpt>
      <trkpt lat="2.7347" lon="-75.07223">
        <ele>2142.6</ele>
        <time>2021-08-21T16:35:59Z</time>
      </trkpt>
      <trkpt lat="2.734687" lon="-75.07221">
        <ele>2142.6</ele>
        <time>2021-08-21T16:36:00Z</time>
      </trkpt>
      <trkpt lat="2.734675" lon="-75.0722">
        <ele>2142.6</ele>
        <time>2021-08-21T16:36:01Z</time>
      </trkpt>
      <trkpt lat="2.734664" lon="-75.07218">
        <ele>2142.6</ele>
        <time>2021-08-21T16:36:02Z</time>
      </trkpt>
      <trkpt lat="2.734652" lon="-75.07217">
        <ele>2142.6</ele>
        <time>2021-08-21T16:36:03Z</time>
      </trkpt>
      <trkpt lat="2.734649" lon="-75.07217">
        <ele>2142.6</ele>
        <time>2021-08-21T16:36:04Z</time>
      </trkpt>
      <trkpt lat="2.734645" lon="-75.07217">
        <ele>2142.6</ele>
        <time>2021-08-21T16:36:05Z</time>
      </trkpt>
      <trkpt lat="2.734642" lon="-75.07217">
        <ele>2142.6</ele>
        <time>2021-08-21T16:36:06Z</time>
      </trkpt>
      <trkpt lat="2.734638" lon="-75.07217">
        <ele>2142.6</ele>
        <time>2021-08-21T16:36:07Z</time>
      </trkpt>
      <trkpt lat="2.734635" lon="-75.07217">
        <ele>2142.6</ele>
        <time>2021-08-21T16:36:08Z</time>
      </trkpt>
      <trkpt lat="2.734631" lon="-75.07216">
        <ele>2142.6</ele>
        <time>2021-08-21T16:36:09Z</time>
      </trkpt>
      <trkpt lat="2.734627" lon="-75.07216">
        <ele>2142.6</ele>
        <time>2021-08-21T16:36:10Z</time>
      </trkpt>
      <trkpt lat="2.734624" lon="-75.07216">
        <ele>2142.6</ele>
        <time>2021-08-21T16:40:35Z</time>
      </trkpt>
      <trkpt lat="2.73462" lon="-75.07216">
        <ele>2142.6</ele>
        <time>2021-08-21T16:40:36Z</time>
      </trkpt>
      <trkpt lat="2.734613" lon="-75.07216">
        <ele>2142.6</ele>
        <time>2021-08-21T16:40:37Z</time>
      </trkpt>
      <trkpt lat="2.734617" lon="-75.07216">
        <ele>2142.6</ele>
        <time>2021-08-21T16:40:37Z</time>
      </trkpt>
      <trkpt lat="2.734613" lon="-75.07216">
        <ele>2142.6</ele>
        <time>2021-08-21T16:40:38Z</time>
      </trkpt>
      <trkpt lat="2.734611" lon="-75.07217">
        <ele>2142.6</ele>
        <time>2021-08-21T16:40:39Z</time>
      </trkpt>
      <trkpt lat="2.734609" lon="-75.07217">
        <ele>2142.6</ele>
        <time>2021-08-21T16:40:40Z</time>
      </trkpt>
      <trkpt lat="2.734606" lon="-75.072174">
        <ele>2142.6</ele>
        <time>2021-08-21T16:40:41Z</time>
      </trkpt>
      <trkpt lat="2.734603" lon="-75.072174">
        <ele>2142.6</ele>
        <time>2021-08-21T16:40:42Z</time>
      </trkpt>
      <trkpt lat="2.734601" lon="-75.07218">
        <ele>2142.6</ele>
        <time>2021-08-21T16:40:43Z</time>
      </trkpt>
      <trkpt lat="2.7346" lon="-75.07218">
        <ele>2142.6</ele>
        <time>2021-08-21T16:40:44Z</time>
      </trkpt>
      <trkpt lat="2.734597" lon="-75.07219">
        <ele>2142.6</ele>
        <time>2021-08-21T16:40:45Z</time>
      </trkpt>
      <trkpt lat="2.734593" lon="-75.07219">
        <ele>2142.6</ele>
        <time>2021-08-21T16:40:46Z</time>
      </trkpt>
      <trkpt lat="2.734588" lon="-75.0722">
        <ele>2142.6</ele>
        <time>2021-08-21T16:40:47Z</time>
      </trkpt>
      <trkpt lat="2.734583" lon="-75.0722">
        <ele>2142.6</ele>
        <time>2021-08-21T16:40:48Z</time>
      </trkpt>
      <trkpt lat="2.734607" lon="-75.072014">
        <ele>2142.2</ele>
        <time>2021-08-21T16:45:24Z</time>
      </trkpt>
      <trkpt lat="2.734606" lon="-75.07201">
        <ele>2142.1</ele>
        <time>2021-08-21T16:45:25Z</time>
      </trkpt>
      <trkpt lat="2.734606" lon="-75.072">
        <ele>2142.1</ele>
        <time>2021-08-21T16:45:26Z</time>
      </trkpt>
      <trkpt lat="2.734604" lon="-75.07198">
        <ele>2142.1</ele>
        <time>2021-08-21T16:45:27Z</time>
      </trkpt>
      <trkpt lat="2.734601" lon="-75.07197">
        <ele>2142.0</ele>
        <time>2021-08-21T16:45:28Z</time>
      </trkpt>
      <trkpt lat="2.734598" lon="-75.071945">
        <ele>2142.0</ele>
        <time>2021-08-21T16:45:29Z</time>
      </trkpt>
      <trkpt lat="2.734594" lon="-75.07193">
        <ele>2142.0</ele>
        <time>2021-08-21T16:45:30Z</time>
      </trkpt>
      <trkpt lat="2.734595" lon="-75.07193">
        <ele>2142.0</ele>
        <time>2021-08-21T16:45:31Z</time>
      </trkpt>
      <trkpt lat="2.734595" lon="-75.07192">
        <ele>2142.0</ele>
        <time>2021-08-21T16:45:32Z</time>
      </trkpt>
      <trkpt lat="2.734595" lon="-75.07192">
        <ele>2142.0</ele>
        <time>2021-08-21T16:45:33Z</time>
      </trkpt>
      <trkpt lat="2.734596" lon="-75.071915">
        <ele>2142.0</ele>
        <time>2021-08-21T16:45:36Z</time>
      </trkpt>
      <trkpt lat="2.734596" lon="-75.071915">
        <ele>2142.0</ele>
        <time>2021-08-21T16:46:44Z</time>
      </trkpt>
      <trkpt lat="2.734596" lon="-75.071915">
        <ele>2142.0</ele>
        <time>2021-08-21T16:46:45Z</time>
      </trkpt>
      <trkpt lat="2.734597" lon="-75.07191">
        <ele>2142.0</ele>
        <time>2021-08-21T16:46:46Z</time>
      </trkpt>
      <trkpt lat="2.734597" lon="-75.07191">
        <ele>2142.0</ele>
        <time>2021-08-21T16:46:47Z</time>
      </trkpt>
      <trkpt lat="2.734597" lon="-75.0719">
        <ele>2142.0</ele>
        <time>2021-08-21T16:46:48Z</time>
      </trkpt>
      <trkpt lat="2.734598" lon="-75.0719">
        <ele>2142.0</ele>
        <time>2021-08-21T16:46:49Z</time>
      </trkpt>
      <trkpt lat="2.734598" lon="-75.0719">
        <ele>2142.0</ele>
        <time>2021-08-21T16:46:50Z</time>
      </trkpt>
      <trkpt lat="2.734599" lon="-75.07189">
        <ele>2142.0</ele>
        <time>2021-08-21T16:46:51Z</time>
      </trkpt>
      <trkpt lat="2.734599" lon="-75.07189">
        <ele>2142.0</ele>
        <time>2021-08-21T16:48:16Z</time>
      </trkpt>
      <trkpt lat="2.734599" lon="-75.071884">
        <ele>2142.0</ele>
        <time>2021-08-21T16:48:18Z</time>
      </trkpt>
      <trkpt lat="2.7346" lon="-75.071884">
        <ele>2141.9</ele>
        <time>2021-08-21T16:48:19Z</time>
      </trkpt>
      <trkpt lat="2.7346" lon="-75.071884">
        <ele>2141.9</ele>
        <time>2021-08-21T16:48:20Z</time>
      </trkpt>
      <trkpt lat="2.7346" lon="-75.07188">
        <ele>2141.9</ele>
        <time>2021-08-21T16:48:21Z</time>
      </trkpt>
      <trkpt lat="2.734601" lon="-75.07188">
        <ele>2141.9</ele>
        <time>2021-08-21T16:48:23Z</time>
      </trkpt>
      <trkpt lat="2.734601" lon="-75.07187">
        <ele>2141.9</ele>
        <time>2021-08-21T16:48:24Z</time>
      </trkpt>
      <trkpt lat="2.734601" lon="-75.07187">
        <ele>2141.9</ele>
        <time>2021-08-21T16:48:25Z</time>
      </trkpt>
      <trkpt lat="2.734602" lon="-75.07187">
        <ele>2141.9</ele>
        <time>2021-08-21T16:48:26Z</time>
      </trkpt>
      <trkpt lat="2.734602" lon="-75.07186">
        <ele>2141.9</ele>
        <time>2021-08-21T16:48:27Z</time>
      </trkpt>
      <trkpt lat="2.734602" lon="-75.07186">
        <ele>2141.9</ele>
        <time>2021-08-21T16:48:28Z</time>
      </trkpt>
      <trkpt lat="2.734603" lon="-75.07185">
        <ele>2141.9</ele>
        <time>2021-08-21T16:48:29Z</time>
      </trkpt>
      <trkpt lat="2.734603" lon="-75.07185">
        <ele>2141.9</ele>
        <time>2021-08-21T16:48:31Z</time>
      </trkpt>
      <trkpt lat="2.734603" lon="-75.07185">
        <ele>2141.9</ele>
        <time>2021-08-21T16:48:44Z</time>
      </trkpt>
      <trkpt lat="2.734604" lon="-75.071846">
        <ele>2141.9</ele>
        <time>2021-08-21T16:48:45Z</time>
      </trkpt>
      <trkpt lat="2.734604" lon="-75.071846">
        <ele>2141.9</ele>
        <time>2021-08-21T16:48:46Z</time>
      </trkpt>
      <trkpt lat="2.734604" lon="-75.07184">
        <ele>2141.9</ele>
        <time>2021-08-21T16:48:47Z</time>
      </trkpt>
      <trkpt lat="2.734605" lon="-75.07184">
        <ele>2141.9</ele>
        <time>2021-08-21T16:48:48Z</time>
      </trkpt>
      <trkpt lat="2.734605" lon="-75.07184">
        <ele>2141.9</ele>
        <time>2021-08-21T16:48:49Z</time>
      </trkpt>
      <trkpt lat="2.734605" lon="-75.07183">
        <ele>2141.9</ele>
        <time>2021-08-21T16:48:50Z</time>
      </trkpt>
      <trkpt lat="2.734606" lon="-75.07183">
        <ele>2141.9</ele>
        <time>2021-08-21T16:48:52Z</time>
      </trkpt>
      <trkpt lat="2.734606" lon="-75.07182">
        <ele>2141.9</ele>
        <time>2021-08-21T16:48:53Z</time>
      </trkpt>
      <trkpt lat="2.734606" lon="-75.07182">
        <ele>2141.9</ele>
        <time>2021-08-21T16:48:54Z</time>
      </trkpt>
      <trkpt lat="2.734607" lon="-75.07182">
        <ele>2141.9</ele>
        <time>2021-08-21T16:48:55Z</time>
      </trkpt>
      <trkpt lat="2.734607" lon="-75.071815">
        <ele>2141.9</ele>
        <time>2021-08-21T16:48:56Z</time>
      </trkpt>
      <trkpt lat="2.734608" lon="-75.071815">
        <ele>2141.9</ele>
        <time>2021-08-21T16:48:57Z</time>
      </trkpt>
      <trkpt lat="2.734608" lon="-75.07181">
        <ele>2141.9</ele>
        <time>2021-08-21T16:48:58Z</time>
      </trkpt>
      <trkpt lat="2.734608" lon="-75.07181">
        <ele>2141.9</ele>
        <time>2021-08-21T16:48:59Z</time>
      </trkpt>
      <trkpt lat="2.734609" lon="-75.0718">
        <ele>2141.9</ele>
        <time>2021-08-21T16:49:00Z</time>
      </trkpt>
      <trkpt lat="2.734609" lon="-75.0718">
        <ele>2141.9</ele>
        <time>2021-08-21T16:49:01Z</time>
      </trkpt>
      <trkpt lat="2.734609" lon="-75.0718">
        <ele>2141.9</ele>
        <time>2021-08-21T16:49:02Z</time>
      </trkpt>
      <trkpt lat="2.73461" lon="-75.07179">
        <ele>2141.9</ele>
        <time>2021-08-21T16:49:04Z</time>
      </trkpt>
      <trkpt lat="2.73461" lon="-75.07179">
        <ele>2141.9</ele>
        <time>2021-08-21T16:49:05Z</time>
      </trkpt>
      <trkpt lat="2.73461" lon="-75.07179">
        <ele>2141.9</ele>
        <time>2021-08-21T16:49:06Z</time>
      </trkpt>
      <trkpt lat="2.734611" lon="-75.071785">
        <ele>2141.9</ele>
        <time>2021-08-21T16:49:07Z</time>
      </trkpt>
      <trkpt lat="2.734611" lon="-75.071785">
        <ele>2141.9</ele>
        <time>2021-08-21T16:49:08Z</time>
      </trkpt>
      <trkpt lat="2.734592" lon="-75.07178">
        <ele>2141.9</ele>
        <time>2021-08-21T16:49:10Z</time>
      </trkpt>
      <trkpt lat="2.734591" lon="-75.07178">
        <ele>2141.9</ele>
        <time>2021-08-21T16:49:11Z</time>
      </trkpt>
      <trkpt lat="2.734591" lon="-75.07178">
        <ele>2141.9</ele>
        <time>2021-08-21T16:49:12Z</time>
      </trkpt>
      <trkpt lat="2.734593" lon="-75.071785">
        <ele>2141.9</ele>
        <time>2021-08-21T16:49:13Z</time>
      </trkpt>
      <trkpt lat="2.734593" lon="-75.071785">
        <ele>2141.9</ele>
        <time>2021-08-21T16:49:14Z</time>
      </trkpt>
      <trkpt lat="2.734593" lon="-75.071785">
        <ele>2141.9</ele>
        <time>2021-08-21T16:49:15Z</time>
      </trkpt>
      <trkpt lat="2.734593" lon="-75.071785">
        <ele>2141.9</ele>
        <time>2021-08-21T16:49:16Z</time>
      </trkpt>
      <trkpt lat="2.734607" lon="-75.07182">
        <ele>2141.8</ele>
        <time>2021-08-21T16:49:31Z</time>
      </trkpt>
      <trkpt lat="2.734607" lon="-75.07182">
        <ele>2141.8</ele>
        <time>2021-08-21T16:49:32Z</time>
      </trkpt>
      <trkpt lat="2.734607" lon="-75.07182">
        <ele>2141.8</ele>
        <time>2021-08-21T16:49:33Z</time>
      </trkpt>
      <trkpt lat="2.734606" lon="-75.071815">
        <ele>2141.8</ele>
        <time>2021-08-21T16:49:34Z</time>
      </trkpt>
      <trkpt lat="2.734605" lon="-75.071815">
        <ele>2141.8</ele>
        <time>2021-08-21T16:49:35Z</time>
      </trkpt>
      <trkpt lat="2.734597" lon="-75.07173">
        <ele>2141.7</ele>
        <time>2021-08-21T16:50:07Z</time>
      </trkpt>
      <trkpt lat="2.734594" lon="-75.07174">
        <ele>2141.7</ele>
        <time>2021-08-21T16:50:10Z</time>
      </trkpt>
      <trkpt lat="2.734594" lon="-75.07174">
        <ele>2141.7</ele>
        <time>2021-08-21T16:50:11Z</time>
      </trkpt>
      <trkpt lat="2.734595" lon="-75.07174">
        <ele>2141.7</ele>
        <time>2021-08-21T16:50:12Z</time>
      </trkpt>
      <trkpt lat="2.734595" lon="-75.07174">
        <ele>2141.7</ele>
        <time>2021-08-21T16:50:14Z</time>
      </trkpt>
      <trkpt lat="2.73464" lon="-75.07184">
        <ele>2141.6</ele>
        <time>2021-08-21T16:55:12Z</time>
      </trkpt>
      <trkpt lat="2.73464" lon="-75.07184">
        <ele>2141.6</ele>
        <time>2021-08-21T16:55:13Z</time>
      </trkpt>
      <trkpt lat="2.734642" lon="-75.07184">
        <ele>2141.6</ele>
        <time>2021-08-21T16:55:15Z</time>
      </trkpt>
      <trkpt lat="2.73465" lon="-75.07185">
        <ele>2141.6</ele>
        <time>2021-08-21T16:55:19Z</time>
      </trkpt>
      <trkpt lat="2.73465" lon="-75.07185">
        <ele>2141.6</ele>
        <time>2021-08-21T16:55:20Z</time>
      </trkpt>
      <trkpt lat="2.734651" lon="-75.07185">
        <ele>2141.6</ele>
        <time>2021-08-21T16:55:21Z</time>
      </trkpt>
      <trkpt lat="2.734651" lon="-75.071846">
        <ele>2141.6</ele>
        <time>2021-08-21T16:55:22Z</time>
      </trkpt>
      <trkpt lat="2.734652" lon="-75.071846">
        <ele>2141.6</ele>
        <time>2021-08-21T16:55:23Z</time>
      </trkpt>
      <trkpt lat="2.734652" lon="-75.071846">
        <ele>2141.6</ele>
        <time>2021-08-21T16:55:24Z</time>
      </trkpt>
      <trkpt lat="2.734654" lon="-75.071846">
        <ele>2141.6</ele>
        <time>2021-08-21T16:55:25Z</time>
      </trkpt>
      <trkpt lat="2.734659" lon="-75.07185">
        <ele>2141.5</ele>
        <time>2021-08-21T16:55:26Z</time>
      </trkpt>
      <trkpt lat="2.734663" lon="-75.07185">
        <ele>2141.5</ele>
        <time>2021-08-21T16:55:27Z</time>
      </trkpt>
      <trkpt lat="2.73467" lon="-75.07185">
        <ele>2141.5</ele>
        <time>2021-08-21T16:55:29Z</time>
      </trkpt>
      <trkpt lat="2.73467" lon="-75.07185">
        <ele>2141.5</ele>
        <time>2021-08-21T16:55:30Z</time>
      </trkpt>
      <trkpt lat="2.73467" lon="-75.071846">
        <ele>2141.5</ele>
        <time>2021-08-21T16:55:31Z</time>
      </trkpt>
      <trkpt lat="2.734624" lon="-75.07184">
        <ele>2141.5</ele>
        <time>2021-08-21T16:55:39Z</time>
      </trkpt>
      <trkpt lat="2.734626" lon="-75.07184">
        <ele>2141.5</ele>
        <time>2021-08-21T16:55:40Z</time>
      </trkpt>
      <trkpt lat="2.734628" lon="-75.07184">
        <ele>2141.5</ele>
        <time>2021-08-21T16:55:41Z</time>
      </trkpt>
      <trkpt lat="2.734629" lon="-75.07184">
        <ele>2141.5</ele>
        <time>2021-08-21T16:55:42Z</time>
      </trkpt>
      <trkpt lat="2.734629" lon="-75.07184">
        <ele>2141.5</ele>
        <time>2021-08-21T16:55:43Z</time>
      </trkpt>
      <trkpt lat="2.734628" lon="-75.071846">
        <ele>2141.5</ele>
        <time>2021-08-21T16:55:44Z</time>
      </trkpt>
      <trkpt lat="2.734629" lon="-75.071846">
        <ele>2141.5</ele>
        <time>2021-08-21T16:55:45Z</time>
      </trkpt>
      <trkpt lat="2.73463" lon="-75.071846">
        <ele>2141.5</ele>
        <time>2021-08-21T16:55:46Z</time>
      </trkpt>
      <trkpt lat="2.734615" lon="-75.0719">
        <ele>2141.4</ele>
        <time>2021-08-21T16:56:03Z</time>
      </trkpt>
      <trkpt lat="2.734618" lon="-75.0719">
        <ele>2141.4</ele>
        <time>2021-08-21T16:56:04Z</time>
      </trkpt>
      <trkpt lat="2.734623" lon="-75.0719">
        <ele>2141.4</ele>
        <time>2021-08-21T16:56:05Z</time>
      </trkpt>
      <trkpt lat="2.734625" lon="-75.0719">
        <ele>2141.4</ele>
        <time>2021-08-21T16:56:06Z</time>
      </trkpt>
      <trkpt lat="2.734627" lon="-75.0719">
        <ele>2141.4</ele>
        <time>2021-08-21T16:56:07Z</time>
      </trkpt>
      <trkpt lat="2.734628" lon="-75.0719">
        <ele>2141.4</ele>
        <time>2021-08-21T16:56:08Z</time>
      </trkpt>
      <trkpt lat="2.734628" lon="-75.0719">
        <ele>2141.4</ele>
        <time>2021-08-21T16:56:09Z</time>
      </trkpt>
      <trkpt lat="2.734627" lon="-75.07191">
        <ele>2141.4</ele>
        <time>2021-08-21T16:56:10Z</time>
      </trkpt>
      <trkpt lat="2.734625" lon="-75.07191">
        <ele>2141.4</ele>
        <time>2021-08-21T16:56:11Z</time>
      </trkpt>
      <trkpt lat="2.734623" lon="-75.071915">
        <ele>2141.4</ele>
        <time>2021-08-21T16:56:12Z</time>
      </trkpt>
      <trkpt lat="2.734622" lon="-75.071915">
        <ele>2141.4</ele>
        <time>2021-08-21T16:56:13Z</time>
      </trkpt>
      <trkpt lat="2.734622" lon="-75.07191">
        <ele>2141.4</ele>
        <time>2021-08-21T16:56:15Z</time>
      </trkpt>
      <trkpt lat="2.734622" lon="-75.07191">
        <ele>2141.4</ele>
        <time>2021-08-21T16:56:16Z</time>
      </trkpt>
      <trkpt lat="2.73463" lon="-75.07183">
        <ele>2141.3</ele>
        <time>2021-08-21T16:56:29Z</time>
      </trkpt>
      <trkpt lat="2.734631" lon="-75.07183">
        <ele>2141.3</ele>
        <time>2021-08-21T16:56:30Z</time>
      </trkpt>
      <trkpt lat="2.734631" lon="-75.07182">
        <ele>2141.3</ele>
        <time>2021-08-21T16:56:31Z</time>
      </trkpt>
      <trkpt lat="2.734632" lon="-75.07182">
        <ele>2141.3</ele>
        <time>2021-08-21T16:56:32Z</time>
      </trkpt>
      <trkpt lat="2.734634" lon="-75.071815">
        <ele>2141.3</ele>
        <time>2021-08-21T16:56:33Z</time>
      </trkpt>
      <trkpt lat="2.734634" lon="-75.07181">
        <ele>2141.3</ele>
        <time>2021-08-21T16:56:34Z</time>
      </trkpt>
      <trkpt lat="2.734633" lon="-75.0718">
        <ele>2141.3</ele>
        <time>2021-08-21T16:56:35Z</time>
      </trkpt>
      <trkpt lat="2.734631" lon="-75.07179">
        <ele>2141.3</ele>
        <time>2021-08-21T16:56:36Z</time>
      </trkpt>
      <trkpt lat="2.734629" lon="-75.071785">
        <ele>2141.3</ele>
        <time>2021-08-21T16:56:37Z</time>
      </trkpt>
      <trkpt lat="2.734628" lon="-75.07178">
        <ele>2141.3</ele>
        <time>2021-08-21T16:56:38Z</time>
      </trkpt>
      <trkpt lat="2.734627" lon="-75.07178">
        <ele>2141.3</ele>
        <time>2021-08-21T16:56:39Z</time>
      </trkpt>
      <trkpt lat="2.734625" lon="-75.07178">
        <ele>2141.3</ele>
        <time>2021-08-21T16:56:40Z</time>
      </trkpt>
      <trkpt lat="2.734635" lon="-75.07179">
        <ele>2141.2</ele>
        <time>2021-08-21T16:56:46Z</time>
      </trkpt>
      <trkpt lat="2.734634" lon="-75.07179">
        <ele>2141.2</ele>
        <time>2021-08-21T16:56:47Z</time>
      </trkpt>
      <trkpt lat="2.734629" lon="-75.07179">
        <ele>2141.2</ele>
        <time>2021-08-21T16:56:48Z</time>
      </trkpt>
      <trkpt lat="2.734624" lon="-75.07179">
        <ele>2141.2</ele>
        <time>2021-08-21T16:56:49Z</time>
      </trkpt>
      <trkpt lat="2.734622" lon="-75.07179">
        <ele>2141.2</ele>
        <time>2021-08-21T16:56:50Z</time>
      </trkpt>
      <trkpt lat="2.734624" lon="-75.07179">
        <ele>2141.2</ele>
        <time>2021-08-21T16:56:51Z</time>
      </trkpt>
      <trkpt lat="2.734624" lon="-75.0718">
        <ele>2141.2</ele>
        <time>2021-08-21T16:56:53Z</time>
      </trkpt>
      <trkpt lat="2.734622" lon="-75.07179">
        <ele>2141.2</ele>
        <time>2021-08-21T16:56:54Z</time>
      </trkpt>
      <trkpt lat="2.734618" lon="-75.07179">
        <ele>2141.2</ele>
        <time>2021-08-21T16:56:55Z</time>
      </trkpt>
      <trkpt lat="2.73462" lon="-75.071785">
        <ele>2141.2</ele>
        <time>2021-08-21T16:56:56Z</time>
      </trkpt>
      <trkpt lat="2.734613" lon="-75.071785">
        <ele>2141.2</ele>
        <time>2021-08-21T16:56:57Z</time>
      </trkpt>
      <trkpt lat="2.734612" lon="-75.07178">
        <ele>2141.2</ele>
        <time>2021-08-21T16:56:58Z</time>
      </trkpt>
      <trkpt lat="2.734612" lon="-75.07178">
        <ele>2141.2</ele>
        <time>2021-08-21T16:56:59Z</time>
      </trkpt>
      <trkpt lat="2.734613" lon="-75.07177">
        <ele>2141.2</ele>
        <time>2021-08-21T16:57:00Z</time>
      </trkpt>
      <trkpt lat="2.734614" lon="-75.07177">
        <ele>2141.2</ele>
        <time>2021-08-21T16:57:01Z</time>
      </trkpt>
      <trkpt lat="2.734617" lon="-75.07177">
        <ele>2141.2</ele>
        <time>2021-08-21T16:57:02Z</time>
      </trkpt>
      <trkpt lat="2.734621" lon="-75.07177">
        <ele>2141.2</ele>
        <time>2021-08-21T16:57:03Z</time>
      </trkpt>
      <trkpt lat="2.734625" lon="-75.07178">
        <ele>2141.2</ele>
        <time>2021-08-21T16:57:04Z</time>
      </trkpt>
      <trkpt lat="2.734627" lon="-75.071785">
        <ele>2141.2</ele>
        <time>2021-08-21T16:57:05Z</time>
      </trkpt>
      <trkpt lat="2.734629" lon="-75.07179">
        <ele>2141.2</ele>
        <time>2021-08-21T16:57:06Z</time>
      </trkpt>
      <trkpt lat="2.734632" lon="-75.07179">
        <ele>2141.2</ele>
        <time>2021-08-21T16:57:07Z</time>
      </trkpt>
      <trkpt lat="2.734636" lon="-75.0718">
        <ele>2141.2</ele>
        <time>2021-08-21T16:57:08Z</time>
      </trkpt>
      <trkpt lat="2.734636" lon="-75.0718">
        <ele>2141.2</ele>
        <time>2021-08-21T16:57:09Z</time>
      </trkpt>
      <trkpt lat="2.734637" lon="-75.0718">
        <ele>2141.2</ele>
        <time>2021-08-21T16:57:10Z</time>
      </trkpt>
      <trkpt lat="2.73464" lon="-75.0718">
        <ele>2141.2</ele>
        <time>2021-08-21T16:57:14Z</time>
      </trkpt>
      <trkpt lat="2.734644" lon="-75.0718">
        <ele>2141.2</ele>
        <time>2021-08-21T16:57:15Z</time>
      </trkpt>
      <trkpt lat="2.734642" lon="-75.0718">
        <ele>2141.2</ele>
        <time>2021-08-21T16:57:16Z</time>
      </trkpt>
      <trkpt lat="2.73464" lon="-75.0718">
        <ele>2141.2</ele>
        <time>2021-08-21T16:57:17Z</time>
      </trkpt>
      <trkpt lat="2.734639" lon="-75.0718">
        <ele>2141.2</ele>
        <time>2021-08-21T16:57:18Z</time>
      </trkpt>
      <trkpt lat="2.734637" lon="-75.07179">
        <ele>2141.2</ele>
        <time>2021-08-21T16:57:19Z</time>
      </trkpt>
      <trkpt lat="2.734542" lon="-75.07169">
        <ele>2141.0</ele>
        <time>2021-08-21T16:57:32Z</time>
      </trkpt>
      <trkpt lat="2.734541" lon="-75.07169">
        <ele>2141.0</ele>
        <time>2021-08-21T16:57:33Z</time>
      </trkpt>
      <trkpt lat="2.734539" lon="-75.071686">
        <ele>2141.0</ele>
        <time>2021-08-21T16:57:34Z</time>
      </trkpt>
      <trkpt lat="2.734536" lon="-75.071686">
        <ele>2141.0</ele>
        <time>2021-08-21T16:57:35Z</time>
      </trkpt>
      <trkpt lat="2.734534" lon="-75.071686">
        <ele>2141.0</ele>
        <time>2021-08-21T16:57:36Z</time>
      </trkpt>
      <trkpt lat="2.734535" lon="-75.07172">
        <ele>2141.0</ele>
        <time>2021-08-21T16:57:37Z</time>
      </trkpt>
      <trkpt lat="2.73454" lon="-75.071724">
        <ele>2141.0</ele>
        <time>2021-08-21T16:57:38Z</time>
      </trkpt>
      <trkpt lat="2.734547" lon="-75.07174">
        <ele>2141.0</ele>
        <time>2021-08-21T16:57:39Z</time>
      </trkpt>
      <trkpt lat="2.7347" lon="-75.07181">
        <ele>2140.9</ele>
        <time>2021-08-21T16:57:45Z</time>
      </trkpt>
      <trkpt lat="2.734701" lon="-75.07181">
        <ele>2140.9</ele>
        <time>2021-08-21T16:57:46Z</time>
      </trkpt>
      <trkpt lat="2.734702" lon="-75.0718">
        <ele>2140.9</ele>
        <time>2021-08-21T16:57:47Z</time>
      </trkpt>
      <trkpt lat="2.7347" lon="-75.0718">
        <ele>2140.9</ele>
        <time>2021-08-21T16:57:48Z</time>
      </trkpt>
      <trkpt lat="2.734697" lon="-75.07179">
        <ele>2140.9</ele>
        <time>2021-08-21T16:57:49Z</time>
      </trkpt>
      <trkpt lat="2.734687" lon="-75.0718">
        <ele>2140.9</ele>
        <time>2021-08-21T16:57:50Z</time>
      </trkpt>
      <trkpt lat="2.734659" lon="-75.07182">
        <ele>2140.9</ele>
        <time>2021-08-21T16:57:53Z</time>
      </trkpt>
      <trkpt lat="2.734659" lon="-75.07182">
        <ele>2140.9</ele>
        <time>2021-08-21T16:57:54Z</time>
      </trkpt>
      <trkpt lat="2.73466" lon="-75.07182">
        <ele>2140.9</ele>
        <time>2021-08-21T16:57:55Z</time>
      </trkpt>
      <trkpt lat="2.734665" lon="-75.07183">
        <ele>2140.8</ele>
        <time>2021-08-21T16:57:56Z</time>
      </trkpt>
      <trkpt lat="2.734668" lon="-75.07183">
        <ele>2140.8</ele>
        <time>2021-08-21T16:57:57Z</time>
      </trkpt>
      <trkpt lat="2.734672" lon="-75.07183">
        <ele>2140.8</ele>
        <time>2021-08-21T16:57:58Z</time>
      </trkpt>
      <trkpt lat="2.734668" lon="-75.07183">
        <ele>2140.8</ele>
        <time>2021-08-21T16:57:59Z</time>
      </trkpt>
      <trkpt lat="2.734657" lon="-75.07182">
        <ele>2140.8</ele>
        <time>2021-08-21T16:58:00Z</time>
      </trkpt>
      <trkpt lat="2.73465" lon="-75.07182">
        <ele>2140.8</ele>
        <time>2021-08-21T16:58:01Z</time>
      </trkpt>
      <trkpt lat="2.734655" lon="-75.07183">
        <ele>2140.8</ele>
        <time>2021-08-21T16:58:18Z</time>
      </trkpt>
      <trkpt lat="2.734656" lon="-75.07183">
        <ele>2140.8</ele>
        <time>2021-08-21T16:58:19Z</time>
      </trkpt>
      <trkpt lat="2.734657" lon="-75.07183">
        <ele>2140.8</ele>
        <time>2021-08-21T16:58:20Z</time>
      </trkpt>
      <trkpt lat="2.734659" lon="-75.07183">
        <ele>2140.8</ele>
        <time>2021-08-21T16:58:21Z</time>
      </trkpt>
      <trkpt lat="2.734665" lon="-75.07183">
        <ele>2140.8</ele>
        <time>2021-08-21T16:58:23Z</time>
      </trkpt>
      <trkpt lat="2.734667" lon="-75.07183">
        <ele>2140.8</ele>
        <time>2021-08-21T16:58:24Z</time>
      </trkpt>
      <trkpt lat="2.734669" lon="-75.07182">
        <ele>2140.8</ele>
        <time>2021-08-21T16:58:25Z</time>
      </trkpt>
      <trkpt lat="2.73467" lon="-75.071815">
        <ele>2140.8</ele>
        <time>2021-08-21T16:58:26Z</time>
      </trkpt>
      <trkpt lat="2.734667" lon="-75.071815">
        <ele>2140.8</ele>
        <time>2021-08-21T16:58:27Z</time>
      </trkpt>
      <trkpt lat="2.73466" lon="-75.07181">
        <ele>2140.8</ele>
        <time>2021-08-21T16:58:28Z</time>
      </trkpt>
      <trkpt lat="2.734654" lon="-75.07181">
        <ele>2140.8</ele>
        <time>2021-08-21T16:58:29Z</time>
      </trkpt>
      <trkpt lat="2.734642" lon="-75.07181">
        <ele>2140.8</ele>
        <time>2021-08-21T16:58:31Z</time>
      </trkpt>
      <trkpt lat="2.734641" lon="-75.07181">
        <ele>2140.8</ele>
        <time>2021-08-21T16:58:32Z</time>
      </trkpt>
      <trkpt lat="2.734642" lon="-75.07181">
        <ele>2140.8</ele>
        <time>2021-08-21T16:58:33Z</time>
      </trkpt>
      <trkpt lat="2.734712" lon="-75.07174">
        <ele>2140.7</ele>
        <time>2021-08-21T16:58:41Z</time>
      </trkpt>
      <trkpt lat="2.734714" lon="-75.07174">
        <ele>2140.7</ele>
        <time>2021-08-21T16:58:42Z</time>
      </trkpt>
      <trkpt lat="2.734716" lon="-75.07173">
        <ele>2140.7</ele>
        <time>2021-08-21T16:58:43Z</time>
      </trkpt>
      <trkpt lat="2.734721" lon="-75.07172">
        <ele>2140.7</ele>
        <time>2021-08-21T16:58:44Z</time>
      </trkpt>
      <trkpt lat="2.734723" lon="-75.0717">
        <ele>2140.7</ele>
        <time>2021-08-21T16:58:45Z</time>
      </trkpt>
      <trkpt lat="2.734725" lon="-75.07169">
        <ele>2140.7</ele>
        <time>2021-08-21T16:58:46Z</time>
      </trkpt>
      <trkpt lat="2.734535" lon="-75.07167">
        <ele>2140.5</ele>
        <time>2021-08-21T16:59:22Z</time>
      </trkpt>
      <trkpt lat="2.73453" lon="-75.07166">
        <ele>2140.5</ele>
        <time>2021-08-21T16:59:23Z</time>
      </trkpt>
      <trkpt lat="2.734526" lon="-75.07166">
        <ele>2140.5</ele>
        <time>2021-08-21T16:59:24Z</time>
      </trkpt>
      <trkpt lat="2.734518" lon="-75.07166">
        <ele>2140.5</ele>
        <time>2021-08-21T16:59:25Z</time>
      </trkpt>
      <trkpt lat="2.73451" lon="-75.07166">
        <ele>2140.4</ele>
        <time>2021-08-21T16:59:26Z</time>
      </trkpt>
      <trkpt lat="2.734509" lon="-75.07165">
        <ele>2140.4</ele>
        <time>2021-08-21T16:59:27Z</time>
      </trkpt>
      <trkpt lat="2.734509" lon="-75.07165">
        <ele>2140.4</ele>
        <time>2021-08-21T16:59:28Z</time>
      </trkpt>
      <trkpt lat="2.734509" lon="-75.07164">
        <ele>2140.4</ele>
        <time>2021-08-21T16:59:29Z</time>
      </trkpt>
      <trkpt lat="2.734509" lon="-75.07163">
        <ele>2140.4</ele>
        <time>2021-08-21T16:59:30Z</time>
      </trkpt>
      <trkpt lat="2.73451" lon="-75.071625">
        <ele>2140.4</ele>
        <time>2021-08-21T16:59:32Z</time>
      </trkpt>
      <trkpt lat="2.73451" lon="-75.071625">
        <ele>2140.4</ele>
        <time>2021-08-21T16:59:33Z</time>
      </trkpt>
      <trkpt lat="2.734504" lon="-75.07165">
        <ele>2140.4</ele>
        <time>2021-08-21T16:59:48Z</time>
      </trkpt>
      <trkpt lat="2.734504" lon="-75.07165">
        <ele>2140.4</ele>
        <time>2021-08-21T16:59:49Z</time>
      </trkpt>
      <trkpt lat="2.734503" lon="-75.07165">
        <ele>2140.4</ele>
        <time>2021-08-21T16:59:50Z</time>
      </trkpt>
      <trkpt lat="2.734503" lon="-75.071655">
        <ele>2140.4</ele>
        <time>2021-08-21T16:59:51Z</time>
      </trkpt>
      <trkpt lat="2.734559" lon="-75.07184">
        <ele>2140.2</ele>
        <time>2021-08-21T17:00:27Z</time>
      </trkpt>
      <trkpt lat="2.73456" lon="-75.07184">
        <ele>2140.2</ele>
        <time>2021-08-21T17:00:28Z</time>
      </trkpt>
      <trkpt lat="2.734582" lon="-75.07187">
        <ele>2140.2</ele>
        <time>2021-08-21T17:00:30Z</time>
      </trkpt>
      <trkpt lat="2.734582" lon="-75.071884">
        <ele>2140.2</ele>
        <time>2021-08-21T17:00:32Z</time>
      </trkpt>
      <trkpt lat="2.734582" lon="-75.071884">
        <ele>2140.2</ele>
        <time>2021-08-21T17:00:33Z</time>
      </trkpt>
      <trkpt lat="2.734577" lon="-75.07182">
        <ele>2140.1</ele>
        <time>2021-08-21T17:00:41Z</time>
      </trkpt>
      <trkpt lat="2.734574" lon="-75.07182">
        <ele>2140.1</ele>
        <time>2021-08-21T17:00:43Z</time>
      </trkpt>
      <trkpt lat="2.734574" lon="-75.07182">
        <ele>2140.1</ele>
        <time>2021-08-21T17:00:44Z</time>
      </trkpt>
      <trkpt lat="2.734599" lon="-75.07181">
        <ele>2140.1</ele>
        <time>2021-08-21T17:01:34Z</time>
      </trkpt>
      <trkpt lat="2.734599" lon="-75.07181">
        <ele>2140.1</ele>
        <time>2021-08-21T17:01:35Z</time>
      </trkpt>
      <trkpt lat="2.734602" lon="-75.07181">
        <ele>2140.1</ele>
        <time>2021-08-21T17:01:36Z</time>
      </trkpt>
      <trkpt lat="2.734605" lon="-75.07181">
        <ele>2140.1</ele>
        <time>2021-08-21T17:01:37Z</time>
      </trkpt>
      <trkpt lat="2.734607" lon="-75.07181">
        <ele>2140.1</ele>
        <time>2021-08-21T17:01:38Z</time>
      </trkpt>
      <trkpt lat="2.734608" lon="-75.0718">
        <ele>2140.1</ele>
        <time>2021-08-21T17:01:39Z</time>
      </trkpt>
      <trkpt lat="2.734608" lon="-75.0718">
        <ele>2140.1</ele>
        <time>2021-08-21T17:01:40Z</time>
      </trkpt>
      <trkpt lat="2.734609" lon="-75.0718">
        <ele>2140.1</ele>
        <time>2021-08-21T17:01:41Z</time>
      </trkpt>
      <trkpt lat="2.734609" lon="-75.0718">
        <ele>2140.0</ele>
        <time>2021-08-21T17:01:42Z</time>
      </trkpt>
      <trkpt lat="2.734607" lon="-75.07181">
        <ele>2140.0</ele>
        <time>2021-08-21T17:01:43Z</time>
      </trkpt>
      <trkpt lat="2.734604" lon="-75.071815">
        <ele>2140.0</ele>
        <time>2021-08-21T17:01:44Z</time>
      </trkpt>
      <trkpt lat="2.734585" lon="-75.07184">
        <ele>2140.0</ele>
        <time>2021-08-21T17:01:46Z</time>
      </trkpt>
      <trkpt lat="2.734581" lon="-75.07184">
        <ele>2140.0</ele>
        <time>2021-08-21T17:01:47Z</time>
      </trkpt>
      <trkpt lat="2.734576" lon="-75.071846">
        <ele>2140.0</ele>
        <time>2021-08-21T17:01:48Z</time>
      </trkpt>
      <trkpt lat="2.734552" lon="-75.07186">
        <ele>2140.0</ele>
        <time>2021-08-21T17:01:50Z</time>
      </trkpt>
      <trkpt lat="2.734549" lon="-75.07186">
        <ele>2140.0</ele>
        <time>2021-08-21T17:01:51Z</time>
      </trkpt>
      <trkpt lat="2.734546" lon="-75.07186">
        <ele>2140.0</ele>
        <time>2021-08-21T17:01:52Z</time>
      </trkpt>
      <trkpt lat="2.734654" lon="-75.07187">
        <ele>2139.9</ele>
        <time>2021-08-21T17:02:17Z</time>
      </trkpt>
      <trkpt lat="2.734648" lon="-75.07187">
        <ele>2139.8</ele>
        <time>2021-08-21T17:02:18Z</time>
      </trkpt>
      <trkpt lat="2.73464" lon="-75.07188">
        <ele>2139.8</ele>
        <time>2021-08-21T17:02:19Z</time>
      </trkpt>
      <trkpt lat="2.734632" lon="-75.07188">
        <ele>2139.8</ele>
        <time>2021-08-21T17:02:20Z</time>
      </trkpt>
      <trkpt lat="2.734624" lon="-75.07188">
        <ele>2139.8</ele>
        <time>2021-08-21T17:02:21Z</time>
      </trkpt>
      <trkpt lat="2.734618" lon="-75.07188">
        <ele>2139.8</ele>
        <time>2021-08-21T17:02:22Z</time>
      </trkpt>
      <trkpt lat="2.734613" lon="-75.07187">
        <ele>2139.8</ele>
        <time>2021-08-21T17:02:23Z</time>
      </trkpt>
      <trkpt lat="2.73461" lon="-75.07187">
        <ele>2139.8</ele>
        <time>2021-08-21T17:02:24Z</time>
      </trkpt>
      <trkpt lat="2.734587" lon="-75.07184">
        <ele>2139.8</ele>
        <time>2021-08-21T17:02:29Z</time>
      </trkpt>
      <trkpt lat="2.734586" lon="-75.07184">
        <ele>2139.8</ele>
        <time>2021-08-21T17:02:30Z</time>
      </trkpt>
      <trkpt lat="2.734583" lon="-75.07184">
        <ele>2139.8</ele>
        <time>2021-08-21T17:02:31Z</time>
      </trkpt>
      <trkpt lat="2.73458" lon="-75.07184">
        <ele>2139.8</ele>
        <time>2021-08-21T17:02:32Z</time>
      </trkpt>
      <trkpt lat="2.734569" lon="-75.07184">
        <ele>2139.8</ele>
        <time>2021-08-21T17:02:34Z</time>
      </trkpt>
      <trkpt lat="2.734571" lon="-75.07183">
        <ele>2139.8</ele>
        <time>2021-08-21T17:02:35Z</time>
      </trkpt>
      <trkpt lat="2.734547" lon="-75.07182">
        <ele>2139.7</ele>
        <time>2021-08-21T17:02:46Z</time>
      </trkpt>
      <trkpt lat="2.734548" lon="-75.07183">
        <ele>2139.7</ele>
        <time>2021-08-21T17:02:47Z</time>
      </trkpt>
      <trkpt lat="2.734554" lon="-75.07183">
        <ele>2139.7</ele>
        <time>2021-08-21T17:02:48Z</time>
      </trkpt>
      <trkpt lat="2.734564" lon="-75.07184">
        <ele>2139.7</ele>
        <time>2021-08-21T17:02:49Z</time>
      </trkpt>
      <trkpt lat="2.73458" lon="-75.07185">
        <ele>2139.7</ele>
        <time>2021-08-21T17:02:50Z</time>
      </trkpt>
      <trkpt lat="2.734635" lon="-75.071915">
        <ele>2139.6</ele>
        <time>2021-08-21T17:02:52Z</time>
      </trkpt>
      <trkpt lat="2.734636" lon="-75.071915">
        <ele>2139.6</ele>
        <time>2021-08-21T17:02:53Z</time>
      </trkpt>
      <trkpt lat="2.734639" lon="-75.071915">
        <ele>2139.6</ele>
        <time>2021-08-21T17:02:54Z</time>
      </trkpt>
      <trkpt lat="2.734574" lon="-75.071846">
        <ele>2139.5</ele>
        <time>2021-08-21T17:03:24Z</time>
      </trkpt>
      <trkpt lat="2.734574" lon="-75.071846">
        <ele>2139.5</ele>
        <time>2021-08-21T17:03:25Z</time>
      </trkpt>
      <trkpt lat="2.734574" lon="-75.071846">
        <ele>2139.5</ele>
        <time>2021-08-21T17:03:26Z</time>
      </trkpt>
      <trkpt lat="2.734573" lon="-75.071846">
        <ele>2139.5</ele>
        <time>2021-08-21T17:03:27Z</time>
      </trkpt>
      <trkpt lat="2.73457" lon="-75.07185">
        <ele>2139.5</ele>
        <time>2021-08-21T17:03:30Z</time>
      </trkpt>
      <trkpt lat="2.734569" lon="-75.07185">
        <ele>2139.5</ele>
        <time>2021-08-21T17:03:31Z</time>
      </trkpt>
      <trkpt lat="2.734515" lon="-75.07183">
        <ele>2139.5</ele>
        <time>2021-08-21T17:03:36Z</time>
      </trkpt>
      <trkpt lat="2.734513" lon="-75.07183">
        <ele>2139.5</ele>
        <time>2021-08-21T17:03:37Z</time>
      </trkpt>
      <trkpt lat="2.734513" lon="-75.07183">
        <ele>2139.5</ele>
        <time>2021-08-21T17:03:38Z</time>
      </trkpt>
      <trkpt lat="2.734521" lon="-75.07184">
        <ele>2139.5</ele>
        <time>2021-08-21T17:03:39Z</time>
      </trkpt>
      <trkpt lat="2.734536" lon="-75.071846">
        <ele>2139.5</ele>
        <time>2021-08-21T17:03:40Z</time>
      </trkpt>
      <trkpt lat="2.734553" lon="-75.07186">
        <ele>2139.4</ele>
        <time>2021-08-21T17:03:41Z</time>
      </trkpt>
      <trkpt lat="2.73457" lon="-75.07187">
        <ele>2139.4</ele>
        <time>2021-08-21T17:03:42Z</time>
      </trkpt>
      <trkpt lat="2.734587" lon="-75.07188">
        <ele>2139.4</ele>
        <time>2021-08-21T17:03:43Z</time>
      </trkpt>
      <trkpt lat="2.734604" lon="-75.07189">
        <ele>2139.4</ele>
        <time>2021-08-21T17:03:44Z</time>
      </trkpt>
      <trkpt lat="2.734619" lon="-75.0719">
        <ele>2139.4</ele>
        <time>2021-08-21T17:03:45Z</time>
      </trkpt>
      <trkpt lat="2.734632" lon="-75.07191">
        <ele>2139.4</ele>
        <time>2021-08-21T17:03:46Z</time>
      </trkpt>
      <trkpt lat="2.734642" lon="-75.07192">
        <ele>2139.4</ele>
        <time>2021-08-21T17:03:47Z</time>
      </trkpt>
      <trkpt lat="2.734649" lon="-75.07193">
        <ele>2139.4</ele>
        <time>2021-08-21T17:03:48Z</time>
      </trkpt>
      <trkpt lat="2.734644" lon="-75.07193">
        <ele>2139.4</ele>
        <time>2021-08-21T17:03:49Z</time>
      </trkpt>
      <trkpt lat="2.734637" lon="-75.07193">
        <ele>2139.4</ele>
        <time>2021-08-21T17:03:50Z</time>
      </trkpt>
      <trkpt lat="2.734631" lon="-75.07194">
        <ele>2139.4</ele>
        <time>2021-08-21T17:03:51Z</time>
      </trkpt>
      <trkpt lat="2.734619" lon="-75.07193">
        <ele>2139.3</ele>
        <time>2021-08-21T17:03:52Z</time>
      </trkpt>
      <trkpt lat="2.734606" lon="-75.07192">
        <ele>2139.3</ele>
        <time>2021-08-21T17:03:53Z</time>
      </trkpt>
      <trkpt lat="2.734594" lon="-75.071915">
        <ele>2139.3</ele>
        <time>2021-08-21T17:03:54Z</time>
      </trkpt>
      <trkpt lat="2.734584" lon="-75.071915">
        <ele>2139.3</ele>
        <time>2021-08-21T17:03:55Z</time>
      </trkpt>
      <trkpt lat="2.734576" lon="-75.07191">
        <ele>2139.3</ele>
        <time>2021-08-21T17:03:56Z</time>
      </trkpt>
      <trkpt lat="2.734573" lon="-75.0719">
        <ele>2139.3</ele>
        <time>2021-08-21T17:03:57Z</time>
      </trkpt>
      <trkpt lat="2.734575" lon="-75.07182">
        <ele>2139.3</ele>
        <time>2021-08-21T17:05:02Z</time>
      </trkpt>
      <trkpt lat="2.734578" lon="-75.07182">
        <ele>2139.3</ele>
        <time>2021-08-21T17:05:03Z</time>
      </trkpt>
      <trkpt lat="2.734582" lon="-75.07183">
        <ele>2139.3</ele>
        <time>2021-08-21T17:05:04Z</time>
      </trkpt>
      <trkpt lat="2.734584" lon="-75.07183">
        <ele>2139.3</ele>
        <time>2021-08-21T17:05:05Z</time>
      </trkpt>
      <trkpt lat="2.734584" lon="-75.07183">
        <ele>2139.3</ele>
        <time>2021-08-21T17:05:06Z</time>
      </trkpt>
      <trkpt lat="2.734583" lon="-75.07182">
        <ele>2139.3</ele>
        <time>2021-08-21T17:05:07Z</time>
      </trkpt>
      <trkpt lat="2.734579" lon="-75.07184">
        <ele>2139.3</ele>
        <time>2021-08-21T17:05:12Z</time>
      </trkpt>
      <trkpt lat="2.734579" lon="-75.07184">
        <ele>2139.3</ele>
        <time>2021-08-21T17:05:13Z</time>
      </trkpt>
      <trkpt lat="2.73458" lon="-75.07184">
        <ele>2139.3</ele>
        <time>2021-08-21T17:05:14Z</time>
      </trkpt>
      <trkpt lat="2.734581" lon="-75.07184">
        <ele>2139.3</ele>
        <time>2021-08-21T17:05:15Z</time>
      </trkpt>
      <trkpt lat="2.73458" lon="-75.07184">
        <ele>2139.3</ele>
        <time>2021-08-21T17:05:17Z</time>
      </trkpt>
      <trkpt lat="2.734579" lon="-75.07184">
        <ele>2139.3</ele>
        <time>2021-08-21T17:05:18Z</time>
      </trkpt>
      <trkpt lat="2.734579" lon="-75.07184">
        <ele>2139.3</ele>
        <time>2021-08-21T17:05:19Z</time>
      </trkpt>
      <trkpt lat="2.734582" lon="-75.07184">
        <ele>2139.3</ele>
        <time>2021-08-21T17:05:21Z</time>
      </trkpt>
      <trkpt lat="2.734582" lon="-75.07184">
        <ele>2139.3</ele>
        <time>2021-08-21T17:05:22Z</time>
      </trkpt>
      <trkpt lat="2.734583" lon="-75.07184">
        <ele>2139.3</ele>
        <time>2021-08-21T17:05:23Z</time>
      </trkpt>
      <trkpt lat="2.734584" lon="-75.07184">
        <ele>2139.3</ele>
        <time>2021-08-21T17:05:24Z</time>
      </trkpt>
      <trkpt lat="2.734585" lon="-75.07184">
        <ele>2139.3</ele>
        <time>2021-08-21T17:05:25Z</time>
      </trkpt>
      <trkpt lat="2.734586" lon="-75.07184">
        <ele>2139.3</ele>
        <time>2021-08-21T17:05:26Z</time>
      </trkpt>
      <trkpt lat="2.734586" lon="-75.07184">
        <ele>2139.3</ele>
        <time>2021-08-21T17:05:27Z</time>
      </trkpt>
      <trkpt lat="2.734587" lon="-75.07183">
        <ele>2139.3</ele>
        <time>2021-08-21T17:05:28Z</time>
      </trkpt>
      <trkpt lat="2.734588" lon="-75.07182">
        <ele>2139.3</ele>
        <time>2021-08-21T17:05:29Z</time>
      </trkpt>
      <trkpt lat="2.73459" lon="-75.07182">
        <ele>2139.2</ele>
        <time>2021-08-21T17:05:30Z</time>
      </trkpt>
      <trkpt lat="2.734592" lon="-75.07182">
        <ele>2139.2</ele>
        <time>2021-08-21T17:05:31Z</time>
      </trkpt>
      <trkpt lat="2.734592" lon="-75.07181">
        <ele>2139.2</ele>
        <time>2021-08-21T17:05:33Z</time>
      </trkpt>
      <trkpt lat="2.734517" lon="-75.07169">
        <ele>2139.2</ele>
        <time>2021-08-21T17:05:38Z</time>
      </trkpt>
      <trkpt lat="2.734512" lon="-75.07169">
        <ele>2139.2</ele>
        <time>2021-08-21T17:05:39Z</time>
      </trkpt>
      <trkpt lat="2.734505" lon="-75.071686">
        <ele>2139.2</ele>
        <time>2021-08-21T17:05:40Z</time>
      </trkpt>
      <trkpt lat="2.734496" lon="-75.071686">
        <ele>2139.2</ele>
        <time>2021-08-21T17:05:41Z</time>
      </trkpt>
      <trkpt lat="2.734484" lon="-75.07168">
        <ele>2139.1</ele>
        <time>2021-08-21T17:05:42Z</time>
      </trkpt>
      <trkpt lat="2.734475" lon="-75.07168">
        <ele>2139.1</ele>
        <time>2021-08-21T17:05:43Z</time>
      </trkpt>
      <trkpt lat="2.734469" lon="-75.071686">
        <ele>2139.1</ele>
        <time>2021-08-21T17:05:44Z</time>
      </trkpt>
      <trkpt lat="2.734468" lon="-75.07169">
        <ele>2139.1</ele>
        <time>2021-08-21T17:05:45Z</time>
      </trkpt>
      <trkpt lat="2.734467" lon="-75.07169">
        <ele>2139.1</ele>
        <time>2021-08-21T17:05:46Z</time>
      </trkpt>
      <trkpt lat="2.734464" lon="-75.07169">
        <ele>2139.1</ele>
        <time>2021-08-21T17:05:47Z</time>
      </trkpt>
      <trkpt lat="2.734456" lon="-75.07169">
        <ele>2139.1</ele>
        <time>2021-08-21T17:05:48Z</time>
      </trkpt>
      <trkpt lat="2.734442" lon="-75.071724">
        <ele>2139.1</ele>
        <time>2021-08-21T17:05:58Z</time>
      </trkpt>
      <trkpt lat="2.734442" lon="-75.071724">
        <ele>2139.1</ele>
        <time>2021-08-21T17:05:59Z</time>
      </trkpt>
      <trkpt lat="2.734443" lon="-75.071724">
        <ele>2139.1</ele>
        <time>2021-08-21T17:06:00Z</time>
      </trkpt>
      <trkpt lat="2.734445" lon="-75.071724">
        <ele>2139.1</ele>
        <time>2021-08-21T17:06:01Z</time>
      </trkpt>
      <trkpt lat="2.734499" lon="-75.07176">
        <ele>2139.0</ele>
        <time>2021-08-21T17:06:11Z</time>
      </trkpt>
      <trkpt lat="2.7345" lon="-75.07176">
        <ele>2139.0</ele>
        <time>2021-08-21T17:06:12Z</time>
      </trkpt>
      <trkpt lat="2.734499" lon="-75.07177">
        <ele>2139.0</ele>
        <time>2021-08-21T17:06:13Z</time>
      </trkpt>
      <trkpt lat="2.7345" lon="-75.07177">
        <ele>2139.0</ele>
        <time>2021-08-21T17:06:14Z</time>
      </trkpt>
      <trkpt lat="2.734502" lon="-75.07177">
        <ele>2139.0</ele>
        <time>2021-08-21T17:06:15Z</time>
      </trkpt>
      <trkpt lat="2.734501" lon="-75.07177">
        <ele>2139.0</ele>
        <time>2021-08-21T17:06:16Z</time>
      </trkpt>
      <trkpt lat="2.734499" lon="-75.07177">
        <ele>2139.0</ele>
        <time>2021-08-21T17:06:17Z</time>
      </trkpt>
      <trkpt lat="2.73449" lon="-75.071754">
        <ele>2139.0</ele>
        <time>2021-08-21T17:06:18Z</time>
      </trkpt>
      <trkpt lat="2.734488" lon="-75.07175">
        <ele>2139.0</ele>
        <time>2021-08-21T17:06:19Z</time>
      </trkpt>
      <trkpt lat="2.734549" lon="-75.071846">
        <ele>2139.0</ele>
        <time>2021-08-21T17:09:33Z</time>
      </trkpt>
      <trkpt lat="2.734555" lon="-75.07185">
        <ele>2139.0</ele>
        <time>2021-08-21T17:09:35Z</time>
      </trkpt>
      <trkpt lat="2.734558" lon="-75.07185">
        <ele>2139.0</ele>
        <time>2021-08-21T17:09:36Z</time>
      </trkpt>
      <trkpt lat="2.734569" lon="-75.07186">
        <ele>2139.0</ele>
        <time>2021-08-21T17:09:38Z</time>
      </trkpt>
      <trkpt lat="2.734569" lon="-75.07186">
        <ele>2139.0</ele>
        <time>2021-08-21T17:09:39Z</time>
      </trkpt>
      <trkpt lat="2.734567" lon="-75.07185">
        <ele>2139.0</ele>
        <time>2021-08-21T17:09:40Z</time>
      </trkpt>
      <trkpt lat="2.734565" lon="-75.07185">
        <ele>2139.0</ele>
        <time>2021-08-21T17:09:41Z</time>
      </trkpt>
      <trkpt lat="2.734564" lon="-75.071846">
        <ele>2139.0</ele>
        <time>2021-08-21T17:09:42Z</time>
      </trkpt>
      <trkpt lat="2.734564" lon="-75.07184">
        <ele>2138.9</ele>
        <time>2021-08-21T17:09:45Z</time>
      </trkpt>
      <trkpt lat="2.73459" lon="-75.07174">
        <ele>2138.9</ele>
        <time>2021-08-21T17:10:23Z</time>
      </trkpt>
      <trkpt lat="2.734592" lon="-75.07173">
        <ele>2138.9</ele>
        <time>2021-08-21T17:10:24Z</time>
      </trkpt>
      <trkpt lat="2.734595" lon="-75.07172">
        <ele>2138.9</ele>
        <time>2021-08-21T17:10:25Z</time>
      </trkpt>
      <trkpt lat="2.7346" lon="-75.0717">
        <ele>2138.9</ele>
        <time>2021-08-21T17:10:26Z</time>
      </trkpt>
      <trkpt lat="2.734607" lon="-75.07168">
        <ele>2138.9</ele>
        <time>2021-08-21T17:10:27Z</time>
      </trkpt>
      <trkpt lat="2.734614" lon="-75.071655">
        <ele>2138.9</ele>
        <time>2021-08-21T17:10:28Z</time>
      </trkpt>
      <trkpt lat="2.734622" lon="-75.07163">
        <ele>2138.9</ele>
        <time>2021-08-21T17:10:29Z</time>
      </trkpt>
      <trkpt lat="2.734629" lon="-75.07162">
        <ele>2138.9</ele>
        <time>2021-08-21T17:10:30Z</time>
      </trkpt>
      <trkpt lat="2.734637" lon="-75.071594">
        <ele>2138.8</ele>
        <time>2021-08-21T17:10:31Z</time>
      </trkpt>
      <trkpt lat="2.734646" lon="-75.07157">
        <ele>2138.8</ele>
        <time>2021-08-21T17:10:32Z</time>
      </trkpt>
      <trkpt lat="2.734655" lon="-75.07155">
        <ele>2138.8</ele>
        <time>2021-08-21T17:10:33Z</time>
      </trkpt>
      <trkpt lat="2.734664" lon="-75.071526">
        <ele>2138.8</ele>
        <time>2021-08-21T17:10:34Z</time>
      </trkpt>
      <trkpt lat="2.734675" lon="-75.0715">
        <ele>2138.8</ele>
        <time>2021-08-21T17:10:35Z</time>
      </trkpt>
      <trkpt lat="2.73469" lon="-75.07148">
        <ele>2138.7</ele>
        <time>2021-08-21T17:10:36Z</time>
      </trkpt>
      <trkpt lat="2.734708" lon="-75.07146">
        <ele>2138.7</ele>
        <time>2021-08-21T17:10:37Z</time>
      </trkpt>
      <trkpt lat="2.734724" lon="-75.071434">
        <ele>2138.7</ele>
        <time>2021-08-21T17:10:38Z</time>
      </trkpt>
      <trkpt lat="2.734739" lon="-75.07141">
        <ele>2138.7</ele>
        <time>2021-08-21T17:10:39Z</time>
      </trkpt>
      <trkpt lat="2.734754" lon="-75.07139">
        <ele>2138.6</ele>
        <time>2021-08-21T17:10:40Z</time>
      </trkpt>
      <trkpt lat="2.734768" lon="-75.07136">
        <ele>2138.6</ele>
        <time>2021-08-21T17:10:41Z</time>
      </trkpt>
      <trkpt lat="2.734783" lon="-75.071335">
        <ele>2138.6</ele>
        <time>2021-08-21T17:10:42Z</time>
      </trkpt>
      <trkpt lat="2.734796" lon="-75.07131">
        <ele>2138.6</ele>
        <time>2021-08-21T17:10:43Z</time>
      </trkpt>
      <trkpt lat="2.734808" lon="-75.07129">
        <ele>2138.5</ele>
        <time>2021-08-21T17:10:44Z</time>
      </trkpt>
      <trkpt lat="2.73482" lon="-75.071266">
        <ele>2138.5</ele>
        <time>2021-08-21T17:10:45Z</time>
      </trkpt>
      <trkpt lat="2.734829" lon="-75.07124">
        <ele>2138.5</ele>
        <time>2021-08-21T17:10:46Z</time>
      </trkpt>
      <trkpt lat="2.734837" lon="-75.07121">
        <ele>2138.5</ele>
        <time>2021-08-21T17:10:47Z</time>
      </trkpt>
      <trkpt lat="2.734844" lon="-75.07118">
        <ele>2138.5</ele>
        <time>2021-08-21T17:10:48Z</time>
      </trkpt>
      <trkpt lat="2.734853" lon="-75.07116">
        <ele>2138.4</ele>
        <time>2021-08-21T17:10:49Z</time>
      </trkpt>
      <trkpt lat="2.734863" lon="-75.07114">
        <ele>2138.4</ele>
        <time>2021-08-21T17:10:50Z</time>
      </trkpt>
      <trkpt lat="2.734874" lon="-75.07111">
        <ele>2138.4</ele>
        <time>2021-08-21T17:10:51Z</time>
      </trkpt>
      <trkpt lat="2.734885" lon="-75.07109">
        <ele>2138.4</ele>
        <time>2021-08-21T17:10:52Z</time>
      </trkpt>
      <trkpt lat="2.734894" lon="-75.07107">
        <ele>2138.4</ele>
        <time>2021-08-21T17:10:53Z</time>
      </trkpt>
      <trkpt lat="2.734904" lon="-75.071045">
        <ele>2138.3</ele>
        <time>2021-08-21T17:10:54Z</time>
      </trkpt>
      <trkpt lat="2.734914" lon="-75.07102">
        <ele>2138.3</ele>
        <time>2021-08-21T17:10:55Z</time>
      </trkpt>
      <trkpt lat="2.734924" lon="-75.07099">
        <ele>2138.3</ele>
        <time>2021-08-21T17:10:56Z</time>
      </trkpt>
      <trkpt lat="2.734936" lon="-75.07097">
        <ele>2138.3</ele>
        <time>2021-08-21T17:10:57Z</time>
      </trkpt>
      <trkpt lat="2.734948" lon="-75.070946">
        <ele>2138.2</ele>
        <time>2021-08-21T17:10:58Z</time>
      </trkpt>
      <trkpt lat="2.73496" lon="-75.07092">
        <ele>2138.2</ele>
        <time>2021-08-21T17:10:59Z</time>
      </trkpt>
      <trkpt lat="2.734971" lon="-75.0709">
        <ele>2138.2</ele>
        <time>2021-08-21T17:11:00Z</time>
      </trkpt>
      <trkpt lat="2.734981" lon="-75.07088">
        <ele>2138.1</ele>
        <time>2021-08-21T17:11:01Z</time>
      </trkpt>
      <trkpt lat="2.734989" lon="-75.07085">
        <ele>2138.1</ele>
        <time>2021-08-21T17:11:02Z</time>
      </trkpt>
      <trkpt lat="2.734994" lon="-75.07082">
        <ele>2138.1</ele>
        <time>2021-08-21T17:11:03Z</time>
      </trkpt>
      <trkpt lat="2.734999" lon="-75.0708">
        <ele>2138.0</ele>
        <time>2021-08-21T17:11:04Z</time>
      </trkpt>
      <trkpt lat="2.735004" lon="-75.07077">
        <ele>2138.0</ele>
        <time>2021-08-21T17:11:05Z</time>
      </trkpt>
      <trkpt lat="2.735009" lon="-75.07074">
        <ele>2138.0</ele>
        <time>2021-08-21T17:11:06Z</time>
      </trkpt>
      <trkpt lat="2.735013" lon="-75.07071">
        <ele>2137.9</ele>
        <time>2021-08-21T17:11:07Z</time>
      </trkpt>
      <trkpt lat="2.735017" lon="-75.07068">
        <ele>2137.9</ele>
        <time>2021-08-21T17:11:08Z</time>
      </trkpt>
      <trkpt lat="2.73502" lon="-75.07065">
        <ele>2137.9</ele>
        <time>2021-08-21T17:11:09Z</time>
      </trkpt>
      <trkpt lat="2.735023" lon="-75.07061">
        <ele>2137.8</ele>
        <time>2021-08-21T17:11:10Z</time>
      </trkpt>
      <trkpt lat="2.735025" lon="-75.07058">
        <ele>2137.8</ele>
        <time>2021-08-21T17:11:11Z</time>
      </trkpt>
      <trkpt lat="2.735025" lon="-75.07055">
        <ele>2137.8</ele>
        <time>2021-08-21T17:11:12Z</time>
      </trkpt>
      <trkpt lat="2.735025" lon="-75.07051">
        <ele>2137.8</ele>
        <time>2021-08-21T17:11:13Z</time>
      </trkpt>
      <trkpt lat="2.735022" lon="-75.07048">
        <ele>2137.8</ele>
        <time>2021-08-21T17:11:14Z</time>
      </trkpt>
      <trkpt lat="2.735019" lon="-75.07044">
        <ele>2137.8</ele>
        <time>2021-08-21T17:11:15Z</time>
      </trkpt>
      <trkpt lat="2.735015" lon="-75.070404">
        <ele>2137.7</ele>
        <time>2021-08-21T17:11:16Z</time>
      </trkpt>
      <trkpt lat="2.735011" lon="-75.07037">
        <ele>2137.7</ele>
        <time>2021-08-21T17:11:17Z</time>
      </trkpt>
      <trkpt lat="2.735007" lon="-75.070335">
        <ele>2137.7</ele>
        <time>2021-08-21T17:11:18Z</time>
      </trkpt>
      <trkpt lat="2.735002" lon="-75.070305">
        <ele>2137.7</ele>
        <time>2021-08-21T17:11:19Z</time>
      </trkpt>
      <trkpt lat="2.734998" lon="-75.070274">
        <ele>2137.7</ele>
        <time>2021-08-21T17:11:20Z</time>
      </trkpt>
      <trkpt lat="2.734994" lon="-75.07024">
        <ele>2137.7</ele>
        <time>2021-08-21T17:11:21Z</time>
      </trkpt>
      <trkpt lat="2.734992" lon="-75.070206">
        <ele>2137.7</ele>
        <time>2021-08-21T17:11:22Z</time>
      </trkpt>
      <trkpt lat="2.734991" lon="-75.07018">
        <ele>2137.7</ele>
        <time>2021-08-21T17:11:23Z</time>
      </trkpt>
      <trkpt lat="2.734988" lon="-75.07015">
        <ele>2137.7</ele>
        <time>2021-08-21T17:11:24Z</time>
      </trkpt>
      <trkpt lat="2.734985" lon="-75.07012">
        <ele>2137.6</ele>
        <time>2021-08-21T17:11:25Z</time>
      </trkpt>
      <trkpt lat="2.734982" lon="-75.07009">
        <ele>2137.6</ele>
        <time>2021-08-21T17:11:26Z</time>
      </trkpt>
      <trkpt lat="2.73498" lon="-75.07006">
        <ele>2137.6</ele>
        <time>2021-08-21T17:11:27Z</time>
      </trkpt>
      <trkpt lat="2.734978" lon="-75.07003">
        <ele>2137.6</ele>
        <time>2021-08-21T17:11:28Z</time>
      </trkpt>
      <trkpt lat="2.734977" lon="-75.07">
        <ele>2137.6</ele>
        <time>2021-08-21T17:11:29Z</time>
      </trkpt>
      <trkpt lat="2.734978" lon="-75.06997">
        <ele>2137.5</ele>
        <time>2021-08-21T17:11:30Z</time>
      </trkpt>
      <trkpt lat="2.734979" lon="-75.06993">
        <ele>2137.5</ele>
        <time>2021-08-21T17:11:31Z</time>
      </trkpt>
      <trkpt lat="2.734981" lon="-75.0699">
        <ele>2137.5</ele>
        <time>2021-08-21T17:11:32Z</time>
      </trkpt>
      <trkpt lat="2.734984" lon="-75.06986">
        <ele>2137.5</ele>
        <time>2021-08-21T17:11:33Z</time>
      </trkpt>
      <trkpt lat="2.73499" lon="-75.06983">
        <ele>2137.4</ele>
        <time>2021-08-21T17:11:34Z</time>
      </trkpt>
      <trkpt lat="2.734999" lon="-75.0698">
        <ele>2137.4</ele>
        <time>2021-08-21T17:11:35Z</time>
      </trkpt>
      <trkpt lat="2.735011" lon="-75.06977">
        <ele>2137.4</ele>
        <time>2021-08-21T17:11:36Z</time>
      </trkpt>
      <trkpt lat="2.735025" lon="-75.06975">
        <ele>2137.4</ele>
        <time>2021-08-21T17:11:37Z</time>
      </trkpt>
      <trkpt lat="2.735036" lon="-75.06972">
        <ele>2137.3</ele>
        <time>2021-08-21T17:11:38Z</time>
      </trkpt>
      <trkpt lat="2.735047" lon="-75.069695">
        <ele>2137.3</ele>
        <time>2021-08-21T17:11:39Z</time>
      </trkpt>
      <trkpt lat="2.735058" lon="-75.069664">
        <ele>2137.3</ele>
        <time>2021-08-21T17:11:40Z</time>
      </trkpt>
      <trkpt lat="2.735069" lon="-75.06963">
        <ele>2137.2</ele>
        <time>2021-08-21T17:11:41Z</time>
      </trkpt>
      <trkpt lat="2.735081" lon="-75.0696">
        <ele>2137.2</ele>
        <time>2021-08-21T17:11:42Z</time>
      </trkpt>
      <trkpt lat="2.735092" lon="-75.06958">
        <ele>2137.2</ele>
        <time>2021-08-21T17:11:43Z</time>
      </trkpt>
      <trkpt lat="2.735102" lon="-75.06955">
        <ele>2137.1</ele>
        <time>2021-08-21T17:11:44Z</time>
      </trkpt>
      <trkpt lat="2.735114" lon="-75.06953">
        <ele>2137.1</ele>
        <time>2021-08-21T17:11:45Z</time>
      </trkpt>
      <trkpt lat="2.735126" lon="-75.069496">
        <ele>2137.1</ele>
        <time>2021-08-21T17:11:46Z</time>
      </trkpt>
      <trkpt lat="2.735138" lon="-75.06947">
        <ele>2137.1</ele>
        <time>2021-08-21T17:11:47Z</time>
      </trkpt>
      <trkpt lat="2.73515" lon="-75.06944">
        <ele>2137.0</ele>
        <time>2021-08-21T17:11:48Z</time>
      </trkpt>
      <trkpt lat="2.735161" lon="-75.06942">
        <ele>2137.0</ele>
        <time>2021-08-21T17:11:49Z</time>
      </trkpt>
      <trkpt lat="2.735175" lon="-75.06939">
        <ele>2137.0</ele>
        <time>2021-08-21T17:11:50Z</time>
      </trkpt>
      <trkpt lat="2.735192" lon="-75.06937">
        <ele>2137.0</ele>
        <time>2021-08-21T17:11:51Z</time>
      </trkpt>
      <trkpt lat="2.735212" lon="-75.069336">
        <ele>2136.9</ele>
        <time>2021-08-21T17:11:52Z</time>
      </trkpt>
      <trkpt lat="2.735235" lon="-75.06931">
        <ele>2136.9</ele>
        <time>2021-08-21T17:11:53Z</time>
      </trkpt>
      <trkpt lat="2.735258" lon="-75.06929">
        <ele>2136.9</ele>
        <time>2021-08-21T17:11:54Z</time>
      </trkpt>
      <trkpt lat="2.735284" lon="-75.06927">
        <ele>2136.9</ele>
        <time>2021-08-21T17:11:55Z</time>
      </trkpt>
      <trkpt lat="2.735311" lon="-75.069244">
        <ele>2136.9</ele>
        <time>2021-08-21T17:11:56Z</time>
      </trkpt>
      <trkpt lat="2.735341" lon="-75.06922">
        <ele>2136.8</ele>
        <time>2021-08-21T17:11:57Z</time>
      </trkpt>
      <trkpt lat="2.735371" lon="-75.06921">
        <ele>2136.8</ele>
        <time>2021-08-21T17:11:58Z</time>
      </trkpt>
      <trkpt lat="2.735399" lon="-75.06918">
        <ele>2136.8</ele>
        <time>2021-08-21T17:11:59Z</time>
      </trkpt>
      <trkpt lat="2.735428" lon="-75.06916">
        <ele>2136.8</ele>
        <time>2021-08-21T17:12:00Z</time>
      </trkpt>
      <trkpt lat="2.735456" lon="-75.06914">
        <ele>2136.8</ele>
        <time>2021-08-21T17:12:01Z</time>
      </trkpt>
      <trkpt lat="2.735484" lon="-75.06912">
        <ele>2136.8</ele>
        <time>2021-08-21T17:12:02Z</time>
      </trkpt>
      <trkpt lat="2.735511" lon="-75.0691">
        <ele>2136.7</ele>
        <time>2021-08-21T17:12:03Z</time>
      </trkpt>
      <trkpt lat="2.735539" lon="-75.069084">
        <ele>2136.7</ele>
        <time>2021-08-21T17:12:04Z</time>
      </trkpt>
      <trkpt lat="2.735564" lon="-75.06907">
        <ele>2136.7</ele>
        <time>2021-08-21T17:12:05Z</time>
      </trkpt>
      <trkpt lat="2.735588" lon="-75.06905">
        <ele>2136.7</ele>
        <time>2021-08-21T17:12:06Z</time>
      </trkpt>
      <trkpt lat="2.735613" lon="-75.06903">
        <ele>2136.7</ele>
        <time>2021-08-21T17:12:07Z</time>
      </trkpt>
      <trkpt lat="2.735635" lon="-75.069016">
        <ele>2136.7</ele>
        <time>2021-08-21T17:12:08Z</time>
      </trkpt>
      <trkpt lat="2.735655" lon="-75.06899">
        <ele>2136.6</ele>
        <time>2021-08-21T17:12:09Z</time>
      </trkpt>
      <trkpt lat="2.735674" lon="-75.06898">
        <ele>2136.6</ele>
        <time>2021-08-21T17:12:10Z</time>
      </trkpt>
      <trkpt lat="2.735695" lon="-75.06896">
        <ele>2136.6</ele>
        <time>2021-08-21T17:12:11Z</time>
      </trkpt>
      <trkpt lat="2.73572" lon="-75.06895">
        <ele>2136.6</ele>
        <time>2021-08-21T17:12:12Z</time>
      </trkpt>
      <trkpt lat="2.735748" lon="-75.06893">
        <ele>2136.6</ele>
        <time>2021-08-21T17:12:13Z</time>
      </trkpt>
      <trkpt lat="2.735779" lon="-75.06892">
        <ele>2136.5</ele>
        <time>2021-08-21T17:12:14Z</time>
      </trkpt>
      <trkpt lat="2.735811" lon="-75.06891">
        <ele>2136.5</ele>
        <time>2021-08-21T17:12:15Z</time>
      </trkpt>
      <trkpt lat="2.735842" lon="-75.0689">
        <ele>2136.5</ele>
        <time>2021-08-21T17:12:16Z</time>
      </trkpt>
      <trkpt lat="2.735873" lon="-75.068886">
        <ele>2136.5</ele>
        <time>2021-08-21T17:12:17Z</time>
      </trkpt>
      <trkpt lat="2.735903" lon="-75.06888">
        <ele>2136.5</ele>
        <time>2021-08-21T17:12:18Z</time>
      </trkpt>
      <trkpt lat="2.735933" lon="-75.06887">
        <ele>2136.5</ele>
        <time>2021-08-21T17:12:19Z</time>
      </trkpt>
      <trkpt lat="2.735964" lon="-75.06886">
        <ele>2136.4</ele>
        <time>2021-08-21T17:12:20Z</time>
      </trkpt>
      <trkpt lat="2.735994" lon="-75.068855">
        <ele>2136.4</ele>
        <time>2021-08-21T17:12:21Z</time>
      </trkpt>
      <trkpt lat="2.736025" lon="-75.06885">
        <ele>2136.4</ele>
        <time>2021-08-21T17:12:22Z</time>
      </trkpt>
      <trkpt lat="2.736056" lon="-75.06884">
        <ele>2136.3</ele>
        <time>2021-08-21T17:12:23Z</time>
      </trkpt>
      <trkpt lat="2.736087" lon="-75.06883">
        <ele>2136.3</ele>
        <time>2021-08-21T17:12:24Z</time>
      </trkpt>
      <trkpt lat="2.73612" lon="-75.068825">
        <ele>2136.3</ele>
        <time>2021-08-21T17:12:25Z</time>
      </trkpt>
      <trkpt lat="2.736151" lon="-75.06882">
        <ele>2136.2</ele>
        <time>2021-08-21T17:12:26Z</time>
      </trkpt>
      <trkpt lat="2.736183" lon="-75.06881">
        <ele>2136.2</ele>
        <time>2021-08-21T17:12:27Z</time>
      </trkpt>
      <trkpt lat="2.736214" lon="-75.068794">
        <ele>2136.2</ele>
        <time>2021-08-21T17:12:28Z</time>
      </trkpt>
      <trkpt lat="2.736243" lon="-75.06879">
        <ele>2136.2</ele>
        <time>2021-08-21T17:12:29Z</time>
      </trkpt>
      <trkpt lat="2.73627" lon="-75.06876">
        <ele>2136.2</ele>
        <time>2021-08-21T17:12:30Z</time>
      </trkpt>
      <trkpt lat="2.736294" lon="-75.06875">
        <ele>2136.2</ele>
        <time>2021-08-21T17:12:31Z</time>
      </trkpt>
      <trkpt lat="2.736316" lon="-75.068726">
        <ele>2136.2</ele>
        <time>2021-08-21T17:12:32Z</time>
      </trkpt>
      <trkpt lat="2.736332" lon="-75.06871">
        <ele>2136.2</ele>
        <time>2021-08-21T17:12:33Z</time>
      </trkpt>
      <trkpt lat="2.736344" lon="-75.06869">
        <ele>2136.2</ele>
        <time>2021-08-21T17:12:34Z</time>
      </trkpt>
      <trkpt lat="2.736353" lon="-75.06866">
        <ele>2136.2</ele>
        <time>2021-08-21T17:12:35Z</time>
      </trkpt>
      <trkpt lat="2.736357" lon="-75.068634">
        <ele>2136.2</ele>
        <time>2021-08-21T17:12:36Z</time>
      </trkpt>
      <trkpt lat="2.736356" lon="-75.06861">
        <ele>2136.1</ele>
        <time>2021-08-21T17:12:37Z</time>
      </trkpt>
      <trkpt lat="2.73635" lon="-75.06859">
        <ele>2136.1</ele>
        <time>2021-08-21T17:12:38Z</time>
      </trkpt>
      <trkpt lat="2.736339" lon="-75.068565">
        <ele>2136.1</ele>
        <time>2021-08-21T17:12:39Z</time>
      </trkpt>
      <trkpt lat="2.736323" lon="-75.06854">
        <ele>2136.1</ele>
        <time>2021-08-21T17:12:40Z</time>
      </trkpt>
      <trkpt lat="2.736305" lon="-75.06852">
        <ele>2136.1</ele>
        <time>2021-08-21T17:12:41Z</time>
      </trkpt>
      <trkpt lat="2.736286" lon="-75.0685">
        <ele>2136.1</ele>
        <time>2021-08-21T17:12:42Z</time>
      </trkpt>
      <trkpt lat="2.736267" lon="-75.06848">
        <ele>2136.0</ele>
        <time>2021-08-21T17:12:43Z</time>
      </trkpt>
      <trkpt lat="2.736248" lon="-75.06847">
        <ele>2136.0</ele>
        <time>2021-08-21T17:12:44Z</time>
      </trkpt>
      <trkpt lat="2.736228" lon="-75.06844">
        <ele>2135.9</ele>
        <time>2021-08-21T17:12:45Z</time>
      </trkpt>
      <trkpt lat="2.736209" lon="-75.06842">
        <ele>2135.9</ele>
        <time>2021-08-21T17:12:46Z</time>
      </trkpt>
      <trkpt lat="2.736193" lon="-75.068405">
        <ele>2135.9</ele>
        <time>2021-08-21T17:12:47Z</time>
      </trkpt>
      <trkpt lat="2.736177" lon="-75.06838">
        <ele>2135.9</ele>
        <time>2021-08-21T17:12:48Z</time>
      </trkpt>
      <trkpt lat="2.736165" lon="-75.06836">
        <ele>2135.9</ele>
        <time>2021-08-21T17:12:49Z</time>
      </trkpt>
      <trkpt lat="2.736156" lon="-75.06834">
        <ele>2135.8</ele>
        <time>2021-08-21T17:12:50Z</time>
      </trkpt>
      <trkpt lat="2.73615" lon="-75.06831">
        <ele>2135.8</ele>
        <time>2021-08-21T17:12:51Z</time>
      </trkpt>
      <trkpt lat="2.736148" lon="-75.0683">
        <ele>2135.8</ele>
        <time>2021-08-21T17:12:52Z</time>
      </trkpt>
      <trkpt lat="2.736148" lon="-75.068275">
        <ele>2135.8</ele>
        <time>2021-08-21T17:12:53Z</time>
      </trkpt>
      <trkpt lat="2.736151" lon="-75.06825">
        <ele>2135.7</ele>
        <time>2021-08-21T17:12:54Z</time>
      </trkpt>
      <trkpt lat="2.736157" lon="-75.06823">
        <ele>2135.7</ele>
        <time>2021-08-21T17:12:55Z</time>
      </trkpt>
      <trkpt lat="2.736164" lon="-75.06821">
        <ele>2135.7</ele>
        <time>2021-08-21T17:12:56Z</time>
      </trkpt>
      <trkpt lat="2.736175" lon="-75.068184">
        <ele>2135.7</ele>
        <time>2021-08-21T17:12:57Z</time>
      </trkpt>
      <trkpt lat="2.736189" lon="-75.06817">
        <ele>2135.7</ele>
        <time>2021-08-21T17:12:58Z</time>
      </trkpt>
      <trkpt lat="2.736202" lon="-75.068146">
        <ele>2135.7</ele>
        <time>2021-08-21T17:12:59Z</time>
      </trkpt>
      <trkpt lat="2.736213" lon="-75.06813">
        <ele>2135.7</ele>
        <time>2021-08-21T17:13:00Z</time>
      </trkpt>
      <trkpt lat="2.736226" lon="-75.06811">
        <ele>2135.7</ele>
        <time>2021-08-21T17:13:01Z</time>
      </trkpt>
      <trkpt lat="2.736239" lon="-75.068085">
        <ele>2135.6</ele>
        <time>2021-08-21T17:13:02Z</time>
      </trkpt>
      <trkpt lat="2.736252" lon="-75.06807">
        <ele>2135.6</ele>
        <time>2021-08-21T17:13:03Z</time>
      </trkpt>
      <trkpt lat="2.736264" lon="-75.06805">
        <ele>2135.6</ele>
        <time>2021-08-21T17:13:04Z</time>
      </trkpt>
      <trkpt lat="2.736277" lon="-75.06803">
        <ele>2135.6</ele>
        <time>2021-08-21T17:13:05Z</time>
      </trkpt>
      <trkpt lat="2.73629" lon="-75.06801">
        <ele>2135.6</ele>
        <time>2021-08-21T17:13:06Z</time>
      </trkpt>
      <trkpt lat="2.736305" lon="-75.06799">
        <ele>2135.5</ele>
        <time>2021-08-21T17:13:07Z</time>
      </trkpt>
      <trkpt lat="2.736322" lon="-75.06798">
        <ele>2135.5</ele>
        <time>2021-08-21T17:13:08Z</time>
      </trkpt>
      <trkpt lat="2.736338" lon="-75.06796">
        <ele>2135.5</ele>
        <time>2021-08-21T17:13:09Z</time>
      </trkpt>
      <trkpt lat="2.736357" lon="-75.06795">
        <ele>2135.4</ele>
        <time>2021-08-21T17:13:10Z</time>
      </trkpt>
      <trkpt lat="2.736376" lon="-75.06793">
        <ele>2135.5</ele>
        <time>2021-08-21T17:13:11Z</time>
      </trkpt>
      <trkpt lat="2.736393" lon="-75.06791">
        <ele>2135.4</ele>
        <time>2021-08-21T17:13:12Z</time>
      </trkpt>
      <trkpt lat="2.736407" lon="-75.067894">
        <ele>2135.4</ele>
        <time>2021-08-21T17:13:13Z</time>
      </trkpt>
      <trkpt lat="2.736422" lon="-75.06788">
        <ele>2135.4</ele>
        <time>2021-08-21T17:13:14Z</time>
      </trkpt>
      <trkpt lat="2.736434" lon="-75.067856">
        <ele>2135.3</ele>
        <time>2021-08-21T17:13:15Z</time>
      </trkpt>
      <trkpt lat="2.736446" lon="-75.06784">
        <ele>2135.3</ele>
        <time>2021-08-21T17:13:16Z</time>
      </trkpt>
      <trkpt lat="2.736458" lon="-75.06782">
        <ele>2135.3</ele>
        <time>2021-08-21T17:13:17Z</time>
      </trkpt>
      <trkpt lat="2.736471" lon="-75.0678">
        <ele>2135.3</ele>
        <time>2021-08-21T17:13:18Z</time>
      </trkpt>
      <trkpt lat="2.736484" lon="-75.06778">
        <ele>2135.2</ele>
        <time>2021-08-21T17:13:19Z</time>
      </trkpt>
      <trkpt lat="2.736496" lon="-75.067764">
        <ele>2135.2</ele>
        <time>2021-08-21T17:13:20Z</time>
      </trkpt>
      <trkpt lat="2.736509" lon="-75.06774">
        <ele>2135.2</ele>
        <time>2021-08-21T17:13:21Z</time>
      </trkpt>
      <trkpt lat="2.736523" lon="-75.067726">
        <ele>2135.2</ele>
        <time>2021-08-21T17:13:22Z</time>
      </trkpt>
      <trkpt lat="2.736539" lon="-75.0677">
        <ele>2135.1</ele>
        <time>2021-08-21T17:13:23Z</time>
      </trkpt>
      <trkpt lat="2.736555" lon="-75.06769">
        <ele>2135.2</ele>
        <time>2021-08-21T17:13:24Z</time>
      </trkpt>
      <trkpt lat="2.736573" lon="-75.06767">
        <ele>2135.1</ele>
        <time>2021-08-21T17:13:25Z</time>
      </trkpt>
      <trkpt lat="2.736593" lon="-75.06766">
        <ele>2135.1</ele>
        <time>2021-08-21T17:13:26Z</time>
      </trkpt>
      <trkpt lat="2.736612" lon="-75.06764">
        <ele>2135.1</ele>
        <time>2021-08-21T17:13:27Z</time>
      </trkpt>
      <trkpt lat="2.736631" lon="-75.06763">
        <ele>2135.1</ele>
        <time>2021-08-21T17:13:28Z</time>
      </trkpt>
      <trkpt lat="2.73665" lon="-75.06762">
        <ele>2135.0</ele>
        <time>2021-08-21T17:13:29Z</time>
      </trkpt>
      <trkpt lat="2.736668" lon="-75.06761">
        <ele>2135.0</ele>
        <time>2021-08-21T17:13:30Z</time>
      </trkpt>
      <trkpt lat="2.736687" lon="-75.067604">
        <ele>2135.0</ele>
        <time>2021-08-21T17:13:31Z</time>
      </trkpt>
      <trkpt lat="2.736706" lon="-75.067604">
        <ele>2135.0</ele>
        <time>2021-08-21T17:13:32Z</time>
      </trkpt>
      <trkpt lat="2.736726" lon="-75.0676">
        <ele>2135.0</ele>
        <time>2021-08-21T17:13:33Z</time>
      </trkpt>
      <trkpt lat="2.736747" lon="-75.06759">
        <ele>2135.0</ele>
        <time>2021-08-21T17:13:34Z</time>
      </trkpt>
      <trkpt lat="2.73677" lon="-75.06759">
        <ele>2135.0</ele>
        <time>2021-08-21T17:13:35Z</time>
      </trkpt>
      <trkpt lat="2.736795" lon="-75.06759">
        <ele>2134.9</ele>
        <time>2021-08-21T17:13:36Z</time>
      </trkpt>
      <trkpt lat="2.736821" lon="-75.06758">
        <ele>2134.9</ele>
        <time>2021-08-21T17:13:37Z</time>
      </trkpt>
      <trkpt lat="2.736847" lon="-75.06758">
        <ele>2134.9</ele>
        <time>2021-08-21T17:13:38Z</time>
      </trkpt>
      <trkpt lat="2.736874" lon="-75.06757">
        <ele>2134.8</ele>
        <time>2021-08-21T17:13:39Z</time>
      </trkpt>
      <trkpt lat="2.736901" lon="-75.067566">
        <ele>2134.8</ele>
        <time>2021-08-21T17:13:40Z</time>
      </trkpt>
      <trkpt lat="2.73693" lon="-75.06756">
        <ele>2134.8</ele>
        <time>2021-08-21T17:13:41Z</time>
      </trkpt>
      <trkpt lat="2.736959" lon="-75.06755">
        <ele>2134.7</ele>
        <time>2021-08-21T17:13:42Z</time>
      </trkpt>
      <trkpt lat="2.736986" lon="-75.067535">
        <ele>2134.7</ele>
        <time>2021-08-21T17:13:43Z</time>
      </trkpt>
      <trkpt lat="2.73701" lon="-75.06752">
        <ele>2134.7</ele>
        <time>2021-08-21T17:13:44Z</time>
      </trkpt>
      <trkpt lat="2.737032" lon="-75.067505">
        <ele>2134.6</ele>
        <time>2021-08-21T17:13:45Z</time>
      </trkpt>
      <trkpt lat="2.73705" lon="-75.06748">
        <ele>2134.6</ele>
        <time>2021-08-21T17:13:46Z</time>
      </trkpt>
      <trkpt lat="2.737063" lon="-75.06746">
        <ele>2134.6</ele>
        <time>2021-08-21T17:13:47Z</time>
      </trkpt>
      <trkpt lat="2.737074" lon="-75.06743">
        <ele>2134.6</ele>
        <time>2021-08-21T17:13:48Z</time>
      </trkpt>
      <trkpt lat="2.737083" lon="-75.067406">
        <ele>2134.6</ele>
        <time>2021-08-21T17:13:49Z</time>
      </trkpt>
      <trkpt lat="2.737094" lon="-75.06738">
        <ele>2134.5</ele>
        <time>2021-08-21T17:13:50Z</time>
      </trkpt>
      <trkpt lat="2.737103" lon="-75.06736">
        <ele>2134.5</ele>
        <time>2021-08-21T17:13:51Z</time>
      </trkpt>
      <trkpt lat="2.73711" lon="-75.06734">
        <ele>2134.5</ele>
        <time>2021-08-21T17:13:52Z</time>
      </trkpt>
      <trkpt lat="2.737116" lon="-75.067314">
        <ele>2134.5</ele>
        <time>2021-08-21T17:13:53Z</time>
      </trkpt>
      <trkpt lat="2.73712" lon="-75.06728">
        <ele>2134.5</ele>
        <time>2021-08-21T17:13:54Z</time>
      </trkpt>
      <trkpt lat="2.737124" lon="-75.06726">
        <ele>2134.4</ele>
        <time>2021-08-21T17:13:55Z</time>
      </trkpt>
      <trkpt lat="2.737127" lon="-75.06724">
        <ele>2134.4</ele>
        <time>2021-08-21T17:13:56Z</time>
      </trkpt>
      <trkpt lat="2.73713" lon="-75.06721">
        <ele>2134.4</ele>
        <time>2021-08-21T17:13:57Z</time>
      </trkpt>
      <trkpt lat="2.737134" lon="-75.06718">
        <ele>2134.3</ele>
        <time>2021-08-21T17:13:58Z</time>
      </trkpt>
      <trkpt lat="2.73714" lon="-75.067154">
        <ele>2134.3</ele>
        <time>2021-08-21T17:13:59Z</time>
      </trkpt>
      <trkpt lat="2.737148" lon="-75.06713">
        <ele>2134.3</ele>
        <time>2021-08-21T17:14:00Z</time>
      </trkpt>
      <trkpt lat="2.737156" lon="-75.06711">
        <ele>2134.3</ele>
        <time>2021-08-21T17:14:01Z</time>
      </trkpt>
      <trkpt lat="2.737165" lon="-75.06709">
        <ele>2134.2</ele>
        <time>2021-08-21T17:14:02Z</time>
      </trkpt>
      <trkpt lat="2.737175" lon="-75.06708">
        <ele>2134.2</ele>
        <time>2021-08-21T17:14:03Z</time>
      </trkpt>
      <trkpt lat="2.737188" lon="-75.06706">
        <ele>2134.2</ele>
        <time>2021-08-21T17:14:04Z</time>
      </trkpt>
      <trkpt lat="2.7372" lon="-75.067055">
        <ele>2134.2</ele>
        <time>2021-08-21T17:14:05Z</time>
      </trkpt>
      <trkpt lat="2.73721" lon="-75.06704">
        <ele>2134.1</ele>
        <time>2021-08-21T17:14:06Z</time>
      </trkpt>
      <trkpt lat="2.737219" lon="-75.06703">
        <ele>2134.1</ele>
        <time>2021-08-21T17:14:07Z</time>
      </trkpt>
      <trkpt lat="2.737229" lon="-75.06702">
        <ele>2134.1</ele>
        <time>2021-08-21T17:14:08Z</time>
      </trkpt>
      <trkpt lat="2.737239" lon="-75.06701">
        <ele>2134.1</ele>
        <time>2021-08-21T17:14:09Z</time>
      </trkpt>
      <trkpt lat="2.737246" lon="-75.067">
        <ele>2134.1</ele>
        <time>2021-08-21T17:14:10Z</time>
      </trkpt>
      <trkpt lat="2.737251" lon="-75.06699">
        <ele>2134.2</ele>
        <time>2021-08-21T17:14:11Z</time>
      </trkpt>
      <trkpt lat="2.737255" lon="-75.066986">
        <ele>2134.2</ele>
        <time>2021-08-21T17:14:12Z</time>
      </trkpt>
      <trkpt lat="2.737266" lon="-75.06698">
        <ele>2134.2</ele>
        <time>2021-08-21T17:14:14Z</time>
      </trkpt>
      <trkpt lat="2.737191" lon="-75.067085">
        <ele>2134.4</ele>
        <time>2021-08-21T17:29:20Z</time>
      </trkpt>
      <trkpt lat="2.737188" lon="-75.067085">
        <ele>2134.4</ele>
        <time>2021-08-21T17:29:21Z</time>
      </trkpt>
      <trkpt lat="2.737184" lon="-75.0671">
        <ele>2134.4</ele>
        <time>2021-08-21T17:29:22Z</time>
      </trkpt>
      <trkpt lat="2.73718" lon="-75.067116">
        <ele>2134.4</ele>
        <time>2021-08-21T17:29:23Z</time>
      </trkpt>
      <trkpt lat="2.737175" lon="-75.06713">
        <ele>2134.4</ele>
        <time>2021-08-21T17:29:24Z</time>
      </trkpt>
      <trkpt lat="2.737171" lon="-75.06715">
        <ele>2134.5</ele>
        <time>2021-08-21T17:29:25Z</time>
      </trkpt>
      <trkpt lat="2.737167" lon="-75.06717">
        <ele>2134.5</ele>
        <time>2021-08-21T17:29:26Z</time>
      </trkpt>
      <trkpt lat="2.737165" lon="-75.067184">
        <ele>2134.5</ele>
        <time>2021-08-21T17:29:27Z</time>
      </trkpt>
      <trkpt lat="2.737163" lon="-75.0672">
        <ele>2134.5</ele>
        <time>2021-08-21T17:29:28Z</time>
      </trkpt>
      <trkpt lat="2.737163" lon="-75.06722">
        <ele>2134.5</ele>
        <time>2021-08-21T17:29:29Z</time>
      </trkpt>
      <trkpt lat="2.737163" lon="-75.06724">
        <ele>2134.5</ele>
        <time>2021-08-21T17:29:30Z</time>
      </trkpt>
      <trkpt lat="2.737163" lon="-75.06725">
        <ele>2134.6</ele>
        <time>2021-08-21T17:29:31Z</time>
      </trkpt>
      <trkpt lat="2.737163" lon="-75.067276">
        <ele>2134.6</ele>
        <time>2021-08-21T17:29:32Z</time>
      </trkpt>
      <trkpt lat="2.737163" lon="-75.06729">
        <ele>2134.6</ele>
        <time>2021-08-21T17:29:33Z</time>
      </trkpt>
      <trkpt lat="2.737161" lon="-75.067314">
        <ele>2134.6</ele>
        <time>2021-08-21T17:29:34Z</time>
      </trkpt>
      <trkpt lat="2.737158" lon="-75.06734">
        <ele>2134.6</ele>
        <time>2021-08-21T17:29:35Z</time>
      </trkpt>
      <trkpt lat="2.737154" lon="-75.06736">
        <ele>2134.6</ele>
        <time>2021-08-21T17:29:36Z</time>
      </trkpt>
      <trkpt lat="2.737147" lon="-75.06738">
        <ele>2134.7</ele>
        <time>2021-08-21T17:29:37Z</time>
      </trkpt>
      <trkpt lat="2.737137" lon="-75.0674">
        <ele>2134.7</ele>
        <time>2021-08-21T17:29:38Z</time>
      </trkpt>
      <trkpt lat="2.737126" lon="-75.06742">
        <ele>2134.7</ele>
        <time>2021-08-21T17:29:39Z</time>
      </trkpt>
      <trkpt lat="2.737113" lon="-75.067444">
        <ele>2134.8</ele>
        <time>2021-08-21T17:29:40Z</time>
      </trkpt>
      <trkpt lat="2.737097" lon="-75.06747">
        <ele>2134.8</ele>
        <time>2021-08-21T17:29:41Z</time>
      </trkpt>
      <trkpt lat="2.737078" lon="-75.06749">
        <ele>2134.9</ele>
        <time>2021-08-21T17:29:42Z</time>
      </trkpt>
      <trkpt lat="2.737057" lon="-75.067505">
        <ele>2134.9</ele>
        <time>2021-08-21T17:29:43Z</time>
      </trkpt>
      <trkpt lat="2.737034" lon="-75.06752">
        <ele>2134.9</ele>
        <time>2021-08-21T17:29:44Z</time>
      </trkpt>
      <trkpt lat="2.73701" lon="-75.067535">
        <ele>2135.0</ele>
        <time>2021-08-21T17:29:45Z</time>
      </trkpt>
      <trkpt lat="2.736987" lon="-75.06755">
        <ele>2135.0</ele>
        <time>2021-08-21T17:29:46Z</time>
      </trkpt>
      <trkpt lat="2.736961" lon="-75.067566">
        <ele>2135.1</ele>
        <time>2021-08-21T17:29:47Z</time>
      </trkpt>
      <trkpt lat="2.736934" lon="-75.06757">
        <ele>2135.1</ele>
        <time>2021-08-21T17:29:48Z</time>
      </trkpt>
      <trkpt lat="2.736908" lon="-75.06758">
        <ele>2135.1</ele>
        <time>2021-08-21T17:29:49Z</time>
      </trkpt>
      <trkpt lat="2.73688" lon="-75.06759">
        <ele>2135.2</ele>
        <time>2021-08-21T17:29:50Z</time>
      </trkpt>
      <trkpt lat="2.736853" lon="-75.0676">
        <ele>2135.2</ele>
        <time>2021-08-21T17:29:51Z</time>
      </trkpt>
      <trkpt lat="2.736827" lon="-75.0676">
        <ele>2135.2</ele>
        <time>2021-08-21T17:29:52Z</time>
      </trkpt>
      <trkpt lat="2.736802" lon="-75.067604">
        <ele>2135.2</ele>
        <time>2021-08-21T17:29:53Z</time>
      </trkpt>
      <trkpt lat="2.736777" lon="-75.06761">
        <ele>2135.3</ele>
        <time>2021-08-21T17:29:54Z</time>
      </trkpt>
      <trkpt lat="2.736752" lon="-75.06762">
        <ele>2135.3</ele>
        <time>2021-08-21T17:29:55Z</time>
      </trkpt>
      <trkpt lat="2.736727" lon="-75.06763">
        <ele>2135.3</ele>
        <time>2021-08-21T17:29:56Z</time>
      </trkpt>
      <trkpt lat="2.736703" lon="-75.067635">
        <ele>2135.4</ele>
        <time>2021-08-21T17:29:57Z</time>
      </trkpt>
      <trkpt lat="2.73668" lon="-75.06764">
        <ele>2135.4</ele>
        <time>2021-08-21T17:29:58Z</time>
      </trkpt>
      <trkpt lat="2.73666" lon="-75.06765">
        <ele>2135.4</ele>
        <time>2021-08-21T17:29:59Z</time>
      </trkpt>
      <trkpt lat="2.73664" lon="-75.067665">
        <ele>2135.5</ele>
        <time>2021-08-21T17:30:00Z</time>
      </trkpt>
      <trkpt lat="2.736622" lon="-75.06768">
        <ele>2135.5</ele>
        <time>2021-08-21T17:30:01Z</time>
      </trkpt>
      <trkpt lat="2.736608" lon="-75.0677">
        <ele>2135.6</ele>
        <time>2021-08-21T17:30:02Z</time>
      </trkpt>
      <trkpt lat="2.736593" lon="-75.06772">
        <ele>2135.6</ele>
        <time>2021-08-21T17:30:03Z</time>
      </trkpt>
      <trkpt lat="2.736577" lon="-75.06773">
        <ele>2135.6</ele>
        <time>2021-08-21T17:30:04Z</time>
      </trkpt>
      <trkpt lat="2.736563" lon="-75.06776">
        <ele>2135.7</ele>
        <time>2021-08-21T17:30:05Z</time>
      </trkpt>
      <trkpt lat="2.736549" lon="-75.06777">
        <ele>2135.7</ele>
        <time>2021-08-21T17:30:06Z</time>
      </trkpt>
      <trkpt lat="2.736534" lon="-75.067795">
        <ele>2135.8</ele>
        <time>2021-08-21T17:30:07Z</time>
      </trkpt>
      <trkpt lat="2.736519" lon="-75.06781">
        <ele>2135.8</ele>
        <time>2021-08-21T17:30:08Z</time>
      </trkpt>
      <trkpt lat="2.736504" lon="-75.06783">
        <ele>2135.8</ele>
        <time>2021-08-21T17:30:09Z</time>
      </trkpt>
      <trkpt lat="2.736488" lon="-75.06785">
        <ele>2135.9</ele>
        <time>2021-08-21T17:30:10Z</time>
      </trkpt>
      <trkpt lat="2.736471" lon="-75.06787">
        <ele>2135.9</ele>
        <time>2021-08-21T17:30:11Z</time>
      </trkpt>
      <trkpt lat="2.736455" lon="-75.06789">
        <ele>2135.9</ele>
        <time>2021-08-21T17:30:12Z</time>
      </trkpt>
      <trkpt lat="2.73644" lon="-75.0679">
        <ele>2136.0</ele>
        <time>2021-08-21T17:30:13Z</time>
      </trkpt>
      <trkpt lat="2.736424" lon="-75.067924">
        <ele>2136.0</ele>
        <time>2021-08-21T17:30:14Z</time>
      </trkpt>
      <trkpt lat="2.736408" lon="-75.06794">
        <ele>2136.0</ele>
        <time>2021-08-21T17:30:15Z</time>
      </trkpt>
      <trkpt lat="2.736391" lon="-75.067955">
        <ele>2136.0</ele>
        <time>2021-08-21T17:30:16Z</time>
      </trkpt>
      <trkpt lat="2.736372" lon="-75.06797">
        <ele>2136.0</ele>
        <time>2021-08-21T17:30:17Z</time>
      </trkpt>
      <trkpt lat="2.736355" lon="-75.067986">
        <ele>2136.1</ele>
        <time>2021-08-21T17:30:18Z</time>
      </trkpt>
      <trkpt lat="2.73634" lon="-75.068">
        <ele>2136.1</ele>
        <time>2021-08-21T17:30:19Z</time>
      </trkpt>
      <trkpt lat="2.736325" lon="-75.068016">
        <ele>2136.1</ele>
        <time>2021-08-21T17:30:20Z</time>
      </trkpt>
      <trkpt lat="2.736311" lon="-75.06803">
        <ele>2136.1</ele>
        <time>2021-08-21T17:30:21Z</time>
      </trkpt>
      <trkpt lat="2.736299" lon="-75.068054">
        <ele>2136.1</ele>
        <time>2021-08-21T17:30:22Z</time>
      </trkpt>
      <trkpt lat="2.736288" lon="-75.06807">
        <ele>2136.2</ele>
        <time>2021-08-21T17:30:23Z</time>
      </trkpt>
      <trkpt lat="2.736279" lon="-75.068085">
        <ele>2136.2</ele>
        <time>2021-08-21T17:30:24Z</time>
      </trkpt>
      <trkpt lat="2.736269" lon="-75.06809">
        <ele>2136.2</ele>
        <time>2021-08-21T17:30:25Z</time>
      </trkpt>
      <trkpt lat="2.736259" lon="-75.0681">
        <ele>2136.2</ele>
        <time>2021-08-21T17:30:26Z</time>
      </trkpt>
      <trkpt lat="2.73625" lon="-75.06811">
        <ele>2136.3</ele>
        <time>2021-08-21T17:30:27Z</time>
      </trkpt>
      <trkpt lat="2.736243" lon="-75.06812">
        <ele>2136.3</ele>
        <time>2021-08-21T17:30:28Z</time>
      </trkpt>
      <trkpt lat="2.736235" lon="-75.06813">
        <ele>2136.3</ele>
        <time>2021-08-21T17:30:29Z</time>
      </trkpt>
      <trkpt lat="2.736227" lon="-75.06814">
        <ele>2136.3</ele>
        <time>2021-08-21T17:30:30Z</time>
      </trkpt>
      <trkpt lat="2.736221" lon="-75.068146">
        <ele>2136.3</ele>
        <time>2021-08-21T17:30:31Z</time>
      </trkpt>
      <trkpt lat="2.736216" lon="-75.06816">
        <ele>2136.4</ele>
        <time>2021-08-21T17:30:32Z</time>
      </trkpt>
      <trkpt lat="2.73621" lon="-75.06818">
        <ele>2136.4</ele>
        <time>2021-08-21T17:30:33Z</time>
      </trkpt>
      <trkpt lat="2.736204" lon="-75.06819">
        <ele>2136.4</ele>
        <time>2021-08-21T17:30:34Z</time>
      </trkpt>
      <trkpt lat="2.736197" lon="-75.0682">
        <ele>2136.4</ele>
        <time>2021-08-21T17:30:35Z</time>
      </trkpt>
      <trkpt lat="2.73619" lon="-75.068214">
        <ele>2136.5</ele>
        <time>2021-08-21T17:30:36Z</time>
      </trkpt>
      <trkpt lat="2.736185" lon="-75.06823">
        <ele>2136.5</ele>
        <time>2021-08-21T17:30:37Z</time>
      </trkpt>
      <trkpt lat="2.736181" lon="-75.068245">
        <ele>2136.5</ele>
        <time>2021-08-21T17:30:38Z</time>
      </trkpt>
      <trkpt lat="2.736179" lon="-75.06826">
        <ele>2136.5</ele>
        <time>2021-08-21T17:30:39Z</time>
      </trkpt>
      <trkpt lat="2.736178" lon="-75.06828">
        <ele>2136.6</ele>
        <time>2021-08-21T17:30:40Z</time>
      </trkpt>
      <trkpt lat="2.736179" lon="-75.068306">
        <ele>2136.6</ele>
        <time>2021-08-21T17:30:41Z</time>
      </trkpt>
      <trkpt lat="2.736183" lon="-75.06832">
        <ele>2136.6</ele>
        <time>2021-08-21T17:30:42Z</time>
      </trkpt>
      <trkpt lat="2.736188" lon="-75.06834">
        <ele>2136.6</ele>
        <time>2021-08-21T17:30:43Z</time>
      </trkpt>
      <trkpt lat="2.736196" lon="-75.06836">
        <ele>2136.6</ele>
        <time>2021-08-21T17:30:44Z</time>
      </trkpt>
      <trkpt lat="2.736207" lon="-75.06838">
        <ele>2136.7</ele>
        <time>2021-08-21T17:30:45Z</time>
      </trkpt>
      <trkpt lat="2.736218" lon="-75.0684">
        <ele>2136.7</ele>
        <time>2021-08-21T17:30:46Z</time>
      </trkpt>
      <trkpt lat="2.736231" lon="-75.06842">
        <ele>2136.7</ele>
        <time>2021-08-21T17:30:47Z</time>
      </trkpt>
      <trkpt lat="2.736245" lon="-75.068436">
        <ele>2136.7</ele>
        <time>2021-08-21T17:30:48Z</time>
      </trkpt>
      <trkpt lat="2.736263" lon="-75.06846">
        <ele>2136.7</ele>
        <time>2021-08-21T17:30:49Z</time>
      </trkpt>
      <trkpt lat="2.73628" lon="-75.068474">
        <ele>2136.8</ele>
        <time>2021-08-21T17:30:50Z</time>
      </trkpt>
      <trkpt lat="2.736298" lon="-75.0685">
        <ele>2136.8</ele>
        <time>2021-08-21T17:30:51Z</time>
      </trkpt>
      <trkpt lat="2.736317" lon="-75.06851">
        <ele>2136.8</ele>
        <time>2021-08-21T17:30:52Z</time>
      </trkpt>
      <trkpt lat="2.736336" lon="-75.06853">
        <ele>2136.8</ele>
        <time>2021-08-21T17:30:53Z</time>
      </trkpt>
      <trkpt lat="2.736356" lon="-75.06854">
        <ele>2136.8</ele>
        <time>2021-08-21T17:30:54Z</time>
      </trkpt>
      <trkpt lat="2.736376" lon="-75.068565">
        <ele>2136.9</ele>
        <time>2021-08-21T17:30:55Z</time>
      </trkpt>
      <trkpt lat="2.736393" lon="-75.06858">
        <ele>2136.9</ele>
        <time>2021-08-21T17:30:56Z</time>
      </trkpt>
      <trkpt lat="2.736408" lon="-75.0686">
        <ele>2136.9</ele>
        <time>2021-08-21T17:30:57Z</time>
      </trkpt>
      <trkpt lat="2.736419" lon="-75.06863">
        <ele>2136.9</ele>
        <time>2021-08-21T17:30:58Z</time>
      </trkpt>
      <trkpt lat="2.736426" lon="-75.06865">
        <ele>2137.0</ele>
        <time>2021-08-21T17:30:59Z</time>
      </trkpt>
      <trkpt lat="2.736431" lon="-75.06868">
        <ele>2137.0</ele>
        <time>2021-08-21T17:31:00Z</time>
      </trkpt>
      <trkpt lat="2.73643" lon="-75.06871">
        <ele>2137.0</ele>
        <time>2021-08-21T17:31:01Z</time>
      </trkpt>
      <trkpt lat="2.736423" lon="-75.06873">
        <ele>2137.0</ele>
        <time>2021-08-21T17:31:02Z</time>
      </trkpt>
      <trkpt lat="2.736411" lon="-75.068756">
        <ele>2137.1</ele>
        <time>2021-08-21T17:31:03Z</time>
      </trkpt>
      <trkpt lat="2.736394" lon="-75.06878">
        <ele>2137.1</ele>
        <time>2021-08-21T17:31:04Z</time>
      </trkpt>
      <trkpt lat="2.736373" lon="-75.068794">
        <ele>2137.2</ele>
        <time>2021-08-21T17:31:05Z</time>
      </trkpt>
      <trkpt lat="2.73635" lon="-75.06881">
        <ele>2137.2</ele>
        <time>2021-08-21T17:31:06Z</time>
      </trkpt>
      <trkpt lat="2.736325" lon="-75.068825">
        <ele>2137.3</ele>
        <time>2021-08-21T17:31:07Z</time>
      </trkpt>
      <trkpt lat="2.736298" lon="-75.06884">
        <ele>2137.3</ele>
        <time>2021-08-21T17:31:08Z</time>
      </trkpt>
      <trkpt lat="2.73627" lon="-75.06885">
        <ele>2137.4</ele>
        <time>2021-08-21T17:31:09Z</time>
      </trkpt>
      <trkpt lat="2.73624" lon="-75.068855">
        <ele>2137.4</ele>
        <time>2021-08-21T17:31:10Z</time>
      </trkpt>
      <trkpt lat="2.736207" lon="-75.06886">
        <ele>2137.4</ele>
        <time>2021-08-21T17:31:11Z</time>
      </trkpt>
      <trkpt lat="2.736175" lon="-75.06887">
        <ele>2137.5</ele>
        <time>2021-08-21T17:31:12Z</time>
      </trkpt>
      <trkpt lat="2.736142" lon="-75.06888">
        <ele>2137.5</ele>
        <time>2021-08-21T17:31:13Z</time>
      </trkpt>
      <trkpt lat="2.736111" lon="-75.068886">
        <ele>2137.6</ele>
        <time>2021-08-21T17:31:14Z</time>
      </trkpt>
      <trkpt lat="2.736079" lon="-75.06889">
        <ele>2137.6</ele>
        <time>2021-08-21T17:31:15Z</time>
      </trkpt>
      <trkpt lat="2.736048" lon="-75.06891">
        <ele>2137.6</ele>
        <time>2021-08-21T17:31:16Z</time>
      </trkpt>
      <trkpt lat="2.736017" lon="-75.06891">
        <ele>2137.6</ele>
        <time>2021-08-21T17:31:17Z</time>
      </trkpt>
      <trkpt lat="2.735985" lon="-75.06892">
        <ele>2137.7</ele>
        <time>2021-08-21T17:31:18Z</time>
      </trkpt>
      <trkpt lat="2.735953" lon="-75.068924">
        <ele>2137.7</ele>
        <time>2021-08-21T17:31:19Z</time>
      </trkpt>
      <trkpt lat="2.735924" lon="-75.06893">
        <ele>2137.7</ele>
        <time>2021-08-21T17:31:20Z</time>
      </trkpt>
      <trkpt lat="2.735894" lon="-75.06895">
        <ele>2137.7</ele>
        <time>2021-08-21T17:31:21Z</time>
      </trkpt>
      <trkpt lat="2.735865" lon="-75.068954">
        <ele>2137.7</ele>
        <time>2021-08-21T17:31:22Z</time>
      </trkpt>
      <trkpt lat="2.735838" lon="-75.06896">
        <ele>2137.7</ele>
        <time>2021-08-21T17:31:23Z</time>
      </trkpt>
      <trkpt lat="2.735812" lon="-75.06898">
        <ele>2137.8</ele>
        <time>2021-08-21T17:31:24Z</time>
      </trkpt>
      <trkpt lat="2.735786" lon="-75.068985">
        <ele>2137.8</ele>
        <time>2021-08-21T17:31:25Z</time>
      </trkpt>
      <trkpt lat="2.735756" lon="-75.069">
        <ele>2137.8</ele>
        <time>2021-08-21T17:31:26Z</time>
      </trkpt>
      <trkpt lat="2.735724" lon="-75.06901">
        <ele>2137.8</ele>
        <time>2021-08-21T17:31:27Z</time>
      </trkpt>
      <trkpt lat="2.735687" lon="-75.06902">
        <ele>2137.9</ele>
        <time>2021-08-21T17:31:28Z</time>
      </trkpt>
      <trkpt lat="2.735651" lon="-75.06904">
        <ele>2138.0</ele>
        <time>2021-08-21T17:31:29Z</time>
      </trkpt>
      <trkpt lat="2.735618" lon="-75.06906">
        <ele>2138.0</ele>
        <time>2021-08-21T17:31:30Z</time>
      </trkpt>
      <trkpt lat="2.735586" lon="-75.06908">
        <ele>2138.1</ele>
        <time>2021-08-21T17:31:31Z</time>
      </trkpt>
      <trkpt lat="2.735556" lon="-75.0691">
        <ele>2138.2</ele>
        <time>2021-08-21T17:31:32Z</time>
      </trkpt>
      <trkpt lat="2.735528" lon="-75.069115">
        <ele>2138.2</ele>
        <time>2021-08-21T17:31:33Z</time>
      </trkpt>
      <trkpt lat="2.7355" lon="-75.06914">
        <ele>2138.3</ele>
        <time>2021-08-21T17:31:34Z</time>
      </trkpt>
      <trkpt lat="2.73547" lon="-75.06915">
        <ele>2138.3</ele>
        <time>2021-08-21T17:31:35Z</time>
      </trkpt>
      <trkpt lat="2.735442" lon="-75.06917">
        <ele>2138.4</ele>
        <time>2021-08-21T17:31:36Z</time>
      </trkpt>
      <trkpt lat="2.73539" lon="-75.0692">
        <ele>2138.5</ele>
        <time>2021-08-21T17:31:37Z</time>
      </trkpt>
      <trkpt lat="2.735415" lon="-75.06918">
        <ele>2138.4</ele>
        <time>2021-08-21T17:31:37Z</time>
      </trkpt>
      <trkpt lat="2.735366" lon="-75.069214">
        <ele>2138.5</ele>
        <time>2021-08-21T17:31:38Z</time>
      </trkpt>
      <trkpt lat="2.735343" lon="-75.06923">
        <ele>2138.5</ele>
        <time>2021-08-21T17:31:39Z</time>
      </trkpt>
      <trkpt lat="2.73532" lon="-75.069244">
        <ele>2138.6</ele>
        <time>2021-08-21T17:31:40Z</time>
      </trkpt>
      <trkpt lat="2.735297" lon="-75.06926">
        <ele>2138.6</ele>
        <time>2021-08-21T17:31:41Z</time>
      </trkpt>
      <trkpt lat="2.735276" lon="-75.069275">
        <ele>2138.6</ele>
        <time>2021-08-21T17:31:42Z</time>
      </trkpt>
      <trkpt lat="2.735257" lon="-75.0693">
        <ele>2138.7</ele>
        <time>2021-08-21T17:31:43Z</time>
      </trkpt>
      <trkpt lat="2.735239" lon="-75.06931">
        <ele>2138.7</ele>
        <time>2021-08-21T17:31:44Z</time>
      </trkpt>
      <trkpt lat="2.735223" lon="-75.06933">
        <ele>2138.7</ele>
        <time>2021-08-21T17:31:45Z</time>
      </trkpt>
      <trkpt lat="2.735207" lon="-75.06935">
        <ele>2138.8</ele>
        <time>2021-08-21T17:31:46Z</time>
      </trkpt>
      <trkpt lat="2.735193" lon="-75.069374">
        <ele>2138.8</ele>
        <time>2021-08-21T17:31:47Z</time>
      </trkpt>
      <trkpt lat="2.73518" lon="-75.06939">
        <ele>2138.8</ele>
        <time>2021-08-21T17:31:48Z</time>
      </trkpt>
      <trkpt lat="2.735168" lon="-75.06941">
        <ele>2138.8</ele>
        <time>2021-08-21T17:31:49Z</time>
      </trkpt>
      <trkpt lat="2.735157" lon="-75.069435">
        <ele>2138.9</ele>
        <time>2021-08-21T17:31:50Z</time>
      </trkpt>
      <trkpt lat="2.735147" lon="-75.06946">
        <ele>2138.9</ele>
        <time>2021-08-21T17:31:51Z</time>
      </trkpt>
      <trkpt lat="2.735138" lon="-75.06948">
        <ele>2138.9</ele>
        <time>2021-08-21T17:31:52Z</time>
      </trkpt>
      <trkpt lat="2.73513" lon="-75.0695">
        <ele>2138.9</ele>
        <time>2021-08-21T17:31:53Z</time>
      </trkpt>
      <trkpt lat="2.735121" lon="-75.06953">
        <ele>2138.9</ele>
        <time>2021-08-21T17:31:54Z</time>
      </trkpt>
      <trkpt lat="2.735113" lon="-75.06955">
        <ele>2138.9</ele>
        <time>2021-08-21T17:31:55Z</time>
      </trkpt>
      <trkpt lat="2.735105" lon="-75.06957">
        <ele>2139.0</ele>
        <time>2021-08-21T17:31:56Z</time>
      </trkpt>
      <trkpt lat="2.735097" lon="-75.069595">
        <ele>2139.0</ele>
        <time>2021-08-21T17:31:57Z</time>
      </trkpt>
      <trkpt lat="2.73509" lon="-75.069626">
        <ele>2139.0</ele>
        <time>2021-08-21T17:31:58Z</time>
      </trkpt>
      <trkpt lat="2.735083" lon="-75.06965">
        <ele>2139.0</ele>
        <time>2021-08-21T17:31:59Z</time>
      </trkpt>
      <trkpt lat="2.735076" lon="-75.06967">
        <ele>2139.0</ele>
        <time>2021-08-21T17:32:00Z</time>
      </trkpt>
      <trkpt lat="2.735069" lon="-75.069695">
        <ele>2139.1</ele>
        <time>2021-08-21T17:32:01Z</time>
      </trkpt>
      <trkpt lat="2.735064" lon="-75.06972">
        <ele>2139.1</ele>
        <time>2021-08-21T17:32:02Z</time>
      </trkpt>
      <trkpt lat="2.735057" lon="-75.06975">
        <ele>2139.1</ele>
        <time>2021-08-21T17:32:03Z</time>
      </trkpt>
      <trkpt lat="2.735051" lon="-75.06977">
        <ele>2139.1</ele>
        <time>2021-08-21T17:32:04Z</time>
      </trkpt>
      <trkpt lat="2.735043" lon="-75.06979">
        <ele>2139.2</ele>
        <time>2021-08-21T17:32:05Z</time>
      </trkpt>
      <trkpt lat="2.735037" lon="-75.06982">
        <ele>2139.2</ele>
        <time>2021-08-21T17:32:06Z</time>
      </trkpt>
      <trkpt lat="2.735031" lon="-75.06984">
        <ele>2139.2</ele>
        <time>2021-08-21T17:32:07Z</time>
      </trkpt>
      <trkpt lat="2.735025" lon="-75.06986">
        <ele>2139.2</ele>
        <time>2021-08-21T17:32:08Z</time>
      </trkpt>
      <trkpt lat="2.735021" lon="-75.069885">
        <ele>2139.2</ele>
        <time>2021-08-21T17:32:09Z</time>
      </trkpt>
      <trkpt lat="2.735017" lon="-75.0699">
        <ele>2139.3</ele>
        <time>2021-08-21T17:32:10Z</time>
      </trkpt>
      <trkpt lat="2.735012" lon="-75.06992">
        <ele>2139.3</ele>
        <time>2021-08-21T17:32:11Z</time>
      </trkpt>
      <trkpt lat="2.735008" lon="-75.06995">
        <ele>2139.3</ele>
        <time>2021-08-21T17:32:12Z</time>
      </trkpt>
      <trkpt lat="2.735003" lon="-75.06996">
        <ele>2139.3</ele>
        <time>2021-08-21T17:32:13Z</time>
      </trkpt>
      <trkpt lat="2.735" lon="-75.069984">
        <ele>2139.3</ele>
        <time>2021-08-21T17:32:14Z</time>
      </trkpt>
      <trkpt lat="2.734995" lon="-75.07001">
        <ele>2139.3</ele>
        <time>2021-08-21T17:32:15Z</time>
      </trkpt>
      <trkpt lat="2.734992" lon="-75.07003">
        <ele>2139.4</ele>
        <time>2021-08-21T17:32:16Z</time>
      </trkpt>
      <trkpt lat="2.734992" lon="-75.07005">
        <ele>2139.4</ele>
        <time>2021-08-21T17:32:17Z</time>
      </trkpt>
      <trkpt lat="2.734992" lon="-75.070076">
        <ele>2139.4</ele>
        <time>2021-08-21T17:32:18Z</time>
      </trkpt>
      <trkpt lat="2.734995" lon="-75.0701">
        <ele>2139.4</ele>
        <time>2021-08-21T17:32:19Z</time>
      </trkpt>
      <trkpt lat="2.734996" lon="-75.07013">
        <ele>2139.4</ele>
        <time>2021-08-21T17:32:20Z</time>
      </trkpt>
      <trkpt lat="2.734997" lon="-75.07015">
        <ele>2139.5</ele>
        <time>2021-08-21T17:32:21Z</time>
      </trkpt>
      <trkpt lat="2.734998" lon="-75.07018">
        <ele>2139.5</ele>
        <time>2021-08-21T17:32:22Z</time>
      </trkpt>
      <trkpt lat="2.735" lon="-75.07021">
        <ele>2139.6</ele>
        <time>2021-08-21T17:32:23Z</time>
      </trkpt>
      <trkpt lat="2.735003" lon="-75.070244">
        <ele>2139.6</ele>
        <time>2021-08-21T17:32:24Z</time>
      </trkpt>
      <trkpt lat="2.735007" lon="-75.070274">
        <ele>2139.6</ele>
        <time>2021-08-21T17:32:25Z</time>
      </trkpt>
      <trkpt lat="2.73501" lon="-75.070305">
        <ele>2139.7</ele>
        <time>2021-08-21T17:32:26Z</time>
      </trkpt>
      <trkpt lat="2.735013" lon="-75.070335">
        <ele>2139.7</ele>
        <time>2021-08-21T17:32:27Z</time>
      </trkpt>
      <trkpt lat="2.735015" lon="-75.070366">
        <ele>2139.8</ele>
        <time>2021-08-21T17:32:28Z</time>
      </trkpt>
      <trkpt lat="2.735018" lon="-75.0704">
        <ele>2139.8</ele>
        <time>2021-08-21T17:32:29Z</time>
      </trkpt>
      <trkpt lat="2.735021" lon="-75.07043">
        <ele>2139.9</ele>
        <time>2021-08-21T17:32:30Z</time>
      </trkpt>
      <trkpt lat="2.735025" lon="-75.070465">
        <ele>2139.9</ele>
        <time>2021-08-21T17:32:31Z</time>
      </trkpt>
      <trkpt lat="2.735028" lon="-75.070496">
        <ele>2139.9</ele>
        <time>2021-08-21T17:32:32Z</time>
      </trkpt>
      <trkpt lat="2.735031" lon="-75.070526">
        <ele>2140.0</ele>
        <time>2021-08-21T17:32:33Z</time>
      </trkpt>
      <trkpt lat="2.735032" lon="-75.07056">
        <ele>2140.0</ele>
        <time>2021-08-21T17:32:34Z</time>
      </trkpt>
      <trkpt lat="2.735033" lon="-75.07059">
        <ele>2140.1</ele>
        <time>2021-08-21T17:32:35Z</time>
      </trkpt>
      <trkpt lat="2.735034" lon="-75.07061">
        <ele>2140.1</ele>
        <time>2021-08-21T17:32:36Z</time>
      </trkpt>
      <trkpt lat="2.735034" lon="-75.07064">
        <ele>2140.2</ele>
        <time>2021-08-21T17:32:37Z</time>
      </trkpt>
      <trkpt lat="2.735034" lon="-75.07067">
        <ele>2140.2</ele>
        <time>2021-08-21T17:32:38Z</time>
      </trkpt>
      <trkpt lat="2.735033" lon="-75.0707">
        <ele>2140.2</ele>
        <time>2021-08-21T17:32:39Z</time>
      </trkpt>
      <trkpt lat="2.735031" lon="-75.07073">
        <ele>2140.3</ele>
        <time>2021-08-21T17:32:40Z</time>
      </trkpt>
      <trkpt lat="2.735028" lon="-75.07076">
        <ele>2140.3</ele>
        <time>2021-08-21T17:32:41Z</time>
      </trkpt>
      <trkpt lat="2.735025" lon="-75.070786">
        <ele>2140.4</ele>
        <time>2021-08-21T17:32:42Z</time>
      </trkpt>
      <trkpt lat="2.735022" lon="-75.070816">
        <ele>2140.4</ele>
        <time>2021-08-21T17:32:43Z</time>
      </trkpt>
      <trkpt lat="2.735018" lon="-75.07085">
        <ele>2140.5</ele>
        <time>2021-08-21T17:32:44Z</time>
      </trkpt>
      <trkpt lat="2.735013" lon="-75.07087">
        <ele>2140.5</ele>
        <time>2021-08-21T17:32:45Z</time>
      </trkpt>
      <trkpt lat="2.735008" lon="-75.07089">
        <ele>2140.5</ele>
        <time>2021-08-21T17:32:46Z</time>
      </trkpt>
      <trkpt lat="2.735003" lon="-75.070915">
        <ele>2140.6</ele>
        <time>2021-08-21T17:32:47Z</time>
      </trkpt>
      <trkpt lat="2.734998" lon="-75.07094">
        <ele>2140.6</ele>
        <time>2021-08-21T17:32:48Z</time>
      </trkpt>
      <trkpt lat="2.734994" lon="-75.07096">
        <ele>2140.6</ele>
        <time>2021-08-21T17:32:49Z</time>
      </trkpt>
      <trkpt lat="2.734988" lon="-75.070984">
        <ele>2140.7</ele>
        <time>2021-08-21T17:32:50Z</time>
      </trkpt>
      <trkpt lat="2.734982" lon="-75.07101">
        <ele>2140.7</ele>
        <time>2021-08-21T17:32:51Z</time>
      </trkpt>
      <trkpt lat="2.734975" lon="-75.07102">
        <ele>2140.7</ele>
        <time>2021-08-21T17:32:52Z</time>
      </trkpt>
      <trkpt lat="2.73497" lon="-75.071045">
        <ele>2140.7</ele>
        <time>2021-08-21T17:32:53Z</time>
      </trkpt>
      <trkpt lat="2.734964" lon="-75.07107">
        <ele>2140.8</ele>
        <time>2021-08-21T17:32:54Z</time>
      </trkpt>
      <trkpt lat="2.734955" lon="-75.07109">
        <ele>2140.8</ele>
        <time>2021-08-21T17:32:55Z</time>
      </trkpt>
      <trkpt lat="2.734944" lon="-75.07111">
        <ele>2140.8</ele>
        <time>2021-08-21T17:32:56Z</time>
      </trkpt>
      <trkpt lat="2.734934" lon="-75.07114">
        <ele>2140.9</ele>
        <time>2021-08-21T17:32:57Z</time>
      </trkpt>
      <trkpt lat="2.734921" lon="-75.07115">
        <ele>2140.9</ele>
        <time>2021-08-21T17:32:58Z</time>
      </trkpt>
      <trkpt lat="2.734907" lon="-75.071175">
        <ele>2140.9</ele>
        <time>2021-08-21T17:32:59Z</time>
      </trkpt>
      <trkpt lat="2.734892" lon="-75.0712">
        <ele>2140.9</ele>
        <time>2021-08-21T17:33:00Z</time>
      </trkpt>
      <trkpt lat="2.734879" lon="-75.07122">
        <ele>2141.0</ele>
        <time>2021-08-21T17:33:01Z</time>
      </trkpt>
      <trkpt lat="2.734867" lon="-75.07125">
        <ele>2141.0</ele>
        <time>2021-08-21T17:33:02Z</time>
      </trkpt>
      <trkpt lat="2.734854" lon="-75.07127">
        <ele>2141.0</ele>
        <time>2021-08-21T17:33:03Z</time>
      </trkpt>
      <trkpt lat="2.734841" lon="-75.0713">
        <ele>2141.0</ele>
        <time>2021-08-21T17:33:04Z</time>
      </trkpt>
      <trkpt lat="2.734827" lon="-75.07133">
        <ele>2141.1</ele>
        <time>2021-08-21T17:33:05Z</time>
      </trkpt>
      <trkpt lat="2.734813" lon="-75.07136">
        <ele>2141.1</ele>
        <time>2021-08-21T17:33:06Z</time>
      </trkpt>
      <trkpt lat="2.7348" lon="-75.07138">
        <ele>2141.1</ele>
        <time>2021-08-21T17:33:07Z</time>
      </trkpt>
      <trkpt lat="2.734786" lon="-75.0714">
        <ele>2141.2</ele>
        <time>2021-08-21T17:33:08Z</time>
      </trkpt>
      <trkpt lat="2.734771" lon="-75.071434">
        <ele>2141.2</ele>
        <time>2021-08-21T17:33:09Z</time>
      </trkpt>
      <trkpt lat="2.734757" lon="-75.07146">
        <ele>2141.3</ele>
        <time>2021-08-21T17:33:10Z</time>
      </trkpt>
      <trkpt lat="2.734741" lon="-75.07149">
        <ele>2141.3</ele>
        <time>2021-08-21T17:33:11Z</time>
      </trkpt>
      <trkpt lat="2.734727" lon="-75.07151">
        <ele>2141.3</ele>
        <time>2021-08-21T17:33:12Z</time>
      </trkpt>
      <trkpt lat="2.734714" lon="-75.07153">
        <ele>2141.4</ele>
        <time>2021-08-21T17:33:13Z</time>
      </trkpt>
      <trkpt lat="2.734701" lon="-75.071556">
        <ele>2141.4</ele>
        <time>2021-08-21T17:33:14Z</time>
      </trkpt>
      <trkpt lat="2.73469" lon="-75.07158">
        <ele>2141.4</ele>
        <time>2021-08-21T17:33:15Z</time>
      </trkpt>
      <trkpt lat="2.734681" lon="-75.0716">
        <ele>2141.5</ele>
        <time>2021-08-21T17:33:16Z</time>
      </trkpt>
      <trkpt lat="2.734672" lon="-75.071625">
        <ele>2141.5</ele>
        <time>2021-08-21T17:33:17Z</time>
      </trkpt>
      <trkpt lat="2.734665" lon="-75.07165">
        <ele>2141.6</ele>
        <time>2021-08-21T17:33:18Z</time>
      </trkpt>
      <trkpt lat="2.734657" lon="-75.07167">
        <ele>2141.6</ele>
        <time>2021-08-21T17:33:19Z</time>
      </trkpt>
      <trkpt lat="2.734649" lon="-75.07169">
        <ele>2141.7</ele>
        <time>2021-08-21T17:33:20Z</time>
      </trkpt>
      <trkpt lat="2.734643" lon="-75.07172">
        <ele>2141.7</ele>
        <time>2021-08-21T17:33:21Z</time>
      </trkpt>
      <trkpt lat="2.734638" lon="-75.07174">
        <ele>2141.8</ele>
        <time>2021-08-21T17:33:22Z</time>
      </trkpt>
      <trkpt lat="2.734634" lon="-75.07176">
        <ele>2141.8</ele>
        <time>2021-08-21T17:33:23Z</time>
      </trkpt>
      <trkpt lat="2.734631" lon="-75.071785">
        <ele>2141.8</ele>
        <time>2021-08-21T17:33:24Z</time>
      </trkpt>
      <trkpt lat="2.734628" lon="-75.07181">
        <ele>2141.9</ele>
        <time>2021-08-21T17:33:25Z</time>
      </trkpt>
      <trkpt lat="2.734626" lon="-75.07182">
        <ele>2141.9</ele>
        <time>2021-08-21T17:33:26Z</time>
      </trkpt>
      <trkpt lat="2.734624" lon="-75.071846">
        <ele>2141.9</ele>
        <time>2021-08-21T17:33:27Z</time>
      </trkpt>
      <trkpt lat="2.734622" lon="-75.07186">
        <ele>2141.9</ele>
        <time>2021-08-21T17:33:28Z</time>
      </trkpt>
      <trkpt lat="2.73462" lon="-75.071884">
        <ele>2141.9</ele>
        <time>2021-08-21T17:33:29Z</time>
      </trkpt>
      <trkpt lat="2.734618" lon="-75.0719">
        <ele>2141.9</ele>
        <time>2021-08-21T17:33:30Z</time>
      </trkpt>
      <trkpt lat="2.734616" lon="-75.07192">
        <ele>2142.0</ele>
        <time>2021-08-21T17:33:31Z</time>
      </trkpt>
      <trkpt lat="2.734616" lon="-75.071945">
        <ele>2142.0</ele>
        <time>2021-08-21T17:33:32Z</time>
      </trkpt>
      <trkpt lat="2.734617" lon="-75.07196">
        <ele>2142.1</ele>
        <time>2021-08-21T17:33:33Z</time>
      </trkpt>
      <trkpt lat="2.734619" lon="-75.07198">
        <ele>2142.2</ele>
        <time>2021-08-21T17:33:34Z</time>
      </trkpt>
      <trkpt lat="2.734622" lon="-75.07201">
        <ele>2142.3</ele>
        <time>2021-08-21T17:33:35Z</time>
      </trkpt>
      <trkpt lat="2.734627" lon="-75.07203">
        <ele>2142.3</ele>
        <time>2021-08-21T17:33:36Z</time>
      </trkpt>
      <trkpt lat="2.734633" lon="-75.07205">
        <ele>2142.4</ele>
        <time>2021-08-21T17:33:37Z</time>
      </trkpt>
      <trkpt lat="2.734639" lon="-75.072075">
        <ele>2142.5</ele>
        <time>2021-08-21T17:33:38Z</time>
      </trkpt>
      <trkpt lat="2.734646" lon="-75.0721">
        <ele>2142.5</ele>
        <time>2021-08-21T17:33:39Z</time>
      </trkpt>
      <trkpt lat="2.734653" lon="-75.07212">
        <ele>2142.6</ele>
        <time>2021-08-21T17:33:40Z</time>
      </trkpt>
      <trkpt lat="2.734663" lon="-75.07214">
        <ele>2142.6</ele>
        <time>2021-08-21T17:33:41Z</time>
      </trkpt>
      <trkpt lat="2.734673" lon="-75.07217">
        <ele>2142.6</ele>
        <time>2021-08-21T17:33:42Z</time>
      </trkpt>
      <trkpt lat="2.734686" lon="-75.07219">
        <ele>2142.6</ele>
        <time>2021-08-21T17:33:43Z</time>
      </trkpt>
      <trkpt lat="2.7347" lon="-75.07221">
        <ele>2142.6</ele>
        <time>2021-08-21T17:33:44Z</time>
      </trkpt>
      <trkpt lat="2.734716" lon="-75.07223">
        <ele>2142.6</ele>
        <time>2021-08-21T17:33:45Z</time>
      </trkpt>
      <trkpt lat="2.734734" lon="-75.07225">
        <ele>2142.6</ele>
        <time>2021-08-21T17:33:46Z</time>
      </trkpt>
      <trkpt lat="2.734754" lon="-75.072266">
        <ele>2142.6</ele>
        <time>2021-08-21T17:33:47Z</time>
      </trkpt>
      <trkpt lat="2.734777" lon="-75.07227">
        <ele>2142.6</ele>
        <time>2021-08-21T17:33:48Z</time>
      </trkpt>
      <trkpt lat="2.734802" lon="-75.07228">
        <ele>2142.6</ele>
        <time>2021-08-21T17:33:49Z</time>
      </trkpt>
      <trkpt lat="2.734827" lon="-75.07229">
        <ele>2142.7</ele>
        <time>2021-08-21T17:33:50Z</time>
      </trkpt>
      <trkpt lat="2.734854" lon="-75.072296">
        <ele>2142.7</ele>
        <time>2021-08-21T17:33:51Z</time>
      </trkpt>
      <trkpt lat="2.734882" lon="-75.072296">
        <ele>2142.7</ele>
        <time>2021-08-21T17:33:52Z</time>
      </trkpt>
      <trkpt lat="2.734908" lon="-75.072296">
        <ele>2142.7</ele>
        <time>2021-08-21T17:33:53Z</time>
      </trkpt>
      <trkpt lat="2.734934" lon="-75.07229">
        <ele>2142.8</ele>
        <time>2021-08-21T17:33:54Z</time>
      </trkpt>
      <trkpt lat="2.734961" lon="-75.07228">
        <ele>2142.8</ele>
        <time>2021-08-21T17:33:55Z</time>
      </trkpt>
      <trkpt lat="2.734988" lon="-75.072266">
        <ele>2142.8</ele>
        <time>2021-08-21T17:33:56Z</time>
      </trkpt>
      <trkpt lat="2.735013" lon="-75.07225">
        <ele>2142.8</ele>
        <time>2021-08-21T17:33:57Z</time>
      </trkpt>
      <trkpt lat="2.735041" lon="-75.07224">
        <ele>2142.9</ele>
        <time>2021-08-21T17:33:58Z</time>
      </trkpt>
      <trkpt lat="2.735071" lon="-75.07222">
        <ele>2142.9</ele>
        <time>2021-08-21T17:33:59Z</time>
      </trkpt>
      <trkpt lat="2.735103" lon="-75.072205">
        <ele>2142.9</ele>
        <time>2021-08-21T17:34:00Z</time>
      </trkpt>
      <trkpt lat="2.735135" lon="-75.07218">
        <ele>2143.0</ele>
        <time>2021-08-21T17:34:01Z</time>
      </trkpt>
      <trkpt lat="2.735168" lon="-75.07217">
        <ele>2143.1</ele>
        <time>2021-08-21T17:34:02Z</time>
      </trkpt>
      <trkpt lat="2.7352" lon="-75.07214">
        <ele>2143.2</ele>
        <time>2021-08-21T17:34:03Z</time>
      </trkpt>
      <trkpt lat="2.735232" lon="-75.07213">
        <ele>2143.2</ele>
        <time>2021-08-21T17:34:04Z</time>
      </trkpt>
      <trkpt lat="2.735263" lon="-75.072105">
        <ele>2143.3</ele>
        <time>2021-08-21T17:34:05Z</time>
      </trkpt>
      <trkpt lat="2.735294" lon="-75.07209">
        <ele>2143.4</ele>
        <time>2021-08-21T17:34:06Z</time>
      </trkpt>
      <trkpt lat="2.735326" lon="-75.07207">
        <ele>2143.5</ele>
        <time>2021-08-21T17:34:07Z</time>
      </trkpt>
      <trkpt lat="2.735356" lon="-75.072044">
        <ele>2143.6</ele>
        <time>2021-08-21T17:34:08Z</time>
      </trkpt>
      <trkpt lat="2.735389" lon="-75.07203">
        <ele>2143.6</ele>
        <time>2021-08-21T17:34:09Z</time>
      </trkpt>
      <trkpt lat="2.735422" lon="-75.072014">
        <ele>2143.7</ele>
        <time>2021-08-21T17:34:10Z</time>
      </trkpt>
      <trkpt lat="2.735455" lon="-75.07199">
        <ele>2143.8</ele>
        <time>2021-08-21T17:34:11Z</time>
      </trkpt>
      <trkpt lat="2.735489" lon="-75.071976">
        <ele>2143.9</ele>
        <time>2021-08-21T17:34:12Z</time>
      </trkpt>
      <trkpt lat="2.735522" lon="-75.07196">
        <ele>2144.0</ele>
        <time>2021-08-21T17:34:13Z</time>
      </trkpt>
      <trkpt lat="2.735556" lon="-75.071945">
        <ele>2144.0</ele>
        <time>2021-08-21T17:34:14Z</time>
      </trkpt>
      <trkpt lat="2.735589" lon="-75.07193">
        <ele>2144.1</ele>
        <time>2021-08-21T17:34:15Z</time>
      </trkpt>
      <trkpt lat="2.735621" lon="-75.07192">
        <ele>2144.2</ele>
        <time>2021-08-21T17:34:16Z</time>
      </trkpt>
      <trkpt lat="2.735652" lon="-75.07191">
        <ele>2144.2</ele>
        <time>2021-08-21T17:34:17Z</time>
      </trkpt>
      <trkpt lat="2.735683" lon="-75.07189">
        <ele>2144.3</ele>
        <time>2021-08-21T17:34:18Z</time>
      </trkpt>
      <trkpt lat="2.735714" lon="-75.07188">
        <ele>2144.3</ele>
        <time>2021-08-21T17:34:19Z</time>
      </trkpt>
      <trkpt lat="2.735745" lon="-75.07186">
        <ele>2144.4</ele>
        <time>2021-08-21T17:34:20Z</time>
      </trkpt>
      <trkpt lat="2.735778" lon="-75.071846">
        <ele>2144.5</ele>
        <time>2021-08-21T17:34:21Z</time>
      </trkpt>
      <trkpt lat="2.735811" lon="-75.07184">
        <ele>2144.6</ele>
        <time>2021-08-21T17:34:22Z</time>
      </trkpt>
      <trkpt lat="2.735844" lon="-75.07182">
        <ele>2144.7</ele>
        <time>2021-08-21T17:34:23Z</time>
      </trkpt>
      <trkpt lat="2.735878" lon="-75.07181">
        <ele>2144.8</ele>
        <time>2021-08-21T17:34:24Z</time>
      </trkpt>
      <trkpt lat="2.735914" lon="-75.0718">
        <ele>2145.0</ele>
        <time>2021-08-21T17:34:25Z</time>
      </trkpt>
      <trkpt lat="2.735951" lon="-75.07179">
        <ele>2145.1</ele>
        <time>2021-08-21T17:34:26Z</time>
      </trkpt>
      <trkpt lat="2.73599" lon="-75.07179">
        <ele>2145.2</ele>
        <time>2021-08-21T17:34:27Z</time>
      </trkpt>
      <trkpt lat="2.73603" lon="-75.07179">
        <ele>2145.3</ele>
        <time>2021-08-21T17:34:28Z</time>
      </trkpt>
      <trkpt lat="2.73607" lon="-75.0718">
        <ele>2145.4</ele>
        <time>2021-08-21T17:34:29Z</time>
      </trkpt>
      <trkpt lat="2.736107" lon="-75.07181">
        <ele>2145.5</ele>
        <time>2021-08-21T17:34:30Z</time>
      </trkpt>
      <trkpt lat="2.73614" lon="-75.07182">
        <ele>2145.6</ele>
        <time>2021-08-21T17:34:31Z</time>
      </trkpt>
      <trkpt lat="2.736169" lon="-75.07184">
        <ele>2145.7</ele>
        <time>2021-08-21T17:34:32Z</time>
      </trkpt>
      <trkpt lat="2.736193" lon="-75.07186">
        <ele>2145.7</ele>
        <time>2021-08-21T17:34:33Z</time>
      </trkpt>
      <trkpt lat="2.736212" lon="-75.07189">
        <ele>2145.8</ele>
        <time>2021-08-21T17:34:34Z</time>
      </trkpt>
      <trkpt lat="2.736226" lon="-75.071915">
        <ele>2145.9</ele>
        <time>2021-08-21T17:34:35Z</time>
      </trkpt>
      <trkpt lat="2.736234" lon="-75.07195">
        <ele>2146.0</ele>
        <time>2021-08-21T17:34:36Z</time>
      </trkpt>
      <trkpt lat="2.736237" lon="-75.07198">
        <ele>2146.1</ele>
        <time>2021-08-21T17:34:37Z</time>
      </trkpt>
      <trkpt lat="2.736236" lon="-75.072014">
        <ele>2146.1</ele>
        <time>2021-08-21T17:34:38Z</time>
      </trkpt>
      <trkpt lat="2.736233" lon="-75.072044">
        <ele>2146.2</ele>
        <time>2021-08-21T17:34:39Z</time>
      </trkpt>
      <trkpt lat="2.736225" lon="-75.07208">
        <ele>2146.3</ele>
        <time>2021-08-21T17:34:40Z</time>
      </trkpt>
      <trkpt lat="2.736214" lon="-75.072105">
        <ele>2146.3</ele>
        <time>2021-08-21T17:34:41Z</time>
      </trkpt>
      <trkpt lat="2.7362" lon="-75.072136">
        <ele>2146.3</ele>
        <time>2021-08-21T17:34:42Z</time>
      </trkpt>
      <trkpt lat="2.736184" lon="-75.07217">
        <ele>2146.3</ele>
        <time>2021-08-21T17:34:43Z</time>
      </trkpt>
      <trkpt lat="2.736165" lon="-75.07219">
        <ele>2146.4</ele>
        <time>2021-08-21T17:34:44Z</time>
      </trkpt>
      <trkpt lat="2.736146" lon="-75.07222">
        <ele>2146.4</ele>
        <time>2021-08-21T17:34:45Z</time>
      </trkpt>
      <trkpt lat="2.736124" lon="-75.07224">
        <ele>2146.5</ele>
        <time>2021-08-21T17:34:46Z</time>
      </trkpt>
      <trkpt lat="2.736101" lon="-75.072266">
        <ele>2146.5</ele>
        <time>2021-08-21T17:34:47Z</time>
      </trkpt>
      <trkpt lat="2.736077" lon="-75.07229">
        <ele>2146.6</ele>
        <time>2021-08-21T17:34:48Z</time>
      </trkpt>
      <trkpt lat="2.736052" lon="-75.07231">
        <ele>2146.6</ele>
        <time>2021-08-21T17:34:49Z</time>
      </trkpt>
      <trkpt lat="2.736025" lon="-75.072334">
        <ele>2146.7</ele>
        <time>2021-08-21T17:34:50Z</time>
      </trkpt>
      <trkpt lat="2.735997" lon="-75.07236">
        <ele>2146.8</ele>
        <time>2021-08-21T17:34:51Z</time>
      </trkpt>
      <trkpt lat="2.735968" lon="-75.07237">
        <ele>2146.8</ele>
        <time>2021-08-21T17:34:52Z</time>
      </trkpt>
      <trkpt lat="2.73594" lon="-75.072395">
        <ele>2146.9</ele>
        <time>2021-08-21T17:34:53Z</time>
      </trkpt>
      <trkpt lat="2.735914" lon="-75.07241">
        <ele>2147.0</ele>
        <time>2021-08-21T17:34:54Z</time>
      </trkpt>
      <trkpt lat="2.735891" lon="-75.072426">
        <ele>2147.0</ele>
        <time>2021-08-21T17:34:55Z</time>
      </trkpt>
      <trkpt lat="2.735866" lon="-75.07245">
        <ele>2147.1</ele>
        <time>2021-08-21T17:34:56Z</time>
      </trkpt>
      <trkpt lat="2.735843" lon="-75.072464">
        <ele>2147.2</ele>
        <time>2021-08-21T17:34:57Z</time>
      </trkpt>
      <trkpt lat="2.735818" lon="-75.07249">
        <ele>2147.3</ele>
        <time>2021-08-21T17:34:58Z</time>
      </trkpt>
      <trkpt lat="2.735794" lon="-75.07252">
        <ele>2147.4</ele>
        <time>2021-08-21T17:34:59Z</time>
      </trkpt>
      <trkpt lat="2.735769" lon="-75.07254">
        <ele>2147.5</ele>
        <time>2021-08-21T17:35:00Z</time>
      </trkpt>
      <trkpt lat="2.735746" lon="-75.07256">
        <ele>2147.7</ele>
        <time>2021-08-21T17:35:01Z</time>
      </trkpt>
      <trkpt lat="2.735723" lon="-75.07259">
        <ele>2147.8</ele>
        <time>2021-08-21T17:35:02Z</time>
      </trkpt>
      <trkpt lat="2.735701" lon="-75.072624">
        <ele>2147.9</ele>
        <time>2021-08-21T17:35:03Z</time>
      </trkpt>
      <trkpt lat="2.735679" lon="-75.072655">
        <ele>2148.0</ele>
        <time>2021-08-21T17:35:04Z</time>
      </trkpt>
      <trkpt lat="2.735657" lon="-75.07268">
        <ele>2148.1</ele>
        <time>2021-08-21T17:35:05Z</time>
      </trkpt>
      <trkpt lat="2.735636" lon="-75.07271">
        <ele>2148.2</ele>
        <time>2021-08-21T17:35:06Z</time>
      </trkpt>
      <trkpt lat="2.735615" lon="-75.07274">
        <ele>2148.3</ele>
        <time>2021-08-21T17:35:07Z</time>
      </trkpt>
      <trkpt lat="2.735596" lon="-75.07277">
        <ele>2148.4</ele>
        <time>2021-08-21T17:35:08Z</time>
      </trkpt>
      <trkpt lat="2.735577" lon="-75.0728">
        <ele>2148.5</ele>
        <time>2021-08-21T17:35:09Z</time>
      </trkpt>
      <trkpt lat="2.73556" lon="-75.07282">
        <ele>2148.7</ele>
        <time>2021-08-21T17:35:10Z</time>
      </trkpt>
      <trkpt lat="2.735543" lon="-75.072845">
        <ele>2148.8</ele>
        <time>2021-08-21T17:35:11Z</time>
      </trkpt>
      <trkpt lat="2.735526" lon="-75.07287">
        <ele>2148.9</ele>
        <time>2021-08-21T17:35:12Z</time>
      </trkpt>
      <trkpt lat="2.735512" lon="-75.0729">
        <ele>2149.0</ele>
        <time>2021-08-21T17:35:13Z</time>
      </trkpt>
      <trkpt lat="2.735501" lon="-75.07293">
        <ele>2149.1</ele>
        <time>2021-08-21T17:35:14Z</time>
      </trkpt>
      <trkpt lat="2.735493" lon="-75.07295">
        <ele>2149.2</ele>
        <time>2021-08-21T17:35:15Z</time>
      </trkpt>
      <trkpt lat="2.735488" lon="-75.07298">
        <ele>2149.3</ele>
        <time>2021-08-21T17:35:16Z</time>
      </trkpt>
      <trkpt lat="2.735487" lon="-75.07301">
        <ele>2149.4</ele>
        <time>2021-08-21T17:35:17Z</time>
      </trkpt>
      <trkpt lat="2.735488" lon="-75.07304">
        <ele>2149.4</ele>
        <time>2021-08-21T17:35:18Z</time>
      </trkpt>
      <trkpt lat="2.735492" lon="-75.07306">
        <ele>2149.5</ele>
        <time>2021-08-21T17:35:19Z</time>
      </trkpt>
      <trkpt lat="2.735498" lon="-75.07309">
        <ele>2149.5</ele>
        <time>2021-08-21T17:35:20Z</time>
      </trkpt>
      <trkpt lat="2.735506" lon="-75.07311">
        <ele>2149.6</ele>
        <time>2021-08-21T17:35:21Z</time>
      </trkpt>
      <trkpt lat="2.735517" lon="-75.07314">
        <ele>2149.6</ele>
        <time>2021-08-21T17:35:22Z</time>
      </trkpt>
      <trkpt lat="2.73553" lon="-75.07317">
        <ele>2149.7</ele>
        <time>2021-08-21T17:35:23Z</time>
      </trkpt>
      <trkpt lat="2.735545" lon="-75.073204">
        <ele>2149.7</ele>
        <time>2021-08-21T17:35:24Z</time>
      </trkpt>
      <trkpt lat="2.735557" lon="-75.073235">
        <ele>2149.8</ele>
        <time>2021-08-21T17:35:25Z</time>
      </trkpt>
      <trkpt lat="2.735566" lon="-75.07327">
        <ele>2149.8</ele>
        <time>2021-08-21T17:35:26Z</time>
      </trkpt>
      <trkpt lat="2.735572" lon="-75.0733">
        <ele>2149.9</ele>
        <time>2021-08-21T17:35:27Z</time>
      </trkpt>
      <trkpt lat="2.735573" lon="-75.07333">
        <ele>2150.0</ele>
        <time>2021-08-21T17:35:28Z</time>
      </trkpt>
      <trkpt lat="2.735571" lon="-75.07337">
        <ele>2150.0</ele>
        <time>2021-08-21T17:35:29Z</time>
      </trkpt>
      <trkpt lat="2.735563" lon="-75.0734">
        <ele>2150.1</ele>
        <time>2021-08-21T17:35:30Z</time>
      </trkpt>
      <trkpt lat="2.735552" lon="-75.073425">
        <ele>2150.2</ele>
        <time>2021-08-21T17:35:31Z</time>
      </trkpt>
      <trkpt lat="2.735538" lon="-75.073456">
        <ele>2150.3</ele>
        <time>2021-08-21T17:35:32Z</time>
      </trkpt>
      <trkpt lat="2.735522" lon="-75.07348">
        <ele>2150.4</ele>
        <time>2021-08-21T17:35:33Z</time>
      </trkpt>
      <trkpt lat="2.735506" lon="-75.07351">
        <ele>2150.5</ele>
        <time>2021-08-21T17:35:34Z</time>
      </trkpt>
      <trkpt lat="2.735491" lon="-75.07353">
        <ele>2150.6</ele>
        <time>2021-08-21T17:35:35Z</time>
      </trkpt>
      <trkpt lat="2.735478" lon="-75.07356">
        <ele>2150.7</ele>
        <time>2021-08-21T17:35:36Z</time>
      </trkpt>
      <trkpt lat="2.735467" lon="-75.073586">
        <ele>2150.8</ele>
        <time>2021-08-21T17:35:37Z</time>
      </trkpt>
      <trkpt lat="2.735459" lon="-75.073616">
        <ele>2150.9</ele>
        <time>2021-08-21T17:35:38Z</time>
      </trkpt>
      <trkpt lat="2.735453" lon="-75.07365">
        <ele>2151.0</ele>
        <time>2021-08-21T17:35:39Z</time>
      </trkpt>
      <trkpt lat="2.735452" lon="-75.07368">
        <ele>2151.1</ele>
        <time>2021-08-21T17:35:40Z</time>
      </trkpt>
      <trkpt lat="2.735454" lon="-75.07371">
        <ele>2151.2</ele>
        <time>2021-08-21T17:35:41Z</time>
      </trkpt>
      <trkpt lat="2.73546" lon="-75.07373">
        <ele>2151.2</ele>
        <time>2021-08-21T17:35:42Z</time>
      </trkpt>
      <trkpt lat="2.735471" lon="-75.07375">
        <ele>2151.3</ele>
        <time>2021-08-21T17:35:43Z</time>
      </trkpt>
      <trkpt lat="2.735486" lon="-75.07378">
        <ele>2151.4</ele>
        <time>2021-08-21T17:35:44Z</time>
      </trkpt>
      <trkpt lat="2.735501" lon="-75.07379">
        <ele>2151.5</ele>
        <time>2021-08-21T17:35:45Z</time>
      </trkpt>
      <trkpt lat="2.735519" lon="-75.07381">
        <ele>2151.5</ele>
        <time>2021-08-21T17:35:46Z</time>
      </trkpt>
      <trkpt lat="2.735538" lon="-75.07383">
        <ele>2151.6</ele>
        <time>2021-08-21T17:35:47Z</time>
      </trkpt>
      <trkpt lat="2.73556" lon="-75.073845">
        <ele>2151.7</ele>
        <time>2021-08-21T17:35:48Z</time>
      </trkpt>
      <trkpt lat="2.735584" lon="-75.07386">
        <ele>2151.7</ele>
        <time>2021-08-21T17:35:49Z</time>
      </trkpt>
      <trkpt lat="2.73561" lon="-75.073875">
        <ele>2151.8</ele>
        <time>2021-08-21T17:35:50Z</time>
      </trkpt>
      <trkpt lat="2.735636" lon="-75.07389">
        <ele>2151.9</ele>
        <time>2021-08-21T17:35:51Z</time>
      </trkpt>
      <trkpt lat="2.735661" lon="-75.073906">
        <ele>2152.0</ele>
        <time>2021-08-21T17:35:52Z</time>
      </trkpt>
      <trkpt lat="2.735687" lon="-75.07392">
        <ele>2152.1</ele>
        <time>2021-08-21T17:35:52Z</time>
      </trkpt>
      <trkpt lat="2.735711" lon="-75.073944">
        <ele>2152.1</ele>
        <time>2021-08-21T17:35:53Z</time>
      </trkpt>
      <trkpt lat="2.735735" lon="-75.07397">
        <ele>2152.2</ele>
        <time>2021-08-21T17:35:54Z</time>
      </trkpt>
      <trkpt lat="2.735757" lon="-75.07399">
        <ele>2152.3</ele>
        <time>2021-08-21T17:35:55Z</time>
      </trkpt>
      <trkpt lat="2.735777" lon="-75.07402">
        <ele>2152.4</ele>
        <time>2021-08-21T17:35:56Z</time>
      </trkpt>
      <trkpt lat="2.735795" lon="-75.07404">
        <ele>2152.4</ele>
        <time>2021-08-21T17:35:57Z</time>
      </trkpt>
      <trkpt lat="2.73581" lon="-75.07407">
        <ele>2152.5</ele>
        <time>2021-08-21T17:35:58Z</time>
      </trkpt>
      <trkpt lat="2.735824" lon="-75.0741">
        <ele>2152.6</ele>
        <time>2021-08-21T17:35:59Z</time>
      </trkpt>
      <trkpt lat="2.735838" lon="-75.07413">
        <ele>2152.6</ele>
        <time>2021-08-21T17:36:00Z</time>
      </trkpt>
      <trkpt lat="2.735852" lon="-75.07415">
        <ele>2152.7</ele>
        <time>2021-08-21T17:36:01Z</time>
      </trkpt>
      <trkpt lat="2.735867" lon="-75.07418">
        <ele>2152.8</ele>
        <time>2021-08-21T17:36:02Z</time>
      </trkpt>
      <trkpt lat="2.735883" lon="-75.0742">
        <ele>2152.9</ele>
        <time>2021-08-21T17:36:03Z</time>
      </trkpt>
      <trkpt lat="2.735899" lon="-75.074234">
        <ele>2153.0</ele>
        <time>2021-08-21T17:36:04Z</time>
      </trkpt>
      <trkpt lat="2.735914" lon="-75.074265">
        <ele>2153.0</ele>
        <time>2021-08-21T17:36:05Z</time>
      </trkpt>
      <trkpt lat="2.735929" lon="-75.074295">
        <ele>2153.1</ele>
        <time>2021-08-21T17:36:06Z</time>
      </trkpt>
      <trkpt lat="2.735944" lon="-75.074326">
        <ele>2153.2</ele>
        <time>2021-08-21T17:36:07Z</time>
      </trkpt>
      <trkpt lat="2.735959" lon="-75.074356">
        <ele>2153.4</ele>
        <time>2021-08-21T17:36:08Z</time>
      </trkpt>
      <trkpt lat="2.735975" lon="-75.07439">
        <ele>2153.5</ele>
        <time>2021-08-21T17:36:09Z</time>
      </trkpt>
      <trkpt lat="2.735991" lon="-75.07442">
        <ele>2153.6</ele>
        <time>2021-08-21T17:36:10Z</time>
      </trkpt>
      <trkpt lat="2.736008" lon="-75.07445">
        <ele>2153.7</ele>
        <time>2021-08-21T17:36:11Z</time>
      </trkpt>
      <trkpt lat="2.736028" lon="-75.07448">
        <ele>2153.8</ele>
        <time>2021-08-21T17:36:12Z</time>
      </trkpt>
      <trkpt lat="2.736049" lon="-75.0745">
        <ele>2153.8</ele>
        <time>2021-08-21T17:36:13Z</time>
      </trkpt>
      <trkpt lat="2.736071" lon="-75.07453">
        <ele>2153.9</ele>
        <time>2021-08-21T17:36:14Z</time>
      </trkpt>
      <trkpt lat="2.736096" lon="-75.074554">
        <ele>2153.9</ele>
        <time>2021-08-21T17:36:15Z</time>
      </trkpt>
      <trkpt lat="2.736122" lon="-75.07457">
        <ele>2154.0</ele>
        <time>2021-08-21T17:36:16Z</time>
      </trkpt>
      <trkpt lat="2.73615" lon="-75.074585">
        <ele>2154.0</ele>
        <time>2021-08-21T17:36:17Z</time>
      </trkpt>
      <trkpt lat="2.736181" lon="-75.07459">
        <ele>2154.0</ele>
        <time>2021-08-21T17:36:18Z</time>
      </trkpt>
      <trkpt lat="2.736214" lon="-75.0746">
        <ele>2154.1</ele>
        <time>2021-08-21T17:36:19Z</time>
      </trkpt>
      <trkpt lat="2.736249" lon="-75.07461">
        <ele>2154.1</ele>
        <time>2021-08-21T17:36:20Z</time>
      </trkpt>
      <trkpt lat="2.736287" lon="-75.07461">
        <ele>2154.2</ele>
        <time>2021-08-21T17:36:21Z</time>
      </trkpt>
      <trkpt lat="2.736327" lon="-75.07461">
        <ele>2154.3</ele>
        <time>2021-08-21T17:36:22Z</time>
      </trkpt>
      <trkpt lat="2.736369" lon="-75.07461">
        <ele>2154.4</ele>
        <time>2021-08-21T17:36:23Z</time>
      </trkpt>
      <trkpt lat="2.736409" lon="-75.07461">
        <ele>2154.6</ele>
        <time>2021-08-21T17:36:24Z</time>
      </trkpt>
      <trkpt lat="2.736449" lon="-75.074615">
        <ele>2154.7</ele>
        <time>2021-08-21T17:36:25Z</time>
      </trkpt>
      <trkpt lat="2.736485" lon="-75.074615">
        <ele>2154.9</ele>
        <time>2021-08-21T17:36:26Z</time>
      </trkpt>
      <trkpt lat="2.736521" lon="-75.074615">
        <ele>2155.1</ele>
        <time>2021-08-21T17:36:27Z</time>
      </trkpt>
      <trkpt lat="2.736556" lon="-75.07462">
        <ele>2155.2</ele>
        <time>2021-08-21T17:36:28Z</time>
      </trkpt>
      <trkpt lat="2.736591" lon="-75.07463">
        <ele>2155.4</ele>
        <time>2021-08-21T17:36:29Z</time>
      </trkpt>
      <trkpt lat="2.736627" lon="-75.07464">
        <ele>2155.5</ele>
        <time>2021-08-21T17:36:30Z</time>
      </trkpt>
      <trkpt lat="2.736662" lon="-75.074646">
        <ele>2155.6</ele>
        <time>2021-08-21T17:36:31Z</time>
      </trkpt>
      <trkpt lat="2.736696" lon="-75.07466">
        <ele>2155.7</ele>
        <time>2021-08-21T17:36:32Z</time>
      </trkpt>
      <trkpt lat="2.736729" lon="-75.07468">
        <ele>2155.8</ele>
        <time>2021-08-21T17:36:33Z</time>
      </trkpt>
      <trkpt lat="2.73676" lon="-75.0747">
        <ele>2155.8</ele>
        <time>2021-08-21T17:36:34Z</time>
      </trkpt>
      <trkpt lat="2.736789" lon="-75.07472">
        <ele>2155.9</ele>
        <time>2021-08-21T17:36:35Z</time>
      </trkpt>
      <trkpt lat="2.736814" lon="-75.074745">
        <ele>2156.1</ele>
        <time>2021-08-21T17:36:36Z</time>
      </trkpt>
      <trkpt lat="2.736835" lon="-75.074776">
        <ele>2156.2</ele>
        <time>2021-08-21T17:36:37Z</time>
      </trkpt>
      <trkpt lat="2.736852" lon="-75.0748">
        <ele>2156.4</ele>
        <time>2021-08-21T17:36:38Z</time>
      </trkpt>
      <trkpt lat="2.736866" lon="-75.07483">
        <ele>2156.5</ele>
        <time>2021-08-21T17:36:39Z</time>
      </trkpt>
      <trkpt lat="2.736876" lon="-75.07486">
        <ele>2156.6</ele>
        <time>2021-08-21T17:36:40Z</time>
      </trkpt>
      <trkpt lat="2.736884" lon="-75.07489">
        <ele>2156.8</ele>
        <time>2021-08-21T17:36:41Z</time>
      </trkpt>
      <trkpt lat="2.736889" lon="-75.07492">
        <ele>2156.9</ele>
        <time>2021-08-21T17:36:42Z</time>
      </trkpt>
      <trkpt lat="2.736892" lon="-75.07495">
        <ele>2157.0</ele>
        <time>2021-08-21T17:36:43Z</time>
      </trkpt>
      <trkpt lat="2.736892" lon="-75.07498">
        <ele>2157.1</ele>
        <time>2021-08-21T17:36:44Z</time>
      </trkpt>
      <trkpt lat="2.736892" lon="-75.07501">
        <ele>2157.3</ele>
        <time>2021-08-21T17:36:45Z</time>
      </trkpt>
      <trkpt lat="2.73689" lon="-75.07505">
        <ele>2157.4</ele>
        <time>2021-08-21T17:36:46Z</time>
      </trkpt>
      <trkpt lat="2.736887" lon="-75.07509">
        <ele>2157.5</ele>
        <time>2021-08-21T17:36:47Z</time>
      </trkpt>
      <trkpt lat="2.736882" lon="-75.07512">
        <ele>2157.6</ele>
        <time>2021-08-21T17:36:48Z</time>
      </trkpt>
      <trkpt lat="2.736875" lon="-75.07516">
        <ele>2157.7</ele>
        <time>2021-08-21T17:36:49Z</time>
      </trkpt>
      <trkpt lat="2.736868" lon="-75.07519">
        <ele>2157.8</ele>
        <time>2021-08-21T17:36:50Z</time>
      </trkpt>
      <trkpt lat="2.73686" lon="-75.075226">
        <ele>2158.0</ele>
        <time>2021-08-21T17:36:51Z</time>
      </trkpt>
      <trkpt lat="2.736853" lon="-75.075264">
        <ele>2158.1</ele>
        <time>2021-08-21T17:36:52Z</time>
      </trkpt>
      <trkpt lat="2.736846" lon="-75.0753">
        <ele>2158.3</ele>
        <time>2021-08-21T17:36:53Z</time>
      </trkpt>
      <trkpt lat="2.736838" lon="-75.07534">
        <ele>2158.4</ele>
        <time>2021-08-21T17:36:54Z</time>
      </trkpt>
      <trkpt lat="2.736831" lon="-75.07537">
        <ele>2158.6</ele>
        <time>2021-08-21T17:36:55Z</time>
      </trkpt>
      <trkpt lat="2.736823" lon="-75.07541">
        <ele>2158.8</ele>
        <time>2021-08-21T17:36:56Z</time>
      </trkpt>
      <trkpt lat="2.736813" lon="-75.07545">
        <ele>2159.0</ele>
        <time>2021-08-21T17:36:57Z</time>
      </trkpt>
      <trkpt lat="2.736804" lon="-75.075485">
        <ele>2159.1</ele>
        <time>2021-08-21T17:36:58Z</time>
      </trkpt>
      <trkpt lat="2.736797" lon="-75.075516">
        <ele>2159.3</ele>
        <time>2021-08-21T17:36:59Z</time>
      </trkpt>
      <trkpt lat="2.736794" lon="-75.075554">
        <ele>2159.4</ele>
        <time>2021-08-21T17:37:00Z</time>
      </trkpt>
      <trkpt lat="2.736795" lon="-75.075584">
        <ele>2159.5</ele>
        <time>2021-08-21T17:37:01Z</time>
      </trkpt>
      <trkpt lat="2.736802" lon="-75.075615">
        <ele>2159.6</ele>
        <time>2021-08-21T17:37:02Z</time>
      </trkpt>
      <trkpt lat="2.736813" lon="-75.075645">
        <ele>2159.7</ele>
        <time>2021-08-21T17:37:03Z</time>
      </trkpt>
      <trkpt lat="2.736829" lon="-75.075676">
        <ele>2159.8</ele>
        <time>2021-08-21T17:37:04Z</time>
      </trkpt>
      <trkpt lat="2.736847" lon="-75.0757">
        <ele>2159.9</ele>
        <time>2021-08-21T17:37:05Z</time>
      </trkpt>
      <trkpt lat="2.736865" lon="-75.07573">
        <ele>2160.0</ele>
        <time>2021-08-21T17:37:06Z</time>
      </trkpt>
      <trkpt lat="2.736885" lon="-75.07576">
        <ele>2160.0</ele>
        <time>2021-08-21T17:37:07Z</time>
      </trkpt>
      <trkpt lat="2.736906" lon="-75.07578">
        <ele>2160.1</ele>
        <time>2021-08-21T17:37:08Z</time>
      </trkpt>
      <trkpt lat="2.736927" lon="-75.07581">
        <ele>2160.2</ele>
        <time>2021-08-21T17:37:09Z</time>
      </trkpt>
      <trkpt lat="2.737" lon="-75.075935">
        <ele>2160.8</ele>
        <time>2021-08-21T17:37:11Z</time>
      </trkpt>
      <trkpt lat="2.737003" lon="-75.07594">
        <ele>2160.8</ele>
        <time>2021-08-21T17:37:12Z</time>
      </trkpt>
      <trkpt lat="2.737006" lon="-75.07596">
        <ele>2160.9</ele>
        <time>2021-08-21T17:37:13Z</time>
      </trkpt>
      <trkpt lat="2.737008" lon="-75.07598">
        <ele>2160.9</ele>
        <time>2021-08-21T17:37:14Z</time>
      </trkpt>
      <trkpt lat="2.737005" lon="-75.07601">
        <ele>2161.0</ele>
        <time>2021-08-21T17:37:15Z</time>
      </trkpt>
      <trkpt lat="2.736999" lon="-75.076035">
        <ele>2161.1</ele>
        <time>2021-08-21T17:37:16Z</time>
      </trkpt>
      <trkpt lat="2.736989" lon="-75.076065">
        <ele>2161.2</ele>
        <time>2021-08-21T17:37:17Z</time>
      </trkpt>
      <trkpt lat="2.736976" lon="-75.076096">
        <ele>2161.3</ele>
        <time>2021-08-21T17:37:18Z</time>
      </trkpt>
      <trkpt lat="2.736963" lon="-75.07612">
        <ele>2161.4</ele>
        <time>2021-08-21T17:37:19Z</time>
      </trkpt>
      <trkpt lat="2.736948" lon="-75.07615">
        <ele>2161.6</ele>
        <time>2021-08-21T17:37:20Z</time>
      </trkpt>
      <trkpt lat="2.736934" lon="-75.07618">
        <ele>2161.7</ele>
        <time>2021-08-21T17:37:21Z</time>
      </trkpt>
      <trkpt lat="2.736922" lon="-75.07621">
        <ele>2161.8</ele>
        <time>2021-08-21T17:37:22Z</time>
      </trkpt>
      <trkpt lat="2.736915" lon="-75.07624">
        <ele>2162.0</ele>
        <time>2021-08-21T17:37:23Z</time>
      </trkpt>
      <trkpt lat="2.736911" lon="-75.07628">
        <ele>2162.1</ele>
        <time>2021-08-21T17:37:24Z</time>
      </trkpt>
      <trkpt lat="2.736913" lon="-75.07631">
        <ele>2162.3</ele>
        <time>2021-08-21T17:37:25Z</time>
      </trkpt>
      <trkpt lat="2.736922" lon="-75.07634">
        <ele>2162.4</ele>
        <time>2021-08-21T17:37:26Z</time>
      </trkpt>
      <trkpt lat="2.736939" lon="-75.07637">
        <ele>2162.5</ele>
        <time>2021-08-21T17:37:27Z</time>
      </trkpt>
      <trkpt lat="2.736962" lon="-75.0764">
        <ele>2162.6</ele>
        <time>2021-08-21T17:37:28Z</time>
      </trkpt>
      <trkpt lat="2.736988" lon="-75.076416">
        <ele>2162.7</ele>
        <time>2021-08-21T17:37:29Z</time>
      </trkpt>
      <trkpt lat="2.737015" lon="-75.07644">
        <ele>2162.8</ele>
        <time>2021-08-21T17:37:30Z</time>
      </trkpt>
      <trkpt lat="2.737043" lon="-75.07645">
        <ele>2162.8</ele>
        <time>2021-08-21T17:37:31Z</time>
      </trkpt>
      <trkpt lat="2.737075" lon="-75.07646">
        <ele>2162.9</ele>
        <time>2021-08-21T17:37:32Z</time>
      </trkpt>
      <trkpt lat="2.737107" lon="-75.07647">
        <ele>2162.9</ele>
        <time>2021-08-21T17:37:33Z</time>
      </trkpt>
      <trkpt lat="2.73714" lon="-75.07647">
        <ele>2163.0</ele>
        <time>2021-08-21T17:37:34Z</time>
      </trkpt>
      <trkpt lat="2.737171" lon="-75.07646">
        <ele>2163.0</ele>
        <time>2021-08-21T17:37:35Z</time>
      </trkpt>
      <trkpt lat="2.737203" lon="-75.076454">
        <ele>2163.0</ele>
        <time>2021-08-21T17:37:36Z</time>
      </trkpt>
      <trkpt lat="2.737234" lon="-75.07644">
        <ele>2163.1</ele>
        <time>2021-08-21T17:37:37Z</time>
      </trkpt>
      <trkpt lat="2.737263" lon="-75.076416">
        <ele>2163.1</ele>
        <time>2021-08-21T17:37:38Z</time>
      </trkpt>
      <trkpt lat="2.737291" lon="-75.0764">
        <ele>2163.2</ele>
        <time>2021-08-21T17:37:39Z</time>
      </trkpt>
      <trkpt lat="2.737319" lon="-75.07637">
        <ele>2163.3</ele>
        <time>2021-08-21T17:37:40Z</time>
      </trkpt>
      <trkpt lat="2.737348" lon="-75.07635">
        <ele>2163.3</ele>
        <time>2021-08-21T17:37:41Z</time>
      </trkpt>
      <trkpt lat="2.737377" lon="-75.076324">
        <ele>2163.4</ele>
        <time>2021-08-21T17:37:42Z</time>
      </trkpt>
      <trkpt lat="2.737407" lon="-75.0763">
        <ele>2163.5</ele>
        <time>2021-08-21T17:37:43Z</time>
      </trkpt>
      <trkpt lat="2.737435" lon="-75.07628">
        <ele>2163.6</ele>
        <time>2021-08-21T17:37:44Z</time>
      </trkpt>
      <trkpt lat="2.737462" lon="-75.07625">
        <ele>2163.7</ele>
        <time>2021-08-21T17:37:45Z</time>
      </trkpt>
      <trkpt lat="2.737489" lon="-75.076225">
        <ele>2163.8</ele>
        <time>2021-08-21T17:37:46Z</time>
      </trkpt>
      <trkpt lat="2.737517" lon="-75.0762">
        <ele>2163.9</ele>
        <time>2021-08-21T17:37:47Z</time>
      </trkpt>
      <trkpt lat="2.737544" lon="-75.07619">
        <ele>2163.9</ele>
        <time>2021-08-21T17:37:48Z</time>
      </trkpt>
      <trkpt lat="2.73757" lon="-75.076164">
        <ele>2164.0</ele>
        <time>2021-08-21T17:37:49Z</time>
      </trkpt>
      <trkpt lat="2.737597" lon="-75.07614">
        <ele>2164.0</ele>
        <time>2021-08-21T17:37:50Z</time>
      </trkpt>
      <trkpt lat="2.737626" lon="-75.07612">
        <ele>2164.0</ele>
        <time>2021-08-21T17:37:51Z</time>
      </trkpt>
      <trkpt lat="2.737655" lon="-75.0761">
        <ele>2164.0</ele>
        <time>2021-08-21T17:37:52Z</time>
      </trkpt>
      <trkpt lat="2.737685" lon="-75.07609">
        <ele>2164.1</ele>
        <time>2021-08-21T17:37:53Z</time>
      </trkpt>
      <trkpt lat="2.737715" lon="-75.07607">
        <ele>2164.1</ele>
        <time>2021-08-21T17:37:54Z</time>
      </trkpt>
      <trkpt lat="2.737745" lon="-75.07606">
        <ele>2164.1</ele>
        <time>2021-08-21T17:37:55Z</time>
      </trkpt>
      <trkpt lat="2.737778" lon="-75.07604">
        <ele>2164.0</ele>
        <time>2021-08-21T17:37:56Z</time>
      </trkpt>
      <trkpt lat="2.737809" lon="-75.07603">
        <ele>2164.0</ele>
        <time>2021-08-21T17:37:57Z</time>
      </trkpt>
      <trkpt lat="2.737844" lon="-75.07602">
        <ele>2164.0</ele>
        <time>2021-08-21T17:37:58Z</time>
      </trkpt>
      <trkpt lat="2.73788" lon="-75.07601">
        <ele>2163.9</ele>
        <time>2021-08-21T17:37:59Z</time>
      </trkpt>
      <trkpt lat="2.737917" lon="-75.076">
        <ele>2163.9</ele>
        <time>2021-08-21T17:38:00Z</time>
      </trkpt>
      <trkpt lat="2.737954" lon="-75.07599">
        <ele>2163.9</ele>
        <time>2021-08-21T17:38:01Z</time>
      </trkpt>
      <trkpt lat="2.737991" lon="-75.07598">
        <ele>2163.8</ele>
        <time>2021-08-21T17:38:03Z</time>
      </trkpt>
      <trkpt lat="2.738027" lon="-75.075966">
        <ele>2163.8</ele>
        <time>2021-08-21T17:38:03Z</time>
      </trkpt>
      <trkpt lat="2.738068" lon="-75.07596">
        <ele>2163.8</ele>
        <time>2021-08-21T17:38:04Z</time>
      </trkpt>
      <trkpt lat="2.738105" lon="-75.07595">
        <ele>2163.7</ele>
        <time>2021-08-21T17:38:05Z</time>
      </trkpt>
      <trkpt lat="2.738142" lon="-75.07594">
        <ele>2163.7</ele>
        <time>2021-08-21T17:38:06Z</time>
      </trkpt>
      <trkpt lat="2.73818" lon="-75.07593">
        <ele>2163.7</ele>
        <time>2021-08-21T17:38:07Z</time>
      </trkpt>
      <trkpt lat="2.738219" lon="-75.07592">
        <ele>2163.6</ele>
        <time>2021-08-21T17:38:08Z</time>
      </trkpt>
      <trkpt lat="2.738257" lon="-75.07591">
        <ele>2163.6</ele>
        <time>2021-08-21T17:38:09Z</time>
      </trkpt>
      <trkpt lat="2.738294" lon="-75.0759">
        <ele>2163.5</ele>
        <time>2021-08-21T17:38:10Z</time>
      </trkpt>
      <trkpt lat="2.738328" lon="-75.07589">
        <ele>2163.5</ele>
        <time>2021-08-21T17:38:11Z</time>
      </trkpt>
      <trkpt lat="2.738359" lon="-75.075874">
        <ele>2163.5</ele>
        <time>2021-08-21T17:38:12Z</time>
      </trkpt>
      <trkpt lat="2.738386" lon="-75.07586">
        <ele>2163.4</ele>
        <time>2021-08-21T17:38:13Z</time>
      </trkpt>
      <trkpt lat="2.738412" lon="-75.07584">
        <ele>2163.4</ele>
        <time>2021-08-21T17:38:14Z</time>
      </trkpt>
      <trkpt lat="2.738437" lon="-75.07583">
        <ele>2163.4</ele>
        <time>2021-08-21T17:38:15Z</time>
      </trkpt>
      <trkpt lat="2.738463" lon="-75.07581">
        <ele>2163.4</ele>
        <time>2021-08-21T17:38:16Z</time>
      </trkpt>
      <trkpt lat="2.738489" lon="-75.0758">
        <ele>2163.3</ele>
        <time>2021-08-21T17:38:17Z</time>
      </trkpt>
      <trkpt lat="2.738516" lon="-75.07578">
        <ele>2163.3</ele>
        <time>2021-08-21T17:38:18Z</time>
      </trkpt>
      <trkpt lat="2.738543" lon="-75.07577">
        <ele>2163.3</ele>
        <time>2021-08-21T17:38:19Z</time>
      </trkpt>
      <trkpt lat="2.738572" lon="-75.07575">
        <ele>2163.2</ele>
        <time>2021-08-21T17:38:20Z</time>
      </trkpt>
      <trkpt lat="2.738602" lon="-75.07574">
        <ele>2163.2</ele>
        <time>2021-08-21T17:38:21Z</time>
      </trkpt>
      <trkpt lat="2.738633" lon="-75.075714">
        <ele>2163.2</ele>
        <time>2021-08-21T17:38:22Z</time>
      </trkpt>
      <trkpt lat="2.738664" lon="-75.0757">
        <ele>2163.1</ele>
        <time>2021-08-21T17:38:23Z</time>
      </trkpt>
      <trkpt lat="2.738695" lon="-75.07568">
        <ele>2163.1</ele>
        <time>2021-08-21T17:38:24Z</time>
      </trkpt>
      <trkpt lat="2.738726" lon="-75.07566">
        <ele>2163.0</ele>
        <time>2021-08-21T17:38:25Z</time>
      </trkpt>
      <trkpt lat="2.738757" lon="-75.075645">
        <ele>2163.0</ele>
        <time>2021-08-21T17:38:26Z</time>
      </trkpt>
      <trkpt lat="2.738787" lon="-75.07562">
        <ele>2162.9</ele>
        <time>2021-08-21T17:38:27Z</time>
      </trkpt>
      <trkpt lat="2.738817" lon="-75.0756">
        <ele>2162.9</ele>
        <time>2021-08-21T17:38:28Z</time>
      </trkpt>
      <trkpt lat="2.738849" lon="-75.07558">
        <ele>2162.8</ele>
        <time>2021-08-21T17:38:29Z</time>
      </trkpt>
      <trkpt lat="2.738881" lon="-75.075554">
        <ele>2162.8</ele>
        <time>2021-08-21T17:38:30Z</time>
      </trkpt>
      <trkpt lat="2.738914" lon="-75.07553">
        <ele>2162.7</ele>
        <time>2021-08-21T17:38:31Z</time>
      </trkpt>
      <trkpt lat="2.738948" lon="-75.075516">
        <ele>2162.6</ele>
        <time>2021-08-21T17:38:32Z</time>
      </trkpt>
      <trkpt lat="2.738984" lon="-75.075485">
        <ele>2162.5</ele>
        <time>2021-08-21T17:38:33Z</time>
      </trkpt>
      <trkpt lat="2.739019" lon="-75.07546">
        <ele>2162.4</ele>
        <time>2021-08-21T17:38:34Z</time>
      </trkpt>
      <trkpt lat="2.739056" lon="-75.07544">
        <ele>2162.3</ele>
        <time>2021-08-21T17:38:35Z</time>
      </trkpt>
      <trkpt lat="2.739093" lon="-75.075424">
        <ele>2162.3</ele>
        <time>2021-08-21T17:38:36Z</time>
      </trkpt>
      <trkpt lat="2.739131" lon="-75.0754">
        <ele>2162.2</ele>
        <time>2021-08-21T17:38:37Z</time>
      </trkpt>
      <trkpt lat="2.739167" lon="-75.075386">
        <ele>2162.1</ele>
        <time>2021-08-21T17:38:38Z</time>
      </trkpt>
      <trkpt lat="2.739202" lon="-75.07537">
        <ele>2162.0</ele>
        <time>2021-08-21T17:38:39Z</time>
      </trkpt>
      <trkpt lat="2.739238" lon="-75.075356">
        <ele>2161.8</ele>
        <time>2021-08-21T17:38:40Z</time>
      </trkpt>
      <trkpt lat="2.739275" lon="-75.07533">
        <ele>2161.7</ele>
        <time>2021-08-21T17:38:41Z</time>
      </trkpt>
      <trkpt lat="2.739313" lon="-75.07532">
        <ele>2161.6</ele>
        <time>2021-08-21T17:38:42Z</time>
      </trkpt>
      <trkpt lat="2.739353" lon="-75.07531">
        <ele>2161.5</ele>
        <time>2021-08-21T17:38:43Z</time>
      </trkpt>
      <trkpt lat="2.739394" lon="-75.0753">
        <ele>2161.4</ele>
        <time>2021-08-21T17:38:44Z</time>
      </trkpt>
      <trkpt lat="2.739438" lon="-75.0753">
        <ele>2161.3</ele>
        <time>2021-08-21T17:38:45Z</time>
      </trkpt>
      <trkpt lat="2.739479" lon="-75.07531">
        <ele>2161.2</ele>
        <time>2021-08-21T17:38:46Z</time>
      </trkpt>
      <trkpt lat="2.739517" lon="-75.07532">
        <ele>2161.0</ele>
        <time>2021-08-21T17:38:47Z</time>
      </trkpt>
      <trkpt lat="2.739549" lon="-75.07534">
        <ele>2160.9</ele>
        <time>2021-08-21T17:38:48Z</time>
      </trkpt>
      <trkpt lat="2.739572" lon="-75.07537">
        <ele>2160.7</ele>
        <time>2021-08-21T17:38:49Z</time>
      </trkpt>
      <trkpt lat="2.739585" lon="-75.07541">
        <ele>2160.5</ele>
        <time>2021-08-21T17:38:50Z</time>
      </trkpt>
      <trkpt lat="2.739587" lon="-75.07545">
        <ele>2160.3</ele>
        <time>2021-08-21T17:38:51Z</time>
      </trkpt>
      <trkpt lat="2.739579" lon="-75.075485">
        <ele>2160.1</ele>
        <time>2021-08-21T17:38:52Z</time>
      </trkpt>
      <trkpt lat="2.73956" lon="-75.07553">
        <ele>2159.9</ele>
        <time>2021-08-21T17:38:53Z</time>
      </trkpt>
      <trkpt lat="2.739534" lon="-75.07557">
        <ele>2159.7</ele>
        <time>2021-08-21T17:38:54Z</time>
      </trkpt>
      <trkpt lat="2.739502" lon="-75.07561">
        <ele>2159.5</ele>
        <time>2021-08-21T17:38:55Z</time>
      </trkpt>
      <trkpt lat="2.739466" lon="-75.075645">
        <ele>2159.3</ele>
        <time>2021-08-21T17:38:56Z</time>
      </trkpt>
      <trkpt lat="2.739428" lon="-75.07568">
        <ele>2159.1</ele>
        <time>2021-08-21T17:38:57Z</time>
      </trkpt>
      <trkpt lat="2.739387" lon="-75.07572">
        <ele>2158.9</ele>
        <time>2021-08-21T17:38:58Z</time>
      </trkpt>
      <trkpt lat="2.739345" lon="-75.07575">
        <ele>2158.7</ele>
        <time>2021-08-21T17:38:59Z</time>
      </trkpt>
      <trkpt lat="2.739302" lon="-75.07579">
        <ele>2158.5</ele>
        <time>2021-08-21T17:39:00Z</time>
      </trkpt>
      <trkpt lat="2.739261" lon="-75.07582">
        <ele>2158.3</ele>
        <time>2021-08-21T17:39:01Z</time>
      </trkpt>
      <trkpt lat="2.739222" lon="-75.07586">
        <ele>2158.1</ele>
        <time>2021-08-21T17:39:02Z</time>
      </trkpt>
      <trkpt lat="2.739183" lon="-75.0759">
        <ele>2157.9</ele>
        <time>2021-08-21T17:39:03Z</time>
      </trkpt>
      <trkpt lat="2.739144" lon="-75.07593">
        <ele>2157.7</ele>
        <time>2021-08-21T17:39:04Z</time>
      </trkpt>
      <trkpt lat="2.739105" lon="-75.075966">
        <ele>2157.5</ele>
        <time>2021-08-21T17:39:05Z</time>
      </trkpt>
      <trkpt lat="2.739065" lon="-75.076">
        <ele>2157.3</ele>
        <time>2021-08-21T17:39:06Z</time>
      </trkpt>
      <trkpt lat="2.739025" lon="-75.076035">
        <ele>2157.1</ele>
        <time>2021-08-21T17:39:07Z</time>
      </trkpt>
      <trkpt lat="2.738985" lon="-75.076065">
        <ele>2156.9</ele>
        <time>2021-08-21T17:39:08Z</time>
      </trkpt>
      <trkpt lat="2.738945" lon="-75.0761">
        <ele>2156.7</ele>
        <time>2021-08-21T17:39:09Z</time>
      </trkpt>
      <trkpt lat="2.738906" lon="-75.07613">
        <ele>2156.5</ele>
        <time>2021-08-21T17:39:10Z</time>
      </trkpt>
      <trkpt lat="2.738867" lon="-75.07617">
        <ele>2156.3</ele>
        <time>2021-08-21T17:39:11Z</time>
      </trkpt>
      <trkpt lat="2.738832" lon="-75.07621">
        <ele>2156.1</ele>
        <time>2021-08-21T17:39:12Z</time>
      </trkpt>
      <trkpt lat="2.738799" lon="-75.07625">
        <ele>2155.9</ele>
        <time>2021-08-21T17:39:13Z</time>
      </trkpt>
      <trkpt lat="2.738766" lon="-75.07629">
        <ele>2155.8</ele>
        <time>2021-08-21T17:39:14Z</time>
      </trkpt>
      <trkpt lat="2.738729" lon="-75.07632">
        <ele>2155.6</ele>
        <time>2021-08-21T17:39:15Z</time>
      </trkpt>
      <trkpt lat="2.738685" lon="-75.076355">
        <ele>2155.5</ele>
        <time>2021-08-21T17:39:16Z</time>
      </trkpt>
      <trkpt lat="2.738642" lon="-75.076385">
        <ele>2155.3</ele>
        <time>2021-08-21T17:39:17Z</time>
      </trkpt>
      <trkpt lat="2.738595" lon="-75.076416">
        <ele>2155.0</ele>
        <time>2021-08-21T17:39:18Z</time>
      </trkpt>
      <trkpt lat="2.738552" lon="-75.076454">
        <ele>2154.8</ele>
        <time>2021-08-21T17:39:19Z</time>
      </trkpt>
      <trkpt lat="2.738513" lon="-75.07649">
        <ele>2154.5</ele>
        <time>2021-08-21T17:39:20Z</time>
      </trkpt>
      <trkpt lat="2.738476" lon="-75.07653">
        <ele>2154.3</ele>
        <time>2021-08-21T17:39:21Z</time>
      </trkpt>
      <trkpt lat="2.738441" lon="-75.07658">
        <ele>2154.0</ele>
        <time>2021-08-21T17:39:22Z</time>
      </trkpt>
      <trkpt lat="2.738407" lon="-75.076614">
        <ele>2153.7</ele>
        <time>2021-08-21T17:39:23Z</time>
      </trkpt>
      <trkpt lat="2.738373" lon="-75.07665">
        <ele>2153.4</ele>
        <time>2021-08-21T17:39:24Z</time>
      </trkpt>
      <trkpt lat="2.73834" lon="-75.07669">
        <ele>2153.1</ele>
        <time>2021-08-21T17:39:25Z</time>
      </trkpt>
      <trkpt lat="2.738306" lon="-75.07673">
        <ele>2152.7</ele>
        <time>2021-08-21T17:39:26Z</time>
      </trkpt>
      <trkpt lat="2.738275" lon="-75.07677">
        <ele>2152.4</ele>
        <time>2021-08-21T17:39:27Z</time>
      </trkpt>
      <trkpt lat="2.738241" lon="-75.07681">
        <ele>2152.1</ele>
        <time>2021-08-21T17:39:28Z</time>
      </trkpt>
      <trkpt lat="2.738207" lon="-75.07685">
        <ele>2151.9</ele>
        <time>2021-08-21T17:39:29Z</time>
      </trkpt>
      <trkpt lat="2.738173" lon="-75.07689">
        <ele>2151.6</ele>
        <time>2021-08-21T17:39:30Z</time>
      </trkpt>
      <trkpt lat="2.738138" lon="-75.076935">
        <ele>2151.3</ele>
        <time>2021-08-21T17:39:31Z</time>
      </trkpt>
      <trkpt lat="2.738102" lon="-75.07697">
        <ele>2151.1</ele>
        <time>2021-08-21T17:39:32Z</time>
      </trkpt>
      <trkpt lat="2.738066" lon="-75.07702">
        <ele>2150.8</ele>
        <time>2021-08-21T17:39:33Z</time>
      </trkpt>
      <trkpt lat="2.738033" lon="-75.07706">
        <ele>2150.6</ele>
        <time>2021-08-21T17:39:34Z</time>
      </trkpt>
      <trkpt lat="2.738" lon="-75.077095">
        <ele>2150.3</ele>
        <time>2021-08-21T17:39:35Z</time>
      </trkpt>
      <trkpt lat="2.737966" lon="-75.07714">
        <ele>2150.0</ele>
        <time>2021-08-21T17:39:36Z</time>
      </trkpt>
      <trkpt lat="2.737929" lon="-75.07719">
        <ele>2149.7</ele>
        <time>2021-08-21T17:39:37Z</time>
      </trkpt>
      <trkpt lat="2.737897" lon="-75.07723">
        <ele>2149.5</ele>
        <time>2021-08-21T17:39:38Z</time>
      </trkpt>
      <trkpt lat="2.737863" lon="-75.077286">
        <ele>2149.2</ele>
        <time>2021-08-21T17:39:39Z</time>
      </trkpt>
      <trkpt lat="2.737835" lon="-75.07733">
        <ele>2149.0</ele>
        <time>2021-08-21T17:39:40Z</time>
      </trkpt>
      <trkpt lat="2.737814" lon="-75.077385">
        <ele>2148.7</ele>
        <time>2021-08-21T17:39:41Z</time>
      </trkpt>
      <trkpt lat="2.737805" lon="-75.07744">
        <ele>2148.4</ele>
        <time>2021-08-21T17:39:42Z</time>
      </trkpt>
      <trkpt lat="2.737812" lon="-75.0775">
        <ele>2148.2</ele>
        <time>2021-08-21T17:39:43Z</time>
      </trkpt>
      <trkpt lat="2.737831" lon="-75.07755">
        <ele>2147.9</ele>
        <time>2021-08-21T17:39:44Z</time>
      </trkpt>
      <trkpt lat="2.73786" lon="-75.07759">
        <ele>2147.6</ele>
        <time>2021-08-21T17:39:45Z</time>
      </trkpt>
      <trkpt lat="2.737899" lon="-75.07763">
        <ele>2147.3</ele>
        <time>2021-08-21T17:39:46Z</time>
      </trkpt>
      <trkpt lat="2.737942" lon="-75.07765">
        <ele>2147.0</ele>
        <time>2021-08-21T17:39:47Z</time>
      </trkpt>
      <trkpt lat="2.737991" lon="-75.077675">
        <ele>2146.7</ele>
        <time>2021-08-21T17:39:48Z</time>
      </trkpt>
      <trkpt lat="2.738049" lon="-75.0777">
        <ele>2146.4</ele>
        <time>2021-08-21T17:39:49Z</time>
      </trkpt>
      <trkpt lat="2.738105" lon="-75.07771">
        <ele>2146.1</ele>
        <time>2021-08-21T17:39:50Z</time>
      </trkpt>
      <trkpt lat="2.738164" lon="-75.07773">
        <ele>2145.9</ele>
        <time>2021-08-21T17:39:51Z</time>
      </trkpt>
      <trkpt lat="2.738223" lon="-75.07774">
        <ele>2145.7</ele>
        <time>2021-08-21T17:39:52Z</time>
      </trkpt>
      <trkpt lat="2.738282" lon="-75.07775">
        <ele>2145.5</ele>
        <time>2021-08-21T17:39:53Z</time>
      </trkpt>
      <trkpt lat="2.73834" lon="-75.07777">
        <ele>2145.4</ele>
        <time>2021-08-21T17:39:54Z</time>
      </trkpt>
      <trkpt lat="2.738396" lon="-75.07778">
        <ele>2145.2</ele>
        <time>2021-08-21T17:39:55Z</time>
      </trkpt>
      <trkpt lat="2.738451" lon="-75.0778">
        <ele>2145.0</ele>
        <time>2021-08-21T17:39:56Z</time>
      </trkpt>
      <trkpt lat="2.738503" lon="-75.07781">
        <ele>2144.8</ele>
        <time>2021-08-21T17:39:57Z</time>
      </trkpt>
      <trkpt lat="2.738554" lon="-75.07783">
        <ele>2144.6</ele>
        <time>2021-08-21T17:39:58Z</time>
      </trkpt>
      <trkpt lat="2.738601" lon="-75.07784">
        <ele>2144.5</ele>
        <time>2021-08-21T17:39:59Z</time>
      </trkpt>
      <trkpt lat="2.738646" lon="-75.07786">
        <ele>2144.3</ele>
        <time>2021-08-21T17:40:00Z</time>
      </trkpt>
      <trkpt lat="2.738691" lon="-75.07788">
        <ele>2144.1</ele>
        <time>2021-08-21T17:40:01Z</time>
      </trkpt>
      <trkpt lat="2.738733" lon="-75.0779">
        <ele>2143.9</ele>
        <time>2021-08-21T17:40:02Z</time>
      </trkpt>
      <trkpt lat="2.738774" lon="-75.07793">
        <ele>2143.7</ele>
        <time>2021-08-21T17:40:03Z</time>
      </trkpt>
      <trkpt lat="2.738814" lon="-75.07796">
        <ele>2143.5</ele>
        <time>2021-08-21T17:40:04Z</time>
      </trkpt>
      <trkpt lat="2.738853" lon="-75.07798">
        <ele>2143.3</ele>
        <time>2021-08-21T17:40:05Z</time>
      </trkpt>
      <trkpt lat="2.738889" lon="-75.07801">
        <ele>2143.2</ele>
        <time>2021-08-21T17:40:06Z</time>
      </trkpt>
      <trkpt lat="2.738923" lon="-75.07803">
        <ele>2143.0</ele>
        <time>2021-08-21T17:40:07Z</time>
      </trkpt>
      <trkpt lat="2.738955" lon="-75.07806">
        <ele>2142.8</ele>
        <time>2021-08-21T17:40:07Z</time>
      </trkpt>
      <trkpt lat="2.73899" lon="-75.07808">
        <ele>2142.6</ele>
        <time>2021-08-21T17:40:08Z</time>
      </trkpt>
      <trkpt lat="2.739026" lon="-75.07811">
        <ele>2142.3</ele>
        <time>2021-08-21T17:40:09Z</time>
      </trkpt>
      <trkpt lat="2.739061" lon="-75.07813">
        <ele>2142.1</ele>
        <time>2021-08-21T17:40:10Z</time>
      </trkpt>
      <trkpt lat="2.739098" lon="-75.07817">
        <ele>2141.8</ele>
        <time>2021-08-21T17:40:11Z</time>
      </trkpt>
      <trkpt lat="2.739137" lon="-75.0782">
        <ele>2141.5</ele>
        <time>2021-08-21T17:40:12Z</time>
      </trkpt>
      <trkpt lat="2.739175" lon="-75.07825">
        <ele>2141.2</ele>
        <time>2021-08-21T17:40:13Z</time>
      </trkpt>
      <trkpt lat="2.739211" lon="-75.07829">
        <ele>2140.9</ele>
        <time>2021-08-21T17:40:14Z</time>
      </trkpt>
      <trkpt lat="2.739243" lon="-75.07833">
        <ele>2140.7</ele>
        <time>2021-08-21T17:40:15Z</time>
      </trkpt>
      <trkpt lat="2.739272" lon="-75.07838">
        <ele>2140.4</ele>
        <time>2021-08-21T17:40:16Z</time>
      </trkpt>
      <trkpt lat="2.739301" lon="-75.07843">
        <ele>2140.2</ele>
        <time>2021-08-21T17:40:17Z</time>
      </trkpt>
      <trkpt lat="2.739329" lon="-75.078476">
        <ele>2140.0</ele>
        <time>2021-08-21T17:40:18Z</time>
      </trkpt>
      <trkpt lat="2.739356" lon="-75.07853">
        <ele>2139.8</ele>
        <time>2021-08-21T17:40:19Z</time>
      </trkpt>
      <trkpt lat="2.739383" lon="-75.07858">
        <ele>2139.6</ele>
        <time>2021-08-21T17:40:20Z</time>
      </trkpt>
      <trkpt lat="2.73941" lon="-75.07863">
        <ele>2139.4</ele>
        <time>2021-08-21T17:40:21Z</time>
      </trkpt>
      <trkpt lat="2.739437" lon="-75.07868">
        <ele>2139.2</ele>
        <time>2021-08-21T17:40:22Z</time>
      </trkpt>
      <trkpt lat="2.739462" lon="-75.07873">
        <ele>2139.1</ele>
        <time>2021-08-21T17:40:23Z</time>
      </trkpt>
      <trkpt lat="2.739487" lon="-75.07877">
        <ele>2138.9</ele>
        <time>2021-08-21T17:40:24Z</time>
      </trkpt>
      <trkpt lat="2.739511" lon="-75.07883">
        <ele>2138.7</ele>
        <time>2021-08-21T17:40:25Z</time>
      </trkpt>
      <trkpt lat="2.739535" lon="-75.07888">
        <ele>2138.5</ele>
        <time>2021-08-21T17:40:26Z</time>
      </trkpt>
      <trkpt lat="2.73956" lon="-75.078926">
        <ele>2138.3</ele>
        <time>2021-08-21T17:40:27Z</time>
      </trkpt>
      <trkpt lat="2.739584" lon="-75.07898">
        <ele>2138.1</ele>
        <time>2021-08-21T17:40:28Z</time>
      </trkpt>
      <trkpt lat="2.739608" lon="-75.07903">
        <ele>2137.9</ele>
        <time>2021-08-21T17:40:29Z</time>
      </trkpt>
      <trkpt lat="2.739633" lon="-75.07908">
        <ele>2137.6</ele>
        <time>2021-08-21T17:40:30Z</time>
      </trkpt>
      <trkpt lat="2.739657" lon="-75.07913">
        <ele>2137.4</ele>
        <time>2021-08-21T17:40:31Z</time>
      </trkpt>
      <trkpt lat="2.739682" lon="-75.079185">
        <ele>2137.2</ele>
        <time>2021-08-21T17:40:32Z</time>
      </trkpt>
      <trkpt lat="2.739708" lon="-75.07924">
        <ele>2136.9</ele>
        <time>2021-08-21T17:40:33Z</time>
      </trkpt>
      <trkpt lat="2.739733" lon="-75.07929">
        <ele>2136.6</ele>
        <time>2021-08-21T17:40:34Z</time>
      </trkpt>
      <trkpt lat="2.739759" lon="-75.079346">
        <ele>2136.4</ele>
        <time>2021-08-21T17:40:35Z</time>
      </trkpt>
      <trkpt lat="2.739785" lon="-75.0794">
        <ele>2136.2</ele>
        <time>2021-08-21T17:40:36Z</time>
      </trkpt>
      <trkpt lat="2.739809" lon="-75.07945">
        <ele>2136.0</ele>
        <time>2021-08-21T17:40:37Z</time>
      </trkpt>
      <trkpt lat="2.739832" lon="-75.0795">
        <ele>2135.9</ele>
        <time>2021-08-21T17:40:38Z</time>
      </trkpt>
      <trkpt lat="2.739854" lon="-75.07955">
        <ele>2135.7</ele>
        <time>2021-08-21T17:40:39Z</time>
      </trkpt>
      <trkpt lat="2.739872" lon="-75.0796">
        <ele>2135.6</ele>
        <time>2021-08-21T17:40:40Z</time>
      </trkpt>
      <trkpt lat="2.739889" lon="-75.07964">
        <ele>2135.5</ele>
        <time>2021-08-21T17:40:41Z</time>
      </trkpt>
      <trkpt lat="2.739904" lon="-75.07969">
        <ele>2135.3</ele>
        <time>2021-08-21T17:40:42Z</time>
      </trkpt>
      <trkpt lat="2.739916" lon="-75.079735">
        <ele>2135.2</ele>
        <time>2021-08-21T17:40:43Z</time>
      </trkpt>
      <trkpt lat="2.739927" lon="-75.07978">
        <ele>2135.1</ele>
        <time>2021-08-21T17:40:44Z</time>
      </trkpt>
      <trkpt lat="2.739937" lon="-75.07983">
        <ele>2135.0</ele>
        <time>2021-08-21T17:40:45Z</time>
      </trkpt>
      <trkpt lat="2.739944" lon="-75.07987">
        <ele>2134.9</ele>
        <time>2021-08-21T17:40:46Z</time>
      </trkpt>
      <trkpt lat="2.73995" lon="-75.07992">
        <ele>2134.8</ele>
        <time>2021-08-21T17:40:47Z</time>
      </trkpt>
      <trkpt lat="2.739953" lon="-75.07997">
        <ele>2134.7</ele>
        <time>2021-08-21T17:40:48Z</time>
      </trkpt>
      <trkpt lat="2.739955" lon="-75.080025">
        <ele>2134.6</ele>
        <time>2021-08-21T17:40:49Z</time>
      </trkpt>
      <trkpt lat="2.739953" lon="-75.08007">
        <ele>2134.5</ele>
        <time>2021-08-21T17:40:50Z</time>
      </trkpt>
      <trkpt lat="2.739951" lon="-75.080124">
        <ele>2134.4</ele>
        <time>2021-08-21T17:40:51Z</time>
      </trkpt>
      <trkpt lat="2.739951" lon="-75.08018">
        <ele>2134.2</ele>
        <time>2021-08-21T17:40:52Z</time>
      </trkpt>
      <trkpt lat="2.739951" lon="-75.08023">
        <ele>2134.1</ele>
        <time>2021-08-21T17:40:53Z</time>
      </trkpt>
      <trkpt lat="2.739951" lon="-75.080284">
        <ele>2134.0</ele>
        <time>2021-08-21T17:40:54Z</time>
      </trkpt>
      <trkpt lat="2.73995" lon="-75.08033">
        <ele>2133.8</ele>
        <time>2021-08-21T17:40:55Z</time>
      </trkpt>
      <trkpt lat="2.739949" lon="-75.08038">
        <ele>2133.7</ele>
        <time>2021-08-21T17:40:56Z</time>
      </trkpt>
      <trkpt lat="2.739946" lon="-75.08044">
        <ele>2133.6</ele>
        <time>2021-08-21T17:40:57Z</time>
      </trkpt>
      <trkpt lat="2.739942" lon="-75.08048">
        <ele>2133.4</ele>
        <time>2021-08-21T17:40:58Z</time>
      </trkpt>
      <trkpt lat="2.739939" lon="-75.08053">
        <ele>2133.3</ele>
        <time>2021-08-21T17:40:59Z</time>
      </trkpt>
      <trkpt lat="2.739935" lon="-75.08058">
        <ele>2133.2</ele>
        <time>2021-08-21T17:41:00Z</time>
      </trkpt>
      <trkpt lat="2.739932" lon="-75.08063">
        <ele>2133.0</ele>
        <time>2021-08-21T17:41:01Z</time>
      </trkpt>
      <trkpt lat="2.739932" lon="-75.08068">
        <ele>2132.9</ele>
        <time>2021-08-21T17:41:02Z</time>
      </trkpt>
      <trkpt lat="2.739935" lon="-75.08073">
        <ele>2132.7</ele>
        <time>2021-08-21T17:41:03Z</time>
      </trkpt>
      <trkpt lat="2.73994" lon="-75.080765">
        <ele>2132.6</ele>
        <time>2021-08-21T17:41:04Z</time>
      </trkpt>
      <trkpt lat="2.739948" lon="-75.08081">
        <ele>2132.5</ele>
        <time>2021-08-21T17:41:05Z</time>
      </trkpt>
      <trkpt lat="2.739961" lon="-75.08085">
        <ele>2132.4</ele>
        <time>2021-08-21T17:41:06Z</time>
      </trkpt>
      <trkpt lat="2.739977" lon="-75.08089">
        <ele>2132.3</ele>
        <time>2021-08-21T17:41:07Z</time>
      </trkpt>
      <trkpt lat="2.739998" lon="-75.080925">
        <ele>2132.2</ele>
        <time>2021-08-21T17:41:08Z</time>
      </trkpt>
      <trkpt lat="2.740025" lon="-75.080956">
        <ele>2132.0</ele>
        <time>2021-08-21T17:41:09Z</time>
      </trkpt>
      <trkpt lat="2.740054" lon="-75.08098">
        <ele>2131.9</ele>
        <time>2021-08-21T17:41:10Z</time>
      </trkpt>
      <trkpt lat="2.740086" lon="-75.081">
        <ele>2131.8</ele>
        <time>2021-08-21T17:41:11Z</time>
      </trkpt>
      <trkpt lat="2.74012" lon="-75.08102">
        <ele>2131.7</ele>
        <time>2021-08-21T17:41:12Z</time>
      </trkpt>
      <trkpt lat="2.740155" lon="-75.08103">
        <ele>2131.6</ele>
        <time>2021-08-21T17:41:13Z</time>
      </trkpt>
      <trkpt lat="2.740191" lon="-75.08104">
        <ele>2131.4</ele>
        <time>2021-08-21T17:41:14Z</time>
      </trkpt>
      <trkpt lat="2.740227" lon="-75.08105">
        <ele>2131.3</ele>
        <time>2021-08-21T17:41:15Z</time>
      </trkpt>
      <trkpt lat="2.740264" lon="-75.08106">
        <ele>2131.2</ele>
        <time>2021-08-21T17:41:16Z</time>
      </trkpt>
      <trkpt lat="2.740301" lon="-75.08107">
        <ele>2131.1</ele>
        <time>2021-08-21T17:41:17Z</time>
      </trkpt>
      <trkpt lat="2.74034" lon="-75.08108">
        <ele>2130.9</ele>
        <time>2021-08-21T17:41:18Z</time>
      </trkpt>
      <trkpt lat="2.740379" lon="-75.081085">
        <ele>2130.8</ele>
        <time>2021-08-21T17:41:19Z</time>
      </trkpt>
      <trkpt lat="2.74042" lon="-75.08109">
        <ele>2130.6</ele>
        <time>2021-08-21T17:41:20Z</time>
      </trkpt>
      <trkpt lat="2.740459" lon="-75.0811">
        <ele>2130.5</ele>
        <time>2021-08-21T17:41:21Z</time>
      </trkpt>
      <trkpt lat="2.7405" lon="-75.08111">
        <ele>2130.3</ele>
        <time>2021-08-21T17:41:22Z</time>
      </trkpt>
      <trkpt lat="2.740543" lon="-75.081116">
        <ele>2130.1</ele>
        <time>2021-08-21T17:41:23Z</time>
      </trkpt>
      <trkpt lat="2.740586" lon="-75.08113">
        <ele>2129.9</ele>
        <time>2021-08-21T17:41:24Z</time>
      </trkpt>
      <trkpt lat="2.740633" lon="-75.08115">
        <ele>2129.7</ele>
        <time>2021-08-21T17:41:25Z</time>
      </trkpt>
      <trkpt lat="2.740679" lon="-75.08117">
        <ele>2129.5</ele>
        <time>2021-08-21T17:41:26Z</time>
      </trkpt>
      <trkpt lat="2.740725" lon="-75.08119">
        <ele>2129.3</ele>
        <time>2021-08-21T17:41:27Z</time>
      </trkpt>
      <trkpt lat="2.740768" lon="-75.081215">
        <ele>2129.1</ele>
        <time>2021-08-21T17:41:28Z</time>
      </trkpt>
      <trkpt lat="2.740809" lon="-75.081245">
        <ele>2129.0</ele>
        <time>2021-08-21T17:41:29Z</time>
      </trkpt>
      <trkpt lat="2.740845" lon="-75.08128">
        <ele>2128.8</ele>
        <time>2021-08-21T17:41:30Z</time>
      </trkpt>
      <trkpt lat="2.740878" lon="-75.08132">
        <ele>2128.7</ele>
        <time>2021-08-21T17:41:31Z</time>
      </trkpt>
      <trkpt lat="2.740908" lon="-75.08136">
        <ele>2128.6</ele>
        <time>2021-08-21T17:41:32Z</time>
      </trkpt>
      <trkpt lat="2.740938" lon="-75.0814">
        <ele>2128.4</ele>
        <time>2021-08-21T17:41:33Z</time>
      </trkpt>
      <trkpt lat="2.740969" lon="-75.081436">
        <ele>2128.3</ele>
        <time>2021-08-21T17:41:34Z</time>
      </trkpt>
      <trkpt lat="2.741001" lon="-75.081474">
        <ele>2128.2</ele>
        <time>2021-08-21T17:41:35Z</time>
      </trkpt>
      <trkpt lat="2.741037" lon="-75.081505">
        <ele>2128.0</ele>
        <time>2021-08-21T17:41:36Z</time>
      </trkpt>
      <trkpt lat="2.741073" lon="-75.08154">
        <ele>2127.9</ele>
        <time>2021-08-21T17:41:37Z</time>
      </trkpt>
      <trkpt lat="2.741108" lon="-75.081566">
        <ele>2127.8</ele>
        <time>2021-08-21T17:41:38Z</time>
      </trkpt>
      <trkpt lat="2.741145" lon="-75.0816">
        <ele>2127.7</ele>
        <time>2021-08-21T17:41:39Z</time>
      </trkpt>
      <trkpt lat="2.741183" lon="-75.08162">
        <ele>2127.6</ele>
        <time>2021-08-21T17:41:40Z</time>
      </trkpt>
      <trkpt lat="2.741222" lon="-75.08165">
        <ele>2127.5</ele>
        <time>2021-08-21T17:41:41Z</time>
      </trkpt>
      <trkpt lat="2.741262" lon="-75.08168">
        <ele>2127.4</ele>
        <time>2021-08-21T17:41:42Z</time>
      </trkpt>
      <trkpt lat="2.741298" lon="-75.0817">
        <ele>2127.3</ele>
        <time>2021-08-21T17:41:43Z</time>
      </trkpt>
      <trkpt lat="2.741336" lon="-75.08173">
        <ele>2127.2</ele>
        <time>2021-08-21T17:41:44Z</time>
      </trkpt>
      <trkpt lat="2.741375" lon="-75.081764">
        <ele>2127.0</ele>
        <time>2021-08-21T17:41:45Z</time>
      </trkpt>
      <trkpt lat="2.741411" lon="-75.08179">
        <ele>2126.9</ele>
        <time>2021-08-21T17:41:46Z</time>
      </trkpt>
      <trkpt lat="2.741447" lon="-75.08182">
        <ele>2126.8</ele>
        <time>2021-08-21T17:41:47Z</time>
      </trkpt>
      <trkpt lat="2.741484" lon="-75.08184">
        <ele>2126.6</ele>
        <time>2021-08-21T17:41:48Z</time>
      </trkpt>
      <trkpt lat="2.741521" lon="-75.08187">
        <ele>2126.5</ele>
        <time>2021-08-21T17:41:49Z</time>
      </trkpt>
      <trkpt lat="2.741557" lon="-75.081894">
        <ele>2126.4</ele>
        <time>2021-08-21T17:41:50Z</time>
      </trkpt>
      <trkpt lat="2.741594" lon="-75.081924">
        <ele>2126.3</ele>
        <time>2021-08-21T17:41:51Z</time>
      </trkpt>
      <trkpt lat="2.741633" lon="-75.08195">
        <ele>2126.1</ele>
        <time>2021-08-21T17:41:52Z</time>
      </trkpt>
      <trkpt lat="2.741674" lon="-75.08197">
        <ele>2126.0</ele>
        <time>2021-08-21T17:41:53Z</time>
      </trkpt>
      <trkpt lat="2.741718" lon="-75.08199">
        <ele>2125.9</ele>
        <time>2021-08-21T17:41:54Z</time>
      </trkpt>
      <trkpt lat="2.741767" lon="-75.082016">
        <ele>2125.7</ele>
        <time>2021-08-21T17:41:55Z</time>
      </trkpt>
      <trkpt lat="2.741818" lon="-75.08204">
        <ele>2125.5</ele>
        <time>2021-08-21T17:41:56Z</time>
      </trkpt>
      <trkpt lat="2.741869" lon="-75.08206">
        <ele>2125.3</ele>
        <time>2021-08-21T17:41:57Z</time>
      </trkpt>
      <trkpt lat="2.741916" lon="-75.082085">
        <ele>2125.1</ele>
        <time>2021-08-21T17:41:58Z</time>
      </trkpt>
      <trkpt lat="2.741967" lon="-75.08211">
        <ele>2124.9</ele>
        <time>2021-08-21T17:41:59Z</time>
      </trkpt>
      <trkpt lat="2.742013" lon="-75.08214">
        <ele>2124.8</ele>
        <time>2021-08-21T17:42:00Z</time>
      </trkpt>
      <trkpt lat="2.742063" lon="-75.08216">
        <ele>2124.6</ele>
        <time>2021-08-21T17:42:01Z</time>
      </trkpt>
      <trkpt lat="2.74211" lon="-75.08219">
        <ele>2124.4</ele>
        <time>2021-08-21T17:42:02Z</time>
      </trkpt>
      <trkpt lat="2.742156" lon="-75.082214">
        <ele>2124.2</ele>
        <time>2021-08-21T17:42:03Z</time>
      </trkpt>
      <trkpt lat="2.742204" lon="-75.082245">
        <ele>2124.0</ele>
        <time>2021-08-21T17:42:04Z</time>
      </trkpt>
      <trkpt lat="2.742249" lon="-75.082275">
        <ele>2123.9</ele>
        <time>2021-08-21T17:42:05Z</time>
      </trkpt>
      <trkpt lat="2.742293" lon="-75.0823">
        <ele>2123.7</ele>
        <time>2021-08-21T17:42:06Z</time>
      </trkpt>
      <trkpt lat="2.742334" lon="-75.08233">
        <ele>2123.5</ele>
        <time>2021-08-21T17:42:07Z</time>
      </trkpt>
      <trkpt lat="2.742376" lon="-75.08236">
        <ele>2123.4</ele>
        <time>2021-08-21T17:42:08Z</time>
      </trkpt>
      <trkpt lat="2.742424" lon="-75.08238">
        <ele>2123.2</ele>
        <time>2021-08-21T17:42:09Z</time>
      </trkpt>
      <trkpt lat="2.742473" lon="-75.08241">
        <ele>2123.0</ele>
        <time>2021-08-21T17:42:10Z</time>
      </trkpt>
      <trkpt lat="2.742521" lon="-75.08244">
        <ele>2122.8</ele>
        <time>2021-08-21T17:42:11Z</time>
      </trkpt>
      <trkpt lat="2.742565" lon="-75.08247">
        <ele>2122.6</ele>
        <time>2021-08-21T17:42:12Z</time>
      </trkpt>
      <trkpt lat="2.74261" lon="-75.0825">
        <ele>2122.5</ele>
        <time>2021-08-21T17:42:13Z</time>
      </trkpt>
      <trkpt lat="2.742654" lon="-75.08253">
        <ele>2122.3</ele>
        <time>2021-08-21T17:42:14Z</time>
      </trkpt>
      <trkpt lat="2.742699" lon="-75.08256">
        <ele>2122.0</ele>
        <time>2021-08-21T17:42:15Z</time>
      </trkpt>
      <trkpt lat="2.742749" lon="-75.08259">
        <ele>2121.7</ele>
        <time>2021-08-21T17:42:16Z</time>
      </trkpt>
      <trkpt lat="2.7428" lon="-75.08261">
        <ele>2121.4</ele>
        <time>2021-08-21T17:42:17Z</time>
      </trkpt>
      <trkpt lat="2.74285" lon="-75.08263">
        <ele>2121.1</ele>
        <time>2021-08-21T17:42:18Z</time>
      </trkpt>
      <trkpt lat="2.7429" lon="-75.08263">
        <ele>2120.8</ele>
        <time>2021-08-21T17:42:19Z</time>
      </trkpt>
      <trkpt lat="2.742955" lon="-75.08262">
        <ele>2120.5</ele>
        <time>2021-08-21T17:42:20Z</time>
      </trkpt>
      <trkpt lat="2.743011" lon="-75.0826">
        <ele>2120.2</ele>
        <time>2021-08-21T17:42:21Z</time>
      </trkpt>
      <trkpt lat="2.743063" lon="-75.08258">
        <ele>2119.9</ele>
        <time>2021-08-21T17:42:22Z</time>
      </trkpt>
      <trkpt lat="2.743118" lon="-75.08256">
        <ele>2119.6</ele>
        <time>2021-08-21T17:42:23Z</time>
      </trkpt>
      <trkpt lat="2.743174" lon="-75.082535">
        <ele>2119.4</ele>
        <time>2021-08-21T17:42:24Z</time>
      </trkpt>
      <trkpt lat="2.743232" lon="-75.082504">
        <ele>2119.1</ele>
        <time>2021-08-21T17:42:25Z</time>
      </trkpt>
      <trkpt lat="2.74329" lon="-75.08247">
        <ele>2118.9</ele>
        <time>2021-08-21T17:42:26Z</time>
      </trkpt>
      <trkpt lat="2.743347" lon="-75.08244">
        <ele>2118.7</ele>
        <time>2021-08-21T17:42:27Z</time>
      </trkpt>
      <trkpt lat="2.743403" lon="-75.082405">
        <ele>2118.5</ele>
        <time>2021-08-21T17:42:28Z</time>
      </trkpt>
      <trkpt lat="2.743457" lon="-75.082375">
        <ele>2118.4</ele>
        <time>2021-08-21T17:42:29Z</time>
      </trkpt>
      <trkpt lat="2.743508" lon="-75.082344">
        <ele>2118.3</ele>
        <time>2021-08-21T17:42:30Z</time>
      </trkpt>
      <trkpt lat="2.743559" lon="-75.08231">
        <ele>2118.2</ele>
        <time>2021-08-21T17:42:31Z</time>
      </trkpt>
      <trkpt lat="2.743607" lon="-75.08228">
        <ele>2118.1</ele>
        <time>2021-08-21T17:42:32Z</time>
      </trkpt>
      <trkpt lat="2.743652" lon="-75.08226">
        <ele>2118.1</ele>
        <time>2021-08-21T17:42:33Z</time>
      </trkpt>
      <trkpt lat="2.743694" lon="-75.08224">
        <ele>2118.0</ele>
        <time>2021-08-21T17:42:34Z</time>
      </trkpt>
      <trkpt lat="2.743732" lon="-75.08222">
        <ele>2117.9</ele>
        <time>2021-08-21T17:42:35Z</time>
      </trkpt>
      <trkpt lat="2.743769" lon="-75.08221">
        <ele>2117.8</ele>
        <time>2021-08-21T17:42:36Z</time>
      </trkpt>
      <trkpt lat="2.743804" lon="-75.08219">
        <ele>2117.8</ele>
        <time>2021-08-21T17:42:37Z</time>
      </trkpt>
      <trkpt lat="2.743839" lon="-75.08218">
        <ele>2117.7</ele>
        <time>2021-08-21T17:42:38Z</time>
      </trkpt>
      <trkpt lat="2.743874" lon="-75.08216">
        <ele>2117.6</ele>
        <time>2021-08-21T17:42:39Z</time>
      </trkpt>
      <trkpt lat="2.743909" lon="-75.082146">
        <ele>2117.5</ele>
        <time>2021-08-21T17:42:40Z</time>
      </trkpt>
      <trkpt lat="2.743943" lon="-75.08213">
        <ele>2117.4</ele>
        <time>2021-08-21T17:42:41Z</time>
      </trkpt>
      <trkpt lat="2.743978" lon="-75.082115">
        <ele>2117.3</ele>
        <time>2021-08-21T17:42:42Z</time>
      </trkpt>
      <trkpt lat="2.744014" lon="-75.08209">
        <ele>2117.2</ele>
        <time>2021-08-21T17:42:43Z</time>
      </trkpt>
      <trkpt lat="2.744051" lon="-75.08208">
        <ele>2117.1</ele>
        <time>2021-08-21T17:42:44Z</time>
      </trkpt>
      <trkpt lat="2.744089" lon="-75.08206">
        <ele>2116.9</ele>
        <time>2021-08-21T17:42:45Z</time>
      </trkpt>
      <trkpt lat="2.744128" lon="-75.08204">
        <ele>2116.8</ele>
        <time>2021-08-21T17:42:46Z</time>
      </trkpt>
      <trkpt lat="2.744168" lon="-75.08202">
        <ele>2116.6</ele>
        <time>2021-08-21T17:42:47Z</time>
      </trkpt>
      <trkpt lat="2.74421" lon="-75.082">
        <ele>2116.4</ele>
        <time>2021-08-21T17:42:48Z</time>
      </trkpt>
      <trkpt lat="2.744254" lon="-75.08198">
        <ele>2116.2</ele>
        <time>2021-08-21T17:42:49Z</time>
      </trkpt>
      <trkpt lat="2.744298" lon="-75.08195">
        <ele>2116.0</ele>
        <time>2021-08-21T17:42:50Z</time>
      </trkpt>
      <trkpt lat="2.744343" lon="-75.081924">
        <ele>2115.8</ele>
        <time>2021-08-21T17:42:51Z</time>
      </trkpt>
      <trkpt lat="2.744389" lon="-75.0819">
        <ele>2115.5</ele>
        <time>2021-08-21T17:42:52Z</time>
      </trkpt>
      <trkpt lat="2.744437" lon="-75.08187">
        <ele>2115.3</ele>
        <time>2021-08-21T17:42:53Z</time>
      </trkpt>
      <trkpt lat="2.744487" lon="-75.08184">
        <ele>2115.0</ele>
        <time>2021-08-21T17:42:54Z</time>
      </trkpt>
      <trkpt lat="2.74454" lon="-75.08182">
        <ele>2114.8</ele>
        <time>2021-08-21T17:42:55Z</time>
      </trkpt>
      <trkpt lat="2.744594" lon="-75.08179">
        <ele>2114.6</ele>
        <time>2021-08-21T17:42:56Z</time>
      </trkpt>
      <trkpt lat="2.744648" lon="-75.081764">
        <ele>2114.3</ele>
        <time>2021-08-21T17:42:57Z</time>
      </trkpt>
      <trkpt lat="2.744701" lon="-75.08174">
        <ele>2114.1</ele>
        <time>2021-08-21T17:42:58Z</time>
      </trkpt>
      <trkpt lat="2.744755" lon="-75.08172">
        <ele>2113.9</ele>
        <time>2021-08-21T17:42:59Z</time>
      </trkpt>
      <trkpt lat="2.74481" lon="-75.0817">
        <ele>2113.7</ele>
        <time>2021-08-21T17:43:00Z</time>
      </trkpt>
      <trkpt lat="2.744871" lon="-75.08168">
        <ele>2113.4</ele>
        <time>2021-08-21T17:43:01Z</time>
      </trkpt>
      <trkpt lat="2.744932" lon="-75.081665">
        <ele>2113.1</ele>
        <time>2021-08-21T17:43:02Z</time>
      </trkpt>
      <trkpt lat="2.744989" lon="-75.08166">
        <ele>2112.8</ele>
        <time>2021-08-21T17:43:03Z</time>
      </trkpt>
      <trkpt lat="2.745043" lon="-75.08166">
        <ele>2112.6</ele>
        <time>2021-08-21T17:43:04Z</time>
      </trkpt>
      <trkpt lat="2.745102" lon="-75.08166">
        <ele>2112.4</ele>
        <time>2021-08-21T17:43:05Z</time>
      </trkpt>
      <trkpt lat="2.74516" lon="-75.081665">
        <ele>2112.1</ele>
        <time>2021-08-21T17:43:06Z</time>
      </trkpt>
      <trkpt lat="2.745218" lon="-75.08167">
        <ele>2111.9</ele>
        <time>2021-08-21T17:43:07Z</time>
      </trkpt>
      <trkpt lat="2.745275" lon="-75.08168">
        <ele>2111.6</ele>
        <time>2021-08-21T17:43:08Z</time>
      </trkpt>
      <trkpt lat="2.745333" lon="-75.08169">
        <ele>2111.4</ele>
        <time>2021-08-21T17:43:09Z</time>
      </trkpt>
      <trkpt lat="2.745391" lon="-75.081696">
        <ele>2111.2</ele>
        <time>2021-08-21T17:43:10Z</time>
      </trkpt>
      <trkpt lat="2.74545" lon="-75.0817">
        <ele>2110.9</ele>
        <time>2021-08-21T17:43:11Z</time>
      </trkpt>
      <trkpt lat="2.745509" lon="-75.0817">
        <ele>2110.7</ele>
        <time>2021-08-21T17:43:12Z</time>
      </trkpt>
      <trkpt lat="2.745565" lon="-75.081696">
        <ele>2110.4</ele>
        <time>2021-08-21T17:43:13Z</time>
      </trkpt>
      <trkpt lat="2.745619" lon="-75.08168">
        <ele>2110.1</ele>
        <time>2021-08-21T17:43:14Z</time>
      </trkpt>
      <trkpt lat="2.745673" lon="-75.08166">
        <ele>2109.9</ele>
        <time>2021-08-21T17:43:15Z</time>
      </trkpt>
      <trkpt lat="2.745727" lon="-75.081635">
        <ele>2109.6</ele>
        <time>2021-08-21T17:43:16Z</time>
      </trkpt>
      <trkpt lat="2.745782" lon="-75.081604">
        <ele>2109.3</ele>
        <time>2021-08-21T17:43:17Z</time>
      </trkpt>
      <trkpt lat="2.74584" lon="-75.08158">
        <ele>2109.0</ele>
        <time>2021-08-21T17:43:18Z</time>
      </trkpt>
      <trkpt lat="2.745903" lon="-75.08156">
        <ele>2108.7</ele>
        <time>2021-08-21T17:43:19Z</time>
      </trkpt>
      <trkpt lat="2.745963" lon="-75.08154">
        <ele>2108.5</ele>
        <time>2021-08-21T17:43:20Z</time>
      </trkpt>
      <trkpt lat="2.74602" lon="-75.08153">
        <ele>2108.2</ele>
        <time>2021-08-21T17:43:21Z</time>
      </trkpt>
      <trkpt lat="2.746077" lon="-75.081535">
        <ele>2108.0</ele>
        <time>2021-08-21T17:43:22Z</time>
      </trkpt>
      <trkpt lat="2.746133" lon="-75.08154">
        <ele>2107.8</ele>
        <time>2021-08-21T17:43:23Z</time>
      </trkpt>
      <trkpt lat="2.746187" lon="-75.08156">
        <ele>2107.6</ele>
        <time>2021-08-21T17:43:24Z</time>
      </trkpt>
      <trkpt lat="2.746236" lon="-75.08158">
        <ele>2107.4</ele>
        <time>2021-08-21T17:43:25Z</time>
      </trkpt>
      <trkpt lat="2.746286" lon="-75.081604">
        <ele>2107.3</ele>
        <time>2021-08-21T17:43:26Z</time>
      </trkpt>
      <trkpt lat="2.746333" lon="-75.081635">
        <ele>2107.1</ele>
        <time>2021-08-21T17:43:27Z</time>
      </trkpt>
      <trkpt lat="2.746384" lon="-75.081665">
        <ele>2106.9</ele>
        <time>2021-08-21T17:43:28Z</time>
      </trkpt>
      <trkpt lat="2.74644" lon="-75.08169">
        <ele>2106.7</ele>
        <time>2021-08-21T17:43:29Z</time>
      </trkpt>
      <trkpt lat="2.746501" lon="-75.08171">
        <ele>2106.5</ele>
        <time>2021-08-21T17:43:30Z</time>
      </trkpt>
      <trkpt lat="2.746559" lon="-75.081726">
        <ele>2106.3</ele>
        <time>2021-08-21T17:43:31Z</time>
      </trkpt>
      <trkpt lat="2.746607" lon="-75.08173">
        <ele>2106.1</ele>
        <time>2021-08-21T17:43:32Z</time>
      </trkpt>
      <trkpt lat="2.746654" lon="-75.08174">
        <ele>2105.9</ele>
        <time>2021-08-21T17:43:33Z</time>
      </trkpt>
      <trkpt lat="2.7467" lon="-75.08174">
        <ele>2105.9</ele>
        <time>2021-08-21T17:43:34Z</time>
      </trkpt>
      <trkpt lat="2.746745" lon="-75.08173">
        <ele>2105.8</ele>
        <time>2021-08-21T17:43:35Z</time>
      </trkpt>
      <trkpt lat="2.746787" lon="-75.081726">
        <ele>2105.7</ele>
        <time>2021-08-21T17:43:36Z</time>
      </trkpt>
      <trkpt lat="2.746829" lon="-75.08171">
        <ele>2105.6</ele>
        <time>2021-08-21T17:43:37Z</time>
      </trkpt>
      <trkpt lat="2.74687" lon="-75.081696">
        <ele>2105.5</ele>
        <time>2021-08-21T17:43:38Z</time>
      </trkpt>
      <trkpt lat="2.746912" lon="-75.08168">
        <ele>2105.5</ele>
        <time>2021-08-21T17:43:39Z</time>
      </trkpt>
      <trkpt lat="2.746953" lon="-75.081665">
        <ele>2105.4</ele>
        <time>2021-08-21T17:43:40Z</time>
      </trkpt>
      <trkpt lat="2.746995" lon="-75.08165">
        <ele>2105.3</ele>
        <time>2021-08-21T17:43:41Z</time>
      </trkpt>
      <trkpt lat="2.747036" lon="-75.081635">
        <ele>2105.3</ele>
        <time>2021-08-21T17:43:42Z</time>
      </trkpt>
      <trkpt lat="2.747078" lon="-75.08162">
        <ele>2105.2</ele>
        <time>2021-08-21T17:43:43Z</time>
      </trkpt>
      <trkpt lat="2.74712" lon="-75.08161">
        <ele>2105.2</ele>
        <time>2021-08-21T17:43:44Z</time>
      </trkpt>
      <trkpt lat="2.747163" lon="-75.0816">
        <ele>2105.1</ele>
        <time>2021-08-21T17:43:45Z</time>
      </trkpt>
      <trkpt lat="2.747207" lon="-75.08158">
        <ele>2105.1</ele>
        <time>2021-08-21T17:43:46Z</time>
      </trkpt>
      <trkpt lat="2.747251" lon="-75.081566">
        <ele>2105.1</ele>
        <time>2021-08-21T17:43:47Z</time>
      </trkpt>
      <trkpt lat="2.747295" lon="-75.08154">
        <ele>2105.1</ele>
        <time>2021-08-21T17:43:48Z</time>
      </trkpt>
      <trkpt lat="2.747339" lon="-75.08153">
        <ele>2105.1</ele>
        <time>2021-08-21T17:43:49Z</time>
      </trkpt>
      <trkpt lat="2.747384" lon="-75.081505">
        <ele>2105.1</ele>
        <time>2021-08-21T17:43:50Z</time>
      </trkpt>
      <trkpt lat="2.747426" lon="-75.08149">
        <ele>2105.0</ele>
        <time>2021-08-21T17:43:51Z</time>
      </trkpt>
      <trkpt lat="2.747469" lon="-75.08147">
        <ele>2105.0</ele>
        <time>2021-08-21T17:43:52Z</time>
      </trkpt>
      <trkpt lat="2.74751" lon="-75.08145">
        <ele>2104.9</ele>
        <time>2021-08-21T17:43:53Z</time>
      </trkpt>
      <trkpt lat="2.74755" lon="-75.08143">
        <ele>2104.8</ele>
        <time>2021-08-21T17:43:54Z</time>
      </trkpt>
      <trkpt lat="2.747588" lon="-75.081406">
        <ele>2104.8</ele>
        <time>2021-08-21T17:43:55Z</time>
      </trkpt>
      <trkpt lat="2.747625" lon="-75.08138">
        <ele>2104.7</ele>
        <time>2021-08-21T17:43:56Z</time>
      </trkpt>
      <trkpt lat="2.747661" lon="-75.08135">
        <ele>2104.7</ele>
        <time>2021-08-21T17:43:57Z</time>
      </trkpt>
      <trkpt lat="2.747697" lon="-75.08133">
        <ele>2104.6</ele>
        <time>2021-08-21T17:43:58Z</time>
      </trkpt>
      <trkpt lat="2.747731" lon="-75.08131">
        <ele>2104.6</ele>
        <time>2021-08-21T17:43:59Z</time>
      </trkpt>
      <trkpt lat="2.747765" lon="-75.08129">
        <ele>2104.6</ele>
        <time>2021-08-21T17:44:00Z</time>
      </trkpt>
      <trkpt lat="2.747798" lon="-75.08127">
        <ele>2104.5</ele>
        <time>2021-08-21T17:44:01Z</time>
      </trkpt>
      <trkpt lat="2.747831" lon="-75.081245">
        <ele>2104.5</ele>
        <time>2021-08-21T17:44:02Z</time>
      </trkpt>
      <trkpt lat="2.747866" lon="-75.08122">
        <ele>2104.4</ele>
        <time>2021-08-21T17:44:03Z</time>
      </trkpt>
      <trkpt lat="2.747901" lon="-75.0812">
        <ele>2104.4</ele>
        <time>2021-08-21T17:44:04Z</time>
      </trkpt>
      <trkpt lat="2.747938" lon="-75.081184">
        <ele>2104.4</ele>
        <time>2021-08-21T17:44:05Z</time>
      </trkpt>
      <trkpt lat="2.747976" lon="-75.08116">
        <ele>2104.3</ele>
        <time>2021-08-21T17:44:06Z</time>
      </trkpt>
      <trkpt lat="2.748016" lon="-75.08114">
        <ele>2104.3</ele>
        <time>2021-08-21T17:44:07Z</time>
      </trkpt>
      <trkpt lat="2.748054" lon="-75.081116">
        <ele>2104.2</ele>
        <time>2021-08-21T17:44:08Z</time>
      </trkpt>
      <trkpt lat="2.748092" lon="-75.08109">
        <ele>2104.2</ele>
        <time>2021-08-21T17:44:09Z</time>
      </trkpt>
      <trkpt lat="2.748129" lon="-75.08106">
        <ele>2104.1</ele>
        <time>2021-08-21T17:44:10Z</time>
      </trkpt>
      <trkpt lat="2.748169" lon="-75.08103">
        <ele>2104.0</ele>
        <time>2021-08-21T17:44:11Z</time>
      </trkpt>
      <trkpt lat="2.748208" lon="-75.081">
        <ele>2103.9</ele>
        <time>2021-08-21T17:44:12Z</time>
      </trkpt>
      <trkpt lat="2.748241" lon="-75.08097">
        <ele>2103.8</ele>
        <time>2021-08-21T17:44:13Z</time>
      </trkpt>
      <trkpt lat="2.748274" lon="-75.08094">
        <ele>2103.7</ele>
        <time>2021-08-21T17:44:14Z</time>
      </trkpt>
      <trkpt lat="2.748307" lon="-75.0809">
        <ele>2103.6</ele>
        <time>2021-08-21T17:44:15Z</time>
      </trkpt>
      <trkpt lat="2.748337" lon="-75.08087">
        <ele>2103.5</ele>
        <time>2021-08-21T17:44:16Z</time>
      </trkpt>
      <trkpt lat="2.748364" lon="-75.08083">
        <ele>2103.4</ele>
        <time>2021-08-21T17:44:17Z</time>
      </trkpt>
      <trkpt lat="2.748387" lon="-75.0808">
        <ele>2103.3</ele>
        <time>2021-08-21T17:44:18Z</time>
      </trkpt>
      <trkpt lat="2.748408" lon="-75.080765">
        <ele>2103.2</ele>
        <time>2021-08-21T17:44:19Z</time>
      </trkpt>
      <trkpt lat="2.74843" lon="-75.08073">
        <ele>2103.1</ele>
        <time>2021-08-21T17:44:20Z</time>
      </trkpt>
      <trkpt lat="2.748454" lon="-75.080696">
        <ele>2102.9</ele>
        <time>2021-08-21T17:44:21Z</time>
      </trkpt>
      <trkpt lat="2.74848" lon="-75.08066">
        <ele>2102.8</ele>
        <time>2021-08-21T17:44:22Z</time>
      </trkpt>
      <trkpt lat="2.74851" lon="-75.08062">
        <ele>2102.6</ele>
        <time>2021-08-21T17:44:22Z</time>
      </trkpt>
      <trkpt lat="2.748546" lon="-75.08058">
        <ele>2102.4</ele>
        <time>2021-08-21T17:44:23Z</time>
      </trkpt>
      <trkpt lat="2.748585" lon="-75.08055">
        <ele>2102.3</ele>
        <time>2021-08-21T17:44:24Z</time>
      </trkpt>
      <trkpt lat="2.748627" lon="-75.08052">
        <ele>2102.1</ele>
        <time>2021-08-21T17:44:25Z</time>
      </trkpt>
      <trkpt lat="2.748668" lon="-75.0805">
        <ele>2101.9</ele>
        <time>2021-08-21T17:44:26Z</time>
      </trkpt>
      <trkpt lat="2.748712" lon="-75.080475">
        <ele>2101.7</ele>
        <time>2021-08-21T17:44:27Z</time>
      </trkpt>
      <trkpt lat="2.748763" lon="-75.08046">
        <ele>2101.5</ele>
        <time>2021-08-21T17:44:28Z</time>
      </trkpt>
      <trkpt lat="2.748816" lon="-75.080444">
        <ele>2101.4</ele>
        <time>2021-08-21T17:44:29Z</time>
      </trkpt>
      <trkpt lat="2.748871" lon="-75.08043">
        <ele>2101.2</ele>
        <time>2021-08-21T17:44:30Z</time>
      </trkpt>
      <trkpt lat="2.748923" lon="-75.08043">
        <ele>2101.1</ele>
        <time>2021-08-21T17:44:31Z</time>
      </trkpt>
      <trkpt lat="2.74898" lon="-75.08042">
        <ele>2100.9</ele>
        <time>2021-08-21T17:44:32Z</time>
      </trkpt>
      <trkpt lat="2.749037" lon="-75.080414">
        <ele>2100.7</ele>
        <time>2021-08-21T17:44:33Z</time>
      </trkpt>
      <trkpt lat="2.749092" lon="-75.08041">
        <ele>2100.5</ele>
        <time>2021-08-21T17:44:34Z</time>
      </trkpt>
      <trkpt lat="2.749147" lon="-75.0804">
        <ele>2100.3</ele>
        <time>2021-08-21T17:44:35Z</time>
      </trkpt>
      <trkpt lat="2.749196" lon="-75.08038">
        <ele>2100.0</ele>
        <time>2021-08-21T17:44:36Z</time>
      </trkpt>
      <trkpt lat="2.749242" lon="-75.08036">
        <ele>2099.8</ele>
        <time>2021-08-21T17:44:37Z</time>
      </trkpt>
      <trkpt lat="2.749288" lon="-75.08034">
        <ele>2099.6</ele>
        <time>2021-08-21T17:44:38Z</time>
      </trkpt>
      <trkpt lat="2.74933" lon="-75.0803">
        <ele>2099.4</ele>
        <time>2021-08-21T17:44:39Z</time>
      </trkpt>
      <trkpt lat="2.749369" lon="-75.08026">
        <ele>2099.3</ele>
        <time>2021-08-21T17:44:40Z</time>
      </trkpt>
      <trkpt lat="2.749404" lon="-75.08023">
        <ele>2099.1</ele>
        <time>2021-08-21T17:44:41Z</time>
      </trkpt>
      <trkpt lat="2.74944" lon="-75.080185">
        <ele>2099.0</ele>
        <time>2021-08-21T17:44:42Z</time>
      </trkpt>
      <trkpt lat="2.749474" lon="-75.08015">
        <ele>2098.9</ele>
        <time>2021-08-21T17:44:43Z</time>
      </trkpt>
      <trkpt lat="2.749505" lon="-75.0801">
        <ele>2098.7</ele>
        <time>2021-08-21T17:44:44Z</time>
      </trkpt>
      <trkpt lat="2.749535" lon="-75.08006">
        <ele>2098.6</ele>
        <time>2021-08-21T17:44:45Z</time>
      </trkpt>
      <trkpt lat="2.749566" lon="-75.08002">
        <ele>2098.4</ele>
        <time>2021-08-21T17:44:46Z</time>
      </trkpt>
      <trkpt lat="2.7496" lon="-75.07998">
        <ele>2098.1</ele>
        <time>2021-08-21T17:44:47Z</time>
      </trkpt>
      <trkpt lat="2.749634" lon="-75.07993">
        <ele>2097.9</ele>
        <time>2021-08-21T17:44:48Z</time>
      </trkpt>
      <trkpt lat="2.749667" lon="-75.079895">
        <ele>2097.7</ele>
        <time>2021-08-21T17:44:49Z</time>
      </trkpt>
      <trkpt lat="2.749698" lon="-75.07986">
        <ele>2097.5</ele>
        <time>2021-08-21T17:44:50Z</time>
      </trkpt>
      <trkpt lat="2.749731" lon="-75.07982">
        <ele>2097.3</ele>
        <time>2021-08-21T17:44:51Z</time>
      </trkpt>
      <trkpt lat="2.749767" lon="-75.07978">
        <ele>2097.2</ele>
        <time>2021-08-21T17:44:52Z</time>
      </trkpt>
      <trkpt lat="2.749807" lon="-75.07974">
        <ele>2097.0</ele>
        <time>2021-08-21T17:44:53Z</time>
      </trkpt>
      <trkpt lat="2.749846" lon="-75.079704">
        <ele>2096.8</ele>
        <time>2021-08-21T17:44:54Z</time>
      </trkpt>
      <trkpt lat="2.749888" lon="-75.07967">
        <ele>2096.7</ele>
        <time>2021-08-21T17:44:55Z</time>
      </trkpt>
      <trkpt lat="2.749929" lon="-75.079636">
        <ele>2096.5</ele>
        <time>2021-08-21T17:44:56Z</time>
      </trkpt>
      <trkpt lat="2.749976" lon="-75.0796">
        <ele>2096.3</ele>
        <time>2021-08-21T17:44:57Z</time>
      </trkpt>
      <trkpt lat="2.750026" lon="-75.07957">
        <ele>2096.1</ele>
        <time>2021-08-21T17:44:58Z</time>
      </trkpt>
      <trkpt lat="2.750078" lon="-75.07953">
        <ele>2095.9</ele>
        <time>2021-08-21T17:44:59Z</time>
      </trkpt>
      <trkpt lat="2.75013" lon="-75.0795">
        <ele>2095.8</ele>
        <time>2021-08-21T17:45:00Z</time>
      </trkpt>
      <trkpt lat="2.750183" lon="-75.07947">
        <ele>2095.6</ele>
        <time>2021-08-21T17:45:01Z</time>
      </trkpt>
      <trkpt lat="2.750237" lon="-75.07944">
        <ele>2095.4</ele>
        <time>2021-08-21T17:45:02Z</time>
      </trkpt>
      <trkpt lat="2.75029" lon="-75.07941">
        <ele>2095.2</ele>
        <time>2021-08-21T17:45:03Z</time>
      </trkpt>
      <trkpt lat="2.750338" lon="-75.07938">
        <ele>2095.0</ele>
        <time>2021-08-21T17:45:04Z</time>
      </trkpt>
      <trkpt lat="2.750387" lon="-75.079346">
        <ele>2094.8</ele>
        <time>2021-08-21T17:45:05Z</time>
      </trkpt>
      <trkpt lat="2.75044" lon="-75.079315">
        <ele>2094.7</ele>
        <time>2021-08-21T17:45:06Z</time>
      </trkpt>
      <trkpt lat="2.750494" lon="-75.07928">
        <ele>2094.5</ele>
        <time>2021-08-21T17:45:07Z</time>
      </trkpt>
      <trkpt lat="2.750546" lon="-75.07925">
        <ele>2094.3</ele>
        <time>2021-08-21T17:45:08Z</time>
      </trkpt>
      <trkpt lat="2.750596" lon="-75.07921">
        <ele>2094.1</ele>
        <time>2021-08-21T17:45:09Z</time>
      </trkpt>
      <trkpt lat="2.750641" lon="-75.07917">
        <ele>2093.9</ele>
        <time>2021-08-21T17:45:10Z</time>
      </trkpt>
      <trkpt lat="2.750685" lon="-75.07913">
        <ele>2093.7</ele>
        <time>2021-08-21T17:45:11Z</time>
      </trkpt>
      <trkpt lat="2.750724" lon="-75.07909">
        <ele>2093.5</ele>
        <time>2021-08-21T17:45:12Z</time>
      </trkpt>
      <trkpt lat="2.750759" lon="-75.07905">
        <ele>2093.3</ele>
        <time>2021-08-21T17:45:13Z</time>
      </trkpt>
      <trkpt lat="2.750792" lon="-75.079">
        <ele>2093.0</ele>
        <time>2021-08-21T17:45:14Z</time>
      </trkpt>
      <trkpt lat="2.750826" lon="-75.07894">
        <ele>2092.8</ele>
        <time>2021-08-21T17:45:15Z</time>
      </trkpt>
      <trkpt lat="2.750859" lon="-75.07889">
        <ele>2092.6</ele>
        <time>2021-08-21T17:45:16Z</time>
      </trkpt>
      <trkpt lat="2.750891" lon="-75.078835">
        <ele>2092.3</ele>
        <time>2021-08-21T17:45:17Z</time>
      </trkpt>
      <trkpt lat="2.75092" lon="-75.07878">
        <ele>2092.1</ele>
        <time>2021-08-21T17:45:18Z</time>
      </trkpt>
      <trkpt lat="2.750952" lon="-75.07872">
        <ele>2091.8</ele>
        <time>2021-08-21T17:45:19Z</time>
      </trkpt>
      <trkpt lat="2.750985" lon="-75.07867">
        <ele>2091.6</ele>
        <time>2021-08-21T17:45:20Z</time>
      </trkpt>
      <trkpt lat="2.751019" lon="-75.07861">
        <ele>2091.5</ele>
        <time>2021-08-21T17:45:21Z</time>
      </trkpt>
      <trkpt lat="2.751054" lon="-75.07855">
        <ele>2091.3</ele>
        <time>2021-08-21T17:45:22Z</time>
      </trkpt>
      <trkpt lat="2.751088" lon="-75.0785">
        <ele>2091.2</ele>
        <time>2021-08-21T17:45:23Z</time>
      </trkpt>
      <trkpt lat="2.751123" lon="-75.078445">
        <ele>2091.0</ele>
        <time>2021-08-21T17:45:24Z</time>
      </trkpt>
      <trkpt lat="2.751158" lon="-75.07839">
        <ele>2090.9</ele>
        <time>2021-08-21T17:45:25Z</time>
      </trkpt>
      <trkpt lat="2.751194" lon="-75.07835">
        <ele>2090.7</ele>
        <time>2021-08-21T17:45:26Z</time>
      </trkpt>
      <trkpt lat="2.751228" lon="-75.0783">
        <ele>2090.6</ele>
        <time>2021-08-21T17:45:27Z</time>
      </trkpt>
      <trkpt lat="2.751264" lon="-75.07825">
        <ele>2090.4</ele>
        <time>2021-08-21T17:45:28Z</time>
      </trkpt>
      <trkpt lat="2.7513" lon="-75.0782">
        <ele>2090.3</ele>
        <time>2021-08-21T17:45:29Z</time>
      </trkpt>
      <trkpt lat="2.751336" lon="-75.078156">
        <ele>2090.1</ele>
        <time>2021-08-21T17:45:30Z</time>
      </trkpt>
      <trkpt lat="2.751375" lon="-75.07811">
        <ele>2090.0</ele>
        <time>2021-08-21T17:45:31Z</time>
      </trkpt>
      <trkpt lat="2.751413" lon="-75.07807">
        <ele>2089.8</ele>
        <time>2021-08-21T17:45:32Z</time>
      </trkpt>
      <trkpt lat="2.751452" lon="-75.07803">
        <ele>2089.7</ele>
        <time>2021-08-21T17:45:33Z</time>
      </trkpt>
      <trkpt lat="2.751491" lon="-75.077995">
        <ele>2089.6</ele>
        <time>2021-08-21T17:45:34Z</time>
      </trkpt>
      <trkpt lat="2.75153" lon="-75.07796">
        <ele>2089.4</ele>
        <time>2021-08-21T17:45:35Z</time>
      </trkpt>
      <trkpt lat="2.751568" lon="-75.07792">
        <ele>2089.3</ele>
        <time>2021-08-21T17:45:36Z</time>
      </trkpt>
      <trkpt lat="2.751606" lon="-75.07789">
        <ele>2089.2</ele>
        <time>2021-08-21T17:45:37Z</time>
      </trkpt>
      <trkpt lat="2.751644" lon="-75.07785">
        <ele>2089.1</ele>
        <time>2021-08-21T17:45:38Z</time>
      </trkpt>
      <trkpt lat="2.751685" lon="-75.07781">
        <ele>2089.0</ele>
        <time>2021-08-21T17:45:39Z</time>
      </trkpt>
      <trkpt lat="2.751726" lon="-75.077774">
        <ele>2088.8</ele>
        <time>2021-08-21T17:45:40Z</time>
      </trkpt>
      <trkpt lat="2.751764" lon="-75.07773">
        <ele>2088.7</ele>
        <time>2021-08-21T17:45:41Z</time>
      </trkpt>
      <trkpt lat="2.751801" lon="-75.07769">
        <ele>2088.6</ele>
        <time>2021-08-21T17:45:42Z</time>
      </trkpt>
      <trkpt lat="2.751836" lon="-75.07765">
        <ele>2088.4</ele>
        <time>2021-08-21T17:45:43Z</time>
      </trkpt>
      <trkpt lat="2.751875" lon="-75.077614">
        <ele>2088.3</ele>
        <time>2021-08-21T17:45:44Z</time>
      </trkpt>
      <trkpt lat="2.751913" lon="-75.077576">
        <ele>2088.2</ele>
        <time>2021-08-21T17:45:45Z</time>
      </trkpt>
      <trkpt lat="2.751952" lon="-75.07754">
        <ele>2088.1</ele>
        <time>2021-08-21T17:45:46Z</time>
      </trkpt>
      <trkpt lat="2.751992" lon="-75.0775">
        <ele>2088.1</ele>
        <time>2021-08-21T17:45:47Z</time>
      </trkpt>
      <trkpt lat="2.752033" lon="-75.07747">
        <ele>2088.0</ele>
        <time>2021-08-21T17:45:48Z</time>
      </trkpt>
      <trkpt lat="2.752076" lon="-75.07744">
        <ele>2087.9</ele>
        <time>2021-08-21T17:45:49Z</time>
      </trkpt>
      <trkpt lat="2.75212" lon="-75.07741">
        <ele>2087.8</ele>
        <time>2021-08-21T17:45:50Z</time>
      </trkpt>
      <trkpt lat="2.752165" lon="-75.077385">
        <ele>2087.7</ele>
        <time>2021-08-21T17:45:51Z</time>
      </trkpt>
      <trkpt lat="2.752213" lon="-75.07736">
        <ele>2087.6</ele>
        <time>2021-08-21T17:45:52Z</time>
      </trkpt>
      <trkpt lat="2.752259" lon="-75.07734">
        <ele>2087.5</ele>
        <time>2021-08-21T17:45:53Z</time>
      </trkpt>
      <trkpt lat="2.752309" lon="-75.07732">
        <ele>2087.4</ele>
        <time>2021-08-21T17:45:54Z</time>
      </trkpt>
      <trkpt lat="2.752359" lon="-75.0773">
        <ele>2087.3</ele>
        <time>2021-08-21T17:45:55Z</time>
      </trkpt>
      <trkpt lat="2.752409" lon="-75.077286">
        <ele>2087.2</ele>
        <time>2021-08-21T17:45:56Z</time>
      </trkpt>
      <trkpt lat="2.752455" lon="-75.07727">
        <ele>2087.2</ele>
        <time>2021-08-21T17:45:57Z</time>
      </trkpt>
      <trkpt lat="2.752502" lon="-75.077255">
        <ele>2087.1</ele>
        <time>2021-08-21T17:45:58Z</time>
      </trkpt>
      <trkpt lat="2.752553" lon="-75.07725">
        <ele>2087.0</ele>
        <time>2021-08-21T17:45:59Z</time>
      </trkpt>
      <trkpt lat="2.752604" lon="-75.07724">
        <ele>2087.0</ele>
        <time>2021-08-21T17:46:00Z</time>
      </trkpt>
      <trkpt lat="2.752654" lon="-75.07724">
        <ele>2087.0</ele>
        <time>2021-08-21T17:46:01Z</time>
      </trkpt>
      <trkpt lat="2.752699" lon="-75.07724">
        <ele>2087.0</ele>
        <time>2021-08-21T17:46:02Z</time>
      </trkpt>
      <trkpt lat="2.752745" lon="-75.07725">
        <ele>2087.0</ele>
        <time>2021-08-21T17:46:03Z</time>
      </trkpt>
      <trkpt lat="2.75279" lon="-75.077255">
        <ele>2087.0</ele>
        <time>2021-08-21T17:46:04Z</time>
      </trkpt>
      <trkpt lat="2.752835" lon="-75.07728">
        <ele>2087.0</ele>
        <time>2021-08-21T17:46:05Z</time>
      </trkpt>
      <trkpt lat="2.752878" lon="-75.0773">
        <ele>2087.0</ele>
        <time>2021-08-21T17:46:06Z</time>
      </trkpt>
      <trkpt lat="2.752916" lon="-75.07732">
        <ele>2087.0</ele>
        <time>2021-08-21T17:46:07Z</time>
      </trkpt>
      <trkpt lat="2.752957" lon="-75.07734">
        <ele>2086.9</ele>
        <time>2021-08-21T17:46:08Z</time>
      </trkpt>
      <trkpt lat="2.752996" lon="-75.07736">
        <ele>2086.9</ele>
        <time>2021-08-21T17:46:09Z</time>
      </trkpt>
      <trkpt lat="2.753036" lon="-75.077385">
        <ele>2086.8</ele>
        <time>2021-08-21T17:46:10Z</time>
      </trkpt>
      <trkpt lat="2.753072" lon="-75.07741">
        <ele>2086.7</ele>
        <time>2021-08-21T17:46:11Z</time>
      </trkpt>
      <trkpt lat="2.753109" lon="-75.07742">
        <ele>2086.7</ele>
        <time>2021-08-21T17:46:12Z</time>
      </trkpt>
      <trkpt lat="2.753149" lon="-75.07744">
        <ele>2086.6</ele>
        <time>2021-08-21T17:46:13Z</time>
      </trkpt>
      <trkpt lat="2.753192" lon="-75.07745">
        <ele>2086.5</ele>
        <time>2021-08-21T17:46:14Z</time>
      </trkpt>
      <trkpt lat="2.753235" lon="-75.07746">
        <ele>2086.4</ele>
        <time>2021-08-21T17:46:15Z</time>
      </trkpt>
      <trkpt lat="2.753276" lon="-75.07747">
        <ele>2086.3</ele>
        <time>2021-08-21T17:46:16Z</time>
      </trkpt>
      <trkpt lat="2.753318" lon="-75.07747">
        <ele>2086.2</ele>
        <time>2021-08-21T17:46:17Z</time>
      </trkpt>
      <trkpt lat="2.753361" lon="-75.07747">
        <ele>2086.2</ele>
        <time>2021-08-21T17:46:18Z</time>
      </trkpt>
      <trkpt lat="2.753404" lon="-75.07746">
        <ele>2086.1</ele>
        <time>2021-08-21T17:46:19Z</time>
      </trkpt>
      <trkpt lat="2.753448" lon="-75.07745">
        <ele>2086.0</ele>
        <time>2021-08-21T17:46:20Z</time>
      </trkpt>
      <trkpt lat="2.753492" lon="-75.077446">
        <ele>2085.9</ele>
        <time>2021-08-21T17:46:21Z</time>
      </trkpt>
      <trkpt lat="2.753536" lon="-75.07743">
        <ele>2085.9</ele>
        <time>2021-08-21T17:46:22Z</time>
      </trkpt>
      <trkpt lat="2.75358" lon="-75.07742">
        <ele>2085.8</ele>
        <time>2021-08-21T17:46:23Z</time>
      </trkpt>
      <trkpt lat="2.753625" lon="-75.07741">
        <ele>2085.7</ele>
        <time>2021-08-21T17:46:24Z</time>
      </trkpt>
      <trkpt lat="2.75367" lon="-75.07739">
        <ele>2085.7</ele>
        <time>2021-08-21T17:46:25Z</time>
      </trkpt>
      <trkpt lat="2.753715" lon="-75.07738">
        <ele>2085.6</ele>
        <time>2021-08-21T17:46:26Z</time>
      </trkpt>
      <trkpt lat="2.753761" lon="-75.07736">
        <ele>2085.5</ele>
        <time>2021-08-21T17:46:27Z</time>
      </trkpt>
      <trkpt lat="2.753807" lon="-75.07734">
        <ele>2085.4</ele>
        <time>2021-08-21T17:46:28Z</time>
      </trkpt>
      <trkpt lat="2.753855" lon="-75.077324">
        <ele>2085.3</ele>
        <time>2021-08-21T17:46:29Z</time>
      </trkpt>
      <trkpt lat="2.753903" lon="-75.0773">
        <ele>2085.2</ele>
        <time>2021-08-21T17:46:30Z</time>
      </trkpt>
      <trkpt lat="2.753952" lon="-75.077286">
        <ele>2085.1</ele>
        <time>2021-08-21T17:46:31Z</time>
      </trkpt>
      <trkpt lat="2.754002" lon="-75.07726">
        <ele>2085.0</ele>
        <time>2021-08-21T17:46:32Z</time>
      </trkpt>
      <trkpt lat="2.754052" lon="-75.07724">
        <ele>2084.9</ele>
        <time>2021-08-21T17:46:33Z</time>
      </trkpt>
      <trkpt lat="2.754105" lon="-75.07722">
        <ele>2084.7</ele>
        <time>2021-08-21T17:46:34Z</time>
      </trkpt>
      <trkpt lat="2.754158" lon="-75.077194">
        <ele>2084.5</ele>
        <time>2021-08-21T17:46:35Z</time>
      </trkpt>
      <trkpt lat="2.754211" lon="-75.07718">
        <ele>2084.3</ele>
        <time>2021-08-21T17:46:36Z</time>
      </trkpt>
      <trkpt lat="2.754264" lon="-75.077156">
        <ele>2084.1</ele>
        <time>2021-08-21T17:46:37Z</time>
      </trkpt>
      <trkpt lat="2.754316" lon="-75.07714">
        <ele>2083.9</ele>
        <time>2021-08-21T17:46:38Z</time>
      </trkpt>
      <trkpt lat="2.75437" lon="-75.07712">
        <ele>2083.7</ele>
        <time>2021-08-21T17:46:39Z</time>
      </trkpt>
      <trkpt lat="2.754425" lon="-75.077095">
        <ele>2083.5</ele>
        <time>2021-08-21T17:46:40Z</time>
      </trkpt>
      <trkpt lat="2.754481" lon="-75.07708">
        <ele>2083.3</ele>
        <time>2021-08-21T17:46:41Z</time>
      </trkpt>
      <trkpt lat="2.754538" lon="-75.07706">
        <ele>2082.9</ele>
        <time>2021-08-21T17:46:42Z</time>
      </trkpt>
      <trkpt lat="2.754595" lon="-75.077034">
        <ele>2082.6</ele>
        <time>2021-08-21T17:46:43Z</time>
      </trkpt>
      <trkpt lat="2.754652" lon="-75.07701">
        <ele>2082.3</ele>
        <time>2021-08-21T17:46:44Z</time>
      </trkpt>
      <trkpt lat="2.754711" lon="-75.07699">
        <ele>2082.0</ele>
        <time>2021-08-21T17:46:45Z</time>
      </trkpt>
      <trkpt lat="2.754769" lon="-75.07697">
        <ele>2081.6</ele>
        <time>2021-08-21T17:46:46Z</time>
      </trkpt>
      <trkpt lat="2.754828" lon="-75.07695">
        <ele>2081.3</ele>
        <time>2021-08-21T17:46:47Z</time>
      </trkpt>
      <trkpt lat="2.754888" lon="-75.07693">
        <ele>2081.1</ele>
        <time>2021-08-21T17:46:48Z</time>
      </trkpt>
      <trkpt lat="2.75495" lon="-75.076904">
        <ele>2080.8</ele>
        <time>2021-08-21T17:46:49Z</time>
      </trkpt>
      <trkpt lat="2.755012" lon="-75.07688">
        <ele>2080.5</ele>
        <time>2021-08-21T17:46:50Z</time>
      </trkpt>
      <trkpt lat="2.755073" lon="-75.07686">
        <ele>2080.3</ele>
        <time>2021-08-21T17:46:51Z</time>
      </trkpt>
      <trkpt lat="2.755138" lon="-75.076836">
        <ele>2079.9</ele>
        <time>2021-08-21T17:46:52Z</time>
      </trkpt>
      <trkpt lat="2.755204" lon="-75.07681">
        <ele>2079.6</ele>
        <time>2021-08-21T17:46:53Z</time>
      </trkpt>
      <trkpt lat="2.755268" lon="-75.07679">
        <ele>2079.2</ele>
        <time>2021-08-21T17:46:54Z</time>
      </trkpt>
      <trkpt lat="2.755331" lon="-75.07677">
        <ele>2078.8</ele>
        <time>2021-08-21T17:46:55Z</time>
      </trkpt>
      <trkpt lat="2.755389" lon="-75.076744">
        <ele>2078.4</ele>
        <time>2021-08-21T17:46:56Z</time>
      </trkpt>
      <trkpt lat="2.755453" lon="-75.07672">
        <ele>2077.9</ele>
        <time>2021-08-21T17:46:57Z</time>
      </trkpt>
      <trkpt lat="2.755517" lon="-75.0767">
        <ele>2077.5</ele>
        <time>2021-08-21T17:46:58Z</time>
      </trkpt>
      <trkpt lat="2.755582" lon="-75.076675">
        <ele>2077.1</ele>
        <time>2021-08-21T17:46:59Z</time>
      </trkpt>
      <trkpt lat="2.755647" lon="-75.07665">
        <ele>2076.8</ele>
        <time>2021-08-21T17:47:00Z</time>
      </trkpt>
      <trkpt lat="2.755712" lon="-75.07662">
        <ele>2076.5</ele>
        <time>2021-08-21T17:47:01Z</time>
      </trkpt>
      <trkpt lat="2.755778" lon="-75.0766">
        <ele>2076.2</ele>
        <time>2021-08-21T17:47:02Z</time>
      </trkpt>
      <trkpt lat="2.755842" lon="-75.07657">
        <ele>2076.0</ele>
        <time>2021-08-21T17:47:03Z</time>
      </trkpt>
      <trkpt lat="2.755906" lon="-75.07654">
        <ele>2075.8</ele>
        <time>2021-08-21T17:47:04Z</time>
      </trkpt>
      <trkpt lat="2.755968" lon="-75.0765">
        <ele>2075.6</ele>
        <time>2021-08-21T17:47:05Z</time>
      </trkpt>
      <trkpt lat="2.756025" lon="-75.07647">
        <ele>2075.5</ele>
        <time>2021-08-21T17:47:06Z</time>
      </trkpt>
      <trkpt lat="2.756084" lon="-75.07643">
        <ele>2075.5</ele>
        <time>2021-08-21T17:47:07Z</time>
      </trkpt>
      <trkpt lat="2.756142" lon="-75.0764">
        <ele>2075.5</ele>
        <time>2021-08-21T17:47:08Z</time>
      </trkpt>
      <trkpt lat="2.756199" lon="-75.07636">
        <ele>2075.5</ele>
        <time>2021-08-21T17:47:09Z</time>
      </trkpt>
      <trkpt lat="2.756252" lon="-75.07633">
        <ele>2075.4</ele>
        <time>2021-08-21T17:47:10Z</time>
      </trkpt>
      <trkpt lat="2.756305" lon="-75.0763">
        <ele>2075.4</ele>
        <time>2021-08-21T17:47:11Z</time>
      </trkpt>
      <trkpt lat="2.756354" lon="-75.07627">
        <ele>2075.4</ele>
        <time>2021-08-21T17:47:12Z</time>
      </trkpt>
      <trkpt lat="2.756398" lon="-75.07625">
        <ele>2075.4</ele>
        <time>2021-08-21T17:47:13Z</time>
      </trkpt>
      <trkpt lat="2.756435" lon="-75.07622">
        <ele>2075.4</ele>
        <time>2021-08-21T17:47:14Z</time>
      </trkpt>
      <trkpt lat="2.756468" lon="-75.0762">
        <ele>2075.5</ele>
        <time>2021-08-21T17:47:15Z</time>
      </trkpt>
      <trkpt lat="2.756501" lon="-75.07618">
        <ele>2075.5</ele>
        <time>2021-08-21T17:47:16Z</time>
      </trkpt>
      <trkpt lat="2.756529" lon="-75.07616">
        <ele>2075.4</ele>
        <time>2021-08-21T17:47:17Z</time>
      </trkpt>
      <trkpt lat="2.756557" lon="-75.07614">
        <ele>2075.4</ele>
        <time>2021-08-21T17:47:18Z</time>
      </trkpt>
      <trkpt lat="2.756584" lon="-75.076126">
        <ele>2075.4</ele>
        <time>2021-08-21T17:47:19Z</time>
      </trkpt>
      <trkpt lat="2.756611" lon="-75.0761">
        <ele>2075.4</ele>
        <time>2021-08-21T17:47:20Z</time>
      </trkpt>
      <trkpt lat="2.756638" lon="-75.07609">
        <ele>2075.4</ele>
        <time>2021-08-21T17:47:21Z</time>
      </trkpt>
      <trkpt lat="2.756665" lon="-75.07607">
        <ele>2075.3</ele>
        <time>2021-08-21T17:47:22Z</time>
      </trkpt>
      <trkpt lat="2.756689" lon="-75.07606">
        <ele>2075.3</ele>
        <time>2021-08-21T17:47:23Z</time>
      </trkpt>
      <trkpt lat="2.756713" lon="-75.07604">
        <ele>2075.3</ele>
        <time>2021-08-21T17:47:24Z</time>
      </trkpt>
      <trkpt lat="2.756736" lon="-75.07603">
        <ele>2075.2</ele>
        <time>2021-08-21T17:47:25Z</time>
      </trkpt>
      <trkpt lat="2.756758" lon="-75.076004">
        <ele>2075.2</ele>
        <time>2021-08-21T17:47:26Z</time>
      </trkpt>
      <trkpt lat="2.756784" lon="-75.07599">
        <ele>2075.2</ele>
        <time>2021-08-21T17:47:27Z</time>
      </trkpt>
      <trkpt lat="2.756808" lon="-75.075966">
        <ele>2075.1</ele>
        <time>2021-08-21T17:47:28Z</time>
      </trkpt>
      <trkpt lat="2.756834" lon="-75.07595">
        <ele>2075.0</ele>
        <time>2021-08-21T17:47:29Z</time>
      </trkpt>
      <trkpt lat="2.756864" lon="-75.075935">
        <ele>2074.9</ele>
        <time>2021-08-21T17:47:30Z</time>
      </trkpt>
      <trkpt lat="2.756893" lon="-75.07592">
        <ele>2074.9</ele>
        <time>2021-08-21T17:47:31Z</time>
      </trkpt>
      <trkpt lat="2.756924" lon="-75.0759">
        <ele>2074.8</ele>
        <time>2021-08-21T17:47:32Z</time>
      </trkpt>
      <trkpt lat="2.756955" lon="-75.07588">
        <ele>2074.7</ele>
        <time>2021-08-21T17:47:33Z</time>
      </trkpt>
      <trkpt lat="2.75699" lon="-75.07587">
        <ele>2074.6</ele>
        <time>2021-08-21T17:47:34Z</time>
      </trkpt>
      <trkpt lat="2.757027" lon="-75.07584">
        <ele>2074.4</ele>
        <time>2021-08-21T17:47:35Z</time>
      </trkpt>
      <trkpt lat="2.757067" lon="-75.07582">
        <ele>2074.3</ele>
        <time>2021-08-21T17:47:36Z</time>
      </trkpt>
      <trkpt lat="2.757112" lon="-75.0758">
        <ele>2074.0</ele>
        <time>2021-08-21T17:47:37Z</time>
      </trkpt>
      <trkpt lat="2.757154" lon="-75.07578">
        <ele>2073.8</ele>
        <time>2021-08-21T17:47:38Z</time>
      </trkpt>
      <trkpt lat="2.757198" lon="-75.07576">
        <ele>2073.5</ele>
        <time>2021-08-21T17:47:39Z</time>
      </trkpt>
      <trkpt lat="2.757241" lon="-75.07574">
        <ele>2073.2</ele>
        <time>2021-08-21T17:47:40Z</time>
      </trkpt>
      <trkpt lat="2.757289" lon="-75.07571">
        <ele>2072.9</ele>
        <time>2021-08-21T17:47:41Z</time>
      </trkpt>
      <trkpt lat="2.757338" lon="-75.07568">
        <ele>2072.7</ele>
        <time>2021-08-21T17:47:42Z</time>
      </trkpt>
      <trkpt lat="2.757385" lon="-75.07566">
        <ele>2072.5</ele>
        <time>2021-08-21T17:47:43Z</time>
      </trkpt>
      <trkpt lat="2.757433" lon="-75.07564">
        <ele>2072.3</ele>
        <time>2021-08-21T17:47:44Z</time>
      </trkpt>
      <trkpt lat="2.757484" lon="-75.075615">
        <ele>2072.2</ele>
        <time>2021-08-21T17:47:45Z</time>
      </trkpt>
      <trkpt lat="2.757536" lon="-75.075584">
        <ele>2072.0</ele>
        <time>2021-08-21T17:47:46Z</time>
      </trkpt>
      <trkpt lat="2.757589" lon="-75.07556">
        <ele>2071.9</ele>
        <time>2021-08-21T17:47:47Z</time>
      </trkpt>
      <trkpt lat="2.757637" lon="-75.07554">
        <ele>2071.7</ele>
        <time>2021-08-21T17:47:48Z</time>
      </trkpt>
      <trkpt lat="2.757692" lon="-75.075516">
        <ele>2071.5</ele>
        <time>2021-08-21T17:47:49Z</time>
      </trkpt>
      <trkpt lat="2.757747" lon="-75.07549">
        <ele>2071.3</ele>
        <time>2021-08-21T17:47:50Z</time>
      </trkpt>
      <trkpt lat="2.757801" lon="-75.07547">
        <ele>2071.1</ele>
        <time>2021-08-21T17:47:51Z</time>
      </trkpt>
      <trkpt lat="2.757855" lon="-75.075455">
        <ele>2070.9</ele>
        <time>2021-08-21T17:47:52Z</time>
      </trkpt>
      <trkpt lat="2.75791" lon="-75.07545">
        <ele>2070.8</ele>
        <time>2021-08-21T17:47:53Z</time>
      </trkpt>
      <trkpt lat="2.757964" lon="-75.07544">
        <ele>2070.6</ele>
        <time>2021-08-21T17:47:54Z</time>
      </trkpt>
      <trkpt lat="2.758019" lon="-75.07543">
        <ele>2070.5</ele>
        <time>2021-08-21T17:47:55Z</time>
      </trkpt>
      <trkpt lat="2.758072" lon="-75.075424">
        <ele>2070.3</ele>
        <time>2021-08-21T17:47:56Z</time>
      </trkpt>
      <trkpt lat="2.758122" lon="-75.075424">
        <ele>2070.2</ele>
        <time>2021-08-21T17:47:57Z</time>
      </trkpt>
      <trkpt lat="2.758174" lon="-75.075424">
        <ele>2070.0</ele>
        <time>2021-08-21T17:47:58Z</time>
      </trkpt>
      <trkpt lat="2.758229" lon="-75.075424">
        <ele>2069.8</ele>
        <time>2021-08-21T17:47:59Z</time>
      </trkpt>
      <trkpt lat="2.758282" lon="-75.07542">
        <ele>2069.6</ele>
        <time>2021-08-21T17:48:00Z</time>
      </trkpt>
      <trkpt lat="2.758336" lon="-75.07542">
        <ele>2069.4</ele>
        <time>2021-08-21T17:48:01Z</time>
      </trkpt>
      <trkpt lat="2.758391" lon="-75.07542">
        <ele>2069.1</ele>
        <time>2021-08-21T17:48:02Z</time>
      </trkpt>
      <trkpt lat="2.758442" lon="-75.07542">
        <ele>2068.9</ele>
        <time>2021-08-21T17:48:03Z</time>
      </trkpt>
      <trkpt lat="2.758498" lon="-75.07541">
        <ele>2068.7</ele>
        <time>2021-08-21T17:48:04Z</time>
      </trkpt>
      <trkpt lat="2.758554" lon="-75.07541">
        <ele>2068.5</ele>
        <time>2021-08-21T17:48:05Z</time>
      </trkpt>
      <trkpt lat="2.758608" lon="-75.0754">
        <ele>2068.3</ele>
        <time>2021-08-21T17:48:06Z</time>
      </trkpt>
      <trkpt lat="2.758659" lon="-75.0754">
        <ele>2068.2</ele>
        <time>2021-08-21T17:48:07Z</time>
      </trkpt>
      <trkpt lat="2.758715" lon="-75.0754">
        <ele>2068.0</ele>
        <time>2021-08-21T17:48:08Z</time>
      </trkpt>
      <trkpt lat="2.758772" lon="-75.07539">
        <ele>2067.8</ele>
        <time>2021-08-21T17:48:09Z</time>
      </trkpt>
      <trkpt lat="2.75883" lon="-75.07539">
        <ele>2067.6</ele>
        <time>2021-08-21T17:48:10Z</time>
      </trkpt>
      <trkpt lat="2.758886" lon="-75.07539">
        <ele>2067.4</ele>
        <time>2021-08-21T17:48:11Z</time>
      </trkpt>
      <trkpt lat="2.758943" lon="-75.075386">
        <ele>2067.2</ele>
        <time>2021-08-21T17:48:12Z</time>
      </trkpt>
      <trkpt lat="2.759001" lon="-75.07538">
        <ele>2067.0</ele>
        <time>2021-08-21T17:48:13Z</time>
      </trkpt>
      <trkpt lat="2.75906" lon="-75.07537">
        <ele>2066.7</ele>
        <time>2021-08-21T17:48:14Z</time>
      </trkpt>
      <trkpt lat="2.759117" lon="-75.07536">
        <ele>2066.4</ele>
        <time>2021-08-21T17:48:15Z</time>
      </trkpt>
      <trkpt lat="2.759171" lon="-75.07535">
        <ele>2066.1</ele>
        <time>2021-08-21T17:48:16Z</time>
      </trkpt>
      <trkpt lat="2.759228" lon="-75.07533">
        <ele>2065.8</ele>
        <time>2021-08-21T17:48:17Z</time>
      </trkpt>
      <trkpt lat="2.759288" lon="-75.07532">
        <ele>2065.4</ele>
        <time>2021-08-21T17:48:18Z</time>
      </trkpt>
      <trkpt lat="2.759347" lon="-75.075294">
        <ele>2065.1</ele>
        <time>2021-08-21T17:48:19Z</time>
      </trkpt>
      <trkpt lat="2.759403" lon="-75.07527">
        <ele>2064.7</ele>
        <time>2021-08-21T17:48:20Z</time>
      </trkpt>
      <trkpt lat="2.759459" lon="-75.07525">
        <ele>2064.4</ele>
        <time>2021-08-21T17:48:21Z</time>
      </trkpt>
      <trkpt lat="2.759517" lon="-75.07523">
        <ele>2064.0</ele>
        <time>2021-08-21T17:48:22Z</time>
      </trkpt>
      <trkpt lat="2.759576" lon="-75.0752">
        <ele>2063.7</ele>
        <time>2021-08-21T17:48:23Z</time>
      </trkpt>
      <trkpt lat="2.759637" lon="-75.07518">
        <ele>2063.4</ele>
        <time>2021-08-21T17:48:24Z</time>
      </trkpt>
      <trkpt lat="2.7597" lon="-75.07516">
        <ele>2063.0</ele>
        <time>2021-08-21T17:48:25Z</time>
      </trkpt>
      <trkpt lat="2.759768" lon="-75.075134">
        <ele>2062.5</ele>
        <time>2021-08-21T17:48:26Z</time>
      </trkpt>
      <trkpt lat="2.759835" lon="-75.0751">
        <ele>2062.1</ele>
        <time>2021-08-21T17:48:27Z</time>
      </trkpt>
      <trkpt lat="2.759903" lon="-75.07508">
        <ele>2061.6</ele>
        <time>2021-08-21T17:48:28Z</time>
      </trkpt>
      <trkpt lat="2.759971" lon="-75.07505">
        <ele>2061.2</ele>
        <time>2021-08-21T17:48:29Z</time>
      </trkpt>
      <trkpt lat="2.760038" lon="-75.07502">
        <ele>2060.7</ele>
        <time>2021-08-21T17:48:30Z</time>
      </trkpt>
      <trkpt lat="2.760103" lon="-75.07499">
        <ele>2060.3</ele>
        <time>2021-08-21T17:48:31Z</time>
      </trkpt>
      <trkpt lat="2.760167" lon="-75.07497">
        <ele>2059.8</ele>
        <time>2021-08-21T17:48:32Z</time>
      </trkpt>
      <trkpt lat="2.760231" lon="-75.07494">
        <ele>2059.4</ele>
        <time>2021-08-21T17:48:33Z</time>
      </trkpt>
      <trkpt lat="2.760297" lon="-75.07492">
        <ele>2059.0</ele>
        <time>2021-08-21T17:48:34Z</time>
      </trkpt>
      <trkpt lat="2.760363" lon="-75.0749">
        <ele>2058.5</ele>
        <time>2021-08-21T17:48:35Z</time>
      </trkpt>
      <trkpt lat="2.76043" lon="-75.074875">
        <ele>2058.1</ele>
        <time>2021-08-21T17:48:36Z</time>
      </trkpt>
      <trkpt lat="2.760501" lon="-75.07485">
        <ele>2057.7</ele>
        <time>2021-08-21T17:48:37Z</time>
      </trkpt>
      <trkpt lat="2.76057" lon="-75.07482">
        <ele>2057.3</ele>
        <time>2021-08-21T17:48:37Z</time>
      </trkpt>
      <trkpt lat="2.760641" lon="-75.07481">
        <ele>2056.9</ele>
        <time>2021-08-21T17:48:38Z</time>
      </trkpt>
      <trkpt lat="2.760717" lon="-75.07479">
        <ele>2056.5</ele>
        <time>2021-08-21T17:48:39Z</time>
      </trkpt>
      <trkpt lat="2.76079" lon="-75.074776">
        <ele>2056.1</ele>
        <time>2021-08-21T17:48:40Z</time>
      </trkpt>
      <trkpt lat="2.760863" lon="-75.07475">
        <ele>2055.6</ele>
        <time>2021-08-21T17:48:41Z</time>
      </trkpt>
      <trkpt lat="2.76093" lon="-75.07473">
        <ele>2055.2</ele>
        <time>2021-08-21T17:48:42Z</time>
      </trkpt>
      <trkpt lat="2.760993" lon="-75.074715">
        <ele>2054.8</ele>
        <time>2021-08-21T17:48:43Z</time>
      </trkpt>
      <trkpt lat="2.761053" lon="-75.07469">
        <ele>2054.4</ele>
        <time>2021-08-21T17:48:44Z</time>
      </trkpt>
      <trkpt lat="2.761109" lon="-75.07467">
        <ele>2054.1</ele>
        <time>2021-08-21T17:48:45Z</time>
      </trkpt>
      <trkpt lat="2.761161" lon="-75.074646">
        <ele>2053.6</ele>
        <time>2021-08-21T17:48:46Z</time>
      </trkpt>
      <trkpt lat="2.761209" lon="-75.07462">
        <ele>2053.2</ele>
        <time>2021-08-21T17:48:47Z</time>
      </trkpt>
      <trkpt lat="2.761255" lon="-75.0746">
        <ele>2052.7</ele>
        <time>2021-08-21T17:48:48Z</time>
      </trkpt>
      <trkpt lat="2.761299" lon="-75.07457">
        <ele>2052.2</ele>
        <time>2021-08-21T17:48:49Z</time>
      </trkpt>
      <trkpt lat="2.761348" lon="-75.07454">
        <ele>2051.8</ele>
        <time>2021-08-21T17:48:50Z</time>
      </trkpt>
      <trkpt lat="2.761395" lon="-75.07451">
        <ele>2051.5</ele>
        <time>2021-08-21T17:48:51Z</time>
      </trkpt>
      <trkpt lat="2.761443" lon="-75.074486">
        <ele>2051.2</ele>
        <time>2021-08-21T17:48:52Z</time>
      </trkpt>
      <trkpt lat="2.761489" lon="-75.074455">
        <ele>2050.8</ele>
        <time>2021-08-21T17:48:53Z</time>
      </trkpt>
      <trkpt lat="2.761541" lon="-75.07443">
        <ele>2050.4</ele>
        <time>2021-08-21T17:48:54Z</time>
      </trkpt>
      <trkpt lat="2.761593" lon="-75.07441">
        <ele>2050.0</ele>
        <time>2021-08-21T17:48:55Z</time>
      </trkpt>
      <trkpt lat="2.761649" lon="-75.074394">
        <ele>2049.5</ele>
        <time>2021-08-21T17:48:56Z</time>
      </trkpt>
      <trkpt lat="2.761711" lon="-75.07437">
        <ele>2049.0</ele>
        <time>2021-08-21T17:48:57Z</time>
      </trkpt>
      <trkpt lat="2.761775" lon="-75.07435">
        <ele>2048.4</ele>
        <time>2021-08-21T17:48:58Z</time>
      </trkpt>
      <trkpt lat="2.761841" lon="-75.07433">
        <ele>2047.8</ele>
        <time>2021-08-21T17:48:59Z</time>
      </trkpt>
      <trkpt lat="2.761907" lon="-75.0743">
        <ele>2047.3</ele>
        <time>2021-08-21T17:49:00Z</time>
      </trkpt>
      <trkpt lat="2.761973" lon="-75.07429">
        <ele>2046.9</ele>
        <time>2021-08-21T17:49:01Z</time>
      </trkpt>
      <trkpt lat="2.762039" lon="-75.074265">
        <ele>2046.3</ele>
        <time>2021-08-21T17:49:02Z</time>
      </trkpt>
      <trkpt lat="2.762104" lon="-75.07424">
        <ele>2045.7</ele>
        <time>2021-08-21T17:49:03Z</time>
      </trkpt>
      <trkpt lat="2.762168" lon="-75.07422">
        <ele>2045.1</ele>
        <time>2021-08-21T17:49:04Z</time>
      </trkpt>
      <trkpt lat="2.762234" lon="-75.0742">
        <ele>2044.5</ele>
        <time>2021-08-21T17:49:05Z</time>
      </trkpt>
      <trkpt lat="2.762299" lon="-75.07418">
        <ele>2044.0</ele>
        <time>2021-08-21T17:49:06Z</time>
      </trkpt>
      <trkpt lat="2.762363" lon="-75.074165">
        <ele>2043.4</ele>
        <time>2021-08-21T17:49:07Z</time>
      </trkpt>
      <trkpt lat="2.762425" lon="-75.07414">
        <ele>2042.7</ele>
        <time>2021-08-21T17:49:08Z</time>
      </trkpt>
      <trkpt lat="2.762484" lon="-75.07412">
        <ele>2042.0</ele>
        <time>2021-08-21T17:49:09Z</time>
      </trkpt>
      <trkpt lat="2.76254" lon="-75.0741">
        <ele>2041.4</ele>
        <time>2021-08-21T17:49:10Z</time>
      </trkpt>
      <trkpt lat="2.762596" lon="-75.07407">
        <ele>2040.8</ele>
        <time>2021-08-21T17:49:11Z</time>
      </trkpt>
      <trkpt lat="2.762652" lon="-75.07406">
        <ele>2040.3</ele>
        <time>2021-08-21T17:49:12Z</time>
      </trkpt>
      <trkpt lat="2.762708" lon="-75.07404">
        <ele>2039.8</ele>
        <time>2021-08-21T17:49:13Z</time>
      </trkpt>
      <trkpt lat="2.762766" lon="-75.074036">
        <ele>2039.2</ele>
        <time>2021-08-21T17:49:14Z</time>
      </trkpt>
      <trkpt lat="2.762824" lon="-75.07403">
        <ele>2038.7</ele>
        <time>2021-08-21T17:49:15Z</time>
      </trkpt>
      <trkpt lat="2.762885" lon="-75.07403">
        <ele>2038.2</ele>
        <time>2021-08-21T17:49:16Z</time>
      </trkpt>
      <trkpt lat="2.762949" lon="-75.07403">
        <ele>2037.7</ele>
        <time>2021-08-21T17:49:17Z</time>
      </trkpt>
      <trkpt lat="2.763019" lon="-75.074036">
        <ele>2037.1</ele>
        <time>2021-08-21T17:49:18Z</time>
      </trkpt>
      <trkpt lat="2.763083" lon="-75.07404">
        <ele>2036.5</ele>
        <time>2021-08-21T17:49:19Z</time>
      </trkpt>
      <trkpt lat="2.763145" lon="-75.07405">
        <ele>2035.8</ele>
        <time>2021-08-21T17:49:20Z</time>
      </trkpt>
      <trkpt lat="2.763203" lon="-75.074066">
        <ele>2035.2</ele>
        <time>2021-08-21T17:49:21Z</time>
      </trkpt>
      <trkpt lat="2.763259" lon="-75.07407">
        <ele>2034.7</ele>
        <time>2021-08-21T17:49:22Z</time>
      </trkpt>
      <trkpt lat="2.763313" lon="-75.07409">
        <ele>2034.1</ele>
        <time>2021-08-21T17:49:23Z</time>
      </trkpt>
      <trkpt lat="2.763362" lon="-75.0741">
        <ele>2033.6</ele>
        <time>2021-08-21T17:49:24Z</time>
      </trkpt>
      <trkpt lat="2.763412" lon="-75.074104">
        <ele>2033.1</ele>
        <time>2021-08-21T17:49:25Z</time>
      </trkpt>
      <trkpt lat="2.763466" lon="-75.07411">
        <ele>2032.5</ele>
        <time>2021-08-21T17:49:26Z</time>
      </trkpt>
      <trkpt lat="2.763523" lon="-75.07412">
        <ele>2031.8</ele>
        <time>2021-08-21T17:49:27Z</time>
      </trkpt>
      <trkpt lat="2.76359" lon="-75.07412">
        <ele>2031.1</ele>
        <time>2021-08-21T17:49:28Z</time>
      </trkpt>
      <trkpt lat="2.763655" lon="-75.07411">
        <ele>2030.4</ele>
        <time>2021-08-21T17:49:29Z</time>
      </trkpt>
      <trkpt lat="2.763716" lon="-75.074104">
        <ele>2029.8</ele>
        <time>2021-08-21T17:49:30Z</time>
      </trkpt>
      <trkpt lat="2.763783" lon="-75.074104">
        <ele>2029.1</ele>
        <time>2021-08-21T17:49:31Z</time>
      </trkpt>
      <trkpt lat="2.763841" lon="-75.074104">
        <ele>2028.5</ele>
        <time>2021-08-21T17:49:32Z</time>
      </trkpt>
      <trkpt lat="2.7639" lon="-75.07411">
        <ele>2027.8</ele>
        <time>2021-08-21T17:49:33Z</time>
      </trkpt>
      <trkpt lat="2.763955" lon="-75.07413">
        <ele>2027.3</ele>
        <time>2021-08-21T17:49:34Z</time>
      </trkpt>
      <trkpt lat="2.764004" lon="-75.07415">
        <ele>2026.8</ele>
        <time>2021-08-21T17:49:35Z</time>
      </trkpt>
      <trkpt lat="2.764049" lon="-75.07417">
        <ele>2026.3</ele>
        <time>2021-08-21T17:49:36Z</time>
      </trkpt>
      <trkpt lat="2.76409" lon="-75.0742">
        <ele>2025.7</ele>
        <time>2021-08-21T17:49:37Z</time>
      </trkpt>
      <trkpt lat="2.764126" lon="-75.07424">
        <ele>2025.2</ele>
        <time>2021-08-21T17:49:38Z</time>
      </trkpt>
      <trkpt lat="2.764161" lon="-75.07427">
        <ele>2024.7</ele>
        <time>2021-08-21T17:49:39Z</time>
      </trkpt>
      <trkpt lat="2.764197" lon="-75.07431">
        <ele>2024.3</ele>
        <time>2021-08-21T17:49:40Z</time>
      </trkpt>
      <trkpt lat="2.764237" lon="-75.07434">
        <ele>2023.8</ele>
        <time>2021-08-21T17:49:41Z</time>
      </trkpt>
      <trkpt lat="2.764276" lon="-75.07437">
        <ele>2023.2</ele>
        <time>2021-08-21T17:49:42Z</time>
      </trkpt>
      <trkpt lat="2.764324" lon="-75.0744">
        <ele>2022.6</ele>
        <time>2021-08-21T17:49:43Z</time>
      </trkpt>
      <trkpt lat="2.764376" lon="-75.07443">
        <ele>2021.9</ele>
        <time>2021-08-21T17:49:44Z</time>
      </trkpt>
      <trkpt lat="2.764433" lon="-75.07445">
        <ele>2021.1</ele>
        <time>2021-08-21T17:49:45Z</time>
      </trkpt>
      <trkpt lat="2.764495" lon="-75.07447">
        <ele>2020.3</ele>
        <time>2021-08-21T17:49:46Z</time>
      </trkpt>
      <trkpt lat="2.764553" lon="-75.07448">
        <ele>2019.5</ele>
        <time>2021-08-21T17:49:47Z</time>
      </trkpt>
      <trkpt lat="2.764612" lon="-75.07449">
        <ele>2018.7</ele>
        <time>2021-08-21T17:49:48Z</time>
      </trkpt>
      <trkpt lat="2.764672" lon="-75.0745">
        <ele>2017.9</ele>
        <time>2021-08-21T17:49:49Z</time>
      </trkpt>
      <trkpt lat="2.764735" lon="-75.07452">
        <ele>2017.2</ele>
        <time>2021-08-21T17:49:50Z</time>
      </trkpt>
      <trkpt lat="2.764792" lon="-75.074524">
        <ele>2016.6</ele>
        <time>2021-08-21T17:49:51Z</time>
      </trkpt>
      <trkpt lat="2.764849" lon="-75.07454">
        <ele>2016.0</ele>
        <time>2021-08-21T17:49:52Z</time>
      </trkpt>
      <trkpt lat="2.7649" lon="-75.07457">
        <ele>2015.4</ele>
        <time>2021-08-21T17:49:53Z</time>
      </trkpt>
      <trkpt lat="2.764946" lon="-75.07459">
        <ele>2014.8</ele>
        <time>2021-08-21T17:49:54Z</time>
      </trkpt>
      <trkpt lat="2.764988" lon="-75.07463">
        <ele>2014.1</ele>
        <time>2021-08-21T17:49:55Z</time>
      </trkpt>
      <trkpt lat="2.765027" lon="-75.07466">
        <ele>2013.5</ele>
        <time>2021-08-21T17:49:56Z</time>
      </trkpt>
      <trkpt lat="2.765064" lon="-75.0747">
        <ele>2012.8</ele>
        <time>2021-08-21T17:49:57Z</time>
      </trkpt>
      <trkpt lat="2.765101" lon="-75.07474">
        <ele>2012.1</ele>
        <time>2021-08-21T17:49:58Z</time>
      </trkpt>
      <trkpt lat="2.765136" lon="-75.074776">
        <ele>2011.4</ele>
        <time>2021-08-21T17:49:59Z</time>
      </trkpt>
      <trkpt lat="2.765174" lon="-75.07481">
        <ele>2010.7</ele>
        <time>2021-08-21T17:50:00Z</time>
      </trkpt>
      <trkpt lat="2.765213" lon="-75.07484">
        <ele>2010.0</ele>
        <time>2021-08-21T17:50:01Z</time>
      </trkpt>
      <trkpt lat="2.765259" lon="-75.074875">
        <ele>2009.2</ele>
        <time>2021-08-21T17:50:02Z</time>
      </trkpt>
      <trkpt lat="2.765309" lon="-75.0749">
        <ele>2008.4</ele>
        <time>2021-08-21T17:50:03Z</time>
      </trkpt>
      <trkpt lat="2.76536" lon="-75.07493">
        <ele>2007.6</ele>
        <time>2021-08-21T17:50:04Z</time>
      </trkpt>
      <trkpt lat="2.765413" lon="-75.07496">
        <ele>2006.9</ele>
        <time>2021-08-21T17:50:05Z</time>
      </trkpt>
      <trkpt lat="2.765468" lon="-75.07498">
        <ele>2006.2</ele>
        <time>2021-08-21T17:50:06Z</time>
      </trkpt>
      <trkpt lat="2.765524" lon="-75.075">
        <ele>2005.5</ele>
        <time>2021-08-21T17:50:07Z</time>
      </trkpt>
      <trkpt lat="2.765581" lon="-75.075005">
        <ele>2004.8</ele>
        <time>2021-08-21T17:50:08Z</time>
      </trkpt>
      <trkpt lat="2.765636" lon="-75.07501">
        <ele>2004.1</ele>
        <time>2021-08-21T17:50:09Z</time>
      </trkpt>
      <trkpt lat="2.765688" lon="-75.07501">
        <ele>2003.4</ele>
        <time>2021-08-21T17:50:10Z</time>
      </trkpt>
      <trkpt lat="2.765735" lon="-75.075005">
        <ele>2002.9</ele>
        <time>2021-08-21T17:50:11Z</time>
      </trkpt>
      <trkpt lat="2.765785" lon="-75.075">
        <ele>2002.3</ele>
        <time>2021-08-21T17:50:12Z</time>
      </trkpt>
      <trkpt lat="2.765833" lon="-75.074974">
        <ele>2001.8</ele>
        <time>2021-08-21T17:50:13Z</time>
      </trkpt>
      <trkpt lat="2.76588" lon="-75.07495">
        <ele>2001.4</ele>
        <time>2021-08-21T17:50:14Z</time>
      </trkpt>
      <trkpt lat="2.765922" lon="-75.07493">
        <ele>2001.0</ele>
        <time>2021-08-21T17:50:15Z</time>
      </trkpt>
      <trkpt lat="2.765964" lon="-75.07489">
        <ele>2000.6</ele>
        <time>2021-08-21T17:50:16Z</time>
      </trkpt>
      <trkpt lat="2.766008" lon="-75.07485">
        <ele>2000.3</ele>
        <time>2021-08-21T17:50:17Z</time>
      </trkpt>
      <trkpt lat="2.766052" lon="-75.0748">
        <ele>1999.9</ele>
        <time>2021-08-21T17:50:18Z</time>
      </trkpt>
      <trkpt lat="2.766095" lon="-75.07475">
        <ele>1999.5</ele>
        <time>2021-08-21T17:50:19Z</time>
      </trkpt>
      <trkpt lat="2.766134" lon="-75.0747">
        <ele>1999.1</ele>
        <time>2021-08-21T17:50:20Z</time>
      </trkpt>
      <trkpt lat="2.766173" lon="-75.07465">
        <ele>1998.7</ele>
        <time>2021-08-21T17:50:21Z</time>
      </trkpt>
      <trkpt lat="2.766212" lon="-75.07461">
        <ele>1998.4</ele>
        <time>2021-08-21T17:50:22Z</time>
      </trkpt>
      <trkpt lat="2.76625" lon="-75.07456">
        <ele>1998.1</ele>
        <time>2021-08-21T17:50:23Z</time>
      </trkpt>
      <trkpt lat="2.766291" lon="-75.074524">
        <ele>1997.8</ele>
        <time>2021-08-21T17:50:24Z</time>
      </trkpt>
      <trkpt lat="2.766333" lon="-75.074486">
        <ele>1997.5</ele>
        <time>2021-08-21T17:50:25Z</time>
      </trkpt>
      <trkpt lat="2.766374" lon="-75.074455">
        <ele>1997.2</ele>
        <time>2021-08-21T17:50:26Z</time>
      </trkpt>
      <trkpt lat="2.766416" lon="-75.074425">
        <ele>1997.0</ele>
        <time>2021-08-21T17:50:27Z</time>
      </trkpt>
      <trkpt lat="2.766463" lon="-75.074394">
        <ele>1996.8</ele>
        <time>2021-08-21T17:50:28Z</time>
      </trkpt>
      <trkpt lat="2.766509" lon="-75.07437">
        <ele>1996.6</ele>
        <time>2021-08-21T17:50:29Z</time>
      </trkpt>
      <trkpt lat="2.766556" lon="-75.07434">
        <ele>1996.4</ele>
        <time>2021-08-21T17:50:30Z</time>
      </trkpt>
      <trkpt lat="2.766604" lon="-75.07432">
        <ele>1996.2</ele>
        <time>2021-08-21T17:50:31Z</time>
      </trkpt>
      <trkpt lat="2.766649" lon="-75.07428">
        <ele>1996.1</ele>
        <time>2021-08-21T17:50:32Z</time>
      </trkpt>
      <trkpt lat="2.766691" lon="-75.07424">
        <ele>1995.9</ele>
        <time>2021-08-21T17:50:33Z</time>
      </trkpt>
      <trkpt lat="2.76673" lon="-75.0742">
        <ele>1995.7</ele>
        <time>2021-08-21T17:50:34Z</time>
      </trkpt>
      <trkpt lat="2.766766" lon="-75.074165">
        <ele>1995.5</ele>
        <time>2021-08-21T17:50:35Z</time>
      </trkpt>
      <trkpt lat="2.766799" lon="-75.07412">
        <ele>1995.2</ele>
        <time>2021-08-21T17:50:36Z</time>
      </trkpt>
      <trkpt lat="2.766832" lon="-75.07407">
        <ele>1994.9</ele>
        <time>2021-08-21T17:50:37Z</time>
      </trkpt>
      <trkpt lat="2.766862" lon="-75.07402">
        <ele>1994.6</ele>
        <time>2021-08-21T17:50:38Z</time>
      </trkpt>
      <trkpt lat="2.766891" lon="-75.073975">
        <ele>1994.3</ele>
        <time>2021-08-21T17:50:39Z</time>
      </trkpt>
      <trkpt lat="2.766919" lon="-75.07392">
        <ele>1994.0</ele>
        <time>2021-08-21T17:50:40Z</time>
      </trkpt>
      <trkpt lat="2.766948" lon="-75.07387">
        <ele>1993.7</ele>
        <time>2021-08-21T17:50:41Z</time>
      </trkpt>
      <trkpt lat="2.766978" lon="-75.07381">
        <ele>1993.4</ele>
        <time>2021-08-21T17:50:42Z</time>
      </trkpt>
      <trkpt lat="2.76701" lon="-75.073746">
        <ele>1992.0</ele>
        <time>2021-08-21T17:50:43Z</time>
      </trkpt>
      <trkpt lat="2.767041" lon="-75.073685">
        <ele>1990.8</ele>
        <time>2021-08-21T17:50:44Z</time>
      </trkpt>
      <trkpt lat="2.767073" lon="-75.07362">
        <ele>1989.9</ele>
        <time>2021-08-21T17:50:45Z</time>
      </trkpt>
      <trkpt lat="2.767108" lon="-75.07357">
        <ele>1990.0</ele>
        <time>2021-08-21T17:50:46Z</time>
      </trkpt>
      <trkpt lat="2.767145" lon="-75.073524">
        <ele>1990.8</ele>
        <time>2021-08-21T17:50:47Z</time>
      </trkpt>
      <trkpt lat="2.767186" lon="-75.073494">
        <ele>1991.0</ele>
        <time>2021-08-21T17:50:48Z</time>
      </trkpt>
      <trkpt lat="2.767229" lon="-75.07348">
        <ele>1990.8</ele>
        <time>2021-08-21T17:50:49Z</time>
      </trkpt>
      <trkpt lat="2.767273" lon="-75.07347">
        <ele>1990.7</ele>
        <time>2021-08-21T17:50:50Z</time>
      </trkpt>
      <trkpt lat="2.767301" lon="-75.07349">
        <ele>1990.0</ele>
        <time>2021-08-21T17:50:51Z</time>
      </trkpt>
      <trkpt lat="2.767327" lon="-75.07351">
        <ele>1989.6</ele>
        <time>2021-08-21T17:50:52Z</time>
      </trkpt>
      <trkpt lat="2.767349" lon="-75.07355">
        <ele>1989.2</ele>
        <time>2021-08-21T17:50:53Z</time>
      </trkpt>
      <trkpt lat="2.767364" lon="-75.073586">
        <ele>1988.8</ele>
        <time>2021-08-21T17:50:54Z</time>
      </trkpt>
      <trkpt lat="2.767368" lon="-75.07363">
        <ele>1988.5</ele>
        <time>2021-08-21T17:50:55Z</time>
      </trkpt>
      <trkpt lat="2.767361" lon="-75.07368">
        <ele>1988.1</ele>
        <time>2021-08-21T17:50:56Z</time>
      </trkpt>
      <trkpt lat="2.767342" lon="-75.07372">
        <ele>1987.7</ele>
        <time>2021-08-21T17:50:57Z</time>
      </trkpt>
      <trkpt lat="2.767317" lon="-75.07378">
        <ele>1987.3</ele>
        <time>2021-08-21T17:50:58Z</time>
      </trkpt>
      <trkpt lat="2.767291" lon="-75.07382">
        <ele>1986.8</ele>
        <time>2021-08-21T17:50:59Z</time>
      </trkpt>
      <trkpt lat="2.767265" lon="-75.073875">
        <ele>1986.2</ele>
        <time>2021-08-21T17:51:00Z</time>
      </trkpt>
      <trkpt lat="2.76724" lon="-75.07394">
        <ele>1985.6</ele>
        <time>2021-08-21T17:51:01Z</time>
      </trkpt>
      <trkpt lat="2.767216" lon="-75.07398">
        <ele>1985.0</ele>
        <time>2021-08-21T17:51:02Z</time>
      </trkpt>
      <trkpt lat="2.767193" lon="-75.07404">
        <ele>1984.3</ele>
        <time>2021-08-21T17:51:03Z</time>
      </trkpt>
      <trkpt lat="2.767174" lon="-75.0741">
        <ele>1983.7</ele>
        <time>2021-08-21T17:51:04Z</time>
      </trkpt>
      <trkpt lat="2.767158" lon="-75.07414">
        <ele>1983.0</ele>
        <time>2021-08-21T17:51:05Z</time>
      </trkpt>
      <trkpt lat="2.767146" lon="-75.0742">
        <ele>1982.4</ele>
        <time>2021-08-21T17:51:06Z</time>
      </trkpt>
      <trkpt lat="2.767138" lon="-75.07426">
        <ele>1981.7</ele>
        <time>2021-08-21T17:51:07Z</time>
      </trkpt>
      <trkpt lat="2.767131" lon="-75.07432">
        <ele>1981.0</ele>
        <time>2021-08-21T17:51:08Z</time>
      </trkpt>
      <trkpt lat="2.767122" lon="-75.07438">
        <ele>1980.2</ele>
        <time>2021-08-21T17:51:09Z</time>
      </trkpt>
      <trkpt lat="2.767114" lon="-75.07444">
        <ele>1979.4</ele>
        <time>2021-08-21T17:51:10Z</time>
      </trkpt>
      <trkpt lat="2.767105" lon="-75.0745">
        <ele>1978.7</ele>
        <time>2021-08-21T17:51:11Z</time>
      </trkpt>
      <trkpt lat="2.767092" lon="-75.07457">
        <ele>1977.9</ele>
        <time>2021-08-21T17:51:12Z</time>
      </trkpt>
      <trkpt lat="2.767078" lon="-75.07463">
        <ele>1977.2</ele>
        <time>2021-08-21T17:51:13Z</time>
      </trkpt>
      <trkpt lat="2.767064" lon="-75.074684">
        <ele>1976.6</ele>
        <time>2021-08-21T17:51:14Z</time>
      </trkpt>
      <trkpt lat="2.767054" lon="-75.074745">
        <ele>1976.0</ele>
        <time>2021-08-21T17:51:15Z</time>
      </trkpt>
      <trkpt lat="2.767049" lon="-75.0748">
        <ele>1975.4</ele>
        <time>2021-08-21T17:51:16Z</time>
      </trkpt>
      <trkpt lat="2.767048" lon="-75.074844">
        <ele>1974.9</ele>
        <time>2021-08-21T17:51:17Z</time>
      </trkpt>
      <trkpt lat="2.767055" lon="-75.07489">
        <ele>1974.4</ele>
        <time>2021-08-21T17:51:18Z</time>
      </trkpt>
      <trkpt lat="2.767071" lon="-75.07493">
        <ele>1973.8</ele>
        <time>2021-08-21T17:51:19Z</time>
      </trkpt>
      <trkpt lat="2.767095" lon="-75.07497">
        <ele>1973.3</ele>
        <time>2021-08-21T17:51:20Z</time>
      </trkpt>
      <trkpt lat="2.767127" lon="-75.075005">
        <ele>1972.3</ele>
        <time>2021-08-21T17:51:21Z</time>
      </trkpt>
      <trkpt lat="2.767162" lon="-75.075035">
        <ele>1971.8</ele>
        <time>2021-08-21T17:51:22Z</time>
      </trkpt>
      <trkpt lat="2.767202" lon="-75.07506">
        <ele>1971.1</ele>
        <time>2021-08-21T17:51:23Z</time>
      </trkpt>
      <trkpt lat="2.767245" lon="-75.07509">
        <ele>1970.5</ele>
        <time>2021-08-21T17:51:24Z</time>
      </trkpt>
      <trkpt lat="2.767293" lon="-75.0751">
        <ele>1969.8</ele>
        <time>2021-08-21T17:51:25Z</time>
      </trkpt>
      <trkpt lat="2.76734" lon="-75.07513">
        <ele>1969.2</ele>
        <time>2021-08-21T17:51:26Z</time>
      </trkpt>
      <trkpt lat="2.76739" lon="-75.07514">
        <ele>1968.5</ele>
        <time>2021-08-21T17:51:27Z</time>
      </trkpt>
      <trkpt lat="2.76744" lon="-75.07516">
        <ele>1967.9</ele>
        <time>2021-08-21T17:51:28Z</time>
      </trkpt>
      <trkpt lat="2.767492" lon="-75.07517">
        <ele>1967.2</ele>
        <time>2021-08-21T17:51:29Z</time>
      </trkpt>
      <trkpt lat="2.767545" lon="-75.07518">
        <ele>1966.5</ele>
        <time>2021-08-21T17:51:30Z</time>
      </trkpt>
      <trkpt lat="2.767598" lon="-75.075195">
        <ele>1965.8</ele>
        <time>2021-08-21T17:51:31Z</time>
      </trkpt>
      <trkpt lat="2.767649" lon="-75.07521">
        <ele>1965.1</ele>
        <time>2021-08-21T17:51:32Z</time>
      </trkpt>
      <trkpt lat="2.767699" lon="-75.07522">
        <ele>1964.5</ele>
        <time>2021-08-21T17:51:33Z</time>
      </trkpt>
      <trkpt lat="2.767749" lon="-75.07523">
        <ele>1963.8</ele>
        <time>2021-08-21T17:51:34Z</time>
      </trkpt>
      <trkpt lat="2.767801" lon="-75.07525">
        <ele>1963.1</ele>
        <time>2021-08-21T17:51:35Z</time>
      </trkpt>
      <trkpt lat="2.767854" lon="-75.075264">
        <ele>1962.4</ele>
        <time>2021-08-21T17:51:36Z</time>
      </trkpt>
      <trkpt lat="2.767909" lon="-75.07527">
        <ele>1961.7</ele>
        <time>2021-08-21T17:51:37Z</time>
      </trkpt>
      <trkpt lat="2.767965" lon="-75.07528">
        <ele>1961.0</ele>
        <time>2021-08-21T17:51:38Z</time>
      </trkpt>
      <trkpt lat="2.768021" lon="-75.07528">
        <ele>1960.3</ele>
        <time>2021-08-21T17:51:39Z</time>
      </trkpt>
      <trkpt lat="2.768079" lon="-75.07528">
        <ele>1959.5</ele>
        <time>2021-08-21T17:51:40Z</time>
      </trkpt>
      <trkpt lat="2.768138" lon="-75.07528">
        <ele>1958.8</ele>
        <time>2021-08-21T17:51:41Z</time>
      </trkpt>
      <trkpt lat="2.768197" lon="-75.07527">
        <ele>1958.0</ele>
        <time>2021-08-21T17:51:42Z</time>
      </trkpt>
      <trkpt lat="2.768257" lon="-75.075264">
        <ele>1957.2</ele>
        <time>2021-08-21T17:51:43Z</time>
      </trkpt>
      <trkpt lat="2.768317" lon="-75.07525">
        <ele>1956.5</ele>
        <time>2021-08-21T17:51:44Z</time>
      </trkpt>
      <trkpt lat="2.768379" lon="-75.07523">
        <ele>1955.7</ele>
        <time>2021-08-21T17:51:45Z</time>
      </trkpt>
      <trkpt lat="2.768442" lon="-75.07522">
        <ele>1954.8</ele>
        <time>2021-08-21T17:51:46Z</time>
      </trkpt>
      <trkpt lat="2.768506" lon="-75.07521">
        <ele>1954.0</ele>
        <time>2021-08-21T17:51:47Z</time>
      </trkpt>
      <trkpt lat="2.768568" lon="-75.0752">
        <ele>1953.2</ele>
        <time>2021-08-21T17:51:48Z</time>
      </trkpt>
      <trkpt lat="2.768629" lon="-75.0752">
        <ele>1952.4</ele>
        <time>2021-08-21T17:51:49Z</time>
      </trkpt>
      <trkpt lat="2.768688" lon="-75.0752">
        <ele>1951.7</ele>
        <time>2021-08-21T17:51:50Z</time>
      </trkpt>
      <trkpt lat="2.768749" lon="-75.07521">
        <ele>1950.9</ele>
        <time>2021-08-21T17:51:51Z</time>
      </trkpt>
      <trkpt lat="2.768809" lon="-75.07521">
        <ele>1950.1</ele>
        <time>2021-08-21T17:51:52Z</time>
      </trkpt>
      <trkpt lat="2.768869" lon="-75.07522">
        <ele>1949.4</ele>
        <time>2021-08-21T17:51:53Z</time>
      </trkpt>
      <trkpt lat="2.768928" lon="-75.075226">
        <ele>1948.6</ele>
        <time>2021-08-21T17:51:54Z</time>
      </trkpt>
      <trkpt lat="2.768988" lon="-75.075226">
        <ele>1947.8</ele>
        <time>2021-08-21T17:51:55Z</time>
      </trkpt>
      <trkpt lat="2.769049" lon="-75.07522">
        <ele>1947.1</ele>
        <time>2021-08-21T17:51:56Z</time>
      </trkpt>
      <trkpt lat="2.769109" lon="-75.07521">
        <ele>1946.3</ele>
        <time>2021-08-21T17:51:57Z</time>
      </trkpt>
      <trkpt lat="2.769168" lon="-75.075195">
        <ele>1945.5</ele>
        <time>2021-08-21T17:51:58Z</time>
      </trkpt>
      <trkpt lat="2.769225" lon="-75.07517">
        <ele>1944.7</ele>
        <time>2021-08-21T17:51:59Z</time>
      </trkpt>
      <trkpt lat="2.769281" lon="-75.07515">
        <ele>1944.0</ele>
        <time>2021-08-21T17:52:00Z</time>
      </trkpt>
      <trkpt lat="2.769337" lon="-75.07513">
        <ele>1943.2</ele>
        <time>2021-08-21T17:52:01Z</time>
      </trkpt>
      <trkpt lat="2.769391" lon="-75.075096">
        <ele>1942.4</ele>
        <time>2021-08-21T17:52:02Z</time>
      </trkpt>
      <trkpt lat="2.769442" lon="-75.075066">
        <ele>1941.7</ele>
        <time>2021-08-21T17:52:03Z</time>
      </trkpt>
      <trkpt lat="2.769492" lon="-75.075035">
        <ele>1940.9</ele>
        <time>2021-08-21T17:52:04Z</time>
      </trkpt>
      <trkpt lat="2.769542" lon="-75.075005">
        <ele>1940.1</ele>
        <time>2021-08-21T17:52:05Z</time>
      </trkpt>
      <trkpt lat="2.769593" lon="-75.07497">
        <ele>1939.3</ele>
        <time>2021-08-21T17:52:06Z</time>
      </trkpt>
      <trkpt lat="2.769647" lon="-75.07493">
        <ele>1938.5</ele>
        <time>2021-08-21T17:52:07Z</time>
      </trkpt>
      <trkpt lat="2.769704" lon="-75.0749">
        <ele>1937.7</ele>
        <time>2021-08-21T17:52:08Z</time>
      </trkpt>
      <trkpt lat="2.769762" lon="-75.074875">
        <ele>1936.9</ele>
        <time>2021-08-21T17:52:09Z</time>
      </trkpt>
      <trkpt lat="2.769823" lon="-75.07485">
        <ele>1936.1</ele>
        <time>2021-08-21T17:52:10Z</time>
      </trkpt>
      <trkpt lat="2.769887" lon="-75.074844">
        <ele>1935.2</ele>
        <time>2021-08-21T17:52:11Z</time>
      </trkpt>
      <trkpt lat="2.769953" lon="-75.07484">
        <ele>1934.4</ele>
        <time>2021-08-21T17:52:12Z</time>
      </trkpt>
      <trkpt lat="2.770018" lon="-75.07483">
        <ele>1933.6</ele>
        <time>2021-08-21T17:52:13Z</time>
      </trkpt>
      <trkpt lat="2.770081" lon="-75.07483">
        <ele>1932.8</ele>
        <time>2021-08-21T17:52:14Z</time>
      </trkpt>
      <trkpt lat="2.770141" lon="-75.07484">
        <ele>1932.0</ele>
        <time>2021-08-21T17:52:15Z</time>
      </trkpt>
      <trkpt lat="2.770196" lon="-75.07486">
        <ele>1931.2</ele>
        <time>2021-08-21T17:52:16Z</time>
      </trkpt>
      <trkpt lat="2.770246" lon="-75.074875">
        <ele>1930.6</ele>
        <time>2021-08-21T17:52:17Z</time>
      </trkpt>
      <trkpt lat="2.770297" lon="-75.074905">
        <ele>1929.8</ele>
        <time>2021-08-21T17:52:18Z</time>
      </trkpt>
      <trkpt lat="2.770346" lon="-75.07494">
        <ele>1929.0</ele>
        <time>2021-08-21T17:52:19Z</time>
      </trkpt>
      <trkpt lat="2.770395" lon="-75.07498">
        <ele>1928.2</ele>
        <time>2021-08-21T17:52:20Z</time>
      </trkpt>
      <trkpt lat="2.770444" lon="-75.07503">
        <ele>1927.4</ele>
        <time>2021-08-21T17:52:21Z</time>
      </trkpt>
      <trkpt lat="2.770493" lon="-75.075066">
        <ele>1926.6</ele>
        <time>2021-08-21T17:52:22Z</time>
      </trkpt>
      <trkpt lat="2.770542" lon="-75.0751">
        <ele>1925.8</ele>
        <time>2021-08-21T17:52:23Z</time>
      </trkpt>
      <trkpt lat="2.770591" lon="-75.07515">
        <ele>1925.0</ele>
        <time>2021-08-21T17:52:24Z</time>
      </trkpt>
      <trkpt lat="2.77064" lon="-75.075195">
        <ele>1924.1</ele>
        <time>2021-08-21T17:52:25Z</time>
      </trkpt>
      <trkpt lat="2.770687" lon="-75.07524">
        <ele>1923.2</ele>
        <time>2021-08-21T17:52:26Z</time>
      </trkpt>
      <trkpt lat="2.77073" lon="-75.075294">
        <ele>1922.4</ele>
        <time>2021-08-21T17:52:27Z</time>
      </trkpt>
      <trkpt lat="2.770769" lon="-75.07535">
        <ele>1921.5</ele>
        <time>2021-08-21T17:52:28Z</time>
      </trkpt>
      <trkpt lat="2.770802" lon="-75.0754">
        <ele>1920.7</ele>
        <time>2021-08-21T17:52:29Z</time>
      </trkpt>
      <trkpt lat="2.770834" lon="-75.07546">
        <ele>1919.9</ele>
        <time>2021-08-21T17:52:30Z</time>
      </trkpt>
      <trkpt lat="2.770866" lon="-75.07552">
        <ele>1919.0</ele>
        <time>2021-08-21T17:52:31Z</time>
      </trkpt>
      <trkpt lat="2.770897" lon="-75.07559">
        <ele>1918.1</ele>
        <time>2021-08-21T17:52:32Z</time>
      </trkpt>
      <trkpt lat="2.770927" lon="-75.07565">
        <ele>1917.1</ele>
        <time>2021-08-21T17:52:33Z</time>
      </trkpt>
      <trkpt lat="2.770958" lon="-75.07572">
        <ele>1916.2</ele>
        <time>2021-08-21T17:52:34Z</time>
      </trkpt>
      <trkpt lat="2.770989" lon="-75.07579">
        <ele>1915.3</ele>
        <time>2021-08-21T17:52:35Z</time>
      </trkpt>
      <trkpt lat="2.771022" lon="-75.07585">
        <ele>1914.3</ele>
        <time>2021-08-21T17:52:36Z</time>
      </trkpt>
      <trkpt lat="2.771057" lon="-75.07592">
        <ele>1913.4</ele>
        <time>2021-08-21T17:52:37Z</time>
      </trkpt>
      <trkpt lat="2.771097" lon="-75.07598">
        <ele>1912.4</ele>
        <time>2021-08-21T17:52:38Z</time>
      </trkpt>
      <trkpt lat="2.771138" lon="-75.07604">
        <ele>1911.5</ele>
        <time>2021-08-21T17:52:39Z</time>
      </trkpt>
      <trkpt lat="2.771183" lon="-75.076096">
        <ele>1910.6</ele>
        <time>2021-08-21T17:52:40Z</time>
      </trkpt>
      <trkpt lat="2.771231" lon="-75.07614">
        <ele>1909.8</ele>
        <time>2021-08-21T17:52:41Z</time>
      </trkpt>
      <trkpt lat="2.771282" lon="-75.076195">
        <ele>1908.9</ele>
        <time>2021-08-21T17:52:42Z</time>
      </trkpt>
      <trkpt lat="2.771336" lon="-75.07623">
        <ele>1908.0</ele>
        <time>2021-08-21T17:52:43Z</time>
      </trkpt>
      <trkpt lat="2.771394" lon="-75.07626">
        <ele>1907.2</ele>
        <time>2021-08-21T17:52:44Z</time>
      </trkpt>
      <trkpt lat="2.771455" lon="-75.07629">
        <ele>1906.3</ele>
        <time>2021-08-21T17:52:45Z</time>
      </trkpt>
      <trkpt lat="2.771518" lon="-75.07631">
        <ele>1905.5</ele>
        <time>2021-08-21T17:52:46Z</time>
      </trkpt>
      <trkpt lat="2.771585" lon="-75.07633">
        <ele>1904.6</ele>
        <time>2021-08-21T17:52:47Z</time>
      </trkpt>
      <trkpt lat="2.771653" lon="-75.076355">
        <ele>1903.7</ele>
        <time>2021-08-21T17:52:48Z</time>
      </trkpt>
      <trkpt lat="2.771721" lon="-75.07638">
        <ele>1902.8</ele>
        <time>2021-08-21T17:52:49Z</time>
      </trkpt>
      <trkpt lat="2.771789" lon="-75.0764">
        <ele>1901.9</ele>
        <time>2021-08-21T17:52:50Z</time>
      </trkpt>
      <trkpt lat="2.771857" lon="-75.076416">
        <ele>1901.0</ele>
        <time>2021-08-21T17:52:51Z</time>
      </trkpt>
      <trkpt lat="2.771923" lon="-75.07644">
        <ele>1900.1</ele>
        <time>2021-08-21T17:52:52Z</time>
      </trkpt>
      <trkpt lat="2.771988" lon="-75.07646">
        <ele>1899.2</ele>
        <time>2021-08-21T17:52:52Z</time>
      </trkpt>
      <trkpt lat="2.772054" lon="-75.076485">
        <ele>1898.3</ele>
        <time>2021-08-21T17:52:53Z</time>
      </trkpt>
      <trkpt lat="2.772122" lon="-75.07651">
        <ele>1897.4</ele>
        <time>2021-08-21T17:52:54Z</time>
      </trkpt>
      <trkpt lat="2.772191" lon="-75.07652">
        <ele>1896.5</ele>
        <time>2021-08-21T17:52:55Z</time>
      </trkpt>
      <trkpt lat="2.772259" lon="-75.076546">
        <ele>1895.6</ele>
        <time>2021-08-21T17:52:56Z</time>
      </trkpt>
      <trkpt lat="2.772325" lon="-75.07657">
        <ele>1894.7</ele>
        <time>2021-08-21T17:52:57Z</time>
      </trkpt>
      <trkpt lat="2.772388" lon="-75.07659">
        <ele>1893.8</ele>
        <time>2021-08-21T17:52:58Z</time>
      </trkpt>
      <trkpt lat="2.772444" lon="-75.07662">
        <ele>1893.0</ele>
        <time>2021-08-21T17:52:59Z</time>
      </trkpt>
      <trkpt lat="2.772495" lon="-75.07665">
        <ele>1892.3</ele>
        <time>2021-08-21T17:53:00Z</time>
      </trkpt>
      <trkpt lat="2.772542" lon="-75.07669">
        <ele>1891.5</ele>
        <time>2021-08-21T17:53:01Z</time>
      </trkpt>
      <trkpt lat="2.772587" lon="-75.07673">
        <ele>1890.7</ele>
        <time>2021-08-21T17:53:02Z</time>
      </trkpt>
      <trkpt lat="2.772627" lon="-75.07677">
        <ele>1890.0</ele>
        <time>2021-08-21T17:53:03Z</time>
      </trkpt>
      <trkpt lat="2.772662" lon="-75.07681">
        <ele>1889.3</ele>
        <time>2021-08-21T17:53:04Z</time>
      </trkpt>
      <trkpt lat="2.772692" lon="-75.07686">
        <ele>1888.6</ele>
        <time>2021-08-21T17:53:05Z</time>
      </trkpt>
      <trkpt lat="2.772719" lon="-75.076904">
        <ele>1888.0</ele>
        <time>2021-08-21T17:53:06Z</time>
      </trkpt>
      <trkpt lat="2.772747" lon="-75.07694">
        <ele>1887.3</ele>
        <time>2021-08-21T17:53:07Z</time>
      </trkpt>
      <trkpt lat="2.772777" lon="-75.07698">
        <ele>1886.7</ele>
        <time>2021-08-21T17:53:08Z</time>
      </trkpt>
      <trkpt lat="2.772808" lon="-75.07702">
        <ele>1886.1</ele>
        <time>2021-08-21T17:53:09Z</time>
      </trkpt>
      <trkpt lat="2.772836" lon="-75.07706">
        <ele>1885.5</ele>
        <time>2021-08-21T17:53:10Z</time>
      </trkpt>
      <trkpt lat="2.772863" lon="-75.0771">
        <ele>1884.9</ele>
        <time>2021-08-21T17:53:11Z</time>
      </trkpt>
      <trkpt lat="2.772886" lon="-75.07714">
        <ele>1884.3</ele>
        <time>2021-08-21T17:53:12Z</time>
      </trkpt>
      <trkpt lat="2.772902" lon="-75.07719">
        <ele>1883.7</ele>
        <time>2021-08-21T17:53:13Z</time>
      </trkpt>
      <trkpt lat="2.772911" lon="-75.077225">
        <ele>1883.1</ele>
        <time>2021-08-21T17:53:14Z</time>
      </trkpt>
      <trkpt lat="2.772913" lon="-75.07727">
        <ele>1882.5</ele>
        <time>2021-08-21T17:53:15Z</time>
      </trkpt>
      <trkpt lat="2.772911" lon="-75.07732">
        <ele>1882.0</ele>
        <time>2021-08-21T17:53:16Z</time>
      </trkpt>
      <trkpt lat="2.772911" lon="-75.07736">
        <ele>1881.4</ele>
        <time>2021-08-21T17:53:17Z</time>
      </trkpt>
      <trkpt lat="2.772915" lon="-75.077415">
        <ele>1880.7</ele>
        <time>2021-08-21T17:53:18Z</time>
      </trkpt>
      <trkpt lat="2.772923" lon="-75.07745">
        <ele>1880.2</ele>
        <time>2021-08-21T17:53:19Z</time>
      </trkpt>
      <trkpt lat="2.77294" lon="-75.0775">
        <ele>1879.6</ele>
        <time>2021-08-21T17:53:20Z</time>
      </trkpt>
      <trkpt lat="2.772964" lon="-75.07754">
        <ele>1879.1</ele>
        <time>2021-08-21T17:53:21Z</time>
      </trkpt>
      <trkpt lat="2.772997" lon="-75.07756">
        <ele>1878.5</ele>
        <time>2021-08-21T17:53:22Z</time>
      </trkpt>
      <trkpt lat="2.773036" lon="-75.07758">
        <ele>1877.9</ele>
        <time>2021-08-21T17:53:23Z</time>
      </trkpt>
      <trkpt lat="2.773083" lon="-75.0776">
        <ele>1877.3</ele>
        <time>2021-08-21T17:53:24Z</time>
      </trkpt>
      <trkpt lat="2.773134" lon="-75.077614">
        <ele>1876.6</ele>
        <time>2021-08-21T17:53:25Z</time>
      </trkpt>
      <trkpt lat="2.773188" lon="-75.07763">
        <ele>1875.9</ele>
        <time>2021-08-21T17:53:26Z</time>
      </trkpt>
      <trkpt lat="2.773245" lon="-75.077644">
        <ele>1875.1</ele>
        <time>2021-08-21T17:53:27Z</time>
      </trkpt>
      <trkpt lat="2.773302" lon="-75.07767">
        <ele>1874.4</ele>
        <time>2021-08-21T17:53:28Z</time>
      </trkpt>
      <trkpt lat="2.773357" lon="-75.07769">
        <ele>1873.6</ele>
        <time>2021-08-21T17:53:29Z</time>
      </trkpt>
      <trkpt lat="2.773411" lon="-75.07772">
        <ele>1872.8</ele>
        <time>2021-08-21T17:53:30Z</time>
      </trkpt>
      <trkpt lat="2.773461" lon="-75.07775">
        <ele>1872.1</ele>
        <time>2021-08-21T17:53:31Z</time>
      </trkpt>
      <trkpt lat="2.77351" lon="-75.07778">
        <ele>1871.3</ele>
        <time>2021-08-21T17:53:32Z</time>
      </trkpt>
      <trkpt lat="2.773559" lon="-75.07782">
        <ele>1870.5</ele>
        <time>2021-08-21T17:53:33Z</time>
      </trkpt>
      <trkpt lat="2.773605" lon="-75.07785">
        <ele>1869.8</ele>
        <time>2021-08-21T17:53:34Z</time>
      </trkpt>
      <trkpt lat="2.773654" lon="-75.07789">
        <ele>1869.0</ele>
        <time>2021-08-21T17:53:35Z</time>
      </trkpt>
      <trkpt lat="2.773702" lon="-75.077934">
        <ele>1868.2</ele>
        <time>2021-08-21T17:53:36Z</time>
      </trkpt>
      <trkpt lat="2.773744" lon="-75.07797">
        <ele>1867.5</ele>
        <time>2021-08-21T17:53:37Z</time>
      </trkpt>
      <trkpt lat="2.773783" lon="-75.07801">
        <ele>1866.8</ele>
        <time>2021-08-21T17:53:38Z</time>
      </trkpt>
      <trkpt lat="2.773818" lon="-75.07805">
        <ele>1866.1</ele>
        <time>2021-08-21T17:53:39Z</time>
      </trkpt>
      <trkpt lat="2.77385" lon="-75.078094">
        <ele>1865.4</ele>
        <time>2021-08-21T17:53:40Z</time>
      </trkpt>
      <trkpt lat="2.773876" lon="-75.07815">
        <ele>1864.7</ele>
        <time>2021-08-21T17:53:41Z</time>
      </trkpt>
      <trkpt lat="2.773896" lon="-75.0782">
        <ele>1864.0</ele>
        <time>2021-08-21T17:53:43Z</time>
      </trkpt>
      <trkpt lat="2.773912" lon="-75.078255">
        <ele>1863.3</ele>
        <time>2021-08-21T17:53:43Z</time>
      </trkpt>
      <trkpt lat="2.773925" lon="-75.07831">
        <ele>1862.5</ele>
        <time>2021-08-21T17:53:44Z</time>
      </trkpt>
      <trkpt lat="2.773936" lon="-75.07836">
        <ele>1861.8</ele>
        <time>2021-08-21T17:53:45Z</time>
      </trkpt>
      <trkpt lat="2.773946" lon="-75.078415">
        <ele>1861.1</ele>
        <time>2021-08-21T17:53:46Z</time>
      </trkpt>
      <trkpt lat="2.773956" lon="-75.07846">
        <ele>1860.5</ele>
        <time>2021-08-21T17:53:47Z</time>
      </trkpt>
      <trkpt lat="2.773969" lon="-75.07851">
        <ele>1859.9</ele>
        <time>2021-08-21T17:53:48Z</time>
      </trkpt>
      <trkpt lat="2.773985" lon="-75.07855">
        <ele>1859.3</ele>
        <time>2021-08-21T17:53:49Z</time>
      </trkpt>
      <trkpt lat="2.774005" lon="-75.07859">
        <ele>1858.6</ele>
        <time>2021-08-21T17:53:50Z</time>
      </trkpt>
      <trkpt lat="2.774031" lon="-75.07862">
        <ele>1858.3</ele>
        <time>2021-08-21T17:53:51Z</time>
      </trkpt>
      <trkpt lat="2.774066" lon="-75.07865">
        <ele>1857.9</ele>
        <time>2021-08-21T17:53:52Z</time>
      </trkpt>
      <trkpt lat="2.774102" lon="-75.07867">
        <ele>1857.5</ele>
        <time>2021-08-21T17:53:53Z</time>
      </trkpt>
      <trkpt lat="2.774142" lon="-75.078674">
        <ele>1857.2</ele>
        <time>2021-08-21T17:53:54Z</time>
      </trkpt>
      <trkpt lat="2.774183" lon="-75.078674">
        <ele>1856.8</ele>
        <time>2021-08-21T17:53:55Z</time>
      </trkpt>
      <trkpt lat="2.774225" lon="-75.07867">
        <ele>1856.5</ele>
        <time>2021-08-21T17:53:56Z</time>
      </trkpt>
      <trkpt lat="2.774266" lon="-75.07864">
        <ele>1856.1</ele>
        <time>2021-08-21T17:53:57Z</time>
      </trkpt>
      <trkpt lat="2.774306" lon="-75.07862">
        <ele>1855.7</ele>
        <time>2021-08-21T17:53:58Z</time>
      </trkpt>
      <trkpt lat="2.774345" lon="-75.07858">
        <ele>1855.2</ele>
        <time>2021-08-21T17:53:59Z</time>
      </trkpt>
      <trkpt lat="2.774383" lon="-75.078545">
        <ele>1854.8</ele>
        <time>2021-08-21T17:54:00Z</time>
      </trkpt>
      <trkpt lat="2.774423" lon="-75.07849">
        <ele>1854.2</ele>
        <time>2021-08-21T17:54:01Z</time>
      </trkpt>
      <trkpt lat="2.774464" lon="-75.07844">
        <ele>1853.6</ele>
        <time>2021-08-21T17:54:02Z</time>
      </trkpt>
      <trkpt lat="2.774503" lon="-75.078384">
        <ele>1853.1</ele>
        <time>2021-08-21T17:54:03Z</time>
      </trkpt>
      <trkpt lat="2.77454" lon="-75.07833">
        <ele>1852.5</ele>
        <time>2021-08-21T17:54:04Z</time>
      </trkpt>
      <trkpt lat="2.774579" lon="-75.07828">
        <ele>1852.0</ele>
        <time>2021-08-21T17:54:05Z</time>
      </trkpt>
      <trkpt lat="2.774616" lon="-75.07823">
        <ele>1851.4</ele>
        <time>2021-08-21T17:54:06Z</time>
      </trkpt>
      <trkpt lat="2.774652" lon="-75.07818">
        <ele>1850.9</ele>
        <time>2021-08-21T17:54:07Z</time>
      </trkpt>
      <trkpt lat="2.774689" lon="-75.07813">
        <ele>1850.4</ele>
        <time>2021-08-21T17:54:08Z</time>
      </trkpt>
      <trkpt lat="2.774725" lon="-75.07807">
        <ele>1849.8</ele>
        <time>2021-08-21T17:54:09Z</time>
      </trkpt>
      <trkpt lat="2.774761" lon="-75.07802">
        <ele>1849.2</ele>
        <time>2021-08-21T17:54:10Z</time>
      </trkpt>
      <trkpt lat="2.774797" lon="-75.077965">
        <ele>1848.7</ele>
        <time>2021-08-21T17:54:10Z</time>
      </trkpt>
      <trkpt lat="2.774831" lon="-75.0779">
        <ele>1848.1</ele>
        <time>2021-08-21T17:54:11Z</time>
      </trkpt>
      <trkpt lat="2.774867" lon="-75.07785">
        <ele>1847.6</ele>
        <time>2021-08-21T17:54:12Z</time>
      </trkpt>
      <trkpt lat="2.774903" lon="-75.077805">
        <ele>1847.0</ele>
        <time>2021-08-21T17:54:13Z</time>
      </trkpt>
      <trkpt lat="2.774941" lon="-75.07775">
        <ele>1846.5</ele>
        <time>2021-08-21T17:54:14Z</time>
      </trkpt>
      <trkpt lat="2.77498" lon="-75.077705">
        <ele>1846.0</ele>
        <time>2021-08-21T17:54:15Z</time>
      </trkpt>
      <trkpt lat="2.775023" lon="-75.07767">
        <ele>1845.5</ele>
        <time>2021-08-21T17:54:16Z</time>
      </trkpt>
      <trkpt lat="2.775069" lon="-75.07763">
        <ele>1845.0</ele>
        <time>2021-08-21T17:54:17Z</time>
      </trkpt>
      <trkpt lat="2.775118" lon="-75.07759">
        <ele>1844.4</ele>
        <time>2021-08-21T17:54:18Z</time>
      </trkpt>
      <trkpt lat="2.77517" lon="-75.07756">
        <ele>1843.9</ele>
        <time>2021-08-21T17:54:19Z</time>
      </trkpt>
      <trkpt lat="2.775225" lon="-75.07753">
        <ele>1843.4</ele>
        <time>2021-08-21T17:54:20Z</time>
      </trkpt>
      <trkpt lat="2.775285" lon="-75.0775">
        <ele>1842.8</ele>
        <time>2021-08-21T17:54:21Z</time>
      </trkpt>
      <trkpt lat="2.775344" lon="-75.07748">
        <ele>1842.3</ele>
        <time>2021-08-21T17:54:22Z</time>
      </trkpt>
      <trkpt lat="2.775401" lon="-75.07745">
        <ele>1841.7</ele>
        <time>2021-08-21T17:54:23Z</time>
      </trkpt>
      <trkpt lat="2.775458" lon="-75.07743">
        <ele>1841.2</ele>
        <time>2021-08-21T17:54:24Z</time>
      </trkpt>
      <trkpt lat="2.775516" lon="-75.0774">
        <ele>1840.7</ele>
        <time>2021-08-21T17:54:25Z</time>
      </trkpt>
      <trkpt lat="2.775571" lon="-75.07738">
        <ele>1840.2</ele>
        <time>2021-08-21T17:54:26Z</time>
      </trkpt>
      <trkpt lat="2.775622" lon="-75.07735">
        <ele>1839.7</ele>
        <time>2021-08-21T17:54:27Z</time>
      </trkpt>
      <trkpt lat="2.775665" lon="-75.07732">
        <ele>1839.2</ele>
        <time>2021-08-21T17:54:28Z</time>
      </trkpt>
      <trkpt lat="2.775701" lon="-75.07728">
        <ele>1838.8</ele>
        <time>2021-08-21T17:54:29Z</time>
      </trkpt>
      <trkpt lat="2.775733" lon="-75.07724">
        <ele>1838.3</ele>
        <time>2021-08-21T17:54:30Z</time>
      </trkpt>
      <trkpt lat="2.775765" lon="-75.0772">
        <ele>1837.9</ele>
        <time>2021-08-21T17:54:31Z</time>
      </trkpt>
      <trkpt lat="2.775796" lon="-75.07716">
        <ele>1837.5</ele>
        <time>2021-08-21T17:54:32Z</time>
      </trkpt>
      <trkpt lat="2.775826" lon="-75.077126">
        <ele>1837.1</ele>
        <time>2021-08-21T17:54:33Z</time>
      </trkpt>
      <trkpt lat="2.775857" lon="-75.077095">
        <ele>1836.7</ele>
        <time>2021-08-21T17:54:34Z</time>
      </trkpt>
      <trkpt lat="2.77589" lon="-75.07707">
        <ele>1836.4</ele>
        <time>2021-08-21T17:54:35Z</time>
      </trkpt>
      <trkpt lat="2.775929" lon="-75.077065">
        <ele>1836.0</ele>
        <time>2021-08-21T17:54:36Z</time>
      </trkpt>
      <trkpt lat="2.775971" lon="-75.07706">
        <ele>1835.7</ele>
        <time>2021-08-21T17:54:37Z</time>
      </trkpt>
      <trkpt lat="2.776012" lon="-75.07706">
        <ele>1835.3</ele>
        <time>2021-08-21T17:54:38Z</time>
      </trkpt>
      <trkpt lat="2.776052" lon="-75.077065">
        <ele>1835.0</ele>
        <time>2021-08-21T17:54:39Z</time>
      </trkpt>
      <trkpt lat="2.776091" lon="-75.07708">
        <ele>1834.6</ele>
        <time>2021-08-21T17:54:40Z</time>
      </trkpt>
      <trkpt lat="2.776127" lon="-75.077095">
        <ele>1834.3</ele>
        <time>2021-08-21T17:54:41Z</time>
      </trkpt>
      <trkpt lat="2.776164" lon="-75.07711">
        <ele>1833.9</ele>
        <time>2021-08-21T17:54:42Z</time>
      </trkpt>
      <trkpt lat="2.776201" lon="-75.07712">
        <ele>1833.6</ele>
        <time>2021-08-21T17:54:43Z</time>
      </trkpt>
      <trkpt lat="2.776238" lon="-75.077126">
        <ele>1833.3</ele>
        <time>2021-08-21T17:54:44Z</time>
      </trkpt>
      <trkpt lat="2.776278" lon="-75.077126">
        <ele>1833.0</ele>
        <time>2021-08-21T17:54:45Z</time>
      </trkpt>
      <trkpt lat="2.776322" lon="-75.077126">
        <ele>1832.6</ele>
        <time>2021-08-21T17:54:46Z</time>
      </trkpt>
      <trkpt lat="2.776362" lon="-75.077126">
        <ele>1832.2</ele>
        <time>2021-08-21T17:54:47Z</time>
      </trkpt>
      <trkpt lat="2.776405" lon="-75.077126">
        <ele>1831.9</ele>
        <time>2021-08-21T17:54:48Z</time>
      </trkpt>
      <trkpt lat="2.776449" lon="-75.07712">
        <ele>1831.5</ele>
        <time>2021-08-21T17:54:49Z</time>
      </trkpt>
      <trkpt lat="2.776494" lon="-75.07711">
        <ele>1831.1</ele>
        <time>2021-08-21T17:54:50Z</time>
      </trkpt>
      <trkpt lat="2.77654" lon="-75.0771">
        <ele>1830.7</ele>
        <time>2021-08-21T17:54:51Z</time>
      </trkpt>
      <trkpt lat="2.776588" lon="-75.07709">
        <ele>1830.3</ele>
        <time>2021-08-21T17:54:52Z</time>
      </trkpt>
      <trkpt lat="2.776635" lon="-75.07707">
        <ele>1829.9</ele>
        <time>2021-08-21T17:54:53Z</time>
      </trkpt>
      <trkpt lat="2.776683" lon="-75.07706">
        <ele>1829.4</ele>
        <time>2021-08-21T17:54:54Z</time>
      </trkpt>
      <trkpt lat="2.776731" lon="-75.077034">
        <ele>1829.0</ele>
        <time>2021-08-21T17:54:55Z</time>
      </trkpt>
      <trkpt lat="2.776778" lon="-75.07702">
        <ele>1828.5</ele>
        <time>2021-08-21T17:54:56Z</time>
      </trkpt>
      <trkpt lat="2.776825" lon="-75.076996">
        <ele>1828.1</ele>
        <time>2021-08-21T17:54:57Z</time>
      </trkpt>
      <trkpt lat="2.776873" lon="-75.07697">
        <ele>1827.6</ele>
        <time>2021-08-21T17:54:58Z</time>
      </trkpt>
      <trkpt lat="2.776922" lon="-75.07694">
        <ele>1827.2</ele>
        <time>2021-08-21T17:54:59Z</time>
      </trkpt>
      <trkpt lat="2.776967" lon="-75.07692">
        <ele>1826.7</ele>
        <time>2021-08-21T17:55:00Z</time>
      </trkpt>
      <trkpt lat="2.777009" lon="-75.0769">
        <ele>1826.3</ele>
        <time>2021-08-21T17:55:01Z</time>
      </trkpt>
      <trkpt lat="2.777052" lon="-75.076866">
        <ele>1825.9</ele>
        <time>2021-08-21T17:55:02Z</time>
      </trkpt>
      <trkpt lat="2.777094" lon="-75.07684">
        <ele>1825.5</ele>
        <time>2021-08-21T17:55:03Z</time>
      </trkpt>
      <trkpt lat="2.777137" lon="-75.07681">
        <ele>1825.0</ele>
        <time>2021-08-21T17:55:04Z</time>
      </trkpt>
      <trkpt lat="2.77718" lon="-75.07679">
        <ele>1824.6</ele>
        <time>2021-08-21T17:55:05Z</time>
      </trkpt>
      <trkpt lat="2.777226" lon="-75.07677">
        <ele>1824.2</ele>
        <time>2021-08-21T17:55:06Z</time>
      </trkpt>
      <trkpt lat="2.777268" lon="-75.07675">
        <ele>1823.8</ele>
        <time>2021-08-21T17:55:07Z</time>
      </trkpt>
      <trkpt lat="2.777312" lon="-75.07674">
        <ele>1823.4</ele>
        <time>2021-08-21T17:55:08Z</time>
      </trkpt>
      <trkpt lat="2.777356" lon="-75.07672">
        <ele>1823.0</ele>
        <time>2021-08-21T17:55:09Z</time>
      </trkpt>
      <trkpt lat="2.777397" lon="-75.07671">
        <ele>1822.6</ele>
        <time>2021-08-21T17:55:10Z</time>
      </trkpt>
      <trkpt lat="2.777443" lon="-75.076706">
        <ele>1822.2</ele>
        <time>2021-08-21T17:55:11Z</time>
      </trkpt>
      <trkpt lat="2.777487" lon="-75.0767">
        <ele>1821.9</ele>
        <time>2021-08-21T17:55:12Z</time>
      </trkpt>
      <trkpt lat="2.777526" lon="-75.0767">
        <ele>1821.5</ele>
        <time>2021-08-21T17:55:13Z</time>
      </trkpt>
      <trkpt lat="2.777562" lon="-75.0767">
        <ele>1821.2</ele>
        <time>2021-08-21T17:55:14Z</time>
      </trkpt>
      <trkpt lat="2.777597" lon="-75.0767">
        <ele>1820.9</ele>
        <time>2021-08-21T17:55:15Z</time>
      </trkpt>
      <trkpt lat="2.777631" lon="-75.07669">
        <ele>1820.6</ele>
        <time>2021-08-21T17:55:16Z</time>
      </trkpt>
      <trkpt lat="2.777662" lon="-75.07669">
        <ele>1820.4</ele>
        <time>2021-08-21T17:55:17Z</time>
      </trkpt>
      <trkpt lat="2.777693" lon="-75.07668">
        <ele>1820.1</ele>
        <time>2021-08-21T17:55:18Z</time>
      </trkpt>
      <trkpt lat="2.777724" lon="-75.07668">
        <ele>1819.8</ele>
        <time>2021-08-21T17:55:19Z</time>
      </trkpt>
      <trkpt lat="2.777756" lon="-75.076675">
        <ele>1819.5</ele>
        <time>2021-08-21T17:55:20Z</time>
      </trkpt>
      <trkpt lat="2.77779" lon="-75.07667">
        <ele>1819.3</ele>
        <time>2021-08-21T17:55:21Z</time>
      </trkpt>
      <trkpt lat="2.777827" lon="-75.07666">
        <ele>1818.9</ele>
        <time>2021-08-21T17:55:22Z</time>
      </trkpt>
      <trkpt lat="2.777865" lon="-75.07665">
        <ele>1818.6</ele>
        <time>2021-08-21T17:55:23Z</time>
      </trkpt>
      <trkpt lat="2.777904" lon="-75.07664">
        <ele>1818.2</ele>
        <time>2021-08-21T17:55:24Z</time>
      </trkpt>
      <trkpt lat="2.777944" lon="-75.07663">
        <ele>1817.9</ele>
        <time>2021-08-21T17:55:25Z</time>
      </trkpt>
      <trkpt lat="2.777989" lon="-75.07661">
        <ele>1817.5</ele>
        <time>2021-08-21T17:55:26Z</time>
      </trkpt>
      <trkpt lat="2.778033" lon="-75.0766">
        <ele>1817.1</ele>
        <time>2021-08-21T17:55:27Z</time>
      </trkpt>
      <trkpt lat="2.778074" lon="-75.07659">
        <ele>1816.7</ele>
        <time>2021-08-21T17:55:28Z</time>
      </trkpt>
      <trkpt lat="2.778117" lon="-75.076584">
        <ele>1816.4</ele>
        <time>2021-08-21T17:55:29Z</time>
      </trkpt>
      <trkpt lat="2.778159" lon="-75.07659">
        <ele>1816.0</ele>
        <time>2021-08-21T17:55:30Z</time>
      </trkpt>
      <trkpt lat="2.778199" lon="-75.07661">
        <ele>1815.6</ele>
        <time>2021-08-21T17:55:31Z</time>
      </trkpt>
      <trkpt lat="2.778236" lon="-75.07663">
        <ele>1815.3</ele>
        <time>2021-08-21T17:55:32Z</time>
      </trkpt>
      <trkpt lat="2.778266" lon="-75.07665">
        <ele>1814.9</ele>
        <time>2021-08-21T17:55:33Z</time>
      </trkpt>
      <trkpt lat="2.778294" lon="-75.07668">
        <ele>1814.6</ele>
        <time>2021-08-21T17:55:34Z</time>
      </trkpt>
      <trkpt lat="2.77832" lon="-75.07671">
        <ele>1814.2</ele>
        <time>2021-08-21T17:55:35Z</time>
      </trkpt>
      <trkpt lat="2.778346" lon="-75.076744">
        <ele>1813.9</ele>
        <time>2021-08-21T17:55:36Z</time>
      </trkpt>
      <trkpt lat="2.77837" lon="-75.07677">
        <ele>1813.6</ele>
        <time>2021-08-21T17:55:37Z</time>
      </trkpt>
      <trkpt lat="2.778397" lon="-75.0768">
        <ele>1813.3</ele>
        <time>2021-08-21T17:55:38Z</time>
      </trkpt>
      <trkpt lat="2.778425" lon="-75.07681">
        <ele>1813.0</ele>
        <time>2021-08-21T17:55:39Z</time>
      </trkpt>
      <trkpt lat="2.778457" lon="-75.076836">
        <ele>1812.7</ele>
        <time>2021-08-21T17:55:40Z</time>
      </trkpt>
      <trkpt lat="2.778491" lon="-75.07684">
        <ele>1812.4</ele>
        <time>2021-08-21T17:55:41Z</time>
      </trkpt>
      <trkpt lat="2.778528" lon="-75.07686">
        <ele>1812.0</ele>
        <time>2021-08-21T17:55:42Z</time>
      </trkpt>
      <trkpt lat="2.778568" lon="-75.076866">
        <ele>1811.7</ele>
        <time>2021-08-21T17:55:43Z</time>
      </trkpt>
      <trkpt lat="2.778611" lon="-75.076866">
        <ele>1811.3</ele>
        <time>2021-08-21T17:55:44Z</time>
      </trkpt>
      <trkpt lat="2.778656" lon="-75.07686">
        <ele>1810.9</ele>
        <time>2021-08-21T17:55:45Z</time>
      </trkpt>
      <trkpt lat="2.778703" lon="-75.07685">
        <ele>1810.5</ele>
        <time>2021-08-21T17:55:46Z</time>
      </trkpt>
      <trkpt lat="2.77875" lon="-75.076836">
        <ele>1810.1</ele>
        <time>2021-08-21T17:55:47Z</time>
      </trkpt>
      <trkpt lat="2.778798" lon="-75.07682">
        <ele>1809.7</ele>
        <time>2021-08-21T17:55:48Z</time>
      </trkpt>
      <trkpt lat="2.778845" lon="-75.076805">
        <ele>1809.2</ele>
        <time>2021-08-21T17:55:49Z</time>
      </trkpt>
      <trkpt lat="2.778895" lon="-75.07678">
        <ele>1808.8</ele>
        <time>2021-08-21T17:55:50Z</time>
      </trkpt>
      <trkpt lat="2.778946" lon="-75.07676">
        <ele>1808.3</ele>
        <time>2021-08-21T17:55:51Z</time>
      </trkpt>
      <trkpt lat="2.778998" lon="-75.076744">
        <ele>1807.8</ele>
        <time>2021-08-21T17:55:52Z</time>
      </trkpt>
      <trkpt lat="2.779053" lon="-75.07672">
        <ele>1807.3</ele>
        <time>2021-08-21T17:55:53Z</time>
      </trkpt>
      <trkpt lat="2.779108" lon="-75.0767">
        <ele>1806.8</ele>
        <time>2021-08-21T17:55:54Z</time>
      </trkpt>
      <trkpt lat="2.779163" lon="-75.07668">
        <ele>1806.3</ele>
        <time>2021-08-21T17:55:55Z</time>
      </trkpt>
      <trkpt lat="2.779219" lon="-75.07666">
        <ele>1805.8</ele>
        <time>2021-08-21T17:55:56Z</time>
      </trkpt>
      <trkpt lat="2.779275" lon="-75.076645">
        <ele>1805.3</ele>
        <time>2021-08-21T17:55:57Z</time>
      </trkpt>
      <trkpt lat="2.779331" lon="-75.07663">
        <ele>1804.8</ele>
        <time>2021-08-21T17:55:58Z</time>
      </trkpt>
      <trkpt lat="2.779387" lon="-75.076614">
        <ele>1804.3</ele>
        <time>2021-08-21T17:55:59Z</time>
      </trkpt>
      <trkpt lat="2.779442" lon="-75.07661">
        <ele>1803.9</ele>
        <time>2021-08-21T17:56:00Z</time>
      </trkpt>
      <trkpt lat="2.779495" lon="-75.07659">
        <ele>1803.4</ele>
        <time>2021-08-21T17:56:01Z</time>
      </trkpt>
      <trkpt lat="2.779547" lon="-75.076584">
        <ele>1802.9</ele>
        <time>2021-08-21T17:56:02Z</time>
      </trkpt>
      <trkpt lat="2.779598" lon="-75.07657">
        <ele>1802.5</ele>
        <time>2021-08-21T17:56:03Z</time>
      </trkpt>
      <trkpt lat="2.779648" lon="-75.07656">
        <ele>1802.1</ele>
        <time>2021-08-21T17:56:04Z</time>
      </trkpt>
      <trkpt lat="2.779696" lon="-75.076546">
        <ele>1801.6</ele>
        <time>2021-08-21T17:56:05Z</time>
      </trkpt>
      <trkpt lat="2.779744" lon="-75.07653">
        <ele>1801.2</ele>
        <time>2021-08-21T17:56:06Z</time>
      </trkpt>
      <trkpt lat="2.779794" lon="-75.076515">
        <ele>1800.8</ele>
        <time>2021-08-21T17:56:07Z</time>
      </trkpt>
      <trkpt lat="2.779851" lon="-75.07649">
        <ele>1800.2</ele>
        <time>2021-08-21T17:56:08Z</time>
      </trkpt>
      <trkpt lat="2.77991" lon="-75.07647">
        <ele>1799.7</ele>
        <time>2021-08-21T17:56:09Z</time>
      </trkpt>
      <trkpt lat="2.779966" lon="-75.07645">
        <ele>1799.2</ele>
        <time>2021-08-21T17:56:10Z</time>
      </trkpt>
      <trkpt lat="2.780026" lon="-75.07642">
        <ele>1798.6</ele>
        <time>2021-08-21T17:56:11Z</time>
      </trkpt>
      <trkpt lat="2.780085" lon="-75.0764">
        <ele>1798.1</ele>
        <time>2021-08-21T17:56:12Z</time>
      </trkpt>
      <trkpt lat="2.780143" lon="-75.07637">
        <ele>1797.5</ele>
        <time>2021-08-21T17:56:13Z</time>
      </trkpt>
      <trkpt lat="2.7802" lon="-75.07634">
        <ele>1797.0</ele>
        <time>2021-08-21T17:56:14Z</time>
      </trkpt>
      <trkpt lat="2.780252" lon="-75.07632">
        <ele>1796.5</ele>
        <time>2021-08-21T17:56:15Z</time>
      </trkpt>
      <trkpt lat="2.780307" lon="-75.07629">
        <ele>1795.9</ele>
        <time>2021-08-21T17:56:16Z</time>
      </trkpt>
      <trkpt lat="2.780363" lon="-75.076256">
        <ele>1795.4</ele>
        <time>2021-08-21T17:56:17Z</time>
      </trkpt>
      <trkpt lat="2.780417" lon="-75.07622">
        <ele>1794.9</ele>
        <time>2021-08-21T17:56:18Z</time>
      </trkpt>
      <trkpt lat="2.780468" lon="-75.076195">
        <ele>1794.4</ele>
        <time>2021-08-21T17:56:19Z</time>
      </trkpt>
      <trkpt lat="2.780519" lon="-75.07616">
        <ele>1793.8</ele>
        <time>2021-08-21T17:56:20Z</time>
      </trkpt>
      <trkpt lat="2.780573" lon="-75.07612">
        <ele>1793.3</ele>
        <time>2021-08-21T17:56:21Z</time>
      </trkpt>
      <trkpt lat="2.780626" lon="-75.07608">
        <ele>1792.7</ele>
        <time>2021-08-21T17:56:22Z</time>
      </trkpt>
      <trkpt lat="2.780679" lon="-75.07604">
        <ele>1792.1</ele>
        <time>2021-08-21T17:56:23Z</time>
      </trkpt>
      <trkpt lat="2.780732" lon="-75.076">
        <ele>1791.6</ele>
        <time>2021-08-21T17:56:24Z</time>
      </trkpt>
      <trkpt lat="2.780782" lon="-75.07596">
        <ele>1791.0</ele>
        <time>2021-08-21T17:56:25Z</time>
      </trkpt>
      <trkpt lat="2.780834" lon="-75.07593">
        <ele>1790.5</ele>
        <time>2021-08-21T17:56:26Z</time>
      </trkpt>
      <trkpt lat="2.780885" lon="-75.07589">
        <ele>1790.0</ele>
        <time>2021-08-21T17:56:27Z</time>
      </trkpt>
      <trkpt lat="2.780935" lon="-75.07585">
        <ele>1789.4</ele>
        <time>2021-08-21T17:56:28Z</time>
      </trkpt>
      <trkpt lat="2.780985" lon="-75.07581">
        <ele>1788.9</ele>
        <time>2021-08-21T17:56:29Z</time>
      </trkpt>
      <trkpt lat="2.781032" lon="-75.07578">
        <ele>1788.4</ele>
        <time>2021-08-21T17:56:30Z</time>
      </trkpt>
      <trkpt lat="2.781074" lon="-75.075745">
        <ele>1787.9</ele>
        <time>2021-08-21T17:56:31Z</time>
      </trkpt>
      <trkpt lat="2.781115" lon="-75.07571">
        <ele>1787.4</ele>
        <time>2021-08-21T17:56:32Z</time>
      </trkpt>
      <trkpt lat="2.781155" lon="-75.07566">
        <ele>1787.0</ele>
        <time>2021-08-21T17:56:33Z</time>
      </trkpt>
      <trkpt lat="2.781195" lon="-75.07562">
        <ele>1786.5</ele>
        <time>2021-08-21T17:56:34Z</time>
      </trkpt>
      <trkpt lat="2.78124" lon="-75.07558">
        <ele>1785.9</ele>
        <time>2021-08-21T17:56:35Z</time>
      </trkpt>
      <trkpt lat="2.781285" lon="-75.07553">
        <ele>1785.4</ele>
        <time>2021-08-21T17:56:36Z</time>
      </trkpt>
      <trkpt lat="2.781327" lon="-75.075485">
        <ele>1784.9</ele>
        <time>2021-08-21T17:56:37Z</time>
      </trkpt>
      <trkpt lat="2.781367" lon="-75.07545">
        <ele>1784.4</ele>
        <time>2021-08-21T17:56:38Z</time>
      </trkpt>
      <trkpt lat="2.78141" lon="-75.0754">
        <ele>1783.8</ele>
        <time>2021-08-21T17:56:39Z</time>
      </trkpt>
      <trkpt lat="2.781449" lon="-75.07536">
        <ele>1783.4</ele>
        <time>2021-08-21T17:56:40Z</time>
      </trkpt>
      <trkpt lat="2.781492" lon="-75.075325">
        <ele>1782.9</ele>
        <time>2021-08-21T17:56:41Z</time>
      </trkpt>
      <trkpt lat="2.781532" lon="-75.075294">
        <ele>1782.1</ele>
        <time>2021-08-21T17:56:42Z</time>
      </trkpt>
      <trkpt lat="2.781576" lon="-75.07528">
        <ele>1781.4</ele>
        <time>2021-08-21T17:56:43Z</time>
      </trkpt>
      <trkpt lat="2.781621" lon="-75.075264">
        <ele>1780.7</ele>
        <time>2021-08-21T17:56:44Z</time>
      </trkpt>
      <trkpt lat="2.781667" lon="-75.07525">
        <ele>1780.0</ele>
        <time>2021-08-21T17:56:45Z</time>
      </trkpt>
      <trkpt lat="2.781714" lon="-75.07525">
        <ele>1779.4</ele>
        <time>2021-08-21T17:56:46Z</time>
      </trkpt>
      <trkpt lat="2.78176" lon="-75.07524">
        <ele>1778.7</ele>
        <time>2021-08-21T17:56:47Z</time>
      </trkpt>
      <trkpt lat="2.781802" lon="-75.07523">
        <ele>1778.2</ele>
        <time>2021-08-21T17:56:48Z</time>
      </trkpt>
      <trkpt lat="2.781842" lon="-75.075226">
        <ele>1777.6</ele>
        <time>2021-08-21T17:56:49Z</time>
      </trkpt>
      <trkpt lat="2.781883" lon="-75.07522">
        <ele>1777.1</ele>
        <time>2021-08-21T17:56:50Z</time>
      </trkpt>
      <trkpt lat="2.781925" lon="-75.075195">
        <ele>1776.5</ele>
        <time>2021-08-21T17:56:51Z</time>
      </trkpt>
      <trkpt lat="2.781967" lon="-75.07517">
        <ele>1775.8</ele>
        <time>2021-08-21T17:56:52Z</time>
      </trkpt>
      <trkpt lat="2.782007" lon="-75.07515">
        <ele>1775.3</ele>
        <time>2021-08-21T17:56:53Z</time>
      </trkpt>
      <trkpt lat="2.782048" lon="-75.07513">
        <ele>1774.7</ele>
        <time>2021-08-21T17:56:54Z</time>
      </trkpt>
      <trkpt lat="2.782093" lon="-75.0751">
        <ele>1774.2</ele>
        <time>2021-08-21T17:56:55Z</time>
      </trkpt>
      <trkpt lat="2.782133" lon="-75.07508">
        <ele>1773.7</ele>
        <time>2021-08-21T17:56:56Z</time>
      </trkpt>
      <trkpt lat="2.782174" lon="-75.07506">
        <ele>1773.2</ele>
        <time>2021-08-21T17:56:57Z</time>
      </trkpt>
      <trkpt lat="2.782215" lon="-75.07503">
        <ele>1772.7</ele>
        <time>2021-08-21T17:56:58Z</time>
      </trkpt>
      <trkpt lat="2.782258" lon="-75.07499">
        <ele>1772.1</ele>
        <time>2021-08-21T17:56:59Z</time>
      </trkpt>
      <trkpt lat="2.782299" lon="-75.07495">
        <ele>1771.4</ele>
        <time>2021-08-21T17:57:00Z</time>
      </trkpt>
      <trkpt lat="2.78234" lon="-75.07491">
        <ele>1770.8</ele>
        <time>2021-08-21T17:57:01Z</time>
      </trkpt>
      <trkpt lat="2.782382" lon="-75.074875">
        <ele>1770.1</ele>
        <time>2021-08-21T17:57:02Z</time>
      </trkpt>
      <trkpt lat="2.782423" lon="-75.07484">
        <ele>1769.4</ele>
        <time>2021-08-21T17:57:03Z</time>
      </trkpt>
      <trkpt lat="2.78247" lon="-75.0748">
        <ele>1768.7</ele>
        <time>2021-08-21T17:57:04Z</time>
      </trkpt>
      <trkpt lat="2.782515" lon="-75.07476">
        <ele>1768.0</ele>
        <time>2021-08-21T17:57:05Z</time>
      </trkpt>
      <trkpt lat="2.782559" lon="-75.07472">
        <ele>1767.4</ele>
        <time>2021-08-21T17:57:06Z</time>
      </trkpt>
      <trkpt lat="2.782599" lon="-75.074684">
        <ele>1766.7</ele>
        <time>2021-08-21T17:57:07Z</time>
      </trkpt>
      <trkpt lat="2.782635" lon="-75.074646">
        <ele>1766.1</ele>
        <time>2021-08-21T17:57:07Z</time>
      </trkpt>
      <trkpt lat="2.78267" lon="-75.0746">
        <ele>1765.4</ele>
        <time>2021-08-21T17:57:08Z</time>
      </trkpt>
      <trkpt lat="2.782703" lon="-75.07457">
        <ele>1764.8</ele>
        <time>2021-08-21T17:57:09Z</time>
      </trkpt>
      <trkpt lat="2.782735" lon="-75.07453">
        <ele>1764.3</ele>
        <time>2021-08-21T17:57:10Z</time>
      </trkpt>
      <trkpt lat="2.78277" lon="-75.0745">
        <ele>1763.8</ele>
        <time>2021-08-21T17:57:11Z</time>
      </trkpt>
      <trkpt lat="2.782809" lon="-75.07448">
        <ele>1763.2</ele>
        <time>2021-08-21T17:57:12Z</time>
      </trkpt>
      <trkpt lat="2.782851" lon="-75.074455">
        <ele>1762.6</ele>
        <time>2021-08-21T17:57:13Z</time>
      </trkpt>
      <trkpt lat="2.782898" lon="-75.07444">
        <ele>1762.0</ele>
        <time>2021-08-21T17:57:14Z</time>
      </trkpt>
      <trkpt lat="2.782947" lon="-75.074425">
        <ele>1761.3</ele>
        <time>2021-08-21T17:57:15Z</time>
      </trkpt>
      <trkpt lat="2.782995" lon="-75.07442">
        <ele>1760.7</ele>
        <time>2021-08-21T17:57:16Z</time>
      </trkpt>
      <trkpt lat="2.783043" lon="-75.07441">
        <ele>1760.0</ele>
        <time>2021-08-21T17:57:17Z</time>
      </trkpt>
      <trkpt lat="2.783089" lon="-75.074394">
        <ele>1759.3</ele>
        <time>2021-08-21T17:57:18Z</time>
      </trkpt>
      <trkpt lat="2.783133" lon="-75.07439">
        <ele>1758.7</ele>
        <time>2021-08-21T17:57:19Z</time>
      </trkpt>
      <trkpt lat="2.783176" lon="-75.07439">
        <ele>1758.1</ele>
        <time>2021-08-21T17:57:20Z</time>
      </trkpt>
      <trkpt lat="2.783218" lon="-75.07438">
        <ele>1757.6</ele>
        <time>2021-08-21T17:57:21Z</time>
      </trkpt>
      <trkpt lat="2.783256" lon="-75.07437">
        <ele>1757.2</ele>
        <time>2021-08-21T17:57:22Z</time>
      </trkpt>
      <trkpt lat="2.783297" lon="-75.07437">
        <ele>1756.7</ele>
        <time>2021-08-21T17:57:23Z</time>
      </trkpt>
      <trkpt lat="2.783333" lon="-75.07436">
        <ele>1756.2</ele>
        <time>2021-08-21T17:57:24Z</time>
      </trkpt>
      <trkpt lat="2.783369" lon="-75.07436">
        <ele>1755.8</ele>
        <time>2021-08-21T17:57:25Z</time>
      </trkpt>
      <trkpt lat="2.783401" lon="-75.07436">
        <ele>1755.4</ele>
        <time>2021-08-21T17:57:26Z</time>
      </trkpt>
      <trkpt lat="2.783427" lon="-75.07436">
        <ele>1755.1</ele>
        <time>2021-08-21T17:57:27Z</time>
      </trkpt>
      <trkpt lat="2.783447" lon="-75.07436">
        <ele>1754.8</ele>
        <time>2021-08-21T17:57:28Z</time>
      </trkpt>
      <trkpt lat="2.783461" lon="-75.07436">
        <ele>1754.7</ele>
        <time>2021-08-21T17:57:29Z</time>
      </trkpt>
      <trkpt lat="2.783652" lon="-75.074425">
        <ele>1752.0</ele>
        <time>2021-08-21T18:00:50Z</time>
      </trkpt>
      <trkpt lat="2.783665" lon="-75.074425">
        <ele>1751.8</ele>
        <time>2021-08-21T18:00:51Z</time>
      </trkpt>
      <trkpt lat="2.783692" lon="-75.074425">
        <ele>1751.4</ele>
        <time>2021-08-21T18:00:52Z</time>
      </trkpt>
      <trkpt lat="2.783728" lon="-75.074425">
        <ele>1750.9</ele>
        <time>2021-08-21T18:00:53Z</time>
      </trkpt>
      <trkpt lat="2.78377" lon="-75.07443">
        <ele>1750.2</ele>
        <time>2021-08-21T18:00:54Z</time>
      </trkpt>
      <trkpt lat="2.783813" lon="-75.07443">
        <ele>1749.5</ele>
        <time>2021-08-21T18:00:55Z</time>
      </trkpt>
      <trkpt lat="2.783856" lon="-75.07444">
        <ele>1748.8</ele>
        <time>2021-08-21T18:00:56Z</time>
      </trkpt>
      <trkpt lat="2.783902" lon="-75.07445">
        <ele>1748.0</ele>
        <time>2021-08-21T18:00:57Z</time>
      </trkpt>
      <trkpt lat="2.783948" lon="-75.07445">
        <ele>1747.3</ele>
        <time>2021-08-21T18:00:58Z</time>
      </trkpt>
      <trkpt lat="2.783995" lon="-75.07445">
        <ele>1746.7</ele>
        <time>2021-08-21T18:00:59Z</time>
      </trkpt>
      <trkpt lat="2.784044" lon="-75.074455">
        <ele>1746.1</ele>
        <time>2021-08-21T18:01:00Z</time>
      </trkpt>
      <trkpt lat="2.784092" lon="-75.07446">
        <ele>1745.4</ele>
        <time>2021-08-21T18:01:01Z</time>
      </trkpt>
      <trkpt lat="2.784138" lon="-75.07448">
        <ele>1744.8</ele>
        <time>2021-08-21T18:01:02Z</time>
      </trkpt>
      <trkpt lat="2.784183" lon="-75.0745">
        <ele>1744.2</ele>
        <time>2021-08-21T18:01:03Z</time>
      </trkpt>
      <trkpt lat="2.784226" lon="-75.07452">
        <ele>1743.6</ele>
        <time>2021-08-21T18:01:04Z</time>
      </trkpt>
      <trkpt lat="2.784264" lon="-75.07455">
        <ele>1743.0</ele>
        <time>2021-08-21T18:01:05Z</time>
      </trkpt>
      <trkpt lat="2.784301" lon="-75.07457">
        <ele>1742.4</ele>
        <time>2021-08-21T18:01:06Z</time>
      </trkpt>
      <trkpt lat="2.784338" lon="-75.0746">
        <ele>1741.8</ele>
        <time>2021-08-21T18:01:07Z</time>
      </trkpt>
      <trkpt lat="2.784375" lon="-75.07463">
        <ele>1741.2</ele>
        <time>2021-08-21T18:01:08Z</time>
      </trkpt>
      <trkpt lat="2.784413" lon="-75.07465">
        <ele>1740.7</ele>
        <time>2021-08-21T18:01:09Z</time>
      </trkpt>
      <trkpt lat="2.784453" lon="-75.07468">
        <ele>1740.1</ele>
        <time>2021-08-21T18:01:10Z</time>
      </trkpt>
      <trkpt lat="2.784492" lon="-75.07469">
        <ele>1739.6</ele>
        <time>2021-08-21T18:01:11Z</time>
      </trkpt>
      <trkpt lat="2.784533" lon="-75.0747">
        <ele>1739.0</ele>
        <time>2021-08-21T18:01:12Z</time>
      </trkpt>
      <trkpt lat="2.784575" lon="-75.0747">
        <ele>1738.5</ele>
        <time>2021-08-21T18:01:13Z</time>
      </trkpt>
      <trkpt lat="2.784617" lon="-75.07469">
        <ele>1737.9</ele>
        <time>2021-08-21T18:01:14Z</time>
      </trkpt>
      <trkpt lat="2.784658" lon="-75.074684">
        <ele>1737.4</ele>
        <time>2021-08-21T18:01:15Z</time>
      </trkpt>
      <trkpt lat="2.7847" lon="-75.07467">
        <ele>1736.8</ele>
        <time>2021-08-21T18:01:16Z</time>
      </trkpt>
      <trkpt lat="2.784739" lon="-75.074646">
        <ele>1736.2</ele>
        <time>2021-08-21T18:01:17Z</time>
      </trkpt>
      <trkpt lat="2.784775" lon="-75.074615">
        <ele>1735.7</ele>
        <time>2021-08-21T18:01:18Z</time>
      </trkpt>
      <trkpt lat="2.784808" lon="-75.074585">
        <ele>1735.1</ele>
        <time>2021-08-21T18:01:19Z</time>
      </trkpt>
      <trkpt lat="2.784836" lon="-75.07455">
        <ele>1734.6</ele>
        <time>2021-08-21T18:01:20Z</time>
      </trkpt>
      <trkpt lat="2.784864" lon="-75.0745">
        <ele>1734.2</ele>
        <time>2021-08-21T18:01:21Z</time>
      </trkpt>
      <trkpt lat="2.784893" lon="-75.07445">
        <ele>1733.7</ele>
        <time>2021-08-21T18:01:22Z</time>
      </trkpt>
      <trkpt lat="2.784923" lon="-75.074394">
        <ele>1733.3</ele>
        <time>2021-08-21T18:01:22Z</time>
      </trkpt>
      <trkpt lat="2.784955" lon="-75.07433">
        <ele>1732.9</ele>
        <time>2021-08-21T18:01:23Z</time>
      </trkpt>
      <trkpt lat="2.784986" lon="-75.07427">
        <ele>1732.4</ele>
        <time>2021-08-21T18:01:24Z</time>
      </trkpt>
      <trkpt lat="2.785018" lon="-75.07421">
        <ele>1731.9</ele>
        <time>2021-08-21T18:01:25Z</time>
      </trkpt>
      <trkpt lat="2.785049" lon="-75.07414">
        <ele>1731.4</ele>
        <time>2021-08-21T18:01:26Z</time>
      </trkpt>
      <trkpt lat="2.78508" lon="-75.07408">
        <ele>1730.9</ele>
        <time>2021-08-21T18:01:27Z</time>
      </trkpt>
      <trkpt lat="2.78511" lon="-75.07402">
        <ele>1730.4</ele>
        <time>2021-08-21T18:01:28Z</time>
      </trkpt>
      <trkpt lat="2.785145" lon="-75.07395">
        <ele>1729.9</ele>
        <time>2021-08-21T18:01:29Z</time>
      </trkpt>
      <trkpt lat="2.785184" lon="-75.07389">
        <ele>1729.5</ele>
        <time>2021-08-21T18:01:30Z</time>
      </trkpt>
      <trkpt lat="2.785228" lon="-75.07384">
        <ele>1729.0</ele>
        <time>2021-08-21T18:01:31Z</time>
      </trkpt>
      <trkpt lat="2.785276" lon="-75.073784">
        <ele>1728.5</ele>
        <time>2021-08-21T18:01:32Z</time>
      </trkpt>
      <trkpt lat="2.785323" lon="-75.073746">
        <ele>1728.0</ele>
        <time>2021-08-21T18:01:33Z</time>
      </trkpt>
      <trkpt lat="2.78538" lon="-75.07371">
        <ele>1727.5</ele>
        <time>2021-08-21T18:01:34Z</time>
      </trkpt>
      <trkpt lat="2.785438" lon="-75.07368">
        <ele>1726.8</ele>
        <time>2021-08-21T18:01:35Z</time>
      </trkpt>
      <trkpt lat="2.785498" lon="-75.07365">
        <ele>1726.1</ele>
        <time>2021-08-21T18:01:36Z</time>
      </trkpt>
      <trkpt lat="2.78556" lon="-75.07362">
        <ele>1725.3</ele>
        <time>2021-08-21T18:01:37Z</time>
      </trkpt>
      <trkpt lat="2.785622" lon="-75.07359">
        <ele>1724.4</ele>
        <time>2021-08-21T18:01:38Z</time>
      </trkpt>
      <trkpt lat="2.785684" lon="-75.07357">
        <ele>1723.4</ele>
        <time>2021-08-21T18:01:39Z</time>
      </trkpt>
      <trkpt lat="2.785746" lon="-75.07355">
        <ele>1722.5</ele>
        <time>2021-08-21T18:01:40Z</time>
      </trkpt>
      <trkpt lat="2.785807" lon="-75.07353">
        <ele>1721.7</ele>
        <time>2021-08-21T18:01:41Z</time>
      </trkpt>
      <trkpt lat="2.785868" lon="-75.07352">
        <ele>1720.9</ele>
        <time>2021-08-21T18:01:42Z</time>
      </trkpt>
      <trkpt lat="2.785927" lon="-75.07351">
        <ele>1720.2</ele>
        <time>2021-08-21T18:01:43Z</time>
      </trkpt>
      <trkpt lat="2.785984" lon="-75.0735">
        <ele>1719.5</ele>
        <time>2021-08-21T18:01:44Z</time>
      </trkpt>
      <trkpt lat="2.786041" lon="-75.073494">
        <ele>1718.7</ele>
        <time>2021-08-21T18:01:45Z</time>
      </trkpt>
      <trkpt lat="2.786096" lon="-75.07349">
        <ele>1718.1</ele>
        <time>2021-08-21T18:01:46Z</time>
      </trkpt>
      <trkpt lat="2.78615" lon="-75.07347">
        <ele>1717.5</ele>
        <time>2021-08-21T18:01:47Z</time>
      </trkpt>
      <trkpt lat="2.786201" lon="-75.07346">
        <ele>1716.9</ele>
        <time>2021-08-21T18:01:48Z</time>
      </trkpt>
      <trkpt lat="2.786252" lon="-75.07345">
        <ele>1716.4</ele>
        <time>2021-08-21T18:01:49Z</time>
      </trkpt>
      <trkpt lat="2.786301" lon="-75.07344">
        <ele>1715.9</ele>
        <time>2021-08-21T18:01:50Z</time>
      </trkpt>
      <trkpt lat="2.786351" lon="-75.073425">
        <ele>1715.5</ele>
        <time>2021-08-21T18:01:51Z</time>
      </trkpt>
      <trkpt lat="2.7864" lon="-75.07341">
        <ele>1715.0</ele>
        <time>2021-08-21T18:01:52Z</time>
      </trkpt>
      <trkpt lat="2.786448" lon="-75.073395">
        <ele>1714.6</ele>
        <time>2021-08-21T18:01:53Z</time>
      </trkpt>
      <trkpt lat="2.786498" lon="-75.07338">
        <ele>1714.2</ele>
        <time>2021-08-21T18:01:54Z</time>
      </trkpt>
      <trkpt lat="2.786549" lon="-75.073364">
        <ele>1713.8</ele>
        <time>2021-08-21T18:01:55Z</time>
      </trkpt>
      <trkpt lat="2.7866" lon="-75.07334">
        <ele>1713.4</ele>
        <time>2021-08-21T18:01:56Z</time>
      </trkpt>
      <trkpt lat="2.786649" lon="-75.07332">
        <ele>1712.9</ele>
        <time>2021-08-21T18:01:57Z</time>
      </trkpt>
      <trkpt lat="2.786695" lon="-75.073296">
        <ele>1712.5</ele>
        <time>2021-08-21T18:01:58Z</time>
      </trkpt>
      <trkpt lat="2.786736" lon="-75.073265">
        <ele>1712.1</ele>
        <time>2021-08-21T18:01:59Z</time>
      </trkpt>
      <trkpt lat="2.786771" lon="-75.07323">
        <ele>1711.7</ele>
        <time>2021-08-21T18:02:00Z</time>
      </trkpt>
      <trkpt lat="2.786799" lon="-75.07319">
        <ele>1711.3</ele>
        <time>2021-08-21T18:02:01Z</time>
      </trkpt>
      <trkpt lat="2.786823" lon="-75.07315">
        <ele>1710.9</ele>
        <time>2021-08-21T18:02:02Z</time>
      </trkpt>
      <trkpt lat="2.786847" lon="-75.07311">
        <ele>1710.4</ele>
        <time>2021-08-21T18:02:03Z</time>
      </trkpt>
      <trkpt lat="2.786867" lon="-75.073074">
        <ele>1710.0</ele>
        <time>2021-08-21T18:02:04Z</time>
      </trkpt>
      <trkpt lat="2.786891" lon="-75.07303">
        <ele>1709.6</ele>
        <time>2021-08-21T18:02:05Z</time>
      </trkpt>
      <trkpt lat="2.786916" lon="-75.07298">
        <ele>1709.2</ele>
        <time>2021-08-21T18:02:06Z</time>
      </trkpt>
      <trkpt lat="2.786942" lon="-75.072945">
        <ele>1708.8</ele>
        <time>2021-08-21T18:02:07Z</time>
      </trkpt>
      <trkpt lat="2.786974" lon="-75.07291">
        <ele>1708.4</ele>
        <time>2021-08-21T18:02:08Z</time>
      </trkpt>
      <trkpt lat="2.787009" lon="-75.07287">
        <ele>1707.9</ele>
        <time>2021-08-21T18:02:09Z</time>
      </trkpt>
      <trkpt lat="2.787048" lon="-75.07283">
        <ele>1707.2</ele>
        <time>2021-08-21T18:02:10Z</time>
      </trkpt>
      <trkpt lat="2.787091" lon="-75.0728">
        <ele>1706.4</ele>
        <time>2021-08-21T18:02:11Z</time>
      </trkpt>
      <trkpt lat="2.787137" lon="-75.07278">
        <ele>1705.6</ele>
        <time>2021-08-21T18:02:12Z</time>
      </trkpt>
      <trkpt lat="2.787186" lon="-75.07275">
        <ele>1704.8</ele>
        <time>2021-08-21T18:02:13Z</time>
      </trkpt>
      <trkpt lat="2.787235" lon="-75.072716">
        <ele>1704.0</ele>
        <time>2021-08-21T18:02:14Z</time>
      </trkpt>
      <trkpt lat="2.787284" lon="-75.07269">
        <ele>1703.3</ele>
        <time>2021-08-21T18:02:15Z</time>
      </trkpt>
      <trkpt lat="2.787329" lon="-75.07266">
        <ele>1702.6</ele>
        <time>2021-08-21T18:02:16Z</time>
      </trkpt>
      <trkpt lat="2.787377" lon="-75.07264">
        <ele>1701.8</ele>
        <time>2021-08-21T18:02:17Z</time>
      </trkpt>
      <trkpt lat="2.787432" lon="-75.07262">
        <ele>1701.0</ele>
        <time>2021-08-21T18:02:18Z</time>
      </trkpt>
      <trkpt lat="2.787486" lon="-75.07259">
        <ele>1700.4</ele>
        <time>2021-08-21T18:02:19Z</time>
      </trkpt>
      <trkpt lat="2.787538" lon="-75.07256">
        <ele>1699.7</ele>
        <time>2021-08-21T18:02:20Z</time>
      </trkpt>
      <trkpt lat="2.787585" lon="-75.07254">
        <ele>1699.1</ele>
        <time>2021-08-21T18:02:21Z</time>
      </trkpt>
      <trkpt lat="2.787631" lon="-75.07252">
        <ele>1698.5</ele>
        <time>2021-08-21T18:02:22Z</time>
      </trkpt>
      <trkpt lat="2.78768" lon="-75.072495">
        <ele>1697.9</ele>
        <time>2021-08-21T18:02:23Z</time>
      </trkpt>
      <trkpt lat="2.787723" lon="-75.07247">
        <ele>1697.4</ele>
        <time>2021-08-21T18:02:24Z</time>
      </trkpt>
      <trkpt lat="2.787768" lon="-75.07245">
        <ele>1696.9</ele>
        <time>2021-08-21T18:02:25Z</time>
      </trkpt>
      <trkpt lat="2.787808" lon="-75.07243">
        <ele>1696.5</ele>
        <time>2021-08-21T18:02:26Z</time>
      </trkpt>
      <trkpt lat="2.787848" lon="-75.07241">
        <ele>1696.0</ele>
        <time>2021-08-21T18:02:27Z</time>
      </trkpt>
      <trkpt lat="2.78789" lon="-75.07239">
        <ele>1695.6</ele>
        <time>2021-08-21T18:02:28Z</time>
      </trkpt>
      <trkpt lat="2.787933" lon="-75.07237">
        <ele>1695.1</ele>
        <time>2021-08-21T18:02:29Z</time>
      </trkpt>
      <trkpt lat="2.787978" lon="-75.07235">
        <ele>1694.6</ele>
        <time>2021-08-21T18:02:30Z</time>
      </trkpt>
      <trkpt lat="2.788022" lon="-75.072334">
        <ele>1694.2</ele>
        <time>2021-08-21T18:02:31Z</time>
      </trkpt>
      <trkpt lat="2.788069" lon="-75.07232">
        <ele>1693.7</ele>
        <time>2021-08-21T18:02:32Z</time>
      </trkpt>
      <trkpt lat="2.78812" lon="-75.0723">
        <ele>1693.1</ele>
        <time>2021-08-21T18:02:33Z</time>
      </trkpt>
      <trkpt lat="2.788169" lon="-75.07229">
        <ele>1692.5</ele>
        <time>2021-08-21T18:02:34Z</time>
      </trkpt>
      <trkpt lat="2.788216" lon="-75.072266">
        <ele>1691.8</ele>
        <time>2021-08-21T18:02:35Z</time>
      </trkpt>
      <trkpt lat="2.78826" lon="-75.07225">
        <ele>1691.2</ele>
        <time>2021-08-21T18:02:36Z</time>
      </trkpt>
      <trkpt lat="2.788308" lon="-75.072235">
        <ele>1690.5</ele>
        <time>2021-08-21T18:02:37Z</time>
      </trkpt>
      <trkpt lat="2.788358" lon="-75.07221">
        <ele>1689.8</ele>
        <time>2021-08-21T18:02:38Z</time>
      </trkpt>
      <trkpt lat="2.788407" lon="-75.07219">
        <ele>1689.2</ele>
        <time>2021-08-21T18:02:39Z</time>
      </trkpt>
      <trkpt lat="2.788453" lon="-75.072174">
        <ele>1688.6</ele>
        <time>2021-08-21T18:02:40Z</time>
      </trkpt>
      <trkpt lat="2.7885" lon="-75.07216">
        <ele>1688.0</ele>
        <time>2021-08-21T18:02:41Z</time>
      </trkpt>
      <trkpt lat="2.788546" lon="-75.07214">
        <ele>1687.4</ele>
        <time>2021-08-21T18:02:42Z</time>
      </trkpt>
      <trkpt lat="2.788591" lon="-75.07212">
        <ele>1686.8</ele>
        <time>2021-08-21T18:02:43Z</time>
      </trkpt>
      <trkpt lat="2.788636" lon="-75.072105">
        <ele>1686.1</ele>
        <time>2021-08-21T18:02:44Z</time>
      </trkpt>
      <trkpt lat="2.788683" lon="-75.07209">
        <ele>1685.5</ele>
        <time>2021-08-21T18:02:45Z</time>
      </trkpt>
      <trkpt lat="2.788728" lon="-75.072075">
        <ele>1685.0</ele>
        <time>2021-08-21T18:02:46Z</time>
      </trkpt>
      <trkpt lat="2.788768" lon="-75.07206">
        <ele>1684.6</ele>
        <time>2021-08-21T18:02:47Z</time>
      </trkpt>
      <trkpt lat="2.788804" lon="-75.072044">
        <ele>1684.2</ele>
        <time>2021-08-21T18:02:48Z</time>
      </trkpt>
      <trkpt lat="2.788844" lon="-75.07202">
        <ele>1683.8</ele>
        <time>2021-08-21T18:02:49Z</time>
      </trkpt>
      <trkpt lat="2.78888" lon="-75.07201">
        <ele>1683.4</ele>
        <time>2021-08-21T18:02:50Z</time>
      </trkpt>
      <trkpt lat="2.78892" lon="-75.07198">
        <ele>1683.0</ele>
        <time>2021-08-21T18:02:51Z</time>
      </trkpt>
      <trkpt lat="2.788957" lon="-75.07197">
        <ele>1682.6</ele>
        <time>2021-08-21T18:02:52Z</time>
      </trkpt>
      <trkpt lat="2.788995" lon="-75.07195">
        <ele>1682.2</ele>
        <time>2021-08-21T18:02:53Z</time>
      </trkpt>
      <trkpt lat="2.789039" lon="-75.07194">
        <ele>1681.7</ele>
        <time>2021-08-21T18:02:54Z</time>
      </trkpt>
      <trkpt lat="2.789084" lon="-75.07192">
        <ele>1681.3</ele>
        <time>2021-08-21T18:02:55Z</time>
      </trkpt>
      <trkpt lat="2.789132" lon="-75.071915">
        <ele>1680.8</ele>
        <time>2021-08-21T18:02:56Z</time>
      </trkpt>
      <trkpt lat="2.789182" lon="-75.0719">
        <ele>1680.3</ele>
        <time>2021-08-21T18:02:57Z</time>
      </trkpt>
      <trkpt lat="2.789233" lon="-75.07189">
        <ele>1679.8</ele>
        <time>2021-08-21T18:02:58Z</time>
      </trkpt>
      <trkpt lat="2.789286" lon="-75.07188">
        <ele>1679.3</ele>
        <time>2021-08-21T18:02:59Z</time>
      </trkpt>
      <trkpt lat="2.789344" lon="-75.07186">
        <ele>1678.7</ele>
        <time>2021-08-21T18:03:00Z</time>
      </trkpt>
      <trkpt lat="2.7894" lon="-75.07185">
        <ele>1678.2</ele>
        <time>2021-08-21T18:03:01Z</time>
      </trkpt>
      <trkpt lat="2.789455" lon="-75.071846">
        <ele>1677.7</ele>
        <time>2021-08-21T18:03:02Z</time>
      </trkpt>
      <trkpt lat="2.789506" lon="-75.07184">
        <ele>1677.3</ele>
        <time>2021-08-21T18:03:03Z</time>
      </trkpt>
      <trkpt lat="2.789556" lon="-75.07183">
        <ele>1676.9</ele>
        <time>2021-08-21T18:03:04Z</time>
      </trkpt>
      <trkpt lat="2.789609" lon="-75.07182">
        <ele>1676.4</ele>
        <time>2021-08-21T18:03:05Z</time>
      </trkpt>
      <trkpt lat="2.789661" lon="-75.071815">
        <ele>1676.0</ele>
        <time>2021-08-21T18:03:06Z</time>
      </trkpt>
      <trkpt lat="2.789711" lon="-75.07181">
        <ele>1675.5</ele>
        <time>2021-08-21T18:03:07Z</time>
      </trkpt>
      <trkpt lat="2.78976" lon="-75.07181">
        <ele>1675.1</ele>
        <time>2021-08-21T18:03:08Z</time>
      </trkpt>
      <trkpt lat="2.789811" lon="-75.0718">
        <ele>1674.7</ele>
        <time>2021-08-21T18:03:09Z</time>
      </trkpt>
      <trkpt lat="2.789858" lon="-75.0718">
        <ele>1674.4</ele>
        <time>2021-08-21T18:03:10Z</time>
      </trkpt>
      <trkpt lat="2.789905" lon="-75.0718">
        <ele>1674.0</ele>
        <time>2021-08-21T18:03:11Z</time>
      </trkpt>
      <trkpt lat="2.789951" lon="-75.07181">
        <ele>1673.7</ele>
        <time>2021-08-21T18:03:12Z</time>
      </trkpt>
      <trkpt lat="2.789998" lon="-75.071815">
        <ele>1673.4</ele>
        <time>2021-08-21T18:03:13Z</time>
      </trkpt>
      <trkpt lat="2.790045" lon="-75.07183">
        <ele>1673.0</ele>
        <time>2021-08-21T18:03:14Z</time>
      </trkpt>
      <trkpt lat="2.790092" lon="-75.07184">
        <ele>1672.5</ele>
        <time>2021-08-21T18:03:15Z</time>
      </trkpt>
      <trkpt lat="2.790138" lon="-75.071846">
        <ele>1672.1</ele>
        <time>2021-08-21T18:03:16Z</time>
      </trkpt>
      <trkpt lat="2.790185" lon="-75.07185">
        <ele>1671.6</ele>
        <time>2021-08-21T18:03:17Z</time>
      </trkpt>
      <trkpt lat="2.790232" lon="-75.07186">
        <ele>1671.0</ele>
        <time>2021-08-21T18:03:18Z</time>
      </trkpt>
      <trkpt lat="2.790279" lon="-75.07186">
        <ele>1670.5</ele>
        <time>2021-08-21T18:03:19Z</time>
      </trkpt>
      <trkpt lat="2.790328" lon="-75.07186">
        <ele>1669.9</ele>
        <time>2021-08-21T18:03:20Z</time>
      </trkpt>
      <trkpt lat="2.790377" lon="-75.07186">
        <ele>1669.3</ele>
        <time>2021-08-21T18:03:21Z</time>
      </trkpt>
      <trkpt lat="2.790429" lon="-75.07185">
        <ele>1668.6</ele>
        <time>2021-08-21T18:03:22Z</time>
      </trkpt>
      <trkpt lat="2.790482" lon="-75.071846">
        <ele>1668.0</ele>
        <time>2021-08-21T18:03:23Z</time>
      </trkpt>
      <trkpt lat="2.79054" lon="-75.07183">
        <ele>1667.3</ele>
        <time>2021-08-21T18:03:24Z</time>
      </trkpt>
      <trkpt lat="2.7906" lon="-75.071815">
        <ele>1666.7</ele>
        <time>2021-08-21T18:03:25Z</time>
      </trkpt>
      <trkpt lat="2.790656" lon="-75.0718">
        <ele>1666.1</ele>
        <time>2021-08-21T18:03:26Z</time>
      </trkpt>
      <trkpt lat="2.790715" lon="-75.071785">
        <ele>1665.6</ele>
        <time>2021-08-21T18:03:27Z</time>
      </trkpt>
      <trkpt lat="2.790771" lon="-75.07177">
        <ele>1665.2</ele>
        <time>2021-08-21T18:03:28Z</time>
      </trkpt>
      <trkpt lat="2.790833" lon="-75.071754">
        <ele>1664.8</ele>
        <time>2021-08-21T18:03:29Z</time>
      </trkpt>
      <trkpt lat="2.790893" lon="-75.07174">
        <ele>1664.5</ele>
        <time>2021-08-21T18:03:30Z</time>
      </trkpt>
      <trkpt lat="2.790954" lon="-75.07174">
        <ele>1664.3</ele>
        <time>2021-08-21T18:03:31Z</time>
      </trkpt>
      <trkpt lat="2.791007" lon="-75.07174">
        <ele>1664.1</ele>
        <time>2021-08-21T18:03:32Z</time>
      </trkpt>
      <trkpt lat="2.791055" lon="-75.07174">
        <ele>1664.0</ele>
        <time>2021-08-21T18:03:33Z</time>
      </trkpt>
      <trkpt lat="2.791097" lon="-75.071754">
        <ele>1663.9</ele>
        <time>2021-08-21T18:03:34Z</time>
      </trkpt>
      <trkpt lat="2.791136" lon="-75.07177">
        <ele>1663.8</ele>
        <time>2021-08-21T18:03:35Z</time>
      </trkpt>
      <trkpt lat="2.791172" lon="-75.071785">
        <ele>1663.7</ele>
        <time>2021-08-21T18:03:36Z</time>
      </trkpt>
      <trkpt lat="2.791203" lon="-75.0718">
        <ele>1663.6</ele>
        <time>2021-08-21T18:03:37Z</time>
      </trkpt>
      <trkpt lat="2.791233" lon="-75.07182">
        <ele>1663.5</ele>
        <time>2021-08-21T18:03:38Z</time>
      </trkpt>
      <trkpt lat="2.791263" lon="-75.071846">
        <ele>1663.4</ele>
        <time>2021-08-21T18:03:39Z</time>
      </trkpt>
      <trkpt lat="2.791289" lon="-75.07186">
        <ele>1663.3</ele>
        <time>2021-08-21T18:03:40Z</time>
      </trkpt>
      <trkpt lat="2.791312" lon="-75.071884">
        <ele>1663.2</ele>
        <time>2021-08-21T18:03:41Z</time>
      </trkpt>
      <trkpt lat="2.791333" lon="-75.07191">
        <ele>1663.0</ele>
        <time>2021-08-21T18:03:42Z</time>
      </trkpt>
      <trkpt lat="2.791351" lon="-75.07193">
        <ele>1662.9</ele>
        <time>2021-08-21T18:03:43Z</time>
      </trkpt>
      <trkpt lat="2.791368" lon="-75.07195">
        <ele>1662.7</ele>
        <time>2021-08-21T18:03:44Z</time>
      </trkpt>
      <trkpt lat="2.791387" lon="-75.071976">
        <ele>1662.5</ele>
        <time>2021-08-21T18:03:45Z</time>
      </trkpt>
      <trkpt lat="2.791407" lon="-75.07199">
        <ele>1662.3</ele>
        <time>2021-08-21T18:03:46Z</time>
      </trkpt>
      <trkpt lat="2.791435" lon="-75.072014">
        <ele>1662.0</ele>
        <time>2021-08-21T18:03:47Z</time>
      </trkpt>
      <trkpt lat="2.791466" lon="-75.07203">
        <ele>1661.7</ele>
        <time>2021-08-21T18:03:48Z</time>
      </trkpt>
      <trkpt lat="2.791498" lon="-75.072044">
        <ele>1661.4</ele>
        <time>2021-08-21T18:03:49Z</time>
      </trkpt>
      <trkpt lat="2.791534" lon="-75.07205">
        <ele>1661.1</ele>
        <time>2021-08-21T18:03:50Z</time>
      </trkpt>
      <trkpt lat="2.791572" lon="-75.07207">
        <ele>1660.8</ele>
        <time>2021-08-21T18:03:51Z</time>
      </trkpt>
      <trkpt lat="2.791613" lon="-75.072075">
        <ele>1660.5</ele>
        <time>2021-08-21T18:03:52Z</time>
      </trkpt>
      <trkpt lat="2.791655" lon="-75.07209">
        <ele>1660.1</ele>
        <time>2021-08-21T18:03:53Z</time>
      </trkpt>
      <trkpt lat="2.791692" lon="-75.072105">
        <ele>1659.8</ele>
        <time>2021-08-21T18:03:54Z</time>
      </trkpt>
      <trkpt lat="2.791729" lon="-75.07212">
        <ele>1659.5</ele>
        <time>2021-08-21T18:03:55Z</time>
      </trkpt>
      <trkpt lat="2.791767" lon="-75.07214">
        <ele>1659.1</ele>
        <time>2021-08-21T18:03:56Z</time>
      </trkpt>
      <trkpt lat="2.7918" lon="-75.072174">
        <ele>1658.7</ele>
        <time>2021-08-21T18:03:57Z</time>
      </trkpt>
      <trkpt lat="2.791829" lon="-75.072205">
        <ele>1658.4</ele>
        <time>2021-08-21T18:03:58Z</time>
      </trkpt>
      <trkpt lat="2.791855" lon="-75.07225">
        <ele>1658.0</ele>
        <time>2021-08-21T18:03:59Z</time>
      </trkpt>
      <trkpt lat="2.791878" lon="-75.07229">
        <ele>1657.5</ele>
        <time>2021-08-21T18:04:00Z</time>
      </trkpt>
      <trkpt lat="2.7919" lon="-75.072334">
        <ele>1657.1</ele>
        <time>2021-08-21T18:04:01Z</time>
      </trkpt>
      <trkpt lat="2.791923" lon="-75.07239">
        <ele>1656.6</ele>
        <time>2021-08-21T18:04:02Z</time>
      </trkpt>
      <trkpt lat="2.791946" lon="-75.07243">
        <ele>1656.1</ele>
        <time>2021-08-21T18:04:03Z</time>
      </trkpt>
      <trkpt lat="2.791967" lon="-75.07247">
        <ele>1655.6</ele>
        <time>2021-08-21T18:04:04Z</time>
      </trkpt>
      <trkpt lat="2.791988" lon="-75.07252">
        <ele>1655.0</ele>
        <time>2021-08-21T18:04:05Z</time>
      </trkpt>
      <trkpt lat="2.792006" lon="-75.07256">
        <ele>1654.5</ele>
        <time>2021-08-21T18:04:06Z</time>
      </trkpt>
      <trkpt lat="2.792027" lon="-75.07262">
        <ele>1653.9</ele>
        <time>2021-08-21T18:04:07Z</time>
      </trkpt>
      <trkpt lat="2.792052" lon="-75.07266">
        <ele>1653.3</ele>
        <time>2021-08-21T18:04:08Z</time>
      </trkpt>
      <trkpt lat="2.79208" lon="-75.072716">
        <ele>1652.7</ele>
        <time>2021-08-21T18:04:09Z</time>
      </trkpt>
      <trkpt lat="2.792111" lon="-75.07277">
        <ele>1652.1</ele>
        <time>2021-08-21T18:04:10Z</time>
      </trkpt>
      <trkpt lat="2.792142" lon="-75.072815">
        <ele>1651.5</ele>
        <time>2021-08-21T18:04:11Z</time>
      </trkpt>
      <trkpt lat="2.792182" lon="-75.07287">
        <ele>1650.9</ele>
        <time>2021-08-21T18:04:12Z</time>
      </trkpt>
      <trkpt lat="2.792224" lon="-75.07291">
        <ele>1650.4</ele>
        <time>2021-08-21T18:04:13Z</time>
      </trkpt>
      <trkpt lat="2.792269" lon="-75.07294">
        <ele>1649.8</ele>
        <time>2021-08-21T18:04:14Z</time>
      </trkpt>
      <trkpt lat="2.792317" lon="-75.07296">
        <ele>1649.4</ele>
        <time>2021-08-21T18:04:15Z</time>
      </trkpt>
      <trkpt lat="2.79237" lon="-75.072975">
        <ele>1648.9</ele>
        <time>2021-08-21T18:04:16Z</time>
      </trkpt>
      <trkpt lat="2.792421" lon="-75.07299">
        <ele>1648.4</ele>
        <time>2021-08-21T18:04:17Z</time>
      </trkpt>
      <trkpt lat="2.792472" lon="-75.073006">
        <ele>1648.0</ele>
        <time>2021-08-21T18:04:18Z</time>
      </trkpt>
      <trkpt lat="2.792524" lon="-75.07301">
        <ele>1647.6</ele>
        <time>2021-08-21T18:04:19Z</time>
      </trkpt>
      <trkpt lat="2.792575" lon="-75.07302">
        <ele>1647.3</ele>
        <time>2021-08-21T18:04:20Z</time>
      </trkpt>
      <trkpt lat="2.792627" lon="-75.07304">
        <ele>1647.0</ele>
        <time>2021-08-21T18:04:21Z</time>
      </trkpt>
      <trkpt lat="2.792674" lon="-75.07305">
        <ele>1646.7</ele>
        <time>2021-08-21T18:04:22Z</time>
      </trkpt>
      <trkpt lat="2.792717" lon="-75.07307">
        <ele>1646.6</ele>
        <time>2021-08-21T18:04:23Z</time>
      </trkpt>
      <trkpt lat="2.79276" lon="-75.07309">
        <ele>1646.4</ele>
        <time>2021-08-21T18:04:24Z</time>
      </trkpt>
      <trkpt lat="2.792802" lon="-75.07311">
        <ele>1646.3</ele>
        <time>2021-08-21T18:04:25Z</time>
      </trkpt>
      <trkpt lat="2.792842" lon="-75.073135">
        <ele>1646.2</ele>
        <time>2021-08-21T18:04:26Z</time>
      </trkpt>
      <trkpt lat="2.792883" lon="-75.07316">
        <ele>1646.1</ele>
        <time>2021-08-21T18:04:27Z</time>
      </trkpt>
      <trkpt lat="2.79292" lon="-75.07319">
        <ele>1646.1</ele>
        <time>2021-08-21T18:04:28Z</time>
      </trkpt>
      <trkpt lat="2.792958" lon="-75.07321">
        <ele>1646.0</ele>
        <time>2021-08-21T18:04:29Z</time>
      </trkpt>
      <trkpt lat="2.792997" lon="-75.07324">
        <ele>1645.9</ele>
        <time>2021-08-21T18:04:30Z</time>
      </trkpt>
      <trkpt lat="2.793034" lon="-75.07327">
        <ele>1645.8</ele>
        <time>2021-08-21T18:04:31Z</time>
      </trkpt>
      <trkpt lat="2.793069" lon="-75.0733">
        <ele>1645.7</ele>
        <time>2021-08-21T18:04:32Z</time>
      </trkpt>
      <trkpt lat="2.793102" lon="-75.07333">
        <ele>1645.7</ele>
        <time>2021-08-21T18:04:33Z</time>
      </trkpt>
      <trkpt lat="2.79313" lon="-75.07337">
        <ele>1645.6</ele>
        <time>2021-08-21T18:04:34Z</time>
      </trkpt>
      <trkpt lat="2.793157" lon="-75.07341">
        <ele>1645.5</ele>
        <time>2021-08-21T18:04:35Z</time>
      </trkpt>
      <trkpt lat="2.793182" lon="-75.07345">
        <ele>1645.5</ele>
        <time>2021-08-21T18:04:36Z</time>
      </trkpt>
      <trkpt lat="2.793205" lon="-75.07349">
        <ele>1645.5</ele>
        <time>2021-08-21T18:04:37Z</time>
      </trkpt>
      <trkpt lat="2.793226" lon="-75.073524">
        <ele>1645.5</ele>
        <time>2021-08-21T18:04:38Z</time>
      </trkpt>
      <trkpt lat="2.793246" lon="-75.07356">
        <ele>1645.6</ele>
        <time>2021-08-21T18:04:39Z</time>
      </trkpt>
      <trkpt lat="2.793265" lon="-75.0736">
        <ele>1645.6</ele>
        <time>2021-08-21T18:04:40Z</time>
      </trkpt>
      <trkpt lat="2.793284" lon="-75.07364">
        <ele>1645.7</ele>
        <time>2021-08-21T18:04:41Z</time>
      </trkpt>
      <trkpt lat="2.793304" lon="-75.07367">
        <ele>1645.8</ele>
        <time>2021-08-21T18:04:42Z</time>
      </trkpt>
      <trkpt lat="2.793323" lon="-75.07371">
        <ele>1645.9</ele>
        <time>2021-08-21T18:04:43Z</time>
      </trkpt>
      <trkpt lat="2.793343" lon="-75.07373">
        <ele>1645.9</ele>
        <time>2021-08-21T18:04:44Z</time>
      </trkpt>
      <trkpt lat="2.793362" lon="-75.07376">
        <ele>1646.0</ele>
        <time>2021-08-21T18:04:45Z</time>
      </trkpt>
      <trkpt lat="2.79338" lon="-75.07379">
        <ele>1646.2</ele>
        <time>2021-08-21T18:04:46Z</time>
      </trkpt>
      <trkpt lat="2.793396" lon="-75.073814">
        <ele>1646.3</ele>
        <time>2021-08-21T18:04:47Z</time>
      </trkpt>
      <trkpt lat="2.793413" lon="-75.07384">
        <ele>1646.4</ele>
        <time>2021-08-21T18:04:48Z</time>
      </trkpt>
      <trkpt lat="2.79343" lon="-75.07387">
        <ele>1646.5</ele>
        <time>2021-08-21T18:04:49Z</time>
      </trkpt>
      <trkpt lat="2.793445" lon="-75.07389">
        <ele>1646.5</ele>
        <time>2021-08-21T18:04:50Z</time>
      </trkpt>
      <trkpt lat="2.79346" lon="-75.07392">
        <ele>1646.6</ele>
        <time>2021-08-21T18:04:51Z</time>
      </trkpt>
      <trkpt lat="2.793474" lon="-75.073944">
        <ele>1646.7</ele>
        <time>2021-08-21T18:04:52Z</time>
      </trkpt>
      <trkpt lat="2.793485" lon="-75.073975">
        <ele>1646.7</ele>
        <time>2021-08-21T18:04:53Z</time>
      </trkpt>
      <trkpt lat="2.793495" lon="-75.074005">
        <ele>1646.7</ele>
        <time>2021-08-21T18:04:54Z</time>
      </trkpt>
      <trkpt lat="2.793505" lon="-75.07403">
        <ele>1646.7</ele>
        <time>2021-08-21T18:04:55Z</time>
      </trkpt>
      <trkpt lat="2.793515" lon="-75.07406">
        <ele>1646.7</ele>
        <time>2021-08-21T18:04:56Z</time>
      </trkpt>
      <trkpt lat="2.793525" lon="-75.07409">
        <ele>1646.7</ele>
        <time>2021-08-21T18:04:57Z</time>
      </trkpt>
      <trkpt lat="2.793533" lon="-75.07413">
        <ele>1646.6</ele>
        <time>2021-08-21T18:04:58Z</time>
      </trkpt>
      <trkpt lat="2.793537" lon="-75.07416">
        <ele>1646.6</ele>
        <time>2021-08-21T18:04:59Z</time>
      </trkpt>
      <trkpt lat="2.793538" lon="-75.074196">
        <ele>1646.5</ele>
        <time>2021-08-21T18:05:00Z</time>
      </trkpt>
      <trkpt lat="2.793539" lon="-75.074234">
        <ele>1646.4</ele>
        <time>2021-08-21T18:05:01Z</time>
      </trkpt>
      <trkpt lat="2.793539" lon="-75.07427">
        <ele>1646.3</ele>
        <time>2021-08-21T18:05:02Z</time>
      </trkpt>
      <trkpt lat="2.793539" lon="-75.07431">
        <ele>1646.2</ele>
        <time>2021-08-21T18:05:03Z</time>
      </trkpt>
      <trkpt lat="2.793537" lon="-75.074356">
        <ele>1646.0</ele>
        <time>2021-08-21T18:05:04Z</time>
      </trkpt>
      <trkpt lat="2.793535" lon="-75.074394">
        <ele>1645.8</ele>
        <time>2021-08-21T18:05:05Z</time>
      </trkpt>
      <trkpt lat="2.793536" lon="-75.07444">
        <ele>1645.7</ele>
        <time>2021-08-21T18:05:06Z</time>
      </trkpt>
      <trkpt lat="2.793542" lon="-75.07448">
        <ele>1645.5</ele>
        <time>2021-08-21T18:05:07Z</time>
      </trkpt>
      <trkpt lat="2.79355" lon="-75.07452">
        <ele>1645.3</ele>
        <time>2021-08-21T18:05:08Z</time>
      </trkpt>
      <trkpt lat="2.79356" lon="-75.07456">
        <ele>1645.2</ele>
        <time>2021-08-21T18:05:09Z</time>
      </trkpt>
      <trkpt lat="2.793569" lon="-75.0746">
        <ele>1645.0</ele>
        <time>2021-08-21T18:05:10Z</time>
      </trkpt>
      <trkpt lat="2.793577" lon="-75.07464">
        <ele>1644.8</ele>
        <time>2021-08-21T18:05:11Z</time>
      </trkpt>
      <trkpt lat="2.793587" lon="-75.074684">
        <ele>1644.7</ele>
        <time>2021-08-21T18:05:12Z</time>
      </trkpt>
      <trkpt lat="2.793597" lon="-75.07473">
        <ele>1644.5</ele>
        <time>2021-08-21T18:05:13Z</time>
      </trkpt>
      <trkpt lat="2.793607" lon="-75.074776">
        <ele>1644.3</ele>
        <time>2021-08-21T18:05:14Z</time>
      </trkpt>
      <trkpt lat="2.793621" lon="-75.074814">
        <ele>1644.1</ele>
        <time>2021-08-21T18:05:15Z</time>
      </trkpt>
      <trkpt lat="2.793635" lon="-75.07486">
        <ele>1643.9</ele>
        <time>2021-08-21T18:05:16Z</time>
      </trkpt>
      <trkpt lat="2.793649" lon="-75.074905">
        <ele>1643.7</ele>
        <time>2021-08-21T18:05:17Z</time>
      </trkpt>
      <trkpt lat="2.793666" lon="-75.07494">
        <ele>1643.4</ele>
        <time>2021-08-21T18:05:18Z</time>
      </trkpt>
      <trkpt lat="2.793685" lon="-75.07499">
        <ele>1643.1</ele>
        <time>2021-08-21T18:05:19Z</time>
      </trkpt>
      <trkpt lat="2.793707" lon="-75.075035">
        <ele>1642.7</ele>
        <time>2021-08-21T18:05:20Z</time>
      </trkpt>
      <trkpt lat="2.793729" lon="-75.07507">
        <ele>1642.4</ele>
        <time>2021-08-21T18:05:21Z</time>
      </trkpt>
      <trkpt lat="2.793752" lon="-75.07512">
        <ele>1642.0</ele>
        <time>2021-08-21T18:05:22Z</time>
      </trkpt>
      <trkpt lat="2.793773" lon="-75.075165">
        <ele>1641.6</ele>
        <time>2021-08-21T18:05:23Z</time>
      </trkpt>
      <trkpt lat="2.793791" lon="-75.07521">
        <ele>1641.3</ele>
        <time>2021-08-21T18:05:24Z</time>
      </trkpt>
      <trkpt lat="2.793807" lon="-75.07526">
        <ele>1640.9</ele>
        <time>2021-08-21T18:05:25Z</time>
      </trkpt>
      <trkpt lat="2.793822" lon="-75.0753">
        <ele>1640.5</ele>
        <time>2021-08-21T18:05:26Z</time>
      </trkpt>
      <trkpt lat="2.793835" lon="-75.07535">
        <ele>1640.1</ele>
        <time>2021-08-21T18:05:27Z</time>
      </trkpt>
      <trkpt lat="2.79385" lon="-75.07539">
        <ele>1639.7</ele>
        <time>2021-08-21T18:05:28Z</time>
      </trkpt>
      <trkpt lat="2.793867" lon="-75.07543">
        <ele>1639.3</ele>
        <time>2021-08-21T18:05:29Z</time>
      </trkpt>
      <trkpt lat="2.793888" lon="-75.07548">
        <ele>1638.9</ele>
        <time>2021-08-21T18:05:30Z</time>
      </trkpt>
      <trkpt lat="2.793911" lon="-75.075516">
        <ele>1638.5</ele>
        <time>2021-08-21T18:05:31Z</time>
      </trkpt>
      <trkpt lat="2.793938" lon="-75.07556">
        <ele>1638.0</ele>
        <time>2021-08-21T18:05:32Z</time>
      </trkpt>
      <trkpt lat="2.793967" lon="-75.0756">
        <ele>1637.6</ele>
        <time>2021-08-21T18:05:33Z</time>
      </trkpt>
      <trkpt lat="2.793997" lon="-75.07564">
        <ele>1637.1</ele>
        <time>2021-08-21T18:05:34Z</time>
      </trkpt>
      <trkpt lat="2.794028" lon="-75.075676">
        <ele>1636.7</ele>
        <time>2021-08-21T18:05:35Z</time>
      </trkpt>
      <trkpt lat="2.79406" lon="-75.075714">
        <ele>1636.3</ele>
        <time>2021-08-21T18:05:36Z</time>
      </trkpt>
      <trkpt lat="2.794093" lon="-75.07575">
        <ele>1635.8</ele>
        <time>2021-08-21T18:05:37Z</time>
      </trkpt>
      <trkpt lat="2.794127" lon="-75.07579">
        <ele>1635.4</ele>
        <time>2021-08-21T18:05:37Z</time>
      </trkpt>
      <trkpt lat="2.794161" lon="-75.07583">
        <ele>1635.1</ele>
        <time>2021-08-21T18:05:38Z</time>
      </trkpt>
      <trkpt lat="2.794198" lon="-75.07586">
        <ele>1634.8</ele>
        <time>2021-08-21T18:05:39Z</time>
      </trkpt>
      <trkpt lat="2.794236" lon="-75.0759">
        <ele>1634.5</ele>
        <time>2021-08-21T18:05:40Z</time>
      </trkpt>
      <trkpt lat="2.794276" lon="-75.07593">
        <ele>1634.2</ele>
        <time>2021-08-21T18:05:41Z</time>
      </trkpt>
      <trkpt lat="2.794318" lon="-75.07595">
        <ele>1634.0</ele>
        <time>2021-08-21T18:05:42Z</time>
      </trkpt>
      <trkpt lat="2.79436" lon="-75.07597">
        <ele>1633.8</ele>
        <time>2021-08-21T18:05:43Z</time>
      </trkpt>
      <trkpt lat="2.794401" lon="-75.07599">
        <ele>1633.7</ele>
        <time>2021-08-21T18:05:44Z</time>
      </trkpt>
      <trkpt lat="2.79444" lon="-75.076004">
        <ele>1633.5</ele>
        <time>2021-08-21T18:05:45Z</time>
      </trkpt>
      <trkpt lat="2.794479" lon="-75.07601">
        <ele>1633.3</ele>
        <time>2021-08-21T18:05:46Z</time>
      </trkpt>
      <trkpt lat="2.794517" lon="-75.07603">
        <ele>1633.1</ele>
        <time>2021-08-21T18:05:47Z</time>
      </trkpt>
      <trkpt lat="2.794554" lon="-75.07604">
        <ele>1632.8</ele>
        <time>2021-08-21T18:05:48Z</time>
      </trkpt>
      <trkpt lat="2.79459" lon="-75.07606">
        <ele>1631.6</ele>
        <time>2021-08-21T18:05:49Z</time>
      </trkpt>
      <trkpt lat="2.79462" lon="-75.07608">
        <ele>1631.2</ele>
        <time>2021-08-21T18:05:50Z</time>
      </trkpt>
      <trkpt lat="2.794646" lon="-75.0761">
        <ele>1630.8</ele>
        <time>2021-08-21T18:05:51Z</time>
      </trkpt>
      <trkpt lat="2.794668" lon="-75.076126">
        <ele>1630.5</ele>
        <time>2021-08-21T18:05:52Z</time>
      </trkpt>
      <trkpt lat="2.794686" lon="-75.07615">
        <ele>1630.2</ele>
        <time>2021-08-21T18:05:53Z</time>
      </trkpt>
      <trkpt lat="2.794704" lon="-75.07617">
        <ele>1630.0</ele>
        <time>2021-08-21T18:05:54Z</time>
      </trkpt>
      <trkpt lat="2.794722" lon="-75.076195">
        <ele>1629.7</ele>
        <time>2021-08-21T18:05:55Z</time>
      </trkpt>
      <trkpt lat="2.794739" lon="-75.07622">
        <ele>1629.5</ele>
        <time>2021-08-21T18:05:56Z</time>
      </trkpt>
      <trkpt lat="2.794755" lon="-75.07623">
        <ele>1629.3</ele>
        <time>2021-08-21T18:05:57Z</time>
      </trkpt>
      <trkpt lat="2.79477" lon="-75.076256">
        <ele>1629.1</ele>
        <time>2021-08-21T18:05:58Z</time>
      </trkpt>
      <trkpt lat="2.794785" lon="-75.07628">
        <ele>1629.0</ele>
        <time>2021-08-21T18:05:59Z</time>
      </trkpt>
      <trkpt lat="2.794799" lon="-75.0763">
        <ele>1628.8</ele>
        <time>2021-08-21T18:06:00Z</time>
      </trkpt>
      <trkpt lat="2.794814" lon="-75.076324">
        <ele>1628.6</ele>
        <time>2021-08-21T18:06:01Z</time>
      </trkpt>
      <trkpt lat="2.794829" lon="-75.076355">
        <ele>1628.5</ele>
        <time>2021-08-21T18:06:02Z</time>
      </trkpt>
      <trkpt lat="2.794845" lon="-75.07637">
        <ele>1628.3</ele>
        <time>2021-08-21T18:06:03Z</time>
      </trkpt>
      <trkpt lat="2.794863" lon="-75.07639">
        <ele>1628.2</ele>
        <time>2021-08-21T18:06:04Z</time>
      </trkpt>
      <trkpt lat="2.794882" lon="-75.07641">
        <ele>1628.1</ele>
        <time>2021-08-21T18:06:05Z</time>
      </trkpt>
      <trkpt lat="2.794903" lon="-75.07642">
        <ele>1627.9</ele>
        <time>2021-08-21T18:06:06Z</time>
      </trkpt>
      <trkpt lat="2.794926" lon="-75.07643">
        <ele>1627.8</ele>
        <time>2021-08-21T18:06:07Z</time>
      </trkpt>
      <trkpt lat="2.79495" lon="-75.07644">
        <ele>1627.6</ele>
        <time>2021-08-21T18:06:08Z</time>
      </trkpt>
      <trkpt lat="2.794976" lon="-75.07645">
        <ele>1627.5</ele>
        <time>2021-08-21T18:06:09Z</time>
      </trkpt>
      <trkpt lat="2.795002" lon="-75.076454">
        <ele>1627.3</ele>
        <time>2021-08-21T18:06:10Z</time>
      </trkpt>
      <trkpt lat="2.795027" lon="-75.076454">
        <ele>1627.2</ele>
        <time>2021-08-21T18:06:11Z</time>
      </trkpt>
      <trkpt lat="2.79505" lon="-75.07646">
        <ele>1627.0</ele>
        <time>2021-08-21T18:06:12Z</time>
      </trkpt>
      <trkpt lat="2.795075" lon="-75.07647">
        <ele>1626.8</ele>
        <time>2021-08-21T18:06:13Z</time>
      </trkpt>
      <trkpt lat="2.7951" lon="-75.07647">
        <ele>1626.6</ele>
        <time>2021-08-21T18:06:14Z</time>
      </trkpt>
      <trkpt lat="2.795125" lon="-75.07647">
        <ele>1626.4</ele>
        <time>2021-08-21T18:06:15Z</time>
      </trkpt>
      <trkpt lat="2.795148" lon="-75.07647">
        <ele>1626.3</ele>
        <time>2021-08-21T18:06:16Z</time>
      </trkpt>
      <trkpt lat="2.795172" lon="-75.07647">
        <ele>1626.1</ele>
        <time>2021-08-21T18:06:17Z</time>
      </trkpt>
      <trkpt lat="2.795194" lon="-75.07647">
        <ele>1625.9</ele>
        <time>2021-08-21T18:06:18Z</time>
      </trkpt>
      <trkpt lat="2.795216" lon="-75.07646">
        <ele>1625.7</ele>
        <time>2021-08-21T18:06:19Z</time>
      </trkpt>
      <trkpt lat="2.795237" lon="-75.07646">
        <ele>1625.5</ele>
        <time>2021-08-21T18:06:20Z</time>
      </trkpt>
      <trkpt lat="2.795259" lon="-75.07646">
        <ele>1625.3</ele>
        <time>2021-08-21T18:06:21Z</time>
      </trkpt>
      <trkpt lat="2.795282" lon="-75.07646">
        <ele>1625.1</ele>
        <time>2021-08-21T18:06:22Z</time>
      </trkpt>
      <trkpt lat="2.795306" lon="-75.07646">
        <ele>1624.8</ele>
        <time>2021-08-21T18:06:23Z</time>
      </trkpt>
      <trkpt lat="2.795333" lon="-75.07646">
        <ele>1624.6</ele>
        <time>2021-08-21T18:06:24Z</time>
      </trkpt>
      <trkpt lat="2.79536" lon="-75.07646">
        <ele>1624.2</ele>
        <time>2021-08-21T18:06:25Z</time>
      </trkpt>
      <trkpt lat="2.79539" lon="-75.07646">
        <ele>1623.9</ele>
        <time>2021-08-21T18:06:26Z</time>
      </trkpt>
      <trkpt lat="2.795422" lon="-75.076454">
        <ele>1623.5</ele>
        <time>2021-08-21T18:06:27Z</time>
      </trkpt>
      <trkpt lat="2.795456" lon="-75.076454">
        <ele>1623.0</ele>
        <time>2021-08-21T18:06:28Z</time>
      </trkpt>
      <trkpt lat="2.795494" lon="-75.076454">
        <ele>1622.5</ele>
        <time>2021-08-21T18:06:29Z</time>
      </trkpt>
      <trkpt lat="2.795533" lon="-75.076454">
        <ele>1622.0</ele>
        <time>2021-08-21T18:06:30Z</time>
      </trkpt>
      <trkpt lat="2.795571" lon="-75.076454">
        <ele>1621.4</ele>
        <time>2021-08-21T18:06:31Z</time>
      </trkpt>
      <trkpt lat="2.795612" lon="-75.076454">
        <ele>1620.8</ele>
        <time>2021-08-21T18:06:32Z</time>
      </trkpt>
      <trkpt lat="2.795652" lon="-75.07645">
        <ele>1620.1</ele>
        <time>2021-08-21T18:06:33Z</time>
      </trkpt>
      <trkpt lat="2.79569" lon="-75.07645">
        <ele>1619.5</ele>
        <time>2021-08-21T18:06:34Z</time>
      </trkpt>
      <trkpt lat="2.795728" lon="-75.07643">
        <ele>1618.8</ele>
        <time>2021-08-21T18:06:35Z</time>
      </trkpt>
      <trkpt lat="2.795763" lon="-75.07642">
        <ele>1618.2</ele>
        <time>2021-08-21T18:06:36Z</time>
      </trkpt>
      <trkpt lat="2.795798" lon="-75.076416">
        <ele>1617.6</ele>
        <time>2021-08-21T18:06:37Z</time>
      </trkpt>
      <trkpt lat="2.795832" lon="-75.0764">
        <ele>1617.0</ele>
        <time>2021-08-21T18:06:38Z</time>
      </trkpt>
      <trkpt lat="2.795867" lon="-75.076385">
        <ele>1616.4</ele>
        <time>2021-08-21T18:06:39Z</time>
      </trkpt>
      <trkpt lat="2.795902" lon="-75.07636">
        <ele>1615.8</ele>
        <time>2021-08-21T18:06:40Z</time>
      </trkpt>
      <trkpt lat="2.795937" lon="-75.07634">
        <ele>1615.2</ele>
        <time>2021-08-21T18:06:41Z</time>
      </trkpt>
      <trkpt lat="2.795972" lon="-75.07632">
        <ele>1614.5</ele>
        <time>2021-08-21T18:06:42Z</time>
      </trkpt>
      <trkpt lat="2.796008" lon="-75.07629">
        <ele>1613.9</ele>
        <time>2021-08-21T18:06:43Z</time>
      </trkpt>
      <trkpt lat="2.796046" lon="-75.07626">
        <ele>1613.2</ele>
        <time>2021-08-21T18:06:44Z</time>
      </trkpt>
      <trkpt lat="2.796085" lon="-75.07623">
        <ele>1612.6</ele>
        <time>2021-08-21T18:06:45Z</time>
      </trkpt>
      <trkpt lat="2.796126" lon="-75.07621">
        <ele>1612.0</ele>
        <time>2021-08-21T18:06:46Z</time>
      </trkpt>
      <trkpt lat="2.796166" lon="-75.07619">
        <ele>1611.4</ele>
        <time>2021-08-21T18:06:47Z</time>
      </trkpt>
      <trkpt lat="2.796208" lon="-75.076164">
        <ele>1610.9</ele>
        <time>2021-08-21T18:06:48Z</time>
      </trkpt>
      <trkpt lat="2.796249" lon="-75.07613">
        <ele>1610.3</ele>
        <time>2021-08-21T18:06:49Z</time>
      </trkpt>
      <trkpt lat="2.796288" lon="-75.07611">
        <ele>1609.8</ele>
        <time>2021-08-21T18:06:50Z</time>
      </trkpt>
      <trkpt lat="2.796322" lon="-75.07608">
        <ele>1609.3</ele>
        <time>2021-08-21T18:06:51Z</time>
      </trkpt>
      <trkpt lat="2.796353" lon="-75.07604">
        <ele>1608.8</ele>
        <time>2021-08-21T18:06:52Z</time>
      </trkpt>
      <trkpt lat="2.796378" lon="-75.076">
        <ele>1608.3</ele>
        <time>2021-08-21T18:06:53Z</time>
      </trkpt>
      <trkpt lat="2.796396" lon="-75.07596">
        <ele>1607.8</ele>
        <time>2021-08-21T18:06:54Z</time>
      </trkpt>
      <trkpt lat="2.796406" lon="-75.075905">
        <ele>1607.2</ele>
        <time>2021-08-21T18:06:55Z</time>
      </trkpt>
      <trkpt lat="2.796409" lon="-75.07586">
        <ele>1606.7</ele>
        <time>2021-08-21T18:06:56Z</time>
      </trkpt>
      <trkpt lat="2.796403" lon="-75.075806">
        <ele>1606.1</ele>
        <time>2021-08-21T18:06:57Z</time>
      </trkpt>
      <trkpt lat="2.796391" lon="-75.07575">
        <ele>1605.6</ele>
        <time>2021-08-21T18:06:58Z</time>
      </trkpt>
      <trkpt lat="2.796376" lon="-75.07571">
        <ele>1605.0</ele>
        <time>2021-08-21T18:06:59Z</time>
      </trkpt>
      <trkpt lat="2.796358" lon="-75.07565">
        <ele>1604.5</ele>
        <time>2021-08-21T18:07:00Z</time>
      </trkpt>
      <trkpt lat="2.796335" lon="-75.0756">
        <ele>1603.8</ele>
        <time>2021-08-21T18:07:01Z</time>
      </trkpt>
      <trkpt lat="2.79631" lon="-75.075554">
        <ele>1603.2</ele>
        <time>2021-08-21T18:07:02Z</time>
      </trkpt>
      <trkpt lat="2.796287" lon="-75.07551">
        <ele>1602.5</ele>
        <time>2021-08-21T18:07:03Z</time>
      </trkpt>
      <trkpt lat="2.796266" lon="-75.07546">
        <ele>1601.8</ele>
        <time>2021-08-21T18:07:04Z</time>
      </trkpt>
      <trkpt lat="2.796246" lon="-75.07542">
        <ele>1601.2</ele>
        <time>2021-08-21T18:07:05Z</time>
      </trkpt>
      <trkpt lat="2.796231" lon="-75.07536">
        <ele>1600.6</ele>
        <time>2021-08-21T18:07:06Z</time>
      </trkpt>
      <trkpt lat="2.796221" lon="-75.07531">
        <ele>1599.9</ele>
        <time>2021-08-21T18:07:07Z</time>
      </trkpt>
      <trkpt lat="2.796214" lon="-75.07526">
        <ele>1599.3</ele>
        <time>2021-08-21T18:07:08Z</time>
      </trkpt>
      <trkpt lat="2.796213" lon="-75.0752">
        <ele>1598.7</ele>
        <time>2021-08-21T18:07:09Z</time>
      </trkpt>
      <trkpt lat="2.796217" lon="-75.07515">
        <ele>1598.1</ele>
        <time>2021-08-21T18:07:10Z</time>
      </trkpt>
      <trkpt lat="2.796228" lon="-75.075096">
        <ele>1597.5</ele>
        <time>2021-08-21T18:07:11Z</time>
      </trkpt>
      <trkpt lat="2.796245" lon="-75.07505">
        <ele>1596.8</ele>
        <time>2021-08-21T18:07:12Z</time>
      </trkpt>
      <trkpt lat="2.796268" lon="-75.075005">
        <ele>1596.2</ele>
        <time>2021-08-21T18:07:13Z</time>
      </trkpt>
      <trkpt lat="2.796297" lon="-75.07496">
        <ele>1595.6</ele>
        <time>2021-08-21T18:07:14Z</time>
      </trkpt>
      <trkpt lat="2.79633" lon="-75.07492">
        <ele>1594.9</ele>
        <time>2021-08-21T18:07:15Z</time>
      </trkpt>
      <trkpt lat="2.796367" lon="-75.07488">
        <ele>1594.3</ele>
        <time>2021-08-21T18:07:16Z</time>
      </trkpt>
      <trkpt lat="2.796406" lon="-75.07485">
        <ele>1593.7</ele>
        <time>2021-08-21T18:07:17Z</time>
      </trkpt>
      <trkpt lat="2.796447" lon="-75.07482">
        <ele>1593.1</ele>
        <time>2021-08-21T18:07:18Z</time>
      </trkpt>
      <trkpt lat="2.79649" lon="-75.0748">
        <ele>1592.6</ele>
        <time>2021-08-21T18:07:19Z</time>
      </trkpt>
      <trkpt lat="2.796536" lon="-75.07478">
        <ele>1592.0</ele>
        <time>2021-08-21T18:07:20Z</time>
      </trkpt>
      <trkpt lat="2.796586" lon="-75.074776">
        <ele>1591.6</ele>
        <time>2021-08-21T18:07:21Z</time>
      </trkpt>
      <trkpt lat="2.796638" lon="-75.07477">
        <ele>1591.1</ele>
        <time>2021-08-21T18:07:22Z</time>
      </trkpt>
      <trkpt lat="2.796696" lon="-75.074776">
        <ele>1590.7</ele>
        <time>2021-08-21T18:07:23Z</time>
      </trkpt>
      <trkpt lat="2.796756" lon="-75.074776">
        <ele>1590.4</ele>
        <time>2021-08-21T18:07:24Z</time>
      </trkpt>
      <trkpt lat="2.796813" lon="-75.07478">
        <ele>1590.1</ele>
        <time>2021-08-21T18:07:25Z</time>
      </trkpt>
      <trkpt lat="2.796872" lon="-75.07479">
        <ele>1589.8</ele>
        <time>2021-08-21T18:07:26Z</time>
      </trkpt>
      <trkpt lat="2.796929" lon="-75.0748">
        <ele>1589.5</ele>
        <time>2021-08-21T18:07:27Z</time>
      </trkpt>
      <trkpt lat="2.796984" lon="-75.07481">
        <ele>1589.2</ele>
        <time>2021-08-21T18:07:28Z</time>
      </trkpt>
      <trkpt lat="2.797034" lon="-75.07483">
        <ele>1588.8</ele>
        <time>2021-08-21T18:07:29Z</time>
      </trkpt>
      <trkpt lat="2.79708" lon="-75.07485">
        <ele>1588.4</ele>
        <time>2021-08-21T18:07:30Z</time>
      </trkpt>
      <trkpt lat="2.797121" lon="-75.074875">
        <ele>1588.0</ele>
        <time>2021-08-21T18:07:31Z</time>
      </trkpt>
      <trkpt lat="2.797159" lon="-75.074905">
        <ele>1587.6</ele>
        <time>2021-08-21T18:07:32Z</time>
      </trkpt>
      <trkpt lat="2.797194" lon="-75.07494">
        <ele>1587.1</ele>
        <time>2021-08-21T18:07:33Z</time>
      </trkpt>
      <trkpt lat="2.797226" lon="-75.074974">
        <ele>1586.5</ele>
        <time>2021-08-21T18:07:34Z</time>
      </trkpt>
      <trkpt lat="2.797254" lon="-75.07501">
        <ele>1586.0</ele>
        <time>2021-08-21T18:07:35Z</time>
      </trkpt>
      <trkpt lat="2.797277" lon="-75.07504">
        <ele>1585.5</ele>
        <time>2021-08-21T18:07:36Z</time>
      </trkpt>
      <trkpt lat="2.797297" lon="-75.07508">
        <ele>1585.0</ele>
        <time>2021-08-21T18:07:37Z</time>
      </trkpt>
      <trkpt lat="2.797316" lon="-75.07513">
        <ele>1584.4</ele>
        <time>2021-08-21T18:07:38Z</time>
      </trkpt>
      <trkpt lat="2.797336" lon="-75.07517">
        <ele>1583.8</ele>
        <time>2021-08-21T18:07:39Z</time>
      </trkpt>
      <trkpt lat="2.79736" lon="-75.075226">
        <ele>1583.1</ele>
        <time>2021-08-21T18:07:40Z</time>
      </trkpt>
      <trkpt lat="2.797385" lon="-75.07528">
        <ele>1582.5</ele>
        <time>2021-08-21T18:07:41Z</time>
      </trkpt>
      <trkpt lat="2.797411" lon="-75.07533">
        <ele>1581.9</ele>
        <time>2021-08-21T18:07:42Z</time>
      </trkpt>
      <trkpt lat="2.797441" lon="-75.075386">
        <ele>1581.4</ele>
        <time>2021-08-21T18:07:43Z</time>
      </trkpt>
      <trkpt lat="2.797476" lon="-75.07545">
        <ele>1580.8</ele>
        <time>2021-08-21T18:07:44Z</time>
      </trkpt>
      <trkpt lat="2.797514" lon="-75.0755">
        <ele>1580.3</ele>
        <time>2021-08-21T18:07:45Z</time>
      </trkpt>
      <trkpt lat="2.797554" lon="-75.075554">
        <ele>1579.7</ele>
        <time>2021-08-21T18:07:46Z</time>
      </trkpt>
      <trkpt lat="2.797592" lon="-75.07561">
        <ele>1579.2</ele>
        <time>2021-08-21T18:07:47Z</time>
      </trkpt>
      <trkpt lat="2.79763" lon="-75.07566">
        <ele>1578.7</ele>
        <time>2021-08-21T18:07:48Z</time>
      </trkpt>
      <trkpt lat="2.797669" lon="-75.075714">
        <ele>1578.2</ele>
        <time>2021-08-21T18:07:49Z</time>
      </trkpt>
      <trkpt lat="2.797708" lon="-75.07576">
        <ele>1577.6</ele>
        <time>2021-08-21T18:07:50Z</time>
      </trkpt>
      <trkpt lat="2.797746" lon="-75.075806">
        <ele>1577.1</ele>
        <time>2021-08-21T18:07:51Z</time>
      </trkpt>
      <trkpt lat="2.797786" lon="-75.07585">
        <ele>1576.7</ele>
        <time>2021-08-21T18:07:52Z</time>
      </trkpt>
      <trkpt lat="2.797828" lon="-75.075905">
        <ele>1576.2</ele>
        <time>2021-08-21T18:07:53Z</time>
      </trkpt>
      <trkpt lat="2.797869" lon="-75.07594">
        <ele>1575.8</ele>
        <time>2021-08-21T18:07:54Z</time>
      </trkpt>
      <trkpt lat="2.797912" lon="-75.07599">
        <ele>1575.3</ele>
        <time>2021-08-21T18:07:55Z</time>
      </trkpt>
      <trkpt lat="2.79796" lon="-75.07603">
        <ele>1574.8</ele>
        <time>2021-08-21T18:07:56Z</time>
      </trkpt>
      <trkpt lat="2.798003" lon="-75.076065">
        <ele>1574.3</ele>
        <time>2021-08-21T18:07:57Z</time>
      </trkpt>
      <trkpt lat="2.798048" lon="-75.0761">
        <ele>1573.9</ele>
        <time>2021-08-21T18:07:58Z</time>
      </trkpt>
      <trkpt lat="2.798095" lon="-75.07613">
        <ele>1573.4</ele>
        <time>2021-08-21T18:07:59Z</time>
      </trkpt>
      <trkpt lat="2.798142" lon="-75.07617">
        <ele>1572.9</ele>
        <time>2021-08-21T18:08:00Z</time>
      </trkpt>
      <trkpt lat="2.79819" lon="-75.0762">
        <ele>1572.4</ele>
        <time>2021-08-21T18:08:01Z</time>
      </trkpt>
      <trkpt lat="2.798238" lon="-75.07624">
        <ele>1571.9</ele>
        <time>2021-08-21T18:08:02Z</time>
      </trkpt>
      <trkpt lat="2.798285" lon="-75.07627">
        <ele>1571.5</ele>
        <time>2021-08-21T18:08:03Z</time>
      </trkpt>
      <trkpt lat="2.798329" lon="-75.07631">
        <ele>1571.0</ele>
        <time>2021-08-21T18:08:04Z</time>
      </trkpt>
      <trkpt lat="2.798371" lon="-75.07635">
        <ele>1570.6</ele>
        <time>2021-08-21T18:08:05Z</time>
      </trkpt>
      <trkpt lat="2.79841" lon="-75.07639">
        <ele>1570.1</ele>
        <time>2021-08-21T18:08:06Z</time>
      </trkpt>
      <trkpt lat="2.798444" lon="-75.07644">
        <ele>1569.7</ele>
        <time>2021-08-21T18:08:07Z</time>
      </trkpt>
      <trkpt lat="2.798471" lon="-75.07649">
        <ele>1569.2</ele>
        <time>2021-08-21T18:08:08Z</time>
      </trkpt>
      <trkpt lat="2.798493" lon="-75.076546">
        <ele>1568.7</ele>
        <time>2021-08-21T18:08:09Z</time>
      </trkpt>
      <trkpt lat="2.798513" lon="-75.0766">
        <ele>1568.2</ele>
        <time>2021-08-21T18:08:10Z</time>
      </trkpt>
      <trkpt lat="2.798536" lon="-75.07666">
        <ele>1567.6</ele>
        <time>2021-08-21T18:08:11Z</time>
      </trkpt>
      <trkpt lat="2.798559" lon="-75.07672">
        <ele>1567.0</ele>
        <time>2021-08-21T18:08:12Z</time>
      </trkpt>
      <trkpt lat="2.798585" lon="-75.076775">
        <ele>1566.5</ele>
        <time>2021-08-21T18:08:13Z</time>
      </trkpt>
      <trkpt lat="2.798614" lon="-75.076836">
        <ele>1565.9</ele>
        <time>2021-08-21T18:08:14Z</time>
      </trkpt>
      <trkpt lat="2.798648" lon="-75.0769">
        <ele>1565.3</ele>
        <time>2021-08-21T18:08:15Z</time>
      </trkpt>
      <trkpt lat="2.798684" lon="-75.07696">
        <ele>1564.7</ele>
        <time>2021-08-21T18:08:16Z</time>
      </trkpt>
      <trkpt lat="2.798722" lon="-75.07702">
        <ele>1564.1</ele>
        <time>2021-08-21T18:08:17Z</time>
      </trkpt>
      <trkpt lat="2.798761" lon="-75.07708">
        <ele>1563.6</ele>
        <time>2021-08-21T18:08:18Z</time>
      </trkpt>
      <trkpt lat="2.798799" lon="-75.07713">
        <ele>1563.0</ele>
        <time>2021-08-21T18:08:19Z</time>
      </trkpt>
      <trkpt lat="2.798836" lon="-75.077194">
        <ele>1562.5</ele>
        <time>2021-08-21T18:08:20Z</time>
      </trkpt>
      <trkpt lat="2.798873" lon="-75.077255">
        <ele>1562.2</ele>
        <time>2021-08-21T18:08:21Z</time>
      </trkpt>
      <trkpt lat="2.798908" lon="-75.07731">
        <ele>1561.9</ele>
        <time>2021-08-21T18:08:22Z</time>
      </trkpt>
      <trkpt lat="2.798942" lon="-75.07737">
        <ele>1561.5</ele>
        <time>2021-08-21T18:08:23Z</time>
      </trkpt>
      <trkpt lat="2.798976" lon="-75.07742">
        <ele>1561.2</ele>
        <time>2021-08-21T18:08:24Z</time>
      </trkpt>
      <trkpt lat="2.799009" lon="-75.07748">
        <ele>1560.9</ele>
        <time>2021-08-21T18:08:25Z</time>
      </trkpt>
      <trkpt lat="2.799041" lon="-75.07752">
        <ele>1560.5</ele>
        <time>2021-08-21T18:08:26Z</time>
      </trkpt>
      <trkpt lat="2.799072" lon="-75.077576">
        <ele>1560.2</ele>
        <time>2021-08-21T18:08:27Z</time>
      </trkpt>
      <trkpt lat="2.7991" lon="-75.07763">
        <ele>1560.0</ele>
        <time>2021-08-21T18:08:28Z</time>
      </trkpt>
      <trkpt lat="2.799126" lon="-75.077675">
        <ele>1559.7</ele>
        <time>2021-08-21T18:08:29Z</time>
      </trkpt>
      <trkpt lat="2.799151" lon="-75.07773">
        <ele>1559.4</ele>
        <time>2021-08-21T18:08:30Z</time>
      </trkpt>
      <trkpt lat="2.799172" lon="-75.07778">
        <ele>1559.1</ele>
        <time>2021-08-21T18:08:31Z</time>
      </trkpt>
      <trkpt lat="2.799192" lon="-75.077835">
        <ele>1558.8</ele>
        <time>2021-08-21T18:08:32Z</time>
      </trkpt>
      <trkpt lat="2.79921" lon="-75.07789">
        <ele>1558.4</ele>
        <time>2021-08-21T18:08:33Z</time>
      </trkpt>
      <trkpt lat="2.799228" lon="-75.07794">
        <ele>1558.0</ele>
        <time>2021-08-21T18:08:34Z</time>
      </trkpt>
      <trkpt lat="2.799246" lon="-75.07799">
        <ele>1557.7</ele>
        <time>2021-08-21T18:08:35Z</time>
      </trkpt>
      <trkpt lat="2.799266" lon="-75.07804">
        <ele>1557.3</ele>
        <time>2021-08-21T18:08:36Z</time>
      </trkpt>
      <trkpt lat="2.799287" lon="-75.078094">
        <ele>1557.0</ele>
        <time>2021-08-21T18:08:37Z</time>
      </trkpt>
      <trkpt lat="2.799307" lon="-75.07814">
        <ele>1556.7</ele>
        <time>2021-08-21T18:08:38Z</time>
      </trkpt>
      <trkpt lat="2.799326" lon="-75.07819">
        <ele>1556.3</ele>
        <time>2021-08-21T18:08:39Z</time>
      </trkpt>
      <trkpt lat="2.799347" lon="-75.07824">
        <ele>1555.9</ele>
        <time>2021-08-21T18:08:41Z</time>
      </trkpt>
      <trkpt lat="2.799368" lon="-75.078285">
        <ele>1555.4</ele>
        <time>2021-08-21T18:08:41Z</time>
      </trkpt>
      <trkpt lat="2.799388" lon="-75.07833">
        <ele>1555.0</ele>
        <time>2021-08-21T18:08:42Z</time>
      </trkpt>
      <trkpt lat="2.799408" lon="-75.07838">
        <ele>1554.5</ele>
        <time>2021-08-21T18:08:43Z</time>
      </trkpt>
      <trkpt lat="2.799428" lon="-75.07843">
        <ele>1554.0</ele>
        <time>2021-08-21T18:08:44Z</time>
      </trkpt>
      <trkpt lat="2.799449" lon="-75.078476">
        <ele>1553.4</ele>
        <time>2021-08-21T18:08:45Z</time>
      </trkpt>
      <trkpt lat="2.799471" lon="-75.07854">
        <ele>1552.7</ele>
        <time>2021-08-21T18:08:46Z</time>
      </trkpt>
      <trkpt lat="2.799493" lon="-75.07859">
        <ele>1552.1</ele>
        <time>2021-08-21T18:08:47Z</time>
      </trkpt>
      <trkpt lat="2.799516" lon="-75.07864">
        <ele>1551.4</ele>
        <time>2021-08-21T18:08:48Z</time>
      </trkpt>
      <trkpt lat="2.799538" lon="-75.0787">
        <ele>1550.8</ele>
        <time>2021-08-21T18:08:49Z</time>
      </trkpt>
      <trkpt lat="2.799559" lon="-75.07875">
        <ele>1550.3</ele>
        <time>2021-08-21T18:08:50Z</time>
      </trkpt>
      <trkpt lat="2.799579" lon="-75.078804">
        <ele>1549.7</ele>
        <time>2021-08-21T18:08:51Z</time>
      </trkpt>
      <trkpt lat="2.799599" lon="-75.07885">
        <ele>1549.2</ele>
        <time>2021-08-21T18:08:52Z</time>
      </trkpt>
      <trkpt lat="2.799619" lon="-75.078896">
        <ele>1548.6</ele>
        <time>2021-08-21T18:08:53Z</time>
      </trkpt>
      <trkpt lat="2.799639" lon="-75.07894">
        <ele>1548.3</ele>
        <time>2021-08-21T18:08:54Z</time>
      </trkpt>
      <trkpt lat="2.799665" lon="-75.07898">
        <ele>1548.0</ele>
        <time>2021-08-21T18:08:55Z</time>
      </trkpt>
      <trkpt lat="2.799692" lon="-75.079">
        <ele>1547.7</ele>
        <time>2021-08-21T18:08:56Z</time>
      </trkpt>
      <trkpt lat="2.79973" lon="-75.07903">
        <ele>1547.4</ele>
        <time>2021-08-21T18:08:57Z</time>
      </trkpt>
      <trkpt lat="2.799771" lon="-75.079056">
        <ele>1547.1</ele>
        <time>2021-08-21T18:08:58Z</time>
      </trkpt>
      <trkpt lat="2.799813" lon="-75.07908">
        <ele>1546.7</ele>
        <time>2021-08-21T18:08:59Z</time>
      </trkpt>
      <trkpt lat="2.799855" lon="-75.079094">
        <ele>1546.4</ele>
        <time>2021-08-21T18:09:00Z</time>
      </trkpt>
      <trkpt lat="2.799899" lon="-75.07911">
        <ele>1546.1</ele>
        <time>2021-08-21T18:09:01Z</time>
      </trkpt>
      <trkpt lat="2.799944" lon="-75.07912">
        <ele>1545.8</ele>
        <time>2021-08-21T18:09:02Z</time>
      </trkpt>
      <trkpt lat="2.79999" lon="-75.07912">
        <ele>1545.5</ele>
        <time>2021-08-21T18:09:03Z</time>
      </trkpt>
      <trkpt lat="2.800035" lon="-75.07912">
        <ele>1545.2</ele>
        <time>2021-08-21T18:09:04Z</time>
      </trkpt>
      <trkpt lat="2.800083" lon="-75.07912">
        <ele>1544.9</ele>
        <time>2021-08-21T18:09:05Z</time>
      </trkpt>
      <trkpt lat="2.800133" lon="-75.07912">
        <ele>1544.6</ele>
        <time>2021-08-21T18:09:06Z</time>
      </trkpt>
      <trkpt lat="2.800186" lon="-75.079124">
        <ele>1544.3</ele>
        <time>2021-08-21T18:09:07Z</time>
      </trkpt>
      <trkpt lat="2.800238" lon="-75.079124">
        <ele>1544.0</ele>
        <time>2021-08-21T18:09:08Z</time>
      </trkpt>
      <trkpt lat="2.800296" lon="-75.079124">
        <ele>1543.5</ele>
        <time>2021-08-21T18:09:09Z</time>
      </trkpt>
      <trkpt lat="2.800358" lon="-75.07913">
        <ele>1543.1</ele>
        <time>2021-08-21T18:09:10Z</time>
      </trkpt>
      <trkpt lat="2.800419" lon="-75.07914">
        <ele>1542.6</ele>
        <time>2021-08-21T18:09:11Z</time>
      </trkpt>
      <trkpt lat="2.800475" lon="-75.07915">
        <ele>1542.2</ele>
        <time>2021-08-21T18:09:12Z</time>
      </trkpt>
      <trkpt lat="2.800525" lon="-75.07916">
        <ele>1541.8</ele>
        <time>2021-08-21T18:09:13Z</time>
      </trkpt>
      <trkpt lat="2.800572" lon="-75.07917">
        <ele>1541.4</ele>
        <time>2021-08-21T18:09:14Z</time>
      </trkpt>
      <trkpt lat="2.800618" lon="-75.079185">
        <ele>1541.1</ele>
        <time>2021-08-21T18:09:15Z</time>
      </trkpt>
      <trkpt lat="2.800664" lon="-75.0792">
        <ele>1540.7</ele>
        <time>2021-08-21T18:09:16Z</time>
      </trkpt>
      <trkpt lat="2.800707" lon="-75.07922">
        <ele>1540.4</ele>
        <time>2021-08-21T18:09:17Z</time>
      </trkpt>
      <trkpt lat="2.800749" lon="-75.07924">
        <ele>1540.0</ele>
        <time>2021-08-21T18:09:18Z</time>
      </trkpt>
      <trkpt lat="2.800788" lon="-75.07926">
        <ele>1539.7</ele>
        <time>2021-08-21T18:09:19Z</time>
      </trkpt>
      <trkpt lat="2.800824" lon="-75.079285">
        <ele>1539.3</ele>
        <time>2021-08-21T18:09:20Z</time>
      </trkpt>
      <trkpt lat="2.800858" lon="-75.07931">
        <ele>1539.0</ele>
        <time>2021-08-21T18:09:21Z</time>
      </trkpt>
      <trkpt lat="2.800889" lon="-75.07932">
        <ele>1538.6</ele>
        <time>2021-08-21T18:09:22Z</time>
      </trkpt>
      <trkpt lat="2.800919" lon="-75.079346">
        <ele>1538.3</ele>
        <time>2021-08-21T18:09:23Z</time>
      </trkpt>
      <trkpt lat="2.800947" lon="-75.07937">
        <ele>1537.9</ele>
        <time>2021-08-21T18:09:24Z</time>
      </trkpt>
      <trkpt lat="2.800974" lon="-75.0794">
        <ele>1537.5</ele>
        <time>2021-08-21T18:09:25Z</time>
      </trkpt>
      <trkpt lat="2.800997" lon="-75.07943">
        <ele>1537.2</ele>
        <time>2021-08-21T18:09:26Z</time>
      </trkpt>
      <trkpt lat="2.801018" lon="-75.07946">
        <ele>1536.8</ele>
        <time>2021-08-21T18:09:27Z</time>
      </trkpt>
      <trkpt lat="2.801037" lon="-75.07949">
        <ele>1536.4</ele>
        <time>2021-08-21T18:09:28Z</time>
      </trkpt>
      <trkpt lat="2.801052" lon="-75.07953">
        <ele>1536.0</ele>
        <time>2021-08-21T18:09:29Z</time>
      </trkpt>
      <trkpt lat="2.801067" lon="-75.079575">
        <ele>1535.6</ele>
        <time>2021-08-21T18:09:30Z</time>
      </trkpt>
      <trkpt lat="2.801081" lon="-75.07962">
        <ele>1535.1</ele>
        <time>2021-08-21T18:09:31Z</time>
      </trkpt>
      <trkpt lat="2.801097" lon="-75.07967">
        <ele>1534.7</ele>
        <time>2021-08-21T18:09:32Z</time>
      </trkpt>
      <trkpt lat="2.80111" lon="-75.07972">
        <ele>1534.2</ele>
        <time>2021-08-21T18:09:33Z</time>
      </trkpt>
      <trkpt lat="2.801123" lon="-75.07977">
        <ele>1533.8</ele>
        <time>2021-08-21T18:09:34Z</time>
      </trkpt>
      <trkpt lat="2.801138" lon="-75.07983">
        <ele>1533.4</ele>
        <time>2021-08-21T18:09:35Z</time>
      </trkpt>
      <trkpt lat="2.801153" lon="-75.07988">
        <ele>1533.0</ele>
        <time>2021-08-21T18:09:36Z</time>
      </trkpt>
      <trkpt lat="2.801171" lon="-75.07993">
        <ele>1532.6</ele>
        <time>2021-08-21T18:09:37Z</time>
      </trkpt>
      <trkpt lat="2.801191" lon="-75.079994">
        <ele>1532.2</ele>
        <time>2021-08-21T18:09:38Z</time>
      </trkpt>
      <trkpt lat="2.801209" lon="-75.08005">
        <ele>1531.8</ele>
        <time>2021-08-21T18:09:39Z</time>
      </trkpt>
      <trkpt lat="2.801228" lon="-75.08009">
        <ele>1531.4</ele>
        <time>2021-08-21T18:09:40Z</time>
      </trkpt>
      <trkpt lat="2.801246" lon="-75.08015">
        <ele>1531.0</ele>
        <time>2021-08-21T18:09:41Z</time>
      </trkpt>
      <trkpt lat="2.801262" lon="-75.0802">
        <ele>1530.7</ele>
        <time>2021-08-21T18:09:42Z</time>
      </trkpt>
      <trkpt lat="2.801276" lon="-75.08025">
        <ele>1530.3</ele>
        <time>2021-08-21T18:09:43Z</time>
      </trkpt>
      <trkpt lat="2.801283" lon="-75.0803">
        <ele>1530.0</ele>
        <time>2021-08-21T18:09:44Z</time>
      </trkpt>
      <trkpt lat="2.801285" lon="-75.08035">
        <ele>1529.6</ele>
        <time>2021-08-21T18:09:45Z</time>
      </trkpt>
      <trkpt lat="2.801281" lon="-75.08041">
        <ele>1529.2</ele>
        <time>2021-08-21T18:09:46Z</time>
      </trkpt>
      <trkpt lat="2.80127" lon="-75.08047">
        <ele>1528.8</ele>
        <time>2021-08-21T18:09:47Z</time>
      </trkpt>
      <trkpt lat="2.801256" lon="-75.08053">
        <ele>1528.4</ele>
        <time>2021-08-21T18:09:48Z</time>
      </trkpt>
      <trkpt lat="2.801242" lon="-75.08059">
        <ele>1527.9</ele>
        <time>2021-08-21T18:09:49Z</time>
      </trkpt>
      <trkpt lat="2.801229" lon="-75.08064">
        <ele>1527.3</ele>
        <time>2021-08-21T18:09:50Z</time>
      </trkpt>
      <trkpt lat="2.801219" lon="-75.0807">
        <ele>1526.9</ele>
        <time>2021-08-21T18:09:51Z</time>
      </trkpt>
      <trkpt lat="2.801204" lon="-75.08082">
        <ele>1526.0</ele>
        <time>2021-08-21T18:09:52Z</time>
      </trkpt>
      <trkpt lat="2.80121" lon="-75.080765">
        <ele>1526.4</ele>
        <time>2021-08-21T18:09:52Z</time>
      </trkpt>
      <trkpt lat="2.801199" lon="-75.08088">
        <ele>1525.6</ele>
        <time>2021-08-21T18:09:53Z</time>
      </trkpt>
      <trkpt lat="2.801194" lon="-75.08093">
        <ele>1525.2</ele>
        <time>2021-08-21T18:09:54Z</time>
      </trkpt>
      <trkpt lat="2.801189" lon="-75.08099">
        <ele>1524.9</ele>
        <time>2021-08-21T18:09:55Z</time>
      </trkpt>
      <trkpt lat="2.801189" lon="-75.081055">
        <ele>1524.6</ele>
        <time>2021-08-21T18:09:56Z</time>
      </trkpt>
      <trkpt lat="2.801192" lon="-75.08112">
        <ele>1524.3</ele>
        <time>2021-08-21T18:09:57Z</time>
      </trkpt>
      <trkpt lat="2.801199" lon="-75.08119">
        <ele>1523.9</ele>
        <time>2021-08-21T18:09:58Z</time>
      </trkpt>
      <trkpt lat="2.801208" lon="-75.08125">
        <ele>1523.6</ele>
        <time>2021-08-21T18:09:59Z</time>
      </trkpt>
      <trkpt lat="2.801221" lon="-75.081314">
        <ele>1523.3</ele>
        <time>2021-08-21T18:10:00Z</time>
      </trkpt>
      <trkpt lat="2.801236" lon="-75.081375">
        <ele>1523.0</ele>
        <time>2021-08-21T18:10:01Z</time>
      </trkpt>
      <trkpt lat="2.801252" lon="-75.08143">
        <ele>1522.7</ele>
        <time>2021-08-21T18:10:02Z</time>
      </trkpt>
      <trkpt lat="2.801269" lon="-75.08148">
        <ele>1522.3</ele>
        <time>2021-08-21T18:10:03Z</time>
      </trkpt>
      <trkpt lat="2.801285" lon="-75.081535">
        <ele>1522.0</ele>
        <time>2021-08-21T18:10:04Z</time>
      </trkpt>
      <trkpt lat="2.801301" lon="-75.08159">
        <ele>1521.6</ele>
        <time>2021-08-21T18:10:05Z</time>
      </trkpt>
      <trkpt lat="2.801322" lon="-75.08164">
        <ele>1521.2</ele>
        <time>2021-08-21T18:10:06Z</time>
      </trkpt>
      <trkpt lat="2.801346" lon="-75.081696">
        <ele>1520.8</ele>
        <time>2021-08-21T18:10:07Z</time>
      </trkpt>
      <trkpt lat="2.80137" lon="-75.08175">
        <ele>1520.3</ele>
        <time>2021-08-21T18:10:08Z</time>
      </trkpt>
      <trkpt lat="2.801396" lon="-75.08181">
        <ele>1519.8</ele>
        <time>2021-08-21T18:10:09Z</time>
      </trkpt>
      <trkpt lat="2.80142" lon="-75.08186">
        <ele>1519.4</ele>
        <time>2021-08-21T18:10:10Z</time>
      </trkpt>
      <trkpt lat="2.801446" lon="-75.08192">
        <ele>1519.0</ele>
        <time>2021-08-21T18:10:11Z</time>
      </trkpt>
      <trkpt lat="2.801474" lon="-75.08196">
        <ele>1518.6</ele>
        <time>2021-08-21T18:10:12Z</time>
      </trkpt>
      <trkpt lat="2.801505" lon="-75.082016">
        <ele>1518.2</ele>
        <time>2021-08-21T18:10:13Z</time>
      </trkpt>
      <trkpt lat="2.801533" lon="-75.08207">
        <ele>1517.8</ele>
        <time>2021-08-21T18:10:14Z</time>
      </trkpt>
      <trkpt lat="2.801562" lon="-75.082115">
        <ele>1517.4</ele>
        <time>2021-08-21T18:10:15Z</time>
      </trkpt>
      <trkpt lat="2.80159" lon="-75.08217">
        <ele>1517.0</ele>
        <time>2021-08-21T18:10:16Z</time>
      </trkpt>
      <trkpt lat="2.801622" lon="-75.08222">
        <ele>1516.5</ele>
        <time>2021-08-21T18:10:17Z</time>
      </trkpt>
      <trkpt lat="2.801652" lon="-75.08227">
        <ele>1516.1</ele>
        <time>2021-08-21T18:10:18Z</time>
      </trkpt>
      <trkpt lat="2.801682" lon="-75.08231">
        <ele>1515.7</ele>
        <time>2021-08-21T18:10:19Z</time>
      </trkpt>
      <trkpt lat="2.801711" lon="-75.08235">
        <ele>1515.3</ele>
        <time>2021-08-21T18:10:20Z</time>
      </trkpt>
      <trkpt lat="2.801738" lon="-75.08239">
        <ele>1514.9</ele>
        <time>2021-08-21T18:10:21Z</time>
      </trkpt>
      <trkpt lat="2.801764" lon="-75.08242">
        <ele>1514.6</ele>
        <time>2021-08-21T18:10:22Z</time>
      </trkpt>
      <trkpt lat="2.801789" lon="-75.08246">
        <ele>1514.3</ele>
        <time>2021-08-21T18:10:23Z</time>
      </trkpt>
      <trkpt lat="2.801816" lon="-75.0825">
        <ele>1514.1</ele>
        <time>2021-08-21T18:10:24Z</time>
      </trkpt>
      <trkpt lat="2.801844" lon="-75.082535">
        <ele>1513.8</ele>
        <time>2021-08-21T18:10:25Z</time>
      </trkpt>
      <trkpt lat="2.801873" lon="-75.082565">
        <ele>1513.5</ele>
        <time>2021-08-21T18:10:26Z</time>
      </trkpt>
      <trkpt lat="2.801906" lon="-75.082596">
        <ele>1513.3</ele>
        <time>2021-08-21T18:10:27Z</time>
      </trkpt>
      <trkpt lat="2.801941" lon="-75.08262">
        <ele>1513.0</ele>
        <time>2021-08-21T18:10:28Z</time>
      </trkpt>
      <trkpt lat="2.801977" lon="-75.08265">
        <ele>1512.8</ele>
        <time>2021-08-21T18:10:29Z</time>
      </trkpt>
      <trkpt lat="2.802022" lon="-75.08267">
        <ele>1512.5</ele>
        <time>2021-08-21T18:10:30Z</time>
      </trkpt>
      <trkpt lat="2.802067" lon="-75.0827">
        <ele>1512.2</ele>
        <time>2021-08-21T18:10:31Z</time>
      </trkpt>
      <trkpt lat="2.802112" lon="-75.082726">
        <ele>1511.9</ele>
        <time>2021-08-21T18:10:32Z</time>
      </trkpt>
      <trkpt lat="2.802157" lon="-75.08275">
        <ele>1511.6</ele>
        <time>2021-08-21T18:10:33Z</time>
      </trkpt>
      <trkpt lat="2.802203" lon="-75.08278">
        <ele>1511.3</ele>
        <time>2021-08-21T18:10:34Z</time>
      </trkpt>
      <trkpt lat="2.802244" lon="-75.08281">
        <ele>1511.0</ele>
        <time>2021-08-21T18:10:35Z</time>
      </trkpt>
      <trkpt lat="2.802285" lon="-75.08284">
        <ele>1510.7</ele>
        <time>2021-08-21T18:10:36Z</time>
      </trkpt>
      <trkpt lat="2.802328" lon="-75.08287">
        <ele>1510.4</ele>
        <time>2021-08-21T18:10:37Z</time>
      </trkpt>
      <trkpt lat="2.802375" lon="-75.08291">
        <ele>1510.2</ele>
        <time>2021-08-21T18:10:38Z</time>
      </trkpt>
      <trkpt lat="2.802423" lon="-75.08293">
        <ele>1509.9</ele>
        <time>2021-08-21T18:10:39Z</time>
      </trkpt>
      <trkpt lat="2.802471" lon="-75.08296">
        <ele>1509.6</ele>
        <time>2021-08-21T18:10:40Z</time>
      </trkpt>
      <trkpt lat="2.802521" lon="-75.083">
        <ele>1509.3</ele>
        <time>2021-08-21T18:10:41Z</time>
      </trkpt>
      <trkpt lat="2.802566" lon="-75.08303">
        <ele>1509.0</ele>
        <time>2021-08-21T18:10:42Z</time>
      </trkpt>
      <trkpt lat="2.80261" lon="-75.08306">
        <ele>1508.7</ele>
        <time>2021-08-21T18:10:43Z</time>
      </trkpt>
      <trkpt lat="2.802648" lon="-75.08309">
        <ele>1508.5</ele>
        <time>2021-08-21T18:10:44Z</time>
      </trkpt>
      <trkpt lat="2.802686" lon="-75.08313">
        <ele>1508.2</ele>
        <time>2021-08-21T18:10:45Z</time>
      </trkpt>
      <trkpt lat="2.802721" lon="-75.083176">
        <ele>1507.9</ele>
        <time>2021-08-21T18:10:46Z</time>
      </trkpt>
      <trkpt lat="2.802755" lon="-75.08321">
        <ele>1507.6</ele>
        <time>2021-08-21T18:10:47Z</time>
      </trkpt>
      <trkpt lat="2.802789" lon="-75.08326">
        <ele>1507.2</ele>
        <time>2021-08-21T18:10:48Z</time>
      </trkpt>
      <trkpt lat="2.802826" lon="-75.083305">
        <ele>1506.8</ele>
        <time>2021-08-21T18:10:49Z</time>
      </trkpt>
      <trkpt lat="2.802866" lon="-75.08335">
        <ele>1506.5</ele>
        <time>2021-08-21T18:10:50Z</time>
      </trkpt>
      <trkpt lat="2.802909" lon="-75.0834">
        <ele>1506.2</ele>
        <time>2021-08-21T18:10:51Z</time>
      </trkpt>
      <trkpt lat="2.802954" lon="-75.083435">
        <ele>1505.9</ele>
        <time>2021-08-21T18:10:52Z</time>
      </trkpt>
      <trkpt lat="2.803003" lon="-75.083466">
        <ele>1505.5</ele>
        <time>2021-08-21T18:10:53Z</time>
      </trkpt>
      <trkpt lat="2.803052" lon="-75.083496">
        <ele>1505.3</ele>
        <time>2021-08-21T18:10:54Z</time>
      </trkpt>
      <trkpt lat="2.803101" lon="-75.08353">
        <ele>1505.0</ele>
        <time>2021-08-21T18:10:55Z</time>
      </trkpt>
      <trkpt lat="2.803151" lon="-75.08355">
        <ele>1504.8</ele>
        <time>2021-08-21T18:10:56Z</time>
      </trkpt>
      <trkpt lat="2.803197" lon="-75.08358">
        <ele>1504.6</ele>
        <time>2021-08-21T18:10:57Z</time>
      </trkpt>
      <trkpt lat="2.803245" lon="-75.0836">
        <ele>1504.5</ele>
        <time>2021-08-21T18:10:58Z</time>
      </trkpt>
      <trkpt lat="2.803294" lon="-75.08363">
        <ele>1504.3</ele>
        <time>2021-08-21T18:10:59Z</time>
      </trkpt>
      <trkpt lat="2.803342" lon="-75.08366">
        <ele>1504.2</ele>
        <time>2021-08-21T18:11:00Z</time>
      </trkpt>
      <trkpt lat="2.80339" lon="-75.08369">
        <ele>1504.0</ele>
        <time>2021-08-21T18:11:01Z</time>
      </trkpt>
      <trkpt lat="2.803435" lon="-75.08372">
        <ele>1503.8</ele>
        <time>2021-08-21T18:11:02Z</time>
      </trkpt>
      <trkpt lat="2.80348" lon="-75.08374">
        <ele>1503.7</ele>
        <time>2021-08-21T18:11:03Z</time>
      </trkpt>
      <trkpt lat="2.803523" lon="-75.08376">
        <ele>1503.5</ele>
        <time>2021-08-21T18:11:04Z</time>
      </trkpt>
      <trkpt lat="2.803567" lon="-75.083786">
        <ele>1503.4</ele>
        <time>2021-08-21T18:11:05Z</time>
      </trkpt>
      <trkpt lat="2.803607" lon="-75.0838">
        <ele>1503.2</ele>
        <time>2021-08-21T18:11:06Z</time>
      </trkpt>
      <trkpt lat="2.803653" lon="-75.083824">
        <ele>1503.0</ele>
        <time>2021-08-21T18:11:07Z</time>
      </trkpt>
      <trkpt lat="2.803699" lon="-75.08383">
        <ele>1502.8</ele>
        <time>2021-08-21T18:11:08Z</time>
      </trkpt>
      <trkpt lat="2.803744" lon="-75.08385">
        <ele>1502.7</ele>
        <time>2021-08-21T18:11:09Z</time>
      </trkpt>
      <trkpt lat="2.803787" lon="-75.08386">
        <ele>1502.4</ele>
        <time>2021-08-21T18:11:10Z</time>
      </trkpt>
      <trkpt lat="2.803829" lon="-75.08388">
        <ele>1502.2</ele>
        <time>2021-08-21T18:11:11Z</time>
      </trkpt>
      <trkpt lat="2.803867" lon="-75.0839">
        <ele>1502.0</ele>
        <time>2021-08-21T18:11:12Z</time>
      </trkpt>
      <trkpt lat="2.803912" lon="-75.083916">
        <ele>1501.8</ele>
        <time>2021-08-21T18:11:13Z</time>
      </trkpt>
      <trkpt lat="2.803956" lon="-75.08394">
        <ele>1501.6</ele>
        <time>2021-08-21T18:11:14Z</time>
      </trkpt>
      <trkpt lat="2.803998" lon="-75.08396">
        <ele>1501.4</ele>
        <time>2021-08-21T18:11:15Z</time>
      </trkpt>
      <trkpt lat="2.804039" lon="-75.083984">
        <ele>1501.2</ele>
        <time>2021-08-21T18:11:16Z</time>
      </trkpt>
      <trkpt lat="2.804083" lon="-75.084015">
        <ele>1501.0</ele>
        <time>2021-08-21T18:11:17Z</time>
      </trkpt>
      <trkpt lat="2.804128" lon="-75.084045">
        <ele>1500.7</ele>
        <time>2021-08-21T18:11:18Z</time>
      </trkpt>
      <trkpt lat="2.804171" lon="-75.084076">
        <ele>1500.5</ele>
        <time>2021-08-21T18:11:19Z</time>
      </trkpt>
      <trkpt lat="2.804211" lon="-75.08411">
        <ele>1500.3</ele>
        <time>2021-08-21T18:11:20Z</time>
      </trkpt>
      <trkpt lat="2.804251" lon="-75.08414">
        <ele>1500.1</ele>
        <time>2021-08-21T18:11:21Z</time>
      </trkpt>
      <trkpt lat="2.804287" lon="-75.08417">
        <ele>1499.9</ele>
        <time>2021-08-21T18:11:22Z</time>
      </trkpt>
      <trkpt lat="2.804327" lon="-75.0842">
        <ele>1499.7</ele>
        <time>2021-08-21T18:11:23Z</time>
      </trkpt>
      <trkpt lat="2.804366" lon="-75.08422">
        <ele>1499.6</ele>
        <time>2021-08-21T18:11:24Z</time>
      </trkpt>
      <trkpt lat="2.804408" lon="-75.084236">
        <ele>1499.5</ele>
        <time>2021-08-21T18:11:25Z</time>
      </trkpt>
      <trkpt lat="2.804453" lon="-75.08425">
        <ele>1499.4</ele>
        <time>2021-08-21T18:11:26Z</time>
      </trkpt>
      <trkpt lat="2.804499" lon="-75.08427">
        <ele>1499.3</ele>
        <time>2021-08-21T18:11:27Z</time>
      </trkpt>
      <trkpt lat="2.804544" lon="-75.084274">
        <ele>1499.2</ele>
        <time>2021-08-21T18:11:28Z</time>
      </trkpt>
      <trkpt lat="2.80459" lon="-75.08428">
        <ele>1499.1</ele>
        <time>2021-08-21T18:11:29Z</time>
      </trkpt>
      <trkpt lat="2.804636" lon="-75.08429">
        <ele>1499.1</ele>
        <time>2021-08-21T18:11:30Z</time>
      </trkpt>
      <trkpt lat="2.804681" lon="-75.0843">
        <ele>1499.1</ele>
        <time>2021-08-21T18:11:31Z</time>
      </trkpt>
      <trkpt lat="2.804724" lon="-75.0843">
        <ele>1499.0</ele>
        <time>2021-08-21T18:11:32Z</time>
      </trkpt>
      <trkpt lat="2.804765" lon="-75.084305">
        <ele>1499.0</ele>
        <time>2021-08-21T18:11:33Z</time>
      </trkpt>
      <trkpt lat="2.804804" lon="-75.084305">
        <ele>1499.0</ele>
        <time>2021-08-21T18:11:34Z</time>
      </trkpt>
      <trkpt lat="2.804843" lon="-75.08431">
        <ele>1499.0</ele>
        <time>2021-08-21T18:11:35Z</time>
      </trkpt>
      <trkpt lat="2.804881" lon="-75.08431">
        <ele>1499.0</ele>
        <time>2021-08-21T18:11:36Z</time>
      </trkpt>
      <trkpt lat="2.80492" lon="-75.08432">
        <ele>1499.0</ele>
        <time>2021-08-21T18:11:37Z</time>
      </trkpt>
      <trkpt lat="2.804959" lon="-75.08433">
        <ele>1499.0</ele>
        <time>2021-08-21T18:11:38Z</time>
      </trkpt>
      <trkpt lat="2.804998" lon="-75.084335">
        <ele>1499.0</ele>
        <time>2021-08-21T18:11:39Z</time>
      </trkpt>
      <trkpt lat="2.805037" lon="-75.08434">
        <ele>1499.0</ele>
        <time>2021-08-21T18:11:40Z</time>
      </trkpt>
      <trkpt lat="2.805076" lon="-75.08435">
        <ele>1499.1</ele>
        <time>2021-08-21T18:11:41Z</time>
      </trkpt>
      <trkpt lat="2.805112" lon="-75.08436">
        <ele>1499.1</ele>
        <time>2021-08-21T18:11:42Z</time>
      </trkpt>
      <trkpt lat="2.805149" lon="-75.08437">
        <ele>1499.1</ele>
        <time>2021-08-21T18:11:43Z</time>
      </trkpt>
      <trkpt lat="2.805186" lon="-75.08438">
        <ele>1499.2</ele>
        <time>2021-08-21T18:11:44Z</time>
      </trkpt>
      <trkpt lat="2.805223" lon="-75.08438">
        <ele>1499.2</ele>
        <time>2021-08-21T18:11:45Z</time>
      </trkpt>
      <trkpt lat="2.805257" lon="-75.08439">
        <ele>1499.2</ele>
        <time>2021-08-21T18:11:46Z</time>
      </trkpt>
      <trkpt lat="2.805291" lon="-75.08439">
        <ele>1499.3</ele>
        <time>2021-08-21T18:11:47Z</time>
      </trkpt>
      <trkpt lat="2.805322" lon="-75.0844">
        <ele>1499.3</ele>
        <time>2021-08-21T18:11:48Z</time>
      </trkpt>
      <trkpt lat="2.805356" lon="-75.084404">
        <ele>1499.3</ele>
        <time>2021-08-21T18:11:49Z</time>
      </trkpt>
      <trkpt lat="2.805389" lon="-75.08441">
        <ele>1499.3</ele>
        <time>2021-08-21T18:11:50Z</time>
      </trkpt>
      <trkpt lat="2.805419" lon="-75.08442">
        <ele>1499.3</ele>
        <time>2021-08-21T18:11:51Z</time>
      </trkpt>
      <trkpt lat="2.805448" lon="-75.08443">
        <ele>1499.3</ele>
        <time>2021-08-21T18:11:52Z</time>
      </trkpt>
      <trkpt lat="2.805476" lon="-75.084435">
        <ele>1499.3</ele>
        <time>2021-08-21T18:11:53Z</time>
      </trkpt>
      <trkpt lat="2.805504" lon="-75.08444">
        <ele>1499.3</ele>
        <time>2021-08-21T18:11:54Z</time>
      </trkpt>
      <trkpt lat="2.805529" lon="-75.08445">
        <ele>1499.3</ele>
        <time>2021-08-21T18:11:55Z</time>
      </trkpt>
      <trkpt lat="2.805555" lon="-75.08446">
        <ele>1499.2</ele>
        <time>2021-08-21T18:11:56Z</time>
      </trkpt>
      <trkpt lat="2.805584" lon="-75.08447">
        <ele>1499.2</ele>
        <time>2021-08-21T18:11:57Z</time>
      </trkpt>
      <trkpt lat="2.805613" lon="-75.08448">
        <ele>1499.2</ele>
        <time>2021-08-21T18:11:58Z</time>
      </trkpt>
      <trkpt lat="2.805642" lon="-75.084496">
        <ele>1499.2</ele>
        <time>2021-08-21T18:11:59Z</time>
      </trkpt>
      <trkpt lat="2.805672" lon="-75.08451">
        <ele>1499.1</ele>
        <time>2021-08-21T18:12:00Z</time>
      </trkpt>
      <trkpt lat="2.805702" lon="-75.08453">
        <ele>1499.1</ele>
        <time>2021-08-21T18:12:01Z</time>
      </trkpt>
      <trkpt lat="2.805733" lon="-75.08455">
        <ele>1499.0</ele>
        <time>2021-08-21T18:12:02Z</time>
      </trkpt>
      <trkpt lat="2.805765" lon="-75.08457">
        <ele>1499.0</ele>
        <time>2021-08-21T18:12:03Z</time>
      </trkpt>
      <trkpt lat="2.805797" lon="-75.08459">
        <ele>1498.9</ele>
        <time>2021-08-21T18:12:04Z</time>
      </trkpt>
      <trkpt lat="2.805828" lon="-75.0846">
        <ele>1498.9</ele>
        <time>2021-08-21T18:12:05Z</time>
      </trkpt>
      <trkpt lat="2.80586" lon="-75.08462">
        <ele>1498.8</ele>
        <time>2021-08-21T18:12:06Z</time>
      </trkpt>
      <trkpt lat="2.805893" lon="-75.08463">
        <ele>1498.7</ele>
        <time>2021-08-21T18:12:07Z</time>
      </trkpt>
      <trkpt lat="2.805926" lon="-75.084656">
        <ele>1498.7</ele>
        <time>2021-08-21T18:12:08Z</time>
      </trkpt>
      <trkpt lat="2.805958" lon="-75.08467">
        <ele>1498.6</ele>
        <time>2021-08-21T18:12:09Z</time>
      </trkpt>
      <trkpt lat="2.805989" lon="-75.08469">
        <ele>1498.5</ele>
        <time>2021-08-21T18:12:10Z</time>
      </trkpt>
      <trkpt lat="2.80602" lon="-75.0847">
        <ele>1498.4</ele>
        <time>2021-08-21T18:12:11Z</time>
      </trkpt>
      <trkpt lat="2.80605" lon="-75.084724">
        <ele>1498.3</ele>
        <time>2021-08-21T18:12:12Z</time>
      </trkpt>
      <trkpt lat="2.80608" lon="-75.08475">
        <ele>1498.3</ele>
        <time>2021-08-21T18:12:13Z</time>
      </trkpt>
      <trkpt lat="2.806109" lon="-75.08476">
        <ele>1498.2</ele>
        <time>2021-08-21T18:12:14Z</time>
      </trkpt>
      <trkpt lat="2.80614" lon="-75.08477">
        <ele>1498.1</ele>
        <time>2021-08-21T18:12:15Z</time>
      </trkpt>
      <trkpt lat="2.806174" lon="-75.084785">
        <ele>1498.1</ele>
        <time>2021-08-21T18:12:16Z</time>
      </trkpt>
      <trkpt lat="2.806211" lon="-75.08479">
        <ele>1498.0</ele>
        <time>2021-08-21T18:12:17Z</time>
      </trkpt>
      <trkpt lat="2.80625" lon="-75.08481">
        <ele>1497.9</ele>
        <time>2021-08-21T18:12:18Z</time>
      </trkpt>
      <trkpt lat="2.806289" lon="-75.084816">
        <ele>1497.9</ele>
        <time>2021-08-21T18:12:19Z</time>
      </trkpt>
      <trkpt lat="2.80633" lon="-75.08483">
        <ele>1497.8</ele>
        <time>2021-08-21T18:12:20Z</time>
      </trkpt>
      <trkpt lat="2.806371" lon="-75.08485">
        <ele>1497.8</ele>
        <time>2021-08-21T18:12:21Z</time>
      </trkpt>
      <trkpt lat="2.806414" lon="-75.084854">
        <ele>1497.8</ele>
        <time>2021-08-21T18:12:22Z</time>
      </trkpt>
      <trkpt lat="2.806463" lon="-75.08487">
        <ele>1497.8</ele>
        <time>2021-08-21T18:12:23Z</time>
      </trkpt>
      <trkpt lat="2.806508" lon="-75.084885">
        <ele>1497.8</ele>
        <time>2021-08-21T18:12:24Z</time>
      </trkpt>
      <trkpt lat="2.806556" lon="-75.08489">
        <ele>1497.8</ele>
        <time>2021-08-21T18:12:25Z</time>
      </trkpt>
      <trkpt lat="2.806607" lon="-75.0849">
        <ele>1497.8</ele>
        <time>2021-08-21T18:12:26Z</time>
      </trkpt>
      <trkpt lat="2.806657" lon="-75.08491">
        <ele>1497.8</ele>
        <time>2021-08-21T18:12:27Z</time>
      </trkpt>
      <trkpt lat="2.806705" lon="-75.084915">
        <ele>1497.9</ele>
        <time>2021-08-21T18:12:28Z</time>
      </trkpt>
      <trkpt lat="2.806748" lon="-75.08492">
        <ele>1497.9</ele>
        <time>2021-08-21T18:12:29Z</time>
      </trkpt>
      <trkpt lat="2.806791" lon="-75.08493">
        <ele>1498.0</ele>
        <time>2021-08-21T18:12:30Z</time>
      </trkpt>
      <trkpt lat="2.806835" lon="-75.084946">
        <ele>1498.1</ele>
        <time>2021-08-21T18:12:31Z</time>
      </trkpt>
      <trkpt lat="2.806872" lon="-75.08496">
        <ele>1498.2</ele>
        <time>2021-08-21T18:12:32Z</time>
      </trkpt>
      <trkpt lat="2.806907" lon="-75.08498">
        <ele>1498.3</ele>
        <time>2021-08-21T18:12:33Z</time>
      </trkpt>
      <trkpt lat="2.806939" lon="-75.085">
        <ele>1498.4</ele>
        <time>2021-08-21T18:12:34Z</time>
      </trkpt>
      <trkpt lat="2.806969" lon="-75.08503">
        <ele>1498.5</ele>
        <time>2021-08-21T18:12:35Z</time>
      </trkpt>
      <trkpt lat="2.807" lon="-75.08506">
        <ele>1498.7</ele>
        <time>2021-08-21T18:12:36Z</time>
      </trkpt>
      <trkpt lat="2.80703" lon="-75.08509">
        <ele>1498.9</ele>
        <time>2021-08-21T18:12:37Z</time>
      </trkpt>
      <trkpt lat="2.807056" lon="-75.08511">
        <ele>1499.1</ele>
        <time>2021-08-21T18:12:38Z</time>
      </trkpt>
      <trkpt lat="2.80708" lon="-75.085144">
        <ele>1499.3</ele>
        <time>2021-08-21T18:12:39Z</time>
      </trkpt>
      <trkpt lat="2.807103" lon="-75.085175">
        <ele>1499.4</ele>
        <time>2021-08-21T18:12:40Z</time>
      </trkpt>
      <trkpt lat="2.807125" lon="-75.0852">
        <ele>1499.6</ele>
        <time>2021-08-21T18:12:41Z</time>
      </trkpt>
      <trkpt lat="2.807147" lon="-75.08522">
        <ele>1499.7</ele>
        <time>2021-08-21T18:12:42Z</time>
      </trkpt>
      <trkpt lat="2.807171" lon="-75.08524">
        <ele>1499.8</ele>
        <time>2021-08-21T18:12:43Z</time>
      </trkpt>
      <trkpt lat="2.807194" lon="-75.085266">
        <ele>1499.9</ele>
        <time>2021-08-21T18:12:44Z</time>
      </trkpt>
      <trkpt lat="2.807217" lon="-75.08528">
        <ele>1500.0</ele>
        <time>2021-08-21T18:12:45Z</time>
      </trkpt>
      <trkpt lat="2.807243" lon="-75.0853">
        <ele>1500.0</ele>
        <time>2021-08-21T18:12:46Z</time>
      </trkpt>
      <trkpt lat="2.807268" lon="-75.08531">
        <ele>1500.1</ele>
        <time>2021-08-21T18:12:47Z</time>
      </trkpt>
      <trkpt lat="2.807291" lon="-75.08533">
        <ele>1500.1</ele>
        <time>2021-08-21T18:12:48Z</time>
      </trkpt>
      <trkpt lat="2.807314" lon="-75.08534">
        <ele>1500.1</ele>
        <time>2021-08-21T18:12:49Z</time>
      </trkpt>
      <trkpt lat="2.807336" lon="-75.08536">
        <ele>1500.1</ele>
        <time>2021-08-21T18:12:50Z</time>
      </trkpt>
      <trkpt lat="2.807359" lon="-75.08537">
        <ele>1500.1</ele>
        <time>2021-08-21T18:12:51Z</time>
      </trkpt>
      <trkpt lat="2.807383" lon="-75.08539">
        <ele>1500.0</ele>
        <time>2021-08-21T18:12:52Z</time>
      </trkpt>
      <trkpt lat="2.807407" lon="-75.0854">
        <ele>1500.0</ele>
        <time>2021-08-21T18:12:53Z</time>
      </trkpt>
      <trkpt lat="2.807432" lon="-75.08542">
        <ele>1500.0</ele>
        <time>2021-08-21T18:12:54Z</time>
      </trkpt>
      <trkpt lat="2.807457" lon="-75.085434">
        <ele>1499.9</ele>
        <time>2021-08-21T18:12:55Z</time>
      </trkpt>
      <trkpt lat="2.807484" lon="-75.08544">
        <ele>1499.8</ele>
        <time>2021-08-21T18:12:56Z</time>
      </trkpt>
      <trkpt lat="2.807514" lon="-75.08546">
        <ele>1499.7</ele>
        <time>2021-08-21T18:12:57Z</time>
      </trkpt>
      <trkpt lat="2.807546" lon="-75.08547">
        <ele>1499.6</ele>
        <time>2021-08-21T18:12:58Z</time>
      </trkpt>
      <trkpt lat="2.807575" lon="-75.08549">
        <ele>1499.5</ele>
        <time>2021-08-21T18:12:59Z</time>
      </trkpt>
      <trkpt lat="2.807605" lon="-75.085495">
        <ele>1499.4</ele>
        <time>2021-08-21T18:13:00Z</time>
      </trkpt>
      <trkpt lat="2.807634" lon="-75.08551">
        <ele>1499.3</ele>
        <time>2021-08-21T18:13:01Z</time>
      </trkpt>
      <trkpt lat="2.807664" lon="-75.085526">
        <ele>1499.2</ele>
        <time>2021-08-21T18:13:02Z</time>
      </trkpt>
      <trkpt lat="2.807696" lon="-75.08554">
        <ele>1499.1</ele>
        <time>2021-08-21T18:13:03Z</time>
      </trkpt>
      <trkpt lat="2.807725" lon="-75.08555">
        <ele>1499.0</ele>
        <time>2021-08-21T18:13:04Z</time>
      </trkpt>
      <trkpt lat="2.807756" lon="-75.08556">
        <ele>1498.9</ele>
        <time>2021-08-21T18:13:05Z</time>
      </trkpt>
      <trkpt lat="2.807791" lon="-75.08558">
        <ele>1498.7</ele>
        <time>2021-08-21T18:13:06Z</time>
      </trkpt>
      <trkpt lat="2.807828" lon="-75.085594">
        <ele>1498.6</ele>
        <time>2021-08-21T18:13:07Z</time>
      </trkpt>
      <trkpt lat="2.807866" lon="-75.08561">
        <ele>1498.4</ele>
        <time>2021-08-21T18:13:08Z</time>
      </trkpt>
      <trkpt lat="2.807903" lon="-75.085625">
        <ele>1498.3</ele>
        <time>2021-08-21T18:13:09Z</time>
      </trkpt>
      <trkpt lat="2.807945" lon="-75.08564">
        <ele>1498.1</ele>
        <time>2021-08-21T18:13:10Z</time>
      </trkpt>
      <trkpt lat="2.807987" lon="-75.08566">
        <ele>1498.0</ele>
        <time>2021-08-21T18:13:11Z</time>
      </trkpt>
      <trkpt lat="2.808032" lon="-75.085686">
        <ele>1497.8</ele>
        <time>2021-08-21T18:13:12Z</time>
      </trkpt>
      <trkpt lat="2.808076" lon="-75.08571">
        <ele>1497.6</ele>
        <time>2021-08-21T18:13:13Z</time>
      </trkpt>
      <trkpt lat="2.808121" lon="-75.08573">
        <ele>1497.4</ele>
        <time>2021-08-21T18:13:14Z</time>
      </trkpt>
      <trkpt lat="2.808167" lon="-75.08576">
        <ele>1497.3</ele>
        <time>2021-08-21T18:13:15Z</time>
      </trkpt>
      <trkpt lat="2.808214" lon="-75.0858">
        <ele>1497.1</ele>
        <time>2021-08-21T18:13:16Z</time>
      </trkpt>
      <trkpt lat="2.808262" lon="-75.08584">
        <ele>1497.0</ele>
        <time>2021-08-21T18:13:17Z</time>
      </trkpt>
      <trkpt lat="2.808306" lon="-75.085884">
        <ele>1496.9</ele>
        <time>2021-08-21T18:13:18Z</time>
      </trkpt>
      <trkpt lat="2.808348" lon="-75.08593">
        <ele>1496.8</ele>
        <time>2021-08-21T18:13:19Z</time>
      </trkpt>
      <trkpt lat="2.808394" lon="-75.085976">
        <ele>1496.6</ele>
        <time>2021-08-21T18:13:20Z</time>
      </trkpt>
      <trkpt lat="2.808438" lon="-75.08603">
        <ele>1496.5</ele>
        <time>2021-08-21T18:13:21Z</time>
      </trkpt>
      <trkpt lat="2.808479" lon="-75.086075">
        <ele>1496.4</ele>
        <time>2021-08-21T18:13:22Z</time>
      </trkpt>
      <trkpt lat="2.80852" lon="-75.08612">
        <ele>1496.4</ele>
        <time>2021-08-21T18:13:23Z</time>
      </trkpt>
      <trkpt lat="2.80856" lon="-75.08617">
        <ele>1496.3</ele>
        <time>2021-08-21T18:13:24Z</time>
      </trkpt>
      <trkpt lat="2.808603" lon="-75.08621">
        <ele>1496.2</ele>
        <time>2021-08-21T18:13:25Z</time>
      </trkpt>
      <trkpt lat="2.808646" lon="-75.08625">
        <ele>1496.1</ele>
        <time>2021-08-21T18:13:26Z</time>
      </trkpt>
      <trkpt lat="2.808691" lon="-75.08629">
        <ele>1496.0</ele>
        <time>2021-08-21T18:13:27Z</time>
      </trkpt>
      <trkpt lat="2.808732" lon="-75.08633">
        <ele>1496.0</ele>
        <time>2021-08-21T18:13:28Z</time>
      </trkpt>
      <trkpt lat="2.808773" lon="-75.08635">
        <ele>1495.9</ele>
        <time>2021-08-21T18:13:29Z</time>
      </trkpt>
      <trkpt lat="2.808815" lon="-75.08637">
        <ele>1495.8</ele>
        <time>2021-08-21T18:13:30Z</time>
      </trkpt>
      <trkpt lat="2.808858" lon="-75.086395">
        <ele>1495.7</ele>
        <time>2021-08-21T18:13:31Z</time>
      </trkpt>
      <trkpt lat="2.8089" lon="-75.0864">
        <ele>1495.6</ele>
        <time>2021-08-21T18:13:32Z</time>
      </trkpt>
      <trkpt lat="2.808939" lon="-75.08641">
        <ele>1495.5</ele>
        <time>2021-08-21T18:13:33Z</time>
      </trkpt>
      <trkpt lat="2.808978" lon="-75.08642">
        <ele>1495.5</ele>
        <time>2021-08-21T18:13:34Z</time>
      </trkpt>
      <trkpt lat="2.80902" lon="-75.08641">
        <ele>1495.4</ele>
        <time>2021-08-21T18:13:35Z</time>
      </trkpt>
      <trkpt lat="2.809062" lon="-75.0864">
        <ele>1495.3</ele>
        <time>2021-08-21T18:13:36Z</time>
      </trkpt>
      <trkpt lat="2.809101" lon="-75.086395">
        <ele>1495.3</ele>
        <time>2021-08-21T18:13:37Z</time>
      </trkpt>
      <trkpt lat="2.809141" lon="-75.08638">
        <ele>1495.2</ele>
        <time>2021-08-21T18:13:38Z</time>
      </trkpt>
      <trkpt lat="2.809182" lon="-75.08636">
        <ele>1495.1</ele>
        <time>2021-08-21T18:13:39Z</time>
      </trkpt>
      <trkpt lat="2.809223" lon="-75.086334">
        <ele>1495.1</ele>
        <time>2021-08-21T18:13:40Z</time>
      </trkpt>
      <trkpt lat="2.809268" lon="-75.08631">
        <ele>1495.0</ele>
        <time>2021-08-21T18:13:41Z</time>
      </trkpt>
      <trkpt lat="2.809315" lon="-75.08629">
        <ele>1494.9</ele>
        <time>2021-08-21T18:13:42Z</time>
      </trkpt>
      <trkpt lat="2.809357" lon="-75.08627">
        <ele>1494.9</ele>
        <time>2021-08-21T18:13:43Z</time>
      </trkpt>
      <trkpt lat="2.8094" lon="-75.08625">
        <ele>1494.8</ele>
        <time>2021-08-21T18:13:44Z</time>
      </trkpt>
      <trkpt lat="2.809447" lon="-75.08623">
        <ele>1494.8</ele>
        <time>2021-08-21T18:13:45Z</time>
      </trkpt>
      <trkpt lat="2.809489" lon="-75.086205">
        <ele>1494.8</ele>
        <time>2021-08-21T18:13:46Z</time>
      </trkpt>
      <trkpt lat="2.809531" lon="-75.08619">
        <ele>1494.8</ele>
        <time>2021-08-21T18:13:47Z</time>
      </trkpt>
      <trkpt lat="2.809572" lon="-75.08617">
        <ele>1494.7</ele>
        <time>2021-08-21T18:13:48Z</time>
      </trkpt>
      <trkpt lat="2.809612" lon="-75.08615">
        <ele>1494.7</ele>
        <time>2021-08-21T18:13:49Z</time>
      </trkpt>
      <trkpt lat="2.809651" lon="-75.086136">
        <ele>1494.7</ele>
        <time>2021-08-21T18:13:50Z</time>
      </trkpt>
      <trkpt lat="2.80969" lon="-75.08611">
        <ele>1494.7</ele>
        <time>2021-08-21T18:13:51Z</time>
      </trkpt>
      <trkpt lat="2.80973" lon="-75.0861">
        <ele>1494.7</ele>
        <time>2021-08-21T18:13:52Z</time>
      </trkpt>
      <trkpt lat="2.809772" lon="-75.08608">
        <ele>1494.7</ele>
        <time>2021-08-21T18:13:53Z</time>
      </trkpt>
      <trkpt lat="2.809815" lon="-75.086075">
        <ele>1494.6</ele>
        <time>2021-08-21T18:13:54Z</time>
      </trkpt>
      <trkpt lat="2.809858" lon="-75.08607">
        <ele>1494.6</ele>
        <time>2021-08-21T18:13:55Z</time>
      </trkpt>
      <trkpt lat="2.809901" lon="-75.08606">
        <ele>1494.5</ele>
        <time>2021-08-21T18:13:56Z</time>
      </trkpt>
      <trkpt lat="2.809944" lon="-75.08606">
        <ele>1494.5</ele>
        <time>2021-08-21T18:13:57Z</time>
      </trkpt>
      <trkpt lat="2.809988" lon="-75.08606">
        <ele>1494.4</ele>
        <time>2021-08-21T18:13:58Z</time>
      </trkpt>
      <trkpt lat="2.810033" lon="-75.08606">
        <ele>1494.3</ele>
        <time>2021-08-21T18:13:59Z</time>
      </trkpt>
      <trkpt lat="2.81008" lon="-75.08607">
        <ele>1494.2</ele>
        <time>2021-08-21T18:14:00Z</time>
      </trkpt>
      <trkpt lat="2.810122" lon="-75.08608">
        <ele>1494.2</ele>
        <time>2021-08-21T18:14:01Z</time>
      </trkpt>
      <trkpt lat="2.810163" lon="-75.0861">
        <ele>1494.1</ele>
        <time>2021-08-21T18:14:02Z</time>
      </trkpt>
      <trkpt lat="2.810201" lon="-75.08611">
        <ele>1494.0</ele>
        <time>2021-08-21T18:14:03Z</time>
      </trkpt>
      <trkpt lat="2.810236" lon="-75.086136">
        <ele>1493.9</ele>
        <time>2021-08-21T18:14:04Z</time>
      </trkpt>
      <trkpt lat="2.81027" lon="-75.08617">
        <ele>1493.7</ele>
        <time>2021-08-21T18:14:05Z</time>
      </trkpt>
      <trkpt lat="2.810304" lon="-75.086205">
        <ele>1493.6</ele>
        <time>2021-08-21T18:14:06Z</time>
      </trkpt>
      <trkpt lat="2.810337" lon="-75.086235">
        <ele>1493.5</ele>
        <time>2021-08-21T18:14:07Z</time>
      </trkpt>
      <trkpt lat="2.810367" lon="-75.08627">
        <ele>1493.4</ele>
        <time>2021-08-21T18:14:07Z</time>
      </trkpt>
      <trkpt lat="2.810399" lon="-75.08631">
        <ele>1493.3</ele>
        <time>2021-08-21T18:14:08Z</time>
      </trkpt>
      <trkpt lat="2.81043" lon="-75.08635">
        <ele>1493.1</ele>
        <time>2021-08-21T18:14:09Z</time>
      </trkpt>
      <trkpt lat="2.810462" lon="-75.08639">
        <ele>1493.0</ele>
        <time>2021-08-21T18:14:10Z</time>
      </trkpt>
      <trkpt lat="2.810494" lon="-75.086426">
        <ele>1492.8</ele>
        <time>2021-08-21T18:14:11Z</time>
      </trkpt>
      <trkpt lat="2.810523" lon="-75.08647">
        <ele>1492.6</ele>
        <time>2021-08-21T18:14:12Z</time>
      </trkpt>
      <trkpt lat="2.810552" lon="-75.08652">
        <ele>1492.4</ele>
        <time>2021-08-21T18:14:13Z</time>
      </trkpt>
      <trkpt lat="2.81058" lon="-75.08656">
        <ele>1492.2</ele>
        <time>2021-08-21T18:14:14Z</time>
      </trkpt>
      <trkpt lat="2.81061" lon="-75.08661">
        <ele>1491.9</ele>
        <time>2021-08-21T18:14:15Z</time>
      </trkpt>
      <trkpt lat="2.810639" lon="-75.086655">
        <ele>1491.6</ele>
        <time>2021-08-21T18:14:16Z</time>
      </trkpt>
      <trkpt lat="2.81067" lon="-75.08669">
        <ele>1491.3</ele>
        <time>2021-08-21T18:14:17Z</time>
      </trkpt>
      <trkpt lat="2.810699" lon="-75.08674">
        <ele>1490.9</ele>
        <time>2021-08-21T18:14:18Z</time>
      </trkpt>
      <trkpt lat="2.810727" lon="-75.086784">
        <ele>1490.5</ele>
        <time>2021-08-21T18:14:19Z</time>
      </trkpt>
      <trkpt lat="2.810752" lon="-75.08684">
        <ele>1490.1</ele>
        <time>2021-08-21T18:14:20Z</time>
      </trkpt>
      <trkpt lat="2.810777" lon="-75.08689">
        <ele>1489.6</ele>
        <time>2021-08-21T18:14:21Z</time>
      </trkpt>
      <trkpt lat="2.810801" lon="-75.086945">
        <ele>1489.1</ele>
        <time>2021-08-21T18:14:22Z</time>
      </trkpt>
      <trkpt lat="2.810824" lon="-75.08699">
        <ele>1488.5</ele>
        <time>2021-08-21T18:14:23Z</time>
      </trkpt>
      <trkpt lat="2.81085" lon="-75.08704">
        <ele>1487.9</ele>
        <time>2021-08-21T18:14:24Z</time>
      </trkpt>
      <trkpt lat="2.810874" lon="-75.0871">
        <ele>1487.4</ele>
        <time>2021-08-21T18:14:25Z</time>
      </trkpt>
      <trkpt lat="2.810898" lon="-75.08714">
        <ele>1486.9</ele>
        <time>2021-08-21T18:14:26Z</time>
      </trkpt>
      <trkpt lat="2.810922" lon="-75.0872">
        <ele>1486.3</ele>
        <time>2021-08-21T18:14:27Z</time>
      </trkpt>
      <trkpt lat="2.810946" lon="-75.08724">
        <ele>1485.7</ele>
        <time>2021-08-21T18:14:28Z</time>
      </trkpt>
      <trkpt lat="2.810971" lon="-75.087296">
        <ele>1485.2</ele>
        <time>2021-08-21T18:14:29Z</time>
      </trkpt>
      <trkpt lat="2.810995" lon="-75.08734">
        <ele>1484.7</ele>
        <time>2021-08-21T18:14:30Z</time>
      </trkpt>
      <trkpt lat="2.811018" lon="-75.087395">
        <ele>1484.1</ele>
        <time>2021-08-21T18:14:31Z</time>
      </trkpt>
      <trkpt lat="2.811042" lon="-75.08744">
        <ele>1483.6</ele>
        <time>2021-08-21T18:14:32Z</time>
      </trkpt>
      <trkpt lat="2.811065" lon="-75.08749">
        <ele>1483.0</ele>
        <time>2021-08-21T18:14:33Z</time>
      </trkpt>
      <trkpt lat="2.811089" lon="-75.08754">
        <ele>1482.5</ele>
        <time>2021-08-21T18:14:34Z</time>
      </trkpt>
      <trkpt lat="2.811114" lon="-75.08758">
        <ele>1482.0</ele>
        <time>2021-08-21T18:14:35Z</time>
      </trkpt>
      <trkpt lat="2.81114" lon="-75.087616">
        <ele>1481.6</ele>
        <time>2021-08-21T18:14:36Z</time>
      </trkpt>
      <trkpt lat="2.811169" lon="-75.08766">
        <ele>1481.1</ele>
        <time>2021-08-21T18:14:37Z</time>
      </trkpt>
      <trkpt lat="2.811197" lon="-75.08771">
        <ele>1480.6</ele>
        <time>2021-08-21T18:14:38Z</time>
      </trkpt>
      <trkpt lat="2.811226" lon="-75.08775">
        <ele>1480.1</ele>
        <time>2021-08-21T18:14:39Z</time>
      </trkpt>
      <trkpt lat="2.811257" lon="-75.0878">
        <ele>1479.6</ele>
        <time>2021-08-21T18:14:40Z</time>
      </trkpt>
      <trkpt lat="2.811291" lon="-75.08785">
        <ele>1479.0</ele>
        <time>2021-08-21T18:14:41Z</time>
      </trkpt>
      <trkpt lat="2.81133" lon="-75.0879">
        <ele>1478.3</ele>
        <time>2021-08-21T18:14:42Z</time>
      </trkpt>
      <trkpt lat="2.811372" lon="-75.08794">
        <ele>1477.7</ele>
        <time>2021-08-21T18:14:43Z</time>
      </trkpt>
      <trkpt lat="2.811417" lon="-75.08798">
        <ele>1477.2</ele>
        <time>2021-08-21T18:14:44Z</time>
      </trkpt>
      <trkpt lat="2.811465" lon="-75.08801">
        <ele>1476.8</ele>
        <time>2021-08-21T18:14:45Z</time>
      </trkpt>
      <trkpt lat="2.811513" lon="-75.088036">
        <ele>1476.5</ele>
        <time>2021-08-21T18:14:46Z</time>
      </trkpt>
      <trkpt lat="2.811564" lon="-75.08806">
        <ele>1476.3</ele>
        <time>2021-08-21T18:14:47Z</time>
      </trkpt>
      <trkpt lat="2.811618" lon="-75.08808">
        <ele>1476.0</ele>
        <time>2021-08-21T18:14:48Z</time>
      </trkpt>
      <trkpt lat="2.811673" lon="-75.0881">
        <ele>1475.7</ele>
        <time>2021-08-21T18:14:49Z</time>
      </trkpt>
      <trkpt lat="2.811727" lon="-75.08811">
        <ele>1475.5</ele>
        <time>2021-08-21T18:14:50Z</time>
      </trkpt>
      <trkpt lat="2.811781" lon="-75.08813">
        <ele>1475.2</ele>
        <time>2021-08-21T18:14:51Z</time>
      </trkpt>
      <trkpt lat="2.811836" lon="-75.08814">
        <ele>1474.9</ele>
        <time>2021-08-21T18:14:52Z</time>
      </trkpt>
      <trkpt lat="2.811895" lon="-75.08816">
        <ele>1474.6</ele>
        <time>2021-08-21T18:14:53Z</time>
      </trkpt>
      <trkpt lat="2.811954" lon="-75.08818">
        <ele>1474.2</ele>
        <time>2021-08-21T18:14:54Z</time>
      </trkpt>
      <trkpt lat="2.812007" lon="-75.0882">
        <ele>1474.0</ele>
        <time>2021-08-21T18:14:55Z</time>
      </trkpt>
      <trkpt lat="2.812062" lon="-75.088234">
        <ele>1473.4</ele>
        <time>2021-08-21T18:14:56Z</time>
      </trkpt>
      <trkpt lat="2.812109" lon="-75.08827">
        <ele>1472.9</ele>
        <time>2021-08-21T18:14:57Z</time>
      </trkpt>
      <trkpt lat="2.812157" lon="-75.08831">
        <ele>1472.3</ele>
        <time>2021-08-21T18:14:58Z</time>
      </trkpt>
      <trkpt lat="2.812209" lon="-75.088356">
        <ele>1471.6</ele>
        <time>2021-08-21T18:14:59Z</time>
      </trkpt>
      <trkpt lat="2.812257" lon="-75.0884">
        <ele>1471.1</ele>
        <time>2021-08-21T18:15:00Z</time>
      </trkpt>
      <trkpt lat="2.81246" lon="-75.08858">
        <ele>1469.0</ele>
        <time>2021-08-21T18:15:02Z</time>
      </trkpt>
      <trkpt lat="2.812471" lon="-75.088585">
        <ele>1468.9</ele>
        <time>2021-08-21T18:15:03Z</time>
      </trkpt>
      <trkpt lat="2.812495" lon="-75.0886">
        <ele>1468.8</ele>
        <time>2021-08-21T18:15:04Z</time>
      </trkpt>
      <trkpt lat="2.812527" lon="-75.08862">
        <ele>1468.6</ele>
        <time>2021-08-21T18:15:05Z</time>
      </trkpt>
      <trkpt lat="2.812563" lon="-75.08865">
        <ele>1468.3</ele>
        <time>2021-08-21T18:15:06Z</time>
      </trkpt>
      <trkpt lat="2.812602" lon="-75.08869">
        <ele>1468.1</ele>
        <time>2021-08-21T18:15:07Z</time>
      </trkpt>
      <trkpt lat="2.81264" lon="-75.08872">
        <ele>1467.9</ele>
        <time>2021-08-21T18:15:08Z</time>
      </trkpt>
      <trkpt lat="2.812678" lon="-75.08876">
        <ele>1467.7</ele>
        <time>2021-08-21T18:15:09Z</time>
      </trkpt>
      <trkpt lat="2.812714" lon="-75.08879">
        <ele>1467.5</ele>
        <time>2021-08-21T18:15:10Z</time>
      </trkpt>
      <trkpt lat="2.812753" lon="-75.08883">
        <ele>1467.3</ele>
        <time>2021-08-21T18:15:11Z</time>
      </trkpt>
      <trkpt lat="2.812791" lon="-75.08887">
        <ele>1467.1</ele>
        <time>2021-08-21T18:15:12Z</time>
      </trkpt>
      <trkpt lat="2.812826" lon="-75.0889">
        <ele>1466.8</ele>
        <time>2021-08-21T18:15:13Z</time>
      </trkpt>
      <trkpt lat="2.812855" lon="-75.08893">
        <ele>1466.6</ele>
        <time>2021-08-21T18:15:14Z</time>
      </trkpt>
      <trkpt lat="2.812877" lon="-75.08895">
        <ele>1466.4</ele>
        <time>2021-08-21T18:15:15Z</time>
      </trkpt>
      <trkpt lat="2.812894" lon="-75.088974">
        <ele>1466.3</ele>
        <time>2021-08-21T18:15:16Z</time>
      </trkpt>
      <trkpt lat="2.812906" lon="-75.08899">
        <ele>1466.1</ele>
        <time>2021-08-21T18:15:17Z</time>
      </trkpt>
      <trkpt lat="2.81295" lon="-75.08915">
        <ele>1464.8</ele>
        <time>2021-08-21T18:16:07Z</time>
      </trkpt>
      <trkpt lat="2.812948" lon="-75.08916">
        <ele>1464.8</ele>
        <time>2021-08-21T18:16:08Z</time>
      </trkpt>
      <trkpt lat="2.812948" lon="-75.08918">
        <ele>1464.6</ele>
        <time>2021-08-21T18:16:09Z</time>
      </trkpt>
      <trkpt lat="2.812948" lon="-75.08921">
        <ele>1464.3</ele>
        <time>2021-08-21T18:16:10Z</time>
      </trkpt>
      <trkpt lat="2.812949" lon="-75.08925">
        <ele>1464.0</ele>
        <time>2021-08-21T18:16:11Z</time>
      </trkpt>
      <trkpt lat="2.812951" lon="-75.089294">
        <ele>1463.5</ele>
        <time>2021-08-21T18:16:12Z</time>
      </trkpt>
      <trkpt lat="2.812957" lon="-75.08934">
        <ele>1463.0</ele>
        <time>2021-08-21T18:16:13Z</time>
      </trkpt>
      <trkpt lat="2.812966" lon="-75.08939">
        <ele>1462.4</ele>
        <time>2021-08-21T18:16:14Z</time>
      </trkpt>
      <trkpt lat="2.812979" lon="-75.08945">
        <ele>1461.8</ele>
        <time>2021-08-21T18:16:15Z</time>
      </trkpt>
      <trkpt lat="2.812995" lon="-75.0895">
        <ele>1461.2</ele>
        <time>2021-08-21T18:16:16Z</time>
      </trkpt>
      <trkpt lat="2.813013" lon="-75.08956">
        <ele>1460.6</ele>
        <time>2021-08-21T18:16:17Z</time>
      </trkpt>
      <trkpt lat="2.813033" lon="-75.08962">
        <ele>1459.9</ele>
        <time>2021-08-21T18:16:18Z</time>
      </trkpt>
      <trkpt lat="2.813055" lon="-75.089676">
        <ele>1459.3</ele>
        <time>2021-08-21T18:16:19Z</time>
      </trkpt>
      <trkpt lat="2.813081" lon="-75.08974">
        <ele>1458.6</ele>
        <time>2021-08-21T18:16:20Z</time>
      </trkpt>
      <trkpt lat="2.81311" lon="-75.08979">
        <ele>1458.0</ele>
        <time>2021-08-21T18:16:21Z</time>
      </trkpt>
      <trkpt lat="2.813143" lon="-75.08985">
        <ele>1457.3</ele>
        <time>2021-08-21T18:16:22Z</time>
      </trkpt>
      <trkpt lat="2.81318" lon="-75.08991">
        <ele>1456.7</ele>
        <time>2021-08-21T18:16:23Z</time>
      </trkpt>
      <trkpt lat="2.813219" lon="-75.089966">
        <ele>1456.2</ele>
        <time>2021-08-21T18:16:24Z</time>
      </trkpt>
      <trkpt lat="2.813256" lon="-75.09002">
        <ele>1455.7</ele>
        <time>2021-08-21T18:16:25Z</time>
      </trkpt>
      <trkpt lat="2.813292" lon="-75.09007">
        <ele>1455.3</ele>
        <time>2021-08-21T18:16:26Z</time>
      </trkpt>
      <trkpt lat="2.813328" lon="-75.090126">
        <ele>1454.9</ele>
        <time>2021-08-21T18:16:27Z</time>
      </trkpt>
      <trkpt lat="2.813365" lon="-75.09018">
        <ele>1454.5</ele>
        <time>2021-08-21T18:16:28Z</time>
      </trkpt>
      <trkpt lat="2.813403" lon="-75.090225">
        <ele>1454.1</ele>
        <time>2021-08-21T18:16:29Z</time>
      </trkpt>
      <trkpt lat="2.813443" lon="-75.09027">
        <ele>1453.8</ele>
        <time>2021-08-21T18:16:30Z</time>
      </trkpt>
      <trkpt lat="2.813487" lon="-75.09031">
        <ele>1453.5</ele>
        <time>2021-08-21T18:16:31Z</time>
      </trkpt>
      <trkpt lat="2.813533" lon="-75.09034">
        <ele>1453.2</ele>
        <time>2021-08-21T18:16:32Z</time>
      </trkpt>
      <trkpt lat="2.813584" lon="-75.09036">
        <ele>1452.9</ele>
        <time>2021-08-21T18:16:33Z</time>
      </trkpt>
      <trkpt lat="2.813635" lon="-75.09038">
        <ele>1452.6</ele>
        <time>2021-08-21T18:16:34Z</time>
      </trkpt>
      <trkpt lat="2.813687" lon="-75.090385">
        <ele>1452.3</ele>
        <time>2021-08-21T18:16:35Z</time>
      </trkpt>
      <trkpt lat="2.813739" lon="-75.090385">
        <ele>1452.1</ele>
        <time>2021-08-21T18:16:36Z</time>
      </trkpt>
      <trkpt lat="2.813789" lon="-75.090385">
        <ele>1451.9</ele>
        <time>2021-08-21T18:16:37Z</time>
      </trkpt>
      <trkpt lat="2.813838" lon="-75.09038">
        <ele>1451.6</ele>
        <time>2021-08-21T18:16:38Z</time>
      </trkpt>
      <trkpt lat="2.813886" lon="-75.09037">
        <ele>1451.4</ele>
        <time>2021-08-21T18:16:39Z</time>
      </trkpt>
      <trkpt lat="2.813936" lon="-75.090355">
        <ele>1451.1</ele>
        <time>2021-08-21T18:16:40Z</time>
      </trkpt>
      <trkpt lat="2.813981" lon="-75.09035">
        <ele>1450.8</ele>
        <time>2021-08-21T18:16:41Z</time>
      </trkpt>
      <trkpt lat="2.81403" lon="-75.090324">
        <ele>1450.5</ele>
        <time>2021-08-21T18:16:42Z</time>
      </trkpt>
      <trkpt lat="2.814078" lon="-75.09031">
        <ele>1450.2</ele>
        <time>2021-08-21T18:16:43Z</time>
      </trkpt>
      <trkpt lat="2.814125" lon="-75.090294">
        <ele>1449.9</ele>
        <time>2021-08-21T18:16:44Z</time>
      </trkpt>
      <trkpt lat="2.814168" lon="-75.09028">
        <ele>1449.7</ele>
        <time>2021-08-21T18:16:45Z</time>
      </trkpt>
      <trkpt lat="2.81421" lon="-75.090256">
        <ele>1449.5</ele>
        <time>2021-08-21T18:16:46Z</time>
      </trkpt>
      <trkpt lat="2.814256" lon="-75.09023">
        <ele>1449.2</ele>
        <time>2021-08-21T18:16:47Z</time>
      </trkpt>
      <trkpt lat="2.814307" lon="-75.09021">
        <ele>1449.0</ele>
        <time>2021-08-21T18:16:48Z</time>
      </trkpt>
      <trkpt lat="2.814357" lon="-75.090195">
        <ele>1448.7</ele>
        <time>2021-08-21T18:16:49Z</time>
      </trkpt>
      <trkpt lat="2.814402" lon="-75.09017">
        <ele>1448.5</ele>
        <time>2021-08-21T18:16:50Z</time>
      </trkpt>
      <trkpt lat="2.814445" lon="-75.09016">
        <ele>1448.2</ele>
        <time>2021-08-21T18:16:51Z</time>
      </trkpt>
      <trkpt lat="2.814488" lon="-75.09014">
        <ele>1448.0</ele>
        <time>2021-08-21T18:16:52Z</time>
      </trkpt>
      <trkpt lat="2.814529" lon="-75.09012">
        <ele>1447.8</ele>
        <time>2021-08-21T18:16:53Z</time>
      </trkpt>
      <trkpt lat="2.814573" lon="-75.0901">
        <ele>1447.5</ele>
        <time>2021-08-21T18:16:54Z</time>
      </trkpt>
      <trkpt lat="2.814618" lon="-75.09008">
        <ele>1447.2</ele>
        <time>2021-08-21T18:16:55Z</time>
      </trkpt>
      <trkpt lat="2.814661" lon="-75.09006">
        <ele>1447.0</ele>
        <time>2021-08-21T18:16:56Z</time>
      </trkpt>
      <trkpt lat="2.814707" lon="-75.09004">
        <ele>1446.7</ele>
        <time>2021-08-21T18:16:57Z</time>
      </trkpt>
      <trkpt lat="2.814754" lon="-75.09003">
        <ele>1446.4</ele>
        <time>2021-08-21T18:16:58Z</time>
      </trkpt>
      <trkpt lat="2.814801" lon="-75.09001">
        <ele>1446.1</ele>
        <time>2021-08-21T18:16:59Z</time>
      </trkpt>
      <trkpt lat="2.814851" lon="-75.090004">
        <ele>1445.8</ele>
        <time>2021-08-21T18:17:00Z</time>
      </trkpt>
      <trkpt lat="2.814903" lon="-75.09">
        <ele>1445.5</ele>
        <time>2021-08-21T18:17:01Z</time>
      </trkpt>
      <trkpt lat="2.814958" lon="-75.09">
        <ele>1445.1</ele>
        <time>2021-08-21T18:17:02Z</time>
      </trkpt>
      <trkpt lat="2.815013" lon="-75.090004">
        <ele>1444.7</ele>
        <time>2021-08-21T18:17:03Z</time>
      </trkpt>
      <trkpt lat="2.815067" lon="-75.09001">
        <ele>1444.3</ele>
        <time>2021-08-21T18:17:04Z</time>
      </trkpt>
      <trkpt lat="2.815118" lon="-75.09002">
        <ele>1443.9</ele>
        <time>2021-08-21T18:17:05Z</time>
      </trkpt>
      <trkpt lat="2.81517" lon="-75.09002">
        <ele>1443.5</ele>
        <time>2021-08-21T18:17:06Z</time>
      </trkpt>
      <trkpt lat="2.815227" lon="-75.09003">
        <ele>1443.1</ele>
        <time>2021-08-21T18:17:07Z</time>
      </trkpt>
      <trkpt lat="2.815281" lon="-75.09002">
        <ele>1442.6</ele>
        <time>2021-08-21T18:17:08Z</time>
      </trkpt>
      <trkpt lat="2.815333" lon="-75.09001">
        <ele>1442.2</ele>
        <time>2021-08-21T18:17:09Z</time>
      </trkpt>
      <trkpt lat="2.815382" lon="-75.090004">
        <ele>1441.8</ele>
        <time>2021-08-21T18:17:10Z</time>
      </trkpt>
      <trkpt lat="2.815433" lon="-75.08999">
        <ele>1441.4</ele>
        <time>2021-08-21T18:17:11Z</time>
      </trkpt>
      <trkpt lat="2.815487" lon="-75.08997">
        <ele>1440.9</ele>
        <time>2021-08-21T18:17:12Z</time>
      </trkpt>
      <trkpt lat="2.815542" lon="-75.08996">
        <ele>1440.4</ele>
        <time>2021-08-21T18:17:13Z</time>
      </trkpt>
      <trkpt lat="2.8156" lon="-75.089935">
        <ele>1439.9</ele>
        <time>2021-08-21T18:17:14Z</time>
      </trkpt>
      <trkpt lat="2.815661" lon="-75.08992">
        <ele>1439.3</ele>
        <time>2021-08-21T18:17:15Z</time>
      </trkpt>
      <trkpt lat="2.815727" lon="-75.0899">
        <ele>1438.7</ele>
        <time>2021-08-21T18:17:16Z</time>
      </trkpt>
      <trkpt lat="2.815794" lon="-75.089874">
        <ele>1438.0</ele>
        <time>2021-08-21T18:17:17Z</time>
      </trkpt>
      <trkpt lat="2.815857" lon="-75.08984">
        <ele>1437.3</ele>
        <time>2021-08-21T18:17:18Z</time>
      </trkpt>
      <trkpt lat="2.815923" lon="-75.08981">
        <ele>1436.7</ele>
        <time>2021-08-21T18:17:19Z</time>
      </trkpt>
      <trkpt lat="2.81599" lon="-75.08979">
        <ele>1436.0</ele>
        <time>2021-08-21T18:17:20Z</time>
      </trkpt>
      <trkpt lat="2.816058" lon="-75.08975">
        <ele>1435.4</ele>
        <time>2021-08-21T18:17:21Z</time>
      </trkpt>
      <trkpt lat="2.816133" lon="-75.08972">
        <ele>1434.7</ele>
        <time>2021-08-21T18:17:22Z</time>
      </trkpt>
      <trkpt lat="2.816204" lon="-75.08968">
        <ele>1434.0</ele>
        <time>2021-08-21T18:17:23Z</time>
      </trkpt>
      <trkpt lat="2.816277" lon="-75.08965">
        <ele>1433.4</ele>
        <time>2021-08-21T18:17:24Z</time>
      </trkpt>
      <trkpt lat="2.816353" lon="-75.08962">
        <ele>1432.8</ele>
        <time>2021-08-21T18:17:25Z</time>
      </trkpt>
      <trkpt lat="2.816435" lon="-75.08959">
        <ele>1432.2</ele>
        <time>2021-08-21T18:17:26Z</time>
      </trkpt>
      <trkpt lat="2.816515" lon="-75.089554">
        <ele>1431.6</ele>
        <time>2021-08-21T18:17:27Z</time>
      </trkpt>
      <trkpt lat="2.816589" lon="-75.089516">
        <ele>1431.1</ele>
        <time>2021-08-21T18:17:28Z</time>
      </trkpt>
      <trkpt lat="2.816664" lon="-75.08948">
        <ele>1430.6</ele>
        <time>2021-08-21T18:17:29Z</time>
      </trkpt>
      <trkpt lat="2.816741" lon="-75.08943">
        <ele>1430.1</ele>
        <time>2021-08-21T18:17:30Z</time>
      </trkpt>
      <trkpt lat="2.816813" lon="-75.089386">
        <ele>1429.7</ele>
        <time>2021-08-21T18:17:31Z</time>
      </trkpt>
      <trkpt lat="2.81688" lon="-75.08934">
        <ele>1429.4</ele>
        <time>2021-08-21T18:17:32Z</time>
      </trkpt>
      <trkpt lat="2.816944" lon="-75.08929">
        <ele>1429.0</ele>
        <time>2021-08-21T18:17:33Z</time>
      </trkpt>
      <trkpt lat="2.817003" lon="-75.08923">
        <ele>1428.6</ele>
        <time>2021-08-21T18:17:34Z</time>
      </trkpt>
      <trkpt lat="2.817057" lon="-75.08918">
        <ele>1428.3</ele>
        <time>2021-08-21T18:17:35Z</time>
      </trkpt>
      <trkpt lat="2.817112" lon="-75.08913">
        <ele>1427.9</ele>
        <time>2021-08-21T18:17:36Z</time>
      </trkpt>
      <trkpt lat="2.817165" lon="-75.089066">
        <ele>1427.5</ele>
        <time>2021-08-21T18:17:37Z</time>
      </trkpt>
      <trkpt lat="2.817214" lon="-75.089005">
        <ele>1427.1</ele>
        <time>2021-08-21T18:17:38Z</time>
      </trkpt>
      <trkpt lat="2.817258" lon="-75.08895">
        <ele>1426.7</ele>
        <time>2021-08-21T18:17:39Z</time>
      </trkpt>
      <trkpt lat="2.817303" lon="-75.0889">
        <ele>1426.3</ele>
        <time>2021-08-21T18:17:40Z</time>
      </trkpt>
      <trkpt lat="2.817346" lon="-75.08884">
        <ele>1425.9</ele>
        <time>2021-08-21T18:17:41Z</time>
      </trkpt>
      <trkpt lat="2.817386" lon="-75.088776">
        <ele>1425.5</ele>
        <time>2021-08-21T18:17:42Z</time>
      </trkpt>
      <trkpt lat="2.817422" lon="-75.08872">
        <ele>1425.1</ele>
        <time>2021-08-21T18:17:43Z</time>
      </trkpt>
      <trkpt lat="2.817458" lon="-75.08867">
        <ele>1424.7</ele>
        <time>2021-08-21T18:17:44Z</time>
      </trkpt>
      <trkpt lat="2.817498" lon="-75.08861">
        <ele>1424.3</ele>
        <time>2021-08-21T18:17:45Z</time>
      </trkpt>
      <trkpt lat="2.817537" lon="-75.08855">
        <ele>1423.9</ele>
        <time>2021-08-21T18:17:46Z</time>
      </trkpt>
      <trkpt lat="2.817575" lon="-75.08849">
        <ele>1423.6</ele>
        <time>2021-08-21T18:17:47Z</time>
      </trkpt>
      <trkpt lat="2.817616" lon="-75.08844">
        <ele>1423.2</ele>
        <time>2021-08-21T18:17:48Z</time>
      </trkpt>
      <trkpt lat="2.817658" lon="-75.08839">
        <ele>1422.9</ele>
        <time>2021-08-21T18:17:49Z</time>
      </trkpt>
      <trkpt lat="2.817703" lon="-75.08834">
        <ele>1422.6</ele>
        <time>2021-08-21T18:17:50Z</time>
      </trkpt>
      <trkpt lat="2.81775" lon="-75.088295">
        <ele>1422.2</ele>
        <time>2021-08-21T18:17:51Z</time>
      </trkpt>
      <trkpt lat="2.8178" lon="-75.08826">
        <ele>1421.9</ele>
        <time>2021-08-21T18:17:52Z</time>
      </trkpt>
      <trkpt lat="2.817851" lon="-75.08822">
        <ele>1421.6</ele>
        <time>2021-08-21T18:17:53Z</time>
      </trkpt>
      <trkpt lat="2.817903" lon="-75.08818">
        <ele>1421.3</ele>
        <time>2021-08-21T18:17:54Z</time>
      </trkpt>
      <trkpt lat="2.817954" lon="-75.08814">
        <ele>1421.0</ele>
        <time>2021-08-21T18:17:55Z</time>
      </trkpt>
      <trkpt lat="2.818007" lon="-75.088104">
        <ele>1420.7</ele>
        <time>2021-08-21T18:17:56Z</time>
      </trkpt>
      <trkpt lat="2.818061" lon="-75.088066">
        <ele>1420.3</ele>
        <time>2021-08-21T18:17:57Z</time>
      </trkpt>
      <trkpt lat="2.818113" lon="-75.088036">
        <ele>1420.0</ele>
        <time>2021-08-21T18:17:58Z</time>
      </trkpt>
      <trkpt lat="2.818164" lon="-75.088005">
        <ele>1419.6</ele>
        <time>2021-08-21T18:17:59Z</time>
      </trkpt>
      <trkpt lat="2.81822" lon="-75.087975">
        <ele>1419.2</ele>
        <time>2021-08-21T18:18:00Z</time>
      </trkpt>
      <trkpt lat="2.818274" lon="-75.087944">
        <ele>1418.8</ele>
        <time>2021-08-21T18:18:01Z</time>
      </trkpt>
      <trkpt lat="2.818327" lon="-75.08791">
        <ele>1418.4</ele>
        <time>2021-08-21T18:18:02Z</time>
      </trkpt>
      <trkpt lat="2.81838" lon="-75.08788">
        <ele>1418.0</ele>
        <time>2021-08-21T18:18:03Z</time>
      </trkpt>
      <trkpt lat="2.818432" lon="-75.087845">
        <ele>1417.7</ele>
        <time>2021-08-21T18:18:04Z</time>
      </trkpt>
      <trkpt lat="2.818481" lon="-75.08781">
        <ele>1417.3</ele>
        <time>2021-08-21T18:18:05Z</time>
      </trkpt>
      <trkpt lat="2.818525" lon="-75.08777">
        <ele>1417.0</ele>
        <time>2021-08-21T18:18:06Z</time>
      </trkpt>
      <trkpt lat="2.818563" lon="-75.08773">
        <ele>1416.8</ele>
        <time>2021-08-21T18:18:07Z</time>
      </trkpt>
      <trkpt lat="2.8186" lon="-75.087685">
        <ele>1416.5</ele>
        <time>2021-08-21T18:18:08Z</time>
      </trkpt>
      <trkpt lat="2.81864" lon="-75.08765">
        <ele>1416.2</ele>
        <time>2021-08-21T18:18:09Z</time>
      </trkpt>
      <trkpt lat="2.818681" lon="-75.0876">
        <ele>1415.9</ele>
        <time>2021-08-21T18:18:10Z</time>
      </trkpt>
      <trkpt lat="2.818719" lon="-75.087555">
        <ele>1415.6</ele>
        <time>2021-08-21T18:18:11Z</time>
      </trkpt>
      <trkpt lat="2.818757" lon="-75.08752">
        <ele>1415.4</ele>
        <time>2021-08-21T18:18:12Z</time>
      </trkpt>
      <trkpt lat="2.818799" lon="-75.08747">
        <ele>1415.1</ele>
        <time>2021-08-21T18:18:13Z</time>
      </trkpt>
      <trkpt lat="2.818839" lon="-75.087425">
        <ele>1414.8</ele>
        <time>2021-08-21T18:18:14Z</time>
      </trkpt>
      <trkpt lat="2.818877" lon="-75.08739">
        <ele>1414.5</ele>
        <time>2021-08-21T18:18:15Z</time>
      </trkpt>
      <trkpt lat="2.818917" lon="-75.08734">
        <ele>1414.1</ele>
        <time>2021-08-21T18:18:16Z</time>
      </trkpt>
      <trkpt lat="2.818958" lon="-75.0873">
        <ele>1413.7</ele>
        <time>2021-08-21T18:18:17Z</time>
      </trkpt>
      <trkpt lat="2.819" lon="-75.08726">
        <ele>1413.2</ele>
        <time>2021-08-21T18:18:18Z</time>
      </trkpt>
      <trkpt lat="2.819042" lon="-75.08721">
        <ele>1412.7</ele>
        <time>2021-08-21T18:18:19Z</time>
      </trkpt>
      <trkpt lat="2.819086" lon="-75.087166">
        <ele>1412.2</ele>
        <time>2021-08-21T18:18:20Z</time>
      </trkpt>
      <trkpt lat="2.819131" lon="-75.08712">
        <ele>1411.6</ele>
        <time>2021-08-21T18:18:21Z</time>
      </trkpt>
      <trkpt lat="2.819178" lon="-75.087074">
        <ele>1411.0</ele>
        <time>2021-08-21T18:18:22Z</time>
      </trkpt>
      <trkpt lat="2.819226" lon="-75.08703">
        <ele>1410.3</ele>
        <time>2021-08-21T18:18:22Z</time>
      </trkpt>
      <trkpt lat="2.819273" lon="-75.08698">
        <ele>1409.7</ele>
        <time>2021-08-21T18:18:23Z</time>
      </trkpt>
      <trkpt lat="2.819325" lon="-75.08693">
        <ele>1409.0</ele>
        <time>2021-08-21T18:18:24Z</time>
      </trkpt>
      <trkpt lat="2.819374" lon="-75.086876">
        <ele>1408.4</ele>
        <time>2021-08-21T18:18:25Z</time>
      </trkpt>
      <trkpt lat="2.81943" lon="-75.08682">
        <ele>1407.7</ele>
        <time>2021-08-21T18:18:26Z</time>
      </trkpt>
      <trkpt lat="2.819488" lon="-75.08676">
        <ele>1406.9</ele>
        <time>2021-08-21T18:18:27Z</time>
      </trkpt>
      <trkpt lat="2.819551" lon="-75.08671">
        <ele>1406.2</ele>
        <time>2021-08-21T18:18:28Z</time>
      </trkpt>
      <trkpt lat="2.819622" lon="-75.08666">
        <ele>1405.4</ele>
        <time>2021-08-21T18:18:29Z</time>
      </trkpt>
      <trkpt lat="2.819703" lon="-75.086624">
        <ele>1404.5</ele>
        <time>2021-08-21T18:18:30Z</time>
      </trkpt>
      <trkpt lat="2.81978" lon="-75.0866">
        <ele>1403.7</ele>
        <time>2021-08-21T18:18:31Z</time>
      </trkpt>
      <trkpt lat="2.819868" lon="-75.08658">
        <ele>1402.7</ele>
        <time>2021-08-21T18:18:32Z</time>
      </trkpt>
      <trkpt lat="2.819957" lon="-75.086555">
        <ele>1401.8</ele>
        <time>2021-08-21T18:18:33Z</time>
      </trkpt>
      <trkpt lat="2.820047" lon="-75.08653">
        <ele>1400.8</ele>
        <time>2021-08-21T18:18:34Z</time>
      </trkpt>
      <trkpt lat="2.820127" lon="-75.08651">
        <ele>1399.9</ele>
        <time>2021-08-21T18:18:35Z</time>
      </trkpt>
      <trkpt lat="2.820206" lon="-75.08649">
        <ele>1399.0</ele>
        <time>2021-08-21T18:18:36Z</time>
      </trkpt>
      <trkpt lat="2.820286" lon="-75.086464">
        <ele>1398.2</ele>
        <time>2021-08-21T18:18:37Z</time>
      </trkpt>
      <trkpt lat="2.82037" lon="-75.08645">
        <ele>1397.4</ele>
        <time>2021-08-21T18:18:38Z</time>
      </trkpt>
      <trkpt lat="2.820447" lon="-75.08643">
        <ele>1396.7</ele>
        <time>2021-08-21T18:18:39Z</time>
      </trkpt>
      <trkpt lat="2.820525" lon="-75.08642">
        <ele>1396.1</ele>
        <time>2021-08-21T18:18:40Z</time>
      </trkpt>
      <trkpt lat="2.820605" lon="-75.0864">
        <ele>1395.5</ele>
        <time>2021-08-21T18:18:41Z</time>
      </trkpt>
      <trkpt lat="2.820685" lon="-75.08639">
        <ele>1395.0</ele>
        <time>2021-08-21T18:18:42Z</time>
      </trkpt>
      <trkpt lat="2.820765" lon="-75.086365">
        <ele>1394.4</ele>
        <time>2021-08-21T18:18:43Z</time>
      </trkpt>
      <trkpt lat="2.820844" lon="-75.08634">
        <ele>1393.9</ele>
        <time>2021-08-21T18:18:44Z</time>
      </trkpt>
      <trkpt lat="2.820922" lon="-75.08631">
        <ele>1393.5</ele>
        <time>2021-08-21T18:18:45Z</time>
      </trkpt>
      <trkpt lat="2.820997" lon="-75.08628">
        <ele>1393.1</ele>
        <time>2021-08-21T18:18:46Z</time>
      </trkpt>
      <trkpt lat="2.82107" lon="-75.08624">
        <ele>1392.7</ele>
        <time>2021-08-21T18:18:47Z</time>
      </trkpt>
      <trkpt lat="2.821141" lon="-75.08621">
        <ele>1392.4</ele>
        <time>2021-08-21T18:18:48Z</time>
      </trkpt>
      <trkpt lat="2.82121" lon="-75.08618">
        <ele>1392.2</ele>
        <time>2021-08-21T18:18:49Z</time>
      </trkpt>
      <trkpt lat="2.821276" lon="-75.08615">
        <ele>1392.1</ele>
        <time>2021-08-21T18:18:50Z</time>
      </trkpt>
      <trkpt lat="2.821342" lon="-75.08612">
        <ele>1392.0</ele>
        <time>2021-08-21T18:18:51Z</time>
      </trkpt>
      <trkpt lat="2.821398" lon="-75.08609">
        <ele>1391.9</ele>
        <time>2021-08-21T18:18:52Z</time>
      </trkpt>
      <trkpt lat="2.821452" lon="-75.08607">
        <ele>1391.8</ele>
        <time>2021-08-21T18:18:53Z</time>
      </trkpt>
      <trkpt lat="2.821503" lon="-75.08605">
        <ele>1391.7</ele>
        <time>2021-08-21T18:18:54Z</time>
      </trkpt>
      <trkpt lat="2.821552" lon="-75.08604">
        <ele>1391.5</ele>
        <time>2021-08-21T18:18:55Z</time>
      </trkpt>
      <trkpt lat="2.821599" lon="-75.08601">
        <ele>1391.3</ele>
        <time>2021-08-21T18:18:56Z</time>
      </trkpt>
      <trkpt lat="2.821645" lon="-75.086">
        <ele>1391.1</ele>
        <time>2021-08-21T18:18:57Z</time>
      </trkpt>
      <trkpt lat="2.821692" lon="-75.08598">
        <ele>1390.9</ele>
        <time>2021-08-21T18:18:58Z</time>
      </trkpt>
      <trkpt lat="2.821738" lon="-75.085976">
        <ele>1390.7</ele>
        <time>2021-08-21T18:18:59Z</time>
      </trkpt>
      <trkpt lat="2.821784" lon="-75.08596">
        <ele>1390.4</ele>
        <time>2021-08-21T18:19:00Z</time>
      </trkpt>
      <trkpt lat="2.821834" lon="-75.085945">
        <ele>1390.1</ele>
        <time>2021-08-21T18:19:01Z</time>
      </trkpt>
      <trkpt lat="2.821886" lon="-75.08594">
        <ele>1389.8</ele>
        <time>2021-08-21T18:19:02Z</time>
      </trkpt>
      <trkpt lat="2.821938" lon="-75.08593">
        <ele>1389.4</ele>
        <time>2021-08-21T18:19:03Z</time>
      </trkpt>
      <trkpt lat="2.821985" lon="-75.08592">
        <ele>1389.1</ele>
        <time>2021-08-21T18:19:04Z</time>
      </trkpt>
      <trkpt lat="2.822033" lon="-75.08592">
        <ele>1388.7</ele>
        <time>2021-08-21T18:19:05Z</time>
      </trkpt>
      <trkpt lat="2.822082" lon="-75.08594">
        <ele>1388.3</ele>
        <time>2021-08-21T18:19:06Z</time>
      </trkpt>
      <trkpt lat="2.822134" lon="-75.085945">
        <ele>1387.9</ele>
        <time>2021-08-21T18:19:07Z</time>
      </trkpt>
      <trkpt lat="2.822188" lon="-75.08597">
        <ele>1387.5</ele>
        <time>2021-08-21T18:19:08Z</time>
      </trkpt>
      <trkpt lat="2.822241" lon="-75.08598">
        <ele>1387.2</ele>
        <time>2021-08-21T18:19:09Z</time>
      </trkpt>
      <trkpt lat="2.822294" lon="-75.08601">
        <ele>1386.8</ele>
        <time>2021-08-21T18:19:10Z</time>
      </trkpt>
      <trkpt lat="2.822348" lon="-75.08604">
        <ele>1386.5</ele>
        <time>2021-08-21T18:19:11Z</time>
      </trkpt>
      <trkpt lat="2.822398" lon="-75.08607">
        <ele>1386.3</ele>
        <time>2021-08-21T18:19:12Z</time>
      </trkpt>
      <trkpt lat="2.82245" lon="-75.0861">
        <ele>1386.1</ele>
        <time>2021-08-21T18:19:13Z</time>
      </trkpt>
      <trkpt lat="2.822503" lon="-75.08613">
        <ele>1385.9</ele>
        <time>2021-08-21T18:19:14Z</time>
      </trkpt>
      <trkpt lat="2.822555" lon="-75.08616">
        <ele>1385.8</ele>
        <time>2021-08-21T18:19:15Z</time>
      </trkpt>
      <trkpt lat="2.822606" lon="-75.08619">
        <ele>1385.7</ele>
        <time>2021-08-21T18:19:16Z</time>
      </trkpt>
      <trkpt lat="2.822658" lon="-75.08623">
        <ele>1385.6</ele>
        <time>2021-08-21T18:19:17Z</time>
      </trkpt>
      <trkpt lat="2.822704" lon="-75.08626">
        <ele>1385.5</ele>
        <time>2021-08-21T18:19:18Z</time>
      </trkpt>
      <trkpt lat="2.82275" lon="-75.08629">
        <ele>1385.4</ele>
        <time>2021-08-21T18:19:19Z</time>
      </trkpt>
      <trkpt lat="2.822797" lon="-75.08632">
        <ele>1385.3</ele>
        <time>2021-08-21T18:19:20Z</time>
      </trkpt>
      <trkpt lat="2.822843" lon="-75.08634">
        <ele>1385.2</ele>
        <time>2021-08-21T18:19:21Z</time>
      </trkpt>
      <trkpt lat="2.822886" lon="-75.08637">
        <ele>1385.1</ele>
        <time>2021-08-21T18:19:22Z</time>
      </trkpt>
      <trkpt lat="2.822925" lon="-75.0864">
        <ele>1385.0</ele>
        <time>2021-08-21T18:19:23Z</time>
      </trkpt>
      <trkpt lat="2.822962" lon="-75.086426">
        <ele>1384.9</ele>
        <time>2021-08-21T18:19:24Z</time>
      </trkpt>
      <trkpt lat="2.822995" lon="-75.086464">
        <ele>1384.9</ele>
        <time>2021-08-21T18:19:25Z</time>
      </trkpt>
      <trkpt lat="2.823021" lon="-75.0865">
        <ele>1384.8</ele>
        <time>2021-08-21T18:19:26Z</time>
      </trkpt>
      <trkpt lat="2.823043" lon="-75.08654">
        <ele>1384.8</ele>
        <time>2021-08-21T18:19:27Z</time>
      </trkpt>
      <trkpt lat="2.823059" lon="-75.08658">
        <ele>1384.8</ele>
        <time>2021-08-21T18:19:28Z</time>
      </trkpt>
      <trkpt lat="2.823072" lon="-75.08662">
        <ele>1384.9</ele>
        <time>2021-08-21T18:19:29Z</time>
      </trkpt>
      <trkpt lat="2.823082" lon="-75.086655">
        <ele>1384.9</ele>
        <time>2021-08-21T18:19:30Z</time>
      </trkpt>
      <trkpt lat="2.823091" lon="-75.08669">
        <ele>1384.9</ele>
        <time>2021-08-21T18:19:31Z</time>
      </trkpt>
      <trkpt lat="2.823098" lon="-75.08673">
        <ele>1385.0</ele>
        <time>2021-08-21T18:19:32Z</time>
      </trkpt>
      <trkpt lat="2.823104" lon="-75.08676">
        <ele>1385.0</ele>
        <time>2021-08-21T18:19:33Z</time>
      </trkpt>
      <trkpt lat="2.823111" lon="-75.08679">
        <ele>1385.1</ele>
        <time>2021-08-21T18:19:34Z</time>
      </trkpt>
      <trkpt lat="2.823118" lon="-75.08682">
        <ele>1385.1</ele>
        <time>2021-08-21T18:19:35Z</time>
      </trkpt>
      <trkpt lat="2.823125" lon="-75.08685">
        <ele>1385.2</ele>
        <time>2021-08-21T18:19:36Z</time>
      </trkpt>
      <trkpt lat="2.823133" lon="-75.08688">
        <ele>1385.2</ele>
        <time>2021-08-21T18:19:37Z</time>
      </trkpt>
      <trkpt lat="2.823142" lon="-75.08691">
        <ele>1385.2</ele>
        <time>2021-08-21T18:19:38Z</time>
      </trkpt>
      <trkpt lat="2.823151" lon="-75.08694">
        <ele>1385.3</ele>
        <time>2021-08-21T18:19:39Z</time>
      </trkpt>
      <trkpt lat="2.823159" lon="-75.08696">
        <ele>1385.3</ele>
        <time>2021-08-21T18:19:40Z</time>
      </trkpt>
      <trkpt lat="2.823167" lon="-75.08699">
        <ele>1385.4</ele>
        <time>2021-08-21T18:19:41Z</time>
      </trkpt>
      <trkpt lat="2.823175" lon="-75.08701">
        <ele>1385.4</ele>
        <time>2021-08-21T18:19:42Z</time>
      </trkpt>
      <trkpt lat="2.823183" lon="-75.08704">
        <ele>1385.4</ele>
        <time>2021-08-21T18:19:43Z</time>
      </trkpt>
      <trkpt lat="2.823192" lon="-75.087074">
        <ele>1385.5</ele>
        <time>2021-08-21T18:19:44Z</time>
      </trkpt>
      <trkpt lat="2.823202" lon="-75.087105">
        <ele>1385.5</ele>
        <time>2021-08-21T18:19:45Z</time>
      </trkpt>
      <trkpt lat="2.823212" lon="-75.08713">
        <ele>1385.5</ele>
        <time>2021-08-21T18:19:46Z</time>
      </trkpt>
      <trkpt lat="2.823222" lon="-75.08716">
        <ele>1385.6</ele>
        <time>2021-08-21T18:19:47Z</time>
      </trkpt>
      <trkpt lat="2.823231" lon="-75.08719">
        <ele>1385.6</ele>
        <time>2021-08-21T18:19:48Z</time>
      </trkpt>
      <trkpt lat="2.823242" lon="-75.08721">
        <ele>1385.7</ele>
        <time>2021-08-21T18:19:49Z</time>
      </trkpt>
      <trkpt lat="2.823253" lon="-75.08724">
        <ele>1385.7</ele>
        <time>2021-08-21T18:19:50Z</time>
      </trkpt>
      <trkpt lat="2.823263" lon="-75.087265">
        <ele>1385.8</ele>
        <time>2021-08-21T18:19:51Z</time>
      </trkpt>
      <trkpt lat="2.823272" lon="-75.087296">
        <ele>1385.8</ele>
        <time>2021-08-21T18:19:52Z</time>
      </trkpt>
      <trkpt lat="2.823282" lon="-75.08732">
        <ele>1385.9</ele>
        <time>2021-08-21T18:19:53Z</time>
      </trkpt>
      <trkpt lat="2.823291" lon="-75.08735">
        <ele>1385.9</ele>
        <time>2021-08-21T18:19:54Z</time>
      </trkpt>
      <trkpt lat="2.8233" lon="-75.08737">
        <ele>1386.0</ele>
        <time>2021-08-21T18:19:55Z</time>
      </trkpt>
      <trkpt lat="2.823307" lon="-75.087395">
        <ele>1386.0</ele>
        <time>2021-08-21T18:19:56Z</time>
      </trkpt>
      <trkpt lat="2.823315" lon="-75.087425">
        <ele>1386.1</ele>
        <time>2021-08-21T18:19:57Z</time>
      </trkpt>
      <trkpt lat="2.823325" lon="-75.08745">
        <ele>1386.1</ele>
        <time>2021-08-21T18:19:58Z</time>
      </trkpt>
      <trkpt lat="2.823335" lon="-75.08747">
        <ele>1386.2</ele>
        <time>2021-08-21T18:19:59Z</time>
      </trkpt>
      <trkpt lat="2.823345" lon="-75.087494">
        <ele>1386.2</ele>
        <time>2021-08-21T18:20:00Z</time>
      </trkpt>
      <trkpt lat="2.823355" lon="-75.08752">
        <ele>1386.3</ele>
        <time>2021-08-21T18:20:01Z</time>
      </trkpt>
      <trkpt lat="2.823366" lon="-75.08754">
        <ele>1386.3</ele>
        <time>2021-08-21T18:20:02Z</time>
      </trkpt>
      <trkpt lat="2.823378" lon="-75.08756">
        <ele>1386.4</ele>
        <time>2021-08-21T18:20:03Z</time>
      </trkpt>
      <trkpt lat="2.823393" lon="-75.087585">
        <ele>1386.5</ele>
        <time>2021-08-21T18:20:04Z</time>
      </trkpt>
      <trkpt lat="2.823408" lon="-75.087616">
        <ele>1386.5</ele>
        <time>2021-08-21T18:20:05Z</time>
      </trkpt>
      <trkpt lat="2.823424" lon="-75.08764">
        <ele>1386.6</ele>
        <time>2021-08-21T18:20:06Z</time>
      </trkpt>
      <trkpt lat="2.82344" lon="-75.08766">
        <ele>1386.6</ele>
        <time>2021-08-21T18:20:07Z</time>
      </trkpt>
      <trkpt lat="2.823456" lon="-75.08769">
        <ele>1386.6</ele>
        <time>2021-08-21T18:20:08Z</time>
      </trkpt>
      <trkpt lat="2.823471" lon="-75.087715">
        <ele>1386.7</ele>
        <time>2021-08-21T18:20:09Z</time>
      </trkpt>
      <trkpt lat="2.823485" lon="-75.08774">
        <ele>1386.7</ele>
        <time>2021-08-21T18:20:10Z</time>
      </trkpt>
      <trkpt lat="2.8235" lon="-75.08776">
        <ele>1386.7</ele>
        <time>2021-08-21T18:20:11Z</time>
      </trkpt>
      <trkpt lat="2.823514" lon="-75.08779">
        <ele>1386.8</ele>
        <time>2021-08-21T18:20:12Z</time>
      </trkpt>
      <trkpt lat="2.823526" lon="-75.087814">
        <ele>1386.8</ele>
        <time>2021-08-21T18:20:13Z</time>
      </trkpt>
      <trkpt lat="2.823537" lon="-75.08784">
        <ele>1386.8</ele>
        <time>2021-08-21T18:20:14Z</time>
      </trkpt>
      <trkpt lat="2.823548" lon="-75.08787">
        <ele>1386.8</ele>
        <time>2021-08-21T18:20:15Z</time>
      </trkpt>
      <trkpt lat="2.823558" lon="-75.08789">
        <ele>1386.8</ele>
        <time>2021-08-21T18:20:16Z</time>
      </trkpt>
      <trkpt lat="2.823566" lon="-75.08792">
        <ele>1386.9</ele>
        <time>2021-08-21T18:20:17Z</time>
      </trkpt>
      <trkpt lat="2.823573" lon="-75.08795">
        <ele>1386.9</ele>
        <time>2021-08-21T18:20:18Z</time>
      </trkpt>
      <trkpt lat="2.823578" lon="-75.087975">
        <ele>1386.9</ele>
        <time>2021-08-21T18:20:19Z</time>
      </trkpt>
      <trkpt lat="2.823581" lon="-75.088005">
        <ele>1386.9</ele>
        <time>2021-08-21T18:20:20Z</time>
      </trkpt>
      <trkpt lat="2.823583" lon="-75.08804">
        <ele>1387.0</ele>
        <time>2021-08-21T18:20:21Z</time>
      </trkpt>
      <trkpt lat="2.823585" lon="-75.08807">
        <ele>1387.0</ele>
        <time>2021-08-21T18:20:22Z</time>
      </trkpt>
      <trkpt lat="2.823586" lon="-75.088104">
        <ele>1387.0</ele>
        <time>2021-08-21T18:20:23Z</time>
      </trkpt>
      <trkpt lat="2.823586" lon="-75.088135">
        <ele>1387.1</ele>
        <time>2021-08-21T18:20:24Z</time>
      </trkpt>
      <trkpt lat="2.823587" lon="-75.08817">
        <ele>1387.1</ele>
        <time>2021-08-21T18:20:25Z</time>
      </trkpt>
      <trkpt lat="2.823588" lon="-75.0882">
        <ele>1387.2</ele>
        <time>2021-08-21T18:20:26Z</time>
      </trkpt>
      <trkpt lat="2.823589" lon="-75.088234">
        <ele>1387.3</ele>
        <time>2021-08-21T18:20:27Z</time>
      </trkpt>
      <trkpt lat="2.823588" lon="-75.08827">
        <ele>1387.3</ele>
        <time>2021-08-21T18:20:28Z</time>
      </trkpt>
      <trkpt lat="2.823588" lon="-75.0883">
        <ele>1387.4</ele>
        <time>2021-08-21T18:20:29Z</time>
      </trkpt>
      <trkpt lat="2.823589" lon="-75.08833">
        <ele>1387.5</ele>
        <time>2021-08-21T18:20:30Z</time>
      </trkpt>
      <trkpt lat="2.823592" lon="-75.08837">
        <ele>1387.5</ele>
        <time>2021-08-21T18:20:31Z</time>
      </trkpt>
      <trkpt lat="2.823595" lon="-75.0884">
        <ele>1387.6</ele>
        <time>2021-08-21T18:20:32Z</time>
      </trkpt>
      <trkpt lat="2.823599" lon="-75.08843">
        <ele>1387.6</ele>
        <time>2021-08-21T18:20:33Z</time>
      </trkpt>
      <trkpt lat="2.823603" lon="-75.08846">
        <ele>1387.7</ele>
        <time>2021-08-21T18:20:34Z</time>
      </trkpt>
      <trkpt lat="2.823608" lon="-75.08849">
        <ele>1387.7</ele>
        <time>2021-08-21T18:20:35Z</time>
      </trkpt>
      <trkpt lat="2.823613" lon="-75.08853">
        <ele>1387.8</ele>
        <time>2021-08-21T18:20:36Z</time>
      </trkpt>
      <trkpt lat="2.823619" lon="-75.08856">
        <ele>1387.8</ele>
        <time>2021-08-21T18:20:37Z</time>
      </trkpt>
      <trkpt lat="2.823626" lon="-75.08859">
        <ele>1387.9</ele>
        <time>2021-08-21T18:20:38Z</time>
      </trkpt>
      <trkpt lat="2.823634" lon="-75.08862">
        <ele>1387.9</ele>
        <time>2021-08-21T18:20:39Z</time>
      </trkpt>
      <trkpt lat="2.823641" lon="-75.08865">
        <ele>1388.0</ele>
        <time>2021-08-21T18:20:40Z</time>
      </trkpt>
      <trkpt lat="2.823649" lon="-75.088684">
        <ele>1388.1</ele>
        <time>2021-08-21T18:20:41Z</time>
      </trkpt>
      <trkpt lat="2.823657" lon="-75.088715">
        <ele>1388.1</ele>
        <time>2021-08-21T18:20:42Z</time>
      </trkpt>
      <trkpt lat="2.823705" lon="-75.088844">
        <ele>1388.4</ele>
        <time>2021-08-21T18:20:44Z</time>
      </trkpt>
      <trkpt lat="2.823708" lon="-75.08885">
        <ele>1388.5</ele>
        <time>2021-08-21T18:20:45Z</time>
      </trkpt>
      <trkpt lat="2.823715" lon="-75.08887">
        <ele>1388.5</ele>
        <time>2021-08-21T18:20:46Z</time>
      </trkpt>
      <trkpt lat="2.823726" lon="-75.08889">
        <ele>1388.6</ele>
        <time>2021-08-21T18:20:47Z</time>
      </trkpt>
      <trkpt lat="2.82374" lon="-75.08891">
        <ele>1388.6</ele>
        <time>2021-08-21T18:20:48Z</time>
      </trkpt>
      <trkpt lat="2.823754" lon="-75.08894">
        <ele>1388.7</ele>
        <time>2021-08-21T18:20:49Z</time>
      </trkpt>
      <trkpt lat="2.82377" lon="-75.08897">
        <ele>1388.8</ele>
        <time>2021-08-21T18:20:50Z</time>
      </trkpt>
      <trkpt lat="2.823785" lon="-75.089">
        <ele>1388.9</ele>
        <time>2021-08-21T18:20:51Z</time>
      </trkpt>
      <trkpt lat="2.823802" lon="-75.08902">
        <ele>1388.9</ele>
        <time>2021-08-21T18:20:52Z</time>
      </trkpt>
      <trkpt lat="2.823819" lon="-75.08904">
        <ele>1389.0</ele>
        <time>2021-08-21T18:20:53Z</time>
      </trkpt>
      <trkpt lat="2.823836" lon="-75.089066">
        <ele>1389.0</ele>
        <time>2021-08-21T18:20:54Z</time>
      </trkpt>
      <trkpt lat="2.823854" lon="-75.08909">
        <ele>1389.0</ele>
        <time>2021-08-21T18:20:55Z</time>
      </trkpt>
      <trkpt lat="2.823871" lon="-75.0891">
        <ele>1389.0</ele>
        <time>2021-08-21T18:20:56Z</time>
      </trkpt>
      <trkpt lat="2.823892" lon="-75.08913">
        <ele>1389.0</ele>
        <time>2021-08-21T18:20:57Z</time>
      </trkpt>
      <trkpt lat="2.823914" lon="-75.089134">
        <ele>1388.9</ele>
        <time>2021-08-21T18:20:58Z</time>
      </trkpt>
      <trkpt lat="2.823938" lon="-75.08915">
        <ele>1388.8</ele>
        <time>2021-08-21T18:20:59Z</time>
      </trkpt>
      <trkpt lat="2.823959" lon="-75.08915">
        <ele>1388.8</ele>
        <time>2021-08-21T18:21:00Z</time>
      </trkpt>
      <trkpt lat="2.823981" lon="-75.08916">
        <ele>1388.7</ele>
        <time>2021-08-21T18:21:01Z</time>
      </trkpt>
      <trkpt lat="2.824003" lon="-75.08916">
        <ele>1388.6</ele>
        <time>2021-08-21T18:21:02Z</time>
      </trkpt>
      <trkpt lat="2.824025" lon="-75.08915">
        <ele>1388.5</ele>
        <time>2021-08-21T18:21:03Z</time>
      </trkpt>
      <trkpt lat="2.824046" lon="-75.08914">
        <ele>1388.4</ele>
        <time>2021-08-21T18:21:04Z</time>
      </trkpt>
      <trkpt lat="2.824066" lon="-75.08913">
        <ele>1388.2</ele>
        <time>2021-08-21T18:21:05Z</time>
      </trkpt>
      <trkpt lat="2.824085" lon="-75.08911">
        <ele>1388.1</ele>
        <time>2021-08-21T18:21:06Z</time>
      </trkpt>
      <trkpt lat="2.824103" lon="-75.08909">
        <ele>1388.0</ele>
        <time>2021-08-21T18:21:07Z</time>
      </trkpt>
      <trkpt lat="2.82412" lon="-75.089066">
        <ele>1388.1</ele>
        <time>2021-08-21T18:21:08Z</time>
      </trkpt>
      <trkpt lat="2.824134" lon="-75.089035">
        <ele>1388.2</ele>
        <time>2021-08-21T18:21:09Z</time>
      </trkpt>
      <trkpt lat="2.824146" lon="-75.08901">
        <ele>1388.3</ele>
        <time>2021-08-21T18:21:10Z</time>
      </trkpt>
      <trkpt lat="2.824156" lon="-75.08898">
        <ele>1388.4</ele>
        <time>2021-08-21T18:21:11Z</time>
      </trkpt>
      <trkpt lat="2.824165" lon="-75.08895">
        <ele>1388.4</ele>
        <time>2021-08-21T18:21:12Z</time>
      </trkpt>
      <trkpt lat="2.824172" lon="-75.08892">
        <ele>1388.5</ele>
        <time>2021-08-21T18:21:13Z</time>
      </trkpt>
      <trkpt lat="2.824177" lon="-75.08889">
        <ele>1388.5</ele>
        <time>2021-08-21T18:21:14Z</time>
      </trkpt>
      <trkpt lat="2.824182" lon="-75.08886">
        <ele>1388.6</ele>
        <time>2021-08-21T18:21:15Z</time>
      </trkpt>
      <trkpt lat="2.824188" lon="-75.08883">
        <ele>1388.7</ele>
        <time>2021-08-21T18:21:16Z</time>
      </trkpt>
      <trkpt lat="2.824193" lon="-75.0888">
        <ele>1388.7</ele>
        <time>2021-08-21T18:21:17Z</time>
      </trkpt>
      <trkpt lat="2.8242" lon="-75.08877">
        <ele>1388.8</ele>
        <time>2021-08-21T18:21:18Z</time>
      </trkpt>
      <trkpt lat="2.824206" lon="-75.08874">
        <ele>1388.8</ele>
        <time>2021-08-21T18:21:19Z</time>
      </trkpt>
      <trkpt lat="2.824211" lon="-75.0887">
        <ele>1388.9</ele>
        <time>2021-08-21T18:21:20Z</time>
      </trkpt>
      <trkpt lat="2.824218" lon="-75.08867">
        <ele>1388.9</ele>
        <time>2021-08-21T18:21:21Z</time>
      </trkpt>
      <trkpt lat="2.824226" lon="-75.08863">
        <ele>1389.0</ele>
        <time>2021-08-21T18:21:22Z</time>
      </trkpt>
      <trkpt lat="2.824234" lon="-75.08859">
        <ele>1389.1</ele>
        <time>2021-08-21T18:21:23Z</time>
      </trkpt>
      <trkpt lat="2.82424" lon="-75.088554">
        <ele>1389.1</ele>
        <time>2021-08-21T18:21:24Z</time>
      </trkpt>
      <trkpt lat="2.824245" lon="-75.08852">
        <ele>1389.2</ele>
        <time>2021-08-21T18:21:25Z</time>
      </trkpt>
      <trkpt lat="2.82425" lon="-75.08848">
        <ele>1389.3</ele>
        <time>2021-08-21T18:21:26Z</time>
      </trkpt>
      <trkpt lat="2.824253" lon="-75.08843">
        <ele>1389.4</ele>
        <time>2021-08-21T18:21:27Z</time>
      </trkpt>
      <trkpt lat="2.824257" lon="-75.088394">
        <ele>1389.5</ele>
        <time>2021-08-21T18:21:28Z</time>
      </trkpt>
      <trkpt lat="2.824263" lon="-75.088356">
        <ele>1389.6</ele>
        <time>2021-08-21T18:21:29Z</time>
      </trkpt>
      <trkpt lat="2.824268" lon="-75.08832">
        <ele>1389.7</ele>
        <time>2021-08-21T18:21:30Z</time>
      </trkpt>
      <trkpt lat="2.824274" lon="-75.08828">
        <ele>1389.8</ele>
        <time>2021-08-21T18:21:31Z</time>
      </trkpt>
      <trkpt lat="2.824279" lon="-75.088234">
        <ele>1389.9</ele>
        <time>2021-08-21T18:21:32Z</time>
      </trkpt>
      <trkpt lat="2.824284" lon="-75.088196">
        <ele>1390.0</ele>
        <time>2021-08-21T18:21:33Z</time>
      </trkpt>
      <trkpt lat="2.824288" lon="-75.08815">
        <ele>1390.1</ele>
        <time>2021-08-21T18:21:34Z</time>
      </trkpt>
      <trkpt lat="2.824292" lon="-75.08811">
        <ele>1390.1</ele>
        <time>2021-08-21T18:21:35Z</time>
      </trkpt>
      <trkpt lat="2.824298" lon="-75.08807">
        <ele>1390.2</ele>
        <time>2021-08-21T18:21:36Z</time>
      </trkpt>
      <trkpt lat="2.824308" lon="-75.088036">
        <ele>1390.3</ele>
        <time>2021-08-21T18:21:37Z</time>
      </trkpt>
      <trkpt lat="2.824321" lon="-75.088">
        <ele>1390.4</ele>
        <time>2021-08-21T18:21:38Z</time>
      </trkpt>
      <trkpt lat="2.824339" lon="-75.08796">
        <ele>1390.4</ele>
        <time>2021-08-21T18:21:39Z</time>
      </trkpt>
      <trkpt lat="2.824361" lon="-75.08793">
        <ele>1390.5</ele>
        <time>2021-08-21T18:21:40Z</time>
      </trkpt>
      <trkpt lat="2.824387" lon="-75.08789">
        <ele>1390.6</ele>
        <time>2021-08-21T18:21:41Z</time>
      </trkpt>
      <trkpt lat="2.824416" lon="-75.08785">
        <ele>1390.7</ele>
        <time>2021-08-21T18:21:42Z</time>
      </trkpt>
      <trkpt lat="2.824448" lon="-75.08782">
        <ele>1390.8</ele>
        <time>2021-08-21T18:21:43Z</time>
      </trkpt>
      <trkpt lat="2.824481" lon="-75.08779">
        <ele>1390.9</ele>
        <time>2021-08-21T18:21:44Z</time>
      </trkpt>
      <trkpt lat="2.824516" lon="-75.08776">
        <ele>1390.9</ele>
        <time>2021-08-21T18:21:45Z</time>
      </trkpt>
      <trkpt lat="2.824555" lon="-75.08773">
        <ele>1391.0</ele>
        <time>2021-08-21T18:21:46Z</time>
      </trkpt>
      <trkpt lat="2.824598" lon="-75.08771">
        <ele>1391.0</ele>
        <time>2021-08-21T18:21:47Z</time>
      </trkpt>
      <trkpt lat="2.824646" lon="-75.087685">
        <ele>1391.1</ele>
        <time>2021-08-21T18:21:48Z</time>
      </trkpt>
      <trkpt lat="2.824698" lon="-75.08767">
        <ele>1391.2</ele>
        <time>2021-08-21T18:21:49Z</time>
      </trkpt>
      <trkpt lat="2.824748" lon="-75.08766">
        <ele>1391.3</ele>
        <time>2021-08-21T18:21:50Z</time>
      </trkpt>
      <trkpt lat="2.824804" lon="-75.08766">
        <ele>1391.4</ele>
        <time>2021-08-21T18:21:51Z</time>
      </trkpt>
      <trkpt lat="2.824862" lon="-75.08766">
        <ele>1391.5</ele>
        <time>2021-08-21T18:21:52Z</time>
      </trkpt>
      <trkpt lat="2.824919" lon="-75.08768">
        <ele>1391.6</ele>
        <time>2021-08-21T18:21:53Z</time>
      </trkpt>
      <trkpt lat="2.824976" lon="-75.087685">
        <ele>1391.6</ele>
        <time>2021-08-21T18:21:54Z</time>
      </trkpt>
      <trkpt lat="2.825034" lon="-75.0877">
        <ele>1391.7</ele>
        <time>2021-08-21T18:21:55Z</time>
      </trkpt>
      <trkpt lat="2.825091" lon="-75.087715">
        <ele>1391.8</ele>
        <time>2021-08-21T18:21:56Z</time>
      </trkpt>
      <trkpt lat="2.825148" lon="-75.08773">
        <ele>1391.9</ele>
        <time>2021-08-21T18:21:57Z</time>
      </trkpt>
      <trkpt lat="2.825208" lon="-75.08774">
        <ele>1392.0</ele>
        <time>2021-08-21T18:21:58Z</time>
      </trkpt>
      <trkpt lat="2.825271" lon="-75.08775">
        <ele>1392.0</ele>
        <time>2021-08-21T18:21:59Z</time>
      </trkpt>
      <trkpt lat="2.825334" lon="-75.08776">
        <ele>1392.0</ele>
        <time>2021-08-21T18:22:00Z</time>
      </trkpt>
      <trkpt lat="2.825396" lon="-75.087776">
        <ele>1392.0</ele>
        <time>2021-08-21T18:22:01Z</time>
      </trkpt>
      <trkpt lat="2.825455" lon="-75.08779">
        <ele>1391.9</ele>
        <time>2021-08-21T18:22:02Z</time>
      </trkpt>
      <trkpt lat="2.825512" lon="-75.087814">
        <ele>1391.8</ele>
        <time>2021-08-21T18:22:03Z</time>
      </trkpt>
      <trkpt lat="2.825566" lon="-75.08784">
        <ele>1391.7</ele>
        <time>2021-08-21T18:22:04Z</time>
      </trkpt>
      <trkpt lat="2.825618" lon="-75.08786">
        <ele>1391.5</ele>
        <time>2021-08-21T18:22:05Z</time>
      </trkpt>
      <trkpt lat="2.825668" lon="-75.0879">
        <ele>1391.4</ele>
        <time>2021-08-21T18:22:06Z</time>
      </trkpt>
      <trkpt lat="2.825713" lon="-75.08794">
        <ele>1391.3</ele>
        <time>2021-08-21T18:22:07Z</time>
      </trkpt>
      <trkpt lat="2.825755" lon="-75.08798">
        <ele>1391.1</ele>
        <time>2021-08-21T18:22:08Z</time>
      </trkpt>
      <trkpt lat="2.825794" lon="-75.08803">
        <ele>1391.0</ele>
        <time>2021-08-21T18:22:09Z</time>
      </trkpt>
      <trkpt lat="2.825829" lon="-75.08807">
        <ele>1390.9</ele>
        <time>2021-08-21T18:22:10Z</time>
      </trkpt>
      <trkpt lat="2.825863" lon="-75.08813">
        <ele>1390.7</ele>
        <time>2021-08-21T18:22:11Z</time>
      </trkpt>
      <trkpt lat="2.825896" lon="-75.08817">
        <ele>1390.6</ele>
        <time>2021-08-21T18:22:12Z</time>
      </trkpt>
      <trkpt lat="2.825931" lon="-75.08823">
        <ele>1390.5</ele>
        <time>2021-08-21T18:22:13Z</time>
      </trkpt>
      <trkpt lat="2.825966" lon="-75.08828">
        <ele>1390.4</ele>
        <time>2021-08-21T18:22:14Z</time>
      </trkpt>
      <trkpt lat="2.826" lon="-75.08833">
        <ele>1390.3</ele>
        <time>2021-08-21T18:22:15Z</time>
      </trkpt>
      <trkpt lat="2.826031" lon="-75.08839">
        <ele>1390.3</ele>
        <time>2021-08-21T18:22:16Z</time>
      </trkpt>
      <trkpt lat="2.82606" lon="-75.08843">
        <ele>1390.2</ele>
        <time>2021-08-21T18:22:17Z</time>
      </trkpt>
      <trkpt lat="2.82609" lon="-75.088486">
        <ele>1390.2</ele>
        <time>2021-08-21T18:22:18Z</time>
      </trkpt>
      <trkpt lat="2.826123" lon="-75.08854">
        <ele>1390.1</ele>
        <time>2021-08-21T18:22:19Z</time>
      </trkpt>
      <trkpt lat="2.82616" lon="-75.088585">
        <ele>1390.1</ele>
        <time>2021-08-21T18:22:20Z</time>
      </trkpt>
      <trkpt lat="2.826198" lon="-75.08862">
        <ele>1390.1</ele>
        <time>2021-08-21T18:22:21Z</time>
      </trkpt>
      <trkpt lat="2.826239" lon="-75.08865">
        <ele>1390.1</ele>
        <time>2021-08-21T18:22:22Z</time>
      </trkpt>
      <trkpt lat="2.826284" lon="-75.08867">
        <ele>1390.1</ele>
        <time>2021-08-21T18:22:23Z</time>
      </trkpt>
      <trkpt lat="2.826333" lon="-75.088684">
        <ele>1390.0</ele>
        <time>2021-08-21T18:22:24Z</time>
      </trkpt>
      <trkpt lat="2.826384" lon="-75.088684">
        <ele>1390.0</ele>
        <time>2021-08-21T18:22:25Z</time>
      </trkpt>
      <trkpt lat="2.826435" lon="-75.08868">
        <ele>1390.0</ele>
        <time>2021-08-21T18:22:26Z</time>
      </trkpt>
      <trkpt lat="2.826486" lon="-75.08866">
        <ele>1390.1</ele>
        <time>2021-08-21T18:22:27Z</time>
      </trkpt>
      <trkpt lat="2.826537" lon="-75.08863">
        <ele>1390.1</ele>
        <time>2021-08-21T18:22:28Z</time>
      </trkpt>
      <trkpt lat="2.826585" lon="-75.0886">
        <ele>1390.1</ele>
        <time>2021-08-21T18:22:29Z</time>
      </trkpt>
      <trkpt lat="2.826629" lon="-75.08856">
        <ele>1390.1</ele>
        <time>2021-08-21T18:22:30Z</time>
      </trkpt>
      <trkpt lat="2.826667" lon="-75.08852">
        <ele>1390.0</ele>
        <time>2021-08-21T18:22:31Z</time>
      </trkpt>
      <trkpt lat="2.8267" lon="-75.08846">
        <ele>1390.0</ele>
        <time>2021-08-21T18:22:32Z</time>
      </trkpt>
      <trkpt lat="2.826725" lon="-75.0884">
        <ele>1389.9</ele>
        <time>2021-08-21T18:22:33Z</time>
      </trkpt>
      <trkpt lat="2.826744" lon="-75.08834">
        <ele>1389.9</ele>
        <time>2021-08-21T18:22:34Z</time>
      </trkpt>
      <trkpt lat="2.826756" lon="-75.08827">
        <ele>1389.8</ele>
        <time>2021-08-21T18:22:35Z</time>
      </trkpt>
      <trkpt lat="2.826767" lon="-75.0882">
        <ele>1389.8</ele>
        <time>2021-08-21T18:22:36Z</time>
      </trkpt>
      <trkpt lat="2.826776" lon="-75.08813">
        <ele>1389.7</ele>
        <time>2021-08-21T18:22:37Z</time>
      </trkpt>
      <trkpt lat="2.826786" lon="-75.08805">
        <ele>1389.7</ele>
        <time>2021-08-21T18:22:37Z</time>
      </trkpt>
      <trkpt lat="2.826795" lon="-75.087975">
        <ele>1389.7</ele>
        <time>2021-08-21T18:22:38Z</time>
      </trkpt>
      <trkpt lat="2.826802" lon="-75.0879">
        <ele>1389.7</ele>
        <time>2021-08-21T18:22:39Z</time>
      </trkpt>
      <trkpt lat="2.826809" lon="-75.08782">
        <ele>1389.6</ele>
        <time>2021-08-21T18:22:40Z</time>
      </trkpt>
      <trkpt lat="2.826814" lon="-75.08775">
        <ele>1389.6</ele>
        <time>2021-08-21T18:22:41Z</time>
      </trkpt>
      <trkpt lat="2.826815" lon="-75.087685">
        <ele>1389.5</ele>
        <time>2021-08-21T18:22:42Z</time>
      </trkpt>
      <trkpt lat="2.826815" lon="-75.08762">
        <ele>1389.4</ele>
        <time>2021-08-21T18:22:43Z</time>
      </trkpt>
      <trkpt lat="2.826815" lon="-75.087555">
        <ele>1389.3</ele>
        <time>2021-08-21T18:22:44Z</time>
      </trkpt>
      <trkpt lat="2.826819" lon="-75.08749">
        <ele>1389.2</ele>
        <time>2021-08-21T18:22:45Z</time>
      </trkpt>
      <trkpt lat="2.826834" lon="-75.087425">
        <ele>1389.1</ele>
        <time>2021-08-21T18:22:46Z</time>
      </trkpt>
      <trkpt lat="2.82686" lon="-75.08737">
        <ele>1388.9</ele>
        <time>2021-08-21T18:22:47Z</time>
      </trkpt>
      <trkpt lat="2.826898" lon="-75.087326">
        <ele>1388.8</ele>
        <time>2021-08-21T18:22:48Z</time>
      </trkpt>
      <trkpt lat="2.826942" lon="-75.08729">
        <ele>1388.6</ele>
        <time>2021-08-21T18:22:49Z</time>
      </trkpt>
      <trkpt lat="2.826995" lon="-75.08725">
        <ele>1388.4</ele>
        <time>2021-08-21T18:22:50Z</time>
      </trkpt>
      <trkpt lat="2.827054" lon="-75.08722">
        <ele>1388.2</ele>
        <time>2021-08-21T18:22:51Z</time>
      </trkpt>
      <trkpt lat="2.827119" lon="-75.08719">
        <ele>1388.1</ele>
        <time>2021-08-21T18:22:52Z</time>
      </trkpt>
      <trkpt lat="2.827188" lon="-75.08716">
        <ele>1388.0</ele>
        <time>2021-08-21T18:22:53Z</time>
      </trkpt>
      <trkpt lat="2.827258" lon="-75.087135">
        <ele>1388.1</ele>
        <time>2021-08-21T18:22:54Z</time>
      </trkpt>
      <trkpt lat="2.827331" lon="-75.08711">
        <ele>1388.1</ele>
        <time>2021-08-21T18:22:55Z</time>
      </trkpt>
      <trkpt lat="2.827406" lon="-75.08709">
        <ele>1388.3</ele>
        <time>2021-08-21T18:22:56Z</time>
      </trkpt>
      <trkpt lat="2.82748" lon="-75.08708">
        <ele>1388.4</ele>
        <time>2021-08-21T18:22:57Z</time>
      </trkpt>
      <trkpt lat="2.82755" lon="-75.087074">
        <ele>1388.7</ele>
        <time>2021-08-21T18:22:58Z</time>
      </trkpt>
      <trkpt lat="2.827616" lon="-75.08708">
        <ele>1389.0</ele>
        <time>2021-08-21T18:22:59Z</time>
      </trkpt>
      <trkpt lat="2.827677" lon="-75.0871">
        <ele>1389.3</ele>
        <time>2021-08-21T18:23:00Z</time>
      </trkpt>
      <trkpt lat="2.827728" lon="-75.08713">
        <ele>1389.6</ele>
        <time>2021-08-21T18:23:01Z</time>
      </trkpt>
      <trkpt lat="2.827765" lon="-75.087166">
        <ele>1389.8</ele>
        <time>2021-08-21T18:23:02Z</time>
      </trkpt>
      <trkpt lat="2.827783" lon="-75.08721">
        <ele>1390.1</ele>
        <time>2021-08-21T18:23:03Z</time>
      </trkpt>
      <trkpt lat="2.827788" lon="-75.087265">
        <ele>1390.4</ele>
        <time>2021-08-21T18:23:04Z</time>
      </trkpt>
      <trkpt lat="2.827784" lon="-75.08731">
        <ele>1390.8</ele>
        <time>2021-08-21T18:23:05Z</time>
      </trkpt>
      <trkpt lat="2.82777" lon="-75.08736">
        <ele>1391.2</ele>
        <time>2021-08-21T18:23:06Z</time>
      </trkpt>
      <trkpt lat="2.827752" lon="-75.0874">
        <ele>1391.5</ele>
        <time>2021-08-21T18:23:07Z</time>
      </trkpt>
      <trkpt lat="2.827731" lon="-75.08745">
        <ele>1391.9</ele>
        <time>2021-08-21T18:23:08Z</time>
      </trkpt>
      <trkpt lat="2.82771" lon="-75.087494">
        <ele>1392.3</ele>
        <time>2021-08-21T18:23:09Z</time>
      </trkpt>
      <trkpt lat="2.827689" lon="-75.08753">
        <ele>1392.7</ele>
        <time>2021-08-21T18:23:10Z</time>
      </trkpt>
      <trkpt lat="2.827672" lon="-75.08758">
        <ele>1393.1</ele>
        <time>2021-08-21T18:23:11Z</time>
      </trkpt>
      <trkpt lat="2.827658" lon="-75.087616">
        <ele>1393.4</ele>
        <time>2021-08-21T18:23:12Z</time>
      </trkpt>
      <trkpt lat="2.827648" lon="-75.087654">
        <ele>1393.8</ele>
        <time>2021-08-21T18:23:13Z</time>
      </trkpt>
      <trkpt lat="2.827642" lon="-75.0877">
        <ele>1394.1</ele>
        <time>2021-08-21T18:23:14Z</time>
      </trkpt>
      <trkpt lat="2.827639" lon="-75.08774">
        <ele>1394.5</ele>
        <time>2021-08-21T18:23:15Z</time>
      </trkpt>
      <trkpt lat="2.827638" lon="-75.087776">
        <ele>1394.9</ele>
        <time>2021-08-21T18:23:16Z</time>
      </trkpt>
      <trkpt lat="2.827639" lon="-75.08782">
        <ele>1395.3</ele>
        <time>2021-08-21T18:23:17Z</time>
      </trkpt>
      <trkpt lat="2.827642" lon="-75.08787">
        <ele>1395.8</ele>
        <time>2021-08-21T18:23:18Z</time>
      </trkpt>
      <trkpt lat="2.827648" lon="-75.08791">
        <ele>1396.3</ele>
        <time>2021-08-21T18:23:19Z</time>
      </trkpt>
      <trkpt lat="2.827657" lon="-75.08796">
        <ele>1396.8</ele>
        <time>2021-08-21T18:23:20Z</time>
      </trkpt>
      <trkpt lat="2.827669" lon="-75.088">
        <ele>1397.2</ele>
        <time>2021-08-21T18:23:21Z</time>
      </trkpt>
      <trkpt lat="2.827685" lon="-75.08804">
        <ele>1397.7</ele>
        <time>2021-08-21T18:23:22Z</time>
      </trkpt>
      <trkpt lat="2.827701" lon="-75.08807">
        <ele>1398.1</ele>
        <time>2021-08-21T18:23:23Z</time>
      </trkpt>
      <trkpt lat="2.82772" lon="-75.088104">
        <ele>1398.4</ele>
        <time>2021-08-21T18:23:24Z</time>
      </trkpt>
      <trkpt lat="2.827744" lon="-75.08813">
        <ele>1398.8</ele>
        <time>2021-08-21T18:23:25Z</time>
      </trkpt>
      <trkpt lat="2.827772" lon="-75.08814">
        <ele>1399.1</ele>
        <time>2021-08-21T18:23:26Z</time>
      </trkpt>
      <trkpt lat="2.827803" lon="-75.08815">
        <ele>1399.3</ele>
        <time>2021-08-21T18:23:27Z</time>
      </trkpt>
      <trkpt lat="2.827832" lon="-75.08816">
        <ele>1399.6</ele>
        <time>2021-08-21T18:23:28Z</time>
      </trkpt>
      <trkpt lat="2.827864" lon="-75.088165">
        <ele>1399.8</ele>
        <time>2021-08-21T18:23:29Z</time>
      </trkpt>
      <trkpt lat="2.827896" lon="-75.088165">
        <ele>1400.1</ele>
        <time>2021-08-21T18:23:30Z</time>
      </trkpt>
      <trkpt lat="2.827929" lon="-75.08817">
        <ele>1400.4</ele>
        <time>2021-08-21T18:23:31Z</time>
      </trkpt>
      <trkpt lat="2.827964" lon="-75.08817">
        <ele>1400.6</ele>
        <time>2021-08-21T18:23:32Z</time>
      </trkpt>
      <trkpt lat="2.827998" lon="-75.08818">
        <ele>1400.9</ele>
        <time>2021-08-21T18:23:33Z</time>
      </trkpt>
      <trkpt lat="2.828029" lon="-75.08818">
        <ele>1401.1</ele>
        <time>2021-08-21T18:23:34Z</time>
      </trkpt>
      <trkpt lat="2.828062" lon="-75.08818">
        <ele>1401.3</ele>
        <time>2021-08-21T18:23:35Z</time>
      </trkpt>
      <trkpt lat="2.828097" lon="-75.08819">
        <ele>1401.6</ele>
        <time>2021-08-21T18:23:36Z</time>
      </trkpt>
      <trkpt lat="2.828134" lon="-75.08819">
        <ele>1401.8</ele>
        <time>2021-08-21T18:23:37Z</time>
      </trkpt>
      <trkpt lat="2.828276" lon="-75.08823">
        <ele>1402.7</ele>
        <time>2021-08-21T18:23:39Z</time>
      </trkpt>
      <trkpt lat="2.828282" lon="-75.08823">
        <ele>1402.8</ele>
        <time>2021-08-21T18:23:40Z</time>
      </trkpt>
      <trkpt lat="2.828299" lon="-75.08824">
        <ele>1402.9</ele>
        <time>2021-08-21T18:23:41Z</time>
      </trkpt>
      <trkpt lat="2.828321" lon="-75.08825">
        <ele>1403.0</ele>
        <time>2021-08-21T18:23:42Z</time>
      </trkpt>
      <trkpt lat="2.828345" lon="-75.088264">
        <ele>1403.2</ele>
        <time>2021-08-21T18:23:43Z</time>
      </trkpt>
      <trkpt lat="2.828369" lon="-75.08829">
        <ele>1403.4</ele>
        <time>2021-08-21T18:23:44Z</time>
      </trkpt>
      <trkpt lat="2.828395" lon="-75.0883">
        <ele>1403.6</ele>
        <time>2021-08-21T18:23:45Z</time>
      </trkpt>
      <trkpt lat="2.82842" lon="-75.088326">
        <ele>1403.7</ele>
        <time>2021-08-21T18:23:46Z</time>
      </trkpt>
      <trkpt lat="2.828444" lon="-75.08835">
        <ele>1403.9</ele>
        <time>2021-08-21T18:23:47Z</time>
      </trkpt>
      <trkpt lat="2.828468" lon="-75.08837">
        <ele>1404.0</ele>
        <time>2021-08-21T18:23:48Z</time>
      </trkpt>
      <trkpt lat="2.828491" lon="-75.088394">
        <ele>1404.0</ele>
        <time>2021-08-21T18:23:49Z</time>
      </trkpt>
      <trkpt lat="2.828516" lon="-75.08842">
        <ele>1404.0</ele>
        <time>2021-08-21T18:23:50Z</time>
      </trkpt>
      <trkpt lat="2.828539" lon="-75.08845">
        <ele>1404.0</ele>
        <time>2021-08-21T18:23:51Z</time>
      </trkpt>
      <trkpt lat="2.828561" lon="-75.08847">
        <ele>1404.0</ele>
        <time>2021-08-21T18:23:52Z</time>
      </trkpt>
      <trkpt lat="2.828582" lon="-75.0885">
        <ele>1403.9</ele>
        <time>2021-08-21T18:23:53Z</time>
      </trkpt>
      <trkpt lat="2.8286" lon="-75.088524">
        <ele>1403.9</ele>
        <time>2021-08-21T18:23:54Z</time>
      </trkpt>
      <trkpt lat="2.828619" lon="-75.088554">
        <ele>1403.8</ele>
        <time>2021-08-21T18:23:55Z</time>
      </trkpt>
      <trkpt lat="2.828638" lon="-75.08858">
        <ele>1403.8</ele>
        <time>2021-08-21T18:23:56Z</time>
      </trkpt>
      <trkpt lat="2.828659" lon="-75.08861">
        <ele>1403.7</ele>
        <time>2021-08-21T18:23:57Z</time>
      </trkpt>
      <trkpt lat="2.828679" lon="-75.08864">
        <ele>1403.6</ele>
        <time>2021-08-21T18:23:58Z</time>
      </trkpt>
      <trkpt lat="2.828699" lon="-75.08867">
        <ele>1403.6</ele>
        <time>2021-08-21T18:23:59Z</time>
      </trkpt>
      <trkpt lat="2.828722" lon="-75.0887">
        <ele>1403.5</ele>
        <time>2021-08-21T18:24:00Z</time>
      </trkpt>
      <trkpt lat="2.828745" lon="-75.08873">
        <ele>1403.4</ele>
        <time>2021-08-21T18:24:01Z</time>
      </trkpt>
      <trkpt lat="2.828765" lon="-75.08876">
        <ele>1403.4</ele>
        <time>2021-08-21T18:24:02Z</time>
      </trkpt>
      <trkpt lat="2.828783" lon="-75.0888">
        <ele>1403.4</ele>
        <time>2021-08-21T18:24:03Z</time>
      </trkpt>
      <trkpt lat="2.828799" lon="-75.08884">
        <ele>1403.4</ele>
        <time>2021-08-21T18:24:04Z</time>
      </trkpt>
      <trkpt lat="2.828813" lon="-75.08888">
        <ele>1403.4</ele>
        <time>2021-08-21T18:24:05Z</time>
      </trkpt>
      <trkpt lat="2.828823" lon="-75.08892">
        <ele>1403.4</ele>
        <time>2021-08-21T18:24:06Z</time>
      </trkpt>
      <trkpt lat="2.828833" lon="-75.08897">
        <ele>1403.4</ele>
        <time>2021-08-21T18:24:07Z</time>
      </trkpt>
      <trkpt lat="2.828841" lon="-75.08902">
        <ele>1403.5</ele>
        <time>2021-08-21T18:24:08Z</time>
      </trkpt>
      <trkpt lat="2.828847" lon="-75.08906">
        <ele>1403.5</ele>
        <time>2021-08-21T18:24:09Z</time>
      </trkpt>
      <trkpt lat="2.82885" lon="-75.0891">
        <ele>1403.5</ele>
        <time>2021-08-21T18:24:10Z</time>
      </trkpt>
      <trkpt lat="2.828852" lon="-75.08915">
        <ele>1403.6</ele>
        <time>2021-08-21T18:24:11Z</time>
      </trkpt>
      <trkpt lat="2.828851" lon="-75.089195">
        <ele>1403.7</ele>
        <time>2021-08-21T18:24:12Z</time>
      </trkpt>
      <trkpt lat="2.828847" lon="-75.08924">
        <ele>1403.7</ele>
        <time>2021-08-21T18:24:13Z</time>
      </trkpt>
      <trkpt lat="2.82884" lon="-75.08929">
        <ele>1403.8</ele>
        <time>2021-08-21T18:24:14Z</time>
      </trkpt>
      <trkpt lat="2.828834" lon="-75.08933">
        <ele>1403.9</ele>
        <time>2021-08-21T18:24:15Z</time>
      </trkpt>
      <trkpt lat="2.828827" lon="-75.08937">
        <ele>1404.0</ele>
        <time>2021-08-21T18:24:16Z</time>
      </trkpt>
      <trkpt lat="2.828819" lon="-75.08942">
        <ele>1404.1</ele>
        <time>2021-08-21T18:24:17Z</time>
      </trkpt>
      <trkpt lat="2.828812" lon="-75.08946">
        <ele>1404.2</ele>
        <time>2021-08-21T18:24:18Z</time>
      </trkpt>
      <trkpt lat="2.828805" lon="-75.08951">
        <ele>1404.3</ele>
        <time>2021-08-21T18:24:19Z</time>
      </trkpt>
      <trkpt lat="2.828799" lon="-75.08955">
        <ele>1404.4</ele>
        <time>2021-08-21T18:24:20Z</time>
      </trkpt>
      <trkpt lat="2.828792" lon="-75.08959">
        <ele>1404.5</ele>
        <time>2021-08-21T18:24:21Z</time>
      </trkpt>
      <trkpt lat="2.828785" lon="-75.08963">
        <ele>1404.6</ele>
        <time>2021-08-21T18:24:22Z</time>
      </trkpt>
      <trkpt lat="2.82878" lon="-75.08967">
        <ele>1404.7</ele>
        <time>2021-08-21T18:24:23Z</time>
      </trkpt>
      <trkpt lat="2.828774" lon="-75.08971">
        <ele>1404.8</ele>
        <time>2021-08-21T18:24:24Z</time>
      </trkpt>
      <trkpt lat="2.828769" lon="-75.089745">
        <ele>1404.9</ele>
        <time>2021-08-21T18:24:25Z</time>
      </trkpt>
      <trkpt lat="2.828766" lon="-75.08979">
        <ele>1405.0</ele>
        <time>2021-08-21T18:24:26Z</time>
      </trkpt>
      <trkpt lat="2.828763" lon="-75.08983">
        <ele>1405.1</ele>
        <time>2021-08-21T18:24:27Z</time>
      </trkpt>
      <trkpt lat="2.828762" lon="-75.08987">
        <ele>1405.1</ele>
        <time>2021-08-21T18:24:28Z</time>
      </trkpt>
      <trkpt lat="2.828761" lon="-75.08991">
        <ele>1405.2</ele>
        <time>2021-08-21T18:24:29Z</time>
      </trkpt>
      <trkpt lat="2.828759" lon="-75.08995">
        <ele>1405.2</ele>
        <time>2021-08-21T18:24:30Z</time>
      </trkpt>
      <trkpt lat="2.828757" lon="-75.09">
        <ele>1405.3</ele>
        <time>2021-08-21T18:24:31Z</time>
      </trkpt>
      <trkpt lat="2.828754" lon="-75.090034">
        <ele>1405.3</ele>
        <time>2021-08-21T18:24:32Z</time>
      </trkpt>
      <trkpt lat="2.828753" lon="-75.09007">
        <ele>1405.4</ele>
        <time>2021-08-21T18:24:33Z</time>
      </trkpt>
      <trkpt lat="2.828752" lon="-75.09012">
        <ele>1405.4</ele>
        <time>2021-08-21T18:24:34Z</time>
      </trkpt>
      <trkpt lat="2.828751" lon="-75.09016">
        <ele>1405.5</ele>
        <time>2021-08-21T18:24:35Z</time>
      </trkpt>
      <trkpt lat="2.82875" lon="-75.090195">
        <ele>1405.5</ele>
        <time>2021-08-21T18:24:36Z</time>
      </trkpt>
      <trkpt lat="2.828748" lon="-75.09023">
        <ele>1405.6</ele>
        <time>2021-08-21T18:24:37Z</time>
      </trkpt>
      <trkpt lat="2.828747" lon="-75.09027">
        <ele>1405.6</ele>
        <time>2021-08-21T18:24:38Z</time>
      </trkpt>
      <trkpt lat="2.828746" lon="-75.09032">
        <ele>1405.7</ele>
        <time>2021-08-21T18:24:39Z</time>
      </trkpt>
      <trkpt lat="2.828743" lon="-75.09035">
        <ele>1405.7</ele>
        <time>2021-08-21T18:24:40Z</time>
      </trkpt>
      <trkpt lat="2.828739" lon="-75.090385">
        <ele>1405.8</ele>
        <time>2021-08-21T18:24:41Z</time>
      </trkpt>
      <trkpt lat="2.828736" lon="-75.09042">
        <ele>1405.8</ele>
        <time>2021-08-21T18:24:42Z</time>
      </trkpt>
      <trkpt lat="2.828734" lon="-75.09046">
        <ele>1405.9</ele>
        <time>2021-08-21T18:24:43Z</time>
      </trkpt>
      <trkpt lat="2.828734" lon="-75.09049">
        <ele>1405.9</ele>
        <time>2021-08-21T18:24:44Z</time>
      </trkpt>
      <trkpt lat="2.828737" lon="-75.09053">
        <ele>1406.0</ele>
        <time>2021-08-21T18:24:45Z</time>
      </trkpt>
      <trkpt lat="2.828744" lon="-75.09057">
        <ele>1406.0</ele>
        <time>2021-08-21T18:24:46Z</time>
      </trkpt>
      <trkpt lat="2.828755" lon="-75.09061">
        <ele>1406.1</ele>
        <time>2021-08-21T18:24:47Z</time>
      </trkpt>
      <trkpt lat="2.82877" lon="-75.090645">
        <ele>1406.1</ele>
        <time>2021-08-21T18:24:48Z</time>
      </trkpt>
      <trkpt lat="2.82879" lon="-75.090675">
        <ele>1406.2</ele>
        <time>2021-08-21T18:24:49Z</time>
      </trkpt>
      <trkpt lat="2.828816" lon="-75.090706">
        <ele>1406.2</ele>
        <time>2021-08-21T18:24:50Z</time>
      </trkpt>
      <trkpt lat="2.828843" lon="-75.09074">
        <ele>1406.2</ele>
        <time>2021-08-21T18:24:51Z</time>
      </trkpt>
      <trkpt lat="2.828871" lon="-75.09077">
        <ele>1406.3</ele>
        <time>2021-08-21T18:24:52Z</time>
      </trkpt>
      <trkpt lat="2.828899" lon="-75.0908">
        <ele>1406.3</ele>
        <time>2021-08-21T18:24:53Z</time>
      </trkpt>
      <trkpt lat="2.828926" lon="-75.09083">
        <ele>1406.4</ele>
        <time>2021-08-21T18:24:54Z</time>
      </trkpt>
      <trkpt lat="2.828953" lon="-75.09086">
        <ele>1406.4</ele>
        <time>2021-08-21T18:24:55Z</time>
      </trkpt>
      <trkpt lat="2.828981" lon="-75.09089">
        <ele>1406.5</ele>
        <time>2021-08-21T18:24:56Z</time>
      </trkpt>
      <trkpt lat="2.82901" lon="-75.09093">
        <ele>1406.6</ele>
        <time>2021-08-21T18:24:57Z</time>
      </trkpt>
      <trkpt lat="2.829039" lon="-75.09096">
        <ele>1406.7</ele>
        <time>2021-08-21T18:24:58Z</time>
      </trkpt>
      <trkpt lat="2.829071" lon="-75.09098">
        <ele>1406.8</ele>
        <time>2021-08-21T18:24:59Z</time>
      </trkpt>
      <trkpt lat="2.829106" lon="-75.091">
        <ele>1407.0</ele>
        <time>2021-08-21T18:25:00Z</time>
      </trkpt>
      <trkpt lat="2.829141" lon="-75.09102">
        <ele>1407.1</ele>
        <time>2021-08-21T18:25:01Z</time>
      </trkpt>
      <trkpt lat="2.829175" lon="-75.091034">
        <ele>1407.2</ele>
        <time>2021-08-21T18:25:02Z</time>
      </trkpt>
      <trkpt lat="2.829212" lon="-75.09104">
        <ele>1407.3</ele>
        <time>2021-08-21T18:25:03Z</time>
      </trkpt>
      <trkpt lat="2.82925" lon="-75.09105">
        <ele>1407.5</ele>
        <time>2021-08-21T18:25:04Z</time>
      </trkpt>
      <trkpt lat="2.829286" lon="-75.09106">
        <ele>1407.6</ele>
        <time>2021-08-21T18:25:05Z</time>
      </trkpt>
      <trkpt lat="2.829321" lon="-75.09106">
        <ele>1407.7</ele>
        <time>2021-08-21T18:25:06Z</time>
      </trkpt>
      <trkpt lat="2.829358" lon="-75.09106">
        <ele>1407.8</ele>
        <time>2021-08-21T18:25:07Z</time>
      </trkpt>
      <trkpt lat="2.829395" lon="-75.09106">
        <ele>1407.9</ele>
        <time>2021-08-21T18:25:08Z</time>
      </trkpt>
      <trkpt lat="2.829433" lon="-75.09105">
        <ele>1408.0</ele>
        <time>2021-08-21T18:25:09Z</time>
      </trkpt>
      <trkpt lat="2.829474" lon="-75.091034">
        <ele>1408.1</ele>
        <time>2021-08-21T18:25:10Z</time>
      </trkpt>
      <trkpt lat="2.829509" lon="-75.09102">
        <ele>1408.2</ele>
        <time>2021-08-21T18:25:11Z</time>
      </trkpt>
      <trkpt lat="2.829544" lon="-75.090996">
        <ele>1408.2</ele>
        <time>2021-08-21T18:25:12Z</time>
      </trkpt>
      <trkpt lat="2.829578" lon="-75.09097">
        <ele>1408.3</ele>
        <time>2021-08-21T18:25:13Z</time>
      </trkpt>
      <trkpt lat="2.829607" lon="-75.09094">
        <ele>1408.4</ele>
        <time>2021-08-21T18:25:14Z</time>
      </trkpt>
      <trkpt lat="2.829635" lon="-75.09091">
        <ele>1408.5</ele>
        <time>2021-08-21T18:25:15Z</time>
      </trkpt>
      <trkpt lat="2.829659" lon="-75.09088">
        <ele>1408.5</ele>
        <time>2021-08-21T18:25:16Z</time>
      </trkpt>
      <trkpt lat="2.829681" lon="-75.09085">
        <ele>1408.6</ele>
        <time>2021-08-21T18:25:17Z</time>
      </trkpt>
      <trkpt lat="2.829703" lon="-75.09081">
        <ele>1408.7</ele>
        <time>2021-08-21T18:25:18Z</time>
      </trkpt>
      <trkpt lat="2.829724" lon="-75.09078">
        <ele>1408.8</ele>
        <time>2021-08-21T18:25:19Z</time>
      </trkpt>
      <trkpt lat="2.829748" lon="-75.09075">
        <ele>1408.9</ele>
        <time>2021-08-21T18:25:20Z</time>
      </trkpt>
      <trkpt lat="2.829772" lon="-75.09072">
        <ele>1409.0</ele>
        <time>2021-08-21T18:25:21Z</time>
      </trkpt>
      <trkpt lat="2.829798" lon="-75.09068">
        <ele>1409.1</ele>
        <time>2021-08-21T18:25:22Z</time>
      </trkpt>
      <trkpt lat="2.829823" lon="-75.09065">
        <ele>1409.1</ele>
        <time>2021-08-21T18:25:23Z</time>
      </trkpt>
      <trkpt lat="2.829851" lon="-75.090614">
        <ele>1409.2</ele>
        <time>2021-08-21T18:25:24Z</time>
      </trkpt>
      <trkpt lat="2.829876" lon="-75.09058">
        <ele>1409.2</ele>
        <time>2021-08-21T18:25:25Z</time>
      </trkpt>
      <trkpt lat="2.829901" lon="-75.09055">
        <ele>1409.2</ele>
        <time>2021-08-21T18:25:26Z</time>
      </trkpt>
      <trkpt lat="2.829926" lon="-75.090515">
        <ele>1409.2</ele>
        <time>2021-08-21T18:25:27Z</time>
      </trkpt>
      <trkpt lat="2.829951" lon="-75.09048">
        <ele>1409.1</ele>
        <time>2021-08-21T18:25:28Z</time>
      </trkpt>
      <trkpt lat="2.829978" lon="-75.09045">
        <ele>1409.1</ele>
        <time>2021-08-21T18:25:29Z</time>
      </trkpt>
      <trkpt lat="2.830004" lon="-75.09041">
        <ele>1409.0</ele>
        <time>2021-08-21T18:25:30Z</time>
      </trkpt>
      <trkpt lat="2.830032" lon="-75.09038">
        <ele>1409.0</ele>
        <time>2021-08-21T18:25:31Z</time>
      </trkpt>
      <trkpt lat="2.830061" lon="-75.09034">
        <ele>1409.0</ele>
        <time>2021-08-21T18:25:32Z</time>
      </trkpt>
      <trkpt lat="2.830092" lon="-75.09031">
        <ele>1408.9</ele>
        <time>2021-08-21T18:25:33Z</time>
      </trkpt>
      <trkpt lat="2.830122" lon="-75.09028">
        <ele>1408.9</ele>
        <time>2021-08-21T18:25:34Z</time>
      </trkpt>
      <trkpt lat="2.830153" lon="-75.09025">
        <ele>1408.9</ele>
        <time>2021-08-21T18:25:35Z</time>
      </trkpt>
      <trkpt lat="2.830184" lon="-75.09022">
        <ele>1408.9</ele>
        <time>2021-08-21T18:25:36Z</time>
      </trkpt>
      <trkpt lat="2.830217" lon="-75.090195">
        <ele>1408.9</ele>
        <time>2021-08-21T18:25:37Z</time>
      </trkpt>
      <trkpt lat="2.830251" lon="-75.09017">
        <ele>1408.8</ele>
        <time>2021-08-21T18:25:38Z</time>
      </trkpt>
      <trkpt lat="2.830284" lon="-75.09014">
        <ele>1408.8</ele>
        <time>2021-08-21T18:25:39Z</time>
      </trkpt>
      <trkpt lat="2.830318" lon="-75.09012">
        <ele>1408.7</ele>
        <time>2021-08-21T18:25:40Z</time>
      </trkpt>
      <trkpt lat="2.830353" lon="-75.09009">
        <ele>1408.7</ele>
        <time>2021-08-21T18:25:41Z</time>
      </trkpt>
      <trkpt lat="2.830388" lon="-75.09007">
        <ele>1408.6</ele>
        <time>2021-08-21T18:25:42Z</time>
      </trkpt>
      <trkpt lat="2.830427" lon="-75.09005">
        <ele>1408.4</ele>
        <time>2021-08-21T18:25:43Z</time>
      </trkpt>
      <trkpt lat="2.83047" lon="-75.09002">
        <ele>1408.3</ele>
        <time>2021-08-21T18:25:44Z</time>
      </trkpt>
      <trkpt lat="2.830511" lon="-75.08999">
        <ele>1408.1</ele>
        <time>2021-08-21T18:25:45Z</time>
      </trkpt>
      <trkpt lat="2.830552" lon="-75.08996">
        <ele>1408.0</ele>
        <time>2021-08-21T18:25:46Z</time>
      </trkpt>
      <trkpt lat="2.830594" lon="-75.089935">
        <ele>1407.8</ele>
        <time>2021-08-21T18:25:47Z</time>
      </trkpt>
      <trkpt lat="2.830636" lon="-75.089905">
        <ele>1407.6</ele>
        <time>2021-08-21T18:25:48Z</time>
      </trkpt>
      <trkpt lat="2.830679" lon="-75.089874">
        <ele>1407.3</ele>
        <time>2021-08-21T18:25:49Z</time>
      </trkpt>
      <trkpt lat="2.830726" lon="-75.08984">
        <ele>1407.1</ele>
        <time>2021-08-21T18:25:50Z</time>
      </trkpt>
      <trkpt lat="2.830775" lon="-75.089806">
        <ele>1406.8</ele>
        <time>2021-08-21T18:25:51Z</time>
      </trkpt>
      <trkpt lat="2.830825" lon="-75.089775">
        <ele>1406.6</ele>
        <time>2021-08-21T18:25:52Z</time>
      </trkpt>
      <trkpt lat="2.830875" lon="-75.089745">
        <ele>1406.3</ele>
        <time>2021-08-21T18:25:53Z</time>
      </trkpt>
      <trkpt lat="2.830929" lon="-75.08971">
        <ele>1406.1</ele>
        <time>2021-08-21T18:25:54Z</time>
      </trkpt>
      <trkpt lat="2.830979" lon="-75.089676">
        <ele>1405.8</ele>
        <time>2021-08-21T18:25:55Z</time>
      </trkpt>
      <trkpt lat="2.831029" lon="-75.089645">
        <ele>1405.6</ele>
        <time>2021-08-21T18:25:56Z</time>
      </trkpt>
      <trkpt lat="2.831081" lon="-75.089615">
        <ele>1405.3</ele>
        <time>2021-08-21T18:25:57Z</time>
      </trkpt>
      <trkpt lat="2.831133" lon="-75.089584">
        <ele>1405.1</ele>
        <time>2021-08-21T18:25:58Z</time>
      </trkpt>
      <trkpt lat="2.831187" lon="-75.089554">
        <ele>1404.8</ele>
        <time>2021-08-21T18:25:59Z</time>
      </trkpt>
      <trkpt lat="2.831244" lon="-75.08952">
        <ele>1404.5</ele>
        <time>2021-08-21T18:26:00Z</time>
      </trkpt>
      <trkpt lat="2.831305" lon="-75.08949">
        <ele>1404.2</ele>
        <time>2021-08-21T18:26:01Z</time>
      </trkpt>
      <trkpt lat="2.83137" lon="-75.08946">
        <ele>1403.9</ele>
        <time>2021-08-21T18:26:02Z</time>
      </trkpt>
      <trkpt lat="2.831435" lon="-75.08945">
        <ele>1403.5</ele>
        <time>2021-08-21T18:26:03Z</time>
      </trkpt>
      <trkpt lat="2.8315" lon="-75.08943">
        <ele>1403.2</ele>
        <time>2021-08-21T18:26:04Z</time>
      </trkpt>
      <trkpt lat="2.83156" lon="-75.08943">
        <ele>1402.8</ele>
        <time>2021-08-21T18:26:05Z</time>
      </trkpt>
      <trkpt lat="2.831622" lon="-75.08943">
        <ele>1402.5</ele>
        <time>2021-08-21T18:26:06Z</time>
      </trkpt>
      <trkpt lat="2.831689" lon="-75.08944">
        <ele>1402.1</ele>
        <time>2021-08-21T18:26:07Z</time>
      </trkpt>
      <trkpt lat="2.831756" lon="-75.08945">
        <ele>1401.7</ele>
        <time>2021-08-21T18:26:08Z</time>
      </trkpt>
      <trkpt lat="2.831829" lon="-75.08946">
        <ele>1401.3</ele>
        <time>2021-08-21T18:26:09Z</time>
      </trkpt>
      <trkpt lat="2.831896" lon="-75.08948">
        <ele>1401.0</ele>
        <time>2021-08-21T18:26:10Z</time>
      </trkpt>
      <trkpt lat="2.831964" lon="-75.089485">
        <ele>1400.8</ele>
        <time>2021-08-21T18:26:11Z</time>
      </trkpt>
      <trkpt lat="2.832033" lon="-75.0895">
        <ele>1400.5</ele>
        <time>2021-08-21T18:26:12Z</time>
      </trkpt>
      <trkpt lat="2.832103" lon="-75.089516">
        <ele>1400.3</ele>
        <time>2021-08-21T18:26:13Z</time>
      </trkpt>
      <trkpt lat="2.832173" lon="-75.08953">
        <ele>1400.1</ele>
        <time>2021-08-21T18:26:14Z</time>
      </trkpt>
      <trkpt lat="2.832242" lon="-75.089554">
        <ele>1399.9</ele>
        <time>2021-08-21T18:26:15Z</time>
      </trkpt>
      <trkpt lat="2.832313" lon="-75.08958">
        <ele>1399.8</ele>
        <time>2021-08-21T18:26:16Z</time>
      </trkpt>
      <trkpt lat="2.832383" lon="-75.0896">
        <ele>1399.6</ele>
        <time>2021-08-21T18:26:17Z</time>
      </trkpt>
      <trkpt lat="2.832454" lon="-75.08962">
        <ele>1399.3</ele>
        <time>2021-08-21T18:26:18Z</time>
      </trkpt>
      <trkpt lat="2.832527" lon="-75.08965">
        <ele>1398.9</ele>
        <time>2021-08-21T18:26:19Z</time>
      </trkpt>
      <trkpt lat="2.832601" lon="-75.08968">
        <ele>1398.5</ele>
        <time>2021-08-21T18:26:20Z</time>
      </trkpt>
      <trkpt lat="2.832676" lon="-75.08971">
        <ele>1398.1</ele>
        <time>2021-08-21T18:26:21Z</time>
      </trkpt>
      <trkpt lat="2.832751" lon="-75.08974">
        <ele>1397.9</ele>
        <time>2021-08-21T18:26:22Z</time>
      </trkpt>
      <trkpt lat="2.832826" lon="-75.08977">
        <ele>1397.6</ele>
        <time>2021-08-21T18:26:23Z</time>
      </trkpt>
      <trkpt lat="2.8329" lon="-75.0898">
        <ele>1397.3</ele>
        <time>2021-08-21T18:26:24Z</time>
      </trkpt>
      <trkpt lat="2.832973" lon="-75.08983">
        <ele>1397.0</ele>
        <time>2021-08-21T18:26:25Z</time>
      </trkpt>
      <trkpt lat="2.833045" lon="-75.08986">
        <ele>1396.8</ele>
        <time>2021-08-21T18:26:26Z</time>
      </trkpt>
      <trkpt lat="2.833117" lon="-75.08989">
        <ele>1396.6</ele>
        <time>2021-08-21T18:26:27Z</time>
      </trkpt>
      <trkpt lat="2.833187" lon="-75.08992">
        <ele>1396.5</ele>
        <time>2021-08-21T18:26:28Z</time>
      </trkpt>
      <trkpt lat="2.833259" lon="-75.08994">
        <ele>1396.4</ele>
        <time>2021-08-21T18:26:29Z</time>
      </trkpt>
      <trkpt lat="2.833323" lon="-75.08997">
        <ele>1396.4</ele>
        <time>2021-08-21T18:26:30Z</time>
      </trkpt>
      <trkpt lat="2.833385" lon="-75.09">
        <ele>1396.3</ele>
        <time>2021-08-21T18:26:31Z</time>
      </trkpt>
      <trkpt lat="2.833446" lon="-75.09002">
        <ele>1396.2</ele>
        <time>2021-08-21T18:26:32Z</time>
      </trkpt>
      <trkpt lat="2.833505" lon="-75.09004">
        <ele>1396.2</ele>
        <time>2021-08-21T18:26:33Z</time>
      </trkpt>
      <trkpt lat="2.833567" lon="-75.09007">
        <ele>1396.0</ele>
        <time>2021-08-21T18:26:34Z</time>
      </trkpt>
      <trkpt lat="2.833628" lon="-75.090096">
        <ele>1395.9</ele>
        <time>2021-08-21T18:26:35Z</time>
      </trkpt>
      <trkpt lat="2.833691" lon="-75.09012">
        <ele>1395.7</ele>
        <time>2021-08-21T18:26:36Z</time>
      </trkpt>
      <trkpt lat="2.833757" lon="-75.09014">
        <ele>1395.6</ele>
        <time>2021-08-21T18:26:37Z</time>
      </trkpt>
      <trkpt lat="2.833823" lon="-75.09016">
        <ele>1395.5</ele>
        <time>2021-08-21T18:26:38Z</time>
      </trkpt>
      <trkpt lat="2.833887" lon="-75.09017">
        <ele>1395.3</ele>
        <time>2021-08-21T18:26:39Z</time>
      </trkpt>
      <trkpt lat="2.833949" lon="-75.09019">
        <ele>1395.1</ele>
        <time>2021-08-21T18:26:40Z</time>
      </trkpt>
      <trkpt lat="2.834008" lon="-75.09021">
        <ele>1394.9</ele>
        <time>2021-08-21T18:26:41Z</time>
      </trkpt>
      <trkpt lat="2.834067" lon="-75.09023">
        <ele>1394.6</ele>
        <time>2021-08-21T18:26:42Z</time>
      </trkpt>
      <trkpt lat="2.834119" lon="-75.09026">
        <ele>1394.1</ele>
        <time>2021-08-21T18:26:43Z</time>
      </trkpt>
      <trkpt lat="2.834168" lon="-75.09031">
        <ele>1394.0</ele>
        <time>2021-08-21T18:26:44Z</time>
      </trkpt>
      <trkpt lat="2.834206" lon="-75.090355">
        <ele>1393.4</ele>
        <time>2021-08-21T18:26:45Z</time>
      </trkpt>
      <trkpt lat="2.834239" lon="-75.0904">
        <ele>1392.8</ele>
        <time>2021-08-21T18:26:46Z</time>
      </trkpt>
      <trkpt lat="2.834268" lon="-75.09047">
        <ele>1392.0</ele>
        <time>2021-08-21T18:26:47Z</time>
      </trkpt>
      <trkpt lat="2.834296" lon="-75.09053">
        <ele>1391.2</ele>
        <time>2021-08-21T18:26:48Z</time>
      </trkpt>
      <trkpt lat="2.834323" lon="-75.0906">
        <ele>1390.3</ele>
        <time>2021-08-21T18:26:49Z</time>
      </trkpt>
      <trkpt lat="2.834347" lon="-75.09065">
        <ele>1389.5</ele>
        <time>2021-08-21T18:26:50Z</time>
      </trkpt>
      <trkpt lat="2.834369" lon="-75.09071">
        <ele>1388.7</ele>
        <time>2021-08-21T18:26:51Z</time>
      </trkpt>
      <trkpt lat="2.834389" lon="-75.090775">
        <ele>1387.9</ele>
        <time>2021-08-21T18:26:52Z</time>
      </trkpt>
      <trkpt lat="2.834405" lon="-75.090836">
        <ele>1387.1</ele>
        <time>2021-08-21T18:26:52Z</time>
      </trkpt>
      <trkpt lat="2.83442" lon="-75.0909">
        <ele>1386.4</ele>
        <time>2021-08-21T18:26:53Z</time>
      </trkpt>
      <trkpt lat="2.834435" lon="-75.090965">
        <ele>1385.7</ele>
        <time>2021-08-21T18:26:54Z</time>
      </trkpt>
      <trkpt lat="2.834448" lon="-75.09103">
        <ele>1385.0</ele>
        <time>2021-08-21T18:26:55Z</time>
      </trkpt>
      <trkpt lat="2.834463" lon="-75.09109">
        <ele>1384.3</ele>
        <time>2021-08-21T18:26:56Z</time>
      </trkpt>
      <trkpt lat="2.834479" lon="-75.09114">
        <ele>1383.7</ele>
        <time>2021-08-21T18:26:57Z</time>
      </trkpt>
      <trkpt lat="2.8345" lon="-75.0912">
        <ele>1383.1</ele>
        <time>2021-08-21T18:26:58Z</time>
      </trkpt>
      <trkpt lat="2.834522" lon="-75.09125">
        <ele>1382.6</ele>
        <time>2021-08-21T18:26:59Z</time>
      </trkpt>
      <trkpt lat="2.83455" lon="-75.09129">
        <ele>1382.0</ele>
        <time>2021-08-21T18:27:00Z</time>
      </trkpt>
      <trkpt lat="2.834585" lon="-75.09134">
        <ele>1381.5</ele>
        <time>2021-08-21T18:27:01Z</time>
      </trkpt>
      <trkpt lat="2.834625" lon="-75.09138">
        <ele>1381.0</ele>
        <time>2021-08-21T18:27:02Z</time>
      </trkpt>
      <trkpt lat="2.834671" lon="-75.09141">
        <ele>1380.4</ele>
        <time>2021-08-21T18:27:03Z</time>
      </trkpt>
      <trkpt lat="2.834719" lon="-75.09142">
        <ele>1380.0</ele>
        <time>2021-08-21T18:27:04Z</time>
      </trkpt>
      <trkpt lat="2.834769" lon="-75.09142">
        <ele>1379.6</ele>
        <time>2021-08-21T18:27:05Z</time>
      </trkpt>
      <trkpt lat="2.834824" lon="-75.091415">
        <ele>1379.1</ele>
        <time>2021-08-21T18:27:06Z</time>
      </trkpt>
      <trkpt lat="2.83488" lon="-75.09139">
        <ele>1378.7</ele>
        <time>2021-08-21T18:27:07Z</time>
      </trkpt>
      <trkpt lat="2.834932" lon="-75.09138">
        <ele>1378.2</ele>
        <time>2021-08-21T18:27:08Z</time>
      </trkpt>
      <trkpt lat="2.834988" lon="-75.09136">
        <ele>1377.7</ele>
        <time>2021-08-21T18:27:09Z</time>
      </trkpt>
      <trkpt lat="2.835046" lon="-75.09135">
        <ele>1377.2</ele>
        <time>2021-08-21T18:27:10Z</time>
      </trkpt>
      <trkpt lat="2.835104" lon="-75.09135">
        <ele>1376.7</ele>
        <time>2021-08-21T18:27:11Z</time>
      </trkpt>
      <trkpt lat="2.835159" lon="-75.09135">
        <ele>1376.1</ele>
        <time>2021-08-21T18:27:12Z</time>
      </trkpt>
      <trkpt lat="2.835208" lon="-75.09137">
        <ele>1375.6</ele>
        <time>2021-08-21T18:27:13Z</time>
      </trkpt>
      <trkpt lat="2.835247" lon="-75.0914">
        <ele>1375.2</ele>
        <time>2021-08-21T18:27:14Z</time>
      </trkpt>
      <trkpt lat="2.835277" lon="-75.09144">
        <ele>1374.6</ele>
        <time>2021-08-21T18:27:15Z</time>
      </trkpt>
      <trkpt lat="2.835299" lon="-75.09149">
        <ele>1374.0</ele>
        <time>2021-08-21T18:27:16Z</time>
      </trkpt>
      <trkpt lat="2.835317" lon="-75.09155">
        <ele>1373.3</ele>
        <time>2021-08-21T18:27:17Z</time>
      </trkpt>
      <trkpt lat="2.835336" lon="-75.0916">
        <ele>1372.7</ele>
        <time>2021-08-21T18:27:18Z</time>
      </trkpt>
      <trkpt lat="2.835359" lon="-75.09165">
        <ele>1372.1</ele>
        <time>2021-08-21T18:27:19Z</time>
      </trkpt>
      <trkpt lat="2.835389" lon="-75.09169">
        <ele>1371.5</ele>
        <time>2021-08-21T18:27:20Z</time>
      </trkpt>
      <trkpt lat="2.835428" lon="-75.09171">
        <ele>1371.0</ele>
        <time>2021-08-21T18:27:21Z</time>
      </trkpt>
      <trkpt lat="2.83547" lon="-75.091736">
        <ele>1370.6</ele>
        <time>2021-08-21T18:27:22Z</time>
      </trkpt>
      <trkpt lat="2.835512" lon="-75.09174">
        <ele>1370.2</ele>
        <time>2021-08-21T18:27:23Z</time>
      </trkpt>
      <trkpt lat="2.835558" lon="-75.09174">
        <ele>1369.8</ele>
        <time>2021-08-21T18:27:24Z</time>
      </trkpt>
      <trkpt lat="2.835609" lon="-75.09174">
        <ele>1369.4</ele>
        <time>2021-08-21T18:27:25Z</time>
      </trkpt>
      <trkpt lat="2.835662" lon="-75.09174">
        <ele>1368.9</ele>
        <time>2021-08-21T18:27:26Z</time>
      </trkpt>
      <trkpt lat="2.835716" lon="-75.09174">
        <ele>1368.6</ele>
        <time>2021-08-21T18:27:27Z</time>
      </trkpt>
      <trkpt lat="2.835771" lon="-75.09174">
        <ele>1368.2</ele>
        <time>2021-08-21T18:27:28Z</time>
      </trkpt>
      <trkpt lat="2.835823" lon="-75.09175">
        <ele>1367.9</ele>
        <time>2021-08-21T18:27:29Z</time>
      </trkpt>
      <trkpt lat="2.835872" lon="-75.09177">
        <ele>1367.6</ele>
        <time>2021-08-21T18:27:30Z</time>
      </trkpt>
      <trkpt lat="2.835913" lon="-75.09179">
        <ele>1367.3</ele>
        <time>2021-08-21T18:27:31Z</time>
      </trkpt>
      <trkpt lat="2.835948" lon="-75.09182">
        <ele>1367.1</ele>
        <time>2021-08-21T18:27:32Z</time>
      </trkpt>
      <trkpt lat="2.835978" lon="-75.09185">
        <ele>1366.8</ele>
        <time>2021-08-21T18:27:33Z</time>
      </trkpt>
      <trkpt lat="2.836001" lon="-75.091896">
        <ele>1366.4</ele>
        <time>2021-08-21T18:27:34Z</time>
      </trkpt>
      <trkpt lat="2.836011" lon="-75.09195">
        <ele>1366.1</ele>
        <time>2021-08-21T18:27:35Z</time>
      </trkpt>
      <trkpt lat="2.836011" lon="-75.091995">
        <ele>1365.7</ele>
        <time>2021-08-21T18:27:36Z</time>
      </trkpt>
      <trkpt lat="2.836003" lon="-75.09205">
        <ele>1365.2</ele>
        <time>2021-08-21T18:27:37Z</time>
      </trkpt>
      <trkpt lat="2.835989" lon="-75.0921">
        <ele>1364.6</ele>
        <time>2021-08-21T18:27:38Z</time>
      </trkpt>
      <trkpt lat="2.835973" lon="-75.092155">
        <ele>1363.9</ele>
        <time>2021-08-21T18:27:39Z</time>
      </trkpt>
      <trkpt lat="2.835961" lon="-75.09222">
        <ele>1363.2</ele>
        <time>2021-08-21T18:27:40Z</time>
      </trkpt>
      <trkpt lat="2.835959" lon="-75.092285">
        <ele>1362.5</ele>
        <time>2021-08-21T18:27:41Z</time>
      </trkpt>
      <trkpt lat="2.835964" lon="-75.09235">
        <ele>1361.8</ele>
        <time>2021-08-21T18:27:42Z</time>
      </trkpt>
      <trkpt lat="2.835979" lon="-75.09241">
        <ele>1361.2</ele>
        <time>2021-08-21T18:27:43Z</time>
      </trkpt>
      <trkpt lat="2.836001" lon="-75.09246">
        <ele>1360.6</ele>
        <time>2021-08-21T18:27:44Z</time>
      </trkpt>
      <trkpt lat="2.836028" lon="-75.09252">
        <ele>1360.0</ele>
        <time>2021-08-21T18:27:45Z</time>
      </trkpt>
      <trkpt lat="2.83606" lon="-75.09259">
        <ele>1359.3</ele>
        <time>2021-08-21T18:27:46Z</time>
      </trkpt>
      <trkpt lat="2.836088" lon="-75.09265">
        <ele>1358.6</ele>
        <time>2021-08-21T18:27:47Z</time>
      </trkpt>
      <trkpt lat="2.83611" lon="-75.09271">
        <ele>1357.9</ele>
        <time>2021-08-21T18:27:48Z</time>
      </trkpt>
      <trkpt lat="2.836125" lon="-75.09277">
        <ele>1357.3</ele>
        <time>2021-08-21T18:27:49Z</time>
      </trkpt>
      <trkpt lat="2.83613" lon="-75.092834">
        <ele>1356.7</ele>
        <time>2021-08-21T18:27:50Z</time>
      </trkpt>
      <trkpt lat="2.836127" lon="-75.0929">
        <ele>1356.1</ele>
        <time>2021-08-21T18:27:51Z</time>
      </trkpt>
      <trkpt lat="2.836118" lon="-75.09297">
        <ele>1355.5</ele>
        <time>2021-08-21T18:27:52Z</time>
      </trkpt>
      <trkpt lat="2.836103" lon="-75.09303">
        <ele>1354.9</ele>
        <time>2021-08-21T18:27:53Z</time>
      </trkpt>
      <trkpt lat="2.836082" lon="-75.093094">
        <ele>1354.3</ele>
        <time>2021-08-21T18:27:54Z</time>
      </trkpt>
      <trkpt lat="2.836053" lon="-75.093155">
        <ele>1353.7</ele>
        <time>2021-08-21T18:27:55Z</time>
      </trkpt>
      <trkpt lat="2.836021" lon="-75.09321">
        <ele>1353.1</ele>
        <time>2021-08-21T18:27:56Z</time>
      </trkpt>
      <trkpt lat="2.835987" lon="-75.09327">
        <ele>1352.5</ele>
        <time>2021-08-21T18:27:57Z</time>
      </trkpt>
      <trkpt lat="2.835954" lon="-75.09333">
        <ele>1351.9</ele>
        <time>2021-08-21T18:27:58Z</time>
      </trkpt>
      <trkpt lat="2.835924" lon="-75.09339">
        <ele>1351.3</ele>
        <time>2021-08-21T18:27:59Z</time>
      </trkpt>
      <trkpt lat="2.835899" lon="-75.09345">
        <ele>1350.7</ele>
        <time>2021-08-21T18:28:00Z</time>
      </trkpt>
      <trkpt lat="2.835879" lon="-75.09352">
        <ele>1350.1</ele>
        <time>2021-08-21T18:28:01Z</time>
      </trkpt>
      <trkpt lat="2.835866" lon="-75.09358">
        <ele>1349.6</ele>
        <time>2021-08-21T18:28:02Z</time>
      </trkpt>
      <trkpt lat="2.835861" lon="-75.09364">
        <ele>1349.2</ele>
        <time>2021-08-21T18:28:03Z</time>
      </trkpt>
      <trkpt lat="2.835865" lon="-75.093704">
        <ele>1348.8</ele>
        <time>2021-08-21T18:28:04Z</time>
      </trkpt>
      <trkpt lat="2.835877" lon="-75.093765">
        <ele>1348.3</ele>
        <time>2021-08-21T18:28:05Z</time>
      </trkpt>
      <trkpt lat="2.835892" lon="-75.09382">
        <ele>1347.9</ele>
        <time>2021-08-21T18:28:06Z</time>
      </trkpt>
      <trkpt lat="2.835908" lon="-75.09388">
        <ele>1347.6</ele>
        <time>2021-08-21T18:28:07Z</time>
      </trkpt>
      <trkpt lat="2.835924" lon="-75.09393">
        <ele>1347.3</ele>
        <time>2021-08-21T18:28:08Z</time>
      </trkpt>
      <trkpt lat="2.835944" lon="-75.09399">
        <ele>1346.9</ele>
        <time>2021-08-21T18:28:09Z</time>
      </trkpt>
      <trkpt lat="2.835964" lon="-75.09404">
        <ele>1346.6</ele>
        <time>2021-08-21T18:28:10Z</time>
      </trkpt>
      <trkpt lat="2.835984" lon="-75.09409">
        <ele>1346.4</ele>
        <time>2021-08-21T18:28:11Z</time>
      </trkpt>
      <trkpt lat="2.836006" lon="-75.094154">
        <ele>1346.0</ele>
        <time>2021-08-21T18:28:12Z</time>
      </trkpt>
      <trkpt lat="2.83603" lon="-75.09421">
        <ele>1345.6</ele>
        <time>2021-08-21T18:28:13Z</time>
      </trkpt>
      <trkpt lat="2.836056" lon="-75.09426">
        <ele>1345.1</ele>
        <time>2021-08-21T18:28:14Z</time>
      </trkpt>
      <trkpt lat="2.836088" lon="-75.094315">
        <ele>1344.6</ele>
        <time>2021-08-21T18:28:15Z</time>
      </trkpt>
      <trkpt lat="2.836119" lon="-75.09436">
        <ele>1344.2</ele>
        <time>2021-08-21T18:28:16Z</time>
      </trkpt>
      <trkpt lat="2.836149" lon="-75.09441">
        <ele>1343.7</ele>
        <time>2021-08-21T18:28:17Z</time>
      </trkpt>
      <trkpt lat="2.836175" lon="-75.094475">
        <ele>1343.2</ele>
        <time>2021-08-21T18:28:18Z</time>
      </trkpt>
      <trkpt lat="2.836197" lon="-75.094536">
        <ele>1342.5</ele>
        <time>2021-08-21T18:28:19Z</time>
      </trkpt>
      <trkpt lat="2.836217" lon="-75.0946">
        <ele>1341.8</ele>
        <time>2021-08-21T18:28:20Z</time>
      </trkpt>
      <trkpt lat="2.836236" lon="-75.09466">
        <ele>1341.1</ele>
        <time>2021-08-21T18:28:21Z</time>
      </trkpt>
      <trkpt lat="2.836252" lon="-75.09472">
        <ele>1340.3</ele>
        <time>2021-08-21T18:28:22Z</time>
      </trkpt>
      <trkpt lat="2.836262" lon="-75.09478">
        <ele>1339.6</ele>
        <time>2021-08-21T18:28:23Z</time>
      </trkpt>
      <trkpt lat="2.836268" lon="-75.09485">
        <ele>1338.9</ele>
        <time>2021-08-21T18:28:24Z</time>
      </trkpt>
      <trkpt lat="2.83627" lon="-75.09492">
        <ele>1338.2</ele>
        <time>2021-08-21T18:28:25Z</time>
      </trkpt>
      <trkpt lat="2.836271" lon="-75.094986">
        <ele>1337.5</ele>
        <time>2021-08-21T18:28:26Z</time>
      </trkpt>
      <trkpt lat="2.836273" lon="-75.09505">
        <ele>1336.9</ele>
        <time>2021-08-21T18:28:27Z</time>
      </trkpt>
      <trkpt lat="2.836277" lon="-75.09511">
        <ele>1336.2</ele>
        <time>2021-08-21T18:28:28Z</time>
      </trkpt>
      <trkpt lat="2.836284" lon="-75.095184">
        <ele>1335.5</ele>
        <time>2021-08-21T18:28:29Z</time>
      </trkpt>
      <trkpt lat="2.83629" lon="-75.09525">
        <ele>1334.7</ele>
        <time>2021-08-21T18:28:30Z</time>
      </trkpt>
      <trkpt lat="2.836293" lon="-75.09532">
        <ele>1334.0</ele>
        <time>2021-08-21T18:28:31Z</time>
      </trkpt>
      <trkpt lat="2.836293" lon="-75.09539">
        <ele>1333.3</ele>
        <time>2021-08-21T18:28:32Z</time>
      </trkpt>
      <trkpt lat="2.836288" lon="-75.09546">
        <ele>1332.6</ele>
        <time>2021-08-21T18:28:33Z</time>
      </trkpt>
      <trkpt lat="2.836278" lon="-75.09553">
        <ele>1331.9</ele>
        <time>2021-08-21T18:28:34Z</time>
      </trkpt>
      <trkpt lat="2.836262" lon="-75.095604">
        <ele>1331.1</ele>
        <time>2021-08-21T18:28:35Z</time>
      </trkpt>
      <trkpt lat="2.836244" lon="-75.09568">
        <ele>1330.4</ele>
        <time>2021-08-21T18:28:36Z</time>
      </trkpt>
      <trkpt lat="2.836225" lon="-75.09575">
        <ele>1329.8</ele>
        <time>2021-08-21T18:28:37Z</time>
      </trkpt>
      <trkpt lat="2.836205" lon="-75.09582">
        <ele>1329.2</ele>
        <time>2021-08-21T18:28:38Z</time>
      </trkpt>
      <trkpt lat="2.836184" lon="-75.09589">
        <ele>1328.5</ele>
        <time>2021-08-21T18:28:39Z</time>
      </trkpt>
      <trkpt lat="2.836159" lon="-75.095955">
        <ele>1327.8</ele>
        <time>2021-08-21T18:28:40Z</time>
      </trkpt>
      <trkpt lat="2.836128" lon="-75.09602">
        <ele>1327.1</ele>
        <time>2021-08-21T18:28:41Z</time>
      </trkpt>
      <trkpt lat="2.836096" lon="-75.09608">
        <ele>1326.5</ele>
        <time>2021-08-21T18:28:42Z</time>
      </trkpt>
      <trkpt lat="2.836061" lon="-75.09613">
        <ele>1326.0</ele>
        <time>2021-08-21T18:28:43Z</time>
      </trkpt>
      <trkpt lat="2.83602" lon="-75.09619">
        <ele>1325.4</ele>
        <time>2021-08-21T18:28:44Z</time>
      </trkpt>
      <trkpt lat="2.835982" lon="-75.096245">
        <ele>1325.0</ele>
        <time>2021-08-21T18:28:45Z</time>
      </trkpt>
      <trkpt lat="2.835939" lon="-75.0963">
        <ele>1324.5</ele>
        <time>2021-08-21T18:28:46Z</time>
      </trkpt>
      <trkpt lat="2.835897" lon="-75.09635">
        <ele>1324.1</ele>
        <time>2021-08-21T18:28:47Z</time>
      </trkpt>
      <trkpt lat="2.835855" lon="-75.096405">
        <ele>1323.6</ele>
        <time>2021-08-21T18:28:48Z</time>
      </trkpt>
      <trkpt lat="2.835815" lon="-75.09645">
        <ele>1323.1</ele>
        <time>2021-08-21T18:28:49Z</time>
      </trkpt>
      <trkpt lat="2.835776" lon="-75.096504">
        <ele>1322.5</ele>
        <time>2021-08-21T18:28:50Z</time>
      </trkpt>
      <trkpt lat="2.835745" lon="-75.09656">
        <ele>1321.8</ele>
        <time>2021-08-21T18:28:51Z</time>
      </trkpt>
      <trkpt lat="2.835724" lon="-75.09661">
        <ele>1321.2</ele>
        <time>2021-08-21T18:28:52Z</time>
      </trkpt>
      <trkpt lat="2.835717" lon="-75.09667">
        <ele>1320.6</ele>
        <time>2021-08-21T18:28:53Z</time>
      </trkpt>
      <trkpt lat="2.835723" lon="-75.09673">
        <ele>1319.9</ele>
        <time>2021-08-21T18:28:54Z</time>
      </trkpt>
      <trkpt lat="2.835738" lon="-75.09679">
        <ele>1319.2</ele>
        <time>2021-08-21T18:28:55Z</time>
      </trkpt>
      <trkpt lat="2.835758" lon="-75.096855">
        <ele>1318.5</ele>
        <time>2021-08-21T18:28:56Z</time>
      </trkpt>
      <trkpt lat="2.83578" lon="-75.09692">
        <ele>1317.9</ele>
        <time>2021-08-21T18:28:57Z</time>
      </trkpt>
      <trkpt lat="2.835808" lon="-75.09698">
        <ele>1317.3</ele>
        <time>2021-08-21T18:28:58Z</time>
      </trkpt>
      <trkpt lat="2.835842" lon="-75.09704">
        <ele>1316.7</ele>
        <time>2021-08-21T18:28:59Z</time>
      </trkpt>
      <trkpt lat="2.835877" lon="-75.0971">
        <ele>1316.1</ele>
        <time>2021-08-21T18:29:00Z</time>
      </trkpt>
      <trkpt lat="2.835914" lon="-75.09715">
        <ele>1315.4</ele>
        <time>2021-08-21T18:29:01Z</time>
      </trkpt>
      <trkpt lat="2.835953" lon="-75.09721">
        <ele>1314.7</ele>
        <time>2021-08-21T18:29:02Z</time>
      </trkpt>
      <trkpt lat="2.835992" lon="-75.09727">
        <ele>1314.1</ele>
        <time>2021-08-21T18:29:03Z</time>
      </trkpt>
      <trkpt lat="2.836036" lon="-75.09733">
        <ele>1313.4</ele>
        <time>2021-08-21T18:29:04Z</time>
      </trkpt>
      <trkpt lat="2.836078" lon="-75.09739">
        <ele>1312.7</ele>
        <time>2021-08-21T18:29:05Z</time>
      </trkpt>
      <trkpt lat="2.836115" lon="-75.09745">
        <ele>1312.1</ele>
        <time>2021-08-21T18:29:06Z</time>
      </trkpt>
      <trkpt lat="2.836152" lon="-75.09751">
        <ele>1311.8</ele>
        <time>2021-08-21T18:29:07Z</time>
      </trkpt>
      <trkpt lat="2.836188" lon="-75.09757">
        <ele>1311.6</ele>
        <time>2021-08-21T18:29:08Z</time>
      </trkpt>
      <trkpt lat="2.836224" lon="-75.09764">
        <ele>1311.2</ele>
        <time>2021-08-21T18:29:09Z</time>
      </trkpt>
      <trkpt lat="2.83626" lon="-75.09771">
        <ele>1310.9</ele>
        <time>2021-08-21T18:29:10Z</time>
      </trkpt>
      <trkpt lat="2.836299" lon="-75.09778">
        <ele>1310.5</ele>
        <time>2021-08-21T18:29:11Z</time>
      </trkpt>
      <trkpt lat="2.836342" lon="-75.09785">
        <ele>1310.1</ele>
        <time>2021-08-21T18:29:12Z</time>
      </trkpt>
      <trkpt lat="2.836389" lon="-75.097916">
        <ele>1309.7</ele>
        <time>2021-08-21T18:29:13Z</time>
      </trkpt>
      <trkpt lat="2.836439" lon="-75.09798">
        <ele>1309.3</ele>
        <time>2021-08-21T18:29:14Z</time>
      </trkpt>
      <trkpt lat="2.836497" lon="-75.098045">
        <ele>1308.9</ele>
        <time>2021-08-21T18:29:15Z</time>
      </trkpt>
      <trkpt lat="2.836554" lon="-75.098114">
        <ele>1308.5</ele>
        <time>2021-08-21T18:29:16Z</time>
      </trkpt>
      <trkpt lat="2.836612" lon="-75.098175">
        <ele>1308.1</ele>
        <time>2021-08-21T18:29:17Z</time>
      </trkpt>
      <trkpt lat="2.836673" lon="-75.09823">
        <ele>1307.7</ele>
        <time>2021-08-21T18:29:18Z</time>
      </trkpt>
      <trkpt lat="2.836731" lon="-75.09829">
        <ele>1307.3</ele>
        <time>2021-08-21T18:29:19Z</time>
      </trkpt>
      <trkpt lat="2.83679" lon="-75.09835">
        <ele>1306.8</ele>
        <time>2021-08-21T18:29:20Z</time>
      </trkpt>
      <trkpt lat="2.836842" lon="-75.09841">
        <ele>1306.3</ele>
        <time>2021-08-21T18:29:21Z</time>
      </trkpt>
      <trkpt lat="2.836889" lon="-75.09847">
        <ele>1305.8</ele>
        <time>2021-08-21T18:29:22Z</time>
      </trkpt>
      <trkpt lat="2.836935" lon="-75.09853">
        <ele>1305.2</ele>
        <time>2021-08-21T18:29:23Z</time>
      </trkpt>
      <trkpt lat="2.836977" lon="-75.098595">
        <ele>1304.7</ele>
        <time>2021-08-21T18:29:24Z</time>
      </trkpt>
      <trkpt lat="2.837018" lon="-75.09865">
        <ele>1304.2</ele>
        <time>2021-08-21T18:29:25Z</time>
      </trkpt>
      <trkpt lat="2.83706" lon="-75.0987">
        <ele>1303.7</ele>
        <time>2021-08-21T18:29:26Z</time>
      </trkpt>
      <trkpt lat="2.837104" lon="-75.09875">
        <ele>1303.2</ele>
        <time>2021-08-21T18:29:27Z</time>
      </trkpt>
      <trkpt lat="2.837146" lon="-75.0988">
        <ele>1302.8</ele>
        <time>2021-08-21T18:29:28Z</time>
      </trkpt>
      <trkpt lat="2.837192" lon="-75.09884">
        <ele>1302.3</ele>
        <time>2021-08-21T18:29:29Z</time>
      </trkpt>
      <trkpt lat="2.837241" lon="-75.098885">
        <ele>1301.9</ele>
        <time>2021-08-21T18:29:30Z</time>
      </trkpt>
      <trkpt lat="2.837296" lon="-75.09893">
        <ele>1301.4</ele>
        <time>2021-08-21T18:29:31Z</time>
      </trkpt>
      <trkpt lat="2.837351" lon="-75.098976">
        <ele>1300.9</ele>
        <time>2021-08-21T18:29:32Z</time>
      </trkpt>
      <trkpt lat="2.837405" lon="-75.09902">
        <ele>1300.5</ele>
        <time>2021-08-21T18:29:33Z</time>
      </trkpt>
      <trkpt lat="2.837457" lon="-75.09906">
        <ele>1300.0</ele>
        <time>2021-08-21T18:29:34Z</time>
      </trkpt>
      <trkpt lat="2.837509" lon="-75.0991">
        <ele>1299.6</ele>
        <time>2021-08-21T18:29:35Z</time>
      </trkpt>
      <trkpt lat="2.837562" lon="-75.099144">
        <ele>1299.1</ele>
        <time>2021-08-21T18:29:36Z</time>
      </trkpt>
      <trkpt lat="2.837611" lon="-75.099174">
        <ele>1298.8</ele>
        <time>2021-08-21T18:29:37Z</time>
      </trkpt>
      <trkpt lat="2.83766" lon="-75.09922">
        <ele>1298.4</ele>
        <time>2021-08-21T18:29:38Z</time>
      </trkpt>
      <trkpt lat="2.83771" lon="-75.09926">
        <ele>1298.1</ele>
        <time>2021-08-21T18:29:39Z</time>
      </trkpt>
      <trkpt lat="2.837759" lon="-75.0993">
        <ele>1297.8</ele>
        <time>2021-08-21T18:29:40Z</time>
      </trkpt>
      <trkpt lat="2.837811" lon="-75.099335">
        <ele>1297.4</ele>
        <time>2021-08-21T18:29:41Z</time>
      </trkpt>
      <trkpt lat="2.837862" lon="-75.099365">
        <ele>1297.0</ele>
        <time>2021-08-21T18:29:42Z</time>
      </trkpt>
      <trkpt lat="2.837914" lon="-75.09939">
        <ele>1296.7</ele>
        <time>2021-08-21T18:29:43Z</time>
      </trkpt>
      <trkpt lat="2.837966" lon="-75.099396">
        <ele>1296.3</ele>
        <time>2021-08-21T18:29:44Z</time>
      </trkpt>
      <trkpt lat="2.838018" lon="-75.0994">
        <ele>1295.9</ele>
        <time>2021-08-21T18:29:45Z</time>
      </trkpt>
      <trkpt lat="2.838068" lon="-75.0994">
        <ele>1295.6</ele>
        <time>2021-08-21T18:29:46Z</time>
      </trkpt>
      <trkpt lat="2.838125" lon="-75.099396">
        <ele>1295.3</ele>
        <time>2021-08-21T18:29:47Z</time>
      </trkpt>
      <trkpt lat="2.83818" lon="-75.09938">
        <ele>1295.0</ele>
        <time>2021-08-21T18:29:48Z</time>
      </trkpt>
      <trkpt lat="2.83824" lon="-75.099365">
        <ele>1294.6</ele>
        <time>2021-08-21T18:29:49Z</time>
      </trkpt>
      <trkpt lat="2.838299" lon="-75.09935">
        <ele>1294.2</ele>
        <time>2021-08-21T18:29:50Z</time>
      </trkpt>
      <trkpt lat="2.838351" lon="-75.09933">
        <ele>1293.9</ele>
        <time>2021-08-21T18:29:51Z</time>
      </trkpt>
      <trkpt lat="2.838404" lon="-75.099304">
        <ele>1293.4</ele>
        <time>2021-08-21T18:29:52Z</time>
      </trkpt>
      <trkpt lat="2.83846" lon="-75.09928">
        <ele>1293.0</ele>
        <time>2021-08-21T18:29:53Z</time>
      </trkpt>
      <trkpt lat="2.838522" lon="-75.09926">
        <ele>1292.6</ele>
        <time>2021-08-21T18:29:54Z</time>
      </trkpt>
      <trkpt lat="2.838586" lon="-75.099236">
        <ele>1292.1</ele>
        <time>2021-08-21T18:29:55Z</time>
      </trkpt>
      <trkpt lat="2.838648" lon="-75.09922">
        <ele>1291.7</ele>
        <time>2021-08-21T18:29:56Z</time>
      </trkpt>
      <trkpt lat="2.838712" lon="-75.09921">
        <ele>1291.2</ele>
        <time>2021-08-21T18:29:57Z</time>
      </trkpt>
      <trkpt lat="2.838776" lon="-75.099205">
        <ele>1290.7</ele>
        <time>2021-08-21T18:29:58Z</time>
      </trkpt>
      <trkpt lat="2.838841" lon="-75.0992">
        <ele>1290.1</ele>
        <time>2021-08-21T18:29:59Z</time>
      </trkpt>
      <trkpt lat="2.838906" lon="-75.09919">
        <ele>1289.5</ele>
        <time>2021-08-21T18:30:00Z</time>
      </trkpt>
      <trkpt lat="2.838973" lon="-75.09918">
        <ele>1288.9</ele>
        <time>2021-08-21T18:30:01Z</time>
      </trkpt>
      <trkpt lat="2.83904" lon="-75.099174">
        <ele>1288.2</ele>
        <time>2021-08-21T18:30:02Z</time>
      </trkpt>
      <trkpt lat="2.839106" lon="-75.09917">
        <ele>1287.6</ele>
        <time>2021-08-21T18:30:03Z</time>
      </trkpt>
      <trkpt lat="2.839172" lon="-75.09916">
        <ele>1287.0</ele>
        <time>2021-08-21T18:30:04Z</time>
      </trkpt>
      <trkpt lat="2.839235" lon="-75.099144">
        <ele>1286.5</ele>
        <time>2021-08-21T18:30:05Z</time>
      </trkpt>
      <trkpt lat="2.839294" lon="-75.09913">
        <ele>1286.0</ele>
        <time>2021-08-21T18:30:06Z</time>
      </trkpt>
      <trkpt lat="2.839347" lon="-75.099106">
        <ele>1285.6</ele>
        <time>2021-08-21T18:30:07Z</time>
      </trkpt>
      <trkpt lat="2.839394" lon="-75.09908">
        <ele>1285.2</ele>
        <time>2021-08-21T18:30:08Z</time>
      </trkpt>
      <trkpt lat="2.839435" lon="-75.09905">
        <ele>1284.8</ele>
        <time>2021-08-21T18:30:09Z</time>
      </trkpt>
      <trkpt lat="2.839472" lon="-75.099014">
        <ele>1284.4</ele>
        <time>2021-08-21T18:30:10Z</time>
      </trkpt>
      <trkpt lat="2.839507" lon="-75.09898">
        <ele>1283.9</ele>
        <time>2021-08-21T18:30:11Z</time>
      </trkpt>
      <trkpt lat="2.839542" lon="-75.098946">
        <ele>1283.5</ele>
        <time>2021-08-21T18:30:12Z</time>
      </trkpt>
      <trkpt lat="2.839577" lon="-75.0989">
        <ele>1283.1</ele>
        <time>2021-08-21T18:30:13Z</time>
      </trkpt>
      <trkpt lat="2.839611" lon="-75.09886">
        <ele>1282.7</ele>
        <time>2021-08-21T18:30:14Z</time>
      </trkpt>
      <trkpt lat="2.839644" lon="-75.09881">
        <ele>1282.3</ele>
        <time>2021-08-21T18:30:15Z</time>
      </trkpt>
      <trkpt lat="2.839678" lon="-75.09876">
        <ele>1281.9</ele>
        <time>2021-08-21T18:30:16Z</time>
      </trkpt>
      <trkpt lat="2.839702" lon="-75.09872">
        <ele>1281.5</ele>
        <time>2021-08-21T18:30:17Z</time>
      </trkpt>
      <trkpt lat="2.83972" lon="-75.09866">
        <ele>1281.2</ele>
        <time>2021-08-21T18:30:18Z</time>
      </trkpt>
      <trkpt lat="2.839737" lon="-75.0986">
        <ele>1280.8</ele>
        <time>2021-08-21T18:30:19Z</time>
      </trkpt>
      <trkpt lat="2.83975" lon="-75.09856">
        <ele>1280.4</ele>
        <time>2021-08-21T18:30:20Z</time>
      </trkpt>
      <trkpt lat="2.839761" lon="-75.0985">
        <ele>1280.0</ele>
        <time>2021-08-21T18:30:21Z</time>
      </trkpt>
      <trkpt lat="2.839769" lon="-75.09845">
        <ele>1279.6</ele>
        <time>2021-08-21T18:30:22Z</time>
      </trkpt>
      <trkpt lat="2.839774" lon="-75.098404">
        <ele>1279.2</ele>
        <time>2021-08-21T18:30:23Z</time>
      </trkpt>
      <trkpt lat="2.839778" lon="-75.09836">
        <ele>1278.8</ele>
        <time>2021-08-21T18:30:24Z</time>
      </trkpt>
      <trkpt lat="2.839785" lon="-75.09831">
        <ele>1278.5</ele>
        <time>2021-08-21T18:30:25Z</time>
      </trkpt>
      <trkpt lat="2.839798" lon="-75.09826">
        <ele>1278.0</ele>
        <time>2021-08-21T18:30:26Z</time>
      </trkpt>
      <trkpt lat="2.839817" lon="-75.098206">
        <ele>1277.6</ele>
        <time>2021-08-21T18:30:27Z</time>
      </trkpt>
      <trkpt lat="2.839842" lon="-75.09815">
        <ele>1277.1</ele>
        <time>2021-08-21T18:30:28Z</time>
      </trkpt>
      <trkpt lat="2.839868" lon="-75.0981">
        <ele>1276.6</ele>
        <time>2021-08-21T18:30:29Z</time>
      </trkpt>
      <trkpt lat="2.839897" lon="-75.098045">
        <ele>1276.0</ele>
        <time>2021-08-21T18:30:30Z</time>
      </trkpt>
      <trkpt lat="2.839928" lon="-75.09799">
        <ele>1275.5</ele>
        <time>2021-08-21T18:30:31Z</time>
      </trkpt>
      <trkpt lat="2.839964" lon="-75.09794">
        <ele>1275.0</ele>
        <time>2021-08-21T18:30:32Z</time>
      </trkpt>
      <trkpt lat="2.840006" lon="-75.097885">
        <ele>1274.5</ele>
        <time>2021-08-21T18:30:33Z</time>
      </trkpt>
      <trkpt lat="2.840058" lon="-75.09785">
        <ele>1273.9</ele>
        <time>2021-08-21T18:30:34Z</time>
      </trkpt>
      <trkpt lat="2.840114" lon="-75.09782">
        <ele>1273.4</ele>
        <time>2021-08-21T18:30:35Z</time>
      </trkpt>
      <trkpt lat="2.840173" lon="-75.09779">
        <ele>1272.9</ele>
        <time>2021-08-21T18:30:36Z</time>
      </trkpt>
      <trkpt lat="2.840229" lon="-75.09777">
        <ele>1272.4</ele>
        <time>2021-08-21T18:30:37Z</time>
      </trkpt>
      <trkpt lat="2.840285" lon="-75.097755">
        <ele>1271.9</ele>
        <time>2021-08-21T18:30:38Z</time>
      </trkpt>
      <trkpt lat="2.840339" lon="-75.09773">
        <ele>1271.4</ele>
        <time>2021-08-21T18:30:39Z</time>
      </trkpt>
      <trkpt lat="2.840392" lon="-75.09771">
        <ele>1271.0</ele>
        <time>2021-08-21T18:30:40Z</time>
      </trkpt>
      <trkpt lat="2.840442" lon="-75.09768">
        <ele>1270.5</ele>
        <time>2021-08-21T18:30:41Z</time>
      </trkpt>
      <trkpt lat="2.840487" lon="-75.09764">
        <ele>1270.1</ele>
        <time>2021-08-21T18:30:42Z</time>
      </trkpt>
      <trkpt lat="2.840529" lon="-75.0976">
        <ele>1269.7</ele>
        <time>2021-08-21T18:30:43Z</time>
      </trkpt>
      <trkpt lat="2.84057" lon="-75.09756">
        <ele>1269.3</ele>
        <time>2021-08-21T18:30:44Z</time>
      </trkpt>
      <trkpt lat="2.840611" lon="-75.09752">
        <ele>1268.9</ele>
        <time>2021-08-21T18:30:45Z</time>
      </trkpt>
      <trkpt lat="2.840654" lon="-75.09748">
        <ele>1268.6</ele>
        <time>2021-08-21T18:30:46Z</time>
      </trkpt>
      <trkpt lat="2.840701" lon="-75.09744">
        <ele>1268.3</ele>
        <time>2021-08-21T18:30:47Z</time>
      </trkpt>
      <trkpt lat="2.840749" lon="-75.09741">
        <ele>1268.0</ele>
        <time>2021-08-21T18:30:48Z</time>
      </trkpt>
      <trkpt lat="2.840798" lon="-75.09738">
        <ele>1267.7</ele>
        <time>2021-08-21T18:30:49Z</time>
      </trkpt>
      <trkpt lat="2.840845" lon="-75.09735">
        <ele>1267.5</ele>
        <time>2021-08-21T18:30:50Z</time>
      </trkpt>
      <trkpt lat="2.840887" lon="-75.09733">
        <ele>1267.3</ele>
        <time>2021-08-21T18:30:51Z</time>
      </trkpt>
      <trkpt lat="2.840927" lon="-75.0973">
        <ele>1267.1</ele>
        <time>2021-08-21T18:30:52Z</time>
      </trkpt>
      <trkpt lat="2.840969" lon="-75.09726">
        <ele>1266.9</ele>
        <time>2021-08-21T18:30:53Z</time>
      </trkpt>
      <trkpt lat="2.841009" lon="-75.09722">
        <ele>1266.7</ele>
        <time>2021-08-21T18:30:54Z</time>
      </trkpt>
      <trkpt lat="2.841051" lon="-75.09718">
        <ele>1266.5</ele>
        <time>2021-08-21T18:30:55Z</time>
      </trkpt>
      <trkpt lat="2.841092" lon="-75.097145">
        <ele>1266.4</ele>
        <time>2021-08-21T18:30:56Z</time>
      </trkpt>
      <trkpt lat="2.841136" lon="-75.0971">
        <ele>1266.3</ele>
        <time>2021-08-21T18:30:57Z</time>
      </trkpt>
      <trkpt lat="2.841184" lon="-75.09706">
        <ele>1266.2</ele>
        <time>2021-08-21T18:30:58Z</time>
      </trkpt>
      <trkpt lat="2.841231" lon="-75.09702">
        <ele>1266.2</ele>
        <time>2021-08-21T18:30:59Z</time>
      </trkpt>
      <trkpt lat="2.841277" lon="-75.096985">
        <ele>1266.1</ele>
        <time>2021-08-21T18:31:00Z</time>
      </trkpt>
      <trkpt lat="2.84132" lon="-75.09695">
        <ele>1266.0</ele>
        <time>2021-08-21T18:31:01Z</time>
      </trkpt>
      <trkpt lat="2.841362" lon="-75.0969">
        <ele>1266.0</ele>
        <time>2021-08-21T18:31:02Z</time>
      </trkpt>
      <trkpt lat="2.841408" lon="-75.096855">
        <ele>1266.0</ele>
        <time>2021-08-21T18:31:03Z</time>
      </trkpt>
      <trkpt lat="2.841453" lon="-75.09681">
        <ele>1266.0</ele>
        <time>2021-08-21T18:31:04Z</time>
      </trkpt>
      <trkpt lat="2.841494" lon="-75.09677">
        <ele>1266.1</ele>
        <time>2021-08-21T18:31:05Z</time>
      </trkpt>
      <trkpt lat="2.841536" lon="-75.09673">
        <ele>1266.3</ele>
        <time>2021-08-21T18:31:06Z</time>
      </trkpt>
      <trkpt lat="2.841581" lon="-75.0967">
        <ele>1266.5</ele>
        <time>2021-08-21T18:31:07Z</time>
      </trkpt>
      <trkpt lat="2.841628" lon="-75.09667">
        <ele>1266.7</ele>
        <time>2021-08-21T18:31:07Z</time>
      </trkpt>
      <trkpt lat="2.841679" lon="-75.09666">
        <ele>1267.0</ele>
        <time>2021-08-21T18:31:08Z</time>
      </trkpt>
      <trkpt lat="2.841729" lon="-75.09664">
        <ele>1267.3</ele>
        <time>2021-08-21T18:31:09Z</time>
      </trkpt>
      <trkpt lat="2.841776" lon="-75.09664">
        <ele>1267.6</ele>
        <time>2021-08-21T18:31:10Z</time>
      </trkpt>
      <trkpt lat="2.841821" lon="-75.09665">
        <ele>1267.8</ele>
        <time>2021-08-21T18:31:11Z</time>
      </trkpt>
      <trkpt lat="2.841856" lon="-75.096664">
        <ele>1268.1</ele>
        <time>2021-08-21T18:31:12Z</time>
      </trkpt>
      <trkpt lat="2.841875" lon="-75.09669">
        <ele>1268.3</ele>
        <time>2021-08-21T18:31:13Z</time>
      </trkpt>
      <trkpt lat="2.841882" lon="-75.096725">
        <ele>1268.5</ele>
        <time>2021-08-21T18:31:14Z</time>
      </trkpt>
      <trkpt lat="2.841883" lon="-75.09676">
        <ele>1268.6</ele>
        <time>2021-08-21T18:31:15Z</time>
      </trkpt>
      <trkpt lat="2.841881" lon="-75.09681">
        <ele>1268.8</ele>
        <time>2021-08-21T18:31:16Z</time>
      </trkpt>
      <trkpt lat="2.841879" lon="-75.09686">
        <ele>1269.0</ele>
        <time>2021-08-21T18:31:17Z</time>
      </trkpt>
      <trkpt lat="2.841876" lon="-75.09691">
        <ele>1269.1</ele>
        <time>2021-08-21T18:31:18Z</time>
      </trkpt>
      <trkpt lat="2.841869" lon="-75.09696">
        <ele>1269.2</ele>
        <time>2021-08-21T18:31:19Z</time>
      </trkpt>
      <trkpt lat="2.841856" lon="-75.09701">
        <ele>1269.4</ele>
        <time>2021-08-21T18:31:20Z</time>
      </trkpt>
      <trkpt lat="2.841842" lon="-75.09705">
        <ele>1269.5</ele>
        <time>2021-08-21T18:31:21Z</time>
      </trkpt>
      <trkpt lat="2.841821" lon="-75.09709">
        <ele>1269.6</ele>
        <time>2021-08-21T18:31:22Z</time>
      </trkpt>
      <trkpt lat="2.841798" lon="-75.09713">
        <ele>1269.8</ele>
        <time>2021-08-21T18:31:23Z</time>
      </trkpt>
      <trkpt lat="2.841774" lon="-75.09717">
        <ele>1269.9</ele>
        <time>2021-08-21T18:31:24Z</time>
      </trkpt>
      <trkpt lat="2.841749" lon="-75.0972">
        <ele>1270.0</ele>
        <time>2021-08-21T18:31:25Z</time>
      </trkpt>
      <trkpt lat="2.841723" lon="-75.09723">
        <ele>1270.2</ele>
        <time>2021-08-21T18:31:26Z</time>
      </trkpt>
      <trkpt lat="2.841694" lon="-75.09726">
        <ele>1270.4</ele>
        <time>2021-08-21T18:31:27Z</time>
      </trkpt>
      <trkpt lat="2.841665" lon="-75.09729">
        <ele>1270.6</ele>
        <time>2021-08-21T18:31:28Z</time>
      </trkpt>
      <trkpt lat="2.841637" lon="-75.09732">
        <ele>1270.8</ele>
        <time>2021-08-21T18:31:29Z</time>
      </trkpt>
      <trkpt lat="2.84161" lon="-75.09736">
        <ele>1271.0</ele>
        <time>2021-08-21T18:31:30Z</time>
      </trkpt>
      <trkpt lat="2.841585" lon="-75.0974">
        <ele>1271.2</ele>
        <time>2021-08-21T18:31:31Z</time>
      </trkpt>
      <trkpt lat="2.84156" lon="-75.09743">
        <ele>1271.4</ele>
        <time>2021-08-21T18:31:32Z</time>
      </trkpt>
      <trkpt lat="2.841536" lon="-75.097466">
        <ele>1271.5</ele>
        <time>2021-08-21T18:31:33Z</time>
      </trkpt>
      <trkpt lat="2.841514" lon="-75.097496">
        <ele>1271.7</ele>
        <time>2021-08-21T18:31:34Z</time>
      </trkpt>
      <trkpt lat="2.841492" lon="-75.097534">
        <ele>1271.9</ele>
        <time>2021-08-21T18:31:35Z</time>
      </trkpt>
      <trkpt lat="2.841473" lon="-75.09757">
        <ele>1272.0</ele>
        <time>2021-08-21T18:31:36Z</time>
      </trkpt>
      <trkpt lat="2.841454" lon="-75.0976">
        <ele>1272.2</ele>
        <time>2021-08-21T18:31:37Z</time>
      </trkpt>
      <trkpt lat="2.841435" lon="-75.09764">
        <ele>1272.4</ele>
        <time>2021-08-21T18:31:38Z</time>
      </trkpt>
      <trkpt lat="2.841415" lon="-75.09767">
        <ele>1272.5</ele>
        <time>2021-08-21T18:31:39Z</time>
      </trkpt>
      <trkpt lat="2.841397" lon="-75.09771">
        <ele>1272.7</ele>
        <time>2021-08-21T18:31:40Z</time>
      </trkpt>
      <trkpt lat="2.841381" lon="-75.09774">
        <ele>1272.9</ele>
        <time>2021-08-21T18:31:41Z</time>
      </trkpt>
      <trkpt lat="2.841365" lon="-75.09778">
        <ele>1273.0</ele>
        <time>2021-08-21T18:31:42Z</time>
      </trkpt>
      <trkpt lat="2.84135" lon="-75.09782">
        <ele>1273.2</ele>
        <time>2021-08-21T18:31:43Z</time>
      </trkpt>
      <trkpt lat="2.841337" lon="-75.09785">
        <ele>1273.3</ele>
        <time>2021-08-21T18:31:44Z</time>
      </trkpt>
      <trkpt lat="2.841324" lon="-75.097885">
        <ele>1273.4</ele>
        <time>2021-08-21T18:31:45Z</time>
      </trkpt>
      <trkpt lat="2.841313" lon="-75.09792">
        <ele>1273.5</ele>
        <time>2021-08-21T18:31:46Z</time>
      </trkpt>
      <trkpt lat="2.841303" lon="-75.09796">
        <ele>1273.6</ele>
        <time>2021-08-21T18:31:47Z</time>
      </trkpt>
      <trkpt lat="2.841296" lon="-75.098">
        <ele>1273.7</ele>
        <time>2021-08-21T18:31:48Z</time>
      </trkpt>
      <trkpt lat="2.841291" lon="-75.09804">
        <ele>1273.7</ele>
        <time>2021-08-21T18:31:49Z</time>
      </trkpt>
      <trkpt lat="2.841286" lon="-75.098076">
        <ele>1273.8</ele>
        <time>2021-08-21T18:31:50Z</time>
      </trkpt>
      <trkpt lat="2.84128" lon="-75.098114">
        <ele>1273.9</ele>
        <time>2021-08-21T18:31:51Z</time>
      </trkpt>
      <trkpt lat="2.841272" lon="-75.09815">
        <ele>1273.9</ele>
        <time>2021-08-21T18:31:52Z</time>
      </trkpt>
      <trkpt lat="2.841262" lon="-75.09819">
        <ele>1274.0</ele>
        <time>2021-08-21T18:31:53Z</time>
      </trkpt>
      <trkpt lat="2.84125" lon="-75.09823">
        <ele>1274.0</ele>
        <time>2021-08-21T18:31:54Z</time>
      </trkpt>
      <trkpt lat="2.841237" lon="-75.09827">
        <ele>1274.1</ele>
        <time>2021-08-21T18:31:55Z</time>
      </trkpt>
      <trkpt lat="2.841225" lon="-75.0983">
        <ele>1274.1</ele>
        <time>2021-08-21T18:31:56Z</time>
      </trkpt>
      <trkpt lat="2.841213" lon="-75.09833">
        <ele>1274.1</ele>
        <time>2021-08-21T18:31:57Z</time>
      </trkpt>
      <trkpt lat="2.841203" lon="-75.09836">
        <ele>1274.2</ele>
        <time>2021-08-21T18:31:58Z</time>
      </trkpt>
      <trkpt lat="2.841194" lon="-75.09839">
        <ele>1274.2</ele>
        <time>2021-08-21T18:31:59Z</time>
      </trkpt>
      <trkpt lat="2.841183" lon="-75.09842">
        <ele>1274.2</ele>
        <time>2021-08-21T18:32:00Z</time>
      </trkpt>
      <trkpt lat="2.841171" lon="-75.09846">
        <ele>1274.2</ele>
        <time>2021-08-21T18:32:01Z</time>
      </trkpt>
      <trkpt lat="2.841159" lon="-75.098495">
        <ele>1274.2</ele>
        <time>2021-08-21T18:32:02Z</time>
      </trkpt>
      <trkpt lat="2.841146" lon="-75.098526">
        <ele>1274.1</ele>
        <time>2021-08-21T18:32:03Z</time>
      </trkpt>
      <trkpt lat="2.841133" lon="-75.098564">
        <ele>1274.1</ele>
        <time>2021-08-21T18:32:04Z</time>
      </trkpt>
      <trkpt lat="2.84112" lon="-75.09861">
        <ele>1274.0</ele>
        <time>2021-08-21T18:32:05Z</time>
      </trkpt>
      <trkpt lat="2.841104" lon="-75.098656">
        <ele>1274.0</ele>
        <time>2021-08-21T18:32:06Z</time>
      </trkpt>
      <trkpt lat="2.841088" lon="-75.0987">
        <ele>1273.9</ele>
        <time>2021-08-21T18:32:07Z</time>
      </trkpt>
      <trkpt lat="2.84107" lon="-75.098755">
        <ele>1273.8</ele>
        <time>2021-08-21T18:32:08Z</time>
      </trkpt>
      <trkpt lat="2.841053" lon="-75.0988">
        <ele>1273.8</ele>
        <time>2021-08-21T18:32:09Z</time>
      </trkpt>
      <trkpt lat="2.841036" lon="-75.09885">
        <ele>1273.8</ele>
        <time>2021-08-21T18:32:10Z</time>
      </trkpt>
      <trkpt lat="2.841018" lon="-75.09889">
        <ele>1273.8</ele>
        <time>2021-08-21T18:32:11Z</time>
      </trkpt>
      <trkpt lat="2.841002" lon="-75.098946">
        <ele>1273.8</ele>
        <time>2021-08-21T18:32:12Z</time>
      </trkpt>
      <trkpt lat="2.840985" lon="-75.09899">
        <ele>1273.8</ele>
        <time>2021-08-21T18:32:13Z</time>
      </trkpt>
      <trkpt lat="2.84097" lon="-75.09903">
        <ele>1273.8</ele>
        <time>2021-08-21T18:32:14Z</time>
      </trkpt>
      <trkpt lat="2.840956" lon="-75.099075">
        <ele>1273.8</ele>
        <time>2021-08-21T18:32:15Z</time>
      </trkpt>
      <trkpt lat="2.840944" lon="-75.09913">
        <ele>1273.9</ele>
        <time>2021-08-21T18:32:16Z</time>
      </trkpt>
      <trkpt lat="2.840936" lon="-75.099174">
        <ele>1273.9</ele>
        <time>2021-08-21T18:32:17Z</time>
      </trkpt>
      <trkpt lat="2.840929" lon="-75.09922">
        <ele>1273.9</ele>
        <time>2021-08-21T18:32:18Z</time>
      </trkpt>
      <trkpt lat="2.840926" lon="-75.099266">
        <ele>1274.0</ele>
        <time>2021-08-21T18:32:19Z</time>
      </trkpt>
      <trkpt lat="2.840924" lon="-75.09931">
        <ele>1274.0</ele>
        <time>2021-08-21T18:32:20Z</time>
      </trkpt>
      <trkpt lat="2.840925" lon="-75.09936">
        <ele>1274.0</ele>
        <time>2021-08-21T18:32:21Z</time>
      </trkpt>
      <trkpt lat="2.840928" lon="-75.09941">
        <ele>1274.1</ele>
        <time>2021-08-21T18:32:22Z</time>
      </trkpt>
      <trkpt lat="2.840934" lon="-75.09946">
        <ele>1274.1</ele>
        <time>2021-08-21T18:32:23Z</time>
      </trkpt>
      <trkpt lat="2.84094" lon="-75.0995">
        <ele>1274.1</ele>
        <time>2021-08-21T18:32:24Z</time>
      </trkpt>
      <trkpt lat="2.840951" lon="-75.09955">
        <ele>1274.2</ele>
        <time>2021-08-21T18:32:25Z</time>
      </trkpt>
      <trkpt lat="2.840965" lon="-75.099594">
        <ele>1274.2</ele>
        <time>2021-08-21T18:32:26Z</time>
      </trkpt>
      <trkpt lat="2.840981" lon="-75.09963">
        <ele>1274.2</ele>
        <time>2021-08-21T18:32:27Z</time>
      </trkpt>
      <trkpt lat="2.841004" lon="-75.09967">
        <ele>1274.2</ele>
        <time>2021-08-21T18:32:28Z</time>
      </trkpt>
      <trkpt lat="2.841028" lon="-75.09971">
        <ele>1274.3</ele>
        <time>2021-08-21T18:32:29Z</time>
      </trkpt>
      <trkpt lat="2.841056" lon="-75.09975">
        <ele>1274.3</ele>
        <time>2021-08-21T18:32:30Z</time>
      </trkpt>
      <trkpt lat="2.841085" lon="-75.099785">
        <ele>1274.3</ele>
        <time>2021-08-21T18:32:31Z</time>
      </trkpt>
      <trkpt lat="2.841116" lon="-75.099815">
        <ele>1274.3</ele>
        <time>2021-08-21T18:32:32Z</time>
      </trkpt>
      <trkpt lat="2.841147" lon="-75.09986">
        <ele>1274.4</ele>
        <time>2021-08-21T18:32:33Z</time>
      </trkpt>
      <trkpt lat="2.841174" lon="-75.09989">
        <ele>1274.4</ele>
        <time>2021-08-21T18:32:34Z</time>
      </trkpt>
      <trkpt lat="2.8412" lon="-75.09993">
        <ele>1274.4</ele>
        <time>2021-08-21T18:32:35Z</time>
      </trkpt>
      <trkpt lat="2.841226" lon="-75.09997">
        <ele>1274.5</ele>
        <time>2021-08-21T18:32:36Z</time>
      </trkpt>
      <trkpt lat="2.841252" lon="-75.100006">
        <ele>1274.5</ele>
        <time>2021-08-21T18:32:37Z</time>
      </trkpt>
      <trkpt lat="2.841276" lon="-75.100044">
        <ele>1274.6</ele>
        <time>2021-08-21T18:32:38Z</time>
      </trkpt>
      <trkpt lat="2.841301" lon="-75.10008">
        <ele>1274.6</ele>
        <time>2021-08-21T18:32:39Z</time>
      </trkpt>
      <trkpt lat="2.841328" lon="-75.10011">
        <ele>1274.6</ele>
        <time>2021-08-21T18:32:40Z</time>
      </trkpt>
      <trkpt lat="2.841357" lon="-75.10014">
        <ele>1274.7</ele>
        <time>2021-08-21T18:32:41Z</time>
      </trkpt>
      <trkpt lat="2.841389" lon="-75.100174">
        <ele>1274.7</ele>
        <time>2021-08-21T18:32:42Z</time>
      </trkpt>
      <trkpt lat="2.841424" lon="-75.1002">
        <ele>1274.7</ele>
        <time>2021-08-21T18:32:43Z</time>
      </trkpt>
      <trkpt lat="2.841461" lon="-75.10022">
        <ele>1274.7</ele>
        <time>2021-08-21T18:32:44Z</time>
      </trkpt>
      <trkpt lat="2.8415" lon="-75.100235">
        <ele>1274.7</ele>
        <time>2021-08-21T18:32:45Z</time>
      </trkpt>
      <trkpt lat="2.841541" lon="-75.10024">
        <ele>1274.7</ele>
        <time>2021-08-21T18:32:46Z</time>
      </trkpt>
      <trkpt lat="2.841582" lon="-75.100235">
        <ele>1274.7</ele>
        <time>2021-08-21T18:32:47Z</time>
      </trkpt>
      <trkpt lat="2.841623" lon="-75.10023">
        <ele>1274.7</ele>
        <time>2021-08-21T18:32:48Z</time>
      </trkpt>
      <trkpt lat="2.841663" lon="-75.100204">
        <ele>1274.7</ele>
        <time>2021-08-21T18:32:49Z</time>
      </trkpt>
      <trkpt lat="2.841701" lon="-75.10018">
        <ele>1274.6</ele>
        <time>2021-08-21T18:32:50Z</time>
      </trkpt>
      <trkpt lat="2.841737" lon="-75.10015">
        <ele>1274.5</ele>
        <time>2021-08-21T18:32:51Z</time>
      </trkpt>
      <trkpt lat="2.841772" lon="-75.10011">
        <ele>1274.4</ele>
        <time>2021-08-21T18:32:52Z</time>
      </trkpt>
      <trkpt lat="2.841805" lon="-75.10007">
        <ele>1274.3</ele>
        <time>2021-08-21T18:32:53Z</time>
      </trkpt>
      <trkpt lat="2.841835" lon="-75.10002">
        <ele>1274.1</ele>
        <time>2021-08-21T18:32:54Z</time>
      </trkpt>
      <trkpt lat="2.841864" lon="-75.099976">
        <ele>1274.0</ele>
        <time>2021-08-21T18:32:55Z</time>
      </trkpt>
      <trkpt lat="2.841893" lon="-75.09993">
        <ele>1273.9</ele>
        <time>2021-08-21T18:32:56Z</time>
      </trkpt>
      <trkpt lat="2.841922" lon="-75.099884">
        <ele>1273.8</ele>
        <time>2021-08-21T18:32:59Z</time>
      </trkpt>
      <trkpt lat="2.841952" lon="-75.09984">
        <ele>1273.7</ele>
        <time>2021-08-21T18:33:00Z</time>
      </trkpt>
      <trkpt lat="2.841985" lon="-75.09979">
        <ele>1273.6</ele>
        <time>2021-08-21T18:33:01Z</time>
      </trkpt>
      <trkpt lat="2.842021" lon="-75.099754">
        <ele>1273.5</ele>
        <time>2021-08-21T18:33:02Z</time>
      </trkpt>
      <trkpt lat="2.842056" lon="-75.09972">
        <ele>1273.4</ele>
        <time>2021-08-21T18:33:03Z</time>
      </trkpt>
      <trkpt lat="2.842094" lon="-75.09968">
        <ele>1273.3</ele>
        <time>2021-08-21T18:33:04Z</time>
      </trkpt>
      <trkpt lat="2.842134" lon="-75.09965">
        <ele>1273.2</ele>
        <time>2021-08-21T18:33:05Z</time>
      </trkpt>
      <trkpt lat="2.842179" lon="-75.099625">
        <ele>1273.1</ele>
        <time>2021-08-21T18:33:06Z</time>
      </trkpt>
      <trkpt lat="2.842225" lon="-75.09961">
        <ele>1273.0</ele>
        <time>2021-08-21T18:33:07Z</time>
      </trkpt>
      <trkpt lat="2.842272" lon="-75.099594">
        <ele>1272.9</ele>
        <time>2021-08-21T18:33:08Z</time>
      </trkpt>
      <trkpt lat="2.842319" lon="-75.09958">
        <ele>1272.8</ele>
        <time>2021-08-21T18:33:09Z</time>
      </trkpt>
      <trkpt lat="2.842367" lon="-75.09956">
        <ele>1272.7</ele>
        <time>2021-08-21T18:33:10Z</time>
      </trkpt>
      <trkpt lat="2.842414" lon="-75.099556">
        <ele>1272.6</ele>
        <time>2021-08-21T18:33:11Z</time>
      </trkpt>
      <trkpt lat="2.842463" lon="-75.09954">
        <ele>1272.5</ele>
        <time>2021-08-21T18:33:12Z</time>
      </trkpt>
      <trkpt lat="2.842512" lon="-75.099525">
        <ele>1272.4</ele>
        <time>2021-08-21T18:33:13Z</time>
      </trkpt>
      <trkpt lat="2.842561" lon="-75.09951">
        <ele>1272.3</ele>
        <time>2021-08-21T18:33:14Z</time>
      </trkpt>
      <trkpt lat="2.842608" lon="-75.09949">
        <ele>1272.2</ele>
        <time>2021-08-21T18:33:15Z</time>
      </trkpt>
      <trkpt lat="2.842653" lon="-75.09946">
        <ele>1272.1</ele>
        <time>2021-08-21T18:33:16Z</time>
      </trkpt>
      <trkpt lat="2.842694" lon="-75.09943">
        <ele>1272.1</ele>
        <time>2021-08-21T18:33:17Z</time>
      </trkpt>
      <trkpt lat="2.842733" lon="-75.09939">
        <ele>1272.0</ele>
        <time>2021-08-21T18:33:18Z</time>
      </trkpt>
      <trkpt lat="2.842773" lon="-75.09935">
        <ele>1271.9</ele>
        <time>2021-08-21T18:33:19Z</time>
      </trkpt>
      <trkpt lat="2.842813" lon="-75.09931">
        <ele>1271.8</ele>
        <time>2021-08-21T18:33:20Z</time>
      </trkpt>
      <trkpt lat="2.842853" lon="-75.09927">
        <ele>1271.8</ele>
        <time>2021-08-21T18:33:21Z</time>
      </trkpt>
      <trkpt lat="2.842895" lon="-75.099236">
        <ele>1271.8</ele>
        <time>2021-08-21T18:33:22Z</time>
      </trkpt>
      <trkpt lat="2.842938" lon="-75.099205">
        <ele>1271.7</ele>
        <time>2021-08-21T18:33:23Z</time>
      </trkpt>
      <trkpt lat="2.842982" lon="-75.099174">
        <ele>1271.6</ele>
        <time>2021-08-21T18:33:24Z</time>
      </trkpt>
      <trkpt lat="2.843028" lon="-75.099144">
        <ele>1271.5</ele>
        <time>2021-08-21T18:33:25Z</time>
      </trkpt>
      <trkpt lat="2.843075" lon="-75.09912">
        <ele>1271.4</ele>
        <time>2021-08-21T18:33:26Z</time>
      </trkpt>
      <trkpt lat="2.843125" lon="-75.0991">
        <ele>1271.3</ele>
        <time>2021-08-21T18:33:27Z</time>
      </trkpt>
      <trkpt lat="2.843176" lon="-75.099075">
        <ele>1271.2</ele>
        <time>2021-08-21T18:33:28Z</time>
      </trkpt>
      <trkpt lat="2.84323" lon="-75.09906">
        <ele>1271.2</ele>
        <time>2021-08-21T18:33:29Z</time>
      </trkpt>
      <trkpt lat="2.843288" lon="-75.09905">
        <ele>1271.1</ele>
        <time>2021-08-21T18:33:30Z</time>
      </trkpt>
      <trkpt lat="2.843348" lon="-75.099045">
        <ele>1271.1</ele>
        <time>2021-08-21T18:33:31Z</time>
      </trkpt>
      <trkpt lat="2.843412" lon="-75.099045">
        <ele>1271.1</ele>
        <time>2021-08-21T18:33:32Z</time>
      </trkpt>
      <trkpt lat="2.843475" lon="-75.099045">
        <ele>1271.1</ele>
        <time>2021-08-21T18:33:33Z</time>
      </trkpt>
      <trkpt lat="2.843534" lon="-75.09905">
        <ele>1271.1</ele>
        <time>2021-08-21T18:33:34Z</time>
      </trkpt>
      <trkpt lat="2.84359" lon="-75.09906">
        <ele>1271.0</ele>
        <time>2021-08-21T18:33:35Z</time>
      </trkpt>
      <trkpt lat="2.843645" lon="-75.09906">
        <ele>1271.0</ele>
        <time>2021-08-21T18:33:36Z</time>
      </trkpt>
      <trkpt lat="2.843698" lon="-75.09906">
        <ele>1271.0</ele>
        <time>2021-08-21T18:33:37Z</time>
      </trkpt>
      <trkpt lat="2.843752" lon="-75.09905">
        <ele>1271.0</ele>
        <time>2021-08-21T18:33:38Z</time>
      </trkpt>
      <trkpt lat="2.843806" lon="-75.09904">
        <ele>1271.0</ele>
        <time>2021-08-21T18:33:39Z</time>
      </trkpt>
      <trkpt lat="2.843856" lon="-75.09901">
        <ele>1270.9</ele>
        <time>2021-08-21T18:33:40Z</time>
      </trkpt>
      <trkpt lat="2.843902" lon="-75.09897">
        <ele>1270.9</ele>
        <time>2021-08-21T18:33:41Z</time>
      </trkpt>
      <trkpt lat="2.843942" lon="-75.09893">
        <ele>1270.9</ele>
        <time>2021-08-21T18:33:42Z</time>
      </trkpt>
      <trkpt lat="2.843975" lon="-75.098885">
        <ele>1270.8</ele>
        <time>2021-08-21T18:33:43Z</time>
      </trkpt>
      <trkpt lat="2.844003" lon="-75.09883">
        <ele>1270.8</ele>
        <time>2021-08-21T18:33:44Z</time>
      </trkpt>
      <trkpt lat="2.844032" lon="-75.09878">
        <ele>1270.7</ele>
        <time>2021-08-21T18:33:45Z</time>
      </trkpt>
      <trkpt lat="2.844063" lon="-75.098724">
        <ele>1270.6</ele>
        <time>2021-08-21T18:33:46Z</time>
      </trkpt>
      <trkpt lat="2.844098" lon="-75.09868">
        <ele>1270.5</ele>
        <time>2021-08-21T18:33:47Z</time>
      </trkpt>
      <trkpt lat="2.84414" lon="-75.098625">
        <ele>1270.5</ele>
        <time>2021-08-21T18:33:48Z</time>
      </trkpt>
      <trkpt lat="2.844183" lon="-75.09859">
        <ele>1270.4</ele>
        <time>2021-08-21T18:33:49Z</time>
      </trkpt>
      <trkpt lat="2.844231" lon="-75.09856">
        <ele>1270.4</ele>
        <time>2021-08-21T18:33:50Z</time>
      </trkpt>
      <trkpt lat="2.844283" lon="-75.09853">
        <ele>1270.3</ele>
        <time>2021-08-21T18:33:51Z</time>
      </trkpt>
      <trkpt lat="2.84434" lon="-75.09852">
        <ele>1270.3</ele>
        <time>2021-08-21T18:33:52Z</time>
      </trkpt>
      <trkpt lat="2.844392" lon="-75.098526">
        <ele>1270.3</ele>
        <time>2021-08-21T18:33:53Z</time>
      </trkpt>
      <trkpt lat="2.844437" lon="-75.09855">
        <ele>1270.3</ele>
        <time>2021-08-21T18:33:54Z</time>
      </trkpt>
      <trkpt lat="2.844473" lon="-75.09858">
        <ele>1270.3</ele>
        <time>2021-08-21T18:33:55Z</time>
      </trkpt>
      <trkpt lat="2.844502" lon="-75.09862">
        <ele>1270.3</ele>
        <time>2021-08-21T18:33:56Z</time>
      </trkpt>
      <trkpt lat="2.844525" lon="-75.09866">
        <ele>1270.3</ele>
        <time>2021-08-21T18:33:57Z</time>
      </trkpt>
      <trkpt lat="2.844546" lon="-75.09871">
        <ele>1270.2</ele>
        <time>2021-08-21T18:33:58Z</time>
      </trkpt>
      <trkpt lat="2.844568" lon="-75.098755">
        <ele>1270.2</ele>
        <time>2021-08-21T18:33:59Z</time>
      </trkpt>
      <trkpt lat="2.844592" lon="-75.0988">
        <ele>1270.1</ele>
        <time>2021-08-21T18:34:00Z</time>
      </trkpt>
      <trkpt lat="2.844624" lon="-75.09885">
        <ele>1270.1</ele>
        <time>2021-08-21T18:34:01Z</time>
      </trkpt>
      <trkpt lat="2.844661" lon="-75.09888">
        <ele>1270.0</ele>
        <time>2021-08-21T18:34:02Z</time>
      </trkpt>
      <trkpt lat="2.844705" lon="-75.09891">
        <ele>1269.9</ele>
        <time>2021-08-21T18:34:03Z</time>
      </trkpt>
      <trkpt lat="2.844749" lon="-75.09892">
        <ele>1269.8</ele>
        <time>2021-08-21T18:34:04Z</time>
      </trkpt>
      <trkpt lat="2.844802" lon="-75.09894">
        <ele>1269.7</ele>
        <time>2021-08-21T18:34:05Z</time>
      </trkpt>
      <trkpt lat="2.844855" lon="-75.09895">
        <ele>1269.6</ele>
        <time>2021-08-21T18:34:06Z</time>
      </trkpt>
      <trkpt lat="2.844909" lon="-75.09896">
        <ele>1269.4</ele>
        <time>2021-08-21T18:34:07Z</time>
      </trkpt>
      <trkpt lat="2.844963" lon="-75.09897">
        <ele>1269.3</ele>
        <time>2021-08-21T18:34:08Z</time>
      </trkpt>
      <trkpt lat="2.845017" lon="-75.098976">
        <ele>1269.2</ele>
        <time>2021-08-21T18:34:09Z</time>
      </trkpt>
      <trkpt lat="2.84507" lon="-75.09898">
        <ele>1269.1</ele>
        <time>2021-08-21T18:34:10Z</time>
      </trkpt>
      <trkpt lat="2.845126" lon="-75.09898">
        <ele>1269.0</ele>
        <time>2021-08-21T18:34:11Z</time>
      </trkpt>
      <trkpt lat="2.845182" lon="-75.09898">
        <ele>1268.9</ele>
        <time>2021-08-21T18:34:12Z</time>
      </trkpt>
      <trkpt lat="2.845235" lon="-75.09898">
        <ele>1268.8</ele>
        <time>2021-08-21T18:34:13Z</time>
      </trkpt>
      <trkpt lat="2.845287" lon="-75.098976">
        <ele>1268.7</ele>
        <time>2021-08-21T18:34:14Z</time>
      </trkpt>
      <trkpt lat="2.845341" lon="-75.09896">
        <ele>1268.6</ele>
        <time>2021-08-21T18:34:15Z</time>
      </trkpt>
      <trkpt lat="2.845391" lon="-75.09894">
        <ele>1268.6</ele>
        <time>2021-08-21T18:34:16Z</time>
      </trkpt>
      <trkpt lat="2.845437" lon="-75.09891">
        <ele>1268.5</ele>
        <time>2021-08-21T18:34:17Z</time>
      </trkpt>
      <trkpt lat="2.845481" lon="-75.09888">
        <ele>1268.4</ele>
        <time>2021-08-21T18:34:18Z</time>
      </trkpt>
      <trkpt lat="2.845519" lon="-75.09884">
        <ele>1268.3</ele>
        <time>2021-08-21T18:34:19Z</time>
      </trkpt>
      <trkpt lat="2.845556" lon="-75.0988">
        <ele>1268.1</ele>
        <time>2021-08-21T18:34:20Z</time>
      </trkpt>
      <trkpt lat="2.845591" lon="-75.098755">
        <ele>1267.8</ele>
        <time>2021-08-21T18:34:21Z</time>
      </trkpt>
      <trkpt lat="2.845624" lon="-75.09872">
        <ele>1267.6</ele>
        <time>2021-08-21T18:34:22Z</time>
      </trkpt>
      <trkpt lat="2.84566" lon="-75.09866">
        <ele>1267.2</ele>
        <time>2021-08-21T18:34:23Z</time>
      </trkpt>
      <trkpt lat="2.845698" lon="-75.09862">
        <ele>1266.8</ele>
        <time>2021-08-21T18:34:24Z</time>
      </trkpt>
      <trkpt lat="2.845734" lon="-75.09857">
        <ele>1266.5</ele>
        <time>2021-08-21T18:34:25Z</time>
      </trkpt>
      <trkpt lat="2.845771" lon="-75.098526">
        <ele>1266.0</ele>
        <time>2021-08-21T18:34:26Z</time>
      </trkpt>
      <trkpt lat="2.84581" lon="-75.09848">
        <ele>1265.6</ele>
        <time>2021-08-21T18:34:27Z</time>
      </trkpt>
      <trkpt lat="2.845849" lon="-75.09845">
        <ele>1265.2</ele>
        <time>2021-08-21T18:34:28Z</time>
      </trkpt>
      <trkpt lat="2.84589" lon="-75.09841">
        <ele>1264.8</ele>
        <time>2021-08-21T18:34:29Z</time>
      </trkpt>
      <trkpt lat="2.845933" lon="-75.09839">
        <ele>1264.4</ele>
        <time>2021-08-21T18:34:30Z</time>
      </trkpt>
      <trkpt lat="2.845983" lon="-75.09838">
        <ele>1264.1</ele>
        <time>2021-08-21T18:34:31Z</time>
      </trkpt>
      <trkpt lat="2.846027" lon="-75.09839">
        <ele>1263.8</ele>
        <time>2021-08-21T18:34:32Z</time>
      </trkpt>
      <trkpt lat="2.846063" lon="-75.09841">
        <ele>1263.5</ele>
        <time>2021-08-21T18:34:33Z</time>
      </trkpt>
      <trkpt lat="2.846088" lon="-75.09844">
        <ele>1263.2</ele>
        <time>2021-08-21T18:34:34Z</time>
      </trkpt>
      <trkpt lat="2.846105" lon="-75.09849">
        <ele>1262.9</ele>
        <time>2021-08-21T18:34:35Z</time>
      </trkpt>
      <trkpt lat="2.846118" lon="-75.09855">
        <ele>1262.6</ele>
        <time>2021-08-21T18:34:36Z</time>
      </trkpt>
      <trkpt lat="2.846128" lon="-75.09861">
        <ele>1262.2</ele>
        <time>2021-08-21T18:34:37Z</time>
      </trkpt>
      <trkpt lat="2.846137" lon="-75.09868">
        <ele>1261.8</ele>
        <time>2021-08-21T18:34:38Z</time>
      </trkpt>
      <trkpt lat="2.846149" lon="-75.09875">
        <ele>1261.4</ele>
        <time>2021-08-21T18:34:39Z</time>
      </trkpt>
      <trkpt lat="2.846166" lon="-75.098816">
        <ele>1260.9</ele>
        <time>2021-08-21T18:34:40Z</time>
      </trkpt>
      <trkpt lat="2.846186" lon="-75.098885">
        <ele>1260.5</ele>
        <time>2021-08-21T18:34:41Z</time>
      </trkpt>
      <trkpt lat="2.846213" lon="-75.09895">
        <ele>1260.0</ele>
        <time>2021-08-21T18:34:42Z</time>
      </trkpt>
      <trkpt lat="2.846246" lon="-75.099014">
        <ele>1259.5</ele>
        <time>2021-08-21T18:34:43Z</time>
      </trkpt>
      <trkpt lat="2.846284" lon="-75.09907">
        <ele>1259.1</ele>
        <time>2021-08-21T18:34:44Z</time>
      </trkpt>
      <trkpt lat="2.846326" lon="-75.09912">
        <ele>1258.6</ele>
        <time>2021-08-21T18:34:45Z</time>
      </trkpt>
      <trkpt lat="2.846502" lon="-75.09932">
        <ele>1256.9</ele>
        <time>2021-08-21T18:34:47Z</time>
      </trkpt>
      <trkpt lat="2.846512" lon="-75.09933">
        <ele>1256.7</ele>
        <time>2021-08-21T18:34:48Z</time>
      </trkpt>
      <trkpt lat="2.846531" lon="-75.09936">
        <ele>1256.5</ele>
        <time>2021-08-21T18:34:49Z</time>
      </trkpt>
      <trkpt lat="2.846553" lon="-75.099396">
        <ele>1256.3</ele>
        <time>2021-08-21T18:34:50Z</time>
      </trkpt>
      <trkpt lat="2.846576" lon="-75.09945">
        <ele>1256.0</ele>
        <time>2021-08-21T18:34:51Z</time>
      </trkpt>
      <trkpt lat="2.846599" lon="-75.0995">
        <ele>1255.6</ele>
        <time>2021-08-21T18:34:52Z</time>
      </trkpt>
      <trkpt lat="2.846622" lon="-75.099556">
        <ele>1255.3</ele>
        <time>2021-08-21T18:34:53Z</time>
      </trkpt>
      <trkpt lat="2.846645" lon="-75.09961">
        <ele>1254.9</ele>
        <time>2021-08-21T18:34:54Z</time>
      </trkpt>
      <trkpt lat="2.846669" lon="-75.09967">
        <ele>1254.5</ele>
        <time>2021-08-21T18:34:55Z</time>
      </trkpt>
      <trkpt lat="2.846693" lon="-75.09973">
        <ele>1254.1</ele>
        <time>2021-08-21T18:34:56Z</time>
      </trkpt>
      <trkpt lat="2.84672" lon="-75.099785">
        <ele>1253.7</ele>
        <time>2021-08-21T18:34:57Z</time>
      </trkpt>
      <trkpt lat="2.84675" lon="-75.099846">
        <ele>1253.2</ele>
        <time>2021-08-21T18:34:58Z</time>
      </trkpt>
      <trkpt lat="2.846783" lon="-75.0999">
        <ele>1252.8</ele>
        <time>2021-08-21T18:34:59Z</time>
      </trkpt>
      <trkpt lat="2.846823" lon="-75.099945">
        <ele>1252.4</ele>
        <time>2021-08-21T18:35:00Z</time>
      </trkpt>
      <trkpt lat="2.846867" lon="-75.09998">
        <ele>1252.1</ele>
        <time>2021-08-21T18:35:01Z</time>
      </trkpt>
      <trkpt lat="2.846916" lon="-75.100006">
        <ele>1251.8</ele>
        <time>2021-08-21T18:35:02Z</time>
      </trkpt>
      <trkpt lat="2.846969" lon="-75.10001">
        <ele>1251.5</ele>
        <time>2021-08-21T18:35:03Z</time>
      </trkpt>
      <trkpt lat="2.847025" lon="-75.10002">
        <ele>1251.2</ele>
        <time>2021-08-21T18:35:04Z</time>
      </trkpt>
      <trkpt lat="2.847083" lon="-75.10001">
        <ele>1250.9</ele>
        <time>2021-08-21T18:35:05Z</time>
      </trkpt>
      <trkpt lat="2.847142" lon="-75.100006">
        <ele>1250.6</ele>
        <time>2021-08-21T18:35:06Z</time>
      </trkpt>
      <trkpt lat="2.847202" lon="-75.09999">
        <ele>1250.3</ele>
        <time>2021-08-21T18:35:07Z</time>
      </trkpt>
      <trkpt lat="2.847262" lon="-75.099976">
        <ele>1250.1</ele>
        <time>2021-08-21T18:35:08Z</time>
      </trkpt>
      <trkpt lat="2.847321" lon="-75.09995">
        <ele>1249.8</ele>
        <time>2021-08-21T18:35:09Z</time>
      </trkpt>
      <trkpt lat="2.847378" lon="-75.09992">
        <ele>1249.7</ele>
        <time>2021-08-21T18:35:10Z</time>
      </trkpt>
      <trkpt lat="2.847434" lon="-75.09989">
        <ele>1249.5</ele>
        <time>2021-08-21T18:35:11Z</time>
      </trkpt>
      <trkpt lat="2.84749" lon="-75.09986">
        <ele>1249.3</ele>
        <time>2021-08-21T18:35:12Z</time>
      </trkpt>
      <trkpt lat="2.847543" lon="-75.09983">
        <ele>1249.2</ele>
        <time>2021-08-21T18:35:13Z</time>
      </trkpt>
      <trkpt lat="2.847596" lon="-75.0998">
        <ele>1249.1</ele>
        <time>2021-08-21T18:35:14Z</time>
      </trkpt>
      <trkpt lat="2.847647" lon="-75.09978">
        <ele>1249.0</ele>
        <time>2021-08-21T18:35:15Z</time>
      </trkpt>
      <trkpt lat="2.847701" lon="-75.09977">
        <ele>1248.8</ele>
        <time>2021-08-21T18:35:16Z</time>
      </trkpt>
      <trkpt lat="2.847755" lon="-75.09976">
        <ele>1248.7</ele>
        <time>2021-08-21T18:35:17Z</time>
      </trkpt>
      <trkpt lat="2.847803" lon="-75.09978">
        <ele>1248.6</ele>
        <time>2021-08-21T18:35:18Z</time>
      </trkpt>
      <trkpt lat="2.847845" lon="-75.0998">
        <ele>1248.6</ele>
        <time>2021-08-21T18:35:19Z</time>
      </trkpt>
      <trkpt lat="2.84788" lon="-75.09983">
        <ele>1248.5</ele>
        <time>2021-08-21T18:35:20Z</time>
      </trkpt>
      <trkpt lat="2.847908" lon="-75.09987">
        <ele>1248.4</ele>
        <time>2021-08-21T18:35:21Z</time>
      </trkpt>
      <trkpt lat="2.847931" lon="-75.09992">
        <ele>1248.3</ele>
        <time>2021-08-21T18:35:22Z</time>
      </trkpt>
      <trkpt lat="2.847948" lon="-75.099976">
        <ele>1248.2</ele>
        <time>2021-08-21T18:35:22Z</time>
      </trkpt>
      <trkpt lat="2.847979" lon="-75.100204">
        <ele>1247.6</ele>
        <time>2021-08-21T18:35:24Z</time>
      </trkpt>
      <trkpt lat="2.847976" lon="-75.10022">
        <ele>1247.6</ele>
        <time>2021-08-21T18:35:25Z</time>
      </trkpt>
      <trkpt lat="2.847971" lon="-75.10025">
        <ele>1247.5</ele>
        <time>2021-08-21T18:35:26Z</time>
      </trkpt>
      <trkpt lat="2.847961" lon="-75.100296">
        <ele>1247.3</ele>
        <time>2021-08-21T18:35:27Z</time>
      </trkpt>
      <trkpt lat="2.847948" lon="-75.10034">
        <ele>1247.2</ele>
        <time>2021-08-21T18:35:28Z</time>
      </trkpt>
      <trkpt lat="2.847935" lon="-75.10039">
        <ele>1247.0</ele>
        <time>2021-08-21T18:35:29Z</time>
      </trkpt>
      <trkpt lat="2.847924" lon="-75.10044">
        <ele>1246.9</ele>
        <time>2021-08-21T18:35:30Z</time>
      </trkpt>
      <trkpt lat="2.847922" lon="-75.100494">
        <ele>1246.7</ele>
        <time>2021-08-21T18:35:31Z</time>
      </trkpt>
      <trkpt lat="2.847932" lon="-75.10054">
        <ele>1246.5</ele>
        <time>2021-08-21T18:35:32Z</time>
      </trkpt>
      <trkpt lat="2.847952" lon="-75.100586">
        <ele>1246.2</ele>
        <time>2021-08-21T18:35:33Z</time>
      </trkpt>
      <trkpt lat="2.847985" lon="-75.10062">
        <ele>1245.9</ele>
        <time>2021-08-21T18:35:34Z</time>
      </trkpt>
      <trkpt lat="2.848026" lon="-75.10064">
        <ele>1245.6</ele>
        <time>2021-08-21T18:35:35Z</time>
      </trkpt>
      <trkpt lat="2.848073" lon="-75.100655">
        <ele>1245.3</ele>
        <time>2021-08-21T18:35:36Z</time>
      </trkpt>
      <trkpt lat="2.848126" lon="-75.100655">
        <ele>1245.0</ele>
        <time>2021-08-21T18:35:37Z</time>
      </trkpt>
      <trkpt lat="2.848183" lon="-75.100655">
        <ele>1244.6</ele>
        <time>2021-08-21T18:35:38Z</time>
      </trkpt>
      <trkpt lat="2.848244" lon="-75.10064">
        <ele>1244.2</ele>
        <time>2021-08-21T18:35:39Z</time>
      </trkpt>
      <trkpt lat="2.848308" lon="-75.10063">
        <ele>1243.8</ele>
        <time>2021-08-21T18:35:40Z</time>
      </trkpt>
      <trkpt lat="2.848374" lon="-75.10061">
        <ele>1243.3</ele>
        <time>2021-08-21T18:35:41Z</time>
      </trkpt>
      <trkpt lat="2.848443" lon="-75.10059">
        <ele>1242.8</ele>
        <time>2021-08-21T18:35:42Z</time>
      </trkpt>
      <trkpt lat="2.848516" lon="-75.10058">
        <ele>1242.3</ele>
        <time>2021-08-21T18:35:43Z</time>
      </trkpt>
      <trkpt lat="2.84859" lon="-75.10057">
        <ele>1241.9</ele>
        <time>2021-08-21T18:35:44Z</time>
      </trkpt>
      <trkpt lat="2.848667" lon="-75.10057">
        <ele>1241.5</ele>
        <time>2021-08-21T18:35:45Z</time>
      </trkpt>
      <trkpt lat="2.848746" lon="-75.10057">
        <ele>1241.1</ele>
        <time>2021-08-21T18:35:46Z</time>
      </trkpt>
      <trkpt lat="2.848822" lon="-75.100586">
        <ele>1240.7</ele>
        <time>2021-08-21T18:35:47Z</time>
      </trkpt>
      <trkpt lat="2.848896" lon="-75.1006">
        <ele>1240.3</ele>
        <time>2021-08-21T18:35:48Z</time>
      </trkpt>
      <trkpt lat="2.848971" lon="-75.10062">
        <ele>1239.9</ele>
        <time>2021-08-21T18:35:49Z</time>
      </trkpt>
      <trkpt lat="2.849044" lon="-75.10064">
        <ele>1239.6</ele>
        <time>2021-08-21T18:35:50Z</time>
      </trkpt>
      <trkpt lat="2.849117" lon="-75.10066">
        <ele>1239.2</ele>
        <time>2021-08-21T18:35:51Z</time>
      </trkpt>
      <trkpt lat="2.849189" lon="-75.10068">
        <ele>1238.9</ele>
        <time>2021-08-21T18:35:52Z</time>
      </trkpt>
      <trkpt lat="2.849261" lon="-75.1007">
        <ele>1238.6</ele>
        <time>2021-08-21T18:35:53Z</time>
      </trkpt>
      <trkpt lat="2.849328" lon="-75.10072">
        <ele>1238.3</ele>
        <time>2021-08-21T18:35:54Z</time>
      </trkpt>
      <trkpt lat="2.849389" lon="-75.10077">
        <ele>1238.0</ele>
        <time>2021-08-21T18:35:55Z</time>
      </trkpt>
      <trkpt lat="2.849435" lon="-75.100815">
        <ele>1237.8</ele>
        <time>2021-08-21T18:35:56Z</time>
      </trkpt>
      <trkpt lat="2.849464" lon="-75.10086">
        <ele>1237.7</ele>
        <time>2021-08-21T18:35:57Z</time>
      </trkpt>
      <trkpt lat="2.849478" lon="-75.10091">
        <ele>1237.6</ele>
        <time>2021-08-21T18:35:58Z</time>
      </trkpt>
      <trkpt lat="2.849476" lon="-75.10095">
        <ele>1237.5</ele>
        <time>2021-08-21T18:35:59Z</time>
      </trkpt>
      <trkpt lat="2.849454" lon="-75.10099">
        <ele>1237.4</ele>
        <time>2021-08-21T18:36:00Z</time>
      </trkpt>
      <trkpt lat="2.849418" lon="-75.10103">
        <ele>1237.3</ele>
        <time>2021-08-21T18:36:01Z</time>
      </trkpt>
      <trkpt lat="2.849373" lon="-75.10106">
        <ele>1237.2</ele>
        <time>2021-08-21T18:36:02Z</time>
      </trkpt>
      <trkpt lat="2.849319" lon="-75.101074">
        <ele>1237.0</ele>
        <time>2021-08-21T18:36:03Z</time>
      </trkpt>
      <trkpt lat="2.849258" lon="-75.10109">
        <ele>1236.8</ele>
        <time>2021-08-21T18:36:04Z</time>
      </trkpt>
      <trkpt lat="2.849197" lon="-75.10109">
        <ele>1236.6</ele>
        <time>2021-08-21T18:36:05Z</time>
      </trkpt>
      <trkpt lat="2.849134" lon="-75.10108">
        <ele>1236.3</ele>
        <time>2021-08-21T18:36:06Z</time>
      </trkpt>
      <trkpt lat="2.849075" lon="-75.101074">
        <ele>1236.0</ele>
        <time>2021-08-21T18:36:07Z</time>
      </trkpt>
      <trkpt lat="2.849011" lon="-75.10107">
        <ele>1235.6</ele>
        <time>2021-08-21T18:36:08Z</time>
      </trkpt>
      <trkpt lat="2.848945" lon="-75.10106">
        <ele>1235.2</ele>
        <time>2021-08-21T18:36:09Z</time>
      </trkpt>
      <trkpt lat="2.848878" lon="-75.10106">
        <ele>1234.7</ele>
        <time>2021-08-21T18:36:10Z</time>
      </trkpt>
      <trkpt lat="2.848812" lon="-75.10107">
        <ele>1234.2</ele>
        <time>2021-08-21T18:36:11Z</time>
      </trkpt>
      <trkpt lat="2.848745" lon="-75.10108">
        <ele>1233.7</ele>
        <time>2021-08-21T18:36:12Z</time>
      </trkpt>
      <trkpt lat="2.848678" lon="-75.1011">
        <ele>1233.2</ele>
        <time>2021-08-21T18:36:13Z</time>
      </trkpt>
      <trkpt lat="2.848611" lon="-75.10113">
        <ele>1232.6</ele>
        <time>2021-08-21T18:36:14Z</time>
      </trkpt>
      <trkpt lat="2.848541" lon="-75.101166">
        <ele>1232.0</ele>
        <time>2021-08-21T18:36:15Z</time>
      </trkpt>
      <trkpt lat="2.848478" lon="-75.101204">
        <ele>1231.5</ele>
        <time>2021-08-21T18:36:16Z</time>
      </trkpt>
      <trkpt lat="2.848417" lon="-75.10125">
        <ele>1231.0</ele>
        <time>2021-08-21T18:36:17Z</time>
      </trkpt>
      <trkpt lat="2.848356" lon="-75.1013">
        <ele>1230.5</ele>
        <time>2021-08-21T18:36:18Z</time>
      </trkpt>
      <trkpt lat="2.848301" lon="-75.101364">
        <ele>1230.1</ele>
        <time>2021-08-21T18:36:19Z</time>
      </trkpt>
      <trkpt lat="2.848254" lon="-75.10142">
        <ele>1229.6</ele>
        <time>2021-08-21T18:36:20Z</time>
      </trkpt>
      <trkpt lat="2.848209" lon="-75.10148">
        <ele>1229.2</ele>
        <time>2021-08-21T18:36:21Z</time>
      </trkpt>
      <trkpt lat="2.848163" lon="-75.10154">
        <ele>1228.7</ele>
        <time>2021-08-21T18:36:22Z</time>
      </trkpt>
      <trkpt lat="2.848113" lon="-75.10159">
        <ele>1228.2</ele>
        <time>2021-08-21T18:36:23Z</time>
      </trkpt>
      <trkpt lat="2.848057" lon="-75.10165">
        <ele>1227.8</ele>
        <time>2021-08-21T18:36:24Z</time>
      </trkpt>
      <trkpt lat="2.847992" lon="-75.101685">
        <ele>1227.3</ele>
        <time>2021-08-21T18:36:25Z</time>
      </trkpt>
      <trkpt lat="2.847927" lon="-75.10172">
        <ele>1227.0</ele>
        <time>2021-08-21T18:36:26Z</time>
      </trkpt>
      <trkpt lat="2.847858" lon="-75.101746">
        <ele>1226.6</ele>
        <time>2021-08-21T18:36:27Z</time>
      </trkpt>
      <trkpt lat="2.847785" lon="-75.101776">
        <ele>1226.3</ele>
        <time>2021-08-21T18:36:28Z</time>
      </trkpt>
      <trkpt lat="2.847721" lon="-75.1018">
        <ele>1225.9</ele>
        <time>2021-08-21T18:36:29Z</time>
      </trkpt>
      <trkpt lat="2.84766" lon="-75.10184">
        <ele>1225.6</ele>
        <time>2021-08-21T18:36:30Z</time>
      </trkpt>
      <trkpt lat="2.847607" lon="-75.101875">
        <ele>1225.2</ele>
        <time>2021-08-21T18:36:31Z</time>
      </trkpt>
      <trkpt lat="2.847563" lon="-75.10193">
        <ele>1224.9</ele>
        <time>2021-08-21T18:36:32Z</time>
      </trkpt>
      <trkpt lat="2.847531" lon="-75.10199">
        <ele>1224.5</ele>
        <time>2021-08-21T18:36:33Z</time>
      </trkpt>
      <trkpt lat="2.847509" lon="-75.10205">
        <ele>1224.2</ele>
        <time>2021-08-21T18:36:34Z</time>
      </trkpt>
      <trkpt lat="2.847492" lon="-75.10212">
        <ele>1223.8</ele>
        <time>2021-08-21T18:36:35Z</time>
      </trkpt>
      <trkpt lat="2.847473" lon="-75.10219">
        <ele>1223.4</ele>
        <time>2021-08-21T18:36:36Z</time>
      </trkpt>
      <trkpt lat="2.84745" lon="-75.10226">
        <ele>1223.1</ele>
        <time>2021-08-21T18:36:37Z</time>
      </trkpt>
      <trkpt lat="2.847415" lon="-75.10232">
        <ele>1222.7</ele>
        <time>2021-08-21T18:36:38Z</time>
      </trkpt>
      <trkpt lat="2.847377" lon="-75.10238">
        <ele>1222.4</ele>
        <time>2021-08-21T18:36:39Z</time>
      </trkpt>
      <trkpt lat="2.847331" lon="-75.10243">
        <ele>1221.8</ele>
        <time>2021-08-21T18:36:40Z</time>
      </trkpt>
      <trkpt lat="2.847279" lon="-75.10248">
        <ele>1221.5</ele>
        <time>2021-08-21T18:36:41Z</time>
      </trkpt>
      <trkpt lat="2.847223" lon="-75.10252">
        <ele>1221.1</ele>
        <time>2021-08-21T18:36:42Z</time>
      </trkpt>
      <trkpt lat="2.847161" lon="-75.10257">
        <ele>1220.7</ele>
        <time>2021-08-21T18:36:43Z</time>
      </trkpt>
      <trkpt lat="2.847106" lon="-75.102615">
        <ele>1220.4</ele>
        <time>2021-08-21T18:36:44Z</time>
      </trkpt>
      <trkpt lat="2.847056" lon="-75.10267">
        <ele>1220.0</ele>
        <time>2021-08-21T18:36:45Z</time>
      </trkpt>
      <trkpt lat="2.847018" lon="-75.10273">
        <ele>1219.7</ele>
        <time>2021-08-21T18:36:46Z</time>
      </trkpt>
      <trkpt lat="2.846998" lon="-75.10278">
        <ele>1219.4</ele>
        <time>2021-08-21T18:36:47Z</time>
      </trkpt>
      <trkpt lat="2.846995" lon="-75.102844">
        <ele>1219.1</ele>
        <time>2021-08-21T18:36:48Z</time>
      </trkpt>
      <trkpt lat="2.847007" lon="-75.1029">
        <ele>1218.8</ele>
        <time>2021-08-21T18:36:49Z</time>
      </trkpt>
      <trkpt lat="2.847029" lon="-75.10297">
        <ele>1218.5</ele>
        <time>2021-08-21T18:36:50Z</time>
      </trkpt>
      <trkpt lat="2.847047" lon="-75.10302">
        <ele>1218.1</ele>
        <time>2021-08-21T18:36:51Z</time>
      </trkpt>
      <trkpt lat="2.847061" lon="-75.10308">
        <ele>1217.8</ele>
        <time>2021-08-21T18:36:52Z</time>
      </trkpt>
      <trkpt lat="2.847063" lon="-75.10315">
        <ele>1217.4</ele>
        <time>2021-08-21T18:36:53Z</time>
      </trkpt>
      <trkpt lat="2.847056" lon="-75.10321">
        <ele>1217.1</ele>
        <time>2021-08-21T18:36:54Z</time>
      </trkpt>
      <trkpt lat="2.84704" lon="-75.10327">
        <ele>1216.8</ele>
        <time>2021-08-21T18:36:55Z</time>
      </trkpt>
      <trkpt lat="2.847019" lon="-75.10333">
        <ele>1216.5</ele>
        <time>2021-08-21T18:36:56Z</time>
      </trkpt>
      <trkpt lat="2.847" lon="-75.10339">
        <ele>1216.2</ele>
        <time>2021-08-21T18:36:57Z</time>
      </trkpt>
      <trkpt lat="2.846984" lon="-75.103455">
        <ele>1215.9</ele>
        <time>2021-08-21T18:36:58Z</time>
      </trkpt>
      <trkpt lat="2.846975" lon="-75.103516">
        <ele>1215.5</ele>
        <time>2021-08-21T18:36:59Z</time>
      </trkpt>
      <trkpt lat="2.84697" lon="-75.103584">
        <ele>1215.2</ele>
        <time>2021-08-21T18:37:00Z</time>
      </trkpt>
      <trkpt lat="2.84697" lon="-75.103645">
        <ele>1214.8</ele>
        <time>2021-08-21T18:37:01Z</time>
      </trkpt>
      <trkpt lat="2.846972" lon="-75.103714">
        <ele>1214.4</ele>
        <time>2021-08-21T18:37:02Z</time>
      </trkpt>
      <trkpt lat="2.846976" lon="-75.10378">
        <ele>1214.1</ele>
        <time>2021-08-21T18:37:03Z</time>
      </trkpt>
      <trkpt lat="2.84698" lon="-75.10384">
        <ele>1213.7</ele>
        <time>2021-08-21T18:37:04Z</time>
      </trkpt>
      <trkpt lat="2.846983" lon="-75.10391">
        <ele>1213.3</ele>
        <time>2021-08-21T18:37:05Z</time>
      </trkpt>
      <trkpt lat="2.846985" lon="-75.10398">
        <ele>1212.9</ele>
        <time>2021-08-21T18:37:06Z</time>
      </trkpt>
      <trkpt lat="2.846988" lon="-75.10405">
        <ele>1212.6</ele>
        <time>2021-08-21T18:37:07Z</time>
      </trkpt>
      <trkpt lat="2.846989" lon="-75.10412">
        <ele>1212.2</ele>
        <time>2021-08-21T18:37:08Z</time>
      </trkpt>
      <trkpt lat="2.84699" lon="-75.10419">
        <ele>1211.8</ele>
        <time>2021-08-21T18:37:09Z</time>
      </trkpt>
      <trkpt lat="2.846991" lon="-75.104256">
        <ele>1211.4</ele>
        <time>2021-08-21T18:37:10Z</time>
      </trkpt>
      <trkpt lat="2.846992" lon="-75.104324">
        <ele>1211.0</ele>
        <time>2021-08-21T18:37:11Z</time>
      </trkpt>
      <trkpt lat="2.846994" lon="-75.104385">
        <ele>1210.7</ele>
        <time>2021-08-21T18:37:12Z</time>
      </trkpt>
      <trkpt lat="2.846996" lon="-75.104454">
        <ele>1210.4</ele>
        <time>2021-08-21T18:37:13Z</time>
      </trkpt>
      <trkpt lat="2.846999" lon="-75.104515">
        <ele>1210.1</ele>
        <time>2021-08-21T18:37:14Z</time>
      </trkpt>
      <trkpt lat="2.847032" lon="-75.10474">
        <ele>1208.7</ele>
        <time>2021-08-21T18:37:16Z</time>
      </trkpt>
      <trkpt lat="2.84704" lon="-75.10475">
        <ele>1208.7</ele>
        <time>2021-08-21T18:37:17Z</time>
      </trkpt>
      <trkpt lat="2.84706" lon="-75.10477">
        <ele>1208.5</ele>
        <time>2021-08-21T18:37:18Z</time>
      </trkpt>
      <trkpt lat="2.847087" lon="-75.10479">
        <ele>1208.2</ele>
        <time>2021-08-21T18:37:19Z</time>
      </trkpt>
      <trkpt lat="2.847124" lon="-75.10481">
        <ele>1207.9</ele>
        <time>2021-08-21T18:37:20Z</time>
      </trkpt>
      <trkpt lat="2.847166" lon="-75.104836">
        <ele>1207.5</ele>
        <time>2021-08-21T18:37:21Z</time>
      </trkpt>
      <trkpt lat="2.847213" lon="-75.104866">
        <ele>1207.1</ele>
        <time>2021-08-21T18:37:22Z</time>
      </trkpt>
      <trkpt lat="2.847262" lon="-75.104904">
        <ele>1206.6</ele>
        <time>2021-08-21T18:37:23Z</time>
      </trkpt>
      <trkpt lat="2.847311" lon="-75.10494">
        <ele>1206.1</ele>
        <time>2021-08-21T18:37:24Z</time>
      </trkpt>
      <trkpt lat="2.847362" lon="-75.10497">
        <ele>1205.6</ele>
        <time>2021-08-21T18:37:25Z</time>
      </trkpt>
      <trkpt lat="2.847417" lon="-75.10501">
        <ele>1205.1</ele>
        <time>2021-08-21T18:37:26Z</time>
      </trkpt>
      <trkpt lat="2.847476" lon="-75.10505">
        <ele>1204.5</ele>
        <time>2021-08-21T18:37:27Z</time>
      </trkpt>
      <trkpt lat="2.847535" lon="-75.10508">
        <ele>1203.9</ele>
        <time>2021-08-21T18:37:28Z</time>
      </trkpt>
      <trkpt lat="2.847594" lon="-75.10512">
        <ele>1203.3</ele>
        <time>2021-08-21T18:37:29Z</time>
      </trkpt>
      <trkpt lat="2.847652" lon="-75.10515">
        <ele>1202.8</ele>
        <time>2021-08-21T18:37:30Z</time>
      </trkpt>
      <trkpt lat="2.847709" lon="-75.10519">
        <ele>1202.3</ele>
        <time>2021-08-21T18:37:31Z</time>
      </trkpt>
      <trkpt lat="2.847769" lon="-75.10521">
        <ele>1201.8</ele>
        <time>2021-08-21T18:37:32Z</time>
      </trkpt>
      <trkpt lat="2.847824" lon="-75.10523">
        <ele>1201.4</ele>
        <time>2021-08-21T18:37:33Z</time>
      </trkpt>
      <trkpt lat="2.84788" lon="-75.10524">
        <ele>1200.9</ele>
        <time>2021-08-21T18:37:34Z</time>
      </trkpt>
      <trkpt lat="2.847936" lon="-75.10523">
        <ele>1200.5</ele>
        <time>2021-08-21T18:37:35Z</time>
      </trkpt>
      <trkpt lat="2.847988" lon="-75.105225">
        <ele>1200.0</ele>
        <time>2021-08-21T18:37:36Z</time>
      </trkpt>
      <trkpt lat="2.848037" lon="-75.105194">
        <ele>1199.6</ele>
        <time>2021-08-21T18:37:37Z</time>
      </trkpt>
      <trkpt lat="2.848081" lon="-75.10516">
        <ele>1199.2</ele>
        <time>2021-08-21T18:37:38Z</time>
      </trkpt>
      <trkpt lat="2.848122" lon="-75.10511">
        <ele>1198.8</ele>
        <time>2021-08-21T18:37:39Z</time>
      </trkpt>
      <trkpt lat="2.848162" lon="-75.10506">
        <ele>1198.3</ele>
        <time>2021-08-21T18:37:40Z</time>
      </trkpt>
      <trkpt lat="2.848205" lon="-75.105">
        <ele>1197.9</ele>
        <time>2021-08-21T18:37:41Z</time>
      </trkpt>
      <trkpt lat="2.848249" lon="-75.10496">
        <ele>1197.4</ele>
        <time>2021-08-21T18:37:42Z</time>
      </trkpt>
      <trkpt lat="2.848296" lon="-75.10491">
        <ele>1197.0</ele>
        <time>2021-08-21T18:37:43Z</time>
      </trkpt>
      <trkpt lat="2.848347" lon="-75.10486">
        <ele>1196.5</ele>
        <time>2021-08-21T18:37:44Z</time>
      </trkpt>
      <trkpt lat="2.848408" lon="-75.10481">
        <ele>1196.0</ele>
        <time>2021-08-21T18:37:45Z</time>
      </trkpt>
      <trkpt lat="2.848477" lon="-75.10478">
        <ele>1195.5</ele>
        <time>2021-08-21T18:37:46Z</time>
      </trkpt>
      <trkpt lat="2.848552" lon="-75.10476">
        <ele>1195.1</ele>
        <time>2021-08-21T18:37:47Z</time>
      </trkpt>
      <trkpt lat="2.848629" lon="-75.10475">
        <ele>1194.6</ele>
        <time>2021-08-21T18:37:48Z</time>
      </trkpt>
      <trkpt lat="2.848698" lon="-75.10476">
        <ele>1194.2</ele>
        <time>2021-08-21T18:37:49Z</time>
      </trkpt>
      <trkpt lat="2.848755" lon="-75.10478">
        <ele>1193.9</ele>
        <time>2021-08-21T18:37:50Z</time>
      </trkpt>
      <trkpt lat="2.848797" lon="-75.10482">
        <ele>1193.6</ele>
        <time>2021-08-21T18:37:51Z</time>
      </trkpt>
      <trkpt lat="2.848822" lon="-75.10487">
        <ele>1193.3</ele>
        <time>2021-08-21T18:37:52Z</time>
      </trkpt>
      <trkpt lat="2.848834" lon="-75.104935">
        <ele>1193.1</ele>
        <time>2021-08-21T18:37:53Z</time>
      </trkpt>
      <trkpt lat="2.848837" lon="-75.104996">
        <ele>1192.8</ele>
        <time>2021-08-21T18:37:54Z</time>
      </trkpt>
      <trkpt lat="2.848841" lon="-75.10506">
        <ele>1192.5</ele>
        <time>2021-08-21T18:37:55Z</time>
      </trkpt>
      <trkpt lat="2.848852" lon="-75.10512">
        <ele>1192.3</ele>
        <time>2021-08-21T18:37:56Z</time>
      </trkpt>
      <trkpt lat="2.848873" lon="-75.10518">
        <ele>1192.0</ele>
        <time>2021-08-21T18:37:57Z</time>
      </trkpt>
      <trkpt lat="2.848906" lon="-75.105225">
        <ele>1191.7</ele>
        <time>2021-08-21T18:37:59Z</time>
      </trkpt>
      <trkpt lat="2.848974" lon="-75.10527">
        <ele>1191.3</ele>
        <time>2021-08-21T18:38:00Z</time>
      </trkpt>
      <trkpt lat="2.849042" lon="-75.10531">
        <ele>1190.9</ele>
        <time>2021-08-21T18:38:01Z</time>
      </trkpt>
      <trkpt lat="2.849109" lon="-75.10533">
        <ele>1190.5</ele>
        <time>2021-08-21T18:38:02Z</time>
      </trkpt>
      <trkpt lat="2.84918" lon="-75.10535">
        <ele>1190.1</ele>
        <time>2021-08-21T18:38:03Z</time>
      </trkpt>
      <trkpt lat="2.849248" lon="-75.10535">
        <ele>1189.8</ele>
        <time>2021-08-21T18:38:04Z</time>
      </trkpt>
      <trkpt lat="2.849311" lon="-75.10534">
        <ele>1189.5</ele>
        <time>2021-08-21T18:38:05Z</time>
      </trkpt>
      <trkpt lat="2.849372" lon="-75.10533">
        <ele>1189.1</ele>
        <time>2021-08-21T18:38:06Z</time>
      </trkpt>
      <trkpt lat="2.849439" lon="-75.10532">
        <ele>1188.8</ele>
        <time>2021-08-21T18:38:07Z</time>
      </trkpt>
      <trkpt lat="2.849505" lon="-75.10532">
        <ele>1188.4</ele>
        <time>2021-08-21T18:38:08Z</time>
      </trkpt>
      <trkpt lat="2.849569" lon="-75.10532">
        <ele>1188.1</ele>
        <time>2021-08-21T18:38:09Z</time>
      </trkpt>
      <trkpt lat="2.849626" lon="-75.10533">
        <ele>1187.7</ele>
        <time>2021-08-21T18:38:10Z</time>
      </trkpt>
      <trkpt lat="2.849676" lon="-75.10535">
        <ele>1187.4</ele>
        <time>2021-08-21T18:38:11Z</time>
      </trkpt>
      <trkpt lat="2.849717" lon="-75.10538">
        <ele>1187.1</ele>
        <time>2021-08-21T18:38:12Z</time>
      </trkpt>
      <trkpt lat="2.849748" lon="-75.105415">
        <ele>1186.7</ele>
        <time>2021-08-21T18:38:13Z</time>
      </trkpt>
      <trkpt lat="2.849769" lon="-75.10548">
        <ele>1186.3</ele>
        <time>2021-08-21T18:38:14Z</time>
      </trkpt>
      <trkpt lat="2.849784" lon="-75.10554">
        <ele>1185.8</ele>
        <time>2021-08-21T18:38:15Z</time>
      </trkpt>
      <trkpt lat="2.84979" lon="-75.1056">
        <ele>1185.2</ele>
        <time>2021-08-21T18:38:16Z</time>
      </trkpt>
      <trkpt lat="2.849786" lon="-75.10567">
        <ele>1184.6</ele>
        <time>2021-08-21T18:38:17Z</time>
      </trkpt>
      <trkpt lat="2.849774" lon="-75.105736">
        <ele>1184.0</ele>
        <time>2021-08-21T18:38:18Z</time>
      </trkpt>
      <trkpt lat="2.849754" lon="-75.1058">
        <ele>1183.5</ele>
        <time>2021-08-21T18:38:19Z</time>
      </trkpt>
      <trkpt lat="2.849728" lon="-75.10586">
        <ele>1182.9</ele>
        <time>2021-08-21T18:38:20Z</time>
      </trkpt>
      <trkpt lat="2.849698" lon="-75.10592">
        <ele>1182.4</ele>
        <time>2021-08-21T18:38:21Z</time>
      </trkpt>
      <trkpt lat="2.84967" lon="-75.10597">
        <ele>1181.8</ele>
        <time>2021-08-21T18:38:22Z</time>
      </trkpt>
      <trkpt lat="2.849647" lon="-75.10603">
        <ele>1181.3</ele>
        <time>2021-08-21T18:38:23Z</time>
      </trkpt>
      <trkpt lat="2.849635" lon="-75.106094">
        <ele>1180.8</ele>
        <time>2021-08-21T18:38:24Z</time>
      </trkpt>
      <trkpt lat="2.849633" lon="-75.10614">
        <ele>1180.3</ele>
        <time>2021-08-21T18:38:25Z</time>
      </trkpt>
      <trkpt lat="2.849643" lon="-75.10619">
        <ele>1179.9</ele>
        <time>2021-08-21T18:38:26Z</time>
      </trkpt>
      <trkpt lat="2.849666" lon="-75.10625">
        <ele>1179.3</ele>
        <time>2021-08-21T18:38:27Z</time>
      </trkpt>
      <trkpt lat="2.849698" lon="-75.10629">
        <ele>1178.8</ele>
        <time>2021-08-21T18:38:28Z</time>
      </trkpt>
      <trkpt lat="2.849742" lon="-75.10634">
        <ele>1178.3</ele>
        <time>2021-08-21T18:38:29Z</time>
      </trkpt>
      <trkpt lat="2.849787" lon="-75.10638">
        <ele>1177.7</ele>
        <time>2021-08-21T18:38:30Z</time>
      </trkpt>
      <trkpt lat="2.849846" lon="-75.10642">
        <ele>1177.0</ele>
        <time>2021-08-21T18:38:31Z</time>
      </trkpt>
      <trkpt lat="2.849908" lon="-75.10646">
        <ele>1176.3</ele>
        <time>2021-08-21T18:38:32Z</time>
      </trkpt>
      <trkpt lat="2.849974" lon="-75.1065">
        <ele>1175.5</ele>
        <time>2021-08-21T18:38:33Z</time>
      </trkpt>
      <trkpt lat="2.850042" lon="-75.10653">
        <ele>1174.8</ele>
        <time>2021-08-21T18:38:34Z</time>
      </trkpt>
      <trkpt lat="2.850112" lon="-75.10657">
        <ele>1174.1</ele>
        <time>2021-08-21T18:38:35Z</time>
      </trkpt>
      <trkpt lat="2.850182" lon="-75.106606">
        <ele>1173.4</ele>
        <time>2021-08-21T18:38:36Z</time>
      </trkpt>
      <trkpt lat="2.850254" lon="-75.10664">
        <ele>1172.7</ele>
        <time>2021-08-21T18:38:37Z</time>
      </trkpt>
      <trkpt lat="2.850532" lon="-75.10679">
        <ele>1169.9</ele>
        <time>2021-08-21T18:38:39Z</time>
      </trkpt>
      <trkpt lat="2.850542" lon="-75.1068">
        <ele>1169.8</ele>
        <time>2021-08-21T18:38:40Z</time>
      </trkpt>
      <trkpt lat="2.850569" lon="-75.10682">
        <ele>1169.6</ele>
        <time>2021-08-21T18:38:41Z</time>
      </trkpt>
      <trkpt lat="2.850603" lon="-75.10685">
        <ele>1169.2</ele>
        <time>2021-08-21T18:38:42Z</time>
      </trkpt>
      <trkpt lat="2.850641" lon="-75.10688">
        <ele>1168.8</ele>
        <time>2021-08-21T18:38:43Z</time>
      </trkpt>
      <trkpt lat="2.850679" lon="-75.10691">
        <ele>1168.5</ele>
        <time>2021-08-21T18:38:44Z</time>
      </trkpt>
      <trkpt lat="2.850721" lon="-75.10695">
        <ele>1168.1</ele>
        <time>2021-08-21T18:38:45Z</time>
      </trkpt>
      <trkpt lat="2.850768" lon="-75.10698">
        <ele>1167.6</ele>
        <time>2021-08-21T18:38:46Z</time>
      </trkpt>
      <trkpt lat="2.850816" lon="-75.10701">
        <ele>1167.1</ele>
        <time>2021-08-21T18:38:47Z</time>
      </trkpt>
      <trkpt lat="2.850867" lon="-75.10704">
        <ele>1166.7</ele>
        <time>2021-08-21T18:38:48Z</time>
      </trkpt>
      <trkpt lat="2.850915" lon="-75.10707">
        <ele>1166.2</ele>
        <time>2021-08-21T18:38:49Z</time>
      </trkpt>
      <trkpt lat="2.850963" lon="-75.10711">
        <ele>1165.8</ele>
        <time>2021-08-21T18:38:50Z</time>
      </trkpt>
      <trkpt lat="2.851007" lon="-75.107155">
        <ele>1165.2</ele>
        <time>2021-08-21T18:38:51Z</time>
      </trkpt>
      <trkpt lat="2.851042" lon="-75.10721">
        <ele>1164.7</ele>
        <time>2021-08-21T18:38:52Z</time>
      </trkpt>
      <trkpt lat="2.851067" lon="-75.10728">
        <ele>1164.0</ele>
        <time>2021-08-21T18:38:53Z</time>
      </trkpt>
      <trkpt lat="2.851084" lon="-75.10735">
        <ele>1164.0</ele>
        <time>2021-08-21T18:38:54Z</time>
      </trkpt>
      <trkpt lat="2.851095" lon="-75.10743">
        <ele>1163.5</ele>
        <time>2021-08-21T18:38:55Z</time>
      </trkpt>
      <trkpt lat="2.851104" lon="-75.10749">
        <ele>1163.1</ele>
        <time>2021-08-21T18:38:56Z</time>
      </trkpt>
      <trkpt lat="2.851115" lon="-75.10757">
        <ele>1162.6</ele>
        <time>2021-08-21T18:38:57Z</time>
      </trkpt>
      <trkpt lat="2.851129" lon="-75.107635">
        <ele>1162.1</ele>
        <time>2021-08-21T18:38:58Z</time>
      </trkpt>
      <trkpt lat="2.851148" lon="-75.1077">
        <ele>1161.6</ele>
        <time>2021-08-21T18:38:59Z</time>
      </trkpt>
      <trkpt lat="2.851169" lon="-75.10776">
        <ele>1161.2</ele>
        <time>2021-08-21T18:39:00Z</time>
      </trkpt>
      <trkpt lat="2.851193" lon="-75.10781">
        <ele>1160.7</ele>
        <time>2021-08-21T18:39:01Z</time>
      </trkpt>
      <trkpt lat="2.851222" lon="-75.10787">
        <ele>1160.2</ele>
        <time>2021-08-21T18:39:02Z</time>
      </trkpt>
      <trkpt lat="2.85134" lon="-75.10811">
        <ele>1158.3</ele>
        <time>2021-08-21T18:39:04Z</time>
      </trkpt>
      <trkpt lat="2.851346" lon="-75.10812">
        <ele>1158.2</ele>
        <time>2021-08-21T18:39:05Z</time>
      </trkpt>
      <trkpt lat="2.851355" lon="-75.10815">
        <ele>1158.0</ele>
        <time>2021-08-21T18:39:06Z</time>
      </trkpt>
      <trkpt lat="2.851366" lon="-75.108185">
        <ele>1157.7</ele>
        <time>2021-08-21T18:39:07Z</time>
      </trkpt>
      <trkpt lat="2.851377" lon="-75.10824">
        <ele>1157.3</ele>
        <time>2021-08-21T18:39:08Z</time>
      </trkpt>
      <trkpt lat="2.851387" lon="-75.108284">
        <ele>1157.0</ele>
        <time>2021-08-21T18:39:09Z</time>
      </trkpt>
      <trkpt lat="2.851396" lon="-75.108345">
        <ele>1156.6</ele>
        <time>2021-08-21T18:39:10Z</time>
      </trkpt>
      <trkpt lat="2.851405" lon="-75.1084">
        <ele>1156.2</ele>
        <time>2021-08-21T18:39:11Z</time>
      </trkpt>
      <trkpt lat="2.851412" lon="-75.10846">
        <ele>1155.9</ele>
        <time>2021-08-21T18:39:12Z</time>
      </trkpt>
      <trkpt lat="2.851418" lon="-75.10851">
        <ele>1155.5</ele>
        <time>2021-08-21T18:39:13Z</time>
      </trkpt>
      <trkpt lat="2.851425" lon="-75.108574">
        <ele>1155.1</ele>
        <time>2021-08-21T18:39:14Z</time>
      </trkpt>
      <trkpt lat="2.851432" lon="-75.108635">
        <ele>1154.8</ele>
        <time>2021-08-21T18:39:15Z</time>
      </trkpt>
      <trkpt lat="2.85144" lon="-75.108696">
        <ele>1154.4</ele>
        <time>2021-08-21T18:39:16Z</time>
      </trkpt>
      <trkpt lat="2.851447" lon="-75.10876">
        <ele>1154.0</ele>
        <time>2021-08-21T18:39:17Z</time>
      </trkpt>
      <trkpt lat="2.851454" lon="-75.10882">
        <ele>1153.6</ele>
        <time>2021-08-21T18:39:18Z</time>
      </trkpt>
      <trkpt lat="2.851461" lon="-75.10887">
        <ele>1153.2</ele>
        <time>2021-08-21T18:39:19Z</time>
      </trkpt>
      <trkpt lat="2.851469" lon="-75.108925">
        <ele>1152.9</ele>
        <time>2021-08-21T18:39:20Z</time>
      </trkpt>
      <trkpt lat="2.851479" lon="-75.10898">
        <ele>1152.6</ele>
        <time>2021-08-21T18:39:21Z</time>
      </trkpt>
      <trkpt lat="2.851487" lon="-75.10902">
        <ele>1152.4</ele>
        <time>2021-08-21T18:39:22Z</time>
      </trkpt>
      <trkpt lat="2.851496" lon="-75.109055">
        <ele>1152.2</ele>
        <time>2021-08-21T18:39:23Z</time>
      </trkpt>
      <trkpt lat="2.851506" lon="-75.109085">
        <ele>1152.0</ele>
        <time>2021-08-21T18:39:24Z</time>
      </trkpt>
      <trkpt lat="2.851514" lon="-75.10911">
        <ele>1151.9</ele>
        <time>2021-08-21T18:39:25Z</time>
      </trkpt>
      <trkpt lat="2.851521" lon="-75.10913">
        <ele>1151.8</ele>
        <time>2021-08-21T18:39:26Z</time>
      </trkpt>
      <trkpt lat="2.851665" lon="-75.10925">
        <ele>1150.7</ele>
        <time>2021-08-21T18:41:21Z</time>
      </trkpt>
      <trkpt lat="2.851673" lon="-75.10926">
        <ele>1150.6</ele>
        <time>2021-08-21T18:41:22Z</time>
      </trkpt>
      <trkpt lat="2.85169" lon="-75.10926">
        <ele>1150.5</ele>
        <time>2021-08-21T18:41:23Z</time>
      </trkpt>
      <trkpt lat="2.851713" lon="-75.10926">
        <ele>1150.3</ele>
        <time>2021-08-21T18:41:24Z</time>
      </trkpt>
      <trkpt lat="2.851744" lon="-75.10927">
        <ele>1150.1</ele>
        <time>2021-08-21T18:41:25Z</time>
      </trkpt>
      <trkpt lat="2.851775" lon="-75.10927">
        <ele>1149.9</ele>
        <time>2021-08-21T18:41:26Z</time>
      </trkpt>
      <trkpt lat="2.851808" lon="-75.10926">
        <ele>1149.6</ele>
        <time>2021-08-21T18:41:27Z</time>
      </trkpt>
      <trkpt lat="2.851844" lon="-75.10926">
        <ele>1149.3</ele>
        <time>2021-08-21T18:41:28Z</time>
      </trkpt>
      <trkpt lat="2.851884" lon="-75.10925">
        <ele>1148.9</ele>
        <time>2021-08-21T18:41:29Z</time>
      </trkpt>
      <trkpt lat="2.851922" lon="-75.109245">
        <ele>1148.6</ele>
        <time>2021-08-21T18:41:30Z</time>
      </trkpt>
      <trkpt lat="2.851965" lon="-75.10924">
        <ele>1148.2</ele>
        <time>2021-08-21T18:41:31Z</time>
      </trkpt>
      <trkpt lat="2.85201" lon="-75.10923">
        <ele>1147.8</ele>
        <time>2021-08-21T18:41:32Z</time>
      </trkpt>
      <trkpt lat="2.852057" lon="-75.10922">
        <ele>1147.3</ele>
        <time>2021-08-21T18:41:33Z</time>
      </trkpt>
      <trkpt lat="2.852107" lon="-75.109215">
        <ele>1146.9</ele>
        <time>2021-08-21T18:41:34Z</time>
      </trkpt>
      <trkpt lat="2.852163" lon="-75.1092">
        <ele>1146.4</ele>
        <time>2021-08-21T18:41:35Z</time>
      </trkpt>
      <trkpt lat="2.852217" lon="-75.1092">
        <ele>1145.9</ele>
        <time>2021-08-21T18:41:36Z</time>
      </trkpt>
      <trkpt lat="2.852273" lon="-75.10919">
        <ele>1145.5</ele>
        <time>2021-08-21T18:41:37Z</time>
      </trkpt>
      <trkpt lat="2.852521" lon="-75.10913">
        <ele>1143.7</ele>
        <time>2021-08-21T18:41:39Z</time>
      </trkpt>
      <trkpt lat="2.852532" lon="-75.10913">
        <ele>1143.6</ele>
        <time>2021-08-21T18:41:40Z</time>
      </trkpt>
      <trkpt lat="2.852558" lon="-75.109116">
        <ele>1143.3</ele>
        <time>2021-08-21T18:41:41Z</time>
      </trkpt>
      <trkpt lat="2.852596" lon="-75.10909">
        <ele>1143.0</ele>
        <time>2021-08-21T18:41:42Z</time>
      </trkpt>
      <trkpt lat="2.852642" lon="-75.10906">
        <ele>1142.7</ele>
        <time>2021-08-21T18:41:43Z</time>
      </trkpt>
      <trkpt lat="2.852694" lon="-75.10903">
        <ele>1142.2</ele>
        <time>2021-08-21T18:41:44Z</time>
      </trkpt>
      <trkpt lat="2.852755" lon="-75.10899">
        <ele>1141.7</ele>
        <time>2021-08-21T18:41:45Z</time>
      </trkpt>
      <trkpt lat="2.852811" lon="-75.10897">
        <ele>1141.3</ele>
        <time>2021-08-21T18:41:46Z</time>
      </trkpt>
      <trkpt lat="2.852869" lon="-75.10894">
        <ele>1140.8</ele>
        <time>2021-08-21T18:41:47Z</time>
      </trkpt>
      <trkpt lat="2.852924" lon="-75.10892">
        <ele>1140.4</ele>
        <time>2021-08-21T18:41:48Z</time>
      </trkpt>
      <trkpt lat="2.852978" lon="-75.108894">
        <ele>1140.0</ele>
        <time>2021-08-21T18:41:49Z</time>
      </trkpt>
      <trkpt lat="2.85303" lon="-75.10887">
        <ele>1139.6</ele>
        <time>2021-08-21T18:41:50Z</time>
      </trkpt>
      <trkpt lat="2.853081" lon="-75.10886">
        <ele>1139.2</ele>
        <time>2021-08-21T18:41:51Z</time>
      </trkpt>
      <trkpt lat="2.853137" lon="-75.10885">
        <ele>1138.8</ele>
        <time>2021-08-21T18:41:52Z</time>
      </trkpt>
      <trkpt lat="2.853191" lon="-75.10885">
        <ele>1138.4</ele>
        <time>2021-08-21T18:41:53Z</time>
      </trkpt>
      <trkpt lat="2.853241" lon="-75.10885">
        <ele>1138.1</ele>
        <time>2021-08-21T18:41:54Z</time>
      </trkpt>
      <trkpt lat="2.853292" lon="-75.108864">
        <ele>1137.7</ele>
        <time>2021-08-21T18:41:55Z</time>
      </trkpt>
      <trkpt lat="2.853347" lon="-75.10888">
        <ele>1137.4</ele>
        <time>2021-08-21T18:41:56Z</time>
      </trkpt>
      <trkpt lat="2.853406" lon="-75.1089">
        <ele>1137.0</ele>
        <time>2021-08-21T18:41:57Z</time>
      </trkpt>
      <trkpt lat="2.853468" lon="-75.10893">
        <ele>1136.6</ele>
        <time>2021-08-21T18:41:58Z</time>
      </trkpt>
      <trkpt lat="2.85353" lon="-75.10895">
        <ele>1136.2</ele>
        <time>2021-08-21T18:41:59Z</time>
      </trkpt>
      <trkpt lat="2.85359" lon="-75.10896">
        <ele>1135.8</ele>
        <time>2021-08-21T18:42:00Z</time>
      </trkpt>
      <trkpt lat="2.853648" lon="-75.10896">
        <ele>1135.5</ele>
        <time>2021-08-21T18:42:01Z</time>
      </trkpt>
      <trkpt lat="2.8537" lon="-75.108955">
        <ele>1135.2</ele>
        <time>2021-08-21T18:42:02Z</time>
      </trkpt>
      <trkpt lat="2.853748" lon="-75.10893">
        <ele>1134.9</ele>
        <time>2021-08-21T18:42:03Z</time>
      </trkpt>
      <trkpt lat="2.853791" lon="-75.108894">
        <ele>1134.7</ele>
        <time>2021-08-21T18:42:04Z</time>
      </trkpt>
      <trkpt lat="2.853831" lon="-75.10886">
        <ele>1134.4</ele>
        <time>2021-08-21T18:42:05Z</time>
      </trkpt>
      <trkpt lat="2.853871" lon="-75.10882">
        <ele>1134.2</ele>
        <time>2021-08-21T18:42:06Z</time>
      </trkpt>
      <trkpt lat="2.85391" lon="-75.10877">
        <ele>1134.0</ele>
        <time>2021-08-21T18:42:07Z</time>
      </trkpt>
      <trkpt lat="2.853947" lon="-75.10873">
        <ele>1133.7</ele>
        <time>2021-08-21T18:42:08Z</time>
      </trkpt>
      <trkpt lat="2.853991" lon="-75.10868">
        <ele>1133.5</ele>
        <time>2021-08-21T18:42:09Z</time>
      </trkpt>
      <trkpt lat="2.854038" lon="-75.10864">
        <ele>1133.2</ele>
        <time>2021-08-21T18:42:10Z</time>
      </trkpt>
      <trkpt lat="2.85409" lon="-75.10861">
        <ele>1133.0</ele>
        <time>2021-08-21T18:42:11Z</time>
      </trkpt>
      <trkpt lat="2.854148" lon="-75.10859">
        <ele>1132.8</ele>
        <time>2021-08-21T18:42:12Z</time>
      </trkpt>
      <trkpt lat="2.854206" lon="-75.108574">
        <ele>1132.6</ele>
        <time>2021-08-21T18:42:13Z</time>
      </trkpt>
      <trkpt lat="2.854263" lon="-75.10857">
        <ele>1132.5</ele>
        <time>2021-08-21T18:42:14Z</time>
      </trkpt>
      <trkpt lat="2.854318" lon="-75.10857">
        <ele>1132.4</ele>
        <time>2021-08-21T18:42:15Z</time>
      </trkpt>
      <trkpt lat="2.854371" lon="-75.10858">
        <ele>1132.2</ele>
        <time>2021-08-21T18:42:16Z</time>
      </trkpt>
      <trkpt lat="2.854416" lon="-75.1086">
        <ele>1132.2</ele>
        <time>2021-08-21T18:42:17Z</time>
      </trkpt>
      <trkpt lat="2.854453" lon="-75.10862">
        <ele>1132.1</ele>
        <time>2021-08-21T18:42:18Z</time>
      </trkpt>
      <trkpt lat="2.854478" lon="-75.10865">
        <ele>1132.0</ele>
        <time>2021-08-21T18:42:19Z</time>
      </trkpt>
      <trkpt lat="2.854492" lon="-75.10869">
        <ele>1132.0</ele>
        <time>2021-08-21T18:42:20Z</time>
      </trkpt>
      <trkpt lat="2.854495" lon="-75.108734">
        <ele>1131.9</ele>
        <time>2021-08-21T18:42:21Z</time>
      </trkpt>
      <trkpt lat="2.854465" lon="-75.10892">
        <ele>1131.6</ele>
        <time>2021-08-21T18:42:23Z</time>
      </trkpt>
      <trkpt lat="2.854459" lon="-75.10893">
        <ele>1131.5</ele>
        <time>2021-08-21T18:42:24Z</time>
      </trkpt>
      <trkpt lat="2.854449" lon="-75.108955">
        <ele>1131.5</ele>
        <time>2021-08-21T18:42:25Z</time>
      </trkpt>
      <trkpt lat="2.854436" lon="-75.10899">
        <ele>1131.4</ele>
        <time>2021-08-21T18:42:26Z</time>
      </trkpt>
      <trkpt lat="2.854419" lon="-75.10904">
        <ele>1131.4</ele>
        <time>2021-08-21T18:42:27Z</time>
      </trkpt>
      <trkpt lat="2.854401" lon="-75.109085">
        <ele>1131.3</ele>
        <time>2021-08-21T18:42:28Z</time>
      </trkpt>
      <trkpt lat="2.85438" lon="-75.10913">
        <ele>1131.2</ele>
        <time>2021-08-21T18:42:29Z</time>
      </trkpt>
      <trkpt lat="2.854357" lon="-75.109184">
        <ele>1131.2</ele>
        <time>2021-08-21T18:42:30Z</time>
      </trkpt>
      <trkpt lat="2.854336" lon="-75.10924">
        <ele>1131.2</ele>
        <time>2021-08-21T18:42:31Z</time>
      </trkpt>
      <trkpt lat="2.854309" lon="-75.10928">
        <ele>1131.2</ele>
        <time>2021-08-21T18:42:32Z</time>
      </trkpt>
      <trkpt lat="2.85428" lon="-75.10934">
        <ele>1131.2</ele>
        <time>2021-08-21T18:42:33Z</time>
      </trkpt>
      <trkpt lat="2.854249" lon="-75.10938">
        <ele>1131.3</ele>
        <time>2021-08-21T18:42:34Z</time>
      </trkpt>
      <trkpt lat="2.854218" lon="-75.10943">
        <ele>1131.4</ele>
        <time>2021-08-21T18:42:35Z</time>
      </trkpt>
      <trkpt lat="2.854189" lon="-75.10947">
        <ele>1131.5</ele>
        <time>2021-08-21T18:42:36Z</time>
      </trkpt>
      <trkpt lat="2.854159" lon="-75.1095">
        <ele>1131.6</ele>
        <time>2021-08-21T18:42:37Z</time>
      </trkpt>
      <trkpt lat="2.854124" lon="-75.10953">
        <ele>1131.6</ele>
        <time>2021-08-21T18:42:38Z</time>
      </trkpt>
      <trkpt lat="2.854087" lon="-75.10955">
        <ele>1131.7</ele>
        <time>2021-08-21T18:42:39Z</time>
      </trkpt>
      <trkpt lat="2.854049" lon="-75.10957">
        <ele>1131.8</ele>
        <time>2021-08-21T18:42:40Z</time>
      </trkpt>
      <trkpt lat="2.854012" lon="-75.1096">
        <ele>1131.8</ele>
        <time>2021-08-21T18:42:41Z</time>
      </trkpt>
      <trkpt lat="2.853968" lon="-75.10962">
        <ele>1131.9</ele>
        <time>2021-08-21T18:42:42Z</time>
      </trkpt>
      <trkpt lat="2.853922" lon="-75.10963">
        <ele>1131.9</ele>
        <time>2021-08-21T18:42:43Z</time>
      </trkpt>
      <trkpt lat="2.853875" lon="-75.109634">
        <ele>1132.0</ele>
        <time>2021-08-21T18:42:44Z</time>
      </trkpt>
      <trkpt lat="2.853832" lon="-75.10964">
        <ele>1132.0</ele>
        <time>2021-08-21T18:42:45Z</time>
      </trkpt>
      <trkpt lat="2.853788" lon="-75.10964">
        <ele>1132.0</ele>
        <time>2021-08-21T18:42:46Z</time>
      </trkpt>
      <trkpt lat="2.853741" lon="-75.10964">
        <ele>1132.1</ele>
        <time>2021-08-21T18:42:47Z</time>
      </trkpt>
      <trkpt lat="2.853691" lon="-75.10964">
        <ele>1132.1</ele>
        <time>2021-08-21T18:42:48Z</time>
      </trkpt>
      <trkpt lat="2.85364" lon="-75.109634">
        <ele>1132.2</ele>
        <time>2021-08-21T18:42:49Z</time>
      </trkpt>
      <trkpt lat="2.853592" lon="-75.109634">
        <ele>1132.3</ele>
        <time>2021-08-21T18:42:50Z</time>
      </trkpt>
      <trkpt lat="2.853542" lon="-75.10963">
        <ele>1132.5</ele>
        <time>2021-08-21T18:42:51Z</time>
      </trkpt>
      <trkpt lat="2.853488" lon="-75.10963">
        <ele>1132.6</ele>
        <time>2021-08-21T18:42:52Z</time>
      </trkpt>
      <trkpt lat="2.853435" lon="-75.10963">
        <ele>1132.7</ele>
        <time>2021-08-21T18:42:53Z</time>
      </trkpt>
      <trkpt lat="2.853235" lon="-75.10965">
        <ele>1133.2</ele>
        <time>2021-08-21T18:42:55Z</time>
      </trkpt>
      <trkpt lat="2.853224" lon="-75.10966">
        <ele>1133.2</ele>
        <time>2021-08-21T18:42:56Z</time>
      </trkpt>
      <trkpt lat="2.853204" lon="-75.109665">
        <ele>1133.3</ele>
        <time>2021-08-21T18:42:57Z</time>
      </trkpt>
      <trkpt lat="2.853178" lon="-75.10969">
        <ele>1133.3</ele>
        <time>2021-08-21T18:42:58Z</time>
      </trkpt>
      <trkpt lat="2.853147" lon="-75.1097">
        <ele>1133.4</ele>
        <time>2021-08-21T18:42:59Z</time>
      </trkpt>
      <trkpt lat="2.853112" lon="-75.10973">
        <ele>1133.5</ele>
        <time>2021-08-21T18:43:00Z</time>
      </trkpt>
      <trkpt lat="2.853072" lon="-75.10976">
        <ele>1133.6</ele>
        <time>2021-08-21T18:43:01Z</time>
      </trkpt>
      <trkpt lat="2.853032" lon="-75.10979">
        <ele>1133.7</ele>
        <time>2021-08-21T18:43:02Z</time>
      </trkpt>
      <trkpt lat="2.852992" lon="-75.10982">
        <ele>1133.8</ele>
        <time>2021-08-21T18:43:03Z</time>
      </trkpt>
      <trkpt lat="2.852954" lon="-75.10985">
        <ele>1133.9</ele>
        <time>2021-08-21T18:43:04Z</time>
      </trkpt>
      <trkpt lat="2.852918" lon="-75.109886">
        <ele>1134.1</ele>
        <time>2021-08-21T18:43:05Z</time>
      </trkpt>
      <trkpt lat="2.852887" lon="-75.10992">
        <ele>1134.2</ele>
        <time>2021-08-21T18:43:06Z</time>
      </trkpt>
      <trkpt lat="2.852861" lon="-75.109955">
        <ele>1134.3</ele>
        <time>2021-08-21T18:43:07Z</time>
      </trkpt>
      <trkpt lat="2.85284" lon="-75.10999">
        <ele>1134.4</ele>
        <time>2021-08-21T18:43:08Z</time>
      </trkpt>
      <trkpt lat="2.852824" lon="-75.11002">
        <ele>1134.6</ele>
        <time>2021-08-21T18:43:09Z</time>
      </trkpt>
      <trkpt lat="2.852812" lon="-75.11006">
        <ele>1134.7</ele>
        <time>2021-08-21T18:43:10Z</time>
      </trkpt>
      <trkpt lat="2.852803" lon="-75.11009">
        <ele>1134.8</ele>
        <time>2021-08-21T18:43:11Z</time>
      </trkpt>
      <trkpt lat="2.852799" lon="-75.11013">
        <ele>1134.9</ele>
        <time>2021-08-21T18:43:12Z</time>
      </trkpt>
      <trkpt lat="2.852798" lon="-75.11016">
        <ele>1135.0</ele>
        <time>2021-08-21T18:43:13Z</time>
      </trkpt>
      <trkpt lat="2.852802" lon="-75.11019">
        <ele>1135.1</ele>
        <time>2021-08-21T18:43:14Z</time>
      </trkpt>
      <trkpt lat="2.852808" lon="-75.11022">
        <ele>1135.2</ele>
        <time>2021-08-21T18:43:15Z</time>
      </trkpt>
      <trkpt lat="2.852817" lon="-75.11025">
        <ele>1135.3</ele>
        <time>2021-08-21T18:43:16Z</time>
      </trkpt>
      <trkpt lat="2.852829" lon="-75.110275">
        <ele>1135.4</ele>
        <time>2021-08-21T18:43:17Z</time>
      </trkpt>
      <trkpt lat="2.852842" lon="-75.110306">
        <ele>1135.5</ele>
        <time>2021-08-21T18:43:18Z</time>
      </trkpt>
      <trkpt lat="2.852854" lon="-75.11034">
        <ele>1135.6</ele>
        <time>2021-08-21T18:43:19Z</time>
      </trkpt>
      <trkpt lat="2.852868" lon="-75.11037">
        <ele>1135.7</ele>
        <time>2021-08-21T18:43:20Z</time>
      </trkpt>
      <trkpt lat="2.852883" lon="-75.1104">
        <ele>1135.9</ele>
        <time>2021-08-21T18:43:21Z</time>
      </trkpt>
      <trkpt lat="2.852897" lon="-75.11042">
        <ele>1136.0</ele>
        <time>2021-08-21T18:43:22Z</time>
      </trkpt>
      <trkpt lat="2.85291" lon="-75.11045">
        <ele>1136.2</ele>
        <time>2021-08-21T18:43:23Z</time>
      </trkpt>
      <trkpt lat="2.852922" lon="-75.11047">
        <ele>1136.3</ele>
        <time>2021-08-21T18:43:24Z</time>
      </trkpt>
      <trkpt lat="2.852934" lon="-75.110504">
        <ele>1136.5</ele>
        <time>2021-08-21T18:43:25Z</time>
      </trkpt>
      <trkpt lat="2.852986" lon="-75.11062">
        <ele>1137.1</ele>
        <time>2021-08-21T18:43:27Z</time>
      </trkpt>
      <trkpt lat="2.852989" lon="-75.11062">
        <ele>1137.2</ele>
        <time>2021-08-21T18:43:28Z</time>
      </trkpt>
      <trkpt lat="2.852994" lon="-75.110634">
        <ele>1137.2</ele>
        <time>2021-08-21T18:43:29Z</time>
      </trkpt>
      <trkpt lat="2.853003" lon="-75.11066">
        <ele>1137.4</ele>
        <time>2021-08-21T18:43:30Z</time>
      </trkpt>
      <trkpt lat="2.85301" lon="-75.11067">
        <ele>1137.5</ele>
        <time>2021-08-21T18:43:31Z</time>
      </trkpt>
      <trkpt lat="2.853017" lon="-75.1107">
        <ele>1137.7</ele>
        <time>2021-08-21T18:43:32Z</time>
      </trkpt>
      <trkpt lat="2.853025" lon="-75.110725">
        <ele>1137.8</ele>
        <time>2021-08-21T18:43:33Z</time>
      </trkpt>
      <trkpt lat="2.853032" lon="-75.11075">
        <ele>1138.0</ele>
        <time>2021-08-21T18:43:34Z</time>
      </trkpt>
      <trkpt lat="2.85304" lon="-75.11078">
        <ele>1138.2</ele>
        <time>2021-08-21T18:43:35Z</time>
      </trkpt>
      <trkpt lat="2.853047" lon="-75.1108">
        <ele>1138.4</ele>
        <time>2021-08-21T18:43:36Z</time>
      </trkpt>
      <trkpt lat="2.853053" lon="-75.11083">
        <ele>1138.5</ele>
        <time>2021-08-21T18:43:37Z</time>
      </trkpt>
      <trkpt lat="2.853059" lon="-75.110855">
        <ele>1138.7</ele>
        <time>2021-08-21T18:43:38Z</time>
      </trkpt>
      <trkpt lat="2.853063" lon="-75.110886">
        <ele>1138.8</ele>
        <time>2021-08-21T18:43:39Z</time>
      </trkpt>
      <trkpt lat="2.853069" lon="-75.11091">
        <ele>1139.0</ele>
        <time>2021-08-21T18:43:40Z</time>
      </trkpt>
      <trkpt lat="2.853075" lon="-75.11093">
        <ele>1139.1</ele>
        <time>2021-08-21T18:43:41Z</time>
      </trkpt>
      <trkpt lat="2.853081" lon="-75.110954">
        <ele>1139.3</ele>
        <time>2021-08-21T18:43:42Z</time>
      </trkpt>
      <trkpt lat="2.853087" lon="-75.110985">
        <ele>1139.5</ele>
        <time>2021-08-21T18:43:43Z</time>
      </trkpt>
      <trkpt lat="2.853093" lon="-75.11101">
        <ele>1139.6</ele>
        <time>2021-08-21T18:43:44Z</time>
      </trkpt>
      <trkpt lat="2.853098" lon="-75.11104">
        <ele>1139.8</ele>
        <time>2021-08-21T18:43:45Z</time>
      </trkpt>
      <trkpt lat="2.853104" lon="-75.11106">
        <ele>1140.0</ele>
        <time>2021-08-21T18:43:46Z</time>
      </trkpt>
      <trkpt lat="2.85311" lon="-75.111084">
        <ele>1140.1</ele>
        <time>2021-08-21T18:43:47Z</time>
      </trkpt>
      <trkpt lat="2.853115" lon="-75.11111">
        <ele>1140.3</ele>
        <time>2021-08-21T18:43:48Z</time>
      </trkpt>
      <trkpt lat="2.853121" lon="-75.11113">
        <ele>1140.4</ele>
        <time>2021-08-21T18:43:49Z</time>
      </trkpt>
      <trkpt lat="2.853127" lon="-75.11115">
        <ele>1140.6</ele>
        <time>2021-08-21T18:43:50Z</time>
      </trkpt>
      <trkpt lat="2.853132" lon="-75.111176">
        <ele>1140.7</ele>
        <time>2021-08-21T18:43:51Z</time>
      </trkpt>
      <trkpt lat="2.853135" lon="-75.1112">
        <ele>1140.9</ele>
        <time>2021-08-21T18:43:52Z</time>
      </trkpt>
      <trkpt lat="2.853139" lon="-75.11122">
        <ele>1141.0</ele>
        <time>2021-08-21T18:43:52Z</time>
      </trkpt>
      <trkpt lat="2.853141" lon="-75.11124">
        <ele>1141.1</ele>
        <time>2021-08-21T18:43:53Z</time>
      </trkpt>
      <trkpt lat="2.853142" lon="-75.11126">
        <ele>1141.3</ele>
        <time>2021-08-21T18:43:54Z</time>
      </trkpt>
      <trkpt lat="2.853143" lon="-75.111275">
        <ele>1141.4</ele>
        <time>2021-08-21T18:43:55Z</time>
      </trkpt>
      <trkpt lat="2.853142" lon="-75.1113">
        <ele>1141.5</ele>
        <time>2021-08-21T18:43:56Z</time>
      </trkpt>
      <trkpt lat="2.85314" lon="-75.11131">
        <ele>1141.6</ele>
        <time>2021-08-21T18:43:57Z</time>
      </trkpt>
      <trkpt lat="2.853138" lon="-75.111336">
        <ele>1141.8</ele>
        <time>2021-08-21T18:43:58Z</time>
      </trkpt>
      <trkpt lat="2.853135" lon="-75.11136">
        <ele>1141.9</ele>
        <time>2021-08-21T18:43:59Z</time>
      </trkpt>
      <trkpt lat="2.853131" lon="-75.111374">
        <ele>1142.0</ele>
        <time>2021-08-21T18:44:00Z</time>
      </trkpt>
      <trkpt lat="2.853126" lon="-75.11139">
        <ele>1142.1</ele>
        <time>2021-08-21T18:44:01Z</time>
      </trkpt>
      <trkpt lat="2.853119" lon="-75.11141">
        <ele>1142.2</ele>
        <time>2021-08-21T18:44:02Z</time>
      </trkpt>
      <trkpt lat="2.853112" lon="-75.11143">
        <ele>1142.3</ele>
        <time>2021-08-21T18:44:03Z</time>
      </trkpt>
      <trkpt lat="2.853103" lon="-75.11145">
        <ele>1142.4</ele>
        <time>2021-08-21T18:44:04Z</time>
      </trkpt>
      <trkpt lat="2.853095" lon="-75.111465">
        <ele>1142.5</ele>
        <time>2021-08-21T18:44:05Z</time>
      </trkpt>
      <trkpt lat="2.853087" lon="-75.11148">
        <ele>1142.6</ele>
        <time>2021-08-21T18:44:06Z</time>
      </trkpt>
      <trkpt lat="2.853078" lon="-75.111496">
        <ele>1142.7</ele>
        <time>2021-08-21T18:44:07Z</time>
      </trkpt>
      <trkpt lat="2.853069" lon="-75.11151">
        <ele>1142.8</ele>
        <time>2021-08-21T18:44:08Z</time>
      </trkpt>
      <trkpt lat="2.853061" lon="-75.11153">
        <ele>1142.9</ele>
        <time>2021-08-21T18:44:09Z</time>
      </trkpt>
      <trkpt lat="2.853053" lon="-75.11155">
        <ele>1143.0</ele>
        <time>2021-08-21T18:44:10Z</time>
      </trkpt>
      <trkpt lat="2.853045" lon="-75.111565">
        <ele>1143.1</ele>
        <time>2021-08-21T18:44:11Z</time>
      </trkpt>
      <trkpt lat="2.853038" lon="-75.11157">
        <ele>1143.2</ele>
        <time>2021-08-21T18:44:12Z</time>
      </trkpt>
      <trkpt lat="2.853031" lon="-75.11159">
        <ele>1143.3</ele>
        <time>2021-08-21T18:44:13Z</time>
      </trkpt>
      <trkpt lat="2.853026" lon="-75.1116">
        <ele>1143.4</ele>
        <time>2021-08-21T18:44:14Z</time>
      </trkpt>
      <trkpt lat="2.853021" lon="-75.11162">
        <ele>1143.5</ele>
        <time>2021-08-21T18:44:15Z</time>
      </trkpt>
      <trkpt lat="2.853017" lon="-75.11163">
        <ele>1143.6</ele>
        <time>2021-08-21T18:44:16Z</time>
      </trkpt>
      <trkpt lat="2.853012" lon="-75.11165">
        <ele>1143.7</ele>
        <time>2021-08-21T18:44:17Z</time>
      </trkpt>
      <trkpt lat="2.853005" lon="-75.11167">
        <ele>1143.8</ele>
        <time>2021-08-21T18:44:18Z</time>
      </trkpt>
      <trkpt lat="2.852999" lon="-75.11169">
        <ele>1143.9</ele>
        <time>2021-08-21T18:44:19Z</time>
      </trkpt>
      <trkpt lat="2.852994" lon="-75.1117">
        <ele>1143.9</ele>
        <time>2021-08-21T18:44:20Z</time>
      </trkpt>
      <trkpt lat="2.852988" lon="-75.11172">
        <ele>1144.0</ele>
        <time>2021-08-21T18:44:21Z</time>
      </trkpt>
      <trkpt lat="2.852982" lon="-75.11173">
        <ele>1144.1</ele>
        <time>2021-08-21T18:44:22Z</time>
      </trkpt>
      <trkpt lat="2.852975" lon="-75.11175">
        <ele>1144.2</ele>
        <time>2021-08-21T18:44:23Z</time>
      </trkpt>
      <trkpt lat="2.852968" lon="-75.11177">
        <ele>1144.4</ele>
        <time>2021-08-21T18:44:24Z</time>
      </trkpt>
      <trkpt lat="2.85296" lon="-75.111786">
        <ele>1144.5</ele>
        <time>2021-08-21T18:44:25Z</time>
      </trkpt>
      <trkpt lat="2.852951" lon="-75.11181">
        <ele>1144.6</ele>
        <time>2021-08-21T18:44:26Z</time>
      </trkpt>
      <trkpt lat="2.852941" lon="-75.111824">
        <ele>1144.7</ele>
        <time>2021-08-21T18:44:27Z</time>
      </trkpt>
      <trkpt lat="2.852929" lon="-75.11185">
        <ele>1144.8</ele>
        <time>2021-08-21T18:44:28Z</time>
      </trkpt>
      <trkpt lat="2.852916" lon="-75.11186">
        <ele>1144.9</ele>
        <time>2021-08-21T18:44:29Z</time>
      </trkpt>
      <trkpt lat="2.852903" lon="-75.111885">
        <ele>1145.0</ele>
        <time>2021-08-21T18:44:30Z</time>
      </trkpt>
      <trkpt lat="2.852891" lon="-75.1119">
        <ele>1145.1</ele>
        <time>2021-08-21T18:44:31Z</time>
      </trkpt>
      <trkpt lat="2.852877" lon="-75.11192">
        <ele>1145.1</ele>
        <time>2021-08-21T18:44:32Z</time>
      </trkpt>
      <trkpt lat="2.852863" lon="-75.11194">
        <ele>1145.2</ele>
        <time>2021-08-21T18:44:33Z</time>
      </trkpt>
      <trkpt lat="2.852848" lon="-75.11195">
        <ele>1145.3</ele>
        <time>2021-08-21T18:44:34Z</time>
      </trkpt>
      <trkpt lat="2.852832" lon="-75.11197">
        <ele>1145.4</ele>
        <time>2021-08-21T18:44:35Z</time>
      </trkpt>
      <trkpt lat="2.852816" lon="-75.111984">
        <ele>1145.4</ele>
        <time>2021-08-21T18:44:36Z</time>
      </trkpt>
      <trkpt lat="2.852799" lon="-75.112">
        <ele>1145.5</ele>
        <time>2021-08-21T18:44:37Z</time>
      </trkpt>
      <trkpt lat="2.852782" lon="-75.112015">
        <ele>1145.5</ele>
        <time>2021-08-21T18:44:38Z</time>
      </trkpt>
      <trkpt lat="2.852765" lon="-75.11202">
        <ele>1145.5</ele>
        <time>2021-08-21T18:44:39Z</time>
      </trkpt>
      <trkpt lat="2.852747" lon="-75.11204">
        <ele>1145.6</ele>
        <time>2021-08-21T18:44:40Z</time>
      </trkpt>
      <trkpt lat="2.852729" lon="-75.11205">
        <ele>1145.6</ele>
        <time>2021-08-21T18:44:41Z</time>
      </trkpt>
      <trkpt lat="2.852711" lon="-75.11206">
        <ele>1145.6</ele>
        <time>2021-08-21T18:44:42Z</time>
      </trkpt>
      <trkpt lat="2.852692" lon="-75.112076">
        <ele>1145.7</ele>
        <time>2021-08-21T18:44:43Z</time>
      </trkpt>
      <trkpt lat="2.852675" lon="-75.11208">
        <ele>1145.7</ele>
        <time>2021-08-21T18:44:44Z</time>
      </trkpt>
      <trkpt lat="2.852657" lon="-75.1121">
        <ele>1145.6</ele>
        <time>2021-08-21T18:44:45Z</time>
      </trkpt>
      <trkpt lat="2.852638" lon="-75.112114">
        <ele>1145.6</ele>
        <time>2021-08-21T18:44:46Z</time>
      </trkpt>
      <trkpt lat="2.852619" lon="-75.11213">
        <ele>1145.6</ele>
        <time>2021-08-21T18:44:47Z</time>
      </trkpt>
      <trkpt lat="2.8526" lon="-75.112144">
        <ele>1145.5</ele>
        <time>2021-08-21T18:44:48Z</time>
      </trkpt>
      <trkpt lat="2.85258" lon="-75.11216">
        <ele>1145.5</ele>
        <time>2021-08-21T18:44:49Z</time>
      </trkpt>
      <trkpt lat="2.85256" lon="-75.11218">
        <ele>1145.4</ele>
        <time>2021-08-21T18:44:50Z</time>
      </trkpt>
      <trkpt lat="2.852539" lon="-75.112206">
        <ele>1145.3</ele>
        <time>2021-08-21T18:44:51Z</time>
      </trkpt>
      <trkpt lat="2.852516" lon="-75.11223">
        <ele>1145.2</ele>
        <time>2021-08-21T18:44:52Z</time>
      </trkpt>
      <trkpt lat="2.852492" lon="-75.11225">
        <ele>1145.0</ele>
        <time>2021-08-21T18:44:53Z</time>
      </trkpt>
      <trkpt lat="2.852466" lon="-75.112274">
        <ele>1144.9</ele>
        <time>2021-08-21T18:44:54Z</time>
      </trkpt>
      <trkpt lat="2.852439" lon="-75.1123">
        <ele>1144.7</ele>
        <time>2021-08-21T18:44:55Z</time>
      </trkpt>
      <trkpt lat="2.852409" lon="-75.11232">
        <ele>1144.5</ele>
        <time>2021-08-21T18:44:56Z</time>
      </trkpt>
      <trkpt lat="2.852376" lon="-75.11234">
        <ele>1144.2</ele>
        <time>2021-08-21T18:44:57Z</time>
      </trkpt>
      <trkpt lat="2.85234" lon="-75.112366">
        <ele>1144.0</ele>
        <time>2021-08-21T18:44:58Z</time>
      </trkpt>
      <trkpt lat="2.852299" lon="-75.11239">
        <ele>1143.7</ele>
        <time>2021-08-21T18:44:59Z</time>
      </trkpt>
      <trkpt lat="2.852255" lon="-75.11241">
        <ele>1143.4</ele>
        <time>2021-08-21T18:45:00Z</time>
      </trkpt>
      <trkpt lat="2.852209" lon="-75.11243">
        <ele>1143.1</ele>
        <time>2021-08-21T18:45:01Z</time>
      </trkpt>
      <trkpt lat="2.852159" lon="-75.11244">
        <ele>1142.8</ele>
        <time>2021-08-21T18:45:02Z</time>
      </trkpt>
      <trkpt lat="2.852108" lon="-75.11245">
        <ele>1142.5</ele>
        <time>2021-08-21T18:45:03Z</time>
      </trkpt>
      <trkpt lat="2.85205" lon="-75.11245">
        <ele>1142.2</ele>
        <time>2021-08-21T18:45:04Z</time>
      </trkpt>
      <trkpt lat="2.851997" lon="-75.11245">
        <ele>1141.9</ele>
        <time>2021-08-21T18:45:05Z</time>
      </trkpt>
      <trkpt lat="2.851942" lon="-75.11244">
        <ele>1141.6</ele>
        <time>2021-08-21T18:45:06Z</time>
      </trkpt>
      <trkpt lat="2.851883" lon="-75.112434">
        <ele>1141.4</ele>
        <time>2021-08-21T18:45:07Z</time>
      </trkpt>
      <trkpt lat="2.851825" lon="-75.11243">
        <ele>1141.1</ele>
        <time>2021-08-21T18:45:08Z</time>
      </trkpt>
      <trkpt lat="2.851605" lon="-75.11243">
        <ele>1140.3</ele>
        <time>2021-08-21T18:45:10Z</time>
      </trkpt>
      <trkpt lat="2.851592" lon="-75.112434">
        <ele>1140.3</ele>
        <time>2021-08-21T18:45:11Z</time>
      </trkpt>
      <trkpt lat="2.851565" lon="-75.11244">
        <ele>1140.2</ele>
        <time>2021-08-21T18:45:12Z</time>
      </trkpt>
      <trkpt lat="2.85153" lon="-75.112465">
        <ele>1140.1</ele>
        <time>2021-08-21T18:45:13Z</time>
      </trkpt>
      <trkpt lat="2.851489" lon="-75.11248">
        <ele>1139.9</ele>
        <time>2021-08-21T18:45:14Z</time>
      </trkpt>
      <trkpt lat="2.85145" lon="-75.1125">
        <ele>1139.7</ele>
        <time>2021-08-21T18:45:15Z</time>
      </trkpt>
      <trkpt lat="2.85141" lon="-75.11253">
        <ele>1139.6</ele>
        <time>2021-08-21T18:45:16Z</time>
      </trkpt>
      <trkpt lat="2.851373" lon="-75.112564">
        <ele>1139.5</ele>
        <time>2021-08-21T18:45:17Z</time>
      </trkpt>
      <trkpt lat="2.851339" lon="-75.1126">
        <ele>1139.4</ele>
        <time>2021-08-21T18:45:18Z</time>
      </trkpt>
      <trkpt lat="2.851311" lon="-75.11263">
        <ele>1139.2</ele>
        <time>2021-08-21T18:45:19Z</time>
      </trkpt>
      <trkpt lat="2.851287" lon="-75.11268">
        <ele>1139.1</ele>
        <time>2021-08-21T18:45:20Z</time>
      </trkpt>
      <trkpt lat="2.85127" lon="-75.112724">
        <ele>1139.0</ele>
        <time>2021-08-21T18:45:21Z</time>
      </trkpt>
      <trkpt lat="2.851258" lon="-75.11276">
        <ele>1138.8</ele>
        <time>2021-08-21T18:45:22Z</time>
      </trkpt>
      <trkpt lat="2.851245" lon="-75.11293">
        <ele>1138.1</ele>
        <time>2021-08-21T18:45:24Z</time>
      </trkpt>
      <trkpt lat="2.851248" lon="-75.11294">
        <ele>1138.1</ele>
        <time>2021-08-21T18:45:25Z</time>
      </trkpt>
      <trkpt lat="2.851254" lon="-75.11297">
        <ele>1137.9</ele>
        <time>2021-08-21T18:45:26Z</time>
      </trkpt>
      <trkpt lat="2.851265" lon="-75.113">
        <ele>1137.7</ele>
        <time>2021-08-21T18:45:27Z</time>
      </trkpt>
      <trkpt lat="2.851279" lon="-75.11304">
        <ele>1137.4</ele>
        <time>2021-08-21T18:45:28Z</time>
      </trkpt>
      <trkpt lat="2.851297" lon="-75.113075">
        <ele>1137.2</ele>
        <time>2021-08-21T18:45:29Z</time>
      </trkpt>
      <trkpt lat="2.851318" lon="-75.11311">
        <ele>1136.9</ele>
        <time>2021-08-21T18:45:30Z</time>
      </trkpt>
      <trkpt lat="2.85134" lon="-75.11315">
        <ele>1136.5</ele>
        <time>2021-08-21T18:45:31Z</time>
      </trkpt>
      <trkpt lat="2.851367" lon="-75.11319">
        <ele>1136.2</ele>
        <time>2021-08-21T18:45:32Z</time>
      </trkpt>
      <trkpt lat="2.851399" lon="-75.11322">
        <ele>1135.9</ele>
        <time>2021-08-21T18:45:33Z</time>
      </trkpt>
      <trkpt lat="2.85144" lon="-75.11326">
        <ele>1135.4</ele>
        <time>2021-08-21T18:45:34Z</time>
      </trkpt>
      <trkpt lat="2.851485" lon="-75.11329">
        <ele>1134.9</ele>
        <time>2021-08-21T18:45:35Z</time>
      </trkpt>
      <trkpt lat="2.851532" lon="-75.11333">
        <ele>1134.4</ele>
        <time>2021-08-21T18:45:36Z</time>
      </trkpt>
      <trkpt lat="2.851581" lon="-75.11336">
        <ele>1134.0</ele>
        <time>2021-08-21T18:45:37Z</time>
      </trkpt>
      <trkpt lat="2.851631" lon="-75.113396">
        <ele>1133.5</ele>
        <time>2021-08-21T18:45:38Z</time>
      </trkpt>
      <trkpt lat="2.851682" lon="-75.11343">
        <ele>1133.0</ele>
        <time>2021-08-21T18:45:39Z</time>
      </trkpt>
      <trkpt lat="2.851729" lon="-75.113464">
        <ele>1132.5</ele>
        <time>2021-08-21T18:45:40Z</time>
      </trkpt>
      <trkpt lat="2.851769" lon="-75.11351">
        <ele>1132.0</ele>
        <time>2021-08-21T18:45:41Z</time>
      </trkpt>
      <trkpt lat="2.851804" lon="-75.11355">
        <ele>1131.5</ele>
        <time>2021-08-21T18:45:42Z</time>
      </trkpt>
      <trkpt lat="2.851831" lon="-75.113594">
        <ele>1131.0</ele>
        <time>2021-08-21T18:45:43Z</time>
      </trkpt>
      <trkpt lat="2.85185" lon="-75.11365">
        <ele>1130.5</ele>
        <time>2021-08-21T18:45:44Z</time>
      </trkpt>
      <trkpt lat="2.851863" lon="-75.1137">
        <ele>1129.9</ele>
        <time>2021-08-21T18:45:45Z</time>
      </trkpt>
      <trkpt lat="2.851872" lon="-75.11376">
        <ele>1129.4</ele>
        <time>2021-08-21T18:45:46Z</time>
      </trkpt>
      <trkpt lat="2.851878" lon="-75.11382">
        <ele>1128.8</ele>
        <time>2021-08-21T18:45:47Z</time>
      </trkpt>
      <trkpt lat="2.851884" lon="-75.11389">
        <ele>1128.3</ele>
        <time>2021-08-21T18:45:48Z</time>
      </trkpt>
      <trkpt lat="2.851889" lon="-75.11395">
        <ele>1127.8</ele>
        <time>2021-08-21T18:45:49Z</time>
      </trkpt>
      <trkpt lat="2.851897" lon="-75.11402">
        <ele>1127.3</ele>
        <time>2021-08-21T18:45:50Z</time>
      </trkpt>
      <trkpt lat="2.851907" lon="-75.11408">
        <ele>1126.8</ele>
        <time>2021-08-21T18:45:51Z</time>
      </trkpt>
      <trkpt lat="2.851926" lon="-75.114136">
        <ele>1126.4</ele>
        <time>2021-08-21T18:45:52Z</time>
      </trkpt>
      <trkpt lat="2.851951" lon="-75.11418">
        <ele>1126.0</ele>
        <time>2021-08-21T18:45:53Z</time>
      </trkpt>
      <trkpt lat="2.851994" lon="-75.11422">
        <ele>1125.5</ele>
        <time>2021-08-21T18:45:54Z</time>
      </trkpt>
      <trkpt lat="2.852044" lon="-75.11426">
        <ele>1125.0</ele>
        <time>2021-08-21T18:45:55Z</time>
      </trkpt>
      <trkpt lat="2.852099" lon="-75.11429">
        <ele>1124.3</ele>
        <time>2021-08-21T18:45:56Z</time>
      </trkpt>
      <trkpt lat="2.852155" lon="-75.11431">
        <ele>1123.7</ele>
        <time>2021-08-21T18:45:57Z</time>
      </trkpt>
      <trkpt lat="2.85221" lon="-75.114334">
        <ele>1123.0</ele>
        <time>2021-08-21T18:45:58Z</time>
      </trkpt>
      <trkpt lat="2.852273" lon="-75.11436">
        <ele>1122.3</ele>
        <time>2021-08-21T18:45:59Z</time>
      </trkpt>
      <trkpt lat="2.85234" lon="-75.11438">
        <ele>1121.6</ele>
        <time>2021-08-21T18:46:00Z</time>
      </trkpt>
      <trkpt lat="2.852407" lon="-75.114395">
        <ele>1120.8</ele>
        <time>2021-08-21T18:46:01Z</time>
      </trkpt>
      <trkpt lat="2.85247" lon="-75.11441">
        <ele>1120.2</ele>
        <time>2021-08-21T18:46:02Z</time>
      </trkpt>
      <trkpt lat="2.852538" lon="-75.114426">
        <ele>1119.5</ele>
        <time>2021-08-21T18:46:03Z</time>
      </trkpt>
      <trkpt lat="2.85261" lon="-75.11444">
        <ele>1118.8</ele>
        <time>2021-08-21T18:46:04Z</time>
      </trkpt>
      <trkpt lat="2.852687" lon="-75.11446">
        <ele>1118.0</ele>
        <time>2021-08-21T18:46:05Z</time>
      </trkpt>
      <trkpt lat="2.852763" lon="-75.11447">
        <ele>1117.3</ele>
        <time>2021-08-21T18:46:06Z</time>
      </trkpt>
      <trkpt lat="2.853053" lon="-75.114494">
        <ele>1114.7</ele>
        <time>2021-08-21T18:46:08Z</time>
      </trkpt>
      <trkpt lat="2.853074" lon="-75.114494">
        <ele>1114.5</ele>
        <time>2021-08-21T18:46:09Z</time>
      </trkpt>
      <trkpt lat="2.853112" lon="-75.11449">
        <ele>1114.1</ele>
        <time>2021-08-21T18:46:10Z</time>
      </trkpt>
      <trkpt lat="2.853162" lon="-75.11449">
        <ele>1113.7</ele>
        <time>2021-08-21T18:46:11Z</time>
      </trkpt>
      <trkpt lat="2.853216" lon="-75.11448">
        <ele>1113.2</ele>
        <time>2021-08-21T18:46:12Z</time>
      </trkpt>
      <trkpt lat="2.853273" lon="-75.11447">
        <ele>1112.7</ele>
        <time>2021-08-21T18:46:13Z</time>
      </trkpt>
      <trkpt lat="2.853325" lon="-75.11446">
        <ele>1112.2</ele>
        <time>2021-08-21T18:46:14Z</time>
      </trkpt>
      <trkpt lat="2.853381" lon="-75.11445">
        <ele>1111.7</ele>
        <time>2021-08-21T18:46:15Z</time>
      </trkpt>
      <trkpt lat="2.853433" lon="-75.11444">
        <ele>1111.2</ele>
        <time>2021-08-21T18:46:16Z</time>
      </trkpt>
      <trkpt lat="2.853481" lon="-75.11442">
        <ele>1110.7</ele>
        <time>2021-08-21T18:46:17Z</time>
      </trkpt>
      <trkpt lat="2.853532" lon="-75.1144">
        <ele>1110.2</ele>
        <time>2021-08-21T18:46:18Z</time>
      </trkpt>
      <trkpt lat="2.853582" lon="-75.11438">
        <ele>1109.7</ele>
        <time>2021-08-21T18:46:19Z</time>
      </trkpt>
      <trkpt lat="2.853628" lon="-75.11435">
        <ele>1109.3</ele>
        <time>2021-08-21T18:46:20Z</time>
      </trkpt>
      <trkpt lat="2.853805" lon="-75.1142">
        <ele>1107.5</ele>
        <time>2021-08-21T18:46:22Z</time>
      </trkpt>
      <trkpt lat="2.853813" lon="-75.11418">
        <ele>1107.4</ele>
        <time>2021-08-21T18:46:23Z</time>
      </trkpt>
      <trkpt lat="2.853831" lon="-75.11415">
        <ele>1107.2</ele>
        <time>2021-08-21T18:46:24Z</time>
      </trkpt>
      <trkpt lat="2.85386" lon="-75.11411">
        <ele>1107.0</ele>
        <time>2021-08-21T18:46:25Z</time>
      </trkpt>
      <trkpt lat="2.853898" lon="-75.114075">
        <ele>1106.7</ele>
        <time>2021-08-21T18:46:26Z</time>
      </trkpt>
      <trkpt lat="2.853937" lon="-75.11404">
        <ele>1106.4</ele>
        <time>2021-08-21T18:46:27Z</time>
      </trkpt>
      <trkpt lat="2.85398" lon="-75.11399">
        <ele>1106.1</ele>
        <time>2021-08-21T18:46:28Z</time>
      </trkpt>
      <trkpt lat="2.854022" lon="-75.113945">
        <ele>1105.9</ele>
        <time>2021-08-21T18:46:29Z</time>
      </trkpt>
      <trkpt lat="2.854063" lon="-75.1139">
        <ele>1105.7</ele>
        <time>2021-08-21T18:46:30Z</time>
      </trkpt>
      <trkpt lat="2.854101" lon="-75.11385">
        <ele>1105.5</ele>
        <time>2021-08-21T18:46:31Z</time>
      </trkpt>
      <trkpt lat="2.854139" lon="-75.11381">
        <ele>1105.4</ele>
        <time>2021-08-21T18:46:32Z</time>
      </trkpt>
      <trkpt lat="2.854177" lon="-75.113754">
        <ele>1105.2</ele>
        <time>2021-08-21T18:46:33Z</time>
      </trkpt>
      <trkpt lat="2.85421" lon="-75.11371">
        <ele>1105.1</ele>
        <time>2021-08-21T18:46:34Z</time>
      </trkpt>
      <trkpt lat="2.854238" lon="-75.11366">
        <ele>1105.0</ele>
        <time>2021-08-21T18:46:35Z</time>
      </trkpt>
      <trkpt lat="2.854261" lon="-75.11362">
        <ele>1104.9</ele>
        <time>2021-08-21T18:46:36Z</time>
      </trkpt>
      <trkpt lat="2.854281" lon="-75.11356">
        <ele>1104.8</ele>
        <time>2021-08-21T18:46:37Z</time>
      </trkpt>
      <trkpt lat="2.8543" lon="-75.11352">
        <ele>1104.7</ele>
        <time>2021-08-21T18:46:38Z</time>
      </trkpt>
      <trkpt lat="2.854321" lon="-75.113464">
        <ele>1104.6</ele>
        <time>2021-08-21T18:46:39Z</time>
      </trkpt>
      <trkpt lat="2.854343" lon="-75.11342">
        <ele>1104.5</ele>
        <time>2021-08-21T18:46:40Z</time>
      </trkpt>
      <trkpt lat="2.854365" lon="-75.11338">
        <ele>1104.4</ele>
        <time>2021-08-21T18:46:41Z</time>
      </trkpt>
      <trkpt lat="2.854395" lon="-75.11335">
        <ele>1104.3</ele>
        <time>2021-08-21T18:46:42Z</time>
      </trkpt>
      <trkpt lat="2.854427" lon="-75.11333">
        <ele>1104.3</ele>
        <time>2021-08-21T18:46:43Z</time>
      </trkpt>
      <trkpt lat="2.854468" lon="-75.11331">
        <ele>1104.2</ele>
        <time>2021-08-21T18:46:44Z</time>
      </trkpt>
      <trkpt lat="2.854508" lon="-75.11331">
        <ele>1104.1</ele>
        <time>2021-08-21T18:46:45Z</time>
      </trkpt>
      <trkpt lat="2.854549" lon="-75.11331">
        <ele>1104.1</ele>
        <time>2021-08-21T18:46:46Z</time>
      </trkpt>
      <trkpt lat="2.854593" lon="-75.113335">
        <ele>1104.0</ele>
        <time>2021-08-21T18:46:47Z</time>
      </trkpt>
      <trkpt lat="2.854632" lon="-75.11336">
        <ele>1103.9</ele>
        <time>2021-08-21T18:46:48Z</time>
      </trkpt>
      <trkpt lat="2.854664" lon="-75.113396">
        <ele>1103.8</ele>
        <time>2021-08-21T18:46:49Z</time>
      </trkpt>
      <trkpt lat="2.854687" lon="-75.113434">
        <ele>1103.7</ele>
        <time>2021-08-21T18:46:50Z</time>
      </trkpt>
      <trkpt lat="2.854698" lon="-75.11348">
        <ele>1103.5</ele>
        <time>2021-08-21T18:46:51Z</time>
      </trkpt>
      <trkpt lat="2.8547" lon="-75.11353">
        <ele>1103.3</ele>
        <time>2021-08-21T18:46:52Z</time>
      </trkpt>
      <trkpt lat="2.854695" lon="-75.11359">
        <ele>1103.0</ele>
        <time>2021-08-21T18:46:53Z</time>
      </trkpt>
      <trkpt lat="2.854685" lon="-75.11364">
        <ele>1102.7</ele>
        <time>2021-08-21T18:46:54Z</time>
      </trkpt>
      <trkpt lat="2.854675" lon="-75.11369">
        <ele>1102.4</ele>
        <time>2021-08-21T18:46:55Z</time>
      </trkpt>
      <trkpt lat="2.854664" lon="-75.11376">
        <ele>1102.0</ele>
        <time>2021-08-21T18:46:56Z</time>
      </trkpt>
      <trkpt lat="2.854653" lon="-75.11383">
        <ele>1101.5</ele>
        <time>2021-08-21T18:46:57Z</time>
      </trkpt>
      <trkpt lat="2.854639" lon="-75.1139">
        <ele>1101.1</ele>
        <time>2021-08-21T18:46:58Z</time>
      </trkpt>
      <trkpt lat="2.85462" lon="-75.11397">
        <ele>1100.6</ele>
        <time>2021-08-21T18:46:59Z</time>
      </trkpt>
      <trkpt lat="2.854596" lon="-75.11404">
        <ele>1100.2</ele>
        <time>2021-08-21T18:47:00Z</time>
      </trkpt>
      <trkpt lat="2.854569" lon="-75.114105">
        <ele>1099.9</ele>
        <time>2021-08-21T18:47:01Z</time>
      </trkpt>
      <trkpt lat="2.854539" lon="-75.11418">
        <ele>1099.4</ele>
        <time>2021-08-21T18:47:02Z</time>
      </trkpt>
      <trkpt lat="2.854509" lon="-75.11425">
        <ele>1098.9</ele>
        <time>2021-08-21T18:47:03Z</time>
      </trkpt>
      <trkpt lat="2.854478" lon="-75.11433">
        <ele>1098.3</ele>
        <time>2021-08-21T18:47:04Z</time>
      </trkpt>
      <trkpt lat="2.85436" lon="-75.11464">
        <ele>1095.8</ele>
        <time>2021-08-21T18:47:06Z</time>
      </trkpt>
      <trkpt lat="2.854355" lon="-75.11466">
        <ele>1095.6</ele>
        <time>2021-08-21T18:47:07Z</time>
      </trkpt>
      <trkpt lat="2.854351" lon="-75.1147">
        <ele>1095.2</ele>
        <time>2021-08-21T18:47:08Z</time>
      </trkpt>
      <trkpt lat="2.854352" lon="-75.11476">
        <ele>1094.6</ele>
        <time>2021-08-21T18:47:09Z</time>
      </trkpt>
      <trkpt lat="2.854357" lon="-75.11484">
        <ele>1093.8</ele>
        <time>2021-08-21T18:47:10Z</time>
      </trkpt>
      <trkpt lat="2.854365" lon="-75.11491">
        <ele>1093.0</ele>
        <time>2021-08-21T18:47:11Z</time>
      </trkpt>
      <trkpt lat="2.85437" lon="-75.11498">
        <ele>1092.2</ele>
        <time>2021-08-21T18:47:12Z</time>
      </trkpt>
      <trkpt lat="2.854372" lon="-75.11505">
        <ele>1091.4</ele>
        <time>2021-08-21T18:47:13Z</time>
      </trkpt>
      <trkpt lat="2.85437" lon="-75.11513">
        <ele>1090.6</ele>
        <time>2021-08-21T18:47:14Z</time>
      </trkpt>
      <trkpt lat="2.854365" lon="-75.11519">
        <ele>1089.9</ele>
        <time>2021-08-21T18:47:15Z</time>
      </trkpt>
      <trkpt lat="2.854357" lon="-75.11526">
        <ele>1089.2</ele>
        <time>2021-08-21T18:47:16Z</time>
      </trkpt>
      <trkpt lat="2.854345" lon="-75.11532">
        <ele>1088.6</ele>
        <time>2021-08-21T18:47:17Z</time>
      </trkpt>
      <trkpt lat="2.854326" lon="-75.11539">
        <ele>1088.0</ele>
        <time>2021-08-21T18:47:18Z</time>
      </trkpt>
      <trkpt lat="2.854299" lon="-75.115456">
        <ele>1087.4</ele>
        <time>2021-08-21T18:47:19Z</time>
      </trkpt>
      <trkpt lat="2.854268" lon="-75.11552">
        <ele>1086.8</ele>
        <time>2021-08-21T18:47:20Z</time>
      </trkpt>
      <trkpt lat="2.854234" lon="-75.115585">
        <ele>1086.2</ele>
        <time>2021-08-21T18:47:21Z</time>
      </trkpt>
      <trkpt lat="2.854201" lon="-75.11565">
        <ele>1085.7</ele>
        <time>2021-08-21T18:47:22Z</time>
      </trkpt>
      <trkpt lat="2.854171" lon="-75.1157">
        <ele>1085.1</ele>
        <time>2021-08-21T18:47:23Z</time>
      </trkpt>
      <trkpt lat="2.854145" lon="-75.11575">
        <ele>1084.6</ele>
        <time>2021-08-21T18:47:24Z</time>
      </trkpt>
      <trkpt lat="2.85412" lon="-75.11582">
        <ele>1084.0</ele>
        <time>2021-08-21T18:47:25Z</time>
      </trkpt>
      <trkpt lat="2.854099" lon="-75.11588">
        <ele>1083.5</ele>
        <time>2021-08-21T18:47:26Z</time>
      </trkpt>
      <trkpt lat="2.854084" lon="-75.11595">
        <ele>1083.0</ele>
        <time>2021-08-21T18:47:27Z</time>
      </trkpt>
      <trkpt lat="2.854076" lon="-75.11601">
        <ele>1082.5</ele>
        <time>2021-08-21T18:47:28Z</time>
      </trkpt>
      <trkpt lat="2.854081" lon="-75.11607">
        <ele>1082.1</ele>
        <time>2021-08-21T18:47:29Z</time>
      </trkpt>
      <trkpt lat="2.854096" lon="-75.11612">
        <ele>1081.6</ele>
        <time>2021-08-21T18:47:30Z</time>
      </trkpt>
      <trkpt lat="2.854125" lon="-75.116165">
        <ele>1081.3</ele>
        <time>2021-08-21T18:47:31Z</time>
      </trkpt>
      <trkpt lat="2.854164" lon="-75.11619">
        <ele>1080.9</ele>
        <time>2021-08-21T18:47:32Z</time>
      </trkpt>
      <trkpt lat="2.854213" lon="-75.11621">
        <ele>1080.5</ele>
        <time>2021-08-21T18:47:33Z</time>
      </trkpt>
      <trkpt lat="2.854269" lon="-75.11621">
        <ele>1080.2</ele>
        <time>2021-08-21T18:47:34Z</time>
      </trkpt>
      <trkpt lat="2.85433" lon="-75.11621">
        <ele>1079.8</ele>
        <time>2021-08-21T18:47:35Z</time>
      </trkpt>
      <trkpt lat="2.854391" lon="-75.116196">
        <ele>1079.5</ele>
        <time>2021-08-21T18:47:36Z</time>
      </trkpt>
      <trkpt lat="2.85445" lon="-75.11617">
        <ele>1079.3</ele>
        <time>2021-08-21T18:47:37Z</time>
      </trkpt>
      <trkpt lat="2.854507" lon="-75.11614">
        <ele>1079.0</ele>
        <time>2021-08-21T18:47:38Z</time>
      </trkpt>
      <trkpt lat="2.854562" lon="-75.116104">
        <ele>1078.8</ele>
        <time>2021-08-21T18:47:39Z</time>
      </trkpt>
      <trkpt lat="2.854613" lon="-75.116066">
        <ele>1078.6</ele>
        <time>2021-08-21T18:47:40Z</time>
      </trkpt>
      <trkpt lat="2.854662" lon="-75.11602">
        <ele>1078.5</ele>
        <time>2021-08-21T18:47:41Z</time>
      </trkpt>
      <trkpt lat="2.85471" lon="-75.11597">
        <ele>1078.3</ele>
        <time>2021-08-21T18:47:42Z</time>
      </trkpt>
      <trkpt lat="2.854758" lon="-75.11592">
        <ele>1078.2</ele>
        <time>2021-08-21T18:47:43Z</time>
      </trkpt>
      <trkpt lat="2.854806" lon="-75.11587">
        <ele>1078.1</ele>
        <time>2021-08-21T18:47:44Z</time>
      </trkpt>
      <trkpt lat="2.854856" lon="-75.11582">
        <ele>1078.0</ele>
        <time>2021-08-21T18:47:45Z</time>
      </trkpt>
      <trkpt lat="2.854906" lon="-75.11578">
        <ele>1077.9</ele>
        <time>2021-08-21T18:47:46Z</time>
      </trkpt>
      <trkpt lat="2.854956" lon="-75.11576">
        <ele>1077.8</ele>
        <time>2021-08-21T18:47:47Z</time>
      </trkpt>
      <trkpt lat="2.855006" lon="-75.115746">
        <ele>1077.7</ele>
        <time>2021-08-21T18:47:48Z</time>
      </trkpt>
      <trkpt lat="2.855057" lon="-75.115746">
        <ele>1077.7</ele>
        <time>2021-08-21T18:47:49Z</time>
      </trkpt>
      <trkpt lat="2.855101" lon="-75.11576">
        <ele>1077.6</ele>
        <time>2021-08-21T18:47:50Z</time>
      </trkpt>
      <trkpt lat="2.855139" lon="-75.115776">
        <ele>1077.6</ele>
        <time>2021-08-21T18:47:51Z</time>
      </trkpt>
      <trkpt lat="2.855167" lon="-75.11581">
        <ele>1077.6</ele>
        <time>2021-08-21T18:47:52Z</time>
      </trkpt>
      <trkpt lat="2.855187" lon="-75.11584">
        <ele>1077.5</ele>
        <time>2021-08-21T18:47:53Z</time>
      </trkpt>
      <trkpt lat="2.855197" lon="-75.11587">
        <ele>1077.5</ele>
        <time>2021-08-21T18:47:54Z</time>
      </trkpt>
      <trkpt lat="2.855199" lon="-75.115906">
        <ele>1077.4</ele>
        <time>2021-08-21T18:47:55Z</time>
      </trkpt>
      <trkpt lat="2.855195" lon="-75.115944">
        <ele>1077.3</ele>
        <time>2021-08-21T18:47:56Z</time>
      </trkpt>
      <trkpt lat="2.855187" lon="-75.11598">
        <ele>1077.1</ele>
        <time>2021-08-21T18:47:57Z</time>
      </trkpt>
      <trkpt lat="2.855174" lon="-75.11603">
        <ele>1076.9</ele>
        <time>2021-08-21T18:47:58Z</time>
      </trkpt>
      <trkpt lat="2.855155" lon="-75.11607">
        <ele>1076.6</ele>
        <time>2021-08-21T18:47:59Z</time>
      </trkpt>
      <trkpt lat="2.855133" lon="-75.11612">
        <ele>1076.1</ele>
        <time>2021-08-21T18:48:00Z</time>
      </trkpt>
      <trkpt lat="2.855108" lon="-75.11617">
        <ele>1075.7</ele>
        <time>2021-08-21T18:48:01Z</time>
      </trkpt>
      <trkpt lat="2.855082" lon="-75.11623">
        <ele>1075.2</ele>
        <time>2021-08-21T18:48:02Z</time>
      </trkpt>
      <trkpt lat="2.855053" lon="-75.11628">
        <ele>1074.7</ele>
        <time>2021-08-21T18:48:03Z</time>
      </trkpt>
      <trkpt lat="2.855022" lon="-75.11634">
        <ele>1074.2</ele>
        <time>2021-08-21T18:48:04Z</time>
      </trkpt>
      <trkpt lat="2.854991" lon="-75.116394">
        <ele>1073.6</ele>
        <time>2021-08-21T18:48:05Z</time>
      </trkpt>
      <trkpt lat="2.854963" lon="-75.116455">
        <ele>1073.1</ele>
        <time>2021-08-21T18:48:06Z</time>
      </trkpt>
      <trkpt lat="2.854936" lon="-75.11658">
        <ele>1072.0</ele>
        <time>2021-08-21T18:48:07Z</time>
      </trkpt>
      <trkpt lat="2.854945" lon="-75.116516">
        <ele>1072.5</ele>
        <time>2021-08-21T18:48:07Z</time>
      </trkpt>
      <trkpt lat="2.854939" lon="-75.11664">
        <ele>1071.4</ele>
        <time>2021-08-21T18:48:08Z</time>
      </trkpt>
      <trkpt lat="2.854952" lon="-75.11669">
        <ele>1070.9</ele>
        <time>2021-08-21T18:48:09Z</time>
      </trkpt>
      <trkpt lat="2.854975" lon="-75.11675">
        <ele>1070.2</ele>
        <time>2021-08-21T18:48:10Z</time>
      </trkpt>
      <trkpt lat="2.855004" lon="-75.116806">
        <ele>1069.6</ele>
        <time>2021-08-21T18:48:11Z</time>
      </trkpt>
      <trkpt lat="2.855036" lon="-75.11686">
        <ele>1069.0</ele>
        <time>2021-08-21T18:48:12Z</time>
      </trkpt>
      <trkpt lat="2.855071" lon="-75.11692">
        <ele>1068.3</ele>
        <time>2021-08-21T18:48:13Z</time>
      </trkpt>
      <trkpt lat="2.855108" lon="-75.116974">
        <ele>1067.6</ele>
        <time>2021-08-21T18:48:14Z</time>
      </trkpt>
      <trkpt lat="2.855145" lon="-75.11703">
        <ele>1066.8</ele>
        <time>2021-08-21T18:48:15Z</time>
      </trkpt>
      <trkpt lat="2.855183" lon="-75.11709">
        <ele>1066.2</ele>
        <time>2021-08-21T18:48:16Z</time>
      </trkpt>
      <trkpt lat="2.855215" lon="-75.11714">
        <ele>1065.6</ele>
        <time>2021-08-21T18:48:17Z</time>
      </trkpt>
      <trkpt lat="2.85524" lon="-75.117195">
        <ele>1065.1</ele>
        <time>2021-08-21T18:48:18Z</time>
      </trkpt>
      <trkpt lat="2.855254" lon="-75.117256">
        <ele>1064.6</ele>
        <time>2021-08-21T18:48:19Z</time>
      </trkpt>
      <trkpt lat="2.855257" lon="-75.11732">
        <ele>1064.1</ele>
        <time>2021-08-21T18:48:20Z</time>
      </trkpt>
      <trkpt lat="2.855254" lon="-75.11738">
        <ele>1063.5</ele>
        <time>2021-08-21T18:48:21Z</time>
      </trkpt>
      <trkpt lat="2.855245" lon="-75.11744">
        <ele>1062.8</ele>
        <time>2021-08-21T18:48:22Z</time>
      </trkpt>
      <trkpt lat="2.855233" lon="-75.1175">
        <ele>1062.1</ele>
        <time>2021-08-21T18:48:23Z</time>
      </trkpt>
      <trkpt lat="2.855216" lon="-75.11758">
        <ele>1061.4</ele>
        <time>2021-08-21T18:48:24Z</time>
      </trkpt>
      <trkpt lat="2.855196" lon="-75.117645">
        <ele>1060.6</ele>
        <time>2021-08-21T18:48:25Z</time>
      </trkpt>
      <trkpt lat="2.855175" lon="-75.117714">
        <ele>1059.9</ele>
        <time>2021-08-21T18:48:26Z</time>
      </trkpt>
      <trkpt lat="2.85515" lon="-75.11778">
        <ele>1059.2</ele>
        <time>2021-08-21T18:48:27Z</time>
      </trkpt>
      <trkpt lat="2.855121" lon="-75.11785">
        <ele>1058.5</ele>
        <time>2021-08-21T18:48:28Z</time>
      </trkpt>
      <trkpt lat="2.855091" lon="-75.11793">
        <ele>1057.9</ele>
        <time>2021-08-21T18:48:29Z</time>
      </trkpt>
      <trkpt lat="2.855058" lon="-75.118">
        <ele>1057.2</ele>
        <time>2021-08-21T18:48:30Z</time>
      </trkpt>
      <trkpt lat="2.855021" lon="-75.11807">
        <ele>1056.6</ele>
        <time>2021-08-21T18:48:31Z</time>
      </trkpt>
      <trkpt lat="2.854985" lon="-75.11815">
        <ele>1056.0</ele>
        <time>2021-08-21T18:48:32Z</time>
      </trkpt>
      <trkpt lat="2.854949" lon="-75.11822">
        <ele>1055.5</ele>
        <time>2021-08-21T18:48:33Z</time>
      </trkpt>
      <trkpt lat="2.854908" lon="-75.11829">
        <ele>1055.1</ele>
        <time>2021-08-21T18:48:34Z</time>
      </trkpt>
      <trkpt lat="2.854866" lon="-75.11837">
        <ele>1054.7</ele>
        <time>2021-08-21T18:48:35Z</time>
      </trkpt>
      <trkpt lat="2.854824" lon="-75.11844">
        <ele>1054.3</ele>
        <time>2021-08-21T18:48:36Z</time>
      </trkpt>
      <trkpt lat="2.854781" lon="-75.1185">
        <ele>1054.0</ele>
        <time>2021-08-21T18:48:37Z</time>
      </trkpt>
      <trkpt lat="2.854737" lon="-75.11856">
        <ele>1053.6</ele>
        <time>2021-08-21T18:48:38Z</time>
      </trkpt>
      <trkpt lat="2.854697" lon="-75.11863">
        <ele>1053.3</ele>
        <time>2021-08-21T18:48:39Z</time>
      </trkpt>
      <trkpt lat="2.854671" lon="-75.1187">
        <ele>1052.9</ele>
        <time>2021-08-21T18:48:40Z</time>
      </trkpt>
      <trkpt lat="2.854658" lon="-75.11877">
        <ele>1052.5</ele>
        <time>2021-08-21T18:48:41Z</time>
      </trkpt>
      <trkpt lat="2.854659" lon="-75.11882">
        <ele>1052.1</ele>
        <time>2021-08-21T18:48:42Z</time>
      </trkpt>
      <trkpt lat="2.854672" lon="-75.11888">
        <ele>1051.7</ele>
        <time>2021-08-21T18:48:43Z</time>
      </trkpt>
      <trkpt lat="2.854695" lon="-75.11894">
        <ele>1051.3</ele>
        <time>2021-08-21T18:48:44Z</time>
      </trkpt>
      <trkpt lat="2.854723" lon="-75.119">
        <ele>1050.8</ele>
        <time>2021-08-21T18:48:45Z</time>
      </trkpt>
      <trkpt lat="2.854753" lon="-75.119064">
        <ele>1050.3</ele>
        <time>2021-08-21T18:48:46Z</time>
      </trkpt>
      <trkpt lat="2.854786" lon="-75.119125">
        <ele>1049.8</ele>
        <time>2021-08-21T18:48:47Z</time>
      </trkpt>
      <trkpt lat="2.85482" lon="-75.11919">
        <ele>1049.2</ele>
        <time>2021-08-21T18:48:48Z</time>
      </trkpt>
      <trkpt lat="2.854855" lon="-75.11925">
        <ele>1048.7</ele>
        <time>2021-08-21T18:48:49Z</time>
      </trkpt>
      <trkpt lat="2.854888" lon="-75.11931">
        <ele>1048.1</ele>
        <time>2021-08-21T18:48:50Z</time>
      </trkpt>
      <trkpt lat="2.854914" lon="-75.11937">
        <ele>1047.5</ele>
        <time>2021-08-21T18:48:51Z</time>
      </trkpt>
      <trkpt lat="2.854935" lon="-75.11943">
        <ele>1046.9</ele>
        <time>2021-08-21T18:48:52Z</time>
      </trkpt>
      <trkpt lat="2.854952" lon="-75.1195">
        <ele>1046.3</ele>
        <time>2021-08-21T18:48:53Z</time>
      </trkpt>
      <trkpt lat="2.854963" lon="-75.11957">
        <ele>1045.7</ele>
        <time>2021-08-21T18:48:54Z</time>
      </trkpt>
      <trkpt lat="2.854973" lon="-75.11964">
        <ele>1045.1</ele>
        <time>2021-08-21T18:48:55Z</time>
      </trkpt>
      <trkpt lat="2.85498" lon="-75.119705">
        <ele>1044.5</ele>
        <time>2021-08-21T18:48:56Z</time>
      </trkpt>
      <trkpt lat="2.854984" lon="-75.119774">
        <ele>1043.8</ele>
        <time>2021-08-21T18:48:57Z</time>
      </trkpt>
      <trkpt lat="2.85498" lon="-75.12004">
        <ele>1041.5</ele>
        <time>2021-08-21T18:48:59Z</time>
      </trkpt>
      <trkpt lat="2.854976" lon="-75.12005">
        <ele>1041.4</ele>
        <time>2021-08-21T18:49:00Z</time>
      </trkpt>
      <trkpt lat="2.854968" lon="-75.12008">
        <ele>1041.1</ele>
        <time>2021-08-21T18:49:01Z</time>
      </trkpt>
      <trkpt lat="2.854959" lon="-75.12012">
        <ele>1040.7</ele>
        <time>2021-08-21T18:49:02Z</time>
      </trkpt>
      <trkpt lat="2.854952" lon="-75.120155">
        <ele>1040.3</ele>
        <time>2021-08-21T18:49:03Z</time>
      </trkpt>
      <trkpt lat="2.854947" lon="-75.1202">
        <ele>1039.8</ele>
        <time>2021-08-21T18:49:04Z</time>
      </trkpt>
      <trkpt lat="2.854946" lon="-75.120255">
        <ele>1039.3</ele>
        <time>2021-08-21T18:49:05Z</time>
      </trkpt>
      <trkpt lat="2.854947" lon="-75.1203">
        <ele>1038.8</ele>
        <time>2021-08-21T18:49:06Z</time>
      </trkpt>
      <trkpt lat="2.854948" lon="-75.12035">
        <ele>1038.4</ele>
        <time>2021-08-21T18:49:07Z</time>
      </trkpt>
      <trkpt lat="2.854949" lon="-75.1204">
        <ele>1037.9</ele>
        <time>2021-08-21T18:49:08Z</time>
      </trkpt>
      <trkpt lat="2.854952" lon="-75.12045">
        <ele>1037.4</ele>
        <time>2021-08-21T18:49:09Z</time>
      </trkpt>
      <trkpt lat="2.854955" lon="-75.12051">
        <ele>1036.9</ele>
        <time>2021-08-21T18:49:10Z</time>
      </trkpt>
      <trkpt lat="2.854963" lon="-75.12056">
        <ele>1036.4</ele>
        <time>2021-08-21T18:49:11Z</time>
      </trkpt>
      <trkpt lat="2.85505" lon="-75.12076">
        <ele>1034.5</ele>
        <time>2021-08-21T18:49:13Z</time>
      </trkpt>
      <trkpt lat="2.855063" lon="-75.120766">
        <ele>1034.4</ele>
        <time>2021-08-21T18:49:14Z</time>
      </trkpt>
      <trkpt lat="2.855095" lon="-75.12077">
        <ele>1034.1</ele>
        <time>2021-08-21T18:49:15Z</time>
      </trkpt>
      <trkpt lat="2.855141" lon="-75.12077">
        <ele>1033.7</ele>
        <time>2021-08-21T18:49:16Z</time>
      </trkpt>
      <trkpt lat="2.855196" lon="-75.12078">
        <ele>1033.3</ele>
        <time>2021-08-21T18:49:17Z</time>
      </trkpt>
      <trkpt lat="2.855254" lon="-75.12079">
        <ele>1032.8</ele>
        <time>2021-08-21T18:49:18Z</time>
      </trkpt>
      <trkpt lat="2.855313" lon="-75.12079">
        <ele>1032.2</ele>
        <time>2021-08-21T18:49:19Z</time>
      </trkpt>
      <trkpt lat="2.855368" lon="-75.12077">
        <ele>1031.6</ele>
        <time>2021-08-21T18:49:20Z</time>
      </trkpt>
      <trkpt lat="2.85542" lon="-75.12076">
        <ele>1031.0</ele>
        <time>2021-08-21T18:49:21Z</time>
      </trkpt>
      <trkpt lat="2.855468" lon="-75.120735">
        <ele>1030.4</ele>
        <time>2021-08-21T18:49:22Z</time>
      </trkpt>
      <trkpt lat="2.855514" lon="-75.120705">
        <ele>1029.7</ele>
        <time>2021-08-21T18:49:23Z</time>
      </trkpt>
      <trkpt lat="2.855555" lon="-75.12066">
        <ele>1029.1</ele>
        <time>2021-08-21T18:49:24Z</time>
      </trkpt>
      <trkpt lat="2.855595" lon="-75.12061">
        <ele>1028.5</ele>
        <time>2021-08-21T18:49:25Z</time>
      </trkpt>
      <trkpt lat="2.855635" lon="-75.12057">
        <ele>1028.0</ele>
        <time>2021-08-21T18:49:26Z</time>
      </trkpt>
      <trkpt lat="2.855681" lon="-75.12052">
        <ele>1027.5</ele>
        <time>2021-08-21T18:49:27Z</time>
      </trkpt>
      <trkpt lat="2.85573" lon="-75.12048">
        <ele>1027.2</ele>
        <time>2021-08-21T18:49:28Z</time>
      </trkpt>
      <trkpt lat="2.855781" lon="-75.12045">
        <ele>1027.0</ele>
        <time>2021-08-21T18:49:29Z</time>
      </trkpt>
      <trkpt lat="2.855831" lon="-75.120445">
        <ele>1026.8</ele>
        <time>2021-08-21T18:49:30Z</time>
      </trkpt>
      <trkpt lat="2.855879" lon="-75.120445">
        <ele>1026.7</ele>
        <time>2021-08-21T18:49:31Z</time>
      </trkpt>
      <trkpt lat="2.85592" lon="-75.12045">
        <ele>1026.6</ele>
        <time>2021-08-21T18:49:32Z</time>
      </trkpt>
      <trkpt lat="2.855955" lon="-75.120476">
        <ele>1026.4</ele>
        <time>2021-08-21T18:49:33Z</time>
      </trkpt>
      <trkpt lat="2.855981" lon="-75.1205">
        <ele>1026.3</ele>
        <time>2021-08-21T18:49:34Z</time>
      </trkpt>
      <trkpt lat="2.856001" lon="-75.12052">
        <ele>1026.2</ele>
        <time>2021-08-21T18:49:35Z</time>
      </trkpt>
      <trkpt lat="2.856019" lon="-75.12055">
        <ele>1026.2</ele>
        <time>2021-08-21T18:49:36Z</time>
      </trkpt>
      <trkpt lat="2.856032" lon="-75.12058">
        <ele>1026.1</ele>
        <time>2021-08-21T18:49:37Z</time>
      </trkpt>
      <trkpt lat="2.856032" lon="-75.120636">
        <ele>1026.1</ele>
        <time>2021-08-21T18:49:39Z</time>
      </trkpt>
      <trkpt lat="2.856026" lon="-75.12069">
        <ele>1026.0</ele>
        <time>2021-08-21T18:49:40Z</time>
      </trkpt>
      <trkpt lat="2.856018" lon="-75.120735">
        <ele>1026.1</ele>
        <time>2021-08-21T18:49:41Z</time>
      </trkpt>
      <trkpt lat="2.856006" lon="-75.12077">
        <ele>1026.1</ele>
        <time>2021-08-21T18:49:42Z</time>
      </trkpt>
      <trkpt lat="2.85599" lon="-75.12082">
        <ele>1026.2</ele>
        <time>2021-08-21T18:49:43Z</time>
      </trkpt>
      <trkpt lat="2.855975" lon="-75.12086">
        <ele>1026.3</ele>
        <time>2021-08-21T18:49:44Z</time>
      </trkpt>
      <trkpt lat="2.855957" lon="-75.1209">
        <ele>1026.4</ele>
        <time>2021-08-21T18:49:45Z</time>
      </trkpt>
      <trkpt lat="2.855938" lon="-75.12095">
        <ele>1026.5</ele>
        <time>2021-08-21T18:49:46Z</time>
      </trkpt>
      <trkpt lat="2.855918" lon="-75.12099">
        <ele>1026.6</ele>
        <time>2021-08-21T18:49:47Z</time>
      </trkpt>
      <trkpt lat="2.855899" lon="-75.121025">
        <ele>1026.7</ele>
        <time>2021-08-21T18:49:48Z</time>
      </trkpt>
      <trkpt lat="2.85588" lon="-75.12106">
        <ele>1026.9</ele>
        <time>2021-08-21T18:49:49Z</time>
      </trkpt>
      <trkpt lat="2.855859" lon="-75.12111">
        <ele>1027.0</ele>
        <time>2021-08-21T18:49:50Z</time>
      </trkpt>
      <trkpt lat="2.85584" lon="-75.12114">
        <ele>1027.2</ele>
        <time>2021-08-21T18:49:51Z</time>
      </trkpt>
      <trkpt lat="2.855818" lon="-75.12118">
        <ele>1027.4</ele>
        <time>2021-08-21T18:49:52Z</time>
      </trkpt>
      <trkpt lat="2.855798" lon="-75.12121">
        <ele>1027.5</ele>
        <time>2021-08-21T18:49:53Z</time>
      </trkpt>
      <trkpt lat="2.855775" lon="-75.12125">
        <ele>1027.8</ele>
        <time>2021-08-21T18:49:54Z</time>
      </trkpt>
      <trkpt lat="2.855753" lon="-75.121284">
        <ele>1027.9</ele>
        <time>2021-08-21T18:49:55Z</time>
      </trkpt>
      <trkpt lat="2.855731" lon="-75.12132">
        <ele>1028.2</ele>
        <time>2021-08-21T18:49:56Z</time>
      </trkpt>
      <trkpt lat="2.855709" lon="-75.12137">
        <ele>1028.4</ele>
        <time>2021-08-21T18:49:57Z</time>
      </trkpt>
      <trkpt lat="2.855689" lon="-75.12141">
        <ele>1028.6</ele>
        <time>2021-08-21T18:49:58Z</time>
      </trkpt>
      <trkpt lat="2.855668" lon="-75.121445">
        <ele>1028.8</ele>
        <time>2021-08-21T18:49:59Z</time>
      </trkpt>
      <trkpt lat="2.855646" lon="-75.12148">
        <ele>1029.0</ele>
        <time>2021-08-21T18:50:00Z</time>
      </trkpt>
      <trkpt lat="2.855625" lon="-75.12153">
        <ele>1029.2</ele>
        <time>2021-08-21T18:50:01Z</time>
      </trkpt>
      <trkpt lat="2.855607" lon="-75.121574">
        <ele>1029.4</ele>
        <time>2021-08-21T18:50:02Z</time>
      </trkpt>
      <trkpt lat="2.855594" lon="-75.12161">
        <ele>1029.6</ele>
        <time>2021-08-21T18:50:03Z</time>
      </trkpt>
      <trkpt lat="2.855585" lon="-75.12165">
        <ele>1029.8</ele>
        <time>2021-08-21T18:50:04Z</time>
      </trkpt>
      <trkpt lat="2.85558" lon="-75.12169">
        <ele>1029.9</ele>
        <time>2021-08-21T18:50:05Z</time>
      </trkpt>
      <trkpt lat="2.855581" lon="-75.12173">
        <ele>1030.1</ele>
        <time>2021-08-21T18:50:06Z</time>
      </trkpt>
      <trkpt lat="2.855584" lon="-75.12176">
        <ele>1030.2</ele>
        <time>2021-08-21T18:50:07Z</time>
      </trkpt>
      <trkpt lat="2.85559" lon="-75.12179">
        <ele>1030.3</ele>
        <time>2021-08-21T18:50:08Z</time>
      </trkpt>
      <trkpt lat="2.855599" lon="-75.12182">
        <ele>1030.4</ele>
        <time>2021-08-21T18:50:09Z</time>
      </trkpt>
      <trkpt lat="2.855611" lon="-75.12185">
        <ele>1030.6</ele>
        <time>2021-08-21T18:50:10Z</time>
      </trkpt>
      <trkpt lat="2.855627" lon="-75.12189">
        <ele>1030.7</ele>
        <time>2021-08-21T18:50:11Z</time>
      </trkpt>
      <trkpt lat="2.855644" lon="-75.12192">
        <ele>1030.9</ele>
        <time>2021-08-21T18:50:12Z</time>
      </trkpt>
      <trkpt lat="2.855661" lon="-75.12195">
        <ele>1031.0</ele>
        <time>2021-08-21T18:50:13Z</time>
      </trkpt>
      <trkpt lat="2.855677" lon="-75.12199">
        <ele>1031.2</ele>
        <time>2021-08-21T18:50:14Z</time>
      </trkpt>
      <trkpt lat="2.855692" lon="-75.12202">
        <ele>1031.4</ele>
        <time>2021-08-21T18:50:15Z</time>
      </trkpt>
      <trkpt lat="2.855707" lon="-75.122055">
        <ele>1031.6</ele>
        <time>2021-08-21T18:50:16Z</time>
      </trkpt>
      <trkpt lat="2.855719" lon="-75.122086">
        <ele>1031.8</ele>
        <time>2021-08-21T18:50:17Z</time>
      </trkpt>
      <trkpt lat="2.855729" lon="-75.12212">
        <ele>1032.0</ele>
        <time>2021-08-21T18:50:18Z</time>
      </trkpt>
      <trkpt lat="2.855737" lon="-75.122154">
        <ele>1032.2</ele>
        <time>2021-08-21T18:50:19Z</time>
      </trkpt>
      <trkpt lat="2.855744" lon="-75.12219">
        <ele>1032.5</ele>
        <time>2021-08-21T18:50:20Z</time>
      </trkpt>
      <trkpt lat="2.85575" lon="-75.12223">
        <ele>1032.7</ele>
        <time>2021-08-21T18:50:21Z</time>
      </trkpt>
      <trkpt lat="2.855754" lon="-75.12227">
        <ele>1033.0</ele>
        <time>2021-08-21T18:50:22Z</time>
      </trkpt>
      <trkpt lat="2.855759" lon="-75.1223">
        <ele>1033.2</ele>
        <time>2021-08-21T18:50:23Z</time>
      </trkpt>
      <trkpt lat="2.855765" lon="-75.12233">
        <ele>1033.4</ele>
        <time>2021-08-21T18:50:24Z</time>
      </trkpt>
      <trkpt lat="2.855773" lon="-75.12236">
        <ele>1033.6</ele>
        <time>2021-08-21T18:50:25Z</time>
      </trkpt>
      <trkpt lat="2.855782" lon="-75.12238">
        <ele>1033.8</ele>
        <time>2021-08-21T18:50:26Z</time>
      </trkpt>
      <trkpt lat="2.85579" lon="-75.122406">
        <ele>1034.1</ele>
        <time>2021-08-21T18:50:27Z</time>
      </trkpt>
      <trkpt lat="2.8558" lon="-75.12243">
        <ele>1034.2</ele>
        <time>2021-08-21T18:50:28Z</time>
      </trkpt>
      <trkpt lat="2.855812" lon="-75.12245">
        <ele>1034.4</ele>
        <time>2021-08-21T18:50:29Z</time>
      </trkpt>
      <trkpt lat="2.85587" lon="-75.12252">
        <ele>1035.1</ele>
        <time>2021-08-21T18:50:31Z</time>
      </trkpt>
      <trkpt lat="2.855872" lon="-75.12252">
        <ele>1035.1</ele>
        <time>2021-08-21T18:50:32Z</time>
      </trkpt>
      <trkpt lat="2.855879" lon="-75.12253">
        <ele>1035.2</ele>
        <time>2021-08-21T18:50:33Z</time>
      </trkpt>
      <trkpt lat="2.855889" lon="-75.122536">
        <ele>1035.3</ele>
        <time>2021-08-21T18:50:34Z</time>
      </trkpt>
      <trkpt lat="2.855901" lon="-75.12254">
        <ele>1035.4</ele>
        <time>2021-08-21T18:50:35Z</time>
      </trkpt>
      <trkpt lat="2.855914" lon="-75.12256">
        <ele>1035.5</ele>
        <time>2021-08-21T18:50:37Z</time>
      </trkpt>
      <trkpt lat="2.855933" lon="-75.122574">
        <ele>1035.7</ele>
        <time>2021-08-21T18:50:38Z</time>
      </trkpt>
      <trkpt lat="2.855951" lon="-75.12259">
        <ele>1035.9</ele>
        <time>2021-08-21T18:50:39Z</time>
      </trkpt>
      <trkpt lat="2.855968" lon="-75.1226">
        <ele>1036.0</ele>
        <time>2021-08-21T18:50:40Z</time>
      </trkpt>
      <trkpt lat="2.855985" lon="-75.12261">
        <ele>1036.1</ele>
        <time>2021-08-21T18:50:41Z</time>
      </trkpt>
      <trkpt lat="2.856002" lon="-75.12262">
        <ele>1036.3</ele>
        <time>2021-08-21T18:50:42Z</time>
      </trkpt>
      <trkpt lat="2.856019" lon="-75.12263">
        <ele>1036.4</ele>
        <time>2021-08-21T18:50:43Z</time>
      </trkpt>
      <trkpt lat="2.856035" lon="-75.12264">
        <ele>1036.5</ele>
        <time>2021-08-21T18:50:44Z</time>
      </trkpt>
      <trkpt lat="2.856053" lon="-75.12265">
        <ele>1036.6</ele>
        <time>2021-08-21T18:50:45Z</time>
      </trkpt>
      <trkpt lat="2.856071" lon="-75.12266">
        <ele>1036.8</ele>
        <time>2021-08-21T18:50:46Z</time>
      </trkpt>
      <trkpt lat="2.85609" lon="-75.122665">
        <ele>1036.9</ele>
        <time>2021-08-21T18:50:47Z</time>
      </trkpt>
      <trkpt lat="2.856109" lon="-75.12267">
        <ele>1037.0</ele>
        <time>2021-08-21T18:50:48Z</time>
      </trkpt>
      <trkpt lat="2.856128" lon="-75.12268">
        <ele>1037.2</ele>
        <time>2021-08-21T18:50:49Z</time>
      </trkpt>
      <trkpt lat="2.856148" lon="-75.12269">
        <ele>1037.3</ele>
        <time>2021-08-21T18:50:50Z</time>
      </trkpt>
      <trkpt lat="2.856165" lon="-75.1227">
        <ele>1037.5</ele>
        <time>2021-08-21T18:50:51Z</time>
      </trkpt>
      <trkpt lat="2.85618" lon="-75.12271">
        <ele>1037.6</ele>
        <time>2021-08-21T18:50:52Z</time>
      </trkpt>
      <trkpt lat="2.856195" lon="-75.12272">
        <ele>1037.7</ele>
        <time>2021-08-21T18:50:53Z</time>
      </trkpt>
      <trkpt lat="2.856209" lon="-75.12273">
        <ele>1037.8</ele>
        <time>2021-08-21T18:50:54Z</time>
      </trkpt>
      <trkpt lat="2.856223" lon="-75.12274">
        <ele>1038.0</ele>
        <time>2021-08-21T18:50:55Z</time>
      </trkpt>
      <trkpt lat="2.856236" lon="-75.12275">
        <ele>1038.1</ele>
        <time>2021-08-21T18:50:56Z</time>
      </trkpt>
      <trkpt lat="2.856248" lon="-75.122765">
        <ele>1038.3</ele>
        <time>2021-08-21T18:50:57Z</time>
      </trkpt>
      <trkpt lat="2.856261" lon="-75.12277">
        <ele>1038.4</ele>
        <time>2021-08-21T18:50:58Z</time>
      </trkpt>
      <trkpt lat="2.856274" lon="-75.12279">
        <ele>1038.5</ele>
        <time>2021-08-21T18:50:59Z</time>
      </trkpt>
      <trkpt lat="2.856286" lon="-75.122795">
        <ele>1038.6</ele>
        <time>2021-08-21T18:51:00Z</time>
      </trkpt>
      <trkpt lat="2.856298" lon="-75.12281">
        <ele>1038.8</ele>
        <time>2021-08-21T18:51:01Z</time>
      </trkpt>
      <trkpt lat="2.856309" lon="-75.12282">
        <ele>1038.9</ele>
        <time>2021-08-21T18:51:02Z</time>
      </trkpt>
      <trkpt lat="2.856321" lon="-75.122826">
        <ele>1039.0</ele>
        <time>2021-08-21T18:51:03Z</time>
      </trkpt>
      <trkpt lat="2.856334" lon="-75.12283">
        <ele>1039.1</ele>
        <time>2021-08-21T18:51:04Z</time>
      </trkpt>
      <trkpt lat="2.856347" lon="-75.12285">
        <ele>1039.3</ele>
        <time>2021-08-21T18:51:05Z</time>
      </trkpt>
      <trkpt lat="2.856361" lon="-75.12286">
        <ele>1039.4</ele>
        <time>2021-08-21T18:51:06Z</time>
      </trkpt>
      <trkpt lat="2.856376" lon="-75.12287">
        <ele>1039.6</ele>
        <time>2021-08-21T18:51:07Z</time>
      </trkpt>
      <trkpt lat="2.856391" lon="-75.12289">
        <ele>1039.8</ele>
        <time>2021-08-21T18:51:08Z</time>
      </trkpt>
      <trkpt lat="2.856406" lon="-75.1229">
        <ele>1039.9</ele>
        <time>2021-08-21T18:51:09Z</time>
      </trkpt>
      <trkpt lat="2.85642" lon="-75.12292">
        <ele>1040.1</ele>
        <time>2021-08-21T18:51:10Z</time>
      </trkpt>
      <trkpt lat="2.856434" lon="-75.12293">
        <ele>1040.2</ele>
        <time>2021-08-21T18:51:11Z</time>
      </trkpt>
      <trkpt lat="2.856448" lon="-75.12295">
        <ele>1040.4</ele>
        <time>2021-08-21T18:51:12Z</time>
      </trkpt>
      <trkpt lat="2.856461" lon="-75.12296">
        <ele>1040.5</ele>
        <time>2021-08-21T18:51:13Z</time>
      </trkpt>
      <trkpt lat="2.856471" lon="-75.12297">
        <ele>1040.7</ele>
        <time>2021-08-21T18:51:14Z</time>
      </trkpt>
      <trkpt lat="2.856481" lon="-75.122986">
        <ele>1040.8</ele>
        <time>2021-08-21T18:51:15Z</time>
      </trkpt>
      <trkpt lat="2.85649" lon="-75.123">
        <ele>1040.9</ele>
        <time>2021-08-21T18:51:16Z</time>
      </trkpt>
      <trkpt lat="2.8565" lon="-75.12302">
        <ele>1041.1</ele>
        <time>2021-08-21T18:51:17Z</time>
      </trkpt>
      <trkpt lat="2.856508" lon="-75.12303">
        <ele>1041.2</ele>
        <time>2021-08-21T18:51:18Z</time>
      </trkpt>
      <trkpt lat="2.856516" lon="-75.12305">
        <ele>1041.3</ele>
        <time>2021-08-21T18:51:19Z</time>
      </trkpt>
      <trkpt lat="2.856525" lon="-75.12306">
        <ele>1041.5</ele>
        <time>2021-08-21T18:51:20Z</time>
      </trkpt>
      <trkpt lat="2.856534" lon="-75.12308">
        <ele>1041.6</ele>
        <time>2021-08-21T18:51:21Z</time>
      </trkpt>
      <trkpt lat="2.856545" lon="-75.12309">
        <ele>1041.8</ele>
        <time>2021-08-21T18:51:22Z</time>
      </trkpt>
      <trkpt lat="2.856555" lon="-75.12311">
        <ele>1042.0</ele>
        <time>2021-08-21T18:51:23Z</time>
      </trkpt>
      <trkpt lat="2.856565" lon="-75.12312">
        <ele>1042.1</ele>
        <time>2021-08-21T18:51:24Z</time>
      </trkpt>
      <trkpt lat="2.856575" lon="-75.12313">
        <ele>1042.3</ele>
        <time>2021-08-21T18:51:25Z</time>
      </trkpt>
      <trkpt lat="2.856583" lon="-75.123146">
        <ele>1042.4</ele>
        <time>2021-08-21T18:51:26Z</time>
      </trkpt>
      <trkpt lat="2.856592" lon="-75.12316">
        <ele>1042.6</ele>
        <time>2021-08-21T18:51:27Z</time>
      </trkpt>
      <trkpt lat="2.856602" lon="-75.12318">
        <ele>1042.7</ele>
        <time>2021-08-21T18:51:28Z</time>
      </trkpt>
      <trkpt lat="2.856611" lon="-75.123184">
        <ele>1042.8</ele>
        <time>2021-08-21T18:51:29Z</time>
      </trkpt>
      <trkpt lat="2.856621" lon="-75.12319">
        <ele>1042.9</ele>
        <time>2021-08-21T18:51:30Z</time>
      </trkpt>
      <trkpt lat="2.856631" lon="-75.12321">
        <ele>1043.1</ele>
        <time>2021-08-21T18:51:31Z</time>
      </trkpt>
      <trkpt lat="2.856641" lon="-75.123215">
        <ele>1043.2</ele>
        <time>2021-08-21T18:51:32Z</time>
      </trkpt>
      <trkpt lat="2.856651" lon="-75.12323">
        <ele>1043.3</ele>
        <time>2021-08-21T18:51:33Z</time>
      </trkpt>
      <trkpt lat="2.856662" lon="-75.12324">
        <ele>1043.5</ele>
        <time>2021-08-21T18:51:34Z</time>
      </trkpt>
      <trkpt lat="2.856676" lon="-75.12325">
        <ele>1043.6</ele>
        <time>2021-08-21T18:51:35Z</time>
      </trkpt>
      <trkpt lat="2.856689" lon="-75.12326">
        <ele>1043.7</ele>
        <time>2021-08-21T18:51:36Z</time>
      </trkpt>
      <trkpt lat="2.856703" lon="-75.12327">
        <ele>1043.9</ele>
        <time>2021-08-21T18:51:37Z</time>
      </trkpt>
      <trkpt lat="2.856717" lon="-75.12328">
        <ele>1044.0</ele>
        <time>2021-08-21T18:51:38Z</time>
      </trkpt>
      <trkpt lat="2.856731" lon="-75.12329">
        <ele>1044.1</ele>
        <time>2021-08-21T18:51:39Z</time>
      </trkpt>
      <trkpt lat="2.856746" lon="-75.1233">
        <ele>1044.3</ele>
        <time>2021-08-21T18:51:40Z</time>
      </trkpt>
      <trkpt lat="2.856761" lon="-75.12331">
        <ele>1044.4</ele>
        <time>2021-08-21T18:51:41Z</time>
      </trkpt>
      <trkpt lat="2.856829" lon="-75.123344">
        <ele>1044.9</ele>
        <time>2021-08-21T18:51:43Z</time>
      </trkpt>
      <trkpt lat="2.856834" lon="-75.123344">
        <ele>1044.9</ele>
        <time>2021-08-21T18:51:44Z</time>
      </trkpt>
      <trkpt lat="2.856844" lon="-75.12335">
        <ele>1045.0</ele>
        <time>2021-08-21T18:51:45Z</time>
      </trkpt>
      <trkpt lat="2.856857" lon="-75.12335">
        <ele>1045.1</ele>
        <time>2021-08-21T18:51:46Z</time>
      </trkpt>
      <trkpt lat="2.856872" lon="-75.12336">
        <ele>1045.1</ele>
        <time>2021-08-21T18:51:47Z</time>
      </trkpt>
      <trkpt lat="2.856887" lon="-75.12337">
        <ele>1045.2</ele>
        <time>2021-08-21T18:51:48Z</time>
      </trkpt>
      <trkpt lat="2.856903" lon="-75.123375">
        <ele>1045.3</ele>
        <time>2021-08-21T18:51:49Z</time>
      </trkpt>
      <trkpt lat="2.856923" lon="-75.12338">
        <ele>1045.4</ele>
        <time>2021-08-21T18:51:50Z</time>
      </trkpt>
      <trkpt lat="2.85694" lon="-75.12338">
        <ele>1045.5</ele>
        <time>2021-08-21T18:51:51Z</time>
      </trkpt>
      <trkpt lat="2.85696" lon="-75.12339">
        <ele>1045.6</ele>
        <time>2021-08-21T18:51:52Z</time>
      </trkpt>
      <trkpt lat="2.856979" lon="-75.1234">
        <ele>1045.7</ele>
        <time>2021-08-21T18:51:53Z</time>
      </trkpt>
      <trkpt lat="2.856999" lon="-75.123405">
        <ele>1045.7</ele>
        <time>2021-08-21T18:51:54Z</time>
      </trkpt>
      <trkpt lat="2.85702" lon="-75.12341">
        <ele>1045.8</ele>
        <time>2021-08-21T18:51:55Z</time>
      </trkpt>
      <trkpt lat="2.857041" lon="-75.12343">
        <ele>1045.9</ele>
        <time>2021-08-21T18:51:56Z</time>
      </trkpt>
      <trkpt lat="2.85706" lon="-75.123436">
        <ele>1045.9</ele>
        <time>2021-08-21T18:51:57Z</time>
      </trkpt>
      <trkpt lat="2.857077" lon="-75.12345">
        <ele>1046.0</ele>
        <time>2021-08-21T18:51:58Z</time>
      </trkpt>
      <trkpt lat="2.857093" lon="-75.12347">
        <ele>1046.0</ele>
        <time>2021-08-21T18:51:59Z</time>
      </trkpt>
      <trkpt lat="2.857108" lon="-75.12348">
        <ele>1046.1</ele>
        <time>2021-08-21T18:52:00Z</time>
      </trkpt>
      <trkpt lat="2.85712" lon="-75.1235">
        <ele>1046.1</ele>
        <time>2021-08-21T18:52:01Z</time>
      </trkpt>
      <trkpt lat="2.857131" lon="-75.12352">
        <ele>1046.2</ele>
        <time>2021-08-21T18:52:02Z</time>
      </trkpt>
      <trkpt lat="2.85714" lon="-75.12354">
        <ele>1046.2</ele>
        <time>2021-08-21T18:52:03Z</time>
      </trkpt>
      <trkpt lat="2.857146" lon="-75.123566">
        <ele>1046.2</ele>
        <time>2021-08-21T18:52:04Z</time>
      </trkpt>
      <trkpt lat="2.857148" lon="-75.1236">
        <ele>1046.2</ele>
        <time>2021-08-21T18:52:05Z</time>
      </trkpt>
      <trkpt lat="2.857145" lon="-75.12362">
        <ele>1046.2</ele>
        <time>2021-08-21T18:52:06Z</time>
      </trkpt>
      <trkpt lat="2.857137" lon="-75.12364">
        <ele>1046.2</ele>
        <time>2021-08-21T18:52:07Z</time>
      </trkpt>
      <trkpt lat="2.857089" lon="-75.123726">
        <ele>1045.9</ele>
        <time>2021-08-21T18:52:09Z</time>
      </trkpt>
      <trkpt lat="2.857081" lon="-75.12373">
        <ele>1045.8</ele>
        <time>2021-08-21T18:52:10Z</time>
      </trkpt>
      <trkpt lat="2.857066" lon="-75.12375">
        <ele>1045.7</ele>
        <time>2021-08-21T18:52:11Z</time>
      </trkpt>
      <trkpt lat="2.857047" lon="-75.12377">
        <ele>1045.6</ele>
        <time>2021-08-21T18:52:12Z</time>
      </trkpt>
      <trkpt lat="2.857022" lon="-75.123795">
        <ele>1045.4</ele>
        <time>2021-08-21T18:52:13Z</time>
      </trkpt>
      <trkpt lat="2.856988" lon="-75.123825">
        <ele>1045.1</ele>
        <time>2021-08-21T18:52:14Z</time>
      </trkpt>
      <trkpt lat="2.856952" lon="-75.12386">
        <ele>1044.8</ele>
        <time>2021-08-21T18:52:15Z</time>
      </trkpt>
      <trkpt lat="2.856916" lon="-75.12389">
        <ele>1044.5</ele>
        <time>2021-08-21T18:52:16Z</time>
      </trkpt>
      <trkpt lat="2.856875" lon="-75.12393">
        <ele>1044.1</ele>
        <time>2021-08-21T18:52:17Z</time>
      </trkpt>
      <trkpt lat="2.856834" lon="-75.12396">
        <ele>1043.7</ele>
        <time>2021-08-21T18:52:18Z</time>
      </trkpt>
      <trkpt lat="2.856797" lon="-75.124">
        <ele>1043.4</ele>
        <time>2021-08-21T18:52:19Z</time>
      </trkpt>
      <trkpt lat="2.856757" lon="-75.12404">
        <ele>1043.0</ele>
        <time>2021-08-21T18:52:20Z</time>
      </trkpt>
      <trkpt lat="2.856719" lon="-75.12408">
        <ele>1042.6</ele>
        <time>2021-08-21T18:52:21Z</time>
      </trkpt>
      <trkpt lat="2.85665" lon="-75.12416">
        <ele>1041.9</ele>
        <time>2021-08-21T18:52:22Z</time>
      </trkpt>
      <trkpt lat="2.856682" lon="-75.12412">
        <ele>1042.2</ele>
        <time>2021-08-21T18:52:22Z</time>
      </trkpt>
      <trkpt lat="2.856621" lon="-75.12421">
        <ele>1041.5</ele>
        <time>2021-08-21T18:52:23Z</time>
      </trkpt>
      <trkpt lat="2.856597" lon="-75.12426">
        <ele>1041.1</ele>
        <time>2021-08-21T18:52:24Z</time>
      </trkpt>
      <trkpt lat="2.85658" lon="-75.12431">
        <ele>1040.8</ele>
        <time>2021-08-21T18:52:25Z</time>
      </trkpt>
      <trkpt lat="2.856573" lon="-75.12437">
        <ele>1040.4</ele>
        <time>2021-08-21T18:52:26Z</time>
      </trkpt>
      <trkpt lat="2.856576" lon="-75.12442">
        <ele>1040.1</ele>
        <time>2021-08-21T18:52:27Z</time>
      </trkpt>
      <trkpt lat="2.856588" lon="-75.12448">
        <ele>1039.7</ele>
        <time>2021-08-21T18:52:28Z</time>
      </trkpt>
      <trkpt lat="2.856605" lon="-75.12455">
        <ele>1039.4</ele>
        <time>2021-08-21T18:52:29Z</time>
      </trkpt>
      <trkpt lat="2.856624" lon="-75.12461">
        <ele>1039.1</ele>
        <time>2021-08-21T18:52:30Z</time>
      </trkpt>
      <trkpt lat="2.856643" lon="-75.12468">
        <ele>1038.8</ele>
        <time>2021-08-21T18:52:31Z</time>
      </trkpt>
      <trkpt lat="2.856664" lon="-75.12474">
        <ele>1038.6</ele>
        <time>2021-08-21T18:52:32Z</time>
      </trkpt>
      <trkpt lat="2.856689" lon="-75.1248">
        <ele>1038.4</ele>
        <time>2021-08-21T18:52:33Z</time>
      </trkpt>
      <trkpt lat="2.856722" lon="-75.124855">
        <ele>1038.3</ele>
        <time>2021-08-21T18:52:34Z</time>
      </trkpt>
      <trkpt lat="2.85676" lon="-75.12489">
        <ele>1038.1</ele>
        <time>2021-08-21T18:52:35Z</time>
      </trkpt>
      <trkpt lat="2.856805" lon="-75.12493">
        <ele>1038.0</ele>
        <time>2021-08-21T18:52:36Z</time>
      </trkpt>
      <trkpt lat="2.856854" lon="-75.12496">
        <ele>1037.8</ele>
        <time>2021-08-21T18:52:37Z</time>
      </trkpt>
      <trkpt lat="2.856907" lon="-75.12498">
        <ele>1037.7</ele>
        <time>2021-08-21T18:52:38Z</time>
      </trkpt>
      <trkpt lat="2.856964" lon="-75.12499">
        <ele>1037.5</ele>
        <time>2021-08-21T18:52:39Z</time>
      </trkpt>
      <trkpt lat="2.857022" lon="-75.125015">
        <ele>1037.4</ele>
        <time>2021-08-21T18:52:40Z</time>
      </trkpt>
      <trkpt lat="2.857079" lon="-75.12504">
        <ele>1037.2</ele>
        <time>2021-08-21T18:52:41Z</time>
      </trkpt>
      <trkpt lat="2.857135" lon="-75.12506">
        <ele>1037.1</ele>
        <time>2021-08-21T18:52:42Z</time>
      </trkpt>
      <trkpt lat="2.857185" lon="-75.1251">
        <ele>1037.0</ele>
        <time>2021-08-21T18:52:43Z</time>
      </trkpt>
      <trkpt lat="2.857226" lon="-75.12514">
        <ele>1036.9</ele>
        <time>2021-08-21T18:52:44Z</time>
      </trkpt>
      <trkpt lat="2.857257" lon="-75.12518">
        <ele>1036.8</ele>
        <time>2021-08-21T18:52:45Z</time>
      </trkpt>
      <trkpt lat="2.857277" lon="-75.12523">
        <ele>1036.7</ele>
        <time>2021-08-21T18:52:46Z</time>
      </trkpt>
      <trkpt lat="2.85728" lon="-75.12527">
        <ele>1036.7</ele>
        <time>2021-08-21T18:52:47Z</time>
      </trkpt>
      <trkpt lat="2.85727" lon="-75.1253">
        <ele>1036.6</ele>
        <time>2021-08-21T18:52:48Z</time>
      </trkpt>
      <trkpt lat="2.857249" lon="-75.125336">
        <ele>1036.6</ele>
        <time>2021-08-21T18:52:49Z</time>
      </trkpt>
      <trkpt lat="2.857219" lon="-75.12537">
        <ele>1036.6</ele>
        <time>2021-08-21T18:52:50Z</time>
      </trkpt>
      <trkpt lat="2.857187" lon="-75.1254">
        <ele>1036.6</ele>
        <time>2021-08-21T18:52:51Z</time>
      </trkpt>
      <trkpt lat="2.857152" lon="-75.12543">
        <ele>1036.6</ele>
        <time>2021-08-21T18:52:52Z</time>
      </trkpt>
      <trkpt lat="2.857115" lon="-75.12545">
        <ele>1036.5</ele>
        <time>2021-08-21T18:52:53Z</time>
      </trkpt>
      <trkpt lat="2.857077" lon="-75.12548">
        <ele>1036.5</ele>
        <time>2021-08-21T18:52:54Z</time>
      </trkpt>
      <trkpt lat="2.857039" lon="-75.12551">
        <ele>1036.5</ele>
        <time>2021-08-21T18:52:55Z</time>
      </trkpt>
      <trkpt lat="2.857" lon="-75.12554">
        <ele>1036.5</ele>
        <time>2021-08-21T18:52:56Z</time>
      </trkpt>
      <trkpt lat="2.856964" lon="-75.12558">
        <ele>1036.5</ele>
        <time>2021-08-21T18:52:57Z</time>
      </trkpt>
      <trkpt lat="2.856929" lon="-75.12561">
        <ele>1036.5</ele>
        <time>2021-08-21T18:52:58Z</time>
      </trkpt>
      <trkpt lat="2.856901" lon="-75.12565">
        <ele>1036.4</ele>
        <time>2021-08-21T18:52:59Z</time>
      </trkpt>
      <trkpt lat="2.85688" lon="-75.12569">
        <ele>1036.3</ele>
        <time>2021-08-21T18:53:00Z</time>
      </trkpt>
      <trkpt lat="2.856865" lon="-75.12572">
        <ele>1036.2</ele>
        <time>2021-08-21T18:53:01Z</time>
      </trkpt>
      <trkpt lat="2.856856" lon="-75.125755">
        <ele>1036.1</ele>
        <time>2021-08-21T18:53:02Z</time>
      </trkpt>
      <trkpt lat="2.856852" lon="-75.12579">
        <ele>1036.0</ele>
        <time>2021-08-21T18:53:03Z</time>
      </trkpt>
      <trkpt lat="2.856852" lon="-75.12584">
        <ele>1035.8</ele>
        <time>2021-08-21T18:53:04Z</time>
      </trkpt>
      <trkpt lat="2.856853" lon="-75.125885">
        <ele>1035.7</ele>
        <time>2021-08-21T18:53:05Z</time>
      </trkpt>
      <trkpt lat="2.856855" lon="-75.12594">
        <ele>1035.5</ele>
        <time>2021-08-21T18:53:06Z</time>
      </trkpt>
      <trkpt lat="2.856858" lon="-75.125984">
        <ele>1035.4</ele>
        <time>2021-08-21T18:53:07Z</time>
      </trkpt>
      <trkpt lat="2.856861" lon="-75.12603">
        <ele>1035.2</ele>
        <time>2021-08-21T18:53:08Z</time>
      </trkpt>
      <trkpt lat="2.856865" lon="-75.12608">
        <ele>1035.0</ele>
        <time>2021-08-21T18:53:09Z</time>
      </trkpt>
      <trkpt lat="2.85687" lon="-75.126144">
        <ele>1034.9</ele>
        <time>2021-08-21T18:53:10Z</time>
      </trkpt>
      <trkpt lat="2.856875" lon="-75.1262">
        <ele>1034.7</ele>
        <time>2021-08-21T18:53:11Z</time>
      </trkpt>
      <trkpt lat="2.85688" lon="-75.12625">
        <ele>1034.5</ele>
        <time>2021-08-21T18:53:12Z</time>
      </trkpt>
      <trkpt lat="2.856883" lon="-75.126305">
        <ele>1034.3</ele>
        <time>2021-08-21T18:53:13Z</time>
      </trkpt>
      <trkpt lat="2.856886" lon="-75.12636">
        <ele>1034.1</ele>
        <time>2021-08-21T18:53:14Z</time>
      </trkpt>
      <trkpt lat="2.856891" lon="-75.12642">
        <ele>1033.9</ele>
        <time>2021-08-21T18:53:15Z</time>
      </trkpt>
      <trkpt lat="2.856899" lon="-75.12647">
        <ele>1033.7</ele>
        <time>2021-08-21T18:53:16Z</time>
      </trkpt>
      <trkpt lat="2.856912" lon="-75.126526">
        <ele>1033.4</ele>
        <time>2021-08-21T18:53:17Z</time>
      </trkpt>
      <trkpt lat="2.856933" lon="-75.12658">
        <ele>1033.2</ele>
        <time>2021-08-21T18:53:18Z</time>
      </trkpt>
      <trkpt lat="2.856963" lon="-75.126625">
        <ele>1032.9</ele>
        <time>2021-08-21T18:53:19Z</time>
      </trkpt>
      <trkpt lat="2.857002" lon="-75.12666">
        <ele>1032.6</ele>
        <time>2021-08-21T18:53:20Z</time>
      </trkpt>
      <trkpt lat="2.85705" lon="-75.12669">
        <ele>1032.2</ele>
        <time>2021-08-21T18:53:21Z</time>
      </trkpt>
      <trkpt lat="2.857106" lon="-75.12671">
        <ele>1031.9</ele>
        <time>2021-08-21T18:53:22Z</time>
      </trkpt>
      <trkpt lat="2.857166" lon="-75.126724">
        <ele>1031.6</ele>
        <time>2021-08-21T18:53:23Z</time>
      </trkpt>
      <trkpt lat="2.857226" lon="-75.12675">
        <ele>1031.3</ele>
        <time>2021-08-21T18:53:24Z</time>
      </trkpt>
      <trkpt lat="2.857284" lon="-75.12677">
        <ele>1030.9</ele>
        <time>2021-08-21T18:53:25Z</time>
      </trkpt>
      <trkpt lat="2.857342" lon="-75.12681">
        <ele>1030.6</ele>
        <time>2021-08-21T18:53:26Z</time>
      </trkpt>
      <trkpt lat="2.857401" lon="-75.12684">
        <ele>1030.4</ele>
        <time>2021-08-21T18:53:27Z</time>
      </trkpt>
      <trkpt lat="2.857461" lon="-75.12687">
        <ele>1030.1</ele>
        <time>2021-08-21T18:53:28Z</time>
      </trkpt>
      <trkpt lat="2.857524" lon="-75.1269">
        <ele>1029.9</ele>
        <time>2021-08-21T18:53:29Z</time>
      </trkpt>
      <trkpt lat="2.857587" lon="-75.12693">
        <ele>1029.6</ele>
        <time>2021-08-21T18:53:30Z</time>
      </trkpt>
      <trkpt lat="2.857648" lon="-75.12697">
        <ele>1029.4</ele>
        <time>2021-08-21T18:53:31Z</time>
      </trkpt>
      <trkpt lat="2.857705" lon="-75.12701">
        <ele>1029.1</ele>
        <time>2021-08-21T18:53:32Z</time>
      </trkpt>
      <trkpt lat="2.857752" lon="-75.127045">
        <ele>1029.0</ele>
        <time>2021-08-21T18:53:33Z</time>
      </trkpt>
      <trkpt lat="2.857797" lon="-75.1271">
        <ele>1028.7</ele>
        <time>2021-08-21T18:53:34Z</time>
      </trkpt>
      <trkpt lat="2.85784" lon="-75.12715">
        <ele>1028.6</ele>
        <time>2021-08-21T18:53:35Z</time>
      </trkpt>
      <trkpt lat="2.857886" lon="-75.1272">
        <ele>1028.4</ele>
        <time>2021-08-21T18:53:36Z</time>
      </trkpt>
      <trkpt lat="2.857935" lon="-75.127235">
        <ele>1028.2</ele>
        <time>2021-08-21T18:53:37Z</time>
      </trkpt>
      <trkpt lat="2.857985" lon="-75.12726">
        <ele>1028.1</ele>
        <time>2021-08-21T18:53:38Z</time>
      </trkpt>
      <trkpt lat="2.858035" lon="-75.127266">
        <ele>1028.0</ele>
        <time>2021-08-21T18:53:39Z</time>
      </trkpt>
      <trkpt lat="2.858084" lon="-75.12726">
        <ele>1027.8</ele>
        <time>2021-08-21T18:53:40Z</time>
      </trkpt>
      <trkpt lat="2.858133" lon="-75.127235">
        <ele>1027.7</ele>
        <time>2021-08-21T18:53:41Z</time>
      </trkpt>
      <trkpt lat="2.858183" lon="-75.12721">
        <ele>1027.5</ele>
        <time>2021-08-21T18:53:42Z</time>
      </trkpt>
      <trkpt lat="2.858234" lon="-75.12719">
        <ele>1027.3</ele>
        <time>2021-08-21T18:53:43Z</time>
      </trkpt>
      <trkpt lat="2.858286" lon="-75.127174">
        <ele>1027.1</ele>
        <time>2021-08-21T18:53:44Z</time>
      </trkpt>
      <trkpt lat="2.858341" lon="-75.12715">
        <ele>1026.9</ele>
        <time>2021-08-21T18:53:45Z</time>
      </trkpt>
      <trkpt lat="2.858398" lon="-75.127144">
        <ele>1026.6</ele>
        <time>2021-08-21T18:53:46Z</time>
      </trkpt>
      <trkpt lat="2.858455" lon="-75.127144">
        <ele>1026.4</ele>
        <time>2021-08-21T18:53:47Z</time>
      </trkpt>
      <trkpt lat="2.858512" lon="-75.12715">
        <ele>1026.0</ele>
        <time>2021-08-21T18:53:48Z</time>
      </trkpt>
      <trkpt lat="2.858568" lon="-75.12716">
        <ele>1025.6</ele>
        <time>2021-08-21T18:53:49Z</time>
      </trkpt>
      <trkpt lat="2.858621" lon="-75.12718">
        <ele>1025.2</ele>
        <time>2021-08-21T18:53:50Z</time>
      </trkpt>
      <trkpt lat="2.858672" lon="-75.12721">
        <ele>1024.7</ele>
        <time>2021-08-21T18:53:51Z</time>
      </trkpt>
      <trkpt lat="2.858722" lon="-75.12725">
        <ele>1024.0</ele>
        <time>2021-08-21T18:53:52Z</time>
      </trkpt>
      <trkpt lat="2.858767" lon="-75.1273">
        <ele>1023.3</ele>
        <time>2021-08-21T18:53:53Z</time>
      </trkpt>
      <trkpt lat="2.858807" lon="-75.12735">
        <ele>1022.6</ele>
        <time>2021-08-21T18:53:54Z</time>
      </trkpt>
      <trkpt lat="2.858837" lon="-75.1274">
        <ele>1022.0</ele>
        <time>2021-08-21T18:53:55Z</time>
      </trkpt>
      <trkpt lat="2.858861" lon="-75.12747">
        <ele>1021.5</ele>
        <time>2021-08-21T18:53:56Z</time>
      </trkpt>
      <trkpt lat="2.858879" lon="-75.12754">
        <ele>1021.0</ele>
        <time>2021-08-21T18:53:57Z</time>
      </trkpt>
      <trkpt lat="2.858894" lon="-75.12761">
        <ele>1020.6</ele>
        <time>2021-08-21T18:53:58Z</time>
      </trkpt>
      <trkpt lat="2.858908" lon="-75.127686">
        <ele>1020.3</ele>
        <time>2021-08-21T18:53:59Z</time>
      </trkpt>
      <trkpt lat="2.858923" lon="-75.127754">
        <ele>1020.0</ele>
        <time>2021-08-21T18:54:00Z</time>
      </trkpt>
      <trkpt lat="2.858943" lon="-75.127815">
        <ele>1019.7</ele>
        <time>2021-08-21T18:54:01Z</time>
      </trkpt>
      <trkpt lat="2.858974" lon="-75.127884">
        <ele>1019.4</ele>
        <time>2021-08-21T18:54:02Z</time>
      </trkpt>
      <trkpt lat="2.85901" lon="-75.127945">
        <ele>1019.1</ele>
        <time>2021-08-21T18:54:03Z</time>
      </trkpt>
      <trkpt lat="2.85905" lon="-75.128">
        <ele>1018.7</ele>
        <time>2021-08-21T18:54:04Z</time>
      </trkpt>
      <trkpt lat="2.859094" lon="-75.12806">
        <ele>1018.3</ele>
        <time>2021-08-21T18:54:05Z</time>
      </trkpt>
      <trkpt lat="2.85914" lon="-75.12811">
        <ele>1017.9</ele>
        <time>2021-08-21T18:54:06Z</time>
      </trkpt>
      <trkpt lat="2.859188" lon="-75.12817">
        <ele>1017.4</ele>
        <time>2021-08-21T18:54:07Z</time>
      </trkpt>
      <trkpt lat="2.85924" lon="-75.12822">
        <ele>1017.0</ele>
        <time>2021-08-21T18:54:08Z</time>
      </trkpt>
      <trkpt lat="2.859444" lon="-75.12844">
        <ele>1015.4</ele>
        <time>2021-08-21T18:54:10Z</time>
      </trkpt>
      <trkpt lat="2.859452" lon="-75.128456">
        <ele>1015.4</ele>
        <time>2021-08-21T18:54:11Z</time>
      </trkpt>
      <trkpt lat="2.859464" lon="-75.128494">
        <ele>1015.2</ele>
        <time>2021-08-21T18:54:12Z</time>
      </trkpt>
      <trkpt lat="2.859478" lon="-75.12854">
        <ele>1015.0</ele>
        <time>2021-08-21T18:54:13Z</time>
      </trkpt>
      <trkpt lat="2.859491" lon="-75.1286">
        <ele>1014.8</ele>
        <time>2021-08-21T18:54:14Z</time>
      </trkpt>
      <trkpt lat="2.859502" lon="-75.12866">
        <ele>1014.7</ele>
        <time>2021-08-21T18:54:15Z</time>
      </trkpt>
      <trkpt lat="2.859512" lon="-75.12872">
        <ele>1014.5</ele>
        <time>2021-08-21T18:54:16Z</time>
      </trkpt>
      <trkpt lat="2.859518" lon="-75.128784">
        <ele>1014.5</ele>
        <time>2021-08-21T18:54:17Z</time>
      </trkpt>
      <trkpt lat="2.859522" lon="-75.128845">
        <ele>1014.4</ele>
        <time>2021-08-21T18:54:18Z</time>
      </trkpt>
      <trkpt lat="2.859524" lon="-75.128914">
        <ele>1014.4</ele>
        <time>2021-08-21T18:54:19Z</time>
      </trkpt>
      <trkpt lat="2.859525" lon="-75.128975">
        <ele>1014.5</ele>
        <time>2021-08-21T18:54:20Z</time>
      </trkpt>
      <trkpt lat="2.859527" lon="-75.129036">
        <ele>1014.5</ele>
        <time>2021-08-21T18:54:21Z</time>
      </trkpt>
      <trkpt lat="2.859532" lon="-75.12909">
        <ele>1014.6</ele>
        <time>2021-08-21T18:54:22Z</time>
      </trkpt>
      <trkpt lat="2.859542" lon="-75.129135">
        <ele>1014.7</ele>
        <time>2021-08-21T18:54:23Z</time>
      </trkpt>
      <trkpt lat="2.859559" lon="-75.12918">
        <ele>1014.8</ele>
        <time>2021-08-21T18:54:24Z</time>
      </trkpt>
      <trkpt lat="2.859585" lon="-75.12922">
        <ele>1014.8</ele>
        <time>2021-08-21T18:54:25Z</time>
      </trkpt>
      <trkpt lat="2.859617" lon="-75.12924">
        <ele>1014.9</ele>
        <time>2021-08-21T18:54:26Z</time>
      </trkpt>
      <trkpt lat="2.859653" lon="-75.12927">
        <ele>1014.9</ele>
        <time>2021-08-21T18:54:27Z</time>
      </trkpt>
      <trkpt lat="2.859691" lon="-75.12929">
        <ele>1015.0</ele>
        <time>2021-08-21T18:54:28Z</time>
      </trkpt>
      <trkpt lat="2.85973" lon="-75.129295">
        <ele>1015.0</ele>
        <time>2021-08-21T18:54:29Z</time>
      </trkpt>
      <trkpt lat="2.859769" lon="-75.1293">
        <ele>1015.0</ele>
        <time>2021-08-21T18:54:30Z</time>
      </trkpt>
      <trkpt lat="2.859809" lon="-75.1293">
        <ele>1015.0</ele>
        <time>2021-08-21T18:54:31Z</time>
      </trkpt>
      <trkpt lat="2.859852" lon="-75.129295">
        <ele>1015.1</ele>
        <time>2021-08-21T18:54:32Z</time>
      </trkpt>
      <trkpt lat="2.859895" lon="-75.129295">
        <ele>1015.1</ele>
        <time>2021-08-21T18:54:33Z</time>
      </trkpt>
      <trkpt lat="2.859938" lon="-75.12929">
        <ele>1015.1</ele>
        <time>2021-08-21T18:54:34Z</time>
      </trkpt>
      <trkpt lat="2.859981" lon="-75.12928">
        <ele>1015.0</ele>
        <time>2021-08-21T18:54:36Z</time>
      </trkpt>
      <trkpt lat="2.860035" lon="-75.129265">
        <ele>1014.9</ele>
        <time>2021-08-21T18:54:37Z</time>
      </trkpt>
      <trkpt lat="2.860084" lon="-75.12924">
        <ele>1014.8</ele>
        <time>2021-08-21T18:54:38Z</time>
      </trkpt>
      <trkpt lat="2.860129" lon="-75.12923">
        <ele>1014.7</ele>
        <time>2021-08-21T18:54:39Z</time>
      </trkpt>
      <trkpt lat="2.860174" lon="-75.1292">
        <ele>1014.6</ele>
        <time>2021-08-21T18:54:40Z</time>
      </trkpt>
      <trkpt lat="2.860214" lon="-75.12918">
        <ele>1014.5</ele>
        <time>2021-08-21T18:54:41Z</time>
      </trkpt>
      <trkpt lat="2.860253" lon="-75.12915">
        <ele>1014.3</ele>
        <time>2021-08-21T18:54:42Z</time>
      </trkpt>
      <trkpt lat="2.860291" lon="-75.12913">
        <ele>1014.2</ele>
        <time>2021-08-21T18:54:43Z</time>
      </trkpt>
      <trkpt lat="2.860331" lon="-75.1291">
        <ele>1014.0</ele>
        <time>2021-08-21T18:54:44Z</time>
      </trkpt>
      <trkpt lat="2.86037" lon="-75.12907">
        <ele>1013.8</ele>
        <time>2021-08-21T18:54:45Z</time>
      </trkpt>
      <trkpt lat="2.860409" lon="-75.12903">
        <ele>1013.6</ele>
        <time>2021-08-21T18:54:46Z</time>
      </trkpt>
      <trkpt lat="2.860447" lon="-75.12899">
        <ele>1013.4</ele>
        <time>2021-08-21T18:54:47Z</time>
      </trkpt>
      <trkpt lat="2.860483" lon="-75.128944">
        <ele>1013.1</ele>
        <time>2021-08-21T18:54:48Z</time>
      </trkpt>
      <trkpt lat="2.860521" lon="-75.1289">
        <ele>1012.9</ele>
        <time>2021-08-21T18:54:49Z</time>
      </trkpt>
      <trkpt lat="2.860563" lon="-75.12885">
        <ele>1012.7</ele>
        <time>2021-08-21T18:54:50Z</time>
      </trkpt>
      <trkpt lat="2.860609" lon="-75.128815">
        <ele>1012.6</ele>
        <time>2021-08-21T18:54:51Z</time>
      </trkpt>
      <trkpt lat="2.860655" lon="-75.1288">
        <ele>1012.4</ele>
        <time>2021-08-21T18:54:52Z</time>
      </trkpt>
      <trkpt lat="2.860703" lon="-75.12879">
        <ele>1012.4</ele>
        <time>2021-08-21T18:54:53Z</time>
      </trkpt>
      <trkpt lat="2.860753" lon="-75.1288">
        <ele>1012.3</ele>
        <time>2021-08-21T18:54:54Z</time>
      </trkpt>
      <trkpt lat="2.860794" lon="-75.12882">
        <ele>1012.3</ele>
        <time>2021-08-21T18:54:55Z</time>
      </trkpt>
      <trkpt lat="2.860821" lon="-75.128845">
        <ele>1012.3</ele>
        <time>2021-08-21T18:54:56Z</time>
      </trkpt>
      <trkpt lat="2.860836" lon="-75.12888">
        <ele>1012.4</ele>
        <time>2021-08-21T18:54:57Z</time>
      </trkpt>
      <trkpt lat="2.860843" lon="-75.12892">
        <ele>1012.4</ele>
        <time>2021-08-21T18:54:58Z</time>
      </trkpt>
      <trkpt lat="2.860843" lon="-75.12895">
        <ele>1012.5</ele>
        <time>2021-08-21T18:54:59Z</time>
      </trkpt>
      <trkpt lat="2.860841" lon="-75.12898">
        <ele>1012.6</ele>
        <time>2021-08-21T18:55:00Z</time>
      </trkpt>
      <trkpt lat="2.860837" lon="-75.12902">
        <ele>1012.7</ele>
        <time>2021-08-21T18:55:01Z</time>
      </trkpt>
      <trkpt lat="2.860832" lon="-75.12904">
        <ele>1012.8</ele>
        <time>2021-08-21T18:55:02Z</time>
      </trkpt>
      <trkpt lat="2.860826" lon="-75.12907">
        <ele>1012.9</ele>
        <time>2021-08-21T18:55:03Z</time>
      </trkpt>
      <trkpt lat="2.860819" lon="-75.1291">
        <ele>1013.0</ele>
        <time>2021-08-21T18:55:04Z</time>
      </trkpt>
      <trkpt lat="2.860812" lon="-75.12912">
        <ele>1013.1</ele>
        <time>2021-08-21T18:55:05Z</time>
      </trkpt>
      <trkpt lat="2.860807" lon="-75.12914">
        <ele>1013.3</ele>
        <time>2021-08-21T18:55:06Z</time>
      </trkpt>
      <trkpt lat="2.860802" lon="-75.129166">
        <ele>1013.4</ele>
        <time>2021-08-21T18:55:07Z</time>
      </trkpt>
      <trkpt lat="2.860796" lon="-75.12919">
        <ele>1013.6</ele>
        <time>2021-08-21T18:55:08Z</time>
      </trkpt>
      <trkpt lat="2.860788" lon="-75.12921">
        <ele>1013.7</ele>
        <time>2021-08-21T18:55:09Z</time>
      </trkpt>
      <trkpt lat="2.860781" lon="-75.129234">
        <ele>1013.9</ele>
        <time>2021-08-21T18:55:10Z</time>
      </trkpt>
      <trkpt lat="2.860772" lon="-75.12926">
        <ele>1014.0</ele>
        <time>2021-08-21T18:55:11Z</time>
      </trkpt>
      <trkpt lat="2.860765" lon="-75.12928">
        <ele>1014.2</ele>
        <time>2021-08-21T18:55:12Z</time>
      </trkpt>
      <trkpt lat="2.860758" lon="-75.1293">
        <ele>1014.4</ele>
        <time>2021-08-21T18:55:13Z</time>
      </trkpt>
      <trkpt lat="2.860752" lon="-75.129326">
        <ele>1014.6</ele>
        <time>2021-08-21T18:55:14Z</time>
      </trkpt>
      <trkpt lat="2.860746" lon="-75.12935">
        <ele>1014.8</ele>
        <time>2021-08-21T18:55:15Z</time>
      </trkpt>
      <trkpt lat="2.860739" lon="-75.12937">
        <ele>1015.0</ele>
        <time>2021-08-21T18:55:16Z</time>
      </trkpt>
      <trkpt lat="2.860731" lon="-75.129395">
        <ele>1015.2</ele>
        <time>2021-08-21T18:55:17Z</time>
      </trkpt>
      <trkpt lat="2.860722" lon="-75.12942">
        <ele>1015.4</ele>
        <time>2021-08-21T18:55:18Z</time>
      </trkpt>
      <trkpt lat="2.860714" lon="-75.12944">
        <ele>1015.7</ele>
        <time>2021-08-21T18:55:19Z</time>
      </trkpt>
      <trkpt lat="2.860703" lon="-75.12946">
        <ele>1016.0</ele>
        <time>2021-08-21T18:55:20Z</time>
      </trkpt>
      <trkpt lat="2.860689" lon="-75.12949">
        <ele>1016.2</ele>
        <time>2021-08-21T18:55:21Z</time>
      </trkpt>
      <trkpt lat="2.860675" lon="-75.12952">
        <ele>1016.5</ele>
        <time>2021-08-21T18:55:22Z</time>
      </trkpt>
      <trkpt lat="2.86066" lon="-75.12954">
        <ele>1016.8</ele>
        <time>2021-08-21T18:55:23Z</time>
      </trkpt>
      <trkpt lat="2.860644" lon="-75.12956">
        <ele>1017.1</ele>
        <time>2021-08-21T18:55:24Z</time>
      </trkpt>
      <trkpt lat="2.860623" lon="-75.129585">
        <ele>1017.4</ele>
        <time>2021-08-21T18:55:25Z</time>
      </trkpt>
      <trkpt lat="2.860602" lon="-75.129616">
        <ele>1017.7</ele>
        <time>2021-08-21T18:55:26Z</time>
      </trkpt>
      <trkpt lat="2.860583" lon="-75.12964">
        <ele>1018.0</ele>
        <time>2021-08-21T18:55:27Z</time>
      </trkpt>
      <trkpt lat="2.860566" lon="-75.129654">
        <ele>1018.2</ele>
        <time>2021-08-21T18:55:28Z</time>
      </trkpt>
      <trkpt lat="2.860551" lon="-75.12968">
        <ele>1018.4</ele>
        <time>2021-08-21T18:55:29Z</time>
      </trkpt>
      <trkpt lat="2.860535" lon="-75.12969">
        <ele>1018.7</ele>
        <time>2021-08-21T18:55:30Z</time>
      </trkpt>
      <trkpt lat="2.860518" lon="-75.129715">
        <ele>1018.9</ele>
        <time>2021-08-21T18:55:31Z</time>
      </trkpt>
      <trkpt lat="2.860502" lon="-75.12973">
        <ele>1019.1</ele>
        <time>2021-08-21T18:55:32Z</time>
      </trkpt>
      <trkpt lat="2.860485" lon="-75.12975">
        <ele>1019.3</ele>
        <time>2021-08-21T18:55:33Z</time>
      </trkpt>
      <trkpt lat="2.860469" lon="-75.12977">
        <ele>1019.5</ele>
        <time>2021-08-21T18:55:34Z</time>
      </trkpt>
      <trkpt lat="2.860453" lon="-75.12978">
        <ele>1019.7</ele>
        <time>2021-08-21T18:55:35Z</time>
      </trkpt>
      <trkpt lat="2.86044" lon="-75.1298">
        <ele>1019.8</ele>
        <time>2021-08-21T18:55:36Z</time>
      </trkpt>
      <trkpt lat="2.860429" lon="-75.129814">
        <ele>1020.0</ele>
        <time>2021-08-21T18:55:37Z</time>
      </trkpt>
      <trkpt lat="2.860421" lon="-75.12983">
        <ele>1020.1</ele>
        <time>2021-08-21T18:55:38Z</time>
      </trkpt>
      <trkpt lat="2.860415" lon="-75.129845">
        <ele>1020.3</ele>
        <time>2021-08-21T18:55:39Z</time>
      </trkpt>
      <trkpt lat="2.860411" lon="-75.12986">
        <ele>1020.4</ele>
        <time>2021-08-21T18:55:40Z</time>
      </trkpt>
      <trkpt lat="2.860406" lon="-75.12988">
        <ele>1020.6</ele>
        <time>2021-08-21T18:55:41Z</time>
      </trkpt>
      <trkpt lat="2.860401" lon="-75.1299">
        <ele>1020.7</ele>
        <time>2021-08-21T18:55:42Z</time>
      </trkpt>
      <trkpt lat="2.860392" lon="-75.12991">
        <ele>1020.9</ele>
        <time>2021-08-21T18:55:43Z</time>
      </trkpt>
      <trkpt lat="2.860383" lon="-75.12994">
        <ele>1021.1</ele>
        <time>2021-08-21T18:55:44Z</time>
      </trkpt>
      <trkpt lat="2.860373" lon="-75.12995">
        <ele>1021.3</ele>
        <time>2021-08-21T18:55:45Z</time>
      </trkpt>
      <trkpt lat="2.860366" lon="-75.12997">
        <ele>1021.4</ele>
        <time>2021-08-21T18:55:46Z</time>
      </trkpt>
      <trkpt lat="2.860361" lon="-75.12999">
        <ele>1021.6</ele>
        <time>2021-08-21T18:55:47Z</time>
      </trkpt>
      <trkpt lat="2.860355" lon="-75.130005">
        <ele>1021.8</ele>
        <time>2021-08-21T18:55:48Z</time>
      </trkpt>
      <trkpt lat="2.860347" lon="-75.13002">
        <ele>1022.0</ele>
        <time>2021-08-21T18:55:49Z</time>
      </trkpt>
      <trkpt lat="2.86034" lon="-75.130035">
        <ele>1022.1</ele>
        <time>2021-08-21T18:55:50Z</time>
      </trkpt>
      <trkpt lat="2.860333" lon="-75.13005">
        <ele>1022.2</ele>
        <time>2021-08-21T18:55:51Z</time>
      </trkpt>
      <trkpt lat="2.860326" lon="-75.13006">
        <ele>1022.4</ele>
        <time>2021-08-21T18:55:52Z</time>
      </trkpt>
      <trkpt lat="2.860318" lon="-75.13007">
        <ele>1022.5</ele>
        <time>2021-08-21T18:55:53Z</time>
      </trkpt>
      <trkpt lat="2.86031" lon="-75.13009">
        <ele>1022.6</ele>
        <time>2021-08-21T18:55:54Z</time>
      </trkpt>
      <trkpt lat="2.860304" lon="-75.1301">
        <ele>1022.8</ele>
        <time>2021-08-21T18:55:55Z</time>
      </trkpt>
      <trkpt lat="2.860299" lon="-75.13011">
        <ele>1022.9</ele>
        <time>2021-08-21T18:55:56Z</time>
      </trkpt>
      <trkpt lat="2.860295" lon="-75.13012">
        <ele>1023.0</ele>
        <time>2021-08-21T18:55:57Z</time>
      </trkpt>
      <trkpt lat="2.860291" lon="-75.130135">
        <ele>1023.1</ele>
        <time>2021-08-21T18:55:58Z</time>
      </trkpt>
      <trkpt lat="2.860287" lon="-75.13015">
        <ele>1023.2</ele>
        <time>2021-08-21T18:55:59Z</time>
      </trkpt>
      <trkpt lat="2.860283" lon="-75.13016">
        <ele>1023.3</ele>
        <time>2021-08-21T18:56:00Z</time>
      </trkpt>
      <trkpt lat="2.860279" lon="-75.13017">
        <ele>1023.4</ele>
        <time>2021-08-21T18:56:01Z</time>
      </trkpt>
      <trkpt lat="2.860276" lon="-75.13019">
        <ele>1023.5</ele>
        <time>2021-08-21T18:56:02Z</time>
      </trkpt>
      <trkpt lat="2.860272" lon="-75.130196">
        <ele>1023.6</ele>
        <time>2021-08-21T18:56:03Z</time>
      </trkpt>
      <trkpt lat="2.86027" lon="-75.13021">
        <ele>1023.7</ele>
        <time>2021-08-21T18:56:04Z</time>
      </trkpt>
      <trkpt lat="2.860269" lon="-75.130226">
        <ele>1023.8</ele>
        <time>2021-08-21T18:56:05Z</time>
      </trkpt>
      <trkpt lat="2.86027" lon="-75.13024">
        <ele>1023.9</ele>
        <time>2021-08-21T18:56:06Z</time>
      </trkpt>
      <trkpt lat="2.860272" lon="-75.13026">
        <ele>1024.0</ele>
        <time>2021-08-21T18:56:07Z</time>
      </trkpt>
      <trkpt lat="2.860275" lon="-75.13027">
        <ele>1024.1</ele>
        <time>2021-08-21T18:56:08Z</time>
      </trkpt>
      <trkpt lat="2.86028" lon="-75.13028">
        <ele>1024.2</ele>
        <time>2021-08-21T18:56:09Z</time>
      </trkpt>
      <trkpt lat="2.860287" lon="-75.130295">
        <ele>1024.3</ele>
        <time>2021-08-21T18:56:10Z</time>
      </trkpt>
      <trkpt lat="2.860296" lon="-75.13031">
        <ele>1024.3</ele>
        <time>2021-08-21T18:56:11Z</time>
      </trkpt>
      <trkpt lat="2.860306" lon="-75.13032">
        <ele>1024.4</ele>
        <time>2021-08-21T18:56:12Z</time>
      </trkpt>
      <trkpt lat="2.860318" lon="-75.13033">
        <ele>1024.5</ele>
        <time>2021-08-21T18:56:13Z</time>
      </trkpt>
      <trkpt lat="2.860332" lon="-75.13034">
        <ele>1024.6</ele>
        <time>2021-08-21T18:56:14Z</time>
      </trkpt>
      <trkpt lat="2.860347" lon="-75.13035">
        <ele>1024.7</ele>
        <time>2021-08-21T18:56:15Z</time>
      </trkpt>
      <trkpt lat="2.860364" lon="-75.130356">
        <ele>1024.7</ele>
        <time>2021-08-21T18:56:16Z</time>
      </trkpt>
      <trkpt lat="2.860381" lon="-75.13036">
        <ele>1024.8</ele>
        <time>2021-08-21T18:56:17Z</time>
      </trkpt>
      <trkpt lat="2.8604" lon="-75.13037">
        <ele>1024.9</ele>
        <time>2021-08-21T18:56:18Z</time>
      </trkpt>
      <trkpt lat="2.86042" lon="-75.13038">
        <ele>1025.0</ele>
        <time>2021-08-21T18:56:19Z</time>
      </trkpt>
      <trkpt lat="2.86044" lon="-75.13038">
        <ele>1025.0</ele>
        <time>2021-08-21T18:56:20Z</time>
      </trkpt>
      <trkpt lat="2.86046" lon="-75.13039">
        <ele>1025.1</ele>
        <time>2021-08-21T18:56:21Z</time>
      </trkpt>
      <trkpt lat="2.860481" lon="-75.13039">
        <ele>1025.2</ele>
        <time>2021-08-21T18:56:22Z</time>
      </trkpt>
      <trkpt lat="2.860501" lon="-75.130394">
        <ele>1025.3</ele>
        <time>2021-08-21T18:56:23Z</time>
      </trkpt>
      <trkpt lat="2.860523" lon="-75.130394">
        <ele>1025.3</ele>
        <time>2021-08-21T18:56:24Z</time>
      </trkpt>
      <trkpt lat="2.860545" lon="-75.1304">
        <ele>1025.4</ele>
        <time>2021-08-21T18:56:25Z</time>
      </trkpt>
      <trkpt lat="2.860568" lon="-75.1304">
        <ele>1025.5</ele>
        <time>2021-08-21T18:56:26Z</time>
      </trkpt>
      <trkpt lat="2.860592" lon="-75.1304">
        <ele>1025.6</ele>
        <time>2021-08-21T18:56:27Z</time>
      </trkpt>
      <trkpt lat="2.860618" lon="-75.13041">
        <ele>1025.6</ele>
        <time>2021-08-21T18:56:28Z</time>
      </trkpt>
      <trkpt lat="2.860644" lon="-75.13041">
        <ele>1025.7</ele>
        <time>2021-08-21T18:56:29Z</time>
      </trkpt>
      <trkpt lat="2.86067" lon="-75.13041">
        <ele>1025.7</ele>
        <time>2021-08-21T18:56:30Z</time>
      </trkpt>
      <trkpt lat="2.860696" lon="-75.13042">
        <ele>1025.8</ele>
        <time>2021-08-21T18:56:31Z</time>
      </trkpt>
      <trkpt lat="2.860723" lon="-75.13042">
        <ele>1025.8</ele>
        <time>2021-08-21T18:56:32Z</time>
      </trkpt>
      <trkpt lat="2.86075" lon="-75.13042">
        <ele>1025.8</ele>
        <time>2021-08-21T18:56:33Z</time>
      </trkpt>
      <trkpt lat="2.860776" lon="-75.13042">
        <ele>1025.9</ele>
        <time>2021-08-21T18:56:34Z</time>
      </trkpt>
      <trkpt lat="2.860803" lon="-75.130424">
        <ele>1025.9</ele>
        <time>2021-08-21T18:56:35Z</time>
      </trkpt>
      <trkpt lat="2.86083" lon="-75.130424">
        <ele>1025.9</ele>
        <time>2021-08-21T18:56:36Z</time>
      </trkpt>
      <trkpt lat="2.860947" lon="-75.13043">
        <ele>1025.8</ele>
        <time>2021-08-21T18:56:37Z</time>
      </trkpt>
      <trkpt lat="2.860955" lon="-75.13043">
        <ele>1025.8</ele>
        <time>2021-08-21T18:56:38Z</time>
      </trkpt>
      <trkpt lat="2.86097" lon="-75.13044">
        <ele>1025.8</ele>
        <time>2021-08-21T18:56:39Z</time>
      </trkpt>
      <trkpt lat="2.860992" lon="-75.13044">
        <ele>1025.8</ele>
        <time>2021-08-21T18:56:40Z</time>
      </trkpt>
      <trkpt lat="2.861018" lon="-75.13045">
        <ele>1025.8</ele>
        <time>2021-08-21T18:56:41Z</time>
      </trkpt>
      <trkpt lat="2.861046" lon="-75.13045">
        <ele>1025.7</ele>
        <time>2021-08-21T18:56:42Z</time>
      </trkpt>
      <trkpt lat="2.861073" lon="-75.130455">
        <ele>1025.7</ele>
        <time>2021-08-21T18:56:43Z</time>
      </trkpt>
      <trkpt lat="2.861101" lon="-75.13046">
        <ele>1025.7</ele>
        <time>2021-08-21T18:56:44Z</time>
      </trkpt>
      <trkpt lat="2.861129" lon="-75.13047">
        <ele>1025.7</ele>
        <time>2021-08-21T18:56:45Z</time>
      </trkpt>
      <trkpt lat="2.861157" lon="-75.13048">
        <ele>1025.7</ele>
        <time>2021-08-21T18:56:46Z</time>
      </trkpt>
      <trkpt lat="2.861185" lon="-75.130486">
        <ele>1025.6</ele>
        <time>2021-08-21T18:56:47Z</time>
      </trkpt>
      <trkpt lat="2.861214" lon="-75.13049">
        <ele>1025.6</ele>
        <time>2021-08-21T18:56:48Z</time>
      </trkpt>
      <trkpt lat="2.861244" lon="-75.1305">
        <ele>1025.5</ele>
        <time>2021-08-21T18:56:49Z</time>
      </trkpt>
      <trkpt lat="2.861275" lon="-75.13051">
        <ele>1025.5</ele>
        <time>2021-08-21T18:56:50Z</time>
      </trkpt>
      <trkpt lat="2.861305" lon="-75.130516">
        <ele>1025.4</ele>
        <time>2021-08-21T18:56:51Z</time>
      </trkpt>
      <trkpt lat="2.861335" lon="-75.13052">
        <ele>1025.4</ele>
        <time>2021-08-21T18:56:52Z</time>
      </trkpt>
      <trkpt lat="2.861366" lon="-75.13053">
        <ele>1025.3</ele>
        <time>2021-08-21T18:56:53Z</time>
      </trkpt>
      <trkpt lat="2.861396" lon="-75.13055">
        <ele>1025.2</ele>
        <time>2021-08-21T18:56:54Z</time>
      </trkpt>
      <trkpt lat="2.861426" lon="-75.130554">
        <ele>1025.2</ele>
        <time>2021-08-21T18:56:55Z</time>
      </trkpt>
      <trkpt lat="2.861457" lon="-75.13056">
        <ele>1025.1</ele>
        <time>2021-08-21T18:56:56Z</time>
      </trkpt>
      <trkpt lat="2.861487" lon="-75.13057">
        <ele>1025.0</ele>
        <time>2021-08-21T18:56:57Z</time>
      </trkpt>
      <trkpt lat="2.861518" lon="-75.13058">
        <ele>1024.8</ele>
        <time>2021-08-21T18:56:58Z</time>
      </trkpt>
      <trkpt lat="2.861548" lon="-75.130585">
        <ele>1024.7</ele>
        <time>2021-08-21T18:56:59Z</time>
      </trkpt>
      <trkpt lat="2.861578" lon="-75.13059">
        <ele>1024.6</ele>
        <time>2021-08-21T18:57:00Z</time>
      </trkpt>
      <trkpt lat="2.861609" lon="-75.13061">
        <ele>1024.5</ele>
        <time>2021-08-21T18:57:01Z</time>
      </trkpt>
      <trkpt lat="2.86164" lon="-75.130615">
        <ele>1024.3</ele>
        <time>2021-08-21T18:57:02Z</time>
      </trkpt>
      <trkpt lat="2.861672" lon="-75.13062">
        <ele>1024.2</ele>
        <time>2021-08-21T18:57:03Z</time>
      </trkpt>
      <trkpt lat="2.861706" lon="-75.13063">
        <ele>1024.0</ele>
        <time>2021-08-21T18:57:04Z</time>
      </trkpt>
      <trkpt lat="2.861746" lon="-75.130646">
        <ele>1023.8</ele>
        <time>2021-08-21T18:57:05Z</time>
      </trkpt>
      <trkpt lat="2.861784" lon="-75.13065">
        <ele>1023.7</ele>
        <time>2021-08-21T18:57:06Z</time>
      </trkpt>
      <trkpt lat="2.861825" lon="-75.13066">
        <ele>1023.5</ele>
        <time>2021-08-21T18:57:07Z</time>
      </trkpt>
      <trkpt lat="2.86201" lon="-75.13069">
        <ele>1023.0</ele>
        <time>2021-08-21T18:57:09Z</time>
      </trkpt>
      <trkpt lat="2.862025" lon="-75.13069">
        <ele>1023.0</ele>
        <time>2021-08-21T18:57:10Z</time>
      </trkpt>
      <trkpt lat="2.862051" lon="-75.13069">
        <ele>1023.0</ele>
        <time>2021-08-21T18:57:11Z</time>
      </trkpt>
      <trkpt lat="2.862092" lon="-75.13069">
        <ele>1023.1</ele>
        <time>2021-08-21T18:57:12Z</time>
      </trkpt>
      <trkpt lat="2.862138" lon="-75.13069">
        <ele>1023.1</ele>
        <time>2021-08-21T18:57:13Z</time>
      </trkpt>
      <trkpt lat="2.862188" lon="-75.130684">
        <ele>1023.1</ele>
        <time>2021-08-21T18:57:14Z</time>
      </trkpt>
      <trkpt lat="2.862239" lon="-75.13068">
        <ele>1023.2</ele>
        <time>2021-08-21T18:57:15Z</time>
      </trkpt>
      <trkpt lat="2.862288" lon="-75.13067">
        <ele>1023.3</ele>
        <time>2021-08-21T18:57:16Z</time>
      </trkpt>
      <trkpt lat="2.862336" lon="-75.13066">
        <ele>1023.4</ele>
        <time>2021-08-21T18:57:17Z</time>
      </trkpt>
      <trkpt lat="2.862389" lon="-75.130646">
        <ele>1023.5</ele>
        <time>2021-08-21T18:57:18Z</time>
      </trkpt>
      <trkpt lat="2.86244" lon="-75.13063">
        <ele>1023.6</ele>
        <time>2021-08-21T18:57:19Z</time>
      </trkpt>
      <trkpt lat="2.86249" lon="-75.13062">
        <ele>1023.7</ele>
        <time>2021-08-21T18:57:20Z</time>
      </trkpt>
      <trkpt lat="2.862534" lon="-75.13061">
        <ele>1023.8</ele>
        <time>2021-08-21T18:57:21Z</time>
      </trkpt>
      <trkpt lat="2.862715" lon="-75.13057">
        <ele>1024.3</ele>
        <time>2021-08-21T18:57:23Z</time>
      </trkpt>
      <trkpt lat="2.862723" lon="-75.13056">
        <ele>1024.4</ele>
        <time>2021-08-21T18:57:24Z</time>
      </trkpt>
      <trkpt lat="2.862739" lon="-75.130554">
        <ele>1024.4</ele>
        <time>2021-08-21T18:57:25Z</time>
      </trkpt>
      <trkpt lat="2.862762" lon="-75.13055">
        <ele>1024.5</ele>
        <time>2021-08-21T18:57:26Z</time>
      </trkpt>
      <trkpt lat="2.862791" lon="-75.13055">
        <ele>1024.6</ele>
        <time>2021-08-21T18:57:27Z</time>
      </trkpt>
      <trkpt lat="2.862822" lon="-75.13053">
        <ele>1024.7</ele>
        <time>2021-08-21T18:57:28Z</time>
      </trkpt>
      <trkpt lat="2.862856" lon="-75.13053">
        <ele>1024.8</ele>
        <time>2021-08-21T18:57:29Z</time>
      </trkpt>
      <trkpt lat="2.862892" lon="-75.130516">
        <ele>1025.0</ele>
        <time>2021-08-21T18:57:30Z</time>
      </trkpt>
      <trkpt lat="2.862928" lon="-75.13051">
        <ele>1025.1</ele>
        <time>2021-08-21T18:57:31Z</time>
      </trkpt>
      <trkpt lat="2.862965" lon="-75.1305">
        <ele>1025.2</ele>
        <time>2021-08-21T18:57:32Z</time>
      </trkpt>
      <trkpt lat="2.863002" lon="-75.130486">
        <ele>1025.4</ele>
        <time>2021-08-21T18:57:33Z</time>
      </trkpt>
      <trkpt lat="2.863041" lon="-75.13046">
        <ele>1025.6</ele>
        <time>2021-08-21T18:57:35Z</time>
      </trkpt>
      <trkpt lat="2.86309" lon="-75.13044">
        <ele>1025.8</ele>
        <time>2021-08-21T18:57:36Z</time>
      </trkpt>
      <trkpt lat="2.863133" lon="-75.13042">
        <ele>1026.1</ele>
        <time>2021-08-21T18:57:37Z</time>
      </trkpt>
      <trkpt lat="2.863179" lon="-75.1304">
        <ele>1026.4</ele>
        <time>2021-08-21T18:57:38Z</time>
      </trkpt>
      <trkpt lat="2.863222" lon="-75.13039">
        <ele>1026.7</ele>
        <time>2021-08-21T18:57:39Z</time>
      </trkpt>
      <trkpt lat="2.863263" lon="-75.13039">
        <ele>1027.0</ele>
        <time>2021-08-21T18:57:40Z</time>
      </trkpt>
      <trkpt lat="2.8633" lon="-75.130394">
        <ele>1027.2</ele>
        <time>2021-08-21T18:57:41Z</time>
      </trkpt>
      <trkpt lat="2.863332" lon="-75.13041">
        <ele>1027.5</ele>
        <time>2021-08-21T18:57:42Z</time>
      </trkpt>
      <trkpt lat="2.863355" lon="-75.13043">
        <ele>1027.7</ele>
        <time>2021-08-21T18:57:43Z</time>
      </trkpt>
      <trkpt lat="2.863368" lon="-75.13046">
        <ele>1027.9</ele>
        <time>2021-08-21T18:57:44Z</time>
      </trkpt>
      <trkpt lat="2.86337" lon="-75.13049">
        <ele>1028.1</ele>
        <time>2021-08-21T18:57:45Z</time>
      </trkpt>
      <trkpt lat="2.863363" lon="-75.13053">
        <ele>1028.3</ele>
        <time>2021-08-21T18:57:46Z</time>
      </trkpt>
      <trkpt lat="2.863351" lon="-75.13057">
        <ele>1028.5</ele>
        <time>2021-08-21T18:57:47Z</time>
      </trkpt>
      <trkpt lat="2.863336" lon="-75.13061">
        <ele>1028.7</ele>
        <time>2021-08-21T18:57:48Z</time>
      </trkpt>
      <trkpt lat="2.863318" lon="-75.130646">
        <ele>1029.0</ele>
        <time>2021-08-21T18:57:49Z</time>
      </trkpt>
      <trkpt lat="2.8633" lon="-75.13068">
        <ele>1029.2</ele>
        <time>2021-08-21T18:57:50Z</time>
      </trkpt>
      <trkpt lat="2.863279" lon="-75.130714">
        <ele>1029.5</ele>
        <time>2021-08-21T18:57:51Z</time>
      </trkpt>
      <trkpt lat="2.863256" lon="-75.130745">
        <ele>1029.8</ele>
        <time>2021-08-21T18:57:52Z</time>
      </trkpt>
      <trkpt lat="2.863231" lon="-75.130775">
        <ele>1030.0</ele>
        <time>2021-08-21T18:57:53Z</time>
      </trkpt>
      <trkpt lat="2.863202" lon="-75.1308">
        <ele>1030.3</ele>
        <time>2021-08-21T18:57:54Z</time>
      </trkpt>
      <trkpt lat="2.863175" lon="-75.13082">
        <ele>1030.6</ele>
        <time>2021-08-21T18:57:55Z</time>
      </trkpt>
      <trkpt lat="2.863146" lon="-75.13084">
        <ele>1030.9</ele>
        <time>2021-08-21T18:57:56Z</time>
      </trkpt>
      <trkpt lat="2.863116" lon="-75.13086">
        <ele>1031.2</ele>
        <time>2021-08-21T18:57:57Z</time>
      </trkpt>
      <trkpt lat="2.863086" lon="-75.130875">
        <ele>1031.5</ele>
        <time>2021-08-21T18:57:58Z</time>
      </trkpt>
      <trkpt lat="2.863053" lon="-75.13089">
        <ele>1031.9</ele>
        <time>2021-08-21T18:57:59Z</time>
      </trkpt>
      <trkpt lat="2.863022" lon="-75.130905">
        <ele>1032.2</ele>
        <time>2021-08-21T18:58:00Z</time>
      </trkpt>
      <trkpt lat="2.862993" lon="-75.13091">
        <ele>1032.5</ele>
        <time>2021-08-21T18:58:01Z</time>
      </trkpt>
      <trkpt lat="2.862966" lon="-75.13093">
        <ele>1032.8</ele>
        <time>2021-08-21T18:58:02Z</time>
      </trkpt>
      <trkpt lat="2.862938" lon="-75.13094">
        <ele>1033.1</ele>
        <time>2021-08-21T18:58:03Z</time>
      </trkpt>
      <trkpt lat="2.862911" lon="-75.13095">
        <ele>1033.3</ele>
        <time>2021-08-21T18:58:04Z</time>
      </trkpt>
      <trkpt lat="2.862885" lon="-75.13097">
        <ele>1033.6</ele>
        <time>2021-08-21T18:58:05Z</time>
      </trkpt>
      <trkpt lat="2.862861" lon="-75.13098">
        <ele>1033.9</ele>
        <time>2021-08-21T18:58:06Z</time>
      </trkpt>
      <trkpt lat="2.862836" lon="-75.131">
        <ele>1034.1</ele>
        <time>2021-08-21T18:58:07Z</time>
      </trkpt>
      <trkpt lat="2.862813" lon="-75.131004">
        <ele>1034.4</ele>
        <time>2021-08-21T18:58:08Z</time>
      </trkpt>
      <trkpt lat="2.862789" lon="-75.13102">
        <ele>1034.7</ele>
        <time>2021-08-21T18:58:09Z</time>
      </trkpt>
      <trkpt lat="2.862766" lon="-75.131035">
        <ele>1034.9</ele>
        <time>2021-08-21T18:58:10Z</time>
      </trkpt>
      <trkpt lat="2.862742" lon="-75.13105">
        <ele>1035.2</ele>
        <time>2021-08-21T18:58:11Z</time>
      </trkpt>
      <trkpt lat="2.862718" lon="-75.131065">
        <ele>1035.5</ele>
        <time>2021-08-21T18:58:12Z</time>
      </trkpt>
      <trkpt lat="2.862695" lon="-75.13108">
        <ele>1035.7</ele>
        <time>2021-08-21T18:58:13Z</time>
      </trkpt>
      <trkpt lat="2.862672" lon="-75.131096">
        <ele>1036.0</ele>
        <time>2021-08-21T18:58:14Z</time>
      </trkpt>
      <trkpt lat="2.86265" lon="-75.1311">
        <ele>1036.2</ele>
        <time>2021-08-21T18:58:15Z</time>
      </trkpt>
      <trkpt lat="2.862628" lon="-75.13112">
        <ele>1036.5</ele>
        <time>2021-08-21T18:58:16Z</time>
      </trkpt>
      <trkpt lat="2.862605" lon="-75.131134">
        <ele>1036.7</ele>
        <time>2021-08-21T18:58:17Z</time>
      </trkpt>
      <trkpt lat="2.862581" lon="-75.13115">
        <ele>1037.0</ele>
        <time>2021-08-21T18:58:18Z</time>
      </trkpt>
      <trkpt lat="2.862555" lon="-75.131165">
        <ele>1037.3</ele>
        <time>2021-08-21T18:58:19Z</time>
      </trkpt>
      <trkpt lat="2.862529" lon="-75.13118">
        <ele>1037.6</ele>
        <time>2021-08-21T18:58:20Z</time>
      </trkpt>
      <trkpt lat="2.862503" lon="-75.131195">
        <ele>1037.9</ele>
        <time>2021-08-21T18:58:21Z</time>
      </trkpt>
      <trkpt lat="2.862478" lon="-75.13121">
        <ele>1038.2</ele>
        <time>2021-08-21T18:58:22Z</time>
      </trkpt>
      <trkpt lat="2.862454" lon="-75.131226">
        <ele>1038.5</ele>
        <time>2021-08-21T18:58:23Z</time>
      </trkpt>
      <trkpt lat="2.86243" lon="-75.13124">
        <ele>1038.8</ele>
        <time>2021-08-21T18:58:24Z</time>
      </trkpt>
      <trkpt lat="2.862408" lon="-75.131256">
        <ele>1039.0</ele>
        <time>2021-08-21T18:58:25Z</time>
      </trkpt>
      <trkpt lat="2.862387" lon="-75.13128">
        <ele>1039.3</ele>
        <time>2021-08-21T18:58:26Z</time>
      </trkpt>
      <trkpt lat="2.862367" lon="-75.131294">
        <ele>1039.5</ele>
        <time>2021-08-21T18:58:27Z</time>
      </trkpt>
      <trkpt lat="2.862349" lon="-75.13131">
        <ele>1039.7</ele>
        <time>2021-08-21T18:58:28Z</time>
      </trkpt>
      <trkpt lat="2.862332" lon="-75.13133">
        <ele>1040.0</ele>
        <time>2021-08-21T18:58:29Z</time>
      </trkpt>
      <trkpt lat="2.862319" lon="-75.13135">
        <ele>1040.1</ele>
        <time>2021-08-21T18:58:30Z</time>
      </trkpt>
      <trkpt lat="2.862307" lon="-75.13137">
        <ele>1040.3</ele>
        <time>2021-08-21T18:58:31Z</time>
      </trkpt>
      <trkpt lat="2.862297" lon="-75.131386">
        <ele>1040.5</ele>
        <time>2021-08-21T18:58:32Z</time>
      </trkpt>
      <trkpt lat="2.86229" lon="-75.13141">
        <ele>1040.7</ele>
        <time>2021-08-21T18:58:33Z</time>
      </trkpt>
      <trkpt lat="2.862287" lon="-75.131424">
        <ele>1040.8</ele>
        <time>2021-08-21T18:58:34Z</time>
      </trkpt>
      <trkpt lat="2.862286" lon="-75.13144">
        <ele>1040.9</ele>
        <time>2021-08-21T18:58:35Z</time>
      </trkpt>
      <trkpt lat="2.862288" lon="-75.13146">
        <ele>1041.1</ele>
        <time>2021-08-21T18:58:36Z</time>
      </trkpt>
      <trkpt lat="2.862291" lon="-75.131485">
        <ele>1041.2</ele>
        <time>2021-08-21T18:58:37Z</time>
      </trkpt>
      <trkpt lat="2.862295" lon="-75.1315">
        <ele>1041.4</ele>
        <time>2021-08-21T18:58:38Z</time>
      </trkpt>
      <trkpt lat="2.862303" lon="-75.13152">
        <ele>1041.5</ele>
        <time>2021-08-21T18:58:39Z</time>
      </trkpt>
      <trkpt lat="2.862314" lon="-75.13154">
        <ele>1041.6</ele>
        <time>2021-08-21T18:58:40Z</time>
      </trkpt>
      <trkpt lat="2.862327" lon="-75.13155">
        <ele>1041.8</ele>
        <time>2021-08-21T18:58:41Z</time>
      </trkpt>
      <trkpt lat="2.862343" lon="-75.13157">
        <ele>1041.9</ele>
        <time>2021-08-21T18:58:42Z</time>
      </trkpt>
      <trkpt lat="2.86236" lon="-75.131584">
        <ele>1042.1</ele>
        <time>2021-08-21T18:58:43Z</time>
      </trkpt>
      <trkpt lat="2.86238" lon="-75.13159">
        <ele>1042.2</ele>
        <time>2021-08-21T18:58:44Z</time>
      </trkpt>
      <trkpt lat="2.8624" lon="-75.1316">
        <ele>1042.3</ele>
        <time>2021-08-21T18:58:45Z</time>
      </trkpt>
      <trkpt lat="2.862485" lon="-75.131615">
        <ele>1042.9</ele>
        <time>2021-08-21T18:58:47Z</time>
      </trkpt>
      <trkpt lat="2.86249" lon="-75.131615">
        <ele>1043.0</ele>
        <time>2021-08-21T18:58:48Z</time>
      </trkpt>
      <trkpt lat="2.8625" lon="-75.13161">
        <ele>1043.0</ele>
        <time>2021-08-21T18:58:49Z</time>
      </trkpt>
      <trkpt lat="2.862515" lon="-75.13161">
        <ele>1043.2</ele>
        <time>2021-08-21T18:58:50Z</time>
      </trkpt>
      <trkpt lat="2.862532" lon="-75.1316">
        <ele>1043.3</ele>
        <time>2021-08-21T18:58:51Z</time>
      </trkpt>
      <trkpt lat="2.862552" lon="-75.1316">
        <ele>1043.5</ele>
        <time>2021-08-21T18:58:52Z</time>
      </trkpt>
      <trkpt lat="2.862573" lon="-75.13159">
        <ele>1043.6</ele>
        <time>2021-08-21T18:58:53Z</time>
      </trkpt>
      <trkpt lat="2.862594" lon="-75.13159">
        <ele>1043.8</ele>
        <time>2021-08-21T18:58:54Z</time>
      </trkpt>
      <trkpt lat="2.862616" lon="-75.131584">
        <ele>1044.0</ele>
        <time>2021-08-21T18:58:55Z</time>
      </trkpt>
      <trkpt lat="2.862639" lon="-75.131584">
        <ele>1044.2</ele>
        <time>2021-08-21T18:58:56Z</time>
      </trkpt>
      <trkpt lat="2.862662" lon="-75.131584">
        <ele>1044.4</ele>
        <time>2021-08-21T18:58:57Z</time>
      </trkpt>
      <trkpt lat="2.862755" lon="-75.1316">
        <ele>1045.2</ele>
        <time>2021-08-21T18:58:59Z</time>
      </trkpt>
      <trkpt lat="2.862761" lon="-75.13161">
        <ele>1045.2</ele>
        <time>2021-08-21T18:59:00Z</time>
      </trkpt>
      <trkpt lat="2.862774" lon="-75.13161">
        <ele>1045.3</ele>
        <time>2021-08-21T18:59:01Z</time>
      </trkpt>
      <trkpt lat="2.862792" lon="-75.131615">
        <ele>1045.4</ele>
        <time>2021-08-21T18:59:02Z</time>
      </trkpt>
      <trkpt lat="2.86281" lon="-75.13163">
        <ele>1045.6</ele>
        <time>2021-08-21T18:59:03Z</time>
      </trkpt>
      <trkpt lat="2.862826" lon="-75.131645">
        <ele>1045.7</ele>
        <time>2021-08-21T18:59:04Z</time>
      </trkpt>
      <trkpt lat="2.86284" lon="-75.13166">
        <ele>1045.8</ele>
        <time>2021-08-21T18:59:05Z</time>
      </trkpt>
      <trkpt lat="2.862852" lon="-75.131676">
        <ele>1046.0</ele>
        <time>2021-08-21T18:59:06Z</time>
      </trkpt>
      <trkpt lat="2.862859" lon="-75.13169">
        <ele>1046.1</ele>
        <time>2021-08-21T18:59:07Z</time>
      </trkpt>
      <trkpt lat="2.862864" lon="-75.131714">
        <ele>1046.2</ele>
        <time>2021-08-21T18:59:08Z</time>
      </trkpt>
      <trkpt lat="2.862865" lon="-75.13174">
        <ele>1046.4</ele>
        <time>2021-08-21T18:59:09Z</time>
      </trkpt>
      <trkpt lat="2.862863" lon="-75.13177">
        <ele>1046.5</ele>
        <time>2021-08-21T18:59:10Z</time>
      </trkpt>
      <trkpt lat="2.862859" lon="-75.13179">
        <ele>1046.7</ele>
        <time>2021-08-21T18:59:11Z</time>
      </trkpt>
      <trkpt lat="2.862855" lon="-75.13181">
        <ele>1046.8</ele>
        <time>2021-08-21T18:59:12Z</time>
      </trkpt>
      <trkpt lat="2.862847" lon="-75.131836">
        <ele>1047.0</ele>
        <time>2021-08-21T18:59:13Z</time>
      </trkpt>
      <trkpt lat="2.862839" lon="-75.13187">
        <ele>1047.2</ele>
        <time>2021-08-21T18:59:14Z</time>
      </trkpt>
      <trkpt lat="2.862834" lon="-75.13189">
        <ele>1047.3</ele>
        <time>2021-08-21T18:59:15Z</time>
      </trkpt>
      <trkpt lat="2.862831" lon="-75.13191">
        <ele>1047.5</ele>
        <time>2021-08-21T18:59:16Z</time>
      </trkpt>
      <trkpt lat="2.86283" lon="-75.13194">
        <ele>1047.7</ele>
        <time>2021-08-21T18:59:17Z</time>
      </trkpt>
      <trkpt lat="2.862828" lon="-75.131966">
        <ele>1047.8</ele>
        <time>2021-08-21T18:59:18Z</time>
      </trkpt>
      <trkpt lat="2.862827" lon="-75.131996">
        <ele>1048.0</ele>
        <time>2021-08-21T18:59:19Z</time>
      </trkpt>
      <trkpt lat="2.862826" lon="-75.13203">
        <ele>1048.2</ele>
        <time>2021-08-21T18:59:20Z</time>
      </trkpt>
      <trkpt lat="2.862825" lon="-75.13205">
        <ele>1048.3</ele>
        <time>2021-08-21T18:59:21Z</time>
      </trkpt>
      <trkpt lat="2.862824" lon="-75.13208">
        <ele>1048.5</ele>
        <time>2021-08-21T18:59:22Z</time>
      </trkpt>
      <trkpt lat="2.862823" lon="-75.13211">
        <ele>1048.7</ele>
        <time>2021-08-21T18:59:23Z</time>
      </trkpt>
      <trkpt lat="2.862823" lon="-75.13213">
        <ele>1048.9</ele>
        <time>2021-08-21T18:59:24Z</time>
      </trkpt>
      <trkpt lat="2.862822" lon="-75.132164">
        <ele>1049.1</ele>
        <time>2021-08-21T18:59:25Z</time>
      </trkpt>
      <trkpt lat="2.862822" lon="-75.13219">
        <ele>1049.3</ele>
        <time>2021-08-21T18:59:26Z</time>
      </trkpt>
      <trkpt lat="2.862821" lon="-75.13222">
        <ele>1049.5</ele>
        <time>2021-08-21T18:59:27Z</time>
      </trkpt>
      <trkpt lat="2.862819" lon="-75.13225">
        <ele>1049.7</ele>
        <time>2021-08-21T18:59:28Z</time>
      </trkpt>
      <trkpt lat="2.862818" lon="-75.13228">
        <ele>1049.9</ele>
        <time>2021-08-21T18:59:29Z</time>
      </trkpt>
      <trkpt lat="2.862819" lon="-75.1323">
        <ele>1050.1</ele>
        <time>2021-08-21T18:59:30Z</time>
      </trkpt>
      <trkpt lat="2.862822" lon="-75.132324">
        <ele>1050.2</ele>
        <time>2021-08-21T18:59:31Z</time>
      </trkpt>
      <trkpt lat="2.862828" lon="-75.13235">
        <ele>1050.4</ele>
        <time>2021-08-21T18:59:32Z</time>
      </trkpt>
      <trkpt lat="2.862834" lon="-75.13237">
        <ele>1050.6</ele>
        <time>2021-08-21T18:59:33Z</time>
      </trkpt>
      <trkpt lat="2.862841" lon="-75.13239">
        <ele>1050.7</ele>
        <time>2021-08-21T18:59:34Z</time>
      </trkpt>
      <trkpt lat="2.862849" lon="-75.132416">
        <ele>1050.9</ele>
        <time>2021-08-21T18:59:35Z</time>
      </trkpt>
      <trkpt lat="2.862858" lon="-75.13243">
        <ele>1051.0</ele>
        <time>2021-08-21T18:59:36Z</time>
      </trkpt>
      <trkpt lat="2.862869" lon="-75.13245">
        <ele>1051.1</ele>
        <time>2021-08-21T18:59:37Z</time>
      </trkpt>
      <trkpt lat="2.862882" lon="-75.13246">
        <ele>1051.2</ele>
        <time>2021-08-21T18:59:38Z</time>
      </trkpt>
      <trkpt lat="2.862896" lon="-75.13248">
        <ele>1051.4</ele>
        <time>2021-08-21T18:59:39Z</time>
      </trkpt>
      <trkpt lat="2.862912" lon="-75.13249">
        <ele>1051.5</ele>
        <time>2021-08-21T18:59:40Z</time>
      </trkpt>
      <trkpt lat="2.86293" lon="-75.1325">
        <ele>1051.6</ele>
        <time>2021-08-21T18:59:41Z</time>
      </trkpt>
      <trkpt lat="2.862947" lon="-75.132515">
        <ele>1051.7</ele>
        <time>2021-08-21T18:59:42Z</time>
      </trkpt>
      <trkpt lat="2.862967" lon="-75.13252">
        <ele>1051.9</ele>
        <time>2021-08-21T18:59:43Z</time>
      </trkpt>
      <trkpt lat="2.862987" lon="-75.13254">
        <ele>1052.0</ele>
        <time>2021-08-21T18:59:44Z</time>
      </trkpt>
      <trkpt lat="2.863007" lon="-75.132545">
        <ele>1052.2</ele>
        <time>2021-08-21T18:59:45Z</time>
      </trkpt>
      <trkpt lat="2.863027" lon="-75.13256">
        <ele>1052.3</ele>
        <time>2021-08-21T18:59:46Z</time>
      </trkpt>
      <trkpt lat="2.863048" lon="-75.13257">
        <ele>1052.5</ele>
        <time>2021-08-21T18:59:47Z</time>
      </trkpt>
      <trkpt lat="2.863068" lon="-75.13258">
        <ele>1052.6</ele>
        <time>2021-08-21T18:59:48Z</time>
      </trkpt>
      <trkpt lat="2.863089" lon="-75.13261">
        <ele>1052.8</ele>
        <time>2021-08-21T18:59:49Z</time>
      </trkpt>
      <trkpt lat="2.863109" lon="-75.13262">
        <ele>1052.9</ele>
        <time>2021-08-21T18:59:50Z</time>
      </trkpt>
      <trkpt lat="2.86313" lon="-75.13263">
        <ele>1053.1</ele>
        <time>2021-08-21T18:59:51Z</time>
      </trkpt>
      <trkpt lat="2.86315" lon="-75.132645">
        <ele>1053.2</ele>
        <time>2021-08-21T18:59:52Z</time>
      </trkpt>
      <trkpt lat="2.86317" lon="-75.13267">
        <ele>1053.4</ele>
        <time>2021-08-21T18:59:53Z</time>
      </trkpt>
      <trkpt lat="2.86319" lon="-75.13268">
        <ele>1053.5</ele>
        <time>2021-08-21T18:59:54Z</time>
      </trkpt>
      <trkpt lat="2.86321" lon="-75.1327">
        <ele>1053.7</ele>
        <time>2021-08-21T18:59:55Z</time>
      </trkpt>
      <trkpt lat="2.863231" lon="-75.13271">
        <ele>1053.8</ele>
        <time>2021-08-21T18:59:56Z</time>
      </trkpt>
      <trkpt lat="2.863251" lon="-75.13274">
        <ele>1054.0</ele>
        <time>2021-08-21T18:59:57Z</time>
      </trkpt>
      <trkpt lat="2.863271" lon="-75.13275">
        <ele>1054.1</ele>
        <time>2021-08-21T18:59:58Z</time>
      </trkpt>
      <trkpt lat="2.863291" lon="-75.132774">
        <ele>1054.3</ele>
        <time>2021-08-21T18:59:59Z</time>
      </trkpt>
      <trkpt lat="2.86331" lon="-75.13279">
        <ele>1054.4</ele>
        <time>2021-08-21T19:00:00Z</time>
      </trkpt>
      <trkpt lat="2.863331" lon="-75.13281">
        <ele>1054.6</ele>
        <time>2021-08-21T19:00:01Z</time>
      </trkpt>
      <trkpt lat="2.86335" lon="-75.132835">
        <ele>1054.7</ele>
        <time>2021-08-21T19:00:02Z</time>
      </trkpt>
      <trkpt lat="2.863368" lon="-75.13286">
        <ele>1054.9</ele>
        <time>2021-08-21T19:00:03Z</time>
      </trkpt>
      <trkpt lat="2.863384" lon="-75.13288">
        <ele>1055.0</ele>
        <time>2021-08-21T19:00:04Z</time>
      </trkpt>
      <trkpt lat="2.863399" lon="-75.132904">
        <ele>1055.2</ele>
        <time>2021-08-21T19:00:05Z</time>
      </trkpt>
      <trkpt lat="2.863412" lon="-75.13293">
        <ele>1055.3</ele>
        <time>2021-08-21T19:00:06Z</time>
      </trkpt>
      <trkpt lat="2.863425" lon="-75.13296">
        <ele>1055.5</ele>
        <time>2021-08-21T19:00:07Z</time>
      </trkpt>
      <trkpt lat="2.863436" lon="-75.13298">
        <ele>1055.7</ele>
        <time>2021-08-21T19:00:08Z</time>
      </trkpt>
      <trkpt lat="2.863445" lon="-75.13301">
        <ele>1055.8</ele>
        <time>2021-08-21T19:00:09Z</time>
      </trkpt>
      <trkpt lat="2.86345" lon="-75.13304">
        <ele>1056.0</ele>
        <time>2021-08-21T19:00:10Z</time>
      </trkpt>
      <trkpt lat="2.863452" lon="-75.13307">
        <ele>1056.1</ele>
        <time>2021-08-21T19:00:11Z</time>
      </trkpt>
      <trkpt lat="2.863453" lon="-75.1331">
        <ele>1056.3</ele>
        <time>2021-08-21T19:00:12Z</time>
      </trkpt>
      <trkpt lat="2.863451" lon="-75.13313">
        <ele>1056.4</ele>
        <time>2021-08-21T19:00:13Z</time>
      </trkpt>
      <trkpt lat="2.86345" lon="-75.13316">
        <ele>1056.5</ele>
        <time>2021-08-21T19:00:14Z</time>
      </trkpt>
      <trkpt lat="2.863448" lon="-75.13319">
        <ele>1056.6</ele>
        <time>2021-08-21T19:00:15Z</time>
      </trkpt>
      <trkpt lat="2.863447" lon="-75.13322">
        <ele>1056.7</ele>
        <time>2021-08-21T19:00:16Z</time>
      </trkpt>
      <trkpt lat="2.863446" lon="-75.13325">
        <ele>1056.8</ele>
        <time>2021-08-21T19:00:17Z</time>
      </trkpt>
      <trkpt lat="2.863444" lon="-75.13328">
        <ele>1056.9</ele>
        <time>2021-08-21T19:00:18Z</time>
      </trkpt>
      <trkpt lat="2.863442" lon="-75.13331">
        <ele>1057.0</ele>
        <time>2021-08-21T19:00:19Z</time>
      </trkpt>
      <trkpt lat="2.863439" lon="-75.13335">
        <ele>1057.1</ele>
        <time>2021-08-21T19:00:20Z</time>
      </trkpt>
      <trkpt lat="2.863435" lon="-75.13338">
        <ele>1057.2</ele>
        <time>2021-08-21T19:00:21Z</time>
      </trkpt>
      <trkpt lat="2.86343" lon="-75.13342">
        <ele>1057.3</ele>
        <time>2021-08-21T19:00:22Z</time>
      </trkpt>
      <trkpt lat="2.863424" lon="-75.13346">
        <ele>1057.4</ele>
        <time>2021-08-21T19:00:23Z</time>
      </trkpt>
      <trkpt lat="2.863417" lon="-75.13351">
        <ele>1057.5</ele>
        <time>2021-08-21T19:00:24Z</time>
      </trkpt>
      <trkpt lat="2.863409" lon="-75.133545">
        <ele>1057.7</ele>
        <time>2021-08-21T19:00:25Z</time>
      </trkpt>
      <trkpt lat="2.863401" lon="-75.13359">
        <ele>1057.8</ele>
        <time>2021-08-21T19:00:26Z</time>
      </trkpt>
      <trkpt lat="2.863396" lon="-75.13364">
        <ele>1057.9</ele>
        <time>2021-08-21T19:00:27Z</time>
      </trkpt>
      <trkpt lat="2.863394" lon="-75.133675">
        <ele>1058.0</ele>
        <time>2021-08-21T19:00:28Z</time>
      </trkpt>
      <trkpt lat="2.863395" lon="-75.13371">
        <ele>1058.2</ele>
        <time>2021-08-21T19:00:29Z</time>
      </trkpt>
      <trkpt lat="2.863399" lon="-75.13375">
        <ele>1058.3</ele>
        <time>2021-08-21T19:00:30Z</time>
      </trkpt>
      <trkpt lat="2.863404" lon="-75.13379">
        <ele>1058.4</ele>
        <time>2021-08-21T19:00:31Z</time>
      </trkpt>
      <trkpt lat="2.863411" lon="-75.13383">
        <ele>1058.5</ele>
        <time>2021-08-21T19:00:32Z</time>
      </trkpt>
      <trkpt lat="2.863419" lon="-75.13386">
        <ele>1058.6</ele>
        <time>2021-08-21T19:00:33Z</time>
      </trkpt>
      <trkpt lat="2.86343" lon="-75.133896">
        <ele>1058.7</ele>
        <time>2021-08-21T19:00:34Z</time>
      </trkpt>
      <trkpt lat="2.863443" lon="-75.13393">
        <ele>1058.8</ele>
        <time>2021-08-21T19:00:35Z</time>
      </trkpt>
      <trkpt lat="2.863459" lon="-75.13396">
        <ele>1059.0</ele>
        <time>2021-08-21T19:00:36Z</time>
      </trkpt>
      <trkpt lat="2.863475" lon="-75.13399">
        <ele>1059.1</ele>
        <time>2021-08-21T19:00:37Z</time>
      </trkpt>
      <trkpt lat="2.863495" lon="-75.13402">
        <ele>1059.2</ele>
        <time>2021-08-21T19:00:38Z</time>
      </trkpt>
      <trkpt lat="2.863517" lon="-75.13404">
        <ele>1059.3</ele>
        <time>2021-08-21T19:00:39Z</time>
      </trkpt>
      <trkpt lat="2.863628" lon="-75.13416">
        <ele>1059.9</ele>
        <time>2021-08-21T19:00:41Z</time>
      </trkpt>
      <trkpt lat="2.863636" lon="-75.13417">
        <ele>1059.9</ele>
        <time>2021-08-21T19:00:42Z</time>
      </trkpt>
      <trkpt lat="2.863652" lon="-75.134186">
        <ele>1060.0</ele>
        <time>2021-08-21T19:00:43Z</time>
      </trkpt>
      <trkpt lat="2.863672" lon="-75.1342">
        <ele>1060.1</ele>
        <time>2021-08-21T19:00:44Z</time>
      </trkpt>
      <trkpt lat="2.863695" lon="-75.134224">
        <ele>1060.2</ele>
        <time>2021-08-21T19:00:45Z</time>
      </trkpt>
      <trkpt lat="2.863718" lon="-75.13425">
        <ele>1060.3</ele>
        <time>2021-08-21T19:00:46Z</time>
      </trkpt>
      <trkpt lat="2.863739" lon="-75.13428">
        <ele>1060.4</ele>
        <time>2021-08-21T19:00:47Z</time>
      </trkpt>
      <trkpt lat="2.863757" lon="-75.13431">
        <ele>1060.6</ele>
        <time>2021-08-21T19:00:48Z</time>
      </trkpt>
      <trkpt lat="2.863771" lon="-75.134346">
        <ele>1060.7</ele>
        <time>2021-08-21T19:00:49Z</time>
      </trkpt>
      <trkpt lat="2.863779" lon="-75.134384">
        <ele>1060.9</ele>
        <time>2021-08-21T19:00:50Z</time>
      </trkpt>
      <trkpt lat="2.86378" lon="-75.13442">
        <ele>1061.0</ele>
        <time>2021-08-21T19:00:51Z</time>
      </trkpt>
      <trkpt lat="2.863764" lon="-75.13451">
        <ele>1061.4</ele>
        <time>2021-08-21T19:00:52Z</time>
      </trkpt>
      <trkpt lat="2.863775" lon="-75.13447">
        <ele>1061.2</ele>
        <time>2021-08-21T19:00:52Z</time>
      </trkpt>
      <trkpt lat="2.863747" lon="-75.134544">
        <ele>1061.5</ele>
        <time>2021-08-21T19:00:53Z</time>
      </trkpt>
      <trkpt lat="2.863727" lon="-75.13459">
        <ele>1061.7</ele>
        <time>2021-08-21T19:00:54Z</time>
      </trkpt>
      <trkpt lat="2.863704" lon="-75.13462">
        <ele>1061.9</ele>
        <time>2021-08-21T19:00:55Z</time>
      </trkpt>
      <trkpt lat="2.86368" lon="-75.13466">
        <ele>1062.1</ele>
        <time>2021-08-21T19:00:56Z</time>
      </trkpt>
      <trkpt lat="2.863655" lon="-75.1347">
        <ele>1062.3</ele>
        <time>2021-08-21T19:00:57Z</time>
      </trkpt>
      <trkpt lat="2.863629" lon="-75.134735">
        <ele>1062.5</ele>
        <time>2021-08-21T19:00:58Z</time>
      </trkpt>
      <trkpt lat="2.863603" lon="-75.13477">
        <ele>1062.6</ele>
        <time>2021-08-21T19:00:59Z</time>
      </trkpt>
      <trkpt lat="2.86358" lon="-75.13481">
        <ele>1062.8</ele>
        <time>2021-08-21T19:01:00Z</time>
      </trkpt>
      <trkpt lat="2.863563" lon="-75.13485">
        <ele>1062.9</ele>
        <time>2021-08-21T19:01:01Z</time>
      </trkpt>
      <trkpt lat="2.863553" lon="-75.13488">
        <ele>1063.1</ele>
        <time>2021-08-21T19:01:02Z</time>
      </trkpt>
      <trkpt lat="2.86355" lon="-75.13492">
        <ele>1063.2</ele>
        <time>2021-08-21T19:01:03Z</time>
      </trkpt>
      <trkpt lat="2.863552" lon="-75.13495">
        <ele>1063.2</ele>
        <time>2021-08-21T19:01:04Z</time>
      </trkpt>
      <trkpt lat="2.863562" lon="-75.13499">
        <ele>1063.3</ele>
        <time>2021-08-21T19:01:05Z</time>
      </trkpt>
      <trkpt lat="2.863583" lon="-75.13502">
        <ele>1063.4</ele>
        <time>2021-08-21T19:01:06Z</time>
      </trkpt>
      <trkpt lat="2.863608" lon="-75.13504">
        <ele>1063.4</ele>
        <time>2021-08-21T19:01:07Z</time>
      </trkpt>
      <trkpt lat="2.863639" lon="-75.13506">
        <ele>1063.5</ele>
        <time>2021-08-21T19:01:08Z</time>
      </trkpt>
      <trkpt lat="2.863675" lon="-75.135086">
        <ele>1063.6</ele>
        <time>2021-08-21T19:01:09Z</time>
      </trkpt>
      <trkpt lat="2.863713" lon="-75.13509">
        <ele>1063.7</ele>
        <time>2021-08-21T19:01:10Z</time>
      </trkpt>
      <trkpt lat="2.863753" lon="-75.1351">
        <ele>1063.8</ele>
        <time>2021-08-21T19:01:11Z</time>
      </trkpt>
      <trkpt lat="2.863793" lon="-75.1351">
        <ele>1063.9</ele>
        <time>2021-08-21T19:01:12Z</time>
      </trkpt>
      <trkpt lat="2.863834" lon="-75.13509">
        <ele>1064.0</ele>
        <time>2021-08-21T19:01:13Z</time>
      </trkpt>
      <trkpt lat="2.863873" lon="-75.13509">
        <ele>1064.1</ele>
        <time>2021-08-21T19:01:14Z</time>
      </trkpt>
      <trkpt lat="2.863911" lon="-75.135086">
        <ele>1064.1</ele>
        <time>2021-08-21T19:01:15Z</time>
      </trkpt>
      <trkpt lat="2.863948" lon="-75.13507">
        <ele>1064.1</ele>
        <time>2021-08-21T19:01:16Z</time>
      </trkpt>
      <trkpt lat="2.86411" lon="-75.135056">
        <ele>1064.1</ele>
        <time>2021-08-21T19:01:18Z</time>
      </trkpt>
      <trkpt lat="2.864121" lon="-75.135056">
        <ele>1064.1</ele>
        <time>2021-08-21T19:01:19Z</time>
      </trkpt>
      <trkpt lat="2.864145" lon="-75.13506">
        <ele>1064.1</ele>
        <time>2021-08-21T19:01:20Z</time>
      </trkpt>
      <trkpt lat="2.864173" lon="-75.13508">
        <ele>1064.1</ele>
        <time>2021-08-21T19:01:21Z</time>
      </trkpt>
      <trkpt lat="2.864207" lon="-75.1351">
        <ele>1064.0</ele>
        <time>2021-08-21T19:01:22Z</time>
      </trkpt>
      <trkpt lat="2.864245" lon="-75.135124">
        <ele>1063.8</ele>
        <time>2021-08-21T19:01:23Z</time>
      </trkpt>
      <trkpt lat="2.86429" lon="-75.135155">
        <ele>1063.6</ele>
        <time>2021-08-21T19:01:24Z</time>
      </trkpt>
      <trkpt lat="2.864335" lon="-75.135185">
        <ele>1063.4</ele>
        <time>2021-08-21T19:01:25Z</time>
      </trkpt>
      <trkpt lat="2.864383" lon="-75.135216">
        <ele>1063.1</ele>
        <time>2021-08-21T19:01:26Z</time>
      </trkpt>
      <trkpt lat="2.864428" lon="-75.13525">
        <ele>1062.9</ele>
        <time>2021-08-21T19:01:27Z</time>
      </trkpt>
      <trkpt lat="2.864475" lon="-75.135284">
        <ele>1062.7</ele>
        <time>2021-08-21T19:01:28Z</time>
      </trkpt>
      <trkpt lat="2.864522" lon="-75.135315">
        <ele>1062.5</ele>
        <time>2021-08-21T19:01:29Z</time>
      </trkpt>
      <trkpt lat="2.864572" lon="-75.13535">
        <ele>1062.2</ele>
        <time>2021-08-21T19:01:30Z</time>
      </trkpt>
      <trkpt lat="2.864628" lon="-75.13539">
        <ele>1061.9</ele>
        <time>2021-08-21T19:01:31Z</time>
      </trkpt>
      <trkpt lat="2.864688" lon="-75.13542">
        <ele>1061.7</ele>
        <time>2021-08-21T19:01:32Z</time>
      </trkpt>
      <trkpt lat="2.864744" lon="-75.13545">
        <ele>1061.5</ele>
        <time>2021-08-21T19:01:33Z</time>
      </trkpt>
      <trkpt lat="2.864799" lon="-75.13548">
        <ele>1061.3</ele>
        <time>2021-08-21T19:01:34Z</time>
      </trkpt>
      <trkpt lat="2.864851" lon="-75.13551">
        <ele>1061.2</ele>
        <time>2021-08-21T19:01:35Z</time>
      </trkpt>
      <trkpt lat="2.864892" lon="-75.135544">
        <ele>1061.0</ele>
        <time>2021-08-21T19:01:36Z</time>
      </trkpt>
      <trkpt lat="2.864916" lon="-75.13559">
        <ele>1060.5</ele>
        <time>2021-08-21T19:01:37Z</time>
      </trkpt>
      <trkpt lat="2.864925" lon="-75.135635">
        <ele>1060.1</ele>
        <time>2021-08-21T19:01:38Z</time>
      </trkpt>
      <trkpt lat="2.864919" lon="-75.135666">
        <ele>1059.8</ele>
        <time>2021-08-21T19:01:39Z</time>
      </trkpt>
      <trkpt lat="2.864898" lon="-75.1357">
        <ele>1059.5</ele>
        <time>2021-08-21T19:01:40Z</time>
      </trkpt>
      <trkpt lat="2.864873" lon="-75.13573">
        <ele>1059.2</ele>
        <time>2021-08-21T19:01:41Z</time>
      </trkpt>
      <trkpt lat="2.864843" lon="-75.13574">
        <ele>1058.9</ele>
        <time>2021-08-21T19:01:42Z</time>
      </trkpt>
      <trkpt lat="2.864809" lon="-75.13576">
        <ele>1058.7</ele>
        <time>2021-08-21T19:01:43Z</time>
      </trkpt>
      <trkpt lat="2.864778" lon="-75.13577">
        <ele>1058.4</ele>
        <time>2021-08-21T19:01:44Z</time>
      </trkpt>
      <trkpt lat="2.864746" lon="-75.13579">
        <ele>1058.2</ele>
        <time>2021-08-21T19:01:45Z</time>
      </trkpt>
      <trkpt lat="2.864711" lon="-75.1358">
        <ele>1057.9</ele>
        <time>2021-08-21T19:01:46Z</time>
      </trkpt>
      <trkpt lat="2.864675" lon="-75.13582">
        <ele>1057.7</ele>
        <time>2021-08-21T19:01:47Z</time>
      </trkpt>
      <trkpt lat="2.864638" lon="-75.13583">
        <ele>1057.4</ele>
        <time>2021-08-21T19:01:48Z</time>
      </trkpt>
      <trkpt lat="2.864598" lon="-75.13585">
        <ele>1057.1</ele>
        <time>2021-08-21T19:01:49Z</time>
      </trkpt>
      <trkpt lat="2.864557" lon="-75.135864">
        <ele>1056.8</ele>
        <time>2021-08-21T19:01:50Z</time>
      </trkpt>
      <trkpt lat="2.864515" lon="-75.13589">
        <ele>1056.5</ele>
        <time>2021-08-21T19:01:51Z</time>
      </trkpt>
      <trkpt lat="2.86447" lon="-75.1359">
        <ele>1056.2</ele>
        <time>2021-08-21T19:01:52Z</time>
      </trkpt>
      <trkpt lat="2.864425" lon="-75.135925">
        <ele>1055.8</ele>
        <time>2021-08-21T19:01:53Z</time>
      </trkpt>
      <trkpt lat="2.864379" lon="-75.13594">
        <ele>1055.5</ele>
        <time>2021-08-21T19:01:54Z</time>
      </trkpt>
      <trkpt lat="2.864332" lon="-75.135956">
        <ele>1055.2</ele>
        <time>2021-08-21T19:01:55Z</time>
      </trkpt>
      <trkpt lat="2.864284" lon="-75.13597">
        <ele>1054.9</ele>
        <time>2021-08-21T19:01:56Z</time>
      </trkpt>
      <trkpt lat="2.864236" lon="-75.13599">
        <ele>1054.6</ele>
        <time>2021-08-21T19:01:57Z</time>
      </trkpt>
      <trkpt lat="2.864185" lon="-75.136">
        <ele>1054.3</ele>
        <time>2021-08-21T19:01:58Z</time>
      </trkpt>
      <trkpt lat="2.864138" lon="-75.13602">
        <ele>1054.1</ele>
        <time>2021-08-21T19:01:59Z</time>
      </trkpt>
      <trkpt lat="2.864096" lon="-75.13604">
        <ele>1053.8</ele>
        <time>2021-08-21T19:02:00Z</time>
      </trkpt>
      <trkpt lat="2.864056" lon="-75.13606">
        <ele>1053.5</ele>
        <time>2021-08-21T19:02:01Z</time>
      </trkpt>
      <trkpt lat="2.864017" lon="-75.13609">
        <ele>1053.2</ele>
        <time>2021-08-21T19:02:02Z</time>
      </trkpt>
      <trkpt lat="2.86398" lon="-75.13613">
        <ele>1052.9</ele>
        <time>2021-08-21T19:02:03Z</time>
      </trkpt>
      <trkpt lat="2.863947" lon="-75.13617">
        <ele>1052.6</ele>
        <time>2021-08-21T19:02:04Z</time>
      </trkpt>
      <trkpt lat="2.863918" lon="-75.13621">
        <ele>1052.4</ele>
        <time>2021-08-21T19:02:05Z</time>
      </trkpt>
      <trkpt lat="2.863891" lon="-75.13624">
        <ele>1052.2</ele>
        <time>2021-08-21T19:02:06Z</time>
      </trkpt>
      <trkpt lat="2.863865" lon="-75.13628">
        <ele>1051.9</ele>
        <time>2021-08-21T19:02:07Z</time>
      </trkpt>
      <trkpt lat="2.863841" lon="-75.13632">
        <ele>1051.6</ele>
        <time>2021-08-21T19:02:08Z</time>
      </trkpt>
      <trkpt lat="2.863816" lon="-75.13636">
        <ele>1051.4</ele>
        <time>2021-08-21T19:02:09Z</time>
      </trkpt>
      <trkpt lat="2.86379" lon="-75.136406">
        <ele>1051.1</ele>
        <time>2021-08-21T19:02:10Z</time>
      </trkpt>
      <trkpt lat="2.863764" lon="-75.13645">
        <ele>1050.8</ele>
        <time>2021-08-21T19:02:11Z</time>
      </trkpt>
      <trkpt lat="2.86374" lon="-75.1365">
        <ele>1050.6</ele>
        <time>2021-08-21T19:02:12Z</time>
      </trkpt>
      <trkpt lat="2.863718" lon="-75.13654">
        <ele>1050.3</ele>
        <time>2021-08-21T19:02:13Z</time>
      </trkpt>
      <trkpt lat="2.863698" lon="-75.13659">
        <ele>1050.0</ele>
        <time>2021-08-21T19:02:14Z</time>
      </trkpt>
      <trkpt lat="2.863685" lon="-75.13664">
        <ele>1049.6</ele>
        <time>2021-08-21T19:02:15Z</time>
      </trkpt>
      <trkpt lat="2.863678" lon="-75.13669">
        <ele>1049.3</ele>
        <time>2021-08-21T19:02:16Z</time>
      </trkpt>
      <trkpt lat="2.86368" lon="-75.136734">
        <ele>1048.9</ele>
        <time>2021-08-21T19:02:17Z</time>
      </trkpt>
      <trkpt lat="2.86369" lon="-75.13678">
        <ele>1048.5</ele>
        <time>2021-08-21T19:02:18Z</time>
      </trkpt>
      <trkpt lat="2.86371" lon="-75.136826">
        <ele>1048.0</ele>
        <time>2021-08-21T19:02:19Z</time>
      </trkpt>
      <trkpt lat="2.863737" lon="-75.13686">
        <ele>1047.5</ele>
        <time>2021-08-21T19:02:20Z</time>
      </trkpt>
      <trkpt lat="2.86377" lon="-75.136894">
        <ele>1046.9</ele>
        <time>2021-08-21T19:02:21Z</time>
      </trkpt>
      <trkpt lat="2.863808" lon="-75.136925">
        <ele>1046.3</ele>
        <time>2021-08-21T19:02:22Z</time>
      </trkpt>
      <trkpt lat="2.86385" lon="-75.136955">
        <ele>1045.7</ele>
        <time>2021-08-21T19:02:23Z</time>
      </trkpt>
      <trkpt lat="2.863894" lon="-75.13698">
        <ele>1044.9</ele>
        <time>2021-08-21T19:02:24Z</time>
      </trkpt>
      <trkpt lat="2.863939" lon="-75.13701">
        <ele>1044.1</ele>
        <time>2021-08-21T19:02:25Z</time>
      </trkpt>
      <trkpt lat="2.863982" lon="-75.13705">
        <ele>1043.3</ele>
        <time>2021-08-21T19:02:26Z</time>
      </trkpt>
      <trkpt lat="2.864019" lon="-75.137085">
        <ele>1042.5</ele>
        <time>2021-08-21T19:02:27Z</time>
      </trkpt>
      <trkpt lat="2.864051" lon="-75.13713">
        <ele>1041.7</ele>
        <time>2021-08-21T19:02:28Z</time>
      </trkpt>
      <trkpt lat="2.86408" lon="-75.13718">
        <ele>1040.9</ele>
        <time>2021-08-21T19:02:29Z</time>
      </trkpt>
      <trkpt lat="2.864106" lon="-75.13722">
        <ele>1040.1</ele>
        <time>2021-08-21T19:02:30Z</time>
      </trkpt>
      <trkpt lat="2.86413" lon="-75.137276">
        <ele>1039.4</ele>
        <time>2021-08-21T19:02:31Z</time>
      </trkpt>
      <trkpt lat="2.864158" lon="-75.13732">
        <ele>1038.7</ele>
        <time>2021-08-21T19:02:32Z</time>
      </trkpt>
      <trkpt lat="2.864189" lon="-75.13737">
        <ele>1038.0</ele>
        <time>2021-08-21T19:02:33Z</time>
      </trkpt>
      <trkpt lat="2.864226" lon="-75.13742">
        <ele>1037.4</ele>
        <time>2021-08-21T19:02:34Z</time>
      </trkpt>
      <trkpt lat="2.864268" lon="-75.13746">
        <ele>1036.7</ele>
        <time>2021-08-21T19:02:35Z</time>
      </trkpt>
      <trkpt lat="2.864315" lon="-75.1375">
        <ele>1036.1</ele>
        <time>2021-08-21T19:02:36Z</time>
      </trkpt>
      <trkpt lat="2.864367" lon="-75.13753">
        <ele>1035.6</ele>
        <time>2021-08-21T19:02:37Z</time>
      </trkpt>
      <trkpt lat="2.864422" lon="-75.13755">
        <ele>1035.0</ele>
        <time>2021-08-21T19:02:38Z</time>
      </trkpt>
      <trkpt lat="2.864479" lon="-75.137566">
        <ele>1034.4</ele>
        <time>2021-08-21T19:02:39Z</time>
      </trkpt>
      <trkpt lat="2.864536" lon="-75.13757">
        <ele>1033.8</ele>
        <time>2021-08-21T19:02:40Z</time>
      </trkpt>
      <trkpt lat="2.864592" lon="-75.13757">
        <ele>1033.2</ele>
        <time>2021-08-21T19:02:41Z</time>
      </trkpt>
      <trkpt lat="2.864648" lon="-75.13756">
        <ele>1032.7</ele>
        <time>2021-08-21T19:02:42Z</time>
      </trkpt>
      <trkpt lat="2.864703" lon="-75.13755">
        <ele>1032.1</ele>
        <time>2021-08-21T19:02:43Z</time>
      </trkpt>
      <trkpt lat="2.864763" lon="-75.13753">
        <ele>1031.4</ele>
        <time>2021-08-21T19:02:44Z</time>
      </trkpt>
      <trkpt lat="2.864823" lon="-75.13751">
        <ele>1030.6</ele>
        <time>2021-08-21T19:02:45Z</time>
      </trkpt>
      <trkpt lat="2.864879" lon="-75.13749">
        <ele>1029.9</ele>
        <time>2021-08-21T19:02:46Z</time>
      </trkpt>
      <trkpt lat="2.864936" lon="-75.137474">
        <ele>1029.2</ele>
        <time>2021-08-21T19:02:47Z</time>
      </trkpt>
      <trkpt lat="2.864992" lon="-75.13745">
        <ele>1028.5</ele>
        <time>2021-08-21T19:02:48Z</time>
      </trkpt>
      <trkpt lat="2.865047" lon="-75.13743">
        <ele>1027.9</ele>
        <time>2021-08-21T19:02:49Z</time>
      </trkpt>
      <trkpt lat="2.8651" lon="-75.1374">
        <ele>1027.2</ele>
        <time>2021-08-21T19:02:50Z</time>
      </trkpt>
      <trkpt lat="2.865152" lon="-75.137375">
        <ele>1026.5</ele>
        <time>2021-08-21T19:02:51Z</time>
      </trkpt>
      <trkpt lat="2.865206" lon="-75.13735">
        <ele>1025.8</ele>
        <time>2021-08-21T19:02:52Z</time>
      </trkpt>
      <trkpt lat="2.865263" lon="-75.13732">
        <ele>1025.0</ele>
        <time>2021-08-21T19:02:53Z</time>
      </trkpt>
      <trkpt lat="2.865321" lon="-75.1373">
        <ele>1024.3</ele>
        <time>2021-08-21T19:02:54Z</time>
      </trkpt>
      <trkpt lat="2.865381" lon="-75.13728">
        <ele>1023.7</ele>
        <time>2021-08-21T19:02:55Z</time>
      </trkpt>
      <trkpt lat="2.865443" lon="-75.13726">
        <ele>1023.1</ele>
        <time>2021-08-21T19:02:56Z</time>
      </trkpt>
      <trkpt lat="2.865717" lon="-75.137184">
        <ele>1020.8</ele>
        <time>2021-08-21T19:02:58Z</time>
      </trkpt>
      <trkpt lat="2.865732" lon="-75.13718">
        <ele>1020.7</ele>
        <time>2021-08-21T19:02:59Z</time>
      </trkpt>
      <trkpt lat="2.865762" lon="-75.13717">
        <ele>1020.5</ele>
        <time>2021-08-21T19:03:00Z</time>
      </trkpt>
      <trkpt lat="2.865805" lon="-75.13715">
        <ele>1020.2</ele>
        <time>2021-08-21T19:03:01Z</time>
      </trkpt>
      <trkpt lat="2.865858" lon="-75.13714">
        <ele>1019.8</ele>
        <time>2021-08-21T19:03:02Z</time>
      </trkpt>
      <trkpt lat="2.865916" lon="-75.13712">
        <ele>1019.3</ele>
        <time>2021-08-21T19:03:03Z</time>
      </trkpt>
      <trkpt lat="2.865981" lon="-75.13711">
        <ele>1018.8</ele>
        <time>2021-08-21T19:03:04Z</time>
      </trkpt>
      <trkpt lat="2.866046" lon="-75.1371">
        <ele>1018.3</ele>
        <time>2021-08-21T19:03:05Z</time>
      </trkpt>
      <trkpt lat="2.866106" lon="-75.1371">
        <ele>1017.9</ele>
        <time>2021-08-21T19:03:06Z</time>
      </trkpt>
      <trkpt lat="2.866168" lon="-75.13709">
        <ele>1017.4</ele>
        <time>2021-08-21T19:03:07Z</time>
      </trkpt>
      <trkpt lat="2.866234" lon="-75.13709">
        <ele>1016.9</ele>
        <time>2021-08-21T19:03:08Z</time>
      </trkpt>
      <trkpt lat="2.866298" lon="-75.13709">
        <ele>1016.5</ele>
        <time>2021-08-21T19:03:09Z</time>
      </trkpt>
      <trkpt lat="2.866357" lon="-75.1371">
        <ele>1016.1</ele>
        <time>2021-08-21T19:03:10Z</time>
      </trkpt>
      <trkpt lat="2.866408" lon="-75.1371">
        <ele>1015.7</ele>
        <time>2021-08-21T19:03:11Z</time>
      </trkpt>
      <trkpt lat="2.866457" lon="-75.13711">
        <ele>1015.4</ele>
        <time>2021-08-21T19:03:12Z</time>
      </trkpt>
      <trkpt lat="2.866503" lon="-75.13711">
        <ele>1015.1</ele>
        <time>2021-08-21T19:03:13Z</time>
      </trkpt>
      <trkpt lat="2.866547" lon="-75.13712">
        <ele>1014.7</ele>
        <time>2021-08-21T19:03:14Z</time>
      </trkpt>
      <trkpt lat="2.86659" lon="-75.13713">
        <ele>1014.4</ele>
        <time>2021-08-21T19:03:15Z</time>
      </trkpt>
      <trkpt lat="2.866632" lon="-75.137146">
        <ele>1014.1</ele>
        <time>2021-08-21T19:03:16Z</time>
      </trkpt>
      <trkpt lat="2.866674" lon="-75.13716">
        <ele>1013.7</ele>
        <time>2021-08-21T19:03:17Z</time>
      </trkpt>
      <trkpt lat="2.866715" lon="-75.13718">
        <ele>1013.4</ele>
        <time>2021-08-21T19:03:18Z</time>
      </trkpt>
      <trkpt lat="2.866756" lon="-75.13719">
        <ele>1013.1</ele>
        <time>2021-08-21T19:03:19Z</time>
      </trkpt>
      <trkpt lat="2.866797" lon="-75.13721">
        <ele>1012.8</ele>
        <time>2021-08-21T19:03:20Z</time>
      </trkpt>
      <trkpt lat="2.866838" lon="-75.13722">
        <ele>1012.5</ele>
        <time>2021-08-21T19:03:21Z</time>
      </trkpt>
      <trkpt lat="2.866878" lon="-75.13724">
        <ele>1012.2</ele>
        <time>2021-08-21T19:03:22Z</time>
      </trkpt>
      <trkpt lat="2.866917" lon="-75.13725">
        <ele>1011.9</ele>
        <time>2021-08-21T19:03:23Z</time>
      </trkpt>
      <trkpt lat="2.866955" lon="-75.13727">
        <ele>1011.6</ele>
        <time>2021-08-21T19:03:24Z</time>
      </trkpt>
      <trkpt lat="2.866992" lon="-75.13729">
        <ele>1011.3</ele>
        <time>2021-08-21T19:03:25Z</time>
      </trkpt>
      <trkpt lat="2.867028" lon="-75.137314">
        <ele>1010.9</ele>
        <time>2021-08-21T19:03:26Z</time>
      </trkpt>
      <trkpt lat="2.867063" lon="-75.13734">
        <ele>1010.6</ele>
        <time>2021-08-21T19:03:27Z</time>
      </trkpt>
      <trkpt lat="2.867097" lon="-75.13737">
        <ele>1010.3</ele>
        <time>2021-08-21T19:03:28Z</time>
      </trkpt>
      <trkpt lat="2.86713" lon="-75.1374">
        <ele>1009.9</ele>
        <time>2021-08-21T19:03:29Z</time>
      </trkpt>
      <trkpt lat="2.867163" lon="-75.13742">
        <ele>1009.6</ele>
        <time>2021-08-21T19:03:30Z</time>
      </trkpt>
      <trkpt lat="2.867194" lon="-75.13744">
        <ele>1009.3</ele>
        <time>2021-08-21T19:03:31Z</time>
      </trkpt>
      <trkpt lat="2.867225" lon="-75.13747">
        <ele>1009.0</ele>
        <time>2021-08-21T19:03:32Z</time>
      </trkpt>
      <trkpt lat="2.867254" lon="-75.13748">
        <ele>1008.8</ele>
        <time>2021-08-21T19:03:33Z</time>
      </trkpt>
      <trkpt lat="2.867284" lon="-75.1375">
        <ele>1008.5</ele>
        <time>2021-08-21T19:03:34Z</time>
      </trkpt>
      <trkpt lat="2.867314" lon="-75.13751">
        <ele>1008.3</ele>
        <time>2021-08-21T19:03:35Z</time>
      </trkpt>
      <trkpt lat="2.867345" lon="-75.13752">
        <ele>1008.1</ele>
        <time>2021-08-21T19:03:36Z</time>
      </trkpt>
      <trkpt lat="2.867377" lon="-75.137535">
        <ele>1007.9</ele>
        <time>2021-08-21T19:03:37Z</time>
      </trkpt>
      <trkpt lat="2.867412" lon="-75.13754">
        <ele>1007.6</ele>
        <time>2021-08-21T19:03:38Z</time>
      </trkpt>
      <trkpt lat="2.867449" lon="-75.13756">
        <ele>1007.4</ele>
        <time>2021-08-21T19:03:39Z</time>
      </trkpt>
      <trkpt lat="2.867488" lon="-75.137566">
        <ele>1007.2</ele>
        <time>2021-08-21T19:03:40Z</time>
      </trkpt>
      <trkpt lat="2.86753" lon="-75.13757">
        <ele>1006.9</ele>
        <time>2021-08-21T19:03:41Z</time>
      </trkpt>
      <trkpt lat="2.867575" lon="-75.13759">
        <ele>1006.6</ele>
        <time>2021-08-21T19:03:42Z</time>
      </trkpt>
      <trkpt lat="2.867619" lon="-75.137596">
        <ele>1006.4</ele>
        <time>2021-08-21T19:03:43Z</time>
      </trkpt>
      <trkpt lat="2.867666" lon="-75.1376">
        <ele>1006.1</ele>
        <time>2021-08-21T19:03:44Z</time>
      </trkpt>
      <trkpt lat="2.867713" lon="-75.13761">
        <ele>1005.8</ele>
        <time>2021-08-21T19:03:45Z</time>
      </trkpt>
      <trkpt lat="2.867757" lon="-75.13763">
        <ele>1005.6</ele>
        <time>2021-08-21T19:03:46Z</time>
      </trkpt>
      <trkpt lat="2.867796" lon="-75.13765">
        <ele>1005.3</ele>
        <time>2021-08-21T19:03:47Z</time>
      </trkpt>
      <trkpt lat="2.867832" lon="-75.13767">
        <ele>1005.1</ele>
        <time>2021-08-21T19:03:48Z</time>
      </trkpt>
      <trkpt lat="2.867863" lon="-75.1377">
        <ele>1004.9</ele>
        <time>2021-08-21T19:03:49Z</time>
      </trkpt>
      <trkpt lat="2.867881" lon="-75.13774">
        <ele>1004.6</ele>
        <time>2021-08-21T19:03:50Z</time>
      </trkpt>
      <trkpt lat="2.867889" lon="-75.13778">
        <ele>1004.4</ele>
        <time>2021-08-21T19:03:51Z</time>
      </trkpt>
      <trkpt lat="2.867887" lon="-75.137825">
        <ele>1004.1</ele>
        <time>2021-08-21T19:03:52Z</time>
      </trkpt>
      <trkpt lat="2.867877" lon="-75.13786">
        <ele>1003.8</ele>
        <time>2021-08-21T19:03:53Z</time>
      </trkpt>
      <trkpt lat="2.867857" lon="-75.1379">
        <ele>1003.6</ele>
        <time>2021-08-21T19:03:54Z</time>
      </trkpt>
      <trkpt lat="2.867832" lon="-75.13795">
        <ele>1003.3</ele>
        <time>2021-08-21T19:03:55Z</time>
      </trkpt>
      <trkpt lat="2.867801" lon="-75.137985">
        <ele>1002.9</ele>
        <time>2021-08-21T19:03:56Z</time>
      </trkpt>
      <trkpt lat="2.867766" lon="-75.138016">
        <ele>1002.6</ele>
        <time>2021-08-21T19:03:57Z</time>
      </trkpt>
      <trkpt lat="2.86773" lon="-75.138054">
        <ele>1002.2</ele>
        <time>2021-08-21T19:03:58Z</time>
      </trkpt>
      <trkpt lat="2.867695" lon="-75.138084">
        <ele>1001.8</ele>
        <time>2021-08-21T19:03:59Z</time>
      </trkpt>
      <trkpt lat="2.867662" lon="-75.13812">
        <ele>1001.4</ele>
        <time>2021-08-21T19:04:00Z</time>
      </trkpt>
      <trkpt lat="2.867633" lon="-75.13817">
        <ele>1001.0</ele>
        <time>2021-08-21T19:04:01Z</time>
      </trkpt>
      <trkpt lat="2.867609" lon="-75.13821">
        <ele>1000.6</ele>
        <time>2021-08-21T19:04:02Z</time>
      </trkpt>
      <trkpt lat="2.867589" lon="-75.13825">
        <ele>1000.3</ele>
        <time>2021-08-21T19:04:03Z</time>
      </trkpt>
      <trkpt lat="2.867568" lon="-75.1383">
        <ele>999.9</ele>
        <time>2021-08-21T19:04:04Z</time>
      </trkpt>
      <trkpt lat="2.867545" lon="-75.138336">
        <ele>999.5</ele>
        <time>2021-08-21T19:04:05Z</time>
      </trkpt>
      <trkpt lat="2.867524" lon="-75.138374">
        <ele>999.2</ele>
        <time>2021-08-21T19:04:06Z</time>
      </trkpt>
      <trkpt lat="2.86748" lon="-75.138466">
        <ele>998.3</ele>
        <time>2021-08-21T19:04:08Z</time>
      </trkpt>
      <trkpt lat="2.867481" lon="-75.13846">
        <ele>998.3</ele>
        <time>2021-08-21T19:04:09Z</time>
      </trkpt>
      <trkpt lat="2.867481" lon="-75.13846">
        <ele>998.3</ele>
        <time>2021-08-21T19:04:10Z</time>
      </trkpt>
      <trkpt lat="2.86746" lon="-75.13854">
        <ele>997.6</ele>
        <time>2021-08-21T19:07:42Z</time>
      </trkpt>
      <trkpt lat="2.867457" lon="-75.13855">
        <ele>997.5</ele>
        <time>2021-08-21T19:07:43Z</time>
      </trkpt>
      <trkpt lat="2.867453" lon="-75.138565">
        <ele>997.4</ele>
        <time>2021-08-21T19:07:44Z</time>
      </trkpt>
      <trkpt lat="2.867446" lon="-75.13859">
        <ele>997.2</ele>
        <time>2021-08-21T19:07:45Z</time>
      </trkpt>
      <trkpt lat="2.867436" lon="-75.13861">
        <ele>997.0</ele>
        <time>2021-08-21T19:07:46Z</time>
      </trkpt>
      <trkpt lat="2.867426" lon="-75.13864">
        <ele>996.7</ele>
        <time>2021-08-21T19:07:47Z</time>
      </trkpt>
      <trkpt lat="2.867416" lon="-75.13867">
        <ele>996.5</ele>
        <time>2021-08-21T19:07:48Z</time>
      </trkpt>
      <trkpt lat="2.867405" lon="-75.1387">
        <ele>996.2</ele>
        <time>2021-08-21T19:07:49Z</time>
      </trkpt>
      <trkpt lat="2.867375" lon="-75.13882">
        <ele>995.3</ele>
        <time>2021-08-21T19:07:51Z</time>
      </trkpt>
      <trkpt lat="2.867374" lon="-75.138824">
        <ele>995.2</ele>
        <time>2021-08-21T19:07:52Z</time>
      </trkpt>
      <trkpt lat="2.867372" lon="-75.13884">
        <ele>995.1</ele>
        <time>2021-08-21T19:07:53Z</time>
      </trkpt>
      <trkpt lat="2.867369" lon="-75.13886">
        <ele>994.9</ele>
        <time>2021-08-21T19:07:54Z</time>
      </trkpt>
      <trkpt lat="2.867367" lon="-75.13889">
        <ele>994.7</ele>
        <time>2021-08-21T19:07:55Z</time>
      </trkpt>
      <trkpt lat="2.867364" lon="-75.13892">
        <ele>994.5</ele>
        <time>2021-08-21T19:07:56Z</time>
      </trkpt>
      <trkpt lat="2.867361" lon="-75.13896">
        <ele>994.2</ele>
        <time>2021-08-21T19:07:57Z</time>
      </trkpt>
      <trkpt lat="2.867357" lon="-75.13899">
        <ele>993.9</ele>
        <time>2021-08-21T19:07:58Z</time>
      </trkpt>
      <trkpt lat="2.867352" lon="-75.13903">
        <ele>993.6</ele>
        <time>2021-08-21T19:07:59Z</time>
      </trkpt>
      <trkpt lat="2.867345" lon="-75.13907">
        <ele>993.4</ele>
        <time>2021-08-21T19:08:00Z</time>
      </trkpt>
      <trkpt lat="2.867336" lon="-75.13911">
        <ele>993.1</ele>
        <time>2021-08-21T19:08:01Z</time>
      </trkpt>
      <trkpt lat="2.867326" lon="-75.13914">
        <ele>992.8</ele>
        <time>2021-08-21T19:08:02Z</time>
      </trkpt>
      <trkpt lat="2.867312" lon="-75.139175">
        <ele>992.5</ele>
        <time>2021-08-21T19:08:03Z</time>
      </trkpt>
      <trkpt lat="2.867297" lon="-75.13922">
        <ele>992.2</ele>
        <time>2021-08-21T19:08:04Z</time>
      </trkpt>
      <trkpt lat="2.867283" lon="-75.13926">
        <ele>991.9</ele>
        <time>2021-08-21T19:08:05Z</time>
      </trkpt>
      <trkpt lat="2.867271" lon="-75.1393">
        <ele>991.7</ele>
        <time>2021-08-21T19:08:06Z</time>
      </trkpt>
      <trkpt lat="2.867257" lon="-75.139336">
        <ele>991.4</ele>
        <time>2021-08-21T19:08:07Z</time>
      </trkpt>
      <trkpt lat="2.867243" lon="-75.13937">
        <ele>991.1</ele>
        <time>2021-08-21T19:08:08Z</time>
      </trkpt>
      <trkpt lat="2.86723" lon="-75.139404">
        <ele>991.0</ele>
        <time>2021-08-21T19:08:09Z</time>
      </trkpt>
      <trkpt lat="2.867216" lon="-75.13944">
        <ele>991.0</ele>
        <time>2021-08-21T19:08:10Z</time>
      </trkpt>
      <trkpt lat="2.867199" lon="-75.13948">
        <ele>991.0</ele>
        <time>2021-08-21T19:08:11Z</time>
      </trkpt>
      <trkpt lat="2.86718" lon="-75.13952">
        <ele>991.0</ele>
        <time>2021-08-21T19:08:12Z</time>
      </trkpt>
      <trkpt lat="2.867159" lon="-75.13956">
        <ele>991.0</ele>
        <time>2021-08-21T19:08:13Z</time>
      </trkpt>
      <trkpt lat="2.867136" lon="-75.139595">
        <ele>991.0</ele>
        <time>2021-08-21T19:08:14Z</time>
      </trkpt>
      <trkpt lat="2.867114" lon="-75.13963">
        <ele>991.0</ele>
        <time>2021-08-21T19:08:15Z</time>
      </trkpt>
      <trkpt lat="2.867095" lon="-75.13967">
        <ele>991.1</ele>
        <time>2021-08-21T19:08:16Z</time>
      </trkpt>
      <trkpt lat="2.867077" lon="-75.1397">
        <ele>991.1</ele>
        <time>2021-08-21T19:08:17Z</time>
      </trkpt>
      <trkpt lat="2.867062" lon="-75.13974">
        <ele>991.1</ele>
        <time>2021-08-21T19:08:18Z</time>
      </trkpt>
      <trkpt lat="2.867048" lon="-75.13977">
        <ele>991.2</ele>
        <time>2021-08-21T19:08:19Z</time>
      </trkpt>
      <trkpt lat="2.867034" lon="-75.1398">
        <ele>991.2</ele>
        <time>2021-08-21T19:08:20Z</time>
      </trkpt>
      <trkpt lat="2.867019" lon="-75.13984">
        <ele>991.3</ele>
        <time>2021-08-21T19:08:21Z</time>
      </trkpt>
      <trkpt lat="2.867008" lon="-75.13987">
        <ele>991.3</ele>
        <time>2021-08-21T19:08:22Z</time>
      </trkpt>
      <trkpt lat="2.866999" lon="-75.13991">
        <ele>991.3</ele>
        <time>2021-08-21T19:08:23Z</time>
      </trkpt>
      <trkpt lat="2.866992" lon="-75.139946">
        <ele>991.3</ele>
        <time>2021-08-21T19:08:24Z</time>
      </trkpt>
      <trkpt lat="2.866988" lon="-75.13998">
        <ele>991.4</ele>
        <time>2021-08-21T19:08:25Z</time>
      </trkpt>
      <trkpt lat="2.866988" lon="-75.140015">
        <ele>991.4</ele>
        <time>2021-08-21T19:08:26Z</time>
      </trkpt>
      <trkpt lat="2.866993" lon="-75.14005">
        <ele>991.4</ele>
        <time>2021-08-21T19:08:27Z</time>
      </trkpt>
      <trkpt lat="2.867051" lon="-75.14017">
        <ele>991.3</ele>
        <time>2021-08-21T19:08:29Z</time>
      </trkpt>
      <trkpt lat="2.867057" lon="-75.14017">
        <ele>991.3</ele>
        <time>2021-08-21T19:08:30Z</time>
      </trkpt>
      <trkpt lat="2.867071" lon="-75.140175">
        <ele>991.3</ele>
        <time>2021-08-21T19:08:31Z</time>
      </trkpt>
      <trkpt lat="2.867091" lon="-75.14019">
        <ele>991.3</ele>
        <time>2021-08-21T19:08:32Z</time>
      </trkpt>
      <trkpt lat="2.867117" lon="-75.140205">
        <ele>991.3</ele>
        <time>2021-08-21T19:08:33Z</time>
      </trkpt>
      <trkpt lat="2.867147" lon="-75.14022">
        <ele>991.3</ele>
        <time>2021-08-21T19:08:34Z</time>
      </trkpt>
      <trkpt lat="2.867181" lon="-75.140236">
        <ele>991.2</ele>
        <time>2021-08-21T19:08:35Z</time>
      </trkpt>
      <trkpt lat="2.867216" lon="-75.14026">
        <ele>991.3</ele>
        <time>2021-08-21T19:08:36Z</time>
      </trkpt>
      <trkpt lat="2.867251" lon="-75.140274">
        <ele>991.3</ele>
        <time>2021-08-21T19:08:37Z</time>
      </trkpt>
      <trkpt lat="2.867283" lon="-75.14029">
        <ele>991.3</ele>
        <time>2021-08-21T19:08:38Z</time>
      </trkpt>
      <trkpt lat="2.867314" lon="-75.14031">
        <ele>991.3</ele>
        <time>2021-08-21T19:08:39Z</time>
      </trkpt>
      <trkpt lat="2.867346" lon="-75.140335">
        <ele>991.4</ele>
        <time>2021-08-21T19:08:40Z</time>
      </trkpt>
      <trkpt lat="2.867377" lon="-75.14035">
        <ele>991.4</ele>
        <time>2021-08-21T19:08:41Z</time>
      </trkpt>
      <trkpt lat="2.867408" lon="-75.14037">
        <ele>991.5</ele>
        <time>2021-08-21T19:08:42Z</time>
      </trkpt>
      <trkpt lat="2.867438" lon="-75.140396">
        <ele>991.5</ele>
        <time>2021-08-21T19:08:43Z</time>
      </trkpt>
      <trkpt lat="2.867468" lon="-75.14042">
        <ele>991.5</ele>
        <time>2021-08-21T19:08:44Z</time>
      </trkpt>
      <trkpt lat="2.867497" lon="-75.14044">
        <ele>991.6</ele>
        <time>2021-08-21T19:08:45Z</time>
      </trkpt>
      <trkpt lat="2.867523" lon="-75.14047">
        <ele>991.7</ele>
        <time>2021-08-21T19:08:46Z</time>
      </trkpt>
      <trkpt lat="2.867547" lon="-75.1405">
        <ele>991.7</ele>
        <time>2021-08-21T19:08:47Z</time>
      </trkpt>
      <trkpt lat="2.867569" lon="-75.140526">
        <ele>991.8</ele>
        <time>2021-08-21T19:08:48Z</time>
      </trkpt>
      <trkpt lat="2.867589" lon="-75.14056">
        <ele>991.9</ele>
        <time>2021-08-21T19:08:49Z</time>
      </trkpt>
      <trkpt lat="2.86761" lon="-75.14059">
        <ele>991.9</ele>
        <time>2021-08-21T19:08:50Z</time>
      </trkpt>
      <trkpt lat="2.867631" lon="-75.14062">
        <ele>992.0</ele>
        <time>2021-08-21T19:08:51Z</time>
      </trkpt>
      <trkpt lat="2.867653" lon="-75.14065">
        <ele>992.1</ele>
        <time>2021-08-21T19:08:52Z</time>
      </trkpt>
      <trkpt lat="2.867675" lon="-75.14068">
        <ele>992.2</ele>
        <time>2021-08-21T19:08:53Z</time>
      </trkpt>
      <trkpt lat="2.867697" lon="-75.14071">
        <ele>992.2</ele>
        <time>2021-08-21T19:08:54Z</time>
      </trkpt>
      <trkpt lat="2.867717" lon="-75.14074">
        <ele>992.3</ele>
        <time>2021-08-21T19:08:55Z</time>
      </trkpt>
      <trkpt lat="2.867735" lon="-75.14078">
        <ele>992.4</ele>
        <time>2021-08-21T19:08:56Z</time>
      </trkpt>
      <trkpt lat="2.867752" lon="-75.14081">
        <ele>992.5</ele>
        <time>2021-08-21T19:08:57Z</time>
      </trkpt>
      <trkpt lat="2.867767" lon="-75.14085">
        <ele>992.5</ele>
        <time>2021-08-21T19:08:58Z</time>
      </trkpt>
      <trkpt lat="2.867781" lon="-75.14088">
        <ele>992.7</ele>
        <time>2021-08-21T19:08:59Z</time>
      </trkpt>
      <trkpt lat="2.867797" lon="-75.14091">
        <ele>992.8</ele>
        <time>2021-08-21T19:09:00Z</time>
      </trkpt>
      <trkpt lat="2.867812" lon="-75.14094">
        <ele>992.9</ele>
        <time>2021-08-21T19:09:01Z</time>
      </trkpt>
      <trkpt lat="2.867829" lon="-75.14097">
        <ele>993.0</ele>
        <time>2021-08-21T19:09:02Z</time>
      </trkpt>
      <trkpt lat="2.867846" lon="-75.14099">
        <ele>993.1</ele>
        <time>2021-08-21T19:09:03Z</time>
      </trkpt>
      <trkpt lat="2.867865" lon="-75.14102">
        <ele>993.2</ele>
        <time>2021-08-21T19:09:04Z</time>
      </trkpt>
      <trkpt lat="2.867886" lon="-75.141045">
        <ele>993.3</ele>
        <time>2021-08-21T19:09:05Z</time>
      </trkpt>
      <trkpt lat="2.867907" lon="-75.14107">
        <ele>993.4</ele>
        <time>2021-08-21T19:09:06Z</time>
      </trkpt>
      <trkpt lat="2.86793" lon="-75.14109">
        <ele>993.5</ele>
        <time>2021-08-21T19:09:07Z</time>
      </trkpt>
      <trkpt lat="2.867955" lon="-75.141106">
        <ele>993.6</ele>
        <time>2021-08-21T19:09:08Z</time>
      </trkpt>
      <trkpt lat="2.867983" lon="-75.14112">
        <ele>993.7</ele>
        <time>2021-08-21T19:09:09Z</time>
      </trkpt>
      <trkpt lat="2.868014" lon="-75.141136">
        <ele>993.8</ele>
        <time>2021-08-21T19:09:10Z</time>
      </trkpt>
      <trkpt lat="2.868046" lon="-75.14115">
        <ele>994.0</ele>
        <time>2021-08-21T19:09:11Z</time>
      </trkpt>
      <trkpt lat="2.868075" lon="-75.14116">
        <ele>994.1</ele>
        <time>2021-08-21T19:09:12Z</time>
      </trkpt>
      <trkpt lat="2.868108" lon="-75.141174">
        <ele>994.2</ele>
        <time>2021-08-21T19:09:13Z</time>
      </trkpt>
      <trkpt lat="2.868141" lon="-75.14118">
        <ele>994.3</ele>
        <time>2021-08-21T19:09:14Z</time>
      </trkpt>
      <trkpt lat="2.868175" lon="-75.1412">
        <ele>994.4</ele>
        <time>2021-08-21T19:09:15Z</time>
      </trkpt>
      <trkpt lat="2.868206" lon="-75.141205">
        <ele>994.6</ele>
        <time>2021-08-21T19:09:16Z</time>
      </trkpt>
      <trkpt lat="2.868238" lon="-75.14122">
        <ele>994.7</ele>
        <time>2021-08-21T19:09:17Z</time>
      </trkpt>
      <trkpt lat="2.86827" lon="-75.141235">
        <ele>994.8</ele>
        <time>2021-08-21T19:09:18Z</time>
      </trkpt>
      <trkpt lat="2.868302" lon="-75.14126">
        <ele>995.0</ele>
        <time>2021-08-21T19:09:19Z</time>
      </trkpt>
      <trkpt lat="2.868334" lon="-75.14127">
        <ele>995.1</ele>
        <time>2021-08-21T19:09:20Z</time>
      </trkpt>
      <trkpt lat="2.868366" lon="-75.1413">
        <ele>995.2</ele>
        <time>2021-08-21T19:09:21Z</time>
      </trkpt>
      <trkpt lat="2.868398" lon="-75.14131">
        <ele>995.4</ele>
        <time>2021-08-21T19:09:22Z</time>
      </trkpt>
      <trkpt lat="2.868433" lon="-75.141335">
        <ele>995.5</ele>
        <time>2021-08-21T19:09:22Z</time>
      </trkpt>
      <trkpt lat="2.868466" lon="-75.14135">
        <ele>995.7</ele>
        <time>2021-08-21T19:09:23Z</time>
      </trkpt>
      <trkpt lat="2.868501" lon="-75.14137">
        <ele>995.8</ele>
        <time>2021-08-21T19:09:24Z</time>
      </trkpt>
      <trkpt lat="2.868537" lon="-75.14139">
        <ele>996.0</ele>
        <time>2021-08-21T19:09:25Z</time>
      </trkpt>
      <trkpt lat="2.868571" lon="-75.1414">
        <ele>996.2</ele>
        <time>2021-08-21T19:09:26Z</time>
      </trkpt>
      <trkpt lat="2.868606" lon="-75.14142">
        <ele>996.4</ele>
        <time>2021-08-21T19:09:27Z</time>
      </trkpt>
      <trkpt lat="2.868642" lon="-75.14143">
        <ele>996.6</ele>
        <time>2021-08-21T19:09:28Z</time>
      </trkpt>
      <trkpt lat="2.868679" lon="-75.14145">
        <ele>996.8</ele>
        <time>2021-08-21T19:09:29Z</time>
      </trkpt>
      <trkpt lat="2.868715" lon="-75.141464">
        <ele>997.0</ele>
        <time>2021-08-21T19:09:30Z</time>
      </trkpt>
      <trkpt lat="2.868747" lon="-75.14147">
        <ele>997.2</ele>
        <time>2021-08-21T19:09:31Z</time>
      </trkpt>
      <trkpt lat="2.868781" lon="-75.14148">
        <ele>997.4</ele>
        <time>2021-08-21T19:09:32Z</time>
      </trkpt>
      <trkpt lat="2.868814" lon="-75.14149">
        <ele>997.6</ele>
        <time>2021-08-21T19:09:33Z</time>
      </trkpt>
      <trkpt lat="2.868847" lon="-75.14148">
        <ele>997.8</ele>
        <time>2021-08-21T19:09:34Z</time>
      </trkpt>
      <trkpt lat="2.868879" lon="-75.14148">
        <ele>998.0</ele>
        <time>2021-08-21T19:09:35Z</time>
      </trkpt>
      <trkpt lat="2.868911" lon="-75.14147">
        <ele>998.2</ele>
        <time>2021-08-21T19:09:36Z</time>
      </trkpt>
      <trkpt lat="2.86894" lon="-75.14146">
        <ele>998.4</ele>
        <time>2021-08-21T19:09:37Z</time>
      </trkpt>
      <trkpt lat="2.868968" lon="-75.14144">
        <ele>998.5</ele>
        <time>2021-08-21T19:09:38Z</time>
      </trkpt>
      <trkpt lat="2.868994" lon="-75.141426">
        <ele>998.7</ele>
        <time>2021-08-21T19:09:39Z</time>
      </trkpt>
      <trkpt lat="2.869018" lon="-75.14141">
        <ele>998.9</ele>
        <time>2021-08-21T19:09:40Z</time>
      </trkpt>
      <trkpt lat="2.86904" lon="-75.14139">
        <ele>999.1</ele>
        <time>2021-08-21T19:09:41Z</time>
      </trkpt>
      <trkpt lat="2.86906" lon="-75.141365">
        <ele>999.2</ele>
        <time>2021-08-21T19:09:42Z</time>
      </trkpt>
      <trkpt lat="2.869076" lon="-75.14134">
        <ele>999.4</ele>
        <time>2021-08-21T19:09:43Z</time>
      </trkpt>
      <trkpt lat="2.869089" lon="-75.14132">
        <ele>999.5</ele>
        <time>2021-08-21T19:09:44Z</time>
      </trkpt>
      <trkpt lat="2.869099" lon="-75.14129">
        <ele>999.6</ele>
        <time>2021-08-21T19:09:45Z</time>
      </trkpt>
      <trkpt lat="2.869108" lon="-75.14126">
        <ele>999.7</ele>
        <time>2021-08-21T19:09:46Z</time>
      </trkpt>
      <trkpt lat="2.869115" lon="-75.14123">
        <ele>999.9</ele>
        <time>2021-08-21T19:09:47Z</time>
      </trkpt>
      <trkpt lat="2.869122" lon="-75.14119">
        <ele>1000.0</ele>
        <time>2021-08-21T19:09:48Z</time>
      </trkpt>
      <trkpt lat="2.869126" lon="-75.14116">
        <ele>1000.0</ele>
        <time>2021-08-21T19:09:49Z</time>
      </trkpt>
      <trkpt lat="2.869131" lon="-75.14112">
        <ele>1000.1</ele>
        <time>2021-08-21T19:09:50Z</time>
      </trkpt>
      <trkpt lat="2.869137" lon="-75.14108">
        <ele>1000.2</ele>
        <time>2021-08-21T19:09:51Z</time>
      </trkpt>
      <trkpt lat="2.869145" lon="-75.14105">
        <ele>1000.3</ele>
        <time>2021-08-21T19:09:52Z</time>
      </trkpt>
      <trkpt lat="2.869154" lon="-75.141014">
        <ele>1000.3</ele>
        <time>2021-08-21T19:09:53Z</time>
      </trkpt>
      <trkpt lat="2.869165" lon="-75.14098">
        <ele>1000.4</ele>
        <time>2021-08-21T19:09:54Z</time>
      </trkpt>
      <trkpt lat="2.869178" lon="-75.140945">
        <ele>1000.5</ele>
        <time>2021-08-21T19:09:55Z</time>
      </trkpt>
      <trkpt lat="2.869191" lon="-75.140915">
        <ele>1000.6</ele>
        <time>2021-08-21T19:09:56Z</time>
      </trkpt>
      <trkpt lat="2.869204" lon="-75.140884">
        <ele>1000.7</ele>
        <time>2021-08-21T19:09:57Z</time>
      </trkpt>
      <trkpt lat="2.869217" lon="-75.140854">
        <ele>1000.8</ele>
        <time>2021-08-21T19:09:58Z</time>
      </trkpt>
      <trkpt lat="2.869229" lon="-75.140816">
        <ele>1000.9</ele>
        <time>2021-08-21T19:09:59Z</time>
      </trkpt>
      <trkpt lat="2.86924" lon="-75.140785">
        <ele>1001.0</ele>
        <time>2021-08-21T19:10:00Z</time>
      </trkpt>
      <trkpt lat="2.86925" lon="-75.14075">
        <ele>1001.0</ele>
        <time>2021-08-21T19:10:01Z</time>
      </trkpt>
      <trkpt lat="2.869262" lon="-75.14072">
        <ele>1001.1</ele>
        <time>2021-08-21T19:10:02Z</time>
      </trkpt>
      <trkpt lat="2.869275" lon="-75.14068">
        <ele>1001.2</ele>
        <time>2021-08-21T19:10:03Z</time>
      </trkpt>
      <trkpt lat="2.869292" lon="-75.14065">
        <ele>1001.3</ele>
        <time>2021-08-21T19:10:04Z</time>
      </trkpt>
      <trkpt lat="2.869312" lon="-75.14061">
        <ele>1001.4</ele>
        <time>2021-08-21T19:10:05Z</time>
      </trkpt>
      <trkpt lat="2.869334" lon="-75.14058">
        <ele>1001.5</ele>
        <time>2021-08-21T19:10:06Z</time>
      </trkpt>
      <trkpt lat="2.86936" lon="-75.14055">
        <ele>1001.6</ele>
        <time>2021-08-21T19:10:07Z</time>
      </trkpt>
      <trkpt lat="2.869388" lon="-75.14052">
        <ele>1001.7</ele>
        <time>2021-08-21T19:10:08Z</time>
      </trkpt>
      <trkpt lat="2.869418" lon="-75.140495">
        <ele>1001.8</ele>
        <time>2021-08-21T19:10:09Z</time>
      </trkpt>
      <trkpt lat="2.86945" lon="-75.140465">
        <ele>1001.9</ele>
        <time>2021-08-21T19:10:10Z</time>
      </trkpt>
      <trkpt lat="2.869478" lon="-75.140434">
        <ele>1002.0</ele>
        <time>2021-08-21T19:10:11Z</time>
      </trkpt>
      <trkpt lat="2.869502" lon="-75.1404">
        <ele>1002.1</ele>
        <time>2021-08-21T19:10:12Z</time>
      </trkpt>
      <trkpt lat="2.869524" lon="-75.140366">
        <ele>1002.1</ele>
        <time>2021-08-21T19:10:13Z</time>
      </trkpt>
      <trkpt lat="2.869544" lon="-75.140335">
        <ele>1002.2</ele>
        <time>2021-08-21T19:10:14Z</time>
      </trkpt>
      <trkpt lat="2.86956" lon="-75.14029">
        <ele>1002.2</ele>
        <time>2021-08-21T19:10:15Z</time>
      </trkpt>
      <trkpt lat="2.869574" lon="-75.14025">
        <ele>1002.3</ele>
        <time>2021-08-21T19:10:16Z</time>
      </trkpt>
      <trkpt lat="2.869586" lon="-75.14021">
        <ele>1002.3</ele>
        <time>2021-08-21T19:10:17Z</time>
      </trkpt>
      <trkpt lat="2.869596" lon="-75.14017">
        <ele>1002.4</ele>
        <time>2021-08-21T19:10:18Z</time>
      </trkpt>
      <trkpt lat="2.869605" lon="-75.14013">
        <ele>1002.4</ele>
        <time>2021-08-21T19:10:19Z</time>
      </trkpt>
      <trkpt lat="2.869614" lon="-75.14009">
        <ele>1002.5</ele>
        <time>2021-08-21T19:10:20Z</time>
      </trkpt>
      <trkpt lat="2.869622" lon="-75.14005">
        <ele>1002.5</ele>
        <time>2021-08-21T19:10:21Z</time>
      </trkpt>
      <trkpt lat="2.869629" lon="-75.140015">
        <ele>1002.5</ele>
        <time>2021-08-21T19:10:22Z</time>
      </trkpt>
      <trkpt lat="2.869635" lon="-75.13998">
        <ele>1002.6</ele>
        <time>2021-08-21T19:10:23Z</time>
      </trkpt>
      <trkpt lat="2.869643" lon="-75.13993">
        <ele>1002.6</ele>
        <time>2021-08-21T19:10:24Z</time>
      </trkpt>
      <trkpt lat="2.869651" lon="-75.13989">
        <ele>1002.7</ele>
        <time>2021-08-21T19:10:25Z</time>
      </trkpt>
      <trkpt lat="2.869661" lon="-75.13985">
        <ele>1002.7</ele>
        <time>2021-08-21T19:10:26Z</time>
      </trkpt>
      <trkpt lat="2.869672" lon="-75.13981">
        <ele>1002.7</ele>
        <time>2021-08-21T19:10:27Z</time>
      </trkpt>
      <trkpt lat="2.869685" lon="-75.13976">
        <ele>1002.8</ele>
        <time>2021-08-21T19:10:28Z</time>
      </trkpt>
      <trkpt lat="2.8697" lon="-75.139725">
        <ele>1002.8</ele>
        <time>2021-08-21T19:10:29Z</time>
      </trkpt>
      <trkpt lat="2.869718" lon="-75.13969">
        <ele>1002.9</ele>
        <time>2021-08-21T19:10:30Z</time>
      </trkpt>
      <trkpt lat="2.869737" lon="-75.13965">
        <ele>1003.0</ele>
        <time>2021-08-21T19:10:31Z</time>
      </trkpt>
      <trkpt lat="2.869762" lon="-75.13962">
        <ele>1003.0</ele>
        <time>2021-08-21T19:10:32Z</time>
      </trkpt>
      <trkpt lat="2.869794" lon="-75.13959">
        <ele>1003.1</ele>
        <time>2021-08-21T19:10:33Z</time>
      </trkpt>
      <trkpt lat="2.86983" lon="-75.139565">
        <ele>1003.2</ele>
        <time>2021-08-21T19:10:34Z</time>
      </trkpt>
      <trkpt lat="2.869868" lon="-75.13954">
        <ele>1003.2</ele>
        <time>2021-08-21T19:10:35Z</time>
      </trkpt>
      <trkpt lat="2.869908" lon="-75.13953">
        <ele>1003.3</ele>
        <time>2021-08-21T19:10:36Z</time>
      </trkpt>
      <trkpt lat="2.86995" lon="-75.13952">
        <ele>1003.3</ele>
        <time>2021-08-21T19:10:37Z</time>
      </trkpt>
      <trkpt lat="2.869993" lon="-75.13951">
        <ele>1003.4</ele>
        <time>2021-08-21T19:10:38Z</time>
      </trkpt>
      <trkpt lat="2.870038" lon="-75.1395">
        <ele>1003.4</ele>
        <time>2021-08-21T19:10:39Z</time>
      </trkpt>
      <trkpt lat="2.870082" lon="-75.13949">
        <ele>1003.4</ele>
        <time>2021-08-21T19:10:40Z</time>
      </trkpt>
      <trkpt lat="2.87013" lon="-75.13948">
        <ele>1003.3</ele>
        <time>2021-08-21T19:10:41Z</time>
      </trkpt>
      <trkpt lat="2.870178" lon="-75.13948">
        <ele>1003.3</ele>
        <time>2021-08-21T19:10:42Z</time>
      </trkpt>
      <trkpt lat="2.870224" lon="-75.13948">
        <ele>1003.2</ele>
        <time>2021-08-21T19:10:43Z</time>
      </trkpt>
      <trkpt lat="2.870268" lon="-75.13948">
        <ele>1003.2</ele>
        <time>2021-08-21T19:10:44Z</time>
      </trkpt>
      <trkpt lat="2.870312" lon="-75.13949">
        <ele>1003.1</ele>
        <time>2021-08-21T19:10:45Z</time>
      </trkpt>
      <trkpt lat="2.870355" lon="-75.139496">
        <ele>1003.0</ele>
        <time>2021-08-21T19:10:46Z</time>
      </trkpt>
      <trkpt lat="2.870398" lon="-75.13951">
        <ele>1002.9</ele>
        <time>2021-08-21T19:10:47Z</time>
      </trkpt>
      <trkpt lat="2.870442" lon="-75.13953">
        <ele>1002.8</ele>
        <time>2021-08-21T19:10:48Z</time>
      </trkpt>
      <trkpt lat="2.870488" lon="-75.139534">
        <ele>1002.7</ele>
        <time>2021-08-21T19:10:49Z</time>
      </trkpt>
      <trkpt lat="2.870534" lon="-75.139534">
        <ele>1002.6</ele>
        <time>2021-08-21T19:10:50Z</time>
      </trkpt>
      <trkpt lat="2.870701" lon="-75.13948">
        <ele>1002.0</ele>
        <time>2021-08-21T19:10:52Z</time>
      </trkpt>
      <trkpt lat="2.870707" lon="-75.139465">
        <ele>1002.0</ele>
        <time>2021-08-21T19:10:53Z</time>
      </trkpt>
      <trkpt lat="2.870719" lon="-75.13945">
        <ele>1001.9</ele>
        <time>2021-08-21T19:10:54Z</time>
      </trkpt>
      <trkpt lat="2.870737" lon="-75.13942">
        <ele>1001.8</ele>
        <time>2021-08-21T19:10:55Z</time>
      </trkpt>
      <trkpt lat="2.870761" lon="-75.13939">
        <ele>1001.7</ele>
        <time>2021-08-21T19:10:56Z</time>
      </trkpt>
      <trkpt lat="2.870788" lon="-75.13935">
        <ele>1001.6</ele>
        <time>2021-08-21T19:10:57Z</time>
      </trkpt>
      <trkpt lat="2.87082" lon="-75.13931">
        <ele>1001.4</ele>
        <time>2021-08-21T19:10:58Z</time>
      </trkpt>
      <trkpt lat="2.870853" lon="-75.13928">
        <ele>1001.3</ele>
        <time>2021-08-21T19:10:59Z</time>
      </trkpt>
      <trkpt lat="2.87089" lon="-75.13925">
        <ele>1001.1</ele>
        <time>2021-08-21T19:11:00Z</time>
      </trkpt>
      <trkpt lat="2.870934" lon="-75.13922">
        <ele>1000.9</ele>
        <time>2021-08-21T19:11:01Z</time>
      </trkpt>
      <trkpt lat="2.870981" lon="-75.1392">
        <ele>1000.7</ele>
        <time>2021-08-21T19:11:02Z</time>
      </trkpt>
      <trkpt lat="2.871027" lon="-75.1392">
        <ele>1000.5</ele>
        <time>2021-08-21T19:11:03Z</time>
      </trkpt>
      <trkpt lat="2.871073" lon="-75.13921">
        <ele>1000.2</ele>
        <time>2021-08-21T19:11:04Z</time>
      </trkpt>
      <trkpt lat="2.87111" lon="-75.13924">
        <ele>1000.0</ele>
        <time>2021-08-21T19:11:05Z</time>
      </trkpt>
      <trkpt lat="2.871142" lon="-75.139275">
        <ele>999.7</ele>
        <time>2021-08-21T19:11:06Z</time>
      </trkpt>
      <trkpt lat="2.87117" lon="-75.13931">
        <ele>999.4</ele>
        <time>2021-08-21T19:11:07Z</time>
      </trkpt>
      <trkpt lat="2.871198" lon="-75.13936">
        <ele>999.1</ele>
        <time>2021-08-21T19:11:08Z</time>
      </trkpt>
      <trkpt lat="2.871229" lon="-75.13941">
        <ele>998.7</ele>
        <time>2021-08-21T19:11:09Z</time>
      </trkpt>
      <trkpt lat="2.871258" lon="-75.139465">
        <ele>998.3</ele>
        <time>2021-08-21T19:11:10Z</time>
      </trkpt>
      <trkpt lat="2.871288" lon="-75.13953">
        <ele>997.9</ele>
        <time>2021-08-21T19:11:11Z</time>
      </trkpt>
      <trkpt lat="2.871316" lon="-75.13959">
        <ele>997.4</ele>
        <time>2021-08-21T19:11:12Z</time>
      </trkpt>
      <trkpt lat="2.871337" lon="-75.13965">
        <ele>996.9</ele>
        <time>2021-08-21T19:11:13Z</time>
      </trkpt>
      <trkpt lat="2.87135" lon="-75.13971">
        <ele>996.4</ele>
        <time>2021-08-21T19:11:14Z</time>
      </trkpt>
      <trkpt lat="2.871359" lon="-75.13977">
        <ele>995.8</ele>
        <time>2021-08-21T19:11:15Z</time>
      </trkpt>
      <trkpt lat="2.871365" lon="-75.13984">
        <ele>995.4</ele>
        <time>2021-08-21T19:11:16Z</time>
      </trkpt>
      <trkpt lat="2.871372" lon="-75.1399">
        <ele>994.9</ele>
        <time>2021-08-21T19:11:17Z</time>
      </trkpt>
      <trkpt lat="2.871381" lon="-75.13996">
        <ele>994.5</ele>
        <time>2021-08-21T19:11:18Z</time>
      </trkpt>
      <trkpt lat="2.871393" lon="-75.14003">
        <ele>994.1</ele>
        <time>2021-08-21T19:11:19Z</time>
      </trkpt>
      <trkpt lat="2.871409" lon="-75.14009">
        <ele>993.7</ele>
        <time>2021-08-21T19:11:20Z</time>
      </trkpt>
      <trkpt lat="2.871427" lon="-75.14015">
        <ele>993.3</ele>
        <time>2021-08-21T19:11:21Z</time>
      </trkpt>
      <trkpt lat="2.871446" lon="-75.14021">
        <ele>992.9</ele>
        <time>2021-08-21T19:11:22Z</time>
      </trkpt>
      <trkpt lat="2.871467" lon="-75.14027">
        <ele>992.6</ele>
        <time>2021-08-21T19:11:23Z</time>
      </trkpt>
      <trkpt lat="2.871491" lon="-75.14031">
        <ele>992.2</ele>
        <time>2021-08-21T19:11:24Z</time>
      </trkpt>
      <trkpt lat="2.871518" lon="-75.14035">
        <ele>991.9</ele>
        <time>2021-08-21T19:11:25Z</time>
      </trkpt>
      <trkpt lat="2.871549" lon="-75.14037">
        <ele>991.6</ele>
        <time>2021-08-21T19:11:26Z</time>
      </trkpt>
      <trkpt lat="2.871583" lon="-75.140396">
        <ele>991.4</ele>
        <time>2021-08-21T19:11:27Z</time>
      </trkpt>
      <trkpt lat="2.871621" lon="-75.14041">
        <ele>991.1</ele>
        <time>2021-08-21T19:11:28Z</time>
      </trkpt>
      <trkpt lat="2.871659" lon="-75.14041">
        <ele>990.8</ele>
        <time>2021-08-21T19:11:29Z</time>
      </trkpt>
      <trkpt lat="2.8717" lon="-75.14041">
        <ele>990.6</ele>
        <time>2021-08-21T19:11:30Z</time>
      </trkpt>
      <trkpt lat="2.871739" lon="-75.140396">
        <ele>990.3</ele>
        <time>2021-08-21T19:11:31Z</time>
      </trkpt>
      <trkpt lat="2.871777" lon="-75.14037">
        <ele>990.0</ele>
        <time>2021-08-21T19:11:32Z</time>
      </trkpt>
      <trkpt lat="2.871812" lon="-75.14035">
        <ele>989.8</ele>
        <time>2021-08-21T19:11:33Z</time>
      </trkpt>
      <trkpt lat="2.871845" lon="-75.14032">
        <ele>989.6</ele>
        <time>2021-08-21T19:11:34Z</time>
      </trkpt>
      <trkpt lat="2.871878" lon="-75.14029">
        <ele>989.4</ele>
        <time>2021-08-21T19:11:35Z</time>
      </trkpt>
      <trkpt lat="2.871909" lon="-75.14025">
        <ele>989.3</ele>
        <time>2021-08-21T19:11:36Z</time>
      </trkpt>
      <trkpt lat="2.871942" lon="-75.14022">
        <ele>989.1</ele>
        <time>2021-08-21T19:11:37Z</time>
      </trkpt>
      <trkpt lat="2.871978" lon="-75.14019">
        <ele>989.0</ele>
        <time>2021-08-21T19:11:38Z</time>
      </trkpt>
      <trkpt lat="2.872017" lon="-75.14017">
        <ele>989.0</ele>
        <time>2021-08-21T19:11:39Z</time>
      </trkpt>
      <trkpt lat="2.872058" lon="-75.140144">
        <ele>988.5</ele>
        <time>2021-08-21T19:11:40Z</time>
      </trkpt>
      <trkpt lat="2.872099" lon="-75.14014">
        <ele>988.1</ele>
        <time>2021-08-21T19:11:41Z</time>
      </trkpt>
      <trkpt lat="2.872139" lon="-75.14013">
        <ele>987.7</ele>
        <time>2021-08-21T19:11:42Z</time>
      </trkpt>
      <trkpt lat="2.872184" lon="-75.14013">
        <ele>987.2</ele>
        <time>2021-08-21T19:11:43Z</time>
      </trkpt>
      <trkpt lat="2.872233" lon="-75.14014">
        <ele>986.7</ele>
        <time>2021-08-21T19:11:44Z</time>
      </trkpt>
      <trkpt lat="2.872283" lon="-75.140144">
        <ele>986.3</ele>
        <time>2021-08-21T19:11:45Z</time>
      </trkpt>
      <trkpt lat="2.872332" lon="-75.14016">
        <ele>985.9</ele>
        <time>2021-08-21T19:11:46Z</time>
      </trkpt>
      <trkpt lat="2.872382" lon="-75.14018">
        <ele>985.5</ele>
        <time>2021-08-21T19:11:47Z</time>
      </trkpt>
      <trkpt lat="2.872428" lon="-75.14021">
        <ele>985.2</ele>
        <time>2021-08-21T19:11:48Z</time>
      </trkpt>
      <trkpt lat="2.872466" lon="-75.14025">
        <ele>984.9</ele>
        <time>2021-08-21T19:11:49Z</time>
      </trkpt>
      <trkpt lat="2.872498" lon="-75.14028">
        <ele>984.7</ele>
        <time>2021-08-21T19:11:50Z</time>
      </trkpt>
      <trkpt lat="2.872526" lon="-75.14032">
        <ele>984.6</ele>
        <time>2021-08-21T19:11:51Z</time>
      </trkpt>
      <trkpt lat="2.872552" lon="-75.14036">
        <ele>984.4</ele>
        <time>2021-08-21T19:11:52Z</time>
      </trkpt>
      <trkpt lat="2.872575" lon="-75.14039">
        <ele>984.3</ele>
        <time>2021-08-21T19:11:53Z</time>
      </trkpt>
      <trkpt lat="2.872597" lon="-75.14043">
        <ele>984.3</ele>
        <time>2021-08-21T19:11:54Z</time>
      </trkpt>
      <trkpt lat="2.872618" lon="-75.140465">
        <ele>984.2</ele>
        <time>2021-08-21T19:11:55Z</time>
      </trkpt>
      <trkpt lat="2.872638" lon="-75.140495">
        <ele>984.2</ele>
        <time>2021-08-21T19:11:56Z</time>
      </trkpt>
      <trkpt lat="2.872658" lon="-75.14053">
        <ele>984.1</ele>
        <time>2021-08-21T19:11:57Z</time>
      </trkpt>
      <trkpt lat="2.872678" lon="-75.140564">
        <ele>984.1</ele>
        <time>2021-08-21T19:11:58Z</time>
      </trkpt>
      <trkpt lat="2.872698" lon="-75.140594">
        <ele>984.1</ele>
        <time>2021-08-21T19:11:59Z</time>
      </trkpt>
      <trkpt lat="2.872719" lon="-75.140625">
        <ele>984.1</ele>
        <time>2021-08-21T19:12:00Z</time>
      </trkpt>
      <trkpt lat="2.872741" lon="-75.140656">
        <ele>984.1</ele>
        <time>2021-08-21T19:12:01Z</time>
      </trkpt>
      <trkpt lat="2.872763" lon="-75.14068">
        <ele>984.1</ele>
        <time>2021-08-21T19:12:02Z</time>
      </trkpt>
      <trkpt lat="2.872789" lon="-75.1407">
        <ele>984.2</ele>
        <time>2021-08-21T19:12:03Z</time>
      </trkpt>
      <trkpt lat="2.872815" lon="-75.140724">
        <ele>984.2</ele>
        <time>2021-08-21T19:12:04Z</time>
      </trkpt>
      <trkpt lat="2.872842" lon="-75.14074">
        <ele>984.2</ele>
        <time>2021-08-21T19:12:05Z</time>
      </trkpt>
      <trkpt lat="2.872869" lon="-75.140755">
        <ele>984.2</ele>
        <time>2021-08-21T19:12:06Z</time>
      </trkpt>
      <trkpt lat="2.872897" lon="-75.14077">
        <ele>984.3</ele>
        <time>2021-08-21T19:12:07Z</time>
      </trkpt>
      <trkpt lat="2.872925" lon="-75.14078">
        <ele>984.3</ele>
        <time>2021-08-21T19:12:08Z</time>
      </trkpt>
      <trkpt lat="2.872952" lon="-75.14079">
        <ele>984.3</ele>
        <time>2021-08-21T19:12:09Z</time>
      </trkpt>
      <trkpt lat="2.872979" lon="-75.1408">
        <ele>984.3</ele>
        <time>2021-08-21T19:12:10Z</time>
      </trkpt>
      <trkpt lat="2.873006" lon="-75.140816">
        <ele>984.3</ele>
        <time>2021-08-21T19:12:11Z</time>
      </trkpt>
      <trkpt lat="2.873032" lon="-75.14082">
        <ele>984.3</ele>
        <time>2021-08-21T19:12:12Z</time>
      </trkpt>
      <trkpt lat="2.873057" lon="-75.14083">
        <ele>984.3</ele>
        <time>2021-08-21T19:12:13Z</time>
      </trkpt>
      <trkpt lat="2.873082" lon="-75.14084">
        <ele>984.3</ele>
        <time>2021-08-21T19:12:14Z</time>
      </trkpt>
      <trkpt lat="2.873106" lon="-75.14085">
        <ele>984.2</ele>
        <time>2021-08-21T19:12:15Z</time>
      </trkpt>
      <trkpt lat="2.873129" lon="-75.140854">
        <ele>984.2</ele>
        <time>2021-08-21T19:12:16Z</time>
      </trkpt>
      <trkpt lat="2.873153" lon="-75.14086">
        <ele>984.1</ele>
        <time>2021-08-21T19:12:17Z</time>
      </trkpt>
      <trkpt lat="2.873178" lon="-75.14087">
        <ele>984.1</ele>
        <time>2021-08-21T19:12:18Z</time>
      </trkpt>
      <trkpt lat="2.873203" lon="-75.14087">
        <ele>984.0</ele>
        <time>2021-08-21T19:12:19Z</time>
      </trkpt>
      <trkpt lat="2.873228" lon="-75.14088">
        <ele>983.9</ele>
        <time>2021-08-21T19:12:20Z</time>
      </trkpt>
      <trkpt lat="2.873252" lon="-75.14088">
        <ele>983.7</ele>
        <time>2021-08-21T19:12:21Z</time>
      </trkpt>
      <trkpt lat="2.873278" lon="-75.14088">
        <ele>983.5</ele>
        <time>2021-08-21T19:12:22Z</time>
      </trkpt>
      <trkpt lat="2.873304" lon="-75.14088">
        <ele>983.3</ele>
        <time>2021-08-21T19:12:23Z</time>
      </trkpt>
      <trkpt lat="2.873331" lon="-75.14088">
        <ele>983.1</ele>
        <time>2021-08-21T19:12:24Z</time>
      </trkpt>
      <trkpt lat="2.873359" lon="-75.14088">
        <ele>982.8</ele>
        <time>2021-08-21T19:12:25Z</time>
      </trkpt>
      <trkpt lat="2.873388" lon="-75.14088">
        <ele>982.5</ele>
        <time>2021-08-21T19:12:26Z</time>
      </trkpt>
      <trkpt lat="2.873417" lon="-75.14088">
        <ele>982.1</ele>
        <time>2021-08-21T19:12:27Z</time>
      </trkpt>
      <trkpt lat="2.873447" lon="-75.14088">
        <ele>981.7</ele>
        <time>2021-08-21T19:12:28Z</time>
      </trkpt>
      <trkpt lat="2.873479" lon="-75.140884">
        <ele>981.2</ele>
        <time>2021-08-21T19:12:29Z</time>
      </trkpt>
      <trkpt lat="2.873514" lon="-75.140884">
        <ele>980.7</ele>
        <time>2021-08-21T19:12:30Z</time>
      </trkpt>
      <trkpt lat="2.873552" lon="-75.14089">
        <ele>980.1</ele>
        <time>2021-08-21T19:12:31Z</time>
      </trkpt>
      <trkpt lat="2.873593" lon="-75.1409">
        <ele>979.5</ele>
        <time>2021-08-21T19:12:32Z</time>
      </trkpt>
      <trkpt lat="2.873636" lon="-75.1409">
        <ele>978.8</ele>
        <time>2021-08-21T19:12:33Z</time>
      </trkpt>
      <trkpt lat="2.873683" lon="-75.14091">
        <ele>978.0</ele>
        <time>2021-08-21T19:12:34Z</time>
      </trkpt>
      <trkpt lat="2.873731" lon="-75.140915">
        <ele>977.3</ele>
        <time>2021-08-21T19:12:35Z</time>
      </trkpt>
      <trkpt lat="2.873782" lon="-75.140915">
        <ele>976.5</ele>
        <time>2021-08-21T19:12:36Z</time>
      </trkpt>
      <trkpt lat="2.873835" lon="-75.14092">
        <ele>975.6</ele>
        <time>2021-08-21T19:12:37Z</time>
      </trkpt>
      <trkpt lat="2.873886" lon="-75.14093">
        <ele>974.8</ele>
        <time>2021-08-21T19:12:38Z</time>
      </trkpt>
      <trkpt lat="2.873936" lon="-75.14094">
        <ele>974.0</ele>
        <time>2021-08-21T19:12:39Z</time>
      </trkpt>
      <trkpt lat="2.873981" lon="-75.14096">
        <ele>973.2</ele>
        <time>2021-08-21T19:12:40Z</time>
      </trkpt>
      <trkpt lat="2.87402" lon="-75.14098">
        <ele>972.5</ele>
        <time>2021-08-21T19:12:41Z</time>
      </trkpt>
      <trkpt lat="2.874051" lon="-75.141014">
        <ele>971.7</ele>
        <time>2021-08-21T19:12:42Z</time>
      </trkpt>
      <trkpt lat="2.874074" lon="-75.14105">
        <ele>970.9</ele>
        <time>2021-08-21T19:12:43Z</time>
      </trkpt>
      <trkpt lat="2.874088" lon="-75.14109">
        <ele>970.2</ele>
        <time>2021-08-21T19:12:44Z</time>
      </trkpt>
      <trkpt lat="2.874092" lon="-75.14113">
        <ele>969.5</ele>
        <time>2021-08-21T19:12:45Z</time>
      </trkpt>
      <trkpt lat="2.874085" lon="-75.141174">
        <ele>968.7</ele>
        <time>2021-08-21T19:12:46Z</time>
      </trkpt>
      <trkpt lat="2.874073" lon="-75.14122">
        <ele>967.8</ele>
        <time>2021-08-21T19:12:47Z</time>
      </trkpt>
      <trkpt lat="2.874058" lon="-75.141266">
        <ele>966.9</ele>
        <time>2021-08-21T19:12:48Z</time>
      </trkpt>
      <trkpt lat="2.874046" lon="-75.14131">
        <ele>966.0</ele>
        <time>2021-08-21T19:12:49Z</time>
      </trkpt>
      <trkpt lat="2.874037" lon="-75.14136">
        <ele>965.1</ele>
        <time>2021-08-21T19:12:50Z</time>
      </trkpt>
      <trkpt lat="2.874036" lon="-75.1414">
        <ele>964.2</ele>
        <time>2021-08-21T19:12:51Z</time>
      </trkpt>
      <trkpt lat="2.874042" lon="-75.14145">
        <ele>963.3</ele>
        <time>2021-08-21T19:12:52Z</time>
      </trkpt>
      <trkpt lat="2.874054" lon="-75.14149">
        <ele>962.5</ele>
        <time>2021-08-21T19:12:53Z</time>
      </trkpt>
      <trkpt lat="2.874073" lon="-75.141525">
        <ele>961.8</ele>
        <time>2021-08-21T19:12:54Z</time>
      </trkpt>
      <trkpt lat="2.874096" lon="-75.14156">
        <ele>961.0</ele>
        <time>2021-08-21T19:12:55Z</time>
      </trkpt>
      <trkpt lat="2.874122" lon="-75.1416">
        <ele>960.3</ele>
        <time>2021-08-21T19:12:56Z</time>
      </trkpt>
      <trkpt lat="2.874151" lon="-75.14164">
        <ele>959.5</ele>
        <time>2021-08-21T19:12:57Z</time>
      </trkpt>
      <trkpt lat="2.874183" lon="-75.14168">
        <ele>958.7</ele>
        <time>2021-08-21T19:12:58Z</time>
      </trkpt>
      <trkpt lat="2.874217" lon="-75.141716">
        <ele>957.9</ele>
        <time>2021-08-21T19:12:59Z</time>
      </trkpt>
      <trkpt lat="2.874252" lon="-75.14175">
        <ele>957.2</ele>
        <time>2021-08-21T19:13:00Z</time>
      </trkpt>
      <trkpt lat="2.87429" lon="-75.14178">
        <ele>956.3</ele>
        <time>2021-08-21T19:13:01Z</time>
      </trkpt>
      <trkpt lat="2.87433" lon="-75.14181">
        <ele>955.6</ele>
        <time>2021-08-21T19:13:02Z</time>
      </trkpt>
      <trkpt lat="2.874369" lon="-75.14183">
        <ele>954.8</ele>
        <time>2021-08-21T19:13:03Z</time>
      </trkpt>
      <trkpt lat="2.874415" lon="-75.14185">
        <ele>954.0</ele>
        <time>2021-08-21T19:13:04Z</time>
      </trkpt>
      <trkpt lat="2.874463" lon="-75.141884">
        <ele>953.2</ele>
        <time>2021-08-21T19:13:05Z</time>
      </trkpt>
      <trkpt lat="2.874512" lon="-75.14191">
        <ele>952.4</ele>
        <time>2021-08-21T19:13:06Z</time>
      </trkpt>
      <trkpt lat="2.874561" lon="-75.14193">
        <ele>951.6</ele>
        <time>2021-08-21T19:13:07Z</time>
      </trkpt>
      <trkpt lat="2.874609" lon="-75.14196">
        <ele>950.7</ele>
        <time>2021-08-21T19:13:08Z</time>
      </trkpt>
      <trkpt lat="2.874657" lon="-75.14199">
        <ele>949.9</ele>
        <time>2021-08-21T19:13:09Z</time>
      </trkpt>
      <trkpt lat="2.874704" lon="-75.14203">
        <ele>949.1</ele>
        <time>2021-08-21T19:13:10Z</time>
      </trkpt>
      <trkpt lat="2.8749" lon="-75.14213">
        <ele>945.8</ele>
        <time>2021-08-21T19:13:12Z</time>
      </trkpt>
      <trkpt lat="2.874912" lon="-75.14213">
        <ele>945.6</ele>
        <time>2021-08-21T19:13:13Z</time>
      </trkpt>
      <trkpt lat="2.874938" lon="-75.142136">
        <ele>945.2</ele>
        <time>2021-08-21T19:13:14Z</time>
      </trkpt>
      <trkpt lat="2.874974" lon="-75.142136">
        <ele>944.7</ele>
        <time>2021-08-21T19:13:15Z</time>
      </trkpt>
      <trkpt lat="2.875017" lon="-75.14213">
        <ele>944.1</ele>
        <time>2021-08-21T19:13:16Z</time>
      </trkpt>
      <trkpt lat="2.875064" lon="-75.14212">
        <ele>943.4</ele>
        <time>2021-08-21T19:13:17Z</time>
      </trkpt>
      <trkpt lat="2.875112" lon="-75.142105">
        <ele>942.7</ele>
        <time>2021-08-21T19:13:18Z</time>
      </trkpt>
      <trkpt lat="2.875161" lon="-75.14209">
        <ele>942.0</ele>
        <time>2021-08-21T19:13:19Z</time>
      </trkpt>
      <trkpt lat="2.875207" lon="-75.142075">
        <ele>941.8</ele>
        <time>2021-08-21T19:13:20Z</time>
      </trkpt>
      <trkpt lat="2.875253" lon="-75.14205">
        <ele>941.7</ele>
        <time>2021-08-21T19:13:21Z</time>
      </trkpt>
      <trkpt lat="2.875298" lon="-75.14203">
        <ele>941.6</ele>
        <time>2021-08-21T19:13:22Z</time>
      </trkpt>
      <trkpt lat="2.875342" lon="-75.142">
        <ele>941.5</ele>
        <time>2021-08-21T19:13:23Z</time>
      </trkpt>
      <trkpt lat="2.875386" lon="-75.141975">
        <ele>941.4</ele>
        <time>2021-08-21T19:13:24Z</time>
      </trkpt>
      <trkpt lat="2.87543" lon="-75.141945">
        <ele>941.3</ele>
        <time>2021-08-21T19:13:25Z</time>
      </trkpt>
      <trkpt lat="2.875474" lon="-75.141914">
        <ele>941.2</ele>
        <time>2021-08-21T19:13:26Z</time>
      </trkpt>
      <trkpt lat="2.875518" lon="-75.14189">
        <ele>941.1</ele>
        <time>2021-08-21T19:13:27Z</time>
      </trkpt>
      <trkpt lat="2.875563" lon="-75.14185">
        <ele>941.0</ele>
        <time>2021-08-21T19:13:28Z</time>
      </trkpt>
      <trkpt lat="2.87561" lon="-75.14182">
        <ele>940.9</ele>
        <time>2021-08-21T19:13:29Z</time>
      </trkpt>
      <trkpt lat="2.875658" lon="-75.14179">
        <ele>940.8</ele>
        <time>2021-08-21T19:13:30Z</time>
      </trkpt>
      <trkpt lat="2.875707" lon="-75.14177">
        <ele>940.7</ele>
        <time>2021-08-21T19:13:31Z</time>
      </trkpt>
      <trkpt lat="2.875756" lon="-75.14174">
        <ele>940.6</ele>
        <time>2021-08-21T19:13:32Z</time>
      </trkpt>
      <trkpt lat="2.875806" lon="-75.14171">
        <ele>940.5</ele>
        <time>2021-08-21T19:13:33Z</time>
      </trkpt>
      <trkpt lat="2.875857" lon="-75.141685">
        <ele>940.3</ele>
        <time>2021-08-21T19:13:34Z</time>
      </trkpt>
      <trkpt lat="2.875908" lon="-75.141655">
        <ele>940.2</ele>
        <time>2021-08-21T19:13:35Z</time>
      </trkpt>
      <trkpt lat="2.875957" lon="-75.141624">
        <ele>940.1</ele>
        <time>2021-08-21T19:13:36Z</time>
      </trkpt>
      <trkpt lat="2.876007" lon="-75.14159">
        <ele>939.9</ele>
        <time>2021-08-21T19:13:37Z</time>
      </trkpt>
      <trkpt lat="2.876055" lon="-75.14155">
        <ele>939.7</ele>
        <time>2021-08-21T19:13:37Z</time>
      </trkpt>
      <trkpt lat="2.876103" lon="-75.14151">
        <ele>939.5</ele>
        <time>2021-08-21T19:13:38Z</time>
      </trkpt>
      <trkpt lat="2.87615" lon="-75.14147">
        <ele>939.3</ele>
        <time>2021-08-21T19:13:39Z</time>
      </trkpt>
      <trkpt lat="2.876193" lon="-75.14143">
        <ele>939.1</ele>
        <time>2021-08-21T19:13:41Z</time>
      </trkpt>
      <trkpt lat="2.87625" lon="-75.14138">
        <ele>938.8</ele>
        <time>2021-08-21T19:13:42Z</time>
      </trkpt>
      <trkpt lat="2.876301" lon="-75.141335">
        <ele>938.7</ele>
        <time>2021-08-21T19:13:43Z</time>
      </trkpt>
      <trkpt lat="2.87635" lon="-75.14129">
        <ele>938.5</ele>
        <time>2021-08-21T19:13:44Z</time>
      </trkpt>
      <trkpt lat="2.876396" lon="-75.14125">
        <ele>938.4</ele>
        <time>2021-08-21T19:13:45Z</time>
      </trkpt>
      <trkpt lat="2.876443" lon="-75.141205">
        <ele>938.3</ele>
        <time>2021-08-21T19:13:46Z</time>
      </trkpt>
      <trkpt lat="2.876491" lon="-75.141174">
        <ele>938.2</ele>
        <time>2021-08-21T19:13:47Z</time>
      </trkpt>
      <trkpt lat="2.87654" lon="-75.14114">
        <ele>938.0</ele>
        <time>2021-08-21T19:13:48Z</time>
      </trkpt>
      <trkpt lat="2.876591" lon="-75.14111">
        <ele>937.9</ele>
        <time>2021-08-21T19:13:49Z</time>
      </trkpt>
      <trkpt lat="2.876642" lon="-75.14109">
        <ele>937.8</ele>
        <time>2021-08-21T19:13:50Z</time>
      </trkpt>
      <trkpt lat="2.876693" lon="-75.14107">
        <ele>937.7</ele>
        <time>2021-08-21T19:13:51Z</time>
      </trkpt>
      <trkpt lat="2.876745" lon="-75.14104">
        <ele>937.6</ele>
        <time>2021-08-21T19:13:52Z</time>
      </trkpt>
      <trkpt lat="2.876795" lon="-75.14101">
        <ele>937.6</ele>
        <time>2021-08-21T19:13:53Z</time>
      </trkpt>
      <trkpt lat="2.876847" lon="-75.140976">
        <ele>937.5</ele>
        <time>2021-08-21T19:13:54Z</time>
      </trkpt>
      <trkpt lat="2.876899" lon="-75.140945">
        <ele>937.4</ele>
        <time>2021-08-21T19:13:55Z</time>
      </trkpt>
      <trkpt lat="2.876951" lon="-75.140915">
        <ele>937.3</ele>
        <time>2021-08-21T19:13:56Z</time>
      </trkpt>
      <trkpt lat="2.877003" lon="-75.140884">
        <ele>937.3</ele>
        <time>2021-08-21T19:13:57Z</time>
      </trkpt>
      <trkpt lat="2.877051" lon="-75.140854">
        <ele>937.2</ele>
        <time>2021-08-21T19:13:58Z</time>
      </trkpt>
      <trkpt lat="2.877096" lon="-75.140816">
        <ele>937.2</ele>
        <time>2021-08-21T19:13:59Z</time>
      </trkpt>
      <trkpt lat="2.877135" lon="-75.14078">
        <ele>937.1</ele>
        <time>2021-08-21T19:14:00Z</time>
      </trkpt>
      <trkpt lat="2.877168" lon="-75.14074">
        <ele>937.1</ele>
        <time>2021-08-21T19:14:01Z</time>
      </trkpt>
      <trkpt lat="2.877197" lon="-75.14069">
        <ele>937.1</ele>
        <time>2021-08-21T19:14:02Z</time>
      </trkpt>
      <trkpt lat="2.877221" lon="-75.14064">
        <ele>937.0</ele>
        <time>2021-08-21T19:14:03Z</time>
      </trkpt>
      <trkpt lat="2.877244" lon="-75.14059">
        <ele>937.0</ele>
        <time>2021-08-21T19:14:04Z</time>
      </trkpt>
      <trkpt lat="2.877266" lon="-75.14053">
        <ele>937.0</ele>
        <time>2021-08-21T19:14:05Z</time>
      </trkpt>
      <trkpt lat="2.877288" lon="-75.14048">
        <ele>937.0</ele>
        <time>2021-08-21T19:14:06Z</time>
      </trkpt>
      <trkpt lat="2.877309" lon="-75.14043">
        <ele>937.0</ele>
        <time>2021-08-21T19:14:07Z</time>
      </trkpt>
      <trkpt lat="2.877329" lon="-75.14037">
        <ele>937.0</ele>
        <time>2021-08-21T19:14:08Z</time>
      </trkpt>
      <trkpt lat="2.877348" lon="-75.14031">
        <ele>936.9</ele>
        <time>2021-08-21T19:14:09Z</time>
      </trkpt>
      <trkpt lat="2.877367" lon="-75.14026">
        <ele>936.9</ele>
        <time>2021-08-21T19:14:10Z</time>
      </trkpt>
      <trkpt lat="2.877386" lon="-75.1402">
        <ele>936.9</ele>
        <time>2021-08-21T19:14:11Z</time>
      </trkpt>
      <trkpt lat="2.877404" lon="-75.140144">
        <ele>936.9</ele>
        <time>2021-08-21T19:14:12Z</time>
      </trkpt>
      <trkpt lat="2.877423" lon="-75.14008">
        <ele>936.9</ele>
        <time>2021-08-21T19:14:13Z</time>
      </trkpt>
      <trkpt lat="2.877442" lon="-75.140015">
        <ele>936.9</ele>
        <time>2021-08-21T19:14:14Z</time>
      </trkpt>
      <trkpt lat="2.87746" lon="-75.13995">
        <ele>936.9</ele>
        <time>2021-08-21T19:14:15Z</time>
      </trkpt>
      <trkpt lat="2.877478" lon="-75.13989">
        <ele>936.9</ele>
        <time>2021-08-21T19:14:16Z</time>
      </trkpt>
      <trkpt lat="2.877495" lon="-75.13983">
        <ele>936.9</ele>
        <time>2021-08-21T19:14:17Z</time>
      </trkpt>
      <trkpt lat="2.877513" lon="-75.13977">
        <ele>936.9</ele>
        <time>2021-08-21T19:14:18Z</time>
      </trkpt>
      <trkpt lat="2.877536" lon="-75.13971">
        <ele>936.9</ele>
        <time>2021-08-21T19:14:19Z</time>
      </trkpt>
      <trkpt lat="2.877565" lon="-75.139656">
        <ele>937.0</ele>
        <time>2021-08-21T19:14:20Z</time>
      </trkpt>
      <trkpt lat="2.877601" lon="-75.13961">
        <ele>937.0</ele>
        <time>2021-08-21T19:14:21Z</time>
      </trkpt>
      <trkpt lat="2.877642" lon="-75.139565">
        <ele>937.0</ele>
        <time>2021-08-21T19:14:22Z</time>
      </trkpt>
      <trkpt lat="2.877685" lon="-75.13951">
        <ele>936.9</ele>
        <time>2021-08-21T19:14:23Z</time>
      </trkpt>
      <trkpt lat="2.877728" lon="-75.139465">
        <ele>936.4</ele>
        <time>2021-08-21T19:14:24Z</time>
      </trkpt>
      <trkpt lat="2.877774" lon="-75.13941">
        <ele>936.0</ele>
        <time>2021-08-21T19:14:25Z</time>
      </trkpt>
      <trkpt lat="2.877819" lon="-75.13936">
        <ele>935.6</ele>
        <time>2021-08-21T19:14:26Z</time>
      </trkpt>
      <trkpt lat="2.877865" lon="-75.139305">
        <ele>935.2</ele>
        <time>2021-08-21T19:14:27Z</time>
      </trkpt>
      <trkpt lat="2.877908" lon="-75.13926">
        <ele>934.8</ele>
        <time>2021-08-21T19:14:28Z</time>
      </trkpt>
      <trkpt lat="2.877943" lon="-75.139206">
        <ele>934.4</ele>
        <time>2021-08-21T19:14:29Z</time>
      </trkpt>
      <trkpt lat="2.877968" lon="-75.13915">
        <ele>933.9</ele>
        <time>2021-08-21T19:14:30Z</time>
      </trkpt>
      <trkpt lat="2.877982" lon="-75.13909">
        <ele>933.5</ele>
        <time>2021-08-21T19:14:31Z</time>
      </trkpt>
      <trkpt lat="2.877982" lon="-75.13904">
        <ele>933.1</ele>
        <time>2021-08-21T19:14:32Z</time>
      </trkpt>
      <trkpt lat="2.877971" lon="-75.13899">
        <ele>932.7</ele>
        <time>2021-08-21T19:14:33Z</time>
      </trkpt>
      <trkpt lat="2.877958" lon="-75.13894">
        <ele>932.4</ele>
        <time>2021-08-21T19:14:34Z</time>
      </trkpt>
      <trkpt lat="2.877948" lon="-75.13889">
        <ele>932.0</ele>
        <time>2021-08-21T19:14:35Z</time>
      </trkpt>
      <trkpt lat="2.877949" lon="-75.13885">
        <ele>931.6</ele>
        <time>2021-08-21T19:14:36Z</time>
      </trkpt>
      <trkpt lat="2.877965" lon="-75.13881">
        <ele>931.3</ele>
        <time>2021-08-21T19:14:37Z</time>
      </trkpt>
      <trkpt lat="2.877997" lon="-75.13879">
        <ele>930.9</ele>
        <time>2021-08-21T19:14:38Z</time>
      </trkpt>
      <trkpt lat="2.878042" lon="-75.13877">
        <ele>930.5</ele>
        <time>2021-08-21T19:14:39Z</time>
      </trkpt>
      <trkpt lat="2.878095" lon="-75.13876">
        <ele>930.0</ele>
        <time>2021-08-21T19:14:40Z</time>
      </trkpt>
      <trkpt lat="2.878153" lon="-75.138756">
        <ele>929.5</ele>
        <time>2021-08-21T19:14:41Z</time>
      </trkpt>
      <trkpt lat="2.878217" lon="-75.13875">
        <ele>928.9</ele>
        <time>2021-08-21T19:14:42Z</time>
      </trkpt>
      <trkpt lat="2.878277" lon="-75.13873">
        <ele>928.4</ele>
        <time>2021-08-21T19:14:43Z</time>
      </trkpt>
      <trkpt lat="2.878336" lon="-75.13871">
        <ele>927.9</ele>
        <time>2021-08-21T19:14:44Z</time>
      </trkpt>
      <trkpt lat="2.878394" lon="-75.13868">
        <ele>927.4</ele>
        <time>2021-08-21T19:14:45Z</time>
      </trkpt>
      <trkpt lat="2.87845" lon="-75.13864">
        <ele>926.8</ele>
        <time>2021-08-21T19:14:46Z</time>
      </trkpt>
      <trkpt lat="2.878504" lon="-75.138596">
        <ele>926.3</ele>
        <time>2021-08-21T19:14:47Z</time>
      </trkpt>
      <trkpt lat="2.878551" lon="-75.13854">
        <ele>925.8</ele>
        <time>2021-08-21T19:14:48Z</time>
      </trkpt>
      <trkpt lat="2.878594" lon="-75.13849">
        <ele>925.3</ele>
        <time>2021-08-21T19:14:49Z</time>
      </trkpt>
      <trkpt lat="2.878639" lon="-75.13843">
        <ele>924.8</ele>
        <time>2021-08-21T19:14:50Z</time>
      </trkpt>
      <trkpt lat="2.878688" lon="-75.13837">
        <ele>924.3</ele>
        <time>2021-08-21T19:14:51Z</time>
      </trkpt>
      <trkpt lat="2.878739" lon="-75.138306">
        <ele>923.9</ele>
        <time>2021-08-21T19:14:52Z</time>
      </trkpt>
      <trkpt lat="2.878787" lon="-75.13827">
        <ele>923.5</ele>
        <time>2021-08-21T19:14:53Z</time>
      </trkpt>
      <trkpt lat="2.878838" lon="-75.13823">
        <ele>923.2</ele>
        <time>2021-08-21T19:14:54Z</time>
      </trkpt>
      <trkpt lat="2.878894" lon="-75.1382">
        <ele>922.9</ele>
        <time>2021-08-21T19:14:55Z</time>
      </trkpt>
      <trkpt lat="2.878947" lon="-75.138176">
        <ele>922.6</ele>
        <time>2021-08-21T19:14:56Z</time>
      </trkpt>
      <trkpt lat="2.878995" lon="-75.13816">
        <ele>922.3</ele>
        <time>2021-08-21T19:14:57Z</time>
      </trkpt>
      <trkpt lat="2.879042" lon="-75.138145">
        <ele>922.0</ele>
        <time>2021-08-21T19:14:58Z</time>
      </trkpt>
      <trkpt lat="2.879095" lon="-75.13814">
        <ele>921.7</ele>
        <time>2021-08-21T19:14:59Z</time>
      </trkpt>
      <trkpt lat="2.879145" lon="-75.138145">
        <ele>921.5</ele>
        <time>2021-08-21T19:15:00Z</time>
      </trkpt>
      <trkpt lat="2.879193" lon="-75.13815">
        <ele>921.2</ele>
        <time>2021-08-21T19:15:01Z</time>
      </trkpt>
      <trkpt lat="2.879235" lon="-75.138176">
        <ele>921.0</ele>
        <time>2021-08-21T19:15:02Z</time>
      </trkpt>
      <trkpt lat="2.879268" lon="-75.1382">
        <ele>920.9</ele>
        <time>2021-08-21T19:15:03Z</time>
      </trkpt>
      <trkpt lat="2.879294" lon="-75.13824">
        <ele>920.7</ele>
        <time>2021-08-21T19:15:04Z</time>
      </trkpt>
      <trkpt lat="2.879308" lon="-75.138275">
        <ele>920.6</ele>
        <time>2021-08-21T19:15:05Z</time>
      </trkpt>
      <trkpt lat="2.879312" lon="-75.13831">
        <ele>920.5</ele>
        <time>2021-08-21T19:15:06Z</time>
      </trkpt>
      <trkpt lat="2.87931" lon="-75.13836">
        <ele>920.4</ele>
        <time>2021-08-21T19:15:07Z</time>
      </trkpt>
      <trkpt lat="2.879304" lon="-75.1384">
        <ele>920.4</ele>
        <time>2021-08-21T19:15:08Z</time>
      </trkpt>
      <trkpt lat="2.879298" lon="-75.13844">
        <ele>920.4</ele>
        <time>2021-08-21T19:15:09Z</time>
      </trkpt>
      <trkpt lat="2.879293" lon="-75.13849">
        <ele>920.4</ele>
        <time>2021-08-21T19:15:10Z</time>
      </trkpt>
      <trkpt lat="2.879288" lon="-75.13853">
        <ele>920.4</ele>
        <time>2021-08-21T19:15:11Z</time>
      </trkpt>
      <trkpt lat="2.879286" lon="-75.138565">
        <ele>920.5</ele>
        <time>2021-08-21T19:15:12Z</time>
      </trkpt>
      <trkpt lat="2.879288" lon="-75.138596">
        <ele>920.5</ele>
        <time>2021-08-21T19:15:13Z</time>
      </trkpt>
      <trkpt lat="2.879294" lon="-75.13863">
        <ele>920.6</ele>
        <time>2021-08-21T19:15:14Z</time>
      </trkpt>
      <trkpt lat="2.879303" lon="-75.13867">
        <ele>920.7</ele>
        <time>2021-08-21T19:15:15Z</time>
      </trkpt>
      <trkpt lat="2.879346" lon="-75.138794">
        <ele>921.1</ele>
        <time>2021-08-21T19:15:17Z</time>
      </trkpt>
      <trkpt lat="2.879349" lon="-75.1388">
        <ele>921.1</ele>
        <time>2021-08-21T19:15:18Z</time>
      </trkpt>
      <trkpt lat="2.879355" lon="-75.13882">
        <ele>921.2</ele>
        <time>2021-08-21T19:15:19Z</time>
      </trkpt>
      <trkpt lat="2.879366" lon="-75.13883">
        <ele>921.2</ele>
        <time>2021-08-21T19:15:20Z</time>
      </trkpt>
      <trkpt lat="2.879379" lon="-75.138855">
        <ele>921.3</ele>
        <time>2021-08-21T19:15:21Z</time>
      </trkpt>
      <trkpt lat="2.879394" lon="-75.138885">
        <ele>921.4</ele>
        <time>2021-08-21T19:15:22Z</time>
      </trkpt>
      <trkpt lat="2.879408" lon="-75.13891">
        <ele>921.5</ele>
        <time>2021-08-21T19:15:23Z</time>
      </trkpt>
      <trkpt lat="2.879422" lon="-75.13893">
        <ele>921.6</ele>
        <time>2021-08-21T19:15:24Z</time>
      </trkpt>
      <trkpt lat="2.879436" lon="-75.13896">
        <ele>921.8</ele>
        <time>2021-08-21T19:15:25Z</time>
      </trkpt>
      <trkpt lat="2.87945" lon="-75.13899">
        <ele>921.9</ele>
        <time>2021-08-21T19:15:26Z</time>
      </trkpt>
      <trkpt lat="2.879463" lon="-75.13902">
        <ele>922.0</ele>
        <time>2021-08-21T19:15:27Z</time>
      </trkpt>
      <trkpt lat="2.879476" lon="-75.13905">
        <ele>922.1</ele>
        <time>2021-08-21T19:15:28Z</time>
      </trkpt>
      <trkpt lat="2.879488" lon="-75.139084">
        <ele>922.3</ele>
        <time>2021-08-21T19:15:29Z</time>
      </trkpt>
      <trkpt lat="2.879528" lon="-75.1392">
        <ele>922.8</ele>
        <time>2021-08-21T19:15:31Z</time>
      </trkpt>
      <trkpt lat="2.879531" lon="-75.139206">
        <ele>922.9</ele>
        <time>2021-08-21T19:15:32Z</time>
      </trkpt>
      <trkpt lat="2.879535" lon="-75.13921">
        <ele>922.9</ele>
        <time>2021-08-21T19:15:33Z</time>
      </trkpt>
      <trkpt lat="2.879539" lon="-75.13924">
        <ele>923.0</ele>
        <time>2021-08-21T19:15:34Z</time>
      </trkpt>
      <trkpt lat="2.879546" lon="-75.13925">
        <ele>923.1</ele>
        <time>2021-08-21T19:15:35Z</time>
      </trkpt>
      <trkpt lat="2.879553" lon="-75.139275">
        <ele>923.2</ele>
        <time>2021-08-21T19:15:36Z</time>
      </trkpt>
      <trkpt lat="2.87956" lon="-75.1393">
        <ele>923.3</ele>
        <time>2021-08-21T19:15:37Z</time>
      </trkpt>
      <trkpt lat="2.879568" lon="-75.13932">
        <ele>923.5</ele>
        <time>2021-08-21T19:15:38Z</time>
      </trkpt>
      <trkpt lat="2.879577" lon="-75.13935">
        <ele>923.6</ele>
        <time>2021-08-21T19:15:39Z</time>
      </trkpt>
      <trkpt lat="2.879589" lon="-75.13937">
        <ele>923.7</ele>
        <time>2021-08-21T19:15:40Z</time>
      </trkpt>
      <trkpt lat="2.879604" lon="-75.139404">
        <ele>923.8</ele>
        <time>2021-08-21T19:15:41Z</time>
      </trkpt>
      <trkpt lat="2.879621" lon="-75.13943">
        <ele>923.9</ele>
        <time>2021-08-21T19:15:42Z</time>
      </trkpt>
      <trkpt lat="2.879641" lon="-75.13946">
        <ele>924.0</ele>
        <time>2021-08-21T19:15:43Z</time>
      </trkpt>
      <trkpt lat="2.879663" lon="-75.13948">
        <ele>924.1</ele>
        <time>2021-08-21T19:15:44Z</time>
      </trkpt>
      <trkpt lat="2.879686" lon="-75.13951">
        <ele>924.2</ele>
        <time>2021-08-21T19:15:45Z</time>
      </trkpt>
      <trkpt lat="2.879709" lon="-75.13954">
        <ele>924.3</ele>
        <time>2021-08-21T19:15:46Z</time>
      </trkpt>
      <trkpt lat="2.87973" lon="-75.13957">
        <ele>924.3</ele>
        <time>2021-08-21T19:15:47Z</time>
      </trkpt>
      <trkpt lat="2.87975" lon="-75.1396">
        <ele>924.4</ele>
        <time>2021-08-21T19:15:48Z</time>
      </trkpt>
      <trkpt lat="2.879765" lon="-75.13964">
        <ele>924.4</ele>
        <time>2021-08-21T19:15:49Z</time>
      </trkpt>
      <trkpt lat="2.879776" lon="-75.13968">
        <ele>924.4</ele>
        <time>2021-08-21T19:15:50Z</time>
      </trkpt>
      <trkpt lat="2.879784" lon="-75.13972">
        <ele>924.4</ele>
        <time>2021-08-21T19:15:51Z</time>
      </trkpt>
      <trkpt lat="2.879789" lon="-75.139755">
        <ele>924.4</ele>
        <time>2021-08-21T19:15:52Z</time>
      </trkpt>
      <trkpt lat="2.879794" lon="-75.13979">
        <ele>924.4</ele>
        <time>2021-08-21T19:15:53Z</time>
      </trkpt>
      <trkpt lat="2.879798" lon="-75.139824">
        <ele>924.5</ele>
        <time>2021-08-21T19:15:54Z</time>
      </trkpt>
      <trkpt lat="2.879801" lon="-75.13986">
        <ele>924.6</ele>
        <time>2021-08-21T19:15:55Z</time>
      </trkpt>
      <trkpt lat="2.879802" lon="-75.1399">
        <ele>924.6</ele>
        <time>2021-08-21T19:15:56Z</time>
      </trkpt>
      <trkpt lat="2.879801" lon="-75.13994">
        <ele>924.7</ele>
        <time>2021-08-21T19:15:57Z</time>
      </trkpt>
      <trkpt lat="2.879803" lon="-75.13998">
        <ele>924.8</ele>
        <time>2021-08-21T19:15:58Z</time>
      </trkpt>
      <trkpt lat="2.879806" lon="-75.14001">
        <ele>924.9</ele>
        <time>2021-08-21T19:15:59Z</time>
      </trkpt>
      <trkpt lat="2.879812" lon="-75.140045">
        <ele>925.0</ele>
        <time>2021-08-21T19:16:00Z</time>
      </trkpt>
      <trkpt lat="2.879817" lon="-75.140076">
        <ele>925.1</ele>
        <time>2021-08-21T19:16:01Z</time>
      </trkpt>
      <trkpt lat="2.879822" lon="-75.14011">
        <ele>925.2</ele>
        <time>2021-08-21T19:16:02Z</time>
      </trkpt>
      <trkpt lat="2.879825" lon="-75.14013">
        <ele>925.3</ele>
        <time>2021-08-21T19:16:03Z</time>
      </trkpt>
      <trkpt lat="2.879826" lon="-75.14016">
        <ele>925.4</ele>
        <time>2021-08-21T19:16:04Z</time>
      </trkpt>
      <trkpt lat="2.879828" lon="-75.14018">
        <ele>925.4</ele>
        <time>2021-08-21T19:16:05Z</time>
      </trkpt>
      <trkpt lat="2.87983" lon="-75.140205">
        <ele>925.5</ele>
        <time>2021-08-21T19:16:06Z</time>
      </trkpt>
      <trkpt lat="2.879834" lon="-75.140236">
        <ele>925.5</ele>
        <time>2021-08-21T19:16:07Z</time>
      </trkpt>
      <trkpt lat="2.879837" lon="-75.14026">
        <ele>925.6</ele>
        <time>2021-08-21T19:16:08Z</time>
      </trkpt>
      <trkpt lat="2.879839" lon="-75.14028">
        <ele>925.6</ele>
        <time>2021-08-21T19:16:09Z</time>
      </trkpt>
      <trkpt lat="2.87984" lon="-75.14031">
        <ele>925.7</ele>
        <time>2021-08-21T19:16:10Z</time>
      </trkpt>
      <trkpt lat="2.879841" lon="-75.14034">
        <ele>925.7</ele>
        <time>2021-08-21T19:16:11Z</time>
      </trkpt>
      <trkpt lat="2.879841" lon="-75.140366">
        <ele>925.7</ele>
        <time>2021-08-21T19:16:12Z</time>
      </trkpt>
      <trkpt lat="2.879842" lon="-75.140396">
        <ele>925.8</ele>
        <time>2021-08-21T19:16:13Z</time>
      </trkpt>
      <trkpt lat="2.879842" lon="-75.14042">
        <ele>925.8</ele>
        <time>2021-08-21T19:16:14Z</time>
      </trkpt>
      <trkpt lat="2.87984" lon="-75.14045">
        <ele>925.8</ele>
        <time>2021-08-21T19:16:15Z</time>
      </trkpt>
      <trkpt lat="2.879837" lon="-75.14047">
        <ele>925.8</ele>
        <time>2021-08-21T19:16:16Z</time>
      </trkpt>
      <trkpt lat="2.879835" lon="-75.1405">
        <ele>925.8</ele>
        <time>2021-08-21T19:16:17Z</time>
      </trkpt>
      <trkpt lat="2.879832" lon="-75.140526">
        <ele>925.8</ele>
        <time>2021-08-21T19:16:18Z</time>
      </trkpt>
      <trkpt lat="2.879834" lon="-75.14056">
        <ele>925.7</ele>
        <time>2021-08-21T19:16:19Z</time>
      </trkpt>
      <trkpt lat="2.879837" lon="-75.14058">
        <ele>925.7</ele>
        <time>2021-08-21T19:16:20Z</time>
      </trkpt>
      <trkpt lat="2.879841" lon="-75.14061">
        <ele>925.6</ele>
        <time>2021-08-21T19:16:21Z</time>
      </trkpt>
      <trkpt lat="2.879845" lon="-75.14064">
        <ele>925.6</ele>
        <time>2021-08-21T19:16:22Z</time>
      </trkpt>
      <trkpt lat="2.879848" lon="-75.14068">
        <ele>925.4</ele>
        <time>2021-08-21T19:16:23Z</time>
      </trkpt>
      <trkpt lat="2.879852" lon="-75.14071">
        <ele>925.3</ele>
        <time>2021-08-21T19:16:24Z</time>
      </trkpt>
      <trkpt lat="2.879855" lon="-75.14075">
        <ele>925.2</ele>
        <time>2021-08-21T19:16:25Z</time>
      </trkpt>
      <trkpt lat="2.879857" lon="-75.140785">
        <ele>925.0</ele>
        <time>2021-08-21T19:16:26Z</time>
      </trkpt>
      <trkpt lat="2.879857" lon="-75.14082">
        <ele>924.8</ele>
        <time>2021-08-21T19:16:27Z</time>
      </trkpt>
      <trkpt lat="2.879856" lon="-75.14087">
        <ele>924.6</ele>
        <time>2021-08-21T19:16:28Z</time>
      </trkpt>
      <trkpt lat="2.87986" lon="-75.14091">
        <ele>924.3</ele>
        <time>2021-08-21T19:16:29Z</time>
      </trkpt>
      <trkpt lat="2.879862" lon="-75.14095">
        <ele>924.1</ele>
        <time>2021-08-21T19:16:30Z</time>
      </trkpt>
      <trkpt lat="2.879862" lon="-75.14099">
        <ele>923.9</ele>
        <time>2021-08-21T19:16:31Z</time>
      </trkpt>
      <trkpt lat="2.879863" lon="-75.14104">
        <ele>923.7</ele>
        <time>2021-08-21T19:16:32Z</time>
      </trkpt>
      <trkpt lat="2.879861" lon="-75.14108">
        <ele>923.4</ele>
        <time>2021-08-21T19:16:33Z</time>
      </trkpt>
      <trkpt lat="2.879856" lon="-75.14113">
        <ele>923.1</ele>
        <time>2021-08-21T19:16:34Z</time>
      </trkpt>
      <trkpt lat="2.879851" lon="-75.141174">
        <ele>922.9</ele>
        <time>2021-08-21T19:16:35Z</time>
      </trkpt>
      <trkpt lat="2.879844" lon="-75.14123">
        <ele>922.6</ele>
        <time>2021-08-21T19:16:36Z</time>
      </trkpt>
      <trkpt lat="2.879838" lon="-75.14127">
        <ele>922.3</ele>
        <time>2021-08-21T19:16:37Z</time>
      </trkpt>
      <trkpt lat="2.879831" lon="-75.14132">
        <ele>922.0</ele>
        <time>2021-08-21T19:16:38Z</time>
      </trkpt>
      <trkpt lat="2.879823" lon="-75.14136">
        <ele>921.7</ele>
        <time>2021-08-21T19:16:39Z</time>
      </trkpt>
      <trkpt lat="2.879815" lon="-75.14141">
        <ele>921.3</ele>
        <time>2021-08-21T19:16:40Z</time>
      </trkpt>
      <trkpt lat="2.879806" lon="-75.14146">
        <ele>921.0</ele>
        <time>2021-08-21T19:16:41Z</time>
      </trkpt>
      <trkpt lat="2.879795" lon="-75.14151">
        <ele>920.5</ele>
        <time>2021-08-21T19:16:42Z</time>
      </trkpt>
      <trkpt lat="2.879783" lon="-75.14157">
        <ele>920.1</ele>
        <time>2021-08-21T19:16:43Z</time>
      </trkpt>
      <trkpt lat="2.879771" lon="-75.141624">
        <ele>919.7</ele>
        <time>2021-08-21T19:16:44Z</time>
      </trkpt>
      <trkpt lat="2.879759" lon="-75.141685">
        <ele>919.2</ele>
        <time>2021-08-21T19:16:45Z</time>
      </trkpt>
      <trkpt lat="2.879747" lon="-75.14175">
        <ele>918.8</ele>
        <time>2021-08-21T19:16:46Z</time>
      </trkpt>
      <trkpt lat="2.879737" lon="-75.1418">
        <ele>918.4</ele>
        <time>2021-08-21T19:16:47Z</time>
      </trkpt>
      <trkpt lat="2.879727" lon="-75.14185">
        <ele>918.0</ele>
        <time>2021-08-21T19:16:48Z</time>
      </trkpt>
      <trkpt lat="2.879717" lon="-75.14191">
        <ele>917.6</ele>
        <time>2021-08-21T19:16:49Z</time>
      </trkpt>
      <trkpt lat="2.879708" lon="-75.14197">
        <ele>917.1</ele>
        <time>2021-08-21T19:16:50Z</time>
      </trkpt>
      <trkpt lat="2.879699" lon="-75.14202">
        <ele>916.6</ele>
        <time>2021-08-21T19:16:51Z</time>
      </trkpt>
      <trkpt lat="2.879692" lon="-75.142075">
        <ele>916.2</ele>
        <time>2021-08-21T19:16:52Z</time>
      </trkpt>
      <trkpt lat="2.879689" lon="-75.142136">
        <ele>915.6</ele>
        <time>2021-08-21T19:16:53Z</time>
      </trkpt>
      <trkpt lat="2.879692" lon="-75.14219">
        <ele>915.1</ele>
        <time>2021-08-21T19:16:54Z</time>
      </trkpt>
      <trkpt lat="2.879702" lon="-75.14224">
        <ele>914.6</ele>
        <time>2021-08-21T19:16:55Z</time>
      </trkpt>
      <trkpt lat="2.879719" lon="-75.142296">
        <ele>914.2</ele>
        <time>2021-08-21T19:16:56Z</time>
      </trkpt>
      <trkpt lat="2.879738" lon="-75.14235">
        <ele>913.7</ele>
        <time>2021-08-21T19:16:57Z</time>
      </trkpt>
      <trkpt lat="2.879762" lon="-75.14241">
        <ele>913.2</ele>
        <time>2021-08-21T19:16:58Z</time>
      </trkpt>
      <trkpt lat="2.879782" lon="-75.14246">
        <ele>912.8</ele>
        <time>2021-08-21T19:16:59Z</time>
      </trkpt>
      <trkpt lat="2.879798" lon="-75.14252">
        <ele>912.4</ele>
        <time>2021-08-21T19:17:00Z</time>
      </trkpt>
      <trkpt lat="2.879804" lon="-75.14257">
        <ele>912.0</ele>
        <time>2021-08-21T19:17:01Z</time>
      </trkpt>
      <trkpt lat="2.879791" lon="-75.142624">
        <ele>911.6</ele>
        <time>2021-08-21T19:17:02Z</time>
      </trkpt>
      <trkpt lat="2.879769" lon="-75.14267">
        <ele>911.2</ele>
        <time>2021-08-21T19:17:03Z</time>
      </trkpt>
      <trkpt lat="2.879732" lon="-75.14271">
        <ele>910.7</ele>
        <time>2021-08-21T19:17:04Z</time>
      </trkpt>
      <trkpt lat="2.879688" lon="-75.142746">
        <ele>910.2</ele>
        <time>2021-08-21T19:17:05Z</time>
      </trkpt>
      <trkpt lat="2.879639" lon="-75.142784">
        <ele>909.6</ele>
        <time>2021-08-21T19:17:06Z</time>
      </trkpt>
      <trkpt lat="2.879591" lon="-75.14282">
        <ele>909.0</ele>
        <time>2021-08-21T19:17:07Z</time>
      </trkpt>
      <trkpt lat="2.879541" lon="-75.14287">
        <ele>908.3</ele>
        <time>2021-08-21T19:17:08Z</time>
      </trkpt>
      <trkpt lat="2.879489" lon="-75.14291">
        <ele>907.6</ele>
        <time>2021-08-21T19:17:09Z</time>
      </trkpt>
      <trkpt lat="2.879435" lon="-75.14295">
        <ele>906.9</ele>
        <time>2021-08-21T19:17:10Z</time>
      </trkpt>
      <trkpt lat="2.879381" lon="-75.143005">
        <ele>906.1</ele>
        <time>2021-08-21T19:17:11Z</time>
      </trkpt>
      <trkpt lat="2.879333" lon="-75.14305">
        <ele>905.4</ele>
        <time>2021-08-21T19:17:12Z</time>
      </trkpt>
      <trkpt lat="2.879285" lon="-75.143105">
        <ele>904.7</ele>
        <time>2021-08-21T19:17:13Z</time>
      </trkpt>
      <trkpt lat="2.879236" lon="-75.14316">
        <ele>904.0</ele>
        <time>2021-08-21T19:17:14Z</time>
      </trkpt>
      <trkpt lat="2.87919" lon="-75.14322">
        <ele>903.2</ele>
        <time>2021-08-21T19:17:15Z</time>
      </trkpt>
      <trkpt lat="2.879148" lon="-75.14329">
        <ele>902.5</ele>
        <time>2021-08-21T19:17:16Z</time>
      </trkpt>
      <trkpt lat="2.879112" lon="-75.14335">
        <ele>901.9</ele>
        <time>2021-08-21T19:17:17Z</time>
      </trkpt>
      <trkpt lat="2.879079" lon="-75.14342">
        <ele>901.3</ele>
        <time>2021-08-21T19:17:18Z</time>
      </trkpt>
      <trkpt lat="2.879047" lon="-75.14349">
        <ele>900.7</ele>
        <time>2021-08-21T19:17:19Z</time>
      </trkpt>
      <trkpt lat="2.879019" lon="-75.14356">
        <ele>900.1</ele>
        <time>2021-08-21T19:17:20Z</time>
      </trkpt>
      <trkpt lat="2.878993" lon="-75.14363">
        <ele>899.6</ele>
        <time>2021-08-21T19:17:21Z</time>
      </trkpt>
      <trkpt lat="2.878969" lon="-75.1437">
        <ele>899.1</ele>
        <time>2021-08-21T19:17:22Z</time>
      </trkpt>
      <trkpt lat="2.878947" lon="-75.14377">
        <ele>898.5</ele>
        <time>2021-08-21T19:17:23Z</time>
      </trkpt>
      <trkpt lat="2.878927" lon="-75.14384">
        <ele>898.0</ele>
        <time>2021-08-21T19:17:24Z</time>
      </trkpt>
      <trkpt lat="2.878909" lon="-75.14391">
        <ele>897.4</ele>
        <time>2021-08-21T19:17:25Z</time>
      </trkpt>
      <trkpt lat="2.878894" lon="-75.14398">
        <ele>896.7</ele>
        <time>2021-08-21T19:17:26Z</time>
      </trkpt>
      <trkpt lat="2.878883" lon="-75.14405">
        <ele>896.1</ele>
        <time>2021-08-21T19:17:27Z</time>
      </trkpt>
      <trkpt lat="2.878873" lon="-75.14412">
        <ele>895.5</ele>
        <time>2021-08-21T19:17:28Z</time>
      </trkpt>
      <trkpt lat="2.87886" lon="-75.14419">
        <ele>894.8</ele>
        <time>2021-08-21T19:17:29Z</time>
      </trkpt>
      <trkpt lat="2.878841" lon="-75.14425">
        <ele>894.1</ele>
        <time>2021-08-21T19:17:30Z</time>
      </trkpt>
      <trkpt lat="2.878814" lon="-75.14432">
        <ele>893.2</ele>
        <time>2021-08-21T19:17:31Z</time>
      </trkpt>
      <trkpt lat="2.878786" lon="-75.14439">
        <ele>892.4</ele>
        <time>2021-08-21T19:17:32Z</time>
      </trkpt>
      <trkpt lat="2.878756" lon="-75.144455">
        <ele>891.5</ele>
        <time>2021-08-21T19:17:33Z</time>
      </trkpt>
      <trkpt lat="2.878724" lon="-75.14452">
        <ele>890.7</ele>
        <time>2021-08-21T19:17:34Z</time>
      </trkpt>
      <trkpt lat="2.878692" lon="-75.14459">
        <ele>889.9</ele>
        <time>2021-08-21T19:17:35Z</time>
      </trkpt>
      <trkpt lat="2.878657" lon="-75.14467">
        <ele>889.1</ele>
        <time>2021-08-21T19:17:36Z</time>
      </trkpt>
      <trkpt lat="2.878624" lon="-75.14474">
        <ele>888.4</ele>
        <time>2021-08-21T19:17:37Z</time>
      </trkpt>
      <trkpt lat="2.87859" lon="-75.14481">
        <ele>887.6</ele>
        <time>2021-08-21T19:17:38Z</time>
      </trkpt>
      <trkpt lat="2.878556" lon="-75.14489">
        <ele>886.7</ele>
        <time>2021-08-21T19:17:39Z</time>
      </trkpt>
      <trkpt lat="2.87852" lon="-75.144966">
        <ele>885.9</ele>
        <time>2021-08-21T19:17:40Z</time>
      </trkpt>
      <trkpt lat="2.878481" lon="-75.14504">
        <ele>884.9</ele>
        <time>2021-08-21T19:17:41Z</time>
      </trkpt>
      <trkpt lat="2.878446" lon="-75.14512">
        <ele>884.1</ele>
        <time>2021-08-21T19:17:42Z</time>
      </trkpt>
      <trkpt lat="2.878411" lon="-75.14519">
        <ele>883.2</ele>
        <time>2021-08-21T19:17:43Z</time>
      </trkpt>
      <trkpt lat="2.878373" lon="-75.14526">
        <ele>882.3</ele>
        <time>2021-08-21T19:17:44Z</time>
      </trkpt>
      <trkpt lat="2.878336" lon="-75.14534">
        <ele>881.3</ele>
        <time>2021-08-21T19:17:45Z</time>
      </trkpt>
      <trkpt lat="2.878299" lon="-75.14541">
        <ele>880.4</ele>
        <time>2021-08-21T19:17:46Z</time>
      </trkpt>
      <trkpt lat="2.878263" lon="-75.14547">
        <ele>879.5</ele>
        <time>2021-08-21T19:17:47Z</time>
      </trkpt>
      <trkpt lat="2.878224" lon="-75.14553">
        <ele>878.6</ele>
        <time>2021-08-21T19:17:48Z</time>
      </trkpt>
      <trkpt lat="2.878182" lon="-75.14559">
        <ele>877.7</ele>
        <time>2021-08-21T19:17:49Z</time>
      </trkpt>
      <trkpt lat="2.878135" lon="-75.14565">
        <ele>876.7</ele>
        <time>2021-08-21T19:17:50Z</time>
      </trkpt>
      <trkpt lat="2.87809" lon="-75.145706">
        <ele>875.8</ele>
        <time>2021-08-21T19:17:51Z</time>
      </trkpt>
      <trkpt lat="2.878018" lon="-75.145805">
        <ele>874.2</ele>
        <time>2021-08-21T19:17:52Z</time>
      </trkpt>
      <trkpt lat="2.878052" lon="-75.14575">
        <ele>875.0</ele>
        <time>2021-08-21T19:17:52Z</time>
      </trkpt>
      <trkpt lat="2.877985" lon="-75.14586">
        <ele>873.5</ele>
        <time>2021-08-21T19:17:53Z</time>
      </trkpt>
      <trkpt lat="2.877956" lon="-75.14592">
        <ele>872.8</ele>
        <time>2021-08-21T19:17:54Z</time>
      </trkpt>
      <trkpt lat="2.877929" lon="-75.14598">
        <ele>872.2</ele>
        <time>2021-08-21T19:17:55Z</time>
      </trkpt>
      <trkpt lat="2.877904" lon="-75.14604">
        <ele>871.7</ele>
        <time>2021-08-21T19:17:56Z</time>
      </trkpt>
      <trkpt lat="2.877882" lon="-75.1461">
        <ele>871.1</ele>
        <time>2021-08-21T19:17:57Z</time>
      </trkpt>
      <trkpt lat="2.877862" lon="-75.146164">
        <ele>870.6</ele>
        <time>2021-08-21T19:17:58Z</time>
      </trkpt>
      <trkpt lat="2.877848" lon="-75.146225">
        <ele>870.1</ele>
        <time>2021-08-21T19:17:59Z</time>
      </trkpt>
      <trkpt lat="2.877849" lon="-75.146286">
        <ele>869.3</ele>
        <time>2021-08-21T19:18:00Z</time>
      </trkpt>
      <trkpt lat="2.877865" lon="-75.14633">
        <ele>869.0</ele>
        <time>2021-08-21T19:18:01Z</time>
      </trkpt>
      <trkpt lat="2.877895" lon="-75.14637">
        <ele>868.6</ele>
        <time>2021-08-21T19:18:02Z</time>
      </trkpt>
      <trkpt lat="2.877936" lon="-75.1464">
        <ele>868.2</ele>
        <time>2021-08-21T19:18:03Z</time>
      </trkpt>
      <trkpt lat="2.877986" lon="-75.146416">
        <ele>867.5</ele>
        <time>2021-08-21T19:18:04Z</time>
      </trkpt>
      <trkpt lat="2.878045" lon="-75.14644">
        <ele>866.8</ele>
        <time>2021-08-21T19:18:05Z</time>
      </trkpt>
      <trkpt lat="2.87811" lon="-75.14645">
        <ele>866.0</ele>
        <time>2021-08-21T19:18:06Z</time>
      </trkpt>
      <trkpt lat="2.878182" lon="-75.14646">
        <ele>865.1</ele>
        <time>2021-08-21T19:18:07Z</time>
      </trkpt>
      <trkpt lat="2.878256" lon="-75.14647">
        <ele>864.3</ele>
        <time>2021-08-21T19:18:08Z</time>
      </trkpt>
      <trkpt lat="2.878331" lon="-75.146484">
        <ele>863.5</ele>
        <time>2021-08-21T19:18:09Z</time>
      </trkpt>
      <trkpt lat="2.878406" lon="-75.1465">
        <ele>862.9</ele>
        <time>2021-08-21T19:18:10Z</time>
      </trkpt>
      <trkpt lat="2.878479" lon="-75.14652">
        <ele>862.3</ele>
        <time>2021-08-21T19:18:11Z</time>
      </trkpt>
      <trkpt lat="2.878551" lon="-75.14654">
        <ele>861.7</ele>
        <time>2021-08-21T19:18:12Z</time>
      </trkpt>
      <trkpt lat="2.878623" lon="-75.14656">
        <ele>861.1</ele>
        <time>2021-08-21T19:18:13Z</time>
      </trkpt>
      <trkpt lat="2.878694" lon="-75.14659">
        <ele>860.5</ele>
        <time>2021-08-21T19:18:14Z</time>
      </trkpt>
      <trkpt lat="2.878766" lon="-75.146614">
        <ele>859.8</ele>
        <time>2021-08-21T19:18:15Z</time>
      </trkpt>
      <trkpt lat="2.878838" lon="-75.146645">
        <ele>859.1</ele>
        <time>2021-08-21T19:18:16Z</time>
      </trkpt>
      <trkpt lat="2.878909" lon="-75.14667">
        <ele>858.4</ele>
        <time>2021-08-21T19:18:17Z</time>
      </trkpt>
      <trkpt lat="2.878981" lon="-75.1467">
        <ele>857.7</ele>
        <time>2021-08-21T19:18:18Z</time>
      </trkpt>
      <trkpt lat="2.879053" lon="-75.14672">
        <ele>857.0</ele>
        <time>2021-08-21T19:18:19Z</time>
      </trkpt>
      <trkpt lat="2.879126" lon="-75.14675">
        <ele>856.3</ele>
        <time>2021-08-21T19:18:20Z</time>
      </trkpt>
      <trkpt lat="2.879198" lon="-75.146774">
        <ele>855.7</ele>
        <time>2021-08-21T19:18:21Z</time>
      </trkpt>
      <trkpt lat="2.879271" lon="-75.1468">
        <ele>855.1</ele>
        <time>2021-08-21T19:18:22Z</time>
      </trkpt>
      <trkpt lat="2.879344" lon="-75.14681">
        <ele>854.5</ele>
        <time>2021-08-21T19:18:23Z</time>
      </trkpt>
      <trkpt lat="2.879418" lon="-75.14682">
        <ele>854.0</ele>
        <time>2021-08-21T19:18:24Z</time>
      </trkpt>
      <trkpt lat="2.879493" lon="-75.14683">
        <ele>853.4</ele>
        <time>2021-08-21T19:18:25Z</time>
      </trkpt>
      <trkpt lat="2.879568" lon="-75.14683">
        <ele>852.8</ele>
        <time>2021-08-21T19:18:26Z</time>
      </trkpt>
      <trkpt lat="2.879643" lon="-75.14683">
        <ele>852.1</ele>
        <time>2021-08-21T19:18:27Z</time>
      </trkpt>
      <trkpt lat="2.879718" lon="-75.14682">
        <ele>851.5</ele>
        <time>2021-08-21T19:18:28Z</time>
      </trkpt>
      <trkpt lat="2.879794" lon="-75.146805">
        <ele>850.9</ele>
        <time>2021-08-21T19:18:29Z</time>
      </trkpt>
      <trkpt lat="2.879868" lon="-75.1468">
        <ele>850.3</ele>
        <time>2021-08-21T19:18:30Z</time>
      </trkpt>
      <trkpt lat="2.879942" lon="-75.14679">
        <ele>849.7</ele>
        <time>2021-08-21T19:18:31Z</time>
      </trkpt>
      <trkpt lat="2.880012" lon="-75.14679">
        <ele>849.2</ele>
        <time>2021-08-21T19:18:32Z</time>
      </trkpt>
      <trkpt lat="2.880081" lon="-75.146805">
        <ele>848.7</ele>
        <time>2021-08-21T19:18:33Z</time>
      </trkpt>
      <trkpt lat="2.88015" lon="-75.14682">
        <ele>848.2</ele>
        <time>2021-08-21T19:18:34Z</time>
      </trkpt>
      <trkpt lat="2.880221" lon="-75.14684">
        <ele>847.7</ele>
        <time>2021-08-21T19:18:35Z</time>
      </trkpt>
      <trkpt lat="2.88029" lon="-75.146866">
        <ele>847.2</ele>
        <time>2021-08-21T19:18:36Z</time>
      </trkpt>
      <trkpt lat="2.880357" lon="-75.1469">
        <ele>846.7</ele>
        <time>2021-08-21T19:18:37Z</time>
      </trkpt>
      <trkpt lat="2.880422" lon="-75.14692">
        <ele>846.2</ele>
        <time>2021-08-21T19:18:38Z</time>
      </trkpt>
      <trkpt lat="2.880485" lon="-75.14694">
        <ele>845.8</ele>
        <time>2021-08-21T19:18:39Z</time>
      </trkpt>
      <trkpt lat="2.880545" lon="-75.146965">
        <ele>845.3</ele>
        <time>2021-08-21T19:18:40Z</time>
      </trkpt>
      <trkpt lat="2.880603" lon="-75.146996">
        <ele>844.8</ele>
        <time>2021-08-21T19:18:41Z</time>
      </trkpt>
      <trkpt lat="2.88066" lon="-75.147026">
        <ele>844.2</ele>
        <time>2021-08-21T19:18:42Z</time>
      </trkpt>
      <trkpt lat="2.880718" lon="-75.147064">
        <ele>843.5</ele>
        <time>2021-08-21T19:18:43Z</time>
      </trkpt>
      <trkpt lat="2.880777" lon="-75.14711">
        <ele>842.7</ele>
        <time>2021-08-21T19:18:44Z</time>
      </trkpt>
      <trkpt lat="2.880838" lon="-75.147156">
        <ele>841.9</ele>
        <time>2021-08-21T19:18:45Z</time>
      </trkpt>
      <trkpt lat="2.880903" lon="-75.1472">
        <ele>841.0</ele>
        <time>2021-08-21T19:18:46Z</time>
      </trkpt>
      <trkpt lat="2.88097" lon="-75.14724">
        <ele>840.1</ele>
        <time>2021-08-21T19:18:47Z</time>
      </trkpt>
      <trkpt lat="2.88104" lon="-75.14728">
        <ele>839.5</ele>
        <time>2021-08-21T19:18:48Z</time>
      </trkpt>
      <trkpt lat="2.881115" lon="-75.14731">
        <ele>839.0</ele>
        <time>2021-08-21T19:18:49Z</time>
      </trkpt>
      <trkpt lat="2.881192" lon="-75.14733">
        <ele>838.6</ele>
        <time>2021-08-21T19:18:50Z</time>
      </trkpt>
      <trkpt lat="2.88127" lon="-75.14735">
        <ele>838.3</ele>
        <time>2021-08-21T19:18:51Z</time>
      </trkpt>
      <trkpt lat="2.881346" lon="-75.14736">
        <ele>838.1</ele>
        <time>2021-08-21T19:18:52Z</time>
      </trkpt>
      <trkpt lat="2.881421" lon="-75.14737">
        <ele>838.0</ele>
        <time>2021-08-21T19:18:53Z</time>
      </trkpt>
      <trkpt lat="2.881496" lon="-75.14738">
        <ele>837.9</ele>
        <time>2021-08-21T19:18:54Z</time>
      </trkpt>
      <trkpt lat="2.881567" lon="-75.14738">
        <ele>837.9</ele>
        <time>2021-08-21T19:18:55Z</time>
      </trkpt>
      <trkpt lat="2.881635" lon="-75.14738">
        <ele>837.9</ele>
        <time>2021-08-21T19:18:56Z</time>
      </trkpt>
      <trkpt lat="2.881699" lon="-75.14737">
        <ele>838.0</ele>
        <time>2021-08-21T19:18:57Z</time>
      </trkpt>
      <trkpt lat="2.88176" lon="-75.14736">
        <ele>838.1</ele>
        <time>2021-08-21T19:18:58Z</time>
      </trkpt>
      <trkpt lat="2.881818" lon="-75.147354">
        <ele>838.2</ele>
        <time>2021-08-21T19:18:59Z</time>
      </trkpt>
      <trkpt lat="2.881872" lon="-75.147354">
        <ele>838.3</ele>
        <time>2021-08-21T19:19:00Z</time>
      </trkpt>
      <trkpt lat="2.881922" lon="-75.147354">
        <ele>838.4</ele>
        <time>2021-08-21T19:19:01Z</time>
      </trkpt>
      <trkpt lat="2.881967" lon="-75.147354">
        <ele>838.5</ele>
        <time>2021-08-21T19:19:02Z</time>
      </trkpt>
      <trkpt lat="2.882008" lon="-75.14736">
        <ele>838.7</ele>
        <time>2021-08-21T19:19:03Z</time>
      </trkpt>
      <trkpt lat="2.882046" lon="-75.14738">
        <ele>838.8</ele>
        <time>2021-08-21T19:19:04Z</time>
      </trkpt>
      <trkpt lat="2.882079" lon="-75.1474">
        <ele>838.9</ele>
        <time>2021-08-21T19:19:05Z</time>
      </trkpt>
      <trkpt lat="2.882108" lon="-75.14742">
        <ele>839.0</ele>
        <time>2021-08-21T19:19:06Z</time>
      </trkpt>
      <trkpt lat="2.88213" lon="-75.14745">
        <ele>839.2</ele>
        <time>2021-08-21T19:19:07Z</time>
      </trkpt>
      <trkpt lat="2.882147" lon="-75.147484">
        <ele>839.3</ele>
        <time>2021-08-21T19:19:08Z</time>
      </trkpt>
      <trkpt lat="2.882159" lon="-75.147514">
        <ele>839.5</ele>
        <time>2021-08-21T19:19:09Z</time>
      </trkpt>
      <trkpt lat="2.882166" lon="-75.14755">
        <ele>839.6</ele>
        <time>2021-08-21T19:19:10Z</time>
      </trkpt>
      <trkpt lat="2.88217" lon="-75.14759">
        <ele>839.8</ele>
        <time>2021-08-21T19:19:11Z</time>
      </trkpt>
      <trkpt lat="2.882171" lon="-75.14762">
        <ele>840.0</ele>
        <time>2021-08-21T19:19:12Z</time>
      </trkpt>
      <trkpt lat="2.88217" lon="-75.14766">
        <ele>840.3</ele>
        <time>2021-08-21T19:19:13Z</time>
      </trkpt>
      <trkpt lat="2.882167" lon="-75.14769">
        <ele>840.5</ele>
        <time>2021-08-21T19:19:14Z</time>
      </trkpt>
      <trkpt lat="2.882164" lon="-75.14773">
        <ele>840.7</ele>
        <time>2021-08-21T19:19:15Z</time>
      </trkpt>
      <trkpt lat="2.882158" lon="-75.14776">
        <ele>840.9</ele>
        <time>2021-08-21T19:19:16Z</time>
      </trkpt>
      <trkpt lat="2.882151" lon="-75.1478">
        <ele>841.1</ele>
        <time>2021-08-21T19:19:17Z</time>
      </trkpt>
      <trkpt lat="2.882145" lon="-75.14783">
        <ele>841.3</ele>
        <time>2021-08-21T19:19:18Z</time>
      </trkpt>
      <trkpt lat="2.882139" lon="-75.14786">
        <ele>841.5</ele>
        <time>2021-08-21T19:19:19Z</time>
      </trkpt>
      <trkpt lat="2.882133" lon="-75.14789">
        <ele>841.7</ele>
        <time>2021-08-21T19:19:20Z</time>
      </trkpt>
      <trkpt lat="2.882126" lon="-75.14792">
        <ele>841.9</ele>
        <time>2021-08-21T19:19:21Z</time>
      </trkpt>
      <trkpt lat="2.882115" lon="-75.14795">
        <ele>842.1</ele>
        <time>2021-08-21T19:19:22Z</time>
      </trkpt>
      <trkpt lat="2.882103" lon="-75.14797">
        <ele>842.4</ele>
        <time>2021-08-21T19:19:23Z</time>
      </trkpt>
      <trkpt lat="2.88209" lon="-75.14801">
        <ele>842.6</ele>
        <time>2021-08-21T19:19:24Z</time>
      </trkpt>
      <trkpt lat="2.882073" lon="-75.14804">
        <ele>842.8</ele>
        <time>2021-08-21T19:19:25Z</time>
      </trkpt>
      <trkpt lat="2.882056" lon="-75.14807">
        <ele>843.0</ele>
        <time>2021-08-21T19:19:26Z</time>
      </trkpt>
      <trkpt lat="2.88204" lon="-75.1481">
        <ele>843.1</ele>
        <time>2021-08-21T19:19:27Z</time>
      </trkpt>
      <trkpt lat="2.882023" lon="-75.148125">
        <ele>843.3</ele>
        <time>2021-08-21T19:19:28Z</time>
      </trkpt>
      <trkpt lat="2.882007" lon="-75.148155">
        <ele>843.5</ele>
        <time>2021-08-21T19:19:29Z</time>
      </trkpt>
      <trkpt lat="2.881993" lon="-75.14818">
        <ele>843.6</ele>
        <time>2021-08-21T19:19:30Z</time>
      </trkpt>
      <trkpt lat="2.881951" lon="-75.1483">
        <ele>844.0</ele>
        <time>2021-08-21T19:19:32Z</time>
      </trkpt>
      <trkpt lat="2.881949" lon="-75.14831">
        <ele>844.0</ele>
        <time>2021-08-21T19:19:33Z</time>
      </trkpt>
      <trkpt lat="2.881944" lon="-75.148315">
        <ele>844.0</ele>
        <time>2021-08-21T19:19:34Z</time>
      </trkpt>
      <trkpt lat="2.881936" lon="-75.14834">
        <ele>844.1</ele>
        <time>2021-08-21T19:19:35Z</time>
      </trkpt>
      <trkpt lat="2.881925" lon="-75.14836">
        <ele>844.1</ele>
        <time>2021-08-21T19:19:36Z</time>
      </trkpt>
      <trkpt lat="2.881911" lon="-75.14839">
        <ele>844.1</ele>
        <time>2021-08-21T19:19:37Z</time>
      </trkpt>
      <trkpt lat="2.881894" lon="-75.148415">
        <ele>844.1</ele>
        <time>2021-08-21T19:19:38Z</time>
      </trkpt>
      <trkpt lat="2.881875" lon="-75.148445">
        <ele>844.0</ele>
        <time>2021-08-21T19:19:39Z</time>
      </trkpt>
      <trkpt lat="2.881854" lon="-75.14847">
        <ele>844.0</ele>
        <time>2021-08-21T19:19:40Z</time>
      </trkpt>
      <trkpt lat="2.881831" lon="-75.1485">
        <ele>843.9</ele>
        <time>2021-08-21T19:19:41Z</time>
      </trkpt>
      <trkpt lat="2.881806" lon="-75.14852">
        <ele>843.8</ele>
        <time>2021-08-21T19:19:42Z</time>
      </trkpt>
      <trkpt lat="2.881778" lon="-75.148544">
        <ele>843.6</ele>
        <time>2021-08-21T19:19:43Z</time>
      </trkpt>
      <trkpt lat="2.881749" lon="-75.148575">
        <ele>843.5</ele>
        <time>2021-08-21T19:19:44Z</time>
      </trkpt>
      <trkpt lat="2.881718" lon="-75.1486">
        <ele>843.3</ele>
        <time>2021-08-21T19:19:45Z</time>
      </trkpt>
      <trkpt lat="2.881688" lon="-75.14863">
        <ele>843.1</ele>
        <time>2021-08-21T19:19:46Z</time>
      </trkpt>
      <trkpt lat="2.881573" lon="-75.14877">
        <ele>842.5</ele>
        <time>2021-08-21T19:19:48Z</time>
      </trkpt>
      <trkpt lat="2.881568" lon="-75.14878">
        <ele>842.5</ele>
        <time>2021-08-21T19:19:49Z</time>
      </trkpt>
      <trkpt lat="2.881559" lon="-75.1488">
        <ele>842.5</ele>
        <time>2021-08-21T19:19:50Z</time>
      </trkpt>
      <trkpt lat="2.881549" lon="-75.148834">
        <ele>842.4</ele>
        <time>2021-08-21T19:19:51Z</time>
      </trkpt>
      <trkpt lat="2.881541" lon="-75.14887">
        <ele>842.4</ele>
        <time>2021-08-21T19:19:52Z</time>
      </trkpt>
      <trkpt lat="2.881536" lon="-75.14891">
        <ele>842.3</ele>
        <time>2021-08-21T19:19:53Z</time>
      </trkpt>
      <trkpt lat="2.881533" lon="-75.14895">
        <ele>842.3</ele>
        <time>2021-08-21T19:19:54Z</time>
      </trkpt>
      <trkpt lat="2.881532" lon="-75.14899">
        <ele>842.3</ele>
        <time>2021-08-21T19:19:55Z</time>
      </trkpt>
      <trkpt lat="2.881532" lon="-75.149025">
        <ele>842.3</ele>
        <time>2021-08-21T19:19:56Z</time>
      </trkpt>
      <trkpt lat="2.881533" lon="-75.14907">
        <ele>842.3</ele>
        <time>2021-08-21T19:19:57Z</time>
      </trkpt>
      <trkpt lat="2.881535" lon="-75.1491">
        <ele>842.3</ele>
        <time>2021-08-21T19:19:58Z</time>
      </trkpt>
      <trkpt lat="2.881535" lon="-75.14914">
        <ele>842.3</ele>
        <time>2021-08-21T19:19:59Z</time>
      </trkpt>
      <trkpt lat="2.881534" lon="-75.14918">
        <ele>842.3</ele>
        <time>2021-08-21T19:20:00Z</time>
      </trkpt>
      <trkpt lat="2.88153" lon="-75.149216">
        <ele>842.3</ele>
        <time>2021-08-21T19:20:01Z</time>
      </trkpt>
      <trkpt lat="2.881523" lon="-75.149254">
        <ele>842.3</ele>
        <time>2021-08-21T19:20:02Z</time>
      </trkpt>
      <trkpt lat="2.881516" lon="-75.14929">
        <ele>842.3</ele>
        <time>2021-08-21T19:20:03Z</time>
      </trkpt>
      <trkpt lat="2.881508" lon="-75.14933">
        <ele>842.3</ele>
        <time>2021-08-21T19:20:04Z</time>
      </trkpt>
      <trkpt lat="2.881497" lon="-75.14937">
        <ele>842.2</ele>
        <time>2021-08-21T19:20:05Z</time>
      </trkpt>
      <trkpt lat="2.881484" lon="-75.14941">
        <ele>842.2</ele>
        <time>2021-08-21T19:20:06Z</time>
      </trkpt>
      <trkpt lat="2.88147" lon="-75.14945">
        <ele>842.2</ele>
        <time>2021-08-21T19:20:07Z</time>
      </trkpt>
      <trkpt lat="2.881456" lon="-75.14949">
        <ele>842.2</ele>
        <time>2021-08-21T19:20:08Z</time>
      </trkpt>
      <trkpt lat="2.88144" lon="-75.149536">
        <ele>842.3</ele>
        <time>2021-08-21T19:20:09Z</time>
      </trkpt>
      <trkpt lat="2.881424" lon="-75.149574">
        <ele>842.3</ele>
        <time>2021-08-21T19:20:10Z</time>
      </trkpt>
      <trkpt lat="2.881406" lon="-75.14962">
        <ele>842.5</ele>
        <time>2021-08-21T19:20:11Z</time>
      </trkpt>
      <trkpt lat="2.881389" lon="-75.14966">
        <ele>842.6</ele>
        <time>2021-08-21T19:20:12Z</time>
      </trkpt>
      <trkpt lat="2.881371" lon="-75.149704">
        <ele>842.8</ele>
        <time>2021-08-21T19:20:13Z</time>
      </trkpt>
      <trkpt lat="2.881354" lon="-75.14974">
        <ele>843.0</ele>
        <time>2021-08-21T19:20:14Z</time>
      </trkpt>
      <trkpt lat="2.881339" lon="-75.14978">
        <ele>843.2</ele>
        <time>2021-08-21T19:20:15Z</time>
      </trkpt>
      <trkpt lat="2.881325" lon="-75.14982">
        <ele>843.4</ele>
        <time>2021-08-21T19:20:16Z</time>
      </trkpt>
      <trkpt lat="2.881312" lon="-75.149864">
        <ele>843.7</ele>
        <time>2021-08-21T19:20:17Z</time>
      </trkpt>
      <trkpt lat="2.881301" lon="-75.1499">
        <ele>844.0</ele>
        <time>2021-08-21T19:20:18Z</time>
      </trkpt>
      <trkpt lat="2.881292" lon="-75.14994">
        <ele>844.2</ele>
        <time>2021-08-21T19:20:19Z</time>
      </trkpt>
      <trkpt lat="2.881283" lon="-75.14998">
        <ele>844.5</ele>
        <time>2021-08-21T19:20:20Z</time>
      </trkpt>
      <trkpt lat="2.881276" lon="-75.15001">
        <ele>844.8</ele>
        <time>2021-08-21T19:20:21Z</time>
      </trkpt>
      <trkpt lat="2.88127" lon="-75.15005">
        <ele>845.1</ele>
        <time>2021-08-21T19:20:22Z</time>
      </trkpt>
      <trkpt lat="2.881265" lon="-75.15008">
        <ele>845.3</ele>
        <time>2021-08-21T19:20:23Z</time>
      </trkpt>
      <trkpt lat="2.881259" lon="-75.150116">
        <ele>845.6</ele>
        <time>2021-08-21T19:20:24Z</time>
      </trkpt>
      <trkpt lat="2.88125" lon="-75.15015">
        <ele>846.0</ele>
        <time>2021-08-21T19:20:25Z</time>
      </trkpt>
      <trkpt lat="2.881243" lon="-75.150185">
        <ele>846.3</ele>
        <time>2021-08-21T19:20:26Z</time>
      </trkpt>
      <trkpt lat="2.881238" lon="-75.150215">
        <ele>846.6</ele>
        <time>2021-08-21T19:20:27Z</time>
      </trkpt>
      <trkpt lat="2.881235" lon="-75.150246">
        <ele>846.9</ele>
        <time>2021-08-21T19:20:28Z</time>
      </trkpt>
      <trkpt lat="2.881234" lon="-75.150276">
        <ele>847.1</ele>
        <time>2021-08-21T19:20:29Z</time>
      </trkpt>
      <trkpt lat="2.881237" lon="-75.15031">
        <ele>847.3</ele>
        <time>2021-08-21T19:20:30Z</time>
      </trkpt>
      <trkpt lat="2.881241" lon="-75.15033">
        <ele>847.5</ele>
        <time>2021-08-21T19:20:31Z</time>
      </trkpt>
      <trkpt lat="2.881246" lon="-75.15035">
        <ele>847.7</ele>
        <time>2021-08-21T19:20:32Z</time>
      </trkpt>
      <trkpt lat="2.881251" lon="-75.15037">
        <ele>847.8</ele>
        <time>2021-08-21T19:20:33Z</time>
      </trkpt>
      <trkpt lat="2.881257" lon="-75.15039">
        <ele>847.9</ele>
        <time>2021-08-21T19:20:34Z</time>
      </trkpt>
      <trkpt lat="2.881263" lon="-75.150406">
        <ele>848.1</ele>
        <time>2021-08-21T19:20:35Z</time>
      </trkpt>
      <trkpt lat="2.881271" lon="-75.15043">
        <ele>848.2</ele>
        <time>2021-08-21T19:20:36Z</time>
      </trkpt>
      <trkpt lat="2.881279" lon="-75.15045">
        <ele>848.3</ele>
        <time>2021-08-21T19:20:37Z</time>
      </trkpt>
      <trkpt lat="2.881287" lon="-75.150475">
        <ele>848.4</ele>
        <time>2021-08-21T19:20:38Z</time>
      </trkpt>
      <trkpt lat="2.881295" lon="-75.1505">
        <ele>848.6</ele>
        <time>2021-08-21T19:20:39Z</time>
      </trkpt>
      <trkpt lat="2.881305" lon="-75.15053">
        <ele>848.7</ele>
        <time>2021-08-21T19:20:40Z</time>
      </trkpt>
      <trkpt lat="2.881317" lon="-75.15055">
        <ele>848.8</ele>
        <time>2021-08-21T19:20:41Z</time>
      </trkpt>
      <trkpt lat="2.881329" lon="-75.15057">
        <ele>848.8</ele>
        <time>2021-08-21T19:20:42Z</time>
      </trkpt>
      <trkpt lat="2.881342" lon="-75.150604">
        <ele>848.9</ele>
        <time>2021-08-21T19:20:43Z</time>
      </trkpt>
      <trkpt lat="2.881355" lon="-75.150635">
        <ele>849.0</ele>
        <time>2021-08-21T19:20:44Z</time>
      </trkpt>
      <trkpt lat="2.881368" lon="-75.15066">
        <ele>849.1</ele>
        <time>2021-08-21T19:20:45Z</time>
      </trkpt>
      <trkpt lat="2.881381" lon="-75.150696">
        <ele>849.1</ele>
        <time>2021-08-21T19:20:46Z</time>
      </trkpt>
      <trkpt lat="2.881393" lon="-75.15073">
        <ele>849.2</ele>
        <time>2021-08-21T19:20:47Z</time>
      </trkpt>
      <trkpt lat="2.881402" lon="-75.15076">
        <ele>849.2</ele>
        <time>2021-08-21T19:20:48Z</time>
      </trkpt>
      <trkpt lat="2.88141" lon="-75.15079">
        <ele>849.2</ele>
        <time>2021-08-21T19:20:49Z</time>
      </trkpt>
      <trkpt lat="2.881417" lon="-75.150826">
        <ele>849.2</ele>
        <time>2021-08-21T19:20:50Z</time>
      </trkpt>
      <trkpt lat="2.881422" lon="-75.150856">
        <ele>849.1</ele>
        <time>2021-08-21T19:20:51Z</time>
      </trkpt>
      <trkpt lat="2.881428" lon="-75.15089">
        <ele>849.1</ele>
        <time>2021-08-21T19:20:52Z</time>
      </trkpt>
      <trkpt lat="2.881434" lon="-75.15092">
        <ele>849.0</ele>
        <time>2021-08-21T19:20:53Z</time>
      </trkpt>
      <trkpt lat="2.881444" lon="-75.15095">
        <ele>848.9</ele>
        <time>2021-08-21T19:20:54Z</time>
      </trkpt>
      <trkpt lat="2.88146" lon="-75.15098">
        <ele>848.8</ele>
        <time>2021-08-21T19:20:55Z</time>
      </trkpt>
      <trkpt lat="2.881482" lon="-75.15101">
        <ele>848.6</ele>
        <time>2021-08-21T19:20:56Z</time>
      </trkpt>
      <trkpt lat="2.881511" lon="-75.15103">
        <ele>848.4</ele>
        <time>2021-08-21T19:20:57Z</time>
      </trkpt>
      <trkpt lat="2.881544" lon="-75.151054">
        <ele>848.2</ele>
        <time>2021-08-21T19:20:58Z</time>
      </trkpt>
      <trkpt lat="2.881583" lon="-75.15107">
        <ele>847.9</ele>
        <time>2021-08-21T19:20:59Z</time>
      </trkpt>
      <trkpt lat="2.881625" lon="-75.15108">
        <ele>847.6</ele>
        <time>2021-08-21T19:21:00Z</time>
      </trkpt>
      <trkpt lat="2.881672" lon="-75.15108">
        <ele>847.2</ele>
        <time>2021-08-21T19:21:01Z</time>
      </trkpt>
      <trkpt lat="2.88172" lon="-75.15107">
        <ele>846.4</ele>
        <time>2021-08-21T19:21:02Z</time>
      </trkpt>
      <trkpt lat="2.88177" lon="-75.15106">
        <ele>845.8</ele>
        <time>2021-08-21T19:21:03Z</time>
      </trkpt>
      <trkpt lat="2.881822" lon="-75.15104">
        <ele>845.2</ele>
        <time>2021-08-21T19:21:04Z</time>
      </trkpt>
      <trkpt lat="2.881876" lon="-75.151024">
        <ele>844.6</ele>
        <time>2021-08-21T19:21:05Z</time>
      </trkpt>
      <trkpt lat="2.881929" lon="-75.151">
        <ele>843.9</ele>
        <time>2021-08-21T19:21:06Z</time>
      </trkpt>
      <trkpt lat="2.881983" lon="-75.15098">
        <ele>843.1</ele>
        <time>2021-08-21T19:21:07Z</time>
      </trkpt>
      <trkpt lat="2.882039" lon="-75.15095">
        <ele>842.4</ele>
        <time>2021-08-21T19:21:08Z</time>
      </trkpt>
      <trkpt lat="2.882094" lon="-75.150925">
        <ele>841.6</ele>
        <time>2021-08-21T19:21:09Z</time>
      </trkpt>
      <trkpt lat="2.882151" lon="-75.150894">
        <ele>840.8</ele>
        <time>2021-08-21T19:21:10Z</time>
      </trkpt>
      <trkpt lat="2.882211" lon="-75.15086">
        <ele>839.9</ele>
        <time>2021-08-21T19:21:11Z</time>
      </trkpt>
      <trkpt lat="2.882273" lon="-75.15083">
        <ele>839.1</ele>
        <time>2021-08-21T19:21:12Z</time>
      </trkpt>
      <trkpt lat="2.882336" lon="-75.1508">
        <ele>838.1</ele>
        <time>2021-08-21T19:21:13Z</time>
      </trkpt>
      <trkpt lat="2.882401" lon="-75.15077">
        <ele>837.2</ele>
        <time>2021-08-21T19:21:14Z</time>
      </trkpt>
      <trkpt lat="2.882466" lon="-75.15074">
        <ele>836.2</ele>
        <time>2021-08-21T19:21:15Z</time>
      </trkpt>
      <trkpt lat="2.882532" lon="-75.15071">
        <ele>835.3</ele>
        <time>2021-08-21T19:21:16Z</time>
      </trkpt>
      <trkpt lat="2.882603" lon="-75.15067">
        <ele>834.2</ele>
        <time>2021-08-21T19:21:17Z</time>
      </trkpt>
      <trkpt lat="2.882669" lon="-75.15064">
        <ele>833.2</ele>
        <time>2021-08-21T19:21:18Z</time>
      </trkpt>
      <trkpt lat="2.882736" lon="-75.150604">
        <ele>832.3</ele>
        <time>2021-08-21T19:21:19Z</time>
      </trkpt>
      <trkpt lat="2.882806" lon="-75.15057">
        <ele>831.3</ele>
        <time>2021-08-21T19:21:20Z</time>
      </trkpt>
      <trkpt lat="2.882877" lon="-75.15055">
        <ele>830.3</ele>
        <time>2021-08-21T19:21:21Z</time>
      </trkpt>
      <trkpt lat="2.882951" lon="-75.15053">
        <ele>829.3</ele>
        <time>2021-08-21T19:21:22Z</time>
      </trkpt>
      <trkpt lat="2.883025" lon="-75.15051">
        <ele>828.2</ele>
        <time>2021-08-21T19:21:23Z</time>
      </trkpt>
      <trkpt lat="2.883098" lon="-75.1505">
        <ele>827.3</ele>
        <time>2021-08-21T19:21:24Z</time>
      </trkpt>
      <trkpt lat="2.883169" lon="-75.15049">
        <ele>826.3</ele>
        <time>2021-08-21T19:21:25Z</time>
      </trkpt>
      <trkpt lat="2.883242" lon="-75.150475">
        <ele>825.4</ele>
        <time>2021-08-21T19:21:26Z</time>
      </trkpt>
      <trkpt lat="2.883321" lon="-75.15047">
        <ele>824.4</ele>
        <time>2021-08-21T19:21:27Z</time>
      </trkpt>
      <trkpt lat="2.883396" lon="-75.15046">
        <ele>823.6</ele>
        <time>2021-08-21T19:21:28Z</time>
      </trkpt>
      <trkpt lat="2.883716" lon="-75.150444">
        <ele>821.0</ele>
        <time>2021-08-21T19:21:30Z</time>
      </trkpt>
      <trkpt lat="2.883736" lon="-75.15045">
        <ele>820.9</ele>
        <time>2021-08-21T19:21:31Z</time>
      </trkpt>
      <trkpt lat="2.883777" lon="-75.15046">
        <ele>820.6</ele>
        <time>2021-08-21T19:21:32Z</time>
      </trkpt>
      <trkpt lat="2.883833" lon="-75.15048">
        <ele>820.3</ele>
        <time>2021-08-21T19:21:33Z</time>
      </trkpt>
      <trkpt lat="2.883898" lon="-75.150505">
        <ele>819.9</ele>
        <time>2021-08-21T19:21:34Z</time>
      </trkpt>
      <trkpt lat="2.883973" lon="-75.150536">
        <ele>819.6</ele>
        <time>2021-08-21T19:21:35Z</time>
      </trkpt>
      <trkpt lat="2.884046" lon="-75.150566">
        <ele>819.3</ele>
        <time>2021-08-21T19:21:36Z</time>
      </trkpt>
      <trkpt lat="2.884119" lon="-75.1506">
        <ele>819.2</ele>
        <time>2021-08-21T19:21:37Z</time>
      </trkpt>
      <trkpt lat="2.884186" lon="-75.15063">
        <ele>819.1</ele>
        <time>2021-08-21T19:21:38Z</time>
      </trkpt>
      <trkpt lat="2.884254" lon="-75.150665">
        <ele>819.2</ele>
        <time>2021-08-21T19:21:39Z</time>
      </trkpt>
      <trkpt lat="2.884327" lon="-75.150696">
        <ele>819.3</ele>
        <time>2021-08-21T19:21:40Z</time>
      </trkpt>
      <trkpt lat="2.884395" lon="-75.150734">
        <ele>819.5</ele>
        <time>2021-08-21T19:21:41Z</time>
      </trkpt>
      <trkpt lat="2.884453" lon="-75.150764">
        <ele>819.8</ele>
        <time>2021-08-21T19:21:42Z</time>
      </trkpt>
      <trkpt lat="2.884509" lon="-75.150795">
        <ele>820.0</ele>
        <time>2021-08-21T19:21:43Z</time>
      </trkpt>
      <trkpt lat="2.884561" lon="-75.150826">
        <ele>820.3</ele>
        <time>2021-08-21T19:21:44Z</time>
      </trkpt>
      <trkpt lat="2.884611" lon="-75.15085">
        <ele>820.5</ele>
        <time>2021-08-21T19:21:45Z</time>
      </trkpt>
      <trkpt lat="2.884659" lon="-75.15087">
        <ele>820.7</ele>
        <time>2021-08-21T19:21:46Z</time>
      </trkpt>
      <trkpt lat="2.884705" lon="-75.15089">
        <ele>820.8</ele>
        <time>2021-08-21T19:21:47Z</time>
      </trkpt>
      <trkpt lat="2.88475" lon="-75.150894">
        <ele>821.1</ele>
        <time>2021-08-21T19:21:48Z</time>
      </trkpt>
      <trkpt lat="2.884791" lon="-75.1509">
        <ele>821.3</ele>
        <time>2021-08-21T19:21:49Z</time>
      </trkpt>
      <trkpt lat="2.884828" lon="-75.1509">
        <ele>821.5</ele>
        <time>2021-08-21T19:21:50Z</time>
      </trkpt>
      <trkpt lat="2.884864" lon="-75.1509">
        <ele>821.8</ele>
        <time>2021-08-21T19:21:51Z</time>
      </trkpt>
      <trkpt lat="2.884899" lon="-75.1509">
        <ele>822.0</ele>
        <time>2021-08-21T19:21:52Z</time>
      </trkpt>
      <trkpt lat="2.884932" lon="-75.1509">
        <ele>822.3</ele>
        <time>2021-08-21T19:21:53Z</time>
      </trkpt>
      <trkpt lat="2.884964" lon="-75.150894">
        <ele>822.6</ele>
        <time>2021-08-21T19:21:54Z</time>
      </trkpt>
      <trkpt lat="2.884994" lon="-75.15089">
        <ele>822.8</ele>
        <time>2021-08-21T19:21:55Z</time>
      </trkpt>
      <trkpt lat="2.885024" lon="-75.15088">
        <ele>823.1</ele>
        <time>2021-08-21T19:21:56Z</time>
      </trkpt>
      <trkpt lat="2.885053" lon="-75.15087">
        <ele>823.4</ele>
        <time>2021-08-21T19:21:57Z</time>
      </trkpt>
      <trkpt lat="2.885081" lon="-75.15086">
        <ele>823.7</ele>
        <time>2021-08-21T19:21:58Z</time>
      </trkpt>
      <trkpt lat="2.885109" lon="-75.150856">
        <ele>823.9</ele>
        <time>2021-08-21T19:21:59Z</time>
      </trkpt>
      <trkpt lat="2.885136" lon="-75.15085">
        <ele>824.2</ele>
        <time>2021-08-21T19:22:00Z</time>
      </trkpt>
      <trkpt lat="2.885163" lon="-75.15084">
        <ele>824.4</ele>
        <time>2021-08-21T19:22:01Z</time>
      </trkpt>
      <trkpt lat="2.885188" lon="-75.15083">
        <ele>824.7</ele>
        <time>2021-08-21T19:22:02Z</time>
      </trkpt>
      <trkpt lat="2.885213" lon="-75.150826">
        <ele>824.9</ele>
        <time>2021-08-21T19:22:03Z</time>
      </trkpt>
      <trkpt lat="2.885238" lon="-75.15082">
        <ele>825.1</ele>
        <time>2021-08-21T19:22:04Z</time>
      </trkpt>
      <trkpt lat="2.885263" lon="-75.15081">
        <ele>825.4</ele>
        <time>2021-08-21T19:22:05Z</time>
      </trkpt>
      <trkpt lat="2.885288" lon="-75.1508">
        <ele>825.6</ele>
        <time>2021-08-21T19:22:06Z</time>
      </trkpt>
      <trkpt lat="2.885313" lon="-75.150795">
        <ele>825.8</ele>
        <time>2021-08-21T19:22:07Z</time>
      </trkpt>
      <trkpt lat="2.885338" lon="-75.150795">
        <ele>826.0</ele>
        <time>2021-08-21T19:22:07Z</time>
      </trkpt>
      <trkpt lat="2.885362" lon="-75.150795">
        <ele>826.3</ele>
        <time>2021-08-21T19:22:08Z</time>
      </trkpt>
      <trkpt lat="2.885386" lon="-75.15079">
        <ele>826.5</ele>
        <time>2021-08-21T19:22:09Z</time>
      </trkpt>
      <trkpt lat="2.885409" lon="-75.15079">
        <ele>826.7</ele>
        <time>2021-08-21T19:22:10Z</time>
      </trkpt>
      <trkpt lat="2.885433" lon="-75.15079">
        <ele>826.9</ele>
        <time>2021-08-21T19:22:11Z</time>
      </trkpt>
      <trkpt lat="2.885456" lon="-75.15079">
        <ele>827.1</ele>
        <time>2021-08-21T19:22:12Z</time>
      </trkpt>
      <trkpt lat="2.885481" lon="-75.15079">
        <ele>827.3</ele>
        <time>2021-08-21T19:22:13Z</time>
      </trkpt>
      <trkpt lat="2.885506" lon="-75.150795">
        <ele>827.5</ele>
        <time>2021-08-21T19:22:14Z</time>
      </trkpt>
      <trkpt lat="2.885531" lon="-75.150795">
        <ele>827.8</ele>
        <time>2021-08-21T19:22:15Z</time>
      </trkpt>
      <trkpt lat="2.885557" lon="-75.150795">
        <ele>828.0</ele>
        <time>2021-08-21T19:22:16Z</time>
      </trkpt>
      <trkpt lat="2.885583" lon="-75.150795">
        <ele>828.3</ele>
        <time>2021-08-21T19:22:17Z</time>
      </trkpt>
      <trkpt lat="2.88561" lon="-75.150795">
        <ele>828.5</ele>
        <time>2021-08-21T19:22:18Z</time>
      </trkpt>
      <trkpt lat="2.885638" lon="-75.150795">
        <ele>828.8</ele>
        <time>2021-08-21T19:22:19Z</time>
      </trkpt>
      <trkpt lat="2.885666" lon="-75.1508">
        <ele>829.0</ele>
        <time>2021-08-21T19:22:20Z</time>
      </trkpt>
      <trkpt lat="2.885694" lon="-75.1508">
        <ele>829.3</ele>
        <time>2021-08-21T19:22:21Z</time>
      </trkpt>
      <trkpt lat="2.885721" lon="-75.1508">
        <ele>829.5</ele>
        <time>2021-08-21T19:22:22Z</time>
      </trkpt>
      <trkpt lat="2.885748" lon="-75.1508">
        <ele>829.8</ele>
        <time>2021-08-21T19:22:23Z</time>
      </trkpt>
      <trkpt lat="2.885774" lon="-75.15081">
        <ele>830.0</ele>
        <time>2021-08-21T19:22:24Z</time>
      </trkpt>
      <trkpt lat="2.885799" lon="-75.15081">
        <ele>830.3</ele>
        <time>2021-08-21T19:22:25Z</time>
      </trkpt>
      <trkpt lat="2.885824" lon="-75.15082">
        <ele>830.5</ele>
        <time>2021-08-21T19:22:26Z</time>
      </trkpt>
      <trkpt lat="2.885847" lon="-75.150826">
        <ele>830.7</ele>
        <time>2021-08-21T19:22:27Z</time>
      </trkpt>
      <trkpt lat="2.88587" lon="-75.15083">
        <ele>830.9</ele>
        <time>2021-08-21T19:22:28Z</time>
      </trkpt>
      <trkpt lat="2.885891" lon="-75.15084">
        <ele>831.1</ele>
        <time>2021-08-21T19:22:29Z</time>
      </trkpt>
      <trkpt lat="2.885912" lon="-75.15084">
        <ele>831.3</ele>
        <time>2021-08-21T19:22:30Z</time>
      </trkpt>
      <trkpt lat="2.885933" lon="-75.15085">
        <ele>831.5</ele>
        <time>2021-08-21T19:22:31Z</time>
      </trkpt>
      <trkpt lat="2.885952" lon="-75.150856">
        <ele>831.6</ele>
        <time>2021-08-21T19:22:32Z</time>
      </trkpt>
      <trkpt lat="2.88597" lon="-75.15086">
        <ele>831.7</ele>
        <time>2021-08-21T19:22:33Z</time>
      </trkpt>
      <trkpt lat="2.885989" lon="-75.15087">
        <ele>831.8</ele>
        <time>2021-08-21T19:22:34Z</time>
      </trkpt>
      <trkpt lat="2.886006" lon="-75.15089">
        <ele>831.9</ele>
        <time>2021-08-21T19:22:35Z</time>
      </trkpt>
      <trkpt lat="2.886023" lon="-75.150894">
        <ele>832.0</ele>
        <time>2021-08-21T19:22:36Z</time>
      </trkpt>
      <trkpt lat="2.886039" lon="-75.1509">
        <ele>832.0</ele>
        <time>2021-08-21T19:22:37Z</time>
      </trkpt>
      <trkpt lat="2.886055" lon="-75.15091">
        <ele>832.0</ele>
        <time>2021-08-21T19:22:38Z</time>
      </trkpt>
      <trkpt lat="2.88607" lon="-75.15092">
        <ele>832.1</ele>
        <time>2021-08-21T19:22:39Z</time>
      </trkpt>
      <trkpt lat="2.886085" lon="-75.150925">
        <ele>832.1</ele>
        <time>2021-08-21T19:22:40Z</time>
      </trkpt>
      <trkpt lat="2.8861" lon="-75.15093">
        <ele>832.1</ele>
        <time>2021-08-21T19:22:41Z</time>
      </trkpt>
      <trkpt lat="2.886114" lon="-75.15094">
        <ele>832.0</ele>
        <time>2021-08-21T19:22:42Z</time>
      </trkpt>
      <trkpt lat="2.88613" lon="-75.15094">
        <ele>832.0</ele>
        <time>2021-08-21T19:22:43Z</time>
      </trkpt>
      <trkpt lat="2.886145" lon="-75.15095">
        <ele>832.0</ele>
        <time>2021-08-21T19:22:44Z</time>
      </trkpt>
      <trkpt lat="2.886161" lon="-75.150955">
        <ele>831.9</ele>
        <time>2021-08-21T19:22:45Z</time>
      </trkpt>
      <trkpt lat="2.886178" lon="-75.15096">
        <ele>831.8</ele>
        <time>2021-08-21T19:22:46Z</time>
      </trkpt>
      <trkpt lat="2.886195" lon="-75.15097">
        <ele>831.7</ele>
        <time>2021-08-21T19:22:47Z</time>
      </trkpt>
      <trkpt lat="2.886214" lon="-75.15098">
        <ele>831.6</ele>
        <time>2021-08-21T19:22:48Z</time>
      </trkpt>
      <trkpt lat="2.886235" lon="-75.150986">
        <ele>831.5</ele>
        <time>2021-08-21T19:22:49Z</time>
      </trkpt>
      <trkpt lat="2.886261" lon="-75.15099">
        <ele>831.3</ele>
        <time>2021-08-21T19:22:50Z</time>
      </trkpt>
      <trkpt lat="2.886288" lon="-75.151">
        <ele>831.1</ele>
        <time>2021-08-21T19:22:51Z</time>
      </trkpt>
      <trkpt lat="2.886315" lon="-75.151">
        <ele>830.9</ele>
        <time>2021-08-21T19:22:52Z</time>
      </trkpt>
      <trkpt lat="2.886345" lon="-75.15101">
        <ele>830.7</ele>
        <time>2021-08-21T19:22:53Z</time>
      </trkpt>
      <trkpt lat="2.886378" lon="-75.15101">
        <ele>830.4</ele>
        <time>2021-08-21T19:22:54Z</time>
      </trkpt>
      <trkpt lat="2.886416" lon="-75.15102">
        <ele>830.0</ele>
        <time>2021-08-21T19:22:55Z</time>
      </trkpt>
      <trkpt lat="2.886456" lon="-75.15102">
        <ele>829.5</ele>
        <time>2021-08-21T19:22:56Z</time>
      </trkpt>
      <trkpt lat="2.886495" lon="-75.151024">
        <ele>829.1</ele>
        <time>2021-08-21T19:22:57Z</time>
      </trkpt>
      <trkpt lat="2.886536" lon="-75.151024">
        <ele>828.6</ele>
        <time>2021-08-21T19:22:58Z</time>
      </trkpt>
      <trkpt lat="2.886579" lon="-75.15103">
        <ele>828.1</ele>
        <time>2021-08-21T19:22:59Z</time>
      </trkpt>
      <trkpt lat="2.88663" lon="-75.15104">
        <ele>827.5</ele>
        <time>2021-08-21T19:23:00Z</time>
      </trkpt>
      <trkpt lat="2.886681" lon="-75.15105">
        <ele>826.9</ele>
        <time>2021-08-21T19:23:01Z</time>
      </trkpt>
      <trkpt lat="2.886735" lon="-75.151054">
        <ele>826.3</ele>
        <time>2021-08-21T19:23:02Z</time>
      </trkpt>
      <trkpt lat="2.886789" lon="-75.15106">
        <ele>825.6</ele>
        <time>2021-08-21T19:23:03Z</time>
      </trkpt>
      <trkpt lat="2.886844" lon="-75.15107">
        <ele>825.0</ele>
        <time>2021-08-21T19:23:04Z</time>
      </trkpt>
      <trkpt lat="2.886898" lon="-75.15107">
        <ele>824.4</ele>
        <time>2021-08-21T19:23:05Z</time>
      </trkpt>
      <trkpt lat="2.886952" lon="-75.151085">
        <ele>823.7</ele>
        <time>2021-08-21T19:23:06Z</time>
      </trkpt>
      <trkpt lat="2.887007" lon="-75.15109">
        <ele>823.0</ele>
        <time>2021-08-21T19:23:07Z</time>
      </trkpt>
      <trkpt lat="2.887064" lon="-75.15111">
        <ele>822.3</ele>
        <time>2021-08-21T19:23:08Z</time>
      </trkpt>
      <trkpt lat="2.887117" lon="-75.15112">
        <ele>821.7</ele>
        <time>2021-08-21T19:23:09Z</time>
      </trkpt>
      <trkpt lat="2.887174" lon="-75.151146">
        <ele>821.0</ele>
        <time>2021-08-21T19:23:10Z</time>
      </trkpt>
      <trkpt lat="2.887235" lon="-75.15117">
        <ele>820.3</ele>
        <time>2021-08-21T19:23:11Z</time>
      </trkpt>
      <trkpt lat="2.887296" lon="-75.15119">
        <ele>819.6</ele>
        <time>2021-08-21T19:23:12Z</time>
      </trkpt>
      <trkpt lat="2.887352" lon="-75.151215">
        <ele>819.0</ele>
        <time>2021-08-21T19:23:13Z</time>
      </trkpt>
      <trkpt lat="2.887406" lon="-75.15124">
        <ele>818.4</ele>
        <time>2021-08-21T19:23:14Z</time>
      </trkpt>
      <trkpt lat="2.887458" lon="-75.15127">
        <ele>817.8</ele>
        <time>2021-08-21T19:23:15Z</time>
      </trkpt>
      <trkpt lat="2.887507" lon="-75.151306">
        <ele>817.2</ele>
        <time>2021-08-21T19:23:16Z</time>
      </trkpt>
      <trkpt lat="2.887549" lon="-75.151344">
        <ele>816.7</ele>
        <time>2021-08-21T19:23:17Z</time>
      </trkpt>
      <trkpt lat="2.887587" lon="-75.15138">
        <ele>816.2</ele>
        <time>2021-08-21T19:23:18Z</time>
      </trkpt>
      <trkpt lat="2.887622" lon="-75.15143">
        <ele>815.7</ele>
        <time>2021-08-21T19:23:19Z</time>
      </trkpt>
      <trkpt lat="2.887658" lon="-75.15148">
        <ele>815.2</ele>
        <time>2021-08-21T19:23:20Z</time>
      </trkpt>
      <trkpt lat="2.887695" lon="-75.151535">
        <ele>814.8</ele>
        <time>2021-08-21T19:23:21Z</time>
      </trkpt>
      <trkpt lat="2.887731" lon="-75.15158">
        <ele>814.3</ele>
        <time>2021-08-21T19:23:22Z</time>
      </trkpt>
      <trkpt lat="2.887771" lon="-75.15163">
        <ele>813.9</ele>
        <time>2021-08-21T19:23:23Z</time>
      </trkpt>
      <trkpt lat="2.887816" lon="-75.15167">
        <ele>813.5</ele>
        <time>2021-08-21T19:23:24Z</time>
      </trkpt>
      <trkpt lat="2.887862" lon="-75.151695">
        <ele>813.1</ele>
        <time>2021-08-21T19:23:25Z</time>
      </trkpt>
      <trkpt lat="2.887916" lon="-75.1517">
        <ele>812.7</ele>
        <time>2021-08-21T19:23:26Z</time>
      </trkpt>
      <trkpt lat="2.887969" lon="-75.151695">
        <ele>812.3</ele>
        <time>2021-08-21T19:23:27Z</time>
      </trkpt>
      <trkpt lat="2.888019" lon="-75.15168">
        <ele>811.9</ele>
        <time>2021-08-21T19:23:28Z</time>
      </trkpt>
      <trkpt lat="2.888064" lon="-75.15164">
        <ele>811.5</ele>
        <time>2021-08-21T19:23:29Z</time>
      </trkpt>
      <trkpt lat="2.888106" lon="-75.1516">
        <ele>811.0</ele>
        <time>2021-08-21T19:23:30Z</time>
      </trkpt>
      <trkpt lat="2.888144" lon="-75.15154">
        <ele>810.4</ele>
        <time>2021-08-21T19:23:31Z</time>
      </trkpt>
      <trkpt lat="2.888181" lon="-75.15148">
        <ele>809.8</ele>
        <time>2021-08-21T19:23:32Z</time>
      </trkpt>
      <trkpt lat="2.888218" lon="-75.15142">
        <ele>809.2</ele>
        <time>2021-08-21T19:23:33Z</time>
      </trkpt>
      <trkpt lat="2.888259" lon="-75.15136">
        <ele>808.6</ele>
        <time>2021-08-21T19:23:34Z</time>
      </trkpt>
      <trkpt lat="2.888304" lon="-75.1513">
        <ele>807.9</ele>
        <time>2021-08-21T19:23:35Z</time>
      </trkpt>
      <trkpt lat="2.88835" lon="-75.15124">
        <ele>807.2</ele>
        <time>2021-08-21T19:23:36Z</time>
      </trkpt>
      <trkpt lat="2.888394" lon="-75.15118">
        <ele>806.5</ele>
        <time>2021-08-21T19:23:37Z</time>
      </trkpt>
      <trkpt lat="2.888438" lon="-75.15112">
        <ele>805.9</ele>
        <time>2021-08-21T19:23:38Z</time>
      </trkpt>
      <trkpt lat="2.888484" lon="-75.15106">
        <ele>805.4</ele>
        <time>2021-08-21T19:23:39Z</time>
      </trkpt>
      <trkpt lat="2.888531" lon="-75.15101">
        <ele>804.8</ele>
        <time>2021-08-21T19:23:40Z</time>
      </trkpt>
      <trkpt lat="2.888579" lon="-75.15096">
        <ele>804.3</ele>
        <time>2021-08-21T19:23:41Z</time>
      </trkpt>
      <trkpt lat="2.888631" lon="-75.150925">
        <ele>803.7</ele>
        <time>2021-08-21T19:23:42Z</time>
      </trkpt>
      <trkpt lat="2.888687" lon="-75.15089">
        <ele>803.1</ele>
        <time>2021-08-21T19:23:43Z</time>
      </trkpt>
      <trkpt lat="2.888748" lon="-75.150856">
        <ele>802.5</ele>
        <time>2021-08-21T19:23:44Z</time>
      </trkpt>
      <trkpt lat="2.88881" lon="-75.15083">
        <ele>801.9</ele>
        <time>2021-08-21T19:23:45Z</time>
      </trkpt>
      <trkpt lat="2.888875" lon="-75.15081">
        <ele>801.3</ele>
        <time>2021-08-21T19:23:46Z</time>
      </trkpt>
      <trkpt lat="2.888939" lon="-75.1508">
        <ele>800.7</ele>
        <time>2021-08-21T19:23:47Z</time>
      </trkpt>
      <trkpt lat="2.889" lon="-75.150795">
        <ele>800.1</ele>
        <time>2021-08-21T19:23:48Z</time>
      </trkpt>
      <trkpt lat="2.889059" lon="-75.150795">
        <ele>799.4</ele>
        <time>2021-08-21T19:23:49Z</time>
      </trkpt>
      <trkpt lat="2.889115" lon="-75.1508">
        <ele>798.8</ele>
        <time>2021-08-21T19:23:50Z</time>
      </trkpt>
      <trkpt lat="2.889169" lon="-75.15081">
        <ele>798.1</ele>
        <time>2021-08-21T19:23:51Z</time>
      </trkpt>
      <trkpt lat="2.889221" lon="-75.15083">
        <ele>797.3</ele>
        <time>2021-08-21T19:23:52Z</time>
      </trkpt>
      <trkpt lat="2.889272" lon="-75.150856">
        <ele>796.4</ele>
        <time>2021-08-21T19:23:53Z</time>
      </trkpt>
      <trkpt lat="2.889325" lon="-75.15089">
        <ele>795.6</ele>
        <time>2021-08-21T19:23:54Z</time>
      </trkpt>
      <trkpt lat="2.889384" lon="-75.15092">
        <ele>794.7</ele>
        <time>2021-08-21T19:23:55Z</time>
      </trkpt>
      <trkpt lat="2.889443" lon="-75.150955">
        <ele>794.0</ele>
        <time>2021-08-21T19:23:56Z</time>
      </trkpt>
      <trkpt lat="2.889504" lon="-75.151">
        <ele>793.4</ele>
        <time>2021-08-21T19:23:57Z</time>
      </trkpt>
      <trkpt lat="2.889566" lon="-75.15104">
        <ele>792.9</ele>
        <time>2021-08-21T19:23:58Z</time>
      </trkpt>
      <trkpt lat="2.88963" lon="-75.15107">
        <ele>792.5</ele>
        <time>2021-08-21T19:23:59Z</time>
      </trkpt>
      <trkpt lat="2.889697" lon="-75.15111">
        <ele>792.3</ele>
        <time>2021-08-21T19:24:00Z</time>
      </trkpt>
      <trkpt lat="2.889764" lon="-75.15113">
        <ele>792.2</ele>
        <time>2021-08-21T19:24:01Z</time>
      </trkpt>
      <trkpt lat="2.889828" lon="-75.15116">
        <ele>792.2</ele>
        <time>2021-08-21T19:24:02Z</time>
      </trkpt>
      <trkpt lat="2.889889" lon="-75.151184">
        <ele>792.3</ele>
        <time>2021-08-21T19:24:03Z</time>
      </trkpt>
      <trkpt lat="2.889949" lon="-75.1512">
        <ele>792.4</ele>
        <time>2021-08-21T19:24:04Z</time>
      </trkpt>
      <trkpt lat="2.890006" lon="-75.151215">
        <ele>792.4</ele>
        <time>2021-08-21T19:24:05Z</time>
      </trkpt>
      <trkpt lat="2.890061" lon="-75.15123">
        <ele>792.5</ele>
        <time>2021-08-21T19:24:06Z</time>
      </trkpt>
      <trkpt lat="2.890114" lon="-75.151245">
        <ele>792.5</ele>
        <time>2021-08-21T19:24:07Z</time>
      </trkpt>
      <trkpt lat="2.890166" lon="-75.15125">
        <ele>792.6</ele>
        <time>2021-08-21T19:24:08Z</time>
      </trkpt>
      <trkpt lat="2.890215" lon="-75.15126">
        <ele>792.6</ele>
        <time>2021-08-21T19:24:09Z</time>
      </trkpt>
      <trkpt lat="2.890259" lon="-75.15126">
        <ele>792.7</ele>
        <time>2021-08-21T19:24:10Z</time>
      </trkpt>
      <trkpt lat="2.8903" lon="-75.15126">
        <ele>792.9</ele>
        <time>2021-08-21T19:24:11Z</time>
      </trkpt>
      <trkpt lat="2.890339" lon="-75.15126">
        <ele>793.0</ele>
        <time>2021-08-21T19:24:12Z</time>
      </trkpt>
      <trkpt lat="2.890375" lon="-75.15126">
        <ele>793.2</ele>
        <time>2021-08-21T19:24:13Z</time>
      </trkpt>
      <trkpt lat="2.890408" lon="-75.15125">
        <ele>793.3</ele>
        <time>2021-08-21T19:24:14Z</time>
      </trkpt>
      <trkpt lat="2.890442" lon="-75.151245">
        <ele>793.5</ele>
        <time>2021-08-21T19:24:15Z</time>
      </trkpt>
      <trkpt lat="2.890472" lon="-75.15123">
        <ele>793.7</ele>
        <time>2021-08-21T19:24:16Z</time>
      </trkpt>
      <trkpt lat="2.8905" lon="-75.15122">
        <ele>793.9</ele>
        <time>2021-08-21T19:24:17Z</time>
      </trkpt>
      <trkpt lat="2.890525" lon="-75.15121">
        <ele>794.0</ele>
        <time>2021-08-21T19:24:18Z</time>
      </trkpt>
      <trkpt lat="2.890548" lon="-75.151184">
        <ele>794.2</ele>
        <time>2021-08-21T19:24:19Z</time>
      </trkpt>
      <trkpt lat="2.890569" lon="-75.15117">
        <ele>794.4</ele>
        <time>2021-08-21T19:24:20Z</time>
      </trkpt>
      <trkpt lat="2.890588" lon="-75.151146">
        <ele>794.6</ele>
        <time>2021-08-21T19:24:21Z</time>
      </trkpt>
      <trkpt lat="2.890603" lon="-75.15113">
        <ele>794.8</ele>
        <time>2021-08-21T19:24:22Z</time>
      </trkpt>
      <trkpt lat="2.890616" lon="-75.15111">
        <ele>795.0</ele>
        <time>2021-08-21T19:24:23Z</time>
      </trkpt>
      <trkpt lat="2.890628" lon="-75.151085">
        <ele>795.1</ele>
        <time>2021-08-21T19:24:24Z</time>
      </trkpt>
      <trkpt lat="2.890638" lon="-75.15106">
        <ele>795.3</ele>
        <time>2021-08-21T19:24:25Z</time>
      </trkpt>
      <trkpt lat="2.890647" lon="-75.15104">
        <ele>795.5</ele>
        <time>2021-08-21T19:24:26Z</time>
      </trkpt>
      <trkpt lat="2.890656" lon="-75.15102">
        <ele>795.7</ele>
        <time>2021-08-21T19:24:27Z</time>
      </trkpt>
      <trkpt lat="2.890665" lon="-75.15099">
        <ele>795.9</ele>
        <time>2021-08-21T19:24:28Z</time>
      </trkpt>
      <trkpt lat="2.890673" lon="-75.15097">
        <ele>796.1</ele>
        <time>2021-08-21T19:24:29Z</time>
      </trkpt>
      <trkpt lat="2.890683" lon="-75.15094">
        <ele>796.3</ele>
        <time>2021-08-21T19:24:30Z</time>
      </trkpt>
      <trkpt lat="2.890694" lon="-75.15092">
        <ele>796.5</ele>
        <time>2021-08-21T19:24:31Z</time>
      </trkpt>
      <trkpt lat="2.890705" lon="-75.150894">
        <ele>796.7</ele>
        <time>2021-08-21T19:24:32Z</time>
      </trkpt>
      <trkpt lat="2.890716" lon="-75.15087">
        <ele>796.9</ele>
        <time>2021-08-21T19:24:33Z</time>
      </trkpt>
      <trkpt lat="2.890728" lon="-75.15085">
        <ele>797.0</ele>
        <time>2021-08-21T19:24:34Z</time>
      </trkpt>
      <trkpt lat="2.890744" lon="-75.150826">
        <ele>797.2</ele>
        <time>2021-08-21T19:24:35Z</time>
      </trkpt>
      <trkpt lat="2.890759" lon="-75.1508">
        <ele>797.4</ele>
        <time>2021-08-21T19:24:36Z</time>
      </trkpt>
      <trkpt lat="2.890776" lon="-75.15079">
        <ele>797.5</ele>
        <time>2021-08-21T19:24:37Z</time>
      </trkpt>
      <trkpt lat="2.890792" lon="-75.150764">
        <ele>797.7</ele>
        <time>2021-08-21T19:24:38Z</time>
      </trkpt>
      <trkpt lat="2.890809" lon="-75.15074">
        <ele>797.8</ele>
        <time>2021-08-21T19:24:39Z</time>
      </trkpt>
      <trkpt lat="2.890827" lon="-75.15072">
        <ele>798.0</ele>
        <time>2021-08-21T19:24:40Z</time>
      </trkpt>
      <trkpt lat="2.890847" lon="-75.1507">
        <ele>798.1</ele>
        <time>2021-08-21T19:24:41Z</time>
      </trkpt>
      <trkpt lat="2.890868" lon="-75.15068">
        <ele>798.2</ele>
        <time>2021-08-21T19:24:42Z</time>
      </trkpt>
      <trkpt lat="2.890891" lon="-75.150665">
        <ele>798.3</ele>
        <time>2021-08-21T19:24:43Z</time>
      </trkpt>
      <trkpt lat="2.890915" lon="-75.15064">
        <ele>798.4</ele>
        <time>2021-08-21T19:24:44Z</time>
      </trkpt>
      <trkpt lat="2.890941" lon="-75.15063">
        <ele>798.5</ele>
        <time>2021-08-21T19:24:45Z</time>
      </trkpt>
      <trkpt lat="2.890968" lon="-75.15061">
        <ele>798.6</ele>
        <time>2021-08-21T19:24:46Z</time>
      </trkpt>
      <trkpt lat="2.891001" lon="-75.1506">
        <ele>798.6</ele>
        <time>2021-08-21T19:24:47Z</time>
      </trkpt>
      <trkpt lat="2.891033" lon="-75.15058">
        <ele>798.7</ele>
        <time>2021-08-21T19:24:48Z</time>
      </trkpt>
      <trkpt lat="2.891066" lon="-75.15057">
        <ele>798.7</ele>
        <time>2021-08-21T19:24:49Z</time>
      </trkpt>
      <trkpt lat="2.891101" lon="-75.150566">
        <ele>798.8</ele>
        <time>2021-08-21T19:24:50Z</time>
      </trkpt>
      <trkpt lat="2.891137" lon="-75.15056">
        <ele>798.8</ele>
        <time>2021-08-21T19:24:51Z</time>
      </trkpt>
      <trkpt lat="2.891175" lon="-75.15056">
        <ele>798.9</ele>
        <time>2021-08-21T19:24:52Z</time>
      </trkpt>
      <trkpt lat="2.891213" lon="-75.15056">
        <ele>798.9</ele>
        <time>2021-08-21T19:24:53Z</time>
      </trkpt>
      <trkpt lat="2.89125" lon="-75.150566">
        <ele>798.9</ele>
        <time>2021-08-21T19:24:54Z</time>
      </trkpt>
      <trkpt lat="2.891287" lon="-75.15057">
        <ele>799.0</ele>
        <time>2021-08-21T19:24:55Z</time>
      </trkpt>
      <trkpt lat="2.891321" lon="-75.15059">
        <ele>799.0</ele>
        <time>2021-08-21T19:24:56Z</time>
      </trkpt>
      <trkpt lat="2.891357" lon="-75.150604">
        <ele>799.0</ele>
        <time>2021-08-21T19:24:57Z</time>
      </trkpt>
      <trkpt lat="2.89139" lon="-75.15062">
        <ele>799.0</ele>
        <time>2021-08-21T19:24:58Z</time>
      </trkpt>
      <trkpt lat="2.89142" lon="-75.15064">
        <ele>799.0</ele>
        <time>2021-08-21T19:24:59Z</time>
      </trkpt>
      <trkpt lat="2.891447" lon="-75.15067">
        <ele>799.0</ele>
        <time>2021-08-21T19:25:00Z</time>
      </trkpt>
      <trkpt lat="2.891473" lon="-75.150696">
        <ele>798.9</ele>
        <time>2021-08-21T19:25:01Z</time>
      </trkpt>
      <trkpt lat="2.891496" lon="-75.15073">
        <ele>798.8</ele>
        <time>2021-08-21T19:25:02Z</time>
      </trkpt>
      <trkpt lat="2.891518" lon="-75.150764">
        <ele>798.7</ele>
        <time>2021-08-21T19:25:03Z</time>
      </trkpt>
      <trkpt lat="2.89154" lon="-75.150795">
        <ele>798.6</ele>
        <time>2021-08-21T19:25:04Z</time>
      </trkpt>
      <trkpt lat="2.891559" lon="-75.15083">
        <ele>798.5</ele>
        <time>2021-08-21T19:25:05Z</time>
      </trkpt>
      <trkpt lat="2.891579" lon="-75.15086">
        <ele>798.3</ele>
        <time>2021-08-21T19:25:06Z</time>
      </trkpt>
      <trkpt lat="2.891599" lon="-75.1509">
        <ele>798.2</ele>
        <time>2021-08-21T19:25:07Z</time>
      </trkpt>
      <trkpt lat="2.89162" lon="-75.15094">
        <ele>797.9</ele>
        <time>2021-08-21T19:25:08Z</time>
      </trkpt>
      <trkpt lat="2.891642" lon="-75.15098">
        <ele>797.7</ele>
        <time>2021-08-21T19:25:09Z</time>
      </trkpt>
      <trkpt lat="2.891664" lon="-75.15102">
        <ele>797.5</ele>
        <time>2021-08-21T19:25:10Z</time>
      </trkpt>
      <trkpt lat="2.891686" lon="-75.151054">
        <ele>797.2</ele>
        <time>2021-08-21T19:25:11Z</time>
      </trkpt>
      <trkpt lat="2.89171" lon="-75.15109">
        <ele>797.0</ele>
        <time>2021-08-21T19:25:12Z</time>
      </trkpt>
      <trkpt lat="2.891737" lon="-75.15114">
        <ele>796.7</ele>
        <time>2021-08-21T19:25:13Z</time>
      </trkpt>
      <trkpt lat="2.891765" lon="-75.151184">
        <ele>796.5</ele>
        <time>2021-08-21T19:25:14Z</time>
      </trkpt>
      <trkpt lat="2.891794" lon="-75.15124">
        <ele>796.3</ele>
        <time>2021-08-21T19:25:15Z</time>
      </trkpt>
      <trkpt lat="2.891822" lon="-75.15128">
        <ele>796.1</ele>
        <time>2021-08-21T19:25:16Z</time>
      </trkpt>
      <trkpt lat="2.891849" lon="-75.15133">
        <ele>795.9</ele>
        <time>2021-08-21T19:25:17Z</time>
      </trkpt>
      <trkpt lat="2.891876" lon="-75.151375">
        <ele>795.8</ele>
        <time>2021-08-21T19:25:18Z</time>
      </trkpt>
      <trkpt lat="2.891903" lon="-75.15142">
        <ele>795.6</ele>
        <time>2021-08-21T19:25:19Z</time>
      </trkpt>
      <trkpt lat="2.89193" lon="-75.15147">
        <ele>795.4</ele>
        <time>2021-08-21T19:25:20Z</time>
      </trkpt>
      <trkpt lat="2.891956" lon="-75.15151">
        <ele>795.3</ele>
        <time>2021-08-21T19:25:21Z</time>
      </trkpt>
      <trkpt lat="2.891979" lon="-75.151566">
        <ele>795.0</ele>
        <time>2021-08-21T19:25:22Z</time>
      </trkpt>
      <trkpt lat="2.892" lon="-75.15161">
        <ele>794.8</ele>
        <time>2021-08-21T19:25:23Z</time>
      </trkpt>
      <trkpt lat="2.892018" lon="-75.151665">
        <ele>794.5</ele>
        <time>2021-08-21T19:25:24Z</time>
      </trkpt>
      <trkpt lat="2.892032" lon="-75.15172">
        <ele>794.1</ele>
        <time>2021-08-21T19:25:25Z</time>
      </trkpt>
      <trkpt lat="2.892042" lon="-75.15177">
        <ele>793.8</ele>
        <time>2021-08-21T19:25:26Z</time>
      </trkpt>
      <trkpt lat="2.89205" lon="-75.151825">
        <ele>793.4</ele>
        <time>2021-08-21T19:25:27Z</time>
      </trkpt>
      <trkpt lat="2.892055" lon="-75.15188">
        <ele>792.9</ele>
        <time>2021-08-21T19:25:28Z</time>
      </trkpt>
      <trkpt lat="2.892061" lon="-75.15194">
        <ele>792.4</ele>
        <time>2021-08-21T19:25:29Z</time>
      </trkpt>
      <trkpt lat="2.892071" lon="-75.152">
        <ele>791.8</ele>
        <time>2021-08-21T19:25:30Z</time>
      </trkpt>
      <trkpt lat="2.892086" lon="-75.15206">
        <ele>791.1</ele>
        <time>2021-08-21T19:25:31Z</time>
      </trkpt>
      <trkpt lat="2.892108" lon="-75.15212">
        <ele>790.3</ele>
        <time>2021-08-21T19:25:32Z</time>
      </trkpt>
      <trkpt lat="2.892138" lon="-75.152176">
        <ele>789.6</ele>
        <time>2021-08-21T19:25:33Z</time>
      </trkpt>
      <trkpt lat="2.892176" lon="-75.15223">
        <ele>788.8</ele>
        <time>2021-08-21T19:25:34Z</time>
      </trkpt>
      <trkpt lat="2.892221" lon="-75.15228">
        <ele>788.1</ele>
        <time>2021-08-21T19:25:35Z</time>
      </trkpt>
      <trkpt lat="2.892271" lon="-75.15233">
        <ele>787.3</ele>
        <time>2021-08-21T19:25:36Z</time>
      </trkpt>
      <trkpt lat="2.89233" lon="-75.152374">
        <ele>786.5</ele>
        <time>2021-08-21T19:25:37Z</time>
      </trkpt>
      <trkpt lat="2.892393" lon="-75.152405">
        <ele>785.7</ele>
        <time>2021-08-21T19:25:38Z</time>
      </trkpt>
      <trkpt lat="2.892458" lon="-75.152435">
        <ele>785.0</ele>
        <time>2021-08-21T19:25:39Z</time>
      </trkpt>
      <trkpt lat="2.892523" lon="-75.15245">
        <ele>784.3</ele>
        <time>2021-08-21T19:25:40Z</time>
      </trkpt>
      <trkpt lat="2.892596" lon="-75.152466">
        <ele>783.5</ele>
        <time>2021-08-21T19:25:41Z</time>
      </trkpt>
      <trkpt lat="2.89267" lon="-75.15247">
        <ele>782.8</ele>
        <time>2021-08-21T19:25:42Z</time>
      </trkpt>
      <trkpt lat="2.892747" lon="-75.15248">
        <ele>782.0</ele>
        <time>2021-08-21T19:25:43Z</time>
      </trkpt>
      <trkpt lat="2.892822" lon="-75.15247">
        <ele>781.2</ele>
        <time>2021-08-21T19:25:44Z</time>
      </trkpt>
      <trkpt lat="2.892895" lon="-75.152466">
        <ele>780.3</ele>
        <time>2021-08-21T19:25:45Z</time>
      </trkpt>
      <trkpt lat="2.892966" lon="-75.15245">
        <ele>779.3</ele>
        <time>2021-08-21T19:25:46Z</time>
      </trkpt>
      <trkpt lat="2.893034" lon="-75.152435">
        <ele>778.2</ele>
        <time>2021-08-21T19:25:47Z</time>
      </trkpt>
      <trkpt lat="2.893099" lon="-75.152405">
        <ele>777.1</ele>
        <time>2021-08-21T19:25:48Z</time>
      </trkpt>
      <trkpt lat="2.893159" lon="-75.15237">
        <ele>776.1</ele>
        <time>2021-08-21T19:25:49Z</time>
      </trkpt>
      <trkpt lat="2.893217" lon="-75.15233">
        <ele>775.1</ele>
        <time>2021-08-21T19:25:50Z</time>
      </trkpt>
      <trkpt lat="2.89327" lon="-75.152275">
        <ele>774.3</ele>
        <time>2021-08-21T19:25:51Z</time>
      </trkpt>
      <trkpt lat="2.893316" lon="-75.15223">
        <ele>773.5</ele>
        <time>2021-08-21T19:25:52Z</time>
      </trkpt>
      <trkpt lat="2.893361" lon="-75.152176">
        <ele>772.8</ele>
        <time>2021-08-21T19:25:53Z</time>
      </trkpt>
      <trkpt lat="2.893405" lon="-75.15212">
        <ele>772.0</ele>
        <time>2021-08-21T19:25:54Z</time>
      </trkpt>
      <trkpt lat="2.893449" lon="-75.15206">
        <ele>771.3</ele>
        <time>2021-08-21T19:25:55Z</time>
      </trkpt>
      <trkpt lat="2.893497" lon="-75.15201">
        <ele>770.5</ele>
        <time>2021-08-21T19:25:56Z</time>
      </trkpt>
      <trkpt lat="2.893548" lon="-75.151955">
        <ele>769.7</ele>
        <time>2021-08-21T19:25:57Z</time>
      </trkpt>
      <trkpt lat="2.893603" lon="-75.1519">
        <ele>768.8</ele>
        <time>2021-08-21T19:25:58Z</time>
      </trkpt>
      <trkpt lat="2.893662" lon="-75.15186">
        <ele>768.0</ele>
        <time>2021-08-21T19:25:59Z</time>
      </trkpt>
      <trkpt lat="2.893724" lon="-75.15183">
        <ele>767.1</ele>
        <time>2021-08-21T19:26:00Z</time>
      </trkpt>
      <trkpt lat="2.89379" lon="-75.15181">
        <ele>766.1</ele>
        <time>2021-08-21T19:26:01Z</time>
      </trkpt>
      <trkpt lat="2.893856" lon="-75.15179">
        <ele>765.2</ele>
        <time>2021-08-21T19:26:02Z</time>
      </trkpt>
      <trkpt lat="2.893924" lon="-75.15177">
        <ele>764.3</ele>
        <time>2021-08-21T19:26:03Z</time>
      </trkpt>
      <trkpt lat="2.893991" lon="-75.15176">
        <ele>763.5</ele>
        <time>2021-08-21T19:26:04Z</time>
      </trkpt>
      <trkpt lat="2.894059" lon="-75.15175">
        <ele>762.7</ele>
        <time>2021-08-21T19:26:05Z</time>
      </trkpt>
      <trkpt lat="2.894127" lon="-75.15174">
        <ele>762.1</ele>
        <time>2021-08-21T19:26:06Z</time>
      </trkpt>
      <trkpt lat="2.894196" lon="-75.15173">
        <ele>761.6</ele>
        <time>2021-08-21T19:26:07Z</time>
      </trkpt>
      <trkpt lat="2.894263" lon="-75.15172">
        <ele>761.2</ele>
        <time>2021-08-21T19:26:08Z</time>
      </trkpt>
      <trkpt lat="2.894328" lon="-75.151695">
        <ele>760.9</ele>
        <time>2021-08-21T19:26:09Z</time>
      </trkpt>
      <trkpt lat="2.894392" lon="-75.15167">
        <ele>760.6</ele>
        <time>2021-08-21T19:26:10Z</time>
      </trkpt>
      <trkpt lat="2.894453" lon="-75.15164">
        <ele>760.4</ele>
        <time>2021-08-21T19:26:11Z</time>
      </trkpt>
      <trkpt lat="2.894512" lon="-75.15161">
        <ele>760.2</ele>
        <time>2021-08-21T19:26:12Z</time>
      </trkpt>
      <trkpt lat="2.894565" lon="-75.15157">
        <ele>760.0</ele>
        <time>2021-08-21T19:26:13Z</time>
      </trkpt>
      <trkpt lat="2.894613" lon="-75.151535">
        <ele>759.8</ele>
        <time>2021-08-21T19:26:14Z</time>
      </trkpt>
      <trkpt lat="2.894654" lon="-75.15149">
        <ele>759.6</ele>
        <time>2021-08-21T19:26:15Z</time>
      </trkpt>
      <trkpt lat="2.894689" lon="-75.15144">
        <ele>759.4</ele>
        <time>2021-08-21T19:26:16Z</time>
      </trkpt>
      <trkpt lat="2.894719" lon="-75.15139">
        <ele>759.1</ele>
        <time>2021-08-21T19:26:17Z</time>
      </trkpt>
      <trkpt lat="2.894836" lon="-75.15116">
        <ele>757.6</ele>
        <time>2021-08-21T19:26:19Z</time>
      </trkpt>
      <trkpt lat="2.894846" lon="-75.151146">
        <ele>757.5</ele>
        <time>2021-08-21T19:26:20Z</time>
      </trkpt>
      <trkpt lat="2.894869" lon="-75.15113">
        <ele>757.3</ele>
        <time>2021-08-21T19:26:21Z</time>
      </trkpt>
      <trkpt lat="2.894904" lon="-75.15111">
        <ele>757.0</ele>
        <time>2021-08-21T19:26:22Z</time>
      </trkpt>
      <trkpt lat="2.894948" lon="-75.151085">
        <ele>756.7</ele>
        <time>2021-08-21T19:26:22Z</time>
      </trkpt>
      <trkpt lat="2.895001" lon="-75.15106">
        <ele>756.4</ele>
        <time>2021-08-21T19:26:23Z</time>
      </trkpt>
      <trkpt lat="2.895061" lon="-75.15104">
        <ele>756.0</ele>
        <time>2021-08-21T19:26:24Z</time>
      </trkpt>
      <trkpt lat="2.895123" lon="-75.151024">
        <ele>755.6</ele>
        <time>2021-08-21T19:26:25Z</time>
      </trkpt>
      <trkpt lat="2.895187" lon="-75.15101">
        <ele>755.2</ele>
        <time>2021-08-21T19:26:26Z</time>
      </trkpt>
      <trkpt lat="2.89525" lon="-75.151">
        <ele>754.8</ele>
        <time>2021-08-21T19:26:27Z</time>
      </trkpt>
      <trkpt lat="2.895313" lon="-75.151">
        <ele>754.3</ele>
        <time>2021-08-21T19:26:28Z</time>
      </trkpt>
      <trkpt lat="2.895376" lon="-75.15099">
        <ele>753.9</ele>
        <time>2021-08-21T19:26:29Z</time>
      </trkpt>
      <trkpt lat="2.895436" lon="-75.15099">
        <ele>753.3</ele>
        <time>2021-08-21T19:26:30Z</time>
      </trkpt>
      <trkpt lat="2.895497" lon="-75.15099">
        <ele>752.8</ele>
        <time>2021-08-21T19:26:31Z</time>
      </trkpt>
      <trkpt lat="2.895557" lon="-75.15101">
        <ele>752.2</ele>
        <time>2021-08-21T19:26:32Z</time>
      </trkpt>
      <trkpt lat="2.895618" lon="-75.15102">
        <ele>751.7</ele>
        <time>2021-08-21T19:26:33Z</time>
      </trkpt>
      <trkpt lat="2.89568" lon="-75.15103">
        <ele>751.1</ele>
        <time>2021-08-21T19:26:34Z</time>
      </trkpt>
      <trkpt lat="2.895743" lon="-75.15105">
        <ele>750.7</ele>
        <time>2021-08-21T19:26:35Z</time>
      </trkpt>
      <trkpt lat="2.895808" lon="-75.15107">
        <ele>750.2</ele>
        <time>2021-08-21T19:26:36Z</time>
      </trkpt>
      <trkpt lat="2.895872" lon="-75.15109">
        <ele>749.9</ele>
        <time>2021-08-21T19:26:37Z</time>
      </trkpt>
      <trkpt lat="2.896141" lon="-75.15119">
        <ele>748.8</ele>
        <time>2021-08-21T19:26:39Z</time>
      </trkpt>
      <trkpt lat="2.896156" lon="-75.1512">
        <ele>748.8</ele>
        <time>2021-08-21T19:26:40Z</time>
      </trkpt>
      <trkpt lat="2.896186" lon="-75.151215">
        <ele>748.7</ele>
        <time>2021-08-21T19:26:41Z</time>
      </trkpt>
      <trkpt lat="2.896226" lon="-75.15124">
        <ele>748.6</ele>
        <time>2021-08-21T19:26:42Z</time>
      </trkpt>
      <trkpt lat="2.896269" lon="-75.15126">
        <ele>748.4</ele>
        <time>2021-08-21T19:26:43Z</time>
      </trkpt>
      <trkpt lat="2.89632" lon="-75.15128">
        <ele>748.3</ele>
        <time>2021-08-21T19:26:44Z</time>
      </trkpt>
      <trkpt lat="2.896369" lon="-75.1513">
        <ele>748.1</ele>
        <time>2021-08-21T19:26:45Z</time>
      </trkpt>
      <trkpt lat="2.896422" lon="-75.15131">
        <ele>747.8</ele>
        <time>2021-08-21T19:26:46Z</time>
      </trkpt>
      <trkpt lat="2.896483" lon="-75.15133">
        <ele>747.5</ele>
        <time>2021-08-21T19:26:47Z</time>
      </trkpt>
      <trkpt lat="2.896547" lon="-75.151344">
        <ele>747.1</ele>
        <time>2021-08-21T19:26:48Z</time>
      </trkpt>
      <trkpt lat="2.896611" lon="-75.15136">
        <ele>746.7</ele>
        <time>2021-08-21T19:26:49Z</time>
      </trkpt>
      <trkpt lat="2.896676" lon="-75.151375">
        <ele>746.2</ele>
        <time>2021-08-21T19:26:50Z</time>
      </trkpt>
      <trkpt lat="2.896736" lon="-75.151375">
        <ele>745.8</ele>
        <time>2021-08-21T19:26:51Z</time>
      </trkpt>
      <trkpt lat="2.8968" lon="-75.151375">
        <ele>745.3</ele>
        <time>2021-08-21T19:26:52Z</time>
      </trkpt>
      <trkpt lat="2.896868" lon="-75.15135">
        <ele>744.7</ele>
        <time>2021-08-21T19:26:53Z</time>
      </trkpt>
      <trkpt lat="2.896932" lon="-75.15132">
        <ele>744.3</ele>
        <time>2021-08-21T19:26:54Z</time>
      </trkpt>
      <trkpt lat="2.896991" lon="-75.15129">
        <ele>743.9</ele>
        <time>2021-08-21T19:26:55Z</time>
      </trkpt>
      <trkpt lat="2.897041" lon="-75.151245">
        <ele>743.6</ele>
        <time>2021-08-21T19:26:56Z</time>
      </trkpt>
      <trkpt lat="2.897088" lon="-75.15119">
        <ele>743.3</ele>
        <time>2021-08-21T19:26:57Z</time>
      </trkpt>
      <trkpt lat="2.897129" lon="-75.15113">
        <ele>743.1</ele>
        <time>2021-08-21T19:26:58Z</time>
      </trkpt>
      <trkpt lat="2.897167" lon="-75.15106">
        <ele>742.9</ele>
        <time>2021-08-21T19:26:59Z</time>
      </trkpt>
      <trkpt lat="2.897202" lon="-75.151">
        <ele>742.7</ele>
        <time>2021-08-21T19:27:00Z</time>
      </trkpt>
      <trkpt lat="2.897233" lon="-75.15093">
        <ele>742.6</ele>
        <time>2021-08-21T19:27:01Z</time>
      </trkpt>
      <trkpt lat="2.897261" lon="-75.15086">
        <ele>742.5</ele>
        <time>2021-08-21T19:27:02Z</time>
      </trkpt>
      <trkpt lat="2.897287" lon="-75.150795">
        <ele>742.4</ele>
        <time>2021-08-21T19:27:03Z</time>
      </trkpt>
      <trkpt lat="2.897311" lon="-75.150734">
        <ele>742.2</ele>
        <time>2021-08-21T19:27:04Z</time>
      </trkpt>
      <trkpt lat="2.897332" lon="-75.15067">
        <ele>742.1</ele>
        <time>2021-08-21T19:27:05Z</time>
      </trkpt>
      <trkpt lat="2.897352" lon="-75.150604">
        <ele>742.0</ele>
        <time>2021-08-21T19:27:06Z</time>
      </trkpt>
      <trkpt lat="2.897372" lon="-75.15055">
        <ele>741.9</ele>
        <time>2021-08-21T19:27:07Z</time>
      </trkpt>
      <trkpt lat="2.897391" lon="-75.1505">
        <ele>741.8</ele>
        <time>2021-08-21T19:27:08Z</time>
      </trkpt>
      <trkpt lat="2.897411" lon="-75.15045">
        <ele>741.7</ele>
        <time>2021-08-21T19:27:09Z</time>
      </trkpt>
      <trkpt lat="2.897436" lon="-75.1504">
        <ele>741.6</ele>
        <time>2021-08-21T19:27:10Z</time>
      </trkpt>
      <trkpt lat="2.897461" lon="-75.15036">
        <ele>741.5</ele>
        <time>2021-08-21T19:27:11Z</time>
      </trkpt>
      <trkpt lat="2.897491" lon="-75.150314">
        <ele>741.4</ele>
        <time>2021-08-21T19:27:12Z</time>
      </trkpt>
      <trkpt lat="2.897524" lon="-75.150276">
        <ele>741.3</ele>
        <time>2021-08-21T19:27:13Z</time>
      </trkpt>
      <trkpt lat="2.89756" lon="-75.15024">
        <ele>741.2</ele>
        <time>2021-08-21T19:27:14Z</time>
      </trkpt>
      <trkpt lat="2.897595" lon="-75.1502">
        <ele>741.1</ele>
        <time>2021-08-21T19:27:15Z</time>
      </trkpt>
      <trkpt lat="2.897753" lon="-75.150055">
        <ele>740.5</ele>
        <time>2021-08-21T19:27:17Z</time>
      </trkpt>
      <trkpt lat="2.89776" lon="-75.15005">
        <ele>740.5</ele>
        <time>2021-08-21T19:27:18Z</time>
      </trkpt>
      <trkpt lat="2.897777" lon="-75.15003">
        <ele>740.4</ele>
        <time>2021-08-21T19:27:19Z</time>
      </trkpt>
      <trkpt lat="2.897806" lon="-75.15002">
        <ele>740.3</ele>
        <time>2021-08-21T19:27:20Z</time>
      </trkpt>
      <trkpt lat="2.897839" lon="-75.14999">
        <ele>740.1</ele>
        <time>2021-08-21T19:27:21Z</time>
      </trkpt>
      <trkpt lat="2.897875" lon="-75.14996">
        <ele>739.9</ele>
        <time>2021-08-21T19:27:22Z</time>
      </trkpt>
      <trkpt lat="2.897909" lon="-75.14994">
        <ele>739.7</ele>
        <time>2021-08-21T19:27:23Z</time>
      </trkpt>
      <trkpt lat="2.897944" lon="-75.14991">
        <ele>739.5</ele>
        <time>2021-08-21T19:27:24Z</time>
      </trkpt>
      <trkpt lat="2.89798" lon="-75.14988">
        <ele>739.2</ele>
        <time>2021-08-21T19:27:25Z</time>
      </trkpt>
      <trkpt lat="2.898016" lon="-75.14984">
        <ele>738.9</ele>
        <time>2021-08-21T19:27:26Z</time>
      </trkpt>
      <trkpt lat="2.89805" lon="-75.1498">
        <ele>738.5</ele>
        <time>2021-08-21T19:27:27Z</time>
      </trkpt>
      <trkpt lat="2.898084" lon="-75.149765">
        <ele>738.2</ele>
        <time>2021-08-21T19:27:28Z</time>
      </trkpt>
      <trkpt lat="2.898118" lon="-75.14972">
        <ele>737.8</ele>
        <time>2021-08-21T19:27:29Z</time>
      </trkpt>
      <trkpt lat="2.898155" lon="-75.14967">
        <ele>737.4</ele>
        <time>2021-08-21T19:27:30Z</time>
      </trkpt>
      <trkpt lat="2.898195" lon="-75.14963">
        <ele>736.9</ele>
        <time>2021-08-21T19:27:31Z</time>
      </trkpt>
      <trkpt lat="2.898238" lon="-75.149574">
        <ele>736.5</ele>
        <time>2021-08-21T19:27:32Z</time>
      </trkpt>
      <trkpt lat="2.898281" lon="-75.14952">
        <ele>736.2</ele>
        <time>2021-08-21T19:27:33Z</time>
      </trkpt>
      <trkpt lat="2.898327" lon="-75.14947">
        <ele>735.8</ele>
        <time>2021-08-21T19:27:34Z</time>
      </trkpt>
      <trkpt lat="2.898374" lon="-75.14942">
        <ele>735.4</ele>
        <time>2021-08-21T19:27:35Z</time>
      </trkpt>
      <trkpt lat="2.898422" lon="-75.14937">
        <ele>735.0</ele>
        <time>2021-08-21T19:27:36Z</time>
      </trkpt>
      <trkpt lat="2.898472" lon="-75.14932">
        <ele>734.6</ele>
        <time>2021-08-21T19:27:37Z</time>
      </trkpt>
      <trkpt lat="2.898522" lon="-75.14928">
        <ele>734.3</ele>
        <time>2021-08-21T19:27:38Z</time>
      </trkpt>
      <trkpt lat="2.898572" lon="-75.14922">
        <ele>734.0</ele>
        <time>2021-08-21T19:27:39Z</time>
      </trkpt>
      <trkpt lat="2.898621" lon="-75.149185">
        <ele>733.7</ele>
        <time>2021-08-21T19:27:40Z</time>
      </trkpt>
      <trkpt lat="2.89867" lon="-75.14914">
        <ele>733.5</ele>
        <time>2021-08-21T19:27:41Z</time>
      </trkpt>
      <trkpt lat="2.898717" lon="-75.1491">
        <ele>733.3</ele>
        <time>2021-08-21T19:27:42Z</time>
      </trkpt>
      <trkpt lat="2.898763" lon="-75.14906">
        <ele>733.1</ele>
        <time>2021-08-21T19:27:43Z</time>
      </trkpt>
      <trkpt lat="2.898808" lon="-75.149025">
        <ele>733.0</ele>
        <time>2021-08-21T19:27:44Z</time>
      </trkpt>
      <trkpt lat="2.898852" lon="-75.14899">
        <ele>732.8</ele>
        <time>2021-08-21T19:27:45Z</time>
      </trkpt>
      <trkpt lat="2.898894" lon="-75.14895">
        <ele>732.7</ele>
        <time>2021-08-21T19:27:46Z</time>
      </trkpt>
      <trkpt lat="2.898937" lon="-75.14892">
        <ele>732.5</ele>
        <time>2021-08-21T19:27:47Z</time>
      </trkpt>
      <trkpt lat="2.898978" lon="-75.148895">
        <ele>732.4</ele>
        <time>2021-08-21T19:27:48Z</time>
      </trkpt>
      <trkpt lat="2.89902" lon="-75.148865">
        <ele>732.3</ele>
        <time>2021-08-21T19:27:49Z</time>
      </trkpt>
      <trkpt lat="2.899064" lon="-75.14884">
        <ele>732.2</ele>
        <time>2021-08-21T19:27:50Z</time>
      </trkpt>
      <trkpt lat="2.899109" lon="-75.14882">
        <ele>732.1</ele>
        <time>2021-08-21T19:27:51Z</time>
      </trkpt>
      <trkpt lat="2.899155" lon="-75.148796">
        <ele>732.0</ele>
        <time>2021-08-21T19:27:52Z</time>
      </trkpt>
      <trkpt lat="2.899202" lon="-75.14877">
        <ele>731.9</ele>
        <time>2021-08-21T19:27:53Z</time>
      </trkpt>
      <trkpt lat="2.899253" lon="-75.14876">
        <ele>731.8</ele>
        <time>2021-08-21T19:27:54Z</time>
      </trkpt>
      <trkpt lat="2.899306" lon="-75.14874">
        <ele>731.7</ele>
        <time>2021-08-21T19:27:55Z</time>
      </trkpt>
      <trkpt lat="2.899362" lon="-75.148735">
        <ele>731.6</ele>
        <time>2021-08-21T19:27:56Z</time>
      </trkpt>
      <trkpt lat="2.899417" lon="-75.14873">
        <ele>731.5</ele>
        <time>2021-08-21T19:27:57Z</time>
      </trkpt>
      <trkpt lat="2.899471" lon="-75.14873">
        <ele>731.4</ele>
        <time>2021-08-21T19:27:58Z</time>
      </trkpt>
      <trkpt lat="2.899523" lon="-75.14873">
        <ele>731.4</ele>
        <time>2021-08-21T19:27:59Z</time>
      </trkpt>
      <trkpt lat="2.899576" lon="-75.14873">
        <ele>731.3</ele>
        <time>2021-08-21T19:28:00Z</time>
      </trkpt>
      <trkpt lat="2.899628" lon="-75.148735">
        <ele>731.3</ele>
        <time>2021-08-21T19:28:01Z</time>
      </trkpt>
      <trkpt lat="2.89968" lon="-75.148735">
        <ele>731.3</ele>
        <time>2021-08-21T19:28:02Z</time>
      </trkpt>
      <trkpt lat="2.899732" lon="-75.148735">
        <ele>731.3</ele>
        <time>2021-08-21T19:28:03Z</time>
      </trkpt>
      <trkpt lat="2.899784" lon="-75.148735">
        <ele>731.3</ele>
        <time>2021-08-21T19:28:04Z</time>
      </trkpt>
      <trkpt lat="2.899834" lon="-75.14873">
        <ele>731.3</ele>
        <time>2021-08-21T19:28:05Z</time>
      </trkpt>
      <trkpt lat="2.899883" lon="-75.14872">
        <ele>731.4</ele>
        <time>2021-08-21T19:28:06Z</time>
      </trkpt>
      <trkpt lat="2.899931" lon="-75.14871">
        <ele>731.4</ele>
        <time>2021-08-21T19:28:07Z</time>
      </trkpt>
      <trkpt lat="2.899978" lon="-75.1487">
        <ele>731.4</ele>
        <time>2021-08-21T19:28:08Z</time>
      </trkpt>
      <trkpt lat="2.900026" lon="-75.14868">
        <ele>731.5</ele>
        <time>2021-08-21T19:28:09Z</time>
      </trkpt>
      <trkpt lat="2.900071" lon="-75.14867">
        <ele>731.5</ele>
        <time>2021-08-21T19:28:10Z</time>
      </trkpt>
      <trkpt lat="2.900113" lon="-75.14866">
        <ele>731.6</ele>
        <time>2021-08-21T19:28:11Z</time>
      </trkpt>
      <trkpt lat="2.900157" lon="-75.14864">
        <ele>731.6</ele>
        <time>2021-08-21T19:28:12Z</time>
      </trkpt>
      <trkpt lat="2.9002" lon="-75.14863">
        <ele>731.7</ele>
        <time>2021-08-21T19:28:13Z</time>
      </trkpt>
      <trkpt lat="2.900241" lon="-75.14861">
        <ele>731.7</ele>
        <time>2021-08-21T19:28:14Z</time>
      </trkpt>
      <trkpt lat="2.900284" lon="-75.148605">
        <ele>731.7</ele>
        <time>2021-08-21T19:28:15Z</time>
      </trkpt>
      <trkpt lat="2.900325" lon="-75.14859">
        <ele>731.7</ele>
        <time>2021-08-21T19:28:16Z</time>
      </trkpt>
      <trkpt lat="2.900366" lon="-75.148575">
        <ele>731.8</ele>
        <time>2021-08-21T19:28:17Z</time>
      </trkpt>
      <trkpt lat="2.900407" lon="-75.14856">
        <ele>731.8</ele>
        <time>2021-08-21T19:28:18Z</time>
      </trkpt>
      <trkpt lat="2.900447" lon="-75.148544">
        <ele>731.8</ele>
        <time>2021-08-21T19:28:19Z</time>
      </trkpt>
      <trkpt lat="2.900486" lon="-75.14854">
        <ele>731.8</ele>
        <time>2021-08-21T19:28:20Z</time>
      </trkpt>
      <trkpt lat="2.900525" lon="-75.14852">
        <ele>731.9</ele>
        <time>2021-08-21T19:28:21Z</time>
      </trkpt>
      <trkpt lat="2.900565" lon="-75.14851">
        <ele>731.9</ele>
        <time>2021-08-21T19:28:22Z</time>
      </trkpt>
      <trkpt lat="2.900604" lon="-75.1485">
        <ele>732.0</ele>
        <time>2021-08-21T19:28:23Z</time>
      </trkpt>
      <trkpt lat="2.900644" lon="-75.14848">
        <ele>732.0</ele>
        <time>2021-08-21T19:28:24Z</time>
      </trkpt>
      <trkpt lat="2.900681" lon="-75.148476">
        <ele>732.1</ele>
        <time>2021-08-21T19:28:25Z</time>
      </trkpt>
      <trkpt lat="2.900722" lon="-75.14846">
        <ele>732.2</ele>
        <time>2021-08-21T19:28:26Z</time>
      </trkpt>
      <trkpt lat="2.900762" lon="-75.148445">
        <ele>732.2</ele>
        <time>2021-08-21T19:28:27Z</time>
      </trkpt>
      <trkpt lat="2.9008" lon="-75.14844">
        <ele>732.3</ele>
        <time>2021-08-21T19:28:28Z</time>
      </trkpt>
      <trkpt lat="2.900838" lon="-75.14842">
        <ele>732.4</ele>
        <time>2021-08-21T19:28:29Z</time>
      </trkpt>
      <trkpt lat="2.900874" lon="-75.14841">
        <ele>732.5</ele>
        <time>2021-08-21T19:28:30Z</time>
      </trkpt>
      <trkpt lat="2.900911" lon="-75.14839">
        <ele>732.6</ele>
        <time>2021-08-21T19:28:31Z</time>
      </trkpt>
      <trkpt lat="2.900952" lon="-75.14838">
        <ele>732.6</ele>
        <time>2021-08-21T19:28:32Z</time>
      </trkpt>
      <trkpt lat="2.900992" lon="-75.14837">
        <ele>732.7</ele>
        <time>2021-08-21T19:28:33Z</time>
      </trkpt>
      <trkpt lat="2.901028" lon="-75.14836">
        <ele>732.7</ele>
        <time>2021-08-21T19:28:34Z</time>
      </trkpt>
      <trkpt lat="2.901066" lon="-75.148346">
        <ele>732.7</ele>
        <time>2021-08-21T19:28:35Z</time>
      </trkpt>
      <trkpt lat="2.901104" lon="-75.14834">
        <ele>732.7</ele>
        <time>2021-08-21T19:28:36Z</time>
      </trkpt>
      <trkpt lat="2.901147" lon="-75.14832">
        <ele>732.7</ele>
        <time>2021-08-21T19:28:37Z</time>
      </trkpt>
      <trkpt lat="2.901189" lon="-75.14831">
        <ele>732.7</ele>
        <time>2021-08-21T19:28:38Z</time>
      </trkpt>
      <trkpt lat="2.901231" lon="-75.14829">
        <ele>732.7</ele>
        <time>2021-08-21T19:28:39Z</time>
      </trkpt>
      <trkpt lat="2.901273" lon="-75.14828">
        <ele>732.6</ele>
        <time>2021-08-21T19:28:40Z</time>
      </trkpt>
      <trkpt lat="2.901315" lon="-75.148254">
        <ele>732.6</ele>
        <time>2021-08-21T19:28:41Z</time>
      </trkpt>
      <trkpt lat="2.901356" lon="-75.14824">
        <ele>732.6</ele>
        <time>2021-08-21T19:28:42Z</time>
      </trkpt>
      <trkpt lat="2.901396" lon="-75.14822">
        <ele>732.5</ele>
        <time>2021-08-21T19:28:43Z</time>
      </trkpt>
      <trkpt lat="2.901436" lon="-75.14819">
        <ele>732.5</ele>
        <time>2021-08-21T19:28:44Z</time>
      </trkpt>
      <trkpt lat="2.901473" lon="-75.14818">
        <ele>732.5</ele>
        <time>2021-08-21T19:28:45Z</time>
      </trkpt>
      <trkpt lat="2.901512" lon="-75.148155">
        <ele>732.5</ele>
        <time>2021-08-21T19:28:46Z</time>
      </trkpt>
      <trkpt lat="2.901552" lon="-75.14814">
        <ele>732.6</ele>
        <time>2021-08-21T19:28:47Z</time>
      </trkpt>
      <trkpt lat="2.901592" lon="-75.148125">
        <ele>732.6</ele>
        <time>2021-08-21T19:28:48Z</time>
      </trkpt>
      <trkpt lat="2.901634" lon="-75.14811">
        <ele>732.6</ele>
        <time>2021-08-21T19:28:49Z</time>
      </trkpt>
      <trkpt lat="2.901673" lon="-75.148094">
        <ele>732.6</ele>
        <time>2021-08-21T19:28:50Z</time>
      </trkpt>
      <trkpt lat="2.901712" lon="-75.14809">
        <ele>732.6</ele>
        <time>2021-08-21T19:28:51Z</time>
      </trkpt>
      <trkpt lat="2.901751" lon="-75.14808">
        <ele>732.6</ele>
        <time>2021-08-21T19:28:52Z</time>
      </trkpt>
      <trkpt lat="2.901793" lon="-75.14807">
        <ele>732.5</ele>
        <time>2021-08-21T19:28:53Z</time>
      </trkpt>
      <trkpt lat="2.901835" lon="-75.14806">
        <ele>732.4</ele>
        <time>2021-08-21T19:28:54Z</time>
      </trkpt>
      <trkpt lat="2.901879" lon="-75.148056">
        <ele>732.3</ele>
        <time>2021-08-21T19:28:55Z</time>
      </trkpt>
      <trkpt lat="2.901925" lon="-75.14805">
        <ele>732.2</ele>
        <time>2021-08-21T19:28:56Z</time>
      </trkpt>
      <trkpt lat="2.901971" lon="-75.14804">
        <ele>732.0</ele>
        <time>2021-08-21T19:28:57Z</time>
      </trkpt>
      <trkpt lat="2.902018" lon="-75.14804">
        <ele>731.8</ele>
        <time>2021-08-21T19:28:58Z</time>
      </trkpt>
      <trkpt lat="2.902066" lon="-75.14803">
        <ele>731.6</ele>
        <time>2021-08-21T19:28:59Z</time>
      </trkpt>
      <trkpt lat="2.902114" lon="-75.14803">
        <ele>731.4</ele>
        <time>2021-08-21T19:29:00Z</time>
      </trkpt>
      <trkpt lat="2.902162" lon="-75.148026">
        <ele>731.3</ele>
        <time>2021-08-21T19:29:01Z</time>
      </trkpt>
      <trkpt lat="2.902211" lon="-75.148026">
        <ele>731.1</ele>
        <time>2021-08-21T19:29:02Z</time>
      </trkpt>
      <trkpt lat="2.902261" lon="-75.14802">
        <ele>730.9</ele>
        <time>2021-08-21T19:29:03Z</time>
      </trkpt>
      <trkpt lat="2.902311" lon="-75.14801">
        <ele>730.7</ele>
        <time>2021-08-21T19:29:04Z</time>
      </trkpt>
      <trkpt lat="2.90236" lon="-75.14801">
        <ele>730.4</ele>
        <time>2021-08-21T19:29:05Z</time>
      </trkpt>
      <trkpt lat="2.902411" lon="-75.148">
        <ele>730.2</ele>
        <time>2021-08-21T19:29:06Z</time>
      </trkpt>
      <trkpt lat="2.902462" lon="-75.147995">
        <ele>730.0</ele>
        <time>2021-08-21T19:29:07Z</time>
      </trkpt>
      <trkpt lat="2.902513" lon="-75.14799">
        <ele>729.7</ele>
        <time>2021-08-21T19:29:08Z</time>
      </trkpt>
      <trkpt lat="2.902568" lon="-75.14799">
        <ele>729.5</ele>
        <time>2021-08-21T19:29:09Z</time>
      </trkpt>
      <trkpt lat="2.902618" lon="-75.14798">
        <ele>729.3</ele>
        <time>2021-08-21T19:29:10Z</time>
      </trkpt>
      <trkpt lat="2.902669" lon="-75.14798">
        <ele>729.0</ele>
        <time>2021-08-21T19:29:11Z</time>
      </trkpt>
      <trkpt lat="2.902721" lon="-75.14798">
        <ele>728.8</ele>
        <time>2021-08-21T19:29:12Z</time>
      </trkpt>
      <trkpt lat="2.902776" lon="-75.14798">
        <ele>728.6</ele>
        <time>2021-08-21T19:29:13Z</time>
      </trkpt>
      <trkpt lat="2.902829" lon="-75.14799">
        <ele>728.4</ele>
        <time>2021-08-21T19:29:14Z</time>
      </trkpt>
      <trkpt lat="2.902881" lon="-75.148">
        <ele>728.2</ele>
        <time>2021-08-21T19:29:15Z</time>
      </trkpt>
      <trkpt lat="2.902929" lon="-75.14801">
        <ele>728.0</ele>
        <time>2021-08-21T19:29:16Z</time>
      </trkpt>
      <trkpt lat="2.902977" lon="-75.14802">
        <ele>727.9</ele>
        <time>2021-08-21T19:29:17Z</time>
      </trkpt>
      <trkpt lat="2.90303" lon="-75.148026">
        <ele>727.7</ele>
        <time>2021-08-21T19:29:18Z</time>
      </trkpt>
      <trkpt lat="2.903081" lon="-75.14804">
        <ele>727.6</ele>
        <time>2021-08-21T19:29:19Z</time>
      </trkpt>
      <trkpt lat="2.90313" lon="-75.148056">
        <ele>727.4</ele>
        <time>2021-08-21T19:29:20Z</time>
      </trkpt>
      <trkpt lat="2.903175" lon="-75.14806">
        <ele>727.3</ele>
        <time>2021-08-21T19:29:21Z</time>
      </trkpt>
      <trkpt lat="2.903221" lon="-75.14808">
        <ele>727.2</ele>
        <time>2021-08-21T19:29:22Z</time>
      </trkpt>
      <trkpt lat="2.903267" lon="-75.14809">
        <ele>727.1</ele>
        <time>2021-08-21T19:29:23Z</time>
      </trkpt>
      <trkpt lat="2.903313" lon="-75.1481">
        <ele>726.9</ele>
        <time>2021-08-21T19:29:24Z</time>
      </trkpt>
      <trkpt lat="2.903359" lon="-75.14811">
        <ele>726.8</ele>
        <time>2021-08-21T19:29:25Z</time>
      </trkpt>
      <trkpt lat="2.903409" lon="-75.148125">
        <ele>726.7</ele>
        <time>2021-08-21T19:29:26Z</time>
      </trkpt>
      <trkpt lat="2.903455" lon="-75.14813">
        <ele>726.5</ele>
        <time>2021-08-21T19:29:27Z</time>
      </trkpt>
      <trkpt lat="2.903504" lon="-75.14815">
        <ele>726.4</ele>
        <time>2021-08-21T19:29:28Z</time>
      </trkpt>
      <trkpt lat="2.903559" lon="-75.14816">
        <ele>726.2</ele>
        <time>2021-08-21T19:29:29Z</time>
      </trkpt>
      <trkpt lat="2.903613" lon="-75.14818">
        <ele>726.0</ele>
        <time>2021-08-21T19:29:30Z</time>
      </trkpt>
      <trkpt lat="2.903667" lon="-75.148186">
        <ele>725.9</ele>
        <time>2021-08-21T19:29:31Z</time>
      </trkpt>
      <trkpt lat="2.903718" lon="-75.1482">
        <ele>725.6</ele>
        <time>2021-08-21T19:29:32Z</time>
      </trkpt>
      <trkpt lat="2.903768" lon="-75.14822">
        <ele>725.4</ele>
        <time>2021-08-21T19:29:33Z</time>
      </trkpt>
      <trkpt lat="2.903824" lon="-75.14823">
        <ele>725.0</ele>
        <time>2021-08-21T19:29:34Z</time>
      </trkpt>
      <trkpt lat="2.903881" lon="-75.14825">
        <ele>724.6</ele>
        <time>2021-08-21T19:29:35Z</time>
      </trkpt>
      <trkpt lat="2.903938" lon="-75.14827">
        <ele>724.2</ele>
        <time>2021-08-21T19:29:36Z</time>
      </trkpt>
      <trkpt lat="2.903997" lon="-75.148285">
        <ele>723.8</ele>
        <time>2021-08-21T19:29:37Z</time>
      </trkpt>
      <trkpt lat="2.904053" lon="-75.1483">
        <ele>723.4</ele>
        <time>2021-08-21T19:29:38Z</time>
      </trkpt>
      <trkpt lat="2.904113" lon="-75.148315">
        <ele>722.9</ele>
        <time>2021-08-21T19:29:39Z</time>
      </trkpt>
      <trkpt lat="2.904177" lon="-75.14833">
        <ele>722.5</ele>
        <time>2021-08-21T19:29:40Z</time>
      </trkpt>
      <trkpt lat="2.904242" lon="-75.148346">
        <ele>722.0</ele>
        <time>2021-08-21T19:29:41Z</time>
      </trkpt>
      <trkpt lat="2.904311" lon="-75.14835">
        <ele>721.6</ele>
        <time>2021-08-21T19:29:42Z</time>
      </trkpt>
      <trkpt lat="2.904385" lon="-75.14836">
        <ele>721.2</ele>
        <time>2021-08-21T19:29:43Z</time>
      </trkpt>
      <trkpt lat="2.904459" lon="-75.14837">
        <ele>720.8</ele>
        <time>2021-08-21T19:29:44Z</time>
      </trkpt>
      <trkpt lat="2.904533" lon="-75.14837">
        <ele>720.5</ele>
        <time>2021-08-21T19:29:45Z</time>
      </trkpt>
      <trkpt lat="2.904606" lon="-75.14838">
        <ele>720.2</ele>
        <time>2021-08-21T19:29:46Z</time>
      </trkpt>
      <trkpt lat="2.90468" lon="-75.148384">
        <ele>720.0</ele>
        <time>2021-08-21T19:29:47Z</time>
      </trkpt>
      <trkpt lat="2.904752" lon="-75.148384">
        <ele>719.8</ele>
        <time>2021-08-21T19:29:48Z</time>
      </trkpt>
      <trkpt lat="2.904824" lon="-75.14839">
        <ele>719.5</ele>
        <time>2021-08-21T19:29:49Z</time>
      </trkpt>
      <trkpt lat="2.904893" lon="-75.14839">
        <ele>719.3</ele>
        <time>2021-08-21T19:29:50Z</time>
      </trkpt>
      <trkpt lat="2.904963" lon="-75.14839">
        <ele>719.1</ele>
        <time>2021-08-21T19:29:51Z</time>
      </trkpt>
      <trkpt lat="2.905033" lon="-75.14839">
        <ele>718.9</ele>
        <time>2021-08-21T19:29:52Z</time>
      </trkpt>
      <trkpt lat="2.905102" lon="-75.1484">
        <ele>718.7</ele>
        <time>2021-08-21T19:29:53Z</time>
      </trkpt>
      <trkpt lat="2.905171" lon="-75.1484">
        <ele>718.5</ele>
        <time>2021-08-21T19:29:54Z</time>
      </trkpt>
      <trkpt lat="2.905238" lon="-75.1484">
        <ele>718.3</ele>
        <time>2021-08-21T19:29:55Z</time>
      </trkpt>
      <trkpt lat="2.905302" lon="-75.14839">
        <ele>718.1</ele>
        <time>2021-08-21T19:29:56Z</time>
      </trkpt>
      <trkpt lat="2.905362" lon="-75.14839">
        <ele>717.9</ele>
        <time>2021-08-21T19:29:57Z</time>
      </trkpt>
      <trkpt lat="2.905427" lon="-75.1484">
        <ele>717.7</ele>
        <time>2021-08-21T19:29:58Z</time>
      </trkpt>
      <trkpt lat="2.905492" lon="-75.1484">
        <ele>717.4</ele>
        <time>2021-08-21T19:29:59Z</time>
      </trkpt>
      <trkpt lat="2.905557" lon="-75.1484">
        <ele>717.2</ele>
        <time>2021-08-21T19:30:00Z</time>
      </trkpt>
      <trkpt lat="2.905621" lon="-75.14841">
        <ele>717.0</ele>
        <time>2021-08-21T19:30:01Z</time>
      </trkpt>
      <trkpt lat="2.905685" lon="-75.14841">
        <ele>716.7</ele>
        <time>2021-08-21T19:30:02Z</time>
      </trkpt>
      <trkpt lat="2.905749" lon="-75.14841">
        <ele>716.5</ele>
        <time>2021-08-21T19:30:03Z</time>
      </trkpt>
      <trkpt lat="2.905812" lon="-75.148415">
        <ele>716.3</ele>
        <time>2021-08-21T19:30:04Z</time>
      </trkpt>
      <trkpt lat="2.905874" lon="-75.148415">
        <ele>716.1</ele>
        <time>2021-08-21T19:30:05Z</time>
      </trkpt>
      <trkpt lat="2.905934" lon="-75.148415">
        <ele>715.9</ele>
        <time>2021-08-21T19:30:06Z</time>
      </trkpt>
      <trkpt lat="2.905993" lon="-75.148415">
        <ele>715.8</ele>
        <time>2021-08-21T19:30:07Z</time>
      </trkpt>
      <trkpt lat="2.90605" lon="-75.14842">
        <ele>715.6</ele>
        <time>2021-08-21T19:30:08Z</time>
      </trkpt>
      <trkpt lat="2.906107" lon="-75.14842">
        <ele>715.5</ele>
        <time>2021-08-21T19:30:09Z</time>
      </trkpt>
      <trkpt lat="2.906162" lon="-75.14842">
        <ele>715.3</ele>
        <time>2021-08-21T19:30:10Z</time>
      </trkpt>
      <trkpt lat="2.906219" lon="-75.14842">
        <ele>715.1</ele>
        <time>2021-08-21T19:30:11Z</time>
      </trkpt>
      <trkpt lat="2.906275" lon="-75.14843">
        <ele>714.9</ele>
        <time>2021-08-21T19:30:12Z</time>
      </trkpt>
      <trkpt lat="2.906333" lon="-75.14843">
        <ele>714.7</ele>
        <time>2021-08-21T19:30:13Z</time>
      </trkpt>
      <trkpt lat="2.906389" lon="-75.14842">
        <ele>714.5</ele>
        <time>2021-08-21T19:30:14Z</time>
      </trkpt>
      <trkpt lat="2.906441" lon="-75.14842">
        <ele>714.3</ele>
        <time>2021-08-21T19:30:15Z</time>
      </trkpt>
      <trkpt lat="2.906496" lon="-75.14842">
        <ele>714.1</ele>
        <time>2021-08-21T19:30:16Z</time>
      </trkpt>
      <trkpt lat="2.906553" lon="-75.14842">
        <ele>713.9</ele>
        <time>2021-08-21T19:30:17Z</time>
      </trkpt>
      <trkpt lat="2.906616" lon="-75.14842">
        <ele>713.7</ele>
        <time>2021-08-21T19:30:18Z</time>
      </trkpt>
      <trkpt lat="2.906678" lon="-75.14842">
        <ele>713.5</ele>
        <time>2021-08-21T19:30:19Z</time>
      </trkpt>
      <trkpt lat="2.90674" lon="-75.14843">
        <ele>713.3</ele>
        <time>2021-08-21T19:30:20Z</time>
      </trkpt>
      <trkpt lat="2.906801" lon="-75.14843">
        <ele>713.1</ele>
        <time>2021-08-21T19:30:21Z</time>
      </trkpt>
      <trkpt lat="2.906862" lon="-75.14844">
        <ele>712.9</ele>
        <time>2021-08-21T19:30:22Z</time>
      </trkpt>
      <trkpt lat="2.90692" lon="-75.14844">
        <ele>712.7</ele>
        <time>2021-08-21T19:30:23Z</time>
      </trkpt>
      <trkpt lat="2.906978" lon="-75.14844">
        <ele>712.5</ele>
        <time>2021-08-21T19:30:24Z</time>
      </trkpt>
      <trkpt lat="2.907035" lon="-75.14843">
        <ele>712.3</ele>
        <time>2021-08-21T19:30:25Z</time>
      </trkpt>
      <trkpt lat="2.907091" lon="-75.14843">
        <ele>712.1</ele>
        <time>2021-08-21T19:30:26Z</time>
      </trkpt>
      <trkpt lat="2.907145" lon="-75.14842">
        <ele>711.9</ele>
        <time>2021-08-21T19:30:27Z</time>
      </trkpt>
      <trkpt lat="2.907198" lon="-75.14841">
        <ele>711.7</ele>
        <time>2021-08-21T19:30:28Z</time>
      </trkpt>
      <trkpt lat="2.90725" lon="-75.14839">
        <ele>711.5</ele>
        <time>2021-08-21T19:30:29Z</time>
      </trkpt>
      <trkpt lat="2.907301" lon="-75.14838">
        <ele>711.3</ele>
        <time>2021-08-21T19:30:30Z</time>
      </trkpt>
      <trkpt lat="2.90735" lon="-75.14835">
        <ele>711.1</ele>
        <time>2021-08-21T19:30:31Z</time>
      </trkpt>
      <trkpt lat="2.907399" lon="-75.14832">
        <ele>711.0</ele>
        <time>2021-08-21T19:30:32Z</time>
      </trkpt>
      <trkpt lat="2.907447" lon="-75.14829">
        <ele>710.8</ele>
        <time>2021-08-21T19:30:33Z</time>
      </trkpt>
      <trkpt lat="2.907495" lon="-75.148254">
        <ele>710.6</ele>
        <time>2021-08-21T19:30:34Z</time>
      </trkpt>
      <trkpt lat="2.90754" lon="-75.14822">
        <ele>710.4</ele>
        <time>2021-08-21T19:30:35Z</time>
      </trkpt>
      <trkpt lat="2.907584" lon="-75.148186">
        <ele>710.3</ele>
        <time>2021-08-21T19:30:36Z</time>
      </trkpt>
      <trkpt lat="2.907626" lon="-75.14815">
        <ele>710.2</ele>
        <time>2021-08-21T19:30:37Z</time>
      </trkpt>
      <trkpt lat="2.907666" lon="-75.14811">
        <ele>710.0</ele>
        <time>2021-08-21T19:30:37Z</time>
      </trkpt>
      <trkpt lat="2.907707" lon="-75.14807">
        <ele>709.9</ele>
        <time>2021-08-21T19:30:38Z</time>
      </trkpt>
      <trkpt lat="2.907746" lon="-75.14803">
        <ele>709.8</ele>
        <time>2021-08-21T19:30:39Z</time>
      </trkpt>
      <trkpt lat="2.907781" lon="-75.148">
        <ele>709.7</ele>
        <time>2021-08-21T19:30:40Z</time>
      </trkpt>
      <trkpt lat="2.907815" lon="-75.147964">
        <ele>709.5</ele>
        <time>2021-08-21T19:30:41Z</time>
      </trkpt>
      <trkpt lat="2.907848" lon="-75.147934">
        <ele>709.4</ele>
        <time>2021-08-21T19:30:42Z</time>
      </trkpt>
      <trkpt lat="2.907877" lon="-75.1479">
        <ele>709.2</ele>
        <time>2021-08-21T19:30:43Z</time>
      </trkpt>
      <trkpt lat="2.907908" lon="-75.14788">
        <ele>709.1</ele>
        <time>2021-08-21T19:30:44Z</time>
      </trkpt>
      <trkpt lat="2.907941" lon="-75.14785">
        <ele>708.9</ele>
        <time>2021-08-21T19:30:45Z</time>
      </trkpt>
      <trkpt lat="2.907975" lon="-75.14782">
        <ele>708.8</ele>
        <time>2021-08-21T19:30:46Z</time>
      </trkpt>
      <trkpt lat="2.908013" lon="-75.14779">
        <ele>708.6</ele>
        <time>2021-08-21T19:30:47Z</time>
      </trkpt>
      <trkpt lat="2.908051" lon="-75.14777">
        <ele>708.4</ele>
        <time>2021-08-21T19:30:48Z</time>
      </trkpt>
      <trkpt lat="2.908095" lon="-75.14775">
        <ele>708.3</ele>
        <time>2021-08-21T19:30:49Z</time>
      </trkpt>
      <trkpt lat="2.908145" lon="-75.147736">
        <ele>708.1</ele>
        <time>2021-08-21T19:30:50Z</time>
      </trkpt>
      <trkpt lat="2.908198" lon="-75.14773">
        <ele>707.9</ele>
        <time>2021-08-21T19:30:51Z</time>
      </trkpt>
      <trkpt lat="2.908252" lon="-75.14773">
        <ele>707.8</ele>
        <time>2021-08-21T19:30:52Z</time>
      </trkpt>
      <trkpt lat="2.908307" lon="-75.14773">
        <ele>707.7</ele>
        <time>2021-08-21T19:30:53Z</time>
      </trkpt>
      <trkpt lat="2.908357" lon="-75.14773">
        <ele>707.6</ele>
        <time>2021-08-21T19:30:54Z</time>
      </trkpt>
      <trkpt lat="2.908411" lon="-75.147736">
        <ele>707.5</ele>
        <time>2021-08-21T19:30:55Z</time>
      </trkpt>
      <trkpt lat="2.908464" lon="-75.14775">
        <ele>707.4</ele>
        <time>2021-08-21T19:30:56Z</time>
      </trkpt>
      <trkpt lat="2.908515" lon="-75.147766">
        <ele>707.4</ele>
        <time>2021-08-21T19:30:57Z</time>
      </trkpt>
      <trkpt lat="2.908566" lon="-75.14777">
        <ele>707.3</ele>
        <time>2021-08-21T19:30:58Z</time>
      </trkpt>
      <trkpt lat="2.908618" lon="-75.14779">
        <ele>707.2</ele>
        <time>2021-08-21T19:30:59Z</time>
      </trkpt>
      <trkpt lat="2.908669" lon="-75.147804">
        <ele>707.1</ele>
        <time>2021-08-21T19:31:00Z</time>
      </trkpt>
      <trkpt lat="2.90872" lon="-75.14782">
        <ele>707.0</ele>
        <time>2021-08-21T19:31:01Z</time>
      </trkpt>
      <trkpt lat="2.908771" lon="-75.147835">
        <ele>706.9</ele>
        <time>2021-08-21T19:31:02Z</time>
      </trkpt>
      <trkpt lat="2.90882" lon="-75.14784">
        <ele>706.9</ele>
        <time>2021-08-21T19:31:03Z</time>
      </trkpt>
      <trkpt lat="2.90887" lon="-75.14785">
        <ele>706.8</ele>
        <time>2021-08-21T19:31:04Z</time>
      </trkpt>
      <trkpt lat="2.908919" lon="-75.14785">
        <ele>706.7</ele>
        <time>2021-08-21T19:31:05Z</time>
      </trkpt>
      <trkpt lat="2.908973" lon="-75.14785">
        <ele>706.6</ele>
        <time>2021-08-21T19:31:06Z</time>
      </trkpt>
      <trkpt lat="2.909025" lon="-75.14785">
        <ele>706.5</ele>
        <time>2021-08-21T19:31:07Z</time>
      </trkpt>
      <trkpt lat="2.909078" lon="-75.14784">
        <ele>706.4</ele>
        <time>2021-08-21T19:31:08Z</time>
      </trkpt>
      <trkpt lat="2.909131" lon="-75.14784">
        <ele>706.3</ele>
        <time>2021-08-21T19:31:09Z</time>
      </trkpt>
      <trkpt lat="2.909184" lon="-75.147835">
        <ele>706.2</ele>
        <time>2021-08-21T19:31:10Z</time>
      </trkpt>
      <trkpt lat="2.909237" lon="-75.14783">
        <ele>706.1</ele>
        <time>2021-08-21T19:31:11Z</time>
      </trkpt>
      <trkpt lat="2.909291" lon="-75.14782">
        <ele>706.0</ele>
        <time>2021-08-21T19:31:12Z</time>
      </trkpt>
      <trkpt lat="2.909344" lon="-75.14781">
        <ele>705.9</ele>
        <time>2021-08-21T19:31:13Z</time>
      </trkpt>
      <trkpt lat="2.909399" lon="-75.147804">
        <ele>705.8</ele>
        <time>2021-08-21T19:31:14Z</time>
      </trkpt>
      <trkpt lat="2.909455" lon="-75.1478">
        <ele>705.7</ele>
        <time>2021-08-21T19:31:15Z</time>
      </trkpt>
      <trkpt lat="2.909675" lon="-75.147766">
        <ele>705.2</ele>
        <time>2021-08-21T19:31:17Z</time>
      </trkpt>
      <trkpt lat="2.909687" lon="-75.14776">
        <ele>705.1</ele>
        <time>2021-08-21T19:31:18Z</time>
      </trkpt>
      <trkpt lat="2.909712" lon="-75.14776">
        <ele>705.1</ele>
        <time>2021-08-21T19:31:19Z</time>
      </trkpt>
      <trkpt lat="2.909744" lon="-75.14775">
        <ele>705.0</ele>
        <time>2021-08-21T19:31:20Z</time>
      </trkpt>
      <trkpt lat="2.909785" lon="-75.147736">
        <ele>704.8</ele>
        <time>2021-08-21T19:31:21Z</time>
      </trkpt>
      <trkpt lat="2.909828" lon="-75.14772">
        <ele>704.7</ele>
        <time>2021-08-21T19:31:22Z</time>
      </trkpt>
      <trkpt lat="2.909871" lon="-75.147705">
        <ele>704.5</ele>
        <time>2021-08-21T19:31:23Z</time>
      </trkpt>
      <trkpt lat="2.909912" lon="-75.14769">
        <ele>704.4</ele>
        <time>2021-08-21T19:31:24Z</time>
      </trkpt>
      <trkpt lat="2.909953" lon="-75.147675">
        <ele>704.2</ele>
        <time>2021-08-21T19:31:25Z</time>
      </trkpt>
      <trkpt lat="2.909993" lon="-75.14765">
        <ele>704.1</ele>
        <time>2021-08-21T19:31:26Z</time>
      </trkpt>
      <trkpt lat="2.910036" lon="-75.14763">
        <ele>703.9</ele>
        <time>2021-08-21T19:31:27Z</time>
      </trkpt>
      <trkpt lat="2.910076" lon="-75.1476">
        <ele>703.7</ele>
        <time>2021-08-21T19:31:28Z</time>
      </trkpt>
      <trkpt lat="2.910115" lon="-75.14757">
        <ele>703.6</ele>
        <time>2021-08-21T19:31:29Z</time>
      </trkpt>
      <trkpt lat="2.910149" lon="-75.147545">
        <ele>703.4</ele>
        <time>2021-08-21T19:31:30Z</time>
      </trkpt>
      <trkpt lat="2.910187" lon="-75.147514">
        <ele>703.2</ele>
        <time>2021-08-21T19:31:31Z</time>
      </trkpt>
      <trkpt lat="2.910226" lon="-75.14748">
        <ele>703.0</ele>
        <time>2021-08-21T19:31:32Z</time>
      </trkpt>
      <trkpt lat="2.910265" lon="-75.14745">
        <ele>702.8</ele>
        <time>2021-08-21T19:31:33Z</time>
      </trkpt>
      <trkpt lat="2.910305" lon="-75.14742">
        <ele>702.6</ele>
        <time>2021-08-21T19:31:34Z</time>
      </trkpt>
      <trkpt lat="2.910346" lon="-75.14739">
        <ele>702.4</ele>
        <time>2021-08-21T19:31:35Z</time>
      </trkpt>
      <trkpt lat="2.910389" lon="-75.14737">
        <ele>702.2</ele>
        <time>2021-08-21T19:31:36Z</time>
      </trkpt>
      <trkpt lat="2.910437" lon="-75.14735">
        <ele>701.9</ele>
        <time>2021-08-21T19:31:37Z</time>
      </trkpt>
      <trkpt lat="2.910485" lon="-75.14733">
        <ele>701.7</ele>
        <time>2021-08-21T19:31:38Z</time>
      </trkpt>
      <trkpt lat="2.910532" lon="-75.14731">
        <ele>701.5</ele>
        <time>2021-08-21T19:31:39Z</time>
      </trkpt>
      <trkpt lat="2.91058" lon="-75.1473">
        <ele>701.3</ele>
        <time>2021-08-21T19:31:40Z</time>
      </trkpt>
      <trkpt lat="2.910629" lon="-75.147285">
        <ele>701.1</ele>
        <time>2021-08-21T19:31:41Z</time>
      </trkpt>
      <trkpt lat="2.910677" lon="-75.14727">
        <ele>701.0</ele>
        <time>2021-08-21T19:31:42Z</time>
      </trkpt>
      <trkpt lat="2.910725" lon="-75.147255">
        <ele>700.8</ele>
        <time>2021-08-21T19:31:43Z</time>
      </trkpt>
      <trkpt lat="2.910773" lon="-75.14724">
        <ele>700.6</ele>
        <time>2021-08-21T19:31:44Z</time>
      </trkpt>
      <trkpt lat="2.910816" lon="-75.147224">
        <ele>700.4</ele>
        <time>2021-08-21T19:31:45Z</time>
      </trkpt>
      <trkpt lat="2.910864" lon="-75.14722">
        <ele>700.2</ele>
        <time>2021-08-21T19:31:46Z</time>
      </trkpt>
      <trkpt lat="2.910911" lon="-75.1472">
        <ele>700.0</ele>
        <time>2021-08-21T19:31:47Z</time>
      </trkpt>
      <trkpt lat="2.910958" lon="-75.14719">
        <ele>699.9</ele>
        <time>2021-08-21T19:31:48Z</time>
      </trkpt>
      <trkpt lat="2.911002" lon="-75.14718">
        <ele>699.7</ele>
        <time>2021-08-21T19:31:49Z</time>
      </trkpt>
      <trkpt lat="2.911048" lon="-75.14716">
        <ele>699.6</ele>
        <time>2021-08-21T19:31:50Z</time>
      </trkpt>
      <trkpt lat="2.911096" lon="-75.147156">
        <ele>699.5</ele>
        <time>2021-08-21T19:31:51Z</time>
      </trkpt>
      <trkpt lat="2.911149" lon="-75.14714">
        <ele>699.3</ele>
        <time>2021-08-21T19:31:52Z</time>
      </trkpt>
      <trkpt lat="2.911203" lon="-75.14713">
        <ele>699.2</ele>
        <time>2021-08-21T19:31:53Z</time>
      </trkpt>
      <trkpt lat="2.911257" lon="-75.147125">
        <ele>699.1</ele>
        <time>2021-08-21T19:31:54Z</time>
      </trkpt>
      <trkpt lat="2.911311" lon="-75.14711">
        <ele>699.0</ele>
        <time>2021-08-21T19:31:55Z</time>
      </trkpt>
      <trkpt lat="2.911365" lon="-75.1471">
        <ele>698.9</ele>
        <time>2021-08-21T19:31:56Z</time>
      </trkpt>
      <trkpt lat="2.911419" lon="-75.147095">
        <ele>698.8</ele>
        <time>2021-08-21T19:31:57Z</time>
      </trkpt>
      <trkpt lat="2.911472" lon="-75.14708">
        <ele>698.8</ele>
        <time>2021-08-21T19:31:58Z</time>
      </trkpt>
      <trkpt lat="2.911525" lon="-75.147064">
        <ele>698.7</ele>
        <time>2021-08-21T19:31:59Z</time>
      </trkpt>
      <trkpt lat="2.911577" lon="-75.14706">
        <ele>698.8</ele>
        <time>2021-08-21T19:32:00Z</time>
      </trkpt>
      <trkpt lat="2.911626" lon="-75.14704">
        <ele>698.9</ele>
        <time>2021-08-21T19:32:01Z</time>
      </trkpt>
      <trkpt lat="2.911673" lon="-75.147026">
        <ele>699.0</ele>
        <time>2021-08-21T19:32:02Z</time>
      </trkpt>
      <trkpt lat="2.911715" lon="-75.14702">
        <ele>699.1</ele>
        <time>2021-08-21T19:32:03Z</time>
      </trkpt>
      <trkpt lat="2.911754" lon="-75.14701">
        <ele>699.3</ele>
        <time>2021-08-21T19:32:04Z</time>
      </trkpt>
      <trkpt lat="2.911793" lon="-75.147">
        <ele>699.2</ele>
        <time>2021-08-21T19:32:05Z</time>
      </trkpt>
      <trkpt lat="2.911833" lon="-75.146996">
        <ele>699.1</ele>
        <time>2021-08-21T19:32:06Z</time>
      </trkpt>
      <trkpt lat="2.91187" lon="-75.14699">
        <ele>699.0</ele>
        <time>2021-08-21T19:32:07Z</time>
      </trkpt>
      <trkpt lat="2.911906" lon="-75.14697">
        <ele>698.9</ele>
        <time>2021-08-21T19:32:08Z</time>
      </trkpt>
      <trkpt lat="2.911939" lon="-75.146965">
        <ele>698.9</ele>
        <time>2021-08-21T19:32:09Z</time>
      </trkpt>
      <trkpt lat="2.91197" lon="-75.14696">
        <ele>698.8</ele>
        <time>2021-08-21T19:32:10Z</time>
      </trkpt>
      <trkpt lat="2.912002" lon="-75.14694">
        <ele>698.7</ele>
        <time>2021-08-21T19:32:11Z</time>
      </trkpt>
      <trkpt lat="2.912032" lon="-75.146935">
        <ele>698.7</ele>
        <time>2021-08-21T19:32:12Z</time>
      </trkpt>
      <trkpt lat="2.912061" lon="-75.14693">
        <ele>698.6</ele>
        <time>2021-08-21T19:32:13Z</time>
      </trkpt>
      <trkpt lat="2.912092" lon="-75.14691">
        <ele>698.6</ele>
        <time>2021-08-21T19:32:14Z</time>
      </trkpt>
      <trkpt lat="2.912124" lon="-75.146904">
        <ele>698.5</ele>
        <time>2021-08-21T19:32:15Z</time>
      </trkpt>
      <trkpt lat="2.912161" lon="-75.1469">
        <ele>698.5</ele>
        <time>2021-08-21T19:32:16Z</time>
      </trkpt>
      <trkpt lat="2.912199" lon="-75.14689">
        <ele>698.5</ele>
        <time>2021-08-21T19:32:17Z</time>
      </trkpt>
      <trkpt lat="2.91224" lon="-75.14688">
        <ele>698.4</ele>
        <time>2021-08-21T19:32:18Z</time>
      </trkpt>
      <trkpt lat="2.912282" lon="-75.14687">
        <ele>698.4</ele>
        <time>2021-08-21T19:32:19Z</time>
      </trkpt>
      <trkpt lat="2.912325" lon="-75.146866">
        <ele>698.3</ele>
        <time>2021-08-21T19:32:20Z</time>
      </trkpt>
      <trkpt lat="2.912368" lon="-75.14685">
        <ele>698.3</ele>
        <time>2021-08-21T19:32:21Z</time>
      </trkpt>
      <trkpt lat="2.912412" lon="-75.14684">
        <ele>698.2</ele>
        <time>2021-08-21T19:32:22Z</time>
      </trkpt>
      <trkpt lat="2.912457" lon="-75.14683">
        <ele>698.1</ele>
        <time>2021-08-21T19:32:23Z</time>
      </trkpt>
      <trkpt lat="2.912501" lon="-75.14682">
        <ele>698.0</ele>
        <time>2021-08-21T19:32:24Z</time>
      </trkpt>
      <trkpt lat="2.912549" lon="-75.14682">
        <ele>697.9</ele>
        <time>2021-08-21T19:32:25Z</time>
      </trkpt>
      <trkpt lat="2.912596" lon="-75.14681">
        <ele>697.9</ele>
        <time>2021-08-21T19:32:26Z</time>
      </trkpt>
      <trkpt lat="2.912645" lon="-75.14682">
        <ele>697.8</ele>
        <time>2021-08-21T19:32:27Z</time>
      </trkpt>
      <trkpt lat="2.912698" lon="-75.14683">
        <ele>697.7</ele>
        <time>2021-08-21T19:32:28Z</time>
      </trkpt>
      <trkpt lat="2.912753" lon="-75.14683">
        <ele>697.6</ele>
        <time>2021-08-21T19:32:29Z</time>
      </trkpt>
      <trkpt lat="2.912809" lon="-75.146835">
        <ele>697.5</ele>
        <time>2021-08-21T19:32:30Z</time>
      </trkpt>
      <trkpt lat="2.912861" lon="-75.14684">
        <ele>697.4</ele>
        <time>2021-08-21T19:32:31Z</time>
      </trkpt>
      <trkpt lat="2.912911" lon="-75.14685">
        <ele>697.3</ele>
        <time>2021-08-21T19:32:32Z</time>
      </trkpt>
      <trkpt lat="2.91296" lon="-75.14685">
        <ele>697.3</ele>
        <time>2021-08-21T19:32:33Z</time>
      </trkpt>
      <trkpt lat="2.913015" lon="-75.14686">
        <ele>697.2</ele>
        <time>2021-08-21T19:32:34Z</time>
      </trkpt>
      <trkpt lat="2.91307" lon="-75.14686">
        <ele>697.1</ele>
        <time>2021-08-21T19:32:35Z</time>
      </trkpt>
      <trkpt lat="2.913126" lon="-75.14686">
        <ele>697.0</ele>
        <time>2021-08-21T19:32:36Z</time>
      </trkpt>
      <trkpt lat="2.913182" lon="-75.14685">
        <ele>696.9</ele>
        <time>2021-08-21T19:32:37Z</time>
      </trkpt>
      <trkpt lat="2.913238" lon="-75.14684">
        <ele>696.9</ele>
        <time>2021-08-21T19:32:38Z</time>
      </trkpt>
      <trkpt lat="2.913293" lon="-75.146835">
        <ele>696.8</ele>
        <time>2021-08-21T19:32:39Z</time>
      </trkpt>
      <trkpt lat="2.913346" lon="-75.14683">
        <ele>696.8</ele>
        <time>2021-08-21T19:32:40Z</time>
      </trkpt>
      <trkpt lat="2.913397" lon="-75.14681">
        <ele>696.7</ele>
        <time>2021-08-21T19:32:41Z</time>
      </trkpt>
      <trkpt lat="2.913445" lon="-75.14681">
        <ele>696.7</ele>
        <time>2021-08-21T19:32:42Z</time>
      </trkpt>
      <trkpt lat="2.913489" lon="-75.146805">
        <ele>696.7</ele>
        <time>2021-08-21T19:32:43Z</time>
      </trkpt>
      <trkpt lat="2.913535" lon="-75.1468">
        <ele>696.7</ele>
        <time>2021-08-21T19:32:44Z</time>
      </trkpt>
      <trkpt lat="2.913583" lon="-75.14679">
        <ele>696.7</ele>
        <time>2021-08-21T19:32:45Z</time>
      </trkpt>
      <trkpt lat="2.913627" lon="-75.14678">
        <ele>696.6</ele>
        <time>2021-08-21T19:32:46Z</time>
      </trkpt>
      <trkpt lat="2.913676" lon="-75.146774">
        <ele>696.6</ele>
        <time>2021-08-21T19:32:47Z</time>
      </trkpt>
      <trkpt lat="2.913721" lon="-75.14677">
        <ele>696.6</ele>
        <time>2021-08-21T19:32:48Z</time>
      </trkpt>
      <trkpt lat="2.913768" lon="-75.14676">
        <ele>696.6</ele>
        <time>2021-08-21T19:32:49Z</time>
      </trkpt>
      <trkpt lat="2.913814" lon="-75.14675">
        <ele>696.6</ele>
        <time>2021-08-21T19:32:50Z</time>
      </trkpt>
      <trkpt lat="2.913863" lon="-75.14674">
        <ele>696.6</ele>
        <time>2021-08-21T19:32:51Z</time>
      </trkpt>
      <trkpt lat="2.91391" lon="-75.14674">
        <ele>696.6</ele>
        <time>2021-08-21T19:32:52Z</time>
      </trkpt>
      <trkpt lat="2.913954" lon="-75.14674">
        <ele>696.7</ele>
        <time>2021-08-21T19:32:53Z</time>
      </trkpt>
      <trkpt lat="2.913997" lon="-75.14675">
        <ele>696.7</ele>
        <time>2021-08-21T19:32:54Z</time>
      </trkpt>
      <trkpt lat="2.914041" lon="-75.146774">
        <ele>696.7</ele>
        <time>2021-08-21T19:32:55Z</time>
      </trkpt>
      <trkpt lat="2.91408" lon="-75.1468">
        <ele>696.7</ele>
        <time>2021-08-21T19:32:56Z</time>
      </trkpt>
      <trkpt lat="2.914115" lon="-75.14682">
        <ele>696.7</ele>
        <time>2021-08-21T19:32:57Z</time>
      </trkpt>
      <trkpt lat="2.914144" lon="-75.14686">
        <ele>696.8</ele>
        <time>2021-08-21T19:32:58Z</time>
      </trkpt>
      <trkpt lat="2.914169" lon="-75.1469">
        <ele>696.8</ele>
        <time>2021-08-21T19:32:59Z</time>
      </trkpt>
      <trkpt lat="2.914187" lon="-75.146935">
        <ele>696.9</ele>
        <time>2021-08-21T19:33:00Z</time>
      </trkpt>
      <trkpt lat="2.9142" lon="-75.14697">
        <ele>696.9</ele>
        <time>2021-08-21T19:33:01Z</time>
      </trkpt>
      <trkpt lat="2.914207" lon="-75.14701">
        <ele>697.0</ele>
        <time>2021-08-21T19:33:02Z</time>
      </trkpt>
      <trkpt lat="2.914211" lon="-75.14704">
        <ele>697.1</ele>
        <time>2021-08-21T19:33:03Z</time>
      </trkpt>
      <trkpt lat="2.914213" lon="-75.14707">
        <ele>697.1</ele>
        <time>2021-08-21T19:33:04Z</time>
      </trkpt>
      <trkpt lat="2.914213" lon="-75.1471">
        <ele>697.2</ele>
        <time>2021-08-21T19:33:05Z</time>
      </trkpt>
      <trkpt lat="2.914211" lon="-75.14713">
        <ele>697.2</ele>
        <time>2021-08-21T19:33:06Z</time>
      </trkpt>
      <trkpt lat="2.914209" lon="-75.14716">
        <ele>697.2</ele>
        <time>2021-08-21T19:33:07Z</time>
      </trkpt>
      <trkpt lat="2.914206" lon="-75.1472">
        <ele>697.2</ele>
        <time>2021-08-21T19:33:08Z</time>
      </trkpt>
      <trkpt lat="2.914201" lon="-75.14723">
        <ele>697.2</ele>
        <time>2021-08-21T19:33:09Z</time>
      </trkpt>
      <trkpt lat="2.914194" lon="-75.14727">
        <ele>697.1</ele>
        <time>2021-08-21T19:33:10Z</time>
      </trkpt>
      <trkpt lat="2.91418" lon="-75.14731">
        <ele>697.0</ele>
        <time>2021-08-21T19:33:11Z</time>
      </trkpt>
      <trkpt lat="2.914163" lon="-75.14735">
        <ele>696.8</ele>
        <time>2021-08-21T19:33:12Z</time>
      </trkpt>
      <trkpt lat="2.914143" lon="-75.147385">
        <ele>696.5</ele>
        <time>2021-08-21T19:33:13Z</time>
      </trkpt>
      <trkpt lat="2.91412" lon="-75.14743">
        <ele>696.3</ele>
        <time>2021-08-21T19:33:14Z</time>
      </trkpt>
      <trkpt lat="2.914097" lon="-75.14748">
        <ele>696.0</ele>
        <time>2021-08-21T19:33:15Z</time>
      </trkpt>
      <trkpt lat="2.914076" lon="-75.14752">
        <ele>695.6</ele>
        <time>2021-08-21T19:33:16Z</time>
      </trkpt>
      <trkpt lat="2.914061" lon="-75.147575">
        <ele>695.2</ele>
        <time>2021-08-21T19:33:17Z</time>
      </trkpt>
      <trkpt lat="2.91405" lon="-75.14763">
        <ele>694.9</ele>
        <time>2021-08-21T19:33:18Z</time>
      </trkpt>
      <trkpt lat="2.914043" lon="-75.147675">
        <ele>694.5</ele>
        <time>2021-08-21T19:33:19Z</time>
      </trkpt>
      <trkpt lat="2.914043" lon="-75.147736">
        <ele>694.1</ele>
        <time>2021-08-21T19:33:20Z</time>
      </trkpt>
      <trkpt lat="2.914048" lon="-75.14778">
        <ele>693.7</ele>
        <time>2021-08-21T19:33:21Z</time>
      </trkpt>
      <trkpt lat="2.914059" lon="-75.14784">
        <ele>693.3</ele>
        <time>2021-08-21T19:33:22Z</time>
      </trkpt>
      <trkpt lat="2.914073" lon="-75.147896">
        <ele>692.8</ele>
        <time>2021-08-21T19:33:23Z</time>
      </trkpt>
      <trkpt lat="2.914087" lon="-75.14795">
        <ele>692.4</ele>
        <time>2021-08-21T19:33:24Z</time>
      </trkpt>
      <trkpt lat="2.914099" lon="-75.148">
        <ele>692.0</ele>
        <time>2021-08-21T19:33:25Z</time>
      </trkpt>
      <trkpt lat="2.914109" lon="-75.14806">
        <ele>691.6</ele>
        <time>2021-08-21T19:33:26Z</time>
      </trkpt>
      <trkpt lat="2.914113" lon="-75.148125">
        <ele>691.2</ele>
        <time>2021-08-21T19:33:27Z</time>
      </trkpt>
      <trkpt lat="2.914113" lon="-75.14819">
        <ele>690.8</ele>
        <time>2021-08-21T19:33:28Z</time>
      </trkpt>
      <trkpt lat="2.914113" lon="-75.14827">
        <ele>690.5</ele>
        <time>2021-08-21T19:33:29Z</time>
      </trkpt>
      <trkpt lat="2.914113" lon="-75.14833">
        <ele>690.3</ele>
        <time>2021-08-21T19:33:30Z</time>
      </trkpt>
      <trkpt lat="2.914114" lon="-75.14839">
        <ele>690.1</ele>
        <time>2021-08-21T19:33:31Z</time>
      </trkpt>
      <trkpt lat="2.914116" lon="-75.14846">
        <ele>690.1</ele>
        <time>2021-08-21T19:33:32Z</time>
      </trkpt>
      <trkpt lat="2.914119" lon="-75.14853">
        <ele>690.0</ele>
        <time>2021-08-21T19:33:33Z</time>
      </trkpt>
      <trkpt lat="2.914122" lon="-75.14858">
        <ele>690.0</ele>
        <time>2021-08-21T19:33:34Z</time>
      </trkpt>
      <trkpt lat="2.914127" lon="-75.148636">
        <ele>690.0</ele>
        <time>2021-08-21T19:33:35Z</time>
      </trkpt>
      <trkpt lat="2.914133" lon="-75.14869">
        <ele>690.1</ele>
        <time>2021-08-21T19:33:36Z</time>
      </trkpt>
      <trkpt lat="2.914142" lon="-75.148735">
        <ele>690.2</ele>
        <time>2021-08-21T19:33:37Z</time>
      </trkpt>
      <trkpt lat="2.914155" lon="-75.14879">
        <ele>690.2</ele>
        <time>2021-08-21T19:33:38Z</time>
      </trkpt>
      <trkpt lat="2.914173" lon="-75.148834">
        <ele>690.3</ele>
        <time>2021-08-21T19:33:39Z</time>
      </trkpt>
      <trkpt lat="2.914196" lon="-75.14888">
        <ele>690.4</ele>
        <time>2021-08-21T19:33:40Z</time>
      </trkpt>
      <trkpt lat="2.91422" lon="-75.14892">
        <ele>690.5</ele>
        <time>2021-08-21T19:33:41Z</time>
      </trkpt>
      <trkpt lat="2.914247" lon="-75.14896">
        <ele>690.7</ele>
        <time>2021-08-21T19:33:42Z</time>
      </trkpt>
      <trkpt lat="2.914277" lon="-75.14899">
        <ele>690.8</ele>
        <time>2021-08-21T19:33:43Z</time>
      </trkpt>
      <trkpt lat="2.914312" lon="-75.14902">
        <ele>690.9</ele>
        <time>2021-08-21T19:33:44Z</time>
      </trkpt>
      <trkpt lat="2.914346" lon="-75.14904">
        <ele>691.0</ele>
        <time>2021-08-21T19:33:45Z</time>
      </trkpt>
      <trkpt lat="2.914382" lon="-75.149055">
        <ele>691.1</ele>
        <time>2021-08-21T19:33:46Z</time>
      </trkpt>
      <trkpt lat="2.914419" lon="-75.14907">
        <ele>691.1</ele>
        <time>2021-08-21T19:33:47Z</time>
      </trkpt>
      <trkpt lat="2.914459" lon="-75.149086">
        <ele>691.2</ele>
        <time>2021-08-21T19:33:48Z</time>
      </trkpt>
      <trkpt lat="2.914503" lon="-75.1491">
        <ele>691.3</ele>
        <time>2021-08-21T19:33:49Z</time>
      </trkpt>
      <trkpt lat="2.914547" lon="-75.14912">
        <ele>691.4</ele>
        <time>2021-08-21T19:33:50Z</time>
      </trkpt>
      <trkpt lat="2.914588" lon="-75.14913">
        <ele>691.5</ele>
        <time>2021-08-21T19:33:51Z</time>
      </trkpt>
      <trkpt lat="2.914631" lon="-75.14914">
        <ele>691.5</ele>
        <time>2021-08-21T19:33:52Z</time>
      </trkpt>
      <trkpt lat="2.914677" lon="-75.149155">
        <ele>691.6</ele>
        <time>2021-08-21T19:33:53Z</time>
      </trkpt>
      <trkpt lat="2.91472" lon="-75.14917">
        <ele>691.7</ele>
        <time>2021-08-21T19:33:54Z</time>
      </trkpt>
      <trkpt lat="2.914764" lon="-75.14918">
        <ele>691.8</ele>
        <time>2021-08-21T19:33:55Z</time>
      </trkpt>
      <trkpt lat="2.914808" lon="-75.149185">
        <ele>691.9</ele>
        <time>2021-08-21T19:33:56Z</time>
      </trkpt>
      <trkpt lat="2.914851" lon="-75.14919">
        <ele>692.0</ele>
        <time>2021-08-21T19:33:57Z</time>
      </trkpt>
      <trkpt lat="2.914894" lon="-75.1492">
        <ele>692.1</ele>
        <time>2021-08-21T19:33:58Z</time>
      </trkpt>
      <trkpt lat="2.914935" lon="-75.149216">
        <ele>692.3</ele>
        <time>2021-08-21T19:33:59Z</time>
      </trkpt>
      <trkpt lat="2.914976" lon="-75.14922">
        <ele>692.4</ele>
        <time>2021-08-21T19:34:00Z</time>
      </trkpt>
      <trkpt lat="2.915017" lon="-75.14923">
        <ele>692.5</ele>
        <time>2021-08-21T19:34:01Z</time>
      </trkpt>
      <trkpt lat="2.915058" lon="-75.14925">
        <ele>692.7</ele>
        <time>2021-08-21T19:34:02Z</time>
      </trkpt>
      <trkpt lat="2.9151" lon="-75.149254">
        <ele>692.8</ele>
        <time>2021-08-21T19:34:03Z</time>
      </trkpt>
      <trkpt lat="2.915141" lon="-75.14926">
        <ele>692.9</ele>
        <time>2021-08-21T19:34:04Z</time>
      </trkpt>
      <trkpt lat="2.91518" lon="-75.14928">
        <ele>693.1</ele>
        <time>2021-08-21T19:34:05Z</time>
      </trkpt>
      <trkpt lat="2.915216" lon="-75.14929">
        <ele>693.2</ele>
        <time>2021-08-21T19:34:06Z</time>
      </trkpt>
      <trkpt lat="2.915251" lon="-75.14931">
        <ele>693.4</ele>
        <time>2021-08-21T19:34:07Z</time>
      </trkpt>
      <trkpt lat="2.915285" lon="-75.149315">
        <ele>693.6</ele>
        <time>2021-08-21T19:34:08Z</time>
      </trkpt>
      <trkpt lat="2.915318" lon="-75.14933">
        <ele>693.7</ele>
        <time>2021-08-21T19:34:09Z</time>
      </trkpt>
      <trkpt lat="2.915352" lon="-75.149345">
        <ele>693.9</ele>
        <time>2021-08-21T19:34:10Z</time>
      </trkpt>
      <trkpt lat="2.915387" lon="-75.14935">
        <ele>694.1</ele>
        <time>2021-08-21T19:34:11Z</time>
      </trkpt>
      <trkpt lat="2.915423" lon="-75.14937">
        <ele>694.2</ele>
        <time>2021-08-21T19:34:12Z</time>
      </trkpt>
      <trkpt lat="2.915458" lon="-75.149376">
        <ele>694.4</ele>
        <time>2021-08-21T19:34:13Z</time>
      </trkpt>
      <trkpt lat="2.915493" lon="-75.14939">
        <ele>694.5</ele>
        <time>2021-08-21T19:34:14Z</time>
      </trkpt>
      <trkpt lat="2.915524" lon="-75.1494">
        <ele>694.6</ele>
        <time>2021-08-21T19:34:15Z</time>
      </trkpt>
      <trkpt lat="2.915554" lon="-75.14941">
        <ele>694.7</ele>
        <time>2021-08-21T19:34:16Z</time>
      </trkpt>
      <trkpt lat="2.915583" lon="-75.149414">
        <ele>694.8</ele>
        <time>2021-08-21T19:34:17Z</time>
      </trkpt>
      <trkpt lat="2.91561" lon="-75.14942">
        <ele>694.9</ele>
        <time>2021-08-21T19:34:18Z</time>
      </trkpt>
      <trkpt lat="2.915636" lon="-75.14943">
        <ele>694.9</ele>
        <time>2021-08-21T19:34:19Z</time>
      </trkpt>
      <trkpt lat="2.915665" lon="-75.14944">
        <ele>695.0</ele>
        <time>2021-08-21T19:34:20Z</time>
      </trkpt>
      <trkpt lat="2.915693" lon="-75.14945">
        <ele>695.0</ele>
        <time>2021-08-21T19:34:21Z</time>
      </trkpt>
      <trkpt lat="2.915721" lon="-75.14946">
        <ele>695.0</ele>
        <time>2021-08-21T19:34:22Z</time>
      </trkpt>
      <trkpt lat="2.915751" lon="-75.14947">
        <ele>695.0</ele>
        <time>2021-08-21T19:34:23Z</time>
      </trkpt>
      <trkpt lat="2.915785" lon="-75.149475">
        <ele>694.9</ele>
        <time>2021-08-21T19:34:24Z</time>
      </trkpt>
      <trkpt lat="2.91582" lon="-75.14948">
        <ele>694.9</ele>
        <time>2021-08-21T19:34:25Z</time>
      </trkpt>
      <trkpt lat="2.915856" lon="-75.14949">
        <ele>694.7</ele>
        <time>2021-08-21T19:34:26Z</time>
      </trkpt>
      <trkpt lat="2.915895" lon="-75.1495">
        <ele>694.6</ele>
        <time>2021-08-21T19:34:27Z</time>
      </trkpt>
      <trkpt lat="2.915935" lon="-75.149506">
        <ele>694.4</ele>
        <time>2021-08-21T19:34:28Z</time>
      </trkpt>
      <trkpt lat="2.915979" lon="-75.149506">
        <ele>694.1</ele>
        <time>2021-08-21T19:34:29Z</time>
      </trkpt>
      <trkpt lat="2.916024" lon="-75.149506">
        <ele>693.9</ele>
        <time>2021-08-21T19:34:30Z</time>
      </trkpt>
      <trkpt lat="2.916075" lon="-75.149506">
        <ele>693.6</ele>
        <time>2021-08-21T19:34:31Z</time>
      </trkpt>
      <trkpt lat="2.916124" lon="-75.149506">
        <ele>693.3</ele>
        <time>2021-08-21T19:34:32Z</time>
      </trkpt>
      <trkpt lat="2.916175" lon="-75.149506">
        <ele>693.1</ele>
        <time>2021-08-21T19:34:33Z</time>
      </trkpt>
      <trkpt lat="2.916228" lon="-75.1495">
        <ele>692.8</ele>
        <time>2021-08-21T19:34:34Z</time>
      </trkpt>
      <trkpt lat="2.916285" lon="-75.14949">
        <ele>692.4</ele>
        <time>2021-08-21T19:34:35Z</time>
      </trkpt>
      <trkpt lat="2.916344" lon="-75.14949">
        <ele>692.1</ele>
        <time>2021-08-21T19:34:36Z</time>
      </trkpt>
      <trkpt lat="2.916408" lon="-75.14948">
        <ele>691.7</ele>
        <time>2021-08-21T19:34:37Z</time>
      </trkpt>
      <trkpt lat="2.916474" lon="-75.149475">
        <ele>691.3</ele>
        <time>2021-08-21T19:34:38Z</time>
      </trkpt>
      <trkpt lat="2.916542" lon="-75.149475">
        <ele>690.9</ele>
        <time>2021-08-21T19:34:39Z</time>
      </trkpt>
      <trkpt lat="2.916613" lon="-75.14947">
        <ele>690.5</ele>
        <time>2021-08-21T19:34:40Z</time>
      </trkpt>
      <trkpt lat="2.916685" lon="-75.14946">
        <ele>690.0</ele>
        <time>2021-08-21T19:34:41Z</time>
      </trkpt>
      <trkpt lat="2.916758" lon="-75.14945">
        <ele>689.5</ele>
        <time>2021-08-21T19:34:42Z</time>
      </trkpt>
      <trkpt lat="2.916832" lon="-75.14944">
        <ele>689.0</ele>
        <time>2021-08-21T19:34:43Z</time>
      </trkpt>
      <trkpt lat="2.916906" lon="-75.14942">
        <ele>688.4</ele>
        <time>2021-08-21T19:34:44Z</time>
      </trkpt>
      <trkpt lat="2.91698" lon="-75.14941">
        <ele>687.9</ele>
        <time>2021-08-21T19:34:45Z</time>
      </trkpt>
      <trkpt lat="2.917056" lon="-75.14939">
        <ele>687.4</ele>
        <time>2021-08-21T19:34:46Z</time>
      </trkpt>
      <trkpt lat="2.917132" lon="-75.149376">
        <ele>687.1</ele>
        <time>2021-08-21T19:34:47Z</time>
      </trkpt>
      <trkpt lat="2.917209" lon="-75.14936">
        <ele>686.7</ele>
        <time>2021-08-21T19:34:48Z</time>
      </trkpt>
      <trkpt lat="2.917286" lon="-75.149345">
        <ele>686.5</ele>
        <time>2021-08-21T19:34:49Z</time>
      </trkpt>
      <trkpt lat="2.917362" lon="-75.14934">
        <ele>686.2</ele>
        <time>2021-08-21T19:34:50Z</time>
      </trkpt>
      <trkpt lat="2.917438" lon="-75.14933">
        <ele>685.9</ele>
        <time>2021-08-21T19:34:51Z</time>
      </trkpt>
      <trkpt lat="2.917514" lon="-75.149315">
        <ele>685.5</ele>
        <time>2021-08-21T19:34:52Z</time>
      </trkpt>
      <trkpt lat="2.91759" lon="-75.14931">
        <ele>685.0</ele>
        <time>2021-08-21T19:34:52Z</time>
      </trkpt>
      <trkpt lat="2.917665" lon="-75.1493">
        <ele>684.4</ele>
        <time>2021-08-21T19:34:53Z</time>
      </trkpt>
      <trkpt lat="2.917741" lon="-75.149284">
        <ele>683.7</ele>
        <time>2021-08-21T19:34:54Z</time>
      </trkpt>
      <trkpt lat="2.917818" lon="-75.14928">
        <ele>682.9</ele>
        <time>2021-08-21T19:34:55Z</time>
      </trkpt>
      <trkpt lat="2.917896" lon="-75.14927">
        <ele>682.2</ele>
        <time>2021-08-21T19:34:56Z</time>
      </trkpt>
      <trkpt lat="2.917976" lon="-75.14927">
        <ele>681.5</ele>
        <time>2021-08-21T19:34:57Z</time>
      </trkpt>
      <trkpt lat="2.918059" lon="-75.14927">
        <ele>680.9</ele>
        <time>2021-08-21T19:34:58Z</time>
      </trkpt>
      <trkpt lat="2.918141" lon="-75.14927">
        <ele>680.3</ele>
        <time>2021-08-21T19:34:59Z</time>
      </trkpt>
      <trkpt lat="2.918222" lon="-75.14927">
        <ele>679.9</ele>
        <time>2021-08-21T19:35:00Z</time>
      </trkpt>
      <trkpt lat="2.918303" lon="-75.14926">
        <ele>679.5</ele>
        <time>2021-08-21T19:35:01Z</time>
      </trkpt>
      <trkpt lat="2.918383" lon="-75.14926">
        <ele>679.2</ele>
        <time>2021-08-21T19:35:02Z</time>
      </trkpt>
      <trkpt lat="2.91846" lon="-75.14926">
        <ele>679.1</ele>
        <time>2021-08-21T19:35:03Z</time>
      </trkpt>
      <trkpt lat="2.918533" lon="-75.149254">
        <ele>678.9</ele>
        <time>2021-08-21T19:35:04Z</time>
      </trkpt>
      <trkpt lat="2.918602" lon="-75.14926">
        <ele>678.8</ele>
        <time>2021-08-21T19:35:05Z</time>
      </trkpt>
      <trkpt lat="2.918668" lon="-75.14926">
        <ele>678.7</ele>
        <time>2021-08-21T19:35:06Z</time>
      </trkpt>
      <trkpt lat="2.918729" lon="-75.14926">
        <ele>678.5</ele>
        <time>2021-08-21T19:35:07Z</time>
      </trkpt>
      <trkpt lat="2.918789" lon="-75.14926">
        <ele>678.3</ele>
        <time>2021-08-21T19:35:08Z</time>
      </trkpt>
      <trkpt lat="2.918849" lon="-75.14926">
        <ele>678.0</ele>
        <time>2021-08-21T19:35:09Z</time>
      </trkpt>
      <trkpt lat="2.918909" lon="-75.14926">
        <ele>677.6</ele>
        <time>2021-08-21T19:35:10Z</time>
      </trkpt>
      <trkpt lat="2.918967" lon="-75.14926">
        <ele>677.2</ele>
        <time>2021-08-21T19:35:11Z</time>
      </trkpt>
      <trkpt lat="2.919032" lon="-75.14926">
        <ele>676.8</ele>
        <time>2021-08-21T19:35:12Z</time>
      </trkpt>
      <trkpt lat="2.919099" lon="-75.14926">
        <ele>676.3</ele>
        <time>2021-08-21T19:35:13Z</time>
      </trkpt>
      <trkpt lat="2.919162" lon="-75.14926">
        <ele>675.8</ele>
        <time>2021-08-21T19:35:14Z</time>
      </trkpt>
      <trkpt lat="2.919229" lon="-75.14926">
        <ele>675.3</ele>
        <time>2021-08-21T19:35:15Z</time>
      </trkpt>
      <trkpt lat="2.919296" lon="-75.14926">
        <ele>674.8</ele>
        <time>2021-08-21T19:35:16Z</time>
      </trkpt>
      <trkpt lat="2.919362" lon="-75.14926">
        <ele>674.3</ele>
        <time>2021-08-21T19:35:17Z</time>
      </trkpt>
      <trkpt lat="2.919428" lon="-75.14926">
        <ele>673.7</ele>
        <time>2021-08-21T19:35:18Z</time>
      </trkpt>
      <trkpt lat="2.919493" lon="-75.14926">
        <ele>673.1</ele>
        <time>2021-08-21T19:35:19Z</time>
      </trkpt>
      <trkpt lat="2.919558" lon="-75.14926">
        <ele>672.6</ele>
        <time>2021-08-21T19:35:20Z</time>
      </trkpt>
      <trkpt lat="2.919625" lon="-75.14926">
        <ele>672.0</ele>
        <time>2021-08-21T19:35:21Z</time>
      </trkpt>
      <trkpt lat="2.919693" lon="-75.14926">
        <ele>671.4</ele>
        <time>2021-08-21T19:35:22Z</time>
      </trkpt>
      <trkpt lat="2.919764" lon="-75.149254">
        <ele>670.9</ele>
        <time>2021-08-21T19:35:23Z</time>
      </trkpt>
      <trkpt lat="2.919835" lon="-75.14925">
        <ele>670.5</ele>
        <time>2021-08-21T19:35:24Z</time>
      </trkpt>
      <trkpt lat="2.919907" lon="-75.14925">
        <ele>670.3</ele>
        <time>2021-08-21T19:35:25Z</time>
      </trkpt>
      <trkpt lat="2.919978" lon="-75.149254">
        <ele>670.0</ele>
        <time>2021-08-21T19:35:26Z</time>
      </trkpt>
      <trkpt lat="2.92005" lon="-75.14926">
        <ele>669.8</ele>
        <time>2021-08-21T19:35:27Z</time>
      </trkpt>
      <trkpt lat="2.92012" lon="-75.14927">
        <ele>669.7</ele>
        <time>2021-08-21T19:35:28Z</time>
      </trkpt>
      <trkpt lat="2.920191" lon="-75.14928">
        <ele>669.5</ele>
        <time>2021-08-21T19:35:29Z</time>
      </trkpt>
      <trkpt lat="2.92026" lon="-75.14929">
        <ele>669.4</ele>
        <time>2021-08-21T19:35:30Z</time>
      </trkpt>
      <trkpt lat="2.920328" lon="-75.149315">
        <ele>669.3</ele>
        <time>2021-08-21T19:35:31Z</time>
      </trkpt>
      <trkpt lat="2.920394" lon="-75.14933">
        <ele>669.3</ele>
        <time>2021-08-21T19:35:32Z</time>
      </trkpt>
      <trkpt lat="2.920457" lon="-75.149345">
        <ele>669.2</ele>
        <time>2021-08-21T19:35:33Z</time>
      </trkpt>
      <trkpt lat="2.920517" lon="-75.14937">
        <ele>669.2</ele>
        <time>2021-08-21T19:35:34Z</time>
      </trkpt>
      <trkpt lat="2.920576" lon="-75.14939">
        <ele>669.2</ele>
        <time>2021-08-21T19:35:35Z</time>
      </trkpt>
      <trkpt lat="2.92063" lon="-75.14941">
        <ele>669.2</ele>
        <time>2021-08-21T19:35:36Z</time>
      </trkpt>
      <trkpt lat="2.920688" lon="-75.14943">
        <ele>669.2</ele>
        <time>2021-08-21T19:35:37Z</time>
      </trkpt>
      <trkpt lat="2.920743" lon="-75.14945">
        <ele>669.2</ele>
        <time>2021-08-21T19:35:38Z</time>
      </trkpt>
      <trkpt lat="2.920793" lon="-75.14947">
        <ele>669.2</ele>
        <time>2021-08-21T19:35:39Z</time>
      </trkpt>
      <trkpt lat="2.92084" lon="-75.1495">
        <ele>669.3</ele>
        <time>2021-08-21T19:35:40Z</time>
      </trkpt>
      <trkpt lat="2.92088" lon="-75.14952">
        <ele>669.3</ele>
        <time>2021-08-21T19:35:41Z</time>
      </trkpt>
      <trkpt lat="2.920915" lon="-75.14954">
        <ele>669.4</ele>
        <time>2021-08-21T19:35:42Z</time>
      </trkpt>
      <trkpt lat="2.920944" lon="-75.14958">
        <ele>669.4</ele>
        <time>2021-08-21T19:35:43Z</time>
      </trkpt>
      <trkpt lat="2.920968" lon="-75.14961">
        <ele>669.4</ele>
        <time>2021-08-21T19:35:44Z</time>
      </trkpt>
      <trkpt lat="2.920987" lon="-75.14964">
        <ele>669.4</ele>
        <time>2021-08-21T19:35:45Z</time>
      </trkpt>
      <trkpt lat="2.921002" lon="-75.14968">
        <ele>669.5</ele>
        <time>2021-08-21T19:35:46Z</time>
      </trkpt>
      <trkpt lat="2.921014" lon="-75.14971">
        <ele>669.5</ele>
        <time>2021-08-21T19:35:47Z</time>
      </trkpt>
      <trkpt lat="2.921023" lon="-75.14975">
        <ele>669.5</ele>
        <time>2021-08-21T19:35:48Z</time>
      </trkpt>
      <trkpt lat="2.921033" lon="-75.14978">
        <ele>669.5</ele>
        <time>2021-08-21T19:35:49Z</time>
      </trkpt>
      <trkpt lat="2.92104" lon="-75.14982">
        <ele>669.6</ele>
        <time>2021-08-21T19:35:50Z</time>
      </trkpt>
      <trkpt lat="2.921046" lon="-75.14985">
        <ele>669.6</ele>
        <time>2021-08-21T19:35:51Z</time>
      </trkpt>
      <trkpt lat="2.921051" lon="-75.14989">
        <ele>669.6</ele>
        <time>2021-08-21T19:35:52Z</time>
      </trkpt>
      <trkpt lat="2.921055" lon="-75.14992">
        <ele>669.7</ele>
        <time>2021-08-21T19:35:53Z</time>
      </trkpt>
      <trkpt lat="2.921058" lon="-75.149956">
        <ele>669.7</ele>
        <time>2021-08-21T19:35:54Z</time>
      </trkpt>
      <trkpt lat="2.92106" lon="-75.149994">
        <ele>669.7</ele>
        <time>2021-08-21T19:35:55Z</time>
      </trkpt>
      <trkpt lat="2.921063" lon="-75.150024">
        <ele>669.8</ele>
        <time>2021-08-21T19:35:56Z</time>
      </trkpt>
      <trkpt lat="2.921067" lon="-75.150055">
        <ele>669.8</ele>
        <time>2021-08-21T19:35:57Z</time>
      </trkpt>
      <trkpt lat="2.921071" lon="-75.150085">
        <ele>669.9</ele>
        <time>2021-08-21T19:35:58Z</time>
      </trkpt>
      <trkpt lat="2.921077" lon="-75.150116">
        <ele>669.9</ele>
        <time>2021-08-21T19:35:59Z</time>
      </trkpt>
      <trkpt lat="2.921082" lon="-75.15015">
        <ele>669.9</ele>
        <time>2021-08-21T19:36:00Z</time>
      </trkpt>
      <trkpt lat="2.921089" lon="-75.15018">
        <ele>670.0</ele>
        <time>2021-08-21T19:36:01Z</time>
      </trkpt>
      <trkpt lat="2.921096" lon="-75.1502">
        <ele>670.1</ele>
        <time>2021-08-21T19:36:02Z</time>
      </trkpt>
      <trkpt lat="2.921105" lon="-75.15022">
        <ele>670.2</ele>
        <time>2021-08-21T19:36:03Z</time>
      </trkpt>
      <trkpt lat="2.921118" lon="-75.150246">
        <ele>670.3</ele>
        <time>2021-08-21T19:36:04Z</time>
      </trkpt>
      <trkpt lat="2.921132" lon="-75.15027">
        <ele>670.4</ele>
        <time>2021-08-21T19:36:05Z</time>
      </trkpt>
      <trkpt lat="2.921148" lon="-75.15029">
        <ele>670.5</ele>
        <time>2021-08-21T19:36:06Z</time>
      </trkpt>
      <trkpt lat="2.921165" lon="-75.150314">
        <ele>670.6</ele>
        <time>2021-08-21T19:36:07Z</time>
      </trkpt>
      <trkpt lat="2.921182" lon="-75.15034">
        <ele>670.6</ele>
        <time>2021-08-21T19:36:08Z</time>
      </trkpt>
      <trkpt lat="2.921201" lon="-75.15035">
        <ele>670.7</ele>
        <time>2021-08-21T19:36:09Z</time>
      </trkpt>
      <trkpt lat="2.921219" lon="-75.150375">
        <ele>670.8</ele>
        <time>2021-08-21T19:36:10Z</time>
      </trkpt>
      <trkpt lat="2.921238" lon="-75.15039">
        <ele>670.9</ele>
        <time>2021-08-21T19:36:11Z</time>
      </trkpt>
      <trkpt lat="2.921258" lon="-75.15041">
        <ele>671.0</ele>
        <time>2021-08-21T19:36:12Z</time>
      </trkpt>
      <trkpt lat="2.921278" lon="-75.15043">
        <ele>671.1</ele>
        <time>2021-08-21T19:36:13Z</time>
      </trkpt>
      <trkpt lat="2.921297" lon="-75.15045">
        <ele>671.2</ele>
        <time>2021-08-21T19:36:14Z</time>
      </trkpt>
      <trkpt lat="2.921315" lon="-75.150475">
        <ele>671.2</ele>
        <time>2021-08-21T19:36:15Z</time>
      </trkpt>
      <trkpt lat="2.921337" lon="-75.1505">
        <ele>671.3</ele>
        <time>2021-08-21T19:36:16Z</time>
      </trkpt>
      <trkpt lat="2.921361" lon="-75.15052">
        <ele>671.4</ele>
        <time>2021-08-21T19:36:17Z</time>
      </trkpt>
      <trkpt lat="2.921387" lon="-75.15054">
        <ele>671.4</ele>
        <time>2021-08-21T19:36:18Z</time>
      </trkpt>
      <trkpt lat="2.921414" lon="-75.150566">
        <ele>671.5</ele>
        <time>2021-08-21T19:36:19Z</time>
      </trkpt>
      <trkpt lat="2.921441" lon="-75.15059">
        <ele>671.5</ele>
        <time>2021-08-21T19:36:20Z</time>
      </trkpt>
      <trkpt lat="2.921467" lon="-75.150604">
        <ele>671.6</ele>
        <time>2021-08-21T19:36:21Z</time>
      </trkpt>
      <trkpt lat="2.921492" lon="-75.15063">
        <ele>671.6</ele>
        <time>2021-08-21T19:36:22Z</time>
      </trkpt>
      <trkpt lat="2.921517" lon="-75.15065">
        <ele>671.6</ele>
        <time>2021-08-21T19:36:23Z</time>
      </trkpt>
      <trkpt lat="2.921544" lon="-75.15067">
        <ele>671.6</ele>
        <time>2021-08-21T19:36:24Z</time>
      </trkpt>
      <trkpt lat="2.921571" lon="-75.150696">
        <ele>671.5</ele>
        <time>2021-08-21T19:36:25Z</time>
      </trkpt>
      <trkpt lat="2.921597" lon="-75.15072">
        <ele>671.5</ele>
        <time>2021-08-21T19:36:26Z</time>
      </trkpt>
      <trkpt lat="2.921624" lon="-75.15074">
        <ele>671.5</ele>
        <time>2021-08-21T19:36:27Z</time>
      </trkpt>
      <trkpt lat="2.921654" lon="-75.150764">
        <ele>671.5</ele>
        <time>2021-08-21T19:36:28Z</time>
      </trkpt>
      <trkpt lat="2.921685" lon="-75.15079">
        <ele>671.4</ele>
        <time>2021-08-21T19:36:29Z</time>
      </trkpt>
      <trkpt lat="2.921717" lon="-75.15082">
        <ele>671.4</ele>
        <time>2021-08-21T19:36:30Z</time>
      </trkpt>
      <trkpt lat="2.92175" lon="-75.15084">
        <ele>671.3</ele>
        <time>2021-08-21T19:36:31Z</time>
      </trkpt>
      <trkpt lat="2.921782" lon="-75.15087">
        <ele>671.3</ele>
        <time>2021-08-21T19:36:32Z</time>
      </trkpt>
      <trkpt lat="2.921814" lon="-75.1509">
        <ele>671.2</ele>
        <time>2021-08-21T19:36:33Z</time>
      </trkpt>
      <trkpt lat="2.921842" lon="-75.150925">
        <ele>671.1</ele>
        <time>2021-08-21T19:36:34Z</time>
      </trkpt>
      <trkpt lat="2.921874" lon="-75.150955">
        <ele>671.0</ele>
        <time>2021-08-21T19:36:35Z</time>
      </trkpt>
      <trkpt lat="2.921905" lon="-75.15098">
        <ele>670.9</ele>
        <time>2021-08-21T19:36:36Z</time>
      </trkpt>
      <trkpt lat="2.921936" lon="-75.15101">
        <ele>670.8</ele>
        <time>2021-08-21T19:36:37Z</time>
      </trkpt>
      <trkpt lat="2.921967" lon="-75.15104">
        <ele>670.7</ele>
        <time>2021-08-21T19:36:38Z</time>
      </trkpt>
      <trkpt lat="2.921998" lon="-75.15108">
        <ele>670.6</ele>
        <time>2021-08-21T19:36:39Z</time>
      </trkpt>
      <trkpt lat="2.92203" lon="-75.15111">
        <ele>670.4</ele>
        <time>2021-08-21T19:36:40Z</time>
      </trkpt>
      <trkpt lat="2.922064" lon="-75.15114">
        <ele>670.3</ele>
        <time>2021-08-21T19:36:41Z</time>
      </trkpt>
      <trkpt lat="2.9221" lon="-75.15117">
        <ele>670.2</ele>
        <time>2021-08-21T19:36:42Z</time>
      </trkpt>
      <trkpt lat="2.922137" lon="-75.1512">
        <ele>670.1</ele>
        <time>2021-08-21T19:36:43Z</time>
      </trkpt>
      <trkpt lat="2.922176" lon="-75.15123">
        <ele>670.0</ele>
        <time>2021-08-21T19:36:44Z</time>
      </trkpt>
      <trkpt lat="2.922215" lon="-75.15127">
        <ele>669.8</ele>
        <time>2021-08-21T19:36:45Z</time>
      </trkpt>
      <trkpt lat="2.922253" lon="-75.1513">
        <ele>669.7</ele>
        <time>2021-08-21T19:36:46Z</time>
      </trkpt>
      <trkpt lat="2.922291" lon="-75.15134">
        <ele>669.6</ele>
        <time>2021-08-21T19:36:47Z</time>
      </trkpt>
      <trkpt lat="2.92233" lon="-75.151375">
        <ele>669.6</ele>
        <time>2021-08-21T19:36:48Z</time>
      </trkpt>
      <trkpt lat="2.922367" lon="-75.15141">
        <ele>669.6</ele>
        <time>2021-08-21T19:36:49Z</time>
      </trkpt>
      <trkpt lat="2.922405" lon="-75.15145">
        <ele>669.6</ele>
        <time>2021-08-21T19:36:50Z</time>
      </trkpt>
      <trkpt lat="2.922441" lon="-75.15149">
        <ele>669.6</ele>
        <time>2021-08-21T19:36:51Z</time>
      </trkpt>
      <trkpt lat="2.922478" lon="-75.15153">
        <ele>669.6</ele>
        <time>2021-08-21T19:36:52Z</time>
      </trkpt>
      <trkpt lat="2.922514" lon="-75.151566">
        <ele>669.7</ele>
        <time>2021-08-21T19:36:53Z</time>
      </trkpt>
      <trkpt lat="2.92255" lon="-75.151596">
        <ele>669.7</ele>
        <time>2021-08-21T19:36:54Z</time>
      </trkpt>
      <trkpt lat="2.922586" lon="-75.15163">
        <ele>669.7</ele>
        <time>2021-08-21T19:36:55Z</time>
      </trkpt>
      <trkpt lat="2.92262" lon="-75.151665">
        <ele>669.8</ele>
        <time>2021-08-21T19:36:56Z</time>
      </trkpt>
      <trkpt lat="2.922655" lon="-75.151695">
        <ele>669.9</ele>
        <time>2021-08-21T19:36:57Z</time>
      </trkpt>
      <trkpt lat="2.922687" lon="-75.151726">
        <ele>670.0</ele>
        <time>2021-08-21T19:36:58Z</time>
      </trkpt>
      <trkpt lat="2.922719" lon="-75.15176">
        <ele>670.1</ele>
        <time>2021-08-21T19:36:59Z</time>
      </trkpt>
      <trkpt lat="2.922751" lon="-75.15179">
        <ele>670.3</ele>
        <time>2021-08-21T19:37:00Z</time>
      </trkpt>
      <trkpt lat="2.922782" lon="-75.15182">
        <ele>670.4</ele>
        <time>2021-08-21T19:37:01Z</time>
      </trkpt>
      <trkpt lat="2.922812" lon="-75.15184">
        <ele>670.5</ele>
        <time>2021-08-21T19:37:02Z</time>
      </trkpt>
      <trkpt lat="2.922841" lon="-75.15187">
        <ele>670.7</ele>
        <time>2021-08-21T19:37:03Z</time>
      </trkpt>
      <trkpt lat="2.922868" lon="-75.1519">
        <ele>670.8</ele>
        <time>2021-08-21T19:37:04Z</time>
      </trkpt>
      <trkpt lat="2.922895" lon="-75.15193">
        <ele>670.9</ele>
        <time>2021-08-21T19:37:05Z</time>
      </trkpt>
      <trkpt lat="2.922924" lon="-75.15197">
        <ele>671.1</ele>
        <time>2021-08-21T19:37:06Z</time>
      </trkpt>
      <trkpt lat="2.922951" lon="-75.152">
        <ele>671.2</ele>
        <time>2021-08-21T19:37:07Z</time>
      </trkpt>
      <trkpt lat="2.922976" lon="-75.15204">
        <ele>671.4</ele>
        <time>2021-08-21T19:37:08Z</time>
      </trkpt>
      <trkpt lat="2.923003" lon="-75.15207">
        <ele>671.6</ele>
        <time>2021-08-21T19:37:09Z</time>
      </trkpt>
      <trkpt lat="2.923029" lon="-75.1521">
        <ele>671.8</ele>
        <time>2021-08-21T19:37:10Z</time>
      </trkpt>
      <trkpt lat="2.923133" lon="-75.15223">
        <ele>673.1</ele>
        <time>2021-08-21T19:37:12Z</time>
      </trkpt>
      <trkpt lat="2.923139" lon="-75.15224">
        <ele>673.2</ele>
        <time>2021-08-21T19:37:13Z</time>
      </trkpt>
      <trkpt lat="2.923153" lon="-75.15225">
        <ele>673.4</ele>
        <time>2021-08-21T19:37:14Z</time>
      </trkpt>
      <trkpt lat="2.923171" lon="-75.152275">
        <ele>673.6</ele>
        <time>2021-08-21T19:37:15Z</time>
      </trkpt>
      <trkpt lat="2.923192" lon="-75.1523">
        <ele>673.9</ele>
        <time>2021-08-21T19:37:16Z</time>
      </trkpt>
      <trkpt lat="2.923214" lon="-75.15233">
        <ele>674.3</ele>
        <time>2021-08-21T19:37:17Z</time>
      </trkpt>
      <trkpt lat="2.923234" lon="-75.15236">
        <ele>674.7</ele>
        <time>2021-08-21T19:37:18Z</time>
      </trkpt>
      <trkpt lat="2.923254" lon="-75.15239">
        <ele>675.1</ele>
        <time>2021-08-21T19:37:19Z</time>
      </trkpt>
      <trkpt lat="2.923272" lon="-75.15242">
        <ele>675.5</ele>
        <time>2021-08-21T19:37:20Z</time>
      </trkpt>
      <trkpt lat="2.923288" lon="-75.15244">
        <ele>675.9</ele>
        <time>2021-08-21T19:37:21Z</time>
      </trkpt>
      <trkpt lat="2.923302" lon="-75.152466">
        <ele>676.2</ele>
        <time>2021-08-21T19:37:22Z</time>
      </trkpt>
      <trkpt lat="2.923314" lon="-75.15249">
        <ele>676.6</ele>
        <time>2021-08-21T19:37:23Z</time>
      </trkpt>
      <trkpt lat="2.923323" lon="-75.15251">
        <ele>676.9</ele>
        <time>2021-08-21T19:37:24Z</time>
      </trkpt>
      <trkpt lat="2.923348" lon="-75.152596">
        <ele>678.3</ele>
        <time>2021-08-21T19:37:26Z</time>
      </trkpt>
      <trkpt lat="2.923348" lon="-75.152596">
        <ele>678.4</ele>
        <time>2021-08-21T19:37:27Z</time>
      </trkpt>
      <trkpt lat="2.923347" lon="-75.1526">
        <ele>678.5</ele>
        <time>2021-08-21T19:37:28Z</time>
      </trkpt>
      <trkpt lat="2.923344" lon="-75.15262">
        <ele>678.7</ele>
        <time>2021-08-21T19:37:29Z</time>
      </trkpt>
      <trkpt lat="2.923339" lon="-75.15263">
        <ele>678.9</ele>
        <time>2021-08-21T19:37:30Z</time>
      </trkpt>
      <trkpt lat="2.923331" lon="-75.15264">
        <ele>679.2</ele>
        <time>2021-08-21T19:37:31Z</time>
      </trkpt>
      <trkpt lat="2.923317" lon="-75.152664">
        <ele>679.5</ele>
        <time>2021-08-21T19:37:32Z</time>
      </trkpt>
      <trkpt lat="2.923302" lon="-75.15267">
        <ele>679.8</ele>
        <time>2021-08-21T19:37:33Z</time>
      </trkpt>
      <trkpt lat="2.923288" lon="-75.15269">
        <ele>680.1</ele>
        <time>2021-08-21T19:37:34Z</time>
      </trkpt>
      <trkpt lat="2.923271" lon="-75.152695">
        <ele>680.4</ele>
        <time>2021-08-21T19:37:35Z</time>
      </trkpt>
      <trkpt lat="2.923254" lon="-75.1527">
        <ele>680.6</ele>
        <time>2021-08-21T19:37:36Z</time>
      </trkpt>
      <trkpt lat="2.923233" lon="-75.1527">
        <ele>680.9</ele>
        <time>2021-08-21T19:37:37Z</time>
      </trkpt>
      <trkpt lat="2.92321" lon="-75.15271">
        <ele>681.2</ele>
        <time>2021-08-21T19:37:38Z</time>
      </trkpt>
      <trkpt lat="2.923189" lon="-75.15271">
        <ele>681.5</ele>
        <time>2021-08-21T19:37:39Z</time>
      </trkpt>
      <trkpt lat="2.92317" lon="-75.15271">
        <ele>681.7</ele>
        <time>2021-08-21T19:37:40Z</time>
      </trkpt>
      <trkpt lat="2.923151" lon="-75.15271">
        <ele>681.9</ele>
        <time>2021-08-21T19:37:41Z</time>
      </trkpt>
      <trkpt lat="2.923133" lon="-75.1527">
        <ele>682.2</ele>
        <time>2021-08-21T19:37:42Z</time>
      </trkpt>
      <trkpt lat="2.923115" lon="-75.152695">
        <ele>682.4</ele>
        <time>2021-08-21T19:37:43Z</time>
      </trkpt>
      <trkpt lat="2.9231" lon="-75.15269">
        <ele>682.5</ele>
        <time>2021-08-21T19:37:44Z</time>
      </trkpt>
      <trkpt lat="2.923085" lon="-75.15269">
        <ele>682.7</ele>
        <time>2021-08-21T19:37:45Z</time>
      </trkpt>
      <trkpt lat="2.92307" lon="-75.15268">
        <ele>682.8</ele>
        <time>2021-08-21T19:37:46Z</time>
      </trkpt>
      <trkpt lat="2.923055" lon="-75.15267">
        <ele>683.0</ele>
        <time>2021-08-21T19:37:47Z</time>
      </trkpt>
      <trkpt lat="2.923041" lon="-75.152664">
        <ele>683.1</ele>
        <time>2021-08-21T19:37:48Z</time>
      </trkpt>
      <trkpt lat="2.923029" lon="-75.15266">
        <ele>683.2</ele>
        <time>2021-08-21T19:37:49Z</time>
      </trkpt>
      <trkpt lat="2.923015" lon="-75.15264">
        <ele>683.4</ele>
        <time>2021-08-21T19:37:50Z</time>
      </trkpt>
      <trkpt lat="2.922999" lon="-75.15263">
        <ele>683.5</ele>
        <time>2021-08-21T19:37:51Z</time>
      </trkpt>
      <trkpt lat="2.922983" lon="-75.152626">
        <ele>683.6</ele>
        <time>2021-08-21T19:37:52Z</time>
      </trkpt>
      <trkpt lat="2.922969" lon="-75.15261">
        <ele>683.8</ele>
        <time>2021-08-21T19:37:53Z</time>
      </trkpt>
      <trkpt lat="2.922955" lon="-75.1526">
        <ele>683.9</ele>
        <time>2021-08-21T19:37:54Z</time>
      </trkpt>
      <trkpt lat="2.922943" lon="-75.15259">
        <ele>684.0</ele>
        <time>2021-08-21T19:37:55Z</time>
      </trkpt>
      <trkpt lat="2.92293" lon="-75.15258">
        <ele>684.2</ele>
        <time>2021-08-21T19:37:56Z</time>
      </trkpt>
      <trkpt lat="2.922916" lon="-75.152565">
        <ele>684.3</ele>
        <time>2021-08-21T19:37:57Z</time>
      </trkpt>
      <trkpt lat="2.922904" lon="-75.15255">
        <ele>684.5</ele>
        <time>2021-08-21T19:37:58Z</time>
      </trkpt>
      <trkpt lat="2.922892" lon="-75.152534">
        <ele>684.6</ele>
        <time>2021-08-21T19:37:59Z</time>
      </trkpt>
      <trkpt lat="2.922881" lon="-75.15253">
        <ele>684.7</ele>
        <time>2021-08-21T19:38:00Z</time>
      </trkpt>
      <trkpt lat="2.922869" lon="-75.15251">
        <ele>684.9</ele>
        <time>2021-08-21T19:38:01Z</time>
      </trkpt>
      <trkpt lat="2.922857" lon="-75.152504">
        <ele>685.0</ele>
        <time>2021-08-21T19:38:02Z</time>
      </trkpt>
      <trkpt lat="2.922846" lon="-75.15249">
        <ele>685.1</ele>
        <time>2021-08-21T19:38:03Z</time>
      </trkpt>
      <trkpt lat="2.922834" lon="-75.15248">
        <ele>685.3</ele>
        <time>2021-08-21T19:38:04Z</time>
      </trkpt>
      <trkpt lat="2.922822" lon="-75.152466">
        <ele>685.4</ele>
        <time>2021-08-21T19:38:05Z</time>
      </trkpt>
      <trkpt lat="2.922812" lon="-75.15246">
        <ele>685.5</ele>
        <time>2021-08-21T19:38:06Z</time>
      </trkpt>
      <trkpt lat="2.9228" lon="-75.15244">
        <ele>685.6</ele>
        <time>2021-08-21T19:38:07Z</time>
      </trkpt>
      <trkpt lat="2.922789" lon="-75.152435">
        <ele>685.8</ele>
        <time>2021-08-21T19:38:08Z</time>
      </trkpt>
      <trkpt lat="2.922777" lon="-75.15243">
        <ele>685.9</ele>
        <time>2021-08-21T19:38:09Z</time>
      </trkpt>
      <trkpt lat="2.922765" lon="-75.15241">
        <ele>686.0</ele>
        <time>2021-08-21T19:38:10Z</time>
      </trkpt>
      <trkpt lat="2.922754" lon="-75.152405">
        <ele>686.1</ele>
        <time>2021-08-21T19:38:11Z</time>
      </trkpt>
      <trkpt lat="2.922743" lon="-75.1524">
        <ele>686.3</ele>
        <time>2021-08-21T19:38:12Z</time>
      </trkpt>
      <trkpt lat="2.922732" lon="-75.15239">
        <ele>686.4</ele>
        <time>2021-08-21T19:38:13Z</time>
      </trkpt>
      <trkpt lat="2.92272" lon="-75.152374">
        <ele>686.5</ele>
        <time>2021-08-21T19:38:14Z</time>
      </trkpt>
      <trkpt lat="2.92271" lon="-75.15237">
        <ele>686.6</ele>
        <time>2021-08-21T19:38:15Z</time>
      </trkpt>
      <trkpt lat="2.9227" lon="-75.15236">
        <ele>686.7</ele>
        <time>2021-08-21T19:38:16Z</time>
      </trkpt>
      <trkpt lat="2.922688" lon="-75.15235">
        <ele>686.9</ele>
        <time>2021-08-21T19:38:17Z</time>
      </trkpt>
      <trkpt lat="2.922676" lon="-75.15234">
        <ele>687.0</ele>
        <time>2021-08-21T19:38:18Z</time>
      </trkpt>
      <trkpt lat="2.922662" lon="-75.152336">
        <ele>687.1</ele>
        <time>2021-08-21T19:38:19Z</time>
      </trkpt>
      <trkpt lat="2.92265" lon="-75.15233">
        <ele>687.2</ele>
        <time>2021-08-21T19:38:20Z</time>
      </trkpt>
      <trkpt lat="2.922637" lon="-75.15231">
        <ele>687.4</ele>
        <time>2021-08-21T19:38:21Z</time>
      </trkpt>
      <trkpt lat="2.922624" lon="-75.152306">
        <ele>687.5</ele>
        <time>2021-08-21T19:38:22Z</time>
      </trkpt>
      <trkpt lat="2.92261" lon="-75.1523">
        <ele>687.6</ele>
        <time>2021-08-21T19:38:23Z</time>
      </trkpt>
      <trkpt lat="2.922597" lon="-75.15229">
        <ele>687.8</ele>
        <time>2021-08-21T19:38:24Z</time>
      </trkpt>
      <trkpt lat="2.922584" lon="-75.15228">
        <ele>687.9</ele>
        <time>2021-08-21T19:38:25Z</time>
      </trkpt>
      <trkpt lat="2.922571" lon="-75.152275">
        <ele>688.1</ele>
        <time>2021-08-21T19:38:26Z</time>
      </trkpt>
      <trkpt lat="2.922557" lon="-75.15226">
        <ele>688.2</ele>
        <time>2021-08-21T19:38:27Z</time>
      </trkpt>
      <trkpt lat="2.922545" lon="-75.15225">
        <ele>688.4</ele>
        <time>2021-08-21T19:38:28Z</time>
      </trkpt>
      <trkpt lat="2.922531" lon="-75.152245">
        <ele>688.5</ele>
        <time>2021-08-21T19:38:29Z</time>
      </trkpt>
      <trkpt lat="2.922516" lon="-75.15224">
        <ele>688.7</ele>
        <time>2021-08-21T19:38:30Z</time>
      </trkpt>
      <trkpt lat="2.922502" lon="-75.15223">
        <ele>688.8</ele>
        <time>2021-08-21T19:38:31Z</time>
      </trkpt>
      <trkpt lat="2.922489" lon="-75.15222">
        <ele>689.0</ele>
        <time>2021-08-21T19:38:32Z</time>
      </trkpt>
      <trkpt lat="2.922476" lon="-75.152214">
        <ele>689.2</ele>
        <time>2021-08-21T19:38:33Z</time>
      </trkpt>
      <trkpt lat="2.922463" lon="-75.15221">
        <ele>689.3</ele>
        <time>2021-08-21T19:38:34Z</time>
      </trkpt>
      <trkpt lat="2.922451" lon="-75.1522">
        <ele>689.5</ele>
        <time>2021-08-21T19:38:35Z</time>
      </trkpt>
      <trkpt lat="2.92244" lon="-75.15219">
        <ele>689.7</ele>
        <time>2021-08-21T19:38:36Z</time>
      </trkpt>
      <trkpt lat="2.922429" lon="-75.15218">
        <ele>689.8</ele>
        <time>2021-08-21T19:38:37Z</time>
      </trkpt>
      <trkpt lat="2.922418" lon="-75.152176">
        <ele>689.9</ele>
        <time>2021-08-21T19:38:38Z</time>
      </trkpt>
      <trkpt lat="2.922405" lon="-75.15217">
        <ele>690.1</ele>
        <time>2021-08-21T19:38:39Z</time>
      </trkpt>
      <trkpt lat="2.922393" lon="-75.15216">
        <ele>690.3</ele>
        <time>2021-08-21T19:38:40Z</time>
      </trkpt>
      <trkpt lat="2.922381" lon="-75.15215">
        <ele>690.4</ele>
        <time>2021-08-21T19:38:41Z</time>
      </trkpt>
      <trkpt lat="2.922368" lon="-75.152145">
        <ele>690.6</ele>
        <time>2021-08-21T19:38:42Z</time>
      </trkpt>
      <trkpt lat="2.922354" lon="-75.152145">
        <ele>690.7</ele>
        <time>2021-08-21T19:38:43Z</time>
      </trkpt>
      <trkpt lat="2.922341" lon="-75.15214">
        <ele>690.9</ele>
        <time>2021-08-21T19:38:44Z</time>
      </trkpt>
      <trkpt lat="2.922328" lon="-75.15213">
        <ele>691.1</ele>
        <time>2021-08-21T19:38:45Z</time>
      </trkpt>
      <trkpt lat="2.922316" lon="-75.15212">
        <ele>691.2</ele>
        <time>2021-08-21T19:38:46Z</time>
      </trkpt>
      <trkpt lat="2.922305" lon="-75.152115">
        <ele>691.3</ele>
        <time>2021-08-21T19:38:47Z</time>
      </trkpt>
      <trkpt lat="2.922292" lon="-75.15211">
        <ele>691.5</ele>
        <time>2021-08-21T19:38:48Z</time>
      </trkpt>
      <trkpt lat="2.922268" lon="-75.15211">
        <ele>691.7</ele>
        <time>2021-08-21T19:38:49Z</time>
      </trkpt>
      <trkpt lat="2.922255" lon="-75.15211">
        <ele>691.9</ele>
        <time>2021-08-21T19:38:50Z</time>
      </trkpt>
      <trkpt lat="2.922242" lon="-75.15211">
        <ele>692.0</ele>
        <time>2021-08-21T19:38:51Z</time>
      </trkpt>
      <trkpt lat="2.922229" lon="-75.15211">
        <ele>692.2</ele>
        <time>2021-08-21T19:38:52Z</time>
      </trkpt>
      <trkpt lat="2.922216" lon="-75.15211">
        <ele>692.3</ele>
        <time>2021-08-21T19:38:53Z</time>
      </trkpt>
      <trkpt lat="2.922202" lon="-75.15211">
        <ele>692.4</ele>
        <time>2021-08-21T19:38:54Z</time>
      </trkpt>
      <trkpt lat="2.922189" lon="-75.15211">
        <ele>692.6</ele>
        <time>2021-08-21T19:38:55Z</time>
      </trkpt>
      <trkpt lat="2.922176" lon="-75.15211">
        <ele>692.7</ele>
        <time>2021-08-21T19:38:56Z</time>
      </trkpt>
      <trkpt lat="2.922163" lon="-75.1521">
        <ele>692.8</ele>
        <time>2021-08-21T19:38:57Z</time>
      </trkpt>
      <trkpt lat="2.92215" lon="-75.1521">
        <ele>692.9</ele>
        <time>2021-08-21T19:38:58Z</time>
      </trkpt>
      <trkpt lat="2.922137" lon="-75.1521">
        <ele>693.1</ele>
        <time>2021-08-21T19:38:59Z</time>
      </trkpt>
      <trkpt lat="2.922124" lon="-75.1521">
        <ele>693.2</ele>
        <time>2021-08-21T19:39:00Z</time>
      </trkpt>
      <trkpt lat="2.922111" lon="-75.1521">
        <ele>693.3</ele>
        <time>2021-08-21T19:39:01Z</time>
      </trkpt>
      <trkpt lat="2.922098" lon="-75.1521">
        <ele>693.4</ele>
        <time>2021-08-21T19:39:02Z</time>
      </trkpt>
      <trkpt lat="2.922085" lon="-75.1521">
        <ele>693.5</ele>
        <time>2021-08-21T19:39:03Z</time>
      </trkpt>
      <trkpt lat="2.922071" lon="-75.1521">
        <ele>693.7</ele>
        <time>2021-08-21T19:39:04Z</time>
      </trkpt>
      <trkpt lat="2.922058" lon="-75.1521">
        <ele>693.8</ele>
        <time>2021-08-21T19:39:05Z</time>
      </trkpt>
      <trkpt lat="2.922045" lon="-75.1521">
        <ele>693.9</ele>
        <time>2021-08-21T19:39:06Z</time>
      </trkpt>
      <trkpt lat="2.922019" lon="-75.1521">
        <ele>694.1</ele>
        <time>2021-08-21T19:39:07Z</time>
      </trkpt>
      <trkpt lat="2.922032" lon="-75.1521">
        <ele>694.0</ele>
        <time>2021-08-21T19:39:07Z</time>
      </trkpt>
      <trkpt lat="2.922007" lon="-75.15211">
        <ele>694.3</ele>
        <time>2021-08-21T19:39:08Z</time>
      </trkpt>
      <trkpt lat="2.921993" lon="-75.15211">
        <ele>694.4</ele>
        <time>2021-08-21T19:39:09Z</time>
      </trkpt>
      <trkpt lat="2.92198" lon="-75.152115">
        <ele>694.5</ele>
        <time>2021-08-21T19:39:10Z</time>
      </trkpt>
      <trkpt lat="2.921966" lon="-75.15212">
        <ele>694.7</ele>
        <time>2021-08-21T19:39:11Z</time>
      </trkpt>
      <trkpt lat="2.921914" lon="-75.15214">
        <ele>695.2</ele>
        <time>2021-08-21T19:39:13Z</time>
      </trkpt>
      <trkpt lat="2.92191" lon="-75.15214">
        <ele>695.3</ele>
        <time>2021-08-21T19:39:14Z</time>
      </trkpt>
      <trkpt lat="2.921904" lon="-75.152145">
        <ele>695.3</ele>
        <time>2021-08-21T19:39:15Z</time>
      </trkpt>
      <trkpt lat="2.921895" lon="-75.152145">
        <ele>695.4</ele>
        <time>2021-08-21T19:39:16Z</time>
      </trkpt>
      <trkpt lat="2.921884" lon="-75.15215">
        <ele>695.6</ele>
        <time>2021-08-21T19:39:17Z</time>
      </trkpt>
      <trkpt lat="2.921873" lon="-75.15216">
        <ele>695.7</ele>
        <time>2021-08-21T19:39:18Z</time>
      </trkpt>
      <trkpt lat="2.921861" lon="-75.15217">
        <ele>695.8</ele>
        <time>2021-08-21T19:39:19Z</time>
      </trkpt>
      <trkpt lat="2.921848" lon="-75.152176">
        <ele>695.9</ele>
        <time>2021-08-21T19:39:20Z</time>
      </trkpt>
      <trkpt lat="2.921835" lon="-75.152176">
        <ele>696.1</ele>
        <time>2021-08-21T19:39:21Z</time>
      </trkpt>
      <trkpt lat="2.921822" lon="-75.15218">
        <ele>696.3</ele>
        <time>2021-08-21T19:39:22Z</time>
      </trkpt>
      <trkpt lat="2.921807" lon="-75.1522">
        <ele>696.4</ele>
        <time>2021-08-21T19:39:23Z</time>
      </trkpt>
      <trkpt lat="2.921794" lon="-75.1522">
        <ele>696.6</ele>
        <time>2021-08-21T19:39:24Z</time>
      </trkpt>
      <trkpt lat="2.921782" lon="-75.15221">
        <ele>696.8</ele>
        <time>2021-08-21T19:39:25Z</time>
      </trkpt>
      <trkpt lat="2.921771" lon="-75.15222">
        <ele>696.9</ele>
        <time>2021-08-21T19:39:26Z</time>
      </trkpt>
      <trkpt lat="2.921761" lon="-75.15223">
        <ele>697.0</ele>
        <time>2021-08-21T19:39:27Z</time>
      </trkpt>
      <trkpt lat="2.921749" lon="-75.15224">
        <ele>697.2</ele>
        <time>2021-08-21T19:39:28Z</time>
      </trkpt>
      <trkpt lat="2.921738" lon="-75.152245">
        <ele>697.4</ele>
        <time>2021-08-21T19:39:29Z</time>
      </trkpt>
      <trkpt lat="2.921728" lon="-75.15226">
        <ele>697.6</ele>
        <time>2021-08-21T19:39:30Z</time>
      </trkpt>
      <trkpt lat="2.92172" lon="-75.152275">
        <ele>697.7</ele>
        <time>2021-08-21T19:39:31Z</time>
      </trkpt>
      <trkpt lat="2.921714" lon="-75.15229">
        <ele>697.9</ele>
        <time>2021-08-21T19:39:32Z</time>
      </trkpt>
      <trkpt lat="2.921708" lon="-75.152306">
        <ele>698.1</ele>
        <time>2021-08-21T19:39:33Z</time>
      </trkpt>
      <trkpt lat="2.921703" lon="-75.15232">
        <ele>698.3</ele>
        <time>2021-08-21T19:39:34Z</time>
      </trkpt>
      <trkpt lat="2.921699" lon="-75.152336">
        <ele>698.4</ele>
        <time>2021-08-21T19:39:35Z</time>
      </trkpt>
      <trkpt lat="2.921696" lon="-75.15235">
        <ele>698.6</ele>
        <time>2021-08-21T19:39:36Z</time>
      </trkpt>
      <trkpt lat="2.921695" lon="-75.15237">
        <ele>698.8</ele>
        <time>2021-08-21T19:39:37Z</time>
      </trkpt>
      <trkpt lat="2.921696" lon="-75.152374">
        <ele>698.9</ele>
        <time>2021-08-21T19:39:38Z</time>
      </trkpt>
      <trkpt lat="2.921696" lon="-75.15239">
        <ele>699.1</ele>
        <time>2021-08-21T19:39:39Z</time>
      </trkpt>
      <trkpt lat="2.921696" lon="-75.152405">
        <ele>699.2</ele>
        <time>2021-08-21T19:39:40Z</time>
      </trkpt>
      <trkpt lat="2.921699" lon="-75.15243">
        <ele>699.4</ele>
        <time>2021-08-21T19:39:41Z</time>
      </trkpt>
      <trkpt lat="2.921705" lon="-75.152435">
        <ele>699.6</ele>
        <time>2021-08-21T19:39:42Z</time>
      </trkpt>
      <trkpt lat="2.921711" lon="-75.15245">
        <ele>699.7</ele>
        <time>2021-08-21T19:39:43Z</time>
      </trkpt>
      <trkpt lat="2.921718" lon="-75.15246">
        <ele>699.9</ele>
        <time>2021-08-21T19:39:44Z</time>
      </trkpt>
      <trkpt lat="2.921726" lon="-75.15247">
        <ele>700.0</ele>
        <time>2021-08-21T19:39:45Z</time>
      </trkpt>
      <trkpt lat="2.921734" lon="-75.15248">
        <ele>700.2</ele>
        <time>2021-08-21T19:39:46Z</time>
      </trkpt>
      <trkpt lat="2.921741" lon="-75.1525">
        <ele>700.3</ele>
        <time>2021-08-21T19:39:47Z</time>
      </trkpt>
      <trkpt lat="2.921748" lon="-75.152504">
        <ele>700.5</ele>
        <time>2021-08-21T19:39:48Z</time>
      </trkpt>
      <trkpt lat="2.921756" lon="-75.15252">
        <ele>700.6</ele>
        <time>2021-08-21T19:39:49Z</time>
      </trkpt>
      <trkpt lat="2.921763" lon="-75.152534">
        <ele>700.8</ele>
        <time>2021-08-21T19:39:50Z</time>
      </trkpt>
      <trkpt lat="2.921772" lon="-75.15254">
        <ele>700.9</ele>
        <time>2021-08-21T19:39:51Z</time>
      </trkpt>
      <trkpt lat="2.921783" lon="-75.15255">
        <ele>701.1</ele>
        <time>2021-08-21T19:39:52Z</time>
      </trkpt>
      <trkpt lat="2.921795" lon="-75.15256">
        <ele>701.2</ele>
        <time>2021-08-21T19:39:53Z</time>
      </trkpt>
      <trkpt lat="2.921807" lon="-75.152565">
        <ele>701.4</ele>
        <time>2021-08-21T19:39:54Z</time>
      </trkpt>
      <trkpt lat="2.921819" lon="-75.15257">
        <ele>701.5</ele>
        <time>2021-08-21T19:39:55Z</time>
      </trkpt>
      <trkpt lat="2.921832" lon="-75.15258">
        <ele>701.6</ele>
        <time>2021-08-21T19:39:56Z</time>
      </trkpt>
      <trkpt lat="2.921843" lon="-75.15258">
        <ele>701.8</ele>
        <time>2021-08-21T19:39:57Z</time>
      </trkpt>
      <trkpt lat="2.921857" lon="-75.15258">
        <ele>701.9</ele>
        <time>2021-08-21T19:39:58Z</time>
      </trkpt>
      <trkpt lat="2.921868" lon="-75.15259">
        <ele>702.0</ele>
        <time>2021-08-21T19:39:59Z</time>
      </trkpt>
      <trkpt lat="2.92188" lon="-75.15259">
        <ele>702.1</ele>
        <time>2021-08-21T19:40:00Z</time>
      </trkpt>
      <trkpt lat="2.921892" lon="-75.15259">
        <ele>702.2</ele>
        <time>2021-08-21T19:40:01Z</time>
      </trkpt>
      <trkpt lat="2.921903" lon="-75.15259">
        <ele>702.3</ele>
        <time>2021-08-21T19:40:02Z</time>
      </trkpt>
      <trkpt lat="2.921914" lon="-75.15259">
        <ele>702.4</ele>
        <time>2021-08-21T19:40:03Z</time>
      </trkpt>
      <trkpt lat="2.921927" lon="-75.152596">
        <ele>702.5</ele>
        <time>2021-08-21T19:40:04Z</time>
      </trkpt>
      <trkpt lat="2.921939" lon="-75.152596">
        <ele>702.6</ele>
        <time>2021-08-21T19:40:05Z</time>
      </trkpt>
      <trkpt lat="2.921952" lon="-75.152596">
        <ele>702.8</ele>
        <time>2021-08-21T19:40:06Z</time>
      </trkpt>
      <trkpt lat="2.921963" lon="-75.152596">
        <ele>702.9</ele>
        <time>2021-08-21T19:40:07Z</time>
      </trkpt>
      <trkpt lat="2.921976" lon="-75.152596">
        <ele>703.0</ele>
        <time>2021-08-21T19:40:08Z</time>
      </trkpt>
      <trkpt lat="2.921989" lon="-75.1526">
        <ele>703.1</ele>
        <time>2021-08-21T19:40:09Z</time>
      </trkpt>
      <trkpt lat="2.922004" lon="-75.1526">
        <ele>703.2</ele>
        <time>2021-08-21T19:40:10Z</time>
      </trkpt>
      <trkpt lat="2.922018" lon="-75.1526">
        <ele>703.3</ele>
        <time>2021-08-21T19:40:11Z</time>
      </trkpt>
      <trkpt lat="2.922034" lon="-75.15261">
        <ele>703.5</ele>
        <time>2021-08-21T19:40:12Z</time>
      </trkpt>
      <trkpt lat="2.92205" lon="-75.15261">
        <ele>703.6</ele>
        <time>2021-08-21T19:40:13Z</time>
      </trkpt>
      <trkpt lat="2.922065" lon="-75.15262">
        <ele>703.8</ele>
        <time>2021-08-21T19:40:14Z</time>
      </trkpt>
      <trkpt lat="2.92208" lon="-75.15262">
        <ele>703.9</ele>
        <time>2021-08-21T19:40:15Z</time>
      </trkpt>
      <trkpt lat="2.922095" lon="-75.152626">
        <ele>704.1</ele>
        <time>2021-08-21T19:40:16Z</time>
      </trkpt>
      <trkpt lat="2.922108" lon="-75.15263">
        <ele>704.2</ele>
        <time>2021-08-21T19:40:17Z</time>
      </trkpt>
      <trkpt lat="2.922122" lon="-75.15265">
        <ele>704.3</ele>
        <time>2021-08-21T19:40:18Z</time>
      </trkpt>
      <trkpt lat="2.922135" lon="-75.15266">
        <ele>704.5</ele>
        <time>2021-08-21T19:40:19Z</time>
      </trkpt>
      <trkpt lat="2.922147" lon="-75.15267">
        <ele>704.6</ele>
        <time>2021-08-21T19:40:20Z</time>
      </trkpt>
      <trkpt lat="2.922159" lon="-75.15268">
        <ele>704.7</ele>
        <time>2021-08-21T19:40:21Z</time>
      </trkpt>
      <trkpt lat="2.922171" lon="-75.15269">
        <ele>704.9</ele>
        <time>2021-08-21T19:40:22Z</time>
      </trkpt>
      <trkpt lat="2.922182" lon="-75.1527">
        <ele>705.0</ele>
        <time>2021-08-21T19:40:23Z</time>
      </trkpt>
      <trkpt lat="2.922194" lon="-75.15271">
        <ele>705.1</ele>
        <time>2021-08-21T19:40:24Z</time>
      </trkpt>
      <trkpt lat="2.922205" lon="-75.152725">
        <ele>705.3</ele>
        <time>2021-08-21T19:40:25Z</time>
      </trkpt>
      <trkpt lat="2.922216" lon="-75.15274">
        <ele>705.4</ele>
        <time>2021-08-21T19:40:26Z</time>
      </trkpt>
      <trkpt lat="2.922226" lon="-75.152756">
        <ele>705.5</ele>
        <time>2021-08-21T19:40:27Z</time>
      </trkpt>
      <trkpt lat="2.922236" lon="-75.15276">
        <ele>705.7</ele>
        <time>2021-08-21T19:40:28Z</time>
      </trkpt>
      <trkpt lat="2.922245" lon="-75.15278">
        <ele>705.8</ele>
        <time>2021-08-21T19:40:29Z</time>
      </trkpt>
      <trkpt lat="2.922252" lon="-75.152794">
        <ele>705.9</ele>
        <time>2021-08-21T19:40:30Z</time>
      </trkpt>
      <trkpt lat="2.922258" lon="-75.15281">
        <ele>706.0</ele>
        <time>2021-08-21T19:40:31Z</time>
      </trkpt>
      <trkpt lat="2.922263" lon="-75.152824">
        <ele>706.1</ele>
        <time>2021-08-21T19:40:32Z</time>
      </trkpt>
      <trkpt lat="2.922266" lon="-75.15284">
        <ele>706.2</ele>
        <time>2021-08-21T19:40:33Z</time>
      </trkpt>
      <trkpt lat="2.92227" lon="-75.15286">
        <ele>706.4</ele>
        <time>2021-08-21T19:40:34Z</time>
      </trkpt>
      <trkpt lat="2.922273" lon="-75.15288">
        <ele>706.5</ele>
        <time>2021-08-21T19:40:35Z</time>
      </trkpt>
      <trkpt lat="2.922276" lon="-75.15289">
        <ele>706.6</ele>
        <time>2021-08-21T19:40:36Z</time>
      </trkpt>
      <trkpt lat="2.922277" lon="-75.1529">
        <ele>706.7</ele>
        <time>2021-08-21T19:40:37Z</time>
      </trkpt>
      <trkpt lat="2.922278" lon="-75.152916">
        <ele>706.8</ele>
        <time>2021-08-21T19:40:38Z</time>
      </trkpt>
      <trkpt lat="2.922277" lon="-75.15293">
        <ele>706.9</ele>
        <time>2021-08-21T19:40:39Z</time>
      </trkpt>
      <trkpt lat="2.922275" lon="-75.152954">
        <ele>707.0</ele>
        <time>2021-08-21T19:40:40Z</time>
      </trkpt>
      <trkpt lat="2.922273" lon="-75.15297">
        <ele>707.1</ele>
        <time>2021-08-21T19:40:41Z</time>
      </trkpt>
      <trkpt lat="2.92227" lon="-75.152985">
        <ele>707.2</ele>
        <time>2021-08-21T19:40:42Z</time>
      </trkpt>
      <trkpt lat="2.922267" lon="-75.153">
        <ele>707.3</ele>
        <time>2021-08-21T19:40:43Z</time>
      </trkpt>
      <trkpt lat="2.922263" lon="-75.153015">
        <ele>707.4</ele>
        <time>2021-08-21T19:40:44Z</time>
      </trkpt>
      <trkpt lat="2.92226" lon="-75.15303">
        <ele>707.5</ele>
        <time>2021-08-21T19:40:45Z</time>
      </trkpt>
      <trkpt lat="2.922258" lon="-75.153046">
        <ele>707.6</ele>
        <time>2021-08-21T19:40:46Z</time>
      </trkpt>
      <trkpt lat="2.922256" lon="-75.15306">
        <ele>707.7</ele>
        <time>2021-08-21T19:40:47Z</time>
      </trkpt>
      <trkpt lat="2.922255" lon="-75.153076">
        <ele>707.8</ele>
        <time>2021-08-21T19:40:48Z</time>
      </trkpt>
      <trkpt lat="2.922254" lon="-75.15309">
        <ele>707.9</ele>
        <time>2021-08-21T19:40:49Z</time>
      </trkpt>
      <trkpt lat="2.922253" lon="-75.15311">
        <ele>708.0</ele>
        <time>2021-08-21T19:40:50Z</time>
      </trkpt>
      <trkpt lat="2.922251" lon="-75.15312">
        <ele>708.1</ele>
        <time>2021-08-21T19:40:51Z</time>
      </trkpt>
      <trkpt lat="2.92225" lon="-75.15314">
        <ele>708.2</ele>
        <time>2021-08-21T19:40:52Z</time>
      </trkpt>
      <trkpt lat="2.922249" lon="-75.15315">
        <ele>708.3</ele>
        <time>2021-08-21T19:40:53Z</time>
      </trkpt>
      <trkpt lat="2.922246" lon="-75.153175">
        <ele>708.4</ele>
        <time>2021-08-21T19:40:54Z</time>
      </trkpt>
      <trkpt lat="2.922243" lon="-75.15319">
        <ele>708.5</ele>
        <time>2021-08-21T19:40:55Z</time>
      </trkpt>
      <trkpt lat="2.922241" lon="-75.153206">
        <ele>708.6</ele>
        <time>2021-08-21T19:40:56Z</time>
      </trkpt>
      <trkpt lat="2.922238" lon="-75.15323">
        <ele>708.7</ele>
        <time>2021-08-21T19:40:57Z</time>
      </trkpt>
      <trkpt lat="2.922235" lon="-75.153244">
        <ele>708.8</ele>
        <time>2021-08-21T19:40:58Z</time>
      </trkpt>
      <trkpt lat="2.922231" lon="-75.15327">
        <ele>708.9</ele>
        <time>2021-08-21T19:40:59Z</time>
      </trkpt>
      <trkpt lat="2.922227" lon="-75.15328">
        <ele>709.0</ele>
        <time>2021-08-21T19:41:00Z</time>
      </trkpt>
      <trkpt lat="2.922224" lon="-75.1533">
        <ele>709.1</ele>
        <time>2021-08-21T19:41:01Z</time>
      </trkpt>
      <trkpt lat="2.92222" lon="-75.15332">
        <ele>709.2</ele>
        <time>2021-08-21T19:41:02Z</time>
      </trkpt>
      <trkpt lat="2.922217" lon="-75.15334">
        <ele>709.3</ele>
        <time>2021-08-21T19:41:03Z</time>
      </trkpt>
      <trkpt lat="2.922213" lon="-75.15336">
        <ele>709.4</ele>
        <time>2021-08-21T19:41:04Z</time>
      </trkpt>
      <trkpt lat="2.92221" lon="-75.15337">
        <ele>709.5</ele>
        <time>2021-08-21T19:41:05Z</time>
      </trkpt>
      <trkpt lat="2.922206" lon="-75.1534">
        <ele>709.6</ele>
        <time>2021-08-21T19:41:06Z</time>
      </trkpt>
      <trkpt lat="2.922202" lon="-75.15342">
        <ele>709.7</ele>
        <time>2021-08-21T19:41:07Z</time>
      </trkpt>
      <trkpt lat="2.922199" lon="-75.15344">
        <ele>709.9</ele>
        <time>2021-08-21T19:41:08Z</time>
      </trkpt>
      <trkpt lat="2.922196" lon="-75.15346">
        <ele>710.0</ele>
        <time>2021-08-21T19:41:09Z</time>
      </trkpt>
      <trkpt lat="2.922194" lon="-75.15348">
        <ele>710.1</ele>
        <time>2021-08-21T19:41:10Z</time>
      </trkpt>
      <trkpt lat="2.922189" lon="-75.153496">
        <ele>710.2</ele>
        <time>2021-08-21T19:41:11Z</time>
      </trkpt>
      <trkpt lat="2.922186" lon="-75.15352">
        <ele>710.3</ele>
        <time>2021-08-21T19:41:12Z</time>
      </trkpt>
      <trkpt lat="2.922183" lon="-75.153534">
        <ele>710.5</ele>
        <time>2021-08-21T19:41:13Z</time>
      </trkpt>
      <trkpt lat="2.922182" lon="-75.15356">
        <ele>710.6</ele>
        <time>2021-08-21T19:41:14Z</time>
      </trkpt>
      <trkpt lat="2.922182" lon="-75.15357">
        <ele>710.7</ele>
        <time>2021-08-21T19:41:15Z</time>
      </trkpt>
      <trkpt lat="2.922182" lon="-75.15359">
        <ele>710.9</ele>
        <time>2021-08-21T19:41:16Z</time>
      </trkpt>
      <trkpt lat="2.922181" lon="-75.15361">
        <ele>711.0</ele>
        <time>2021-08-21T19:41:17Z</time>
      </trkpt>
      <trkpt lat="2.922181" lon="-75.153625">
        <ele>711.2</ele>
        <time>2021-08-21T19:41:18Z</time>
      </trkpt>
      <trkpt lat="2.922179" lon="-75.15365">
        <ele>711.3</ele>
        <time>2021-08-21T19:41:19Z</time>
      </trkpt>
      <trkpt lat="2.922177" lon="-75.15366">
        <ele>711.4</ele>
        <time>2021-08-21T19:41:20Z</time>
      </trkpt>
      <trkpt lat="2.922176" lon="-75.15368">
        <ele>711.6</ele>
        <time>2021-08-21T19:41:21Z</time>
      </trkpt>
      <trkpt lat="2.922176" lon="-75.153694">
        <ele>711.7</ele>
        <time>2021-08-21T19:41:22Z</time>
      </trkpt>
      <trkpt lat="2.922176" lon="-75.15371">
        <ele>711.8</ele>
        <time>2021-08-21T19:41:23Z</time>
      </trkpt>
      <trkpt lat="2.922177" lon="-75.15373">
        <ele>712.0</ele>
        <time>2021-08-21T19:41:24Z</time>
      </trkpt>
      <trkpt lat="2.922179" lon="-75.15375">
        <ele>712.1</ele>
        <time>2021-08-21T19:41:25Z</time>
      </trkpt>
      <trkpt lat="2.922181" lon="-75.15376">
        <ele>712.2</ele>
        <time>2021-08-21T19:41:26Z</time>
      </trkpt>
      <trkpt lat="2.922183" lon="-75.153786">
        <ele>712.4</ele>
        <time>2021-08-21T19:41:27Z</time>
      </trkpt>
      <trkpt lat="2.922183" lon="-75.1538">
        <ele>712.5</ele>
        <time>2021-08-21T19:41:28Z</time>
      </trkpt>
      <trkpt lat="2.922186" lon="-75.15382">
        <ele>712.7</ele>
        <time>2021-08-21T19:41:29Z</time>
      </trkpt>
      <trkpt lat="2.92219" lon="-75.15383">
        <ele>712.8</ele>
        <time>2021-08-21T19:41:30Z</time>
      </trkpt>
      <trkpt lat="2.922196" lon="-75.15385">
        <ele>712.9</ele>
        <time>2021-08-21T19:41:31Z</time>
      </trkpt>
      <trkpt lat="2.922203" lon="-75.153854">
        <ele>713.0</ele>
        <time>2021-08-21T19:41:32Z</time>
      </trkpt>
      <trkpt lat="2.922211" lon="-75.15387">
        <ele>713.1</ele>
        <time>2021-08-21T19:41:33Z</time>
      </trkpt>
      <trkpt lat="2.922219" lon="-75.153885">
        <ele>713.2</ele>
        <time>2021-08-21T19:41:34Z</time>
      </trkpt>
      <trkpt lat="2.922227" lon="-75.1539">
        <ele>713.4</ele>
        <time>2021-08-21T19:41:35Z</time>
      </trkpt>
      <trkpt lat="2.922236" lon="-75.153915">
        <ele>713.5</ele>
        <time>2021-08-21T19:41:36Z</time>
      </trkpt>
      <trkpt lat="2.922244" lon="-75.15393">
        <ele>713.7</ele>
        <time>2021-08-21T19:41:37Z</time>
      </trkpt>
      <trkpt lat="2.922251" lon="-75.153946">
        <ele>713.8</ele>
        <time>2021-08-21T19:41:38Z</time>
      </trkpt>
      <trkpt lat="2.922259" lon="-75.15395">
        <ele>713.9</ele>
        <time>2021-08-21T19:41:39Z</time>
      </trkpt>
      <trkpt lat="2.922268" lon="-75.15397">
        <ele>714.0</ele>
        <time>2021-08-21T19:41:40Z</time>
      </trkpt>
      <trkpt lat="2.922278" lon="-75.15398">
        <ele>714.1</ele>
        <time>2021-08-21T19:41:41Z</time>
      </trkpt>
      <trkpt lat="2.922288" lon="-75.153984">
        <ele>714.2</ele>
        <time>2021-08-21T19:41:42Z</time>
      </trkpt>
      <trkpt lat="2.922298" lon="-75.154">
        <ele>714.3</ele>
        <time>2021-08-21T19:41:43Z</time>
      </trkpt>
      <trkpt lat="2.922308" lon="-75.154015">
        <ele>714.4</ele>
        <time>2021-08-21T19:41:44Z</time>
      </trkpt>
      <trkpt lat="2.922317" lon="-75.15403">
        <ele>714.6</ele>
        <time>2021-08-21T19:41:45Z</time>
      </trkpt>
      <trkpt lat="2.922325" lon="-75.154045">
        <ele>714.7</ele>
        <time>2021-08-21T19:41:46Z</time>
      </trkpt>
      <trkpt lat="2.922333" lon="-75.15406">
        <ele>714.8</ele>
        <time>2021-08-21T19:41:47Z</time>
      </trkpt>
      <trkpt lat="2.92234" lon="-75.154076">
        <ele>714.9</ele>
        <time>2021-08-21T19:41:48Z</time>
      </trkpt>
      <trkpt lat="2.922347" lon="-75.15409">
        <ele>715.0</ele>
        <time>2021-08-21T19:41:49Z</time>
      </trkpt>
      <trkpt lat="2.922354" lon="-75.154106">
        <ele>715.1</ele>
        <time>2021-08-21T19:41:50Z</time>
      </trkpt>
      <trkpt lat="2.922361" lon="-75.15412">
        <ele>715.2</ele>
        <time>2021-08-21T19:41:51Z</time>
      </trkpt>
      <trkpt lat="2.922366" lon="-75.15414">
        <ele>715.3</ele>
        <time>2021-08-21T19:41:52Z</time>
      </trkpt>
      <trkpt lat="2.922372" lon="-75.15416">
        <ele>715.4</ele>
        <time>2021-08-21T19:41:53Z</time>
      </trkpt>
      <trkpt lat="2.922377" lon="-75.154175">
        <ele>715.5</ele>
        <time>2021-08-21T19:41:54Z</time>
      </trkpt>
      <trkpt lat="2.922381" lon="-75.1542">
        <ele>715.6</ele>
        <time>2021-08-21T19:41:55Z</time>
      </trkpt>
      <trkpt lat="2.922383" lon="-75.15422">
        <ele>715.7</ele>
        <time>2021-08-21T19:41:56Z</time>
      </trkpt>
      <trkpt lat="2.922384" lon="-75.154236">
        <ele>715.8</ele>
        <time>2021-08-21T19:41:57Z</time>
      </trkpt>
      <trkpt lat="2.922385" lon="-75.15426">
        <ele>715.9</ele>
        <time>2021-08-21T19:41:58Z</time>
      </trkpt>
      <trkpt lat="2.922386" lon="-75.15428">
        <ele>716.0</ele>
        <time>2021-08-21T19:41:59Z</time>
      </trkpt>
      <trkpt lat="2.922385" lon="-75.154305">
        <ele>716.1</ele>
        <time>2021-08-21T19:42:00Z</time>
      </trkpt>
      <trkpt lat="2.922384" lon="-75.15433">
        <ele>716.3</ele>
        <time>2021-08-21T19:42:01Z</time>
      </trkpt>
      <trkpt lat="2.922382" lon="-75.15435">
        <ele>716.4</ele>
        <time>2021-08-21T19:42:02Z</time>
      </trkpt>
      <trkpt lat="2.922379" lon="-75.15437">
        <ele>716.5</ele>
        <time>2021-08-21T19:42:03Z</time>
      </trkpt>
      <trkpt lat="2.922375" lon="-75.15439">
        <ele>716.6</ele>
        <time>2021-08-21T19:42:04Z</time>
      </trkpt>
      <trkpt lat="2.922371" lon="-75.15441">
        <ele>716.7</ele>
        <time>2021-08-21T19:42:05Z</time>
      </trkpt>
      <trkpt lat="2.922368" lon="-75.154434">
        <ele>716.8</ele>
        <time>2021-08-21T19:42:06Z</time>
      </trkpt>
      <trkpt lat="2.922364" lon="-75.15445">
        <ele>716.9</ele>
        <time>2021-08-21T19:42:07Z</time>
      </trkpt>
      <trkpt lat="2.92236" lon="-75.15447">
        <ele>717.0</ele>
        <time>2021-08-21T19:42:08Z</time>
      </trkpt>
      <trkpt lat="2.922355" lon="-75.15449">
        <ele>717.1</ele>
        <time>2021-08-21T19:42:09Z</time>
      </trkpt>
      <trkpt lat="2.92235" lon="-75.15451">
        <ele>717.2</ele>
        <time>2021-08-21T19:42:10Z</time>
      </trkpt>
      <trkpt lat="2.922343" lon="-75.154526">
        <ele>717.3</ele>
        <time>2021-08-21T19:42:11Z</time>
      </trkpt>
      <trkpt lat="2.922336" lon="-75.15455">
        <ele>717.4</ele>
        <time>2021-08-21T19:42:12Z</time>
      </trkpt>
      <trkpt lat="2.922329" lon="-75.154564">
        <ele>717.6</ele>
        <time>2021-08-21T19:42:13Z</time>
      </trkpt>
      <trkpt lat="2.922321" lon="-75.15459">
        <ele>717.7</ele>
        <time>2021-08-21T19:42:14Z</time>
      </trkpt>
      <trkpt lat="2.922314" lon="-75.15461">
        <ele>717.8</ele>
        <time>2021-08-21T19:42:15Z</time>
      </trkpt>
      <trkpt lat="2.922309" lon="-75.154625">
        <ele>717.9</ele>
        <time>2021-08-21T19:42:16Z</time>
      </trkpt>
      <trkpt lat="2.922304" lon="-75.15464">
        <ele>718.0</ele>
        <time>2021-08-21T19:42:17Z</time>
      </trkpt>
      <trkpt lat="2.922299" lon="-75.15466">
        <ele>718.1</ele>
        <time>2021-08-21T19:42:18Z</time>
      </trkpt>
      <trkpt lat="2.922293" lon="-75.154686">
        <ele>718.3</ele>
        <time>2021-08-21T19:42:20Z</time>
      </trkpt>
      <trkpt lat="2.922285" lon="-75.15471">
        <ele>718.4</ele>
        <time>2021-08-21T19:42:21Z</time>
      </trkpt>
      <trkpt lat="2.922279" lon="-75.15473">
        <ele>718.6</ele>
        <time>2021-08-21T19:42:22Z</time>
      </trkpt>
      <trkpt lat="2.922274" lon="-75.154755">
        <ele>718.8</ele>
        <time>2021-08-21T19:42:23Z</time>
      </trkpt>
      <trkpt lat="2.922269" lon="-75.15478">
        <ele>718.9</ele>
        <time>2021-08-21T19:42:24Z</time>
      </trkpt>
      <trkpt lat="2.922265" lon="-75.15479">
        <ele>719.0</ele>
        <time>2021-08-21T19:42:25Z</time>
      </trkpt>
      <trkpt lat="2.922262" lon="-75.154816">
        <ele>719.2</ele>
        <time>2021-08-21T19:42:26Z</time>
      </trkpt>
      <trkpt lat="2.92226" lon="-75.15484">
        <ele>719.3</ele>
        <time>2021-08-21T19:42:27Z</time>
      </trkpt>
      <trkpt lat="2.922257" lon="-75.154854">
        <ele>719.5</ele>
        <time>2021-08-21T19:42:28Z</time>
      </trkpt>
      <trkpt lat="2.922255" lon="-75.15488">
        <ele>719.6</ele>
        <time>2021-08-21T19:42:29Z</time>
      </trkpt>
      <trkpt lat="2.922254" lon="-75.15489">
        <ele>719.7</ele>
        <time>2021-08-21T19:42:30Z</time>
      </trkpt>
      <trkpt lat="2.922252" lon="-75.154915">
        <ele>719.9</ele>
        <time>2021-08-21T19:42:31Z</time>
      </trkpt>
      <trkpt lat="2.92225" lon="-75.15494">
        <ele>720.0</ele>
        <time>2021-08-21T19:42:32Z</time>
      </trkpt>
      <trkpt lat="2.922247" lon="-75.15496">
        <ele>720.1</ele>
        <time>2021-08-21T19:42:33Z</time>
      </trkpt>
      <trkpt lat="2.922244" lon="-75.154976">
        <ele>720.2</ele>
        <time>2021-08-21T19:42:34Z</time>
      </trkpt>
      <trkpt lat="2.922242" lon="-75.155">
        <ele>720.4</ele>
        <time>2021-08-21T19:42:35Z</time>
      </trkpt>
      <trkpt lat="2.922242" lon="-75.155014">
        <ele>720.5</ele>
        <time>2021-08-21T19:42:36Z</time>
      </trkpt>
      <trkpt lat="2.922241" lon="-75.15504">
        <ele>720.6</ele>
        <time>2021-08-21T19:42:37Z</time>
      </trkpt>
      <trkpt lat="2.922241" lon="-75.15506">
        <ele>720.7</ele>
        <time>2021-08-21T19:42:38Z</time>
      </trkpt>
      <trkpt lat="2.92224" lon="-75.15508">
        <ele>720.8</ele>
        <time>2021-08-21T19:42:39Z</time>
      </trkpt>
      <trkpt lat="2.922239" lon="-75.155106">
        <ele>721.0</ele>
        <time>2021-08-21T19:42:40Z</time>
      </trkpt>
      <trkpt lat="2.922238" lon="-75.15512">
        <ele>721.1</ele>
        <time>2021-08-21T19:42:41Z</time>
      </trkpt>
      <trkpt lat="2.922238" lon="-75.15514">
        <ele>721.2</ele>
        <time>2021-08-21T19:42:42Z</time>
      </trkpt>
      <trkpt lat="2.922238" lon="-75.15517">
        <ele>721.3</ele>
        <time>2021-08-21T19:42:43Z</time>
      </trkpt>
      <trkpt lat="2.922238" lon="-75.15519">
        <ele>721.4</ele>
        <time>2021-08-21T19:42:44Z</time>
      </trkpt>
      <trkpt lat="2.922239" lon="-75.15521">
        <ele>721.5</ele>
        <time>2021-08-21T19:42:45Z</time>
      </trkpt>
      <trkpt lat="2.922239" lon="-75.15523">
        <ele>721.7</ele>
        <time>2021-08-21T19:42:46Z</time>
      </trkpt>
      <trkpt lat="2.922242" lon="-75.15525">
        <ele>721.8</ele>
        <time>2021-08-21T19:42:47Z</time>
      </trkpt>
      <trkpt lat="2.922244" lon="-75.15527">
        <ele>721.9</ele>
        <time>2021-08-21T19:42:48Z</time>
      </trkpt>
      <trkpt lat="2.922248" lon="-75.1553">
        <ele>722.0</ele>
        <time>2021-08-21T19:42:49Z</time>
      </trkpt>
      <trkpt lat="2.922253" lon="-75.15532">
        <ele>722.1</ele>
        <time>2021-08-21T19:42:50Z</time>
      </trkpt>
      <trkpt lat="2.922258" lon="-75.15534">
        <ele>722.2</ele>
        <time>2021-08-21T19:42:51Z</time>
      </trkpt>
      <trkpt lat="2.922263" lon="-75.155365">
        <ele>722.3</ele>
        <time>2021-08-21T19:42:52Z</time>
      </trkpt>
      <trkpt lat="2.922268" lon="-75.15538">
        <ele>722.4</ele>
        <time>2021-08-21T19:42:53Z</time>
      </trkpt>
      <trkpt lat="2.922274" lon="-75.1554">
        <ele>722.6</ele>
        <time>2021-08-21T19:42:54Z</time>
      </trkpt>
      <trkpt lat="2.922282" lon="-75.155426">
        <ele>722.7</ele>
        <time>2021-08-21T19:42:55Z</time>
      </trkpt>
      <trkpt lat="2.922291" lon="-75.15545">
        <ele>722.8</ele>
        <time>2021-08-21T19:42:56Z</time>
      </trkpt>
      <trkpt lat="2.9223" lon="-75.155464">
        <ele>722.9</ele>
        <time>2021-08-21T19:42:57Z</time>
      </trkpt>
      <trkpt lat="2.92231" lon="-75.15549">
        <ele>723.0</ele>
        <time>2021-08-21T19:42:58Z</time>
      </trkpt>
      <trkpt lat="2.92232" lon="-75.15551">
        <ele>723.1</ele>
        <time>2021-08-21T19:42:59Z</time>
      </trkpt>
      <trkpt lat="2.92233" lon="-75.155525">
        <ele>723.2</ele>
        <time>2021-08-21T19:43:00Z</time>
      </trkpt>
      <trkpt lat="2.92234" lon="-75.15555">
        <ele>723.3</ele>
        <time>2021-08-21T19:43:01Z</time>
      </trkpt>
      <trkpt lat="2.92235" lon="-75.15557">
        <ele>723.4</ele>
        <time>2021-08-21T19:43:02Z</time>
      </trkpt>
      <trkpt lat="2.92236" lon="-75.15559">
        <ele>723.6</ele>
        <time>2021-08-21T19:43:03Z</time>
      </trkpt>
      <trkpt lat="2.922371" lon="-75.15561">
        <ele>723.7</ele>
        <time>2021-08-21T19:43:04Z</time>
      </trkpt>
      <trkpt lat="2.922381" lon="-75.155624">
        <ele>723.8</ele>
        <time>2021-08-21T19:43:05Z</time>
      </trkpt>
      <trkpt lat="2.922391" lon="-75.15565">
        <ele>723.9</ele>
        <time>2021-08-21T19:43:06Z</time>
      </trkpt>
      <trkpt lat="2.922402" lon="-75.15566">
        <ele>724.0</ele>
        <time>2021-08-21T19:43:07Z</time>
      </trkpt>
      <trkpt lat="2.922412" lon="-75.155685">
        <ele>724.1</ele>
        <time>2021-08-21T19:43:08Z</time>
      </trkpt>
      <trkpt lat="2.922422" lon="-75.1557">
        <ele>724.2</ele>
        <time>2021-08-21T19:43:09Z</time>
      </trkpt>
      <trkpt lat="2.922432" lon="-75.155716">
        <ele>724.3</ele>
        <time>2021-08-21T19:43:10Z</time>
      </trkpt>
      <trkpt lat="2.922442" lon="-75.15573">
        <ele>724.4</ele>
        <time>2021-08-21T19:43:11Z</time>
      </trkpt>
      <trkpt lat="2.922452" lon="-75.155754">
        <ele>724.5</ele>
        <time>2021-08-21T19:43:12Z</time>
      </trkpt>
      <trkpt lat="2.922462" lon="-75.15577">
        <ele>724.6</ele>
        <time>2021-08-21T19:43:13Z</time>
      </trkpt>
      <trkpt lat="2.922474" lon="-75.155785">
        <ele>724.7</ele>
        <time>2021-08-21T19:43:14Z</time>
      </trkpt>
      <trkpt lat="2.922486" lon="-75.1558">
        <ele>724.8</ele>
        <time>2021-08-21T19:43:15Z</time>
      </trkpt>
      <trkpt lat="2.922498" lon="-75.15582">
        <ele>724.9</ele>
        <time>2021-08-21T19:43:16Z</time>
      </trkpt>
      <trkpt lat="2.922509" lon="-75.15584">
        <ele>725.0</ele>
        <time>2021-08-21T19:43:17Z</time>
      </trkpt>
      <trkpt lat="2.922521" lon="-75.15585">
        <ele>725.0</ele>
        <time>2021-08-21T19:43:18Z</time>
      </trkpt>
      <trkpt lat="2.922531" lon="-75.155876">
        <ele>725.1</ele>
        <time>2021-08-21T19:43:19Z</time>
      </trkpt>
      <trkpt lat="2.92254" lon="-75.15589">
        <ele>725.2</ele>
        <time>2021-08-21T19:43:20Z</time>
      </trkpt>
      <trkpt lat="2.922551" lon="-75.155914">
        <ele>725.2</ele>
        <time>2021-08-21T19:43:21Z</time>
      </trkpt>
      <trkpt lat="2.92256" lon="-75.15593">
        <ele>725.3</ele>
        <time>2021-08-21T19:43:22Z</time>
      </trkpt>
      <trkpt lat="2.922569" lon="-75.15595">
        <ele>725.4</ele>
        <time>2021-08-21T19:43:22Z</time>
      </trkpt>
      <trkpt lat="2.922577" lon="-75.155975">
        <ele>725.4</ele>
        <time>2021-08-21T19:43:23Z</time>
      </trkpt>
      <trkpt lat="2.922583" lon="-75.156">
        <ele>725.4</ele>
        <time>2021-08-21T19:43:24Z</time>
      </trkpt>
      <trkpt lat="2.922589" lon="-75.15601">
        <ele>725.5</ele>
        <time>2021-08-21T19:43:25Z</time>
      </trkpt>
      <trkpt lat="2.922596" lon="-75.15604">
        <ele>725.5</ele>
        <time>2021-08-21T19:43:26Z</time>
      </trkpt>
      <trkpt lat="2.922603" lon="-75.15606">
        <ele>725.5</ele>
        <time>2021-08-21T19:43:27Z</time>
      </trkpt>
      <trkpt lat="2.922609" lon="-75.156075">
        <ele>725.5</ele>
        <time>2021-08-21T19:43:28Z</time>
      </trkpt>
      <trkpt lat="2.922614" lon="-75.1561">
        <ele>725.5</ele>
        <time>2021-08-21T19:43:29Z</time>
      </trkpt>
      <trkpt lat="2.922616" lon="-75.15612">
        <ele>725.5</ele>
        <time>2021-08-21T19:43:30Z</time>
      </trkpt>
      <trkpt lat="2.922618" lon="-75.15614">
        <ele>725.5</ele>
        <time>2021-08-21T19:43:31Z</time>
      </trkpt>
      <trkpt lat="2.92262" lon="-75.156166">
        <ele>725.5</ele>
        <time>2021-08-21T19:43:32Z</time>
      </trkpt>
      <trkpt lat="2.922623" lon="-75.15619">
        <ele>725.5</ele>
        <time>2021-08-21T19:43:34Z</time>
      </trkpt>
      <trkpt lat="2.922628" lon="-75.15622">
        <ele>725.4</ele>
        <time>2021-08-21T19:43:35Z</time>
      </trkpt>
      <trkpt lat="2.922633" lon="-75.15625">
        <ele>725.4</ele>
        <time>2021-08-21T19:43:36Z</time>
      </trkpt>
      <trkpt lat="2.922638" lon="-75.15628">
        <ele>725.3</ele>
        <time>2021-08-21T19:43:37Z</time>
      </trkpt>
      <trkpt lat="2.922642" lon="-75.15631">
        <ele>725.3</ele>
        <time>2021-08-21T19:43:38Z</time>
      </trkpt>
      <trkpt lat="2.922646" lon="-75.15634">
        <ele>725.2</ele>
        <time>2021-08-21T19:43:39Z</time>
      </trkpt>
      <trkpt lat="2.922648" lon="-75.15637">
        <ele>725.1</ele>
        <time>2021-08-21T19:43:40Z</time>
      </trkpt>
      <trkpt lat="2.92265" lon="-75.1564">
        <ele>725.0</ele>
        <time>2021-08-21T19:43:41Z</time>
      </trkpt>
      <trkpt lat="2.922652" lon="-75.15643">
        <ele>724.9</ele>
        <time>2021-08-21T19:43:42Z</time>
      </trkpt>
      <trkpt lat="2.922653" lon="-75.15647">
        <ele>724.8</ele>
        <time>2021-08-21T19:43:43Z</time>
      </trkpt>
      <trkpt lat="2.922654" lon="-75.15651">
        <ele>724.7</ele>
        <time>2021-08-21T19:43:44Z</time>
      </trkpt>
      <trkpt lat="2.922654" lon="-75.15654">
        <ele>724.6</ele>
        <time>2021-08-21T19:43:45Z</time>
      </trkpt>
      <trkpt lat="2.922654" lon="-75.15658">
        <ele>724.5</ele>
        <time>2021-08-21T19:43:46Z</time>
      </trkpt>
      <trkpt lat="2.922653" lon="-75.15662">
        <ele>724.3</ele>
        <time>2021-08-21T19:43:47Z</time>
      </trkpt>
      <trkpt lat="2.922652" lon="-75.156654">
        <ele>724.2</ele>
        <time>2021-08-21T19:43:48Z</time>
      </trkpt>
      <trkpt lat="2.922649" lon="-75.1567">
        <ele>724.0</ele>
        <time>2021-08-21T19:43:49Z</time>
      </trkpt>
      <trkpt lat="2.922648" lon="-75.15674">
        <ele>723.8</ele>
        <time>2021-08-21T19:43:50Z</time>
      </trkpt>
      <trkpt lat="2.922644" lon="-75.156784">
        <ele>723.6</ele>
        <time>2021-08-21T19:43:51Z</time>
      </trkpt>
      <trkpt lat="2.922639" lon="-75.15683">
        <ele>723.5</ele>
        <time>2021-08-21T19:43:52Z</time>
      </trkpt>
      <trkpt lat="2.922632" lon="-75.156876">
        <ele>723.3</ele>
        <time>2021-08-21T19:43:53Z</time>
      </trkpt>
      <trkpt lat="2.922622" lon="-75.15692">
        <ele>723.1</ele>
        <time>2021-08-21T19:43:54Z</time>
      </trkpt>
      <trkpt lat="2.922611" lon="-75.156975">
        <ele>722.8</ele>
        <time>2021-08-21T19:43:55Z</time>
      </trkpt>
      <trkpt lat="2.922598" lon="-75.15703">
        <ele>722.5</ele>
        <time>2021-08-21T19:43:56Z</time>
      </trkpt>
      <trkpt lat="2.922583" lon="-75.15708">
        <ele>722.2</ele>
        <time>2021-08-21T19:43:57Z</time>
      </trkpt>
      <trkpt lat="2.922568" lon="-75.15713">
        <ele>721.9</ele>
        <time>2021-08-21T19:43:58Z</time>
      </trkpt>
      <trkpt lat="2.922551" lon="-75.15718">
        <ele>721.6</ele>
        <time>2021-08-21T19:43:59Z</time>
      </trkpt>
      <trkpt lat="2.922527" lon="-75.157234">
        <ele>721.2</ele>
        <time>2021-08-21T19:44:00Z</time>
      </trkpt>
      <trkpt lat="2.9225" lon="-75.15729">
        <ele>720.9</ele>
        <time>2021-08-21T19:44:01Z</time>
      </trkpt>
      <trkpt lat="2.922468" lon="-75.15734">
        <ele>720.6</ele>
        <time>2021-08-21T19:44:02Z</time>
      </trkpt>
      <trkpt lat="2.922433" lon="-75.157394">
        <ele>720.3</ele>
        <time>2021-08-21T19:44:03Z</time>
      </trkpt>
      <trkpt lat="2.922398" lon="-75.15744">
        <ele>720.1</ele>
        <time>2021-08-21T19:44:04Z</time>
      </trkpt>
      <trkpt lat="2.922365" lon="-75.15749">
        <ele>719.8</ele>
        <time>2021-08-21T19:44:05Z</time>
      </trkpt>
      <trkpt lat="2.922335" lon="-75.157555">
        <ele>719.6</ele>
        <time>2021-08-21T19:44:06Z</time>
      </trkpt>
      <trkpt lat="2.922307" lon="-75.15761">
        <ele>719.3</ele>
        <time>2021-08-21T19:44:07Z</time>
      </trkpt>
      <trkpt lat="2.922283" lon="-75.15767">
        <ele>719.0</ele>
        <time>2021-08-21T19:44:08Z</time>
      </trkpt>
      <trkpt lat="2.922263" lon="-75.15772">
        <ele>718.8</ele>
        <time>2021-08-21T19:44:09Z</time>
      </trkpt>
      <trkpt lat="2.922249" lon="-75.15778">
        <ele>718.5</ele>
        <time>2021-08-21T19:44:10Z</time>
      </trkpt>
      <trkpt lat="2.922241" lon="-75.15784">
        <ele>718.3</ele>
        <time>2021-08-21T19:44:11Z</time>
      </trkpt>
      <trkpt lat="2.922238" lon="-75.15789">
        <ele>718.0</ele>
        <time>2021-08-21T19:44:12Z</time>
      </trkpt>
      <trkpt lat="2.92224" lon="-75.15795">
        <ele>717.7</ele>
        <time>2021-08-21T19:44:13Z</time>
      </trkpt>
      <trkpt lat="2.922246" lon="-75.158005">
        <ele>717.5</ele>
        <time>2021-08-21T19:44:14Z</time>
      </trkpt>
      <trkpt lat="2.922256" lon="-75.15805">
        <ele>717.2</ele>
        <time>2021-08-21T19:44:15Z</time>
      </trkpt>
      <trkpt lat="2.922269" lon="-75.158104">
        <ele>716.9</ele>
        <time>2021-08-21T19:44:16Z</time>
      </trkpt>
      <trkpt lat="2.922285" lon="-75.15816">
        <ele>716.6</ele>
        <time>2021-08-21T19:44:17Z</time>
      </trkpt>
      <trkpt lat="2.922303" lon="-75.15821">
        <ele>716.4</ele>
        <time>2021-08-21T19:44:18Z</time>
      </trkpt>
      <trkpt lat="2.922322" lon="-75.158264">
        <ele>716.1</ele>
        <time>2021-08-21T19:44:19Z</time>
      </trkpt>
      <trkpt lat="2.922342" lon="-75.15833">
        <ele>715.8</ele>
        <time>2021-08-21T19:44:20Z</time>
      </trkpt>
      <trkpt lat="2.922359" lon="-75.15839">
        <ele>715.5</ele>
        <time>2021-08-21T19:44:21Z</time>
      </trkpt>
      <trkpt lat="2.922374" lon="-75.15845">
        <ele>715.3</ele>
        <time>2021-08-21T19:44:22Z</time>
      </trkpt>
      <trkpt lat="2.922386" lon="-75.15851">
        <ele>715.1</ele>
        <time>2021-08-21T19:44:23Z</time>
      </trkpt>
      <trkpt lat="2.922392" lon="-75.15856">
        <ele>715.0</ele>
        <time>2021-08-21T19:44:24Z</time>
      </trkpt>
      <trkpt lat="2.922389" lon="-75.158615">
        <ele>714.9</ele>
        <time>2021-08-21T19:44:25Z</time>
      </trkpt>
      <trkpt lat="2.922379" lon="-75.15866">
        <ele>714.8</ele>
        <time>2021-08-21T19:44:26Z</time>
      </trkpt>
      <trkpt lat="2.922365" lon="-75.15871">
        <ele>714.7</ele>
        <time>2021-08-21T19:44:27Z</time>
      </trkpt>
      <trkpt lat="2.922346" lon="-75.158745">
        <ele>714.6</ele>
        <time>2021-08-21T19:44:28Z</time>
      </trkpt>
      <trkpt lat="2.922318" lon="-75.15879">
        <ele>714.5</ele>
        <time>2021-08-21T19:44:29Z</time>
      </trkpt>
      <trkpt lat="2.922286" lon="-75.15882">
        <ele>714.5</ele>
        <time>2021-08-21T19:44:30Z</time>
      </trkpt>
      <trkpt lat="2.922251" lon="-75.15885">
        <ele>714.4</ele>
        <time>2021-08-21T19:44:31Z</time>
      </trkpt>
      <trkpt lat="2.922212" lon="-75.158875">
        <ele>714.3</ele>
        <time>2021-08-21T19:44:32Z</time>
      </trkpt>
      <trkpt lat="2.922174" lon="-75.1589">
        <ele>714.3</ele>
        <time>2021-08-21T19:44:33Z</time>
      </trkpt>
      <trkpt lat="2.92213" lon="-75.15891">
        <ele>714.2</ele>
        <time>2021-08-21T19:44:34Z</time>
      </trkpt>
      <trkpt lat="2.922086" lon="-75.15893">
        <ele>714.2</ele>
        <time>2021-08-21T19:44:35Z</time>
      </trkpt>
      <trkpt lat="2.922043" lon="-75.158936">
        <ele>714.1</ele>
        <time>2021-08-21T19:44:36Z</time>
      </trkpt>
      <trkpt lat="2.922001" lon="-75.15895">
        <ele>714.1</ele>
        <time>2021-08-21T19:44:37Z</time>
      </trkpt>
      <trkpt lat="2.921962" lon="-75.15896">
        <ele>714.1</ele>
        <time>2021-08-21T19:44:38Z</time>
      </trkpt>
      <trkpt lat="2.92192" lon="-75.15897">
        <ele>714.0</ele>
        <time>2021-08-21T19:44:39Z</time>
      </trkpt>
      <trkpt lat="2.921879" lon="-75.15899">
        <ele>714.0</ele>
        <time>2021-08-21T19:44:40Z</time>
      </trkpt>
      <trkpt lat="2.92184" lon="-75.159004">
        <ele>714.0</ele>
        <time>2021-08-21T19:44:41Z</time>
      </trkpt>
      <trkpt lat="2.921803" lon="-75.15903">
        <ele>714.0</ele>
        <time>2021-08-21T19:44:42Z</time>
      </trkpt>
      <trkpt lat="2.921769" lon="-75.15904">
        <ele>714.0</ele>
        <time>2021-08-21T19:44:43Z</time>
      </trkpt>
      <trkpt lat="2.921733" lon="-75.15907">
        <ele>714.0</ele>
        <time>2021-08-21T19:44:44Z</time>
      </trkpt>
      <trkpt lat="2.921699" lon="-75.159096">
        <ele>714.0</ele>
        <time>2021-08-21T19:44:45Z</time>
      </trkpt>
      <trkpt lat="2.921666" lon="-75.15912">
        <ele>714.0</ele>
        <time>2021-08-21T19:44:46Z</time>
      </trkpt>
      <trkpt lat="2.921634" lon="-75.15915">
        <ele>713.9</ele>
        <time>2021-08-21T19:44:47Z</time>
      </trkpt>
      <trkpt lat="2.921606" lon="-75.15918">
        <ele>713.9</ele>
        <time>2021-08-21T19:44:48Z</time>
      </trkpt>
      <trkpt lat="2.92158" lon="-75.15921">
        <ele>713.8</ele>
        <time>2021-08-21T19:44:49Z</time>
      </trkpt>
      <trkpt lat="2.921555" lon="-75.15924">
        <ele>713.7</ele>
        <time>2021-08-21T19:44:50Z</time>
      </trkpt>
      <trkpt lat="2.921532" lon="-75.15927">
        <ele>713.6</ele>
        <time>2021-08-21T19:44:51Z</time>
      </trkpt>
      <trkpt lat="2.921508" lon="-75.15931">
        <ele>713.5</ele>
        <time>2021-08-21T19:44:52Z</time>
      </trkpt>
      <trkpt lat="2.921485" lon="-75.15935">
        <ele>713.4</ele>
        <time>2021-08-21T19:44:53Z</time>
      </trkpt>
      <trkpt lat="2.92146" lon="-75.15938">
        <ele>713.2</ele>
        <time>2021-08-21T19:44:54Z</time>
      </trkpt>
      <trkpt lat="2.921435" lon="-75.15942">
        <ele>713.1</ele>
        <time>2021-08-21T19:44:55Z</time>
      </trkpt>
      <trkpt lat="2.92141" lon="-75.159454">
        <ele>712.9</ele>
        <time>2021-08-21T19:44:56Z</time>
      </trkpt>
      <trkpt lat="2.921386" lon="-75.159485">
        <ele>712.7</ele>
        <time>2021-08-21T19:44:57Z</time>
      </trkpt>
      <trkpt lat="2.921362" lon="-75.15952">
        <ele>712.6</ele>
        <time>2021-08-21T19:44:58Z</time>
      </trkpt>
      <trkpt lat="2.921338" lon="-75.15956">
        <ele>712.4</ele>
        <time>2021-08-21T19:44:59Z</time>
      </trkpt>
      <trkpt lat="2.921315" lon="-75.15959">
        <ele>712.2</ele>
        <time>2021-08-21T19:45:00Z</time>
      </trkpt>
      <trkpt lat="2.921294" lon="-75.15962">
        <ele>712.0</ele>
        <time>2021-08-21T19:45:01Z</time>
      </trkpt>
      <trkpt lat="2.921271" lon="-75.15966">
        <ele>711.7</ele>
        <time>2021-08-21T19:45:02Z</time>
      </trkpt>
      <trkpt lat="2.921245" lon="-75.1597">
        <ele>711.5</ele>
        <time>2021-08-21T19:45:03Z</time>
      </trkpt>
      <trkpt lat="2.921216" lon="-75.15974">
        <ele>711.2</ele>
        <time>2021-08-21T19:45:04Z</time>
      </trkpt>
      <trkpt lat="2.921185" lon="-75.159775">
        <ele>710.9</ele>
        <time>2021-08-21T19:45:05Z</time>
      </trkpt>
      <trkpt lat="2.92115" lon="-75.15981">
        <ele>710.5</ele>
        <time>2021-08-21T19:45:06Z</time>
      </trkpt>
      <trkpt lat="2.921114" lon="-75.15986">
        <ele>710.1</ele>
        <time>2021-08-21T19:45:07Z</time>
      </trkpt>
      <trkpt lat="2.921076" lon="-75.159904">
        <ele>709.8</ele>
        <time>2021-08-21T19:45:08Z</time>
      </trkpt>
      <trkpt lat="2.921036" lon="-75.15995">
        <ele>709.3</ele>
        <time>2021-08-21T19:45:09Z</time>
      </trkpt>
      <trkpt lat="2.920996" lon="-75.159996">
        <ele>709.0</ele>
        <time>2021-08-21T19:45:10Z</time>
      </trkpt>
      <trkpt lat="2.920956" lon="-75.16004">
        <ele>708.6</ele>
        <time>2021-08-21T19:45:11Z</time>
      </trkpt>
      <trkpt lat="2.920917" lon="-75.16009">
        <ele>708.3</ele>
        <time>2021-08-21T19:45:12Z</time>
      </trkpt>
      <trkpt lat="2.920878" lon="-75.16013">
        <ele>708.0</ele>
        <time>2021-08-21T19:45:13Z</time>
      </trkpt>
      <trkpt lat="2.920838" lon="-75.16018">
        <ele>707.6</ele>
        <time>2021-08-21T19:45:14Z</time>
      </trkpt>
      <trkpt lat="2.920799" lon="-75.16023">
        <ele>707.3</ele>
        <time>2021-08-21T19:45:15Z</time>
      </trkpt>
      <trkpt lat="2.92076" lon="-75.16028">
        <ele>707.0</ele>
        <time>2021-08-21T19:45:16Z</time>
      </trkpt>
      <trkpt lat="2.920721" lon="-75.160324">
        <ele>706.7</ele>
        <time>2021-08-21T19:45:17Z</time>
      </trkpt>
      <trkpt lat="2.920681" lon="-75.16037">
        <ele>706.4</ele>
        <time>2021-08-21T19:45:18Z</time>
      </trkpt>
      <trkpt lat="2.92064" lon="-75.16041">
        <ele>706.1</ele>
        <time>2021-08-21T19:45:19Z</time>
      </trkpt>
      <trkpt lat="2.920599" lon="-75.16045">
        <ele>705.8</ele>
        <time>2021-08-21T19:45:20Z</time>
      </trkpt>
      <trkpt lat="2.920558" lon="-75.16049">
        <ele>705.5</ele>
        <time>2021-08-21T19:45:21Z</time>
      </trkpt>
      <trkpt lat="2.920519" lon="-75.16053">
        <ele>705.2</ele>
        <time>2021-08-21T19:45:22Z</time>
      </trkpt>
      <trkpt lat="2.920482" lon="-75.16056">
        <ele>704.9</ele>
        <time>2021-08-21T19:45:23Z</time>
      </trkpt>
      <trkpt lat="2.920449" lon="-75.16059">
        <ele>704.7</ele>
        <time>2021-08-21T19:45:24Z</time>
      </trkpt>
      <trkpt lat="2.920423" lon="-75.160614">
        <ele>704.5</ele>
        <time>2021-08-21T19:45:25Z</time>
      </trkpt>
      <trkpt lat="2.920403" lon="-75.16063">
        <ele>704.4</ele>
        <time>2021-08-21T19:45:26Z</time>
      </trkpt>
      <trkpt lat="2.920389" lon="-75.160645">
        <ele>704.3</ele>
        <time>2021-08-21T19:45:27Z</time>
      </trkpt>
      <trkpt lat="2.920378" lon="-75.16065">
        <ele>704.2</ele>
        <time>2021-08-21T19:45:28Z</time>
      </trkpt>
      <trkpt lat="2.920219" lon="-75.16083">
        <ele>702.9</ele>
        <time>2021-08-21T19:49:25Z</time>
      </trkpt>
      <trkpt lat="2.920215" lon="-75.160835">
        <ele>702.9</ele>
        <time>2021-08-21T19:49:26Z</time>
      </trkpt>
      <trkpt lat="2.920206" lon="-75.16085">
        <ele>702.8</ele>
        <time>2021-08-21T19:49:27Z</time>
      </trkpt>
      <trkpt lat="2.920193" lon="-75.16087">
        <ele>702.6</ele>
        <time>2021-08-21T19:49:28Z</time>
      </trkpt>
      <trkpt lat="2.920177" lon="-75.1609">
        <ele>702.5</ele>
        <time>2021-08-21T19:49:29Z</time>
      </trkpt>
      <trkpt lat="2.92016" lon="-75.16092">
        <ele>702.3</ele>
        <time>2021-08-21T19:49:30Z</time>
      </trkpt>
      <trkpt lat="2.92014" lon="-75.16095">
        <ele>702.1</ele>
        <time>2021-08-21T19:49:31Z</time>
      </trkpt>
      <trkpt lat="2.920121" lon="-75.16097">
        <ele>702.0</ele>
        <time>2021-08-21T19:49:32Z</time>
      </trkpt>
      <trkpt lat="2.920099" lon="-75.161">
        <ele>701.8</ele>
        <time>2021-08-21T19:49:33Z</time>
      </trkpt>
      <trkpt lat="2.920077" lon="-75.16104">
        <ele>701.6</ele>
        <time>2021-08-21T19:49:34Z</time>
      </trkpt>
      <trkpt lat="2.920056" lon="-75.16107">
        <ele>701.4</ele>
        <time>2021-08-21T19:49:35Z</time>
      </trkpt>
      <trkpt lat="2.920037" lon="-75.16111">
        <ele>701.2</ele>
        <time>2021-08-21T19:49:36Z</time>
      </trkpt>
      <trkpt lat="2.920018" lon="-75.16115">
        <ele>701.0</ele>
        <time>2021-08-21T19:49:37Z</time>
      </trkpt>
      <trkpt lat="2.919999" lon="-75.16119">
        <ele>700.7</ele>
        <time>2021-08-21T19:49:38Z</time>
      </trkpt>
      <trkpt lat="2.919981" lon="-75.16124">
        <ele>700.4</ele>
        <time>2021-08-21T19:49:39Z</time>
      </trkpt>
      <trkpt lat="2.919964" lon="-75.161285">
        <ele>700.2</ele>
        <time>2021-08-21T19:49:40Z</time>
      </trkpt>
      <trkpt lat="2.919949" lon="-75.16133">
        <ele>699.9</ele>
        <time>2021-08-21T19:49:41Z</time>
      </trkpt>
      <trkpt lat="2.919933" lon="-75.161385">
        <ele>699.6</ele>
        <time>2021-08-21T19:49:42Z</time>
      </trkpt>
      <trkpt lat="2.919919" lon="-75.161446">
        <ele>699.3</ele>
        <time>2021-08-21T19:49:43Z</time>
      </trkpt>
      <trkpt lat="2.919908" lon="-75.16151">
        <ele>698.9</ele>
        <time>2021-08-21T19:49:44Z</time>
      </trkpt>
      <trkpt lat="2.919899" lon="-75.161575">
        <ele>698.6</ele>
        <time>2021-08-21T19:49:45Z</time>
      </trkpt>
      <trkpt lat="2.919892" lon="-75.16164">
        <ele>698.2</ele>
        <time>2021-08-21T19:49:46Z</time>
      </trkpt>
      <trkpt lat="2.919889" lon="-75.161705">
        <ele>697.8</ele>
        <time>2021-08-21T19:49:47Z</time>
      </trkpt>
      <trkpt lat="2.919888" lon="-75.16177">
        <ele>697.5</ele>
        <time>2021-08-21T19:49:48Z</time>
      </trkpt>
      <trkpt lat="2.919891" lon="-75.16184">
        <ele>697.1</ele>
        <time>2021-08-21T19:49:49Z</time>
      </trkpt>
      <trkpt lat="2.919899" lon="-75.16192">
        <ele>696.8</ele>
        <time>2021-08-21T19:49:50Z</time>
      </trkpt>
      <trkpt lat="2.919912" lon="-75.161995">
        <ele>696.4</ele>
        <time>2021-08-21T19:49:51Z</time>
      </trkpt>
      <trkpt lat="2.919931" lon="-75.16206">
        <ele>696.1</ele>
        <time>2021-08-21T19:49:52Z</time>
      </trkpt>
      <trkpt lat="2.919958" lon="-75.16213">
        <ele>695.8</ele>
        <time>2021-08-21T19:49:53Z</time>
      </trkpt>
      <trkpt lat="2.919994" lon="-75.1622">
        <ele>695.5</ele>
        <time>2021-08-21T19:49:54Z</time>
      </trkpt>
      <trkpt lat="2.920037" lon="-75.16226">
        <ele>695.3</ele>
        <time>2021-08-21T19:49:55Z</time>
      </trkpt>
      <trkpt lat="2.920086" lon="-75.16231">
        <ele>695.3</ele>
        <time>2021-08-21T19:49:56Z</time>
      </trkpt>
      <trkpt lat="2.920136" lon="-75.16234">
        <ele>695.4</ele>
        <time>2021-08-21T19:49:57Z</time>
      </trkpt>
      <trkpt lat="2.920188" lon="-75.16236">
        <ele>695.5</ele>
        <time>2021-08-21T19:49:58Z</time>
      </trkpt>
      <trkpt lat="2.920241" lon="-75.16237">
        <ele>695.6</ele>
        <time>2021-08-21T19:49:59Z</time>
      </trkpt>
      <trkpt lat="2.920298" lon="-75.16236">
        <ele>695.7</ele>
        <time>2021-08-21T19:50:00Z</time>
      </trkpt>
      <trkpt lat="2.920354" lon="-75.16235">
        <ele>695.8</ele>
        <time>2021-08-21T19:50:01Z</time>
      </trkpt>
      <trkpt lat="2.920407" lon="-75.162346">
        <ele>695.9</ele>
        <time>2021-08-21T19:50:02Z</time>
      </trkpt>
      <trkpt lat="2.92046" lon="-75.16233">
        <ele>696.0</ele>
        <time>2021-08-21T19:50:03Z</time>
      </trkpt>
      <trkpt lat="2.920511" lon="-75.162315">
        <ele>696.1</ele>
        <time>2021-08-21T19:50:04Z</time>
      </trkpt>
      <trkpt lat="2.920562" lon="-75.1623">
        <ele>696.1</ele>
        <time>2021-08-21T19:50:05Z</time>
      </trkpt>
      <trkpt lat="2.920612" lon="-75.162285">
        <ele>696.2</ele>
        <time>2021-08-21T19:50:06Z</time>
      </trkpt>
      <trkpt lat="2.920663" lon="-75.16227">
        <ele>696.3</ele>
        <time>2021-08-21T19:50:07Z</time>
      </trkpt>
      <trkpt lat="2.920715" lon="-75.16225">
        <ele>696.3</ele>
        <time>2021-08-21T19:50:08Z</time>
      </trkpt>
      <trkpt lat="2.920766" lon="-75.16224">
        <ele>696.4</ele>
        <time>2021-08-21T19:50:09Z</time>
      </trkpt>
      <trkpt lat="2.920818" lon="-75.162224">
        <ele>696.4</ele>
        <time>2021-08-21T19:50:10Z</time>
      </trkpt>
      <trkpt lat="2.920871" lon="-75.16222">
        <ele>696.4</ele>
        <time>2021-08-21T19:50:11Z</time>
      </trkpt>
      <trkpt lat="2.920922" lon="-75.16221">
        <ele>696.5</ele>
        <time>2021-08-21T19:50:12Z</time>
      </trkpt>
      <trkpt lat="2.920974" lon="-75.1622">
        <ele>696.6</ele>
        <time>2021-08-21T19:50:13Z</time>
      </trkpt>
      <trkpt lat="2.921024" lon="-75.16219">
        <ele>696.6</ele>
        <time>2021-08-21T19:50:14Z</time>
      </trkpt>
      <trkpt lat="2.921074" lon="-75.16219">
        <ele>696.7</ele>
        <time>2021-08-21T19:50:15Z</time>
      </trkpt>
      <trkpt lat="2.921121" lon="-75.162186">
        <ele>696.8</ele>
        <time>2021-08-21T19:50:16Z</time>
      </trkpt>
      <trkpt lat="2.921173" lon="-75.162186">
        <ele>696.9</ele>
        <time>2021-08-21T19:50:17Z</time>
      </trkpt>
      <trkpt lat="2.921225" lon="-75.162186">
        <ele>697.0</ele>
        <time>2021-08-21T19:50:18Z</time>
      </trkpt>
      <trkpt lat="2.921275" lon="-75.162186">
        <ele>697.1</ele>
        <time>2021-08-21T19:50:19Z</time>
      </trkpt>
      <trkpt lat="2.921322" lon="-75.16219">
        <ele>697.3</ele>
        <time>2021-08-21T19:50:20Z</time>
      </trkpt>
      <trkpt lat="2.921372" lon="-75.16219">
        <ele>697.4</ele>
        <time>2021-08-21T19:50:21Z</time>
      </trkpt>
      <trkpt lat="2.921421" lon="-75.1622">
        <ele>697.5</ele>
        <time>2021-08-21T19:50:22Z</time>
      </trkpt>
      <trkpt lat="2.92147" lon="-75.1622">
        <ele>697.6</ele>
        <time>2021-08-21T19:50:23Z</time>
      </trkpt>
      <trkpt lat="2.921519" lon="-75.16221">
        <ele>697.8</ele>
        <time>2021-08-21T19:50:24Z</time>
      </trkpt>
      <trkpt lat="2.921567" lon="-75.16222">
        <ele>697.9</ele>
        <time>2021-08-21T19:50:25Z</time>
      </trkpt>
      <trkpt lat="2.921614" lon="-75.16223">
        <ele>698.0</ele>
        <time>2021-08-21T19:50:26Z</time>
      </trkpt>
      <trkpt lat="2.921661" lon="-75.16224">
        <ele>698.2</ele>
        <time>2021-08-21T19:50:27Z</time>
      </trkpt>
      <trkpt lat="2.921708" lon="-75.16225">
        <ele>698.3</ele>
        <time>2021-08-21T19:50:28Z</time>
      </trkpt>
      <trkpt lat="2.921754" lon="-75.162254">
        <ele>698.3</ele>
        <time>2021-08-21T19:50:29Z</time>
      </trkpt>
      <trkpt lat="2.921801" lon="-75.16226">
        <ele>698.4</ele>
        <time>2021-08-21T19:50:30Z</time>
      </trkpt>
      <trkpt lat="2.921846" lon="-75.16227">
        <ele>698.5</ele>
        <time>2021-08-21T19:50:31Z</time>
      </trkpt>
      <trkpt lat="2.921891" lon="-75.16228">
        <ele>698.6</ele>
        <time>2021-08-21T19:50:32Z</time>
      </trkpt>
      <trkpt lat="2.921933" lon="-75.162285">
        <ele>698.7</ele>
        <time>2021-08-21T19:50:33Z</time>
      </trkpt>
      <trkpt lat="2.921975" lon="-75.1623">
        <ele>698.8</ele>
        <time>2021-08-21T19:50:34Z</time>
      </trkpt>
      <trkpt lat="2.922018" lon="-75.16231">
        <ele>698.9</ele>
        <time>2021-08-21T19:50:35Z</time>
      </trkpt>
      <trkpt lat="2.922065" lon="-75.162315">
        <ele>699.0</ele>
        <time>2021-08-21T19:50:36Z</time>
      </trkpt>
      <trkpt lat="2.92211" lon="-75.16232">
        <ele>699.0</ele>
        <time>2021-08-21T19:50:37Z</time>
      </trkpt>
      <trkpt lat="2.922152" lon="-75.16233">
        <ele>699.1</ele>
        <time>2021-08-21T19:50:38Z</time>
      </trkpt>
      <trkpt lat="2.922195" lon="-75.16234">
        <ele>699.1</ele>
        <time>2021-08-21T19:50:39Z</time>
      </trkpt>
      <trkpt lat="2.922237" lon="-75.162346">
        <ele>699.1</ele>
        <time>2021-08-21T19:50:40Z</time>
      </trkpt>
      <trkpt lat="2.922283" lon="-75.16235">
        <ele>699.2</ele>
        <time>2021-08-21T19:50:41Z</time>
      </trkpt>
      <trkpt lat="2.922328" lon="-75.16236">
        <ele>699.2</ele>
        <time>2021-08-21T19:50:42Z</time>
      </trkpt>
      <trkpt lat="2.922371" lon="-75.16237">
        <ele>699.2</ele>
        <time>2021-08-21T19:50:43Z</time>
      </trkpt>
      <trkpt lat="2.922416" lon="-75.16238">
        <ele>699.1</ele>
        <time>2021-08-21T19:50:44Z</time>
      </trkpt>
      <trkpt lat="2.922462" lon="-75.16239">
        <ele>699.1</ele>
        <time>2021-08-21T19:50:45Z</time>
      </trkpt>
      <trkpt lat="2.92251" lon="-75.1624">
        <ele>699.1</ele>
        <time>2021-08-21T19:50:46Z</time>
      </trkpt>
      <trkpt lat="2.922562" lon="-75.16241">
        <ele>699.0</ele>
        <time>2021-08-21T19:50:47Z</time>
      </trkpt>
      <trkpt lat="2.922609" lon="-75.162415">
        <ele>698.9</ele>
        <time>2021-08-21T19:50:48Z</time>
      </trkpt>
      <trkpt lat="2.922658" lon="-75.16242">
        <ele>698.8</ele>
        <time>2021-08-21T19:50:49Z</time>
      </trkpt>
      <trkpt lat="2.922707" lon="-75.16243">
        <ele>698.7</ele>
        <time>2021-08-21T19:50:50Z</time>
      </trkpt>
      <trkpt lat="2.922756" lon="-75.162445">
        <ele>698.6</ele>
        <time>2021-08-21T19:50:51Z</time>
      </trkpt>
      <trkpt lat="2.92281" lon="-75.16245">
        <ele>698.4</ele>
        <time>2021-08-21T19:50:52Z</time>
      </trkpt>
      <trkpt lat="2.92286" lon="-75.16246">
        <ele>698.2</ele>
        <time>2021-08-21T19:50:53Z</time>
      </trkpt>
      <trkpt lat="2.922913" lon="-75.16247">
        <ele>698.1</ele>
        <time>2021-08-21T19:50:54Z</time>
      </trkpt>
      <trkpt lat="2.922971" lon="-75.16248">
        <ele>697.8</ele>
        <time>2021-08-21T19:50:55Z</time>
      </trkpt>
      <trkpt lat="2.923029" lon="-75.16249">
        <ele>697.6</ele>
        <time>2021-08-21T19:50:56Z</time>
      </trkpt>
      <trkpt lat="2.923087" lon="-75.162506">
        <ele>697.4</ele>
        <time>2021-08-21T19:50:57Z</time>
      </trkpt>
      <trkpt lat="2.923147" lon="-75.16251">
        <ele>697.1</ele>
        <time>2021-08-21T19:50:58Z</time>
      </trkpt>
      <trkpt lat="2.923204" lon="-75.16253">
        <ele>696.8</ele>
        <time>2021-08-21T19:50:59Z</time>
      </trkpt>
      <trkpt lat="2.923263" lon="-75.16254">
        <ele>696.5</ele>
        <time>2021-08-21T19:51:00Z</time>
      </trkpt>
      <trkpt lat="2.923331" lon="-75.16255">
        <ele>696.1</ele>
        <time>2021-08-21T19:51:01Z</time>
      </trkpt>
      <trkpt lat="2.9234" lon="-75.16256">
        <ele>695.8</ele>
        <time>2021-08-21T19:51:02Z</time>
      </trkpt>
      <trkpt lat="2.923471" lon="-75.162575">
        <ele>695.4</ele>
        <time>2021-08-21T19:51:03Z</time>
      </trkpt>
      <trkpt lat="2.923543" lon="-75.16258">
        <ele>695.0</ele>
        <time>2021-08-21T19:51:04Z</time>
      </trkpt>
      <trkpt lat="2.923616" lon="-75.1626">
        <ele>694.6</ele>
        <time>2021-08-21T19:51:05Z</time>
      </trkpt>
      <trkpt lat="2.92369" lon="-75.16261">
        <ele>694.1</ele>
        <time>2021-08-21T19:51:06Z</time>
      </trkpt>
      <trkpt lat="2.923766" lon="-75.162636">
        <ele>693.7</ele>
        <time>2021-08-21T19:51:07Z</time>
      </trkpt>
      <trkpt lat="2.923837" lon="-75.16265">
        <ele>693.3</ele>
        <time>2021-08-21T19:51:08Z</time>
      </trkpt>
      <trkpt lat="2.923911" lon="-75.16268">
        <ele>692.9</ele>
        <time>2021-08-21T19:51:09Z</time>
      </trkpt>
      <trkpt lat="2.923989" lon="-75.162704">
        <ele>692.4</ele>
        <time>2021-08-21T19:51:10Z</time>
      </trkpt>
      <trkpt lat="2.924071" lon="-75.16274">
        <ele>691.9</ele>
        <time>2021-08-21T19:51:11Z</time>
      </trkpt>
      <trkpt lat="2.924147" lon="-75.16278">
        <ele>691.4</ele>
        <time>2021-08-21T19:51:12Z</time>
      </trkpt>
      <trkpt lat="2.924223" lon="-75.16282">
        <ele>690.9</ele>
        <time>2021-08-21T19:51:13Z</time>
      </trkpt>
      <trkpt lat="2.924299" lon="-75.16287">
        <ele>690.3</ele>
        <time>2021-08-21T19:51:14Z</time>
      </trkpt>
      <trkpt lat="2.924373" lon="-75.162926">
        <ele>689.8</ele>
        <time>2021-08-21T19:51:15Z</time>
      </trkpt>
      <trkpt lat="2.924445" lon="-75.16298">
        <ele>689.3</ele>
        <time>2021-08-21T19:51:16Z</time>
      </trkpt>
      <trkpt lat="2.924515" lon="-75.16305">
        <ele>688.7</ele>
        <time>2021-08-21T19:51:17Z</time>
      </trkpt>
      <trkpt lat="2.92458" lon="-75.16311">
        <ele>688.2</ele>
        <time>2021-08-21T19:51:18Z</time>
      </trkpt>
      <trkpt lat="2.924642" lon="-75.163185">
        <ele>687.7</ele>
        <time>2021-08-21T19:51:19Z</time>
      </trkpt>
      <trkpt lat="2.9247" lon="-75.16326">
        <ele>687.2</ele>
        <time>2021-08-21T19:51:20Z</time>
      </trkpt>
      <trkpt lat="2.924752" lon="-75.16334">
        <ele>686.9</ele>
        <time>2021-08-21T19:51:21Z</time>
      </trkpt>
      <trkpt lat="2.924801" lon="-75.16343">
        <ele>686.3</ele>
        <time>2021-08-21T19:51:22Z</time>
      </trkpt>
      <trkpt lat="2.924843" lon="-75.16352">
        <ele>685.8</ele>
        <time>2021-08-21T19:51:23Z</time>
      </trkpt>
      <trkpt lat="2.92488" lon="-75.163605">
        <ele>685.4</ele>
        <time>2021-08-21T19:51:24Z</time>
      </trkpt>
      <trkpt lat="2.924914" lon="-75.1637">
        <ele>684.9</ele>
        <time>2021-08-21T19:51:25Z</time>
      </trkpt>
      <trkpt lat="2.924943" lon="-75.163795">
        <ele>684.5</ele>
        <time>2021-08-21T19:51:26Z</time>
      </trkpt>
      <trkpt lat="2.924969" lon="-75.16389">
        <ele>684.0</ele>
        <time>2021-08-21T19:51:27Z</time>
      </trkpt>
      <trkpt lat="2.924994" lon="-75.16399">
        <ele>683.5</ele>
        <time>2021-08-21T19:51:28Z</time>
      </trkpt>
      <trkpt lat="2.925019" lon="-75.164085">
        <ele>683.0</ele>
        <time>2021-08-21T19:51:29Z</time>
      </trkpt>
      <trkpt lat="2.925044" lon="-75.164185">
        <ele>682.5</ele>
        <time>2021-08-21T19:51:30Z</time>
      </trkpt>
      <trkpt lat="2.925069" lon="-75.16428">
        <ele>682.0</ele>
        <time>2021-08-21T19:51:31Z</time>
      </trkpt>
      <trkpt lat="2.925096" lon="-75.16439">
        <ele>681.4</ele>
        <time>2021-08-21T19:51:32Z</time>
      </trkpt>
      <trkpt lat="2.925121" lon="-75.1645">
        <ele>680.9</ele>
        <time>2021-08-21T19:51:33Z</time>
      </trkpt>
      <trkpt lat="2.925145" lon="-75.1646">
        <ele>680.4</ele>
        <time>2021-08-21T19:51:34Z</time>
      </trkpt>
      <trkpt lat="2.925168" lon="-75.1647">
        <ele>679.9</ele>
        <time>2021-08-21T19:51:35Z</time>
      </trkpt>
      <trkpt lat="2.925191" lon="-75.1648">
        <ele>679.4</ele>
        <time>2021-08-21T19:51:36Z</time>
      </trkpt>
      <trkpt lat="2.925215" lon="-75.16492">
        <ele>678.8</ele>
        <time>2021-08-21T19:51:37Z</time>
      </trkpt>
      <trkpt lat="2.925239" lon="-75.16502">
        <ele>678.3</ele>
        <time>2021-08-21T19:51:38Z</time>
      </trkpt>
      <trkpt lat="2.925262" lon="-75.16514">
        <ele>677.7</ele>
        <time>2021-08-21T19:51:39Z</time>
      </trkpt>
      <trkpt lat="2.925283" lon="-75.165245">
        <ele>677.2</ele>
        <time>2021-08-21T19:51:40Z</time>
      </trkpt>
      <trkpt lat="2.925306" lon="-75.165344">
        <ele>676.6</ele>
        <time>2021-08-21T19:51:41Z</time>
      </trkpt>
      <trkpt lat="2.925327" lon="-75.16545">
        <ele>676.1</ele>
        <time>2021-08-21T19:51:42Z</time>
      </trkpt>
      <trkpt lat="2.925348" lon="-75.16556">
        <ele>675.6</ele>
        <time>2021-08-21T19:51:43Z</time>
      </trkpt>
      <trkpt lat="2.92537" lon="-75.165665">
        <ele>675.0</ele>
        <time>2021-08-21T19:51:44Z</time>
      </trkpt>
      <trkpt lat="2.925393" lon="-75.16577">
        <ele>674.4</ele>
        <time>2021-08-21T19:51:45Z</time>
      </trkpt>
      <trkpt lat="2.925417" lon="-75.165886">
        <ele>673.8</ele>
        <time>2021-08-21T19:51:46Z</time>
      </trkpt>
      <trkpt lat="2.925439" lon="-75.16599">
        <ele>673.2</ele>
        <time>2021-08-21T19:51:47Z</time>
      </trkpt>
      <trkpt lat="2.925463" lon="-75.1661">
        <ele>672.6</ele>
        <time>2021-08-21T19:51:48Z</time>
      </trkpt>
      <trkpt lat="2.925485" lon="-75.166214">
        <ele>672.0</ele>
        <time>2021-08-21T19:51:49Z</time>
      </trkpt>
      <trkpt lat="2.925507" lon="-75.16633">
        <ele>671.4</ele>
        <time>2021-08-21T19:51:50Z</time>
      </trkpt>
      <trkpt lat="2.92553" lon="-75.166435">
        <ele>670.9</ele>
        <time>2021-08-21T19:51:51Z</time>
      </trkpt>
      <trkpt lat="2.925553" lon="-75.16655">
        <ele>670.4</ele>
        <time>2021-08-21T19:51:52Z</time>
      </trkpt>
      <trkpt lat="2.925577" lon="-75.16666">
        <ele>670.0</ele>
        <time>2021-08-21T19:51:52Z</time>
      </trkpt>
      <trkpt lat="2.925599" lon="-75.16676">
        <ele>669.6</ele>
        <time>2021-08-21T19:51:53Z</time>
      </trkpt>
      <trkpt lat="2.925621" lon="-75.16687">
        <ele>669.2</ele>
        <time>2021-08-21T19:51:54Z</time>
      </trkpt>
      <trkpt lat="2.925644" lon="-75.166985">
        <ele>668.8</ele>
        <time>2021-08-21T19:51:55Z</time>
      </trkpt>
      <trkpt lat="2.925665" lon="-75.16708">
        <ele>668.5</ele>
        <time>2021-08-21T19:51:56Z</time>
      </trkpt>
      <trkpt lat="2.925687" lon="-75.1672">
        <ele>668.2</ele>
        <time>2021-08-21T19:51:57Z</time>
      </trkpt>
      <trkpt lat="2.92571" lon="-75.167305">
        <ele>667.8</ele>
        <time>2021-08-21T19:51:58Z</time>
      </trkpt>
      <trkpt lat="2.925733" lon="-75.16741">
        <ele>667.4</ele>
        <time>2021-08-21T19:51:59Z</time>
      </trkpt>
      <trkpt lat="2.925755" lon="-75.16752">
        <ele>667.1</ele>
        <time>2021-08-21T19:52:00Z</time>
      </trkpt>
      <trkpt lat="2.925777" lon="-75.16762">
        <ele>666.7</ele>
        <time>2021-08-21T19:52:01Z</time>
      </trkpt>
      <trkpt lat="2.925797" lon="-75.16772">
        <ele>666.4</ele>
        <time>2021-08-21T19:52:02Z</time>
      </trkpt>
      <trkpt lat="2.925816" lon="-75.167816">
        <ele>666.1</ele>
        <time>2021-08-21T19:52:03Z</time>
      </trkpt>
      <trkpt lat="2.925836" lon="-75.167915">
        <ele>665.8</ele>
        <time>2021-08-21T19:52:04Z</time>
      </trkpt>
      <trkpt lat="2.925856" lon="-75.168015">
        <ele>665.5</ele>
        <time>2021-08-21T19:52:05Z</time>
      </trkpt>
      <trkpt lat="2.925876" lon="-75.16811">
        <ele>665.2</ele>
        <time>2021-08-21T19:52:06Z</time>
      </trkpt>
      <trkpt lat="2.925896" lon="-75.16821">
        <ele>664.9</ele>
        <time>2021-08-21T19:52:07Z</time>
      </trkpt>
      <trkpt lat="2.925918" lon="-75.16832">
        <ele>664.6</ele>
        <time>2021-08-21T19:52:08Z</time>
      </trkpt>
      <trkpt lat="2.925938" lon="-75.16842">
        <ele>664.3</ele>
        <time>2021-08-21T19:52:09Z</time>
      </trkpt>
      <trkpt lat="2.925961" lon="-75.168526">
        <ele>664.0</ele>
        <time>2021-08-21T19:52:10Z</time>
      </trkpt>
      <trkpt lat="2.925983" lon="-75.168625">
        <ele>663.8</ele>
        <time>2021-08-21T19:52:11Z</time>
      </trkpt>
      <trkpt lat="2.926006" lon="-75.168724">
        <ele>663.5</ele>
        <time>2021-08-21T19:52:12Z</time>
      </trkpt>
      <trkpt lat="2.926028" lon="-75.16883">
        <ele>663.3</ele>
        <time>2021-08-21T19:52:13Z</time>
      </trkpt>
      <trkpt lat="2.926049" lon="-75.16892">
        <ele>663.0</ele>
        <time>2021-08-21T19:52:14Z</time>
      </trkpt>
      <trkpt lat="2.926069" lon="-75.16902">
        <ele>662.8</ele>
        <time>2021-08-21T19:52:15Z</time>
      </trkpt>
      <trkpt lat="2.926088" lon="-75.16911">
        <ele>662.6</ele>
        <time>2021-08-21T19:52:16Z</time>
      </trkpt>
      <trkpt lat="2.926108" lon="-75.16921">
        <ele>662.3</ele>
        <time>2021-08-21T19:52:17Z</time>
      </trkpt>
      <trkpt lat="2.926129" lon="-75.16931">
        <ele>662.0</ele>
        <time>2021-08-21T19:52:18Z</time>
      </trkpt>
      <trkpt lat="2.926149" lon="-75.16941">
        <ele>661.7</ele>
        <time>2021-08-21T19:52:19Z</time>
      </trkpt>
      <trkpt lat="2.926169" lon="-75.1695">
        <ele>661.4</ele>
        <time>2021-08-21T19:52:20Z</time>
      </trkpt>
      <trkpt lat="2.926189" lon="-75.1696">
        <ele>661.1</ele>
        <time>2021-08-21T19:52:21Z</time>
      </trkpt>
      <trkpt lat="2.926208" lon="-75.1697">
        <ele>660.7</ele>
        <time>2021-08-21T19:52:22Z</time>
      </trkpt>
      <trkpt lat="2.926228" lon="-75.16979">
        <ele>660.3</ele>
        <time>2021-08-21T19:52:23Z</time>
      </trkpt>
      <trkpt lat="2.926248" lon="-75.16989">
        <ele>659.9</ele>
        <time>2021-08-21T19:52:24Z</time>
      </trkpt>
      <trkpt lat="2.926266" lon="-75.16998">
        <ele>659.6</ele>
        <time>2021-08-21T19:52:25Z</time>
      </trkpt>
      <trkpt lat="2.926286" lon="-75.17008">
        <ele>659.3</ele>
        <time>2021-08-21T19:52:26Z</time>
      </trkpt>
      <trkpt lat="2.926306" lon="-75.17017">
        <ele>659.0</ele>
        <time>2021-08-21T19:52:27Z</time>
      </trkpt>
      <trkpt lat="2.926326" lon="-75.170265">
        <ele>658.9</ele>
        <time>2021-08-21T19:52:28Z</time>
      </trkpt>
      <trkpt lat="2.926345" lon="-75.170364">
        <ele>658.7</ele>
        <time>2021-08-21T19:52:29Z</time>
      </trkpt>
      <trkpt lat="2.926364" lon="-75.17045">
        <ele>658.5</ele>
        <time>2021-08-21T19:52:30Z</time>
      </trkpt>
      <trkpt lat="2.926382" lon="-75.17053">
        <ele>658.3</ele>
        <time>2021-08-21T19:52:31Z</time>
      </trkpt>
      <trkpt lat="2.9264" lon="-75.170616">
        <ele>658.0</ele>
        <time>2021-08-21T19:52:32Z</time>
      </trkpt>
      <trkpt lat="2.92642" lon="-75.17071">
        <ele>657.8</ele>
        <time>2021-08-21T19:52:33Z</time>
      </trkpt>
      <trkpt lat="2.926438" lon="-75.1708">
        <ele>657.4</ele>
        <time>2021-08-21T19:52:34Z</time>
      </trkpt>
      <trkpt lat="2.926455" lon="-75.17088">
        <ele>657.1</ele>
        <time>2021-08-21T19:52:35Z</time>
      </trkpt>
      <trkpt lat="2.926473" lon="-75.17097">
        <ele>656.7</ele>
        <time>2021-08-21T19:52:36Z</time>
      </trkpt>
      <trkpt lat="2.926491" lon="-75.17105">
        <ele>656.2</ele>
        <time>2021-08-21T19:52:37Z</time>
      </trkpt>
      <trkpt lat="2.92651" lon="-75.17115">
        <ele>655.6</ele>
        <time>2021-08-21T19:52:38Z</time>
      </trkpt>
      <trkpt lat="2.926528" lon="-75.17124">
        <ele>655.0</ele>
        <time>2021-08-21T19:52:39Z</time>
      </trkpt>
      <trkpt lat="2.926547" lon="-75.17134">
        <ele>654.3</ele>
        <time>2021-08-21T19:52:40Z</time>
      </trkpt>
      <trkpt lat="2.926567" lon="-75.17144">
        <ele>653.6</ele>
        <time>2021-08-21T19:52:41Z</time>
      </trkpt>
      <trkpt lat="2.92659" lon="-75.17154">
        <ele>652.7</ele>
        <time>2021-08-21T19:52:42Z</time>
      </trkpt>
      <trkpt lat="2.926614" lon="-75.171646">
        <ele>651.8</ele>
        <time>2021-08-21T19:52:43Z</time>
      </trkpt>
      <trkpt lat="2.926641" lon="-75.17175">
        <ele>650.8</ele>
        <time>2021-08-21T19:52:44Z</time>
      </trkpt>
      <trkpt lat="2.926671" lon="-75.17186">
        <ele>649.5</ele>
        <time>2021-08-21T19:52:45Z</time>
      </trkpt>
      <trkpt lat="2.926707" lon="-75.171974">
        <ele>648.0</ele>
        <time>2021-08-21T19:52:46Z</time>
      </trkpt>
      <trkpt lat="2.926747" lon="-75.1721">
        <ele>645.9</ele>
        <time>2021-08-21T19:52:47Z</time>
      </trkpt>
      <trkpt lat="2.926791" lon="-75.17222">
        <ele>644.1</ele>
        <time>2021-08-21T19:52:48Z</time>
      </trkpt>
      <trkpt lat="2.92684" lon="-75.17234">
        <ele>642.6</ele>
        <time>2021-08-21T19:52:49Z</time>
      </trkpt>
      <trkpt lat="2.926888" lon="-75.172455">
        <ele>641.9</ele>
        <time>2021-08-21T19:52:50Z</time>
      </trkpt>
      <trkpt lat="2.926939" lon="-75.17257">
        <ele>642.1</ele>
        <time>2021-08-21T19:52:51Z</time>
      </trkpt>
      <trkpt lat="2.926993" lon="-75.172676">
        <ele>642.7</ele>
        <time>2021-08-21T19:52:52Z</time>
      </trkpt>
      <trkpt lat="2.927049" lon="-75.172775">
        <ele>643.6</ele>
        <time>2021-08-21T19:52:53Z</time>
      </trkpt>
      <trkpt lat="2.92711" lon="-75.172874">
        <ele>644.5</ele>
        <time>2021-08-21T19:52:54Z</time>
      </trkpt>
      <trkpt lat="2.927168" lon="-75.172966">
        <ele>645.3</ele>
        <time>2021-08-21T19:52:55Z</time>
      </trkpt>
      <trkpt lat="2.927221" lon="-75.17305">
        <ele>646.0</ele>
        <time>2021-08-21T19:52:56Z</time>
      </trkpt>
      <trkpt lat="2.92727" lon="-75.173134">
        <ele>646.4</ele>
        <time>2021-08-21T19:52:57Z</time>
      </trkpt>
      <trkpt lat="2.927313" lon="-75.1732">
        <ele>646.6</ele>
        <time>2021-08-21T19:52:58Z</time>
      </trkpt>
      <trkpt lat="2.927357" lon="-75.17328">
        <ele>646.6</ele>
        <time>2021-08-21T19:52:59Z</time>
      </trkpt>
      <trkpt lat="2.927399" lon="-75.173355">
        <ele>646.6</ele>
        <time>2021-08-21T19:53:00Z</time>
      </trkpt>
      <trkpt lat="2.927438" lon="-75.17343">
        <ele>646.5</ele>
        <time>2021-08-21T19:53:01Z</time>
      </trkpt>
      <trkpt lat="2.927477" lon="-75.1735">
        <ele>646.3</ele>
        <time>2021-08-21T19:53:02Z</time>
      </trkpt>
      <trkpt lat="2.927514" lon="-75.17357">
        <ele>646.2</ele>
        <time>2021-08-21T19:53:03Z</time>
      </trkpt>
      <trkpt lat="2.92755" lon="-75.173645">
        <ele>646.0</ele>
        <time>2021-08-21T19:53:04Z</time>
      </trkpt>
      <trkpt lat="2.927587" lon="-75.17371">
        <ele>646.0</ele>
        <time>2021-08-21T19:53:05Z</time>
      </trkpt>
      <trkpt lat="2.927626" lon="-75.173775">
        <ele>646.0</ele>
        <time>2021-08-21T19:53:06Z</time>
      </trkpt>
      <trkpt lat="2.927667" lon="-75.173836">
        <ele>646.0</ele>
        <time>2021-08-21T19:53:07Z</time>
      </trkpt>
      <trkpt lat="2.927711" lon="-75.1739">
        <ele>646.1</ele>
        <time>2021-08-21T19:53:08Z</time>
      </trkpt>
      <trkpt lat="2.927757" lon="-75.17395">
        <ele>646.2</ele>
        <time>2021-08-21T19:53:09Z</time>
      </trkpt>
      <trkpt lat="2.927804" lon="-75.173996">
        <ele>646.4</ele>
        <time>2021-08-21T19:53:10Z</time>
      </trkpt>
      <trkpt lat="2.927853" lon="-75.17404">
        <ele>646.5</ele>
        <time>2021-08-21T19:53:11Z</time>
      </trkpt>
      <trkpt lat="2.927903" lon="-75.17407">
        <ele>646.7</ele>
        <time>2021-08-21T19:53:12Z</time>
      </trkpt>
      <trkpt lat="2.927956" lon="-75.1741">
        <ele>646.7</ele>
        <time>2021-08-21T19:53:13Z</time>
      </trkpt>
      <trkpt lat="2.928007" lon="-75.174126">
        <ele>646.7</ele>
        <time>2021-08-21T19:53:14Z</time>
      </trkpt>
      <trkpt lat="2.928066" lon="-75.17414">
        <ele>646.7</ele>
        <time>2021-08-21T19:53:15Z</time>
      </trkpt>
      <trkpt lat="2.928127" lon="-75.17416">
        <ele>646.6</ele>
        <time>2021-08-21T19:53:16Z</time>
      </trkpt>
      <trkpt lat="2.928186" lon="-75.17417">
        <ele>646.4</ele>
        <time>2021-08-21T19:53:17Z</time>
      </trkpt>
      <trkpt lat="2.928244" lon="-75.17419">
        <ele>646.2</ele>
        <time>2021-08-21T19:53:18Z</time>
      </trkpt>
      <trkpt lat="2.928305" lon="-75.1742">
        <ele>646.1</ele>
        <time>2021-08-21T19:53:19Z</time>
      </trkpt>
      <trkpt lat="2.928373" lon="-75.174225">
        <ele>645.8</ele>
        <time>2021-08-21T19:53:20Z</time>
      </trkpt>
      <trkpt lat="2.928441" lon="-75.17424">
        <ele>645.7</ele>
        <time>2021-08-21T19:53:21Z</time>
      </trkpt>
      <trkpt lat="2.928508" lon="-75.17425">
        <ele>645.5</ele>
        <time>2021-08-21T19:53:22Z</time>
      </trkpt>
      <trkpt lat="2.928571" lon="-75.17426">
        <ele>645.5</ele>
        <time>2021-08-21T19:53:23Z</time>
      </trkpt>
      <trkpt lat="2.928634" lon="-75.17428">
        <ele>645.4</ele>
        <time>2021-08-21T19:53:24Z</time>
      </trkpt>
      <trkpt lat="2.928703" lon="-75.174286">
        <ele>645.4</ele>
        <time>2021-08-21T19:53:25Z</time>
      </trkpt>
      <trkpt lat="2.928771" lon="-75.1743">
        <ele>645.4</ele>
        <time>2021-08-21T19:53:26Z</time>
      </trkpt>
      <trkpt lat="2.928837" lon="-75.17432">
        <ele>645.4</ele>
        <time>2021-08-21T19:53:27Z</time>
      </trkpt>
      <trkpt lat="2.928897" lon="-75.174324">
        <ele>645.4</ele>
        <time>2021-08-21T19:53:28Z</time>
      </trkpt>
      <trkpt lat="2.928957" lon="-75.17433">
        <ele>645.4</ele>
        <time>2021-08-21T19:53:29Z</time>
      </trkpt>
      <trkpt lat="2.929018" lon="-75.17435">
        <ele>645.4</ele>
        <time>2021-08-21T19:53:30Z</time>
      </trkpt>
      <trkpt lat="2.92908" lon="-75.174355">
        <ele>645.4</ele>
        <time>2021-08-21T19:53:31Z</time>
      </trkpt>
      <trkpt lat="2.929142" lon="-75.17437">
        <ele>645.3</ele>
        <time>2021-08-21T19:53:32Z</time>
      </trkpt>
      <trkpt lat="2.929204" lon="-75.17438">
        <ele>645.2</ele>
        <time>2021-08-21T19:53:33Z</time>
      </trkpt>
      <trkpt lat="2.929267" lon="-75.17439">
        <ele>645.0</ele>
        <time>2021-08-21T19:53:34Z</time>
      </trkpt>
      <trkpt lat="2.929331" lon="-75.1744">
        <ele>644.8</ele>
        <time>2021-08-21T19:53:35Z</time>
      </trkpt>
      <trkpt lat="2.929395" lon="-75.174416">
        <ele>644.6</ele>
        <time>2021-08-21T19:53:36Z</time>
      </trkpt>
      <trkpt lat="2.929461" lon="-75.17443">
        <ele>644.4</ele>
        <time>2021-08-21T19:53:37Z</time>
      </trkpt>
      <trkpt lat="2.929526" lon="-75.174446">
        <ele>644.2</ele>
        <time>2021-08-21T19:53:38Z</time>
      </trkpt>
      <trkpt lat="2.929592" lon="-75.17446">
        <ele>643.9</ele>
        <time>2021-08-21T19:53:39Z</time>
      </trkpt>
      <trkpt lat="2.929657" lon="-75.17449">
        <ele>643.6</ele>
        <time>2021-08-21T19:53:40Z</time>
      </trkpt>
      <trkpt lat="2.92972" lon="-75.17452">
        <ele>643.3</ele>
        <time>2021-08-21T19:53:41Z</time>
      </trkpt>
      <trkpt lat="2.929782" lon="-75.17456">
        <ele>643.0</ele>
        <time>2021-08-21T19:53:42Z</time>
      </trkpt>
      <trkpt lat="2.929843" lon="-75.1746">
        <ele>642.7</ele>
        <time>2021-08-21T19:53:43Z</time>
      </trkpt>
      <trkpt lat="2.9299" lon="-75.174644">
        <ele>642.4</ele>
        <time>2021-08-21T19:53:44Z</time>
      </trkpt>
      <trkpt lat="2.929954" lon="-75.1747">
        <ele>642.1</ele>
        <time>2021-08-21T19:53:45Z</time>
      </trkpt>
      <trkpt lat="2.930002" lon="-75.17476">
        <ele>641.8</ele>
        <time>2021-08-21T19:53:46Z</time>
      </trkpt>
      <trkpt lat="2.930044" lon="-75.17483">
        <ele>641.6</ele>
        <time>2021-08-21T19:53:47Z</time>
      </trkpt>
      <trkpt lat="2.930082" lon="-75.1749">
        <ele>641.3</ele>
        <time>2021-08-21T19:53:48Z</time>
      </trkpt>
      <trkpt lat="2.930114" lon="-75.174965">
        <ele>641.1</ele>
        <time>2021-08-21T19:53:49Z</time>
      </trkpt>
      <trkpt lat="2.930142" lon="-75.17504">
        <ele>640.9</ele>
        <time>2021-08-21T19:53:50Z</time>
      </trkpt>
      <trkpt lat="2.930169" lon="-75.17511">
        <ele>640.6</ele>
        <time>2021-08-21T19:53:50Z</time>
      </trkpt>
      <trkpt lat="2.930271" lon="-75.17542">
        <ele>639.7</ele>
        <time>2021-08-21T19:53:53Z</time>
      </trkpt>
      <trkpt lat="2.930276" lon="-75.17544">
        <ele>639.6</ele>
        <time>2021-08-21T19:53:54Z</time>
      </trkpt>
      <trkpt lat="2.930286" lon="-75.175476">
        <ele>639.5</ele>
        <time>2021-08-21T19:53:55Z</time>
      </trkpt>
      <trkpt lat="2.9303" lon="-75.17553">
        <ele>639.4</ele>
        <time>2021-08-21T19:53:56Z</time>
      </trkpt>
      <trkpt lat="2.930316" lon="-75.17559">
        <ele>639.3</ele>
        <time>2021-08-21T19:53:57Z</time>
      </trkpt>
      <trkpt lat="2.930335" lon="-75.17566">
        <ele>639.1</ele>
        <time>2021-08-21T19:53:58Z</time>
      </trkpt>
      <trkpt lat="2.930355" lon="-75.17573">
        <ele>639.0</ele>
        <time>2021-08-21T19:53:59Z</time>
      </trkpt>
      <trkpt lat="2.930375" lon="-75.1758">
        <ele>638.8</ele>
        <time>2021-08-21T19:54:00Z</time>
      </trkpt>
      <trkpt lat="2.930396" lon="-75.175865">
        <ele>638.6</ele>
        <time>2021-08-21T19:54:01Z</time>
      </trkpt>
      <trkpt lat="2.930416" lon="-75.17594">
        <ele>638.4</ele>
        <time>2021-08-21T19:54:02Z</time>
      </trkpt>
      <trkpt lat="2.930436" lon="-75.17601">
        <ele>638.2</ele>
        <time>2021-08-21T19:54:03Z</time>
      </trkpt>
      <trkpt lat="2.930455" lon="-75.17608">
        <ele>638.0</ele>
        <time>2021-08-21T19:54:04Z</time>
      </trkpt>
      <trkpt lat="2.930475" lon="-75.176155">
        <ele>637.8</ele>
        <time>2021-08-21T19:54:05Z</time>
      </trkpt>
      <trkpt lat="2.930495" lon="-75.17622">
        <ele>637.6</ele>
        <time>2021-08-21T19:54:06Z</time>
      </trkpt>
      <trkpt lat="2.930515" lon="-75.17629">
        <ele>637.5</ele>
        <time>2021-08-21T19:54:07Z</time>
      </trkpt>
      <trkpt lat="2.930537" lon="-75.17637">
        <ele>637.3</ele>
        <time>2021-08-21T19:54:08Z</time>
      </trkpt>
      <trkpt lat="2.930556" lon="-75.17644">
        <ele>637.2</ele>
        <time>2021-08-21T19:54:09Z</time>
      </trkpt>
      <trkpt lat="2.930576" lon="-75.1765">
        <ele>637.2</ele>
        <time>2021-08-21T19:54:10Z</time>
      </trkpt>
      <trkpt lat="2.930596" lon="-75.17657">
        <ele>637.1</ele>
        <time>2021-08-21T19:54:11Z</time>
      </trkpt>
      <trkpt lat="2.930616" lon="-75.176636">
        <ele>637.1</ele>
        <time>2021-08-21T19:54:12Z</time>
      </trkpt>
      <trkpt lat="2.930636" lon="-75.176704">
        <ele>637.1</ele>
        <time>2021-08-21T19:54:13Z</time>
      </trkpt>
      <trkpt lat="2.930657" lon="-75.176765">
        <ele>637.0</ele>
        <time>2021-08-21T19:54:14Z</time>
      </trkpt>
      <trkpt lat="2.930677" lon="-75.17683">
        <ele>637.0</ele>
        <time>2021-08-21T19:54:15Z</time>
      </trkpt>
      <trkpt lat="2.930697" lon="-75.176895">
        <ele>637.0</ele>
        <time>2021-08-21T19:54:16Z</time>
      </trkpt>
      <trkpt lat="2.930718" lon="-75.176956">
        <ele>636.9</ele>
        <time>2021-08-21T19:54:17Z</time>
      </trkpt>
      <trkpt lat="2.930738" lon="-75.17702">
        <ele>636.9</ele>
        <time>2021-08-21T19:54:18Z</time>
      </trkpt>
      <trkpt lat="2.930757" lon="-75.17708">
        <ele>636.9</ele>
        <time>2021-08-21T19:54:19Z</time>
      </trkpt>
      <trkpt lat="2.930776" lon="-75.17714">
        <ele>636.9</ele>
        <time>2021-08-21T19:54:20Z</time>
      </trkpt>
      <trkpt lat="2.930794" lon="-75.1772">
        <ele>637.0</ele>
        <time>2021-08-21T19:54:21Z</time>
      </trkpt>
      <trkpt lat="2.930811" lon="-75.17726">
        <ele>637.0</ele>
        <time>2021-08-21T19:54:22Z</time>
      </trkpt>
      <trkpt lat="2.930829" lon="-75.17732">
        <ele>637.0</ele>
        <time>2021-08-21T19:54:23Z</time>
      </trkpt>
      <trkpt lat="2.930847" lon="-75.17738">
        <ele>637.0</ele>
        <time>2021-08-21T19:54:24Z</time>
      </trkpt>
      <trkpt lat="2.930863" lon="-75.17744">
        <ele>636.9</ele>
        <time>2021-08-21T19:54:25Z</time>
      </trkpt>
      <trkpt lat="2.930879" lon="-75.1775">
        <ele>636.9</ele>
        <time>2021-08-21T19:54:26Z</time>
      </trkpt>
      <trkpt lat="2.930896" lon="-75.17756">
        <ele>636.9</ele>
        <time>2021-08-21T19:54:27Z</time>
      </trkpt>
      <trkpt lat="2.930912" lon="-75.17761">
        <ele>636.9</ele>
        <time>2021-08-21T19:54:28Z</time>
      </trkpt>
      <trkpt lat="2.93093" lon="-75.17767">
        <ele>636.9</ele>
        <time>2021-08-21T19:54:29Z</time>
      </trkpt>
      <trkpt lat="2.930947" lon="-75.177734">
        <ele>636.9</ele>
        <time>2021-08-21T19:54:30Z</time>
      </trkpt>
      <trkpt lat="2.930965" lon="-75.177795">
        <ele>636.8</ele>
        <time>2021-08-21T19:54:31Z</time>
      </trkpt>
      <trkpt lat="2.930983" lon="-75.17785">
        <ele>636.8</ele>
        <time>2021-08-21T19:54:32Z</time>
      </trkpt>
      <trkpt lat="2.931002" lon="-75.17791">
        <ele>636.7</ele>
        <time>2021-08-21T19:54:33Z</time>
      </trkpt>
      <trkpt lat="2.931022" lon="-75.17798">
        <ele>636.6</ele>
        <time>2021-08-21T19:54:34Z</time>
      </trkpt>
      <trkpt lat="2.93104" lon="-75.17803">
        <ele>636.5</ele>
        <time>2021-08-21T19:54:35Z</time>
      </trkpt>
      <trkpt lat="2.931058" lon="-75.17809">
        <ele>636.4</ele>
        <time>2021-08-21T19:54:36Z</time>
      </trkpt>
      <trkpt lat="2.931077" lon="-75.17816">
        <ele>636.3</ele>
        <time>2021-08-21T19:54:37Z</time>
      </trkpt>
      <trkpt lat="2.931095" lon="-75.17822">
        <ele>636.1</ele>
        <time>2021-08-21T19:54:38Z</time>
      </trkpt>
      <trkpt lat="2.931112" lon="-75.17828">
        <ele>636.0</ele>
        <time>2021-08-21T19:54:39Z</time>
      </trkpt>
      <trkpt lat="2.931129" lon="-75.178345">
        <ele>635.9</ele>
        <time>2021-08-21T19:54:40Z</time>
      </trkpt>
      <trkpt lat="2.931147" lon="-75.178406">
        <ele>635.7</ele>
        <time>2021-08-21T19:54:41Z</time>
      </trkpt>
      <trkpt lat="2.931165" lon="-75.17847">
        <ele>635.6</ele>
        <time>2021-08-21T19:54:42Z</time>
      </trkpt>
      <trkpt lat="2.931184" lon="-75.17853">
        <ele>635.5</ele>
        <time>2021-08-21T19:54:43Z</time>
      </trkpt>
      <trkpt lat="2.931203" lon="-75.1786">
        <ele>635.3</ele>
        <time>2021-08-21T19:54:44Z</time>
      </trkpt>
      <trkpt lat="2.931222" lon="-75.17866">
        <ele>635.2</ele>
        <time>2021-08-21T19:54:45Z</time>
      </trkpt>
      <trkpt lat="2.931241" lon="-75.17873">
        <ele>635.1</ele>
        <time>2021-08-21T19:54:46Z</time>
      </trkpt>
      <trkpt lat="2.93126" lon="-75.17879">
        <ele>635.0</ele>
        <time>2021-08-21T19:54:47Z</time>
      </trkpt>
      <trkpt lat="2.931279" lon="-75.178856">
        <ele>634.9</ele>
        <time>2021-08-21T19:54:48Z</time>
      </trkpt>
      <trkpt lat="2.931297" lon="-75.178925">
        <ele>634.8</ele>
        <time>2021-08-21T19:54:49Z</time>
      </trkpt>
      <trkpt lat="2.931316" lon="-75.17899">
        <ele>634.7</ele>
        <time>2021-08-21T19:54:50Z</time>
      </trkpt>
      <trkpt lat="2.931333" lon="-75.179054">
        <ele>634.6</ele>
        <time>2021-08-21T19:54:51Z</time>
      </trkpt>
      <trkpt lat="2.93135" lon="-75.179115">
        <ele>634.5</ele>
        <time>2021-08-21T19:54:52Z</time>
      </trkpt>
      <trkpt lat="2.931368" lon="-75.17918">
        <ele>634.4</ele>
        <time>2021-08-21T19:54:53Z</time>
      </trkpt>
      <trkpt lat="2.931386" lon="-75.17924">
        <ele>634.3</ele>
        <time>2021-08-21T19:54:54Z</time>
      </trkpt>
      <trkpt lat="2.931404" lon="-75.1793">
        <ele>634.2</ele>
        <time>2021-08-21T19:54:55Z</time>
      </trkpt>
      <trkpt lat="2.931422" lon="-75.17936">
        <ele>634.1</ele>
        <time>2021-08-21T19:54:56Z</time>
      </trkpt>
      <trkpt lat="2.93144" lon="-75.17943">
        <ele>634.0</ele>
        <time>2021-08-21T19:54:57Z</time>
      </trkpt>
      <trkpt lat="2.931458" lon="-75.17949">
        <ele>633.9</ele>
        <time>2021-08-21T19:54:58Z</time>
      </trkpt>
      <trkpt lat="2.931476" lon="-75.17955">
        <ele>633.8</ele>
        <time>2021-08-21T19:54:59Z</time>
      </trkpt>
      <trkpt lat="2.931495" lon="-75.17961">
        <ele>633.7</ele>
        <time>2021-08-21T19:55:00Z</time>
      </trkpt>
      <trkpt lat="2.931512" lon="-75.17967">
        <ele>633.6</ele>
        <time>2021-08-21T19:55:01Z</time>
      </trkpt>
      <trkpt lat="2.93153" lon="-75.17974">
        <ele>633.5</ele>
        <time>2021-08-21T19:55:02Z</time>
      </trkpt>
      <trkpt lat="2.931549" lon="-75.1798">
        <ele>633.4</ele>
        <time>2021-08-21T19:55:03Z</time>
      </trkpt>
      <trkpt lat="2.931567" lon="-75.17987">
        <ele>633.3</ele>
        <time>2021-08-21T19:55:04Z</time>
      </trkpt>
      <trkpt lat="2.931584" lon="-75.17993">
        <ele>633.2</ele>
        <time>2021-08-21T19:55:05Z</time>
      </trkpt>
      <trkpt lat="2.931601" lon="-75.17999">
        <ele>633.0</ele>
        <time>2021-08-21T19:55:06Z</time>
      </trkpt>
      <trkpt lat="2.931619" lon="-75.18006">
        <ele>632.8</ele>
        <time>2021-08-21T19:55:07Z</time>
      </trkpt>
      <trkpt lat="2.931637" lon="-75.18012">
        <ele>632.6</ele>
        <time>2021-08-21T19:55:08Z</time>
      </trkpt>
      <trkpt lat="2.931656" lon="-75.18019">
        <ele>632.3</ele>
        <time>2021-08-21T19:55:09Z</time>
      </trkpt>
      <trkpt lat="2.931675" lon="-75.18025">
        <ele>632.0</ele>
        <time>2021-08-21T19:55:10Z</time>
      </trkpt>
      <trkpt lat="2.931695" lon="-75.18033">
        <ele>631.7</ele>
        <time>2021-08-21T19:55:11Z</time>
      </trkpt>
      <trkpt lat="2.931713" lon="-75.18039">
        <ele>631.4</ele>
        <time>2021-08-21T19:55:12Z</time>
      </trkpt>
      <trkpt lat="2.931732" lon="-75.18046">
        <ele>631.1</ele>
        <time>2021-08-21T19:55:13Z</time>
      </trkpt>
      <trkpt lat="2.931753" lon="-75.18053">
        <ele>630.8</ele>
        <time>2021-08-21T19:55:13Z</time>
      </trkpt>
      <trkpt lat="2.931862" lon="-75.18089">
        <ele>629.0</ele>
        <time>2021-08-21T19:55:17Z</time>
      </trkpt>
      <trkpt lat="2.931868" lon="-75.18091">
        <ele>628.9</ele>
        <time>2021-08-21T19:55:18Z</time>
      </trkpt>
      <trkpt lat="2.93188" lon="-75.18095">
        <ele>628.8</ele>
        <time>2021-08-21T19:55:19Z</time>
      </trkpt>
      <trkpt lat="2.931896" lon="-75.18101">
        <ele>628.5</ele>
        <time>2021-08-21T19:55:20Z</time>
      </trkpt>
      <trkpt lat="2.931914" lon="-75.18107">
        <ele>628.2</ele>
        <time>2021-08-21T19:55:21Z</time>
      </trkpt>
      <trkpt lat="2.931934" lon="-75.18114">
        <ele>627.9</ele>
        <time>2021-08-21T19:55:22Z</time>
      </trkpt>
      <trkpt lat="2.931956" lon="-75.18121">
        <ele>627.5</ele>
        <time>2021-08-21T19:55:23Z</time>
      </trkpt>
      <trkpt lat="2.931978" lon="-75.18129">
        <ele>627.2</ele>
        <time>2021-08-21T19:55:24Z</time>
      </trkpt>
      <trkpt lat="2.932001" lon="-75.181366">
        <ele>626.8</ele>
        <time>2021-08-21T19:55:25Z</time>
      </trkpt>
      <trkpt lat="2.932024" lon="-75.18145">
        <ele>626.5</ele>
        <time>2021-08-21T19:55:26Z</time>
      </trkpt>
      <trkpt lat="2.932049" lon="-75.18153">
        <ele>626.2</ele>
        <time>2021-08-21T19:55:27Z</time>
      </trkpt>
      <trkpt lat="2.932074" lon="-75.18161">
        <ele>625.9</ele>
        <time>2021-08-21T19:55:28Z</time>
      </trkpt>
      <trkpt lat="2.932098" lon="-75.181694">
        <ele>625.7</ele>
        <time>2021-08-21T19:55:29Z</time>
      </trkpt>
      <trkpt lat="2.932123" lon="-75.18178">
        <ele>625.4</ele>
        <time>2021-08-21T19:55:30Z</time>
      </trkpt>
      <trkpt lat="2.932147" lon="-75.18186">
        <ele>625.2</ele>
        <time>2021-08-21T19:55:31Z</time>
      </trkpt>
      <trkpt lat="2.932172" lon="-75.181946">
        <ele>625.0</ele>
        <time>2021-08-21T19:55:32Z</time>
      </trkpt>
      <trkpt lat="2.932197" lon="-75.18202">
        <ele>624.9</ele>
        <time>2021-08-21T19:55:33Z</time>
      </trkpt>
      <trkpt lat="2.932222" lon="-75.182106">
        <ele>624.7</ele>
        <time>2021-08-21T19:55:34Z</time>
      </trkpt>
      <trkpt lat="2.932247" lon="-75.18218">
        <ele>624.6</ele>
        <time>2021-08-21T19:55:35Z</time>
      </trkpt>
      <trkpt lat="2.932271" lon="-75.18227">
        <ele>624.5</ele>
        <time>2021-08-21T19:55:36Z</time>
      </trkpt>
      <trkpt lat="2.932296" lon="-75.18234">
        <ele>624.5</ele>
        <time>2021-08-21T19:55:37Z</time>
      </trkpt>
      <trkpt lat="2.932322" lon="-75.18242">
        <ele>624.4</ele>
        <time>2021-08-21T19:55:38Z</time>
      </trkpt>
      <trkpt lat="2.932347" lon="-75.182495">
        <ele>624.4</ele>
        <time>2021-08-21T19:55:39Z</time>
      </trkpt>
      <trkpt lat="2.932371" lon="-75.18257">
        <ele>624.4</ele>
        <time>2021-08-21T19:55:40Z</time>
      </trkpt>
      <trkpt lat="2.932394" lon="-75.18265">
        <ele>624.4</ele>
        <time>2021-08-21T19:55:41Z</time>
      </trkpt>
      <trkpt lat="2.932417" lon="-75.182724">
        <ele>624.4</ele>
        <time>2021-08-21T19:55:42Z</time>
      </trkpt>
      <trkpt lat="2.932438" lon="-75.1828">
        <ele>624.4</ele>
        <time>2021-08-21T19:55:43Z</time>
      </trkpt>
      <trkpt lat="2.932457" lon="-75.18288">
        <ele>624.4</ele>
        <time>2021-08-21T19:55:44Z</time>
      </trkpt>
      <trkpt lat="2.932472" lon="-75.18295">
        <ele>624.3</ele>
        <time>2021-08-21T19:55:45Z</time>
      </trkpt>
      <trkpt lat="2.932482" lon="-75.18302">
        <ele>624.3</ele>
        <time>2021-08-21T19:55:46Z</time>
      </trkpt>
      <trkpt lat="2.932487" lon="-75.1831">
        <ele>624.3</ele>
        <time>2021-08-21T19:55:47Z</time>
      </trkpt>
      <trkpt lat="2.932486" lon="-75.18317">
        <ele>624.2</ele>
        <time>2021-08-21T19:55:48Z</time>
      </trkpt>
      <trkpt lat="2.932483" lon="-75.183235">
        <ele>624.2</ele>
        <time>2021-08-21T19:55:49Z</time>
      </trkpt>
      <trkpt lat="2.932477" lon="-75.18331">
        <ele>624.2</ele>
        <time>2021-08-21T19:55:50Z</time>
      </trkpt>
      <trkpt lat="2.932468" lon="-75.18337">
        <ele>624.2</ele>
        <time>2021-08-21T19:55:51Z</time>
      </trkpt>
      <trkpt lat="2.932459" lon="-75.18344">
        <ele>624.2</ele>
        <time>2021-08-21T19:55:52Z</time>
      </trkpt>
      <trkpt lat="2.93245" lon="-75.18351">
        <ele>624.1</ele>
        <time>2021-08-21T19:55:53Z</time>
      </trkpt>
      <trkpt lat="2.932444" lon="-75.18358">
        <ele>624.1</ele>
        <time>2021-08-21T19:55:54Z</time>
      </trkpt>
      <trkpt lat="2.932441" lon="-75.18364">
        <ele>624.1</ele>
        <time>2021-08-21T19:55:55Z</time>
      </trkpt>
      <trkpt lat="2.932441" lon="-75.18371">
        <ele>624.1</ele>
        <time>2021-08-21T19:55:56Z</time>
      </trkpt>
      <trkpt lat="2.932443" lon="-75.18378">
        <ele>624.0</ele>
        <time>2021-08-21T19:55:57Z</time>
      </trkpt>
      <trkpt lat="2.932448" lon="-75.183846">
        <ele>624.0</ele>
        <time>2021-08-21T19:55:58Z</time>
      </trkpt>
      <trkpt lat="2.932454" lon="-75.183914">
        <ele>624.0</ele>
        <time>2021-08-21T19:55:59Z</time>
      </trkpt>
      <trkpt lat="2.932461" lon="-75.18398">
        <ele>624.0</ele>
        <time>2021-08-21T19:56:00Z</time>
      </trkpt>
      <trkpt lat="2.932469" lon="-75.18405">
        <ele>624.0</ele>
        <time>2021-08-21T19:56:01Z</time>
      </trkpt>
      <trkpt lat="2.932476" lon="-75.18412">
        <ele>623.9</ele>
        <time>2021-08-21T19:56:02Z</time>
      </trkpt>
      <trkpt lat="2.932484" lon="-75.18419">
        <ele>623.9</ele>
        <time>2021-08-21T19:56:03Z</time>
      </trkpt>
      <trkpt lat="2.932493" lon="-75.18426">
        <ele>623.9</ele>
        <time>2021-08-21T19:56:04Z</time>
      </trkpt>
      <trkpt lat="2.932502" lon="-75.18432">
        <ele>623.8</ele>
        <time>2021-08-21T19:56:05Z</time>
      </trkpt>
      <trkpt lat="2.932511" lon="-75.18439">
        <ele>623.8</ele>
        <time>2021-08-21T19:56:06Z</time>
      </trkpt>
      <trkpt lat="2.932519" lon="-75.184456">
        <ele>623.7</ele>
        <time>2021-08-21T19:56:07Z</time>
      </trkpt>
      <trkpt lat="2.932527" lon="-75.18452">
        <ele>623.6</ele>
        <time>2021-08-21T19:56:07Z</time>
      </trkpt>
      <trkpt lat="2.932536" lon="-75.184586">
        <ele>623.5</ele>
        <time>2021-08-21T19:56:08Z</time>
      </trkpt>
      <trkpt lat="2.932544" lon="-75.18465">
        <ele>623.4</ele>
        <time>2021-08-21T19:56:09Z</time>
      </trkpt>
      <trkpt lat="2.932551" lon="-75.18471">
        <ele>623.3</ele>
        <time>2021-08-21T19:56:10Z</time>
      </trkpt>
      <trkpt lat="2.932559" lon="-75.18477">
        <ele>623.2</ele>
        <time>2021-08-21T19:56:11Z</time>
      </trkpt>
      <trkpt lat="2.932567" lon="-75.18483">
        <ele>623.1</ele>
        <time>2021-08-21T19:56:12Z</time>
      </trkpt>
      <trkpt lat="2.932574" lon="-75.18489">
        <ele>623.0</ele>
        <time>2021-08-21T19:56:13Z</time>
      </trkpt>
      <trkpt lat="2.932581" lon="-75.18495">
        <ele>622.9</ele>
        <time>2021-08-21T19:56:14Z</time>
      </trkpt>
      <trkpt lat="2.932588" lon="-75.18501">
        <ele>622.9</ele>
        <time>2021-08-21T19:56:15Z</time>
      </trkpt>
      <trkpt lat="2.932595" lon="-75.185074">
        <ele>622.8</ele>
        <time>2021-08-21T19:56:16Z</time>
      </trkpt>
      <trkpt lat="2.932602" lon="-75.185135">
        <ele>622.7</ele>
        <time>2021-08-21T19:56:17Z</time>
      </trkpt>
      <trkpt lat="2.932609" lon="-75.185196">
        <ele>622.7</ele>
        <time>2021-08-21T19:56:18Z</time>
      </trkpt>
      <trkpt lat="2.932615" lon="-75.18526">
        <ele>622.7</ele>
        <time>2021-08-21T19:56:19Z</time>
      </trkpt>
      <trkpt lat="2.932622" lon="-75.18532">
        <ele>622.7</ele>
        <time>2021-08-21T19:56:20Z</time>
      </trkpt>
      <trkpt lat="2.932628" lon="-75.18538">
        <ele>622.7</ele>
        <time>2021-08-21T19:56:21Z</time>
      </trkpt>
      <trkpt lat="2.932634" lon="-75.18544">
        <ele>622.8</ele>
        <time>2021-08-21T19:56:22Z</time>
      </trkpt>
      <trkpt lat="2.932641" lon="-75.1855">
        <ele>622.8</ele>
        <time>2021-08-21T19:56:23Z</time>
      </trkpt>
      <trkpt lat="2.932649" lon="-75.18556">
        <ele>622.8</ele>
        <time>2021-08-21T19:56:24Z</time>
      </trkpt>
      <trkpt lat="2.932655" lon="-75.18562">
        <ele>622.8</ele>
        <time>2021-08-21T19:56:25Z</time>
      </trkpt>
      <trkpt lat="2.932661" lon="-75.18568">
        <ele>622.8</ele>
        <time>2021-08-21T19:56:26Z</time>
      </trkpt>
      <trkpt lat="2.932667" lon="-75.185745">
        <ele>622.8</ele>
        <time>2021-08-21T19:56:27Z</time>
      </trkpt>
      <trkpt lat="2.932673" lon="-75.1858">
        <ele>622.8</ele>
        <time>2021-08-21T19:56:28Z</time>
      </trkpt>
      <trkpt lat="2.93268" lon="-75.18587">
        <ele>622.8</ele>
        <time>2021-08-21T19:56:29Z</time>
      </trkpt>
      <trkpt lat="2.932686" lon="-75.18593">
        <ele>622.8</ele>
        <time>2021-08-21T19:56:30Z</time>
      </trkpt>
      <trkpt lat="2.932692" lon="-75.18599">
        <ele>622.8</ele>
        <time>2021-08-21T19:56:31Z</time>
      </trkpt>
      <trkpt lat="2.932697" lon="-75.18605">
        <ele>622.7</ele>
        <time>2021-08-21T19:56:32Z</time>
      </trkpt>
      <trkpt lat="2.932703" lon="-75.18612">
        <ele>622.7</ele>
        <time>2021-08-21T19:56:33Z</time>
      </trkpt>
      <trkpt lat="2.932708" lon="-75.18618">
        <ele>622.7</ele>
        <time>2021-08-21T19:56:34Z</time>
      </trkpt>
      <trkpt lat="2.932713" lon="-75.18625">
        <ele>622.6</ele>
        <time>2021-08-21T19:56:35Z</time>
      </trkpt>
      <trkpt lat="2.932718" lon="-75.18631">
        <ele>622.7</ele>
        <time>2021-08-21T19:56:36Z</time>
      </trkpt>
      <trkpt lat="2.932724" lon="-75.18638">
        <ele>622.7</ele>
        <time>2021-08-21T19:56:37Z</time>
      </trkpt>
      <trkpt lat="2.93273" lon="-75.18644">
        <ele>622.8</ele>
        <time>2021-08-21T19:56:38Z</time>
      </trkpt>
      <trkpt lat="2.932736" lon="-75.1865">
        <ele>623.0</ele>
        <time>2021-08-21T19:56:39Z</time>
      </trkpt>
      <trkpt lat="2.93274" lon="-75.18657">
        <ele>623.1</ele>
        <time>2021-08-21T19:56:40Z</time>
      </trkpt>
      <trkpt lat="2.932744" lon="-75.18662">
        <ele>623.3</ele>
        <time>2021-08-21T19:56:41Z</time>
      </trkpt>
      <trkpt lat="2.932748" lon="-75.18668">
        <ele>623.6</ele>
        <time>2021-08-21T19:56:42Z</time>
      </trkpt>
      <trkpt lat="2.932753" lon="-75.18674">
        <ele>623.8</ele>
        <time>2021-08-21T19:56:43Z</time>
      </trkpt>
      <trkpt lat="2.932758" lon="-75.18679">
        <ele>624.0</ele>
        <time>2021-08-21T19:56:44Z</time>
      </trkpt>
      <trkpt lat="2.932763" lon="-75.186844">
        <ele>624.3</ele>
        <time>2021-08-21T19:56:45Z</time>
      </trkpt>
      <trkpt lat="2.932768" lon="-75.1869">
        <ele>624.5</ele>
        <time>2021-08-21T19:56:46Z</time>
      </trkpt>
      <trkpt lat="2.932773" lon="-75.18694">
        <ele>624.7</ele>
        <time>2021-08-21T19:56:47Z</time>
      </trkpt>
      <trkpt lat="2.932778" lon="-75.18699">
        <ele>624.9</ele>
        <time>2021-08-21T19:56:48Z</time>
      </trkpt>
      <trkpt lat="2.932784" lon="-75.187035">
        <ele>625.0</ele>
        <time>2021-08-21T19:56:49Z</time>
      </trkpt>
      <trkpt lat="2.932793" lon="-75.18708">
        <ele>625.0</ele>
        <time>2021-08-21T19:56:50Z</time>
      </trkpt>
      <trkpt lat="2.932804" lon="-75.187126">
        <ele>625.1</ele>
        <time>2021-08-21T19:56:51Z</time>
      </trkpt>
      <trkpt lat="2.932817" lon="-75.18717">
        <ele>625.1</ele>
        <time>2021-08-21T19:56:52Z</time>
      </trkpt>
      <trkpt lat="2.932834" lon="-75.18721">
        <ele>625.1</ele>
        <time>2021-08-21T19:56:53Z</time>
      </trkpt>
      <trkpt lat="2.932853" lon="-75.187256">
        <ele>625.1</ele>
        <time>2021-08-21T19:56:54Z</time>
      </trkpt>
      <trkpt lat="2.932875" lon="-75.1873">
        <ele>625.1</ele>
        <time>2021-08-21T19:56:55Z</time>
      </trkpt>
      <trkpt lat="2.932898" lon="-75.18735">
        <ele>625.0</ele>
        <time>2021-08-21T19:56:56Z</time>
      </trkpt>
      <trkpt lat="2.932923" lon="-75.18739">
        <ele>625.0</ele>
        <time>2021-08-21T19:56:57Z</time>
      </trkpt>
      <trkpt lat="2.932947" lon="-75.18744">
        <ele>624.9</ele>
        <time>2021-08-21T19:56:58Z</time>
      </trkpt>
      <trkpt lat="2.932973" lon="-75.187485">
        <ele>624.9</ele>
        <time>2021-08-21T19:56:59Z</time>
      </trkpt>
      <trkpt lat="2.933" lon="-75.18753">
        <ele>624.9</ele>
        <time>2021-08-21T19:57:00Z</time>
      </trkpt>
      <trkpt lat="2.933027" lon="-75.18758">
        <ele>624.8</ele>
        <time>2021-08-21T19:57:01Z</time>
      </trkpt>
      <trkpt lat="2.933055" lon="-75.18762">
        <ele>624.8</ele>
        <time>2021-08-21T19:57:02Z</time>
      </trkpt>
      <trkpt lat="2.933083" lon="-75.18767">
        <ele>624.7</ele>
        <time>2021-08-21T19:57:03Z</time>
      </trkpt>
      <trkpt lat="2.933112" lon="-75.18771">
        <ele>624.7</ele>
        <time>2021-08-21T19:57:04Z</time>
      </trkpt>
      <trkpt lat="2.933141" lon="-75.18776">
        <ele>624.6</ele>
        <time>2021-08-21T19:57:05Z</time>
      </trkpt>
      <trkpt lat="2.933169" lon="-75.18781">
        <ele>624.5</ele>
        <time>2021-08-21T19:57:05Z</time>
      </trkpt>
      <trkpt lat="2.933284" lon="-75.18801">
        <ele>623.7</ele>
        <time>2021-08-21T19:57:08Z</time>
      </trkpt>
      <trkpt lat="2.93329" lon="-75.18803">
        <ele>623.6</ele>
        <time>2021-08-21T19:57:09Z</time>
      </trkpt>
      <trkpt lat="2.933304" lon="-75.18806">
        <ele>623.4</ele>
        <time>2021-08-21T19:57:10Z</time>
      </trkpt>
      <trkpt lat="2.933323" lon="-75.188095">
        <ele>623.2</ele>
        <time>2021-08-21T19:57:11Z</time>
      </trkpt>
      <trkpt lat="2.933345" lon="-75.18815">
        <ele>622.9</ele>
        <time>2021-08-21T19:57:12Z</time>
      </trkpt>
      <trkpt lat="2.933369" lon="-75.1882">
        <ele>622.5</ele>
        <time>2021-08-21T19:57:13Z</time>
      </trkpt>
      <trkpt lat="2.933394" lon="-75.18826">
        <ele>622.1</ele>
        <time>2021-08-21T19:57:14Z</time>
      </trkpt>
      <trkpt lat="2.93342" lon="-75.18833">
        <ele>621.6</ele>
        <time>2021-08-21T19:57:15Z</time>
      </trkpt>
      <trkpt lat="2.933444" lon="-75.18841">
        <ele>621.2</ele>
        <time>2021-08-21T19:57:16Z</time>
      </trkpt>
      <trkpt lat="2.933464" lon="-75.18848">
        <ele>620.8</ele>
        <time>2021-08-21T19:57:17Z</time>
      </trkpt>
      <trkpt lat="2.933482" lon="-75.18855">
        <ele>620.5</ele>
        <time>2021-08-21T19:57:18Z</time>
      </trkpt>
      <trkpt lat="2.933497" lon="-75.18863">
        <ele>620.2</ele>
        <time>2021-08-21T19:57:19Z</time>
      </trkpt>
      <trkpt lat="2.93351" lon="-75.188705">
        <ele>620.0</ele>
        <time>2021-08-21T19:57:20Z</time>
      </trkpt>
      <trkpt lat="2.933522" lon="-75.18879">
        <ele>619.9</ele>
        <time>2021-08-21T19:57:21Z</time>
      </trkpt>
      <trkpt lat="2.933533" lon="-75.188866">
        <ele>619.9</ele>
        <time>2021-08-21T19:57:22Z</time>
      </trkpt>
      <trkpt lat="2.933543" lon="-75.188934">
        <ele>619.9</ele>
        <time>2021-08-21T19:57:23Z</time>
      </trkpt>
      <trkpt lat="2.933554" lon="-75.18901">
        <ele>620.0</ele>
        <time>2021-08-21T19:57:24Z</time>
      </trkpt>
      <trkpt lat="2.933565" lon="-75.18908">
        <ele>620.2</ele>
        <time>2021-08-21T19:57:25Z</time>
      </trkpt>
      <trkpt lat="2.933577" lon="-75.18915">
        <ele>620.4</ele>
        <time>2021-08-21T19:57:26Z</time>
      </trkpt>
      <trkpt lat="2.93359" lon="-75.18921">
        <ele>620.6</ele>
        <time>2021-08-21T19:57:27Z</time>
      </trkpt>
      <trkpt lat="2.933602" lon="-75.18927">
        <ele>620.8</ele>
        <time>2021-08-21T19:57:28Z</time>
      </trkpt>
      <trkpt lat="2.933614" lon="-75.18932">
        <ele>621.0</ele>
        <time>2021-08-21T19:57:29Z</time>
      </trkpt>
      <trkpt lat="2.933626" lon="-75.18938">
        <ele>621.1</ele>
        <time>2021-08-21T19:57:30Z</time>
      </trkpt>
      <trkpt lat="2.933637" lon="-75.18943">
        <ele>621.3</ele>
        <time>2021-08-21T19:57:31Z</time>
      </trkpt>
      <trkpt lat="2.93365" lon="-75.18948">
        <ele>621.4</ele>
        <time>2021-08-21T19:57:32Z</time>
      </trkpt>
      <trkpt lat="2.933662" lon="-75.18953">
        <ele>621.6</ele>
        <time>2021-08-21T19:57:33Z</time>
      </trkpt>
      <trkpt lat="2.933673" lon="-75.18958">
        <ele>621.7</ele>
        <time>2021-08-21T19:57:34Z</time>
      </trkpt>
      <trkpt lat="2.933683" lon="-75.18963">
        <ele>621.8</ele>
        <time>2021-08-21T19:57:35Z</time>
      </trkpt>
      <trkpt lat="2.933692" lon="-75.189674">
        <ele>621.8</ele>
        <time>2021-08-21T19:57:36Z</time>
      </trkpt>
      <trkpt lat="2.933701" lon="-75.18972">
        <ele>621.8</ele>
        <time>2021-08-21T19:57:37Z</time>
      </trkpt>
      <trkpt lat="2.93371" lon="-75.18977">
        <ele>621.9</ele>
        <time>2021-08-21T19:57:38Z</time>
      </trkpt>
      <trkpt lat="2.93372" lon="-75.18982">
        <ele>621.9</ele>
        <time>2021-08-21T19:57:39Z</time>
      </trkpt>
      <trkpt lat="2.93373" lon="-75.189865">
        <ele>621.9</ele>
        <time>2021-08-21T19:57:40Z</time>
      </trkpt>
      <trkpt lat="2.933739" lon="-75.18992">
        <ele>621.9</ele>
        <time>2021-08-21T19:57:41Z</time>
      </trkpt>
      <trkpt lat="2.933749" lon="-75.189964">
        <ele>621.8</ele>
        <time>2021-08-21T19:57:42Z</time>
      </trkpt>
      <trkpt lat="2.933759" lon="-75.19002">
        <ele>621.8</ele>
        <time>2021-08-21T19:57:43Z</time>
      </trkpt>
      <trkpt lat="2.933769" lon="-75.19007">
        <ele>621.8</ele>
        <time>2021-08-21T19:57:44Z</time>
      </trkpt>
      <trkpt lat="2.93378" lon="-75.190125">
        <ele>621.7</ele>
        <time>2021-08-21T19:57:45Z</time>
      </trkpt>
      <trkpt lat="2.933792" lon="-75.19018">
        <ele>621.7</ele>
        <time>2021-08-21T19:57:46Z</time>
      </trkpt>
      <trkpt lat="2.933802" lon="-75.19023">
        <ele>621.7</ele>
        <time>2021-08-21T19:57:47Z</time>
      </trkpt>
      <trkpt lat="2.933812" lon="-75.190285">
        <ele>621.6</ele>
        <time>2021-08-21T19:57:48Z</time>
      </trkpt>
      <trkpt lat="2.933821" lon="-75.19034">
        <ele>621.6</ele>
        <time>2021-08-21T19:57:49Z</time>
      </trkpt>
      <trkpt lat="2.933831" lon="-75.19039">
        <ele>621.5</ele>
        <time>2021-08-21T19:57:50Z</time>
      </trkpt>
      <trkpt lat="2.933845" lon="-75.190445">
        <ele>621.5</ele>
        <time>2021-08-21T19:57:51Z</time>
      </trkpt>
      <trkpt lat="2.933862" lon="-75.1905">
        <ele>621.4</ele>
        <time>2021-08-21T19:57:52Z</time>
      </trkpt>
      <trkpt lat="2.933884" lon="-75.190544">
        <ele>621.3</ele>
        <time>2021-08-21T19:57:53Z</time>
      </trkpt>
      <trkpt lat="2.933909" lon="-75.19059">
        <ele>621.3</ele>
        <time>2021-08-21T19:57:54Z</time>
      </trkpt>
      <trkpt lat="2.933938" lon="-75.190636">
        <ele>621.2</ele>
        <time>2021-08-21T19:57:55Z</time>
      </trkpt>
      <trkpt lat="2.933972" lon="-75.190674">
        <ele>621.1</ele>
        <time>2021-08-21T19:57:56Z</time>
      </trkpt>
      <trkpt lat="2.934008" lon="-75.19071">
        <ele>621.0</ele>
        <time>2021-08-21T19:57:57Z</time>
      </trkpt>
      <trkpt lat="2.934047" lon="-75.19075">
        <ele>620.9</ele>
        <time>2021-08-21T19:57:58Z</time>
      </trkpt>
      <trkpt lat="2.934088" lon="-75.19079">
        <ele>620.7</ele>
        <time>2021-08-21T19:57:59Z</time>
      </trkpt>
      <trkpt lat="2.934131" lon="-75.19083">
        <ele>620.6</ele>
        <time>2021-08-21T19:58:00Z</time>
      </trkpt>
      <trkpt lat="2.934175" lon="-75.190865">
        <ele>620.5</ele>
        <time>2021-08-21T19:58:01Z</time>
      </trkpt>
      <trkpt lat="2.934219" lon="-75.190895">
        <ele>620.4</ele>
        <time>2021-08-21T19:58:02Z</time>
      </trkpt>
      <trkpt lat="2.934264" lon="-75.19093">
        <ele>620.3</ele>
        <time>2021-08-21T19:58:03Z</time>
      </trkpt>
      <trkpt lat="2.93431" lon="-75.19097">
        <ele>620.1</ele>
        <time>2021-08-21T19:58:04Z</time>
      </trkpt>
      <trkpt lat="2.934356" lon="-75.191">
        <ele>620.0</ele>
        <time>2021-08-21T19:58:05Z</time>
      </trkpt>
      <trkpt lat="2.934401" lon="-75.19104">
        <ele>619.9</ele>
        <time>2021-08-21T19:58:06Z</time>
      </trkpt>
      <trkpt lat="2.934445" lon="-75.19107">
        <ele>619.8</ele>
        <time>2021-08-21T19:58:07Z</time>
      </trkpt>
      <trkpt lat="2.934489" lon="-75.19111">
        <ele>619.7</ele>
        <time>2021-08-21T19:58:08Z</time>
      </trkpt>
      <trkpt lat="2.934536" lon="-75.19115">
        <ele>619.6</ele>
        <time>2021-08-21T19:58:09Z</time>
      </trkpt>
      <trkpt lat="2.934578" lon="-75.19118">
        <ele>619.5</ele>
        <time>2021-08-21T19:58:10Z</time>
      </trkpt>
      <trkpt lat="2.934621" lon="-75.19121">
        <ele>619.4</ele>
        <time>2021-08-21T19:58:11Z</time>
      </trkpt>
      <trkpt lat="2.934663" lon="-75.191246">
        <ele>619.4</ele>
        <time>2021-08-21T19:58:12Z</time>
      </trkpt>
      <trkpt lat="2.934706" lon="-75.19128">
        <ele>619.3</ele>
        <time>2021-08-21T19:58:13Z</time>
      </trkpt>
      <trkpt lat="2.934747" lon="-75.191315">
        <ele>619.2</ele>
        <time>2021-08-21T19:58:14Z</time>
      </trkpt>
      <trkpt lat="2.934787" lon="-75.191345">
        <ele>619.1</ele>
        <time>2021-08-21T19:58:15Z</time>
      </trkpt>
      <trkpt lat="2.934824" lon="-75.19138">
        <ele>619.0</ele>
        <time>2021-08-21T19:58:16Z</time>
      </trkpt>
      <trkpt lat="2.934861" lon="-75.19142">
        <ele>618.9</ele>
        <time>2021-08-21T19:58:17Z</time>
      </trkpt>
      <trkpt lat="2.934895" lon="-75.19146">
        <ele>618.8</ele>
        <time>2021-08-21T19:58:18Z</time>
      </trkpt>
      <trkpt lat="2.934928" lon="-75.1915">
        <ele>618.6</ele>
        <time>2021-08-21T19:58:19Z</time>
      </trkpt>
      <trkpt lat="2.93496" lon="-75.191536">
        <ele>618.5</ele>
        <time>2021-08-21T19:58:20Z</time>
      </trkpt>
      <trkpt lat="2.93499" lon="-75.191574">
        <ele>618.3</ele>
        <time>2021-08-21T19:58:21Z</time>
      </trkpt>
      <trkpt lat="2.935018" lon="-75.19162">
        <ele>618.1</ele>
        <time>2021-08-21T19:58:22Z</time>
      </trkpt>
      <trkpt lat="2.935045" lon="-75.191666">
        <ele>617.9</ele>
        <time>2021-08-21T19:58:23Z</time>
      </trkpt>
      <trkpt lat="2.935071" lon="-75.19171">
        <ele>617.7</ele>
        <time>2021-08-21T19:58:24Z</time>
      </trkpt>
      <trkpt lat="2.935096" lon="-75.191765">
        <ele>617.5</ele>
        <time>2021-08-21T19:58:25Z</time>
      </trkpt>
      <trkpt lat="2.93512" lon="-75.19182">
        <ele>617.3</ele>
        <time>2021-08-21T19:58:26Z</time>
      </trkpt>
      <trkpt lat="2.935143" lon="-75.19187">
        <ele>617.0</ele>
        <time>2021-08-21T19:58:27Z</time>
      </trkpt>
      <trkpt lat="2.935165" lon="-75.19193">
        <ele>616.8</ele>
        <time>2021-08-21T19:58:28Z</time>
      </trkpt>
      <trkpt lat="2.935186" lon="-75.19199">
        <ele>616.5</ele>
        <time>2021-08-21T19:58:29Z</time>
      </trkpt>
      <trkpt lat="2.935206" lon="-75.192055">
        <ele>616.3</ele>
        <time>2021-08-21T19:58:30Z</time>
      </trkpt>
      <trkpt lat="2.935226" lon="-75.192116">
        <ele>616.0</ele>
        <time>2021-08-21T19:58:31Z</time>
      </trkpt>
      <trkpt lat="2.935245" lon="-75.192184">
        <ele>615.7</ele>
        <time>2021-08-21T19:58:32Z</time>
      </trkpt>
      <trkpt lat="2.935264" lon="-75.192245">
        <ele>615.3</ele>
        <time>2021-08-21T19:58:33Z</time>
      </trkpt>
      <trkpt lat="2.935283" lon="-75.192314">
        <ele>615.0</ele>
        <time>2021-08-21T19:58:34Z</time>
      </trkpt>
      <trkpt lat="2.935301" lon="-75.19239">
        <ele>614.7</ele>
        <time>2021-08-21T19:58:35Z</time>
      </trkpt>
      <trkpt lat="2.935317" lon="-75.19246">
        <ele>614.4</ele>
        <time>2021-08-21T19:58:36Z</time>
      </trkpt>
      <trkpt lat="2.935332" lon="-75.19253">
        <ele>614.1</ele>
        <time>2021-08-21T19:58:37Z</time>
      </trkpt>
      <trkpt lat="2.935344" lon="-75.192604">
        <ele>613.9</ele>
        <time>2021-08-21T19:58:38Z</time>
      </trkpt>
      <trkpt lat="2.935353" lon="-75.19267">
        <ele>613.5</ele>
        <time>2021-08-21T19:58:39Z</time>
      </trkpt>
      <trkpt lat="2.935356" lon="-75.19275">
        <ele>613.2</ele>
        <time>2021-08-21T19:58:40Z</time>
      </trkpt>
      <trkpt lat="2.93535" lon="-75.192825">
        <ele>612.8</ele>
        <time>2021-08-21T19:58:41Z</time>
      </trkpt>
      <trkpt lat="2.935335" lon="-75.1929">
        <ele>612.3</ele>
        <time>2021-08-21T19:58:42Z</time>
      </trkpt>
      <trkpt lat="2.935308" lon="-75.19298">
        <ele>611.6</ele>
        <time>2021-08-21T19:58:43Z</time>
      </trkpt>
      <trkpt lat="2.935271" lon="-75.193054">
        <ele>610.8</ele>
        <time>2021-08-21T19:58:44Z</time>
      </trkpt>
      <trkpt lat="2.935224" lon="-75.19312">
        <ele>609.9</ele>
        <time>2021-08-21T19:58:45Z</time>
      </trkpt>
      <trkpt lat="2.935168" lon="-75.1932">
        <ele>608.8</ele>
        <time>2021-08-21T19:58:46Z</time>
      </trkpt>
      <trkpt lat="2.935106" lon="-75.193275">
        <ele>607.7</ele>
        <time>2021-08-21T19:58:47Z</time>
      </trkpt>
      <trkpt lat="2.935038" lon="-75.19335">
        <ele>606.6</ele>
        <time>2021-08-21T19:58:48Z</time>
      </trkpt>
      <trkpt lat="2.934967" lon="-75.19342">
        <ele>605.6</ele>
        <time>2021-08-21T19:58:49Z</time>
      </trkpt>
      <trkpt lat="2.934894" lon="-75.1935">
        <ele>604.7</ele>
        <time>2021-08-21T19:58:50Z</time>
      </trkpt>
      <trkpt lat="2.93482" lon="-75.19357">
        <ele>603.9</ele>
        <time>2021-08-21T19:58:51Z</time>
      </trkpt>
      <trkpt lat="2.934758" lon="-75.19366">
        <ele>603.2</ele>
        <time>2021-08-21T19:58:52Z</time>
      </trkpt>
      <trkpt lat="2.934712" lon="-75.19374">
        <ele>602.6</ele>
        <time>2021-08-21T19:58:53Z</time>
      </trkpt>
      <trkpt lat="2.934681" lon="-75.193825">
        <ele>602.1</ele>
        <time>2021-08-21T19:58:54Z</time>
      </trkpt>
      <trkpt lat="2.934666" lon="-75.19391">
        <ele>601.5</ele>
        <time>2021-08-21T19:58:55Z</time>
      </trkpt>
      <trkpt lat="2.934669" lon="-75.19399">
        <ele>601.0</ele>
        <time>2021-08-21T19:58:56Z</time>
      </trkpt>
      <trkpt lat="2.934689" lon="-75.19407">
        <ele>600.6</ele>
        <time>2021-08-21T19:58:57Z</time>
      </trkpt>
      <trkpt lat="2.934721" lon="-75.19412">
        <ele>600.4</ele>
        <time>2021-08-21T19:58:58Z</time>
      </trkpt>
      <trkpt lat="2.934772" lon="-75.19416">
        <ele>600.1</ele>
        <time>2021-08-21T19:58:59Z</time>
      </trkpt>
      <trkpt lat="2.93483" lon="-75.194176">
        <ele>599.9</ele>
        <time>2021-08-21T19:59:00Z</time>
      </trkpt>
      <trkpt lat="2.934895" lon="-75.19417">
        <ele>599.7</ele>
        <time>2021-08-21T19:59:01Z</time>
      </trkpt>
      <trkpt lat="2.93496" lon="-75.19415">
        <ele>599.5</ele>
        <time>2021-08-21T19:59:02Z</time>
      </trkpt>
      <trkpt lat="2.935022" lon="-75.19413">
        <ele>599.4</ele>
        <time>2021-08-21T19:59:03Z</time>
      </trkpt>
      <trkpt lat="2.935076" lon="-75.1941">
        <ele>599.4</ele>
        <time>2021-08-21T19:59:04Z</time>
      </trkpt>
      <trkpt lat="2.935128" lon="-75.19408">
        <ele>599.5</ele>
        <time>2021-08-21T19:59:05Z</time>
      </trkpt>
      <trkpt lat="2.935179" lon="-75.19405">
        <ele>599.6</ele>
        <time>2021-08-21T19:59:06Z</time>
      </trkpt>
      <trkpt lat="2.935226" lon="-75.19403">
        <ele>599.9</ele>
        <time>2021-08-21T19:59:07Z</time>
      </trkpt>
      <trkpt lat="2.935269" lon="-75.19401">
        <ele>600.1</ele>
        <time>2021-08-21T19:59:08Z</time>
      </trkpt>
      <trkpt lat="2.935306" lon="-75.19399">
        <ele>600.4</ele>
        <time>2021-08-21T19:59:09Z</time>
      </trkpt>
      <trkpt lat="2.935341" lon="-75.19398">
        <ele>600.7</ele>
        <time>2021-08-21T19:59:10Z</time>
      </trkpt>
      <trkpt lat="2.935372" lon="-75.19396">
        <ele>601.1</ele>
        <time>2021-08-21T19:59:11Z</time>
      </trkpt>
      <trkpt lat="2.935403" lon="-75.19395">
        <ele>601.4</ele>
        <time>2021-08-21T19:59:12Z</time>
      </trkpt>
      <trkpt lat="2.93543" lon="-75.19393">
        <ele>601.7</ele>
        <time>2021-08-21T19:59:13Z</time>
      </trkpt>
      <trkpt lat="2.935458" lon="-75.19391">
        <ele>602.1</ele>
        <time>2021-08-21T19:59:14Z</time>
      </trkpt>
      <trkpt lat="2.935487" lon="-75.19389">
        <ele>602.4</ele>
        <time>2021-08-21T19:59:15Z</time>
      </trkpt>
      <trkpt lat="2.935517" lon="-75.193886">
        <ele>602.8</ele>
        <time>2021-08-21T19:59:16Z</time>
      </trkpt>
      <trkpt lat="2.935544" lon="-75.19387">
        <ele>603.1</ele>
        <time>2021-08-21T19:59:17Z</time>
      </trkpt>
      <trkpt lat="2.935572" lon="-75.19386">
        <ele>603.5</ele>
        <time>2021-08-21T19:59:18Z</time>
      </trkpt>
      <trkpt lat="2.9356" lon="-75.19385">
        <ele>603.8</ele>
        <time>2021-08-21T19:59:19Z</time>
      </trkpt>
      <trkpt lat="2.935628" lon="-75.19385">
        <ele>604.1</ele>
        <time>2021-08-21T19:59:20Z</time>
      </trkpt>
      <trkpt lat="2.935658" lon="-75.19384">
        <ele>604.4</ele>
        <time>2021-08-21T19:59:21Z</time>
      </trkpt>
      <trkpt lat="2.935687" lon="-75.19383">
        <ele>604.8</ele>
        <time>2021-08-21T19:59:22Z</time>
      </trkpt>
      <trkpt lat="2.935717" lon="-75.19383">
        <ele>605.1</ele>
        <time>2021-08-21T19:59:23Z</time>
      </trkpt>
      <trkpt lat="2.935748" lon="-75.193825">
        <ele>605.4</ele>
        <time>2021-08-21T19:59:24Z</time>
      </trkpt>
      <trkpt lat="2.935778" lon="-75.193825">
        <ele>605.7</ele>
        <time>2021-08-21T19:59:25Z</time>
      </trkpt>
      <trkpt lat="2.935809" lon="-75.19383">
        <ele>605.9</ele>
        <time>2021-08-21T19:59:26Z</time>
      </trkpt>
      <trkpt lat="2.935841" lon="-75.19383">
        <ele>606.2</ele>
        <time>2021-08-21T19:59:27Z</time>
      </trkpt>
      <trkpt lat="2.935874" lon="-75.19383">
        <ele>606.5</ele>
        <time>2021-08-21T19:59:28Z</time>
      </trkpt>
      <trkpt lat="2.935904" lon="-75.19384">
        <ele>606.8</ele>
        <time>2021-08-21T19:59:29Z</time>
      </trkpt>
      <trkpt lat="2.935935" lon="-75.19385">
        <ele>607.0</ele>
        <time>2021-08-21T19:59:30Z</time>
      </trkpt>
      <trkpt lat="2.935966" lon="-75.193855">
        <ele>607.2</ele>
        <time>2021-08-21T19:59:31Z</time>
      </trkpt>
      <trkpt lat="2.935995" lon="-75.19386">
        <ele>607.5</ele>
        <time>2021-08-21T19:59:32Z</time>
      </trkpt>
      <trkpt lat="2.936023" lon="-75.19387">
        <ele>607.7</ele>
        <time>2021-08-21T19:59:33Z</time>
      </trkpt>
      <trkpt lat="2.936051" lon="-75.19388">
        <ele>607.9</ele>
        <time>2021-08-21T19:59:34Z</time>
      </trkpt>
      <trkpt lat="2.936079" lon="-75.19389">
        <ele>608.1</ele>
        <time>2021-08-21T19:59:35Z</time>
      </trkpt>
      <trkpt lat="2.936106" lon="-75.1939">
        <ele>608.3</ele>
        <time>2021-08-21T19:59:36Z</time>
      </trkpt>
      <trkpt lat="2.936134" lon="-75.19392">
        <ele>608.5</ele>
        <time>2021-08-21T19:59:37Z</time>
      </trkpt>
      <trkpt lat="2.936161" lon="-75.193924">
        <ele>608.7</ele>
        <time>2021-08-21T19:59:38Z</time>
      </trkpt>
      <trkpt lat="2.936189" lon="-75.19394">
        <ele>609.0</ele>
        <time>2021-08-21T19:59:39Z</time>
      </trkpt>
      <trkpt lat="2.936218" lon="-75.19395">
        <ele>609.2</ele>
        <time>2021-08-21T19:59:40Z</time>
      </trkpt>
      <trkpt lat="2.936248" lon="-75.193954">
        <ele>609.4</ele>
        <time>2021-08-21T19:59:41Z</time>
      </trkpt>
      <trkpt lat="2.936277" lon="-75.19397">
        <ele>609.6</ele>
        <time>2021-08-21T19:59:42Z</time>
      </trkpt>
      <trkpt lat="2.936305" lon="-75.193985">
        <ele>609.8</ele>
        <time>2021-08-21T19:59:43Z</time>
      </trkpt>
      <trkpt lat="2.936335" lon="-75.19399">
        <ele>610.0</ele>
        <time>2021-08-21T19:59:44Z</time>
      </trkpt>
      <trkpt lat="2.936364" lon="-75.19401">
        <ele>610.1</ele>
        <time>2021-08-21T19:59:45Z</time>
      </trkpt>
      <trkpt lat="2.936393" lon="-75.19402">
        <ele>610.3</ele>
        <time>2021-08-21T19:59:46Z</time>
      </trkpt>
      <trkpt lat="2.936422" lon="-75.19404">
        <ele>610.5</ele>
        <time>2021-08-21T19:59:47Z</time>
      </trkpt>
      <trkpt lat="2.936451" lon="-75.19406">
        <ele>610.7</ele>
        <time>2021-08-21T19:59:48Z</time>
      </trkpt>
      <trkpt lat="2.936481" lon="-75.19408">
        <ele>610.8</ele>
        <time>2021-08-21T19:59:49Z</time>
      </trkpt>
      <trkpt lat="2.936511" lon="-75.19409">
        <ele>611.0</ele>
        <time>2021-08-21T19:59:50Z</time>
      </trkpt>
      <trkpt lat="2.93654" lon="-75.194115">
        <ele>611.1</ele>
        <time>2021-08-21T19:59:51Z</time>
      </trkpt>
      <trkpt lat="2.93657" lon="-75.19413">
        <ele>611.3</ele>
        <time>2021-08-21T19:59:52Z</time>
      </trkpt>
      <trkpt lat="2.936601" lon="-75.19415">
        <ele>611.4</ele>
        <time>2021-08-21T19:59:53Z</time>
      </trkpt>
      <trkpt lat="2.936631" lon="-75.19417">
        <ele>611.5</ele>
        <time>2021-08-21T19:59:54Z</time>
      </trkpt>
      <trkpt lat="2.936662" lon="-75.19419">
        <ele>611.6</ele>
        <time>2021-08-21T19:59:55Z</time>
      </trkpt>
      <trkpt lat="2.936692" lon="-75.194214">
        <ele>611.7</ele>
        <time>2021-08-21T19:59:56Z</time>
      </trkpt>
      <trkpt lat="2.936723" lon="-75.19424">
        <ele>611.9</ele>
        <time>2021-08-21T19:59:57Z</time>
      </trkpt>
      <trkpt lat="2.936754" lon="-75.19426">
        <ele>611.9</ele>
        <time>2021-08-21T19:59:58Z</time>
      </trkpt>
      <trkpt lat="2.936784" lon="-75.19428">
        <ele>612.0</ele>
        <time>2021-08-21T19:59:59Z</time>
      </trkpt>
      <trkpt lat="2.936814" lon="-75.194305">
        <ele>612.1</ele>
        <time>2021-08-21T20:00:00Z</time>
      </trkpt>
      <trkpt lat="2.936844" lon="-75.194336">
        <ele>612.2</ele>
        <time>2021-08-21T20:00:01Z</time>
      </trkpt>
      <trkpt lat="2.936873" lon="-75.19436">
        <ele>612.2</ele>
        <time>2021-08-21T20:00:02Z</time>
      </trkpt>
      <trkpt lat="2.936903" lon="-75.19439">
        <ele>612.3</ele>
        <time>2021-08-21T20:00:03Z</time>
      </trkpt>
      <trkpt lat="2.936931" lon="-75.19441">
        <ele>612.3</ele>
        <time>2021-08-21T20:00:04Z</time>
      </trkpt>
      <trkpt lat="2.936959" lon="-75.19444">
        <ele>612.3</ele>
        <time>2021-08-21T20:00:05Z</time>
      </trkpt>
      <trkpt lat="2.936986" lon="-75.19447">
        <ele>612.3</ele>
        <time>2021-08-21T20:00:06Z</time>
      </trkpt>
      <trkpt lat="2.937014" lon="-75.1945">
        <ele>612.3</ele>
        <time>2021-08-21T20:00:07Z</time>
      </trkpt>
      <trkpt lat="2.937043" lon="-75.194534">
        <ele>612.3</ele>
        <time>2021-08-21T20:00:08Z</time>
      </trkpt>
      <trkpt lat="2.937072" lon="-75.194565">
        <ele>612.3</ele>
        <time>2021-08-21T20:00:09Z</time>
      </trkpt>
      <trkpt lat="2.937101" lon="-75.194595">
        <ele>612.3</ele>
        <time>2021-08-21T20:00:10Z</time>
      </trkpt>
      <trkpt lat="2.93713" lon="-75.194626">
        <ele>612.2</ele>
        <time>2021-08-21T20:00:11Z</time>
      </trkpt>
      <trkpt lat="2.937157" lon="-75.19466">
        <ele>612.2</ele>
        <time>2021-08-21T20:00:12Z</time>
      </trkpt>
      <trkpt lat="2.937184" lon="-75.194695">
        <ele>612.2</ele>
        <time>2021-08-21T20:00:13Z</time>
      </trkpt>
      <trkpt lat="2.93721" lon="-75.194725">
        <ele>612.1</ele>
        <time>2021-08-21T20:00:14Z</time>
      </trkpt>
      <trkpt lat="2.937236" lon="-75.19476">
        <ele>612.1</ele>
        <time>2021-08-21T20:00:15Z</time>
      </trkpt>
      <trkpt lat="2.937261" lon="-75.19479">
        <ele>612.1</ele>
        <time>2021-08-21T20:00:16Z</time>
      </trkpt>
      <trkpt lat="2.937285" lon="-75.19483">
        <ele>612.0</ele>
        <time>2021-08-21T20:00:17Z</time>
      </trkpt>
      <trkpt lat="2.937309" lon="-75.19487">
        <ele>612.0</ele>
        <time>2021-08-21T20:00:18Z</time>
      </trkpt>
      <trkpt lat="2.937332" lon="-75.19491">
        <ele>612.0</ele>
        <time>2021-08-21T20:00:19Z</time>
      </trkpt>
      <trkpt lat="2.937354" lon="-75.19495">
        <ele>612.0</ele>
        <time>2021-08-21T20:00:20Z</time>
      </trkpt>
      <trkpt lat="2.937377" lon="-75.194984">
        <ele>612.0</ele>
        <time>2021-08-21T20:00:21Z</time>
      </trkpt>
      <trkpt lat="2.937398" lon="-75.19502">
        <ele>612.0</ele>
        <time>2021-08-21T20:00:22Z</time>
      </trkpt>
      <trkpt lat="2.937417" lon="-75.19507">
        <ele>612.0</ele>
        <time>2021-08-21T20:00:22Z</time>
      </trkpt>
      <trkpt lat="2.937435" lon="-75.19511">
        <ele>612.0</ele>
        <time>2021-08-21T20:00:23Z</time>
      </trkpt>
      <trkpt lat="2.937453" lon="-75.195145">
        <ele>612.0</ele>
        <time>2021-08-21T20:00:24Z</time>
      </trkpt>
      <trkpt lat="2.937469" lon="-75.19518">
        <ele>612.0</ele>
        <time>2021-08-21T20:00:25Z</time>
      </trkpt>
      <trkpt lat="2.937484" lon="-75.19523">
        <ele>612.0</ele>
        <time>2021-08-21T20:00:26Z</time>
      </trkpt>
      <trkpt lat="2.937498" lon="-75.19527">
        <ele>612.0</ele>
        <time>2021-08-21T20:00:27Z</time>
      </trkpt>
      <trkpt lat="2.93751" lon="-75.19531">
        <ele>612.1</ele>
        <time>2021-08-21T20:00:28Z</time>
      </trkpt>
      <trkpt lat="2.937522" lon="-75.19535">
        <ele>612.2</ele>
        <time>2021-08-21T20:00:29Z</time>
      </trkpt>
      <trkpt lat="2.937533" lon="-75.19539">
        <ele>612.2</ele>
        <time>2021-08-21T20:00:30Z</time>
      </trkpt>
      <trkpt lat="2.937543" lon="-75.19543">
        <ele>612.3</ele>
        <time>2021-08-21T20:00:31Z</time>
      </trkpt>
      <trkpt lat="2.937553" lon="-75.195465">
        <ele>612.4</ele>
        <time>2021-08-21T20:00:32Z</time>
      </trkpt>
      <trkpt lat="2.937563" lon="-75.1955">
        <ele>612.5</ele>
        <time>2021-08-21T20:00:33Z</time>
      </trkpt>
      <trkpt lat="2.937572" lon="-75.19553">
        <ele>612.7</ele>
        <time>2021-08-21T20:00:34Z</time>
      </trkpt>
      <trkpt lat="2.93758" lon="-75.19557">
        <ele>612.9</ele>
        <time>2021-08-21T20:00:35Z</time>
      </trkpt>
      <trkpt lat="2.937586" lon="-75.19561">
        <ele>613.1</ele>
        <time>2021-08-21T20:00:36Z</time>
      </trkpt>
      <trkpt lat="2.937589" lon="-75.19564">
        <ele>613.3</ele>
        <time>2021-08-21T20:00:37Z</time>
      </trkpt>
      <trkpt lat="2.937592" lon="-75.19568">
        <ele>613.5</ele>
        <time>2021-08-21T20:00:38Z</time>
      </trkpt>
      <trkpt lat="2.937593" lon="-75.19572">
        <ele>613.7</ele>
        <time>2021-08-21T20:00:39Z</time>
      </trkpt>
      <trkpt lat="2.937593" lon="-75.19575">
        <ele>614.0</ele>
        <time>2021-08-21T20:00:40Z</time>
      </trkpt>
      <trkpt lat="2.937593" lon="-75.19578">
        <ele>614.2</ele>
        <time>2021-08-21T20:00:41Z</time>
      </trkpt>
      <trkpt lat="2.937592" lon="-75.195816">
        <ele>614.5</ele>
        <time>2021-08-21T20:00:42Z</time>
      </trkpt>
      <trkpt lat="2.93759" lon="-75.19585">
        <ele>614.7</ele>
        <time>2021-08-21T20:00:43Z</time>
      </trkpt>
      <trkpt lat="2.937586" lon="-75.19588">
        <ele>615.0</ele>
        <time>2021-08-21T20:00:44Z</time>
      </trkpt>
      <trkpt lat="2.937583" lon="-75.19591">
        <ele>615.3</ele>
        <time>2021-08-21T20:00:45Z</time>
      </trkpt>
      <trkpt lat="2.937581" lon="-75.19594">
        <ele>615.5</ele>
        <time>2021-08-21T20:00:46Z</time>
      </trkpt>
      <trkpt lat="2.937578" lon="-75.19596">
        <ele>615.8</ele>
        <time>2021-08-21T20:00:47Z</time>
      </trkpt>
      <trkpt lat="2.937576" lon="-75.19599">
        <ele>616.0</ele>
        <time>2021-08-21T20:00:48Z</time>
      </trkpt>
      <trkpt lat="2.937574" lon="-75.196014">
        <ele>616.2</ele>
        <time>2021-08-21T20:00:49Z</time>
      </trkpt>
      <trkpt lat="2.937574" lon="-75.19604">
        <ele>616.5</ele>
        <time>2021-08-21T20:00:50Z</time>
      </trkpt>
      <trkpt lat="2.937574" lon="-75.19607">
        <ele>616.7</ele>
        <time>2021-08-21T20:00:51Z</time>
      </trkpt>
      <trkpt lat="2.937574" lon="-75.19609">
        <ele>616.9</ele>
        <time>2021-08-21T20:00:52Z</time>
      </trkpt>
      <trkpt lat="2.937575" lon="-75.19611">
        <ele>617.1</ele>
        <time>2021-08-21T20:00:53Z</time>
      </trkpt>
      <trkpt lat="2.937576" lon="-75.19614">
        <ele>617.2</ele>
        <time>2021-08-21T20:00:54Z</time>
      </trkpt>
      <trkpt lat="2.937575" lon="-75.19616">
        <ele>617.4</ele>
        <time>2021-08-21T20:00:55Z</time>
      </trkpt>
      <trkpt lat="2.937575" lon="-75.19618">
        <ele>617.6</ele>
        <time>2021-08-21T20:00:56Z</time>
      </trkpt>
      <trkpt lat="2.937574" lon="-75.196205">
        <ele>617.8</ele>
        <time>2021-08-21T20:00:57Z</time>
      </trkpt>
      <trkpt lat="2.937573" lon="-75.196236">
        <ele>617.9</ele>
        <time>2021-08-21T20:00:58Z</time>
      </trkpt>
      <trkpt lat="2.937571" lon="-75.19626">
        <ele>618.1</ele>
        <time>2021-08-21T20:00:59Z</time>
      </trkpt>
      <trkpt lat="2.93757" lon="-75.19628">
        <ele>618.2</ele>
        <time>2021-08-21T20:01:00Z</time>
      </trkpt>
      <trkpt lat="2.937568" lon="-75.19631">
        <ele>618.4</ele>
        <time>2021-08-21T20:01:01Z</time>
      </trkpt>
      <trkpt lat="2.937565" lon="-75.196335">
        <ele>618.5</ele>
        <time>2021-08-21T20:01:02Z</time>
      </trkpt>
      <trkpt lat="2.937562" lon="-75.196365">
        <ele>618.6</ele>
        <time>2021-08-21T20:01:03Z</time>
      </trkpt>
      <trkpt lat="2.937559" lon="-75.196396">
        <ele>618.7</ele>
        <time>2021-08-21T20:01:04Z</time>
      </trkpt>
      <trkpt lat="2.937556" lon="-75.19643">
        <ele>618.8</ele>
        <time>2021-08-21T20:01:05Z</time>
      </trkpt>
      <trkpt lat="2.937553" lon="-75.19645">
        <ele>618.8</ele>
        <time>2021-08-21T20:01:06Z</time>
      </trkpt>
      <trkpt lat="2.937549" lon="-75.19649">
        <ele>618.9</ele>
        <time>2021-08-21T20:01:07Z</time>
      </trkpt>
      <trkpt lat="2.937545" lon="-75.19652">
        <ele>618.9</ele>
        <time>2021-08-21T20:01:08Z</time>
      </trkpt>
      <trkpt lat="2.937541" lon="-75.19655">
        <ele>618.9</ele>
        <time>2021-08-21T20:01:09Z</time>
      </trkpt>
      <trkpt lat="2.937538" lon="-75.19659">
        <ele>618.9</ele>
        <time>2021-08-21T20:01:10Z</time>
      </trkpt>
      <trkpt lat="2.937536" lon="-75.196625">
        <ele>618.9</ele>
        <time>2021-08-21T20:01:11Z</time>
      </trkpt>
      <trkpt lat="2.937535" lon="-75.196655">
        <ele>618.9</ele>
        <time>2021-08-21T20:01:12Z</time>
      </trkpt>
      <trkpt lat="2.937532" lon="-75.1967">
        <ele>618.8</ele>
        <time>2021-08-21T20:01:13Z</time>
      </trkpt>
      <trkpt lat="2.93753" lon="-75.19674">
        <ele>618.7</ele>
        <time>2021-08-21T20:01:14Z</time>
      </trkpt>
      <trkpt lat="2.937528" lon="-75.19678">
        <ele>618.7</ele>
        <time>2021-08-21T20:01:15Z</time>
      </trkpt>
      <trkpt lat="2.937527" lon="-75.19682">
        <ele>618.6</ele>
        <time>2021-08-21T20:01:16Z</time>
      </trkpt>
      <trkpt lat="2.937525" lon="-75.19686">
        <ele>618.5</ele>
        <time>2021-08-21T20:01:17Z</time>
      </trkpt>
      <trkpt lat="2.937523" lon="-75.19691">
        <ele>618.4</ele>
        <time>2021-08-21T20:01:18Z</time>
      </trkpt>
      <trkpt lat="2.937521" lon="-75.19695">
        <ele>618.2</ele>
        <time>2021-08-21T20:01:19Z</time>
      </trkpt>
      <trkpt lat="2.937519" lon="-75.197">
        <ele>618.1</ele>
        <time>2021-08-21T20:01:20Z</time>
      </trkpt>
      <trkpt lat="2.937517" lon="-75.197044">
        <ele>618.0</ele>
        <time>2021-08-21T20:01:21Z</time>
      </trkpt>
      <trkpt lat="2.937516" lon="-75.1971">
        <ele>617.9</ele>
        <time>2021-08-21T20:01:22Z</time>
      </trkpt>
      <trkpt lat="2.937516" lon="-75.19715">
        <ele>617.7</ele>
        <time>2021-08-21T20:01:23Z</time>
      </trkpt>
      <trkpt lat="2.937518" lon="-75.197205">
        <ele>617.6</ele>
        <time>2021-08-21T20:01:24Z</time>
      </trkpt>
      <trkpt lat="2.937521" lon="-75.19726">
        <ele>617.4</ele>
        <time>2021-08-21T20:01:25Z</time>
      </trkpt>
      <trkpt lat="2.937526" lon="-75.19731">
        <ele>617.3</ele>
        <time>2021-08-21T20:01:26Z</time>
      </trkpt>
      <trkpt lat="2.937532" lon="-75.197365">
        <ele>617.1</ele>
        <time>2021-08-21T20:01:27Z</time>
      </trkpt>
      <trkpt lat="2.93754" lon="-75.19742">
        <ele>616.9</ele>
        <time>2021-08-21T20:01:28Z</time>
      </trkpt>
      <trkpt lat="2.93755" lon="-75.19747">
        <ele>616.8</ele>
        <time>2021-08-21T20:01:29Z</time>
      </trkpt>
      <trkpt lat="2.937562" lon="-75.197525">
        <ele>616.6</ele>
        <time>2021-08-21T20:01:30Z</time>
      </trkpt>
      <trkpt lat="2.937576" lon="-75.197586">
        <ele>616.4</ele>
        <time>2021-08-21T20:01:31Z</time>
      </trkpt>
      <trkpt lat="2.937591" lon="-75.19764">
        <ele>616.3</ele>
        <time>2021-08-21T20:01:32Z</time>
      </trkpt>
      <trkpt lat="2.937609" lon="-75.19769">
        <ele>616.1</ele>
        <time>2021-08-21T20:01:33Z</time>
      </trkpt>
      <trkpt lat="2.937628" lon="-75.197754">
        <ele>616.0</ele>
        <time>2021-08-21T20:01:34Z</time>
      </trkpt>
      <trkpt lat="2.937649" lon="-75.19781">
        <ele>615.8</ele>
        <time>2021-08-21T20:01:35Z</time>
      </trkpt>
      <trkpt lat="2.937672" lon="-75.19786">
        <ele>615.7</ele>
        <time>2021-08-21T20:01:36Z</time>
      </trkpt>
      <trkpt lat="2.937695" lon="-75.19792">
        <ele>615.5</ele>
        <time>2021-08-21T20:01:37Z</time>
      </trkpt>
      <trkpt lat="2.937718" lon="-75.197975">
        <ele>615.3</ele>
        <time>2021-08-21T20:01:38Z</time>
      </trkpt>
      <trkpt lat="2.93774" lon="-75.19803">
        <ele>615.2</ele>
        <time>2021-08-21T20:01:39Z</time>
      </trkpt>
      <trkpt lat="2.937763" lon="-75.19808">
        <ele>615.0</ele>
        <time>2021-08-21T20:01:40Z</time>
      </trkpt>
      <trkpt lat="2.937786" lon="-75.198135">
        <ele>614.9</ele>
        <time>2021-08-21T20:01:41Z</time>
      </trkpt>
      <trkpt lat="2.937808" lon="-75.1982">
        <ele>614.7</ele>
        <time>2021-08-21T20:01:42Z</time>
      </trkpt>
      <trkpt lat="2.937831" lon="-75.19825">
        <ele>614.6</ele>
        <time>2021-08-21T20:01:43Z</time>
      </trkpt>
      <trkpt lat="2.937853" lon="-75.1983">
        <ele>614.4</ele>
        <time>2021-08-21T20:01:44Z</time>
      </trkpt>
      <trkpt lat="2.937875" lon="-75.19836">
        <ele>614.3</ele>
        <time>2021-08-21T20:01:45Z</time>
      </trkpt>
      <trkpt lat="2.937897" lon="-75.19841">
        <ele>614.2</ele>
        <time>2021-08-21T20:01:46Z</time>
      </trkpt>
      <trkpt lat="2.937918" lon="-75.19847">
        <ele>614.0</ele>
        <time>2021-08-21T20:01:47Z</time>
      </trkpt>
      <trkpt lat="2.937939" lon="-75.198524">
        <ele>613.9</ele>
        <time>2021-08-21T20:01:48Z</time>
      </trkpt>
      <trkpt lat="2.937961" lon="-75.19858">
        <ele>613.7</ele>
        <time>2021-08-21T20:01:49Z</time>
      </trkpt>
      <trkpt lat="2.937982" lon="-75.19864">
        <ele>613.6</ele>
        <time>2021-08-21T20:01:50Z</time>
      </trkpt>
      <trkpt lat="2.938002" lon="-75.19869">
        <ele>613.5</ele>
        <time>2021-08-21T20:01:51Z</time>
      </trkpt>
      <trkpt lat="2.938022" lon="-75.198746">
        <ele>613.3</ele>
        <time>2021-08-21T20:01:52Z</time>
      </trkpt>
      <trkpt lat="2.93804" lon="-75.19881">
        <ele>613.2</ele>
        <time>2021-08-21T20:01:53Z</time>
      </trkpt>
      <trkpt lat="2.938057" lon="-75.19886">
        <ele>613.0</ele>
        <time>2021-08-21T20:01:54Z</time>
      </trkpt>
      <trkpt lat="2.938073" lon="-75.19892">
        <ele>612.9</ele>
        <time>2021-08-21T20:01:55Z</time>
      </trkpt>
      <trkpt lat="2.938089" lon="-75.198975">
        <ele>612.7</ele>
        <time>2021-08-21T20:01:56Z</time>
      </trkpt>
      <trkpt lat="2.938104" lon="-75.199036">
        <ele>612.6</ele>
        <time>2021-08-21T20:01:57Z</time>
      </trkpt>
      <trkpt lat="2.938118" lon="-75.1991">
        <ele>612.4</ele>
        <time>2021-08-21T20:01:58Z</time>
      </trkpt>
      <trkpt lat="2.93813" lon="-75.19916">
        <ele>612.2</ele>
        <time>2021-08-21T20:01:59Z</time>
      </trkpt>
      <trkpt lat="2.938142" lon="-75.19922">
        <ele>612.0</ele>
        <time>2021-08-21T20:02:00Z</time>
      </trkpt>
      <trkpt lat="2.938152" lon="-75.19927">
        <ele>611.9</ele>
        <time>2021-08-21T20:02:01Z</time>
      </trkpt>
      <trkpt lat="2.938162" lon="-75.19933">
        <ele>611.7</ele>
        <time>2021-08-21T20:02:02Z</time>
      </trkpt>
      <trkpt lat="2.93817" lon="-75.199394">
        <ele>611.5</ele>
        <time>2021-08-21T20:02:03Z</time>
      </trkpt>
      <trkpt lat="2.938177" lon="-75.199455">
        <ele>611.3</ele>
        <time>2021-08-21T20:02:04Z</time>
      </trkpt>
      <trkpt lat="2.938183" lon="-75.19952">
        <ele>611.1</ele>
        <time>2021-08-21T20:02:05Z</time>
      </trkpt>
      <trkpt lat="2.938189" lon="-75.199585">
        <ele>610.9</ele>
        <time>2021-08-21T20:02:06Z</time>
      </trkpt>
      <trkpt lat="2.938194" lon="-75.19965">
        <ele>610.6</ele>
        <time>2021-08-21T20:02:07Z</time>
      </trkpt>
      <trkpt lat="2.938197" lon="-75.199715">
        <ele>610.4</ele>
        <time>2021-08-21T20:02:08Z</time>
      </trkpt>
      <trkpt lat="2.938199" lon="-75.19978">
        <ele>610.2</ele>
        <time>2021-08-21T20:02:09Z</time>
      </trkpt>
      <trkpt lat="2.9382" lon="-75.19985">
        <ele>609.9</ele>
        <time>2021-08-21T20:02:10Z</time>
      </trkpt>
      <trkpt lat="2.938199" lon="-75.19992">
        <ele>609.7</ele>
        <time>2021-08-21T20:02:11Z</time>
      </trkpt>
      <trkpt lat="2.938197" lon="-75.19998">
        <ele>609.5</ele>
        <time>2021-08-21T20:02:12Z</time>
      </trkpt>
      <trkpt lat="2.938194" lon="-75.20005">
        <ele>609.2</ele>
        <time>2021-08-21T20:02:13Z</time>
      </trkpt>
      <trkpt lat="2.938189" lon="-75.20012">
        <ele>609.0</ele>
        <time>2021-08-21T20:02:14Z</time>
      </trkpt>
      <trkpt lat="2.938183" lon="-75.20019">
        <ele>608.8</ele>
        <time>2021-08-21T20:02:15Z</time>
      </trkpt>
      <trkpt lat="2.938177" lon="-75.20026">
        <ele>608.6</ele>
        <time>2021-08-21T20:02:16Z</time>
      </trkpt>
      <trkpt lat="2.93817" lon="-75.20032">
        <ele>608.3</ele>
        <time>2021-08-21T20:02:17Z</time>
      </trkpt>
      <trkpt lat="2.938162" lon="-75.200386">
        <ele>608.1</ele>
        <time>2021-08-21T20:02:18Z</time>
      </trkpt>
      <trkpt lat="2.938152" lon="-75.200455">
        <ele>607.9</ele>
        <time>2021-08-21T20:02:19Z</time>
      </trkpt>
      <trkpt lat="2.93814" lon="-75.20052">
        <ele>607.7</ele>
        <time>2021-08-21T20:02:20Z</time>
      </trkpt>
      <trkpt lat="2.938127" lon="-75.20059">
        <ele>607.5</ele>
        <time>2021-08-21T20:02:21Z</time>
      </trkpt>
      <trkpt lat="2.938113" lon="-75.20065">
        <ele>607.3</ele>
        <time>2021-08-21T20:02:22Z</time>
      </trkpt>
      <trkpt lat="2.938099" lon="-75.20072">
        <ele>607.2</ele>
        <time>2021-08-21T20:02:23Z</time>
      </trkpt>
      <trkpt lat="2.938085" lon="-75.20079">
        <ele>607.0</ele>
        <time>2021-08-21T20:02:24Z</time>
      </trkpt>
      <trkpt lat="2.938073" lon="-75.20085">
        <ele>606.9</ele>
        <time>2021-08-21T20:02:25Z</time>
      </trkpt>
      <trkpt lat="2.93806" lon="-75.20091">
        <ele>606.9</ele>
        <time>2021-08-21T20:02:26Z</time>
      </trkpt>
      <trkpt lat="2.938047" lon="-75.20097">
        <ele>606.9</ele>
        <time>2021-08-21T20:02:27Z</time>
      </trkpt>
      <trkpt lat="2.938035" lon="-75.20103">
        <ele>606.9</ele>
        <time>2021-08-21T20:02:28Z</time>
      </trkpt>
      <trkpt lat="2.938023" lon="-75.20108">
        <ele>606.9</ele>
        <time>2021-08-21T20:02:29Z</time>
      </trkpt>
      <trkpt lat="2.938011" lon="-75.20113">
        <ele>606.9</ele>
        <time>2021-08-21T20:02:30Z</time>
      </trkpt>
      <trkpt lat="2.938" lon="-75.20118">
        <ele>607.0</ele>
        <time>2021-08-21T20:02:31Z</time>
      </trkpt>
      <trkpt lat="2.937988" lon="-75.201225">
        <ele>607.0</ele>
        <time>2021-08-21T20:02:32Z</time>
      </trkpt>
      <trkpt lat="2.937978" lon="-75.20126">
        <ele>607.0</ele>
        <time>2021-08-21T20:02:33Z</time>
      </trkpt>
      <trkpt lat="2.937968" lon="-75.20131">
        <ele>607.0</ele>
        <time>2021-08-21T20:02:34Z</time>
      </trkpt>
      <trkpt lat="2.937957" lon="-75.20135">
        <ele>606.9</ele>
        <time>2021-08-21T20:02:35Z</time>
      </trkpt>
      <trkpt lat="2.937946" lon="-75.20139">
        <ele>606.9</ele>
        <time>2021-08-21T20:02:36Z</time>
      </trkpt>
      <trkpt lat="2.937933" lon="-75.20143">
        <ele>606.8</ele>
        <time>2021-08-21T20:02:37Z</time>
      </trkpt>
      <trkpt lat="2.93792" lon="-75.20148">
        <ele>606.7</ele>
        <time>2021-08-21T20:02:38Z</time>
      </trkpt>
      <trkpt lat="2.937905" lon="-75.201515">
        <ele>606.6</ele>
        <time>2021-08-21T20:02:39Z</time>
      </trkpt>
      <trkpt lat="2.93789" lon="-75.20155">
        <ele>606.5</ele>
        <time>2021-08-21T20:02:40Z</time>
      </trkpt>
      <trkpt lat="2.937872" lon="-75.2016">
        <ele>606.3</ele>
        <time>2021-08-21T20:02:41Z</time>
      </trkpt>
      <trkpt lat="2.937853" lon="-75.201645">
        <ele>606.2</ele>
        <time>2021-08-21T20:02:42Z</time>
      </trkpt>
      <trkpt lat="2.937832" lon="-75.20168">
        <ele>606.1</ele>
        <time>2021-08-21T20:02:43Z</time>
      </trkpt>
      <trkpt lat="2.93781" lon="-75.20172">
        <ele>606.0</ele>
        <time>2021-08-21T20:02:44Z</time>
      </trkpt>
      <trkpt lat="2.937785" lon="-75.20176">
        <ele>605.9</ele>
        <time>2021-08-21T20:02:45Z</time>
      </trkpt>
      <trkpt lat="2.93776" lon="-75.201805">
        <ele>605.8</ele>
        <time>2021-08-21T20:02:46Z</time>
      </trkpt>
      <trkpt lat="2.937734" lon="-75.20184">
        <ele>605.8</ele>
        <time>2021-08-21T20:02:47Z</time>
      </trkpt>
      <trkpt lat="2.937707" lon="-75.20188">
        <ele>605.8</ele>
        <time>2021-08-21T20:02:48Z</time>
      </trkpt>
      <trkpt lat="2.937682" lon="-75.20191">
        <ele>605.8</ele>
        <time>2021-08-21T20:02:49Z</time>
      </trkpt>
      <trkpt lat="2.937658" lon="-75.20194">
        <ele>605.8</ele>
        <time>2021-08-21T20:02:50Z</time>
      </trkpt>
      <trkpt lat="2.93763" lon="-75.20198">
        <ele>605.8</ele>
        <time>2021-08-21T20:02:51Z</time>
      </trkpt>
      <trkpt lat="2.937604" lon="-75.20201">
        <ele>605.8</ele>
        <time>2021-08-21T20:02:52Z</time>
      </trkpt>
      <trkpt lat="2.937579" lon="-75.20205">
        <ele>605.8</ele>
        <time>2021-08-21T20:02:53Z</time>
      </trkpt>
      <trkpt lat="2.937555" lon="-75.20208">
        <ele>605.9</ele>
        <time>2021-08-21T20:02:54Z</time>
      </trkpt>
      <trkpt lat="2.937531" lon="-75.2021">
        <ele>605.9</ele>
        <time>2021-08-21T20:02:55Z</time>
      </trkpt>
      <trkpt lat="2.937506" lon="-75.20213">
        <ele>605.9</ele>
        <time>2021-08-21T20:02:56Z</time>
      </trkpt>
      <trkpt lat="2.937482" lon="-75.202156">
        <ele>606.0</ele>
        <time>2021-08-21T20:02:57Z</time>
      </trkpt>
      <trkpt lat="2.937458" lon="-75.20219">
        <ele>606.0</ele>
        <time>2021-08-21T20:02:58Z</time>
      </trkpt>
      <trkpt lat="2.937436" lon="-75.20221">
        <ele>606.1</ele>
        <time>2021-08-21T20:02:59Z</time>
      </trkpt>
      <trkpt lat="2.937413" lon="-75.202225">
        <ele>606.2</ele>
        <time>2021-08-21T20:03:00Z</time>
      </trkpt>
      <trkpt lat="2.93739" lon="-75.20225">
        <ele>606.3</ele>
        <time>2021-08-21T20:03:01Z</time>
      </trkpt>
      <trkpt lat="2.937368" lon="-75.20227">
        <ele>606.3</ele>
        <time>2021-08-21T20:03:02Z</time>
      </trkpt>
      <trkpt lat="2.937347" lon="-75.20229">
        <ele>606.4</ele>
        <time>2021-08-21T20:03:03Z</time>
      </trkpt>
      <trkpt lat="2.937326" lon="-75.20231">
        <ele>606.5</ele>
        <time>2021-08-21T20:03:04Z</time>
      </trkpt>
      <trkpt lat="2.937308" lon="-75.202324">
        <ele>606.6</ele>
        <time>2021-08-21T20:03:05Z</time>
      </trkpt>
      <trkpt lat="2.93729" lon="-75.20235">
        <ele>606.7</ele>
        <time>2021-08-21T20:03:06Z</time>
      </trkpt>
      <trkpt lat="2.937272" lon="-75.20236">
        <ele>606.8</ele>
        <time>2021-08-21T20:03:07Z</time>
      </trkpt>
      <trkpt lat="2.937255" lon="-75.20238">
        <ele>606.9</ele>
        <time>2021-08-21T20:03:08Z</time>
      </trkpt>
      <trkpt lat="2.93724" lon="-75.2024">
        <ele>607.0</ele>
        <time>2021-08-21T20:03:09Z</time>
      </trkpt>
      <trkpt lat="2.937224" lon="-75.202415">
        <ele>607.1</ele>
        <time>2021-08-21T20:03:10Z</time>
      </trkpt>
      <trkpt lat="2.937208" lon="-75.20243">
        <ele>607.2</ele>
        <time>2021-08-21T20:03:11Z</time>
      </trkpt>
      <trkpt lat="2.937191" lon="-75.20245">
        <ele>607.4</ele>
        <time>2021-08-21T20:03:12Z</time>
      </trkpt>
      <trkpt lat="2.937175" lon="-75.20247">
        <ele>607.5</ele>
        <time>2021-08-21T20:03:13Z</time>
      </trkpt>
      <trkpt lat="2.93716" lon="-75.20249">
        <ele>607.6</ele>
        <time>2021-08-21T20:03:14Z</time>
      </trkpt>
      <trkpt lat="2.937145" lon="-75.20251">
        <ele>607.7</ele>
        <time>2021-08-21T20:03:15Z</time>
      </trkpt>
      <trkpt lat="2.93713" lon="-75.20252">
        <ele>607.9</ele>
        <time>2021-08-21T20:03:16Z</time>
      </trkpt>
      <trkpt lat="2.937114" lon="-75.202545">
        <ele>608.0</ele>
        <time>2021-08-21T20:03:17Z</time>
      </trkpt>
      <trkpt lat="2.9371" lon="-75.20257">
        <ele>608.2</ele>
        <time>2021-08-21T20:03:18Z</time>
      </trkpt>
      <trkpt lat="2.937085" lon="-75.20258">
        <ele>608.3</ele>
        <time>2021-08-21T20:03:19Z</time>
      </trkpt>
      <trkpt lat="2.93707" lon="-75.20261">
        <ele>608.5</ele>
        <time>2021-08-21T20:03:20Z</time>
      </trkpt>
      <trkpt lat="2.937056" lon="-75.20262">
        <ele>608.6</ele>
        <time>2021-08-21T20:03:21Z</time>
      </trkpt>
      <trkpt lat="2.937044" lon="-75.20264">
        <ele>608.7</ele>
        <time>2021-08-21T20:03:22Z</time>
      </trkpt>
      <trkpt lat="2.937031" lon="-75.20266">
        <ele>608.9</ele>
        <time>2021-08-21T20:03:23Z</time>
      </trkpt>
      <trkpt lat="2.937019" lon="-75.202675">
        <ele>609.1</ele>
        <time>2021-08-21T20:03:24Z</time>
      </trkpt>
      <trkpt lat="2.937007" lon="-75.20269">
        <ele>609.2</ele>
        <time>2021-08-21T20:03:25Z</time>
      </trkpt>
      <trkpt lat="2.936994" lon="-75.20271">
        <ele>609.4</ele>
        <time>2021-08-21T20:03:26Z</time>
      </trkpt>
      <trkpt lat="2.936981" lon="-75.20273">
        <ele>609.6</ele>
        <time>2021-08-21T20:03:27Z</time>
      </trkpt>
      <trkpt lat="2.936969" lon="-75.20274">
        <ele>609.7</ele>
        <time>2021-08-21T20:03:28Z</time>
      </trkpt>
      <trkpt lat="2.936957" lon="-75.20276">
        <ele>609.9</ele>
        <time>2021-08-21T20:03:29Z</time>
      </trkpt>
      <trkpt lat="2.936946" lon="-75.20278">
        <ele>610.1</ele>
        <time>2021-08-21T20:03:30Z</time>
      </trkpt>
      <trkpt lat="2.936936" lon="-75.2028">
        <ele>610.2</ele>
        <time>2021-08-21T20:03:31Z</time>
      </trkpt>
      <trkpt lat="2.936926" lon="-75.20281">
        <ele>610.2</ele>
        <time>2021-08-21T20:03:32Z</time>
      </trkpt>
      <trkpt lat="2.936915" lon="-75.20283">
        <ele>610.3</ele>
        <time>2021-08-21T20:03:33Z</time>
      </trkpt>
      <trkpt lat="2.936906" lon="-75.20284">
        <ele>610.3</ele>
        <time>2021-08-21T20:03:34Z</time>
      </trkpt>
      <trkpt lat="2.936897" lon="-75.20286">
        <ele>610.4</ele>
        <time>2021-08-21T20:03:35Z</time>
      </trkpt>
      <trkpt lat="2.936887" lon="-75.20287">
        <ele>610.5</ele>
        <time>2021-08-21T20:03:36Z</time>
      </trkpt>
      <trkpt lat="2.936878" lon="-75.20289">
        <ele>610.5</ele>
        <time>2021-08-21T20:03:37Z</time>
      </trkpt>
      <trkpt lat="2.936869" lon="-75.2029">
        <ele>610.6</ele>
        <time>2021-08-21T20:03:38Z</time>
      </trkpt>
      <trkpt lat="2.93686" lon="-75.20293">
        <ele>610.6</ele>
        <time>2021-08-21T20:03:39Z</time>
      </trkpt>
      <trkpt lat="2.936852" lon="-75.20294">
        <ele>610.7</ele>
        <time>2021-08-21T20:03:40Z</time>
      </trkpt>
      <trkpt lat="2.936843" lon="-75.20296">
        <ele>610.8</ele>
        <time>2021-08-21T20:03:41Z</time>
      </trkpt>
      <trkpt lat="2.936835" lon="-75.20297">
        <ele>610.9</ele>
        <time>2021-08-21T20:03:42Z</time>
      </trkpt>
      <trkpt lat="2.936826" lon="-75.20299">
        <ele>611.0</ele>
        <time>2021-08-21T20:03:43Z</time>
      </trkpt>
      <trkpt lat="2.936816" lon="-75.203">
        <ele>611.2</ele>
        <time>2021-08-21T20:03:44Z</time>
      </trkpt>
      <trkpt lat="2.936806" lon="-75.20302">
        <ele>611.3</ele>
        <time>2021-08-21T20:03:45Z</time>
      </trkpt>
      <trkpt lat="2.936796" lon="-75.20303">
        <ele>611.4</ele>
        <time>2021-08-21T20:03:46Z</time>
      </trkpt>
      <trkpt lat="2.936788" lon="-75.20306">
        <ele>611.6</ele>
        <time>2021-08-21T20:03:47Z</time>
      </trkpt>
      <trkpt lat="2.936779" lon="-75.20307">
        <ele>611.8</ele>
        <time>2021-08-21T20:03:48Z</time>
      </trkpt>
      <trkpt lat="2.93677" lon="-75.20309">
        <ele>611.9</ele>
        <time>2021-08-21T20:03:49Z</time>
      </trkpt>
      <trkpt lat="2.936762" lon="-75.2031">
        <ele>612.1</ele>
        <time>2021-08-21T20:03:50Z</time>
      </trkpt>
      <trkpt lat="2.936753" lon="-75.20312">
        <ele>612.2</ele>
        <time>2021-08-21T20:03:51Z</time>
      </trkpt>
      <trkpt lat="2.936744" lon="-75.20314">
        <ele>612.4</ele>
        <time>2021-08-21T20:03:52Z</time>
      </trkpt>
      <trkpt lat="2.936735" lon="-75.203156">
        <ele>612.6</ele>
        <time>2021-08-21T20:03:53Z</time>
      </trkpt>
      <trkpt lat="2.936724" lon="-75.20317">
        <ele>612.7</ele>
        <time>2021-08-21T20:03:54Z</time>
      </trkpt>
      <trkpt lat="2.936714" lon="-75.203186">
        <ele>612.9</ele>
        <time>2021-08-21T20:03:55Z</time>
      </trkpt>
      <trkpt lat="2.936703" lon="-75.2032">
        <ele>613.1</ele>
        <time>2021-08-21T20:03:56Z</time>
      </trkpt>
      <trkpt lat="2.936692" lon="-75.20322">
        <ele>613.2</ele>
        <time>2021-08-21T20:03:57Z</time>
      </trkpt>
      <trkpt lat="2.936682" lon="-75.20323">
        <ele>613.4</ele>
        <time>2021-08-21T20:03:58Z</time>
      </trkpt>
      <trkpt lat="2.936671" lon="-75.20325">
        <ele>613.6</ele>
        <time>2021-08-21T20:03:59Z</time>
      </trkpt>
      <trkpt lat="2.93666" lon="-75.20326">
        <ele>613.7</ele>
        <time>2021-08-21T20:04:00Z</time>
      </trkpt>
      <trkpt lat="2.93665" lon="-75.20328">
        <ele>613.9</ele>
        <time>2021-08-21T20:04:01Z</time>
      </trkpt>
      <trkpt lat="2.936639" lon="-75.20329">
        <ele>614.0</ele>
        <time>2021-08-21T20:04:02Z</time>
      </trkpt>
      <trkpt lat="2.936628" lon="-75.20331">
        <ele>614.2</ele>
        <time>2021-08-21T20:04:03Z</time>
      </trkpt>
      <trkpt lat="2.936616" lon="-75.20332">
        <ele>614.4</ele>
        <time>2021-08-21T20:04:04Z</time>
      </trkpt>
      <trkpt lat="2.936604" lon="-75.20334">
        <ele>614.5</ele>
        <time>2021-08-21T20:04:05Z</time>
      </trkpt>
      <trkpt lat="2.936593" lon="-75.203354">
        <ele>614.7</ele>
        <time>2021-08-21T20:04:06Z</time>
      </trkpt>
      <trkpt lat="2.936583" lon="-75.20337">
        <ele>614.8</ele>
        <time>2021-08-21T20:04:07Z</time>
      </trkpt>
      <trkpt lat="2.936571" lon="-75.203384">
        <ele>615.0</ele>
        <time>2021-08-21T20:04:08Z</time>
      </trkpt>
      <trkpt lat="2.936559" lon="-75.2034">
        <ele>615.2</ele>
        <time>2021-08-21T20:04:09Z</time>
      </trkpt>
      <trkpt lat="2.936546" lon="-75.20341">
        <ele>615.3</ele>
        <time>2021-08-21T20:04:10Z</time>
      </trkpt>
      <trkpt lat="2.936534" lon="-75.20342">
        <ele>615.5</ele>
        <time>2021-08-21T20:04:11Z</time>
      </trkpt>
      <trkpt lat="2.936521" lon="-75.20344">
        <ele>615.6</ele>
        <time>2021-08-21T20:04:12Z</time>
      </trkpt>
      <trkpt lat="2.936509" lon="-75.20345">
        <ele>615.8</ele>
        <time>2021-08-21T20:04:13Z</time>
      </trkpt>
      <trkpt lat="2.936496" lon="-75.20347">
        <ele>616.0</ele>
        <time>2021-08-21T20:04:14Z</time>
      </trkpt>
      <trkpt lat="2.936484" lon="-75.20348">
        <ele>616.1</ele>
        <time>2021-08-21T20:04:15Z</time>
      </trkpt>
      <trkpt lat="2.936471" lon="-75.2035">
        <ele>616.3</ele>
        <time>2021-08-21T20:04:16Z</time>
      </trkpt>
      <trkpt lat="2.936458" lon="-75.203514">
        <ele>616.5</ele>
        <time>2021-08-21T20:04:17Z</time>
      </trkpt>
      <trkpt lat="2.936445" lon="-75.20353">
        <ele>616.6</ele>
        <time>2021-08-21T20:04:18Z</time>
      </trkpt>
      <trkpt lat="2.936432" lon="-75.203545">
        <ele>616.8</ele>
        <time>2021-08-21T20:04:19Z</time>
      </trkpt>
      <trkpt lat="2.93642" lon="-75.20356">
        <ele>617.0</ele>
        <time>2021-08-21T20:04:20Z</time>
      </trkpt>
      <trkpt lat="2.936406" lon="-75.203575">
        <ele>617.1</ele>
        <time>2021-08-21T20:04:21Z</time>
      </trkpt>
      <trkpt lat="2.936394" lon="-75.20358">
        <ele>617.3</ele>
        <time>2021-08-21T20:04:22Z</time>
      </trkpt>
      <trkpt lat="2.936381" lon="-75.2036">
        <ele>617.5</ele>
        <time>2021-08-21T20:04:23Z</time>
      </trkpt>
      <trkpt lat="2.936369" lon="-75.20361">
        <ele>617.6</ele>
        <time>2021-08-21T20:04:24Z</time>
      </trkpt>
      <trkpt lat="2.936358" lon="-75.20363">
        <ele>617.8</ele>
        <time>2021-08-21T20:04:25Z</time>
      </trkpt>
      <trkpt lat="2.936346" lon="-75.20364">
        <ele>618.0</ele>
        <time>2021-08-21T20:04:26Z</time>
      </trkpt>
      <trkpt lat="2.936336" lon="-75.20365">
        <ele>618.2</ele>
        <time>2021-08-21T20:04:27Z</time>
      </trkpt>
      <trkpt lat="2.936325" lon="-75.20367">
        <ele>618.3</ele>
        <time>2021-08-21T20:04:28Z</time>
      </trkpt>
      <trkpt lat="2.936312" lon="-75.20368">
        <ele>618.5</ele>
        <time>2021-08-21T20:04:29Z</time>
      </trkpt>
      <trkpt lat="2.9363" lon="-75.2037">
        <ele>618.7</ele>
        <time>2021-08-21T20:04:30Z</time>
      </trkpt>
      <trkpt lat="2.936288" lon="-75.20371">
        <ele>618.9</ele>
        <time>2021-08-21T20:04:31Z</time>
      </trkpt>
      <trkpt lat="2.936278" lon="-75.20373">
        <ele>619.1</ele>
        <time>2021-08-21T20:04:32Z</time>
      </trkpt>
      <trkpt lat="2.936268" lon="-75.203735">
        <ele>619.3</ele>
        <time>2021-08-21T20:04:33Z</time>
      </trkpt>
      <trkpt lat="2.936256" lon="-75.20375">
        <ele>619.5</ele>
        <time>2021-08-21T20:04:34Z</time>
      </trkpt>
      <trkpt lat="2.936245" lon="-75.203766">
        <ele>619.6</ele>
        <time>2021-08-21T20:04:35Z</time>
      </trkpt>
      <trkpt lat="2.936233" lon="-75.20378">
        <ele>619.9</ele>
        <time>2021-08-21T20:04:36Z</time>
      </trkpt>
      <trkpt lat="2.93621" lon="-75.203804">
        <ele>620.2</ele>
        <time>2021-08-21T20:04:37Z</time>
      </trkpt>
      <trkpt lat="2.936216" lon="-75.2038">
        <ele>620.1</ele>
        <time>2021-08-21T20:04:37Z</time>
      </trkpt>
      <trkpt lat="2.936197" lon="-75.20382">
        <ele>620.5</ele>
        <time>2021-08-21T20:04:38Z</time>
      </trkpt>
      <trkpt lat="2.936185" lon="-75.20383">
        <ele>620.7</ele>
        <time>2021-08-21T20:04:39Z</time>
      </trkpt>
      <trkpt lat="2.936172" lon="-75.20384">
        <ele>620.9</ele>
        <time>2021-08-21T20:04:40Z</time>
      </trkpt>
      <trkpt lat="2.93616" lon="-75.20386">
        <ele>621.1</ele>
        <time>2021-08-21T20:04:41Z</time>
      </trkpt>
      <trkpt lat="2.936148" lon="-75.20387">
        <ele>621.3</ele>
        <time>2021-08-21T20:04:42Z</time>
      </trkpt>
      <trkpt lat="2.936136" lon="-75.20388">
        <ele>621.5</ele>
        <time>2021-08-21T20:04:43Z</time>
      </trkpt>
      <trkpt lat="2.936123" lon="-75.203896">
        <ele>621.7</ele>
        <time>2021-08-21T20:04:44Z</time>
      </trkpt>
      <trkpt lat="2.936111" lon="-75.20391">
        <ele>621.9</ele>
        <time>2021-08-21T20:04:45Z</time>
      </trkpt>
      <trkpt lat="2.936099" lon="-75.20392">
        <ele>622.2</ele>
        <time>2021-08-21T20:04:46Z</time>
      </trkpt>
      <trkpt lat="2.936087" lon="-75.20393">
        <ele>622.4</ele>
        <time>2021-08-21T20:04:47Z</time>
      </trkpt>
      <trkpt lat="2.936076" lon="-75.20395">
        <ele>622.6</ele>
        <time>2021-08-21T20:04:48Z</time>
      </trkpt>
      <trkpt lat="2.936065" lon="-75.203964">
        <ele>622.8</ele>
        <time>2021-08-21T20:04:49Z</time>
      </trkpt>
      <trkpt lat="2.936054" lon="-75.20397">
        <ele>623.0</ele>
        <time>2021-08-21T20:04:50Z</time>
      </trkpt>
      <trkpt lat="2.936043" lon="-75.20399">
        <ele>623.2</ele>
        <time>2021-08-21T20:04:51Z</time>
      </trkpt>
      <trkpt lat="2.936033" lon="-75.204">
        <ele>623.4</ele>
        <time>2021-08-21T20:04:52Z</time>
      </trkpt>
      <trkpt lat="2.936024" lon="-75.20402">
        <ele>623.6</ele>
        <time>2021-08-21T20:04:53Z</time>
      </trkpt>
      <trkpt lat="2.936014" lon="-75.20403">
        <ele>623.8</ele>
        <time>2021-08-21T20:04:54Z</time>
      </trkpt>
      <trkpt lat="2.936005" lon="-75.20405">
        <ele>624.0</ele>
        <time>2021-08-21T20:04:55Z</time>
      </trkpt>
      <trkpt lat="2.935996" lon="-75.20406">
        <ele>624.2</ele>
        <time>2021-08-21T20:04:56Z</time>
      </trkpt>
      <trkpt lat="2.935988" lon="-75.20408">
        <ele>624.4</ele>
        <time>2021-08-21T20:04:57Z</time>
      </trkpt>
      <trkpt lat="2.935981" lon="-75.204094">
        <ele>624.6</ele>
        <time>2021-08-21T20:04:58Z</time>
      </trkpt>
      <trkpt lat="2.935973" lon="-75.20411">
        <ele>624.8</ele>
        <time>2021-08-21T20:04:59Z</time>
      </trkpt>
      <trkpt lat="2.935965" lon="-75.204124">
        <ele>625.0</ele>
        <time>2021-08-21T20:05:00Z</time>
      </trkpt>
      <trkpt lat="2.935956" lon="-75.20413">
        <ele>625.1</ele>
        <time>2021-08-21T20:05:01Z</time>
      </trkpt>
      <trkpt lat="2.935947" lon="-75.20415">
        <ele>625.3</ele>
        <time>2021-08-21T20:05:02Z</time>
      </trkpt>
      <trkpt lat="2.935939" lon="-75.20416">
        <ele>625.5</ele>
        <time>2021-08-21T20:05:03Z</time>
      </trkpt>
      <trkpt lat="2.935931" lon="-75.20417">
        <ele>625.6</ele>
        <time>2021-08-21T20:05:04Z</time>
      </trkpt>
      <trkpt lat="2.935923" lon="-75.204185">
        <ele>625.8</ele>
        <time>2021-08-21T20:05:05Z</time>
      </trkpt>
      <trkpt lat="2.935914" lon="-75.2042">
        <ele>626.0</ele>
        <time>2021-08-21T20:05:06Z</time>
      </trkpt>
      <trkpt lat="2.935906" lon="-75.204216">
        <ele>626.1</ele>
        <time>2021-08-21T20:05:07Z</time>
      </trkpt>
      <trkpt lat="2.935898" lon="-75.20423">
        <ele>626.3</ele>
        <time>2021-08-21T20:05:08Z</time>
      </trkpt>
      <trkpt lat="2.93589" lon="-75.20425">
        <ele>626.5</ele>
        <time>2021-08-21T20:05:09Z</time>
      </trkpt>
      <trkpt lat="2.935882" lon="-75.20426">
        <ele>626.6</ele>
        <time>2021-08-21T20:05:10Z</time>
      </trkpt>
      <trkpt lat="2.935873" lon="-75.20428">
        <ele>626.8</ele>
        <time>2021-08-21T20:05:11Z</time>
      </trkpt>
      <trkpt lat="2.935865" lon="-75.20429">
        <ele>627.0</ele>
        <time>2021-08-21T20:05:12Z</time>
      </trkpt>
      <trkpt lat="2.93585" lon="-75.204315">
        <ele>627.2</ele>
        <time>2021-08-21T20:05:13Z</time>
      </trkpt>
      <trkpt lat="2.935843" lon="-75.20433">
        <ele>627.3</ele>
        <time>2021-08-21T20:05:14Z</time>
      </trkpt>
      <trkpt lat="2.93583" lon="-75.204346">
        <ele>627.6</ele>
        <time>2021-08-21T20:05:15Z</time>
      </trkpt>
      <trkpt lat="2.935837" lon="-75.20434">
        <ele>627.4</ele>
        <time>2021-08-21T20:05:15Z</time>
      </trkpt>
      <trkpt lat="2.935797" lon="-75.20441">
        <ele>628.0</ele>
        <time>2021-08-21T20:05:18Z</time>
      </trkpt>
      <trkpt lat="2.935795" lon="-75.204414">
        <ele>628.1</ele>
        <time>2021-08-21T20:05:19Z</time>
      </trkpt>
      <trkpt lat="2.935791" lon="-75.20442">
        <ele>628.1</ele>
        <time>2021-08-21T20:05:20Z</time>
      </trkpt>
      <trkpt lat="2.935784" lon="-75.20443">
        <ele>628.2</ele>
        <time>2021-08-21T20:05:21Z</time>
      </trkpt>
      <trkpt lat="2.935777" lon="-75.204445">
        <ele>628.3</ele>
        <time>2021-08-21T20:05:22Z</time>
      </trkpt>
      <trkpt lat="2.935769" lon="-75.20445">
        <ele>628.4</ele>
        <time>2021-08-21T20:05:23Z</time>
      </trkpt>
      <trkpt lat="2.93576" lon="-75.20447">
        <ele>628.5</ele>
        <time>2021-08-21T20:05:24Z</time>
      </trkpt>
      <trkpt lat="2.935749" lon="-75.20448">
        <ele>628.6</ele>
        <time>2021-08-21T20:05:25Z</time>
      </trkpt>
      <trkpt lat="2.935738" lon="-75.2045">
        <ele>628.7</ele>
        <time>2021-08-21T20:05:26Z</time>
      </trkpt>
      <trkpt lat="2.935727" lon="-75.20451">
        <ele>628.7</ele>
        <time>2021-08-21T20:05:27Z</time>
      </trkpt>
      <trkpt lat="2.935715" lon="-75.20453">
        <ele>628.8</ele>
        <time>2021-08-21T20:05:28Z</time>
      </trkpt>
      <trkpt lat="2.935703" lon="-75.204544">
        <ele>628.9</ele>
        <time>2021-08-21T20:05:29Z</time>
      </trkpt>
      <trkpt lat="2.935692" lon="-75.20456">
        <ele>629.0</ele>
        <time>2021-08-21T20:05:30Z</time>
      </trkpt>
      <trkpt lat="2.935682" lon="-75.204575">
        <ele>629.1</ele>
        <time>2021-08-21T20:05:31Z</time>
      </trkpt>
      <trkpt lat="2.935672" lon="-75.2046">
        <ele>629.1</ele>
        <time>2021-08-21T20:05:32Z</time>
      </trkpt>
      <trkpt lat="2.935661" lon="-75.20461">
        <ele>629.2</ele>
        <time>2021-08-21T20:05:33Z</time>
      </trkpt>
      <trkpt lat="2.935651" lon="-75.204636">
        <ele>629.3</ele>
        <time>2021-08-21T20:05:34Z</time>
      </trkpt>
      <trkpt lat="2.935639" lon="-75.20465">
        <ele>629.3</ele>
        <time>2021-08-21T20:05:35Z</time>
      </trkpt>
      <trkpt lat="2.935628" lon="-75.20467">
        <ele>629.4</ele>
        <time>2021-08-21T20:05:36Z</time>
      </trkpt>
      <trkpt lat="2.935615" lon="-75.20469">
        <ele>629.5</ele>
        <time>2021-08-21T20:05:37Z</time>
      </trkpt>
      <trkpt lat="2.935604" lon="-75.20471">
        <ele>629.5</ele>
        <time>2021-08-21T20:05:38Z</time>
      </trkpt>
      <trkpt lat="2.935592" lon="-75.20473">
        <ele>629.6</ele>
        <time>2021-08-21T20:05:39Z</time>
      </trkpt>
      <trkpt lat="2.93558" lon="-75.20475">
        <ele>629.7</ele>
        <time>2021-08-21T20:05:40Z</time>
      </trkpt>
      <trkpt lat="2.93557" lon="-75.204765">
        <ele>629.8</ele>
        <time>2021-08-21T20:05:41Z</time>
      </trkpt>
      <trkpt lat="2.93556" lon="-75.20479">
        <ele>629.8</ele>
        <time>2021-08-21T20:05:42Z</time>
      </trkpt>
      <trkpt lat="2.935551" lon="-75.20481">
        <ele>629.9</ele>
        <time>2021-08-21T20:05:43Z</time>
      </trkpt>
      <trkpt lat="2.935542" lon="-75.20483">
        <ele>630.0</ele>
        <time>2021-08-21T20:05:44Z</time>
      </trkpt>
      <trkpt lat="2.935533" lon="-75.20485">
        <ele>630.1</ele>
        <time>2021-08-21T20:05:45Z</time>
      </trkpt>
      <trkpt lat="2.935526" lon="-75.20487">
        <ele>630.2</ele>
        <time>2021-08-21T20:05:46Z</time>
      </trkpt>
      <trkpt lat="2.935517" lon="-75.20489">
        <ele>630.3</ele>
        <time>2021-08-21T20:05:47Z</time>
      </trkpt>
      <trkpt lat="2.93551" lon="-75.20491">
        <ele>630.4</ele>
        <time>2021-08-21T20:05:48Z</time>
      </trkpt>
      <trkpt lat="2.935503" lon="-75.20493">
        <ele>630.5</ele>
        <time>2021-08-21T20:05:49Z</time>
      </trkpt>
      <trkpt lat="2.935496" lon="-75.204956">
        <ele>630.6</ele>
        <time>2021-08-21T20:05:50Z</time>
      </trkpt>
      <trkpt lat="2.93549" lon="-75.20498">
        <ele>630.7</ele>
        <time>2021-08-21T20:05:51Z</time>
      </trkpt>
      <trkpt lat="2.935484" lon="-75.204994">
        <ele>630.8</ele>
        <time>2021-08-21T20:05:52Z</time>
      </trkpt>
      <trkpt lat="2.935478" lon="-75.20502">
        <ele>631.0</ele>
        <time>2021-08-21T20:05:53Z</time>
      </trkpt>
      <trkpt lat="2.935473" lon="-75.20504">
        <ele>631.1</ele>
        <time>2021-08-21T20:05:54Z</time>
      </trkpt>
      <trkpt lat="2.935467" lon="-75.205055">
        <ele>631.2</ele>
        <time>2021-08-21T20:05:55Z</time>
      </trkpt>
      <trkpt lat="2.935462" lon="-75.20508">
        <ele>631.4</ele>
        <time>2021-08-21T20:05:56Z</time>
      </trkpt>
      <trkpt lat="2.935457" lon="-75.20509">
        <ele>631.5</ele>
        <time>2021-08-21T20:05:57Z</time>
      </trkpt>
      <trkpt lat="2.935451" lon="-75.20512">
        <ele>631.7</ele>
        <time>2021-08-21T20:05:58Z</time>
      </trkpt>
      <trkpt lat="2.935446" lon="-75.20514">
        <ele>631.9</ele>
        <time>2021-08-21T20:05:59Z</time>
      </trkpt>
      <trkpt lat="2.93544" lon="-75.205154">
        <ele>632.1</ele>
        <time>2021-08-21T20:06:00Z</time>
      </trkpt>
      <trkpt lat="2.935435" lon="-75.20518">
        <ele>632.3</ele>
        <time>2021-08-21T20:06:01Z</time>
      </trkpt>
      <trkpt lat="2.93543" lon="-75.20519">
        <ele>632.5</ele>
        <time>2021-08-21T20:06:02Z</time>
      </trkpt>
      <trkpt lat="2.935426" lon="-75.205215">
        <ele>632.6</ele>
        <time>2021-08-21T20:06:03Z</time>
      </trkpt>
      <trkpt lat="2.935421" lon="-75.20523">
        <ele>632.8</ele>
        <time>2021-08-21T20:06:04Z</time>
      </trkpt>
      <trkpt lat="2.935416" lon="-75.20525">
        <ele>633.0</ele>
        <time>2021-08-21T20:06:05Z</time>
      </trkpt>
      <trkpt lat="2.935412" lon="-75.20527">
        <ele>633.2</ele>
        <time>2021-08-21T20:06:06Z</time>
      </trkpt>
      <trkpt lat="2.935409" lon="-75.205284">
        <ele>633.4</ele>
        <time>2021-08-21T20:06:07Z</time>
      </trkpt>
      <trkpt lat="2.935407" lon="-75.2053">
        <ele>633.6</ele>
        <time>2021-08-21T20:06:08Z</time>
      </trkpt>
      <trkpt lat="2.935402" lon="-75.20532">
        <ele>633.8</ele>
        <time>2021-08-21T20:06:09Z</time>
      </trkpt>
      <trkpt lat="2.935397" lon="-75.20534">
        <ele>634.0</ele>
        <time>2021-08-21T20:06:10Z</time>
      </trkpt>
      <trkpt lat="2.935392" lon="-75.20535">
        <ele>634.3</ele>
        <time>2021-08-21T20:06:11Z</time>
      </trkpt>
      <trkpt lat="2.935387" lon="-75.205376">
        <ele>634.5</ele>
        <time>2021-08-21T20:06:12Z</time>
      </trkpt>
      <trkpt lat="2.935383" lon="-75.20539">
        <ele>634.7</ele>
        <time>2021-08-21T20:06:13Z</time>
      </trkpt>
      <trkpt lat="2.935378" lon="-75.20541">
        <ele>634.9</ele>
        <time>2021-08-21T20:06:14Z</time>
      </trkpt>
      <trkpt lat="2.935372" lon="-75.20543">
        <ele>635.1</ele>
        <time>2021-08-21T20:06:15Z</time>
      </trkpt>
      <trkpt lat="2.935366" lon="-75.205444">
        <ele>635.4</ele>
        <time>2021-08-21T20:06:16Z</time>
      </trkpt>
      <trkpt lat="2.93536" lon="-75.20546">
        <ele>635.6</ele>
        <time>2021-08-21T20:06:17Z</time>
      </trkpt>
      <trkpt lat="2.935354" lon="-75.20548">
        <ele>635.8</ele>
        <time>2021-08-21T20:06:18Z</time>
      </trkpt>
      <trkpt lat="2.935347" lon="-75.2055">
        <ele>636.0</ele>
        <time>2021-08-21T20:06:19Z</time>
      </trkpt>
      <trkpt lat="2.935339" lon="-75.20551">
        <ele>636.3</ele>
        <time>2021-08-21T20:06:20Z</time>
      </trkpt>
      <trkpt lat="2.935331" lon="-75.205536">
        <ele>636.5</ele>
        <time>2021-08-21T20:06:21Z</time>
      </trkpt>
      <trkpt lat="2.935323" lon="-75.20555">
        <ele>636.7</ele>
        <time>2021-08-21T20:06:22Z</time>
      </trkpt>
      <trkpt lat="2.935314" lon="-75.20557">
        <ele>636.9</ele>
        <time>2021-08-21T20:06:23Z</time>
      </trkpt>
      <trkpt lat="2.935306" lon="-75.20559">
        <ele>637.1</ele>
        <time>2021-08-21T20:06:24Z</time>
      </trkpt>
      <trkpt lat="2.935298" lon="-75.205605">
        <ele>637.4</ele>
        <time>2021-08-21T20:06:25Z</time>
      </trkpt>
      <trkpt lat="2.935289" lon="-75.20563">
        <ele>637.6</ele>
        <time>2021-08-21T20:06:26Z</time>
      </trkpt>
      <trkpt lat="2.935281" lon="-75.20565">
        <ele>637.8</ele>
        <time>2021-08-21T20:06:27Z</time>
      </trkpt>
      <trkpt lat="2.935273" lon="-75.205666">
        <ele>638.0</ele>
        <time>2021-08-21T20:06:28Z</time>
      </trkpt>
      <trkpt lat="2.935267" lon="-75.20569">
        <ele>638.2</ele>
        <time>2021-08-21T20:06:29Z</time>
      </trkpt>
      <trkpt lat="2.935262" lon="-75.2057">
        <ele>638.4</ele>
        <time>2021-08-21T20:06:30Z</time>
      </trkpt>
      <trkpt lat="2.935258" lon="-75.20573">
        <ele>638.6</ele>
        <time>2021-08-21T20:06:31Z</time>
      </trkpt>
      <trkpt lat="2.935255" lon="-75.20575">
        <ele>638.7</ele>
        <time>2021-08-21T20:06:32Z</time>
      </trkpt>
      <trkpt lat="2.935253" lon="-75.20577">
        <ele>638.9</ele>
        <time>2021-08-21T20:06:33Z</time>
      </trkpt>
      <trkpt lat="2.935251" lon="-75.205795">
        <ele>639.1</ele>
        <time>2021-08-21T20:06:34Z</time>
      </trkpt>
      <trkpt lat="2.93525" lon="-75.20582">
        <ele>639.3</ele>
        <time>2021-08-21T20:06:35Z</time>
      </trkpt>
      <trkpt lat="2.935249" lon="-75.20584">
        <ele>639.5</ele>
        <time>2021-08-21T20:06:36Z</time>
      </trkpt>
      <trkpt lat="2.93525" lon="-75.205864">
        <ele>639.7</ele>
        <time>2021-08-21T20:06:37Z</time>
      </trkpt>
      <trkpt lat="2.935252" lon="-75.20588">
        <ele>639.9</ele>
        <time>2021-08-21T20:06:38Z</time>
      </trkpt>
      <trkpt lat="2.935255" lon="-75.20591">
        <ele>640.1</ele>
        <time>2021-08-21T20:06:39Z</time>
      </trkpt>
      <trkpt lat="2.935258" lon="-75.20593">
        <ele>640.3</ele>
        <time>2021-08-21T20:06:40Z</time>
      </trkpt>
      <trkpt lat="2.935262" lon="-75.205956">
        <ele>640.5</ele>
        <time>2021-08-21T20:06:41Z</time>
      </trkpt>
      <trkpt lat="2.935267" lon="-75.20598">
        <ele>640.7</ele>
        <time>2021-08-21T20:06:42Z</time>
      </trkpt>
      <trkpt lat="2.935272" lon="-75.20599">
        <ele>640.9</ele>
        <time>2021-08-21T20:06:43Z</time>
      </trkpt>
      <trkpt lat="2.935276" lon="-75.20602">
        <ele>641.1</ele>
        <time>2021-08-21T20:06:44Z</time>
      </trkpt>
      <trkpt lat="2.935282" lon="-75.20604">
        <ele>641.2</ele>
        <time>2021-08-21T20:06:45Z</time>
      </trkpt>
      <trkpt lat="2.935288" lon="-75.206055">
        <ele>641.4</ele>
        <time>2021-08-21T20:06:46Z</time>
      </trkpt>
      <trkpt lat="2.935293" lon="-75.20608">
        <ele>641.6</ele>
        <time>2021-08-21T20:06:47Z</time>
      </trkpt>
      <trkpt lat="2.935298" lon="-75.20609">
        <ele>641.8</ele>
        <time>2021-08-21T20:06:47Z</time>
      </trkpt>
      <trkpt lat="2.935314" lon="-75.20618">
        <ele>642.6</ele>
        <time>2021-08-21T20:06:50Z</time>
      </trkpt>
      <trkpt lat="2.935314" lon="-75.20618">
        <ele>642.6</ele>
        <time>2021-08-21T20:06:51Z</time>
      </trkpt>
      <trkpt lat="2.935314" lon="-75.206184">
        <ele>642.7</ele>
        <time>2021-08-21T20:06:52Z</time>
      </trkpt>
      <trkpt lat="2.935314" lon="-75.2062">
        <ele>642.8</ele>
        <time>2021-08-21T20:06:53Z</time>
      </trkpt>
      <trkpt lat="2.935315" lon="-75.20621">
        <ele>643.0</ele>
        <time>2021-08-21T20:06:54Z</time>
      </trkpt>
      <trkpt lat="2.935316" lon="-75.20623">
        <ele>643.1</ele>
        <time>2021-08-21T20:06:55Z</time>
      </trkpt>
      <trkpt lat="2.935318" lon="-75.206245">
        <ele>643.3</ele>
        <time>2021-08-21T20:06:56Z</time>
      </trkpt>
      <trkpt lat="2.935321" lon="-75.20626">
        <ele>643.5</ele>
        <time>2021-08-21T20:06:57Z</time>
      </trkpt>
      <trkpt lat="2.935325" lon="-75.206276">
        <ele>643.7</ele>
        <time>2021-08-21T20:06:58Z</time>
      </trkpt>
      <trkpt lat="2.935328" lon="-75.20629">
        <ele>643.8</ele>
        <time>2021-08-21T20:06:59Z</time>
      </trkpt>
      <trkpt lat="2.935332" lon="-75.206314">
        <ele>644.0</ele>
        <time>2021-08-21T20:07:00Z</time>
      </trkpt>
      <trkpt lat="2.935336" lon="-75.20633">
        <ele>644.2</ele>
        <time>2021-08-21T20:07:01Z</time>
      </trkpt>
      <trkpt lat="2.935339" lon="-75.206345">
        <ele>644.3</ele>
        <time>2021-08-21T20:07:02Z</time>
      </trkpt>
      <trkpt lat="2.935341" lon="-75.20637">
        <ele>644.5</ele>
        <time>2021-08-21T20:07:03Z</time>
      </trkpt>
      <trkpt lat="2.935343" lon="-75.20638">
        <ele>644.7</ele>
        <time>2021-08-21T20:07:04Z</time>
      </trkpt>
      <trkpt lat="2.935344" lon="-75.2064">
        <ele>644.8</ele>
        <time>2021-08-21T20:07:05Z</time>
      </trkpt>
      <trkpt lat="2.935344" lon="-75.20642">
        <ele>644.9</ele>
        <time>2021-08-21T20:07:06Z</time>
      </trkpt>
      <trkpt lat="2.935344" lon="-75.20644">
        <ele>645.1</ele>
        <time>2021-08-21T20:07:07Z</time>
      </trkpt>
      <trkpt lat="2.935343" lon="-75.20646">
        <ele>645.2</ele>
        <time>2021-08-21T20:07:08Z</time>
      </trkpt>
      <trkpt lat="2.935341" lon="-75.20648">
        <ele>645.3</ele>
        <time>2021-08-21T20:07:09Z</time>
      </trkpt>
      <trkpt lat="2.935339" lon="-75.206505">
        <ele>645.4</ele>
        <time>2021-08-21T20:07:10Z</time>
      </trkpt>
      <trkpt lat="2.935336" lon="-75.20652">
        <ele>645.5</ele>
        <time>2021-08-21T20:07:11Z</time>
      </trkpt>
      <trkpt lat="2.935334" lon="-75.20654">
        <ele>645.6</ele>
        <time>2021-08-21T20:07:12Z</time>
      </trkpt>
      <trkpt lat="2.935331" lon="-75.206566">
        <ele>645.7</ele>
        <time>2021-08-21T20:07:13Z</time>
      </trkpt>
      <trkpt lat="2.935328" lon="-75.20658">
        <ele>645.8</ele>
        <time>2021-08-21T20:07:14Z</time>
      </trkpt>
      <trkpt lat="2.935324" lon="-75.206604">
        <ele>645.8</ele>
        <time>2021-08-21T20:07:15Z</time>
      </trkpt>
      <trkpt lat="2.93532" lon="-75.20663">
        <ele>645.9</ele>
        <time>2021-08-21T20:07:16Z</time>
      </trkpt>
      <trkpt lat="2.935316" lon="-75.20665">
        <ele>645.9</ele>
        <time>2021-08-21T20:07:17Z</time>
      </trkpt>
      <trkpt lat="2.935311" lon="-75.20668">
        <ele>645.9</ele>
        <time>2021-08-21T20:07:18Z</time>
      </trkpt>
      <trkpt lat="2.935307" lon="-75.2067">
        <ele>645.9</ele>
        <time>2021-08-21T20:07:19Z</time>
      </trkpt>
      <trkpt lat="2.935301" lon="-75.20673">
        <ele>645.9</ele>
        <time>2021-08-21T20:07:20Z</time>
      </trkpt>
      <trkpt lat="2.935296" lon="-75.206764">
        <ele>645.8</ele>
        <time>2021-08-21T20:07:21Z</time>
      </trkpt>
      <trkpt lat="2.93529" lon="-75.2068">
        <ele>645.7</ele>
        <time>2021-08-21T20:07:22Z</time>
      </trkpt>
      <trkpt lat="2.935283" lon="-75.20683">
        <ele>645.6</ele>
        <time>2021-08-21T20:07:23Z</time>
      </trkpt>
      <trkpt lat="2.935277" lon="-75.20687">
        <ele>645.4</ele>
        <time>2021-08-21T20:07:24Z</time>
      </trkpt>
      <trkpt lat="2.93527" lon="-75.20692">
        <ele>645.2</ele>
        <time>2021-08-21T20:07:25Z</time>
      </trkpt>
      <trkpt lat="2.935263" lon="-75.20696">
        <ele>644.9</ele>
        <time>2021-08-21T20:07:26Z</time>
      </trkpt>
      <trkpt lat="2.935256" lon="-75.207016">
        <ele>644.6</ele>
        <time>2021-08-21T20:07:27Z</time>
      </trkpt>
      <trkpt lat="2.935249" lon="-75.20707">
        <ele>644.3</ele>
        <time>2021-08-21T20:07:28Z</time>
      </trkpt>
      <trkpt lat="2.935242" lon="-75.20712">
        <ele>643.9</ele>
        <time>2021-08-21T20:07:29Z</time>
      </trkpt>
      <trkpt lat="2.935236" lon="-75.207184">
        <ele>643.5</ele>
        <time>2021-08-21T20:07:30Z</time>
      </trkpt>
      <trkpt lat="2.93523" lon="-75.207245">
        <ele>643.1</ele>
        <time>2021-08-21T20:07:31Z</time>
      </trkpt>
      <trkpt lat="2.935224" lon="-75.20731">
        <ele>642.7</ele>
        <time>2021-08-21T20:07:32Z</time>
      </trkpt>
      <trkpt lat="2.935218" lon="-75.20738">
        <ele>642.3</ele>
        <time>2021-08-21T20:07:33Z</time>
      </trkpt>
      <trkpt lat="2.935214" lon="-75.20744">
        <ele>641.9</ele>
        <time>2021-08-21T20:07:34Z</time>
      </trkpt>
      <trkpt lat="2.935211" lon="-75.20752">
        <ele>641.5</ele>
        <time>2021-08-21T20:07:35Z</time>
      </trkpt>
      <trkpt lat="2.93521" lon="-75.20759">
        <ele>641.1</ele>
        <time>2021-08-21T20:07:36Z</time>
      </trkpt>
      <trkpt lat="2.93521" lon="-75.20766">
        <ele>640.8</ele>
        <time>2021-08-21T20:07:37Z</time>
      </trkpt>
      <trkpt lat="2.93521" lon="-75.207726">
        <ele>640.5</ele>
        <time>2021-08-21T20:07:38Z</time>
      </trkpt>
      <trkpt lat="2.935213" lon="-75.2078">
        <ele>640.2</ele>
        <time>2021-08-21T20:07:39Z</time>
      </trkpt>
      <trkpt lat="2.935216" lon="-75.20787">
        <ele>639.8</ele>
        <time>2021-08-21T20:07:40Z</time>
      </trkpt>
      <trkpt lat="2.935223" lon="-75.20795">
        <ele>639.5</ele>
        <time>2021-08-21T20:07:41Z</time>
      </trkpt>
      <trkpt lat="2.935231" lon="-75.208015">
        <ele>639.2</ele>
        <time>2021-08-21T20:07:42Z</time>
      </trkpt>
      <trkpt lat="2.93524" lon="-75.20809">
        <ele>638.9</ele>
        <time>2021-08-21T20:07:43Z</time>
      </trkpt>
      <trkpt lat="2.935249" lon="-75.20817">
        <ele>638.5</ele>
        <time>2021-08-21T20:07:44Z</time>
      </trkpt>
      <trkpt lat="2.935258" lon="-75.20824">
        <ele>638.2</ele>
        <time>2021-08-21T20:07:45Z</time>
      </trkpt>
      <trkpt lat="2.935267" lon="-75.20831">
        <ele>638.0</ele>
        <time>2021-08-21T20:07:46Z</time>
      </trkpt>
      <trkpt lat="2.935275" lon="-75.20839">
        <ele>637.7</ele>
        <time>2021-08-21T20:07:47Z</time>
      </trkpt>
      <trkpt lat="2.935283" lon="-75.208466">
        <ele>637.5</ele>
        <time>2021-08-21T20:07:48Z</time>
      </trkpt>
      <trkpt lat="2.93529" lon="-75.208534">
        <ele>637.3</ele>
        <time>2021-08-21T20:07:49Z</time>
      </trkpt>
      <trkpt lat="2.935297" lon="-75.20861">
        <ele>637.1</ele>
        <time>2021-08-21T20:07:50Z</time>
      </trkpt>
      <trkpt lat="2.935304" lon="-75.20868">
        <ele>636.9</ele>
        <time>2021-08-21T20:07:51Z</time>
      </trkpt>
      <trkpt lat="2.93531" lon="-75.208755">
        <ele>636.6</ele>
        <time>2021-08-21T20:07:52Z</time>
      </trkpt>
      <trkpt lat="2.935317" lon="-75.20883">
        <ele>636.4</ele>
        <time>2021-08-21T20:07:53Z</time>
      </trkpt>
      <trkpt lat="2.935323" lon="-75.2089">
        <ele>636.3</ele>
        <time>2021-08-21T20:07:54Z</time>
      </trkpt>
      <trkpt lat="2.935331" lon="-75.20897">
        <ele>636.1</ele>
        <time>2021-08-21T20:07:55Z</time>
      </trkpt>
      <trkpt lat="2.935338" lon="-75.20904">
        <ele>635.9</ele>
        <time>2021-08-21T20:07:56Z</time>
      </trkpt>
      <trkpt lat="2.935345" lon="-75.209114">
        <ele>635.8</ele>
        <time>2021-08-21T20:07:57Z</time>
      </trkpt>
      <trkpt lat="2.935351" lon="-75.20918">
        <ele>635.6</ele>
        <time>2021-08-21T20:07:58Z</time>
      </trkpt>
      <trkpt lat="2.935357" lon="-75.20925">
        <ele>635.5</ele>
        <time>2021-08-21T20:07:59Z</time>
      </trkpt>
      <trkpt lat="2.935363" lon="-75.20933">
        <ele>635.3</ele>
        <time>2021-08-21T20:08:00Z</time>
      </trkpt>
      <trkpt lat="2.93537" lon="-75.2094">
        <ele>635.2</ele>
        <time>2021-08-21T20:08:01Z</time>
      </trkpt>
      <trkpt lat="2.935377" lon="-75.20947">
        <ele>635.0</ele>
        <time>2021-08-21T20:08:02Z</time>
      </trkpt>
      <trkpt lat="2.935385" lon="-75.20954">
        <ele>634.8</ele>
        <time>2021-08-21T20:08:03Z</time>
      </trkpt>
      <trkpt lat="2.935392" lon="-75.20962">
        <ele>634.6</ele>
        <time>2021-08-21T20:08:04Z</time>
      </trkpt>
      <trkpt lat="2.935398" lon="-75.20969">
        <ele>634.4</ele>
        <time>2021-08-21T20:08:05Z</time>
      </trkpt>
      <trkpt lat="2.935406" lon="-75.20976">
        <ele>634.2</ele>
        <time>2021-08-21T20:08:06Z</time>
      </trkpt>
      <trkpt lat="2.935413" lon="-75.20983">
        <ele>634.0</ele>
        <time>2021-08-21T20:08:07Z</time>
      </trkpt>
      <trkpt lat="2.935421" lon="-75.20991">
        <ele>633.8</ele>
        <time>2021-08-21T20:08:08Z</time>
      </trkpt>
      <trkpt lat="2.935427" lon="-75.209984">
        <ele>633.5</ele>
        <time>2021-08-21T20:08:09Z</time>
      </trkpt>
      <trkpt lat="2.935433" lon="-75.21006">
        <ele>633.2</ele>
        <time>2021-08-21T20:08:10Z</time>
      </trkpt>
      <trkpt lat="2.935438" lon="-75.21013">
        <ele>633.0</ele>
        <time>2021-08-21T20:08:11Z</time>
      </trkpt>
      <trkpt lat="2.935445" lon="-75.210205">
        <ele>632.7</ele>
        <time>2021-08-21T20:08:12Z</time>
      </trkpt>
      <trkpt lat="2.93545" lon="-75.21028">
        <ele>632.4</ele>
        <time>2021-08-21T20:08:13Z</time>
      </trkpt>
      <trkpt lat="2.935456" lon="-75.21036">
        <ele>632.1</ele>
        <time>2021-08-21T20:08:14Z</time>
      </trkpt>
      <trkpt lat="2.935462" lon="-75.210434">
        <ele>631.8</ele>
        <time>2021-08-21T20:08:15Z</time>
      </trkpt>
      <trkpt lat="2.935469" lon="-75.21051">
        <ele>631.6</ele>
        <time>2021-08-21T20:08:16Z</time>
      </trkpt>
      <trkpt lat="2.935476" lon="-75.21059">
        <ele>631.3</ele>
        <time>2021-08-21T20:08:17Z</time>
      </trkpt>
      <trkpt lat="2.935483" lon="-75.21066">
        <ele>631.0</ele>
        <time>2021-08-21T20:08:18Z</time>
      </trkpt>
      <trkpt lat="2.935489" lon="-75.21074">
        <ele>630.7</ele>
        <time>2021-08-21T20:08:19Z</time>
      </trkpt>
      <trkpt lat="2.935496" lon="-75.210815">
        <ele>630.4</ele>
        <time>2021-08-21T20:08:20Z</time>
      </trkpt>
      <trkpt lat="2.935503" lon="-75.21089">
        <ele>630.1</ele>
        <time>2021-08-21T20:08:21Z</time>
      </trkpt>
      <trkpt lat="2.93551" lon="-75.210976">
        <ele>629.8</ele>
        <time>2021-08-21T20:08:22Z</time>
      </trkpt>
      <trkpt lat="2.935517" lon="-75.21105">
        <ele>629.5</ele>
        <time>2021-08-21T20:08:23Z</time>
      </trkpt>
      <trkpt lat="2.935523" lon="-75.211136">
        <ele>629.2</ele>
        <time>2021-08-21T20:08:24Z</time>
      </trkpt>
      <trkpt lat="2.935529" lon="-75.21121">
        <ele>628.9</ele>
        <time>2021-08-21T20:08:25Z</time>
      </trkpt>
      <trkpt lat="2.935536" lon="-75.211296">
        <ele>628.6</ele>
        <time>2021-08-21T20:08:26Z</time>
      </trkpt>
      <trkpt lat="2.935542" lon="-75.21137">
        <ele>628.3</ele>
        <time>2021-08-21T20:08:27Z</time>
      </trkpt>
      <trkpt lat="2.935549" lon="-75.21146">
        <ele>628.1</ele>
        <time>2021-08-21T20:08:28Z</time>
      </trkpt>
      <trkpt lat="2.935557" lon="-75.21153">
        <ele>627.8</ele>
        <time>2021-08-21T20:08:29Z</time>
      </trkpt>
      <trkpt lat="2.935564" lon="-75.21162">
        <ele>627.5</ele>
        <time>2021-08-21T20:08:30Z</time>
      </trkpt>
      <trkpt lat="2.935573" lon="-75.21169">
        <ele>627.2</ele>
        <time>2021-08-21T20:08:31Z</time>
      </trkpt>
      <trkpt lat="2.935581" lon="-75.21178">
        <ele>627.0</ele>
        <time>2021-08-21T20:08:32Z</time>
      </trkpt>
      <trkpt lat="2.935589" lon="-75.21186">
        <ele>626.7</ele>
        <time>2021-08-21T20:08:33Z</time>
      </trkpt>
      <trkpt lat="2.935595" lon="-75.21194">
        <ele>626.5</ele>
        <time>2021-08-21T20:08:34Z</time>
      </trkpt>
      <trkpt lat="2.935602" lon="-75.21201">
        <ele>626.2</ele>
        <time>2021-08-21T20:08:35Z</time>
      </trkpt>
      <trkpt lat="2.935608" lon="-75.2121">
        <ele>626.0</ele>
        <time>2021-08-21T20:08:36Z</time>
      </trkpt>
      <trkpt lat="2.935614" lon="-75.21217">
        <ele>625.7</ele>
        <time>2021-08-21T20:08:37Z</time>
      </trkpt>
      <trkpt lat="2.93562" lon="-75.21225">
        <ele>625.5</ele>
        <time>2021-08-21T20:08:38Z</time>
      </trkpt>
      <trkpt lat="2.935625" lon="-75.212326">
        <ele>625.3</ele>
        <time>2021-08-21T20:08:39Z</time>
      </trkpt>
      <trkpt lat="2.935631" lon="-75.2124">
        <ele>625.0</ele>
        <time>2021-08-21T20:08:40Z</time>
      </trkpt>
      <trkpt lat="2.935636" lon="-75.21248">
        <ele>624.7</ele>
        <time>2021-08-21T20:08:41Z</time>
      </trkpt>
      <trkpt lat="2.935641" lon="-75.212555">
        <ele>624.5</ele>
        <time>2021-08-21T20:08:42Z</time>
      </trkpt>
      <trkpt lat="2.935646" lon="-75.21263">
        <ele>624.2</ele>
        <time>2021-08-21T20:08:43Z</time>
      </trkpt>
      <trkpt lat="2.935652" lon="-75.21271">
        <ele>623.9</ele>
        <time>2021-08-21T20:08:44Z</time>
      </trkpt>
      <trkpt lat="2.935658" lon="-75.21278">
        <ele>623.7</ele>
        <time>2021-08-21T20:08:45Z</time>
      </trkpt>
      <trkpt lat="2.935663" lon="-75.21286">
        <ele>623.4</ele>
        <time>2021-08-21T20:08:46Z</time>
      </trkpt>
      <trkpt lat="2.935669" lon="-75.21294">
        <ele>623.2</ele>
        <time>2021-08-21T20:08:47Z</time>
      </trkpt>
      <trkpt lat="2.935675" lon="-75.21301">
        <ele>623.0</ele>
        <time>2021-08-21T20:08:48Z</time>
      </trkpt>
      <trkpt lat="2.935682" lon="-75.21309">
        <ele>622.7</ele>
        <time>2021-08-21T20:08:49Z</time>
      </trkpt>
      <trkpt lat="2.93569" lon="-75.213165">
        <ele>622.5</ele>
        <time>2021-08-21T20:08:50Z</time>
      </trkpt>
      <trkpt lat="2.935698" lon="-75.21324">
        <ele>622.3</ele>
        <time>2021-08-21T20:08:51Z</time>
      </trkpt>
      <trkpt lat="2.935706" lon="-75.21332">
        <ele>622.0</ele>
        <time>2021-08-21T20:08:52Z</time>
      </trkpt>
      <trkpt lat="2.935713" lon="-75.213394">
        <ele>621.8</ele>
        <time>2021-08-21T20:08:52Z</time>
      </trkpt>
      <trkpt lat="2.935719" lon="-75.21347">
        <ele>621.6</ele>
        <time>2021-08-21T20:08:53Z</time>
      </trkpt>
      <trkpt lat="2.935726" lon="-75.21354">
        <ele>621.4</ele>
        <time>2021-08-21T20:08:54Z</time>
      </trkpt>
      <trkpt lat="2.935733" lon="-75.213615">
        <ele>621.1</ele>
        <time>2021-08-21T20:08:55Z</time>
      </trkpt>
      <trkpt lat="2.93574" lon="-75.213684">
        <ele>620.9</ele>
        <time>2021-08-21T20:08:56Z</time>
      </trkpt>
      <trkpt lat="2.935746" lon="-75.21376">
        <ele>620.7</ele>
        <time>2021-08-21T20:08:57Z</time>
      </trkpt>
      <trkpt lat="2.935752" lon="-75.21383">
        <ele>620.5</ele>
        <time>2021-08-21T20:08:58Z</time>
      </trkpt>
      <trkpt lat="2.935758" lon="-75.213905">
        <ele>620.3</ele>
        <time>2021-08-21T20:08:59Z</time>
      </trkpt>
      <trkpt lat="2.935763" lon="-75.213974">
        <ele>620.1</ele>
        <time>2021-08-21T20:09:00Z</time>
      </trkpt>
      <trkpt lat="2.935768" lon="-75.21404">
        <ele>619.9</ele>
        <time>2021-08-21T20:09:01Z</time>
      </trkpt>
      <trkpt lat="2.935773" lon="-75.21411">
        <ele>619.7</ele>
        <time>2021-08-21T20:09:02Z</time>
      </trkpt>
      <trkpt lat="2.935779" lon="-75.21419">
        <ele>619.5</ele>
        <time>2021-08-21T20:09:03Z</time>
      </trkpt>
      <trkpt lat="2.935785" lon="-75.21426">
        <ele>619.3</ele>
        <time>2021-08-21T20:09:04Z</time>
      </trkpt>
      <trkpt lat="2.935792" lon="-75.214325">
        <ele>619.2</ele>
        <time>2021-08-21T20:09:05Z</time>
      </trkpt>
      <trkpt lat="2.9358" lon="-75.21439">
        <ele>619.0</ele>
        <time>2021-08-21T20:09:06Z</time>
      </trkpt>
      <trkpt lat="2.935807" lon="-75.21447">
        <ele>618.8</ele>
        <time>2021-08-21T20:09:07Z</time>
      </trkpt>
      <trkpt lat="2.935813" lon="-75.21454">
        <ele>618.6</ele>
        <time>2021-08-21T20:09:08Z</time>
      </trkpt>
      <trkpt lat="2.935818" lon="-75.21461">
        <ele>618.5</ele>
        <time>2021-08-21T20:09:09Z</time>
      </trkpt>
      <trkpt lat="2.935821" lon="-75.214676">
        <ele>618.3</ele>
        <time>2021-08-21T20:09:10Z</time>
      </trkpt>
      <trkpt lat="2.935823" lon="-75.21475">
        <ele>618.2</ele>
        <time>2021-08-21T20:09:11Z</time>
      </trkpt>
      <trkpt lat="2.935824" lon="-75.21482">
        <ele>618.0</ele>
        <time>2021-08-21T20:09:12Z</time>
      </trkpt>
      <trkpt lat="2.935827" lon="-75.21489">
        <ele>617.9</ele>
        <time>2021-08-21T20:09:13Z</time>
      </trkpt>
      <trkpt lat="2.935831" lon="-75.21496">
        <ele>617.8</ele>
        <time>2021-08-21T20:09:14Z</time>
      </trkpt>
      <trkpt lat="2.935836" lon="-75.21503">
        <ele>617.7</ele>
        <time>2021-08-21T20:09:15Z</time>
      </trkpt>
      <trkpt lat="2.935841" lon="-75.215096">
        <ele>617.6</ele>
        <time>2021-08-21T20:09:16Z</time>
      </trkpt>
      <trkpt lat="2.935845" lon="-75.21517">
        <ele>617.5</ele>
        <time>2021-08-21T20:09:17Z</time>
      </trkpt>
      <trkpt lat="2.935848" lon="-75.21524">
        <ele>617.4</ele>
        <time>2021-08-21T20:09:18Z</time>
      </trkpt>
      <trkpt lat="2.935851" lon="-75.21531">
        <ele>617.3</ele>
        <time>2021-08-21T20:09:19Z</time>
      </trkpt>
      <trkpt lat="2.935855" lon="-75.21538">
        <ele>617.3</ele>
        <time>2021-08-21T20:09:20Z</time>
      </trkpt>
      <trkpt lat="2.935859" lon="-75.21545">
        <ele>617.2</ele>
        <time>2021-08-21T20:09:21Z</time>
      </trkpt>
      <trkpt lat="2.935862" lon="-75.215515">
        <ele>617.1</ele>
        <time>2021-08-21T20:09:22Z</time>
      </trkpt>
      <trkpt lat="2.935866" lon="-75.21559">
        <ele>616.9</ele>
        <time>2021-08-21T20:09:23Z</time>
      </trkpt>
      <trkpt lat="2.93587" lon="-75.21566">
        <ele>616.8</ele>
        <time>2021-08-21T20:09:24Z</time>
      </trkpt>
      <trkpt lat="2.935876" lon="-75.21572">
        <ele>616.7</ele>
        <time>2021-08-21T20:09:25Z</time>
      </trkpt>
      <trkpt lat="2.935883" lon="-75.21579">
        <ele>616.6</ele>
        <time>2021-08-21T20:09:26Z</time>
      </trkpt>
      <trkpt lat="2.93589" lon="-75.21586">
        <ele>616.5</ele>
        <time>2021-08-21T20:09:27Z</time>
      </trkpt>
      <trkpt lat="2.935897" lon="-75.21593">
        <ele>616.4</ele>
        <time>2021-08-21T20:09:28Z</time>
      </trkpt>
      <trkpt lat="2.935904" lon="-75.215996">
        <ele>616.3</ele>
        <time>2021-08-21T20:09:29Z</time>
      </trkpt>
      <trkpt lat="2.93591" lon="-75.216064">
        <ele>616.2</ele>
        <time>2021-08-21T20:09:30Z</time>
      </trkpt>
      <trkpt lat="2.935917" lon="-75.21613">
        <ele>616.1</ele>
        <time>2021-08-21T20:09:31Z</time>
      </trkpt>
      <trkpt lat="2.935922" lon="-75.216194">
        <ele>616.0</ele>
        <time>2021-08-21T20:09:32Z</time>
      </trkpt>
      <trkpt lat="2.935927" lon="-75.216255">
        <ele>616.0</ele>
        <time>2021-08-21T20:09:33Z</time>
      </trkpt>
      <trkpt lat="2.935931" lon="-75.216324">
        <ele>615.9</ele>
        <time>2021-08-21T20:09:34Z</time>
      </trkpt>
      <trkpt lat="2.935935" lon="-75.216385">
        <ele>615.8</ele>
        <time>2021-08-21T20:09:35Z</time>
      </trkpt>
      <trkpt lat="2.935939" lon="-75.216446">
        <ele>615.7</ele>
        <time>2021-08-21T20:09:36Z</time>
      </trkpt>
      <trkpt lat="2.935943" lon="-75.2165">
        <ele>615.6</ele>
        <time>2021-08-21T20:09:37Z</time>
      </trkpt>
      <trkpt lat="2.935948" lon="-75.21656">
        <ele>615.5</ele>
        <time>2021-08-21T20:09:38Z</time>
      </trkpt>
      <trkpt lat="2.935952" lon="-75.21662">
        <ele>615.4</ele>
        <time>2021-08-21T20:09:39Z</time>
      </trkpt>
      <trkpt lat="2.935957" lon="-75.216675">
        <ele>615.3</ele>
        <time>2021-08-21T20:09:40Z</time>
      </trkpt>
      <trkpt lat="2.935962" lon="-75.216736">
        <ele>615.2</ele>
        <time>2021-08-21T20:09:41Z</time>
      </trkpt>
      <trkpt lat="2.935966" lon="-75.2168">
        <ele>615.1</ele>
        <time>2021-08-21T20:09:42Z</time>
      </trkpt>
      <trkpt lat="2.93597" lon="-75.21685">
        <ele>615.0</ele>
        <time>2021-08-21T20:09:43Z</time>
      </trkpt>
      <trkpt lat="2.935974" lon="-75.21691">
        <ele>614.8</ele>
        <time>2021-08-21T20:09:44Z</time>
      </trkpt>
      <trkpt lat="2.935979" lon="-75.216965">
        <ele>614.7</ele>
        <time>2021-08-21T20:09:45Z</time>
      </trkpt>
      <trkpt lat="2.935984" lon="-75.217026">
        <ele>614.5</ele>
        <time>2021-08-21T20:09:46Z</time>
      </trkpt>
      <trkpt lat="2.93599" lon="-75.21708">
        <ele>614.3</ele>
        <time>2021-08-21T20:09:47Z</time>
      </trkpt>
      <trkpt lat="2.935996" lon="-75.21714">
        <ele>614.2</ele>
        <time>2021-08-21T20:09:48Z</time>
      </trkpt>
      <trkpt lat="2.936001" lon="-75.2172">
        <ele>614.0</ele>
        <time>2021-08-21T20:09:49Z</time>
      </trkpt>
      <trkpt lat="2.936008" lon="-75.21726">
        <ele>613.8</ele>
        <time>2021-08-21T20:09:50Z</time>
      </trkpt>
      <trkpt lat="2.936016" lon="-75.21733">
        <ele>613.6</ele>
        <time>2021-08-21T20:09:51Z</time>
      </trkpt>
      <trkpt lat="2.936023" lon="-75.21739">
        <ele>613.4</ele>
        <time>2021-08-21T20:09:52Z</time>
      </trkpt>
      <trkpt lat="2.936029" lon="-75.21745">
        <ele>613.2</ele>
        <time>2021-08-21T20:09:53Z</time>
      </trkpt>
      <trkpt lat="2.936035" lon="-75.217514">
        <ele>613.0</ele>
        <time>2021-08-21T20:09:54Z</time>
      </trkpt>
      <trkpt lat="2.93604" lon="-75.217575">
        <ele>612.8</ele>
        <time>2021-08-21T20:09:55Z</time>
      </trkpt>
      <trkpt lat="2.936045" lon="-75.217636">
        <ele>612.6</ele>
        <time>2021-08-21T20:09:56Z</time>
      </trkpt>
      <trkpt lat="2.93605" lon="-75.2177">
        <ele>612.4</ele>
        <time>2021-08-21T20:09:57Z</time>
      </trkpt>
      <trkpt lat="2.936056" lon="-75.217766">
        <ele>612.2</ele>
        <time>2021-08-21T20:09:58Z</time>
      </trkpt>
      <trkpt lat="2.936063" lon="-75.21783">
        <ele>612.0</ele>
        <time>2021-08-21T20:09:59Z</time>
      </trkpt>
      <trkpt lat="2.93607" lon="-75.217896">
        <ele>611.8</ele>
        <time>2021-08-21T20:10:00Z</time>
      </trkpt>
      <trkpt lat="2.936077" lon="-75.21796">
        <ele>611.5</ele>
        <time>2021-08-21T20:10:01Z</time>
      </trkpt>
      <trkpt lat="2.936084" lon="-75.218025">
        <ele>611.3</ele>
        <time>2021-08-21T20:10:02Z</time>
      </trkpt>
      <trkpt lat="2.936091" lon="-75.218094">
        <ele>611.0</ele>
        <time>2021-08-21T20:10:03Z</time>
      </trkpt>
      <trkpt lat="2.936098" lon="-75.21816">
        <ele>610.7</ele>
        <time>2021-08-21T20:10:04Z</time>
      </trkpt>
      <trkpt lat="2.936104" lon="-75.21823">
        <ele>610.4</ele>
        <time>2021-08-21T20:10:05Z</time>
      </trkpt>
      <trkpt lat="2.93611" lon="-75.2183">
        <ele>610.1</ele>
        <time>2021-08-21T20:10:06Z</time>
      </trkpt>
      <trkpt lat="2.936116" lon="-75.21837">
        <ele>609.8</ele>
        <time>2021-08-21T20:10:07Z</time>
      </trkpt>
      <trkpt lat="2.936122" lon="-75.218445">
        <ele>609.5</ele>
        <time>2021-08-21T20:10:08Z</time>
      </trkpt>
      <trkpt lat="2.936129" lon="-75.21851">
        <ele>609.2</ele>
        <time>2021-08-21T20:10:09Z</time>
      </trkpt>
      <trkpt lat="2.936136" lon="-75.21859">
        <ele>608.9</ele>
        <time>2021-08-21T20:10:10Z</time>
      </trkpt>
      <trkpt lat="2.936144" lon="-75.218666">
        <ele>608.6</ele>
        <time>2021-08-21T20:10:11Z</time>
      </trkpt>
      <trkpt lat="2.93615" lon="-75.21874">
        <ele>608.4</ele>
        <time>2021-08-21T20:10:12Z</time>
      </trkpt>
      <trkpt lat="2.936156" lon="-75.21882">
        <ele>608.1</ele>
        <time>2021-08-21T20:10:13Z</time>
      </trkpt>
      <trkpt lat="2.936163" lon="-75.21889">
        <ele>607.9</ele>
        <time>2021-08-21T20:10:14Z</time>
      </trkpt>
      <trkpt lat="2.936169" lon="-75.21896">
        <ele>607.6</ele>
        <time>2021-08-21T20:10:15Z</time>
      </trkpt>
      <trkpt lat="2.936176" lon="-75.21904">
        <ele>607.4</ele>
        <time>2021-08-21T20:10:16Z</time>
      </trkpt>
      <trkpt lat="2.936183" lon="-75.21912">
        <ele>607.2</ele>
        <time>2021-08-21T20:10:17Z</time>
      </trkpt>
      <trkpt lat="2.936189" lon="-75.21919">
        <ele>607.0</ele>
        <time>2021-08-21T20:10:18Z</time>
      </trkpt>
      <trkpt lat="2.936197" lon="-75.21927">
        <ele>606.8</ele>
        <time>2021-08-21T20:10:19Z</time>
      </trkpt>
      <trkpt lat="2.936205" lon="-75.21934">
        <ele>606.7</ele>
        <time>2021-08-21T20:10:20Z</time>
      </trkpt>
      <trkpt lat="2.936213" lon="-75.21941">
        <ele>606.6</ele>
        <time>2021-08-21T20:10:21Z</time>
      </trkpt>
      <trkpt lat="2.936221" lon="-75.21948">
        <ele>606.5</ele>
        <time>2021-08-21T20:10:22Z</time>
      </trkpt>
      <trkpt lat="2.936228" lon="-75.21955">
        <ele>606.3</ele>
        <time>2021-08-21T20:10:23Z</time>
      </trkpt>
      <trkpt lat="2.936234" lon="-75.21962">
        <ele>606.2</ele>
        <time>2021-08-21T20:10:24Z</time>
      </trkpt>
      <trkpt lat="2.93624" lon="-75.21969">
        <ele>606.0</ele>
        <time>2021-08-21T20:10:25Z</time>
      </trkpt>
      <trkpt lat="2.936246" lon="-75.21976">
        <ele>605.8</ele>
        <time>2021-08-21T20:10:26Z</time>
      </trkpt>
      <trkpt lat="2.936251" lon="-75.21982">
        <ele>605.7</ele>
        <time>2021-08-21T20:10:27Z</time>
      </trkpt>
      <trkpt lat="2.936257" lon="-75.21989">
        <ele>605.5</ele>
        <time>2021-08-21T20:10:28Z</time>
      </trkpt>
      <trkpt lat="2.936262" lon="-75.21996">
        <ele>605.3</ele>
        <time>2021-08-21T20:10:29Z</time>
      </trkpt>
      <trkpt lat="2.936267" lon="-75.22003">
        <ele>605.1</ele>
        <time>2021-08-21T20:10:30Z</time>
      </trkpt>
      <trkpt lat="2.936272" lon="-75.2201">
        <ele>604.9</ele>
        <time>2021-08-21T20:10:31Z</time>
      </trkpt>
      <trkpt lat="2.936277" lon="-75.22018">
        <ele>604.7</ele>
        <time>2021-08-21T20:10:32Z</time>
      </trkpt>
      <trkpt lat="2.936282" lon="-75.220245">
        <ele>604.5</ele>
        <time>2021-08-21T20:10:33Z</time>
      </trkpt>
      <trkpt lat="2.936287" lon="-75.22032">
        <ele>604.3</ele>
        <time>2021-08-21T20:10:34Z</time>
      </trkpt>
      <trkpt lat="2.936292" lon="-75.2204">
        <ele>604.2</ele>
        <time>2021-08-21T20:10:35Z</time>
      </trkpt>
      <trkpt lat="2.936299" lon="-75.220474">
        <ele>604.0</ele>
        <time>2021-08-21T20:10:36Z</time>
      </trkpt>
      <trkpt lat="2.936304" lon="-75.22054">
        <ele>603.8</ele>
        <time>2021-08-21T20:10:37Z</time>
      </trkpt>
      <trkpt lat="2.93631" lon="-75.22062">
        <ele>603.7</ele>
        <time>2021-08-21T20:10:38Z</time>
      </trkpt>
      <trkpt lat="2.936316" lon="-75.22069">
        <ele>603.6</ele>
        <time>2021-08-21T20:10:39Z</time>
      </trkpt>
      <trkpt lat="2.936322" lon="-75.22076">
        <ele>603.4</ele>
        <time>2021-08-21T20:10:40Z</time>
      </trkpt>
      <trkpt lat="2.936328" lon="-75.220825">
        <ele>603.4</ele>
        <time>2021-08-21T20:10:41Z</time>
      </trkpt>
      <trkpt lat="2.936335" lon="-75.220894">
        <ele>603.3</ele>
        <time>2021-08-21T20:10:42Z</time>
      </trkpt>
      <trkpt lat="2.936341" lon="-75.22096">
        <ele>603.3</ele>
        <time>2021-08-21T20:10:43Z</time>
      </trkpt>
      <trkpt lat="2.936348" lon="-75.22102">
        <ele>603.2</ele>
        <time>2021-08-21T20:10:44Z</time>
      </trkpt>
      <trkpt lat="2.936354" lon="-75.221085">
        <ele>603.0</ele>
        <time>2021-08-21T20:10:45Z</time>
      </trkpt>
      <trkpt lat="2.936361" lon="-75.221146">
        <ele>602.9</ele>
        <time>2021-08-21T20:10:46Z</time>
      </trkpt>
      <trkpt lat="2.936367" lon="-75.221214">
        <ele>602.8</ele>
        <time>2021-08-21T20:10:47Z</time>
      </trkpt>
      <trkpt lat="2.936372" lon="-75.221275">
        <ele>602.8</ele>
        <time>2021-08-21T20:10:48Z</time>
      </trkpt>
      <trkpt lat="2.936377" lon="-75.22133">
        <ele>602.7</ele>
        <time>2021-08-21T20:10:49Z</time>
      </trkpt>
      <trkpt lat="2.936382" lon="-75.22139">
        <ele>602.6</ele>
        <time>2021-08-21T20:10:50Z</time>
      </trkpt>
      <trkpt lat="2.936386" lon="-75.22145">
        <ele>602.5</ele>
        <time>2021-08-21T20:10:51Z</time>
      </trkpt>
      <trkpt lat="2.93639" lon="-75.22151">
        <ele>602.5</ele>
        <time>2021-08-21T20:10:52Z</time>
      </trkpt>
      <trkpt lat="2.936394" lon="-75.221565">
        <ele>602.4</ele>
        <time>2021-08-21T20:10:53Z</time>
      </trkpt>
      <trkpt lat="2.936399" lon="-75.22163">
        <ele>602.3</ele>
        <time>2021-08-21T20:10:54Z</time>
      </trkpt>
      <trkpt lat="2.936405" lon="-75.22168">
        <ele>602.2</ele>
        <time>2021-08-21T20:10:55Z</time>
      </trkpt>
      <trkpt lat="2.93641" lon="-75.22173">
        <ele>602.1</ele>
        <time>2021-08-21T20:10:56Z</time>
      </trkpt>
      <trkpt lat="2.936415" lon="-75.221794">
        <ele>602.1</ele>
        <time>2021-08-21T20:10:57Z</time>
      </trkpt>
      <trkpt lat="2.936419" lon="-75.22185">
        <ele>602.0</ele>
        <time>2021-08-21T20:10:58Z</time>
      </trkpt>
      <trkpt lat="2.936423" lon="-75.2219">
        <ele>601.9</ele>
        <time>2021-08-21T20:10:59Z</time>
      </trkpt>
      <trkpt lat="2.936427" lon="-75.22196">
        <ele>601.9</ele>
        <time>2021-08-21T20:11:00Z</time>
      </trkpt>
      <trkpt lat="2.936429" lon="-75.222015">
        <ele>601.8</ele>
        <time>2021-08-21T20:11:01Z</time>
      </trkpt>
      <trkpt lat="2.936433" lon="-75.22206">
        <ele>601.8</ele>
        <time>2021-08-21T20:11:02Z</time>
      </trkpt>
      <trkpt lat="2.936436" lon="-75.222115">
        <ele>601.7</ele>
        <time>2021-08-21T20:11:03Z</time>
      </trkpt>
      <trkpt lat="2.93644" lon="-75.22217">
        <ele>601.7</ele>
        <time>2021-08-21T20:11:04Z</time>
      </trkpt>
      <trkpt lat="2.936444" lon="-75.22221">
        <ele>601.7</ele>
        <time>2021-08-21T20:11:05Z</time>
      </trkpt>
      <trkpt lat="2.936448" lon="-75.22227">
        <ele>601.7</ele>
        <time>2021-08-21T20:11:06Z</time>
      </trkpt>
      <trkpt lat="2.936452" lon="-75.22231">
        <ele>601.7</ele>
        <time>2021-08-21T20:11:07Z</time>
      </trkpt>
      <trkpt lat="2.936455" lon="-75.22236">
        <ele>601.6</ele>
        <time>2021-08-21T20:11:08Z</time>
      </trkpt>
      <trkpt lat="2.936459" lon="-75.222404">
        <ele>601.6</ele>
        <time>2021-08-21T20:11:09Z</time>
      </trkpt>
      <trkpt lat="2.936462" lon="-75.22245">
        <ele>601.5</ele>
        <time>2021-08-21T20:11:10Z</time>
      </trkpt>
      <trkpt lat="2.936466" lon="-75.222496">
        <ele>601.5</ele>
        <time>2021-08-21T20:11:11Z</time>
      </trkpt>
      <trkpt lat="2.936469" lon="-75.22254">
        <ele>601.4</ele>
        <time>2021-08-21T20:11:12Z</time>
      </trkpt>
      <trkpt lat="2.936472" lon="-75.22259">
        <ele>601.3</ele>
        <time>2021-08-21T20:11:13Z</time>
      </trkpt>
      <trkpt lat="2.936476" lon="-75.22263">
        <ele>601.2</ele>
        <time>2021-08-21T20:11:14Z</time>
      </trkpt>
      <trkpt lat="2.93648" lon="-75.22269">
        <ele>601.1</ele>
        <time>2021-08-21T20:11:15Z</time>
      </trkpt>
      <trkpt lat="2.936485" lon="-75.22273">
        <ele>601.0</ele>
        <time>2021-08-21T20:11:16Z</time>
      </trkpt>
      <trkpt lat="2.936491" lon="-75.22278">
        <ele>600.9</ele>
        <time>2021-08-21T20:11:17Z</time>
      </trkpt>
      <trkpt lat="2.936497" lon="-75.22283">
        <ele>600.8</ele>
        <time>2021-08-21T20:11:18Z</time>
      </trkpt>
      <trkpt lat="2.936502" lon="-75.222885">
        <ele>600.7</ele>
        <time>2021-08-21T20:11:19Z</time>
      </trkpt>
      <trkpt lat="2.936507" lon="-75.22293">
        <ele>600.6</ele>
        <time>2021-08-21T20:11:20Z</time>
      </trkpt>
      <trkpt lat="2.936512" lon="-75.222984">
        <ele>600.5</ele>
        <time>2021-08-21T20:11:21Z</time>
      </trkpt>
      <trkpt lat="2.936517" lon="-75.22304">
        <ele>600.4</ele>
        <time>2021-08-21T20:11:22Z</time>
      </trkpt>
      <trkpt lat="2.936521" lon="-75.22309">
        <ele>600.2</ele>
        <time>2021-08-21T20:11:23Z</time>
      </trkpt>
      <trkpt lat="2.936527" lon="-75.22315">
        <ele>600.1</ele>
        <time>2021-08-21T20:11:24Z</time>
      </trkpt>
      <trkpt lat="2.936532" lon="-75.223206">
        <ele>599.9</ele>
        <time>2021-08-21T20:11:25Z</time>
      </trkpt>
      <trkpt lat="2.936538" lon="-75.22326">
        <ele>599.8</ele>
        <time>2021-08-21T20:11:26Z</time>
      </trkpt>
      <trkpt lat="2.936544" lon="-75.22332">
        <ele>599.6</ele>
        <time>2021-08-21T20:11:27Z</time>
      </trkpt>
      <trkpt lat="2.93655" lon="-75.22337">
        <ele>599.5</ele>
        <time>2021-08-21T20:11:28Z</time>
      </trkpt>
      <trkpt lat="2.936556" lon="-75.223434">
        <ele>599.3</ele>
        <time>2021-08-21T20:11:29Z</time>
      </trkpt>
      <trkpt lat="2.936561" lon="-75.223495">
        <ele>599.1</ele>
        <time>2021-08-21T20:11:30Z</time>
      </trkpt>
      <trkpt lat="2.936567" lon="-75.22356">
        <ele>598.9</ele>
        <time>2021-08-21T20:11:31Z</time>
      </trkpt>
      <trkpt lat="2.936572" lon="-75.223625">
        <ele>598.7</ele>
        <time>2021-08-21T20:11:32Z</time>
      </trkpt>
      <trkpt lat="2.936577" lon="-75.22369">
        <ele>598.5</ele>
        <time>2021-08-21T20:11:33Z</time>
      </trkpt>
      <trkpt lat="2.936582" lon="-75.22375">
        <ele>598.3</ele>
        <time>2021-08-21T20:11:34Z</time>
      </trkpt>
      <trkpt lat="2.936588" lon="-75.223816">
        <ele>598.1</ele>
        <time>2021-08-21T20:11:35Z</time>
      </trkpt>
      <trkpt lat="2.936594" lon="-75.223885">
        <ele>597.8</ele>
        <time>2021-08-21T20:11:36Z</time>
      </trkpt>
      <trkpt lat="2.936599" lon="-75.223946">
        <ele>597.6</ele>
        <time>2021-08-21T20:11:37Z</time>
      </trkpt>
      <trkpt lat="2.936605" lon="-75.224014">
        <ele>597.4</ele>
        <time>2021-08-21T20:11:38Z</time>
      </trkpt>
      <trkpt lat="2.936609" lon="-75.22409">
        <ele>597.1</ele>
        <time>2021-08-21T20:11:39Z</time>
      </trkpt>
      <trkpt lat="2.936613" lon="-75.22416">
        <ele>596.9</ele>
        <time>2021-08-21T20:11:40Z</time>
      </trkpt>
      <trkpt lat="2.936618" lon="-75.224236">
        <ele>596.6</ele>
        <time>2021-08-21T20:11:41Z</time>
      </trkpt>
      <trkpt lat="2.936623" lon="-75.22431">
        <ele>596.3</ele>
        <time>2021-08-21T20:11:42Z</time>
      </trkpt>
      <trkpt lat="2.936628" lon="-75.22439">
        <ele>596.0</ele>
        <time>2021-08-21T20:11:43Z</time>
      </trkpt>
      <trkpt lat="2.936634" lon="-75.224464">
        <ele>595.7</ele>
        <time>2021-08-21T20:11:44Z</time>
      </trkpt>
      <trkpt lat="2.93664" lon="-75.22455">
        <ele>595.3</ele>
        <time>2021-08-21T20:11:45Z</time>
      </trkpt>
      <trkpt lat="2.936647" lon="-75.224625">
        <ele>594.9</ele>
        <time>2021-08-21T20:11:46Z</time>
      </trkpt>
      <trkpt lat="2.936654" lon="-75.22471">
        <ele>594.5</ele>
        <time>2021-08-21T20:11:47Z</time>
      </trkpt>
      <trkpt lat="2.93666" lon="-75.22479">
        <ele>594.1</ele>
        <time>2021-08-21T20:11:48Z</time>
      </trkpt>
      <trkpt lat="2.936667" lon="-75.22488">
        <ele>593.8</ele>
        <time>2021-08-21T20:11:49Z</time>
      </trkpt>
      <trkpt lat="2.936674" lon="-75.22496">
        <ele>593.4</ele>
        <time>2021-08-21T20:11:50Z</time>
      </trkpt>
      <trkpt lat="2.93668" lon="-75.225044">
        <ele>593.1</ele>
        <time>2021-08-21T20:11:51Z</time>
      </trkpt>
      <trkpt lat="2.936686" lon="-75.22513">
        <ele>592.9</ele>
        <time>2021-08-21T20:11:52Z</time>
      </trkpt>
      <trkpt lat="2.936692" lon="-75.225204">
        <ele>592.6</ele>
        <time>2021-08-21T20:11:53Z</time>
      </trkpt>
      <trkpt lat="2.936698" lon="-75.22529">
        <ele>592.4</ele>
        <time>2021-08-21T20:11:54Z</time>
      </trkpt>
      <trkpt lat="2.936704" lon="-75.22537">
        <ele>592.2</ele>
        <time>2021-08-21T20:11:55Z</time>
      </trkpt>
      <trkpt lat="2.936711" lon="-75.22546">
        <ele>591.9</ele>
        <time>2021-08-21T20:11:56Z</time>
      </trkpt>
      <trkpt lat="2.936717" lon="-75.22553">
        <ele>591.7</ele>
        <time>2021-08-21T20:11:57Z</time>
      </trkpt>
      <trkpt lat="2.936724" lon="-75.22562">
        <ele>591.5</ele>
        <time>2021-08-21T20:11:58Z</time>
      </trkpt>
      <trkpt lat="2.936731" lon="-75.22569">
        <ele>591.3</ele>
        <time>2021-08-21T20:11:59Z</time>
      </trkpt>
      <trkpt lat="2.936737" lon="-75.22577">
        <ele>591.1</ele>
        <time>2021-08-21T20:12:00Z</time>
      </trkpt>
      <trkpt lat="2.936743" lon="-75.225845">
        <ele>590.9</ele>
        <time>2021-08-21T20:12:01Z</time>
      </trkpt>
      <trkpt lat="2.93675" lon="-75.22592">
        <ele>590.7</ele>
        <time>2021-08-21T20:12:02Z</time>
      </trkpt>
      <trkpt lat="2.936755" lon="-75.226">
        <ele>590.5</ele>
        <time>2021-08-21T20:12:03Z</time>
      </trkpt>
      <trkpt lat="2.936762" lon="-75.22607">
        <ele>590.4</ele>
        <time>2021-08-21T20:12:04Z</time>
      </trkpt>
      <trkpt lat="2.936768" lon="-75.22614">
        <ele>590.2</ele>
        <time>2021-08-21T20:12:05Z</time>
      </trkpt>
      <trkpt lat="2.936774" lon="-75.22621">
        <ele>590.0</ele>
        <time>2021-08-21T20:12:06Z</time>
      </trkpt>
      <trkpt lat="2.936781" lon="-75.22629">
        <ele>589.8</ele>
        <time>2021-08-21T20:12:07Z</time>
      </trkpt>
      <trkpt lat="2.936787" lon="-75.22636">
        <ele>589.6</ele>
        <time>2021-08-21T20:12:08Z</time>
      </trkpt>
      <trkpt lat="2.936793" lon="-75.22643">
        <ele>589.4</ele>
        <time>2021-08-21T20:12:09Z</time>
      </trkpt>
      <trkpt lat="2.936799" lon="-75.2265">
        <ele>589.3</ele>
        <time>2021-08-21T20:12:10Z</time>
      </trkpt>
      <trkpt lat="2.936804" lon="-75.22657">
        <ele>589.1</ele>
        <time>2021-08-21T20:12:11Z</time>
      </trkpt>
      <trkpt lat="2.93681" lon="-75.22665">
        <ele>588.9</ele>
        <time>2021-08-21T20:12:12Z</time>
      </trkpt>
      <trkpt lat="2.936816" lon="-75.226715">
        <ele>588.8</ele>
        <time>2021-08-21T20:12:13Z</time>
      </trkpt>
      <trkpt lat="2.936823" lon="-75.22678">
        <ele>588.7</ele>
        <time>2021-08-21T20:12:14Z</time>
      </trkpt>
      <trkpt lat="2.936829" lon="-75.22685">
        <ele>588.6</ele>
        <time>2021-08-21T20:12:15Z</time>
      </trkpt>
      <trkpt lat="2.936836" lon="-75.22693">
        <ele>588.5</ele>
        <time>2021-08-21T20:12:16Z</time>
      </trkpt>
      <trkpt lat="2.936842" lon="-75.227">
        <ele>588.3</ele>
        <time>2021-08-21T20:12:17Z</time>
      </trkpt>
      <trkpt lat="2.936848" lon="-75.22707">
        <ele>588.1</ele>
        <time>2021-08-21T20:12:18Z</time>
      </trkpt>
      <trkpt lat="2.936854" lon="-75.22714">
        <ele>587.9</ele>
        <time>2021-08-21T20:12:19Z</time>
      </trkpt>
      <trkpt lat="2.93686" lon="-75.22722">
        <ele>587.6</ele>
        <time>2021-08-21T20:12:20Z</time>
      </trkpt>
      <trkpt lat="2.936866" lon="-75.22729">
        <ele>587.4</ele>
        <time>2021-08-21T20:12:21Z</time>
      </trkpt>
      <trkpt lat="2.936872" lon="-75.22736">
        <ele>587.2</ele>
        <time>2021-08-21T20:12:22Z</time>
      </trkpt>
      <trkpt lat="2.936879" lon="-75.22743">
        <ele>587.0</ele>
        <time>2021-08-21T20:12:23Z</time>
      </trkpt>
      <trkpt lat="2.936884" lon="-75.2275">
        <ele>586.7</ele>
        <time>2021-08-21T20:12:24Z</time>
      </trkpt>
      <trkpt lat="2.93689" lon="-75.22758">
        <ele>586.5</ele>
        <time>2021-08-21T20:12:25Z</time>
      </trkpt>
      <trkpt lat="2.936895" lon="-75.227646">
        <ele>586.3</ele>
        <time>2021-08-21T20:12:26Z</time>
      </trkpt>
      <trkpt lat="2.936901" lon="-75.22772">
        <ele>586.1</ele>
        <time>2021-08-21T20:12:27Z</time>
      </trkpt>
      <trkpt lat="2.936908" lon="-75.22779">
        <ele>585.8</ele>
        <time>2021-08-21T20:12:28Z</time>
      </trkpt>
      <trkpt lat="2.936914" lon="-75.22787">
        <ele>585.5</ele>
        <time>2021-08-21T20:12:29Z</time>
      </trkpt>
      <trkpt lat="2.936921" lon="-75.227936">
        <ele>585.3</ele>
        <time>2021-08-21T20:12:30Z</time>
      </trkpt>
      <trkpt lat="2.936926" lon="-75.22801">
        <ele>585.0</ele>
        <time>2021-08-21T20:12:31Z</time>
      </trkpt>
      <trkpt lat="2.936931" lon="-75.22808">
        <ele>584.8</ele>
        <time>2021-08-21T20:12:32Z</time>
      </trkpt>
      <trkpt lat="2.936937" lon="-75.22816">
        <ele>584.5</ele>
        <time>2021-08-21T20:12:33Z</time>
      </trkpt>
      <trkpt lat="2.936944" lon="-75.228226">
        <ele>584.3</ele>
        <time>2021-08-21T20:12:34Z</time>
      </trkpt>
      <trkpt lat="2.93695" lon="-75.2283">
        <ele>584.1</ele>
        <time>2021-08-21T20:12:35Z</time>
      </trkpt>
      <trkpt lat="2.936957" lon="-75.22837">
        <ele>583.9</ele>
        <time>2021-08-21T20:12:36Z</time>
      </trkpt>
      <trkpt lat="2.936964" lon="-75.22845">
        <ele>583.7</ele>
        <time>2021-08-21T20:12:37Z</time>
      </trkpt>
      <trkpt lat="2.93697" lon="-75.228516">
        <ele>583.5</ele>
        <time>2021-08-21T20:12:38Z</time>
      </trkpt>
      <trkpt lat="2.936976" lon="-75.22859">
        <ele>583.4</ele>
        <time>2021-08-21T20:12:39Z</time>
      </trkpt>
      <trkpt lat="2.936983" lon="-75.22866">
        <ele>583.3</ele>
        <time>2021-08-21T20:12:40Z</time>
      </trkpt>
      <trkpt lat="2.936989" lon="-75.22874">
        <ele>583.2</ele>
        <time>2021-08-21T20:12:41Z</time>
      </trkpt>
      <trkpt lat="2.936994" lon="-75.228806">
        <ele>583.2</ele>
        <time>2021-08-21T20:12:42Z</time>
      </trkpt>
      <trkpt lat="2.937" lon="-75.228874">
        <ele>583.1</ele>
        <time>2021-08-21T20:12:43Z</time>
      </trkpt>
      <trkpt lat="2.937006" lon="-75.22894">
        <ele>583.0</ele>
        <time>2021-08-21T20:12:44Z</time>
      </trkpt>
      <trkpt lat="2.937012" lon="-75.22901">
        <ele>583.0</ele>
        <time>2021-08-21T20:12:45Z</time>
      </trkpt>
      <trkpt lat="2.937017" lon="-75.22908">
        <ele>582.9</ele>
        <time>2021-08-21T20:12:46Z</time>
      </trkpt>
      <trkpt lat="2.937023" lon="-75.22915">
        <ele>582.8</ele>
        <time>2021-08-21T20:12:47Z</time>
      </trkpt>
      <trkpt lat="2.937029" lon="-75.22921">
        <ele>582.7</ele>
        <time>2021-08-21T20:12:48Z</time>
      </trkpt>
      <trkpt lat="2.937034" lon="-75.22928">
        <ele>582.6</ele>
        <time>2021-08-21T20:12:49Z</time>
      </trkpt>
      <trkpt lat="2.93704" lon="-75.22934">
        <ele>582.5</ele>
        <time>2021-08-21T20:12:50Z</time>
      </trkpt>
      <trkpt lat="2.937046" lon="-75.22941">
        <ele>582.4</ele>
        <time>2021-08-21T20:12:51Z</time>
      </trkpt>
      <trkpt lat="2.937053" lon="-75.22947">
        <ele>582.3</ele>
        <time>2021-08-21T20:12:52Z</time>
      </trkpt>
      <trkpt lat="2.937058" lon="-75.22953">
        <ele>582.2</ele>
        <time>2021-08-21T20:12:53Z</time>
      </trkpt>
      <trkpt lat="2.937063" lon="-75.22959">
        <ele>582.2</ele>
        <time>2021-08-21T20:12:54Z</time>
      </trkpt>
      <trkpt lat="2.937069" lon="-75.229645">
        <ele>582.1</ele>
        <time>2021-08-21T20:12:55Z</time>
      </trkpt>
      <trkpt lat="2.937076" lon="-75.229706">
        <ele>582.0</ele>
        <time>2021-08-21T20:12:56Z</time>
      </trkpt>
      <trkpt lat="2.937082" lon="-75.22976">
        <ele>581.9</ele>
        <time>2021-08-21T20:12:57Z</time>
      </trkpt>
      <trkpt lat="2.937089" lon="-75.22981">
        <ele>581.9</ele>
        <time>2021-08-21T20:12:58Z</time>
      </trkpt>
      <trkpt lat="2.937095" lon="-75.22987">
        <ele>581.8</ele>
        <time>2021-08-21T20:12:59Z</time>
      </trkpt>
      <trkpt lat="2.937101" lon="-75.22993">
        <ele>581.7</ele>
        <time>2021-08-21T20:13:00Z</time>
      </trkpt>
      <trkpt lat="2.937108" lon="-75.22998">
        <ele>581.7</ele>
        <time>2021-08-21T20:13:01Z</time>
      </trkpt>
      <trkpt lat="2.937113" lon="-75.230034">
        <ele>581.6</ele>
        <time>2021-08-21T20:13:02Z</time>
      </trkpt>
      <trkpt lat="2.937119" lon="-75.23009">
        <ele>581.5</ele>
        <time>2021-08-21T20:13:03Z</time>
      </trkpt>
      <trkpt lat="2.937124" lon="-75.23015">
        <ele>581.5</ele>
        <time>2021-08-21T20:13:04Z</time>
      </trkpt>
      <trkpt lat="2.93713" lon="-75.2302">
        <ele>581.4</ele>
        <time>2021-08-21T20:13:05Z</time>
      </trkpt>
      <trkpt lat="2.937135" lon="-75.23026">
        <ele>581.3</ele>
        <time>2021-08-21T20:13:06Z</time>
      </trkpt>
      <trkpt lat="2.93714" lon="-75.230316">
        <ele>581.2</ele>
        <time>2021-08-21T20:13:07Z</time>
      </trkpt>
      <trkpt lat="2.937145" lon="-75.23038">
        <ele>581.1</ele>
        <time>2021-08-21T20:13:07Z</time>
      </trkpt>
      <trkpt lat="2.93715" lon="-75.23043">
        <ele>581.0</ele>
        <time>2021-08-21T20:13:08Z</time>
      </trkpt>
      <trkpt lat="2.937155" lon="-75.23049">
        <ele>580.9</ele>
        <time>2021-08-21T20:13:09Z</time>
      </trkpt>
      <trkpt lat="2.93716" lon="-75.23055">
        <ele>580.8</ele>
        <time>2021-08-21T20:13:10Z</time>
      </trkpt>
      <trkpt lat="2.937167" lon="-75.23061">
        <ele>580.7</ele>
        <time>2021-08-21T20:13:11Z</time>
      </trkpt>
      <trkpt lat="2.937173" lon="-75.230675">
        <ele>580.5</ele>
        <time>2021-08-21T20:13:12Z</time>
      </trkpt>
      <trkpt lat="2.937179" lon="-75.230736">
        <ele>580.4</ele>
        <time>2021-08-21T20:13:13Z</time>
      </trkpt>
      <trkpt lat="2.937185" lon="-75.2308">
        <ele>580.3</ele>
        <time>2021-08-21T20:13:14Z</time>
      </trkpt>
      <trkpt lat="2.937191" lon="-75.230865">
        <ele>580.1</ele>
        <time>2021-08-21T20:13:15Z</time>
      </trkpt>
      <trkpt lat="2.937196" lon="-75.23093">
        <ele>579.9</ele>
        <time>2021-08-21T20:13:16Z</time>
      </trkpt>
      <trkpt lat="2.9372" lon="-75.230995">
        <ele>579.8</ele>
        <time>2021-08-21T20:13:17Z</time>
      </trkpt>
      <trkpt lat="2.937206" lon="-75.23106">
        <ele>579.6</ele>
        <time>2021-08-21T20:13:18Z</time>
      </trkpt>
      <trkpt lat="2.937212" lon="-75.231125">
        <ele>579.4</ele>
        <time>2021-08-21T20:13:19Z</time>
      </trkpt>
      <trkpt lat="2.937218" lon="-75.23119">
        <ele>579.2</ele>
        <time>2021-08-21T20:13:20Z</time>
      </trkpt>
      <trkpt lat="2.937224" lon="-75.23126">
        <ele>579.1</ele>
        <time>2021-08-21T20:13:21Z</time>
      </trkpt>
      <trkpt lat="2.937229" lon="-75.23133">
        <ele>578.9</ele>
        <time>2021-08-21T20:13:22Z</time>
      </trkpt>
      <trkpt lat="2.937236" lon="-75.2314">
        <ele>578.7</ele>
        <time>2021-08-21T20:13:23Z</time>
      </trkpt>
      <trkpt lat="2.937242" lon="-75.23147">
        <ele>578.5</ele>
        <time>2021-08-21T20:13:24Z</time>
      </trkpt>
      <trkpt lat="2.937248" lon="-75.23154">
        <ele>578.2</ele>
        <time>2021-08-21T20:13:25Z</time>
      </trkpt>
      <trkpt lat="2.937255" lon="-75.231606">
        <ele>578.0</ele>
        <time>2021-08-21T20:13:26Z</time>
      </trkpt>
      <trkpt lat="2.937262" lon="-75.23168">
        <ele>577.7</ele>
        <time>2021-08-21T20:13:27Z</time>
      </trkpt>
      <trkpt lat="2.937268" lon="-75.23175">
        <ele>577.5</ele>
        <time>2021-08-21T20:13:28Z</time>
      </trkpt>
      <trkpt lat="2.937274" lon="-75.23182">
        <ele>577.2</ele>
        <time>2021-08-21T20:13:29Z</time>
      </trkpt>
      <trkpt lat="2.937281" lon="-75.231895">
        <ele>577.0</ele>
        <time>2021-08-21T20:13:30Z</time>
      </trkpt>
      <trkpt lat="2.937288" lon="-75.231964">
        <ele>576.8</ele>
        <time>2021-08-21T20:13:31Z</time>
      </trkpt>
      <trkpt lat="2.937295" lon="-75.23204">
        <ele>576.6</ele>
        <time>2021-08-21T20:13:32Z</time>
      </trkpt>
      <trkpt lat="2.937303" lon="-75.23211">
        <ele>576.3</ele>
        <time>2021-08-21T20:13:33Z</time>
      </trkpt>
      <trkpt lat="2.93731" lon="-75.232185">
        <ele>576.1</ele>
        <time>2021-08-21T20:13:34Z</time>
      </trkpt>
      <trkpt lat="2.937318" lon="-75.23226">
        <ele>575.9</ele>
        <time>2021-08-21T20:13:35Z</time>
      </trkpt>
      <trkpt lat="2.937325" lon="-75.23233">
        <ele>575.7</ele>
        <time>2021-08-21T20:13:36Z</time>
      </trkpt>
      <trkpt lat="2.937333" lon="-75.23241">
        <ele>575.5</ele>
        <time>2021-08-21T20:13:37Z</time>
      </trkpt>
      <trkpt lat="2.93734" lon="-75.23248">
        <ele>575.3</ele>
        <time>2021-08-21T20:13:38Z</time>
      </trkpt>
      <trkpt lat="2.937347" lon="-75.23256">
        <ele>575.1</ele>
        <time>2021-08-21T20:13:39Z</time>
      </trkpt>
      <trkpt lat="2.937354" lon="-75.232635">
        <ele>574.9</ele>
        <time>2021-08-21T20:13:40Z</time>
      </trkpt>
      <trkpt lat="2.937361" lon="-75.232704">
        <ele>574.7</ele>
        <time>2021-08-21T20:13:41Z</time>
      </trkpt>
      <trkpt lat="2.937368" lon="-75.23278">
        <ele>574.5</ele>
        <time>2021-08-21T20:13:42Z</time>
      </trkpt>
      <trkpt lat="2.937374" lon="-75.23286">
        <ele>574.3</ele>
        <time>2021-08-21T20:13:43Z</time>
      </trkpt>
      <trkpt lat="2.937381" lon="-75.232925">
        <ele>574.1</ele>
        <time>2021-08-21T20:13:44Z</time>
      </trkpt>
      <trkpt lat="2.937387" lon="-75.233">
        <ele>573.9</ele>
        <time>2021-08-21T20:13:45Z</time>
      </trkpt>
      <trkpt lat="2.937394" lon="-75.23308">
        <ele>573.7</ele>
        <time>2021-08-21T20:13:46Z</time>
      </trkpt>
      <trkpt lat="2.9374" lon="-75.23315">
        <ele>573.5</ele>
        <time>2021-08-21T20:13:47Z</time>
      </trkpt>
      <trkpt lat="2.937407" lon="-75.23322">
        <ele>573.4</ele>
        <time>2021-08-21T20:13:48Z</time>
      </trkpt>
      <trkpt lat="2.937412" lon="-75.23329">
        <ele>573.2</ele>
        <time>2021-08-21T20:13:49Z</time>
      </trkpt>
      <trkpt lat="2.937418" lon="-75.23337">
        <ele>573.1</ele>
        <time>2021-08-21T20:13:50Z</time>
      </trkpt>
      <trkpt lat="2.937425" lon="-75.233444">
        <ele>572.9</ele>
        <time>2021-08-21T20:13:51Z</time>
      </trkpt>
      <trkpt lat="2.937433" lon="-75.23352">
        <ele>572.8</ele>
        <time>2021-08-21T20:13:52Z</time>
      </trkpt>
      <trkpt lat="2.93744" lon="-75.23359">
        <ele>572.7</ele>
        <time>2021-08-21T20:13:53Z</time>
      </trkpt>
      <trkpt lat="2.937447" lon="-75.23366">
        <ele>572.5</ele>
        <time>2021-08-21T20:13:54Z</time>
      </trkpt>
      <trkpt lat="2.937455" lon="-75.233734">
        <ele>572.4</ele>
        <time>2021-08-21T20:13:55Z</time>
      </trkpt>
      <trkpt lat="2.937463" lon="-75.2338">
        <ele>572.3</ele>
        <time>2021-08-21T20:13:56Z</time>
      </trkpt>
      <trkpt lat="2.93747" lon="-75.23388">
        <ele>572.1</ele>
        <time>2021-08-21T20:13:57Z</time>
      </trkpt>
      <trkpt lat="2.937477" lon="-75.233955">
        <ele>572.0</ele>
        <time>2021-08-21T20:13:58Z</time>
      </trkpt>
      <trkpt lat="2.937483" lon="-75.23402">
        <ele>571.9</ele>
        <time>2021-08-21T20:13:59Z</time>
      </trkpt>
      <trkpt lat="2.93749" lon="-75.234085">
        <ele>571.7</ele>
        <time>2021-08-21T20:14:00Z</time>
      </trkpt>
      <trkpt lat="2.937498" lon="-75.23416">
        <ele>571.6</ele>
        <time>2021-08-21T20:14:01Z</time>
      </trkpt>
      <trkpt lat="2.937505" lon="-75.23423">
        <ele>571.4</ele>
        <time>2021-08-21T20:14:02Z</time>
      </trkpt>
      <trkpt lat="2.937513" lon="-75.2343">
        <ele>571.3</ele>
        <time>2021-08-21T20:14:03Z</time>
      </trkpt>
      <trkpt lat="2.93752" lon="-75.234375">
        <ele>571.2</ele>
        <time>2021-08-21T20:14:04Z</time>
      </trkpt>
      <trkpt lat="2.937527" lon="-75.23444">
        <ele>571.1</ele>
        <time>2021-08-21T20:14:05Z</time>
      </trkpt>
      <trkpt lat="2.937533" lon="-75.234505">
        <ele>571.0</ele>
        <time>2021-08-21T20:14:06Z</time>
      </trkpt>
      <trkpt lat="2.93754" lon="-75.23458">
        <ele>570.9</ele>
        <time>2021-08-21T20:14:07Z</time>
      </trkpt>
      <trkpt lat="2.937547" lon="-75.23465">
        <ele>570.7</ele>
        <time>2021-08-21T20:14:08Z</time>
      </trkpt>
      <trkpt lat="2.937554" lon="-75.23472">
        <ele>570.6</ele>
        <time>2021-08-21T20:14:09Z</time>
      </trkpt>
      <trkpt lat="2.937561" lon="-75.23479">
        <ele>570.4</ele>
        <time>2021-08-21T20:14:10Z</time>
      </trkpt>
      <trkpt lat="2.937568" lon="-75.234856">
        <ele>570.3</ele>
        <time>2021-08-21T20:14:11Z</time>
      </trkpt>
      <trkpt lat="2.937574" lon="-75.234924">
        <ele>570.1</ele>
        <time>2021-08-21T20:14:12Z</time>
      </trkpt>
      <trkpt lat="2.937581" lon="-75.23499">
        <ele>570.0</ele>
        <time>2021-08-21T20:14:13Z</time>
      </trkpt>
      <trkpt lat="2.937587" lon="-75.23506">
        <ele>569.8</ele>
        <time>2021-08-21T20:14:14Z</time>
      </trkpt>
      <trkpt lat="2.937592" lon="-75.23512">
        <ele>569.7</ele>
        <time>2021-08-21T20:14:15Z</time>
      </trkpt>
      <trkpt lat="2.937599" lon="-75.23519">
        <ele>569.5</ele>
        <time>2021-08-21T20:14:16Z</time>
      </trkpt>
      <trkpt lat="2.937606" lon="-75.23525">
        <ele>569.4</ele>
        <time>2021-08-21T20:14:17Z</time>
      </trkpt>
      <trkpt lat="2.937613" lon="-75.23532">
        <ele>569.2</ele>
        <time>2021-08-21T20:14:18Z</time>
      </trkpt>
      <trkpt lat="2.93762" lon="-75.23538">
        <ele>569.1</ele>
        <time>2021-08-21T20:14:19Z</time>
      </trkpt>
      <trkpt lat="2.937626" lon="-75.23544">
        <ele>568.9</ele>
        <time>2021-08-21T20:14:20Z</time>
      </trkpt>
      <trkpt lat="2.937633" lon="-75.23551">
        <ele>568.8</ele>
        <time>2021-08-21T20:14:21Z</time>
      </trkpt>
      <trkpt lat="2.93764" lon="-75.23558">
        <ele>568.6</ele>
        <time>2021-08-21T20:14:22Z</time>
      </trkpt>
      <trkpt lat="2.937646" lon="-75.23565">
        <ele>568.5</ele>
        <time>2021-08-21T20:14:23Z</time>
      </trkpt>
      <trkpt lat="2.937653" lon="-75.23571">
        <ele>568.3</ele>
        <time>2021-08-21T20:14:24Z</time>
      </trkpt>
      <trkpt lat="2.937661" lon="-75.23578">
        <ele>568.2</ele>
        <time>2021-08-21T20:14:25Z</time>
      </trkpt>
      <trkpt lat="2.937668" lon="-75.23585">
        <ele>568.0</ele>
        <time>2021-08-21T20:14:26Z</time>
      </trkpt>
      <trkpt lat="2.937675" lon="-75.23591">
        <ele>567.9</ele>
        <time>2021-08-21T20:14:27Z</time>
      </trkpt>
      <trkpt lat="2.937682" lon="-75.23598">
        <ele>567.8</ele>
        <time>2021-08-21T20:14:28Z</time>
      </trkpt>
      <trkpt lat="2.937688" lon="-75.23604">
        <ele>567.7</ele>
        <time>2021-08-21T20:14:29Z</time>
      </trkpt>
      <trkpt lat="2.937695" lon="-75.23611">
        <ele>567.6</ele>
        <time>2021-08-21T20:14:30Z</time>
      </trkpt>
      <trkpt lat="2.937702" lon="-75.236176">
        <ele>567.5</ele>
        <time>2021-08-21T20:14:31Z</time>
      </trkpt>
      <trkpt lat="2.937709" lon="-75.23624">
        <ele>567.5</ele>
        <time>2021-08-21T20:14:32Z</time>
      </trkpt>
      <trkpt lat="2.937713" lon="-75.2363">
        <ele>567.4</ele>
        <time>2021-08-21T20:14:33Z</time>
      </trkpt>
      <trkpt lat="2.937717" lon="-75.23637">
        <ele>567.3</ele>
        <time>2021-08-21T20:14:34Z</time>
      </trkpt>
      <trkpt lat="2.937718" lon="-75.23643">
        <ele>567.3</ele>
        <time>2021-08-21T20:14:35Z</time>
      </trkpt>
      <trkpt lat="2.937718" lon="-75.23649">
        <ele>567.3</ele>
        <time>2021-08-21T20:14:36Z</time>
      </trkpt>
      <trkpt lat="2.937717" lon="-75.23655">
        <ele>567.3</ele>
        <time>2021-08-21T20:14:37Z</time>
      </trkpt>
      <trkpt lat="2.937714" lon="-75.23661">
        <ele>567.3</ele>
        <time>2021-08-21T20:14:38Z</time>
      </trkpt>
      <trkpt lat="2.937709" lon="-75.23667">
        <ele>567.3</ele>
        <time>2021-08-21T20:14:39Z</time>
      </trkpt>
      <trkpt lat="2.937701" lon="-75.23673">
        <ele>567.3</ele>
        <time>2021-08-21T20:14:40Z</time>
      </trkpt>
      <trkpt lat="2.93769" lon="-75.23679">
        <ele>567.3</ele>
        <time>2021-08-21T20:14:41Z</time>
      </trkpt>
      <trkpt lat="2.937678" lon="-75.236855">
        <ele>567.3</ele>
        <time>2021-08-21T20:14:42Z</time>
      </trkpt>
      <trkpt lat="2.937664" lon="-75.23691">
        <ele>567.4</ele>
        <time>2021-08-21T20:14:43Z</time>
      </trkpt>
      <trkpt lat="2.937648" lon="-75.23696">
        <ele>567.5</ele>
        <time>2021-08-21T20:14:44Z</time>
      </trkpt>
      <trkpt lat="2.937629" lon="-75.237015">
        <ele>567.5</ele>
        <time>2021-08-21T20:14:45Z</time>
      </trkpt>
      <trkpt lat="2.937608" lon="-75.237076">
        <ele>567.6</ele>
        <time>2021-08-21T20:14:46Z</time>
      </trkpt>
      <trkpt lat="2.937587" lon="-75.23713">
        <ele>567.7</ele>
        <time>2021-08-21T20:14:47Z</time>
      </trkpt>
      <trkpt lat="2.937566" lon="-75.23718">
        <ele>567.8</ele>
        <time>2021-08-21T20:14:48Z</time>
      </trkpt>
      <trkpt lat="2.937544" lon="-75.23723">
        <ele>567.9</ele>
        <time>2021-08-21T20:14:49Z</time>
      </trkpt>
      <trkpt lat="2.937519" lon="-75.23728">
        <ele>568.0</ele>
        <time>2021-08-21T20:14:50Z</time>
      </trkpt>
      <trkpt lat="2.937495" lon="-75.237335">
        <ele>568.2</ele>
        <time>2021-08-21T20:14:51Z</time>
      </trkpt>
      <trkpt lat="2.937471" lon="-75.23739">
        <ele>568.3</ele>
        <time>2021-08-21T20:14:52Z</time>
      </trkpt>
      <trkpt lat="2.937449" lon="-75.237434">
        <ele>568.4</ele>
        <time>2021-08-21T20:14:53Z</time>
      </trkpt>
      <trkpt lat="2.937426" lon="-75.23749">
        <ele>568.6</ele>
        <time>2021-08-21T20:14:54Z</time>
      </trkpt>
      <trkpt lat="2.937403" lon="-75.23753">
        <ele>568.7</ele>
        <time>2021-08-21T20:14:55Z</time>
      </trkpt>
      <trkpt lat="2.937381" lon="-75.23758">
        <ele>568.8</ele>
        <time>2021-08-21T20:14:56Z</time>
      </trkpt>
      <trkpt lat="2.937359" lon="-75.237625">
        <ele>568.9</ele>
        <time>2021-08-21T20:14:57Z</time>
      </trkpt>
      <trkpt lat="2.937337" lon="-75.23767">
        <ele>569.0</ele>
        <time>2021-08-21T20:14:58Z</time>
      </trkpt>
      <trkpt lat="2.937314" lon="-75.237724">
        <ele>569.1</ele>
        <time>2021-08-21T20:14:59Z</time>
      </trkpt>
      <trkpt lat="2.937292" lon="-75.23777">
        <ele>569.3</ele>
        <time>2021-08-21T20:15:00Z</time>
      </trkpt>
      <trkpt lat="2.93727" lon="-75.23781">
        <ele>569.4</ele>
        <time>2021-08-21T20:15:01Z</time>
      </trkpt>
      <trkpt lat="2.937248" lon="-75.237854">
        <ele>569.5</ele>
        <time>2021-08-21T20:15:02Z</time>
      </trkpt>
      <trkpt lat="2.937227" lon="-75.2379">
        <ele>569.6</ele>
        <time>2021-08-21T20:15:03Z</time>
      </trkpt>
      <trkpt lat="2.937206" lon="-75.23794">
        <ele>569.7</ele>
        <time>2021-08-21T20:15:04Z</time>
      </trkpt>
      <trkpt lat="2.937185" lon="-75.23798">
        <ele>569.8</ele>
        <time>2021-08-21T20:15:05Z</time>
      </trkpt>
      <trkpt lat="2.937164" lon="-75.23802">
        <ele>569.9</ele>
        <time>2021-08-21T20:15:06Z</time>
      </trkpt>
      <trkpt lat="2.937144" lon="-75.23806">
        <ele>570.0</ele>
        <time>2021-08-21T20:15:07Z</time>
      </trkpt>
      <trkpt lat="2.937125" lon="-75.238106">
        <ele>570.1</ele>
        <time>2021-08-21T20:15:08Z</time>
      </trkpt>
      <trkpt lat="2.937108" lon="-75.238144">
        <ele>570.2</ele>
        <time>2021-08-21T20:15:09Z</time>
      </trkpt>
      <trkpt lat="2.93709" lon="-75.23818">
        <ele>570.2</ele>
        <time>2021-08-21T20:15:10Z</time>
      </trkpt>
      <trkpt lat="2.937074" lon="-75.23822">
        <ele>570.3</ele>
        <time>2021-08-21T20:15:11Z</time>
      </trkpt>
      <trkpt lat="2.937056" lon="-75.238266">
        <ele>570.3</ele>
        <time>2021-08-21T20:15:12Z</time>
      </trkpt>
      <trkpt lat="2.937038" lon="-75.238304">
        <ele>570.4</ele>
        <time>2021-08-21T20:15:13Z</time>
      </trkpt>
      <trkpt lat="2.937019" lon="-75.23835">
        <ele>570.5</ele>
        <time>2021-08-21T20:15:14Z</time>
      </trkpt>
      <trkpt lat="2.936999" lon="-75.23839">
        <ele>570.5</ele>
        <time>2021-08-21T20:15:15Z</time>
      </trkpt>
      <trkpt lat="2.93698" lon="-75.238434">
        <ele>570.6</ele>
        <time>2021-08-21T20:15:16Z</time>
      </trkpt>
      <trkpt lat="2.936961" lon="-75.23847">
        <ele>570.6</ele>
        <time>2021-08-21T20:15:17Z</time>
      </trkpt>
      <trkpt lat="2.936943" lon="-75.23852">
        <ele>570.7</ele>
        <time>2021-08-21T20:15:18Z</time>
      </trkpt>
      <trkpt lat="2.936925" lon="-75.23856">
        <ele>570.7</ele>
        <time>2021-08-21T20:15:19Z</time>
      </trkpt>
      <trkpt lat="2.936906" lon="-75.23861">
        <ele>570.8</ele>
        <time>2021-08-21T20:15:20Z</time>
      </trkpt>
      <trkpt lat="2.936887" lon="-75.238655">
        <ele>570.8</ele>
        <time>2021-08-21T20:15:21Z</time>
      </trkpt>
      <trkpt lat="2.936869" lon="-75.23869">
        <ele>570.9</ele>
        <time>2021-08-21T20:15:22Z</time>
      </trkpt>
      <trkpt lat="2.936849" lon="-75.23874">
        <ele>570.9</ele>
        <time>2021-08-21T20:15:23Z</time>
      </trkpt>
      <trkpt lat="2.936831" lon="-75.238785">
        <ele>571.0</ele>
        <time>2021-08-21T20:15:24Z</time>
      </trkpt>
      <trkpt lat="2.936811" lon="-75.23883">
        <ele>571.0</ele>
        <time>2021-08-21T20:15:25Z</time>
      </trkpt>
      <trkpt lat="2.936791" lon="-75.23888">
        <ele>571.0</ele>
        <time>2021-08-21T20:15:26Z</time>
      </trkpt>
      <trkpt lat="2.936772" lon="-75.23892">
        <ele>571.1</ele>
        <time>2021-08-21T20:15:27Z</time>
      </trkpt>
      <trkpt lat="2.936752" lon="-75.23897">
        <ele>571.1</ele>
        <time>2021-08-21T20:15:28Z</time>
      </trkpt>
      <trkpt lat="2.936732" lon="-75.23901">
        <ele>571.2</ele>
        <time>2021-08-21T20:15:29Z</time>
      </trkpt>
      <trkpt lat="2.936712" lon="-75.23906">
        <ele>571.2</ele>
        <time>2021-08-21T20:15:30Z</time>
      </trkpt>
      <trkpt lat="2.936691" lon="-75.239105">
        <ele>571.3</ele>
        <time>2021-08-21T20:15:31Z</time>
      </trkpt>
      <trkpt lat="2.936671" lon="-75.23915">
        <ele>571.3</ele>
        <time>2021-08-21T20:15:32Z</time>
      </trkpt>
      <trkpt lat="2.936651" lon="-75.2392">
        <ele>571.4</ele>
        <time>2021-08-21T20:15:33Z</time>
      </trkpt>
      <trkpt lat="2.936631" lon="-75.23924">
        <ele>571.4</ele>
        <time>2021-08-21T20:15:34Z</time>
      </trkpt>
      <trkpt lat="2.936611" lon="-75.23929">
        <ele>571.4</ele>
        <time>2021-08-21T20:15:35Z</time>
      </trkpt>
      <trkpt lat="2.936592" lon="-75.239334">
        <ele>571.5</ele>
        <time>2021-08-21T20:15:36Z</time>
      </trkpt>
      <trkpt lat="2.936574" lon="-75.23938">
        <ele>571.5</ele>
        <time>2021-08-21T20:15:37Z</time>
      </trkpt>
      <trkpt lat="2.936555" lon="-75.239426">
        <ele>571.6</ele>
        <time>2021-08-21T20:15:38Z</time>
      </trkpt>
      <trkpt lat="2.936536" lon="-75.23947">
        <ele>571.7</ele>
        <time>2021-08-21T20:15:39Z</time>
      </trkpt>
      <trkpt lat="2.936517" lon="-75.23952">
        <ele>571.7</ele>
        <time>2021-08-21T20:15:40Z</time>
      </trkpt>
      <trkpt lat="2.936498" lon="-75.23956">
        <ele>571.8</ele>
        <time>2021-08-21T20:15:41Z</time>
      </trkpt>
      <trkpt lat="2.936478" lon="-75.23961">
        <ele>571.8</ele>
        <time>2021-08-21T20:15:42Z</time>
      </trkpt>
      <trkpt lat="2.936459" lon="-75.239655">
        <ele>571.8</ele>
        <time>2021-08-21T20:15:43Z</time>
      </trkpt>
      <trkpt lat="2.93644" lon="-75.23969">
        <ele>571.9</ele>
        <time>2021-08-21T20:15:44Z</time>
      </trkpt>
      <trkpt lat="2.93642" lon="-75.23974">
        <ele>571.9</ele>
        <time>2021-08-21T20:15:45Z</time>
      </trkpt>
      <trkpt lat="2.9364" lon="-75.239784">
        <ele>571.9</ele>
        <time>2021-08-21T20:15:46Z</time>
      </trkpt>
      <trkpt lat="2.93638" lon="-75.23983">
        <ele>572.0</ele>
        <time>2021-08-21T20:15:47Z</time>
      </trkpt>
      <trkpt lat="2.93636" lon="-75.239876">
        <ele>572.0</ele>
        <time>2021-08-21T20:15:48Z</time>
      </trkpt>
      <trkpt lat="2.93634" lon="-75.23992">
        <ele>572.0</ele>
        <time>2021-08-21T20:15:49Z</time>
      </trkpt>
      <trkpt lat="2.93632" lon="-75.23997">
        <ele>572.0</ele>
        <time>2021-08-21T20:15:50Z</time>
      </trkpt>
      <trkpt lat="2.9363" lon="-75.24001">
        <ele>572.0</ele>
        <time>2021-08-21T20:15:51Z</time>
      </trkpt>
      <trkpt lat="2.936279" lon="-75.24006">
        <ele>572.0</ele>
        <time>2021-08-21T20:15:52Z</time>
      </trkpt>
      <trkpt lat="2.936259" lon="-75.240105">
        <ele>572.0</ele>
        <time>2021-08-21T20:15:53Z</time>
      </trkpt>
      <trkpt lat="2.936239" lon="-75.24015">
        <ele>572.0</ele>
        <time>2021-08-21T20:15:54Z</time>
      </trkpt>
      <trkpt lat="2.936219" lon="-75.2402">
        <ele>572.0</ele>
        <time>2021-08-21T20:15:55Z</time>
      </trkpt>
      <trkpt lat="2.936198" lon="-75.24025">
        <ele>572.0</ele>
        <time>2021-08-21T20:15:56Z</time>
      </trkpt>
      <trkpt lat="2.936177" lon="-75.240295">
        <ele>572.0</ele>
        <time>2021-08-21T20:15:57Z</time>
      </trkpt>
      <trkpt lat="2.936157" lon="-75.24035">
        <ele>572.0</ele>
        <time>2021-08-21T20:15:58Z</time>
      </trkpt>
      <trkpt lat="2.936135" lon="-75.240395">
        <ele>572.0</ele>
        <time>2021-08-21T20:15:59Z</time>
      </trkpt>
      <trkpt lat="2.936113" lon="-75.24045">
        <ele>572.0</ele>
        <time>2021-08-21T20:16:00Z</time>
      </trkpt>
      <trkpt lat="2.93609" lon="-75.24049">
        <ele>572.0</ele>
        <time>2021-08-21T20:16:01Z</time>
      </trkpt>
      <trkpt lat="2.936066" lon="-75.24055">
        <ele>572.0</ele>
        <time>2021-08-21T20:16:02Z</time>
      </trkpt>
      <trkpt lat="2.936044" lon="-75.24059">
        <ele>572.1</ele>
        <time>2021-08-21T20:16:03Z</time>
      </trkpt>
      <trkpt lat="2.936022" lon="-75.24065">
        <ele>572.1</ele>
        <time>2021-08-21T20:16:04Z</time>
      </trkpt>
      <trkpt lat="2.935977" lon="-75.240746">
        <ele>572.2</ele>
        <time>2021-08-21T20:16:05Z</time>
      </trkpt>
      <trkpt lat="2.936" lon="-75.24069">
        <ele>572.2</ele>
        <time>2021-08-21T20:16:05Z</time>
      </trkpt>
      <trkpt lat="2.935887" lon="-75.240944">
        <ele>572.3</ele>
        <time>2021-08-21T20:16:08Z</time>
      </trkpt>
      <trkpt lat="2.935881" lon="-75.24096">
        <ele>572.3</ele>
        <time>2021-08-21T20:16:09Z</time>
      </trkpt>
      <trkpt lat="2.93587" lon="-75.24098">
        <ele>572.3</ele>
        <time>2021-08-21T20:16:10Z</time>
      </trkpt>
      <trkpt lat="2.935854" lon="-75.24101">
        <ele>572.3</ele>
        <time>2021-08-21T20:16:11Z</time>
      </trkpt>
      <trkpt lat="2.935836" lon="-75.24106">
        <ele>572.4</ele>
        <time>2021-08-21T20:16:12Z</time>
      </trkpt>
      <trkpt lat="2.935817" lon="-75.2411">
        <ele>572.4</ele>
        <time>2021-08-21T20:16:13Z</time>
      </trkpt>
      <trkpt lat="2.935797" lon="-75.24114">
        <ele>572.4</ele>
        <time>2021-08-21T20:16:14Z</time>
      </trkpt>
      <trkpt lat="2.935778" lon="-75.24119">
        <ele>572.5</ele>
        <time>2021-08-21T20:16:15Z</time>
      </trkpt>
      <trkpt lat="2.935759" lon="-75.241234">
        <ele>572.5</ele>
        <time>2021-08-21T20:16:16Z</time>
      </trkpt>
      <trkpt lat="2.935741" lon="-75.24128">
        <ele>572.5</ele>
        <time>2021-08-21T20:16:17Z</time>
      </trkpt>
      <trkpt lat="2.935721" lon="-75.241325">
        <ele>572.5</ele>
        <time>2021-08-21T20:16:18Z</time>
      </trkpt>
      <trkpt lat="2.935702" lon="-75.24137">
        <ele>572.6</ele>
        <time>2021-08-21T20:16:19Z</time>
      </trkpt>
      <trkpt lat="2.935682" lon="-75.24142">
        <ele>572.6</ele>
        <time>2021-08-21T20:16:20Z</time>
      </trkpt>
      <trkpt lat="2.935664" lon="-75.24146">
        <ele>572.6</ele>
        <time>2021-08-21T20:16:21Z</time>
      </trkpt>
      <trkpt lat="2.935643" lon="-75.24151">
        <ele>572.6</ele>
        <time>2021-08-21T20:16:22Z</time>
      </trkpt>
      <trkpt lat="2.935622" lon="-75.241554">
        <ele>572.6</ele>
        <time>2021-08-21T20:16:23Z</time>
      </trkpt>
      <trkpt lat="2.935602" lon="-75.24159">
        <ele>572.7</ele>
        <time>2021-08-21T20:16:24Z</time>
      </trkpt>
      <trkpt lat="2.935582" lon="-75.241646">
        <ele>572.7</ele>
        <time>2021-08-21T20:16:25Z</time>
      </trkpt>
      <trkpt lat="2.935563" lon="-75.24169">
        <ele>572.7</ele>
        <time>2021-08-21T20:16:26Z</time>
      </trkpt>
      <trkpt lat="2.935543" lon="-75.24174">
        <ele>572.7</ele>
        <time>2021-08-21T20:16:27Z</time>
      </trkpt>
      <trkpt lat="2.935523" lon="-75.24178">
        <ele>572.7</ele>
        <time>2021-08-21T20:16:28Z</time>
      </trkpt>
      <trkpt lat="2.935501" lon="-75.24183">
        <ele>572.7</ele>
        <time>2021-08-21T20:16:29Z</time>
      </trkpt>
      <trkpt lat="2.93548" lon="-75.241875">
        <ele>572.7</ele>
        <time>2021-08-21T20:16:30Z</time>
      </trkpt>
      <trkpt lat="2.935459" lon="-75.24192">
        <ele>572.7</ele>
        <time>2021-08-21T20:16:31Z</time>
      </trkpt>
      <trkpt lat="2.935438" lon="-75.241974">
        <ele>572.7</ele>
        <time>2021-08-21T20:16:32Z</time>
      </trkpt>
      <trkpt lat="2.935416" lon="-75.24202">
        <ele>572.7</ele>
        <time>2021-08-21T20:16:33Z</time>
      </trkpt>
      <trkpt lat="2.935395" lon="-75.242065">
        <ele>572.7</ele>
        <time>2021-08-21T20:16:34Z</time>
      </trkpt>
      <trkpt lat="2.935374" lon="-75.24211">
        <ele>572.7</ele>
        <time>2021-08-21T20:16:35Z</time>
      </trkpt>
      <trkpt lat="2.935353" lon="-75.24216">
        <ele>572.7</ele>
        <time>2021-08-21T20:16:36Z</time>
      </trkpt>
      <trkpt lat="2.935332" lon="-75.2422">
        <ele>572.7</ele>
        <time>2021-08-21T20:16:37Z</time>
      </trkpt>
      <trkpt lat="2.935311" lon="-75.24225">
        <ele>572.7</ele>
        <time>2021-08-21T20:16:38Z</time>
      </trkpt>
      <trkpt lat="2.93529" lon="-75.242294">
        <ele>572.7</ele>
        <time>2021-08-21T20:16:39Z</time>
      </trkpt>
      <trkpt lat="2.935269" lon="-75.24234">
        <ele>572.7</ele>
        <time>2021-08-21T20:16:40Z</time>
      </trkpt>
      <trkpt lat="2.935247" lon="-75.24239">
        <ele>572.7</ele>
        <time>2021-08-21T20:16:41Z</time>
      </trkpt>
      <trkpt lat="2.935225" lon="-75.24244">
        <ele>572.7</ele>
        <time>2021-08-21T20:16:42Z</time>
      </trkpt>
      <trkpt lat="2.935204" lon="-75.242485">
        <ele>572.6</ele>
        <time>2021-08-21T20:16:43Z</time>
      </trkpt>
      <trkpt lat="2.935183" lon="-75.24254">
        <ele>572.6</ele>
        <time>2021-08-21T20:16:44Z</time>
      </trkpt>
      <trkpt lat="2.935161" lon="-75.242584">
        <ele>572.5</ele>
        <time>2021-08-21T20:16:45Z</time>
      </trkpt>
      <trkpt lat="2.935139" lon="-75.24264">
        <ele>572.5</ele>
        <time>2021-08-21T20:16:46Z</time>
      </trkpt>
      <trkpt lat="2.935117" lon="-75.24269">
        <ele>572.5</ele>
        <time>2021-08-21T20:16:47Z</time>
      </trkpt>
      <trkpt lat="2.935095" lon="-75.24274">
        <ele>572.4</ele>
        <time>2021-08-21T20:16:48Z</time>
      </trkpt>
      <trkpt lat="2.935074" lon="-75.24279">
        <ele>572.4</ele>
        <time>2021-08-21T20:16:49Z</time>
      </trkpt>
      <trkpt lat="2.935053" lon="-75.24284">
        <ele>572.3</ele>
        <time>2021-08-21T20:16:50Z</time>
      </trkpt>
      <trkpt lat="2.935031" lon="-75.24289">
        <ele>572.2</ele>
        <time>2021-08-21T20:16:51Z</time>
      </trkpt>
      <trkpt lat="2.935007" lon="-75.24295">
        <ele>572.1</ele>
        <time>2021-08-21T20:16:52Z</time>
      </trkpt>
      <trkpt lat="2.934985" lon="-75.243">
        <ele>572.0</ele>
        <time>2021-08-21T20:16:53Z</time>
      </trkpt>
      <trkpt lat="2.934965" lon="-75.24305">
        <ele>571.9</ele>
        <time>2021-08-21T20:16:54Z</time>
      </trkpt>
      <trkpt lat="2.934944" lon="-75.243095">
        <ele>571.9</ele>
        <time>2021-08-21T20:16:55Z</time>
      </trkpt>
      <trkpt lat="2.934923" lon="-75.24315">
        <ele>571.8</ele>
        <time>2021-08-21T20:16:56Z</time>
      </trkpt>
      <trkpt lat="2.934902" lon="-75.243195">
        <ele>571.7</ele>
        <time>2021-08-21T20:16:57Z</time>
      </trkpt>
      <trkpt lat="2.934882" lon="-75.24325">
        <ele>571.6</ele>
        <time>2021-08-21T20:16:58Z</time>
      </trkpt>
      <trkpt lat="2.934863" lon="-75.24329">
        <ele>571.5</ele>
        <time>2021-08-21T20:16:59Z</time>
      </trkpt>
      <trkpt lat="2.934845" lon="-75.24334">
        <ele>571.4</ele>
        <time>2021-08-21T20:17:00Z</time>
      </trkpt>
      <trkpt lat="2.934828" lon="-75.24339">
        <ele>571.3</ele>
        <time>2021-08-21T20:17:01Z</time>
      </trkpt>
      <trkpt lat="2.934812" lon="-75.24344">
        <ele>571.1</ele>
        <time>2021-08-21T20:17:02Z</time>
      </trkpt>
      <trkpt lat="2.934798" lon="-75.24349">
        <ele>571.0</ele>
        <time>2021-08-21T20:17:03Z</time>
      </trkpt>
      <trkpt lat="2.934783" lon="-75.243546">
        <ele>570.9</ele>
        <time>2021-08-21T20:17:04Z</time>
      </trkpt>
      <trkpt lat="2.934769" lon="-75.24359">
        <ele>570.7</ele>
        <time>2021-08-21T20:17:05Z</time>
      </trkpt>
      <trkpt lat="2.934757" lon="-75.243645">
        <ele>570.6</ele>
        <time>2021-08-21T20:17:06Z</time>
      </trkpt>
      <trkpt lat="2.934746" lon="-75.24369">
        <ele>570.3</ele>
        <time>2021-08-21T20:17:07Z</time>
      </trkpt>
      <trkpt lat="2.934737" lon="-75.243744">
        <ele>570.1</ele>
        <time>2021-08-21T20:17:08Z</time>
      </trkpt>
      <trkpt lat="2.934729" lon="-75.2438">
        <ele>569.9</ele>
        <time>2021-08-21T20:17:09Z</time>
      </trkpt>
      <trkpt lat="2.934718" lon="-75.24385">
        <ele>569.7</ele>
        <time>2021-08-21T20:17:10Z</time>
      </trkpt>
      <trkpt lat="2.934707" lon="-75.243904">
        <ele>569.4</ele>
        <time>2021-08-21T20:17:11Z</time>
      </trkpt>
      <trkpt lat="2.934694" lon="-75.24396">
        <ele>569.3</ele>
        <time>2021-08-21T20:17:12Z</time>
      </trkpt>
      <trkpt lat="2.934679" lon="-75.24401">
        <ele>569.1</ele>
        <time>2021-08-21T20:17:13Z</time>
      </trkpt>
      <trkpt lat="2.934663" lon="-75.244064">
        <ele>569.0</ele>
        <time>2021-08-21T20:17:14Z</time>
      </trkpt>
      <trkpt lat="2.934645" lon="-75.24412">
        <ele>568.8</ele>
        <time>2021-08-21T20:17:15Z</time>
      </trkpt>
      <trkpt lat="2.934625" lon="-75.24416">
        <ele>568.7</ele>
        <time>2021-08-21T20:17:16Z</time>
      </trkpt>
      <trkpt lat="2.934606" lon="-75.24422">
        <ele>568.5</ele>
        <time>2021-08-21T20:17:17Z</time>
      </trkpt>
      <trkpt lat="2.934587" lon="-75.24427">
        <ele>568.4</ele>
        <time>2021-08-21T20:17:18Z</time>
      </trkpt>
      <trkpt lat="2.934567" lon="-75.24432">
        <ele>568.2</ele>
        <time>2021-08-21T20:17:19Z</time>
      </trkpt>
      <trkpt lat="2.934547" lon="-75.24437">
        <ele>568.1</ele>
        <time>2021-08-21T20:17:20Z</time>
      </trkpt>
      <trkpt lat="2.934526" lon="-75.24442">
        <ele>567.9</ele>
        <time>2021-08-21T20:17:21Z</time>
      </trkpt>
      <trkpt lat="2.934486" lon="-75.24453">
        <ele>567.6</ele>
        <time>2021-08-21T20:17:22Z</time>
      </trkpt>
      <trkpt lat="2.934506" lon="-75.24448">
        <ele>567.8</ele>
        <time>2021-08-21T20:17:22Z</time>
      </trkpt>
      <trkpt lat="2.934465" lon="-75.244576">
        <ele>567.5</ele>
        <time>2021-08-21T20:17:23Z</time>
      </trkpt>
      <trkpt lat="2.934444" lon="-75.24463">
        <ele>567.3</ele>
        <time>2021-08-21T20:17:24Z</time>
      </trkpt>
      <trkpt lat="2.934423" lon="-75.24468">
        <ele>567.2</ele>
        <time>2021-08-21T20:17:25Z</time>
      </trkpt>
      <trkpt lat="2.934401" lon="-75.244736">
        <ele>567.0</ele>
        <time>2021-08-21T20:17:26Z</time>
      </trkpt>
      <trkpt lat="2.93438" lon="-75.24479">
        <ele>566.8</ele>
        <time>2021-08-21T20:17:27Z</time>
      </trkpt>
      <trkpt lat="2.93436" lon="-75.244835">
        <ele>566.7</ele>
        <time>2021-08-21T20:17:28Z</time>
      </trkpt>
      <trkpt lat="2.934341" lon="-75.24489">
        <ele>566.6</ele>
        <time>2021-08-21T20:17:29Z</time>
      </trkpt>
      <trkpt lat="2.934322" lon="-75.24494">
        <ele>566.4</ele>
        <time>2021-08-21T20:17:30Z</time>
      </trkpt>
      <trkpt lat="2.934303" lon="-75.244995">
        <ele>566.3</ele>
        <time>2021-08-21T20:17:31Z</time>
      </trkpt>
      <trkpt lat="2.934285" lon="-75.24505">
        <ele>566.1</ele>
        <time>2021-08-21T20:17:32Z</time>
      </trkpt>
      <trkpt lat="2.934268" lon="-75.2451">
        <ele>566.0</ele>
        <time>2021-08-21T20:17:33Z</time>
      </trkpt>
      <trkpt lat="2.934251" lon="-75.245155">
        <ele>565.9</ele>
        <time>2021-08-21T20:17:34Z</time>
      </trkpt>
      <trkpt lat="2.934234" lon="-75.24521">
        <ele>565.7</ele>
        <time>2021-08-21T20:17:35Z</time>
      </trkpt>
      <trkpt lat="2.934218" lon="-75.24526">
        <ele>565.7</ele>
        <time>2021-08-21T20:17:36Z</time>
      </trkpt>
      <trkpt lat="2.934203" lon="-75.245316">
        <ele>565.6</ele>
        <time>2021-08-21T20:17:37Z</time>
      </trkpt>
      <trkpt lat="2.934188" lon="-75.24537">
        <ele>565.5</ele>
        <time>2021-08-21T20:17:38Z</time>
      </trkpt>
      <trkpt lat="2.934173" lon="-75.24542">
        <ele>565.4</ele>
        <time>2021-08-21T20:17:39Z</time>
      </trkpt>
      <trkpt lat="2.934158" lon="-75.245476">
        <ele>565.3</ele>
        <time>2021-08-21T20:17:40Z</time>
      </trkpt>
      <trkpt lat="2.934146" lon="-75.24552">
        <ele>565.2</ele>
        <time>2021-08-21T20:17:41Z</time>
      </trkpt>
      <trkpt lat="2.934136" lon="-75.24556">
        <ele>565.1</ele>
        <time>2021-08-21T20:17:42Z</time>
      </trkpt>
      <trkpt lat="2.934126" lon="-75.2456">
        <ele>565.0</ele>
        <time>2021-08-21T20:17:43Z</time>
      </trkpt>
      <trkpt lat="2.934117" lon="-75.245636">
        <ele>564.9</ele>
        <time>2021-08-21T20:17:44Z</time>
      </trkpt>
      <trkpt lat="2.934108" lon="-75.245674">
        <ele>564.9</ele>
        <time>2021-08-21T20:17:45Z</time>
      </trkpt>
      <trkpt lat="2.934099" lon="-75.24571">
        <ele>564.8</ele>
        <time>2021-08-21T20:17:46Z</time>
      </trkpt>
      <trkpt lat="2.93409" lon="-75.24575">
        <ele>564.8</ele>
        <time>2021-08-21T20:17:47Z</time>
      </trkpt>
      <trkpt lat="2.93408" lon="-75.2458">
        <ele>564.9</ele>
        <time>2021-08-21T20:17:48Z</time>
      </trkpt>
      <trkpt lat="2.934067" lon="-75.24584">
        <ele>565.1</ele>
        <time>2021-08-21T20:17:49Z</time>
      </trkpt>
      <trkpt lat="2.934054" lon="-75.24589">
        <ele>564.8</ele>
        <time>2021-08-21T20:17:50Z</time>
      </trkpt>
      <trkpt lat="2.934039" lon="-75.24595">
        <ele>564.3</ele>
        <time>2021-08-21T20:17:51Z</time>
      </trkpt>
      <trkpt lat="2.934023" lon="-75.246">
        <ele>563.8</ele>
        <time>2021-08-21T20:17:52Z</time>
      </trkpt>
      <trkpt lat="2.934008" lon="-75.24606">
        <ele>563.5</ele>
        <time>2021-08-21T20:17:53Z</time>
      </trkpt>
      <trkpt lat="2.933992" lon="-75.24613">
        <ele>563.4</ele>
        <time>2021-08-21T20:17:54Z</time>
      </trkpt>
      <trkpt lat="2.933976" lon="-75.24619">
        <ele>563.2</ele>
        <time>2021-08-21T20:17:55Z</time>
      </trkpt>
      <trkpt lat="2.93396" lon="-75.24626">
        <ele>563.1</ele>
        <time>2021-08-21T20:17:56Z</time>
      </trkpt>
      <trkpt lat="2.933941" lon="-75.24633">
        <ele>562.9</ele>
        <time>2021-08-21T20:17:57Z</time>
      </trkpt>
      <trkpt lat="2.933924" lon="-75.2464">
        <ele>562.7</ele>
        <time>2021-08-21T20:17:58Z</time>
      </trkpt>
      <trkpt lat="2.933906" lon="-75.24647">
        <ele>562.4</ele>
        <time>2021-08-21T20:17:59Z</time>
      </trkpt>
      <trkpt lat="2.933889" lon="-75.24654">
        <ele>562.2</ele>
        <time>2021-08-21T20:18:00Z</time>
      </trkpt>
      <trkpt lat="2.93387" lon="-75.24661">
        <ele>562.0</ele>
        <time>2021-08-21T20:18:01Z</time>
      </trkpt>
      <trkpt lat="2.933851" lon="-75.24668">
        <ele>561.8</ele>
        <time>2021-08-21T20:18:02Z</time>
      </trkpt>
      <trkpt lat="2.933833" lon="-75.24675">
        <ele>561.6</ele>
        <time>2021-08-21T20:18:03Z</time>
      </trkpt>
      <trkpt lat="2.933815" lon="-75.24682">
        <ele>561.4</ele>
        <time>2021-08-21T20:18:04Z</time>
      </trkpt>
      <trkpt lat="2.933797" lon="-75.24689">
        <ele>561.2</ele>
        <time>2021-08-21T20:18:05Z</time>
      </trkpt>
      <trkpt lat="2.93378" lon="-75.246956">
        <ele>561.0</ele>
        <time>2021-08-21T20:18:06Z</time>
      </trkpt>
      <trkpt lat="2.933762" lon="-75.247025">
        <ele>560.8</ele>
        <time>2021-08-21T20:18:07Z</time>
      </trkpt>
      <trkpt lat="2.933744" lon="-75.24709">
        <ele>560.7</ele>
        <time>2021-08-21T20:18:08Z</time>
      </trkpt>
      <trkpt lat="2.933725" lon="-75.24716">
        <ele>560.5</ele>
        <time>2021-08-21T20:18:09Z</time>
      </trkpt>
      <trkpt lat="2.933706" lon="-75.24723">
        <ele>560.3</ele>
        <time>2021-08-21T20:18:10Z</time>
      </trkpt>
      <trkpt lat="2.933687" lon="-75.2473">
        <ele>560.1</ele>
        <time>2021-08-21T20:18:11Z</time>
      </trkpt>
      <trkpt lat="2.933667" lon="-75.24736">
        <ele>560.0</ele>
        <time>2021-08-21T20:18:12Z</time>
      </trkpt>
      <trkpt lat="2.933648" lon="-75.24743">
        <ele>559.8</ele>
        <time>2021-08-21T20:18:13Z</time>
      </trkpt>
      <trkpt lat="2.933629" lon="-75.2475">
        <ele>559.7</ele>
        <time>2021-08-21T20:18:14Z</time>
      </trkpt>
      <trkpt lat="2.93361" lon="-75.24756">
        <ele>559.5</ele>
        <time>2021-08-21T20:18:15Z</time>
      </trkpt>
      <trkpt lat="2.933591" lon="-75.24762">
        <ele>559.3</ele>
        <time>2021-08-21T20:18:16Z</time>
      </trkpt>
      <trkpt lat="2.933572" lon="-75.24769">
        <ele>559.2</ele>
        <time>2021-08-21T20:18:17Z</time>
      </trkpt>
      <trkpt lat="2.933552" lon="-75.24775">
        <ele>559.0</ele>
        <time>2021-08-21T20:18:18Z</time>
      </trkpt>
      <trkpt lat="2.933532" lon="-75.24781">
        <ele>558.8</ele>
        <time>2021-08-21T20:18:19Z</time>
      </trkpt>
      <trkpt lat="2.933512" lon="-75.24788">
        <ele>558.6</ele>
        <time>2021-08-21T20:18:20Z</time>
      </trkpt>
      <trkpt lat="2.933493" lon="-75.24794">
        <ele>558.4</ele>
        <time>2021-08-21T20:18:21Z</time>
      </trkpt>
      <trkpt lat="2.933473" lon="-75.24801">
        <ele>558.2</ele>
        <time>2021-08-21T20:18:22Z</time>
      </trkpt>
      <trkpt lat="2.933453" lon="-75.24808">
        <ele>558.0</ele>
        <time>2021-08-21T20:18:23Z</time>
      </trkpt>
      <trkpt lat="2.933433" lon="-75.24814">
        <ele>557.8</ele>
        <time>2021-08-21T20:18:24Z</time>
      </trkpt>
      <trkpt lat="2.933414" lon="-75.24821">
        <ele>557.7</ele>
        <time>2021-08-21T20:18:25Z</time>
      </trkpt>
      <trkpt lat="2.933394" lon="-75.248276">
        <ele>557.5</ele>
        <time>2021-08-21T20:18:26Z</time>
      </trkpt>
      <trkpt lat="2.933375" lon="-75.248344">
        <ele>557.3</ele>
        <time>2021-08-21T20:18:27Z</time>
      </trkpt>
      <trkpt lat="2.933355" lon="-75.24841">
        <ele>557.2</ele>
        <time>2021-08-21T20:18:28Z</time>
      </trkpt>
      <trkpt lat="2.933336" lon="-75.24848">
        <ele>557.0</ele>
        <time>2021-08-21T20:18:29Z</time>
      </trkpt>
      <trkpt lat="2.933317" lon="-75.24855">
        <ele>556.8</ele>
        <time>2021-08-21T20:18:30Z</time>
      </trkpt>
      <trkpt lat="2.933298" lon="-75.24862">
        <ele>556.6</ele>
        <time>2021-08-21T20:18:31Z</time>
      </trkpt>
      <trkpt lat="2.933281" lon="-75.24869">
        <ele>556.4</ele>
        <time>2021-08-21T20:18:32Z</time>
      </trkpt>
      <trkpt lat="2.933263" lon="-75.248764">
        <ele>556.3</ele>
        <time>2021-08-21T20:18:33Z</time>
      </trkpt>
      <trkpt lat="2.933247" lon="-75.24883">
        <ele>556.1</ele>
        <time>2021-08-21T20:18:34Z</time>
      </trkpt>
      <trkpt lat="2.93323" lon="-75.24891">
        <ele>555.9</ele>
        <time>2021-08-21T20:18:35Z</time>
      </trkpt>
      <trkpt lat="2.933212" lon="-75.24898">
        <ele>555.8</ele>
        <time>2021-08-21T20:18:36Z</time>
      </trkpt>
      <trkpt lat="2.933193" lon="-75.24905">
        <ele>555.6</ele>
        <time>2021-08-21T20:18:37Z</time>
      </trkpt>
      <trkpt lat="2.933173" lon="-75.249115">
        <ele>555.5</ele>
        <time>2021-08-21T20:18:38Z</time>
      </trkpt>
      <trkpt lat="2.933154" lon="-75.24918">
        <ele>555.3</ele>
        <time>2021-08-21T20:18:39Z</time>
      </trkpt>
      <trkpt lat="2.933134" lon="-75.24925">
        <ele>555.2</ele>
        <time>2021-08-21T20:18:40Z</time>
      </trkpt>
      <trkpt lat="2.933116" lon="-75.24931">
        <ele>555.1</ele>
        <time>2021-08-21T20:18:41Z</time>
      </trkpt>
      <trkpt lat="2.933097" lon="-75.24938">
        <ele>555.0</ele>
        <time>2021-08-21T20:18:42Z</time>
      </trkpt>
      <trkpt lat="2.933078" lon="-75.24944">
        <ele>554.9</ele>
        <time>2021-08-21T20:18:43Z</time>
      </trkpt>
      <trkpt lat="2.93306" lon="-75.24951">
        <ele>554.8</ele>
        <time>2021-08-21T20:18:44Z</time>
      </trkpt>
      <trkpt lat="2.93304" lon="-75.24958">
        <ele>554.7</ele>
        <time>2021-08-21T20:18:45Z</time>
      </trkpt>
      <trkpt lat="2.933022" lon="-75.24964">
        <ele>554.7</ele>
        <time>2021-08-21T20:18:46Z</time>
      </trkpt>
      <trkpt lat="2.933001" lon="-75.2497">
        <ele>554.6</ele>
        <time>2021-08-21T20:18:47Z</time>
      </trkpt>
      <trkpt lat="2.93298" lon="-75.24977">
        <ele>554.6</ele>
        <time>2021-08-21T20:18:48Z</time>
      </trkpt>
      <trkpt lat="2.932958" lon="-75.24984">
        <ele>554.5</ele>
        <time>2021-08-21T20:18:49Z</time>
      </trkpt>
      <trkpt lat="2.932937" lon="-75.24991">
        <ele>554.3</ele>
        <time>2021-08-21T20:18:50Z</time>
      </trkpt>
      <trkpt lat="2.932916" lon="-75.24997">
        <ele>554.2</ele>
        <time>2021-08-21T20:18:51Z</time>
      </trkpt>
      <trkpt lat="2.932895" lon="-75.25004">
        <ele>554.1</ele>
        <time>2021-08-21T20:18:52Z</time>
      </trkpt>
      <trkpt lat="2.932874" lon="-75.25011">
        <ele>553.9</ele>
        <time>2021-08-21T20:18:53Z</time>
      </trkpt>
      <trkpt lat="2.932853" lon="-75.250175">
        <ele>553.7</ele>
        <time>2021-08-21T20:18:54Z</time>
      </trkpt>
      <trkpt lat="2.932832" lon="-75.25024">
        <ele>553.6</ele>
        <time>2021-08-21T20:18:55Z</time>
      </trkpt>
      <trkpt lat="2.932812" lon="-75.250305">
        <ele>553.4</ele>
        <time>2021-08-21T20:18:56Z</time>
      </trkpt>
      <trkpt lat="2.932793" lon="-75.250374">
        <ele>553.2</ele>
        <time>2021-08-21T20:18:57Z</time>
      </trkpt>
      <trkpt lat="2.932774" lon="-75.25045">
        <ele>553.0</ele>
        <time>2021-08-21T20:18:58Z</time>
      </trkpt>
      <trkpt lat="2.932756" lon="-75.25052">
        <ele>552.8</ele>
        <time>2021-08-21T20:18:59Z</time>
      </trkpt>
      <trkpt lat="2.932719" lon="-75.250656">
        <ele>552.4</ele>
        <time>2021-08-21T20:19:00Z</time>
      </trkpt>
      <trkpt lat="2.932737" lon="-75.25059">
        <ele>552.6</ele>
        <time>2021-08-21T20:19:00Z</time>
      </trkpt>
      <trkpt lat="2.932695" lon="-75.250755">
        <ele>552.2</ele>
        <time>2021-08-21T20:19:03Z</time>
      </trkpt>
      <trkpt lat="2.932673" lon="-75.25084">
        <ele>552.1</ele>
        <time>2021-08-21T20:19:04Z</time>
      </trkpt>
      <trkpt lat="2.932655" lon="-75.250916">
        <ele>552.0</ele>
        <time>2021-08-21T20:19:05Z</time>
      </trkpt>
      <trkpt lat="2.932638" lon="-75.25099">
        <ele>551.8</ele>
        <time>2021-08-21T20:19:06Z</time>
      </trkpt>
      <trkpt lat="2.932622" lon="-75.25107">
        <ele>551.6</ele>
        <time>2021-08-21T20:19:07Z</time>
      </trkpt>
      <trkpt lat="2.932607" lon="-75.251144">
        <ele>551.4</ele>
        <time>2021-08-21T20:19:08Z</time>
      </trkpt>
      <trkpt lat="2.932593" lon="-75.25121">
        <ele>551.2</ele>
        <time>2021-08-21T20:19:09Z</time>
      </trkpt>
      <trkpt lat="2.93258" lon="-75.25128">
        <ele>551.1</ele>
        <time>2021-08-21T20:19:10Z</time>
      </trkpt>
      <trkpt lat="2.932567" lon="-75.25135">
        <ele>550.9</ele>
        <time>2021-08-21T20:19:11Z</time>
      </trkpt>
      <trkpt lat="2.932554" lon="-75.25142">
        <ele>550.8</ele>
        <time>2021-08-21T20:19:12Z</time>
      </trkpt>
      <trkpt lat="2.93254" lon="-75.25149">
        <ele>550.6</ele>
        <time>2021-08-21T20:19:13Z</time>
      </trkpt>
      <trkpt lat="2.932527" lon="-75.25156">
        <ele>550.5</ele>
        <time>2021-08-21T20:19:14Z</time>
      </trkpt>
      <trkpt lat="2.932514" lon="-75.251625">
        <ele>550.4</ele>
        <time>2021-08-21T20:19:15Z</time>
      </trkpt>
      <trkpt lat="2.932501" lon="-75.25169">
        <ele>550.3</ele>
        <time>2021-08-21T20:19:16Z</time>
      </trkpt>
      <trkpt lat="2.932489" lon="-75.25176">
        <ele>550.3</ele>
        <time>2021-08-21T20:19:17Z</time>
      </trkpt>
      <trkpt lat="2.932476" lon="-75.25183">
        <ele>550.2</ele>
        <time>2021-08-21T20:19:18Z</time>
      </trkpt>
      <trkpt lat="2.932464" lon="-75.2519">
        <ele>550.1</ele>
        <time>2021-08-21T20:19:19Z</time>
      </trkpt>
      <trkpt lat="2.932451" lon="-75.25197">
        <ele>550.0</ele>
        <time>2021-08-21T20:19:20Z</time>
      </trkpt>
      <trkpt lat="2.932439" lon="-75.25204">
        <ele>550.0</ele>
        <time>2021-08-21T20:19:21Z</time>
      </trkpt>
      <trkpt lat="2.932427" lon="-75.252106">
        <ele>549.9</ele>
        <time>2021-08-21T20:19:22Z</time>
      </trkpt>
      <trkpt lat="2.932415" lon="-75.25217">
        <ele>549.8</ele>
        <time>2021-08-21T20:19:23Z</time>
      </trkpt>
      <trkpt lat="2.932403" lon="-75.252235">
        <ele>549.8</ele>
        <time>2021-08-21T20:19:24Z</time>
      </trkpt>
      <trkpt lat="2.93239" lon="-75.252304">
        <ele>549.7</ele>
        <time>2021-08-21T20:19:25Z</time>
      </trkpt>
      <trkpt lat="2.932376" lon="-75.25237">
        <ele>549.6</ele>
        <time>2021-08-21T20:19:26Z</time>
      </trkpt>
      <trkpt lat="2.932363" lon="-75.25243">
        <ele>549.5</ele>
        <time>2021-08-21T20:19:27Z</time>
      </trkpt>
      <trkpt lat="2.932351" lon="-75.252495">
        <ele>549.4</ele>
        <time>2021-08-21T20:19:28Z</time>
      </trkpt>
      <trkpt lat="2.932339" lon="-75.25256">
        <ele>549.3</ele>
        <time>2021-08-21T20:19:29Z</time>
      </trkpt>
      <trkpt lat="2.932326" lon="-75.252625">
        <ele>549.2</ele>
        <time>2021-08-21T20:19:30Z</time>
      </trkpt>
      <trkpt lat="2.932312" lon="-75.25269">
        <ele>549.1</ele>
        <time>2021-08-21T20:19:31Z</time>
      </trkpt>
      <trkpt lat="2.932298" lon="-75.252754">
        <ele>548.9</ele>
        <time>2021-08-21T20:19:32Z</time>
      </trkpt>
      <trkpt lat="2.932284" lon="-75.25282">
        <ele>548.7</ele>
        <time>2021-08-21T20:19:33Z</time>
      </trkpt>
      <trkpt lat="2.93227" lon="-75.25289">
        <ele>548.5</ele>
        <time>2021-08-21T20:19:34Z</time>
      </trkpt>
      <trkpt lat="2.932256" lon="-75.25297">
        <ele>548.3</ele>
        <time>2021-08-21T20:19:35Z</time>
      </trkpt>
      <trkpt lat="2.932244" lon="-75.25304">
        <ele>548.1</ele>
        <time>2021-08-21T20:19:36Z</time>
      </trkpt>
      <trkpt lat="2.932231" lon="-75.253105">
        <ele>547.9</ele>
        <time>2021-08-21T20:19:37Z</time>
      </trkpt>
      <trkpt lat="2.932218" lon="-75.253174">
        <ele>547.7</ele>
        <time>2021-08-21T20:19:38Z</time>
      </trkpt>
      <trkpt lat="2.932205" lon="-75.25324">
        <ele>547.5</ele>
        <time>2021-08-21T20:19:39Z</time>
      </trkpt>
      <trkpt lat="2.932192" lon="-75.25332">
        <ele>547.2</ele>
        <time>2021-08-21T20:19:40Z</time>
      </trkpt>
      <trkpt lat="2.932178" lon="-75.25339">
        <ele>547.0</ele>
        <time>2021-08-21T20:19:41Z</time>
      </trkpt>
      <trkpt lat="2.932166" lon="-75.253456">
        <ele>546.8</ele>
        <time>2021-08-21T20:19:42Z</time>
      </trkpt>
      <trkpt lat="2.932153" lon="-75.253525">
        <ele>546.6</ele>
        <time>2021-08-21T20:19:43Z</time>
      </trkpt>
      <trkpt lat="2.932141" lon="-75.25359">
        <ele>546.4</ele>
        <time>2021-08-21T20:19:44Z</time>
      </trkpt>
      <trkpt lat="2.932127" lon="-75.25367">
        <ele>546.2</ele>
        <time>2021-08-21T20:19:45Z</time>
      </trkpt>
      <trkpt lat="2.932114" lon="-75.25374">
        <ele>546.0</ele>
        <time>2021-08-21T20:19:46Z</time>
      </trkpt>
      <trkpt lat="2.932102" lon="-75.25381">
        <ele>545.8</ele>
        <time>2021-08-21T20:19:47Z</time>
      </trkpt>
      <trkpt lat="2.932091" lon="-75.253876">
        <ele>545.7</ele>
        <time>2021-08-21T20:19:48Z</time>
      </trkpt>
      <trkpt lat="2.932081" lon="-75.25394">
        <ele>545.5</ele>
        <time>2021-08-21T20:19:49Z</time>
      </trkpt>
      <trkpt lat="2.93207" lon="-75.254005">
        <ele>545.3</ele>
        <time>2021-08-21T20:19:50Z</time>
      </trkpt>
      <trkpt lat="2.93206" lon="-75.25407">
        <ele>545.2</ele>
        <time>2021-08-21T20:19:51Z</time>
      </trkpt>
      <trkpt lat="2.93205" lon="-75.25413">
        <ele>545.0</ele>
        <time>2021-08-21T20:19:52Z</time>
      </trkpt>
      <trkpt lat="2.93204" lon="-75.254196">
        <ele>544.9</ele>
        <time>2021-08-21T20:19:53Z</time>
      </trkpt>
      <trkpt lat="2.932031" lon="-75.25426">
        <ele>544.7</ele>
        <time>2021-08-21T20:19:54Z</time>
      </trkpt>
      <trkpt lat="2.932022" lon="-75.254326">
        <ele>544.4</ele>
        <time>2021-08-21T20:19:55Z</time>
      </trkpt>
      <trkpt lat="2.932013" lon="-75.25439">
        <ele>544.2</ele>
        <time>2021-08-21T20:19:56Z</time>
      </trkpt>
      <trkpt lat="2.932005" lon="-75.254456">
        <ele>544.0</ele>
        <time>2021-08-21T20:19:57Z</time>
      </trkpt>
      <trkpt lat="2.931997" lon="-75.254524">
        <ele>543.7</ele>
        <time>2021-08-21T20:19:58Z</time>
      </trkpt>
      <trkpt lat="2.931989" lon="-75.25459">
        <ele>543.5</ele>
        <time>2021-08-21T20:19:59Z</time>
      </trkpt>
      <trkpt lat="2.931981" lon="-75.25466">
        <ele>543.3</ele>
        <time>2021-08-21T20:20:00Z</time>
      </trkpt>
      <trkpt lat="2.931974" lon="-75.25473">
        <ele>543.0</ele>
        <time>2021-08-21T20:20:01Z</time>
      </trkpt>
      <trkpt lat="2.931966" lon="-75.25481">
        <ele>542.8</ele>
        <time>2021-08-21T20:20:02Z</time>
      </trkpt>
      <trkpt lat="2.931959" lon="-75.254875">
        <ele>542.5</ele>
        <time>2021-08-21T20:20:03Z</time>
      </trkpt>
      <trkpt lat="2.93195" lon="-75.254944">
        <ele>542.3</ele>
        <time>2021-08-21T20:20:04Z</time>
      </trkpt>
      <trkpt lat="2.931941" lon="-75.25501">
        <ele>542.1</ele>
        <time>2021-08-21T20:20:05Z</time>
      </trkpt>
      <trkpt lat="2.93193" lon="-75.25509">
        <ele>541.8</ele>
        <time>2021-08-21T20:20:06Z</time>
      </trkpt>
      <trkpt lat="2.931921" lon="-75.255165">
        <ele>541.6</ele>
        <time>2021-08-21T20:20:07Z</time>
      </trkpt>
      <trkpt lat="2.931913" lon="-75.25523">
        <ele>541.3</ele>
        <time>2021-08-21T20:20:08Z</time>
      </trkpt>
      <trkpt lat="2.931909" lon="-75.2553">
        <ele>541.1</ele>
        <time>2021-08-21T20:20:09Z</time>
      </trkpt>
      <trkpt lat="2.931906" lon="-75.25537">
        <ele>540.8</ele>
        <time>2021-08-21T20:20:10Z</time>
      </trkpt>
      <trkpt lat="2.931905" lon="-75.25544">
        <ele>540.6</ele>
        <time>2021-08-21T20:20:11Z</time>
      </trkpt>
      <trkpt lat="2.931905" lon="-75.255516">
        <ele>540.3</ele>
        <time>2021-08-21T20:20:12Z</time>
      </trkpt>
      <trkpt lat="2.931906" lon="-75.25559">
        <ele>540.1</ele>
        <time>2021-08-21T20:20:13Z</time>
      </trkpt>
      <trkpt lat="2.931908" lon="-75.25566">
        <ele>539.8</ele>
        <time>2021-08-21T20:20:14Z</time>
      </trkpt>
      <trkpt lat="2.93191" lon="-75.25573">
        <ele>539.6</ele>
        <time>2021-08-21T20:20:15Z</time>
      </trkpt>
      <trkpt lat="2.931912" lon="-75.255806">
        <ele>539.3</ele>
        <time>2021-08-21T20:20:16Z</time>
      </trkpt>
      <trkpt lat="2.931914" lon="-75.255875">
        <ele>539.1</ele>
        <time>2021-08-21T20:20:17Z</time>
      </trkpt>
      <trkpt lat="2.931917" lon="-75.25595">
        <ele>538.9</ele>
        <time>2021-08-21T20:20:18Z</time>
      </trkpt>
      <trkpt lat="2.931918" lon="-75.25603">
        <ele>538.7</ele>
        <time>2021-08-21T20:20:19Z</time>
      </trkpt>
      <trkpt lat="2.931919" lon="-75.256096">
        <ele>538.5</ele>
        <time>2021-08-21T20:20:20Z</time>
      </trkpt>
      <trkpt lat="2.93192" lon="-75.25617">
        <ele>538.3</ele>
        <time>2021-08-21T20:20:21Z</time>
      </trkpt>
      <trkpt lat="2.931919" lon="-75.25624">
        <ele>538.1</ele>
        <time>2021-08-21T20:20:22Z</time>
      </trkpt>
      <trkpt lat="2.931915" lon="-75.25632">
        <ele>538.0</ele>
        <time>2021-08-21T20:20:23Z</time>
      </trkpt>
      <trkpt lat="2.93191" lon="-75.256386">
        <ele>537.9</ele>
        <time>2021-08-21T20:20:24Z</time>
      </trkpt>
      <trkpt lat="2.931902" lon="-75.256454">
        <ele>537.8</ele>
        <time>2021-08-21T20:20:25Z</time>
      </trkpt>
      <trkpt lat="2.931891" lon="-75.25652">
        <ele>537.7</ele>
        <time>2021-08-21T20:20:26Z</time>
      </trkpt>
      <trkpt lat="2.931879" lon="-75.25659">
        <ele>537.5</ele>
        <time>2021-08-21T20:20:27Z</time>
      </trkpt>
      <trkpt lat="2.931864" lon="-75.25667">
        <ele>537.4</ele>
        <time>2021-08-21T20:20:28Z</time>
      </trkpt>
      <trkpt lat="2.931849" lon="-75.25673">
        <ele>537.3</ele>
        <time>2021-08-21T20:20:29Z</time>
      </trkpt>
      <trkpt lat="2.931833" lon="-75.2568">
        <ele>537.2</ele>
        <time>2021-08-21T20:20:30Z</time>
      </trkpt>
      <trkpt lat="2.931816" lon="-75.25687">
        <ele>537.1</ele>
        <time>2021-08-21T20:20:31Z</time>
      </trkpt>
      <trkpt lat="2.931798" lon="-75.25693">
        <ele>536.9</ele>
        <time>2021-08-21T20:20:32Z</time>
      </trkpt>
      <trkpt lat="2.93178" lon="-75.256996">
        <ele>536.8</ele>
        <time>2021-08-21T20:20:33Z</time>
      </trkpt>
      <trkpt lat="2.931761" lon="-75.257065">
        <ele>536.7</ele>
        <time>2021-08-21T20:20:34Z</time>
      </trkpt>
      <trkpt lat="2.93174" lon="-75.25713">
        <ele>536.6</ele>
        <time>2021-08-21T20:20:35Z</time>
      </trkpt>
      <trkpt lat="2.931718" lon="-75.257195">
        <ele>536.5</ele>
        <time>2021-08-21T20:20:36Z</time>
      </trkpt>
      <trkpt lat="2.931697" lon="-75.25726">
        <ele>536.4</ele>
        <time>2021-08-21T20:20:37Z</time>
      </trkpt>
      <trkpt lat="2.931677" lon="-75.25733">
        <ele>536.3</ele>
        <time>2021-08-21T20:20:38Z</time>
      </trkpt>
      <trkpt lat="2.931657" lon="-75.2574">
        <ele>536.3</ele>
        <time>2021-08-21T20:20:39Z</time>
      </trkpt>
      <trkpt lat="2.93164" lon="-75.25747">
        <ele>536.2</ele>
        <time>2021-08-21T20:20:40Z</time>
      </trkpt>
      <trkpt lat="2.931624" lon="-75.25753">
        <ele>536.2</ele>
        <time>2021-08-21T20:20:41Z</time>
      </trkpt>
      <trkpt lat="2.931607" lon="-75.25759">
        <ele>536.1</ele>
        <time>2021-08-21T20:20:42Z</time>
      </trkpt>
      <trkpt lat="2.931588" lon="-75.25765">
        <ele>536.0</ele>
        <time>2021-08-21T20:20:43Z</time>
      </trkpt>
      <trkpt lat="2.931569" lon="-75.25772">
        <ele>535.9</ele>
        <time>2021-08-21T20:20:44Z</time>
      </trkpt>
      <trkpt lat="2.931552" lon="-75.25779">
        <ele>535.8</ele>
        <time>2021-08-21T20:20:45Z</time>
      </trkpt>
      <trkpt lat="2.931535" lon="-75.25785">
        <ele>535.7</ele>
        <time>2021-08-21T20:20:46Z</time>
      </trkpt>
      <trkpt lat="2.931518" lon="-75.25791">
        <ele>535.6</ele>
        <time>2021-08-21T20:20:47Z</time>
      </trkpt>
      <trkpt lat="2.931499" lon="-75.25798">
        <ele>535.5</ele>
        <time>2021-08-21T20:20:48Z</time>
      </trkpt>
      <trkpt lat="2.93148" lon="-75.25805">
        <ele>535.4</ele>
        <time>2021-08-21T20:20:49Z</time>
      </trkpt>
      <trkpt lat="2.93146" lon="-75.25812">
        <ele>535.2</ele>
        <time>2021-08-21T20:20:50Z</time>
      </trkpt>
      <trkpt lat="2.931442" lon="-75.25818">
        <ele>535.1</ele>
        <time>2021-08-21T20:20:51Z</time>
      </trkpt>
      <trkpt lat="2.931423" lon="-75.25824">
        <ele>535.0</ele>
        <time>2021-08-21T20:20:52Z</time>
      </trkpt>
      <trkpt lat="2.931404" lon="-75.2583">
        <ele>534.9</ele>
        <time>2021-08-21T20:20:53Z</time>
      </trkpt>
      <trkpt lat="2.931384" lon="-75.25837">
        <ele>534.7</ele>
        <time>2021-08-21T20:20:54Z</time>
      </trkpt>
      <trkpt lat="2.931365" lon="-75.25844">
        <ele>534.6</ele>
        <time>2021-08-21T20:20:55Z</time>
      </trkpt>
      <trkpt lat="2.931349" lon="-75.25849">
        <ele>534.5</ele>
        <time>2021-08-21T20:20:56Z</time>
      </trkpt>
      <trkpt lat="2.931333" lon="-75.25855">
        <ele>534.3</ele>
        <time>2021-08-21T20:20:57Z</time>
      </trkpt>
      <trkpt lat="2.931317" lon="-75.25861">
        <ele>534.2</ele>
        <time>2021-08-21T20:20:58Z</time>
      </trkpt>
      <trkpt lat="2.931301" lon="-75.258675">
        <ele>534.1</ele>
        <time>2021-08-21T20:20:59Z</time>
      </trkpt>
      <trkpt lat="2.931285" lon="-75.258736">
        <ele>534.0</ele>
        <time>2021-08-21T20:21:00Z</time>
      </trkpt>
      <trkpt lat="2.931269" lon="-75.2588">
        <ele>533.9</ele>
        <time>2021-08-21T20:21:01Z</time>
      </trkpt>
      <trkpt lat="2.931253" lon="-75.25886">
        <ele>533.8</ele>
        <time>2021-08-21T20:21:02Z</time>
      </trkpt>
      <trkpt lat="2.931237" lon="-75.25892">
        <ele>533.7</ele>
        <time>2021-08-21T20:21:03Z</time>
      </trkpt>
      <trkpt lat="2.931219" lon="-75.25898">
        <ele>533.6</ele>
        <time>2021-08-21T20:21:04Z</time>
      </trkpt>
      <trkpt lat="2.931201" lon="-75.25904">
        <ele>533.4</ele>
        <time>2021-08-21T20:21:05Z</time>
      </trkpt>
      <trkpt lat="2.931184" lon="-75.2591">
        <ele>533.3</ele>
        <time>2021-08-21T20:21:06Z</time>
      </trkpt>
      <trkpt lat="2.931168" lon="-75.25916">
        <ele>533.2</ele>
        <time>2021-08-21T20:21:07Z</time>
      </trkpt>
      <trkpt lat="2.931153" lon="-75.259224">
        <ele>533.1</ele>
        <time>2021-08-21T20:21:08Z</time>
      </trkpt>
      <trkpt lat="2.931138" lon="-75.259285">
        <ele>533.0</ele>
        <time>2021-08-21T20:21:09Z</time>
      </trkpt>
      <trkpt lat="2.931122" lon="-75.259346">
        <ele>532.8</ele>
        <time>2021-08-21T20:21:10Z</time>
      </trkpt>
      <trkpt lat="2.931106" lon="-75.25941">
        <ele>532.7</ele>
        <time>2021-08-21T20:21:11Z</time>
      </trkpt>
      <trkpt lat="2.931088" lon="-75.25947">
        <ele>532.6</ele>
        <time>2021-08-21T20:21:12Z</time>
      </trkpt>
      <trkpt lat="2.931071" lon="-75.25953">
        <ele>532.5</ele>
        <time>2021-08-21T20:21:13Z</time>
      </trkpt>
      <trkpt lat="2.931054" lon="-75.25958">
        <ele>532.4</ele>
        <time>2021-08-21T20:21:14Z</time>
      </trkpt>
      <trkpt lat="2.931039" lon="-75.25964">
        <ele>532.3</ele>
        <time>2021-08-21T20:21:15Z</time>
      </trkpt>
      <trkpt lat="2.931024" lon="-75.259705">
        <ele>532.2</ele>
        <time>2021-08-21T20:21:16Z</time>
      </trkpt>
      <trkpt lat="2.93101" lon="-75.25976">
        <ele>532.1</ele>
        <time>2021-08-21T20:21:17Z</time>
      </trkpt>
      <trkpt lat="2.930994" lon="-75.25982">
        <ele>532.0</ele>
        <time>2021-08-21T20:21:18Z</time>
      </trkpt>
      <trkpt lat="2.930979" lon="-75.25988">
        <ele>531.9</ele>
        <time>2021-08-21T20:21:19Z</time>
      </trkpt>
      <trkpt lat="2.930962" lon="-75.25993">
        <ele>531.7</ele>
        <time>2021-08-21T20:21:20Z</time>
      </trkpt>
      <trkpt lat="2.930945" lon="-75.259995">
        <ele>531.6</ele>
        <time>2021-08-21T20:21:21Z</time>
      </trkpt>
      <trkpt lat="2.930929" lon="-75.260056">
        <ele>531.5</ele>
        <time>2021-08-21T20:21:22Z</time>
      </trkpt>
      <trkpt lat="2.930911" lon="-75.26012">
        <ele>531.4</ele>
        <time>2021-08-21T20:21:23Z</time>
      </trkpt>
      <trkpt lat="2.930893" lon="-75.26018">
        <ele>531.2</ele>
        <time>2021-08-21T20:21:24Z</time>
      </trkpt>
      <trkpt lat="2.930875" lon="-75.26024">
        <ele>531.1</ele>
        <time>2021-08-21T20:21:25Z</time>
      </trkpt>
      <trkpt lat="2.93086" lon="-75.26031">
        <ele>530.9</ele>
        <time>2021-08-21T20:21:26Z</time>
      </trkpt>
      <trkpt lat="2.930845" lon="-75.26037">
        <ele>530.8</ele>
        <time>2021-08-21T20:21:27Z</time>
      </trkpt>
      <trkpt lat="2.930828" lon="-75.26044">
        <ele>530.6</ele>
        <time>2021-08-21T20:21:28Z</time>
      </trkpt>
      <trkpt lat="2.930813" lon="-75.2605">
        <ele>530.5</ele>
        <time>2021-08-21T20:21:29Z</time>
      </trkpt>
      <trkpt lat="2.930797" lon="-75.26056">
        <ele>530.3</ele>
        <time>2021-08-21T20:21:30Z</time>
      </trkpt>
      <trkpt lat="2.93078" lon="-75.26063">
        <ele>530.1</ele>
        <time>2021-08-21T20:21:31Z</time>
      </trkpt>
      <trkpt lat="2.930763" lon="-75.26069">
        <ele>530.0</ele>
        <time>2021-08-21T20:21:32Z</time>
      </trkpt>
      <trkpt lat="2.930747" lon="-75.26076">
        <ele>529.9</ele>
        <time>2021-08-21T20:21:33Z</time>
      </trkpt>
      <trkpt lat="2.930732" lon="-75.26081">
        <ele>529.8</ele>
        <time>2021-08-21T20:21:34Z</time>
      </trkpt>
      <trkpt lat="2.930717" lon="-75.260864">
        <ele>529.7</ele>
        <time>2021-08-21T20:21:35Z</time>
      </trkpt>
      <trkpt lat="2.930701" lon="-75.260925">
        <ele>529.6</ele>
        <time>2021-08-21T20:21:36Z</time>
      </trkpt>
      <trkpt lat="2.93067" lon="-75.26104">
        <ele>529.4</ele>
        <time>2021-08-21T20:21:37Z</time>
      </trkpt>
      <trkpt lat="2.930686" lon="-75.26098">
        <ele>529.5</ele>
        <time>2021-08-21T20:21:37Z</time>
      </trkpt>
      <trkpt lat="2.930656" lon="-75.261086">
        <ele>529.3</ele>
        <time>2021-08-21T20:21:38Z</time>
      </trkpt>
      <trkpt lat="2.930642" lon="-75.26114">
        <ele>529.1</ele>
        <time>2021-08-21T20:21:39Z</time>
      </trkpt>
      <trkpt lat="2.930629" lon="-75.26119">
        <ele>529.0</ele>
        <time>2021-08-21T20:21:40Z</time>
      </trkpt>
      <trkpt lat="2.930614" lon="-75.261246">
        <ele>528.8</ele>
        <time>2021-08-21T20:21:41Z</time>
      </trkpt>
      <trkpt lat="2.9306" lon="-75.26129">
        <ele>528.7</ele>
        <time>2021-08-21T20:21:42Z</time>
      </trkpt>
      <trkpt lat="2.930584" lon="-75.26135">
        <ele>528.5</ele>
        <time>2021-08-21T20:21:43Z</time>
      </trkpt>
      <trkpt lat="2.930568" lon="-75.261406">
        <ele>528.4</ele>
        <time>2021-08-21T20:21:44Z</time>
      </trkpt>
      <trkpt lat="2.930552" lon="-75.26146">
        <ele>528.2</ele>
        <time>2021-08-21T20:21:45Z</time>
      </trkpt>
      <trkpt lat="2.930536" lon="-75.26152">
        <ele>528.0</ele>
        <time>2021-08-21T20:21:46Z</time>
      </trkpt>
      <trkpt lat="2.93052" lon="-75.26158">
        <ele>527.8</ele>
        <time>2021-08-21T20:21:47Z</time>
      </trkpt>
      <trkpt lat="2.930503" lon="-75.26164">
        <ele>527.6</ele>
        <time>2021-08-21T20:21:48Z</time>
      </trkpt>
      <trkpt lat="2.930486" lon="-75.2617">
        <ele>527.4</ele>
        <time>2021-08-21T20:21:49Z</time>
      </trkpt>
      <trkpt lat="2.930471" lon="-75.26176">
        <ele>527.3</ele>
        <time>2021-08-21T20:21:50Z</time>
      </trkpt>
      <trkpt lat="2.930455" lon="-75.26181">
        <ele>527.1</ele>
        <time>2021-08-21T20:21:51Z</time>
      </trkpt>
      <trkpt lat="2.930439" lon="-75.26186">
        <ele>527.0</ele>
        <time>2021-08-21T20:21:52Z</time>
      </trkpt>
      <trkpt lat="2.930423" lon="-75.261925">
        <ele>526.8</ele>
        <time>2021-08-21T20:21:53Z</time>
      </trkpt>
      <trkpt lat="2.930406" lon="-75.26198">
        <ele>526.7</ele>
        <time>2021-08-21T20:21:54Z</time>
      </trkpt>
      <trkpt lat="2.930391" lon="-75.26203">
        <ele>526.5</ele>
        <time>2021-08-21T20:21:55Z</time>
      </trkpt>
      <trkpt lat="2.930376" lon="-75.262085">
        <ele>526.3</ele>
        <time>2021-08-21T20:21:56Z</time>
      </trkpt>
      <trkpt lat="2.930363" lon="-75.262146">
        <ele>526.1</ele>
        <time>2021-08-21T20:21:57Z</time>
      </trkpt>
      <trkpt lat="2.930351" lon="-75.26221">
        <ele>525.8</ele>
        <time>2021-08-21T20:21:58Z</time>
      </trkpt>
      <trkpt lat="2.930339" lon="-75.26227">
        <ele>525.6</ele>
        <time>2021-08-21T20:21:59Z</time>
      </trkpt>
      <trkpt lat="2.93033" lon="-75.26233">
        <ele>525.5</ele>
        <time>2021-08-21T20:22:00Z</time>
      </trkpt>
      <trkpt lat="2.930322" lon="-75.26238">
        <ele>525.3</ele>
        <time>2021-08-21T20:22:01Z</time>
      </trkpt>
      <trkpt lat="2.930316" lon="-75.26244">
        <ele>525.1</ele>
        <time>2021-08-21T20:22:02Z</time>
      </trkpt>
      <trkpt lat="2.930312" lon="-75.26251">
        <ele>524.9</ele>
        <time>2021-08-21T20:22:03Z</time>
      </trkpt>
      <trkpt lat="2.930308" lon="-75.26257">
        <ele>524.7</ele>
        <time>2021-08-21T20:22:04Z</time>
      </trkpt>
      <trkpt lat="2.930305" lon="-75.262634">
        <ele>524.5</ele>
        <time>2021-08-21T20:22:05Z</time>
      </trkpt>
      <trkpt lat="2.930302" lon="-75.262695">
        <ele>524.3</ele>
        <time>2021-08-21T20:22:06Z</time>
      </trkpt>
      <trkpt lat="2.930302" lon="-75.262764">
        <ele>524.1</ele>
        <time>2021-08-21T20:22:07Z</time>
      </trkpt>
      <trkpt lat="2.930303" lon="-75.26283">
        <ele>524.0</ele>
        <time>2021-08-21T20:22:08Z</time>
      </trkpt>
      <trkpt lat="2.930307" lon="-75.26289">
        <ele>523.8</ele>
        <time>2021-08-21T20:22:09Z</time>
      </trkpt>
      <trkpt lat="2.930312" lon="-75.262955">
        <ele>523.7</ele>
        <time>2021-08-21T20:22:10Z</time>
      </trkpt>
      <trkpt lat="2.930319" lon="-75.263016">
        <ele>523.5</ele>
        <time>2021-08-21T20:22:11Z</time>
      </trkpt>
      <trkpt lat="2.930329" lon="-75.263084">
        <ele>523.4</ele>
        <time>2021-08-21T20:22:12Z</time>
      </trkpt>
      <trkpt lat="2.930339" lon="-75.263145">
        <ele>523.2</ele>
        <time>2021-08-21T20:22:13Z</time>
      </trkpt>
      <trkpt lat="2.930349" lon="-75.26321">
        <ele>523.1</ele>
        <time>2021-08-21T20:22:14Z</time>
      </trkpt>
      <trkpt lat="2.930358" lon="-75.26326">
        <ele>522.9</ele>
        <time>2021-08-21T20:22:15Z</time>
      </trkpt>
      <trkpt lat="2.930366" lon="-75.26331">
        <ele>522.8</ele>
        <time>2021-08-21T20:22:16Z</time>
      </trkpt>
      <trkpt lat="2.930375" lon="-75.26336">
        <ele>522.7</ele>
        <time>2021-08-21T20:22:17Z</time>
      </trkpt>
      <trkpt lat="2.930383" lon="-75.2634">
        <ele>522.6</ele>
        <time>2021-08-21T20:22:18Z</time>
      </trkpt>
      <trkpt lat="2.93039" lon="-75.263435">
        <ele>522.5</ele>
        <time>2021-08-21T20:22:19Z</time>
      </trkpt>
      <trkpt lat="2.930395" lon="-75.26346">
        <ele>522.5</ele>
        <time>2021-08-21T20:22:20Z</time>
      </trkpt>
      <trkpt lat="2.9304" lon="-75.26348">
        <ele>522.4</ele>
        <time>2021-08-21T20:22:21Z</time>
      </trkpt>
      <trkpt lat="2.930402" lon="-75.26349">
        <ele>522.4</ele>
        <time>2021-08-21T20:22:22Z</time>
      </trkpt>
      <trkpt lat="2.930404" lon="-75.263504">
        <ele>522.4</ele>
        <time>2021-08-21T20:22:23Z</time>
      </trkpt>
      <trkpt lat="2.930405" lon="-75.26351">
        <ele>522.4</ele>
        <time>2021-08-21T20:22:24Z</time>
      </trkpt>
      <trkpt lat="2.930406" lon="-75.26352">
        <ele>522.3</ele>
        <time>2021-08-21T20:22:25Z</time>
      </trkpt>
      <trkpt lat="2.930409" lon="-75.26354">
        <ele>522.3</ele>
        <time>2021-08-21T20:22:26Z</time>
      </trkpt>
      <trkpt lat="2.930411" lon="-75.26356">
        <ele>522.2</ele>
        <time>2021-08-21T20:22:27Z</time>
      </trkpt>
      <trkpt lat="2.930414" lon="-75.26359">
        <ele>522.2</ele>
        <time>2021-08-21T20:22:28Z</time>
      </trkpt>
      <trkpt lat="2.930418" lon="-75.26362">
        <ele>522.1</ele>
        <time>2021-08-21T20:22:29Z</time>
      </trkpt>
      <trkpt lat="2.930421" lon="-75.26365">
        <ele>522.1</ele>
        <time>2021-08-21T20:22:30Z</time>
      </trkpt>
      <trkpt lat="2.930424" lon="-75.26368">
        <ele>522.0</ele>
        <time>2021-08-21T20:22:31Z</time>
      </trkpt>
      <trkpt lat="2.930428" lon="-75.26372">
        <ele>521.9</ele>
        <time>2021-08-21T20:22:32Z</time>
      </trkpt>
      <trkpt lat="2.930436" lon="-75.263756">
        <ele>521.8</ele>
        <time>2021-08-21T20:22:33Z</time>
      </trkpt>
      <trkpt lat="2.930444" lon="-75.263794">
        <ele>521.7</ele>
        <time>2021-08-21T20:22:34Z</time>
      </trkpt>
      <trkpt lat="2.930452" lon="-75.26384">
        <ele>521.6</ele>
        <time>2021-08-21T20:22:35Z</time>
      </trkpt>
      <trkpt lat="2.930461" lon="-75.263885">
        <ele>521.5</ele>
        <time>2021-08-21T20:22:36Z</time>
      </trkpt>
      <trkpt lat="2.930469" lon="-75.26393">
        <ele>521.4</ele>
        <time>2021-08-21T20:22:37Z</time>
      </trkpt>
      <trkpt lat="2.930476" lon="-75.263985">
        <ele>521.2</ele>
        <time>2021-08-21T20:22:38Z</time>
      </trkpt>
      <trkpt lat="2.930482" lon="-75.26404">
        <ele>521.1</ele>
        <time>2021-08-21T20:22:39Z</time>
      </trkpt>
      <trkpt lat="2.930489" lon="-75.26409">
        <ele>521.0</ele>
        <time>2021-08-21T20:22:40Z</time>
      </trkpt>
      <trkpt lat="2.930495" lon="-75.26415">
        <ele>520.9</ele>
        <time>2021-08-21T20:22:41Z</time>
      </trkpt>
      <trkpt lat="2.930501" lon="-75.26421">
        <ele>520.8</ele>
        <time>2021-08-21T20:22:42Z</time>
      </trkpt>
      <trkpt lat="2.930506" lon="-75.26427">
        <ele>520.7</ele>
        <time>2021-08-21T20:22:43Z</time>
      </trkpt>
      <trkpt lat="2.930511" lon="-75.26433">
        <ele>520.7</ele>
        <time>2021-08-21T20:22:44Z</time>
      </trkpt>
      <trkpt lat="2.930516" lon="-75.26438">
        <ele>520.6</ele>
        <time>2021-08-21T20:22:45Z</time>
      </trkpt>
      <trkpt lat="2.930523" lon="-75.264435">
        <ele>520.5</ele>
        <time>2021-08-21T20:22:46Z</time>
      </trkpt>
      <trkpt lat="2.93053" lon="-75.264496">
        <ele>520.4</ele>
        <time>2021-08-21T20:22:47Z</time>
      </trkpt>
      <trkpt lat="2.930537" lon="-75.26455">
        <ele>520.4</ele>
        <time>2021-08-21T20:22:48Z</time>
      </trkpt>
      <trkpt lat="2.930544" lon="-75.26461">
        <ele>520.3</ele>
        <time>2021-08-21T20:22:49Z</time>
      </trkpt>
      <trkpt lat="2.930552" lon="-75.26466">
        <ele>520.2</ele>
        <time>2021-08-21T20:22:50Z</time>
      </trkpt>
      <trkpt lat="2.930559" lon="-75.264725">
        <ele>520.1</ele>
        <time>2021-08-21T20:22:51Z</time>
      </trkpt>
      <trkpt lat="2.930566" lon="-75.26478">
        <ele>520.0</ele>
        <time>2021-08-21T20:22:52Z</time>
      </trkpt>
      <trkpt lat="2.930573" lon="-75.26483">
        <ele>519.9</ele>
        <time>2021-08-21T20:22:53Z</time>
      </trkpt>
      <trkpt lat="2.930579" lon="-75.26489">
        <ele>519.8</ele>
        <time>2021-08-21T20:22:54Z</time>
      </trkpt>
      <trkpt lat="2.930586" lon="-75.26495">
        <ele>519.7</ele>
        <time>2021-08-21T20:22:55Z</time>
      </trkpt>
      <trkpt lat="2.930593" lon="-75.26501">
        <ele>519.5</ele>
        <time>2021-08-21T20:22:56Z</time>
      </trkpt>
      <trkpt lat="2.9306" lon="-75.26507">
        <ele>519.4</ele>
        <time>2021-08-21T20:22:57Z</time>
      </trkpt>
      <trkpt lat="2.930608" lon="-75.26513">
        <ele>519.2</ele>
        <time>2021-08-21T20:22:58Z</time>
      </trkpt>
      <trkpt lat="2.930617" lon="-75.26518">
        <ele>519.0</ele>
        <time>2021-08-21T20:22:59Z</time>
      </trkpt>
      <trkpt lat="2.930626" lon="-75.26524">
        <ele>518.9</ele>
        <time>2021-08-21T20:23:00Z</time>
      </trkpt>
      <trkpt lat="2.930636" lon="-75.265305">
        <ele>518.7</ele>
        <time>2021-08-21T20:23:01Z</time>
      </trkpt>
      <trkpt lat="2.930645" lon="-75.265366">
        <ele>518.5</ele>
        <time>2021-08-21T20:23:02Z</time>
      </trkpt>
      <trkpt lat="2.930654" lon="-75.265434">
        <ele>518.4</ele>
        <time>2021-08-21T20:23:03Z</time>
      </trkpt>
      <trkpt lat="2.930663" lon="-75.265495">
        <ele>518.3</ele>
        <time>2021-08-21T20:23:04Z</time>
      </trkpt>
      <trkpt lat="2.930672" lon="-75.26556">
        <ele>518.1</ele>
        <time>2021-08-21T20:23:05Z</time>
      </trkpt>
      <trkpt lat="2.930681" lon="-75.265625">
        <ele>518.0</ele>
        <time>2021-08-21T20:23:06Z</time>
      </trkpt>
      <trkpt lat="2.930689" lon="-75.265686">
        <ele>517.9</ele>
        <time>2021-08-21T20:23:07Z</time>
      </trkpt>
      <trkpt lat="2.930697" lon="-75.26575">
        <ele>517.9</ele>
        <time>2021-08-21T20:23:08Z</time>
      </trkpt>
      <trkpt lat="2.930706" lon="-75.265816">
        <ele>517.8</ele>
        <time>2021-08-21T20:23:09Z</time>
      </trkpt>
      <trkpt lat="2.930714" lon="-75.26588">
        <ele>517.7</ele>
        <time>2021-08-21T20:23:10Z</time>
      </trkpt>
      <trkpt lat="2.930723" lon="-75.26593">
        <ele>517.7</ele>
        <time>2021-08-21T20:23:11Z</time>
      </trkpt>
      <trkpt lat="2.930731" lon="-75.26599">
        <ele>517.6</ele>
        <time>2021-08-21T20:23:12Z</time>
      </trkpt>
      <trkpt lat="2.930738" lon="-75.26605">
        <ele>517.6</ele>
        <time>2021-08-21T20:23:13Z</time>
      </trkpt>
      <trkpt lat="2.930746" lon="-75.26611">
        <ele>517.5</ele>
        <time>2021-08-21T20:23:14Z</time>
      </trkpt>
      <trkpt lat="2.930754" lon="-75.26617">
        <ele>517.4</ele>
        <time>2021-08-21T20:23:15Z</time>
      </trkpt>
      <trkpt lat="2.930763" lon="-75.26623">
        <ele>517.4</ele>
        <time>2021-08-21T20:23:16Z</time>
      </trkpt>
      <trkpt lat="2.930772" lon="-75.26629">
        <ele>517.3</ele>
        <time>2021-08-21T20:23:17Z</time>
      </trkpt>
      <trkpt lat="2.930779" lon="-75.26634">
        <ele>517.2</ele>
        <time>2021-08-21T20:23:18Z</time>
      </trkpt>
      <trkpt lat="2.930787" lon="-75.2664">
        <ele>517.1</ele>
        <time>2021-08-21T20:23:19Z</time>
      </trkpt>
      <trkpt lat="2.930795" lon="-75.26646">
        <ele>517.0</ele>
        <time>2021-08-21T20:23:20Z</time>
      </trkpt>
      <trkpt lat="2.930802" lon="-75.26652">
        <ele>516.9</ele>
        <time>2021-08-21T20:23:21Z</time>
      </trkpt>
      <trkpt lat="2.930809" lon="-75.26658">
        <ele>516.8</ele>
        <time>2021-08-21T20:23:22Z</time>
      </trkpt>
      <trkpt lat="2.930815" lon="-75.26664">
        <ele>516.7</ele>
        <time>2021-08-21T20:23:23Z</time>
      </trkpt>
      <trkpt lat="2.930821" lon="-75.2667">
        <ele>516.6</ele>
        <time>2021-08-21T20:23:24Z</time>
      </trkpt>
      <trkpt lat="2.930829" lon="-75.26676">
        <ele>516.5</ele>
        <time>2021-08-21T20:23:25Z</time>
      </trkpt>
      <trkpt lat="2.930837" lon="-75.26682">
        <ele>516.4</ele>
        <time>2021-08-21T20:23:26Z</time>
      </trkpt>
      <trkpt lat="2.930846" lon="-75.26689">
        <ele>516.3</ele>
        <time>2021-08-21T20:23:27Z</time>
      </trkpt>
      <trkpt lat="2.930854" lon="-75.26695">
        <ele>516.2</ele>
        <time>2021-08-21T20:23:28Z</time>
      </trkpt>
      <trkpt lat="2.930862" lon="-75.26701">
        <ele>516.1</ele>
        <time>2021-08-21T20:23:29Z</time>
      </trkpt>
      <trkpt lat="2.93087" lon="-75.267075">
        <ele>516.0</ele>
        <time>2021-08-21T20:23:30Z</time>
      </trkpt>
      <trkpt lat="2.930878" lon="-75.267136">
        <ele>515.8</ele>
        <time>2021-08-21T20:23:31Z</time>
      </trkpt>
      <trkpt lat="2.930885" lon="-75.267204">
        <ele>515.7</ele>
        <time>2021-08-21T20:23:32Z</time>
      </trkpt>
      <trkpt lat="2.930892" lon="-75.267265">
        <ele>515.6</ele>
        <time>2021-08-21T20:23:33Z</time>
      </trkpt>
      <trkpt lat="2.9309" lon="-75.26733">
        <ele>515.4</ele>
        <time>2021-08-21T20:23:34Z</time>
      </trkpt>
      <trkpt lat="2.930907" lon="-75.26739">
        <ele>515.3</ele>
        <time>2021-08-21T20:23:35Z</time>
      </trkpt>
      <trkpt lat="2.930917" lon="-75.26745">
        <ele>515.2</ele>
        <time>2021-08-21T20:23:36Z</time>
      </trkpt>
      <trkpt lat="2.930925" lon="-75.26752">
        <ele>515.0</ele>
        <time>2021-08-21T20:23:37Z</time>
      </trkpt>
      <trkpt lat="2.930933" lon="-75.26757">
        <ele>514.9</ele>
        <time>2021-08-21T20:23:38Z</time>
      </trkpt>
      <trkpt lat="2.93094" lon="-75.26764">
        <ele>514.8</ele>
        <time>2021-08-21T20:23:39Z</time>
      </trkpt>
      <trkpt lat="2.930948" lon="-75.2677">
        <ele>514.7</ele>
        <time>2021-08-21T20:23:40Z</time>
      </trkpt>
      <trkpt lat="2.930956" lon="-75.26776">
        <ele>514.6</ele>
        <time>2021-08-21T20:23:41Z</time>
      </trkpt>
      <trkpt lat="2.930964" lon="-75.26782">
        <ele>514.4</ele>
        <time>2021-08-21T20:23:42Z</time>
      </trkpt>
      <trkpt lat="2.930973" lon="-75.26788">
        <ele>514.3</ele>
        <time>2021-08-21T20:23:43Z</time>
      </trkpt>
      <trkpt lat="2.930982" lon="-75.26795">
        <ele>514.2</ele>
        <time>2021-08-21T20:23:44Z</time>
      </trkpt>
      <trkpt lat="2.930991" lon="-75.26801">
        <ele>514.1</ele>
        <time>2021-08-21T20:23:45Z</time>
      </trkpt>
      <trkpt lat="2.930999" lon="-75.26808">
        <ele>514.0</ele>
        <time>2021-08-21T20:23:46Z</time>
      </trkpt>
      <trkpt lat="2.931008" lon="-75.26814">
        <ele>513.9</ele>
        <time>2021-08-21T20:23:47Z</time>
      </trkpt>
      <trkpt lat="2.931016" lon="-75.26821">
        <ele>513.8</ele>
        <time>2021-08-21T20:23:48Z</time>
      </trkpt>
      <trkpt lat="2.931025" lon="-75.26827">
        <ele>513.7</ele>
        <time>2021-08-21T20:23:49Z</time>
      </trkpt>
      <trkpt lat="2.931034" lon="-75.26833">
        <ele>513.6</ele>
        <time>2021-08-21T20:23:50Z</time>
      </trkpt>
      <trkpt lat="2.931043" lon="-75.26839">
        <ele>513.6</ele>
        <time>2021-08-21T20:23:51Z</time>
      </trkpt>
      <trkpt lat="2.931051" lon="-75.26845">
        <ele>513.5</ele>
        <time>2021-08-21T20:23:52Z</time>
      </trkpt>
      <trkpt lat="2.931057" lon="-75.26851">
        <ele>513.4</ele>
        <time>2021-08-21T20:23:53Z</time>
      </trkpt>
      <trkpt lat="2.931063" lon="-75.26856">
        <ele>513.4</ele>
        <time>2021-08-21T20:23:54Z</time>
      </trkpt>
      <trkpt lat="2.931069" lon="-75.26862">
        <ele>513.3</ele>
        <time>2021-08-21T20:23:55Z</time>
      </trkpt>
      <trkpt lat="2.931075" lon="-75.268684">
        <ele>513.2</ele>
        <time>2021-08-21T20:23:56Z</time>
      </trkpt>
      <trkpt lat="2.931083" lon="-75.26874">
        <ele>513.1</ele>
        <time>2021-08-21T20:23:57Z</time>
      </trkpt>
      <trkpt lat="2.931091" lon="-75.2688">
        <ele>513.0</ele>
        <time>2021-08-21T20:23:58Z</time>
      </trkpt>
      <trkpt lat="2.931098" lon="-75.26885">
        <ele>512.9</ele>
        <time>2021-08-21T20:23:59Z</time>
      </trkpt>
      <trkpt lat="2.931104" lon="-75.268906">
        <ele>512.7</ele>
        <time>2021-08-21T20:24:00Z</time>
      </trkpt>
      <trkpt lat="2.931109" lon="-75.26896">
        <ele>512.6</ele>
        <time>2021-08-21T20:24:01Z</time>
      </trkpt>
      <trkpt lat="2.931116" lon="-75.26901">
        <ele>512.5</ele>
        <time>2021-08-21T20:24:02Z</time>
      </trkpt>
      <trkpt lat="2.931124" lon="-75.269066">
        <ele>512.4</ele>
        <time>2021-08-21T20:24:03Z</time>
      </trkpt>
      <trkpt lat="2.931132" lon="-75.26913">
        <ele>512.2</ele>
        <time>2021-08-21T20:24:04Z</time>
      </trkpt>
      <trkpt lat="2.931141" lon="-75.26918">
        <ele>512.0</ele>
        <time>2021-08-21T20:24:05Z</time>
      </trkpt>
      <trkpt lat="2.93115" lon="-75.26924">
        <ele>511.9</ele>
        <time>2021-08-21T20:24:06Z</time>
      </trkpt>
      <trkpt lat="2.93116" lon="-75.2693">
        <ele>511.7</ele>
        <time>2021-08-21T20:24:07Z</time>
      </trkpt>
      <trkpt lat="2.931171" lon="-75.26936">
        <ele>511.5</ele>
        <time>2021-08-21T20:24:08Z</time>
      </trkpt>
      <trkpt lat="2.931182" lon="-75.269424">
        <ele>511.3</ele>
        <time>2021-08-21T20:24:09Z</time>
      </trkpt>
      <trkpt lat="2.931193" lon="-75.269485">
        <ele>511.2</ele>
        <time>2021-08-21T20:24:10Z</time>
      </trkpt>
      <trkpt lat="2.931203" lon="-75.26955">
        <ele>511.0</ele>
        <time>2021-08-21T20:24:11Z</time>
      </trkpt>
      <trkpt lat="2.931214" lon="-75.26961">
        <ele>510.9</ele>
        <time>2021-08-21T20:24:12Z</time>
      </trkpt>
      <trkpt lat="2.931224" lon="-75.26968">
        <ele>510.7</ele>
        <time>2021-08-21T20:24:13Z</time>
      </trkpt>
      <trkpt lat="2.931234" lon="-75.26974">
        <ele>510.6</ele>
        <time>2021-08-21T20:24:14Z</time>
      </trkpt>
      <trkpt lat="2.931244" lon="-75.2698">
        <ele>510.5</ele>
        <time>2021-08-21T20:24:15Z</time>
      </trkpt>
      <trkpt lat="2.931253" lon="-75.26987">
        <ele>510.3</ele>
        <time>2021-08-21T20:24:16Z</time>
      </trkpt>
      <trkpt lat="2.931262" lon="-75.26993">
        <ele>510.3</ele>
        <time>2021-08-21T20:24:17Z</time>
      </trkpt>
      <trkpt lat="2.93127" lon="-75.26998">
        <ele>510.2</ele>
        <time>2021-08-21T20:24:18Z</time>
      </trkpt>
      <trkpt lat="2.931279" lon="-75.27004">
        <ele>510.2</ele>
        <time>2021-08-21T20:24:19Z</time>
      </trkpt>
      <trkpt lat="2.931289" lon="-75.2701">
        <ele>510.1</ele>
        <time>2021-08-21T20:24:20Z</time>
      </trkpt>
      <trkpt lat="2.9313" lon="-75.27016">
        <ele>510.1</ele>
        <time>2021-08-21T20:24:21Z</time>
      </trkpt>
      <trkpt lat="2.93131" lon="-75.2702">
        <ele>510.1</ele>
        <time>2021-08-21T20:24:22Z</time>
      </trkpt>
      <trkpt lat="2.931323" lon="-75.27025">
        <ele>510.0</ele>
        <time>2021-08-21T20:24:23Z</time>
      </trkpt>
      <trkpt lat="2.931335" lon="-75.27029">
        <ele>510.0</ele>
        <time>2021-08-21T20:24:24Z</time>
      </trkpt>
      <trkpt lat="2.931348" lon="-75.270325">
        <ele>510.0</ele>
        <time>2021-08-21T20:24:25Z</time>
      </trkpt>
      <trkpt lat="2.931359" lon="-75.270355">
        <ele>510.0</ele>
        <time>2021-08-21T20:24:26Z</time>
      </trkpt>
      <trkpt lat="2.931368" lon="-75.27038">
        <ele>509.9</ele>
        <time>2021-08-21T20:24:27Z</time>
      </trkpt>
      <trkpt lat="2.931377" lon="-75.27041">
        <ele>509.9</ele>
        <time>2021-08-21T20:24:28Z</time>
      </trkpt>
      <trkpt lat="2.931386" lon="-75.27043">
        <ele>509.9</ele>
        <time>2021-08-21T20:24:29Z</time>
      </trkpt>
      <trkpt lat="2.931395" lon="-75.270454">
        <ele>509.9</ele>
        <time>2021-08-21T20:24:30Z</time>
      </trkpt>
      <trkpt lat="2.931406" lon="-75.27048">
        <ele>509.9</ele>
        <time>2021-08-21T20:24:31Z</time>
      </trkpt>
      <trkpt lat="2.931418" lon="-75.27051">
        <ele>509.8</ele>
        <time>2021-08-21T20:24:32Z</time>
      </trkpt>
      <trkpt lat="2.93143" lon="-75.270546">
        <ele>509.8</ele>
        <time>2021-08-21T20:24:33Z</time>
      </trkpt>
      <trkpt lat="2.931443" lon="-75.27058">
        <ele>509.7</ele>
        <time>2021-08-21T20:24:34Z</time>
      </trkpt>
      <trkpt lat="2.931456" lon="-75.270615">
        <ele>509.7</ele>
        <time>2021-08-21T20:24:35Z</time>
      </trkpt>
      <trkpt lat="2.931469" lon="-75.27066">
        <ele>509.6</ele>
        <time>2021-08-21T20:24:36Z</time>
      </trkpt>
      <trkpt lat="2.931483" lon="-75.2707">
        <ele>509.6</ele>
        <time>2021-08-21T20:24:37Z</time>
      </trkpt>
      <trkpt lat="2.931499" lon="-75.270744">
        <ele>509.5</ele>
        <time>2021-08-21T20:24:38Z</time>
      </trkpt>
      <trkpt lat="2.931517" lon="-75.27079">
        <ele>509.5</ele>
        <time>2021-08-21T20:24:39Z</time>
      </trkpt>
      <trkpt lat="2.931536" lon="-75.270836">
        <ele>509.5</ele>
        <time>2021-08-21T20:24:40Z</time>
      </trkpt>
      <trkpt lat="2.931555" lon="-75.27088">
        <ele>509.4</ele>
        <time>2021-08-21T20:24:41Z</time>
      </trkpt>
      <trkpt lat="2.931574" lon="-75.27093">
        <ele>509.4</ele>
        <time>2021-08-21T20:24:42Z</time>
      </trkpt>
      <trkpt lat="2.931594" lon="-75.27097">
        <ele>509.3</ele>
        <time>2021-08-21T20:24:43Z</time>
      </trkpt>
      <trkpt lat="2.931616" lon="-75.27103">
        <ele>509.3</ele>
        <time>2021-08-21T20:24:44Z</time>
      </trkpt>
      <trkpt lat="2.931637" lon="-75.27107">
        <ele>509.2</ele>
        <time>2021-08-21T20:24:45Z</time>
      </trkpt>
      <trkpt lat="2.931658" lon="-75.271126">
        <ele>509.2</ele>
        <time>2021-08-21T20:24:46Z</time>
      </trkpt>
      <trkpt lat="2.931679" lon="-75.27118">
        <ele>509.2</ele>
        <time>2021-08-21T20:24:47Z</time>
      </trkpt>
      <trkpt lat="2.9317" lon="-75.27123">
        <ele>509.1</ele>
        <time>2021-08-21T20:24:48Z</time>
      </trkpt>
      <trkpt lat="2.931721" lon="-75.271286">
        <ele>509.1</ele>
        <time>2021-08-21T20:24:49Z</time>
      </trkpt>
      <trkpt lat="2.931742" lon="-75.27134">
        <ele>509.1</ele>
        <time>2021-08-21T20:24:50Z</time>
      </trkpt>
      <trkpt lat="2.931764" lon="-75.27139">
        <ele>509.0</ele>
        <time>2021-08-21T20:24:51Z</time>
      </trkpt>
      <trkpt lat="2.931784" lon="-75.27145">
        <ele>509.0</ele>
        <time>2021-08-21T20:24:52Z</time>
      </trkpt>
      <trkpt lat="2.931803" lon="-75.2715">
        <ele>508.9</ele>
        <time>2021-08-21T20:24:53Z</time>
      </trkpt>
      <trkpt lat="2.93182" lon="-75.271545">
        <ele>508.9</ele>
        <time>2021-08-21T20:24:54Z</time>
      </trkpt>
      <trkpt lat="2.93184" lon="-75.2716">
        <ele>508.8</ele>
        <time>2021-08-21T20:24:55Z</time>
      </trkpt>
      <trkpt lat="2.931862" lon="-75.27165">
        <ele>508.7</ele>
        <time>2021-08-21T20:24:56Z</time>
      </trkpt>
      <trkpt lat="2.931886" lon="-75.271706">
        <ele>508.6</ele>
        <time>2021-08-21T20:24:57Z</time>
      </trkpt>
      <trkpt lat="2.931909" lon="-75.27176">
        <ele>508.3</ele>
        <time>2021-08-21T20:24:58Z</time>
      </trkpt>
      <trkpt lat="2.931931" lon="-75.27181">
        <ele>508.1</ele>
        <time>2021-08-21T20:24:59Z</time>
      </trkpt>
      <trkpt lat="2.931955" lon="-75.27187">
        <ele>507.9</ele>
        <time>2021-08-21T20:25:00Z</time>
      </trkpt>
      <trkpt lat="2.93198" lon="-75.27193">
        <ele>507.6</ele>
        <time>2021-08-21T20:25:01Z</time>
      </trkpt>
      <trkpt lat="2.932006" lon="-75.27199">
        <ele>507.3</ele>
        <time>2021-08-21T20:25:02Z</time>
      </trkpt>
      <trkpt lat="2.932032" lon="-75.27205">
        <ele>507.0</ele>
        <time>2021-08-21T20:25:03Z</time>
      </trkpt>
      <trkpt lat="2.932059" lon="-75.27211">
        <ele>506.7</ele>
        <time>2021-08-21T20:25:04Z</time>
      </trkpt>
      <trkpt lat="2.932087" lon="-75.27217">
        <ele>506.3</ele>
        <time>2021-08-21T20:25:05Z</time>
      </trkpt>
      <trkpt lat="2.932116" lon="-75.27224">
        <ele>505.9</ele>
        <time>2021-08-21T20:25:06Z</time>
      </trkpt>
      <trkpt lat="2.932147" lon="-75.27231">
        <ele>505.5</ele>
        <time>2021-08-21T20:25:07Z</time>
      </trkpt>
      <trkpt lat="2.932178" lon="-75.272385">
        <ele>505.0</ele>
        <time>2021-08-21T20:25:08Z</time>
      </trkpt>
      <trkpt lat="2.93221" lon="-75.27245">
        <ele>504.6</ele>
        <time>2021-08-21T20:25:09Z</time>
      </trkpt>
      <trkpt lat="2.932242" lon="-75.27253">
        <ele>504.0</ele>
        <time>2021-08-21T20:25:10Z</time>
      </trkpt>
      <trkpt lat="2.932276" lon="-75.27261">
        <ele>503.4</ele>
        <time>2021-08-21T20:25:11Z</time>
      </trkpt>
      <trkpt lat="2.932309" lon="-75.2727">
        <ele>502.8</ele>
        <time>2021-08-21T20:25:12Z</time>
      </trkpt>
      <trkpt lat="2.932342" lon="-75.27278">
        <ele>502.2</ele>
        <time>2021-08-21T20:25:13Z</time>
      </trkpt>
      <trkpt lat="2.932372" lon="-75.272865">
        <ele>501.7</ele>
        <time>2021-08-21T20:25:14Z</time>
      </trkpt>
      <trkpt lat="2.9324" lon="-75.27296">
        <ele>501.3</ele>
        <time>2021-08-21T20:25:15Z</time>
      </trkpt>
      <trkpt lat="2.932423" lon="-75.27305">
        <ele>500.9</ele>
        <time>2021-08-21T20:25:16Z</time>
      </trkpt>
      <trkpt lat="2.932442" lon="-75.27314">
        <ele>500.5</ele>
        <time>2021-08-21T20:25:17Z</time>
      </trkpt>
      <trkpt lat="2.932457" lon="-75.27323">
        <ele>499.9</ele>
        <time>2021-08-21T20:25:18Z</time>
      </trkpt>
      <trkpt lat="2.932467" lon="-75.27332">
        <ele>499.1</ele>
        <time>2021-08-21T20:25:19Z</time>
      </trkpt>
      <trkpt lat="2.932475" lon="-75.273415">
        <ele>498.2</ele>
        <time>2021-08-21T20:25:20Z</time>
      </trkpt>
      <trkpt lat="2.93248" lon="-75.273506">
        <ele>497.3</ele>
        <time>2021-08-21T20:25:21Z</time>
      </trkpt>
      <trkpt lat="2.932483" lon="-75.2736">
        <ele>496.4</ele>
        <time>2021-08-21T20:25:22Z</time>
      </trkpt>
      <trkpt lat="2.932485" lon="-75.273705">
        <ele>495.4</ele>
        <time>2021-08-21T20:25:23Z</time>
      </trkpt>
      <trkpt lat="2.932485" lon="-75.2738">
        <ele>494.5</ele>
        <time>2021-08-21T20:25:24Z</time>
      </trkpt>
      <trkpt lat="2.932484" lon="-75.273895">
        <ele>493.6</ele>
        <time>2021-08-21T20:25:25Z</time>
      </trkpt>
      <trkpt lat="2.932482" lon="-75.27399">
        <ele>492.8</ele>
        <time>2021-08-21T20:25:26Z</time>
      </trkpt>
      <trkpt lat="2.932479" lon="-75.27408">
        <ele>491.9</ele>
        <time>2021-08-21T20:25:27Z</time>
      </trkpt>
      <trkpt lat="2.932475" lon="-75.27418">
        <ele>490.9</ele>
        <time>2021-08-21T20:25:28Z</time>
      </trkpt>
      <trkpt lat="2.93247" lon="-75.27427">
        <ele>490.0</ele>
        <time>2021-08-21T20:25:29Z</time>
      </trkpt>
      <trkpt lat="2.932464" lon="-75.27436">
        <ele>489.1</ele>
        <time>2021-08-21T20:25:30Z</time>
      </trkpt>
      <trkpt lat="2.932458" lon="-75.274445">
        <ele>488.3</ele>
        <time>2021-08-21T20:25:31Z</time>
      </trkpt>
      <trkpt lat="2.932449" lon="-75.27453">
        <ele>487.5</ele>
        <time>2021-08-21T20:25:32Z</time>
      </trkpt>
      <trkpt lat="2.932439" lon="-75.274605">
        <ele>486.7</ele>
        <time>2021-08-21T20:25:33Z</time>
      </trkpt>
      <trkpt lat="2.932427" lon="-75.27468">
        <ele>485.9</ele>
        <time>2021-08-21T20:25:34Z</time>
      </trkpt>
      <trkpt lat="2.932411" lon="-75.27476">
        <ele>485.1</ele>
        <time>2021-08-21T20:25:35Z</time>
      </trkpt>
      <trkpt lat="2.932395" lon="-75.27482">
        <ele>484.4</ele>
        <time>2021-08-21T20:25:36Z</time>
      </trkpt>
      <trkpt lat="2.932377" lon="-75.27488">
        <ele>483.7</ele>
        <time>2021-08-21T20:25:37Z</time>
      </trkpt>
      <trkpt lat="2.932359" lon="-75.27494">
        <ele>483.1</ele>
        <time>2021-08-21T20:25:38Z</time>
      </trkpt>
      <trkpt lat="2.932339" lon="-75.275">
        <ele>482.4</ele>
        <time>2021-08-21T20:25:39Z</time>
      </trkpt>
      <trkpt lat="2.93232" lon="-75.27505">
        <ele>481.9</ele>
        <time>2021-08-21T20:25:40Z</time>
      </trkpt>
      <trkpt lat="2.932302" lon="-75.27509">
        <ele>481.3</ele>
        <time>2021-08-21T20:25:41Z</time>
      </trkpt>
      <trkpt lat="2.932286" lon="-75.27514">
        <ele>480.8</ele>
        <time>2021-08-21T20:25:42Z</time>
      </trkpt>
      <trkpt lat="2.932271" lon="-75.275185">
        <ele>480.4</ele>
        <time>2021-08-21T20:25:43Z</time>
      </trkpt>
      <trkpt lat="2.932256" lon="-75.27523">
        <ele>479.9</ele>
        <time>2021-08-21T20:25:44Z</time>
      </trkpt>
      <trkpt lat="2.932242" lon="-75.275276">
        <ele>479.4</ele>
        <time>2021-08-21T20:25:45Z</time>
      </trkpt>
      <trkpt lat="2.932227" lon="-75.27533">
        <ele>478.9</ele>
        <time>2021-08-21T20:25:46Z</time>
      </trkpt>
      <trkpt lat="2.932211" lon="-75.275375">
        <ele>478.3</ele>
        <time>2021-08-21T20:25:47Z</time>
      </trkpt>
      <trkpt lat="2.932194" lon="-75.27544">
        <ele>477.7</ele>
        <time>2021-08-21T20:25:48Z</time>
      </trkpt>
      <trkpt lat="2.932173" lon="-75.27549">
        <ele>477.1</ele>
        <time>2021-08-21T20:25:49Z</time>
      </trkpt>
      <trkpt lat="2.93215" lon="-75.27555">
        <ele>476.5</ele>
        <time>2021-08-21T20:25:50Z</time>
      </trkpt>
      <trkpt lat="2.932125" lon="-75.27562">
        <ele>476.0</ele>
        <time>2021-08-21T20:25:51Z</time>
      </trkpt>
      <trkpt lat="2.932078" lon="-75.27575">
        <ele>475.0</ele>
        <time>2021-08-21T20:25:52Z</time>
      </trkpt>
      <trkpt lat="2.932102" lon="-75.27569">
        <ele>475.5</ele>
        <time>2021-08-21T20:25:52Z</time>
      </trkpt>
      <trkpt lat="2.932053" lon="-75.27582">
        <ele>474.5</ele>
        <time>2021-08-21T20:25:53Z</time>
      </trkpt>
      <trkpt lat="2.932026" lon="-75.27589">
        <ele>474.0</ele>
        <time>2021-08-21T20:25:54Z</time>
      </trkpt>
      <trkpt lat="2.931998" lon="-75.27595">
        <ele>473.6</ele>
        <time>2021-08-21T20:25:55Z</time>
      </trkpt>
      <trkpt lat="2.931969" lon="-75.27602">
        <ele>473.2</ele>
        <time>2021-08-21T20:25:56Z</time>
      </trkpt>
      <trkpt lat="2.93194" lon="-75.27608">
        <ele>472.8</ele>
        <time>2021-08-21T20:25:57Z</time>
      </trkpt>
      <trkpt lat="2.93191" lon="-75.27614">
        <ele>472.4</ele>
        <time>2021-08-21T20:25:58Z</time>
      </trkpt>
      <trkpt lat="2.931882" lon="-75.2762">
        <ele>472.1</ele>
        <time>2021-08-21T20:25:59Z</time>
      </trkpt>
      <trkpt lat="2.931853" lon="-75.27627">
        <ele>471.8</ele>
        <time>2021-08-21T20:26:00Z</time>
      </trkpt>
      <trkpt lat="2.931826" lon="-75.27633">
        <ele>471.5</ele>
        <time>2021-08-21T20:26:01Z</time>
      </trkpt>
      <trkpt lat="2.931801" lon="-75.27638">
        <ele>471.3</ele>
        <time>2021-08-21T20:26:02Z</time>
      </trkpt>
      <trkpt lat="2.931777" lon="-75.27644">
        <ele>471.1</ele>
        <time>2021-08-21T20:26:03Z</time>
      </trkpt>
      <trkpt lat="2.931753" lon="-75.2765">
        <ele>471.0</ele>
        <time>2021-08-21T20:26:04Z</time>
      </trkpt>
      <trkpt lat="2.931731" lon="-75.27655">
        <ele>470.9</ele>
        <time>2021-08-21T20:26:05Z</time>
      </trkpt>
      <trkpt lat="2.931709" lon="-75.2766">
        <ele>470.7</ele>
        <time>2021-08-21T20:26:06Z</time>
      </trkpt>
      <trkpt lat="2.931687" lon="-75.27666">
        <ele>470.6</ele>
        <time>2021-08-21T20:26:07Z</time>
      </trkpt>
      <trkpt lat="2.931667" lon="-75.27671">
        <ele>470.4</ele>
        <time>2021-08-21T20:26:08Z</time>
      </trkpt>
      <trkpt lat="2.931652" lon="-75.276764">
        <ele>470.2</ele>
        <time>2021-08-21T20:26:09Z</time>
      </trkpt>
      <trkpt lat="2.931647" lon="-75.27682">
        <ele>470.1</ele>
        <time>2021-08-21T20:26:10Z</time>
      </trkpt>
      <trkpt lat="2.931652" lon="-75.276855">
        <ele>469.9</ele>
        <time>2021-08-21T20:26:11Z</time>
      </trkpt>
      <trkpt lat="2.931666" lon="-75.27689">
        <ele>469.8</ele>
        <time>2021-08-21T20:26:12Z</time>
      </trkpt>
      <trkpt lat="2.931689" lon="-75.27693">
        <ele>469.0</ele>
        <time>2021-08-21T20:26:13Z</time>
      </trkpt>
      <trkpt lat="2.93172" lon="-75.276955">
        <ele>468.8</ele>
        <time>2021-08-21T20:26:14Z</time>
      </trkpt>
      <trkpt lat="2.931755" lon="-75.27698">
        <ele>468.7</ele>
        <time>2021-08-21T20:26:15Z</time>
      </trkpt>
      <trkpt lat="2.931793" lon="-75.277">
        <ele>468.6</ele>
        <time>2021-08-21T20:26:16Z</time>
      </trkpt>
      <trkpt lat="2.931833" lon="-75.27702">
        <ele>468.4</ele>
        <time>2021-08-21T20:26:17Z</time>
      </trkpt>
      <trkpt lat="2.931871" lon="-75.27704">
        <ele>468.2</ele>
        <time>2021-08-21T20:26:18Z</time>
      </trkpt>
      <trkpt lat="2.931908" lon="-75.27706">
        <ele>468.1</ele>
        <time>2021-08-21T20:26:19Z</time>
      </trkpt>
      <trkpt lat="2.931944" lon="-75.27708">
        <ele>467.9</ele>
        <time>2021-08-21T20:26:20Z</time>
      </trkpt>
      <trkpt lat="2.931978" lon="-75.27709">
        <ele>467.8</ele>
        <time>2021-08-21T20:26:21Z</time>
      </trkpt>
      <trkpt lat="2.932009" lon="-75.27712">
        <ele>467.7</ele>
        <time>2021-08-21T20:26:22Z</time>
      </trkpt>
      <trkpt lat="2.932034" lon="-75.277145">
        <ele>467.6</ele>
        <time>2021-08-21T20:26:23Z</time>
      </trkpt>
      <trkpt lat="2.93205" lon="-75.27718">
        <ele>467.4</ele>
        <time>2021-08-21T20:26:24Z</time>
      </trkpt>
      <trkpt lat="2.932059" lon="-75.27722">
        <ele>467.1</ele>
        <time>2021-08-21T20:26:25Z</time>
      </trkpt>
      <trkpt lat="2.932063" lon="-75.27727">
        <ele>466.9</ele>
        <time>2021-08-21T20:26:26Z</time>
      </trkpt>
      <trkpt lat="2.932062" lon="-75.27731">
        <ele>466.7</ele>
        <time>2021-08-21T20:26:27Z</time>
      </trkpt>
      <trkpt lat="2.93206" lon="-75.277374">
        <ele>466.5</ele>
        <time>2021-08-21T20:26:28Z</time>
      </trkpt>
      <trkpt lat="2.932058" lon="-75.27743">
        <ele>466.2</ele>
        <time>2021-08-21T20:26:29Z</time>
      </trkpt>
      <trkpt lat="2.932055" lon="-75.27748">
        <ele>466.0</ele>
        <time>2021-08-21T20:26:30Z</time>
      </trkpt>
      <trkpt lat="2.932052" lon="-75.27754">
        <ele>465.7</ele>
        <time>2021-08-21T20:26:31Z</time>
      </trkpt>
      <trkpt lat="2.932049" lon="-75.277596">
        <ele>465.5</ele>
        <time>2021-08-21T20:26:32Z</time>
      </trkpt>
      <trkpt lat="2.932044" lon="-75.27764">
        <ele>465.3</ele>
        <time>2021-08-21T20:26:33Z</time>
      </trkpt>
      <trkpt lat="2.932036" lon="-75.27768">
        <ele>465.1</ele>
        <time>2021-08-21T20:26:34Z</time>
      </trkpt>
      <trkpt lat="2.932024" lon="-75.27771">
        <ele>464.9</ele>
        <time>2021-08-21T20:26:35Z</time>
      </trkpt>
      <trkpt lat="2.932007" lon="-75.27773">
        <ele>464.8</ele>
        <time>2021-08-21T20:26:36Z</time>
      </trkpt>
      <trkpt lat="2.931987" lon="-75.27775">
        <ele>464.7</ele>
        <time>2021-08-21T20:26:37Z</time>
      </trkpt>
      <trkpt lat="2.931965" lon="-75.27775">
        <ele>464.6</ele>
        <time>2021-08-21T20:26:38Z</time>
      </trkpt>
      <trkpt lat="2.93194" lon="-75.27775">
        <ele>464.5</ele>
        <time>2021-08-21T20:26:39Z</time>
      </trkpt>
      <trkpt lat="2.931913" lon="-75.27775">
        <ele>464.6</ele>
        <time>2021-08-21T20:26:40Z</time>
      </trkpt>
      <trkpt lat="2.931885" lon="-75.27775">
        <ele>464.7</ele>
        <time>2021-08-21T20:26:41Z</time>
      </trkpt>
      <trkpt lat="2.931855" lon="-75.27774">
        <ele>464.8</ele>
        <time>2021-08-21T20:26:42Z</time>
      </trkpt>
      <trkpt lat="2.931825" lon="-75.27773">
        <ele>464.9</ele>
        <time>2021-08-21T20:26:43Z</time>
      </trkpt>
      <trkpt lat="2.931795" lon="-75.277725">
        <ele>465.1</ele>
        <time>2021-08-21T20:26:44Z</time>
      </trkpt>
      <trkpt lat="2.931769" lon="-75.27771">
        <ele>465.2</ele>
        <time>2021-08-21T20:26:45Z</time>
      </trkpt>
      <trkpt lat="2.931745" lon="-75.277695">
        <ele>465.3</ele>
        <time>2021-08-21T20:26:46Z</time>
      </trkpt>
      <trkpt lat="2.931725" lon="-75.27769">
        <ele>465.4</ele>
        <time>2021-08-21T20:26:47Z</time>
      </trkpt>
      <trkpt lat="2.931711" lon="-75.27768">
        <ele>465.5</ele>
        <time>2021-08-21T20:26:48Z</time>
      </trkpt>
      <trkpt lat="2.931701" lon="-75.27767">
        <ele>465.6</ele>
        <time>2021-08-21T20:26:49Z</time>
      </trkpt>
      <trkpt lat="2.931693" lon="-75.277664">
        <ele>465.6</ele>
        <time>2021-08-21T20:26:50Z</time>
      </trkpt>
      <trkpt lat="2.931678" lon="-75.277565">
        <ele>466.1</ele>
        <time>2021-08-21T20:29:29Z</time>
      </trkpt>
    </trkseg>
  </trk>
</gpx>
